<?xml version="1.0" encoding="UTF-8" standalone="no" ?>
<gpx xmlns="http://www.topografix.com/GPX/1/1" xmlns:xsi="http://www.w3.org/2001/XMLSchema-instance" xsi:schemaLocation="http://www.topografix.com/GPX/1/1 http://www.topografix.com/GPX/1/1/gpx.xsd" version="1.1" creator="VisuGPX - https://www.visugpx.com">
  <metadata>
    <name>Plateau de Retord et Haut Bugey Mai 2026 #E (jour4)</name>
    <desc><![CDATA[En 2025, lors d'un voyage à vélo empruntant la GTJ Gravel, nous n'avions pas terminé le dernier jour à cause d'une météo défavorable avant d'arriver sur le plateau de Retord.
Objectif 2026 : faire des boucles Gravel sur le plateau de Retord au départ de Hauteville-Lompnes.
5 jours de vélo début mai 2026
Cette trace permet de découvrir des sites touristiques tels que la cascade "Le Pain de Sucre", la montée vers le col du Grand Colombier depuis le village de Lochieu ... Après le col, le retour vers Hauteville-Lompnes se fait en prenant une partie de la trace GTJ VTT entre "Les Plans d'Hotonnes" et "Le Grand Colombier" (sens sud/nord).
Au sud du col du Grand Colombier, il y a quelques points de vue : la pierre Fillola, le point de vue du Fenestré.]]></desc>
  </metadata>
  <trk>
    <name><![CDATA[Plateau de Retord et Haut Bugey Mai 2026 #E (jour4)_1]]></name>
    <trkseg>
      <trkpt lat="46.023" lon="5.59168">
        <ele>818.8</ele>
        <time>2026-05-13T06:45:37Z</time>
      </trkpt>
      <trkpt lat="46.023" lon="5.59172">
        <ele>818.6</ele>
        <time>2026-05-13T06:45:38Z</time>
      </trkpt>
      <trkpt lat="46.02301" lon="5.59177">
        <ele>818.6</ele>
        <time>2026-05-13T06:45:39Z</time>
      </trkpt>
      <trkpt lat="46.02301" lon="5.59183">
        <ele>818.4</ele>
        <time>2026-05-13T06:45:40Z</time>
      </trkpt>
      <trkpt lat="46.02301" lon="5.59188">
        <ele>818.4</ele>
        <time>2026-05-13T06:45:41Z</time>
      </trkpt>
      <trkpt lat="46.02301" lon="5.59192">
        <ele>818.4</ele>
        <time>2026-05-13T06:45:42Z</time>
      </trkpt>
      <trkpt lat="46.023" lon="5.59196">
        <ele>818.4</ele>
        <time>2026-05-13T06:45:43Z</time>
      </trkpt>
      <trkpt lat="46.02301" lon="5.59201">
        <ele>818.4</ele>
        <time>2026-05-13T06:45:44Z</time>
      </trkpt>
      <trkpt lat="46.02302" lon="5.59207">
        <ele>818.4</ele>
        <time>2026-05-13T06:45:45Z</time>
      </trkpt>
      <trkpt lat="46.02303" lon="5.59212">
        <ele>818.4</ele>
        <time>2026-05-13T06:45:46Z</time>
      </trkpt>
      <trkpt lat="46.02304" lon="5.59217">
        <ele>818.4</ele>
        <time>2026-05-13T06:45:47Z</time>
      </trkpt>
      <trkpt lat="46.02305" lon="5.59223">
        <ele>818.4</ele>
        <time>2026-05-13T06:45:48Z</time>
      </trkpt>
      <trkpt lat="46.02306" lon="5.59228">
        <ele>818.4</ele>
        <time>2026-05-13T06:45:49Z</time>
      </trkpt>
      <trkpt lat="46.02307" lon="5.59234">
        <ele>818.4</ele>
        <time>2026-05-13T06:45:50Z</time>
      </trkpt>
      <trkpt lat="46.02308" lon="5.5924">
        <ele>818.4</ele>
        <time>2026-05-13T06:45:51Z</time>
      </trkpt>
      <trkpt lat="46.02308" lon="5.59246">
        <ele>818.4</ele>
        <time>2026-05-13T06:45:52Z</time>
      </trkpt>
      <trkpt lat="46.02307" lon="5.59253">
        <ele>818.4</ele>
        <time>2026-05-13T06:45:53Z</time>
      </trkpt>
      <trkpt lat="46.02306" lon="5.59259">
        <ele>818.4</ele>
        <time>2026-05-13T06:45:54Z</time>
      </trkpt>
      <trkpt lat="46.02304" lon="5.59265">
        <ele>818.4</ele>
        <time>2026-05-13T06:45:55Z</time>
      </trkpt>
      <trkpt lat="46.02303" lon="5.5927">
        <ele>818.4</ele>
        <time>2026-05-13T06:45:56Z</time>
      </trkpt>
      <trkpt lat="46.02299" lon="5.59275">
        <ele>818.4</ele>
        <time>2026-05-13T06:45:57Z</time>
      </trkpt>
      <trkpt lat="46.02296" lon="5.59279">
        <ele>818.2</ele>
        <time>2026-05-13T06:45:58Z</time>
      </trkpt>
      <trkpt lat="46.02292" lon="5.59284">
        <ele>818.2</ele>
        <time>2026-05-13T06:45:59Z</time>
      </trkpt>
      <trkpt lat="46.02287" lon="5.59287">
        <ele>818.2</ele>
        <time>2026-05-13T06:46:00Z</time>
      </trkpt>
      <trkpt lat="46.02284" lon="5.59289">
        <ele>818.2</ele>
        <time>2026-05-13T06:46:01Z</time>
      </trkpt>
      <trkpt lat="46.0228" lon="5.59292">
        <ele>818.2</ele>
        <time>2026-05-13T06:46:02Z</time>
      </trkpt>
      <trkpt lat="46.02275" lon="5.59294">
        <ele>818.4</ele>
        <time>2026-05-13T06:46:03Z</time>
      </trkpt>
      <trkpt lat="46.02271" lon="5.59296">
        <ele>818.4</ele>
        <time>2026-05-13T06:46:04Z</time>
      </trkpt>
      <trkpt lat="46.02268" lon="5.59296">
        <ele>818.8</ele>
        <time>2026-05-13T06:46:05Z</time>
      </trkpt>
      <trkpt lat="46.02266" lon="5.59296">
        <ele>818.8</ele>
        <time>2026-05-13T06:46:06Z</time>
      </trkpt>
      <trkpt lat="46.02266" lon="5.59297">
        <ele>819</ele>
        <time>2026-05-13T06:46:07Z</time>
      </trkpt>
      <trkpt lat="46.02265" lon="5.59298">
        <ele>819</ele>
        <time>2026-05-13T06:46:08Z</time>
      </trkpt>
      <trkpt lat="46.02265" lon="5.59298">
        <ele>819</ele>
        <time>2026-05-13T06:46:09Z</time>
      </trkpt>
      <trkpt lat="46.02261" lon="5.59301">
        <ele>819.4</ele>
        <time>2026-05-13T06:46:18Z</time>
      </trkpt>
      <trkpt lat="46.02259" lon="5.59302">
        <ele>819.4</ele>
        <time>2026-05-13T06:46:19Z</time>
      </trkpt>
      <trkpt lat="46.02256" lon="5.59301">
        <ele>819.4</ele>
        <time>2026-05-13T06:46:20Z</time>
      </trkpt>
      <trkpt lat="46.02253" lon="5.59301">
        <ele>819.4</ele>
        <time>2026-05-13T06:46:21Z</time>
      </trkpt>
      <trkpt lat="46.0225" lon="5.593">
        <ele>819.4</ele>
        <time>2026-05-13T06:46:22Z</time>
      </trkpt>
      <trkpt lat="46.02247" lon="5.593">
        <ele>819.4</ele>
        <time>2026-05-13T06:46:23Z</time>
      </trkpt>
      <trkpt lat="46.02244" lon="5.593">
        <ele>819.4</ele>
        <time>2026-05-13T06:46:24Z</time>
      </trkpt>
      <trkpt lat="46.02241" lon="5.593">
        <ele>819.4</ele>
        <time>2026-05-13T06:46:25Z</time>
      </trkpt>
      <trkpt lat="46.02237" lon="5.593">
        <ele>819.6</ele>
        <time>2026-05-13T06:46:26Z</time>
      </trkpt>
      <trkpt lat="46.02234" lon="5.59301">
        <ele>819.6</ele>
        <time>2026-05-13T06:46:27Z</time>
      </trkpt>
      <trkpt lat="46.02231" lon="5.59302">
        <ele>819.8</ele>
        <time>2026-05-13T06:46:28Z</time>
      </trkpt>
      <trkpt lat="46.02228" lon="5.59304">
        <ele>819.8</ele>
        <time>2026-05-13T06:46:29Z</time>
      </trkpt>
      <trkpt lat="46.02225" lon="5.59306">
        <ele>819.8</ele>
        <time>2026-05-13T06:46:30Z</time>
      </trkpt>
      <trkpt lat="46.02222" lon="5.59308">
        <ele>819.8</ele>
        <time>2026-05-13T06:46:31Z</time>
      </trkpt>
      <trkpt lat="46.02219" lon="5.59312">
        <ele>819.8</ele>
        <time>2026-05-13T06:46:32Z</time>
      </trkpt>
      <trkpt lat="46.02216" lon="5.59316">
        <ele>819.8</ele>
        <time>2026-05-13T06:46:33Z</time>
      </trkpt>
      <trkpt lat="46.02215" lon="5.59324">
        <ele>819.8</ele>
        <time>2026-05-13T06:46:34Z</time>
      </trkpt>
      <trkpt lat="46.02214" lon="5.5933">
        <ele>819.8</ele>
        <time>2026-05-13T06:46:35Z</time>
      </trkpt>
      <trkpt lat="46.02213" lon="5.59336">
        <ele>819.8</ele>
        <time>2026-05-13T06:46:36Z</time>
      </trkpt>
      <trkpt lat="46.02213" lon="5.59341">
        <ele>819.4</ele>
        <time>2026-05-13T06:46:37Z</time>
      </trkpt>
      <trkpt lat="46.02213" lon="5.59347">
        <ele>819.4</ele>
        <time>2026-05-13T06:46:38Z</time>
      </trkpt>
      <trkpt lat="46.02213" lon="5.59354">
        <ele>819.4</ele>
        <time>2026-05-13T06:46:39Z</time>
      </trkpt>
      <trkpt lat="46.02214" lon="5.59359">
        <ele>819.4</ele>
        <time>2026-05-13T06:46:40Z</time>
      </trkpt>
      <trkpt lat="46.02214" lon="5.59364">
        <ele>819.4</ele>
        <time>2026-05-13T06:46:41Z</time>
      </trkpt>
      <trkpt lat="46.02215" lon="5.5937">
        <ele>819.4</ele>
        <time>2026-05-13T06:46:42Z</time>
      </trkpt>
      <trkpt lat="46.02215" lon="5.59375">
        <ele>819.4</ele>
        <time>2026-05-13T06:46:43Z</time>
      </trkpt>
      <trkpt lat="46.02216" lon="5.59381">
        <ele>819.4</ele>
        <time>2026-05-13T06:46:44Z</time>
      </trkpt>
      <trkpt lat="46.02216" lon="5.59387">
        <ele>819.4</ele>
        <time>2026-05-13T06:46:45Z</time>
      </trkpt>
      <trkpt lat="46.02216" lon="5.59387">
        <ele>819.4</ele>
        <time>2026-05-13T06:46:46Z</time>
      </trkpt>
      <trkpt lat="46.02217" lon="5.59393">
        <ele>819.4</ele>
        <time>2026-05-13T06:46:47Z</time>
      </trkpt>
      <trkpt lat="46.02218" lon="5.59399">
        <ele>819.4</ele>
        <time>2026-05-13T06:46:48Z</time>
      </trkpt>
      <trkpt lat="46.02219" lon="5.59405">
        <ele>819.4</ele>
        <time>2026-05-13T06:46:49Z</time>
      </trkpt>
      <trkpt lat="46.0222" lon="5.59411">
        <ele>819.4</ele>
        <time>2026-05-13T06:46:50Z</time>
      </trkpt>
      <trkpt lat="46.02221" lon="5.59417">
        <ele>819.8</ele>
        <time>2026-05-13T06:46:51Z</time>
      </trkpt>
      <trkpt lat="46.02221" lon="5.59423">
        <ele>819.8</ele>
        <time>2026-05-13T06:46:52Z</time>
      </trkpt>
      <trkpt lat="46.02222" lon="5.59429">
        <ele>819.8</ele>
        <time>2026-05-13T06:46:53Z</time>
      </trkpt>
      <trkpt lat="46.02222" lon="5.59434">
        <ele>820</ele>
        <time>2026-05-13T06:46:54Z</time>
      </trkpt>
      <trkpt lat="46.02222" lon="5.59434">
        <ele>820</ele>
        <time>2026-05-13T06:46:55Z</time>
      </trkpt>
      <trkpt lat="46.02222" lon="5.59458">
        <ele>820.2</ele>
        <time>2026-05-13T06:46:57Z</time>
      </trkpt>
      <trkpt lat="46.02222" lon="5.59464">
        <ele>820.2</ele>
        <time>2026-05-13T06:46:58Z</time>
      </trkpt>
      <trkpt lat="46.02222" lon="5.5947">
        <ele>820.2</ele>
        <time>2026-05-13T06:46:59Z</time>
      </trkpt>
      <trkpt lat="46.02222" lon="5.59476">
        <ele>820.2</ele>
        <time>2026-05-13T06:47:00Z</time>
      </trkpt>
      <trkpt lat="46.02221" lon="5.59482">
        <ele>820.2</ele>
        <time>2026-05-13T06:47:01Z</time>
      </trkpt>
      <trkpt lat="46.02221" lon="5.59488">
        <ele>820.2</ele>
        <time>2026-05-13T06:47:02Z</time>
      </trkpt>
      <trkpt lat="46.02221" lon="5.59494">
        <ele>820.2</ele>
        <time>2026-05-13T06:47:03Z</time>
      </trkpt>
      <trkpt lat="46.0222" lon="5.595">
        <ele>820.4</ele>
        <time>2026-05-13T06:47:04Z</time>
      </trkpt>
      <trkpt lat="46.0222" lon="5.59506">
        <ele>820.4</ele>
        <time>2026-05-13T06:47:05Z</time>
      </trkpt>
      <trkpt lat="46.02219" lon="5.59512">
        <ele>820.4</ele>
        <time>2026-05-13T06:47:06Z</time>
      </trkpt>
      <trkpt lat="46.02219" lon="5.59519">
        <ele>820.4</ele>
        <time>2026-05-13T06:47:07Z</time>
      </trkpt>
      <trkpt lat="46.02218" lon="5.59525">
        <ele>820.8</ele>
        <time>2026-05-13T06:47:08Z</time>
      </trkpt>
      <trkpt lat="46.02218" lon="5.59531">
        <ele>820.8</ele>
        <time>2026-05-13T06:47:09Z</time>
      </trkpt>
      <trkpt lat="46.02217" lon="5.59538">
        <ele>820.8</ele>
        <time>2026-05-13T06:47:10Z</time>
      </trkpt>
      <trkpt lat="46.02216" lon="5.59545">
        <ele>820.8</ele>
        <time>2026-05-13T06:47:11Z</time>
      </trkpt>
      <trkpt lat="46.02215" lon="5.59551">
        <ele>821</ele>
        <time>2026-05-13T06:47:12Z</time>
      </trkpt>
      <trkpt lat="46.02214" lon="5.59557">
        <ele>821</ele>
        <time>2026-05-13T06:47:13Z</time>
      </trkpt>
      <trkpt lat="46.02212" lon="5.59563">
        <ele>821</ele>
        <time>2026-05-13T06:47:14Z</time>
      </trkpt>
      <trkpt lat="46.0221" lon="5.59569">
        <ele>821.2</ele>
        <time>2026-05-13T06:47:15Z</time>
      </trkpt>
      <trkpt lat="46.0221" lon="5.59575">
        <ele>821.2</ele>
        <time>2026-05-13T06:47:16Z</time>
      </trkpt>
      <trkpt lat="46.02209" lon="5.5958">
        <ele>821.4</ele>
        <time>2026-05-13T06:47:17Z</time>
      </trkpt>
      <trkpt lat="46.02207" lon="5.59584">
        <ele>821.4</ele>
        <time>2026-05-13T06:47:18Z</time>
      </trkpt>
      <trkpt lat="46.02206" lon="5.59588">
        <ele>821.8</ele>
        <time>2026-05-13T06:47:19Z</time>
      </trkpt>
      <trkpt lat="46.02205" lon="5.59593">
        <ele>821.8</ele>
        <time>2026-05-13T06:47:20Z</time>
      </trkpt>
      <trkpt lat="46.02203" lon="5.59597">
        <ele>822.2</ele>
        <time>2026-05-13T06:47:21Z</time>
      </trkpt>
      <trkpt lat="46.02201" lon="5.59601">
        <ele>822.4</ele>
        <time>2026-05-13T06:47:22Z</time>
      </trkpt>
      <trkpt lat="46.02199" lon="5.59605">
        <ele>822.4</ele>
        <time>2026-05-13T06:47:23Z</time>
      </trkpt>
      <trkpt lat="46.02197" lon="5.59608">
        <ele>823</ele>
        <time>2026-05-13T06:47:24Z</time>
      </trkpt>
      <trkpt lat="46.02195" lon="5.59611">
        <ele>823.2</ele>
        <time>2026-05-13T06:47:25Z</time>
      </trkpt>
      <trkpt lat="46.02193" lon="5.59614">
        <ele>823.2</ele>
        <time>2026-05-13T06:47:26Z</time>
      </trkpt>
      <trkpt lat="46.02191" lon="5.59617">
        <ele>823.4</ele>
        <time>2026-05-13T06:47:27Z</time>
      </trkpt>
      <trkpt lat="46.02188" lon="5.5962">
        <ele>823.4</ele>
        <time>2026-05-13T06:47:28Z</time>
      </trkpt>
      <trkpt lat="46.02185" lon="5.59622">
        <ele>823.8</ele>
        <time>2026-05-13T06:47:29Z</time>
      </trkpt>
      <trkpt lat="46.02182" lon="5.59623">
        <ele>823.8</ele>
        <time>2026-05-13T06:47:30Z</time>
      </trkpt>
      <trkpt lat="46.02178" lon="5.59624">
        <ele>824</ele>
        <time>2026-05-13T06:47:31Z</time>
      </trkpt>
      <trkpt lat="46.02174" lon="5.59624">
        <ele>824</ele>
        <time>2026-05-13T06:47:32Z</time>
      </trkpt>
      <trkpt lat="46.0217" lon="5.59623">
        <ele>823.8</ele>
        <time>2026-05-13T06:47:33Z</time>
      </trkpt>
      <trkpt lat="46.02165" lon="5.59618">
        <ele>823.4</ele>
        <time>2026-05-13T06:47:34Z</time>
      </trkpt>
      <trkpt lat="46.02161" lon="5.59613">
        <ele>823.2</ele>
        <time>2026-05-13T06:47:35Z</time>
      </trkpt>
      <trkpt lat="46.02157" lon="5.59608">
        <ele>823.2</ele>
        <time>2026-05-13T06:47:36Z</time>
      </trkpt>
      <trkpt lat="46.02153" lon="5.59603">
        <ele>823</ele>
        <time>2026-05-13T06:47:37Z</time>
      </trkpt>
      <trkpt lat="46.02149" lon="5.59598">
        <ele>822.8</ele>
        <time>2026-05-13T06:47:38Z</time>
      </trkpt>
      <trkpt lat="46.02145" lon="5.59592">
        <ele>822.4</ele>
        <time>2026-05-13T06:47:39Z</time>
      </trkpt>
      <trkpt lat="46.02141" lon="5.59586">
        <ele>822.2</ele>
        <time>2026-05-13T06:47:40Z</time>
      </trkpt>
      <trkpt lat="46.02137" lon="5.5958">
        <ele>822.2</ele>
        <time>2026-05-13T06:47:41Z</time>
      </trkpt>
      <trkpt lat="46.02133" lon="5.59574">
        <ele>822.2</ele>
        <time>2026-05-13T06:47:42Z</time>
      </trkpt>
      <trkpt lat="46.02129" lon="5.59569">
        <ele>821.8</ele>
        <time>2026-05-13T06:47:43Z</time>
      </trkpt>
      <trkpt lat="46.02125" lon="5.59563">
        <ele>821.8</ele>
        <time>2026-05-13T06:47:44Z</time>
      </trkpt>
      <trkpt lat="46.02121" lon="5.59557">
        <ele>821.6</ele>
        <time>2026-05-13T06:47:45Z</time>
      </trkpt>
      <trkpt lat="46.02118" lon="5.59552">
        <ele>821.6</ele>
        <time>2026-05-13T06:47:46Z</time>
      </trkpt>
      <trkpt lat="46.02113" lon="5.59547">
        <ele>821.6</ele>
        <time>2026-05-13T06:47:47Z</time>
      </trkpt>
      <trkpt lat="46.0211" lon="5.59542">
        <ele>821.2</ele>
        <time>2026-05-13T06:47:48Z</time>
      </trkpt>
      <trkpt lat="46.02106" lon="5.59536">
        <ele>821.2</ele>
        <time>2026-05-13T06:47:49Z</time>
      </trkpt>
      <trkpt lat="46.02102" lon="5.59531">
        <ele>821.2</ele>
        <time>2026-05-13T06:47:50Z</time>
      </trkpt>
      <trkpt lat="46.02098" lon="5.59526">
        <ele>821.2</ele>
        <time>2026-05-13T06:47:51Z</time>
      </trkpt>
      <trkpt lat="46.02095" lon="5.59521">
        <ele>821</ele>
        <time>2026-05-13T06:47:52Z</time>
      </trkpt>
      <trkpt lat="46.02091" lon="5.59516">
        <ele>820.4</ele>
        <time>2026-05-13T06:47:53Z</time>
      </trkpt>
      <trkpt lat="46.02088" lon="5.5951">
        <ele>820.4</ele>
        <time>2026-05-13T06:47:54Z</time>
      </trkpt>
      <trkpt lat="46.02084" lon="5.59506">
        <ele>820.4</ele>
        <time>2026-05-13T06:47:55Z</time>
      </trkpt>
      <trkpt lat="46.02081" lon="5.59501">
        <ele>820.8</ele>
        <time>2026-05-13T06:47:56Z</time>
      </trkpt>
      <trkpt lat="46.02077" lon="5.59496">
        <ele>820.8</ele>
        <time>2026-05-13T06:47:57Z</time>
      </trkpt>
      <trkpt lat="46.02073" lon="5.5949">
        <ele>820.4</ele>
        <time>2026-05-13T06:47:58Z</time>
      </trkpt>
      <trkpt lat="46.02069" lon="5.59485">
        <ele>820.4</ele>
        <time>2026-05-13T06:47:59Z</time>
      </trkpt>
      <trkpt lat="46.02065" lon="5.5948">
        <ele>820</ele>
        <time>2026-05-13T06:48:00Z</time>
      </trkpt>
      <trkpt lat="46.02065" lon="5.5948">
        <ele>820</ele>
        <time>2026-05-13T06:48:01Z</time>
      </trkpt>
      <trkpt lat="46.02058" lon="5.5947">
        <ele>820</ele>
        <time>2026-05-13T06:48:02Z</time>
      </trkpt>
      <trkpt lat="46.02055" lon="5.59466">
        <ele>820.2</ele>
        <time>2026-05-13T06:48:03Z</time>
      </trkpt>
      <trkpt lat="46.02051" lon="5.59461">
        <ele>820.4</ele>
        <time>2026-05-13T06:48:04Z</time>
      </trkpt>
      <trkpt lat="46.02047" lon="5.59457">
        <ele>820</ele>
        <time>2026-05-13T06:48:05Z</time>
      </trkpt>
      <trkpt lat="46.02044" lon="5.59452">
        <ele>819.6</ele>
        <time>2026-05-13T06:48:06Z</time>
      </trkpt>
      <trkpt lat="46.0204" lon="5.59448">
        <ele>819.6</ele>
        <time>2026-05-13T06:48:07Z</time>
      </trkpt>
      <trkpt lat="46.02036" lon="5.59444">
        <ele>820</ele>
        <time>2026-05-13T06:48:08Z</time>
      </trkpt>
      <trkpt lat="46.02032" lon="5.59439">
        <ele>820</ele>
        <time>2026-05-13T06:48:09Z</time>
      </trkpt>
      <trkpt lat="46.02027" lon="5.59436">
        <ele>820</ele>
        <time>2026-05-13T06:48:10Z</time>
      </trkpt>
      <trkpt lat="46.02023" lon="5.59432">
        <ele>820</ele>
        <time>2026-05-13T06:48:11Z</time>
      </trkpt>
      <trkpt lat="46.02019" lon="5.59428">
        <ele>820</ele>
        <time>2026-05-13T06:48:12Z</time>
      </trkpt>
      <trkpt lat="46.02014" lon="5.59424">
        <ele>819.8</ele>
        <time>2026-05-13T06:48:13Z</time>
      </trkpt>
      <trkpt lat="46.02009" lon="5.5942">
        <ele>819.8</ele>
        <time>2026-05-13T06:48:14Z</time>
      </trkpt>
      <trkpt lat="46.02005" lon="5.59417">
        <ele>819.8</ele>
        <time>2026-05-13T06:48:15Z</time>
      </trkpt>
      <trkpt lat="46.02" lon="5.59412">
        <ele>819.8</ele>
        <time>2026-05-13T06:48:16Z</time>
      </trkpt>
      <trkpt lat="46.01996" lon="5.59408">
        <ele>820</ele>
        <time>2026-05-13T06:48:17Z</time>
      </trkpt>
      <trkpt lat="46.01992" lon="5.59403">
        <ele>819.6</ele>
        <time>2026-05-13T06:48:18Z</time>
      </trkpt>
      <trkpt lat="46.01988" lon="5.59399">
        <ele>819.6</ele>
        <time>2026-05-13T06:48:19Z</time>
      </trkpt>
      <trkpt lat="46.01983" lon="5.59394">
        <ele>819.2</ele>
        <time>2026-05-13T06:48:20Z</time>
      </trkpt>
      <trkpt lat="46.01979" lon="5.5939">
        <ele>819.6</ele>
        <time>2026-05-13T06:48:21Z</time>
      </trkpt>
      <trkpt lat="46.01975" lon="5.59386">
        <ele>819.8</ele>
        <time>2026-05-13T06:48:22Z</time>
      </trkpt>
      <trkpt lat="46.01971" lon="5.59383">
        <ele>819.8</ele>
        <time>2026-05-13T06:48:23Z</time>
      </trkpt>
      <trkpt lat="46.01967" lon="5.5938">
        <ele>819.8</ele>
        <time>2026-05-13T06:48:24Z</time>
      </trkpt>
      <trkpt lat="46.01963" lon="5.59377">
        <ele>819.8</ele>
        <time>2026-05-13T06:48:25Z</time>
      </trkpt>
      <trkpt lat="46.01958" lon="5.59374">
        <ele>819.8</ele>
        <time>2026-05-13T06:48:26Z</time>
      </trkpt>
      <trkpt lat="46.01953" lon="5.59371">
        <ele>819.4</ele>
        <time>2026-05-13T06:48:27Z</time>
      </trkpt>
      <trkpt lat="46.01948" lon="5.59369">
        <ele>819.4</ele>
        <time>2026-05-13T06:48:28Z</time>
      </trkpt>
      <trkpt lat="46.01944" lon="5.59368">
        <ele>819.6</ele>
        <time>2026-05-13T06:48:29Z</time>
      </trkpt>
      <trkpt lat="46.01939" lon="5.59366">
        <ele>819.6</ele>
        <time>2026-05-13T06:48:30Z</time>
      </trkpt>
      <trkpt lat="46.01934" lon="5.59364">
        <ele>819.4</ele>
        <time>2026-05-13T06:48:31Z</time>
      </trkpt>
      <trkpt lat="46.0193" lon="5.59363">
        <ele>819.4</ele>
        <time>2026-05-13T06:48:32Z</time>
      </trkpt>
      <trkpt lat="46.01925" lon="5.59363">
        <ele>819.4</ele>
        <time>2026-05-13T06:48:33Z</time>
      </trkpt>
      <trkpt lat="46.01919" lon="5.59363">
        <ele>819.4</ele>
        <time>2026-05-13T06:48:34Z</time>
      </trkpt>
      <trkpt lat="46.01915" lon="5.59363">
        <ele>819.4</ele>
        <time>2026-05-13T06:48:35Z</time>
      </trkpt>
      <trkpt lat="46.01909" lon="5.59362">
        <ele>819.4</ele>
        <time>2026-05-13T06:48:36Z</time>
      </trkpt>
      <trkpt lat="46.01904" lon="5.59362">
        <ele>819</ele>
        <time>2026-05-13T06:48:37Z</time>
      </trkpt>
      <trkpt lat="46.01899" lon="5.59362">
        <ele>818.8</ele>
        <time>2026-05-13T06:48:38Z</time>
      </trkpt>
      <trkpt lat="46.01895" lon="5.59361">
        <ele>818.8</ele>
        <time>2026-05-13T06:48:39Z</time>
      </trkpt>
      <trkpt lat="46.0189" lon="5.59361">
        <ele>818.8</ele>
        <time>2026-05-13T06:48:40Z</time>
      </trkpt>
      <trkpt lat="46.01885" lon="5.59361">
        <ele>818.8</ele>
        <time>2026-05-13T06:48:41Z</time>
      </trkpt>
      <trkpt lat="46.0188" lon="5.59362">
        <ele>818.8</ele>
        <time>2026-05-13T06:48:42Z</time>
      </trkpt>
      <trkpt lat="46.01875" lon="5.59362">
        <ele>818.4</ele>
        <time>2026-05-13T06:48:43Z</time>
      </trkpt>
      <trkpt lat="46.01871" lon="5.59362">
        <ele>818.4</ele>
        <time>2026-05-13T06:48:44Z</time>
      </trkpt>
      <trkpt lat="46.01867" lon="5.5936">
        <ele>818.4</ele>
        <time>2026-05-13T06:48:45Z</time>
      </trkpt>
      <trkpt lat="46.01862" lon="5.5936">
        <ele>818.2</ele>
        <time>2026-05-13T06:48:46Z</time>
      </trkpt>
      <trkpt lat="46.01858" lon="5.5936">
        <ele>818.2</ele>
        <time>2026-05-13T06:48:47Z</time>
      </trkpt>
      <trkpt lat="46.01854" lon="5.59361">
        <ele>818.2</ele>
        <time>2026-05-13T06:48:48Z</time>
      </trkpt>
      <trkpt lat="46.01849" lon="5.59362">
        <ele>818.6</ele>
        <time>2026-05-13T06:48:49Z</time>
      </trkpt>
      <trkpt lat="46.01844" lon="5.59362">
        <ele>818.6</ele>
        <time>2026-05-13T06:48:50Z</time>
      </trkpt>
      <trkpt lat="46.0184" lon="5.59362">
        <ele>818.8</ele>
        <time>2026-05-13T06:48:51Z</time>
      </trkpt>
      <trkpt lat="46.01836" lon="5.59363">
        <ele>818.8</ele>
        <time>2026-05-13T06:48:52Z</time>
      </trkpt>
      <trkpt lat="46.01831" lon="5.59364">
        <ele>819</ele>
        <time>2026-05-13T06:48:53Z</time>
      </trkpt>
      <trkpt lat="46.01827" lon="5.59364">
        <ele>819</ele>
        <time>2026-05-13T06:48:54Z</time>
      </trkpt>
      <trkpt lat="46.01823" lon="5.59366">
        <ele>819</ele>
        <time>2026-05-13T06:48:55Z</time>
      </trkpt>
      <trkpt lat="46.01819" lon="5.59367">
        <ele>819</ele>
        <time>2026-05-13T06:48:56Z</time>
      </trkpt>
      <trkpt lat="46.01815" lon="5.59369">
        <ele>819</ele>
        <time>2026-05-13T06:48:57Z</time>
      </trkpt>
      <trkpt lat="46.01811" lon="5.59371">
        <ele>819</ele>
        <time>2026-05-13T06:48:58Z</time>
      </trkpt>
      <trkpt lat="46.01808" lon="5.59373">
        <ele>819</ele>
        <time>2026-05-13T06:48:59Z</time>
      </trkpt>
      <trkpt lat="46.01804" lon="5.59375">
        <ele>819.4</ele>
        <time>2026-05-13T06:49:00Z</time>
      </trkpt>
      <trkpt lat="46.01801" lon="5.59377">
        <ele>819.4</ele>
        <time>2026-05-13T06:49:01Z</time>
      </trkpt>
      <trkpt lat="46.01797" lon="5.59379">
        <ele>819.4</ele>
        <time>2026-05-13T06:49:02Z</time>
      </trkpt>
      <trkpt lat="46.01794" lon="5.59382">
        <ele>819.4</ele>
        <time>2026-05-13T06:49:03Z</time>
      </trkpt>
      <trkpt lat="46.0179" lon="5.59384">
        <ele>819.2</ele>
        <time>2026-05-13T06:49:04Z</time>
      </trkpt>
      <trkpt lat="46.01787" lon="5.59387">
        <ele>819.2</ele>
        <time>2026-05-13T06:49:05Z</time>
      </trkpt>
      <trkpt lat="46.01783" lon="5.5939">
        <ele>819.4</ele>
        <time>2026-05-13T06:49:06Z</time>
      </trkpt>
      <trkpt lat="46.01779" lon="5.59392">
        <ele>819.4</ele>
        <time>2026-05-13T06:49:07Z</time>
      </trkpt>
      <trkpt lat="46.01775" lon="5.59395">
        <ele>819.4</ele>
        <time>2026-05-13T06:49:08Z</time>
      </trkpt>
      <trkpt lat="46.01772" lon="5.59398">
        <ele>819.8</ele>
        <time>2026-05-13T06:49:09Z</time>
      </trkpt>
      <trkpt lat="46.01768" lon="5.594">
        <ele>819.8</ele>
        <time>2026-05-13T06:49:10Z</time>
      </trkpt>
      <trkpt lat="46.01764" lon="5.59403">
        <ele>819.8</ele>
        <time>2026-05-13T06:49:11Z</time>
      </trkpt>
      <trkpt lat="46.0176" lon="5.59405">
        <ele>819.8</ele>
        <time>2026-05-13T06:49:12Z</time>
      </trkpt>
      <trkpt lat="46.01757" lon="5.59408">
        <ele>819.8</ele>
        <time>2026-05-13T06:49:13Z</time>
      </trkpt>
      <trkpt lat="46.01753" lon="5.5941">
        <ele>819.8</ele>
        <time>2026-05-13T06:49:14Z</time>
      </trkpt>
      <trkpt lat="46.01749" lon="5.59412">
        <ele>819.8</ele>
        <time>2026-05-13T06:49:15Z</time>
      </trkpt>
      <trkpt lat="46.01745" lon="5.59414">
        <ele>819.8</ele>
        <time>2026-05-13T06:49:16Z</time>
      </trkpt>
      <trkpt lat="46.01742" lon="5.59416">
        <ele>819.8</ele>
        <time>2026-05-13T06:49:17Z</time>
      </trkpt>
      <trkpt lat="46.01738" lon="5.59419">
        <ele>820</ele>
        <time>2026-05-13T06:49:18Z</time>
      </trkpt>
      <trkpt lat="46.01734" lon="5.59421">
        <ele>820</ele>
        <time>2026-05-13T06:49:19Z</time>
      </trkpt>
      <trkpt lat="46.0173" lon="5.59423">
        <ele>820</ele>
        <time>2026-05-13T06:49:20Z</time>
      </trkpt>
      <trkpt lat="46.01726" lon="5.59426">
        <ele>820.2</ele>
        <time>2026-05-13T06:49:21Z</time>
      </trkpt>
      <trkpt lat="46.01723" lon="5.59428">
        <ele>820.2</ele>
        <time>2026-05-13T06:49:22Z</time>
      </trkpt>
      <trkpt lat="46.01719" lon="5.5943">
        <ele>820.6</ele>
        <time>2026-05-13T06:49:23Z</time>
      </trkpt>
      <trkpt lat="46.01715" lon="5.59432">
        <ele>820.6</ele>
        <time>2026-05-13T06:49:24Z</time>
      </trkpt>
      <trkpt lat="46.01711" lon="5.59434">
        <ele>820.6</ele>
        <time>2026-05-13T06:49:25Z</time>
      </trkpt>
      <trkpt lat="46.01708" lon="5.59437">
        <ele>820.6</ele>
        <time>2026-05-13T06:49:26Z</time>
      </trkpt>
      <trkpt lat="46.01704" lon="5.5944">
        <ele>820.6</ele>
        <time>2026-05-13T06:49:27Z</time>
      </trkpt>
      <trkpt lat="46.017" lon="5.59442">
        <ele>820.6</ele>
        <time>2026-05-13T06:49:28Z</time>
      </trkpt>
      <trkpt lat="46.01697" lon="5.59444">
        <ele>821</ele>
        <time>2026-05-13T06:49:29Z</time>
      </trkpt>
      <trkpt lat="46.01693" lon="5.59447">
        <ele>821</ele>
        <time>2026-05-13T06:49:30Z</time>
      </trkpt>
      <trkpt lat="46.01689" lon="5.59449">
        <ele>820.8</ele>
        <time>2026-05-13T06:49:31Z</time>
      </trkpt>
      <trkpt lat="46.01685" lon="5.59452">
        <ele>820.8</ele>
        <time>2026-05-13T06:49:32Z</time>
      </trkpt>
      <trkpt lat="46.01681" lon="5.59455">
        <ele>820.6</ele>
        <time>2026-05-13T06:49:33Z</time>
      </trkpt>
      <trkpt lat="46.01677" lon="5.59457">
        <ele>820.6</ele>
        <time>2026-05-13T06:49:34Z</time>
      </trkpt>
      <trkpt lat="46.01673" lon="5.59459">
        <ele>820.6</ele>
        <time>2026-05-13T06:49:35Z</time>
      </trkpt>
      <trkpt lat="46.01669" lon="5.59462">
        <ele>820.8</ele>
        <time>2026-05-13T06:49:36Z</time>
      </trkpt>
      <trkpt lat="46.01665" lon="5.59464">
        <ele>820.8</ele>
        <time>2026-05-13T06:49:37Z</time>
      </trkpt>
      <trkpt lat="46.0166" lon="5.59466">
        <ele>820.8</ele>
        <time>2026-05-13T06:49:38Z</time>
      </trkpt>
      <trkpt lat="46.01656" lon="5.59469">
        <ele>820.8</ele>
        <time>2026-05-13T06:49:39Z</time>
      </trkpt>
      <trkpt lat="46.01652" lon="5.59471">
        <ele>820.6</ele>
        <time>2026-05-13T06:49:40Z</time>
      </trkpt>
      <trkpt lat="46.01647" lon="5.59472">
        <ele>820.6</ele>
        <time>2026-05-13T06:49:41Z</time>
      </trkpt>
      <trkpt lat="46.01643" lon="5.59472">
        <ele>820.4</ele>
        <time>2026-05-13T06:49:42Z</time>
      </trkpt>
      <trkpt lat="46.01638" lon="5.59473">
        <ele>820.4</ele>
        <time>2026-05-13T06:49:43Z</time>
      </trkpt>
      <trkpt lat="46.01634" lon="5.59473">
        <ele>820.4</ele>
        <time>2026-05-13T06:49:44Z</time>
      </trkpt>
      <trkpt lat="46.01629" lon="5.59473">
        <ele>820.4</ele>
        <time>2026-05-13T06:49:45Z</time>
      </trkpt>
      <trkpt lat="46.01624" lon="5.59472">
        <ele>820.4</ele>
        <time>2026-05-13T06:49:46Z</time>
      </trkpt>
      <trkpt lat="46.0162" lon="5.59471">
        <ele>820.4</ele>
        <time>2026-05-13T06:49:47Z</time>
      </trkpt>
      <trkpt lat="46.01616" lon="5.5947">
        <ele>820.4</ele>
        <time>2026-05-13T06:49:48Z</time>
      </trkpt>
      <trkpt lat="46.01616" lon="5.5947">
        <ele>820.4</ele>
        <time>2026-05-13T06:49:49Z</time>
      </trkpt>
      <trkpt lat="46.01611" lon="5.59468">
        <ele>820.6</ele>
        <time>2026-05-13T06:49:50Z</time>
      </trkpt>
      <trkpt lat="46.01608" lon="5.59466">
        <ele>821</ele>
        <time>2026-05-13T06:49:51Z</time>
      </trkpt>
      <trkpt lat="46.01604" lon="5.59463">
        <ele>820.6</ele>
        <time>2026-05-13T06:49:52Z</time>
      </trkpt>
      <trkpt lat="46.016" lon="5.59461">
        <ele>820.6</ele>
        <time>2026-05-13T06:49:53Z</time>
      </trkpt>
      <trkpt lat="46.01596" lon="5.5946">
        <ele>820.6</ele>
        <time>2026-05-13T06:49:54Z</time>
      </trkpt>
      <trkpt lat="46.01592" lon="5.59458">
        <ele>820.4</ele>
        <time>2026-05-13T06:49:55Z</time>
      </trkpt>
      <trkpt lat="46.01588" lon="5.59456">
        <ele>820.4</ele>
        <time>2026-05-13T06:49:56Z</time>
      </trkpt>
      <trkpt lat="46.01584" lon="5.59454">
        <ele>820.4</ele>
        <time>2026-05-13T06:49:57Z</time>
      </trkpt>
      <trkpt lat="46.0158" lon="5.59452">
        <ele>820.4</ele>
        <time>2026-05-13T06:49:58Z</time>
      </trkpt>
      <trkpt lat="46.01575" lon="5.5945">
        <ele>820.4</ele>
        <time>2026-05-13T06:49:59Z</time>
      </trkpt>
      <trkpt lat="46.01571" lon="5.59448">
        <ele>820.4</ele>
        <time>2026-05-13T06:50:00Z</time>
      </trkpt>
      <trkpt lat="46.01566" lon="5.59446">
        <ele>820.8</ele>
        <time>2026-05-13T06:50:01Z</time>
      </trkpt>
      <trkpt lat="46.01562" lon="5.59444">
        <ele>820.4</ele>
        <time>2026-05-13T06:50:02Z</time>
      </trkpt>
      <trkpt lat="46.01557" lon="5.59442">
        <ele>820.4</ele>
        <time>2026-05-13T06:50:03Z</time>
      </trkpt>
      <trkpt lat="46.01554" lon="5.5944">
        <ele>820.4</ele>
        <time>2026-05-13T06:50:04Z</time>
      </trkpt>
      <trkpt lat="46.01549" lon="5.59439">
        <ele>820.4</ele>
        <time>2026-05-13T06:50:05Z</time>
      </trkpt>
      <trkpt lat="46.01545" lon="5.59437">
        <ele>820.4</ele>
        <time>2026-05-13T06:50:06Z</time>
      </trkpt>
      <trkpt lat="46.01542" lon="5.59434">
        <ele>820.4</ele>
        <time>2026-05-13T06:50:07Z</time>
      </trkpt>
      <trkpt lat="46.01538" lon="5.59432">
        <ele>820.4</ele>
        <time>2026-05-13T06:50:08Z</time>
      </trkpt>
      <trkpt lat="46.01534" lon="5.5943">
        <ele>820.6</ele>
        <time>2026-05-13T06:50:09Z</time>
      </trkpt>
      <trkpt lat="46.0153" lon="5.59429">
        <ele>820.6</ele>
        <time>2026-05-13T06:50:10Z</time>
      </trkpt>
      <trkpt lat="46.01526" lon="5.59427">
        <ele>820.6</ele>
        <time>2026-05-13T06:50:11Z</time>
      </trkpt>
      <trkpt lat="46.01522" lon="5.59425">
        <ele>820.6</ele>
        <time>2026-05-13T06:50:12Z</time>
      </trkpt>
      <trkpt lat="46.01518" lon="5.59424">
        <ele>820.6</ele>
        <time>2026-05-13T06:50:13Z</time>
      </trkpt>
      <trkpt lat="46.01514" lon="5.59422">
        <ele>820.6</ele>
        <time>2026-05-13T06:50:14Z</time>
      </trkpt>
      <trkpt lat="46.01509" lon="5.59421">
        <ele>820.6</ele>
        <time>2026-05-13T06:50:15Z</time>
      </trkpt>
      <trkpt lat="46.01505" lon="5.59421">
        <ele>820.6</ele>
        <time>2026-05-13T06:50:16Z</time>
      </trkpt>
      <trkpt lat="46.01501" lon="5.59421">
        <ele>820.6</ele>
        <time>2026-05-13T06:50:17Z</time>
      </trkpt>
      <trkpt lat="46.01497" lon="5.59419">
        <ele>820.6</ele>
        <time>2026-05-13T06:50:18Z</time>
      </trkpt>
      <trkpt lat="46.01492" lon="5.59418">
        <ele>820.6</ele>
        <time>2026-05-13T06:50:19Z</time>
      </trkpt>
      <trkpt lat="46.01488" lon="5.59417">
        <ele>820.6</ele>
        <time>2026-05-13T06:50:20Z</time>
      </trkpt>
      <trkpt lat="46.01484" lon="5.59416">
        <ele>820.6</ele>
        <time>2026-05-13T06:50:21Z</time>
      </trkpt>
      <trkpt lat="46.01479" lon="5.59415">
        <ele>820.6</ele>
        <time>2026-05-13T06:50:22Z</time>
      </trkpt>
      <trkpt lat="46.01475" lon="5.59415">
        <ele>820.2</ele>
        <time>2026-05-13T06:50:23Z</time>
      </trkpt>
      <trkpt lat="46.01471" lon="5.59416">
        <ele>820.4</ele>
        <time>2026-05-13T06:50:24Z</time>
      </trkpt>
      <trkpt lat="46.01466" lon="5.59415">
        <ele>820.4</ele>
        <time>2026-05-13T06:50:25Z</time>
      </trkpt>
      <trkpt lat="46.01462" lon="5.59415">
        <ele>820.4</ele>
        <time>2026-05-13T06:50:26Z</time>
      </trkpt>
      <trkpt lat="46.01459" lon="5.59413">
        <ele>820.8</ele>
        <time>2026-05-13T06:50:27Z</time>
      </trkpt>
      <trkpt lat="46.01454" lon="5.59412">
        <ele>820.8</ele>
        <time>2026-05-13T06:50:28Z</time>
      </trkpt>
      <trkpt lat="46.0145" lon="5.59414">
        <ele>820.8</ele>
        <time>2026-05-13T06:50:29Z</time>
      </trkpt>
      <trkpt lat="46.01446" lon="5.59414">
        <ele>820.8</ele>
        <time>2026-05-13T06:50:30Z</time>
      </trkpt>
      <trkpt lat="46.01443" lon="5.59414">
        <ele>820.8</ele>
        <time>2026-05-13T06:50:31Z</time>
      </trkpt>
      <trkpt lat="46.01439" lon="5.59415">
        <ele>820.8</ele>
        <time>2026-05-13T06:50:32Z</time>
      </trkpt>
      <trkpt lat="46.01436" lon="5.59414">
        <ele>820.8</ele>
        <time>2026-05-13T06:50:33Z</time>
      </trkpt>
      <trkpt lat="46.01432" lon="5.59412">
        <ele>820.8</ele>
        <time>2026-05-13T06:50:34Z</time>
      </trkpt>
      <trkpt lat="46.01428" lon="5.59411">
        <ele>820.8</ele>
        <time>2026-05-13T06:50:35Z</time>
      </trkpt>
      <trkpt lat="46.01424" lon="5.59409">
        <ele>820.8</ele>
        <time>2026-05-13T06:50:36Z</time>
      </trkpt>
      <trkpt lat="46.01419" lon="5.59407">
        <ele>820.8</ele>
        <time>2026-05-13T06:50:37Z</time>
      </trkpt>
      <trkpt lat="46.01414" lon="5.59405">
        <ele>820.6</ele>
        <time>2026-05-13T06:50:38Z</time>
      </trkpt>
      <trkpt lat="46.01409" lon="5.59403">
        <ele>820.6</ele>
        <time>2026-05-13T06:50:39Z</time>
      </trkpt>
      <trkpt lat="46.01404" lon="5.59401">
        <ele>820.4</ele>
        <time>2026-05-13T06:50:40Z</time>
      </trkpt>
      <trkpt lat="46.01398" lon="5.59399">
        <ele>820.4</ele>
        <time>2026-05-13T06:50:41Z</time>
      </trkpt>
      <trkpt lat="46.01393" lon="5.59397">
        <ele>820.4</ele>
        <time>2026-05-13T06:50:42Z</time>
      </trkpt>
      <trkpt lat="46.01386" lon="5.59394">
        <ele>820</ele>
        <time>2026-05-13T06:50:43Z</time>
      </trkpt>
      <trkpt lat="46.0138" lon="5.59392">
        <ele>820</ele>
        <time>2026-05-13T06:50:44Z</time>
      </trkpt>
      <trkpt lat="46.01368" lon="5.59387">
        <ele>820</ele>
        <time>2026-05-13T06:50:45Z</time>
      </trkpt>
      <trkpt lat="46.01361" lon="5.59385">
        <ele>820</ele>
        <time>2026-05-13T06:50:46Z</time>
      </trkpt>
      <trkpt lat="46.01354" lon="5.59382">
        <ele>819.8</ele>
        <time>2026-05-13T06:50:47Z</time>
      </trkpt>
      <trkpt lat="46.01348" lon="5.5938">
        <ele>819.8</ele>
        <time>2026-05-13T06:50:48Z</time>
      </trkpt>
      <trkpt lat="46.01341" lon="5.59377">
        <ele>819.8</ele>
        <time>2026-05-13T06:50:49Z</time>
      </trkpt>
      <trkpt lat="46.01335" lon="5.59374">
        <ele>819.8</ele>
        <time>2026-05-13T06:50:50Z</time>
      </trkpt>
      <trkpt lat="46.01328" lon="5.59372">
        <ele>819.8</ele>
        <time>2026-05-13T06:50:51Z</time>
      </trkpt>
      <trkpt lat="46.01322" lon="5.59369">
        <ele>819.8</ele>
        <time>2026-05-13T06:50:52Z</time>
      </trkpt>
      <trkpt lat="46.01317" lon="5.59366">
        <ele>820.2</ele>
        <time>2026-05-13T06:50:53Z</time>
      </trkpt>
      <trkpt lat="46.01311" lon="5.59363">
        <ele>820.2</ele>
        <time>2026-05-13T06:50:54Z</time>
      </trkpt>
      <trkpt lat="46.01305" lon="5.5936">
        <ele>820.2</ele>
        <time>2026-05-13T06:50:55Z</time>
      </trkpt>
      <trkpt lat="46.01299" lon="5.59357">
        <ele>820.2</ele>
        <time>2026-05-13T06:50:56Z</time>
      </trkpt>
      <trkpt lat="46.01294" lon="5.59354">
        <ele>820.2</ele>
        <time>2026-05-13T06:50:57Z</time>
      </trkpt>
      <trkpt lat="46.01288" lon="5.5935">
        <ele>819.8</ele>
        <time>2026-05-13T06:50:58Z</time>
      </trkpt>
      <trkpt lat="46.01282" lon="5.59346">
        <ele>819.8</ele>
        <time>2026-05-13T06:50:59Z</time>
      </trkpt>
      <trkpt lat="46.01276" lon="5.59342">
        <ele>819.4</ele>
        <time>2026-05-13T06:51:00Z</time>
      </trkpt>
      <trkpt lat="46.0127" lon="5.59338">
        <ele>819.2</ele>
        <time>2026-05-13T06:51:01Z</time>
      </trkpt>
      <trkpt lat="46.01264" lon="5.59334">
        <ele>819</ele>
        <time>2026-05-13T06:51:02Z</time>
      </trkpt>
      <trkpt lat="46.01258" lon="5.59329">
        <ele>819</ele>
        <time>2026-05-13T06:51:03Z</time>
      </trkpt>
      <trkpt lat="46.01252" lon="5.59324">
        <ele>818.6</ele>
        <time>2026-05-13T06:51:04Z</time>
      </trkpt>
      <trkpt lat="46.01247" lon="5.59319">
        <ele>818.6</ele>
        <time>2026-05-13T06:51:05Z</time>
      </trkpt>
      <trkpt lat="46.01241" lon="5.59313">
        <ele>818.6</ele>
        <time>2026-05-13T06:51:06Z</time>
      </trkpt>
      <trkpt lat="46.01236" lon="5.59307">
        <ele>818.4</ele>
        <time>2026-05-13T06:51:07Z</time>
      </trkpt>
      <trkpt lat="46.01231" lon="5.593">
        <ele>818.4</ele>
        <time>2026-05-13T06:51:08Z</time>
      </trkpt>
      <trkpt lat="46.01226" lon="5.59294">
        <ele>818.2</ele>
        <time>2026-05-13T06:51:09Z</time>
      </trkpt>
      <trkpt lat="46.01221" lon="5.59287">
        <ele>818.2</ele>
        <time>2026-05-13T06:51:10Z</time>
      </trkpt>
      <trkpt lat="46.01216" lon="5.59281">
        <ele>818.2</ele>
        <time>2026-05-13T06:51:11Z</time>
      </trkpt>
      <trkpt lat="46.01211" lon="5.59275">
        <ele>818.2</ele>
        <time>2026-05-13T06:51:12Z</time>
      </trkpt>
      <trkpt lat="46.01206" lon="5.59268">
        <ele>818.2</ele>
        <time>2026-05-13T06:51:13Z</time>
      </trkpt>
      <trkpt lat="46.01201" lon="5.59262">
        <ele>817.8</ele>
        <time>2026-05-13T06:51:14Z</time>
      </trkpt>
      <trkpt lat="46.01196" lon="5.59256">
        <ele>817.6</ele>
        <time>2026-05-13T06:51:15Z</time>
      </trkpt>
      <trkpt lat="46.01191" lon="5.5925">
        <ele>817.6</ele>
        <time>2026-05-13T06:51:16Z</time>
      </trkpt>
      <trkpt lat="46.01186" lon="5.59243">
        <ele>817.6</ele>
        <time>2026-05-13T06:51:17Z</time>
      </trkpt>
      <trkpt lat="46.01182" lon="5.59237">
        <ele>817.6</ele>
        <time>2026-05-13T06:51:18Z</time>
      </trkpt>
      <trkpt lat="46.01176" lon="5.59231">
        <ele>817.6</ele>
        <time>2026-05-13T06:51:19Z</time>
      </trkpt>
      <trkpt lat="46.01171" lon="5.59225">
        <ele>817.6</ele>
        <time>2026-05-13T06:51:20Z</time>
      </trkpt>
      <trkpt lat="46.01166" lon="5.59219">
        <ele>817.6</ele>
        <time>2026-05-13T06:51:21Z</time>
      </trkpt>
      <trkpt lat="46.01161" lon="5.59214">
        <ele>817.6</ele>
        <time>2026-05-13T06:51:22Z</time>
      </trkpt>
      <trkpt lat="46.01156" lon="5.59208">
        <ele>817.6</ele>
        <time>2026-05-13T06:51:23Z</time>
      </trkpt>
      <trkpt lat="46.0115" lon="5.59203">
        <ele>817.6</ele>
        <time>2026-05-13T06:51:24Z</time>
      </trkpt>
      <trkpt lat="46.01144" lon="5.59197">
        <ele>817.6</ele>
        <time>2026-05-13T06:51:25Z</time>
      </trkpt>
      <trkpt lat="46.01138" lon="5.59191">
        <ele>817.6</ele>
        <time>2026-05-13T06:51:26Z</time>
      </trkpt>
      <trkpt lat="46.01132" lon="5.59186">
        <ele>817.6</ele>
        <time>2026-05-13T06:51:27Z</time>
      </trkpt>
      <trkpt lat="46.01127" lon="5.59181">
        <ele>817.6</ele>
        <time>2026-05-13T06:51:28Z</time>
      </trkpt>
      <trkpt lat="46.01121" lon="5.59176">
        <ele>817.6</ele>
        <time>2026-05-13T06:51:29Z</time>
      </trkpt>
      <trkpt lat="46.01116" lon="5.5917">
        <ele>817.6</ele>
        <time>2026-05-13T06:51:30Z</time>
      </trkpt>
      <trkpt lat="46.0111" lon="5.59165">
        <ele>817.4</ele>
        <time>2026-05-13T06:51:31Z</time>
      </trkpt>
      <trkpt lat="46.01104" lon="5.5916">
        <ele>817.2</ele>
        <time>2026-05-13T06:51:32Z</time>
      </trkpt>
      <trkpt lat="46.01098" lon="5.59154">
        <ele>817.2</ele>
        <time>2026-05-13T06:51:33Z</time>
      </trkpt>
      <trkpt lat="46.01092" lon="5.59149">
        <ele>817</ele>
        <time>2026-05-13T06:51:34Z</time>
      </trkpt>
      <trkpt lat="46.01086" lon="5.59144">
        <ele>816.8</ele>
        <time>2026-05-13T06:51:35Z</time>
      </trkpt>
      <trkpt lat="46.0108" lon="5.5914">
        <ele>816.8</ele>
        <time>2026-05-13T06:51:36Z</time>
      </trkpt>
      <trkpt lat="46.01074" lon="5.59135">
        <ele>816.8</ele>
        <time>2026-05-13T06:51:37Z</time>
      </trkpt>
      <trkpt lat="46.01067" lon="5.59131">
        <ele>817</ele>
        <time>2026-05-13T06:51:38Z</time>
      </trkpt>
      <trkpt lat="46.01061" lon="5.59127">
        <ele>817</ele>
        <time>2026-05-13T06:51:39Z</time>
      </trkpt>
      <trkpt lat="46.01056" lon="5.59123">
        <ele>817</ele>
        <time>2026-05-13T06:51:40Z</time>
      </trkpt>
      <trkpt lat="46.01049" lon="5.5912">
        <ele>816.8</ele>
        <time>2026-05-13T06:51:41Z</time>
      </trkpt>
      <trkpt lat="46.01043" lon="5.59117">
        <ele>816.8</ele>
        <time>2026-05-13T06:51:42Z</time>
      </trkpt>
      <trkpt lat="46.01036" lon="5.59115">
        <ele>816.8</ele>
        <time>2026-05-13T06:51:43Z</time>
      </trkpt>
      <trkpt lat="46.01029" lon="5.59112">
        <ele>816.8</ele>
        <time>2026-05-13T06:51:44Z</time>
      </trkpt>
      <trkpt lat="46.01023" lon="5.5911">
        <ele>816.8</ele>
        <time>2026-05-13T06:51:45Z</time>
      </trkpt>
      <trkpt lat="46.01016" lon="5.59107">
        <ele>816.8</ele>
        <time>2026-05-13T06:51:46Z</time>
      </trkpt>
      <trkpt lat="46.01009" lon="5.59105">
        <ele>816.8</ele>
        <time>2026-05-13T06:51:47Z</time>
      </trkpt>
      <trkpt lat="46.01003" lon="5.59103">
        <ele>816.8</ele>
        <time>2026-05-13T06:51:48Z</time>
      </trkpt>
      <trkpt lat="46.00996" lon="5.59102">
        <ele>816.8</ele>
        <time>2026-05-13T06:51:49Z</time>
      </trkpt>
      <trkpt lat="46.0099" lon="5.591">
        <ele>816.8</ele>
        <time>2026-05-13T06:51:50Z</time>
      </trkpt>
      <trkpt lat="46.00983" lon="5.59099">
        <ele>816.8</ele>
        <time>2026-05-13T06:51:51Z</time>
      </trkpt>
      <trkpt lat="46.00977" lon="5.59098">
        <ele>816.8</ele>
        <time>2026-05-13T06:51:52Z</time>
      </trkpt>
      <trkpt lat="46.0097" lon="5.59098">
        <ele>816.8</ele>
        <time>2026-05-13T06:51:53Z</time>
      </trkpt>
      <trkpt lat="46.00963" lon="5.59098">
        <ele>816.8</ele>
        <time>2026-05-13T06:51:54Z</time>
      </trkpt>
      <trkpt lat="46.00956" lon="5.59098">
        <ele>816.6</ele>
        <time>2026-05-13T06:51:55Z</time>
      </trkpt>
      <trkpt lat="46.0095" lon="5.59097">
        <ele>816.6</ele>
        <time>2026-05-13T06:51:56Z</time>
      </trkpt>
      <trkpt lat="46.00943" lon="5.59097">
        <ele>816.4</ele>
        <time>2026-05-13T06:51:57Z</time>
      </trkpt>
      <trkpt lat="46.00936" lon="5.59097">
        <ele>816.4</ele>
        <time>2026-05-13T06:51:58Z</time>
      </trkpt>
      <trkpt lat="46.00929" lon="5.59097">
        <ele>816.4</ele>
        <time>2026-05-13T06:51:59Z</time>
      </trkpt>
      <trkpt lat="46.00923" lon="5.59096">
        <ele>816.4</ele>
        <time>2026-05-13T06:52:00Z</time>
      </trkpt>
      <trkpt lat="46.00916" lon="5.59095">
        <ele>816.4</ele>
        <time>2026-05-13T06:52:01Z</time>
      </trkpt>
      <trkpt lat="46.00909" lon="5.59094">
        <ele>816.4</ele>
        <time>2026-05-13T06:52:02Z</time>
      </trkpt>
      <trkpt lat="46.00902" lon="5.59092">
        <ele>816.2</ele>
        <time>2026-05-13T06:52:03Z</time>
      </trkpt>
      <trkpt lat="46.00896" lon="5.59089">
        <ele>816.2</ele>
        <time>2026-05-13T06:52:04Z</time>
      </trkpt>
      <trkpt lat="46.00889" lon="5.59086">
        <ele>815.8</ele>
        <time>2026-05-13T06:52:05Z</time>
      </trkpt>
      <trkpt lat="46.00883" lon="5.59082">
        <ele>815.8</ele>
        <time>2026-05-13T06:52:06Z</time>
      </trkpt>
      <trkpt lat="46.00877" lon="5.59079">
        <ele>815.8</ele>
        <time>2026-05-13T06:52:07Z</time>
      </trkpt>
      <trkpt lat="46.0087" lon="5.59075">
        <ele>815.8</ele>
        <time>2026-05-13T06:52:08Z</time>
      </trkpt>
      <trkpt lat="46.00864" lon="5.5907">
        <ele>815.8</ele>
        <time>2026-05-13T06:52:09Z</time>
      </trkpt>
      <trkpt lat="46.00858" lon="5.59065">
        <ele>815.8</ele>
        <time>2026-05-13T06:52:10Z</time>
      </trkpt>
      <trkpt lat="46.00853" lon="5.5906">
        <ele>815.6</ele>
        <time>2026-05-13T06:52:11Z</time>
      </trkpt>
      <trkpt lat="46.00847" lon="5.59055">
        <ele>815.6</ele>
        <time>2026-05-13T06:52:12Z</time>
      </trkpt>
      <trkpt lat="46.00841" lon="5.59049">
        <ele>815.6</ele>
        <time>2026-05-13T06:52:13Z</time>
      </trkpt>
      <trkpt lat="46.00835" lon="5.59044">
        <ele>815.6</ele>
        <time>2026-05-13T06:52:14Z</time>
      </trkpt>
      <trkpt lat="46.00829" lon="5.59038">
        <ele>815.2</ele>
        <time>2026-05-13T06:52:15Z</time>
      </trkpt>
      <trkpt lat="46.00823" lon="5.59032">
        <ele>815.2</ele>
        <time>2026-05-13T06:52:16Z</time>
      </trkpt>
      <trkpt lat="46.00818" lon="5.59026">
        <ele>815.2</ele>
        <time>2026-05-13T06:52:17Z</time>
      </trkpt>
      <trkpt lat="46.00812" lon="5.59021">
        <ele>815.2</ele>
        <time>2026-05-13T06:52:18Z</time>
      </trkpt>
      <trkpt lat="46.00806" lon="5.59016">
        <ele>815.2</ele>
        <time>2026-05-13T06:52:19Z</time>
      </trkpt>
      <trkpt lat="46.00801" lon="5.59011">
        <ele>815.2</ele>
        <time>2026-05-13T06:52:20Z</time>
      </trkpt>
      <trkpt lat="46.00795" lon="5.59007">
        <ele>815</ele>
        <time>2026-05-13T06:52:21Z</time>
      </trkpt>
      <trkpt lat="46.00789" lon="5.59004">
        <ele>815</ele>
        <time>2026-05-13T06:52:22Z</time>
      </trkpt>
      <trkpt lat="46.00783" lon="5.59">
        <ele>814.6</ele>
        <time>2026-05-13T06:52:23Z</time>
      </trkpt>
      <trkpt lat="46.00776" lon="5.58997">
        <ele>814.6</ele>
        <time>2026-05-13T06:52:24Z</time>
      </trkpt>
      <trkpt lat="46.0077" lon="5.58994">
        <ele>814.6</ele>
        <time>2026-05-13T06:52:25Z</time>
      </trkpt>
      <trkpt lat="46.00763" lon="5.58991">
        <ele>814.6</ele>
        <time>2026-05-13T06:52:26Z</time>
      </trkpt>
      <trkpt lat="46.00757" lon="5.58989">
        <ele>814.4</ele>
        <time>2026-05-13T06:52:27Z</time>
      </trkpt>
      <trkpt lat="46.0075" lon="5.58986">
        <ele>814.4</ele>
        <time>2026-05-13T06:52:28Z</time>
      </trkpt>
      <trkpt lat="46.00744" lon="5.58984">
        <ele>814.4</ele>
        <time>2026-05-13T06:52:29Z</time>
      </trkpt>
      <trkpt lat="46.00737" lon="5.58981">
        <ele>814.4</ele>
        <time>2026-05-13T06:52:30Z</time>
      </trkpt>
      <trkpt lat="46.00731" lon="5.58979">
        <ele>814.4</ele>
        <time>2026-05-13T06:52:31Z</time>
      </trkpt>
      <trkpt lat="46.00725" lon="5.58977">
        <ele>814.2</ele>
        <time>2026-05-13T06:52:32Z</time>
      </trkpt>
      <trkpt lat="46.00718" lon="5.58975">
        <ele>814.2</ele>
        <time>2026-05-13T06:52:33Z</time>
      </trkpt>
      <trkpt lat="46.00712" lon="5.58973">
        <ele>814.2</ele>
        <time>2026-05-13T06:52:34Z</time>
      </trkpt>
      <trkpt lat="46.00706" lon="5.58971">
        <ele>814.4</ele>
        <time>2026-05-13T06:52:35Z</time>
      </trkpt>
      <trkpt lat="46.00699" lon="5.58971">
        <ele>814.4</ele>
        <time>2026-05-13T06:52:36Z</time>
      </trkpt>
      <trkpt lat="46.00692" lon="5.58972">
        <ele>814.4</ele>
        <time>2026-05-13T06:52:37Z</time>
      </trkpt>
      <trkpt lat="46.00685" lon="5.58973">
        <ele>814.2</ele>
        <time>2026-05-13T06:52:38Z</time>
      </trkpt>
      <trkpt lat="46.00679" lon="5.58976">
        <ele>814.2</ele>
        <time>2026-05-13T06:52:39Z</time>
      </trkpt>
      <trkpt lat="46.00672" lon="5.58979">
        <ele>814.2</ele>
        <time>2026-05-13T06:52:40Z</time>
      </trkpt>
      <trkpt lat="46.00666" lon="5.58983">
        <ele>814.2</ele>
        <time>2026-05-13T06:52:41Z</time>
      </trkpt>
      <trkpt lat="46.00659" lon="5.58987">
        <ele>814.2</ele>
        <time>2026-05-13T06:52:42Z</time>
      </trkpt>
      <trkpt lat="46.00654" lon="5.58993">
        <ele>814.2</ele>
        <time>2026-05-13T06:52:43Z</time>
      </trkpt>
      <trkpt lat="46.00654" lon="5.58993">
        <ele>814.2</ele>
        <time>2026-05-13T06:52:44Z</time>
      </trkpt>
      <trkpt lat="46.00648" lon="5.58999">
        <ele>814.2</ele>
        <time>2026-05-13T06:52:45Z</time>
      </trkpt>
      <trkpt lat="46.00643" lon="5.59006">
        <ele>814.2</ele>
        <time>2026-05-13T06:52:46Z</time>
      </trkpt>
      <trkpt lat="46.00638" lon="5.59013">
        <ele>814.2</ele>
        <time>2026-05-13T06:52:47Z</time>
      </trkpt>
      <trkpt lat="46.00633" lon="5.5902">
        <ele>814.2</ele>
        <time>2026-05-13T06:52:48Z</time>
      </trkpt>
      <trkpt lat="46.00628" lon="5.59027">
        <ele>814</ele>
        <time>2026-05-13T06:52:49Z</time>
      </trkpt>
      <trkpt lat="46.00623" lon="5.59034">
        <ele>814</ele>
        <time>2026-05-13T06:52:50Z</time>
      </trkpt>
      <trkpt lat="46.00618" lon="5.59041">
        <ele>814</ele>
        <time>2026-05-13T06:52:51Z</time>
      </trkpt>
      <trkpt lat="46.00614" lon="5.59047">
        <ele>814</ele>
        <time>2026-05-13T06:52:52Z</time>
      </trkpt>
      <trkpt lat="46.00608" lon="5.59054">
        <ele>813.4</ele>
        <time>2026-05-13T06:52:53Z</time>
      </trkpt>
      <trkpt lat="46.00603" lon="5.5906">
        <ele>813.4</ele>
        <time>2026-05-13T06:52:54Z</time>
      </trkpt>
      <trkpt lat="46.00598" lon="5.59066">
        <ele>813.4</ele>
        <time>2026-05-13T06:52:55Z</time>
      </trkpt>
      <trkpt lat="46.00592" lon="5.59072">
        <ele>813.4</ele>
        <time>2026-05-13T06:52:56Z</time>
      </trkpt>
      <trkpt lat="46.00586" lon="5.59078">
        <ele>813.4</ele>
        <time>2026-05-13T06:52:57Z</time>
      </trkpt>
      <trkpt lat="46.0058" lon="5.59083">
        <ele>813.4</ele>
        <time>2026-05-13T06:52:58Z</time>
      </trkpt>
      <trkpt lat="46.00574" lon="5.59089">
        <ele>813.4</ele>
        <time>2026-05-13T06:52:59Z</time>
      </trkpt>
      <trkpt lat="46.00568" lon="5.59093">
        <ele>813.4</ele>
        <time>2026-05-13T06:53:00Z</time>
      </trkpt>
      <trkpt lat="46.00562" lon="5.59098">
        <ele>813.6</ele>
        <time>2026-05-13T06:53:01Z</time>
      </trkpt>
      <trkpt lat="46.00556" lon="5.59104">
        <ele>813.6</ele>
        <time>2026-05-13T06:53:02Z</time>
      </trkpt>
      <trkpt lat="46.0055" lon="5.59109">
        <ele>813.6</ele>
        <time>2026-05-13T06:53:03Z</time>
      </trkpt>
      <trkpt lat="46.00544" lon="5.59114">
        <ele>813.6</ele>
        <time>2026-05-13T06:53:04Z</time>
      </trkpt>
      <trkpt lat="46.00538" lon="5.59118">
        <ele>813.6</ele>
        <time>2026-05-13T06:53:05Z</time>
      </trkpt>
      <trkpt lat="46.00532" lon="5.59123">
        <ele>813.6</ele>
        <time>2026-05-13T06:53:06Z</time>
      </trkpt>
      <trkpt lat="46.00526" lon="5.59127">
        <ele>813.4</ele>
        <time>2026-05-13T06:53:07Z</time>
      </trkpt>
      <trkpt lat="46.00519" lon="5.59132">
        <ele>813.4</ele>
        <time>2026-05-13T06:53:08Z</time>
      </trkpt>
      <trkpt lat="46.00513" lon="5.59135">
        <ele>813</ele>
        <time>2026-05-13T06:53:09Z</time>
      </trkpt>
      <trkpt lat="46.00506" lon="5.59139">
        <ele>813</ele>
        <time>2026-05-13T06:53:10Z</time>
      </trkpt>
      <trkpt lat="46.00499" lon="5.59142">
        <ele>812.8</ele>
        <time>2026-05-13T06:53:11Z</time>
      </trkpt>
      <trkpt lat="46.00493" lon="5.59145">
        <ele>812.8</ele>
        <time>2026-05-13T06:53:12Z</time>
      </trkpt>
      <trkpt lat="46.00486" lon="5.59147">
        <ele>812.6</ele>
        <time>2026-05-13T06:53:13Z</time>
      </trkpt>
      <trkpt lat="46.00479" lon="5.59149">
        <ele>812.6</ele>
        <time>2026-05-13T06:53:14Z</time>
      </trkpt>
      <trkpt lat="46.00472" lon="5.5915">
        <ele>812.6</ele>
        <time>2026-05-13T06:53:15Z</time>
      </trkpt>
      <trkpt lat="46.00466" lon="5.59153">
        <ele>812.4</ele>
        <time>2026-05-13T06:53:16Z</time>
      </trkpt>
      <trkpt lat="46.00459" lon="5.59154">
        <ele>812.4</ele>
        <time>2026-05-13T06:53:17Z</time>
      </trkpt>
      <trkpt lat="46.00452" lon="5.59154">
        <ele>812.4</ele>
        <time>2026-05-13T06:53:18Z</time>
      </trkpt>
      <trkpt lat="46.00445" lon="5.59156">
        <ele>812.4</ele>
        <time>2026-05-13T06:53:19Z</time>
      </trkpt>
      <trkpt lat="46.00438" lon="5.59157">
        <ele>812.4</ele>
        <time>2026-05-13T06:53:20Z</time>
      </trkpt>
      <trkpt lat="46.00431" lon="5.59157">
        <ele>812.4</ele>
        <time>2026-05-13T06:53:21Z</time>
      </trkpt>
      <trkpt lat="46.00424" lon="5.59158">
        <ele>812.4</ele>
        <time>2026-05-13T06:53:22Z</time>
      </trkpt>
      <trkpt lat="46.00418" lon="5.59159">
        <ele>812.2</ele>
        <time>2026-05-13T06:53:23Z</time>
      </trkpt>
      <trkpt lat="46.0041" lon="5.59159">
        <ele>811.8</ele>
        <time>2026-05-13T06:53:24Z</time>
      </trkpt>
      <trkpt lat="46.00403" lon="5.59159">
        <ele>811.8</ele>
        <time>2026-05-13T06:53:25Z</time>
      </trkpt>
      <trkpt lat="46.00396" lon="5.5916">
        <ele>811.6</ele>
        <time>2026-05-13T06:53:26Z</time>
      </trkpt>
      <trkpt lat="46.00389" lon="5.59159">
        <ele>811.6</ele>
        <time>2026-05-13T06:53:27Z</time>
      </trkpt>
      <trkpt lat="46.00382" lon="5.59159">
        <ele>811.6</ele>
        <time>2026-05-13T06:53:28Z</time>
      </trkpt>
      <trkpt lat="46.00374" lon="5.59159">
        <ele>811.2</ele>
        <time>2026-05-13T06:53:29Z</time>
      </trkpt>
      <trkpt lat="46.00367" lon="5.59158">
        <ele>811.2</ele>
        <time>2026-05-13T06:53:30Z</time>
      </trkpt>
      <trkpt lat="46.0036" lon="5.59158">
        <ele>811.2</ele>
        <time>2026-05-13T06:53:31Z</time>
      </trkpt>
      <trkpt lat="46.00352" lon="5.59157">
        <ele>811.2</ele>
        <time>2026-05-13T06:53:32Z</time>
      </trkpt>
      <trkpt lat="46.00345" lon="5.59157">
        <ele>811</ele>
        <time>2026-05-13T06:53:33Z</time>
      </trkpt>
      <trkpt lat="46.00337" lon="5.59156">
        <ele>811</ele>
        <time>2026-05-13T06:53:34Z</time>
      </trkpt>
      <trkpt lat="46.0033" lon="5.59154">
        <ele>810.6</ele>
        <time>2026-05-13T06:53:35Z</time>
      </trkpt>
      <trkpt lat="46.00323" lon="5.59153">
        <ele>810.2</ele>
        <time>2026-05-13T06:53:36Z</time>
      </trkpt>
      <trkpt lat="46.00315" lon="5.59152">
        <ele>810.2</ele>
        <time>2026-05-13T06:53:37Z</time>
      </trkpt>
      <trkpt lat="46.00308" lon="5.59151">
        <ele>810</ele>
        <time>2026-05-13T06:53:38Z</time>
      </trkpt>
      <trkpt lat="46.00301" lon="5.59149">
        <ele>810</ele>
        <time>2026-05-13T06:53:39Z</time>
      </trkpt>
      <trkpt lat="46.00293" lon="5.59148">
        <ele>810</ele>
        <time>2026-05-13T06:53:40Z</time>
      </trkpt>
      <trkpt lat="46.00286" lon="5.59147">
        <ele>809.6</ele>
        <time>2026-05-13T06:53:41Z</time>
      </trkpt>
      <trkpt lat="46.00279" lon="5.59145">
        <ele>809.6</ele>
        <time>2026-05-13T06:53:42Z</time>
      </trkpt>
      <trkpt lat="46.00271" lon="5.59144">
        <ele>809.6</ele>
        <time>2026-05-13T06:53:43Z</time>
      </trkpt>
      <trkpt lat="46.00264" lon="5.59142">
        <ele>809.6</ele>
        <time>2026-05-13T06:53:44Z</time>
      </trkpt>
      <trkpt lat="46.00257" lon="5.5914">
        <ele>809.4</ele>
        <time>2026-05-13T06:53:45Z</time>
      </trkpt>
      <trkpt lat="46.0025" lon="5.59138">
        <ele>809.4</ele>
        <time>2026-05-13T06:53:46Z</time>
      </trkpt>
      <trkpt lat="46.00235" lon="5.59134">
        <ele>809.4</ele>
        <time>2026-05-13T06:53:47Z</time>
      </trkpt>
      <trkpt lat="46.00227" lon="5.59131">
        <ele>809.4</ele>
        <time>2026-05-13T06:53:48Z</time>
      </trkpt>
      <trkpt lat="46.0022" lon="5.59129">
        <ele>809.2</ele>
        <time>2026-05-13T06:53:49Z</time>
      </trkpt>
      <trkpt lat="46.00212" lon="5.59127">
        <ele>809.2</ele>
        <time>2026-05-13T06:53:50Z</time>
      </trkpt>
      <trkpt lat="46.00205" lon="5.59125">
        <ele>809.2</ele>
        <time>2026-05-13T06:53:51Z</time>
      </trkpt>
      <trkpt lat="46.00197" lon="5.59122">
        <ele>809.2</ele>
        <time>2026-05-13T06:53:52Z</time>
      </trkpt>
      <trkpt lat="46.00189" lon="5.5912">
        <ele>808.6</ele>
        <time>2026-05-13T06:53:53Z</time>
      </trkpt>
      <trkpt lat="46.00182" lon="5.59118">
        <ele>808.6</ele>
        <time>2026-05-13T06:53:54Z</time>
      </trkpt>
      <trkpt lat="46.00174" lon="5.59116">
        <ele>808.4</ele>
        <time>2026-05-13T06:53:55Z</time>
      </trkpt>
      <trkpt lat="46.00167" lon="5.59114">
        <ele>808.2</ele>
        <time>2026-05-13T06:53:56Z</time>
      </trkpt>
      <trkpt lat="46.00159" lon="5.59111">
        <ele>807.8</ele>
        <time>2026-05-13T06:53:57Z</time>
      </trkpt>
      <trkpt lat="46.00152" lon="5.59108">
        <ele>807.8</ele>
        <time>2026-05-13T06:53:58Z</time>
      </trkpt>
      <trkpt lat="46.00144" lon="5.59106">
        <ele>807.4</ele>
        <time>2026-05-13T06:53:59Z</time>
      </trkpt>
      <trkpt lat="46.00136" lon="5.59103">
        <ele>807.4</ele>
        <time>2026-05-13T06:54:00Z</time>
      </trkpt>
      <trkpt lat="46.00129" lon="5.591">
        <ele>807.2</ele>
        <time>2026-05-13T06:54:01Z</time>
      </trkpt>
      <trkpt lat="46.00122" lon="5.59097">
        <ele>807.2</ele>
        <time>2026-05-13T06:54:02Z</time>
      </trkpt>
      <trkpt lat="46.00115" lon="5.59093">
        <ele>806.8</ele>
        <time>2026-05-13T06:54:03Z</time>
      </trkpt>
      <trkpt lat="46.00107" lon="5.5909">
        <ele>806.6</ele>
        <time>2026-05-13T06:54:04Z</time>
      </trkpt>
      <trkpt lat="46.00099" lon="5.59086">
        <ele>806.6</ele>
        <time>2026-05-13T06:54:05Z</time>
      </trkpt>
      <trkpt lat="46.00092" lon="5.59081">
        <ele>806.4</ele>
        <time>2026-05-13T06:54:06Z</time>
      </trkpt>
      <trkpt lat="46.00085" lon="5.59078">
        <ele>806.4</ele>
        <time>2026-05-13T06:54:07Z</time>
      </trkpt>
      <trkpt lat="46.00078" lon="5.59072">
        <ele>806.4</ele>
        <time>2026-05-13T06:54:08Z</time>
      </trkpt>
      <trkpt lat="46.00071" lon="5.59067">
        <ele>806</ele>
        <time>2026-05-13T06:54:09Z</time>
      </trkpt>
      <trkpt lat="46.00063" lon="5.59062">
        <ele>805.8</ele>
        <time>2026-05-13T06:54:10Z</time>
      </trkpt>
      <trkpt lat="46.00056" lon="5.59058">
        <ele>805.8</ele>
        <time>2026-05-13T06:54:11Z</time>
      </trkpt>
      <trkpt lat="46.00049" lon="5.59053">
        <ele>805.8</ele>
        <time>2026-05-13T06:54:12Z</time>
      </trkpt>
      <trkpt lat="46.00042" lon="5.59048">
        <ele>805.8</ele>
        <time>2026-05-13T06:54:13Z</time>
      </trkpt>
      <trkpt lat="46.00035" lon="5.59042">
        <ele>805.6</ele>
        <time>2026-05-13T06:54:14Z</time>
      </trkpt>
      <trkpt lat="46.00028" lon="5.59036">
        <ele>805.6</ele>
        <time>2026-05-13T06:54:15Z</time>
      </trkpt>
      <trkpt lat="46.00021" lon="5.59029">
        <ele>805.6</ele>
        <time>2026-05-13T06:54:16Z</time>
      </trkpt>
      <trkpt lat="46.00014" lon="5.59023">
        <ele>805.6</ele>
        <time>2026-05-13T06:54:17Z</time>
      </trkpt>
      <trkpt lat="46.00008" lon="5.59017">
        <ele>805.6</ele>
        <time>2026-05-13T06:54:18Z</time>
      </trkpt>
      <trkpt lat="46.00001" lon="5.59011">
        <ele>805.2</ele>
        <time>2026-05-13T06:54:19Z</time>
      </trkpt>
      <trkpt lat="45.99994" lon="5.59005">
        <ele>805.2</ele>
        <time>2026-05-13T06:54:20Z</time>
      </trkpt>
      <trkpt lat="45.99987" lon="5.58999">
        <ele>805</ele>
        <time>2026-05-13T06:54:21Z</time>
      </trkpt>
      <trkpt lat="45.9998" lon="5.58995">
        <ele>804.6</ele>
        <time>2026-05-13T06:54:22Z</time>
      </trkpt>
      <trkpt lat="45.99973" lon="5.5899">
        <ele>804.6</ele>
        <time>2026-05-13T06:54:23Z</time>
      </trkpt>
      <trkpt lat="45.99965" lon="5.58986">
        <ele>804.6</ele>
        <time>2026-05-13T06:54:24Z</time>
      </trkpt>
      <trkpt lat="45.99958" lon="5.58982">
        <ele>804.6</ele>
        <time>2026-05-13T06:54:25Z</time>
      </trkpt>
      <trkpt lat="45.99951" lon="5.58978">
        <ele>804.4</ele>
        <time>2026-05-13T06:54:26Z</time>
      </trkpt>
      <trkpt lat="45.99943" lon="5.58975">
        <ele>804.4</ele>
        <time>2026-05-13T06:54:27Z</time>
      </trkpt>
      <trkpt lat="45.99936" lon="5.58972">
        <ele>804.4</ele>
        <time>2026-05-13T06:54:28Z</time>
      </trkpt>
      <trkpt lat="45.99929" lon="5.58969">
        <ele>804.4</ele>
        <time>2026-05-13T06:54:29Z</time>
      </trkpt>
      <trkpt lat="45.99921" lon="5.58966">
        <ele>804.4</ele>
        <time>2026-05-13T06:54:30Z</time>
      </trkpt>
      <trkpt lat="45.99914" lon="5.58962">
        <ele>804.4</ele>
        <time>2026-05-13T06:54:31Z</time>
      </trkpt>
      <trkpt lat="45.99906" lon="5.58959">
        <ele>804</ele>
        <time>2026-05-13T06:54:32Z</time>
      </trkpt>
      <trkpt lat="45.99898" lon="5.58955">
        <ele>803.6</ele>
        <time>2026-05-13T06:54:33Z</time>
      </trkpt>
      <trkpt lat="45.99891" lon="5.5895">
        <ele>803.6</ele>
        <time>2026-05-13T06:54:34Z</time>
      </trkpt>
      <trkpt lat="45.99883" lon="5.58947">
        <ele>803.4</ele>
        <time>2026-05-13T06:54:35Z</time>
      </trkpt>
      <trkpt lat="45.99875" lon="5.58943">
        <ele>803.4</ele>
        <time>2026-05-13T06:54:36Z</time>
      </trkpt>
      <trkpt lat="45.99868" lon="5.58938">
        <ele>803</ele>
        <time>2026-05-13T06:54:37Z</time>
      </trkpt>
      <trkpt lat="45.9986" lon="5.58935">
        <ele>803</ele>
        <time>2026-05-13T06:54:38Z</time>
      </trkpt>
      <trkpt lat="45.99853" lon="5.58931">
        <ele>802.8</ele>
        <time>2026-05-13T06:54:39Z</time>
      </trkpt>
      <trkpt lat="45.99845" lon="5.58927">
        <ele>802.8</ele>
        <time>2026-05-13T06:54:40Z</time>
      </trkpt>
      <trkpt lat="45.99838" lon="5.58923">
        <ele>802.6</ele>
        <time>2026-05-13T06:54:41Z</time>
      </trkpt>
      <trkpt lat="45.99831" lon="5.5892">
        <ele>802.6</ele>
        <time>2026-05-13T06:54:42Z</time>
      </trkpt>
      <trkpt lat="45.99825" lon="5.58916">
        <ele>802.6</ele>
        <time>2026-05-13T06:54:43Z</time>
      </trkpt>
      <trkpt lat="45.99818" lon="5.58912">
        <ele>802.6</ele>
        <time>2026-05-13T06:54:44Z</time>
      </trkpt>
      <trkpt lat="45.9981" lon="5.58909">
        <ele>802.2</ele>
        <time>2026-05-13T06:54:45Z</time>
      </trkpt>
      <trkpt lat="45.99803" lon="5.58906">
        <ele>802.2</ele>
        <time>2026-05-13T06:54:46Z</time>
      </trkpt>
      <trkpt lat="45.99795" lon="5.58903">
        <ele>802</ele>
        <time>2026-05-13T06:54:47Z</time>
      </trkpt>
      <trkpt lat="45.99788" lon="5.58901">
        <ele>802</ele>
        <time>2026-05-13T06:54:48Z</time>
      </trkpt>
      <trkpt lat="45.9978" lon="5.58899">
        <ele>802</ele>
        <time>2026-05-13T06:54:49Z</time>
      </trkpt>
      <trkpt lat="45.99772" lon="5.58897">
        <ele>802</ele>
        <time>2026-05-13T06:54:50Z</time>
      </trkpt>
      <trkpt lat="45.99765" lon="5.58896">
        <ele>802</ele>
        <time>2026-05-13T06:54:51Z</time>
      </trkpt>
      <trkpt lat="45.99757" lon="5.58895">
        <ele>802</ele>
        <time>2026-05-13T06:54:52Z</time>
      </trkpt>
      <trkpt lat="45.99749" lon="5.58895">
        <ele>802</ele>
        <time>2026-05-13T06:54:53Z</time>
      </trkpt>
      <trkpt lat="45.99741" lon="5.58895">
        <ele>802</ele>
        <time>2026-05-13T06:54:54Z</time>
      </trkpt>
      <trkpt lat="45.99734" lon="5.58896">
        <ele>801.6</ele>
        <time>2026-05-13T06:54:55Z</time>
      </trkpt>
      <trkpt lat="45.99726" lon="5.58897">
        <ele>801.6</ele>
        <time>2026-05-13T06:54:56Z</time>
      </trkpt>
      <trkpt lat="45.99718" lon="5.589">
        <ele>801.6</ele>
        <time>2026-05-13T06:54:57Z</time>
      </trkpt>
      <trkpt lat="45.99711" lon="5.58901">
        <ele>801</ele>
        <time>2026-05-13T06:54:58Z</time>
      </trkpt>
      <trkpt lat="45.99704" lon="5.58904">
        <ele>801</ele>
        <time>2026-05-13T06:54:59Z</time>
      </trkpt>
      <trkpt lat="45.99696" lon="5.58907">
        <ele>800.4</ele>
        <time>2026-05-13T06:55:00Z</time>
      </trkpt>
      <trkpt lat="45.9969" lon="5.5891">
        <ele>799.6</ele>
        <time>2026-05-13T06:55:01Z</time>
      </trkpt>
      <trkpt lat="45.99683" lon="5.58912">
        <ele>799.4</ele>
        <time>2026-05-13T06:55:02Z</time>
      </trkpt>
      <trkpt lat="45.99676" lon="5.58916">
        <ele>799.4</ele>
        <time>2026-05-13T06:55:03Z</time>
      </trkpt>
      <trkpt lat="45.99669" lon="5.58921">
        <ele>799.4</ele>
        <time>2026-05-13T06:55:04Z</time>
      </trkpt>
      <trkpt lat="45.99663" lon="5.58924">
        <ele>799.4</ele>
        <time>2026-05-13T06:55:05Z</time>
      </trkpt>
      <trkpt lat="45.99656" lon="5.58928">
        <ele>799.4</ele>
        <time>2026-05-13T06:55:06Z</time>
      </trkpt>
      <trkpt lat="45.99649" lon="5.58932">
        <ele>799.4</ele>
        <time>2026-05-13T06:55:07Z</time>
      </trkpt>
      <trkpt lat="45.99643" lon="5.58936">
        <ele>799.4</ele>
        <time>2026-05-13T06:55:08Z</time>
      </trkpt>
      <trkpt lat="45.99636" lon="5.5894">
        <ele>799.2</ele>
        <time>2026-05-13T06:55:09Z</time>
      </trkpt>
      <trkpt lat="45.99629" lon="5.58945">
        <ele>799.2</ele>
        <time>2026-05-13T06:55:10Z</time>
      </trkpt>
      <trkpt lat="45.99622" lon="5.58949">
        <ele>798.8</ele>
        <time>2026-05-13T06:55:11Z</time>
      </trkpt>
      <trkpt lat="45.99616" lon="5.58953">
        <ele>798.8</ele>
        <time>2026-05-13T06:55:12Z</time>
      </trkpt>
      <trkpt lat="45.99609" lon="5.58957">
        <ele>798.8</ele>
        <time>2026-05-13T06:55:13Z</time>
      </trkpt>
      <trkpt lat="45.99602" lon="5.58961">
        <ele>798.8</ele>
        <time>2026-05-13T06:55:14Z</time>
      </trkpt>
      <trkpt lat="45.99595" lon="5.58965">
        <ele>798.8</ele>
        <time>2026-05-13T06:55:15Z</time>
      </trkpt>
      <trkpt lat="45.99589" lon="5.58969">
        <ele>798.8</ele>
        <time>2026-05-13T06:55:16Z</time>
      </trkpt>
      <trkpt lat="45.99582" lon="5.58973">
        <ele>798.8</ele>
        <time>2026-05-13T06:55:17Z</time>
      </trkpt>
      <trkpt lat="45.99575" lon="5.58977">
        <ele>798.8</ele>
        <time>2026-05-13T06:55:18Z</time>
      </trkpt>
      <trkpt lat="45.99569" lon="5.58981">
        <ele>798.8</ele>
        <time>2026-05-13T06:55:19Z</time>
      </trkpt>
      <trkpt lat="45.99562" lon="5.58985">
        <ele>798.8</ele>
        <time>2026-05-13T06:55:20Z</time>
      </trkpt>
      <trkpt lat="45.99556" lon="5.58989">
        <ele>798.8</ele>
        <time>2026-05-13T06:55:21Z</time>
      </trkpt>
      <trkpt lat="45.99549" lon="5.58994">
        <ele>798.8</ele>
        <time>2026-05-13T06:55:22Z</time>
      </trkpt>
      <trkpt lat="45.99542" lon="5.58999">
        <ele>798.8</ele>
        <time>2026-05-13T06:55:23Z</time>
      </trkpt>
      <trkpt lat="45.99536" lon="5.59004">
        <ele>798.8</ele>
        <time>2026-05-13T06:55:24Z</time>
      </trkpt>
      <trkpt lat="45.99529" lon="5.5901">
        <ele>798.6</ele>
        <time>2026-05-13T06:55:25Z</time>
      </trkpt>
      <trkpt lat="45.99523" lon="5.59015">
        <ele>798.6</ele>
        <time>2026-05-13T06:55:26Z</time>
      </trkpt>
      <trkpt lat="45.99517" lon="5.5902">
        <ele>798.6</ele>
        <time>2026-05-13T06:55:27Z</time>
      </trkpt>
      <trkpt lat="45.99512" lon="5.59026">
        <ele>798.6</ele>
        <time>2026-05-13T06:55:28Z</time>
      </trkpt>
      <trkpt lat="45.99506" lon="5.59033">
        <ele>798.6</ele>
        <time>2026-05-13T06:55:29Z</time>
      </trkpt>
      <trkpt lat="45.99501" lon="5.59041">
        <ele>798.6</ele>
        <time>2026-05-13T06:55:30Z</time>
      </trkpt>
      <trkpt lat="45.99496" lon="5.59049">
        <ele>798.6</ele>
        <time>2026-05-13T06:55:31Z</time>
      </trkpt>
      <trkpt lat="45.99491" lon="5.59057">
        <ele>798.6</ele>
        <time>2026-05-13T06:55:32Z</time>
      </trkpt>
      <trkpt lat="45.99487" lon="5.59065">
        <ele>798.6</ele>
        <time>2026-05-13T06:55:33Z</time>
      </trkpt>
      <trkpt lat="45.99483" lon="5.59073">
        <ele>798.4</ele>
        <time>2026-05-13T06:55:34Z</time>
      </trkpt>
      <trkpt lat="45.99479" lon="5.59082">
        <ele>798.4</ele>
        <time>2026-05-13T06:55:35Z</time>
      </trkpt>
      <trkpt lat="45.99475" lon="5.59091">
        <ele>798.4</ele>
        <time>2026-05-13T06:55:36Z</time>
      </trkpt>
      <trkpt lat="45.99471" lon="5.59101">
        <ele>798.4</ele>
        <time>2026-05-13T06:55:37Z</time>
      </trkpt>
      <trkpt lat="45.99468" lon="5.5911">
        <ele>798.4</ele>
        <time>2026-05-13T06:55:38Z</time>
      </trkpt>
      <trkpt lat="45.99465" lon="5.5912">
        <ele>798.4</ele>
        <time>2026-05-13T06:55:39Z</time>
      </trkpt>
      <trkpt lat="45.99463" lon="5.59129">
        <ele>798.4</ele>
        <time>2026-05-13T06:55:40Z</time>
      </trkpt>
      <trkpt lat="45.99461" lon="5.59138">
        <ele>798.4</ele>
        <time>2026-05-13T06:55:41Z</time>
      </trkpt>
      <trkpt lat="45.99459" lon="5.59147">
        <ele>798.4</ele>
        <time>2026-05-13T06:55:42Z</time>
      </trkpt>
      <trkpt lat="45.99457" lon="5.59157">
        <ele>798.4</ele>
        <time>2026-05-13T06:55:43Z</time>
      </trkpt>
      <trkpt lat="45.99455" lon="5.59166">
        <ele>798.4</ele>
        <time>2026-05-13T06:55:44Z</time>
      </trkpt>
      <trkpt lat="45.99453" lon="5.59176">
        <ele>798.4</ele>
        <time>2026-05-13T06:55:45Z</time>
      </trkpt>
      <trkpt lat="45.99451" lon="5.59185">
        <ele>798.4</ele>
        <time>2026-05-13T06:55:46Z</time>
      </trkpt>
      <trkpt lat="45.99449" lon="5.59194">
        <ele>798.6</ele>
        <time>2026-05-13T06:55:47Z</time>
      </trkpt>
      <trkpt lat="45.99447" lon="5.59203">
        <ele>798.6</ele>
        <time>2026-05-13T06:55:48Z</time>
      </trkpt>
      <trkpt lat="45.99445" lon="5.59212">
        <ele>798.8</ele>
        <time>2026-05-13T06:55:49Z</time>
      </trkpt>
      <trkpt lat="45.99443" lon="5.59221">
        <ele>798.8</ele>
        <time>2026-05-13T06:55:50Z</time>
      </trkpt>
      <trkpt lat="45.9944" lon="5.59229">
        <ele>799.2</ele>
        <time>2026-05-13T06:55:51Z</time>
      </trkpt>
      <trkpt lat="45.99438" lon="5.59238">
        <ele>799.2</ele>
        <time>2026-05-13T06:55:52Z</time>
      </trkpt>
      <trkpt lat="45.99436" lon="5.59247">
        <ele>799.4</ele>
        <time>2026-05-13T06:55:53Z</time>
      </trkpt>
      <trkpt lat="45.99434" lon="5.59255">
        <ele>799.4</ele>
        <time>2026-05-13T06:55:54Z</time>
      </trkpt>
      <trkpt lat="45.99432" lon="5.59263">
        <ele>799.6</ele>
        <time>2026-05-13T06:55:55Z</time>
      </trkpt>
      <trkpt lat="45.99429" lon="5.59272">
        <ele>799.6</ele>
        <time>2026-05-13T06:55:56Z</time>
      </trkpt>
      <trkpt lat="45.99427" lon="5.5928">
        <ele>799.8</ele>
        <time>2026-05-13T06:55:57Z</time>
      </trkpt>
      <trkpt lat="45.99425" lon="5.59288">
        <ele>799.8</ele>
        <time>2026-05-13T06:55:58Z</time>
      </trkpt>
      <trkpt lat="45.99422" lon="5.59295">
        <ele>799.8</ele>
        <time>2026-05-13T06:55:59Z</time>
      </trkpt>
      <trkpt lat="45.9942" lon="5.59302">
        <ele>799.8</ele>
        <time>2026-05-13T06:56:00Z</time>
      </trkpt>
      <trkpt lat="45.99417" lon="5.5931">
        <ele>800.2</ele>
        <time>2026-05-13T06:56:01Z</time>
      </trkpt>
      <trkpt lat="45.99417" lon="5.5931">
        <ele>800.2</ele>
        <time>2026-05-13T06:56:02Z</time>
      </trkpt>
      <trkpt lat="45.99414" lon="5.59316">
        <ele>800.2</ele>
        <time>2026-05-13T06:56:03Z</time>
      </trkpt>
      <trkpt lat="45.99411" lon="5.59324">
        <ele>800.4</ele>
        <time>2026-05-13T06:56:04Z</time>
      </trkpt>
      <trkpt lat="45.99409" lon="5.5933">
        <ele>800.4</ele>
        <time>2026-05-13T06:56:05Z</time>
      </trkpt>
      <trkpt lat="45.99406" lon="5.59337">
        <ele>800.4</ele>
        <time>2026-05-13T06:56:06Z</time>
      </trkpt>
      <trkpt lat="45.99402" lon="5.59344">
        <ele>800.6</ele>
        <time>2026-05-13T06:56:07Z</time>
      </trkpt>
      <trkpt lat="45.99399" lon="5.59351">
        <ele>801</ele>
        <time>2026-05-13T06:56:08Z</time>
      </trkpt>
      <trkpt lat="45.99396" lon="5.59358">
        <ele>801.2</ele>
        <time>2026-05-13T06:56:09Z</time>
      </trkpt>
      <trkpt lat="45.99393" lon="5.59365">
        <ele>801.2</ele>
        <time>2026-05-13T06:56:10Z</time>
      </trkpt>
      <trkpt lat="45.9939" lon="5.59373">
        <ele>801.2</ele>
        <time>2026-05-13T06:56:11Z</time>
      </trkpt>
      <trkpt lat="45.99387" lon="5.59379">
        <ele>801.4</ele>
        <time>2026-05-13T06:56:12Z</time>
      </trkpt>
      <trkpt lat="45.99384" lon="5.59386">
        <ele>801.4</ele>
        <time>2026-05-13T06:56:13Z</time>
      </trkpt>
      <trkpt lat="45.99381" lon="5.59393">
        <ele>801.4</ele>
        <time>2026-05-13T06:56:14Z</time>
      </trkpt>
      <trkpt lat="45.99377" lon="5.59399">
        <ele>801.4</ele>
        <time>2026-05-13T06:56:15Z</time>
      </trkpt>
      <trkpt lat="45.99374" lon="5.59405">
        <ele>801.6</ele>
        <time>2026-05-13T06:56:16Z</time>
      </trkpt>
      <trkpt lat="45.9937" lon="5.59411">
        <ele>801.6</ele>
        <time>2026-05-13T06:56:17Z</time>
      </trkpt>
      <trkpt lat="45.99366" lon="5.59417">
        <ele>802</ele>
        <time>2026-05-13T06:56:18Z</time>
      </trkpt>
      <trkpt lat="45.99362" lon="5.59423">
        <ele>802</ele>
        <time>2026-05-13T06:56:19Z</time>
      </trkpt>
      <trkpt lat="45.99359" lon="5.59429">
        <ele>802.2</ele>
        <time>2026-05-13T06:56:20Z</time>
      </trkpt>
      <trkpt lat="45.99356" lon="5.59435">
        <ele>802.2</ele>
        <time>2026-05-13T06:56:21Z</time>
      </trkpt>
      <trkpt lat="45.99352" lon="5.59442">
        <ele>802.2</ele>
        <time>2026-05-13T06:56:22Z</time>
      </trkpt>
      <trkpt lat="45.99348" lon="5.59447">
        <ele>802.6</ele>
        <time>2026-05-13T06:56:23Z</time>
      </trkpt>
      <trkpt lat="45.99345" lon="5.59454">
        <ele>802.6</ele>
        <time>2026-05-13T06:56:24Z</time>
      </trkpt>
      <trkpt lat="45.99342" lon="5.5946">
        <ele>802.6</ele>
        <time>2026-05-13T06:56:25Z</time>
      </trkpt>
      <trkpt lat="45.99338" lon="5.59466">
        <ele>802.6</ele>
        <time>2026-05-13T06:56:26Z</time>
      </trkpt>
      <trkpt lat="45.99335" lon="5.59472">
        <ele>803</ele>
        <time>2026-05-13T06:56:27Z</time>
      </trkpt>
      <trkpt lat="45.99331" lon="5.59477">
        <ele>803</ele>
        <time>2026-05-13T06:56:28Z</time>
      </trkpt>
      <trkpt lat="45.99328" lon="5.59483">
        <ele>803</ele>
        <time>2026-05-13T06:56:29Z</time>
      </trkpt>
      <trkpt lat="45.99325" lon="5.5949">
        <ele>803</ele>
        <time>2026-05-13T06:56:30Z</time>
      </trkpt>
      <trkpt lat="45.99321" lon="5.59496">
        <ele>803.2</ele>
        <time>2026-05-13T06:56:31Z</time>
      </trkpt>
      <trkpt lat="45.99317" lon="5.59502">
        <ele>803.2</ele>
        <time>2026-05-13T06:56:32Z</time>
      </trkpt>
      <trkpt lat="45.99314" lon="5.59508">
        <ele>803.4</ele>
        <time>2026-05-13T06:56:33Z</time>
      </trkpt>
      <trkpt lat="45.99311" lon="5.59513">
        <ele>803.4</ele>
        <time>2026-05-13T06:56:34Z</time>
      </trkpt>
      <trkpt lat="45.99307" lon="5.5952">
        <ele>803.4</ele>
        <time>2026-05-13T06:56:35Z</time>
      </trkpt>
      <trkpt lat="45.99304" lon="5.59526">
        <ele>803.8</ele>
        <time>2026-05-13T06:56:36Z</time>
      </trkpt>
      <trkpt lat="45.99301" lon="5.59532">
        <ele>803.8</ele>
        <time>2026-05-13T06:56:37Z</time>
      </trkpt>
      <trkpt lat="45.99297" lon="5.59538">
        <ele>803.8</ele>
        <time>2026-05-13T06:56:38Z</time>
      </trkpt>
      <trkpt lat="45.99294" lon="5.59544">
        <ele>803.8</ele>
        <time>2026-05-13T06:56:39Z</time>
      </trkpt>
      <trkpt lat="45.9929" lon="5.59549">
        <ele>803.8</ele>
        <time>2026-05-13T06:56:40Z</time>
      </trkpt>
      <trkpt lat="45.99287" lon="5.59555">
        <ele>803.8</ele>
        <time>2026-05-13T06:56:41Z</time>
      </trkpt>
      <trkpt lat="45.99283" lon="5.59561">
        <ele>803.8</ele>
        <time>2026-05-13T06:56:42Z</time>
      </trkpt>
      <trkpt lat="45.99281" lon="5.59567">
        <ele>803.8</ele>
        <time>2026-05-13T06:56:43Z</time>
      </trkpt>
      <trkpt lat="45.99278" lon="5.59573">
        <ele>804</ele>
        <time>2026-05-13T06:56:44Z</time>
      </trkpt>
      <trkpt lat="45.99274" lon="5.59579">
        <ele>804</ele>
        <time>2026-05-13T06:56:45Z</time>
      </trkpt>
      <trkpt lat="45.99271" lon="5.59585">
        <ele>804.2</ele>
        <time>2026-05-13T06:56:46Z</time>
      </trkpt>
      <trkpt lat="45.99268" lon="5.59591">
        <ele>804.2</ele>
        <time>2026-05-13T06:56:47Z</time>
      </trkpt>
      <trkpt lat="45.99265" lon="5.59597">
        <ele>804.2</ele>
        <time>2026-05-13T06:56:48Z</time>
      </trkpt>
      <trkpt lat="45.99261" lon="5.59604">
        <ele>804.4</ele>
        <time>2026-05-13T06:56:49Z</time>
      </trkpt>
      <trkpt lat="45.99258" lon="5.5961">
        <ele>804.4</ele>
        <time>2026-05-13T06:56:50Z</time>
      </trkpt>
      <trkpt lat="45.99255" lon="5.59616">
        <ele>804.8</ele>
        <time>2026-05-13T06:56:51Z</time>
      </trkpt>
      <trkpt lat="45.99252" lon="5.59623">
        <ele>805</ele>
        <time>2026-05-13T06:56:52Z</time>
      </trkpt>
      <trkpt lat="45.99249" lon="5.59629">
        <ele>805</ele>
        <time>2026-05-13T06:56:53Z</time>
      </trkpt>
      <trkpt lat="45.99245" lon="5.59635">
        <ele>805</ele>
        <time>2026-05-13T06:56:54Z</time>
      </trkpt>
      <trkpt lat="45.99242" lon="5.59642">
        <ele>805</ele>
        <time>2026-05-13T06:56:55Z</time>
      </trkpt>
      <trkpt lat="45.99239" lon="5.59647">
        <ele>805.2</ele>
        <time>2026-05-13T06:56:56Z</time>
      </trkpt>
      <trkpt lat="45.99236" lon="5.59654">
        <ele>805.2</ele>
        <time>2026-05-13T06:56:57Z</time>
      </trkpt>
      <trkpt lat="45.99232" lon="5.5966">
        <ele>805.2</ele>
        <time>2026-05-13T06:56:58Z</time>
      </trkpt>
      <trkpt lat="45.99229" lon="5.59666">
        <ele>805.2</ele>
        <time>2026-05-13T06:56:59Z</time>
      </trkpt>
      <trkpt lat="45.99226" lon="5.59671">
        <ele>805.6</ele>
        <time>2026-05-13T06:57:00Z</time>
      </trkpt>
      <trkpt lat="45.99223" lon="5.59677">
        <ele>805.6</ele>
        <time>2026-05-13T06:57:01Z</time>
      </trkpt>
      <trkpt lat="45.99219" lon="5.59683">
        <ele>806</ele>
        <time>2026-05-13T06:57:02Z</time>
      </trkpt>
      <trkpt lat="45.99216" lon="5.5969">
        <ele>806.2</ele>
        <time>2026-05-13T06:57:03Z</time>
      </trkpt>
      <trkpt lat="45.99213" lon="5.59696">
        <ele>806.2</ele>
        <time>2026-05-13T06:57:04Z</time>
      </trkpt>
      <trkpt lat="45.9921" lon="5.59702">
        <ele>806.4</ele>
        <time>2026-05-13T06:57:05Z</time>
      </trkpt>
      <trkpt lat="45.99208" lon="5.59707">
        <ele>806.4</ele>
        <time>2026-05-13T06:57:06Z</time>
      </trkpt>
      <trkpt lat="45.99205" lon="5.59713">
        <ele>806.4</ele>
        <time>2026-05-13T06:57:07Z</time>
      </trkpt>
      <trkpt lat="45.99202" lon="5.59718">
        <ele>806.8</ele>
        <time>2026-05-13T06:57:08Z</time>
      </trkpt>
      <trkpt lat="45.99199" lon="5.59724">
        <ele>806.8</ele>
        <time>2026-05-13T06:57:09Z</time>
      </trkpt>
      <trkpt lat="45.99197" lon="5.59729">
        <ele>806.8</ele>
        <time>2026-05-13T06:57:10Z</time>
      </trkpt>
      <trkpt lat="45.99191" lon="5.5974">
        <ele>806.8</ele>
        <time>2026-05-13T06:57:11Z</time>
      </trkpt>
      <trkpt lat="45.99187" lon="5.59746">
        <ele>806.8</ele>
        <time>2026-05-13T06:57:12Z</time>
      </trkpt>
      <trkpt lat="45.99184" lon="5.59752">
        <ele>807</ele>
        <time>2026-05-13T06:57:13Z</time>
      </trkpt>
      <trkpt lat="45.99181" lon="5.59758">
        <ele>807</ele>
        <time>2026-05-13T06:57:14Z</time>
      </trkpt>
      <trkpt lat="45.99178" lon="5.59763">
        <ele>807.2</ele>
        <time>2026-05-13T06:57:15Z</time>
      </trkpt>
      <trkpt lat="45.99175" lon="5.59769">
        <ele>807.2</ele>
        <time>2026-05-13T06:57:16Z</time>
      </trkpt>
      <trkpt lat="45.99171" lon="5.59774">
        <ele>807.2</ele>
        <time>2026-05-13T06:57:17Z</time>
      </trkpt>
      <trkpt lat="45.99168" lon="5.5978">
        <ele>807.6</ele>
        <time>2026-05-13T06:57:18Z</time>
      </trkpt>
      <trkpt lat="45.99164" lon="5.59786">
        <ele>807.6</ele>
        <time>2026-05-13T06:57:19Z</time>
      </trkpt>
      <trkpt lat="45.99161" lon="5.59791">
        <ele>807.6</ele>
        <time>2026-05-13T06:57:20Z</time>
      </trkpt>
      <trkpt lat="45.99157" lon="5.59796">
        <ele>807.6</ele>
        <time>2026-05-13T06:57:21Z</time>
      </trkpt>
      <trkpt lat="45.99154" lon="5.59801">
        <ele>807.6</ele>
        <time>2026-05-13T06:57:22Z</time>
      </trkpt>
      <trkpt lat="45.99151" lon="5.59806">
        <ele>807.8</ele>
        <time>2026-05-13T06:57:23Z</time>
      </trkpt>
      <trkpt lat="45.99148" lon="5.59811">
        <ele>807.8</ele>
        <time>2026-05-13T06:57:24Z</time>
      </trkpt>
      <trkpt lat="45.99145" lon="5.59816">
        <ele>808</ele>
        <time>2026-05-13T06:57:25Z</time>
      </trkpt>
      <trkpt lat="45.99141" lon="5.59821">
        <ele>808</ele>
        <time>2026-05-13T06:57:26Z</time>
      </trkpt>
      <trkpt lat="45.99138" lon="5.59826">
        <ele>808</ele>
        <time>2026-05-13T06:57:27Z</time>
      </trkpt>
      <trkpt lat="45.99134" lon="5.5983">
        <ele>808.2</ele>
        <time>2026-05-13T06:57:28Z</time>
      </trkpt>
      <trkpt lat="45.9913" lon="5.59834">
        <ele>808.2</ele>
        <time>2026-05-13T06:57:29Z</time>
      </trkpt>
      <trkpt lat="45.99126" lon="5.59839">
        <ele>808.6</ele>
        <time>2026-05-13T06:57:30Z</time>
      </trkpt>
      <trkpt lat="45.99123" lon="5.59844">
        <ele>808.6</ele>
        <time>2026-05-13T06:57:31Z</time>
      </trkpt>
      <trkpt lat="45.99119" lon="5.59848">
        <ele>808.6</ele>
        <time>2026-05-13T06:57:32Z</time>
      </trkpt>
      <trkpt lat="45.99116" lon="5.59853">
        <ele>808.8</ele>
        <time>2026-05-13T06:57:33Z</time>
      </trkpt>
      <trkpt lat="45.99112" lon="5.59857">
        <ele>808.8</ele>
        <time>2026-05-13T06:57:34Z</time>
      </trkpt>
      <trkpt lat="45.99108" lon="5.59862">
        <ele>809</ele>
        <time>2026-05-13T06:57:35Z</time>
      </trkpt>
      <trkpt lat="45.99105" lon="5.59867">
        <ele>809</ele>
        <time>2026-05-13T06:57:36Z</time>
      </trkpt>
      <trkpt lat="45.99101" lon="5.59872">
        <ele>809</ele>
        <time>2026-05-13T06:57:37Z</time>
      </trkpt>
      <trkpt lat="45.99097" lon="5.59876">
        <ele>809.2</ele>
        <time>2026-05-13T06:57:38Z</time>
      </trkpt>
      <trkpt lat="45.99093" lon="5.59882">
        <ele>809.2</ele>
        <time>2026-05-13T06:57:39Z</time>
      </trkpt>
      <trkpt lat="45.9909" lon="5.59886">
        <ele>809.2</ele>
        <time>2026-05-13T06:57:40Z</time>
      </trkpt>
      <trkpt lat="45.99086" lon="5.59892">
        <ele>809.2</ele>
        <time>2026-05-13T06:57:41Z</time>
      </trkpt>
      <trkpt lat="45.99083" lon="5.59896">
        <ele>809.6</ele>
        <time>2026-05-13T06:57:42Z</time>
      </trkpt>
      <trkpt lat="45.9908" lon="5.599">
        <ele>809.6</ele>
        <time>2026-05-13T06:57:43Z</time>
      </trkpt>
      <trkpt lat="45.99076" lon="5.59905">
        <ele>809.6</ele>
        <time>2026-05-13T06:57:44Z</time>
      </trkpt>
      <trkpt lat="45.99073" lon="5.59911">
        <ele>809.6</ele>
        <time>2026-05-13T06:57:45Z</time>
      </trkpt>
      <trkpt lat="45.99069" lon="5.59915">
        <ele>809.6</ele>
        <time>2026-05-13T06:57:46Z</time>
      </trkpt>
      <trkpt lat="45.99065" lon="5.59919">
        <ele>809.8</ele>
        <time>2026-05-13T06:57:47Z</time>
      </trkpt>
      <trkpt lat="45.99062" lon="5.59923">
        <ele>809.8</ele>
        <time>2026-05-13T06:57:48Z</time>
      </trkpt>
      <trkpt lat="45.99059" lon="5.59927">
        <ele>809.8</ele>
        <time>2026-05-13T06:57:49Z</time>
      </trkpt>
      <trkpt lat="45.99055" lon="5.59932">
        <ele>810</ele>
        <time>2026-05-13T06:57:50Z</time>
      </trkpt>
      <trkpt lat="45.99052" lon="5.59937">
        <ele>810</ele>
        <time>2026-05-13T06:57:51Z</time>
      </trkpt>
      <trkpt lat="45.99048" lon="5.59941">
        <ele>810</ele>
        <time>2026-05-13T06:57:52Z</time>
      </trkpt>
      <trkpt lat="45.99045" lon="5.59946">
        <ele>810</ele>
        <time>2026-05-13T06:57:53Z</time>
      </trkpt>
      <trkpt lat="45.99041" lon="5.5995">
        <ele>810</ele>
        <time>2026-05-13T06:57:54Z</time>
      </trkpt>
      <trkpt lat="45.99038" lon="5.59955">
        <ele>810</ele>
        <time>2026-05-13T06:57:55Z</time>
      </trkpt>
      <trkpt lat="45.99035" lon="5.5996">
        <ele>810.2</ele>
        <time>2026-05-13T06:57:56Z</time>
      </trkpt>
      <trkpt lat="45.99031" lon="5.59964">
        <ele>810.2</ele>
        <time>2026-05-13T06:57:57Z</time>
      </trkpt>
      <trkpt lat="45.99028" lon="5.59969">
        <ele>810.2</ele>
        <time>2026-05-13T06:57:58Z</time>
      </trkpt>
      <trkpt lat="45.99024" lon="5.59973">
        <ele>810.6</ele>
        <time>2026-05-13T06:57:59Z</time>
      </trkpt>
      <trkpt lat="45.9902" lon="5.59977">
        <ele>810.6</ele>
        <time>2026-05-13T06:58:00Z</time>
      </trkpt>
      <trkpt lat="45.99016" lon="5.59982">
        <ele>810.8</ele>
        <time>2026-05-13T06:58:01Z</time>
      </trkpt>
      <trkpt lat="45.99013" lon="5.59987">
        <ele>810.8</ele>
        <time>2026-05-13T06:58:02Z</time>
      </trkpt>
      <trkpt lat="45.9901" lon="5.59991">
        <ele>810.8</ele>
        <time>2026-05-13T06:58:03Z</time>
      </trkpt>
      <trkpt lat="45.99006" lon="5.59996">
        <ele>810.8</ele>
        <time>2026-05-13T06:58:04Z</time>
      </trkpt>
      <trkpt lat="45.99003" lon="5.59998">
        <ele>810.8</ele>
        <time>2026-05-13T06:58:05Z</time>
      </trkpt>
      <trkpt lat="45.98998" lon="5.60004">
        <ele>810.8</ele>
        <time>2026-05-13T06:58:06Z</time>
      </trkpt>
      <trkpt lat="45.98994" lon="5.60008">
        <ele>810.8</ele>
        <time>2026-05-13T06:58:07Z</time>
      </trkpt>
      <trkpt lat="45.9899" lon="5.60011">
        <ele>810.8</ele>
        <time>2026-05-13T06:58:08Z</time>
      </trkpt>
      <trkpt lat="45.98985" lon="5.60014">
        <ele>810.8</ele>
        <time>2026-05-13T06:58:09Z</time>
      </trkpt>
      <trkpt lat="45.98982" lon="5.60018">
        <ele>810.8</ele>
        <time>2026-05-13T06:58:10Z</time>
      </trkpt>
      <trkpt lat="45.98977" lon="5.60022">
        <ele>810.8</ele>
        <time>2026-05-13T06:58:11Z</time>
      </trkpt>
      <trkpt lat="45.98973" lon="5.60025">
        <ele>810.8</ele>
        <time>2026-05-13T06:58:12Z</time>
      </trkpt>
      <trkpt lat="45.98968" lon="5.60027">
        <ele>810.8</ele>
        <time>2026-05-13T06:58:13Z</time>
      </trkpt>
      <trkpt lat="45.98964" lon="5.60031">
        <ele>811</ele>
        <time>2026-05-13T06:58:14Z</time>
      </trkpt>
      <trkpt lat="45.98959" lon="5.60034">
        <ele>811</ele>
        <time>2026-05-13T06:58:15Z</time>
      </trkpt>
      <trkpt lat="45.98954" lon="5.60037">
        <ele>811.4</ele>
        <time>2026-05-13T06:58:16Z</time>
      </trkpt>
      <trkpt lat="45.9895" lon="5.60039">
        <ele>811.6</ele>
        <time>2026-05-13T06:58:17Z</time>
      </trkpt>
      <trkpt lat="45.98946" lon="5.60041">
        <ele>811.8</ele>
        <time>2026-05-13T06:58:18Z</time>
      </trkpt>
      <trkpt lat="45.98941" lon="5.60044">
        <ele>811.8</ele>
        <time>2026-05-13T06:58:19Z</time>
      </trkpt>
      <trkpt lat="45.98937" lon="5.60046">
        <ele>811.8</ele>
        <time>2026-05-13T06:58:20Z</time>
      </trkpt>
      <trkpt lat="45.98932" lon="5.60049">
        <ele>811.8</ele>
        <time>2026-05-13T06:58:21Z</time>
      </trkpt>
      <trkpt lat="45.98928" lon="5.6005">
        <ele>812.2</ele>
        <time>2026-05-13T06:58:22Z</time>
      </trkpt>
      <trkpt lat="45.98923" lon="5.60053">
        <ele>812.2</ele>
        <time>2026-05-13T06:58:23Z</time>
      </trkpt>
      <trkpt lat="45.98918" lon="5.60055">
        <ele>812.4</ele>
        <time>2026-05-13T06:58:24Z</time>
      </trkpt>
      <trkpt lat="45.98914" lon="5.60056">
        <ele>812.4</ele>
        <time>2026-05-13T06:58:25Z</time>
      </trkpt>
      <trkpt lat="45.98909" lon="5.60057">
        <ele>812.4</ele>
        <time>2026-05-13T06:58:26Z</time>
      </trkpt>
      <trkpt lat="45.98904" lon="5.60059">
        <ele>812.4</ele>
        <time>2026-05-13T06:58:27Z</time>
      </trkpt>
      <trkpt lat="45.98899" lon="5.6006">
        <ele>812.6</ele>
        <time>2026-05-13T06:58:28Z</time>
      </trkpt>
      <trkpt lat="45.98893" lon="5.60061">
        <ele>812.6</ele>
        <time>2026-05-13T06:58:29Z</time>
      </trkpt>
      <trkpt lat="45.98888" lon="5.60062">
        <ele>812.6</ele>
        <time>2026-05-13T06:58:30Z</time>
      </trkpt>
      <trkpt lat="45.98883" lon="5.60062">
        <ele>812.6</ele>
        <time>2026-05-13T06:58:31Z</time>
      </trkpt>
      <trkpt lat="45.98877" lon="5.60062">
        <ele>812.6</ele>
        <time>2026-05-13T06:58:32Z</time>
      </trkpt>
      <trkpt lat="45.98872" lon="5.60063">
        <ele>812.6</ele>
        <time>2026-05-13T06:58:33Z</time>
      </trkpt>
      <trkpt lat="45.98867" lon="5.60063">
        <ele>812.6</ele>
        <time>2026-05-13T06:58:34Z</time>
      </trkpt>
      <trkpt lat="45.98861" lon="5.60063">
        <ele>812.4</ele>
        <time>2026-05-13T06:58:35Z</time>
      </trkpt>
      <trkpt lat="45.98855" lon="5.60063">
        <ele>812.4</ele>
        <time>2026-05-13T06:58:36Z</time>
      </trkpt>
      <trkpt lat="45.9885" lon="5.60062">
        <ele>812.4</ele>
        <time>2026-05-13T06:58:37Z</time>
      </trkpt>
      <trkpt lat="45.98844" lon="5.60062">
        <ele>812</ele>
        <time>2026-05-13T06:58:38Z</time>
      </trkpt>
      <trkpt lat="45.98844" lon="5.60062">
        <ele>812</ele>
        <time>2026-05-13T06:58:39Z</time>
      </trkpt>
      <trkpt lat="45.98844" lon="5.60062">
        <ele>812</ele>
        <time>2026-05-13T06:58:40Z</time>
      </trkpt>
      <trkpt lat="45.98817" lon="5.60057">
        <ele>811.2</ele>
        <time>2026-05-13T06:58:43Z</time>
      </trkpt>
      <trkpt lat="45.9881" lon="5.60054">
        <ele>811.2</ele>
        <time>2026-05-13T06:58:44Z</time>
      </trkpt>
      <trkpt lat="45.98804" lon="5.60052">
        <ele>810.8</ele>
        <time>2026-05-13T06:58:45Z</time>
      </trkpt>
      <trkpt lat="45.98798" lon="5.60049">
        <ele>810.4</ele>
        <time>2026-05-13T06:58:46Z</time>
      </trkpt>
      <trkpt lat="45.98792" lon="5.60047">
        <ele>810</ele>
        <time>2026-05-13T06:58:47Z</time>
      </trkpt>
      <trkpt lat="45.98785" lon="5.60044">
        <ele>809.6</ele>
        <time>2026-05-13T06:58:48Z</time>
      </trkpt>
      <trkpt lat="45.98778" lon="5.6004">
        <ele>809.4</ele>
        <time>2026-05-13T06:58:49Z</time>
      </trkpt>
      <trkpt lat="45.98771" lon="5.60037">
        <ele>808.6</ele>
        <time>2026-05-13T06:58:50Z</time>
      </trkpt>
      <trkpt lat="45.98764" lon="5.60033">
        <ele>808.6</ele>
        <time>2026-05-13T06:58:51Z</time>
      </trkpt>
      <trkpt lat="45.98757" lon="5.60029">
        <ele>807.8</ele>
        <time>2026-05-13T06:58:52Z</time>
      </trkpt>
      <trkpt lat="45.9875" lon="5.60026">
        <ele>807.8</ele>
        <time>2026-05-13T06:58:53Z</time>
      </trkpt>
      <trkpt lat="45.98742" lon="5.60022">
        <ele>807.2</ele>
        <time>2026-05-13T06:58:54Z</time>
      </trkpt>
      <trkpt lat="45.98735" lon="5.60017">
        <ele>807</ele>
        <time>2026-05-13T06:58:55Z</time>
      </trkpt>
      <trkpt lat="45.98728" lon="5.60013">
        <ele>806.8</ele>
        <time>2026-05-13T06:58:56Z</time>
      </trkpt>
      <trkpt lat="45.9872" lon="5.60007">
        <ele>806.4</ele>
        <time>2026-05-13T06:58:57Z</time>
      </trkpt>
      <trkpt lat="45.98713" lon="5.60002">
        <ele>806.2</ele>
        <time>2026-05-13T06:58:58Z</time>
      </trkpt>
      <trkpt lat="45.98705" lon="5.59996">
        <ele>805.8</ele>
        <time>2026-05-13T06:58:59Z</time>
      </trkpt>
      <trkpt lat="45.98698" lon="5.59991">
        <ele>805.4</ele>
        <time>2026-05-13T06:59:00Z</time>
      </trkpt>
      <trkpt lat="45.98691" lon="5.59984">
        <ele>805.4</ele>
        <time>2026-05-13T06:59:01Z</time>
      </trkpt>
      <trkpt lat="45.98684" lon="5.59978">
        <ele>804.8</ele>
        <time>2026-05-13T06:59:02Z</time>
      </trkpt>
      <trkpt lat="45.98676" lon="5.59971">
        <ele>804.8</ele>
        <time>2026-05-13T06:59:03Z</time>
      </trkpt>
      <trkpt lat="45.98669" lon="5.59965">
        <ele>804.4</ele>
        <time>2026-05-13T06:59:04Z</time>
      </trkpt>
      <trkpt lat="45.98662" lon="5.59958">
        <ele>804</ele>
        <time>2026-05-13T06:59:05Z</time>
      </trkpt>
      <trkpt lat="45.98655" lon="5.59952">
        <ele>803.6</ele>
        <time>2026-05-13T06:59:06Z</time>
      </trkpt>
      <trkpt lat="45.98648" lon="5.59945">
        <ele>803.2</ele>
        <time>2026-05-13T06:59:07Z</time>
      </trkpt>
      <trkpt lat="45.98641" lon="5.59939">
        <ele>803.2</ele>
        <time>2026-05-13T06:59:08Z</time>
      </trkpt>
      <trkpt lat="45.98633" lon="5.59933">
        <ele>803.2</ele>
        <time>2026-05-13T06:59:09Z</time>
      </trkpt>
      <trkpt lat="45.98626" lon="5.59929">
        <ele>803</ele>
        <time>2026-05-13T06:59:10Z</time>
      </trkpt>
      <trkpt lat="45.98618" lon="5.59924">
        <ele>803</ele>
        <time>2026-05-13T06:59:11Z</time>
      </trkpt>
      <trkpt lat="45.98611" lon="5.59919">
        <ele>802.6</ele>
        <time>2026-05-13T06:59:12Z</time>
      </trkpt>
      <trkpt lat="45.98602" lon="5.59915">
        <ele>802.2</ele>
        <time>2026-05-13T06:59:13Z</time>
      </trkpt>
      <trkpt lat="45.98594" lon="5.59912">
        <ele>801.8</ele>
        <time>2026-05-13T06:59:14Z</time>
      </trkpt>
      <trkpt lat="45.98585" lon="5.59909">
        <ele>801.4</ele>
        <time>2026-05-13T06:59:15Z</time>
      </trkpt>
      <trkpt lat="45.98577" lon="5.59906">
        <ele>800.8</ele>
        <time>2026-05-13T06:59:16Z</time>
      </trkpt>
      <trkpt lat="45.98567" lon="5.59903">
        <ele>800.2</ele>
        <time>2026-05-13T06:59:17Z</time>
      </trkpt>
      <trkpt lat="45.98559" lon="5.599">
        <ele>799.8</ele>
        <time>2026-05-13T06:59:18Z</time>
      </trkpt>
      <trkpt lat="45.9855" lon="5.59898">
        <ele>799.4</ele>
        <time>2026-05-13T06:59:19Z</time>
      </trkpt>
      <trkpt lat="45.98541" lon="5.59896">
        <ele>798.8</ele>
        <time>2026-05-13T06:59:20Z</time>
      </trkpt>
      <trkpt lat="45.98532" lon="5.59893">
        <ele>798.8</ele>
        <time>2026-05-13T06:59:21Z</time>
      </trkpt>
      <trkpt lat="45.98523" lon="5.5989">
        <ele>798.4</ele>
        <time>2026-05-13T06:59:22Z</time>
      </trkpt>
      <trkpt lat="45.98514" lon="5.59888">
        <ele>798</ele>
        <time>2026-05-13T06:59:23Z</time>
      </trkpt>
      <trkpt lat="45.98506" lon="5.59885">
        <ele>797.6</ele>
        <time>2026-05-13T06:59:24Z</time>
      </trkpt>
      <trkpt lat="45.98497" lon="5.59882">
        <ele>797.2</ele>
        <time>2026-05-13T06:59:25Z</time>
      </trkpt>
      <trkpt lat="45.98489" lon="5.59878">
        <ele>797</ele>
        <time>2026-05-13T06:59:26Z</time>
      </trkpt>
      <trkpt lat="45.98481" lon="5.59874">
        <ele>797</ele>
        <time>2026-05-13T06:59:27Z</time>
      </trkpt>
      <trkpt lat="45.98473" lon="5.5987">
        <ele>797</ele>
        <time>2026-05-13T06:59:28Z</time>
      </trkpt>
      <trkpt lat="45.98464" lon="5.59865">
        <ele>797</ele>
        <time>2026-05-13T06:59:29Z</time>
      </trkpt>
      <trkpt lat="45.98457" lon="5.59861">
        <ele>796.8</ele>
        <time>2026-05-13T06:59:30Z</time>
      </trkpt>
      <trkpt lat="45.98453" lon="5.59859">
        <ele>796.8</ele>
        <time>2026-05-13T06:59:31Z</time>
      </trkpt>
      <trkpt lat="45.98448" lon="5.59856">
        <ele>796.8</ele>
        <time>2026-05-13T06:59:32Z</time>
      </trkpt>
      <trkpt lat="45.98443" lon="5.59853">
        <ele>797.2</ele>
        <time>2026-05-13T06:59:33Z</time>
      </trkpt>
      <trkpt lat="45.98438" lon="5.59851">
        <ele>797.2</ele>
        <time>2026-05-13T06:59:34Z</time>
      </trkpt>
      <trkpt lat="45.98432" lon="5.59848">
        <ele>797.2</ele>
        <time>2026-05-13T06:59:35Z</time>
      </trkpt>
      <trkpt lat="45.98427" lon="5.59845">
        <ele>797.4</ele>
        <time>2026-05-13T06:59:36Z</time>
      </trkpt>
      <trkpt lat="45.98421" lon="5.59843">
        <ele>797.4</ele>
        <time>2026-05-13T06:59:37Z</time>
      </trkpt>
      <trkpt lat="45.98416" lon="5.5984">
        <ele>797.2</ele>
        <time>2026-05-13T06:59:38Z</time>
      </trkpt>
      <trkpt lat="45.98411" lon="5.59837">
        <ele>797.2</ele>
        <time>2026-05-13T06:59:39Z</time>
      </trkpt>
      <trkpt lat="45.98405" lon="5.59834">
        <ele>796.8</ele>
        <time>2026-05-13T06:59:40Z</time>
      </trkpt>
      <trkpt lat="45.984" lon="5.5983">
        <ele>796.8</ele>
        <time>2026-05-13T06:59:41Z</time>
      </trkpt>
      <trkpt lat="45.98394" lon="5.59827">
        <ele>796.6</ele>
        <time>2026-05-13T06:59:42Z</time>
      </trkpt>
      <trkpt lat="45.98388" lon="5.59824">
        <ele>796.6</ele>
        <time>2026-05-13T06:59:43Z</time>
      </trkpt>
      <trkpt lat="45.98382" lon="5.59821">
        <ele>796.6</ele>
        <time>2026-05-13T06:59:44Z</time>
      </trkpt>
      <trkpt lat="45.98376" lon="5.59817">
        <ele>796.6</ele>
        <time>2026-05-13T06:59:45Z</time>
      </trkpt>
      <trkpt lat="45.98371" lon="5.59813">
        <ele>796.2</ele>
        <time>2026-05-13T06:59:46Z</time>
      </trkpt>
      <trkpt lat="45.98365" lon="5.5981">
        <ele>796</ele>
        <time>2026-05-13T06:59:47Z</time>
      </trkpt>
      <trkpt lat="45.98359" lon="5.59807">
        <ele>795.8</ele>
        <time>2026-05-13T06:59:48Z</time>
      </trkpt>
      <trkpt lat="45.98353" lon="5.59803">
        <ele>795.8</ele>
        <time>2026-05-13T06:59:49Z</time>
      </trkpt>
      <trkpt lat="45.98347" lon="5.59799">
        <ele>795.8</ele>
        <time>2026-05-13T06:59:50Z</time>
      </trkpt>
      <trkpt lat="45.98341" lon="5.59796">
        <ele>795.4</ele>
        <time>2026-05-13T06:59:51Z</time>
      </trkpt>
      <trkpt lat="45.98335" lon="5.59793">
        <ele>795.4</ele>
        <time>2026-05-13T06:59:52Z</time>
      </trkpt>
      <trkpt lat="45.98329" lon="5.5979">
        <ele>795.4</ele>
        <time>2026-05-13T06:59:53Z</time>
      </trkpt>
      <trkpt lat="45.98329" lon="5.5979">
        <ele>795.2</ele>
        <time>2026-05-13T06:59:54Z</time>
      </trkpt>
      <trkpt lat="45.98323" lon="5.59787">
        <ele>794.8</ele>
        <time>2026-05-13T06:59:55Z</time>
      </trkpt>
      <trkpt lat="45.98316" lon="5.59783">
        <ele>794.4</ele>
        <time>2026-05-13T06:59:56Z</time>
      </trkpt>
      <trkpt lat="45.9831" lon="5.5978">
        <ele>793.8</ele>
        <time>2026-05-13T06:59:57Z</time>
      </trkpt>
      <trkpt lat="45.98304" lon="5.59777">
        <ele>793.6</ele>
        <time>2026-05-13T06:59:58Z</time>
      </trkpt>
      <trkpt lat="45.98297" lon="5.59773">
        <ele>793.2</ele>
        <time>2026-05-13T06:59:59Z</time>
      </trkpt>
      <trkpt lat="45.9829" lon="5.5977">
        <ele>793.2</ele>
        <time>2026-05-13T07:00:00Z</time>
      </trkpt>
      <trkpt lat="45.98283" lon="5.59767">
        <ele>793.2</ele>
        <time>2026-05-13T07:00:01Z</time>
      </trkpt>
      <trkpt lat="45.98276" lon="5.59764">
        <ele>792.8</ele>
        <time>2026-05-13T07:00:02Z</time>
      </trkpt>
      <trkpt lat="45.98269" lon="5.59761">
        <ele>792.8</ele>
        <time>2026-05-13T07:00:03Z</time>
      </trkpt>
      <trkpt lat="45.98262" lon="5.59758">
        <ele>792.4</ele>
        <time>2026-05-13T07:00:04Z</time>
      </trkpt>
      <trkpt lat="45.98254" lon="5.59755">
        <ele>792.4</ele>
        <time>2026-05-13T07:00:05Z</time>
      </trkpt>
      <trkpt lat="45.98247" lon="5.59752">
        <ele>792.2</ele>
        <time>2026-05-13T07:00:06Z</time>
      </trkpt>
      <trkpt lat="45.9824" lon="5.5975">
        <ele>791.8</ele>
        <time>2026-05-13T07:00:07Z</time>
      </trkpt>
      <trkpt lat="45.98232" lon="5.59748">
        <ele>791.6</ele>
        <time>2026-05-13T07:00:08Z</time>
      </trkpt>
      <trkpt lat="45.98225" lon="5.59746">
        <ele>791.6</ele>
        <time>2026-05-13T07:00:09Z</time>
      </trkpt>
      <trkpt lat="45.98217" lon="5.59745">
        <ele>791</ele>
        <time>2026-05-13T07:00:10Z</time>
      </trkpt>
      <trkpt lat="45.98209" lon="5.59744">
        <ele>790.8</ele>
        <time>2026-05-13T07:00:11Z</time>
      </trkpt>
      <trkpt lat="45.98201" lon="5.59743">
        <ele>790.4</ele>
        <time>2026-05-13T07:00:12Z</time>
      </trkpt>
      <trkpt lat="45.98193" lon="5.59742">
        <ele>790.4</ele>
        <time>2026-05-13T07:00:13Z</time>
      </trkpt>
      <trkpt lat="45.98185" lon="5.5974">
        <ele>790.4</ele>
        <time>2026-05-13T07:00:14Z</time>
      </trkpt>
      <trkpt lat="45.98177" lon="5.59738">
        <ele>790.4</ele>
        <time>2026-05-13T07:00:15Z</time>
      </trkpt>
      <trkpt lat="45.98169" lon="5.59737">
        <ele>790.4</ele>
        <time>2026-05-13T07:00:16Z</time>
      </trkpt>
      <trkpt lat="45.98162" lon="5.59736">
        <ele>790</ele>
        <time>2026-05-13T07:00:17Z</time>
      </trkpt>
      <trkpt lat="45.98154" lon="5.59734">
        <ele>790</ele>
        <time>2026-05-13T07:00:18Z</time>
      </trkpt>
      <trkpt lat="45.98146" lon="5.59733">
        <ele>789.8</ele>
        <time>2026-05-13T07:00:19Z</time>
      </trkpt>
      <trkpt lat="45.98139" lon="5.59731">
        <ele>789.8</ele>
        <time>2026-05-13T07:00:20Z</time>
      </trkpt>
      <trkpt lat="45.98131" lon="5.5973">
        <ele>789.8</ele>
        <time>2026-05-13T07:00:21Z</time>
      </trkpt>
      <trkpt lat="45.98124" lon="5.59729">
        <ele>789.4</ele>
        <time>2026-05-13T07:00:22Z</time>
      </trkpt>
      <trkpt lat="45.98117" lon="5.59727">
        <ele>789.4</ele>
        <time>2026-05-13T07:00:23Z</time>
      </trkpt>
      <trkpt lat="45.98109" lon="5.59726">
        <ele>789.4</ele>
        <time>2026-05-13T07:00:24Z</time>
      </trkpt>
      <trkpt lat="45.98102" lon="5.59724">
        <ele>789.4</ele>
        <time>2026-05-13T07:00:25Z</time>
      </trkpt>
      <trkpt lat="45.98095" lon="5.59723">
        <ele>789.4</ele>
        <time>2026-05-13T07:00:26Z</time>
      </trkpt>
      <trkpt lat="45.98088" lon="5.59722">
        <ele>789.2</ele>
        <time>2026-05-13T07:00:27Z</time>
      </trkpt>
      <trkpt lat="45.98081" lon="5.59721">
        <ele>789.2</ele>
        <time>2026-05-13T07:00:28Z</time>
      </trkpt>
      <trkpt lat="45.98075" lon="5.5972">
        <ele>789</ele>
        <time>2026-05-13T07:00:29Z</time>
      </trkpt>
      <trkpt lat="45.98068" lon="5.59719">
        <ele>789</ele>
        <time>2026-05-13T07:00:30Z</time>
      </trkpt>
      <trkpt lat="45.98061" lon="5.59718">
        <ele>788.8</ele>
        <time>2026-05-13T07:00:31Z</time>
      </trkpt>
      <trkpt lat="45.98054" lon="5.59718">
        <ele>788.8</ele>
        <time>2026-05-13T07:00:32Z</time>
      </trkpt>
      <trkpt lat="45.98047" lon="5.59716">
        <ele>788.8</ele>
        <time>2026-05-13T07:00:33Z</time>
      </trkpt>
      <trkpt lat="45.98041" lon="5.59715">
        <ele>788.8</ele>
        <time>2026-05-13T07:00:34Z</time>
      </trkpt>
      <trkpt lat="45.98034" lon="5.59714">
        <ele>788.8</ele>
        <time>2026-05-13T07:00:35Z</time>
      </trkpt>
      <trkpt lat="45.98027" lon="5.59713">
        <ele>789</ele>
        <time>2026-05-13T07:00:36Z</time>
      </trkpt>
      <trkpt lat="45.9802" lon="5.59712">
        <ele>789</ele>
        <time>2026-05-13T07:00:37Z</time>
      </trkpt>
      <trkpt lat="45.98013" lon="5.59712">
        <ele>789</ele>
        <time>2026-05-13T07:00:38Z</time>
      </trkpt>
      <trkpt lat="45.98006" lon="5.59713">
        <ele>788.8</ele>
        <time>2026-05-13T07:00:39Z</time>
      </trkpt>
      <trkpt lat="45.97999" lon="5.59714">
        <ele>788.8</ele>
        <time>2026-05-13T07:00:40Z</time>
      </trkpt>
      <trkpt lat="45.97993" lon="5.59716">
        <ele>788.8</ele>
        <time>2026-05-13T07:00:41Z</time>
      </trkpt>
      <trkpt lat="45.97989" lon="5.59718">
        <ele>788.8</ele>
        <time>2026-05-13T07:00:42Z</time>
      </trkpt>
      <trkpt lat="45.97985" lon="5.59719">
        <ele>788.8</ele>
        <time>2026-05-13T07:00:43Z</time>
      </trkpt>
      <trkpt lat="45.97981" lon="5.5972">
        <ele>788.8</ele>
        <time>2026-05-13T07:00:44Z</time>
      </trkpt>
      <trkpt lat="45.97979" lon="5.5972">
        <ele>788.8</ele>
        <time>2026-05-13T07:00:45Z</time>
      </trkpt>
      <trkpt lat="45.97976" lon="5.5972">
        <ele>788.8</ele>
        <time>2026-05-13T07:00:46Z</time>
      </trkpt>
      <trkpt lat="45.97971" lon="5.59715">
        <ele>788.8</ele>
        <time>2026-05-13T07:00:47Z</time>
      </trkpt>
      <trkpt lat="45.97968" lon="5.59712">
        <ele>788.8</ele>
        <time>2026-05-13T07:00:48Z</time>
      </trkpt>
      <trkpt lat="45.97966" lon="5.59708">
        <ele>789</ele>
        <time>2026-05-13T07:00:49Z</time>
      </trkpt>
      <trkpt lat="45.97962" lon="5.59705">
        <ele>789</ele>
        <time>2026-05-13T07:00:50Z</time>
      </trkpt>
      <trkpt lat="45.97958" lon="5.59703">
        <ele>789</ele>
        <time>2026-05-13T07:00:51Z</time>
      </trkpt>
      <trkpt lat="45.97954" lon="5.59703">
        <ele>789</ele>
        <time>2026-05-13T07:00:52Z</time>
      </trkpt>
      <trkpt lat="45.97949" lon="5.59703">
        <ele>788.8</ele>
        <time>2026-05-13T07:00:53Z</time>
      </trkpt>
      <trkpt lat="45.97945" lon="5.59711">
        <ele>788.8</ele>
        <time>2026-05-13T07:00:54Z</time>
      </trkpt>
      <trkpt lat="45.97943" lon="5.59717">
        <ele>788.8</ele>
        <time>2026-05-13T07:00:55Z</time>
      </trkpt>
      <trkpt lat="45.97941" lon="5.59723">
        <ele>788.4</ele>
        <time>2026-05-13T07:00:56Z</time>
      </trkpt>
      <trkpt lat="45.97938" lon="5.59729">
        <ele>788.4</ele>
        <time>2026-05-13T07:00:57Z</time>
      </trkpt>
      <trkpt lat="45.97934" lon="5.59735">
        <ele>788.4</ele>
        <time>2026-05-13T07:00:58Z</time>
      </trkpt>
      <trkpt lat="45.9793" lon="5.5974">
        <ele>788.2</ele>
        <time>2026-05-13T07:00:59Z</time>
      </trkpt>
      <trkpt lat="45.97926" lon="5.59745">
        <ele>788.2</ele>
        <time>2026-05-13T07:01:00Z</time>
      </trkpt>
      <trkpt lat="45.97921" lon="5.5975">
        <ele>788.4</ele>
        <time>2026-05-13T07:01:01Z</time>
      </trkpt>
      <trkpt lat="45.97917" lon="5.59755">
        <ele>788.4</ele>
        <time>2026-05-13T07:01:02Z</time>
      </trkpt>
      <trkpt lat="45.97912" lon="5.5976">
        <ele>788.4</ele>
        <time>2026-05-13T07:01:03Z</time>
      </trkpt>
      <trkpt lat="45.97907" lon="5.59765">
        <ele>788.4</ele>
        <time>2026-05-13T07:01:04Z</time>
      </trkpt>
      <trkpt lat="45.97902" lon="5.5977">
        <ele>788.4</ele>
        <time>2026-05-13T07:01:05Z</time>
      </trkpt>
      <trkpt lat="45.97898" lon="5.59776">
        <ele>788.4</ele>
        <time>2026-05-13T07:01:06Z</time>
      </trkpt>
      <trkpt lat="45.97893" lon="5.59781">
        <ele>788.4</ele>
        <time>2026-05-13T07:01:07Z</time>
      </trkpt>
      <trkpt lat="45.97889" lon="5.59787">
        <ele>788.4</ele>
        <time>2026-05-13T07:01:08Z</time>
      </trkpt>
      <trkpt lat="45.97884" lon="5.59791">
        <ele>788.4</ele>
        <time>2026-05-13T07:01:09Z</time>
      </trkpt>
      <trkpt lat="45.97879" lon="5.59796">
        <ele>788.8</ele>
        <time>2026-05-13T07:01:10Z</time>
      </trkpt>
      <trkpt lat="45.97875" lon="5.59802">
        <ele>788.8</ele>
        <time>2026-05-13T07:01:11Z</time>
      </trkpt>
      <trkpt lat="45.97871" lon="5.59806">
        <ele>789</ele>
        <time>2026-05-13T07:01:12Z</time>
      </trkpt>
      <trkpt lat="45.97867" lon="5.59811">
        <ele>789</ele>
        <time>2026-05-13T07:01:13Z</time>
      </trkpt>
      <trkpt lat="45.97863" lon="5.59815">
        <ele>789.4</ele>
        <time>2026-05-13T07:01:14Z</time>
      </trkpt>
      <trkpt lat="45.97859" lon="5.5982">
        <ele>789.6</ele>
        <time>2026-05-13T07:01:15Z</time>
      </trkpt>
      <trkpt lat="45.97855" lon="5.59824">
        <ele>789.8</ele>
        <time>2026-05-13T07:01:16Z</time>
      </trkpt>
      <trkpt lat="45.97852" lon="5.59828">
        <ele>790</ele>
        <time>2026-05-13T07:01:17Z</time>
      </trkpt>
      <trkpt lat="45.97848" lon="5.59832">
        <ele>790.2</ele>
        <time>2026-05-13T07:01:18Z</time>
      </trkpt>
      <trkpt lat="45.97845" lon="5.59837">
        <ele>790.6</ele>
        <time>2026-05-13T07:01:19Z</time>
      </trkpt>
      <trkpt lat="45.97843" lon="5.59842">
        <ele>790.6</ele>
        <time>2026-05-13T07:01:20Z</time>
      </trkpt>
      <trkpt lat="45.97839" lon="5.59845">
        <ele>791</ele>
        <time>2026-05-13T07:01:21Z</time>
      </trkpt>
      <trkpt lat="45.97836" lon="5.59849">
        <ele>791</ele>
        <time>2026-05-13T07:01:22Z</time>
      </trkpt>
      <trkpt lat="45.97834" lon="5.59853">
        <ele>791.4</ele>
        <time>2026-05-13T07:01:23Z</time>
      </trkpt>
      <trkpt lat="45.97831" lon="5.59857">
        <ele>791.4</ele>
        <time>2026-05-13T07:01:24Z</time>
      </trkpt>
      <trkpt lat="45.97828" lon="5.59861">
        <ele>791.4</ele>
        <time>2026-05-13T07:01:25Z</time>
      </trkpt>
      <trkpt lat="45.97826" lon="5.59865">
        <ele>791.6</ele>
        <time>2026-05-13T07:01:26Z</time>
      </trkpt>
      <trkpt lat="45.97824" lon="5.59869">
        <ele>792</ele>
        <time>2026-05-13T07:01:27Z</time>
      </trkpt>
      <trkpt lat="45.97821" lon="5.59873">
        <ele>792</ele>
        <time>2026-05-13T07:01:28Z</time>
      </trkpt>
      <trkpt lat="45.97818" lon="5.59877">
        <ele>792.2</ele>
        <time>2026-05-13T07:01:29Z</time>
      </trkpt>
      <trkpt lat="45.97815" lon="5.5988">
        <ele>792.2</ele>
        <time>2026-05-13T07:01:30Z</time>
      </trkpt>
      <trkpt lat="45.97813" lon="5.59885">
        <ele>792.6</ele>
        <time>2026-05-13T07:01:31Z</time>
      </trkpt>
      <trkpt lat="45.9781" lon="5.5989">
        <ele>792.6</ele>
        <time>2026-05-13T07:01:32Z</time>
      </trkpt>
      <trkpt lat="45.97809" lon="5.59894">
        <ele>792.8</ele>
        <time>2026-05-13T07:01:33Z</time>
      </trkpt>
      <trkpt lat="45.97813" lon="5.59903">
        <ele>792.8</ele>
        <time>2026-05-13T07:01:34Z</time>
      </trkpt>
      <trkpt lat="45.9781" lon="5.59909">
        <ele>792.8</ele>
        <time>2026-05-13T07:01:35Z</time>
      </trkpt>
      <trkpt lat="45.9781" lon="5.59914">
        <ele>792.8</ele>
        <time>2026-05-13T07:01:36Z</time>
      </trkpt>
      <trkpt lat="45.97808" lon="5.5992">
        <ele>792.8</ele>
        <time>2026-05-13T07:01:37Z</time>
      </trkpt>
      <trkpt lat="45.97807" lon="5.59924">
        <ele>792.8</ele>
        <time>2026-05-13T07:01:38Z</time>
      </trkpt>
      <trkpt lat="45.97806" lon="5.59929">
        <ele>793.4</ele>
        <time>2026-05-13T07:01:39Z</time>
      </trkpt>
      <trkpt lat="45.97804" lon="5.59932">
        <ele>793.4</ele>
        <time>2026-05-13T07:01:40Z</time>
      </trkpt>
      <trkpt lat="45.97803" lon="5.59937">
        <ele>793.6</ele>
        <time>2026-05-13T07:01:41Z</time>
      </trkpt>
      <trkpt lat="45.97802" lon="5.59941">
        <ele>793.6</ele>
        <time>2026-05-13T07:01:42Z</time>
      </trkpt>
      <trkpt lat="45.97802" lon="5.59945">
        <ele>793.8</ele>
        <time>2026-05-13T07:01:43Z</time>
      </trkpt>
      <trkpt lat="45.97802" lon="5.5995">
        <ele>793.8</ele>
        <time>2026-05-13T07:01:44Z</time>
      </trkpt>
      <trkpt lat="45.97803" lon="5.59954">
        <ele>793.8</ele>
        <time>2026-05-13T07:01:45Z</time>
      </trkpt>
      <trkpt lat="45.97805" lon="5.59955">
        <ele>794</ele>
        <time>2026-05-13T07:01:46Z</time>
      </trkpt>
      <trkpt lat="45.97807" lon="5.59955">
        <ele>794.4</ele>
        <time>2026-05-13T07:01:47Z</time>
      </trkpt>
      <trkpt lat="45.97809" lon="5.59956">
        <ele>794.4</ele>
        <time>2026-05-13T07:01:48Z</time>
      </trkpt>
      <trkpt lat="45.97811" lon="5.59956">
        <ele>794.6</ele>
        <time>2026-05-13T07:01:49Z</time>
      </trkpt>
      <trkpt lat="45.97813" lon="5.59956">
        <ele>794.6</ele>
        <time>2026-05-13T07:01:50Z</time>
      </trkpt>
      <trkpt lat="45.97816" lon="5.59956">
        <ele>794.6</ele>
        <time>2026-05-13T07:01:51Z</time>
      </trkpt>
      <trkpt lat="45.97817" lon="5.59957">
        <ele>794.6</ele>
        <time>2026-05-13T07:01:52Z</time>
      </trkpt>
      <trkpt lat="45.97817" lon="5.59957">
        <ele>794.6</ele>
        <time>2026-05-13T07:01:53Z</time>
      </trkpt>
      <trkpt lat="45.97818" lon="5.59956">
        <ele>794.6</ele>
        <time>2026-05-13T07:01:54Z</time>
      </trkpt>
      <trkpt lat="45.97818" lon="5.59954">
        <ele>794.6</ele>
        <time>2026-05-13T07:01:55Z</time>
      </trkpt>
      <trkpt lat="45.97817" lon="5.59951">
        <ele>794.6</ele>
        <time>2026-05-13T07:01:56Z</time>
      </trkpt>
      <trkpt lat="45.97815" lon="5.59949">
        <ele>794.6</ele>
        <time>2026-05-13T07:01:57Z</time>
      </trkpt>
      <trkpt lat="45.97814" lon="5.59949">
        <ele>794.6</ele>
        <time>2026-05-13T07:01:58Z</time>
      </trkpt>
      <trkpt lat="45.97812" lon="5.59949">
        <ele>794.6</ele>
        <time>2026-05-13T07:01:59Z</time>
      </trkpt>
      <trkpt lat="45.9781" lon="5.59951">
        <ele>794.6</ele>
        <time>2026-05-13T07:02:00Z</time>
      </trkpt>
      <trkpt lat="45.97808" lon="5.59952">
        <ele>794.6</ele>
        <time>2026-05-13T07:02:01Z</time>
      </trkpt>
      <trkpt lat="45.97807" lon="5.59954">
        <ele>794.8</ele>
        <time>2026-05-13T07:02:02Z</time>
      </trkpt>
      <trkpt lat="45.97804" lon="5.59955">
        <ele>794.8</ele>
        <time>2026-05-13T07:02:03Z</time>
      </trkpt>
      <trkpt lat="45.97802" lon="5.59955">
        <ele>794.8</ele>
        <time>2026-05-13T07:02:04Z</time>
      </trkpt>
      <trkpt lat="45.97802" lon="5.59953">
        <ele>794.8</ele>
        <time>2026-05-13T07:02:05Z</time>
      </trkpt>
      <trkpt lat="45.978" lon="5.59952">
        <ele>794.8</ele>
        <time>2026-05-13T07:02:06Z</time>
      </trkpt>
      <trkpt lat="45.978" lon="5.5995">
        <ele>794.6</ele>
        <time>2026-05-13T07:02:07Z</time>
      </trkpt>
      <trkpt lat="45.97799" lon="5.59949">
        <ele>794.4</ele>
        <time>2026-05-13T07:02:08Z</time>
      </trkpt>
      <trkpt lat="45.97797" lon="5.59947">
        <ele>794.4</ele>
        <time>2026-05-13T07:02:09Z</time>
      </trkpt>
      <trkpt lat="45.97794" lon="5.59946">
        <ele>794.4</ele>
        <time>2026-05-13T07:02:10Z</time>
      </trkpt>
      <trkpt lat="45.97791" lon="5.59947">
        <ele>794.4</ele>
        <time>2026-05-13T07:02:11Z</time>
      </trkpt>
      <trkpt lat="45.97788" lon="5.59949">
        <ele>794.4</ele>
        <time>2026-05-13T07:02:12Z</time>
      </trkpt>
      <trkpt lat="45.97784" lon="5.59948">
        <ele>794.2</ele>
        <time>2026-05-13T07:02:13Z</time>
      </trkpt>
      <trkpt lat="45.97782" lon="5.59945">
        <ele>794.2</ele>
        <time>2026-05-13T07:02:14Z</time>
      </trkpt>
      <trkpt lat="45.9778" lon="5.59941">
        <ele>794.2</ele>
        <time>2026-05-13T07:02:15Z</time>
      </trkpt>
      <trkpt lat="45.97779" lon="5.59937">
        <ele>794.2</ele>
        <time>2026-05-13T07:02:16Z</time>
      </trkpt>
      <trkpt lat="45.97778" lon="5.59933">
        <ele>794.2</ele>
        <time>2026-05-13T07:02:17Z</time>
      </trkpt>
      <trkpt lat="45.97777" lon="5.59929">
        <ele>794.2</ele>
        <time>2026-05-13T07:02:18Z</time>
      </trkpt>
      <trkpt lat="45.97775" lon="5.59926">
        <ele>794.4</ele>
        <time>2026-05-13T07:02:19Z</time>
      </trkpt>
      <trkpt lat="45.97773" lon="5.59924">
        <ele>794.4</ele>
        <time>2026-05-13T07:02:20Z</time>
      </trkpt>
      <trkpt lat="45.9777" lon="5.59923">
        <ele>794.4</ele>
        <time>2026-05-13T07:02:21Z</time>
      </trkpt>
      <trkpt lat="45.97767" lon="5.59923">
        <ele>794.2</ele>
        <time>2026-05-13T07:02:22Z</time>
      </trkpt>
      <trkpt lat="45.97764" lon="5.59924">
        <ele>794.2</ele>
        <time>2026-05-13T07:02:23Z</time>
      </trkpt>
      <trkpt lat="45.97761" lon="5.59926">
        <ele>794.2</ele>
        <time>2026-05-13T07:02:24Z</time>
      </trkpt>
      <trkpt lat="45.97759" lon="5.59929">
        <ele>794.2</ele>
        <time>2026-05-13T07:02:25Z</time>
      </trkpt>
      <trkpt lat="45.97756" lon="5.59932">
        <ele>794</ele>
        <time>2026-05-13T07:02:26Z</time>
      </trkpt>
      <trkpt lat="45.97753" lon="5.59934">
        <ele>794</ele>
        <time>2026-05-13T07:02:27Z</time>
      </trkpt>
      <trkpt lat="45.97751" lon="5.59938">
        <ele>794</ele>
        <time>2026-05-13T07:02:28Z</time>
      </trkpt>
      <trkpt lat="45.97749" lon="5.59942">
        <ele>794</ele>
        <time>2026-05-13T07:02:29Z</time>
      </trkpt>
      <trkpt lat="45.97747" lon="5.59945">
        <ele>794</ele>
        <time>2026-05-13T07:02:30Z</time>
      </trkpt>
      <trkpt lat="45.97745" lon="5.59948">
        <ele>793.8</ele>
        <time>2026-05-13T07:02:31Z</time>
      </trkpt>
      <trkpt lat="45.97743" lon="5.59952">
        <ele>793.8</ele>
        <time>2026-05-13T07:02:32Z</time>
      </trkpt>
      <trkpt lat="45.97742" lon="5.59954">
        <ele>793.8</ele>
        <time>2026-05-13T07:02:33Z</time>
      </trkpt>
      <trkpt lat="45.9774" lon="5.59957">
        <ele>793.4</ele>
        <time>2026-05-13T07:02:34Z</time>
      </trkpt>
      <trkpt lat="45.97737" lon="5.59958">
        <ele>793.4</ele>
        <time>2026-05-13T07:02:35Z</time>
      </trkpt>
      <trkpt lat="45.97736" lon="5.59959">
        <ele>793.4</ele>
        <time>2026-05-13T07:02:36Z</time>
      </trkpt>
      <trkpt lat="45.97735" lon="5.5996">
        <ele>793.4</ele>
        <time>2026-05-13T07:02:37Z</time>
      </trkpt>
      <trkpt lat="45.97734" lon="5.5996">
        <ele>793.4</ele>
        <time>2026-05-13T07:02:38Z</time>
      </trkpt>
      <trkpt lat="45.97734" lon="5.5996">
        <ele>793.4</ele>
        <time>2026-05-13T07:02:39Z</time>
      </trkpt>
      <trkpt lat="45.97733" lon="5.5996">
        <ele>793.4</ele>
        <time>2026-05-13T07:02:40Z</time>
      </trkpt>
      <trkpt lat="45.97733" lon="5.5996">
        <ele>793.2</ele>
        <time>2026-05-13T07:02:41Z</time>
      </trkpt>
      <trkpt lat="45.97733" lon="5.5996">
        <ele>793.2</ele>
        <time>2026-05-13T07:02:42Z</time>
      </trkpt>
      <trkpt lat="45.97733" lon="5.5996">
        <ele>793.2</ele>
        <time>2026-05-13T07:02:43Z</time>
      </trkpt>
      <trkpt lat="45.97734" lon="5.59961">
        <ele>793.2</ele>
        <time>2026-05-13T07:02:44Z</time>
      </trkpt>
      <trkpt lat="45.97735" lon="5.59963">
        <ele>793.2</ele>
        <time>2026-05-13T07:02:45Z</time>
      </trkpt>
      <trkpt lat="45.97736" lon="5.59963">
        <ele>793.2</ele>
        <time>2026-05-13T07:02:46Z</time>
      </trkpt>
      <trkpt lat="45.97737" lon="5.59963">
        <ele>793.2</ele>
        <time>2026-05-13T07:02:47Z</time>
      </trkpt>
      <trkpt lat="45.97737" lon="5.59962">
        <ele>793.2</ele>
        <time>2026-05-13T07:02:48Z</time>
      </trkpt>
      <trkpt lat="45.97738" lon="5.59961">
        <ele>793.2</ele>
        <time>2026-05-13T07:02:49Z</time>
      </trkpt>
      <trkpt lat="45.97724" lon="5.59961">
        <ele>792.6</ele>
        <time>2026-05-13T07:40:50Z</time>
      </trkpt>
      <trkpt lat="45.97723" lon="5.59963">
        <ele>793</ele>
        <time>2026-05-13T07:40:51Z</time>
      </trkpt>
      <trkpt lat="45.97721" lon="5.59967">
        <ele>793</ele>
        <time>2026-05-13T07:40:52Z</time>
      </trkpt>
      <trkpt lat="45.97719" lon="5.5997">
        <ele>793.2</ele>
        <time>2026-05-13T07:40:53Z</time>
      </trkpt>
      <trkpt lat="45.97717" lon="5.59973">
        <ele>793.2</ele>
        <time>2026-05-13T07:40:54Z</time>
      </trkpt>
      <trkpt lat="45.97715" lon="5.59976">
        <ele>793.2</ele>
        <time>2026-05-13T07:40:55Z</time>
      </trkpt>
      <trkpt lat="45.97714" lon="5.59979">
        <ele>793.2</ele>
        <time>2026-05-13T07:40:56Z</time>
      </trkpt>
      <trkpt lat="45.97713" lon="5.59981">
        <ele>793.2</ele>
        <time>2026-05-13T07:40:57Z</time>
      </trkpt>
      <trkpt lat="45.97712" lon="5.59984">
        <ele>793.2</ele>
        <time>2026-05-13T07:40:58Z</time>
      </trkpt>
      <trkpt lat="45.9771" lon="5.59988">
        <ele>792.8</ele>
        <time>2026-05-13T07:40:59Z</time>
      </trkpt>
      <trkpt lat="45.97708" lon="5.59993">
        <ele>792.8</ele>
        <time>2026-05-13T07:41:00Z</time>
      </trkpt>
      <trkpt lat="45.97706" lon="5.59997">
        <ele>792.8</ele>
        <time>2026-05-13T07:41:01Z</time>
      </trkpt>
      <trkpt lat="45.97704" lon="5.60001">
        <ele>792.8</ele>
        <time>2026-05-13T07:41:02Z</time>
      </trkpt>
      <trkpt lat="45.97702" lon="5.60005">
        <ele>792.6</ele>
        <time>2026-05-13T07:41:03Z</time>
      </trkpt>
      <trkpt lat="45.977" lon="5.6001">
        <ele>792.6</ele>
        <time>2026-05-13T07:41:04Z</time>
      </trkpt>
      <trkpt lat="45.97698" lon="5.60014">
        <ele>792.6</ele>
        <time>2026-05-13T07:41:05Z</time>
      </trkpt>
      <trkpt lat="45.97696" lon="5.60018">
        <ele>792.6</ele>
        <time>2026-05-13T07:41:06Z</time>
      </trkpt>
      <trkpt lat="45.97693" lon="5.60021">
        <ele>792.6</ele>
        <time>2026-05-13T07:41:07Z</time>
      </trkpt>
      <trkpt lat="45.97691" lon="5.60024">
        <ele>792.6</ele>
        <time>2026-05-13T07:41:08Z</time>
      </trkpt>
      <trkpt lat="45.97688" lon="5.60027">
        <ele>792.6</ele>
        <time>2026-05-13T07:41:09Z</time>
      </trkpt>
      <trkpt lat="45.97684" lon="5.6003">
        <ele>792.8</ele>
        <time>2026-05-13T07:41:10Z</time>
      </trkpt>
      <trkpt lat="45.97681" lon="5.60031">
        <ele>792.8</ele>
        <time>2026-05-13T07:41:11Z</time>
      </trkpt>
      <trkpt lat="45.97678" lon="5.6003">
        <ele>792.4</ele>
        <time>2026-05-13T07:41:12Z</time>
      </trkpt>
      <trkpt lat="45.97675" lon="5.60029">
        <ele>792.2</ele>
        <time>2026-05-13T07:41:13Z</time>
      </trkpt>
      <trkpt lat="45.97673" lon="5.60019">
        <ele>792.2</ele>
        <time>2026-05-13T07:41:14Z</time>
      </trkpt>
      <trkpt lat="45.9767" lon="5.60015">
        <ele>792.2</ele>
        <time>2026-05-13T07:41:15Z</time>
      </trkpt>
      <trkpt lat="45.97667" lon="5.60012">
        <ele>792.2</ele>
        <time>2026-05-13T07:41:16Z</time>
      </trkpt>
      <trkpt lat="45.97664" lon="5.60007">
        <ele>792.2</ele>
        <time>2026-05-13T07:41:17Z</time>
      </trkpt>
      <trkpt lat="45.97661" lon="5.60003">
        <ele>791.8</ele>
        <time>2026-05-13T07:41:18Z</time>
      </trkpt>
      <trkpt lat="45.97659" lon="5.59997">
        <ele>791.8</ele>
        <time>2026-05-13T07:41:19Z</time>
      </trkpt>
      <trkpt lat="45.97656" lon="5.59992">
        <ele>791.8</ele>
        <time>2026-05-13T07:41:20Z</time>
      </trkpt>
      <trkpt lat="45.97654" lon="5.59989">
        <ele>791.8</ele>
        <time>2026-05-13T07:41:21Z</time>
      </trkpt>
      <trkpt lat="45.97651" lon="5.59984">
        <ele>791.8</ele>
        <time>2026-05-13T07:41:22Z</time>
      </trkpt>
      <trkpt lat="45.97649" lon="5.59979">
        <ele>791.8</ele>
        <time>2026-05-13T07:41:23Z</time>
      </trkpt>
      <trkpt lat="45.97646" lon="5.59975">
        <ele>791.8</ele>
        <time>2026-05-13T07:41:24Z</time>
      </trkpt>
      <trkpt lat="45.97644" lon="5.59971">
        <ele>791.8</ele>
        <time>2026-05-13T07:41:25Z</time>
      </trkpt>
      <trkpt lat="45.97642" lon="5.59967">
        <ele>791.8</ele>
        <time>2026-05-13T07:41:26Z</time>
      </trkpt>
      <trkpt lat="45.9764" lon="5.59963">
        <ele>791.8</ele>
        <time>2026-05-13T07:41:27Z</time>
      </trkpt>
      <trkpt lat="45.97638" lon="5.59958">
        <ele>791.8</ele>
        <time>2026-05-13T07:41:28Z</time>
      </trkpt>
      <trkpt lat="45.97635" lon="5.59955">
        <ele>791.6</ele>
        <time>2026-05-13T07:41:29Z</time>
      </trkpt>
      <trkpt lat="45.97633" lon="5.59951">
        <ele>791.6</ele>
        <time>2026-05-13T07:41:30Z</time>
      </trkpt>
      <trkpt lat="45.9763" lon="5.59947">
        <ele>791.4</ele>
        <time>2026-05-13T07:41:31Z</time>
      </trkpt>
      <trkpt lat="45.97628" lon="5.59943">
        <ele>791.4</ele>
        <time>2026-05-13T07:41:32Z</time>
      </trkpt>
      <trkpt lat="45.97624" lon="5.5994">
        <ele>791</ele>
        <time>2026-05-13T07:41:33Z</time>
      </trkpt>
      <trkpt lat="45.9762" lon="5.59937">
        <ele>791</ele>
        <time>2026-05-13T07:41:34Z</time>
      </trkpt>
      <trkpt lat="45.97615" lon="5.59933">
        <ele>791</ele>
        <time>2026-05-13T07:41:35Z</time>
      </trkpt>
      <trkpt lat="45.97613" lon="5.5993">
        <ele>791</ele>
        <time>2026-05-13T07:41:36Z</time>
      </trkpt>
      <trkpt lat="45.97607" lon="5.59927">
        <ele>790.8</ele>
        <time>2026-05-13T07:41:37Z</time>
      </trkpt>
      <trkpt lat="45.97605" lon="5.59925">
        <ele>790.4</ele>
        <time>2026-05-13T07:41:38Z</time>
      </trkpt>
      <trkpt lat="45.97601" lon="5.5992">
        <ele>790.4</ele>
        <time>2026-05-13T07:41:39Z</time>
      </trkpt>
      <trkpt lat="45.97597" lon="5.59918">
        <ele>790</ele>
        <time>2026-05-13T07:41:40Z</time>
      </trkpt>
      <trkpt lat="45.97593" lon="5.59914">
        <ele>789.8</ele>
        <time>2026-05-13T07:41:41Z</time>
      </trkpt>
      <trkpt lat="45.9759" lon="5.5991">
        <ele>789.8</ele>
        <time>2026-05-13T07:41:42Z</time>
      </trkpt>
      <trkpt lat="45.97581" lon="5.59903">
        <ele>789.4</ele>
        <time>2026-05-13T07:41:43Z</time>
      </trkpt>
      <trkpt lat="45.97577" lon="5.59899">
        <ele>789.4</ele>
        <time>2026-05-13T07:41:44Z</time>
      </trkpt>
      <trkpt lat="45.97573" lon="5.59895">
        <ele>789</ele>
        <time>2026-05-13T07:41:45Z</time>
      </trkpt>
      <trkpt lat="45.97568" lon="5.59891">
        <ele>789</ele>
        <time>2026-05-13T07:41:46Z</time>
      </trkpt>
      <trkpt lat="45.97563" lon="5.59887">
        <ele>788.8</ele>
        <time>2026-05-13T07:41:47Z</time>
      </trkpt>
      <trkpt lat="45.97559" lon="5.59883">
        <ele>788.4</ele>
        <time>2026-05-13T07:41:48Z</time>
      </trkpt>
      <trkpt lat="45.97554" lon="5.5988">
        <ele>788.4</ele>
        <time>2026-05-13T07:41:49Z</time>
      </trkpt>
      <trkpt lat="45.9755" lon="5.59875">
        <ele>788</ele>
        <time>2026-05-13T07:41:50Z</time>
      </trkpt>
      <trkpt lat="45.97546" lon="5.59872">
        <ele>787.4</ele>
        <time>2026-05-13T07:41:51Z</time>
      </trkpt>
      <trkpt lat="45.97541" lon="5.59866">
        <ele>787</ele>
        <time>2026-05-13T07:41:52Z</time>
      </trkpt>
      <trkpt lat="45.97537" lon="5.5986">
        <ele>786.4</ele>
        <time>2026-05-13T07:41:53Z</time>
      </trkpt>
      <trkpt lat="45.97534" lon="5.59853">
        <ele>786</ele>
        <time>2026-05-13T07:41:54Z</time>
      </trkpt>
      <trkpt lat="45.97531" lon="5.59846">
        <ele>785.4</ele>
        <time>2026-05-13T07:41:55Z</time>
      </trkpt>
      <trkpt lat="45.97528" lon="5.59837">
        <ele>784.8</ele>
        <time>2026-05-13T07:41:56Z</time>
      </trkpt>
      <trkpt lat="45.97526" lon="5.59829">
        <ele>783.8</ele>
        <time>2026-05-13T07:41:57Z</time>
      </trkpt>
      <trkpt lat="45.97523" lon="5.5982">
        <ele>783.2</ele>
        <time>2026-05-13T07:41:58Z</time>
      </trkpt>
      <trkpt lat="45.97522" lon="5.59811">
        <ele>782.6</ele>
        <time>2026-05-13T07:41:59Z</time>
      </trkpt>
      <trkpt lat="45.97519" lon="5.59802">
        <ele>781.8</ele>
        <time>2026-05-13T07:42:00Z</time>
      </trkpt>
      <trkpt lat="45.97516" lon="5.59792">
        <ele>781.4</ele>
        <time>2026-05-13T07:42:01Z</time>
      </trkpt>
      <trkpt lat="45.97515" lon="5.59783">
        <ele>780.4</ele>
        <time>2026-05-13T07:42:02Z</time>
      </trkpt>
      <trkpt lat="45.97512" lon="5.59773">
        <ele>780</ele>
        <time>2026-05-13T07:42:03Z</time>
      </trkpt>
      <trkpt lat="45.9751" lon="5.59763">
        <ele>779.6</ele>
        <time>2026-05-13T07:42:04Z</time>
      </trkpt>
      <trkpt lat="45.97508" lon="5.59753">
        <ele>778.8</ele>
        <time>2026-05-13T07:42:05Z</time>
      </trkpt>
      <trkpt lat="45.97507" lon="5.59742">
        <ele>778.2</ele>
        <time>2026-05-13T07:42:06Z</time>
      </trkpt>
      <trkpt lat="45.97504" lon="5.59732">
        <ele>777.8</ele>
        <time>2026-05-13T07:42:07Z</time>
      </trkpt>
      <trkpt lat="45.97502" lon="5.59722">
        <ele>777.6</ele>
        <time>2026-05-13T07:42:08Z</time>
      </trkpt>
      <trkpt lat="45.97499" lon="5.59712">
        <ele>777.4</ele>
        <time>2026-05-13T07:42:09Z</time>
      </trkpt>
      <trkpt lat="45.97497" lon="5.59702">
        <ele>777</ele>
        <time>2026-05-13T07:42:10Z</time>
      </trkpt>
      <trkpt lat="45.97495" lon="5.59692">
        <ele>776.6</ele>
        <time>2026-05-13T07:42:11Z</time>
      </trkpt>
      <trkpt lat="45.97493" lon="5.59682">
        <ele>776.6</ele>
        <time>2026-05-13T07:42:12Z</time>
      </trkpt>
      <trkpt lat="45.97491" lon="5.59672">
        <ele>776.6</ele>
        <time>2026-05-13T07:42:13Z</time>
      </trkpt>
      <trkpt lat="45.97489" lon="5.59664">
        <ele>776.4</ele>
        <time>2026-05-13T07:42:14Z</time>
      </trkpt>
      <trkpt lat="45.97487" lon="5.59656">
        <ele>776.4</ele>
        <time>2026-05-13T07:42:15Z</time>
      </trkpt>
      <trkpt lat="45.97485" lon="5.59651">
        <ele>776.4</ele>
        <time>2026-05-13T07:42:16Z</time>
      </trkpt>
      <trkpt lat="45.97482" lon="5.59648">
        <ele>776.4</ele>
        <time>2026-05-13T07:42:17Z</time>
      </trkpt>
      <trkpt lat="45.97479" lon="5.59645">
        <ele>776.4</ele>
        <time>2026-05-13T07:42:18Z</time>
      </trkpt>
      <trkpt lat="45.97477" lon="5.5964">
        <ele>776.4</ele>
        <time>2026-05-13T07:42:19Z</time>
      </trkpt>
      <trkpt lat="45.97475" lon="5.59636">
        <ele>776.6</ele>
        <time>2026-05-13T07:42:20Z</time>
      </trkpt>
      <trkpt lat="45.97474" lon="5.5963">
        <ele>776.6</ele>
        <time>2026-05-13T07:42:21Z</time>
      </trkpt>
      <trkpt lat="45.97473" lon="5.59622">
        <ele>776.6</ele>
        <time>2026-05-13T07:42:22Z</time>
      </trkpt>
      <trkpt lat="45.97472" lon="5.59615">
        <ele>776.6</ele>
        <time>2026-05-13T07:42:23Z</time>
      </trkpt>
      <trkpt lat="45.97471" lon="5.59608">
        <ele>776.6</ele>
        <time>2026-05-13T07:42:24Z</time>
      </trkpt>
      <trkpt lat="45.9747" lon="5.59602">
        <ele>776.6</ele>
        <time>2026-05-13T07:42:25Z</time>
      </trkpt>
      <trkpt lat="45.97469" lon="5.59595">
        <ele>776.6</ele>
        <time>2026-05-13T07:42:26Z</time>
      </trkpt>
      <trkpt lat="45.97466" lon="5.5959">
        <ele>776.6</ele>
        <time>2026-05-13T07:42:27Z</time>
      </trkpt>
      <trkpt lat="45.97462" lon="5.59587">
        <ele>776.4</ele>
        <time>2026-05-13T07:42:28Z</time>
      </trkpt>
      <trkpt lat="45.97458" lon="5.59587">
        <ele>776.2</ele>
        <time>2026-05-13T07:42:29Z</time>
      </trkpt>
      <trkpt lat="45.97453" lon="5.59586">
        <ele>776.2</ele>
        <time>2026-05-13T07:42:30Z</time>
      </trkpt>
      <trkpt lat="45.97448" lon="5.59585">
        <ele>775.8</ele>
        <time>2026-05-13T07:42:31Z</time>
      </trkpt>
      <trkpt lat="45.97443" lon="5.59584">
        <ele>775.6</ele>
        <time>2026-05-13T07:42:32Z</time>
      </trkpt>
      <trkpt lat="45.97437" lon="5.59584">
        <ele>775.6</ele>
        <time>2026-05-13T07:42:33Z</time>
      </trkpt>
      <trkpt lat="45.97431" lon="5.59583">
        <ele>775.6</ele>
        <time>2026-05-13T07:42:34Z</time>
      </trkpt>
      <trkpt lat="45.97427" lon="5.59583">
        <ele>775.6</ele>
        <time>2026-05-13T07:42:35Z</time>
      </trkpt>
      <trkpt lat="45.97422" lon="5.59582">
        <ele>775.6</ele>
        <time>2026-05-13T07:42:36Z</time>
      </trkpt>
      <trkpt lat="45.97416" lon="5.59582">
        <ele>776</ele>
        <time>2026-05-13T07:42:37Z</time>
      </trkpt>
      <trkpt lat="45.97412" lon="5.59582">
        <ele>776</ele>
        <time>2026-05-13T07:42:38Z</time>
      </trkpt>
      <trkpt lat="45.97406" lon="5.59583">
        <ele>776</ele>
        <time>2026-05-13T07:42:39Z</time>
      </trkpt>
      <trkpt lat="45.97401" lon="5.59583">
        <ele>776.4</ele>
        <time>2026-05-13T07:42:40Z</time>
      </trkpt>
      <trkpt lat="45.97396" lon="5.59584">
        <ele>776.6</ele>
        <time>2026-05-13T07:42:41Z</time>
      </trkpt>
      <trkpt lat="45.97392" lon="5.59584">
        <ele>776.6</ele>
        <time>2026-05-13T07:42:42Z</time>
      </trkpt>
      <trkpt lat="45.97387" lon="5.59583">
        <ele>776.6</ele>
        <time>2026-05-13T07:42:43Z</time>
      </trkpt>
      <trkpt lat="45.97383" lon="5.59582">
        <ele>776.6</ele>
        <time>2026-05-13T07:42:44Z</time>
      </trkpt>
      <trkpt lat="45.97378" lon="5.59582">
        <ele>776.6</ele>
        <time>2026-05-13T07:42:45Z</time>
      </trkpt>
      <trkpt lat="45.97373" lon="5.59581">
        <ele>776.4</ele>
        <time>2026-05-13T07:42:46Z</time>
      </trkpt>
      <trkpt lat="45.97368" lon="5.59581">
        <ele>776.4</ele>
        <time>2026-05-13T07:42:47Z</time>
      </trkpt>
      <trkpt lat="45.97363" lon="5.5958">
        <ele>776.4</ele>
        <time>2026-05-13T07:42:48Z</time>
      </trkpt>
      <trkpt lat="45.97358" lon="5.5958">
        <ele>776.2</ele>
        <time>2026-05-13T07:42:49Z</time>
      </trkpt>
      <trkpt lat="45.97352" lon="5.59579">
        <ele>776.2</ele>
        <time>2026-05-13T07:42:50Z</time>
      </trkpt>
      <trkpt lat="45.97347" lon="5.59579">
        <ele>776.2</ele>
        <time>2026-05-13T07:42:51Z</time>
      </trkpt>
      <trkpt lat="45.97342" lon="5.59579">
        <ele>776.2</ele>
        <time>2026-05-13T07:42:52Z</time>
      </trkpt>
      <trkpt lat="45.97337" lon="5.59578">
        <ele>776.2</ele>
        <time>2026-05-13T07:42:53Z</time>
      </trkpt>
      <trkpt lat="45.97331" lon="5.59578">
        <ele>776.2</ele>
        <time>2026-05-13T07:42:54Z</time>
      </trkpt>
      <trkpt lat="45.97326" lon="5.59577">
        <ele>776.2</ele>
        <time>2026-05-13T07:42:55Z</time>
      </trkpt>
      <trkpt lat="45.9732" lon="5.59577">
        <ele>776.2</ele>
        <time>2026-05-13T07:42:56Z</time>
      </trkpt>
      <trkpt lat="45.97315" lon="5.59576">
        <ele>776.2</ele>
        <time>2026-05-13T07:42:57Z</time>
      </trkpt>
      <trkpt lat="45.9731" lon="5.59576">
        <ele>776.2</ele>
        <time>2026-05-13T07:42:58Z</time>
      </trkpt>
      <trkpt lat="45.97305" lon="5.59575">
        <ele>775.8</ele>
        <time>2026-05-13T07:42:59Z</time>
      </trkpt>
      <trkpt lat="45.97299" lon="5.59574">
        <ele>775.6</ele>
        <time>2026-05-13T07:43:00Z</time>
      </trkpt>
      <trkpt lat="45.97294" lon="5.59573">
        <ele>775.4</ele>
        <time>2026-05-13T07:43:01Z</time>
      </trkpt>
      <trkpt lat="45.97288" lon="5.59572">
        <ele>775.4</ele>
        <time>2026-05-13T07:43:02Z</time>
      </trkpt>
      <trkpt lat="45.97283" lon="5.59571">
        <ele>775.2</ele>
        <time>2026-05-13T07:43:03Z</time>
      </trkpt>
      <trkpt lat="45.97278" lon="5.5957">
        <ele>775.2</ele>
        <time>2026-05-13T07:43:04Z</time>
      </trkpt>
      <trkpt lat="45.97273" lon="5.5957">
        <ele>775.2</ele>
        <time>2026-05-13T07:43:05Z</time>
      </trkpt>
      <trkpt lat="45.97267" lon="5.59569">
        <ele>774.8</ele>
        <time>2026-05-13T07:43:06Z</time>
      </trkpt>
      <trkpt lat="45.97262" lon="5.59568">
        <ele>775.2</ele>
        <time>2026-05-13T07:43:07Z</time>
      </trkpt>
      <trkpt lat="45.97257" lon="5.59568">
        <ele>775.2</ele>
        <time>2026-05-13T07:43:08Z</time>
      </trkpt>
      <trkpt lat="45.97252" lon="5.59567">
        <ele>775.2</ele>
        <time>2026-05-13T07:43:09Z</time>
      </trkpt>
      <trkpt lat="45.97247" lon="5.59566">
        <ele>774.8</ele>
        <time>2026-05-13T07:43:10Z</time>
      </trkpt>
      <trkpt lat="45.97242" lon="5.59565">
        <ele>774.8</ele>
        <time>2026-05-13T07:43:11Z</time>
      </trkpt>
      <trkpt lat="45.97237" lon="5.59564">
        <ele>774.8</ele>
        <time>2026-05-13T07:43:12Z</time>
      </trkpt>
      <trkpt lat="45.97232" lon="5.59564">
        <ele>774.8</ele>
        <time>2026-05-13T07:43:13Z</time>
      </trkpt>
      <trkpt lat="45.97227" lon="5.59563">
        <ele>774.8</ele>
        <time>2026-05-13T07:43:14Z</time>
      </trkpt>
      <trkpt lat="45.97222" lon="5.59563">
        <ele>774.8</ele>
        <time>2026-05-13T07:43:15Z</time>
      </trkpt>
      <trkpt lat="45.97217" lon="5.59562">
        <ele>774.8</ele>
        <time>2026-05-13T07:43:16Z</time>
      </trkpt>
      <trkpt lat="45.97211" lon="5.59561">
        <ele>774.6</ele>
        <time>2026-05-13T07:43:17Z</time>
      </trkpt>
      <trkpt lat="45.97206" lon="5.59561">
        <ele>774.6</ele>
        <time>2026-05-13T07:43:18Z</time>
      </trkpt>
      <trkpt lat="45.97201" lon="5.5956">
        <ele>774.6</ele>
        <time>2026-05-13T07:43:19Z</time>
      </trkpt>
      <trkpt lat="45.97197" lon="5.59558">
        <ele>774.2</ele>
        <time>2026-05-13T07:43:20Z</time>
      </trkpt>
      <trkpt lat="45.97192" lon="5.59558">
        <ele>774.2</ele>
        <time>2026-05-13T07:43:21Z</time>
      </trkpt>
      <trkpt lat="45.97186" lon="5.59557">
        <ele>774.2</ele>
        <time>2026-05-13T07:43:22Z</time>
      </trkpt>
      <trkpt lat="45.97181" lon="5.59556">
        <ele>774.2</ele>
        <time>2026-05-13T07:43:23Z</time>
      </trkpt>
      <trkpt lat="45.97176" lon="5.59555">
        <ele>774.6</ele>
        <time>2026-05-13T07:43:24Z</time>
      </trkpt>
      <trkpt lat="45.97171" lon="5.59555">
        <ele>774.4</ele>
        <time>2026-05-13T07:43:25Z</time>
      </trkpt>
      <trkpt lat="45.97167" lon="5.59554">
        <ele>774.4</ele>
        <time>2026-05-13T07:43:26Z</time>
      </trkpt>
      <trkpt lat="45.97162" lon="5.59553">
        <ele>774.4</ele>
        <time>2026-05-13T07:43:27Z</time>
      </trkpt>
      <trkpt lat="45.97157" lon="5.59552">
        <ele>774</ele>
        <time>2026-05-13T07:43:28Z</time>
      </trkpt>
      <trkpt lat="45.97152" lon="5.59552">
        <ele>774</ele>
        <time>2026-05-13T07:43:29Z</time>
      </trkpt>
      <trkpt lat="45.97147" lon="5.59551">
        <ele>774</ele>
        <time>2026-05-13T07:43:30Z</time>
      </trkpt>
      <trkpt lat="45.97142" lon="5.59549">
        <ele>774</ele>
        <time>2026-05-13T07:43:31Z</time>
      </trkpt>
      <trkpt lat="45.97137" lon="5.59548">
        <ele>773.6</ele>
        <time>2026-05-13T07:43:32Z</time>
      </trkpt>
      <trkpt lat="45.97132" lon="5.59548">
        <ele>773.6</ele>
        <time>2026-05-13T07:43:33Z</time>
      </trkpt>
      <trkpt lat="45.97127" lon="5.59547">
        <ele>773.6</ele>
        <time>2026-05-13T07:43:34Z</time>
      </trkpt>
      <trkpt lat="45.97122" lon="5.59547">
        <ele>773.6</ele>
        <time>2026-05-13T07:43:35Z</time>
      </trkpt>
      <trkpt lat="45.97117" lon="5.59546">
        <ele>773.6</ele>
        <time>2026-05-13T07:43:36Z</time>
      </trkpt>
      <trkpt lat="45.97112" lon="5.59545">
        <ele>773.6</ele>
        <time>2026-05-13T07:43:37Z</time>
      </trkpt>
      <trkpt lat="45.97106" lon="5.59544">
        <ele>773.4</ele>
        <time>2026-05-13T07:43:38Z</time>
      </trkpt>
      <trkpt lat="45.97101" lon="5.59544">
        <ele>773.4</ele>
        <time>2026-05-13T07:43:39Z</time>
      </trkpt>
      <trkpt lat="45.97096" lon="5.59543">
        <ele>773.4</ele>
        <time>2026-05-13T07:43:40Z</time>
      </trkpt>
      <trkpt lat="45.97091" lon="5.59543">
        <ele>773.4</ele>
        <time>2026-05-13T07:43:41Z</time>
      </trkpt>
      <trkpt lat="45.97087" lon="5.59542">
        <ele>773.4</ele>
        <time>2026-05-13T07:43:42Z</time>
      </trkpt>
      <trkpt lat="45.97082" lon="5.59542">
        <ele>773.4</ele>
        <time>2026-05-13T07:43:43Z</time>
      </trkpt>
      <trkpt lat="45.97077" lon="5.59542">
        <ele>773.4</ele>
        <time>2026-05-13T07:43:44Z</time>
      </trkpt>
      <trkpt lat="45.97072" lon="5.5954">
        <ele>773.4</ele>
        <time>2026-05-13T07:43:45Z</time>
      </trkpt>
      <trkpt lat="45.97066" lon="5.59539">
        <ele>773.4</ele>
        <time>2026-05-13T07:43:46Z</time>
      </trkpt>
      <trkpt lat="45.97061" lon="5.59538">
        <ele>773.4</ele>
        <time>2026-05-13T07:43:47Z</time>
      </trkpt>
      <trkpt lat="45.97056" lon="5.59537">
        <ele>773.4</ele>
        <time>2026-05-13T07:43:48Z</time>
      </trkpt>
      <trkpt lat="45.97051" lon="5.59534">
        <ele>773.6</ele>
        <time>2026-05-13T07:43:49Z</time>
      </trkpt>
      <trkpt lat="45.97046" lon="5.59532">
        <ele>773.6</ele>
        <time>2026-05-13T07:43:50Z</time>
      </trkpt>
      <trkpt lat="45.9704" lon="5.5953">
        <ele>773.6</ele>
        <time>2026-05-13T07:43:51Z</time>
      </trkpt>
      <trkpt lat="45.97035" lon="5.59527">
        <ele>773.4</ele>
        <time>2026-05-13T07:43:52Z</time>
      </trkpt>
      <trkpt lat="45.9703" lon="5.59525">
        <ele>773.4</ele>
        <time>2026-05-13T07:43:53Z</time>
      </trkpt>
      <trkpt lat="45.97023" lon="5.59523">
        <ele>773</ele>
        <time>2026-05-13T07:43:54Z</time>
      </trkpt>
      <trkpt lat="45.97019" lon="5.5952">
        <ele>772.8</ele>
        <time>2026-05-13T07:43:55Z</time>
      </trkpt>
      <trkpt lat="45.97014" lon="5.59517">
        <ele>772.4</ele>
        <time>2026-05-13T07:43:56Z</time>
      </trkpt>
      <trkpt lat="45.9701" lon="5.59515">
        <ele>772.4</ele>
        <time>2026-05-13T07:43:57Z</time>
      </trkpt>
      <trkpt lat="45.97005" lon="5.59513">
        <ele>772.2</ele>
        <time>2026-05-13T07:43:58Z</time>
      </trkpt>
      <trkpt lat="45.97" lon="5.5951">
        <ele>772.2</ele>
        <time>2026-05-13T07:43:59Z</time>
      </trkpt>
      <trkpt lat="45.96995" lon="5.59508">
        <ele>772.2</ele>
        <time>2026-05-13T07:44:00Z</time>
      </trkpt>
      <trkpt lat="45.9699" lon="5.59506">
        <ele>772.4</ele>
        <time>2026-05-13T07:44:01Z</time>
      </trkpt>
      <trkpt lat="45.96985" lon="5.59503">
        <ele>772.4</ele>
        <time>2026-05-13T07:44:02Z</time>
      </trkpt>
      <trkpt lat="45.9698" lon="5.59501">
        <ele>772.4</ele>
        <time>2026-05-13T07:44:03Z</time>
      </trkpt>
      <trkpt lat="45.9698" lon="5.59501">
        <ele>772.4</ele>
        <time>2026-05-13T07:44:04Z</time>
      </trkpt>
      <trkpt lat="45.96975" lon="5.59499">
        <ele>772</ele>
        <time>2026-05-13T07:44:05Z</time>
      </trkpt>
      <trkpt lat="45.9697" lon="5.59496">
        <ele>772</ele>
        <time>2026-05-13T07:44:06Z</time>
      </trkpt>
      <trkpt lat="45.96965" lon="5.59493">
        <ele>772</ele>
        <time>2026-05-13T07:44:07Z</time>
      </trkpt>
      <trkpt lat="45.9696" lon="5.59491">
        <ele>772</ele>
        <time>2026-05-13T07:44:08Z</time>
      </trkpt>
      <trkpt lat="45.96955" lon="5.59489">
        <ele>771.8</ele>
        <time>2026-05-13T07:44:09Z</time>
      </trkpt>
      <trkpt lat="45.9695" lon="5.59486">
        <ele>771.8</ele>
        <time>2026-05-13T07:44:10Z</time>
      </trkpt>
      <trkpt lat="45.96946" lon="5.59483">
        <ele>771.4</ele>
        <time>2026-05-13T07:44:11Z</time>
      </trkpt>
      <trkpt lat="45.96941" lon="5.59481">
        <ele>771.4</ele>
        <time>2026-05-13T07:44:12Z</time>
      </trkpt>
      <trkpt lat="45.96936" lon="5.59479">
        <ele>771.4</ele>
        <time>2026-05-13T07:44:13Z</time>
      </trkpt>
      <trkpt lat="45.96931" lon="5.59476">
        <ele>771.4</ele>
        <time>2026-05-13T07:44:14Z</time>
      </trkpt>
      <trkpt lat="45.96926" lon="5.59474">
        <ele>771.2</ele>
        <time>2026-05-13T07:44:15Z</time>
      </trkpt>
      <trkpt lat="45.96921" lon="5.59472">
        <ele>771.2</ele>
        <time>2026-05-13T07:44:16Z</time>
      </trkpt>
      <trkpt lat="45.96916" lon="5.59469">
        <ele>771.2</ele>
        <time>2026-05-13T07:44:17Z</time>
      </trkpt>
      <trkpt lat="45.96911" lon="5.59467">
        <ele>770.8</ele>
        <time>2026-05-13T07:44:18Z</time>
      </trkpt>
      <trkpt lat="45.96906" lon="5.59465">
        <ele>770.6</ele>
        <time>2026-05-13T07:44:19Z</time>
      </trkpt>
      <trkpt lat="45.969" lon="5.59463">
        <ele>770.6</ele>
        <time>2026-05-13T07:44:20Z</time>
      </trkpt>
      <trkpt lat="45.96896" lon="5.59461">
        <ele>770.6</ele>
        <time>2026-05-13T07:44:21Z</time>
      </trkpt>
      <trkpt lat="45.96891" lon="5.59458">
        <ele>770.6</ele>
        <time>2026-05-13T07:44:22Z</time>
      </trkpt>
      <trkpt lat="45.96887" lon="5.59456">
        <ele>770.6</ele>
        <time>2026-05-13T07:44:23Z</time>
      </trkpt>
      <trkpt lat="45.96881" lon="5.59455">
        <ele>770.8</ele>
        <time>2026-05-13T07:44:24Z</time>
      </trkpt>
      <trkpt lat="45.96877" lon="5.59453">
        <ele>770.8</ele>
        <time>2026-05-13T07:44:25Z</time>
      </trkpt>
      <trkpt lat="45.96872" lon="5.59452">
        <ele>771.4</ele>
        <time>2026-05-13T07:44:26Z</time>
      </trkpt>
      <trkpt lat="45.96868" lon="5.59451">
        <ele>771.4</ele>
        <time>2026-05-13T07:44:27Z</time>
      </trkpt>
      <trkpt lat="45.96863" lon="5.5945">
        <ele>771.6</ele>
        <time>2026-05-13T07:44:28Z</time>
      </trkpt>
      <trkpt lat="45.96858" lon="5.5945">
        <ele>771.6</ele>
        <time>2026-05-13T07:44:29Z</time>
      </trkpt>
      <trkpt lat="45.96854" lon="5.59448">
        <ele>771.6</ele>
        <time>2026-05-13T07:44:30Z</time>
      </trkpt>
      <trkpt lat="45.96849" lon="5.59446">
        <ele>771.4</ele>
        <time>2026-05-13T07:44:31Z</time>
      </trkpt>
      <trkpt lat="45.96844" lon="5.59445">
        <ele>771.4</ele>
        <time>2026-05-13T07:44:32Z</time>
      </trkpt>
      <trkpt lat="45.96839" lon="5.59443">
        <ele>771.2</ele>
        <time>2026-05-13T07:44:33Z</time>
      </trkpt>
      <trkpt lat="45.96834" lon="5.59442">
        <ele>771.6</ele>
        <time>2026-05-13T07:44:34Z</time>
      </trkpt>
      <trkpt lat="45.96829" lon="5.5944">
        <ele>771.6</ele>
        <time>2026-05-13T07:44:35Z</time>
      </trkpt>
      <trkpt lat="45.96825" lon="5.59438">
        <ele>771.6</ele>
        <time>2026-05-13T07:44:36Z</time>
      </trkpt>
      <trkpt lat="45.96821" lon="5.59436">
        <ele>771.8</ele>
        <time>2026-05-13T07:44:37Z</time>
      </trkpt>
      <trkpt lat="45.96816" lon="5.59433">
        <ele>771.8</ele>
        <time>2026-05-13T07:44:38Z</time>
      </trkpt>
      <trkpt lat="45.96811" lon="5.59433">
        <ele>772.2</ele>
        <time>2026-05-13T07:44:39Z</time>
      </trkpt>
      <trkpt lat="45.96808" lon="5.59431">
        <ele>772</ele>
        <time>2026-05-13T07:44:40Z</time>
      </trkpt>
      <trkpt lat="45.96803" lon="5.59429">
        <ele>772</ele>
        <time>2026-05-13T07:44:41Z</time>
      </trkpt>
      <trkpt lat="45.96798" lon="5.59427">
        <ele>771.8</ele>
        <time>2026-05-13T07:44:42Z</time>
      </trkpt>
      <trkpt lat="45.96793" lon="5.59426">
        <ele>771.6</ele>
        <time>2026-05-13T07:44:43Z</time>
      </trkpt>
      <trkpt lat="45.96788" lon="5.59424">
        <ele>771.6</ele>
        <time>2026-05-13T07:44:44Z</time>
      </trkpt>
      <trkpt lat="45.96784" lon="5.59423">
        <ele>771.6</ele>
        <time>2026-05-13T07:44:45Z</time>
      </trkpt>
      <trkpt lat="45.96779" lon="5.59421">
        <ele>771.4</ele>
        <time>2026-05-13T07:44:46Z</time>
      </trkpt>
      <trkpt lat="45.96774" lon="5.59419">
        <ele>771.6</ele>
        <time>2026-05-13T07:44:47Z</time>
      </trkpt>
      <trkpt lat="45.96769" lon="5.59418">
        <ele>771.6</ele>
        <time>2026-05-13T07:44:48Z</time>
      </trkpt>
      <trkpt lat="45.96765" lon="5.59418">
        <ele>771.6</ele>
        <time>2026-05-13T07:44:49Z</time>
      </trkpt>
      <trkpt lat="45.9676" lon="5.59417">
        <ele>771.6</ele>
        <time>2026-05-13T07:44:50Z</time>
      </trkpt>
      <trkpt lat="45.96755" lon="5.59417">
        <ele>771.6</ele>
        <time>2026-05-13T07:44:51Z</time>
      </trkpt>
      <trkpt lat="45.9675" lon="5.59416">
        <ele>771.2</ele>
        <time>2026-05-13T07:44:52Z</time>
      </trkpt>
      <trkpt lat="45.96745" lon="5.59416">
        <ele>771.2</ele>
        <time>2026-05-13T07:44:53Z</time>
      </trkpt>
      <trkpt lat="45.96741" lon="5.59416">
        <ele>771.2</ele>
        <time>2026-05-13T07:44:54Z</time>
      </trkpt>
      <trkpt lat="45.96736" lon="5.59416">
        <ele>771.2</ele>
        <time>2026-05-13T07:44:55Z</time>
      </trkpt>
      <trkpt lat="45.96731" lon="5.59415">
        <ele>771.2</ele>
        <time>2026-05-13T07:44:56Z</time>
      </trkpt>
      <trkpt lat="45.96727" lon="5.59416">
        <ele>771.2</ele>
        <time>2026-05-13T07:44:57Z</time>
      </trkpt>
      <trkpt lat="45.96721" lon="5.59417">
        <ele>771.6</ele>
        <time>2026-05-13T07:44:58Z</time>
      </trkpt>
      <trkpt lat="45.96716" lon="5.59418">
        <ele>771.6</ele>
        <time>2026-05-13T07:44:59Z</time>
      </trkpt>
      <trkpt lat="45.96711" lon="5.59418">
        <ele>771.6</ele>
        <time>2026-05-13T07:45:00Z</time>
      </trkpt>
      <trkpt lat="45.96706" lon="5.59417">
        <ele>771.6</ele>
        <time>2026-05-13T07:45:01Z</time>
      </trkpt>
      <trkpt lat="45.96701" lon="5.59417">
        <ele>771.6</ele>
        <time>2026-05-13T07:45:02Z</time>
      </trkpt>
      <trkpt lat="45.96696" lon="5.59417">
        <ele>771.8</ele>
        <time>2026-05-13T07:45:03Z</time>
      </trkpt>
      <trkpt lat="45.96691" lon="5.59416">
        <ele>771.8</ele>
        <time>2026-05-13T07:45:04Z</time>
      </trkpt>
      <trkpt lat="45.96686" lon="5.59417">
        <ele>772.2</ele>
        <time>2026-05-13T07:45:05Z</time>
      </trkpt>
      <trkpt lat="45.96682" lon="5.59418">
        <ele>772.2</ele>
        <time>2026-05-13T07:45:06Z</time>
      </trkpt>
      <trkpt lat="45.96677" lon="5.59417">
        <ele>772.2</ele>
        <time>2026-05-13T07:45:07Z</time>
      </trkpt>
      <trkpt lat="45.96673" lon="5.59417">
        <ele>771.8</ele>
        <time>2026-05-13T07:45:08Z</time>
      </trkpt>
      <trkpt lat="45.96668" lon="5.59417">
        <ele>772.2</ele>
        <time>2026-05-13T07:45:09Z</time>
      </trkpt>
      <trkpt lat="45.96663" lon="5.59416">
        <ele>771.8</ele>
        <time>2026-05-13T07:45:10Z</time>
      </trkpt>
      <trkpt lat="45.96658" lon="5.59415">
        <ele>772.2</ele>
        <time>2026-05-13T07:45:11Z</time>
      </trkpt>
      <trkpt lat="45.96653" lon="5.59414">
        <ele>772.2</ele>
        <time>2026-05-13T07:45:12Z</time>
      </trkpt>
      <trkpt lat="45.96649" lon="5.59413">
        <ele>772.4</ele>
        <time>2026-05-13T07:45:13Z</time>
      </trkpt>
      <trkpt lat="45.96644" lon="5.59411">
        <ele>772.4</ele>
        <time>2026-05-13T07:45:14Z</time>
      </trkpt>
      <trkpt lat="45.9664" lon="5.5941">
        <ele>772.8</ele>
        <time>2026-05-13T07:45:15Z</time>
      </trkpt>
      <trkpt lat="45.96634" lon="5.59409">
        <ele>772.8</ele>
        <time>2026-05-13T07:45:16Z</time>
      </trkpt>
      <trkpt lat="45.96629" lon="5.59408">
        <ele>772.8</ele>
        <time>2026-05-13T07:45:17Z</time>
      </trkpt>
      <trkpt lat="45.96625" lon="5.59407">
        <ele>772.8</ele>
        <time>2026-05-13T07:45:18Z</time>
      </trkpt>
      <trkpt lat="45.96621" lon="5.59405">
        <ele>773.2</ele>
        <time>2026-05-13T07:45:19Z</time>
      </trkpt>
      <trkpt lat="45.96612" lon="5.59404">
        <ele>773.2</ele>
        <time>2026-05-13T07:45:20Z</time>
      </trkpt>
      <trkpt lat="45.96608" lon="5.59403">
        <ele>773.2</ele>
        <time>2026-05-13T07:45:21Z</time>
      </trkpt>
      <trkpt lat="45.96604" lon="5.59403">
        <ele>773.8</ele>
        <time>2026-05-13T07:45:22Z</time>
      </trkpt>
      <trkpt lat="45.966" lon="5.59403">
        <ele>773.8</ele>
        <time>2026-05-13T07:45:23Z</time>
      </trkpt>
      <trkpt lat="45.96595" lon="5.59403">
        <ele>774.4</ele>
        <time>2026-05-13T07:45:24Z</time>
      </trkpt>
      <trkpt lat="45.96591" lon="5.59402">
        <ele>774.4</ele>
        <time>2026-05-13T07:45:25Z</time>
      </trkpt>
      <trkpt lat="45.96587" lon="5.594">
        <ele>774.4</ele>
        <time>2026-05-13T07:45:26Z</time>
      </trkpt>
      <trkpt lat="45.96582" lon="5.59399">
        <ele>774.4</ele>
        <time>2026-05-13T07:45:27Z</time>
      </trkpt>
      <trkpt lat="45.96577" lon="5.59397">
        <ele>774</ele>
        <time>2026-05-13T07:45:28Z</time>
      </trkpt>
      <trkpt lat="45.96572" lon="5.59395">
        <ele>774</ele>
        <time>2026-05-13T07:45:29Z</time>
      </trkpt>
      <trkpt lat="45.96568" lon="5.59392">
        <ele>774</ele>
        <time>2026-05-13T07:45:30Z</time>
      </trkpt>
      <trkpt lat="45.96562" lon="5.59391">
        <ele>773.6</ele>
        <time>2026-05-13T07:45:31Z</time>
      </trkpt>
      <trkpt lat="45.96556" lon="5.5939">
        <ele>773.6</ele>
        <time>2026-05-13T07:45:32Z</time>
      </trkpt>
      <trkpt lat="45.9655" lon="5.59389">
        <ele>773.2</ele>
        <time>2026-05-13T07:45:33Z</time>
      </trkpt>
      <trkpt lat="45.96545" lon="5.59388">
        <ele>772.8</ele>
        <time>2026-05-13T07:45:34Z</time>
      </trkpt>
      <trkpt lat="45.96539" lon="5.59388">
        <ele>772.6</ele>
        <time>2026-05-13T07:45:35Z</time>
      </trkpt>
      <trkpt lat="45.96533" lon="5.59387">
        <ele>772.4</ele>
        <time>2026-05-13T07:45:36Z</time>
      </trkpt>
      <trkpt lat="45.96527" lon="5.59387">
        <ele>772.4</ele>
        <time>2026-05-13T07:45:37Z</time>
      </trkpt>
      <trkpt lat="45.96522" lon="5.59386">
        <ele>772.4</ele>
        <time>2026-05-13T07:45:38Z</time>
      </trkpt>
      <trkpt lat="45.96515" lon="5.59385">
        <ele>772</ele>
        <time>2026-05-13T07:45:39Z</time>
      </trkpt>
      <trkpt lat="45.96509" lon="5.59386">
        <ele>772</ele>
        <time>2026-05-13T07:45:40Z</time>
      </trkpt>
      <trkpt lat="45.96503" lon="5.59386">
        <ele>772</ele>
        <time>2026-05-13T07:45:41Z</time>
      </trkpt>
      <trkpt lat="45.96497" lon="5.59386">
        <ele>771.8</ele>
        <time>2026-05-13T07:45:42Z</time>
      </trkpt>
      <trkpt lat="45.96491" lon="5.59387">
        <ele>771.8</ele>
        <time>2026-05-13T07:45:43Z</time>
      </trkpt>
      <trkpt lat="45.96485" lon="5.59388">
        <ele>771.6</ele>
        <time>2026-05-13T07:45:44Z</time>
      </trkpt>
      <trkpt lat="45.96478" lon="5.5939">
        <ele>771.6</ele>
        <time>2026-05-13T07:45:45Z</time>
      </trkpt>
      <trkpt lat="45.96472" lon="5.59391">
        <ele>771.4</ele>
        <time>2026-05-13T07:45:46Z</time>
      </trkpt>
      <trkpt lat="45.96466" lon="5.59392">
        <ele>771.4</ele>
        <time>2026-05-13T07:45:47Z</time>
      </trkpt>
      <trkpt lat="45.9646" lon="5.59394">
        <ele>771</ele>
        <time>2026-05-13T07:45:48Z</time>
      </trkpt>
      <trkpt lat="45.96453" lon="5.59395">
        <ele>771</ele>
        <time>2026-05-13T07:45:49Z</time>
      </trkpt>
      <trkpt lat="45.96447" lon="5.59396">
        <ele>770.8</ele>
        <time>2026-05-13T07:45:50Z</time>
      </trkpt>
      <trkpt lat="45.96441" lon="5.59398">
        <ele>770.8</ele>
        <time>2026-05-13T07:45:51Z</time>
      </trkpt>
      <trkpt lat="45.96435" lon="5.594">
        <ele>770.6</ele>
        <time>2026-05-13T07:45:52Z</time>
      </trkpt>
      <trkpt lat="45.96429" lon="5.59402">
        <ele>770.6</ele>
        <time>2026-05-13T07:45:53Z</time>
      </trkpt>
      <trkpt lat="45.96423" lon="5.59403">
        <ele>770.6</ele>
        <time>2026-05-13T07:45:54Z</time>
      </trkpt>
      <trkpt lat="45.96417" lon="5.59406">
        <ele>770.4</ele>
        <time>2026-05-13T07:45:55Z</time>
      </trkpt>
      <trkpt lat="45.96411" lon="5.59408">
        <ele>770.4</ele>
        <time>2026-05-13T07:45:56Z</time>
      </trkpt>
      <trkpt lat="45.96405" lon="5.59411">
        <ele>770.4</ele>
        <time>2026-05-13T07:45:57Z</time>
      </trkpt>
      <trkpt lat="45.96399" lon="5.59413">
        <ele>770</ele>
        <time>2026-05-13T07:45:58Z</time>
      </trkpt>
      <trkpt lat="45.96393" lon="5.59415">
        <ele>770</ele>
        <time>2026-05-13T07:45:59Z</time>
      </trkpt>
      <trkpt lat="45.96388" lon="5.59417">
        <ele>770</ele>
        <time>2026-05-13T07:46:00Z</time>
      </trkpt>
      <trkpt lat="45.96383" lon="5.5942">
        <ele>770</ele>
        <time>2026-05-13T07:46:01Z</time>
      </trkpt>
      <trkpt lat="45.96377" lon="5.59423">
        <ele>770</ele>
        <time>2026-05-13T07:46:02Z</time>
      </trkpt>
      <trkpt lat="45.96371" lon="5.59426">
        <ele>770</ele>
        <time>2026-05-13T07:46:03Z</time>
      </trkpt>
      <trkpt lat="45.96366" lon="5.59429">
        <ele>770</ele>
        <time>2026-05-13T07:46:04Z</time>
      </trkpt>
      <trkpt lat="45.96361" lon="5.59432">
        <ele>770</ele>
        <time>2026-05-13T07:46:05Z</time>
      </trkpt>
      <trkpt lat="45.96355" lon="5.59436">
        <ele>770.2</ele>
        <time>2026-05-13T07:46:06Z</time>
      </trkpt>
      <trkpt lat="45.9635" lon="5.59439">
        <ele>770.4</ele>
        <time>2026-05-13T07:46:07Z</time>
      </trkpt>
      <trkpt lat="45.96345" lon="5.59443">
        <ele>770.4</ele>
        <time>2026-05-13T07:46:08Z</time>
      </trkpt>
      <trkpt lat="45.9634" lon="5.59447">
        <ele>770.4</ele>
        <time>2026-05-13T07:46:09Z</time>
      </trkpt>
      <trkpt lat="45.96336" lon="5.59451">
        <ele>770.8</ele>
        <time>2026-05-13T07:46:10Z</time>
      </trkpt>
      <trkpt lat="45.96332" lon="5.59456">
        <ele>771</ele>
        <time>2026-05-13T07:46:11Z</time>
      </trkpt>
      <trkpt lat="45.96329" lon="5.59461">
        <ele>771.2</ele>
        <time>2026-05-13T07:46:12Z</time>
      </trkpt>
      <trkpt lat="45.96327" lon="5.59465">
        <ele>771.6</ele>
        <time>2026-05-13T07:46:13Z</time>
      </trkpt>
      <trkpt lat="45.96324" lon="5.59469">
        <ele>772</ele>
        <time>2026-05-13T07:46:14Z</time>
      </trkpt>
      <trkpt lat="45.96322" lon="5.59473">
        <ele>772.4</ele>
        <time>2026-05-13T07:46:15Z</time>
      </trkpt>
      <trkpt lat="45.9632" lon="5.59476">
        <ele>773</ele>
        <time>2026-05-13T07:46:16Z</time>
      </trkpt>
      <trkpt lat="45.96318" lon="5.59479">
        <ele>773.4</ele>
        <time>2026-05-13T07:46:17Z</time>
      </trkpt>
      <trkpt lat="45.96316" lon="5.59483">
        <ele>773.8</ele>
        <time>2026-05-13T07:46:18Z</time>
      </trkpt>
      <trkpt lat="45.96314" lon="5.59485">
        <ele>774.2</ele>
        <time>2026-05-13T07:46:19Z</time>
      </trkpt>
      <trkpt lat="45.96312" lon="5.59488">
        <ele>774.6</ele>
        <time>2026-05-13T07:46:20Z</time>
      </trkpt>
      <trkpt lat="45.9631" lon="5.59491">
        <ele>775</ele>
        <time>2026-05-13T07:46:21Z</time>
      </trkpt>
      <trkpt lat="45.96308" lon="5.59494">
        <ele>775.4</ele>
        <time>2026-05-13T07:46:22Z</time>
      </trkpt>
      <trkpt lat="45.96306" lon="5.59496">
        <ele>775.8</ele>
        <time>2026-05-13T07:46:23Z</time>
      </trkpt>
      <trkpt lat="45.96304" lon="5.59499">
        <ele>776.2</ele>
        <time>2026-05-13T07:46:24Z</time>
      </trkpt>
      <trkpt lat="45.96302" lon="5.59501">
        <ele>776.4</ele>
        <time>2026-05-13T07:46:25Z</time>
      </trkpt>
      <trkpt lat="45.963" lon="5.59504">
        <ele>776.6</ele>
        <time>2026-05-13T07:46:26Z</time>
      </trkpt>
      <trkpt lat="45.96298" lon="5.59506">
        <ele>776.8</ele>
        <time>2026-05-13T07:46:27Z</time>
      </trkpt>
      <trkpt lat="45.96297" lon="5.59508">
        <ele>776.8</ele>
        <time>2026-05-13T07:46:28Z</time>
      </trkpt>
      <trkpt lat="45.96295" lon="5.5951">
        <ele>777.4</ele>
        <time>2026-05-13T07:46:29Z</time>
      </trkpt>
      <trkpt lat="45.96293" lon="5.59513">
        <ele>777.6</ele>
        <time>2026-05-13T07:46:30Z</time>
      </trkpt>
      <trkpt lat="45.96292" lon="5.59515">
        <ele>777.6</ele>
        <time>2026-05-13T07:46:31Z</time>
      </trkpt>
      <trkpt lat="45.9629" lon="5.59517">
        <ele>778</ele>
        <time>2026-05-13T07:46:32Z</time>
      </trkpt>
      <trkpt lat="45.96287" lon="5.59519">
        <ele>778.2</ele>
        <time>2026-05-13T07:46:33Z</time>
      </trkpt>
      <trkpt lat="45.96285" lon="5.59521">
        <ele>778.6</ele>
        <time>2026-05-13T07:46:34Z</time>
      </trkpt>
      <trkpt lat="45.96284" lon="5.59522">
        <ele>778.6</ele>
        <time>2026-05-13T07:46:35Z</time>
      </trkpt>
      <trkpt lat="45.96281" lon="5.59524">
        <ele>778.8</ele>
        <time>2026-05-13T07:46:36Z</time>
      </trkpt>
      <trkpt lat="45.96279" lon="5.59526">
        <ele>778.8</ele>
        <time>2026-05-13T07:46:37Z</time>
      </trkpt>
      <trkpt lat="45.96277" lon="5.59528">
        <ele>779.2</ele>
        <time>2026-05-13T07:46:38Z</time>
      </trkpt>
      <trkpt lat="45.96274" lon="5.5953">
        <ele>779.4</ele>
        <time>2026-05-13T07:46:39Z</time>
      </trkpt>
      <trkpt lat="45.96272" lon="5.59532">
        <ele>779.4</ele>
        <time>2026-05-13T07:46:40Z</time>
      </trkpt>
      <trkpt lat="45.96269" lon="5.59534">
        <ele>779.8</ele>
        <time>2026-05-13T07:46:41Z</time>
      </trkpt>
      <trkpt lat="45.96266" lon="5.59536">
        <ele>779.8</ele>
        <time>2026-05-13T07:46:42Z</time>
      </trkpt>
      <trkpt lat="45.96264" lon="5.59538">
        <ele>779.8</ele>
        <time>2026-05-13T07:46:43Z</time>
      </trkpt>
      <trkpt lat="45.96261" lon="5.5954">
        <ele>780</ele>
        <time>2026-05-13T07:46:44Z</time>
      </trkpt>
      <trkpt lat="45.96257" lon="5.59541">
        <ele>780</ele>
        <time>2026-05-13T07:46:45Z</time>
      </trkpt>
      <trkpt lat="45.96254" lon="5.59543">
        <ele>780</ele>
        <time>2026-05-13T07:46:46Z</time>
      </trkpt>
      <trkpt lat="45.96252" lon="5.59545">
        <ele>780</ele>
        <time>2026-05-13T07:46:47Z</time>
      </trkpt>
      <trkpt lat="45.96249" lon="5.59547">
        <ele>780.2</ele>
        <time>2026-05-13T07:46:48Z</time>
      </trkpt>
      <trkpt lat="45.96246" lon="5.59548">
        <ele>780.2</ele>
        <time>2026-05-13T07:46:49Z</time>
      </trkpt>
      <trkpt lat="45.96243" lon="5.59549">
        <ele>780.6</ele>
        <time>2026-05-13T07:46:50Z</time>
      </trkpt>
      <trkpt lat="45.9624" lon="5.5955">
        <ele>780.8</ele>
        <time>2026-05-13T07:46:51Z</time>
      </trkpt>
      <trkpt lat="45.96237" lon="5.59552">
        <ele>780.8</ele>
        <time>2026-05-13T07:46:52Z</time>
      </trkpt>
      <trkpt lat="45.96234" lon="5.59553">
        <ele>781.2</ele>
        <time>2026-05-13T07:46:53Z</time>
      </trkpt>
      <trkpt lat="45.96231" lon="5.59554">
        <ele>781.2</ele>
        <time>2026-05-13T07:46:54Z</time>
      </trkpt>
      <trkpt lat="45.96227" lon="5.59555">
        <ele>781.2</ele>
        <time>2026-05-13T07:46:55Z</time>
      </trkpt>
      <trkpt lat="45.96224" lon="5.59556">
        <ele>781.2</ele>
        <time>2026-05-13T07:46:56Z</time>
      </trkpt>
      <trkpt lat="45.96221" lon="5.59557">
        <ele>781.2</ele>
        <time>2026-05-13T07:46:57Z</time>
      </trkpt>
      <trkpt lat="45.96217" lon="5.59558">
        <ele>781.4</ele>
        <time>2026-05-13T07:46:58Z</time>
      </trkpt>
      <trkpt lat="45.96214" lon="5.59559">
        <ele>781.4</ele>
        <time>2026-05-13T07:46:59Z</time>
      </trkpt>
      <trkpt lat="45.9621" lon="5.59559">
        <ele>781.4</ele>
        <time>2026-05-13T07:47:00Z</time>
      </trkpt>
      <trkpt lat="45.96206" lon="5.5956">
        <ele>781.4</ele>
        <time>2026-05-13T07:47:01Z</time>
      </trkpt>
      <trkpt lat="45.96202" lon="5.5956">
        <ele>781.4</ele>
        <time>2026-05-13T07:47:02Z</time>
      </trkpt>
      <trkpt lat="45.96199" lon="5.5956">
        <ele>781.4</ele>
        <time>2026-05-13T07:47:03Z</time>
      </trkpt>
      <trkpt lat="45.96194" lon="5.59561">
        <ele>781.2</ele>
        <time>2026-05-13T07:47:04Z</time>
      </trkpt>
      <trkpt lat="45.9619" lon="5.59561">
        <ele>781.2</ele>
        <time>2026-05-13T07:47:05Z</time>
      </trkpt>
      <trkpt lat="45.96186" lon="5.59561">
        <ele>781.2</ele>
        <time>2026-05-13T07:47:06Z</time>
      </trkpt>
      <trkpt lat="45.96182" lon="5.5956">
        <ele>781.2</ele>
        <time>2026-05-13T07:47:07Z</time>
      </trkpt>
      <trkpt lat="45.96177" lon="5.5956">
        <ele>781.2</ele>
        <time>2026-05-13T07:47:08Z</time>
      </trkpt>
      <trkpt lat="45.96173" lon="5.5956">
        <ele>781.2</ele>
        <time>2026-05-13T07:47:09Z</time>
      </trkpt>
      <trkpt lat="45.96169" lon="5.5956">
        <ele>781.2</ele>
        <time>2026-05-13T07:47:10Z</time>
      </trkpt>
      <trkpt lat="45.96164" lon="5.5956">
        <ele>781.2</ele>
        <time>2026-05-13T07:47:11Z</time>
      </trkpt>
      <trkpt lat="45.9616" lon="5.59559">
        <ele>781.2</ele>
        <time>2026-05-13T07:47:12Z</time>
      </trkpt>
      <trkpt lat="45.96156" lon="5.59558">
        <ele>781.2</ele>
        <time>2026-05-13T07:47:13Z</time>
      </trkpt>
      <trkpt lat="45.96152" lon="5.59558">
        <ele>781.2</ele>
        <time>2026-05-13T07:47:14Z</time>
      </trkpt>
      <trkpt lat="45.96147" lon="5.59557">
        <ele>781.2</ele>
        <time>2026-05-13T07:47:15Z</time>
      </trkpt>
      <trkpt lat="45.96143" lon="5.59556">
        <ele>781.2</ele>
        <time>2026-05-13T07:47:16Z</time>
      </trkpt>
      <trkpt lat="45.96138" lon="5.59554">
        <ele>781.2</ele>
        <time>2026-05-13T07:47:17Z</time>
      </trkpt>
      <trkpt lat="45.96134" lon="5.59553">
        <ele>781.2</ele>
        <time>2026-05-13T07:47:18Z</time>
      </trkpt>
      <trkpt lat="45.9613" lon="5.59552">
        <ele>780.8</ele>
        <time>2026-05-13T07:47:19Z</time>
      </trkpt>
      <trkpt lat="45.96125" lon="5.59551">
        <ele>780.8</ele>
        <time>2026-05-13T07:47:20Z</time>
      </trkpt>
      <trkpt lat="45.96121" lon="5.5955">
        <ele>780.8</ele>
        <time>2026-05-13T07:47:21Z</time>
      </trkpt>
      <trkpt lat="45.96117" lon="5.59549">
        <ele>780.8</ele>
        <time>2026-05-13T07:47:22Z</time>
      </trkpt>
      <trkpt lat="45.96113" lon="5.59548">
        <ele>780.8</ele>
        <time>2026-05-13T07:47:23Z</time>
      </trkpt>
      <trkpt lat="45.96113" lon="5.59548">
        <ele>780.8</ele>
        <time>2026-05-13T07:47:24Z</time>
      </trkpt>
      <trkpt lat="45.96109" lon="5.59547">
        <ele>780.8</ele>
        <time>2026-05-13T07:47:25Z</time>
      </trkpt>
      <trkpt lat="45.96104" lon="5.59546">
        <ele>780.8</ele>
        <time>2026-05-13T07:47:26Z</time>
      </trkpt>
      <trkpt lat="45.961" lon="5.59545">
        <ele>780.8</ele>
        <time>2026-05-13T07:47:27Z</time>
      </trkpt>
      <trkpt lat="45.96096" lon="5.59543">
        <ele>780.8</ele>
        <time>2026-05-13T07:47:28Z</time>
      </trkpt>
      <trkpt lat="45.96092" lon="5.59542">
        <ele>780.8</ele>
        <time>2026-05-13T07:47:29Z</time>
      </trkpt>
      <trkpt lat="45.96087" lon="5.59541">
        <ele>780.8</ele>
        <time>2026-05-13T07:47:30Z</time>
      </trkpt>
      <trkpt lat="45.96084" lon="5.5954">
        <ele>780.8</ele>
        <time>2026-05-13T07:47:31Z</time>
      </trkpt>
      <trkpt lat="45.96082" lon="5.59539">
        <ele>781</ele>
        <time>2026-05-13T07:47:32Z</time>
      </trkpt>
      <trkpt lat="45.96081" lon="5.59539">
        <ele>781</ele>
        <time>2026-05-13T07:47:33Z</time>
      </trkpt>
      <trkpt lat="45.96081" lon="5.59539">
        <ele>781.2</ele>
        <time>2026-05-13T07:47:34Z</time>
      </trkpt>
      <trkpt lat="45.96081" lon="5.59539">
        <ele>781.2</ele>
        <time>2026-05-13T07:47:35Z</time>
      </trkpt>
      <trkpt lat="45.96081" lon="5.59539">
        <ele>781.2</ele>
        <time>2026-05-13T07:47:36Z</time>
      </trkpt>
      <trkpt lat="45.96079" lon="5.59539">
        <ele>781.2</ele>
        <time>2026-05-13T07:47:37Z</time>
      </trkpt>
      <trkpt lat="45.96078" lon="5.59538">
        <ele>781.2</ele>
        <time>2026-05-13T07:47:38Z</time>
      </trkpt>
      <trkpt lat="45.96075" lon="5.59537">
        <ele>781.2</ele>
        <time>2026-05-13T07:47:39Z</time>
      </trkpt>
      <trkpt lat="45.96072" lon="5.59536">
        <ele>781.2</ele>
        <time>2026-05-13T07:47:40Z</time>
      </trkpt>
      <trkpt lat="45.96069" lon="5.59536">
        <ele>781.2</ele>
        <time>2026-05-13T07:47:41Z</time>
      </trkpt>
      <trkpt lat="45.96066" lon="5.59536">
        <ele>781.2</ele>
        <time>2026-05-13T07:47:42Z</time>
      </trkpt>
      <trkpt lat="45.96063" lon="5.59535">
        <ele>781.2</ele>
        <time>2026-05-13T07:47:43Z</time>
      </trkpt>
      <trkpt lat="45.96059" lon="5.59535">
        <ele>781</ele>
        <time>2026-05-13T07:47:44Z</time>
      </trkpt>
      <trkpt lat="45.96056" lon="5.59535">
        <ele>781</ele>
        <time>2026-05-13T07:47:45Z</time>
      </trkpt>
      <trkpt lat="45.96052" lon="5.59535">
        <ele>781</ele>
        <time>2026-05-13T07:47:46Z</time>
      </trkpt>
      <trkpt lat="45.96048" lon="5.59534">
        <ele>780.8</ele>
        <time>2026-05-13T07:47:47Z</time>
      </trkpt>
      <trkpt lat="45.96044" lon="5.59534">
        <ele>780.8</ele>
        <time>2026-05-13T07:47:48Z</time>
      </trkpt>
      <trkpt lat="45.9604" lon="5.59533">
        <ele>780.8</ele>
        <time>2026-05-13T07:47:49Z</time>
      </trkpt>
      <trkpt lat="45.96036" lon="5.59533">
        <ele>780.8</ele>
        <time>2026-05-13T07:47:50Z</time>
      </trkpt>
      <trkpt lat="45.96032" lon="5.59534">
        <ele>780.8</ele>
        <time>2026-05-13T07:47:51Z</time>
      </trkpt>
      <trkpt lat="45.96028" lon="5.59534">
        <ele>780.8</ele>
        <time>2026-05-13T07:47:52Z</time>
      </trkpt>
      <trkpt lat="45.96024" lon="5.59534">
        <ele>780.8</ele>
        <time>2026-05-13T07:47:53Z</time>
      </trkpt>
      <trkpt lat="45.96019" lon="5.59534">
        <ele>780.8</ele>
        <time>2026-05-13T07:47:54Z</time>
      </trkpt>
      <trkpt lat="45.96015" lon="5.59535">
        <ele>780.8</ele>
        <time>2026-05-13T07:47:55Z</time>
      </trkpt>
      <trkpt lat="45.96011" lon="5.59536">
        <ele>780.8</ele>
        <time>2026-05-13T07:47:56Z</time>
      </trkpt>
      <trkpt lat="45.96007" lon="5.59537">
        <ele>780.8</ele>
        <time>2026-05-13T07:47:57Z</time>
      </trkpt>
      <trkpt lat="45.96003" lon="5.59538">
        <ele>780.8</ele>
        <time>2026-05-13T07:47:58Z</time>
      </trkpt>
      <trkpt lat="45.95999" lon="5.5954">
        <ele>780.8</ele>
        <time>2026-05-13T07:47:59Z</time>
      </trkpt>
      <trkpt lat="45.95994" lon="5.59542">
        <ele>780.8</ele>
        <time>2026-05-13T07:48:00Z</time>
      </trkpt>
      <trkpt lat="45.9599" lon="5.59543">
        <ele>781.2</ele>
        <time>2026-05-13T07:48:01Z</time>
      </trkpt>
      <trkpt lat="45.95986" lon="5.59545">
        <ele>781.2</ele>
        <time>2026-05-13T07:48:02Z</time>
      </trkpt>
      <trkpt lat="45.95982" lon="5.59547">
        <ele>781.4</ele>
        <time>2026-05-13T07:48:03Z</time>
      </trkpt>
      <trkpt lat="45.95978" lon="5.59548">
        <ele>781.4</ele>
        <time>2026-05-13T07:48:04Z</time>
      </trkpt>
      <trkpt lat="45.95975" lon="5.5955">
        <ele>781.8</ele>
        <time>2026-05-13T07:48:05Z</time>
      </trkpt>
      <trkpt lat="45.95971" lon="5.59551">
        <ele>781.8</ele>
        <time>2026-05-13T07:48:06Z</time>
      </trkpt>
      <trkpt lat="45.95967" lon="5.59553">
        <ele>782</ele>
        <time>2026-05-13T07:48:07Z</time>
      </trkpt>
      <trkpt lat="45.95964" lon="5.59555">
        <ele>782</ele>
        <time>2026-05-13T07:48:08Z</time>
      </trkpt>
      <trkpt lat="45.95961" lon="5.59557">
        <ele>782.4</ele>
        <time>2026-05-13T07:48:09Z</time>
      </trkpt>
      <trkpt lat="45.95957" lon="5.59559">
        <ele>782.4</ele>
        <time>2026-05-13T07:48:10Z</time>
      </trkpt>
      <trkpt lat="45.95953" lon="5.59561">
        <ele>782.6</ele>
        <time>2026-05-13T07:48:11Z</time>
      </trkpt>
      <trkpt lat="45.95951" lon="5.59562">
        <ele>783</ele>
        <time>2026-05-13T07:48:12Z</time>
      </trkpt>
      <trkpt lat="45.95948" lon="5.59564">
        <ele>783</ele>
        <time>2026-05-13T07:48:13Z</time>
      </trkpt>
      <trkpt lat="45.95944" lon="5.59565">
        <ele>783.2</ele>
        <time>2026-05-13T07:48:14Z</time>
      </trkpt>
      <trkpt lat="45.95941" lon="5.59567">
        <ele>783.2</ele>
        <time>2026-05-13T07:48:15Z</time>
      </trkpt>
      <trkpt lat="45.95937" lon="5.59568">
        <ele>783.2</ele>
        <time>2026-05-13T07:48:16Z</time>
      </trkpt>
      <trkpt lat="45.95933" lon="5.5957">
        <ele>783.2</ele>
        <time>2026-05-13T07:48:17Z</time>
      </trkpt>
      <trkpt lat="45.9593" lon="5.59572">
        <ele>783.4</ele>
        <time>2026-05-13T07:48:18Z</time>
      </trkpt>
      <trkpt lat="45.95926" lon="5.59573">
        <ele>783.4</ele>
        <time>2026-05-13T07:48:19Z</time>
      </trkpt>
      <trkpt lat="45.95922" lon="5.59576">
        <ele>783.8</ele>
        <time>2026-05-13T07:48:20Z</time>
      </trkpt>
      <trkpt lat="45.95918" lon="5.59578">
        <ele>783.8</ele>
        <time>2026-05-13T07:48:21Z</time>
      </trkpt>
      <trkpt lat="45.95915" lon="5.59579">
        <ele>784</ele>
        <time>2026-05-13T07:48:22Z</time>
      </trkpt>
      <trkpt lat="45.95911" lon="5.59581">
        <ele>784</ele>
        <time>2026-05-13T07:48:23Z</time>
      </trkpt>
      <trkpt lat="45.95907" lon="5.59583">
        <ele>784.2</ele>
        <time>2026-05-13T07:48:24Z</time>
      </trkpt>
      <trkpt lat="45.95904" lon="5.59584">
        <ele>784.2</ele>
        <time>2026-05-13T07:48:25Z</time>
      </trkpt>
      <trkpt lat="45.959" lon="5.59586">
        <ele>784.2</ele>
        <time>2026-05-13T07:48:26Z</time>
      </trkpt>
      <trkpt lat="45.95896" lon="5.59589">
        <ele>784.6</ele>
        <time>2026-05-13T07:48:27Z</time>
      </trkpt>
      <trkpt lat="45.95893" lon="5.59591">
        <ele>784.6</ele>
        <time>2026-05-13T07:48:28Z</time>
      </trkpt>
      <trkpt lat="45.95889" lon="5.59593">
        <ele>784.8</ele>
        <time>2026-05-13T07:48:29Z</time>
      </trkpt>
      <trkpt lat="45.95886" lon="5.59595">
        <ele>784.8</ele>
        <time>2026-05-13T07:48:30Z</time>
      </trkpt>
      <trkpt lat="45.95883" lon="5.59598">
        <ele>785.2</ele>
        <time>2026-05-13T07:48:31Z</time>
      </trkpt>
      <trkpt lat="45.9588" lon="5.59601">
        <ele>785.2</ele>
        <time>2026-05-13T07:48:32Z</time>
      </trkpt>
      <trkpt lat="45.95878" lon="5.59604">
        <ele>785.4</ele>
        <time>2026-05-13T07:48:33Z</time>
      </trkpt>
      <trkpt lat="45.95873" lon="5.59611">
        <ele>785.4</ele>
        <time>2026-05-13T07:48:34Z</time>
      </trkpt>
      <trkpt lat="45.95871" lon="5.59614">
        <ele>785.8</ele>
        <time>2026-05-13T07:48:35Z</time>
      </trkpt>
      <trkpt lat="45.95869" lon="5.59617">
        <ele>785.8</ele>
        <time>2026-05-13T07:48:36Z</time>
      </trkpt>
      <trkpt lat="45.95867" lon="5.5962">
        <ele>786</ele>
        <time>2026-05-13T07:48:37Z</time>
      </trkpt>
      <trkpt lat="45.95865" lon="5.59623">
        <ele>786.4</ele>
        <time>2026-05-13T07:48:38Z</time>
      </trkpt>
      <trkpt lat="45.95863" lon="5.59626">
        <ele>786.4</ele>
        <time>2026-05-13T07:48:39Z</time>
      </trkpt>
      <trkpt lat="45.95861" lon="5.59629">
        <ele>786.8</ele>
        <time>2026-05-13T07:48:40Z</time>
      </trkpt>
      <trkpt lat="45.9586" lon="5.59633">
        <ele>786.8</ele>
        <time>2026-05-13T07:48:41Z</time>
      </trkpt>
      <trkpt lat="45.95858" lon="5.59636">
        <ele>787.4</ele>
        <time>2026-05-13T07:48:42Z</time>
      </trkpt>
      <trkpt lat="45.95857" lon="5.59639">
        <ele>787.6</ele>
        <time>2026-05-13T07:48:43Z</time>
      </trkpt>
      <trkpt lat="45.95855" lon="5.59643">
        <ele>787.6</ele>
        <time>2026-05-13T07:48:44Z</time>
      </trkpt>
      <trkpt lat="45.95853" lon="5.59646">
        <ele>787.8</ele>
        <time>2026-05-13T07:48:45Z</time>
      </trkpt>
      <trkpt lat="45.95852" lon="5.5965">
        <ele>787.8</ele>
        <time>2026-05-13T07:48:46Z</time>
      </trkpt>
      <trkpt lat="45.9585" lon="5.59654">
        <ele>788.2</ele>
        <time>2026-05-13T07:48:47Z</time>
      </trkpt>
      <trkpt lat="45.95849" lon="5.59657">
        <ele>788.2</ele>
        <time>2026-05-13T07:48:48Z</time>
      </trkpt>
      <trkpt lat="45.95847" lon="5.5966">
        <ele>788.4</ele>
        <time>2026-05-13T07:48:49Z</time>
      </trkpt>
      <trkpt lat="45.95847" lon="5.5966">
        <ele>788.4</ele>
        <time>2026-05-13T07:48:50Z</time>
      </trkpt>
      <trkpt lat="45.95847" lon="5.5966">
        <ele>788.4</ele>
        <time>2026-05-13T07:48:51Z</time>
      </trkpt>
      <trkpt lat="45.95839" lon="5.59674">
        <ele>788.6</ele>
        <time>2026-05-13T07:48:54Z</time>
      </trkpt>
      <trkpt lat="45.95837" lon="5.59677">
        <ele>788.6</ele>
        <time>2026-05-13T07:48:55Z</time>
      </trkpt>
      <trkpt lat="45.95835" lon="5.59681">
        <ele>788.8</ele>
        <time>2026-05-13T07:48:56Z</time>
      </trkpt>
      <trkpt lat="45.95833" lon="5.59684">
        <ele>789</ele>
        <time>2026-05-13T07:48:57Z</time>
      </trkpt>
      <trkpt lat="45.95831" lon="5.59688">
        <ele>789</ele>
        <time>2026-05-13T07:48:58Z</time>
      </trkpt>
      <trkpt lat="45.95829" lon="5.59691">
        <ele>789</ele>
        <time>2026-05-13T07:48:59Z</time>
      </trkpt>
      <trkpt lat="45.95827" lon="5.59694">
        <ele>789</ele>
        <time>2026-05-13T07:49:00Z</time>
      </trkpt>
      <trkpt lat="45.95825" lon="5.59697">
        <ele>789.2</ele>
        <time>2026-05-13T07:49:01Z</time>
      </trkpt>
      <trkpt lat="45.95823" lon="5.59701">
        <ele>789.2</ele>
        <time>2026-05-13T07:49:02Z</time>
      </trkpt>
      <trkpt lat="45.95821" lon="5.59705">
        <ele>789.6</ele>
        <time>2026-05-13T07:49:03Z</time>
      </trkpt>
      <trkpt lat="45.95819" lon="5.59708">
        <ele>789.6</ele>
        <time>2026-05-13T07:49:04Z</time>
      </trkpt>
      <trkpt lat="45.95818" lon="5.59712">
        <ele>789.8</ele>
        <time>2026-05-13T07:49:05Z</time>
      </trkpt>
      <trkpt lat="45.95816" lon="5.59715">
        <ele>789.8</ele>
        <time>2026-05-13T07:49:06Z</time>
      </trkpt>
      <trkpt lat="45.95814" lon="5.59719">
        <ele>790</ele>
        <time>2026-05-13T07:49:07Z</time>
      </trkpt>
      <trkpt lat="45.95812" lon="5.59721">
        <ele>790</ele>
        <time>2026-05-13T07:49:08Z</time>
      </trkpt>
      <trkpt lat="45.95811" lon="5.59724">
        <ele>790</ele>
        <time>2026-05-13T07:49:09Z</time>
      </trkpt>
      <trkpt lat="45.95809" lon="5.59728">
        <ele>790.4</ele>
        <time>2026-05-13T07:49:10Z</time>
      </trkpt>
      <trkpt lat="45.95807" lon="5.59731">
        <ele>790.4</ele>
        <time>2026-05-13T07:49:11Z</time>
      </trkpt>
      <trkpt lat="45.95805" lon="5.59734">
        <ele>790.8</ele>
        <time>2026-05-13T07:49:12Z</time>
      </trkpt>
      <trkpt lat="45.95804" lon="5.59737">
        <ele>791</ele>
        <time>2026-05-13T07:49:13Z</time>
      </trkpt>
      <trkpt lat="45.95802" lon="5.59741">
        <ele>791</ele>
        <time>2026-05-13T07:49:14Z</time>
      </trkpt>
      <trkpt lat="45.95801" lon="5.59745">
        <ele>791.4</ele>
        <time>2026-05-13T07:49:15Z</time>
      </trkpt>
      <trkpt lat="45.95799" lon="5.59751">
        <ele>791.4</ele>
        <time>2026-05-13T07:49:16Z</time>
      </trkpt>
      <trkpt lat="45.95797" lon="5.59755">
        <ele>791.4</ele>
        <time>2026-05-13T07:49:17Z</time>
      </trkpt>
      <trkpt lat="45.95796" lon="5.59759">
        <ele>791.6</ele>
        <time>2026-05-13T07:49:18Z</time>
      </trkpt>
      <trkpt lat="45.95795" lon="5.59763">
        <ele>792</ele>
        <time>2026-05-13T07:49:19Z</time>
      </trkpt>
      <trkpt lat="45.95794" lon="5.59767">
        <ele>792</ele>
        <time>2026-05-13T07:49:20Z</time>
      </trkpt>
      <trkpt lat="45.95793" lon="5.59771">
        <ele>792</ele>
        <time>2026-05-13T07:49:21Z</time>
      </trkpt>
      <trkpt lat="45.95792" lon="5.59775">
        <ele>792.2</ele>
        <time>2026-05-13T07:49:22Z</time>
      </trkpt>
      <trkpt lat="45.95792" lon="5.59779">
        <ele>792.2</ele>
        <time>2026-05-13T07:49:23Z</time>
      </trkpt>
      <trkpt lat="45.95792" lon="5.59784">
        <ele>792.2</ele>
        <time>2026-05-13T07:49:24Z</time>
      </trkpt>
      <trkpt lat="45.95792" lon="5.59789">
        <ele>792.6</ele>
        <time>2026-05-13T07:49:25Z</time>
      </trkpt>
      <trkpt lat="45.95792" lon="5.59794">
        <ele>792.6</ele>
        <time>2026-05-13T07:49:26Z</time>
      </trkpt>
      <trkpt lat="45.95792" lon="5.59799">
        <ele>792.6</ele>
        <time>2026-05-13T07:49:27Z</time>
      </trkpt>
      <trkpt lat="45.95792" lon="5.59805">
        <ele>792.6</ele>
        <time>2026-05-13T07:49:28Z</time>
      </trkpt>
      <trkpt lat="45.95791" lon="5.5981">
        <ele>792.6</ele>
        <time>2026-05-13T07:49:29Z</time>
      </trkpt>
      <trkpt lat="45.9579" lon="5.59815">
        <ele>792.6</ele>
        <time>2026-05-13T07:49:30Z</time>
      </trkpt>
      <trkpt lat="45.95787" lon="5.5982">
        <ele>792.6</ele>
        <time>2026-05-13T07:49:31Z</time>
      </trkpt>
      <trkpt lat="45.95784" lon="5.59824">
        <ele>792.6</ele>
        <time>2026-05-13T07:49:32Z</time>
      </trkpt>
      <trkpt lat="45.9578" lon="5.59826">
        <ele>792.6</ele>
        <time>2026-05-13T07:49:33Z</time>
      </trkpt>
      <trkpt lat="45.95776" lon="5.59826">
        <ele>792.6</ele>
        <time>2026-05-13T07:49:34Z</time>
      </trkpt>
      <trkpt lat="45.95772" lon="5.59826">
        <ele>792.6</ele>
        <time>2026-05-13T07:49:35Z</time>
      </trkpt>
      <trkpt lat="45.95768" lon="5.59827">
        <ele>792.6</ele>
        <time>2026-05-13T07:49:36Z</time>
      </trkpt>
      <trkpt lat="45.95765" lon="5.59827">
        <ele>792.6</ele>
        <time>2026-05-13T07:49:37Z</time>
      </trkpt>
      <trkpt lat="45.95761" lon="5.59827">
        <ele>792.6</ele>
        <time>2026-05-13T07:49:38Z</time>
      </trkpt>
      <trkpt lat="45.95757" lon="5.59827">
        <ele>792.6</ele>
        <time>2026-05-13T07:49:39Z</time>
      </trkpt>
      <trkpt lat="45.95753" lon="5.59827">
        <ele>792.6</ele>
        <time>2026-05-13T07:49:40Z</time>
      </trkpt>
      <trkpt lat="45.95748" lon="5.59829">
        <ele>792.6</ele>
        <time>2026-05-13T07:49:41Z</time>
      </trkpt>
      <trkpt lat="45.95743" lon="5.59833">
        <ele>792.2</ele>
        <time>2026-05-13T07:49:42Z</time>
      </trkpt>
      <trkpt lat="45.95738" lon="5.59836">
        <ele>792</ele>
        <time>2026-05-13T07:49:43Z</time>
      </trkpt>
      <trkpt lat="45.95733" lon="5.59838">
        <ele>791.6</ele>
        <time>2026-05-13T07:49:44Z</time>
      </trkpt>
      <trkpt lat="45.95727" lon="5.59844">
        <ele>791</ele>
        <time>2026-05-13T07:49:45Z</time>
      </trkpt>
      <trkpt lat="45.95721" lon="5.59848">
        <ele>790.6</ele>
        <time>2026-05-13T07:49:46Z</time>
      </trkpt>
      <trkpt lat="45.95714" lon="5.59853">
        <ele>790</ele>
        <time>2026-05-13T07:49:47Z</time>
      </trkpt>
      <trkpt lat="45.95708" lon="5.59857">
        <ele>789.4</ele>
        <time>2026-05-13T07:49:48Z</time>
      </trkpt>
      <trkpt lat="45.95701" lon="5.59861">
        <ele>788.6</ele>
        <time>2026-05-13T07:49:49Z</time>
      </trkpt>
      <trkpt lat="45.95693" lon="5.59865">
        <ele>787.8</ele>
        <time>2026-05-13T07:49:50Z</time>
      </trkpt>
      <trkpt lat="45.95686" lon="5.59869">
        <ele>787.6</ele>
        <time>2026-05-13T07:49:51Z</time>
      </trkpt>
      <trkpt lat="45.95679" lon="5.59872">
        <ele>786.8</ele>
        <time>2026-05-13T07:49:52Z</time>
      </trkpt>
      <trkpt lat="45.95672" lon="5.59875">
        <ele>786.6</ele>
        <time>2026-05-13T07:49:53Z</time>
      </trkpt>
      <trkpt lat="45.95663" lon="5.59879">
        <ele>786.6</ele>
        <time>2026-05-13T07:49:54Z</time>
      </trkpt>
      <trkpt lat="45.95657" lon="5.59881">
        <ele>786.6</ele>
        <time>2026-05-13T07:49:55Z</time>
      </trkpt>
      <trkpt lat="45.9565" lon="5.59885">
        <ele>786.6</ele>
        <time>2026-05-13T07:49:56Z</time>
      </trkpt>
      <trkpt lat="45.95644" lon="5.59888">
        <ele>786.6</ele>
        <time>2026-05-13T07:49:57Z</time>
      </trkpt>
      <trkpt lat="45.95637" lon="5.59892">
        <ele>786.4</ele>
        <time>2026-05-13T07:49:58Z</time>
      </trkpt>
      <trkpt lat="45.95631" lon="5.59897">
        <ele>786</ele>
        <time>2026-05-13T07:49:59Z</time>
      </trkpt>
      <trkpt lat="45.95625" lon="5.59903">
        <ele>786</ele>
        <time>2026-05-13T07:50:00Z</time>
      </trkpt>
      <trkpt lat="45.9562" lon="5.59909">
        <ele>786</ele>
        <time>2026-05-13T07:50:01Z</time>
      </trkpt>
      <trkpt lat="45.95615" lon="5.59915">
        <ele>786</ele>
        <time>2026-05-13T07:50:02Z</time>
      </trkpt>
      <trkpt lat="45.9561" lon="5.59922">
        <ele>786.2</ele>
        <time>2026-05-13T07:50:03Z</time>
      </trkpt>
      <trkpt lat="45.95606" lon="5.5993">
        <ele>786.2</ele>
        <time>2026-05-13T07:50:04Z</time>
      </trkpt>
      <trkpt lat="45.95602" lon="5.59938">
        <ele>786</ele>
        <time>2026-05-13T07:50:05Z</time>
      </trkpt>
      <trkpt lat="45.95598" lon="5.59946">
        <ele>785.8</ele>
        <time>2026-05-13T07:50:06Z</time>
      </trkpt>
      <trkpt lat="45.95595" lon="5.59954">
        <ele>785.8</ele>
        <time>2026-05-13T07:50:07Z</time>
      </trkpt>
      <trkpt lat="45.95591" lon="5.59963">
        <ele>785.4</ele>
        <time>2026-05-13T07:50:08Z</time>
      </trkpt>
      <trkpt lat="45.95588" lon="5.59971">
        <ele>785.2</ele>
        <time>2026-05-13T07:50:09Z</time>
      </trkpt>
      <trkpt lat="45.95585" lon="5.5998">
        <ele>785</ele>
        <time>2026-05-13T07:50:10Z</time>
      </trkpt>
      <trkpt lat="45.95582" lon="5.59989">
        <ele>784.6</ele>
        <time>2026-05-13T07:50:11Z</time>
      </trkpt>
      <trkpt lat="45.95578" lon="5.59997">
        <ele>784.6</ele>
        <time>2026-05-13T07:50:12Z</time>
      </trkpt>
      <trkpt lat="45.95575" lon="5.60006">
        <ele>784.4</ele>
        <time>2026-05-13T07:50:13Z</time>
      </trkpt>
      <trkpt lat="45.95571" lon="5.60015">
        <ele>784.2</ele>
        <time>2026-05-13T07:50:14Z</time>
      </trkpt>
      <trkpt lat="45.95571" lon="5.60015">
        <ele>783.6</ele>
        <time>2026-05-13T07:50:15Z</time>
      </trkpt>
      <trkpt lat="45.95566" lon="5.60025">
        <ele>783.4</ele>
        <time>2026-05-13T07:50:16Z</time>
      </trkpt>
      <trkpt lat="45.95561" lon="5.60032">
        <ele>783.4</ele>
        <time>2026-05-13T07:50:17Z</time>
      </trkpt>
      <trkpt lat="45.95555" lon="5.60038">
        <ele>783</ele>
        <time>2026-05-13T07:50:18Z</time>
      </trkpt>
      <trkpt lat="45.95548" lon="5.60044">
        <ele>782.4</ele>
        <time>2026-05-13T07:50:19Z</time>
      </trkpt>
      <trkpt lat="45.9554" lon="5.60047">
        <ele>782</ele>
        <time>2026-05-13T07:50:20Z</time>
      </trkpt>
      <trkpt lat="45.95531" lon="5.60049">
        <ele>781</ele>
        <time>2026-05-13T07:50:21Z</time>
      </trkpt>
      <trkpt lat="45.95522" lon="5.6005">
        <ele>780.4</ele>
        <time>2026-05-13T07:50:22Z</time>
      </trkpt>
      <trkpt lat="45.95514" lon="5.60052">
        <ele>779.8</ele>
        <time>2026-05-13T07:50:23Z</time>
      </trkpt>
      <trkpt lat="45.95505" lon="5.60053">
        <ele>779.4</ele>
        <time>2026-05-13T07:50:24Z</time>
      </trkpt>
      <trkpt lat="45.95496" lon="5.60054">
        <ele>778.4</ele>
        <time>2026-05-13T07:50:25Z</time>
      </trkpt>
      <trkpt lat="45.95488" lon="5.60055">
        <ele>778.4</ele>
        <time>2026-05-13T07:50:26Z</time>
      </trkpt>
      <trkpt lat="45.95478" lon="5.60055">
        <ele>777.8</ele>
        <time>2026-05-13T07:50:27Z</time>
      </trkpt>
      <trkpt lat="45.9547" lon="5.60057">
        <ele>777.2</ele>
        <time>2026-05-13T07:50:28Z</time>
      </trkpt>
      <trkpt lat="45.95462" lon="5.60059">
        <ele>777</ele>
        <time>2026-05-13T07:50:29Z</time>
      </trkpt>
      <trkpt lat="45.95455" lon="5.60062">
        <ele>776.4</ele>
        <time>2026-05-13T07:50:30Z</time>
      </trkpt>
      <trkpt lat="45.95448" lon="5.60069">
        <ele>775.8</ele>
        <time>2026-05-13T07:50:31Z</time>
      </trkpt>
      <trkpt lat="45.95442" lon="5.60074">
        <ele>775.2</ele>
        <time>2026-05-13T07:50:32Z</time>
      </trkpt>
      <trkpt lat="45.95434" lon="5.60081">
        <ele>774.8</ele>
        <time>2026-05-13T07:50:33Z</time>
      </trkpt>
      <trkpt lat="45.95427" lon="5.60085">
        <ele>774.4</ele>
        <time>2026-05-13T07:50:34Z</time>
      </trkpt>
      <trkpt lat="45.95419" lon="5.60091">
        <ele>773.8</ele>
        <time>2026-05-13T07:50:35Z</time>
      </trkpt>
      <trkpt lat="45.95411" lon="5.60096">
        <ele>773.8</ele>
        <time>2026-05-13T07:50:36Z</time>
      </trkpt>
      <trkpt lat="45.95403" lon="5.60099">
        <ele>773.6</ele>
        <time>2026-05-13T07:50:37Z</time>
      </trkpt>
      <trkpt lat="45.95395" lon="5.60101">
        <ele>773.2</ele>
        <time>2026-05-13T07:50:38Z</time>
      </trkpt>
      <trkpt lat="45.95387" lon="5.60102">
        <ele>773.2</ele>
        <time>2026-05-13T07:50:39Z</time>
      </trkpt>
      <trkpt lat="45.95378" lon="5.60103">
        <ele>773.2</ele>
        <time>2026-05-13T07:50:40Z</time>
      </trkpt>
      <trkpt lat="45.95369" lon="5.60101">
        <ele>773.2</ele>
        <time>2026-05-13T07:50:41Z</time>
      </trkpt>
      <trkpt lat="45.95361" lon="5.601">
        <ele>772.6</ele>
        <time>2026-05-13T07:50:42Z</time>
      </trkpt>
      <trkpt lat="45.95353" lon="5.60098">
        <ele>772.2</ele>
        <time>2026-05-13T07:50:43Z</time>
      </trkpt>
      <trkpt lat="45.95345" lon="5.60096">
        <ele>772</ele>
        <time>2026-05-13T07:50:44Z</time>
      </trkpt>
      <trkpt lat="45.95338" lon="5.60094">
        <ele>772</ele>
        <time>2026-05-13T07:50:45Z</time>
      </trkpt>
      <trkpt lat="45.95329" lon="5.60093">
        <ele>771.6</ele>
        <time>2026-05-13T07:50:46Z</time>
      </trkpt>
      <trkpt lat="45.95321" lon="5.60091">
        <ele>771.6</ele>
        <time>2026-05-13T07:50:47Z</time>
      </trkpt>
      <trkpt lat="45.95313" lon="5.6009">
        <ele>771.6</ele>
        <time>2026-05-13T07:50:48Z</time>
      </trkpt>
      <trkpt lat="45.95305" lon="5.60089">
        <ele>771.6</ele>
        <time>2026-05-13T07:50:49Z</time>
      </trkpt>
      <trkpt lat="45.95297" lon="5.60087">
        <ele>771.6</ele>
        <time>2026-05-13T07:50:50Z</time>
      </trkpt>
      <trkpt lat="45.9529" lon="5.60086">
        <ele>771.6</ele>
        <time>2026-05-13T07:50:51Z</time>
      </trkpt>
      <trkpt lat="45.95282" lon="5.60084">
        <ele>771.6</ele>
        <time>2026-05-13T07:50:52Z</time>
      </trkpt>
      <trkpt lat="45.95275" lon="5.60083">
        <ele>771.6</ele>
        <time>2026-05-13T07:50:53Z</time>
      </trkpt>
      <trkpt lat="45.95267" lon="5.60081">
        <ele>771.6</ele>
        <time>2026-05-13T07:50:54Z</time>
      </trkpt>
      <trkpt lat="45.9526" lon="5.6008">
        <ele>771.6</ele>
        <time>2026-05-13T07:50:55Z</time>
      </trkpt>
      <trkpt lat="45.95252" lon="5.60079">
        <ele>771.6</ele>
        <time>2026-05-13T07:50:56Z</time>
      </trkpt>
      <trkpt lat="45.95245" lon="5.60079">
        <ele>771.6</ele>
        <time>2026-05-13T07:50:57Z</time>
      </trkpt>
      <trkpt lat="45.95238" lon="5.60077">
        <ele>771.4</ele>
        <time>2026-05-13T07:50:58Z</time>
      </trkpt>
      <trkpt lat="45.9523" lon="5.60075">
        <ele>771.4</ele>
        <time>2026-05-13T07:50:59Z</time>
      </trkpt>
      <trkpt lat="45.95223" lon="5.60075">
        <ele>771.4</ele>
        <time>2026-05-13T07:51:00Z</time>
      </trkpt>
      <trkpt lat="45.95217" lon="5.60073">
        <ele>771.4</ele>
        <time>2026-05-13T07:51:01Z</time>
      </trkpt>
      <trkpt lat="45.9521" lon="5.60072">
        <ele>771.2</ele>
        <time>2026-05-13T07:51:02Z</time>
      </trkpt>
      <trkpt lat="45.95203" lon="5.6007">
        <ele>771.2</ele>
        <time>2026-05-13T07:51:03Z</time>
      </trkpt>
      <trkpt lat="45.95197" lon="5.60069">
        <ele>771.2</ele>
        <time>2026-05-13T07:51:04Z</time>
      </trkpt>
      <trkpt lat="45.9519" lon="5.60068">
        <ele>771.6</ele>
        <time>2026-05-13T07:51:05Z</time>
      </trkpt>
      <trkpt lat="45.95184" lon="5.60067">
        <ele>771.8</ele>
        <time>2026-05-13T07:51:06Z</time>
      </trkpt>
      <trkpt lat="45.95178" lon="5.60065">
        <ele>772</ele>
        <time>2026-05-13T07:51:07Z</time>
      </trkpt>
      <trkpt lat="45.95173" lon="5.60064">
        <ele>772</ele>
        <time>2026-05-13T07:51:08Z</time>
      </trkpt>
      <trkpt lat="45.95167" lon="5.60063">
        <ele>772</ele>
        <time>2026-05-13T07:51:09Z</time>
      </trkpt>
      <trkpt lat="45.95162" lon="5.60061">
        <ele>772</ele>
        <time>2026-05-13T07:51:10Z</time>
      </trkpt>
      <trkpt lat="45.95155" lon="5.6006">
        <ele>772.4</ele>
        <time>2026-05-13T07:51:11Z</time>
      </trkpt>
      <trkpt lat="45.95149" lon="5.60059">
        <ele>772</ele>
        <time>2026-05-13T07:51:12Z</time>
      </trkpt>
      <trkpt lat="45.95143" lon="5.60057">
        <ele>772</ele>
        <time>2026-05-13T07:51:13Z</time>
      </trkpt>
      <trkpt lat="45.95137" lon="5.60056">
        <ele>772</ele>
        <time>2026-05-13T07:51:14Z</time>
      </trkpt>
      <trkpt lat="45.95131" lon="5.60054">
        <ele>772</ele>
        <time>2026-05-13T07:51:15Z</time>
      </trkpt>
      <trkpt lat="45.95125" lon="5.60053">
        <ele>771.6</ele>
        <time>2026-05-13T07:51:16Z</time>
      </trkpt>
      <trkpt lat="45.95119" lon="5.60051">
        <ele>771.6</ele>
        <time>2026-05-13T07:51:17Z</time>
      </trkpt>
      <trkpt lat="45.95113" lon="5.6005">
        <ele>772</ele>
        <time>2026-05-13T07:51:18Z</time>
      </trkpt>
      <trkpt lat="45.95108" lon="5.60048">
        <ele>772</ele>
        <time>2026-05-13T07:51:19Z</time>
      </trkpt>
      <trkpt lat="45.95102" lon="5.60047">
        <ele>772</ele>
        <time>2026-05-13T07:51:20Z</time>
      </trkpt>
      <trkpt lat="45.95097" lon="5.60045">
        <ele>772</ele>
        <time>2026-05-13T07:51:21Z</time>
      </trkpt>
      <trkpt lat="45.95092" lon="5.60042">
        <ele>772</ele>
        <time>2026-05-13T07:51:22Z</time>
      </trkpt>
      <trkpt lat="45.95086" lon="5.6004">
        <ele>772</ele>
        <time>2026-05-13T07:51:23Z</time>
      </trkpt>
      <trkpt lat="45.95081" lon="5.60038">
        <ele>772</ele>
        <time>2026-05-13T07:51:24Z</time>
      </trkpt>
      <trkpt lat="45.95076" lon="5.60035">
        <ele>772.2</ele>
        <time>2026-05-13T07:51:25Z</time>
      </trkpt>
      <trkpt lat="45.95071" lon="5.60032">
        <ele>772.2</ele>
        <time>2026-05-13T07:51:26Z</time>
      </trkpt>
      <trkpt lat="45.95067" lon="5.6003">
        <ele>772.4</ele>
        <time>2026-05-13T07:51:27Z</time>
      </trkpt>
      <trkpt lat="45.95062" lon="5.60026">
        <ele>772.4</ele>
        <time>2026-05-13T07:51:28Z</time>
      </trkpt>
      <trkpt lat="45.95053" lon="5.60018">
        <ele>772.4</ele>
        <time>2026-05-13T07:51:29Z</time>
      </trkpt>
      <trkpt lat="45.95048" lon="5.60014">
        <ele>772.2</ele>
        <time>2026-05-13T07:51:30Z</time>
      </trkpt>
      <trkpt lat="45.95044" lon="5.6001">
        <ele>772.2</ele>
        <time>2026-05-13T07:51:31Z</time>
      </trkpt>
      <trkpt lat="45.95039" lon="5.60006">
        <ele>772.2</ele>
        <time>2026-05-13T07:51:32Z</time>
      </trkpt>
      <trkpt lat="45.95033" lon="5.60002">
        <ele>771.8</ele>
        <time>2026-05-13T07:51:33Z</time>
      </trkpt>
      <trkpt lat="45.95026" lon="5.59999">
        <ele>771.4</ele>
        <time>2026-05-13T07:51:34Z</time>
      </trkpt>
      <trkpt lat="45.95021" lon="5.59996">
        <ele>771.2</ele>
        <time>2026-05-13T07:51:35Z</time>
      </trkpt>
      <trkpt lat="45.95014" lon="5.59994">
        <ele>770.8</ele>
        <time>2026-05-13T07:51:36Z</time>
      </trkpt>
      <trkpt lat="45.95006" lon="5.59994">
        <ele>770.2</ele>
        <time>2026-05-13T07:51:37Z</time>
      </trkpt>
      <trkpt lat="45.94999" lon="5.59992">
        <ele>769.4</ele>
        <time>2026-05-13T07:51:38Z</time>
      </trkpt>
      <trkpt lat="45.94991" lon="5.59992">
        <ele>769</ele>
        <time>2026-05-13T07:51:39Z</time>
      </trkpt>
      <trkpt lat="45.94983" lon="5.59992">
        <ele>768.4</ele>
        <time>2026-05-13T07:51:40Z</time>
      </trkpt>
      <trkpt lat="45.94975" lon="5.59992">
        <ele>767.6</ele>
        <time>2026-05-13T07:51:41Z</time>
      </trkpt>
      <trkpt lat="45.94968" lon="5.59991">
        <ele>767.6</ele>
        <time>2026-05-13T07:51:42Z</time>
      </trkpt>
      <trkpt lat="45.9496" lon="5.59991">
        <ele>767</ele>
        <time>2026-05-13T07:51:43Z</time>
      </trkpt>
      <trkpt lat="45.94953" lon="5.5999">
        <ele>767</ele>
        <time>2026-05-13T07:51:44Z</time>
      </trkpt>
      <trkpt lat="45.94945" lon="5.59989">
        <ele>767</ele>
        <time>2026-05-13T07:51:45Z</time>
      </trkpt>
      <trkpt lat="45.94937" lon="5.59989">
        <ele>767</ele>
        <time>2026-05-13T07:51:46Z</time>
      </trkpt>
      <trkpt lat="45.9493" lon="5.59989">
        <ele>767</ele>
        <time>2026-05-13T07:51:47Z</time>
      </trkpt>
      <trkpt lat="45.94922" lon="5.59988">
        <ele>766.8</ele>
        <time>2026-05-13T07:51:48Z</time>
      </trkpt>
      <trkpt lat="45.94914" lon="5.59988">
        <ele>766.8</ele>
        <time>2026-05-13T07:51:49Z</time>
      </trkpt>
      <trkpt lat="45.94906" lon="5.59987">
        <ele>766.4</ele>
        <time>2026-05-13T07:51:50Z</time>
      </trkpt>
      <trkpt lat="45.94899" lon="5.59986">
        <ele>766.4</ele>
        <time>2026-05-13T07:51:51Z</time>
      </trkpt>
      <trkpt lat="45.94892" lon="5.59986">
        <ele>766.6</ele>
        <time>2026-05-13T07:51:52Z</time>
      </trkpt>
      <trkpt lat="45.94885" lon="5.59986">
        <ele>766.6</ele>
        <time>2026-05-13T07:51:53Z</time>
      </trkpt>
      <trkpt lat="45.94879" lon="5.59986">
        <ele>767.2</ele>
        <time>2026-05-13T07:51:54Z</time>
      </trkpt>
      <trkpt lat="45.94872" lon="5.59986">
        <ele>767.2</ele>
        <time>2026-05-13T07:51:55Z</time>
      </trkpt>
      <trkpt lat="45.94867" lon="5.59985">
        <ele>768</ele>
        <time>2026-05-13T07:51:56Z</time>
      </trkpt>
      <trkpt lat="45.94861" lon="5.59985">
        <ele>768</ele>
        <time>2026-05-13T07:51:57Z</time>
      </trkpt>
      <trkpt lat="45.94856" lon="5.59984">
        <ele>767.8</ele>
        <time>2026-05-13T07:51:58Z</time>
      </trkpt>
      <trkpt lat="45.9485" lon="5.59982">
        <ele>767.8</ele>
        <time>2026-05-13T07:51:59Z</time>
      </trkpt>
      <trkpt lat="45.94845" lon="5.59982">
        <ele>767.8</ele>
        <time>2026-05-13T07:52:00Z</time>
      </trkpt>
      <trkpt lat="45.9484" lon="5.59982">
        <ele>767.8</ele>
        <time>2026-05-13T07:52:01Z</time>
      </trkpt>
      <trkpt lat="45.94835" lon="5.59981">
        <ele>768</ele>
        <time>2026-05-13T07:52:02Z</time>
      </trkpt>
      <trkpt lat="45.9483" lon="5.59978">
        <ele>768</ele>
        <time>2026-05-13T07:52:03Z</time>
      </trkpt>
      <trkpt lat="45.94825" lon="5.59977">
        <ele>768</ele>
        <time>2026-05-13T07:52:04Z</time>
      </trkpt>
      <trkpt lat="45.94819" lon="5.59972">
        <ele>768</ele>
        <time>2026-05-13T07:52:05Z</time>
      </trkpt>
      <trkpt lat="45.94814" lon="5.59969">
        <ele>768</ele>
        <time>2026-05-13T07:52:06Z</time>
      </trkpt>
      <trkpt lat="45.94808" lon="5.59967">
        <ele>767.6</ele>
        <time>2026-05-13T07:52:07Z</time>
      </trkpt>
      <trkpt lat="45.94803" lon="5.59961">
        <ele>767.6</ele>
        <time>2026-05-13T07:52:08Z</time>
      </trkpt>
      <trkpt lat="45.94798" lon="5.59957">
        <ele>767.4</ele>
        <time>2026-05-13T07:52:09Z</time>
      </trkpt>
      <trkpt lat="45.94795" lon="5.5995">
        <ele>767.4</ele>
        <time>2026-05-13T07:52:10Z</time>
      </trkpt>
      <trkpt lat="45.9479" lon="5.59942">
        <ele>766.8</ele>
        <time>2026-05-13T07:52:11Z</time>
      </trkpt>
      <trkpt lat="45.94786" lon="5.59934">
        <ele>766.8</ele>
        <time>2026-05-13T07:52:12Z</time>
      </trkpt>
      <trkpt lat="45.94782" lon="5.59926">
        <ele>766.8</ele>
        <time>2026-05-13T07:52:13Z</time>
      </trkpt>
      <trkpt lat="45.94779" lon="5.5992">
        <ele>766.4</ele>
        <time>2026-05-13T07:52:14Z</time>
      </trkpt>
      <trkpt lat="45.94777" lon="5.59912">
        <ele>766.4</ele>
        <time>2026-05-13T07:52:15Z</time>
      </trkpt>
      <trkpt lat="45.94774" lon="5.59904">
        <ele>766.4</ele>
        <time>2026-05-13T07:52:16Z</time>
      </trkpt>
      <trkpt lat="45.94771" lon="5.59897">
        <ele>766.4</ele>
        <time>2026-05-13T07:52:17Z</time>
      </trkpt>
      <trkpt lat="45.94768" lon="5.59888">
        <ele>766</ele>
        <time>2026-05-13T07:52:18Z</time>
      </trkpt>
      <trkpt lat="45.94764" lon="5.59884">
        <ele>766</ele>
        <time>2026-05-13T07:52:19Z</time>
      </trkpt>
      <trkpt lat="45.94761" lon="5.59878">
        <ele>766</ele>
        <time>2026-05-13T07:52:20Z</time>
      </trkpt>
      <trkpt lat="45.94758" lon="5.59871">
        <ele>766</ele>
        <time>2026-05-13T07:52:21Z</time>
      </trkpt>
      <trkpt lat="45.94755" lon="5.59863">
        <ele>766</ele>
        <time>2026-05-13T07:52:22Z</time>
      </trkpt>
      <trkpt lat="45.94752" lon="5.59857">
        <ele>766</ele>
        <time>2026-05-13T07:52:23Z</time>
      </trkpt>
      <trkpt lat="45.94749" lon="5.59849">
        <ele>766</ele>
        <time>2026-05-13T07:52:24Z</time>
      </trkpt>
      <trkpt lat="45.94747" lon="5.59841">
        <ele>765.6</ele>
        <time>2026-05-13T07:52:25Z</time>
      </trkpt>
      <trkpt lat="45.94745" lon="5.59832">
        <ele>765.6</ele>
        <time>2026-05-13T07:52:26Z</time>
      </trkpt>
      <trkpt lat="45.94743" lon="5.59824">
        <ele>765.6</ele>
        <time>2026-05-13T07:52:27Z</time>
      </trkpt>
      <trkpt lat="45.9474" lon="5.59813">
        <ele>765.2</ele>
        <time>2026-05-13T07:52:28Z</time>
      </trkpt>
      <trkpt lat="45.94739" lon="5.59803">
        <ele>765.4</ele>
        <time>2026-05-13T07:52:29Z</time>
      </trkpt>
      <trkpt lat="45.94738" lon="5.59794">
        <ele>765.4</ele>
        <time>2026-05-13T07:52:30Z</time>
      </trkpt>
      <trkpt lat="45.94735" lon="5.59785">
        <ele>765.4</ele>
        <time>2026-05-13T07:52:31Z</time>
      </trkpt>
      <trkpt lat="45.94734" lon="5.59777">
        <ele>765.2</ele>
        <time>2026-05-13T07:52:32Z</time>
      </trkpt>
      <trkpt lat="45.94733" lon="5.59768">
        <ele>765.2</ele>
        <time>2026-05-13T07:52:33Z</time>
      </trkpt>
      <trkpt lat="45.94731" lon="5.59761">
        <ele>765.2</ele>
        <time>2026-05-13T07:52:34Z</time>
      </trkpt>
      <trkpt lat="45.9473" lon="5.59752">
        <ele>764.8</ele>
        <time>2026-05-13T07:52:35Z</time>
      </trkpt>
      <trkpt lat="45.94728" lon="5.59744">
        <ele>764.8</ele>
        <time>2026-05-13T07:52:36Z</time>
      </trkpt>
      <trkpt lat="45.94726" lon="5.59734">
        <ele>764.8</ele>
        <time>2026-05-13T07:52:37Z</time>
      </trkpt>
      <trkpt lat="45.94725" lon="5.59726">
        <ele>765</ele>
        <time>2026-05-13T07:52:38Z</time>
      </trkpt>
      <trkpt lat="45.94723" lon="5.59719">
        <ele>765</ele>
        <time>2026-05-13T07:52:39Z</time>
      </trkpt>
      <trkpt lat="45.94721" lon="5.5971">
        <ele>765</ele>
        <time>2026-05-13T07:52:40Z</time>
      </trkpt>
      <trkpt lat="45.94718" lon="5.59703">
        <ele>765</ele>
        <time>2026-05-13T07:52:41Z</time>
      </trkpt>
      <trkpt lat="45.94716" lon="5.59695">
        <ele>765</ele>
        <time>2026-05-13T07:52:42Z</time>
      </trkpt>
      <trkpt lat="45.94714" lon="5.59688">
        <ele>765.2</ele>
        <time>2026-05-13T07:52:43Z</time>
      </trkpt>
      <trkpt lat="45.9471" lon="5.59682">
        <ele>765.2</ele>
        <time>2026-05-13T07:52:44Z</time>
      </trkpt>
      <trkpt lat="45.94707" lon="5.59676">
        <ele>765.6</ele>
        <time>2026-05-13T07:52:45Z</time>
      </trkpt>
      <trkpt lat="45.94703" lon="5.5967">
        <ele>765.6</ele>
        <time>2026-05-13T07:52:46Z</time>
      </trkpt>
      <trkpt lat="45.94699" lon="5.59664">
        <ele>765.6</ele>
        <time>2026-05-13T07:52:47Z</time>
      </trkpt>
      <trkpt lat="45.94695" lon="5.59658">
        <ele>765.6</ele>
        <time>2026-05-13T07:52:48Z</time>
      </trkpt>
      <trkpt lat="45.94691" lon="5.59653">
        <ele>765.6</ele>
        <time>2026-05-13T07:52:49Z</time>
      </trkpt>
      <trkpt lat="45.94686" lon="5.59648">
        <ele>765.6</ele>
        <time>2026-05-13T07:52:50Z</time>
      </trkpt>
      <trkpt lat="45.94682" lon="5.59645">
        <ele>765.6</ele>
        <time>2026-05-13T07:52:51Z</time>
      </trkpt>
      <trkpt lat="45.94677" lon="5.5964">
        <ele>765.8</ele>
        <time>2026-05-13T07:52:52Z</time>
      </trkpt>
      <trkpt lat="45.94672" lon="5.59637">
        <ele>765.8</ele>
        <time>2026-05-13T07:52:53Z</time>
      </trkpt>
      <trkpt lat="45.94667" lon="5.59635">
        <ele>765.8</ele>
        <time>2026-05-13T07:52:54Z</time>
      </trkpt>
      <trkpt lat="45.94662" lon="5.59633">
        <ele>765.8</ele>
        <time>2026-05-13T07:52:55Z</time>
      </trkpt>
      <trkpt lat="45.94657" lon="5.59631">
        <ele>766.2</ele>
        <time>2026-05-13T07:52:56Z</time>
      </trkpt>
      <trkpt lat="45.94652" lon="5.5963">
        <ele>766.2</ele>
        <time>2026-05-13T07:52:57Z</time>
      </trkpt>
      <trkpt lat="45.94647" lon="5.59629">
        <ele>766.2</ele>
        <time>2026-05-13T07:52:58Z</time>
      </trkpt>
      <trkpt lat="45.94642" lon="5.59629">
        <ele>766</ele>
        <time>2026-05-13T07:52:59Z</time>
      </trkpt>
      <trkpt lat="45.94636" lon="5.59628">
        <ele>766.2</ele>
        <time>2026-05-13T07:53:00Z</time>
      </trkpt>
      <trkpt lat="45.94631" lon="5.59628">
        <ele>766.2</ele>
        <time>2026-05-13T07:53:01Z</time>
      </trkpt>
      <trkpt lat="45.94626" lon="5.59627">
        <ele>766.4</ele>
        <time>2026-05-13T07:53:02Z</time>
      </trkpt>
      <trkpt lat="45.94621" lon="5.59627">
        <ele>766.4</ele>
        <time>2026-05-13T07:53:03Z</time>
      </trkpt>
      <trkpt lat="45.94616" lon="5.59626">
        <ele>766.6</ele>
        <time>2026-05-13T07:53:04Z</time>
      </trkpt>
      <trkpt lat="45.94611" lon="5.59626">
        <ele>766.6</ele>
        <time>2026-05-13T07:53:05Z</time>
      </trkpt>
      <trkpt lat="45.94606" lon="5.59626">
        <ele>766.6</ele>
        <time>2026-05-13T07:53:06Z</time>
      </trkpt>
      <trkpt lat="45.94601" lon="5.59627">
        <ele>766.8</ele>
        <time>2026-05-13T07:53:07Z</time>
      </trkpt>
      <trkpt lat="45.94597" lon="5.59628">
        <ele>766.8</ele>
        <time>2026-05-13T07:53:08Z</time>
      </trkpt>
      <trkpt lat="45.94593" lon="5.59628">
        <ele>766.8</ele>
        <time>2026-05-13T07:53:09Z</time>
      </trkpt>
      <trkpt lat="45.94588" lon="5.59629">
        <ele>766.8</ele>
        <time>2026-05-13T07:53:10Z</time>
      </trkpt>
      <trkpt lat="45.94584" lon="5.59629">
        <ele>766.8</ele>
        <time>2026-05-13T07:53:11Z</time>
      </trkpt>
      <trkpt lat="45.94579" lon="5.5963">
        <ele>766.8</ele>
        <time>2026-05-13T07:53:12Z</time>
      </trkpt>
      <trkpt lat="45.94574" lon="5.59631">
        <ele>766.8</ele>
        <time>2026-05-13T07:53:13Z</time>
      </trkpt>
      <trkpt lat="45.9457" lon="5.59631">
        <ele>766.8</ele>
        <time>2026-05-13T07:53:14Z</time>
      </trkpt>
      <trkpt lat="45.94565" lon="5.59632">
        <ele>766.8</ele>
        <time>2026-05-13T07:53:15Z</time>
      </trkpt>
      <trkpt lat="45.9456" lon="5.59634">
        <ele>766.6</ele>
        <time>2026-05-13T07:53:16Z</time>
      </trkpt>
      <trkpt lat="45.94555" lon="5.59636">
        <ele>766.6</ele>
        <time>2026-05-13T07:53:17Z</time>
      </trkpt>
      <trkpt lat="45.9455" lon="5.59637">
        <ele>766.8</ele>
        <time>2026-05-13T07:53:18Z</time>
      </trkpt>
      <trkpt lat="45.94546" lon="5.59639">
        <ele>766.8</ele>
        <time>2026-05-13T07:53:19Z</time>
      </trkpt>
      <trkpt lat="45.94541" lon="5.5964">
        <ele>767.2</ele>
        <time>2026-05-13T07:53:20Z</time>
      </trkpt>
      <trkpt lat="45.94536" lon="5.59641">
        <ele>767.2</ele>
        <time>2026-05-13T07:53:21Z</time>
      </trkpt>
      <trkpt lat="45.94531" lon="5.59642">
        <ele>767.2</ele>
        <time>2026-05-13T07:53:22Z</time>
      </trkpt>
      <trkpt lat="45.94526" lon="5.59642">
        <ele>767.2</ele>
        <time>2026-05-13T07:53:23Z</time>
      </trkpt>
      <trkpt lat="45.9452" lon="5.59643">
        <ele>767.2</ele>
        <time>2026-05-13T07:53:24Z</time>
      </trkpt>
      <trkpt lat="45.94515" lon="5.59643">
        <ele>767.2</ele>
        <time>2026-05-13T07:53:25Z</time>
      </trkpt>
      <trkpt lat="45.9451" lon="5.59643">
        <ele>767.2</ele>
        <time>2026-05-13T07:53:26Z</time>
      </trkpt>
      <trkpt lat="45.94504" lon="5.59643">
        <ele>767.2</ele>
        <time>2026-05-13T07:53:27Z</time>
      </trkpt>
      <trkpt lat="45.94499" lon="5.59642">
        <ele>767.2</ele>
        <time>2026-05-13T07:53:28Z</time>
      </trkpt>
      <trkpt lat="45.94494" lon="5.5964">
        <ele>767.2</ele>
        <time>2026-05-13T07:53:29Z</time>
      </trkpt>
      <trkpt lat="45.94489" lon="5.59638">
        <ele>767.2</ele>
        <time>2026-05-13T07:53:30Z</time>
      </trkpt>
      <trkpt lat="45.94485" lon="5.59635">
        <ele>767.2</ele>
        <time>2026-05-13T07:53:31Z</time>
      </trkpt>
      <trkpt lat="45.9448" lon="5.59631">
        <ele>767.2</ele>
        <time>2026-05-13T07:53:32Z</time>
      </trkpt>
      <trkpt lat="45.94476" lon="5.59627">
        <ele>767.2</ele>
        <time>2026-05-13T07:53:33Z</time>
      </trkpt>
      <trkpt lat="45.94472" lon="5.59622">
        <ele>767.2</ele>
        <time>2026-05-13T07:53:34Z</time>
      </trkpt>
      <trkpt lat="45.94467" lon="5.59617">
        <ele>767.2</ele>
        <time>2026-05-13T07:53:35Z</time>
      </trkpt>
      <trkpt lat="45.94463" lon="5.59612">
        <ele>767.4</ele>
        <time>2026-05-13T07:53:36Z</time>
      </trkpt>
      <trkpt lat="45.9446" lon="5.59607">
        <ele>767.4</ele>
        <time>2026-05-13T07:53:37Z</time>
      </trkpt>
      <trkpt lat="45.94456" lon="5.59601">
        <ele>767.4</ele>
        <time>2026-05-13T07:53:38Z</time>
      </trkpt>
      <trkpt lat="45.94452" lon="5.59595">
        <ele>767</ele>
        <time>2026-05-13T07:53:39Z</time>
      </trkpt>
      <trkpt lat="45.94449" lon="5.59589">
        <ele>767</ele>
        <time>2026-05-13T07:53:40Z</time>
      </trkpt>
      <trkpt lat="45.94445" lon="5.59583">
        <ele>767</ele>
        <time>2026-05-13T07:53:41Z</time>
      </trkpt>
      <trkpt lat="45.94441" lon="5.59578">
        <ele>767</ele>
        <time>2026-05-13T07:53:42Z</time>
      </trkpt>
      <trkpt lat="45.94437" lon="5.59573">
        <ele>767</ele>
        <time>2026-05-13T07:53:43Z</time>
      </trkpt>
      <trkpt lat="45.94433" lon="5.59568">
        <ele>767</ele>
        <time>2026-05-13T07:53:44Z</time>
      </trkpt>
      <trkpt lat="45.94429" lon="5.59563">
        <ele>767</ele>
        <time>2026-05-13T07:53:45Z</time>
      </trkpt>
      <trkpt lat="45.94425" lon="5.59558">
        <ele>767.2</ele>
        <time>2026-05-13T07:53:46Z</time>
      </trkpt>
      <trkpt lat="45.94421" lon="5.59554">
        <ele>767.2</ele>
        <time>2026-05-13T07:53:47Z</time>
      </trkpt>
      <trkpt lat="45.94417" lon="5.5955">
        <ele>767.2</ele>
        <time>2026-05-13T07:53:48Z</time>
      </trkpt>
      <trkpt lat="45.94411" lon="5.59546">
        <ele>767.2</ele>
        <time>2026-05-13T07:53:49Z</time>
      </trkpt>
      <trkpt lat="45.94411" lon="5.59546">
        <ele>767.4</ele>
        <time>2026-05-13T07:53:50Z</time>
      </trkpt>
      <trkpt lat="45.94407" lon="5.59544">
        <ele>767.4</ele>
        <time>2026-05-13T07:53:51Z</time>
      </trkpt>
      <trkpt lat="45.94402" lon="5.5954">
        <ele>767.4</ele>
        <time>2026-05-13T07:53:52Z</time>
      </trkpt>
      <trkpt lat="45.94398" lon="5.59538">
        <ele>766.8</ele>
        <time>2026-05-13T07:53:53Z</time>
      </trkpt>
      <trkpt lat="45.94393" lon="5.59536">
        <ele>766.8</ele>
        <time>2026-05-13T07:53:54Z</time>
      </trkpt>
      <trkpt lat="45.9439" lon="5.59533">
        <ele>767.2</ele>
        <time>2026-05-13T07:53:55Z</time>
      </trkpt>
      <trkpt lat="45.94386" lon="5.59532">
        <ele>767.4</ele>
        <time>2026-05-13T07:53:56Z</time>
      </trkpt>
      <trkpt lat="45.94381" lon="5.5953">
        <ele>767.6</ele>
        <time>2026-05-13T07:53:57Z</time>
      </trkpt>
      <trkpt lat="45.94377" lon="5.59528">
        <ele>767.6</ele>
        <time>2026-05-13T07:53:58Z</time>
      </trkpt>
      <trkpt lat="45.94372" lon="5.59525">
        <ele>767.6</ele>
        <time>2026-05-13T07:53:59Z</time>
      </trkpt>
      <trkpt lat="45.94367" lon="5.59522">
        <ele>768</ele>
        <time>2026-05-13T07:54:00Z</time>
      </trkpt>
      <trkpt lat="45.94362" lon="5.5952">
        <ele>768</ele>
        <time>2026-05-13T07:54:01Z</time>
      </trkpt>
      <trkpt lat="45.94358" lon="5.59518">
        <ele>768</ele>
        <time>2026-05-13T07:54:02Z</time>
      </trkpt>
      <trkpt lat="45.94354" lon="5.59515">
        <ele>768</ele>
        <time>2026-05-13T07:54:03Z</time>
      </trkpt>
      <trkpt lat="45.9435" lon="5.59512">
        <ele>768</ele>
        <time>2026-05-13T07:54:04Z</time>
      </trkpt>
      <trkpt lat="45.94345" lon="5.59509">
        <ele>768.4</ele>
        <time>2026-05-13T07:54:05Z</time>
      </trkpt>
      <trkpt lat="45.94341" lon="5.59506">
        <ele>768.4</ele>
        <time>2026-05-13T07:54:06Z</time>
      </trkpt>
      <trkpt lat="45.94338" lon="5.59503">
        <ele>768.4</ele>
        <time>2026-05-13T07:54:07Z</time>
      </trkpt>
      <trkpt lat="45.94334" lon="5.595">
        <ele>768.8</ele>
        <time>2026-05-13T07:54:08Z</time>
      </trkpt>
      <trkpt lat="45.94331" lon="5.59496">
        <ele>768.8</ele>
        <time>2026-05-13T07:54:09Z</time>
      </trkpt>
      <trkpt lat="45.94327" lon="5.59492">
        <ele>768.8</ele>
        <time>2026-05-13T07:54:10Z</time>
      </trkpt>
      <trkpt lat="45.94324" lon="5.59488">
        <ele>768.8</ele>
        <time>2026-05-13T07:54:11Z</time>
      </trkpt>
      <trkpt lat="45.9432" lon="5.59484">
        <ele>768.8</ele>
        <time>2026-05-13T07:54:12Z</time>
      </trkpt>
      <trkpt lat="45.94316" lon="5.5948">
        <ele>769.2</ele>
        <time>2026-05-13T07:54:13Z</time>
      </trkpt>
      <trkpt lat="45.94313" lon="5.59476">
        <ele>769.2</ele>
        <time>2026-05-13T07:54:14Z</time>
      </trkpt>
      <trkpt lat="45.94309" lon="5.59473">
        <ele>769.4</ele>
        <time>2026-05-13T07:54:15Z</time>
      </trkpt>
      <trkpt lat="45.94305" lon="5.59471">
        <ele>769.4</ele>
        <time>2026-05-13T07:54:16Z</time>
      </trkpt>
      <trkpt lat="45.94301" lon="5.59468">
        <ele>769.6</ele>
        <time>2026-05-13T07:54:17Z</time>
      </trkpt>
      <trkpt lat="45.94297" lon="5.59467">
        <ele>769.6</ele>
        <time>2026-05-13T07:54:18Z</time>
      </trkpt>
      <trkpt lat="45.94293" lon="5.59464">
        <ele>769.6</ele>
        <time>2026-05-13T07:54:19Z</time>
      </trkpt>
      <trkpt lat="45.94289" lon="5.59464">
        <ele>769.6</ele>
        <time>2026-05-13T07:54:20Z</time>
      </trkpt>
      <trkpt lat="45.94284" lon="5.59463">
        <ele>769.6</ele>
        <time>2026-05-13T07:54:21Z</time>
      </trkpt>
      <trkpt lat="45.9428" lon="5.59463">
        <ele>769.6</ele>
        <time>2026-05-13T07:54:22Z</time>
      </trkpt>
      <trkpt lat="45.94276" lon="5.59462">
        <ele>770</ele>
        <time>2026-05-13T07:54:23Z</time>
      </trkpt>
      <trkpt lat="45.94272" lon="5.5946">
        <ele>770</ele>
        <time>2026-05-13T07:54:24Z</time>
      </trkpt>
      <trkpt lat="45.94268" lon="5.59458">
        <ele>770.4</ele>
        <time>2026-05-13T07:54:25Z</time>
      </trkpt>
      <trkpt lat="45.94264" lon="5.59458">
        <ele>770.6</ele>
        <time>2026-05-13T07:54:26Z</time>
      </trkpt>
      <trkpt lat="45.9426" lon="5.59457">
        <ele>770.8</ele>
        <time>2026-05-13T07:54:27Z</time>
      </trkpt>
      <trkpt lat="45.94257" lon="5.59455">
        <ele>770.8</ele>
        <time>2026-05-13T07:54:28Z</time>
      </trkpt>
      <trkpt lat="45.94253" lon="5.59454">
        <ele>771.2</ele>
        <time>2026-05-13T07:54:29Z</time>
      </trkpt>
      <trkpt lat="45.94249" lon="5.59453">
        <ele>771.2</ele>
        <time>2026-05-13T07:54:30Z</time>
      </trkpt>
      <trkpt lat="45.94245" lon="5.59452">
        <ele>771.6</ele>
        <time>2026-05-13T07:54:31Z</time>
      </trkpt>
      <trkpt lat="45.94242" lon="5.59451">
        <ele>771.6</ele>
        <time>2026-05-13T07:54:32Z</time>
      </trkpt>
      <trkpt lat="45.94239" lon="5.5945">
        <ele>772</ele>
        <time>2026-05-13T07:54:33Z</time>
      </trkpt>
      <trkpt lat="45.94235" lon="5.59449">
        <ele>772.2</ele>
        <time>2026-05-13T07:54:34Z</time>
      </trkpt>
      <trkpt lat="45.94232" lon="5.59448">
        <ele>772.2</ele>
        <time>2026-05-13T07:54:35Z</time>
      </trkpt>
      <trkpt lat="45.94228" lon="5.59447">
        <ele>772.6</ele>
        <time>2026-05-13T07:54:36Z</time>
      </trkpt>
      <trkpt lat="45.94225" lon="5.59447">
        <ele>772.8</ele>
        <time>2026-05-13T07:54:37Z</time>
      </trkpt>
      <trkpt lat="45.94222" lon="5.59446">
        <ele>772.8</ele>
        <time>2026-05-13T07:54:38Z</time>
      </trkpt>
      <trkpt lat="45.9422" lon="5.59444">
        <ele>773.2</ele>
        <time>2026-05-13T07:54:39Z</time>
      </trkpt>
      <trkpt lat="45.94217" lon="5.59444">
        <ele>773.2</ele>
        <time>2026-05-13T07:54:40Z</time>
      </trkpt>
      <trkpt lat="45.94213" lon="5.59443">
        <ele>773.6</ele>
        <time>2026-05-13T07:54:41Z</time>
      </trkpt>
      <trkpt lat="45.9421" lon="5.59443">
        <ele>773.6</ele>
        <time>2026-05-13T07:54:42Z</time>
      </trkpt>
      <trkpt lat="45.94207" lon="5.59442">
        <ele>773.8</ele>
        <time>2026-05-13T07:54:43Z</time>
      </trkpt>
      <trkpt lat="45.94204" lon="5.59441">
        <ele>773.8</ele>
        <time>2026-05-13T07:54:44Z</time>
      </trkpt>
      <trkpt lat="45.94202" lon="5.5944">
        <ele>773.8</ele>
        <time>2026-05-13T07:54:45Z</time>
      </trkpt>
      <trkpt lat="45.94199" lon="5.59439">
        <ele>774.2</ele>
        <time>2026-05-13T07:54:46Z</time>
      </trkpt>
      <trkpt lat="45.94196" lon="5.59438">
        <ele>774.2</ele>
        <time>2026-05-13T07:54:47Z</time>
      </trkpt>
      <trkpt lat="45.94193" lon="5.59437">
        <ele>774.2</ele>
        <time>2026-05-13T07:54:48Z</time>
      </trkpt>
      <trkpt lat="45.9419" lon="5.59436">
        <ele>774.2</ele>
        <time>2026-05-13T07:54:49Z</time>
      </trkpt>
      <trkpt lat="45.94188" lon="5.59436">
        <ele>774.2</ele>
        <time>2026-05-13T07:54:50Z</time>
      </trkpt>
      <trkpt lat="45.94185" lon="5.59435">
        <ele>774.6</ele>
        <time>2026-05-13T07:54:51Z</time>
      </trkpt>
      <trkpt lat="45.94183" lon="5.59434">
        <ele>774.6</ele>
        <time>2026-05-13T07:54:52Z</time>
      </trkpt>
      <trkpt lat="45.9418" lon="5.59433">
        <ele>775</ele>
        <time>2026-05-13T07:54:53Z</time>
      </trkpt>
      <trkpt lat="45.94178" lon="5.59431">
        <ele>775</ele>
        <time>2026-05-13T07:54:54Z</time>
      </trkpt>
      <trkpt lat="45.94175" lon="5.5943">
        <ele>775.4</ele>
        <time>2026-05-13T07:54:55Z</time>
      </trkpt>
      <trkpt lat="45.94173" lon="5.5943">
        <ele>775.4</ele>
        <time>2026-05-13T07:54:56Z</time>
      </trkpt>
      <trkpt lat="45.94171" lon="5.59429">
        <ele>775.6</ele>
        <time>2026-05-13T07:54:57Z</time>
      </trkpt>
      <trkpt lat="45.94168" lon="5.59429">
        <ele>775.8</ele>
        <time>2026-05-13T07:54:58Z</time>
      </trkpt>
      <trkpt lat="45.94166" lon="5.59428">
        <ele>775.8</ele>
        <time>2026-05-13T07:54:59Z</time>
      </trkpt>
      <trkpt lat="45.94164" lon="5.59428">
        <ele>776.2</ele>
        <time>2026-05-13T07:55:00Z</time>
      </trkpt>
      <trkpt lat="45.94162" lon="5.59427">
        <ele>776.2</ele>
        <time>2026-05-13T07:55:01Z</time>
      </trkpt>
      <trkpt lat="45.9416" lon="5.59427">
        <ele>776.6</ele>
        <time>2026-05-13T07:55:02Z</time>
      </trkpt>
      <trkpt lat="45.94157" lon="5.59427">
        <ele>777</ele>
        <time>2026-05-13T07:55:03Z</time>
      </trkpt>
      <trkpt lat="45.94155" lon="5.59426">
        <ele>777.2</ele>
        <time>2026-05-13T07:55:04Z</time>
      </trkpt>
      <trkpt lat="45.94151" lon="5.59425">
        <ele>777.2</ele>
        <time>2026-05-13T07:55:05Z</time>
      </trkpt>
      <trkpt lat="45.94149" lon="5.59426">
        <ele>777.6</ele>
        <time>2026-05-13T07:55:06Z</time>
      </trkpt>
      <trkpt lat="45.94147" lon="5.59426">
        <ele>778</ele>
        <time>2026-05-13T07:55:07Z</time>
      </trkpt>
      <trkpt lat="45.94145" lon="5.59427">
        <ele>778.2</ele>
        <time>2026-05-13T07:55:08Z</time>
      </trkpt>
      <trkpt lat="45.94144" lon="5.59427">
        <ele>778.2</ele>
        <time>2026-05-13T07:55:09Z</time>
      </trkpt>
      <trkpt lat="45.94142" lon="5.59427">
        <ele>778.4</ele>
        <time>2026-05-13T07:55:10Z</time>
      </trkpt>
      <trkpt lat="45.94141" lon="5.59427">
        <ele>778.4</ele>
        <time>2026-05-13T07:55:11Z</time>
      </trkpt>
      <trkpt lat="45.94139" lon="5.59428">
        <ele>778.6</ele>
        <time>2026-05-13T07:55:12Z</time>
      </trkpt>
      <trkpt lat="45.94137" lon="5.59427">
        <ele>778.6</ele>
        <time>2026-05-13T07:55:13Z</time>
      </trkpt>
      <trkpt lat="45.94136" lon="5.59427">
        <ele>779</ele>
        <time>2026-05-13T07:55:14Z</time>
      </trkpt>
      <trkpt lat="45.94134" lon="5.59426">
        <ele>779</ele>
        <time>2026-05-13T07:55:15Z</time>
      </trkpt>
      <trkpt lat="45.94133" lon="5.59425">
        <ele>779.4</ele>
        <time>2026-05-13T07:55:16Z</time>
      </trkpt>
      <trkpt lat="45.94131" lon="5.59425">
        <ele>779.4</ele>
        <time>2026-05-13T07:55:17Z</time>
      </trkpt>
      <trkpt lat="45.9413" lon="5.59424">
        <ele>779.8</ele>
        <time>2026-05-13T07:55:18Z</time>
      </trkpt>
      <trkpt lat="45.94128" lon="5.59423">
        <ele>779.8</ele>
        <time>2026-05-13T07:55:19Z</time>
      </trkpt>
      <trkpt lat="45.94126" lon="5.59423">
        <ele>780.2</ele>
        <time>2026-05-13T07:55:20Z</time>
      </trkpt>
      <trkpt lat="45.94124" lon="5.59422">
        <ele>780.4</ele>
        <time>2026-05-13T07:55:21Z</time>
      </trkpt>
      <trkpt lat="45.94122" lon="5.59421">
        <ele>780.4</ele>
        <time>2026-05-13T07:55:22Z</time>
      </trkpt>
      <trkpt lat="45.9412" lon="5.59421">
        <ele>780.8</ele>
        <time>2026-05-13T07:55:23Z</time>
      </trkpt>
      <trkpt lat="45.94119" lon="5.5942">
        <ele>780.8</ele>
        <time>2026-05-13T07:55:24Z</time>
      </trkpt>
      <trkpt lat="45.94117" lon="5.59419">
        <ele>781</ele>
        <time>2026-05-13T07:55:25Z</time>
      </trkpt>
      <trkpt lat="45.94116" lon="5.59417">
        <ele>781</ele>
        <time>2026-05-13T07:55:26Z</time>
      </trkpt>
      <trkpt lat="45.94114" lon="5.59416">
        <ele>781.2</ele>
        <time>2026-05-13T07:55:27Z</time>
      </trkpt>
      <trkpt lat="45.94112" lon="5.59415">
        <ele>781.2</ele>
        <time>2026-05-13T07:55:28Z</time>
      </trkpt>
      <trkpt lat="45.9411" lon="5.59415">
        <ele>781.6</ele>
        <time>2026-05-13T07:55:29Z</time>
      </trkpt>
      <trkpt lat="45.94109" lon="5.59414">
        <ele>781.8</ele>
        <time>2026-05-13T07:55:30Z</time>
      </trkpt>
      <trkpt lat="45.94107" lon="5.59414">
        <ele>781.8</ele>
        <time>2026-05-13T07:55:31Z</time>
      </trkpt>
      <trkpt lat="45.94105" lon="5.59414">
        <ele>782.2</ele>
        <time>2026-05-13T07:55:32Z</time>
      </trkpt>
      <trkpt lat="45.94103" lon="5.59414">
        <ele>782.4</ele>
        <time>2026-05-13T07:55:33Z</time>
      </trkpt>
      <trkpt lat="45.94101" lon="5.59414">
        <ele>782.4</ele>
        <time>2026-05-13T07:55:34Z</time>
      </trkpt>
      <trkpt lat="45.941" lon="5.59415">
        <ele>782.8</ele>
        <time>2026-05-13T07:55:35Z</time>
      </trkpt>
      <trkpt lat="45.94098" lon="5.59414">
        <ele>782.8</ele>
        <time>2026-05-13T07:55:36Z</time>
      </trkpt>
      <trkpt lat="45.94096" lon="5.59414">
        <ele>783</ele>
        <time>2026-05-13T07:55:37Z</time>
      </trkpt>
      <trkpt lat="45.94095" lon="5.59415">
        <ele>783.2</ele>
        <time>2026-05-13T07:55:38Z</time>
      </trkpt>
      <trkpt lat="45.94094" lon="5.59415">
        <ele>783.2</ele>
        <time>2026-05-13T07:55:39Z</time>
      </trkpt>
      <trkpt lat="45.94092" lon="5.59415">
        <ele>783.6</ele>
        <time>2026-05-13T07:55:40Z</time>
      </trkpt>
      <trkpt lat="45.9409" lon="5.59415">
        <ele>783.6</ele>
        <time>2026-05-13T07:55:41Z</time>
      </trkpt>
      <trkpt lat="45.94089" lon="5.59415">
        <ele>783.8</ele>
        <time>2026-05-13T07:55:42Z</time>
      </trkpt>
      <trkpt lat="45.94087" lon="5.59415">
        <ele>784</ele>
        <time>2026-05-13T07:55:43Z</time>
      </trkpt>
      <trkpt lat="45.94085" lon="5.59414">
        <ele>784.2</ele>
        <time>2026-05-13T07:55:44Z</time>
      </trkpt>
      <trkpt lat="45.94084" lon="5.59414">
        <ele>784.4</ele>
        <time>2026-05-13T07:55:45Z</time>
      </trkpt>
      <trkpt lat="45.94082" lon="5.59414">
        <ele>784.6</ele>
        <time>2026-05-13T07:55:46Z</time>
      </trkpt>
      <trkpt lat="45.94081" lon="5.59414">
        <ele>784.8</ele>
        <time>2026-05-13T07:55:47Z</time>
      </trkpt>
      <trkpt lat="45.94079" lon="5.59413">
        <ele>784.8</ele>
        <time>2026-05-13T07:55:48Z</time>
      </trkpt>
      <trkpt lat="45.94077" lon="5.59414">
        <ele>785.2</ele>
        <time>2026-05-13T07:55:49Z</time>
      </trkpt>
      <trkpt lat="45.94076" lon="5.59414">
        <ele>785.2</ele>
        <time>2026-05-13T07:55:50Z</time>
      </trkpt>
      <trkpt lat="45.94074" lon="5.59414">
        <ele>785.2</ele>
        <time>2026-05-13T07:55:51Z</time>
      </trkpt>
      <trkpt lat="45.94072" lon="5.59415">
        <ele>785.8</ele>
        <time>2026-05-13T07:55:52Z</time>
      </trkpt>
      <trkpt lat="45.9407" lon="5.59415">
        <ele>786</ele>
        <time>2026-05-13T07:55:53Z</time>
      </trkpt>
      <trkpt lat="45.94068" lon="5.59415">
        <ele>786.2</ele>
        <time>2026-05-13T07:55:54Z</time>
      </trkpt>
      <trkpt lat="45.94066" lon="5.59415">
        <ele>786.2</ele>
        <time>2026-05-13T07:55:55Z</time>
      </trkpt>
      <trkpt lat="45.94064" lon="5.59415">
        <ele>786.6</ele>
        <time>2026-05-13T07:55:56Z</time>
      </trkpt>
      <trkpt lat="45.94062" lon="5.59414">
        <ele>786.6</ele>
        <time>2026-05-13T07:55:57Z</time>
      </trkpt>
      <trkpt lat="45.9406" lon="5.59414">
        <ele>786.8</ele>
        <time>2026-05-13T07:55:58Z</time>
      </trkpt>
      <trkpt lat="45.94058" lon="5.59414">
        <ele>786.8</ele>
        <time>2026-05-13T07:55:59Z</time>
      </trkpt>
      <trkpt lat="45.94056" lon="5.59413">
        <ele>787</ele>
        <time>2026-05-13T07:56:00Z</time>
      </trkpt>
      <trkpt lat="45.94054" lon="5.59413">
        <ele>787.2</ele>
        <time>2026-05-13T07:56:01Z</time>
      </trkpt>
      <trkpt lat="45.94052" lon="5.59413">
        <ele>787.2</ele>
        <time>2026-05-13T07:56:02Z</time>
      </trkpt>
      <trkpt lat="45.9405" lon="5.59412">
        <ele>787.6</ele>
        <time>2026-05-13T07:56:03Z</time>
      </trkpt>
      <trkpt lat="45.94048" lon="5.59412">
        <ele>787.6</ele>
        <time>2026-05-13T07:56:04Z</time>
      </trkpt>
      <trkpt lat="45.94046" lon="5.59412">
        <ele>787.8</ele>
        <time>2026-05-13T07:56:05Z</time>
      </trkpt>
      <trkpt lat="45.94044" lon="5.59412">
        <ele>787.8</ele>
        <time>2026-05-13T07:56:06Z</time>
      </trkpt>
      <trkpt lat="45.94042" lon="5.59411">
        <ele>788</ele>
        <time>2026-05-13T07:56:07Z</time>
      </trkpt>
      <trkpt lat="45.9404" lon="5.59411">
        <ele>788</ele>
        <time>2026-05-13T07:56:08Z</time>
      </trkpt>
      <trkpt lat="45.94038" lon="5.59411">
        <ele>788</ele>
        <time>2026-05-13T07:56:09Z</time>
      </trkpt>
      <trkpt lat="45.94036" lon="5.59411">
        <ele>788</ele>
        <time>2026-05-13T07:56:10Z</time>
      </trkpt>
      <trkpt lat="45.94034" lon="5.5941">
        <ele>788</ele>
        <time>2026-05-13T07:56:11Z</time>
      </trkpt>
      <trkpt lat="45.94032" lon="5.5941">
        <ele>788.4</ele>
        <time>2026-05-13T07:56:12Z</time>
      </trkpt>
      <trkpt lat="45.9403" lon="5.5941">
        <ele>788.4</ele>
        <time>2026-05-13T07:56:13Z</time>
      </trkpt>
      <trkpt lat="45.94027" lon="5.59409">
        <ele>788.6</ele>
        <time>2026-05-13T07:56:14Z</time>
      </trkpt>
      <trkpt lat="45.94026" lon="5.59409">
        <ele>788.6</ele>
        <time>2026-05-13T07:56:15Z</time>
      </trkpt>
      <trkpt lat="45.94024" lon="5.59408">
        <ele>788.8</ele>
        <time>2026-05-13T07:56:16Z</time>
      </trkpt>
      <trkpt lat="45.94021" lon="5.59407">
        <ele>788.8</ele>
        <time>2026-05-13T07:56:17Z</time>
      </trkpt>
      <trkpt lat="45.94019" lon="5.59406">
        <ele>788.8</ele>
        <time>2026-05-13T07:56:18Z</time>
      </trkpt>
      <trkpt lat="45.94016" lon="5.59405">
        <ele>789.2</ele>
        <time>2026-05-13T07:56:19Z</time>
      </trkpt>
      <trkpt lat="45.94013" lon="5.59405">
        <ele>789.2</ele>
        <time>2026-05-13T07:56:20Z</time>
      </trkpt>
      <trkpt lat="45.94011" lon="5.59404">
        <ele>789.2</ele>
        <time>2026-05-13T07:56:21Z</time>
      </trkpt>
      <trkpt lat="45.94008" lon="5.59403">
        <ele>789.2</ele>
        <time>2026-05-13T07:56:22Z</time>
      </trkpt>
      <trkpt lat="45.94005" lon="5.59403">
        <ele>789.2</ele>
        <time>2026-05-13T07:56:23Z</time>
      </trkpt>
      <trkpt lat="45.94002" lon="5.59403">
        <ele>789.4</ele>
        <time>2026-05-13T07:56:24Z</time>
      </trkpt>
      <trkpt lat="45.94" lon="5.59403">
        <ele>789.4</ele>
        <time>2026-05-13T07:56:25Z</time>
      </trkpt>
      <trkpt lat="45.93997" lon="5.59403">
        <ele>789.4</ele>
        <time>2026-05-13T07:56:26Z</time>
      </trkpt>
      <trkpt lat="45.93994" lon="5.59402">
        <ele>789.4</ele>
        <time>2026-05-13T07:56:27Z</time>
      </trkpt>
      <trkpt lat="45.93991" lon="5.59402">
        <ele>789.4</ele>
        <time>2026-05-13T07:56:28Z</time>
      </trkpt>
      <trkpt lat="45.93988" lon="5.59402">
        <ele>789.6</ele>
        <time>2026-05-13T07:56:29Z</time>
      </trkpt>
      <trkpt lat="45.93986" lon="5.59402">
        <ele>789.6</ele>
        <time>2026-05-13T07:56:30Z</time>
      </trkpt>
      <trkpt lat="45.93983" lon="5.59402">
        <ele>789.6</ele>
        <time>2026-05-13T07:56:31Z</time>
      </trkpt>
      <trkpt lat="45.93981" lon="5.59401">
        <ele>789.6</ele>
        <time>2026-05-13T07:56:32Z</time>
      </trkpt>
      <trkpt lat="45.93979" lon="5.59401">
        <ele>789.6</ele>
        <time>2026-05-13T07:56:33Z</time>
      </trkpt>
      <trkpt lat="45.93977" lon="5.59401">
        <ele>789.8</ele>
        <time>2026-05-13T07:56:34Z</time>
      </trkpt>
      <trkpt lat="45.93975" lon="5.59401">
        <ele>789.8</ele>
        <time>2026-05-13T07:56:35Z</time>
      </trkpt>
      <trkpt lat="45.93974" lon="5.59401">
        <ele>790</ele>
        <time>2026-05-13T07:56:36Z</time>
      </trkpt>
      <trkpt lat="45.93972" lon="5.59401">
        <ele>790</ele>
        <time>2026-05-13T07:56:37Z</time>
      </trkpt>
      <trkpt lat="45.9397" lon="5.59401">
        <ele>790</ele>
        <time>2026-05-13T07:56:38Z</time>
      </trkpt>
      <trkpt lat="45.93968" lon="5.59401">
        <ele>790.2</ele>
        <time>2026-05-13T07:56:39Z</time>
      </trkpt>
      <trkpt lat="45.93966" lon="5.59402">
        <ele>790.2</ele>
        <time>2026-05-13T07:56:40Z</time>
      </trkpt>
      <trkpt lat="45.93963" lon="5.59403">
        <ele>790.2</ele>
        <time>2026-05-13T07:56:41Z</time>
      </trkpt>
      <trkpt lat="45.93961" lon="5.59404">
        <ele>790.6</ele>
        <time>2026-05-13T07:56:42Z</time>
      </trkpt>
      <trkpt lat="45.93959" lon="5.59405">
        <ele>790.6</ele>
        <time>2026-05-13T07:56:43Z</time>
      </trkpt>
      <trkpt lat="45.93956" lon="5.59406">
        <ele>790.6</ele>
        <time>2026-05-13T07:56:44Z</time>
      </trkpt>
      <trkpt lat="45.93954" lon="5.59407">
        <ele>790.6</ele>
        <time>2026-05-13T07:56:45Z</time>
      </trkpt>
      <trkpt lat="45.93951" lon="5.59407">
        <ele>790.6</ele>
        <time>2026-05-13T07:56:46Z</time>
      </trkpt>
      <trkpt lat="45.93948" lon="5.59407">
        <ele>790.6</ele>
        <time>2026-05-13T07:56:47Z</time>
      </trkpt>
      <trkpt lat="45.93945" lon="5.59408">
        <ele>790.8</ele>
        <time>2026-05-13T07:56:48Z</time>
      </trkpt>
      <trkpt lat="45.93943" lon="5.59408">
        <ele>790.8</ele>
        <time>2026-05-13T07:56:49Z</time>
      </trkpt>
      <trkpt lat="45.9394" lon="5.5941">
        <ele>791.4</ele>
        <time>2026-05-13T07:56:50Z</time>
      </trkpt>
      <trkpt lat="45.93937" lon="5.59412">
        <ele>791.4</ele>
        <time>2026-05-13T07:56:51Z</time>
      </trkpt>
      <trkpt lat="45.93935" lon="5.59413">
        <ele>791.8</ele>
        <time>2026-05-13T07:56:52Z</time>
      </trkpt>
      <trkpt lat="45.93932" lon="5.59415">
        <ele>791.8</ele>
        <time>2026-05-13T07:56:53Z</time>
      </trkpt>
      <trkpt lat="45.93929" lon="5.59416">
        <ele>791.8</ele>
        <time>2026-05-13T07:56:54Z</time>
      </trkpt>
      <trkpt lat="45.93926" lon="5.59417">
        <ele>791.8</ele>
        <time>2026-05-13T07:56:55Z</time>
      </trkpt>
      <trkpt lat="45.93924" lon="5.59418">
        <ele>792</ele>
        <time>2026-05-13T07:56:56Z</time>
      </trkpt>
      <trkpt lat="45.93921" lon="5.59419">
        <ele>791.6</ele>
        <time>2026-05-13T07:56:57Z</time>
      </trkpt>
      <trkpt lat="45.93918" lon="5.59419">
        <ele>791.8</ele>
        <time>2026-05-13T07:56:58Z</time>
      </trkpt>
      <trkpt lat="45.93915" lon="5.59418">
        <ele>791.8</ele>
        <time>2026-05-13T07:56:59Z</time>
      </trkpt>
      <trkpt lat="45.93912" lon="5.59416">
        <ele>792.2</ele>
        <time>2026-05-13T07:57:00Z</time>
      </trkpt>
      <trkpt lat="45.9391" lon="5.59414">
        <ele>792.2</ele>
        <time>2026-05-13T07:57:01Z</time>
      </trkpt>
      <trkpt lat="45.93908" lon="5.59413">
        <ele>792.4</ele>
        <time>2026-05-13T07:57:02Z</time>
      </trkpt>
      <trkpt lat="45.93906" lon="5.59411">
        <ele>792.4</ele>
        <time>2026-05-13T07:57:03Z</time>
      </trkpt>
      <trkpt lat="45.93904" lon="5.59409">
        <ele>792.4</ele>
        <time>2026-05-13T07:57:04Z</time>
      </trkpt>
      <trkpt lat="45.93902" lon="5.59408">
        <ele>792.8</ele>
        <time>2026-05-13T07:57:05Z</time>
      </trkpt>
      <trkpt lat="45.939" lon="5.59406">
        <ele>793.2</ele>
        <time>2026-05-13T07:57:06Z</time>
      </trkpt>
      <trkpt lat="45.93898" lon="5.59405">
        <ele>793.4</ele>
        <time>2026-05-13T07:57:07Z</time>
      </trkpt>
      <trkpt lat="45.93896" lon="5.59404">
        <ele>793.6</ele>
        <time>2026-05-13T07:57:08Z</time>
      </trkpt>
      <trkpt lat="45.93894" lon="5.59402">
        <ele>794</ele>
        <time>2026-05-13T07:57:09Z</time>
      </trkpt>
      <trkpt lat="45.93892" lon="5.59401">
        <ele>794.2</ele>
        <time>2026-05-13T07:57:10Z</time>
      </trkpt>
      <trkpt lat="45.9389" lon="5.59399">
        <ele>794.4</ele>
        <time>2026-05-13T07:57:11Z</time>
      </trkpt>
      <trkpt lat="45.93888" lon="5.59398">
        <ele>794.6</ele>
        <time>2026-05-13T07:57:12Z</time>
      </trkpt>
      <trkpt lat="45.93886" lon="5.59397">
        <ele>794.6</ele>
        <time>2026-05-13T07:57:13Z</time>
      </trkpt>
      <trkpt lat="45.93884" lon="5.59396">
        <ele>794.8</ele>
        <time>2026-05-13T07:57:14Z</time>
      </trkpt>
      <trkpt lat="45.93882" lon="5.59394">
        <ele>795.2</ele>
        <time>2026-05-13T07:57:15Z</time>
      </trkpt>
      <trkpt lat="45.9388" lon="5.59393">
        <ele>795.2</ele>
        <time>2026-05-13T07:57:16Z</time>
      </trkpt>
      <trkpt lat="45.93878" lon="5.59392">
        <ele>795.6</ele>
        <time>2026-05-13T07:57:17Z</time>
      </trkpt>
      <trkpt lat="45.93876" lon="5.5939">
        <ele>795.6</ele>
        <time>2026-05-13T07:57:18Z</time>
      </trkpt>
      <trkpt lat="45.93875" lon="5.59389">
        <ele>796</ele>
        <time>2026-05-13T07:57:19Z</time>
      </trkpt>
      <trkpt lat="45.93874" lon="5.59387">
        <ele>796.4</ele>
        <time>2026-05-13T07:57:20Z</time>
      </trkpt>
      <trkpt lat="45.93873" lon="5.59386">
        <ele>796.6</ele>
        <time>2026-05-13T07:57:21Z</time>
      </trkpt>
      <trkpt lat="45.93871" lon="5.59385">
        <ele>797</ele>
        <time>2026-05-13T07:57:22Z</time>
      </trkpt>
      <trkpt lat="45.93869" lon="5.59384">
        <ele>797</ele>
        <time>2026-05-13T07:57:23Z</time>
      </trkpt>
      <trkpt lat="45.93869" lon="5.59384">
        <ele>797.2</ele>
        <time>2026-05-13T07:57:24Z</time>
      </trkpt>
      <trkpt lat="45.93867" lon="5.59383">
        <ele>797.2</ele>
        <time>2026-05-13T07:57:25Z</time>
      </trkpt>
      <trkpt lat="45.93865" lon="5.59383">
        <ele>797.4</ele>
        <time>2026-05-13T07:57:26Z</time>
      </trkpt>
      <trkpt lat="45.93862" lon="5.59382">
        <ele>797.4</ele>
        <time>2026-05-13T07:57:27Z</time>
      </trkpt>
      <trkpt lat="45.9386" lon="5.59382">
        <ele>797.8</ele>
        <time>2026-05-13T07:57:28Z</time>
      </trkpt>
      <trkpt lat="45.93858" lon="5.59381">
        <ele>798</ele>
        <time>2026-05-13T07:57:29Z</time>
      </trkpt>
      <trkpt lat="45.93856" lon="5.5938">
        <ele>798.2</ele>
        <time>2026-05-13T07:57:30Z</time>
      </trkpt>
      <trkpt lat="45.93854" lon="5.5938">
        <ele>798.2</ele>
        <time>2026-05-13T07:57:31Z</time>
      </trkpt>
      <trkpt lat="45.93852" lon="5.59379">
        <ele>798.2</ele>
        <time>2026-05-13T07:57:32Z</time>
      </trkpt>
      <trkpt lat="45.9385" lon="5.59378">
        <ele>798.6</ele>
        <time>2026-05-13T07:57:33Z</time>
      </trkpt>
      <trkpt lat="45.93849" lon="5.59377">
        <ele>798.6</ele>
        <time>2026-05-13T07:57:34Z</time>
      </trkpt>
      <trkpt lat="45.93847" lon="5.59376">
        <ele>798.8</ele>
        <time>2026-05-13T07:57:35Z</time>
      </trkpt>
      <trkpt lat="45.93845" lon="5.59375">
        <ele>799.2</ele>
        <time>2026-05-13T07:57:36Z</time>
      </trkpt>
      <trkpt lat="45.93842" lon="5.59374">
        <ele>799.2</ele>
        <time>2026-05-13T07:57:37Z</time>
      </trkpt>
      <trkpt lat="45.9384" lon="5.59374">
        <ele>799.2</ele>
        <time>2026-05-13T07:57:38Z</time>
      </trkpt>
      <trkpt lat="45.93838" lon="5.59373">
        <ele>799.4</ele>
        <time>2026-05-13T07:57:39Z</time>
      </trkpt>
      <trkpt lat="45.93836" lon="5.59372">
        <ele>799.4</ele>
        <time>2026-05-13T07:57:40Z</time>
      </trkpt>
      <trkpt lat="45.93834" lon="5.59372">
        <ele>800</ele>
        <time>2026-05-13T07:57:41Z</time>
      </trkpt>
      <trkpt lat="45.93832" lon="5.59371">
        <ele>800</ele>
        <time>2026-05-13T07:57:42Z</time>
      </trkpt>
      <trkpt lat="45.9383" lon="5.59371">
        <ele>800.4</ele>
        <time>2026-05-13T07:57:43Z</time>
      </trkpt>
      <trkpt lat="45.93828" lon="5.59371">
        <ele>800.4</ele>
        <time>2026-05-13T07:57:44Z</time>
      </trkpt>
      <trkpt lat="45.93826" lon="5.59371">
        <ele>800.6</ele>
        <time>2026-05-13T07:57:45Z</time>
      </trkpt>
      <trkpt lat="45.93824" lon="5.5937">
        <ele>800.6</ele>
        <time>2026-05-13T07:57:46Z</time>
      </trkpt>
      <trkpt lat="45.93822" lon="5.5937">
        <ele>800.8</ele>
        <time>2026-05-13T07:57:47Z</time>
      </trkpt>
      <trkpt lat="45.9382" lon="5.5937">
        <ele>800.8</ele>
        <time>2026-05-13T07:57:48Z</time>
      </trkpt>
      <trkpt lat="45.93819" lon="5.5937">
        <ele>801.4</ele>
        <time>2026-05-13T07:57:49Z</time>
      </trkpt>
      <trkpt lat="45.93817" lon="5.5937">
        <ele>801.4</ele>
        <time>2026-05-13T07:57:50Z</time>
      </trkpt>
      <trkpt lat="45.93815" lon="5.5937">
        <ele>801.4</ele>
        <time>2026-05-13T07:57:51Z</time>
      </trkpt>
      <trkpt lat="45.93813" lon="5.5937">
        <ele>801.4</ele>
        <time>2026-05-13T07:57:52Z</time>
      </trkpt>
      <trkpt lat="45.93811" lon="5.59369">
        <ele>801.6</ele>
        <time>2026-05-13T07:57:53Z</time>
      </trkpt>
      <trkpt lat="45.93809" lon="5.59369">
        <ele>801.6</ele>
        <time>2026-05-13T07:57:54Z</time>
      </trkpt>
      <trkpt lat="45.93807" lon="5.59369">
        <ele>802</ele>
        <time>2026-05-13T07:57:55Z</time>
      </trkpt>
      <trkpt lat="45.93804" lon="5.59368">
        <ele>802</ele>
        <time>2026-05-13T07:57:56Z</time>
      </trkpt>
      <trkpt lat="45.93803" lon="5.59368">
        <ele>802</ele>
        <time>2026-05-13T07:57:57Z</time>
      </trkpt>
      <trkpt lat="45.938" lon="5.59367">
        <ele>802</ele>
        <time>2026-05-13T07:57:58Z</time>
      </trkpt>
      <trkpt lat="45.93798" lon="5.59365">
        <ele>802</ele>
        <time>2026-05-13T07:57:59Z</time>
      </trkpt>
      <trkpt lat="45.93796" lon="5.59363">
        <ele>802</ele>
        <time>2026-05-13T07:58:00Z</time>
      </trkpt>
      <trkpt lat="45.93794" lon="5.59362">
        <ele>802</ele>
        <time>2026-05-13T07:58:01Z</time>
      </trkpt>
      <trkpt lat="45.93792" lon="5.59361">
        <ele>802</ele>
        <time>2026-05-13T07:58:02Z</time>
      </trkpt>
      <trkpt lat="45.9379" lon="5.5936">
        <ele>802</ele>
        <time>2026-05-13T07:58:03Z</time>
      </trkpt>
      <trkpt lat="45.93788" lon="5.59359">
        <ele>802.2</ele>
        <time>2026-05-13T07:58:04Z</time>
      </trkpt>
      <trkpt lat="45.93787" lon="5.5936">
        <ele>802.2</ele>
        <time>2026-05-13T07:58:05Z</time>
      </trkpt>
      <trkpt lat="45.93786" lon="5.5936">
        <ele>802.2</ele>
        <time>2026-05-13T07:58:06Z</time>
      </trkpt>
      <trkpt lat="45.93786" lon="5.59361">
        <ele>802.2</ele>
        <time>2026-05-13T07:58:07Z</time>
      </trkpt>
      <trkpt lat="45.93784" lon="5.59361">
        <ele>802.6</ele>
        <time>2026-05-13T07:58:08Z</time>
      </trkpt>
      <trkpt lat="45.93783" lon="5.59361">
        <ele>802.6</ele>
        <time>2026-05-13T07:58:09Z</time>
      </trkpt>
      <trkpt lat="45.93781" lon="5.59361">
        <ele>802.6</ele>
        <time>2026-05-13T07:58:10Z</time>
      </trkpt>
      <trkpt lat="45.9378" lon="5.5936">
        <ele>802.6</ele>
        <time>2026-05-13T07:58:11Z</time>
      </trkpt>
      <trkpt lat="45.93779" lon="5.5936">
        <ele>802.6</ele>
        <time>2026-05-13T07:58:12Z</time>
      </trkpt>
      <trkpt lat="45.93777" lon="5.59358">
        <ele>802.6</ele>
        <time>2026-05-13T07:58:13Z</time>
      </trkpt>
      <trkpt lat="45.93775" lon="5.59356">
        <ele>802.6</ele>
        <time>2026-05-13T07:58:14Z</time>
      </trkpt>
      <trkpt lat="45.93774" lon="5.59355">
        <ele>802.6</ele>
        <time>2026-05-13T07:58:15Z</time>
      </trkpt>
      <trkpt lat="45.93772" lon="5.59353">
        <ele>802.8</ele>
        <time>2026-05-13T07:58:16Z</time>
      </trkpt>
      <trkpt lat="45.9377" lon="5.59352">
        <ele>802.8</ele>
        <time>2026-05-13T07:58:17Z</time>
      </trkpt>
      <trkpt lat="45.93768" lon="5.59351">
        <ele>802.8</ele>
        <time>2026-05-13T07:58:18Z</time>
      </trkpt>
      <trkpt lat="45.93767" lon="5.59351">
        <ele>802.8</ele>
        <time>2026-05-13T07:58:19Z</time>
      </trkpt>
      <trkpt lat="45.93766" lon="5.59352">
        <ele>803</ele>
        <time>2026-05-13T07:58:20Z</time>
      </trkpt>
      <trkpt lat="45.93765" lon="5.59353">
        <ele>803</ele>
        <time>2026-05-13T07:58:21Z</time>
      </trkpt>
      <trkpt lat="45.93766" lon="5.59355">
        <ele>803</ele>
        <time>2026-05-13T07:58:22Z</time>
      </trkpt>
      <trkpt lat="45.93767" lon="5.59356">
        <ele>802.8</ele>
        <time>2026-05-13T07:58:23Z</time>
      </trkpt>
      <trkpt lat="45.93768" lon="5.59355">
        <ele>802.8</ele>
        <time>2026-05-13T07:58:24Z</time>
      </trkpt>
      <trkpt lat="45.93768" lon="5.59353">
        <ele>803.2</ele>
        <time>2026-05-13T07:58:25Z</time>
      </trkpt>
      <trkpt lat="45.93768" lon="5.5935">
        <ele>803.2</ele>
        <time>2026-05-13T07:58:26Z</time>
      </trkpt>
      <trkpt lat="45.93766" lon="5.59348">
        <ele>803.4</ele>
        <time>2026-05-13T07:58:27Z</time>
      </trkpt>
      <trkpt lat="45.93763" lon="5.59347">
        <ele>803.4</ele>
        <time>2026-05-13T07:58:28Z</time>
      </trkpt>
      <trkpt lat="45.93761" lon="5.59347">
        <ele>803.4</ele>
        <time>2026-05-13T07:58:29Z</time>
      </trkpt>
      <trkpt lat="45.93758" lon="5.59345">
        <ele>803.4</ele>
        <time>2026-05-13T07:58:30Z</time>
      </trkpt>
      <trkpt lat="45.93756" lon="5.59344">
        <ele>803.8</ele>
        <time>2026-05-13T07:58:31Z</time>
      </trkpt>
      <trkpt lat="45.93753" lon="5.59342">
        <ele>803.8</ele>
        <time>2026-05-13T07:58:32Z</time>
      </trkpt>
      <trkpt lat="45.93748" lon="5.59341">
        <ele>803.8</ele>
        <time>2026-05-13T07:58:33Z</time>
      </trkpt>
      <trkpt lat="45.93745" lon="5.5934">
        <ele>803.8</ele>
        <time>2026-05-13T07:58:34Z</time>
      </trkpt>
      <trkpt lat="45.93742" lon="5.59339">
        <ele>803.8</ele>
        <time>2026-05-13T07:58:35Z</time>
      </trkpt>
      <trkpt lat="45.93738" lon="5.59337">
        <ele>803.8</ele>
        <time>2026-05-13T07:58:36Z</time>
      </trkpt>
      <trkpt lat="45.93735" lon="5.59335">
        <ele>803.8</ele>
        <time>2026-05-13T07:58:37Z</time>
      </trkpt>
      <trkpt lat="45.93733" lon="5.59334">
        <ele>803.8</ele>
        <time>2026-05-13T07:58:38Z</time>
      </trkpt>
      <trkpt lat="45.9373" lon="5.59332">
        <ele>804</ele>
        <time>2026-05-13T07:58:39Z</time>
      </trkpt>
      <trkpt lat="45.93727" lon="5.5933">
        <ele>804.2</ele>
        <time>2026-05-13T07:58:40Z</time>
      </trkpt>
      <trkpt lat="45.93724" lon="5.59328">
        <ele>804.2</ele>
        <time>2026-05-13T07:58:41Z</time>
      </trkpt>
      <trkpt lat="45.93721" lon="5.59327">
        <ele>804.6</ele>
        <time>2026-05-13T07:58:42Z</time>
      </trkpt>
      <trkpt lat="45.93718" lon="5.59324">
        <ele>804.6</ele>
        <time>2026-05-13T07:58:43Z</time>
      </trkpt>
      <trkpt lat="45.93715" lon="5.59323">
        <ele>804.6</ele>
        <time>2026-05-13T07:58:44Z</time>
      </trkpt>
      <trkpt lat="45.93712" lon="5.59321">
        <ele>804.6</ele>
        <time>2026-05-13T07:58:45Z</time>
      </trkpt>
      <trkpt lat="45.93709" lon="5.5932">
        <ele>804.6</ele>
        <time>2026-05-13T07:58:46Z</time>
      </trkpt>
      <trkpt lat="45.93706" lon="5.59319">
        <ele>804.6</ele>
        <time>2026-05-13T07:58:47Z</time>
      </trkpt>
      <trkpt lat="45.93703" lon="5.59318">
        <ele>804.6</ele>
        <time>2026-05-13T07:58:48Z</time>
      </trkpt>
      <trkpt lat="45.93701" lon="5.59318">
        <ele>804.6</ele>
        <time>2026-05-13T07:58:49Z</time>
      </trkpt>
      <trkpt lat="45.93699" lon="5.59317">
        <ele>804.6</ele>
        <time>2026-05-13T07:58:50Z</time>
      </trkpt>
      <trkpt lat="45.93697" lon="5.59316">
        <ele>804.6</ele>
        <time>2026-05-13T07:58:51Z</time>
      </trkpt>
      <trkpt lat="45.93694" lon="5.59315">
        <ele>804.6</ele>
        <time>2026-05-13T07:58:52Z</time>
      </trkpt>
      <trkpt lat="45.93692" lon="5.59314">
        <ele>804.6</ele>
        <time>2026-05-13T07:58:53Z</time>
      </trkpt>
      <trkpt lat="45.93689" lon="5.59314">
        <ele>804.6</ele>
        <time>2026-05-13T07:58:54Z</time>
      </trkpt>
      <trkpt lat="45.93686" lon="5.59314">
        <ele>804.6</ele>
        <time>2026-05-13T07:58:55Z</time>
      </trkpt>
      <trkpt lat="45.93683" lon="5.59314">
        <ele>804.6</ele>
        <time>2026-05-13T07:58:56Z</time>
      </trkpt>
      <trkpt lat="45.93681" lon="5.59313">
        <ele>804.6</ele>
        <time>2026-05-13T07:58:57Z</time>
      </trkpt>
      <trkpt lat="45.93677" lon="5.59313">
        <ele>804.6</ele>
        <time>2026-05-13T07:58:58Z</time>
      </trkpt>
      <trkpt lat="45.93674" lon="5.59312">
        <ele>804.6</ele>
        <time>2026-05-13T07:58:59Z</time>
      </trkpt>
      <trkpt lat="45.93671" lon="5.59312">
        <ele>804.6</ele>
        <time>2026-05-13T07:59:00Z</time>
      </trkpt>
      <trkpt lat="45.93668" lon="5.59312">
        <ele>804.6</ele>
        <time>2026-05-13T07:59:01Z</time>
      </trkpt>
      <trkpt lat="45.93664" lon="5.59311">
        <ele>804.6</ele>
        <time>2026-05-13T07:59:02Z</time>
      </trkpt>
      <trkpt lat="45.93661" lon="5.5931">
        <ele>804.6</ele>
        <time>2026-05-13T07:59:03Z</time>
      </trkpt>
      <trkpt lat="45.93659" lon="5.5931">
        <ele>804.6</ele>
        <time>2026-05-13T07:59:04Z</time>
      </trkpt>
      <trkpt lat="45.93656" lon="5.59309">
        <ele>804.6</ele>
        <time>2026-05-13T07:59:05Z</time>
      </trkpt>
      <trkpt lat="45.93654" lon="5.59309">
        <ele>804.6</ele>
        <time>2026-05-13T07:59:06Z</time>
      </trkpt>
      <trkpt lat="45.93653" lon="5.59309">
        <ele>804.6</ele>
        <time>2026-05-13T07:59:07Z</time>
      </trkpt>
      <trkpt lat="45.93653" lon="5.59309">
        <ele>804.6</ele>
        <time>2026-05-13T07:59:08Z</time>
      </trkpt>
      <trkpt lat="45.93653" lon="5.59309">
        <ele>804.6</ele>
        <time>2026-05-13T07:59:09Z</time>
      </trkpt>
      <trkpt lat="45.9365" lon="5.59311">
        <ele>804.6</ele>
        <time>2026-05-13T07:59:51Z</time>
      </trkpt>
      <trkpt lat="45.93649" lon="5.59311">
        <ele>804.6</ele>
        <time>2026-05-13T07:59:52Z</time>
      </trkpt>
      <trkpt lat="45.93648" lon="5.5931">
        <ele>804.2</ele>
        <time>2026-05-13T07:59:53Z</time>
      </trkpt>
      <trkpt lat="45.93646" lon="5.5931">
        <ele>804.2</ele>
        <time>2026-05-13T07:59:54Z</time>
      </trkpt>
      <trkpt lat="45.93645" lon="5.59309">
        <ele>804.2</ele>
        <time>2026-05-13T07:59:55Z</time>
      </trkpt>
      <trkpt lat="45.93644" lon="5.59309">
        <ele>804.2</ele>
        <time>2026-05-13T07:59:56Z</time>
      </trkpt>
      <trkpt lat="45.93643" lon="5.59308">
        <ele>804.2</ele>
        <time>2026-05-13T07:59:57Z</time>
      </trkpt>
      <trkpt lat="45.93642" lon="5.59308">
        <ele>804.2</ele>
        <time>2026-05-13T07:59:58Z</time>
      </trkpt>
      <trkpt lat="45.9364" lon="5.59307">
        <ele>804.2</ele>
        <time>2026-05-13T07:59:59Z</time>
      </trkpt>
      <trkpt lat="45.93639" lon="5.59306">
        <ele>804.2</ele>
        <time>2026-05-13T08:00:00Z</time>
      </trkpt>
      <trkpt lat="45.93638" lon="5.59305">
        <ele>804.6</ele>
        <time>2026-05-13T08:00:01Z</time>
      </trkpt>
      <trkpt lat="45.93637" lon="5.59305">
        <ele>804.6</ele>
        <time>2026-05-13T08:00:02Z</time>
      </trkpt>
      <trkpt lat="45.93635" lon="5.59304">
        <ele>804.6</ele>
        <time>2026-05-13T08:00:03Z</time>
      </trkpt>
      <trkpt lat="45.93635" lon="5.59304">
        <ele>804.6</ele>
        <time>2026-05-13T08:00:04Z</time>
      </trkpt>
      <trkpt lat="45.93635" lon="5.59303">
        <ele>804.6</ele>
        <time>2026-05-13T08:00:05Z</time>
      </trkpt>
      <trkpt lat="45.93635" lon="5.59304">
        <ele>804.6</ele>
        <time>2026-05-13T08:00:06Z</time>
      </trkpt>
      <trkpt lat="45.93636" lon="5.59303">
        <ele>804.4</ele>
        <time>2026-05-13T08:00:24Z</time>
      </trkpt>
      <trkpt lat="45.93637" lon="5.59303">
        <ele>804.4</ele>
        <time>2026-05-13T08:00:25Z</time>
      </trkpt>
      <trkpt lat="45.93637" lon="5.59303">
        <ele>804.4</ele>
        <time>2026-05-13T08:00:26Z</time>
      </trkpt>
      <trkpt lat="45.9364" lon="5.59304">
        <ele>804.4</ele>
        <time>2026-05-13T08:02:13Z</time>
      </trkpt>
      <trkpt lat="45.9364" lon="5.59304">
        <ele>804.4</ele>
        <time>2026-05-13T08:02:14Z</time>
      </trkpt>
      <trkpt lat="45.9364" lon="5.59304">
        <ele>804.4</ele>
        <time>2026-05-13T08:02:15Z</time>
      </trkpt>
      <trkpt lat="45.93638" lon="5.59303">
        <ele>804.6</ele>
        <time>2026-05-13T08:06:26Z</time>
      </trkpt>
      <trkpt lat="45.93638" lon="5.59304">
        <ele>804.6</ele>
        <time>2026-05-13T08:06:27Z</time>
      </trkpt>
      <trkpt lat="45.93637" lon="5.59304">
        <ele>804.4</ele>
        <time>2026-05-13T08:06:28Z</time>
      </trkpt>
      <trkpt lat="45.93637" lon="5.59304">
        <ele>804.4</ele>
        <time>2026-05-13T08:06:29Z</time>
      </trkpt>
      <trkpt lat="45.93637" lon="5.59305">
        <ele>804.4</ele>
        <time>2026-05-13T08:06:30Z</time>
      </trkpt>
      <trkpt lat="45.93637" lon="5.59305">
        <ele>804.4</ele>
        <time>2026-05-13T08:06:31Z</time>
      </trkpt>
      <trkpt lat="45.93636" lon="5.59305">
        <ele>804.4</ele>
        <time>2026-05-13T08:06:32Z</time>
      </trkpt>
      <trkpt lat="45.93634" lon="5.59306">
        <ele>804.2</ele>
        <time>2026-05-13T08:06:33Z</time>
      </trkpt>
      <trkpt lat="45.93632" lon="5.59306">
        <ele>804.2</ele>
        <time>2026-05-13T08:06:34Z</time>
      </trkpt>
      <trkpt lat="45.9363" lon="5.59306">
        <ele>804.2</ele>
        <time>2026-05-13T08:06:35Z</time>
      </trkpt>
      <trkpt lat="45.93627" lon="5.59306">
        <ele>804.2</ele>
        <time>2026-05-13T08:06:36Z</time>
      </trkpt>
      <trkpt lat="45.93625" lon="5.59306">
        <ele>804.2</ele>
        <time>2026-05-13T08:06:37Z</time>
      </trkpt>
      <trkpt lat="45.93622" lon="5.59306">
        <ele>804.2</ele>
        <time>2026-05-13T08:06:38Z</time>
      </trkpt>
      <trkpt lat="45.9362" lon="5.59306">
        <ele>804.2</ele>
        <time>2026-05-13T08:06:39Z</time>
      </trkpt>
      <trkpt lat="45.93618" lon="5.59306">
        <ele>804.2</ele>
        <time>2026-05-13T08:06:40Z</time>
      </trkpt>
      <trkpt lat="45.93616" lon="5.59306">
        <ele>804.6</ele>
        <time>2026-05-13T08:06:41Z</time>
      </trkpt>
      <trkpt lat="45.93613" lon="5.59305">
        <ele>804.6</ele>
        <time>2026-05-13T08:06:42Z</time>
      </trkpt>
      <trkpt lat="45.9361" lon="5.59305">
        <ele>804.6</ele>
        <time>2026-05-13T08:06:43Z</time>
      </trkpt>
      <trkpt lat="45.93607" lon="5.59305">
        <ele>804.6</ele>
        <time>2026-05-13T08:06:44Z</time>
      </trkpt>
      <trkpt lat="45.93604" lon="5.59306">
        <ele>804.6</ele>
        <time>2026-05-13T08:06:45Z</time>
      </trkpt>
      <trkpt lat="45.93601" lon="5.59308">
        <ele>804.6</ele>
        <time>2026-05-13T08:06:46Z</time>
      </trkpt>
      <trkpt lat="45.93599" lon="5.59309">
        <ele>804.6</ele>
        <time>2026-05-13T08:06:47Z</time>
      </trkpt>
      <trkpt lat="45.93597" lon="5.5931">
        <ele>804.6</ele>
        <time>2026-05-13T08:06:48Z</time>
      </trkpt>
      <trkpt lat="45.93595" lon="5.5931">
        <ele>804.6</ele>
        <time>2026-05-13T08:06:49Z</time>
      </trkpt>
      <trkpt lat="45.93592" lon="5.59311">
        <ele>804.6</ele>
        <time>2026-05-13T08:06:50Z</time>
      </trkpt>
      <trkpt lat="45.93589" lon="5.59311">
        <ele>804.6</ele>
        <time>2026-05-13T08:06:51Z</time>
      </trkpt>
      <trkpt lat="45.93586" lon="5.59312">
        <ele>804.6</ele>
        <time>2026-05-13T08:06:52Z</time>
      </trkpt>
      <trkpt lat="45.93583" lon="5.59312">
        <ele>805</ele>
        <time>2026-05-13T08:06:53Z</time>
      </trkpt>
      <trkpt lat="45.9358" lon="5.59313">
        <ele>805.2</ele>
        <time>2026-05-13T08:06:54Z</time>
      </trkpt>
      <trkpt lat="45.93577" lon="5.59313">
        <ele>805.2</ele>
        <time>2026-05-13T08:06:55Z</time>
      </trkpt>
      <trkpt lat="45.93572" lon="5.59314">
        <ele>805.2</ele>
        <time>2026-05-13T08:06:56Z</time>
      </trkpt>
      <trkpt lat="45.93569" lon="5.59315">
        <ele>805.8</ele>
        <time>2026-05-13T08:06:57Z</time>
      </trkpt>
      <trkpt lat="45.93566" lon="5.59316">
        <ele>805.8</ele>
        <time>2026-05-13T08:06:58Z</time>
      </trkpt>
      <trkpt lat="45.93563" lon="5.59315">
        <ele>806</ele>
        <time>2026-05-13T08:06:59Z</time>
      </trkpt>
      <trkpt lat="45.93561" lon="5.59315">
        <ele>806</ele>
        <time>2026-05-13T08:07:00Z</time>
      </trkpt>
      <trkpt lat="45.93559" lon="5.59314">
        <ele>806</ele>
        <time>2026-05-13T08:07:01Z</time>
      </trkpt>
      <trkpt lat="45.93557" lon="5.59313">
        <ele>806</ele>
        <time>2026-05-13T08:07:02Z</time>
      </trkpt>
      <trkpt lat="45.93555" lon="5.59313">
        <ele>806.4</ele>
        <time>2026-05-13T08:07:03Z</time>
      </trkpt>
      <trkpt lat="45.93553" lon="5.59313">
        <ele>806.4</ele>
        <time>2026-05-13T08:07:04Z</time>
      </trkpt>
      <trkpt lat="45.93551" lon="5.59313">
        <ele>806.8</ele>
        <time>2026-05-13T08:07:05Z</time>
      </trkpt>
      <trkpt lat="45.93549" lon="5.59313">
        <ele>807</ele>
        <time>2026-05-13T08:07:06Z</time>
      </trkpt>
      <trkpt lat="45.93546" lon="5.59313">
        <ele>807</ele>
        <time>2026-05-13T08:07:07Z</time>
      </trkpt>
      <trkpt lat="45.93544" lon="5.59313">
        <ele>807</ele>
        <time>2026-05-13T08:07:08Z</time>
      </trkpt>
      <trkpt lat="45.93542" lon="5.59312">
        <ele>807.2</ele>
        <time>2026-05-13T08:07:09Z</time>
      </trkpt>
      <trkpt lat="45.93539" lon="5.59311">
        <ele>807.6</ele>
        <time>2026-05-13T08:07:10Z</time>
      </trkpt>
      <trkpt lat="45.93537" lon="5.5931">
        <ele>807.8</ele>
        <time>2026-05-13T08:07:11Z</time>
      </trkpt>
      <trkpt lat="45.93536" lon="5.59309">
        <ele>807.8</ele>
        <time>2026-05-13T08:07:12Z</time>
      </trkpt>
      <trkpt lat="45.93533" lon="5.59309">
        <ele>807.8</ele>
        <time>2026-05-13T08:07:13Z</time>
      </trkpt>
      <trkpt lat="45.9353" lon="5.59309">
        <ele>808.2</ele>
        <time>2026-05-13T08:07:14Z</time>
      </trkpt>
      <trkpt lat="45.93528" lon="5.59309">
        <ele>808.4</ele>
        <time>2026-05-13T08:07:15Z</time>
      </trkpt>
      <trkpt lat="45.93527" lon="5.59309">
        <ele>808.4</ele>
        <time>2026-05-13T08:07:16Z</time>
      </trkpt>
      <trkpt lat="45.93525" lon="5.59307">
        <ele>808.8</ele>
        <time>2026-05-13T08:07:17Z</time>
      </trkpt>
      <trkpt lat="45.93522" lon="5.59306">
        <ele>809</ele>
        <time>2026-05-13T08:07:18Z</time>
      </trkpt>
      <trkpt lat="45.93519" lon="5.59306">
        <ele>809.4</ele>
        <time>2026-05-13T08:07:19Z</time>
      </trkpt>
      <trkpt lat="45.93516" lon="5.59307">
        <ele>809.4</ele>
        <time>2026-05-13T08:07:20Z</time>
      </trkpt>
      <trkpt lat="45.93514" lon="5.59308">
        <ele>809.4</ele>
        <time>2026-05-13T08:07:21Z</time>
      </trkpt>
      <trkpt lat="45.93511" lon="5.59308">
        <ele>809.4</ele>
        <time>2026-05-13T08:07:22Z</time>
      </trkpt>
      <trkpt lat="45.93509" lon="5.59308">
        <ele>809.6</ele>
        <time>2026-05-13T08:07:23Z</time>
      </trkpt>
      <trkpt lat="45.93506" lon="5.59308">
        <ele>809.6</ele>
        <time>2026-05-13T08:07:24Z</time>
      </trkpt>
      <trkpt lat="45.93503" lon="5.59308">
        <ele>809.6</ele>
        <time>2026-05-13T08:07:25Z</time>
      </trkpt>
      <trkpt lat="45.935" lon="5.59309">
        <ele>810</ele>
        <time>2026-05-13T08:07:26Z</time>
      </trkpt>
      <trkpt lat="45.93497" lon="5.5931">
        <ele>810</ele>
        <time>2026-05-13T08:07:27Z</time>
      </trkpt>
      <trkpt lat="45.93494" lon="5.5931">
        <ele>810</ele>
        <time>2026-05-13T08:07:28Z</time>
      </trkpt>
      <trkpt lat="45.93492" lon="5.59311">
        <ele>810</ele>
        <time>2026-05-13T08:07:29Z</time>
      </trkpt>
      <trkpt lat="45.9349" lon="5.59312">
        <ele>810.4</ele>
        <time>2026-05-13T08:07:30Z</time>
      </trkpt>
      <trkpt lat="45.93489" lon="5.59312">
        <ele>810.4</ele>
        <time>2026-05-13T08:07:31Z</time>
      </trkpt>
      <trkpt lat="45.93488" lon="5.59313">
        <ele>810.4</ele>
        <time>2026-05-13T08:07:32Z</time>
      </trkpt>
      <trkpt lat="45.93487" lon="5.59313">
        <ele>810.4</ele>
        <time>2026-05-13T08:07:33Z</time>
      </trkpt>
      <trkpt lat="45.93487" lon="5.59313">
        <ele>810.4</ele>
        <time>2026-05-13T08:07:34Z</time>
      </trkpt>
      <trkpt lat="45.93487" lon="5.59314">
        <ele>810.4</ele>
        <time>2026-05-13T08:07:35Z</time>
      </trkpt>
      <trkpt lat="45.93486" lon="5.59312">
        <ele>809.8</ele>
        <time>2026-05-13T08:07:46Z</time>
      </trkpt>
      <trkpt lat="45.93486" lon="5.59311">
        <ele>809.8</ele>
        <time>2026-05-13T08:07:47Z</time>
      </trkpt>
      <trkpt lat="45.93486" lon="5.59312">
        <ele>809.8</ele>
        <time>2026-05-13T08:07:48Z</time>
      </trkpt>
      <trkpt lat="45.93486" lon="5.59312">
        <ele>809.8</ele>
        <time>2026-05-13T08:07:49Z</time>
      </trkpt>
      <trkpt lat="45.93483" lon="5.59311">
        <ele>810.2</ele>
        <time>2026-05-13T08:08:19Z</time>
      </trkpt>
      <trkpt lat="45.9348" lon="5.59311">
        <ele>809.8</ele>
        <time>2026-05-13T08:08:20Z</time>
      </trkpt>
      <trkpt lat="45.93477" lon="5.59312">
        <ele>809.8</ele>
        <time>2026-05-13T08:08:21Z</time>
      </trkpt>
      <trkpt lat="45.93474" lon="5.59312">
        <ele>809.4</ele>
        <time>2026-05-13T08:08:22Z</time>
      </trkpt>
      <trkpt lat="45.93471" lon="5.59312">
        <ele>809.4</ele>
        <time>2026-05-13T08:08:23Z</time>
      </trkpt>
      <trkpt lat="45.93467" lon="5.59312">
        <ele>809.4</ele>
        <time>2026-05-13T08:08:24Z</time>
      </trkpt>
      <trkpt lat="45.93464" lon="5.59313">
        <ele>809.4</ele>
        <time>2026-05-13T08:08:25Z</time>
      </trkpt>
      <trkpt lat="45.9346" lon="5.59313">
        <ele>809.4</ele>
        <time>2026-05-13T08:08:26Z</time>
      </trkpt>
      <trkpt lat="45.93457" lon="5.59313">
        <ele>809.4</ele>
        <time>2026-05-13T08:08:27Z</time>
      </trkpt>
      <trkpt lat="45.93453" lon="5.59313">
        <ele>809.4</ele>
        <time>2026-05-13T08:08:28Z</time>
      </trkpt>
      <trkpt lat="45.93449" lon="5.59313">
        <ele>809.4</ele>
        <time>2026-05-13T08:08:29Z</time>
      </trkpt>
      <trkpt lat="45.93446" lon="5.59314">
        <ele>809.4</ele>
        <time>2026-05-13T08:08:30Z</time>
      </trkpt>
      <trkpt lat="45.93442" lon="5.59314">
        <ele>809.4</ele>
        <time>2026-05-13T08:08:31Z</time>
      </trkpt>
      <trkpt lat="45.93439" lon="5.59315">
        <ele>809.2</ele>
        <time>2026-05-13T08:08:32Z</time>
      </trkpt>
      <trkpt lat="45.93436" lon="5.59315">
        <ele>809.2</ele>
        <time>2026-05-13T08:08:33Z</time>
      </trkpt>
      <trkpt lat="45.93432" lon="5.59316">
        <ele>809.2</ele>
        <time>2026-05-13T08:08:34Z</time>
      </trkpt>
      <trkpt lat="45.93429" lon="5.59317">
        <ele>809.2</ele>
        <time>2026-05-13T08:08:35Z</time>
      </trkpt>
      <trkpt lat="45.93425" lon="5.59318">
        <ele>809.2</ele>
        <time>2026-05-13T08:08:36Z</time>
      </trkpt>
      <trkpt lat="45.93422" lon="5.59319">
        <ele>809.2</ele>
        <time>2026-05-13T08:08:37Z</time>
      </trkpt>
      <trkpt lat="45.93419" lon="5.59319">
        <ele>809.2</ele>
        <time>2026-05-13T08:08:38Z</time>
      </trkpt>
      <trkpt lat="45.93415" lon="5.59319">
        <ele>809.4</ele>
        <time>2026-05-13T08:08:39Z</time>
      </trkpt>
      <trkpt lat="45.93412" lon="5.5932">
        <ele>809.4</ele>
        <time>2026-05-13T08:08:40Z</time>
      </trkpt>
      <trkpt lat="45.93408" lon="5.59321">
        <ele>809.4</ele>
        <time>2026-05-13T08:08:41Z</time>
      </trkpt>
      <trkpt lat="45.93405" lon="5.59321">
        <ele>809.4</ele>
        <time>2026-05-13T08:08:42Z</time>
      </trkpt>
      <trkpt lat="45.93401" lon="5.59322">
        <ele>809.4</ele>
        <time>2026-05-13T08:08:43Z</time>
      </trkpt>
      <trkpt lat="45.93398" lon="5.59323">
        <ele>809.4</ele>
        <time>2026-05-13T08:08:44Z</time>
      </trkpt>
      <trkpt lat="45.93394" lon="5.59324">
        <ele>809.4</ele>
        <time>2026-05-13T08:08:45Z</time>
      </trkpt>
      <trkpt lat="45.93391" lon="5.59326">
        <ele>809.4</ele>
        <time>2026-05-13T08:08:46Z</time>
      </trkpt>
      <trkpt lat="45.93388" lon="5.59328">
        <ele>809.6</ele>
        <time>2026-05-13T08:08:47Z</time>
      </trkpt>
      <trkpt lat="45.93384" lon="5.59329">
        <ele>809.6</ele>
        <time>2026-05-13T08:08:48Z</time>
      </trkpt>
      <trkpt lat="45.93381" lon="5.59331">
        <ele>809.6</ele>
        <time>2026-05-13T08:08:49Z</time>
      </trkpt>
      <trkpt lat="45.93378" lon="5.59332">
        <ele>809.6</ele>
        <time>2026-05-13T08:08:50Z</time>
      </trkpt>
      <trkpt lat="45.93375" lon="5.59333">
        <ele>810</ele>
        <time>2026-05-13T08:08:51Z</time>
      </trkpt>
      <trkpt lat="45.93372" lon="5.59333">
        <ele>810.2</ele>
        <time>2026-05-13T08:08:52Z</time>
      </trkpt>
      <trkpt lat="45.93369" lon="5.59332">
        <ele>810.2</ele>
        <time>2026-05-13T08:08:53Z</time>
      </trkpt>
      <trkpt lat="45.93365" lon="5.59332">
        <ele>810.2</ele>
        <time>2026-05-13T08:08:54Z</time>
      </trkpt>
      <trkpt lat="45.93361" lon="5.59331">
        <ele>810.6</ele>
        <time>2026-05-13T08:08:55Z</time>
      </trkpt>
      <trkpt lat="45.93358" lon="5.59331">
        <ele>810.6</ele>
        <time>2026-05-13T08:08:56Z</time>
      </trkpt>
      <trkpt lat="45.93355" lon="5.5933">
        <ele>811</ele>
        <time>2026-05-13T08:08:57Z</time>
      </trkpt>
      <trkpt lat="45.93352" lon="5.5933">
        <ele>811.4</ele>
        <time>2026-05-13T08:08:58Z</time>
      </trkpt>
      <trkpt lat="45.93349" lon="5.59331">
        <ele>811.4</ele>
        <time>2026-05-13T08:08:59Z</time>
      </trkpt>
      <trkpt lat="45.93346" lon="5.59332">
        <ele>811.6</ele>
        <time>2026-05-13T08:09:00Z</time>
      </trkpt>
      <trkpt lat="45.93343" lon="5.59332">
        <ele>811.8</ele>
        <time>2026-05-13T08:09:01Z</time>
      </trkpt>
      <trkpt lat="45.9334" lon="5.59332">
        <ele>811.8</ele>
        <time>2026-05-13T08:09:02Z</time>
      </trkpt>
      <trkpt lat="45.93337" lon="5.59333">
        <ele>812</ele>
        <time>2026-05-13T08:09:03Z</time>
      </trkpt>
      <trkpt lat="45.93334" lon="5.59335">
        <ele>812.4</ele>
        <time>2026-05-13T08:09:04Z</time>
      </trkpt>
      <trkpt lat="45.93331" lon="5.59336">
        <ele>812.4</ele>
        <time>2026-05-13T08:09:05Z</time>
      </trkpt>
      <trkpt lat="45.93328" lon="5.59338">
        <ele>812.8</ele>
        <time>2026-05-13T08:09:06Z</time>
      </trkpt>
      <trkpt lat="45.93325" lon="5.59339">
        <ele>812.8</ele>
        <time>2026-05-13T08:09:07Z</time>
      </trkpt>
      <trkpt lat="45.93322" lon="5.5934">
        <ele>813.2</ele>
        <time>2026-05-13T08:09:08Z</time>
      </trkpt>
      <trkpt lat="45.93319" lon="5.5934">
        <ele>813.2</ele>
        <time>2026-05-13T08:09:09Z</time>
      </trkpt>
      <trkpt lat="45.93316" lon="5.59341">
        <ele>813.4</ele>
        <time>2026-05-13T08:09:10Z</time>
      </trkpt>
      <trkpt lat="45.93313" lon="5.59341">
        <ele>813.6</ele>
        <time>2026-05-13T08:09:11Z</time>
      </trkpt>
      <trkpt lat="45.9331" lon="5.59341">
        <ele>813.6</ele>
        <time>2026-05-13T08:09:12Z</time>
      </trkpt>
      <trkpt lat="45.93308" lon="5.59342">
        <ele>814</ele>
        <time>2026-05-13T08:09:13Z</time>
      </trkpt>
      <trkpt lat="45.93305" lon="5.59343">
        <ele>814</ele>
        <time>2026-05-13T08:09:14Z</time>
      </trkpt>
      <trkpt lat="45.93302" lon="5.59343">
        <ele>814</ele>
        <time>2026-05-13T08:09:15Z</time>
      </trkpt>
      <trkpt lat="45.93299" lon="5.59343">
        <ele>814.4</ele>
        <time>2026-05-13T08:09:16Z</time>
      </trkpt>
      <trkpt lat="45.93297" lon="5.59343">
        <ele>814.4</ele>
        <time>2026-05-13T08:09:17Z</time>
      </trkpt>
      <trkpt lat="45.93294" lon="5.59343">
        <ele>814.4</ele>
        <time>2026-05-13T08:09:18Z</time>
      </trkpt>
      <trkpt lat="45.93291" lon="5.59343">
        <ele>814.6</ele>
        <time>2026-05-13T08:09:19Z</time>
      </trkpt>
      <trkpt lat="45.93288" lon="5.59343">
        <ele>814.6</ele>
        <time>2026-05-13T08:09:20Z</time>
      </trkpt>
      <trkpt lat="45.93285" lon="5.59344">
        <ele>814.6</ele>
        <time>2026-05-13T08:09:21Z</time>
      </trkpt>
      <trkpt lat="45.93282" lon="5.59344">
        <ele>814.8</ele>
        <time>2026-05-13T08:09:22Z</time>
      </trkpt>
      <trkpt lat="45.93279" lon="5.59344">
        <ele>814.8</ele>
        <time>2026-05-13T08:09:23Z</time>
      </trkpt>
      <trkpt lat="45.93279" lon="5.59344">
        <ele>814.8</ele>
        <time>2026-05-13T08:09:24Z</time>
      </trkpt>
      <trkpt lat="45.93276" lon="5.59345">
        <ele>815.2</ele>
        <time>2026-05-13T08:09:25Z</time>
      </trkpt>
      <trkpt lat="45.93273" lon="5.59346">
        <ele>815.2</ele>
        <time>2026-05-13T08:09:26Z</time>
      </trkpt>
      <trkpt lat="45.9327" lon="5.59348">
        <ele>815.4</ele>
        <time>2026-05-13T08:09:27Z</time>
      </trkpt>
      <trkpt lat="45.93267" lon="5.59348">
        <ele>815.4</ele>
        <time>2026-05-13T08:09:28Z</time>
      </trkpt>
      <trkpt lat="45.93264" lon="5.59349">
        <ele>815.6</ele>
        <time>2026-05-13T08:09:29Z</time>
      </trkpt>
      <trkpt lat="45.93262" lon="5.5935">
        <ele>815.6</ele>
        <time>2026-05-13T08:09:30Z</time>
      </trkpt>
      <trkpt lat="45.93259" lon="5.5935">
        <ele>816</ele>
        <time>2026-05-13T08:09:31Z</time>
      </trkpt>
      <trkpt lat="45.93257" lon="5.59351">
        <ele>816</ele>
        <time>2026-05-13T08:09:32Z</time>
      </trkpt>
      <trkpt lat="45.93254" lon="5.59352">
        <ele>816</ele>
        <time>2026-05-13T08:09:33Z</time>
      </trkpt>
      <trkpt lat="45.93252" lon="5.59353">
        <ele>816.4</ele>
        <time>2026-05-13T08:09:34Z</time>
      </trkpt>
      <trkpt lat="45.93249" lon="5.59353">
        <ele>816.6</ele>
        <time>2026-05-13T08:09:35Z</time>
      </trkpt>
      <trkpt lat="45.93247" lon="5.59354">
        <ele>816.6</ele>
        <time>2026-05-13T08:09:36Z</time>
      </trkpt>
      <trkpt lat="45.93244" lon="5.59355">
        <ele>816.6</ele>
        <time>2026-05-13T08:09:37Z</time>
      </trkpt>
      <trkpt lat="45.93242" lon="5.59355">
        <ele>816.8</ele>
        <time>2026-05-13T08:09:38Z</time>
      </trkpt>
      <trkpt lat="45.93239" lon="5.59355">
        <ele>816.8</ele>
        <time>2026-05-13T08:09:39Z</time>
      </trkpt>
      <trkpt lat="45.93237" lon="5.59356">
        <ele>817</ele>
        <time>2026-05-13T08:09:40Z</time>
      </trkpt>
      <trkpt lat="45.93235" lon="5.59356">
        <ele>817.4</ele>
        <time>2026-05-13T08:09:41Z</time>
      </trkpt>
      <trkpt lat="45.93232" lon="5.59357">
        <ele>817.4</ele>
        <time>2026-05-13T08:09:42Z</time>
      </trkpt>
      <trkpt lat="45.9323" lon="5.59357">
        <ele>817.8</ele>
        <time>2026-05-13T08:09:43Z</time>
      </trkpt>
      <trkpt lat="45.93228" lon="5.59358">
        <ele>817.8</ele>
        <time>2026-05-13T08:09:44Z</time>
      </trkpt>
      <trkpt lat="45.93226" lon="5.59359">
        <ele>818.2</ele>
        <time>2026-05-13T08:09:45Z</time>
      </trkpt>
      <trkpt lat="45.93223" lon="5.5936">
        <ele>818.2</ele>
        <time>2026-05-13T08:09:46Z</time>
      </trkpt>
      <trkpt lat="45.93221" lon="5.59361">
        <ele>818.6</ele>
        <time>2026-05-13T08:09:47Z</time>
      </trkpt>
      <trkpt lat="45.93219" lon="5.59361">
        <ele>818.6</ele>
        <time>2026-05-13T08:09:48Z</time>
      </trkpt>
      <trkpt lat="45.93217" lon="5.59361">
        <ele>819</ele>
        <time>2026-05-13T08:09:49Z</time>
      </trkpt>
      <trkpt lat="45.93215" lon="5.59362">
        <ele>819.2</ele>
        <time>2026-05-13T08:09:50Z</time>
      </trkpt>
      <trkpt lat="45.93213" lon="5.59362">
        <ele>819.2</ele>
        <time>2026-05-13T08:09:51Z</time>
      </trkpt>
      <trkpt lat="45.93211" lon="5.59362">
        <ele>819.4</ele>
        <time>2026-05-13T08:09:52Z</time>
      </trkpt>
      <trkpt lat="45.93209" lon="5.59362">
        <ele>819.4</ele>
        <time>2026-05-13T08:09:53Z</time>
      </trkpt>
      <trkpt lat="45.93206" lon="5.59362">
        <ele>819.8</ele>
        <time>2026-05-13T08:09:54Z</time>
      </trkpt>
      <trkpt lat="45.93204" lon="5.59362">
        <ele>819.8</ele>
        <time>2026-05-13T08:09:55Z</time>
      </trkpt>
      <trkpt lat="45.93202" lon="5.59363">
        <ele>820</ele>
        <time>2026-05-13T08:09:56Z</time>
      </trkpt>
      <trkpt lat="45.932" lon="5.59363">
        <ele>820</ele>
        <time>2026-05-13T08:09:57Z</time>
      </trkpt>
      <trkpt lat="45.93198" lon="5.59363">
        <ele>820.2</ele>
        <time>2026-05-13T08:09:58Z</time>
      </trkpt>
      <trkpt lat="45.93197" lon="5.59363">
        <ele>820.2</ele>
        <time>2026-05-13T08:09:59Z</time>
      </trkpt>
      <trkpt lat="45.93195" lon="5.59363">
        <ele>820.6</ele>
        <time>2026-05-13T08:10:00Z</time>
      </trkpt>
      <trkpt lat="45.93193" lon="5.59363">
        <ele>820.6</ele>
        <time>2026-05-13T08:10:01Z</time>
      </trkpt>
      <trkpt lat="45.9319" lon="5.59363">
        <ele>821</ele>
        <time>2026-05-13T08:10:02Z</time>
      </trkpt>
      <trkpt lat="45.93189" lon="5.59363">
        <ele>821.2</ele>
        <time>2026-05-13T08:10:03Z</time>
      </trkpt>
      <trkpt lat="45.93187" lon="5.59363">
        <ele>821.2</ele>
        <time>2026-05-13T08:10:04Z</time>
      </trkpt>
      <trkpt lat="45.93186" lon="5.59362">
        <ele>821.6</ele>
        <time>2026-05-13T08:10:05Z</time>
      </trkpt>
      <trkpt lat="45.93184" lon="5.59362">
        <ele>821.6</ele>
        <time>2026-05-13T08:10:06Z</time>
      </trkpt>
      <trkpt lat="45.93182" lon="5.59361">
        <ele>821.8</ele>
        <time>2026-05-13T08:10:07Z</time>
      </trkpt>
      <trkpt lat="45.93181" lon="5.5936">
        <ele>822.2</ele>
        <time>2026-05-13T08:10:08Z</time>
      </trkpt>
      <trkpt lat="45.93179" lon="5.5936">
        <ele>822.2</ele>
        <time>2026-05-13T08:10:09Z</time>
      </trkpt>
      <trkpt lat="45.93178" lon="5.5936">
        <ele>822.4</ele>
        <time>2026-05-13T08:10:10Z</time>
      </trkpt>
      <trkpt lat="45.93175" lon="5.59359">
        <ele>822.6</ele>
        <time>2026-05-13T08:10:11Z</time>
      </trkpt>
      <trkpt lat="45.93173" lon="5.59359">
        <ele>822.8</ele>
        <time>2026-05-13T08:10:12Z</time>
      </trkpt>
      <trkpt lat="45.93172" lon="5.59358">
        <ele>823.2</ele>
        <time>2026-05-13T08:10:13Z</time>
      </trkpt>
      <trkpt lat="45.93171" lon="5.59358">
        <ele>823.2</ele>
        <time>2026-05-13T08:10:14Z</time>
      </trkpt>
      <trkpt lat="45.93168" lon="5.59357">
        <ele>823.6</ele>
        <time>2026-05-13T08:10:15Z</time>
      </trkpt>
      <trkpt lat="45.93166" lon="5.59356">
        <ele>823.6</ele>
        <time>2026-05-13T08:10:16Z</time>
      </trkpt>
      <trkpt lat="45.93165" lon="5.59355">
        <ele>824</ele>
        <time>2026-05-13T08:10:17Z</time>
      </trkpt>
      <trkpt lat="45.93163" lon="5.59354">
        <ele>824</ele>
        <time>2026-05-13T08:10:18Z</time>
      </trkpt>
      <trkpt lat="45.93161" lon="5.59353">
        <ele>824.2</ele>
        <time>2026-05-13T08:10:19Z</time>
      </trkpt>
      <trkpt lat="45.93159" lon="5.59352">
        <ele>824.2</ele>
        <time>2026-05-13T08:10:20Z</time>
      </trkpt>
      <trkpt lat="45.93157" lon="5.59351">
        <ele>824.6</ele>
        <time>2026-05-13T08:10:21Z</time>
      </trkpt>
      <trkpt lat="45.93155" lon="5.5935">
        <ele>824.6</ele>
        <time>2026-05-13T08:10:22Z</time>
      </trkpt>
      <trkpt lat="45.93153" lon="5.5935">
        <ele>825</ele>
        <time>2026-05-13T08:10:23Z</time>
      </trkpt>
      <trkpt lat="45.93151" lon="5.5935">
        <ele>825</ele>
        <time>2026-05-13T08:10:24Z</time>
      </trkpt>
      <trkpt lat="45.93149" lon="5.5935">
        <ele>825.2</ele>
        <time>2026-05-13T08:10:25Z</time>
      </trkpt>
      <trkpt lat="45.93147" lon="5.59349">
        <ele>825.2</ele>
        <time>2026-05-13T08:10:26Z</time>
      </trkpt>
      <trkpt lat="45.93145" lon="5.5935">
        <ele>825.4</ele>
        <time>2026-05-13T08:10:27Z</time>
      </trkpt>
      <trkpt lat="45.93143" lon="5.5935">
        <ele>825.4</ele>
        <time>2026-05-13T08:10:28Z</time>
      </trkpt>
      <trkpt lat="45.93141" lon="5.59351">
        <ele>826</ele>
        <time>2026-05-13T08:10:29Z</time>
      </trkpt>
      <trkpt lat="45.93139" lon="5.59351">
        <ele>826.2</ele>
        <time>2026-05-13T08:10:30Z</time>
      </trkpt>
      <trkpt lat="45.93137" lon="5.59351">
        <ele>826.2</ele>
        <time>2026-05-13T08:10:31Z</time>
      </trkpt>
      <trkpt lat="45.93135" lon="5.59352">
        <ele>826.2</ele>
        <time>2026-05-13T08:10:32Z</time>
      </trkpt>
      <trkpt lat="45.93133" lon="5.59354">
        <ele>826.6</ele>
        <time>2026-05-13T08:10:33Z</time>
      </trkpt>
      <trkpt lat="45.93131" lon="5.59355">
        <ele>826.6</ele>
        <time>2026-05-13T08:10:34Z</time>
      </trkpt>
      <trkpt lat="45.93129" lon="5.59356">
        <ele>826.6</ele>
        <time>2026-05-13T08:10:35Z</time>
      </trkpt>
      <trkpt lat="45.93127" lon="5.59357">
        <ele>826.8</ele>
        <time>2026-05-13T08:10:36Z</time>
      </trkpt>
      <trkpt lat="45.93125" lon="5.59358">
        <ele>827</ele>
        <time>2026-05-13T08:10:37Z</time>
      </trkpt>
      <trkpt lat="45.93121" lon="5.5936">
        <ele>827</ele>
        <time>2026-05-13T08:10:38Z</time>
      </trkpt>
      <trkpt lat="45.9312" lon="5.59361">
        <ele>827</ele>
        <time>2026-05-13T08:10:39Z</time>
      </trkpt>
      <trkpt lat="45.93118" lon="5.59361">
        <ele>827.6</ele>
        <time>2026-05-13T08:10:40Z</time>
      </trkpt>
      <trkpt lat="45.93116" lon="5.59362">
        <ele>827.6</ele>
        <time>2026-05-13T08:10:41Z</time>
      </trkpt>
      <trkpt lat="45.93114" lon="5.59362">
        <ele>827.6</ele>
        <time>2026-05-13T08:10:42Z</time>
      </trkpt>
      <trkpt lat="45.93112" lon="5.59363">
        <ele>827.8</ele>
        <time>2026-05-13T08:10:43Z</time>
      </trkpt>
      <trkpt lat="45.9311" lon="5.59363">
        <ele>828.2</ele>
        <time>2026-05-13T08:10:44Z</time>
      </trkpt>
      <trkpt lat="45.93108" lon="5.59364">
        <ele>828.4</ele>
        <time>2026-05-13T08:10:45Z</time>
      </trkpt>
      <trkpt lat="45.93106" lon="5.59366">
        <ele>828.6</ele>
        <time>2026-05-13T08:10:46Z</time>
      </trkpt>
      <trkpt lat="45.93104" lon="5.59369">
        <ele>828.6</ele>
        <time>2026-05-13T08:10:47Z</time>
      </trkpt>
      <trkpt lat="45.93102" lon="5.5937">
        <ele>828.6</ele>
        <time>2026-05-13T08:10:48Z</time>
      </trkpt>
      <trkpt lat="45.931" lon="5.5937">
        <ele>829</ele>
        <time>2026-05-13T08:10:49Z</time>
      </trkpt>
      <trkpt lat="45.93099" lon="5.5937">
        <ele>829</ele>
        <time>2026-05-13T08:10:50Z</time>
      </trkpt>
      <trkpt lat="45.93098" lon="5.5937">
        <ele>829.2</ele>
        <time>2026-05-13T08:10:51Z</time>
      </trkpt>
      <trkpt lat="45.93096" lon="5.5937">
        <ele>829.2</ele>
        <time>2026-05-13T08:10:52Z</time>
      </trkpt>
      <trkpt lat="45.93094" lon="5.59371">
        <ele>829.2</ele>
        <time>2026-05-13T08:10:53Z</time>
      </trkpt>
      <trkpt lat="45.93092" lon="5.59371">
        <ele>829.4</ele>
        <time>2026-05-13T08:10:54Z</time>
      </trkpt>
      <trkpt lat="45.93091" lon="5.59371">
        <ele>829.6</ele>
        <time>2026-05-13T08:10:55Z</time>
      </trkpt>
      <trkpt lat="45.93089" lon="5.59372">
        <ele>829.6</ele>
        <time>2026-05-13T08:10:56Z</time>
      </trkpt>
      <trkpt lat="45.93087" lon="5.59373">
        <ele>830</ele>
        <time>2026-05-13T08:10:57Z</time>
      </trkpt>
      <trkpt lat="45.93085" lon="5.59374">
        <ele>830</ele>
        <time>2026-05-13T08:10:58Z</time>
      </trkpt>
      <trkpt lat="45.93083" lon="5.59376">
        <ele>830.2</ele>
        <time>2026-05-13T08:10:59Z</time>
      </trkpt>
      <trkpt lat="45.93081" lon="5.59377">
        <ele>830.4</ele>
        <time>2026-05-13T08:11:00Z</time>
      </trkpt>
      <trkpt lat="45.93079" lon="5.59379">
        <ele>830.4</ele>
        <time>2026-05-13T08:11:01Z</time>
      </trkpt>
      <trkpt lat="45.93077" lon="5.5938">
        <ele>830.8</ele>
        <time>2026-05-13T08:11:02Z</time>
      </trkpt>
      <trkpt lat="45.93076" lon="5.59381">
        <ele>830.8</ele>
        <time>2026-05-13T08:11:03Z</time>
      </trkpt>
      <trkpt lat="45.93074" lon="5.59382">
        <ele>831</ele>
        <time>2026-05-13T08:11:04Z</time>
      </trkpt>
      <trkpt lat="45.93072" lon="5.59383">
        <ele>831</ele>
        <time>2026-05-13T08:11:05Z</time>
      </trkpt>
      <trkpt lat="45.9307" lon="5.59384">
        <ele>831.2</ele>
        <time>2026-05-13T08:11:06Z</time>
      </trkpt>
      <trkpt lat="45.93069" lon="5.59385">
        <ele>831.2</ele>
        <time>2026-05-13T08:11:07Z</time>
      </trkpt>
      <trkpt lat="45.93068" lon="5.59386">
        <ele>831.6</ele>
        <time>2026-05-13T08:11:08Z</time>
      </trkpt>
      <trkpt lat="45.93066" lon="5.59387">
        <ele>831.6</ele>
        <time>2026-05-13T08:11:09Z</time>
      </trkpt>
      <trkpt lat="45.93064" lon="5.59387">
        <ele>832</ele>
        <time>2026-05-13T08:11:10Z</time>
      </trkpt>
      <trkpt lat="45.93063" lon="5.59388">
        <ele>832.2</ele>
        <time>2026-05-13T08:11:11Z</time>
      </trkpt>
      <trkpt lat="45.93061" lon="5.59388">
        <ele>832.2</ele>
        <time>2026-05-13T08:11:12Z</time>
      </trkpt>
      <trkpt lat="45.93059" lon="5.59389">
        <ele>832.4</ele>
        <time>2026-05-13T08:11:13Z</time>
      </trkpt>
      <trkpt lat="45.93057" lon="5.59389">
        <ele>832.4</ele>
        <time>2026-05-13T08:11:14Z</time>
      </trkpt>
      <trkpt lat="45.93055" lon="5.5939">
        <ele>832.8</ele>
        <time>2026-05-13T08:11:15Z</time>
      </trkpt>
      <trkpt lat="45.93052" lon="5.5939">
        <ele>833</ele>
        <time>2026-05-13T08:11:16Z</time>
      </trkpt>
      <trkpt lat="45.9305" lon="5.59391">
        <ele>833</ele>
        <time>2026-05-13T08:11:17Z</time>
      </trkpt>
      <trkpt lat="45.93048" lon="5.59392">
        <ele>833.4</ele>
        <time>2026-05-13T08:11:18Z</time>
      </trkpt>
      <trkpt lat="45.93046" lon="5.59394">
        <ele>833.6</ele>
        <time>2026-05-13T08:11:19Z</time>
      </trkpt>
      <trkpt lat="45.93044" lon="5.59395">
        <ele>833.6</ele>
        <time>2026-05-13T08:11:20Z</time>
      </trkpt>
      <trkpt lat="45.93043" lon="5.59396">
        <ele>834</ele>
        <time>2026-05-13T08:11:21Z</time>
      </trkpt>
      <trkpt lat="45.93041" lon="5.59398">
        <ele>834</ele>
        <time>2026-05-13T08:11:22Z</time>
      </trkpt>
      <trkpt lat="45.93039" lon="5.59399">
        <ele>834.2</ele>
        <time>2026-05-13T08:11:23Z</time>
      </trkpt>
      <trkpt lat="45.93037" lon="5.594">
        <ele>834.2</ele>
        <time>2026-05-13T08:11:24Z</time>
      </trkpt>
      <trkpt lat="45.93035" lon="5.594">
        <ele>834.6</ele>
        <time>2026-05-13T08:11:25Z</time>
      </trkpt>
      <trkpt lat="45.93034" lon="5.594">
        <ele>834.6</ele>
        <time>2026-05-13T08:11:26Z</time>
      </trkpt>
      <trkpt lat="45.93032" lon="5.594">
        <ele>834.8</ele>
        <time>2026-05-13T08:11:27Z</time>
      </trkpt>
      <trkpt lat="45.93031" lon="5.59401">
        <ele>835</ele>
        <time>2026-05-13T08:11:28Z</time>
      </trkpt>
      <trkpt lat="45.93029" lon="5.59401">
        <ele>835.4</ele>
        <time>2026-05-13T08:11:29Z</time>
      </trkpt>
      <trkpt lat="45.93028" lon="5.59402">
        <ele>835.4</ele>
        <time>2026-05-13T08:11:30Z</time>
      </trkpt>
      <trkpt lat="45.93026" lon="5.59403">
        <ele>835.6</ele>
        <time>2026-05-13T08:11:31Z</time>
      </trkpt>
      <trkpt lat="45.93025" lon="5.59404">
        <ele>835.8</ele>
        <time>2026-05-13T08:11:32Z</time>
      </trkpt>
      <trkpt lat="45.93023" lon="5.59405">
        <ele>835.8</ele>
        <time>2026-05-13T08:11:33Z</time>
      </trkpt>
      <trkpt lat="45.93022" lon="5.59405">
        <ele>836.2</ele>
        <time>2026-05-13T08:11:34Z</time>
      </trkpt>
      <trkpt lat="45.9302" lon="5.59406">
        <ele>836.2</ele>
        <time>2026-05-13T08:11:35Z</time>
      </trkpt>
      <trkpt lat="45.93019" lon="5.59407">
        <ele>836.4</ele>
        <time>2026-05-13T08:11:36Z</time>
      </trkpt>
      <trkpt lat="45.93017" lon="5.59408">
        <ele>836.8</ele>
        <time>2026-05-13T08:11:37Z</time>
      </trkpt>
      <trkpt lat="45.93016" lon="5.5941">
        <ele>836.8</ele>
        <time>2026-05-13T08:11:38Z</time>
      </trkpt>
      <trkpt lat="45.93015" lon="5.59411">
        <ele>837.2</ele>
        <time>2026-05-13T08:11:39Z</time>
      </trkpt>
      <trkpt lat="45.93012" lon="5.59412">
        <ele>837.4</ele>
        <time>2026-05-13T08:11:40Z</time>
      </trkpt>
      <trkpt lat="45.9301" lon="5.59413">
        <ele>837.6</ele>
        <time>2026-05-13T08:11:41Z</time>
      </trkpt>
      <trkpt lat="45.93009" lon="5.59414">
        <ele>837.6</ele>
        <time>2026-05-13T08:11:42Z</time>
      </trkpt>
      <trkpt lat="45.93007" lon="5.59415">
        <ele>837.6</ele>
        <time>2026-05-13T08:11:43Z</time>
      </trkpt>
      <trkpt lat="45.93006" lon="5.59415">
        <ele>838</ele>
        <time>2026-05-13T08:11:44Z</time>
      </trkpt>
      <trkpt lat="45.93004" lon="5.59416">
        <ele>838.2</ele>
        <time>2026-05-13T08:11:45Z</time>
      </trkpt>
      <trkpt lat="45.93003" lon="5.59417">
        <ele>838.6</ele>
        <time>2026-05-13T08:11:46Z</time>
      </trkpt>
      <trkpt lat="45.93002" lon="5.59418">
        <ele>838.6</ele>
        <time>2026-05-13T08:11:47Z</time>
      </trkpt>
      <trkpt lat="45.93001" lon="5.59418">
        <ele>838.8</ele>
        <time>2026-05-13T08:11:48Z</time>
      </trkpt>
      <trkpt lat="45.93" lon="5.59419">
        <ele>838.8</ele>
        <time>2026-05-13T08:11:49Z</time>
      </trkpt>
      <trkpt lat="45.92998" lon="5.5942">
        <ele>839</ele>
        <time>2026-05-13T08:11:50Z</time>
      </trkpt>
      <trkpt lat="45.92996" lon="5.59421">
        <ele>839</ele>
        <time>2026-05-13T08:11:51Z</time>
      </trkpt>
      <trkpt lat="45.92994" lon="5.59422">
        <ele>839.2</ele>
        <time>2026-05-13T08:11:52Z</time>
      </trkpt>
      <trkpt lat="45.92992" lon="5.59423">
        <ele>839.6</ele>
        <time>2026-05-13T08:11:53Z</time>
      </trkpt>
      <trkpt lat="45.9299" lon="5.59424">
        <ele>839.6</ele>
        <time>2026-05-13T08:11:54Z</time>
      </trkpt>
      <trkpt lat="45.92988" lon="5.59424">
        <ele>839.8</ele>
        <time>2026-05-13T08:11:55Z</time>
      </trkpt>
      <trkpt lat="45.92985" lon="5.59425">
        <ele>839.8</ele>
        <time>2026-05-13T08:11:56Z</time>
      </trkpt>
      <trkpt lat="45.92983" lon="5.59426">
        <ele>840.2</ele>
        <time>2026-05-13T08:11:57Z</time>
      </trkpt>
      <trkpt lat="45.92981" lon="5.59427">
        <ele>840.2</ele>
        <time>2026-05-13T08:11:58Z</time>
      </trkpt>
      <trkpt lat="45.9298" lon="5.59428">
        <ele>840.2</ele>
        <time>2026-05-13T08:11:59Z</time>
      </trkpt>
      <trkpt lat="45.92978" lon="5.59429">
        <ele>840.4</ele>
        <time>2026-05-13T08:12:00Z</time>
      </trkpt>
      <trkpt lat="45.92976" lon="5.5943">
        <ele>840.4</ele>
        <time>2026-05-13T08:12:01Z</time>
      </trkpt>
      <trkpt lat="45.92975" lon="5.59431">
        <ele>840.8</ele>
        <time>2026-05-13T08:12:02Z</time>
      </trkpt>
      <trkpt lat="45.92973" lon="5.59431">
        <ele>841</ele>
        <time>2026-05-13T08:12:03Z</time>
      </trkpt>
      <trkpt lat="45.92972" lon="5.59432">
        <ele>841</ele>
        <time>2026-05-13T08:12:04Z</time>
      </trkpt>
      <trkpt lat="45.9297" lon="5.59432">
        <ele>841</ele>
        <time>2026-05-13T08:12:05Z</time>
      </trkpt>
      <trkpt lat="45.92968" lon="5.59433">
        <ele>841.2</ele>
        <time>2026-05-13T08:12:06Z</time>
      </trkpt>
      <trkpt lat="45.92967" lon="5.59434">
        <ele>841.2</ele>
        <time>2026-05-13T08:12:07Z</time>
      </trkpt>
      <trkpt lat="45.92965" lon="5.59435">
        <ele>841.4</ele>
        <time>2026-05-13T08:12:08Z</time>
      </trkpt>
      <trkpt lat="45.92964" lon="5.59435">
        <ele>841.4</ele>
        <time>2026-05-13T08:12:09Z</time>
      </trkpt>
      <trkpt lat="45.92962" lon="5.59435">
        <ele>841.8</ele>
        <time>2026-05-13T08:12:10Z</time>
      </trkpt>
      <trkpt lat="45.9296" lon="5.59436">
        <ele>842</ele>
        <time>2026-05-13T08:12:11Z</time>
      </trkpt>
      <trkpt lat="45.92959" lon="5.59437">
        <ele>842.2</ele>
        <time>2026-05-13T08:12:12Z</time>
      </trkpt>
      <trkpt lat="45.92958" lon="5.59438">
        <ele>842.2</ele>
        <time>2026-05-13T08:12:13Z</time>
      </trkpt>
      <trkpt lat="45.92957" lon="5.5944">
        <ele>842.6</ele>
        <time>2026-05-13T08:12:14Z</time>
      </trkpt>
      <trkpt lat="45.92955" lon="5.59441">
        <ele>842.6</ele>
        <time>2026-05-13T08:12:15Z</time>
      </trkpt>
      <trkpt lat="45.92954" lon="5.59442">
        <ele>842.8</ele>
        <time>2026-05-13T08:12:16Z</time>
      </trkpt>
      <trkpt lat="45.92952" lon="5.59443">
        <ele>842.8</ele>
        <time>2026-05-13T08:12:17Z</time>
      </trkpt>
      <trkpt lat="45.9295" lon="5.59445">
        <ele>842.8</ele>
        <time>2026-05-13T08:12:18Z</time>
      </trkpt>
      <trkpt lat="45.92948" lon="5.59446">
        <ele>843.2</ele>
        <time>2026-05-13T08:12:19Z</time>
      </trkpt>
      <trkpt lat="45.92947" lon="5.59447">
        <ele>843.6</ele>
        <time>2026-05-13T08:12:20Z</time>
      </trkpt>
      <trkpt lat="45.92945" lon="5.59448">
        <ele>843.6</ele>
        <time>2026-05-13T08:12:21Z</time>
      </trkpt>
      <trkpt lat="45.92944" lon="5.59449">
        <ele>843.8</ele>
        <time>2026-05-13T08:12:22Z</time>
      </trkpt>
      <trkpt lat="45.92942" lon="5.5945">
        <ele>843.8</ele>
        <time>2026-05-13T08:12:23Z</time>
      </trkpt>
      <trkpt lat="45.92941" lon="5.59451">
        <ele>844.2</ele>
        <time>2026-05-13T08:12:24Z</time>
      </trkpt>
      <trkpt lat="45.92941" lon="5.59451">
        <ele>844.4</ele>
        <time>2026-05-13T08:12:25Z</time>
      </trkpt>
      <trkpt lat="45.92939" lon="5.59452">
        <ele>844.4</ele>
        <time>2026-05-13T08:12:26Z</time>
      </trkpt>
      <trkpt lat="45.92937" lon="5.59454">
        <ele>844.6</ele>
        <time>2026-05-13T08:12:27Z</time>
      </trkpt>
      <trkpt lat="45.92936" lon="5.59455">
        <ele>844.8</ele>
        <time>2026-05-13T08:12:28Z</time>
      </trkpt>
      <trkpt lat="45.92935" lon="5.59457">
        <ele>844.8</ele>
        <time>2026-05-13T08:12:29Z</time>
      </trkpt>
      <trkpt lat="45.92933" lon="5.5946">
        <ele>845</ele>
        <time>2026-05-13T08:12:30Z</time>
      </trkpt>
      <trkpt lat="45.92931" lon="5.59461">
        <ele>845</ele>
        <time>2026-05-13T08:12:31Z</time>
      </trkpt>
      <trkpt lat="45.9293" lon="5.59462">
        <ele>845</ele>
        <time>2026-05-13T08:12:32Z</time>
      </trkpt>
      <trkpt lat="45.92929" lon="5.59463">
        <ele>845</ele>
        <time>2026-05-13T08:12:33Z</time>
      </trkpt>
      <trkpt lat="45.92927" lon="5.59465">
        <ele>845.2</ele>
        <time>2026-05-13T08:12:34Z</time>
      </trkpt>
      <trkpt lat="45.92925" lon="5.59465">
        <ele>845.2</ele>
        <time>2026-05-13T08:12:35Z</time>
      </trkpt>
      <trkpt lat="45.92924" lon="5.59465">
        <ele>845.2</ele>
        <time>2026-05-13T08:12:36Z</time>
      </trkpt>
      <trkpt lat="45.92922" lon="5.59466">
        <ele>845.6</ele>
        <time>2026-05-13T08:12:37Z</time>
      </trkpt>
      <trkpt lat="45.9292" lon="5.59466">
        <ele>845.6</ele>
        <time>2026-05-13T08:12:38Z</time>
      </trkpt>
      <trkpt lat="45.92919" lon="5.59467">
        <ele>846</ele>
        <time>2026-05-13T08:12:39Z</time>
      </trkpt>
      <trkpt lat="45.92917" lon="5.59468">
        <ele>846</ele>
        <time>2026-05-13T08:12:40Z</time>
      </trkpt>
      <trkpt lat="45.92915" lon="5.5947">
        <ele>846.2</ele>
        <time>2026-05-13T08:12:41Z</time>
      </trkpt>
      <trkpt lat="45.92913" lon="5.59472">
        <ele>846.6</ele>
        <time>2026-05-13T08:12:42Z</time>
      </trkpt>
      <trkpt lat="45.92911" lon="5.59473">
        <ele>846.6</ele>
        <time>2026-05-13T08:12:43Z</time>
      </trkpt>
      <trkpt lat="45.92908" lon="5.59475">
        <ele>846.8</ele>
        <time>2026-05-13T08:12:44Z</time>
      </trkpt>
      <trkpt lat="45.92906" lon="5.59477">
        <ele>846.8</ele>
        <time>2026-05-13T08:12:45Z</time>
      </trkpt>
      <trkpt lat="45.92904" lon="5.59478">
        <ele>846.8</ele>
        <time>2026-05-13T08:12:46Z</time>
      </trkpt>
      <trkpt lat="45.92903" lon="5.5948">
        <ele>846.8</ele>
        <time>2026-05-13T08:12:47Z</time>
      </trkpt>
      <trkpt lat="45.92901" lon="5.59482">
        <ele>847.2</ele>
        <time>2026-05-13T08:12:48Z</time>
      </trkpt>
      <trkpt lat="45.92901" lon="5.59482">
        <ele>847.4</ele>
        <time>2026-05-13T08:12:49Z</time>
      </trkpt>
      <trkpt lat="45.92899" lon="5.59483">
        <ele>847.4</ele>
        <time>2026-05-13T08:12:50Z</time>
      </trkpt>
      <trkpt lat="45.92898" lon="5.59485">
        <ele>847.8</ele>
        <time>2026-05-13T08:12:51Z</time>
      </trkpt>
      <trkpt lat="45.92896" lon="5.59488">
        <ele>847.8</ele>
        <time>2026-05-13T08:12:52Z</time>
      </trkpt>
      <trkpt lat="45.92896" lon="5.59489">
        <ele>848</ele>
        <time>2026-05-13T08:12:53Z</time>
      </trkpt>
      <trkpt lat="45.92895" lon="5.59491">
        <ele>848</ele>
        <time>2026-05-13T08:12:54Z</time>
      </trkpt>
      <trkpt lat="45.92894" lon="5.59492">
        <ele>848</ele>
        <time>2026-05-13T08:12:55Z</time>
      </trkpt>
      <trkpt lat="45.92892" lon="5.59494">
        <ele>848</ele>
        <time>2026-05-13T08:12:56Z</time>
      </trkpt>
      <trkpt lat="45.92891" lon="5.59496">
        <ele>848</ele>
        <time>2026-05-13T08:12:57Z</time>
      </trkpt>
      <trkpt lat="45.9289" lon="5.59497">
        <ele>848.4</ele>
        <time>2026-05-13T08:12:58Z</time>
      </trkpt>
      <trkpt lat="45.92889" lon="5.59499">
        <ele>848.6</ele>
        <time>2026-05-13T08:12:59Z</time>
      </trkpt>
      <trkpt lat="45.92888" lon="5.595">
        <ele>848.6</ele>
        <time>2026-05-13T08:13:00Z</time>
      </trkpt>
      <trkpt lat="45.92887" lon="5.59502">
        <ele>849</ele>
        <time>2026-05-13T08:13:01Z</time>
      </trkpt>
      <trkpt lat="45.92886" lon="5.59505">
        <ele>849</ele>
        <time>2026-05-13T08:13:02Z</time>
      </trkpt>
      <trkpt lat="45.92884" lon="5.59507">
        <ele>849.2</ele>
        <time>2026-05-13T08:13:03Z</time>
      </trkpt>
      <trkpt lat="45.92883" lon="5.59508">
        <ele>849.2</ele>
        <time>2026-05-13T08:13:04Z</time>
      </trkpt>
      <trkpt lat="45.92882" lon="5.5951">
        <ele>849.6</ele>
        <time>2026-05-13T08:13:05Z</time>
      </trkpt>
      <trkpt lat="45.9288" lon="5.59513">
        <ele>849.8</ele>
        <time>2026-05-13T08:13:06Z</time>
      </trkpt>
      <trkpt lat="45.9288" lon="5.59515">
        <ele>849.8</ele>
        <time>2026-05-13T08:13:07Z</time>
      </trkpt>
      <trkpt lat="45.92879" lon="5.59517">
        <ele>850</ele>
        <time>2026-05-13T08:13:08Z</time>
      </trkpt>
      <trkpt lat="45.92878" lon="5.59519">
        <ele>850</ele>
        <time>2026-05-13T08:13:09Z</time>
      </trkpt>
      <trkpt lat="45.92877" lon="5.59521">
        <ele>850.2</ele>
        <time>2026-05-13T08:13:10Z</time>
      </trkpt>
      <trkpt lat="45.92876" lon="5.59523">
        <ele>850.2</ele>
        <time>2026-05-13T08:13:11Z</time>
      </trkpt>
      <trkpt lat="45.92875" lon="5.59525">
        <ele>850.2</ele>
        <time>2026-05-13T08:13:12Z</time>
      </trkpt>
      <trkpt lat="45.92874" lon="5.59528">
        <ele>850.6</ele>
        <time>2026-05-13T08:13:13Z</time>
      </trkpt>
      <trkpt lat="45.92872" lon="5.5953">
        <ele>850.6</ele>
        <time>2026-05-13T08:13:14Z</time>
      </trkpt>
      <trkpt lat="45.92871" lon="5.59532">
        <ele>850.6</ele>
        <time>2026-05-13T08:13:15Z</time>
      </trkpt>
      <trkpt lat="45.92871" lon="5.59535">
        <ele>851</ele>
        <time>2026-05-13T08:13:16Z</time>
      </trkpt>
      <trkpt lat="45.9287" lon="5.59537">
        <ele>851</ele>
        <time>2026-05-13T08:13:17Z</time>
      </trkpt>
      <trkpt lat="45.92869" lon="5.5954">
        <ele>851.4</ele>
        <time>2026-05-13T08:13:18Z</time>
      </trkpt>
      <trkpt lat="45.92868" lon="5.59542">
        <ele>851.4</ele>
        <time>2026-05-13T08:13:19Z</time>
      </trkpt>
      <trkpt lat="45.92867" lon="5.59545">
        <ele>851.8</ele>
        <time>2026-05-13T08:13:20Z</time>
      </trkpt>
      <trkpt lat="45.92867" lon="5.59547">
        <ele>851.8</ele>
        <time>2026-05-13T08:13:21Z</time>
      </trkpt>
      <trkpt lat="45.92866" lon="5.5955">
        <ele>852</ele>
        <time>2026-05-13T08:13:22Z</time>
      </trkpt>
      <trkpt lat="45.92865" lon="5.59553">
        <ele>852.4</ele>
        <time>2026-05-13T08:13:23Z</time>
      </trkpt>
      <trkpt lat="45.92865" lon="5.59556">
        <ele>852.4</ele>
        <time>2026-05-13T08:13:24Z</time>
      </trkpt>
      <trkpt lat="45.92864" lon="5.59559">
        <ele>852.6</ele>
        <time>2026-05-13T08:13:25Z</time>
      </trkpt>
      <trkpt lat="45.92864" lon="5.59562">
        <ele>852.6</ele>
        <time>2026-05-13T08:13:26Z</time>
      </trkpt>
      <trkpt lat="45.92863" lon="5.59565">
        <ele>852.6</ele>
        <time>2026-05-13T08:13:27Z</time>
      </trkpt>
      <trkpt lat="45.92862" lon="5.59568">
        <ele>852.8</ele>
        <time>2026-05-13T08:13:28Z</time>
      </trkpt>
      <trkpt lat="45.92862" lon="5.59571">
        <ele>853.2</ele>
        <time>2026-05-13T08:13:29Z</time>
      </trkpt>
      <trkpt lat="45.92861" lon="5.59574">
        <ele>853.6</ele>
        <time>2026-05-13T08:13:30Z</time>
      </trkpt>
      <trkpt lat="45.92861" lon="5.59577">
        <ele>853.6</ele>
        <time>2026-05-13T08:13:31Z</time>
      </trkpt>
      <trkpt lat="45.92861" lon="5.5958">
        <ele>853.6</ele>
        <time>2026-05-13T08:13:32Z</time>
      </trkpt>
      <trkpt lat="45.92861" lon="5.5958">
        <ele>853.6</ele>
        <time>2026-05-13T08:13:33Z</time>
      </trkpt>
      <trkpt lat="45.92861" lon="5.5958">
        <ele>853.6</ele>
        <time>2026-05-13T08:13:34Z</time>
      </trkpt>
      <trkpt lat="45.9286" lon="5.59591">
        <ele>854</ele>
        <time>2026-05-13T08:13:36Z</time>
      </trkpt>
      <trkpt lat="45.9286" lon="5.59594">
        <ele>854</ele>
        <time>2026-05-13T08:13:37Z</time>
      </trkpt>
      <trkpt lat="45.9286" lon="5.59597">
        <ele>854</ele>
        <time>2026-05-13T08:13:38Z</time>
      </trkpt>
      <trkpt lat="45.9286" lon="5.596">
        <ele>854</ele>
        <time>2026-05-13T08:13:39Z</time>
      </trkpt>
      <trkpt lat="45.9286" lon="5.59603">
        <ele>854.2</ele>
        <time>2026-05-13T08:13:40Z</time>
      </trkpt>
      <trkpt lat="45.9286" lon="5.59606">
        <ele>854.2</ele>
        <time>2026-05-13T08:13:41Z</time>
      </trkpt>
      <trkpt lat="45.9286" lon="5.59609">
        <ele>854.6</ele>
        <time>2026-05-13T08:13:42Z</time>
      </trkpt>
      <trkpt lat="45.9286" lon="5.59612">
        <ele>854.6</ele>
        <time>2026-05-13T08:13:43Z</time>
      </trkpt>
      <trkpt lat="45.9286" lon="5.59614">
        <ele>854.8</ele>
        <time>2026-05-13T08:13:44Z</time>
      </trkpt>
      <trkpt lat="45.9286" lon="5.59617">
        <ele>854.8</ele>
        <time>2026-05-13T08:13:45Z</time>
      </trkpt>
      <trkpt lat="45.9286" lon="5.5962">
        <ele>854.8</ele>
        <time>2026-05-13T08:13:46Z</time>
      </trkpt>
      <trkpt lat="45.9286" lon="5.59623">
        <ele>854.8</ele>
        <time>2026-05-13T08:13:47Z</time>
      </trkpt>
      <trkpt lat="45.92861" lon="5.59626">
        <ele>855.2</ele>
        <time>2026-05-13T08:13:48Z</time>
      </trkpt>
      <trkpt lat="45.92861" lon="5.59629">
        <ele>855.4</ele>
        <time>2026-05-13T08:13:49Z</time>
      </trkpt>
      <trkpt lat="45.92861" lon="5.59631">
        <ele>855.6</ele>
        <time>2026-05-13T08:13:50Z</time>
      </trkpt>
      <trkpt lat="45.92862" lon="5.59634">
        <ele>855.6</ele>
        <time>2026-05-13T08:13:51Z</time>
      </trkpt>
      <trkpt lat="45.92863" lon="5.59636">
        <ele>855.8</ele>
        <time>2026-05-13T08:13:52Z</time>
      </trkpt>
      <trkpt lat="45.92863" lon="5.59638">
        <ele>855.8</ele>
        <time>2026-05-13T08:13:53Z</time>
      </trkpt>
      <trkpt lat="45.92864" lon="5.59641">
        <ele>856.4</ele>
        <time>2026-05-13T08:13:54Z</time>
      </trkpt>
      <trkpt lat="45.92865" lon="5.59643">
        <ele>856.6</ele>
        <time>2026-05-13T08:13:55Z</time>
      </trkpt>
      <trkpt lat="45.92865" lon="5.59645">
        <ele>856.6</ele>
        <time>2026-05-13T08:13:56Z</time>
      </trkpt>
      <trkpt lat="45.92866" lon="5.59648">
        <ele>857</ele>
        <time>2026-05-13T08:13:57Z</time>
      </trkpt>
      <trkpt lat="45.92867" lon="5.59649">
        <ele>857</ele>
        <time>2026-05-13T08:13:58Z</time>
      </trkpt>
      <trkpt lat="45.92867" lon="5.59651">
        <ele>857.2</ele>
        <time>2026-05-13T08:13:59Z</time>
      </trkpt>
      <trkpt lat="45.92869" lon="5.59654">
        <ele>857.2</ele>
        <time>2026-05-13T08:14:00Z</time>
      </trkpt>
      <trkpt lat="45.9287" lon="5.59656">
        <ele>857.2</ele>
        <time>2026-05-13T08:14:01Z</time>
      </trkpt>
      <trkpt lat="45.92873" lon="5.5966">
        <ele>857.2</ele>
        <time>2026-05-13T08:14:02Z</time>
      </trkpt>
      <trkpt lat="45.92874" lon="5.59662">
        <ele>857.2</ele>
        <time>2026-05-13T08:14:03Z</time>
      </trkpt>
      <trkpt lat="45.92875" lon="5.59664">
        <ele>857.2</ele>
        <time>2026-05-13T08:14:04Z</time>
      </trkpt>
      <trkpt lat="45.92877" lon="5.59666">
        <ele>857.6</ele>
        <time>2026-05-13T08:14:05Z</time>
      </trkpt>
      <trkpt lat="45.92878" lon="5.59668">
        <ele>857.6</ele>
        <time>2026-05-13T08:14:06Z</time>
      </trkpt>
      <trkpt lat="45.92879" lon="5.59669">
        <ele>857.6</ele>
        <time>2026-05-13T08:14:07Z</time>
      </trkpt>
      <trkpt lat="45.9288" lon="5.59671">
        <ele>857.8</ele>
        <time>2026-05-13T08:14:08Z</time>
      </trkpt>
      <trkpt lat="45.92882" lon="5.59672">
        <ele>857.8</ele>
        <time>2026-05-13T08:14:09Z</time>
      </trkpt>
      <trkpt lat="45.92883" lon="5.59673">
        <ele>858.2</ele>
        <time>2026-05-13T08:14:10Z</time>
      </trkpt>
      <trkpt lat="45.92884" lon="5.59675">
        <ele>858.2</ele>
        <time>2026-05-13T08:14:11Z</time>
      </trkpt>
      <trkpt lat="45.92885" lon="5.59676">
        <ele>858.4</ele>
        <time>2026-05-13T08:14:12Z</time>
      </trkpt>
      <trkpt lat="45.92886" lon="5.59678">
        <ele>858.4</ele>
        <time>2026-05-13T08:14:13Z</time>
      </trkpt>
      <trkpt lat="45.92888" lon="5.59679">
        <ele>858.4</ele>
        <time>2026-05-13T08:14:14Z</time>
      </trkpt>
      <trkpt lat="45.9289" lon="5.59679">
        <ele>858.8</ele>
        <time>2026-05-13T08:14:15Z</time>
      </trkpt>
      <trkpt lat="45.92891" lon="5.59679">
        <ele>859</ele>
        <time>2026-05-13T08:14:16Z</time>
      </trkpt>
      <trkpt lat="45.92893" lon="5.5968">
        <ele>858.8</ele>
        <time>2026-05-13T08:14:17Z</time>
      </trkpt>
      <trkpt lat="45.92895" lon="5.59681">
        <ele>859.2</ele>
        <time>2026-05-13T08:14:18Z</time>
      </trkpt>
      <trkpt lat="45.92897" lon="5.59682">
        <ele>859.4</ele>
        <time>2026-05-13T08:14:19Z</time>
      </trkpt>
      <trkpt lat="45.92899" lon="5.59684">
        <ele>859.4</ele>
        <time>2026-05-13T08:14:20Z</time>
      </trkpt>
      <trkpt lat="45.92901" lon="5.59685">
        <ele>859.4</ele>
        <time>2026-05-13T08:14:21Z</time>
      </trkpt>
      <trkpt lat="45.92903" lon="5.59686">
        <ele>859.4</ele>
        <time>2026-05-13T08:14:22Z</time>
      </trkpt>
      <trkpt lat="45.92905" lon="5.59687">
        <ele>859.4</ele>
        <time>2026-05-13T08:14:23Z</time>
      </trkpt>
      <trkpt lat="45.92907" lon="5.59688">
        <ele>859.8</ele>
        <time>2026-05-13T08:14:24Z</time>
      </trkpt>
      <trkpt lat="45.92909" lon="5.59689">
        <ele>859.8</ele>
        <time>2026-05-13T08:14:25Z</time>
      </trkpt>
      <trkpt lat="45.92912" lon="5.5969">
        <ele>859.8</ele>
        <time>2026-05-13T08:14:26Z</time>
      </trkpt>
      <trkpt lat="45.92914" lon="5.5969">
        <ele>859.8</ele>
        <time>2026-05-13T08:14:27Z</time>
      </trkpt>
      <trkpt lat="45.92917" lon="5.59691">
        <ele>859.8</ele>
        <time>2026-05-13T08:14:28Z</time>
      </trkpt>
      <trkpt lat="45.92919" lon="5.59691">
        <ele>859.8</ele>
        <time>2026-05-13T08:14:29Z</time>
      </trkpt>
      <trkpt lat="45.92922" lon="5.59692">
        <ele>860.2</ele>
        <time>2026-05-13T08:14:30Z</time>
      </trkpt>
      <trkpt lat="45.92924" lon="5.59693">
        <ele>860.2</ele>
        <time>2026-05-13T08:14:31Z</time>
      </trkpt>
      <trkpt lat="45.92927" lon="5.59694">
        <ele>860.2</ele>
        <time>2026-05-13T08:14:32Z</time>
      </trkpt>
      <trkpt lat="45.92929" lon="5.59694">
        <ele>860.6</ele>
        <time>2026-05-13T08:14:33Z</time>
      </trkpt>
      <trkpt lat="45.92932" lon="5.59695">
        <ele>860.6</ele>
        <time>2026-05-13T08:14:34Z</time>
      </trkpt>
      <trkpt lat="45.92934" lon="5.59695">
        <ele>860.6</ele>
        <time>2026-05-13T08:14:35Z</time>
      </trkpt>
      <trkpt lat="45.92936" lon="5.59695">
        <ele>860.8</ele>
        <time>2026-05-13T08:14:36Z</time>
      </trkpt>
      <trkpt lat="45.92937" lon="5.59695">
        <ele>861.2</ele>
        <time>2026-05-13T08:14:37Z</time>
      </trkpt>
      <trkpt lat="45.92939" lon="5.59696">
        <ele>861.2</ele>
        <time>2026-05-13T08:14:38Z</time>
      </trkpt>
      <trkpt lat="45.9294" lon="5.59697">
        <ele>861.2</ele>
        <time>2026-05-13T08:14:39Z</time>
      </trkpt>
      <trkpt lat="45.9294" lon="5.59699">
        <ele>861.2</ele>
        <time>2026-05-13T08:14:40Z</time>
      </trkpt>
      <trkpt lat="45.9294" lon="5.59702">
        <ele>861.4</ele>
        <time>2026-05-13T08:14:41Z</time>
      </trkpt>
      <trkpt lat="45.92939" lon="5.59705">
        <ele>861.4</ele>
        <time>2026-05-13T08:14:42Z</time>
      </trkpt>
      <trkpt lat="45.92938" lon="5.59708">
        <ele>861.4</ele>
        <time>2026-05-13T08:14:43Z</time>
      </trkpt>
      <trkpt lat="45.92936" lon="5.59711">
        <ele>861.4</ele>
        <time>2026-05-13T08:14:44Z</time>
      </trkpt>
      <trkpt lat="45.92934" lon="5.59714">
        <ele>861.6</ele>
        <time>2026-05-13T08:14:45Z</time>
      </trkpt>
      <trkpt lat="45.92932" lon="5.59716">
        <ele>861.6</ele>
        <time>2026-05-13T08:14:46Z</time>
      </trkpt>
      <trkpt lat="45.9293" lon="5.59719">
        <ele>861.6</ele>
        <time>2026-05-13T08:14:47Z</time>
      </trkpt>
      <trkpt lat="45.92929" lon="5.59721">
        <ele>861.4</ele>
        <time>2026-05-13T08:14:48Z</time>
      </trkpt>
      <trkpt lat="45.92929" lon="5.59721">
        <ele>861.6</ele>
        <time>2026-05-13T08:14:49Z</time>
      </trkpt>
      <trkpt lat="45.92927" lon="5.59724">
        <ele>861.6</ele>
        <time>2026-05-13T08:14:50Z</time>
      </trkpt>
      <trkpt lat="45.92925" lon="5.59727">
        <ele>861.8</ele>
        <time>2026-05-13T08:14:51Z</time>
      </trkpt>
      <trkpt lat="45.92923" lon="5.5973">
        <ele>862</ele>
        <time>2026-05-13T08:14:52Z</time>
      </trkpt>
      <trkpt lat="45.92921" lon="5.59732">
        <ele>862.2</ele>
        <time>2026-05-13T08:14:53Z</time>
      </trkpt>
      <trkpt lat="45.9292" lon="5.59734">
        <ele>862.6</ele>
        <time>2026-05-13T08:14:54Z</time>
      </trkpt>
      <trkpt lat="45.92918" lon="5.59737">
        <ele>862.4</ele>
        <time>2026-05-13T08:14:55Z</time>
      </trkpt>
      <trkpt lat="45.92917" lon="5.59739">
        <ele>862.4</ele>
        <time>2026-05-13T08:14:56Z</time>
      </trkpt>
      <trkpt lat="45.92916" lon="5.59742">
        <ele>862.4</ele>
        <time>2026-05-13T08:14:57Z</time>
      </trkpt>
      <trkpt lat="45.92914" lon="5.59745">
        <ele>862.8</ele>
        <time>2026-05-13T08:14:58Z</time>
      </trkpt>
      <trkpt lat="45.92913" lon="5.59748">
        <ele>862.8</ele>
        <time>2026-05-13T08:14:59Z</time>
      </trkpt>
      <trkpt lat="45.92912" lon="5.5975">
        <ele>863.2</ele>
        <time>2026-05-13T08:15:00Z</time>
      </trkpt>
      <trkpt lat="45.92911" lon="5.59753">
        <ele>863.2</ele>
        <time>2026-05-13T08:15:01Z</time>
      </trkpt>
      <trkpt lat="45.9291" lon="5.59756">
        <ele>863.2</ele>
        <time>2026-05-13T08:15:02Z</time>
      </trkpt>
      <trkpt lat="45.92908" lon="5.59759">
        <ele>863.6</ele>
        <time>2026-05-13T08:15:03Z</time>
      </trkpt>
      <trkpt lat="45.92907" lon="5.59762">
        <ele>863.6</ele>
        <time>2026-05-13T08:15:04Z</time>
      </trkpt>
      <trkpt lat="45.92906" lon="5.59765">
        <ele>863.6</ele>
        <time>2026-05-13T08:15:05Z</time>
      </trkpt>
      <trkpt lat="45.92904" lon="5.59768">
        <ele>864</ele>
        <time>2026-05-13T08:15:06Z</time>
      </trkpt>
      <trkpt lat="45.92903" lon="5.59771">
        <ele>864</ele>
        <time>2026-05-13T08:15:07Z</time>
      </trkpt>
      <trkpt lat="45.92902" lon="5.59774">
        <ele>864</ele>
        <time>2026-05-13T08:15:08Z</time>
      </trkpt>
      <trkpt lat="45.92901" lon="5.59778">
        <ele>864.2</ele>
        <time>2026-05-13T08:15:09Z</time>
      </trkpt>
      <trkpt lat="45.929" lon="5.59781">
        <ele>864.2</ele>
        <time>2026-05-13T08:15:10Z</time>
      </trkpt>
      <trkpt lat="45.92899" lon="5.59784">
        <ele>864.2</ele>
        <time>2026-05-13T08:15:11Z</time>
      </trkpt>
      <trkpt lat="45.92898" lon="5.59788">
        <ele>864.2</ele>
        <time>2026-05-13T08:15:12Z</time>
      </trkpt>
      <trkpt lat="45.92897" lon="5.59791">
        <ele>864.4</ele>
        <time>2026-05-13T08:15:13Z</time>
      </trkpt>
      <trkpt lat="45.92896" lon="5.59794">
        <ele>864.6</ele>
        <time>2026-05-13T08:15:14Z</time>
      </trkpt>
      <trkpt lat="45.92896" lon="5.59797">
        <ele>864.8</ele>
        <time>2026-05-13T08:15:15Z</time>
      </trkpt>
      <trkpt lat="45.92895" lon="5.598">
        <ele>864.8</ele>
        <time>2026-05-13T08:15:16Z</time>
      </trkpt>
      <trkpt lat="45.92895" lon="5.59803">
        <ele>864.8</ele>
        <time>2026-05-13T08:15:17Z</time>
      </trkpt>
      <trkpt lat="45.92894" lon="5.59807">
        <ele>865.2</ele>
        <time>2026-05-13T08:15:18Z</time>
      </trkpt>
      <trkpt lat="45.92894" lon="5.5981">
        <ele>865.2</ele>
        <time>2026-05-13T08:15:19Z</time>
      </trkpt>
      <trkpt lat="45.92893" lon="5.59813">
        <ele>865.2</ele>
        <time>2026-05-13T08:15:20Z</time>
      </trkpt>
      <trkpt lat="45.92893" lon="5.59817">
        <ele>865.2</ele>
        <time>2026-05-13T08:15:21Z</time>
      </trkpt>
      <trkpt lat="45.92892" lon="5.59819">
        <ele>865.4</ele>
        <time>2026-05-13T08:15:22Z</time>
      </trkpt>
      <trkpt lat="45.92891" lon="5.59822">
        <ele>865.4</ele>
        <time>2026-05-13T08:15:23Z</time>
      </trkpt>
      <trkpt lat="45.9289" lon="5.59824">
        <ele>865.6</ele>
        <time>2026-05-13T08:15:24Z</time>
      </trkpt>
      <trkpt lat="45.92889" lon="5.59825">
        <ele>865.6</ele>
        <time>2026-05-13T08:15:25Z</time>
      </trkpt>
      <trkpt lat="45.92888" lon="5.59826">
        <ele>865.6</ele>
        <time>2026-05-13T08:15:26Z</time>
      </trkpt>
      <trkpt lat="45.92888" lon="5.59827">
        <ele>865.8</ele>
        <time>2026-05-13T08:15:27Z</time>
      </trkpt>
      <trkpt lat="45.92887" lon="5.59829">
        <ele>865.8</ele>
        <time>2026-05-13T08:15:28Z</time>
      </trkpt>
      <trkpt lat="45.92887" lon="5.5983">
        <ele>865.8</ele>
        <time>2026-05-13T08:15:29Z</time>
      </trkpt>
      <trkpt lat="45.92886" lon="5.59832">
        <ele>865.8</ele>
        <time>2026-05-13T08:15:30Z</time>
      </trkpt>
      <trkpt lat="45.92886" lon="5.59834">
        <ele>865.8</ele>
        <time>2026-05-13T08:15:31Z</time>
      </trkpt>
      <trkpt lat="45.92885" lon="5.59835">
        <ele>865.8</ele>
        <time>2026-05-13T08:15:32Z</time>
      </trkpt>
      <trkpt lat="45.92884" lon="5.59836">
        <ele>865.8</ele>
        <time>2026-05-13T08:15:33Z</time>
      </trkpt>
      <trkpt lat="45.92884" lon="5.59837">
        <ele>865.8</ele>
        <time>2026-05-13T08:15:34Z</time>
      </trkpt>
      <trkpt lat="45.92883" lon="5.59839">
        <ele>865.6</ele>
        <time>2026-05-13T08:15:35Z</time>
      </trkpt>
      <trkpt lat="45.92883" lon="5.5984">
        <ele>865.6</ele>
        <time>2026-05-13T08:15:36Z</time>
      </trkpt>
      <trkpt lat="45.92882" lon="5.59842">
        <ele>865.6</ele>
        <time>2026-05-13T08:15:37Z</time>
      </trkpt>
      <trkpt lat="45.92881" lon="5.59842">
        <ele>865.6</ele>
        <time>2026-05-13T08:15:38Z</time>
      </trkpt>
      <trkpt lat="45.9288" lon="5.59843">
        <ele>865.4</ele>
        <time>2026-05-13T08:15:39Z</time>
      </trkpt>
      <trkpt lat="45.92879" lon="5.59845">
        <ele>865.4</ele>
        <time>2026-05-13T08:15:40Z</time>
      </trkpt>
      <trkpt lat="45.92878" lon="5.59846">
        <ele>865.4</ele>
        <time>2026-05-13T08:15:41Z</time>
      </trkpt>
      <trkpt lat="45.92877" lon="5.59847">
        <ele>865</ele>
        <time>2026-05-13T08:15:42Z</time>
      </trkpt>
      <trkpt lat="45.92877" lon="5.59849">
        <ele>865</ele>
        <time>2026-05-13T08:15:43Z</time>
      </trkpt>
      <trkpt lat="45.92876" lon="5.5985">
        <ele>865</ele>
        <time>2026-05-13T08:15:44Z</time>
      </trkpt>
      <trkpt lat="45.92875" lon="5.59852">
        <ele>865</ele>
        <time>2026-05-13T08:15:45Z</time>
      </trkpt>
      <trkpt lat="45.92874" lon="5.59853">
        <ele>865</ele>
        <time>2026-05-13T08:15:46Z</time>
      </trkpt>
      <trkpt lat="45.92872" lon="5.59855">
        <ele>865</ele>
        <time>2026-05-13T08:15:47Z</time>
      </trkpt>
      <trkpt lat="45.92872" lon="5.59856">
        <ele>864.8</ele>
        <time>2026-05-13T08:15:48Z</time>
      </trkpt>
      <trkpt lat="45.92871" lon="5.59857">
        <ele>864.8</ele>
        <time>2026-05-13T08:15:49Z</time>
      </trkpt>
      <trkpt lat="45.92869" lon="5.59859">
        <ele>864.6</ele>
        <time>2026-05-13T08:15:50Z</time>
      </trkpt>
      <trkpt lat="45.92868" lon="5.5986">
        <ele>864.6</ele>
        <time>2026-05-13T08:15:51Z</time>
      </trkpt>
      <trkpt lat="45.92867" lon="5.59862">
        <ele>864.6</ele>
        <time>2026-05-13T08:15:52Z</time>
      </trkpt>
      <trkpt lat="45.92865" lon="5.59863">
        <ele>864.2</ele>
        <time>2026-05-13T08:15:53Z</time>
      </trkpt>
      <trkpt lat="45.92864" lon="5.59865">
        <ele>864.2</ele>
        <time>2026-05-13T08:15:54Z</time>
      </trkpt>
      <trkpt lat="45.92862" lon="5.59868">
        <ele>864.2</ele>
        <time>2026-05-13T08:15:55Z</time>
      </trkpt>
      <trkpt lat="45.9286" lon="5.5987">
        <ele>864.2</ele>
        <time>2026-05-13T08:15:56Z</time>
      </trkpt>
      <trkpt lat="45.92859" lon="5.59871">
        <ele>863.8</ele>
        <time>2026-05-13T08:15:57Z</time>
      </trkpt>
      <trkpt lat="45.92857" lon="5.59873">
        <ele>863.8</ele>
        <time>2026-05-13T08:15:58Z</time>
      </trkpt>
      <trkpt lat="45.92856" lon="5.59874">
        <ele>863.8</ele>
        <time>2026-05-13T08:15:59Z</time>
      </trkpt>
      <trkpt lat="45.92854" lon="5.59875">
        <ele>863.8</ele>
        <time>2026-05-13T08:16:00Z</time>
      </trkpt>
      <trkpt lat="45.92852" lon="5.59878">
        <ele>863.8</ele>
        <time>2026-05-13T08:16:01Z</time>
      </trkpt>
      <trkpt lat="45.92852" lon="5.59878">
        <ele>863.6</ele>
        <time>2026-05-13T08:16:02Z</time>
      </trkpt>
      <trkpt lat="45.92852" lon="5.59878">
        <ele>863.6</ele>
        <time>2026-05-13T08:16:03Z</time>
      </trkpt>
      <trkpt lat="45.92852" lon="5.59878">
        <ele>863.6</ele>
        <time>2026-05-13T08:16:04Z</time>
      </trkpt>
      <trkpt lat="45.9285" lon="5.59879">
        <ele>863.6</ele>
        <time>2026-05-13T08:16:05Z</time>
      </trkpt>
      <trkpt lat="45.92848" lon="5.5988">
        <ele>863.6</ele>
        <time>2026-05-13T08:16:06Z</time>
      </trkpt>
      <trkpt lat="45.92846" lon="5.59882">
        <ele>863</ele>
        <time>2026-05-13T08:16:07Z</time>
      </trkpt>
      <trkpt lat="45.92843" lon="5.59884">
        <ele>863</ele>
        <time>2026-05-13T08:16:08Z</time>
      </trkpt>
      <trkpt lat="45.92841" lon="5.59886">
        <ele>862.6</ele>
        <time>2026-05-13T08:16:09Z</time>
      </trkpt>
      <trkpt lat="45.92838" lon="5.59888">
        <ele>862.6</ele>
        <time>2026-05-13T08:16:10Z</time>
      </trkpt>
      <trkpt lat="45.92834" lon="5.5989">
        <ele>862.6</ele>
        <time>2026-05-13T08:16:11Z</time>
      </trkpt>
      <trkpt lat="45.92831" lon="5.59892">
        <ele>862.6</ele>
        <time>2026-05-13T08:16:12Z</time>
      </trkpt>
      <trkpt lat="45.92828" lon="5.59894">
        <ele>862.6</ele>
        <time>2026-05-13T08:16:13Z</time>
      </trkpt>
      <trkpt lat="45.92824" lon="5.59897">
        <ele>862.4</ele>
        <time>2026-05-13T08:16:14Z</time>
      </trkpt>
      <trkpt lat="45.92821" lon="5.59899">
        <ele>862.4</ele>
        <time>2026-05-13T08:16:15Z</time>
      </trkpt>
      <trkpt lat="45.92817" lon="5.59902">
        <ele>862.2</ele>
        <time>2026-05-13T08:16:16Z</time>
      </trkpt>
      <trkpt lat="45.92813" lon="5.59904">
        <ele>862.2</ele>
        <time>2026-05-13T08:16:17Z</time>
      </trkpt>
      <trkpt lat="45.92809" lon="5.59907">
        <ele>861.8</ele>
        <time>2026-05-13T08:16:18Z</time>
      </trkpt>
      <trkpt lat="45.92806" lon="5.5991">
        <ele>861.6</ele>
        <time>2026-05-13T08:16:19Z</time>
      </trkpt>
      <trkpt lat="45.92803" lon="5.59912">
        <ele>861.6</ele>
        <time>2026-05-13T08:16:20Z</time>
      </trkpt>
      <trkpt lat="45.92799" lon="5.59914">
        <ele>861.6</ele>
        <time>2026-05-13T08:16:21Z</time>
      </trkpt>
      <trkpt lat="45.92796" lon="5.59917">
        <ele>861.8</ele>
        <time>2026-05-13T08:16:22Z</time>
      </trkpt>
      <trkpt lat="45.92793" lon="5.5992">
        <ele>861.4</ele>
        <time>2026-05-13T08:16:23Z</time>
      </trkpt>
      <trkpt lat="45.92791" lon="5.59924">
        <ele>861.4</ele>
        <time>2026-05-13T08:16:24Z</time>
      </trkpt>
      <trkpt lat="45.92789" lon="5.59928">
        <ele>861.8</ele>
        <time>2026-05-13T08:16:25Z</time>
      </trkpt>
      <trkpt lat="45.92786" lon="5.59931">
        <ele>862</ele>
        <time>2026-05-13T08:16:26Z</time>
      </trkpt>
      <trkpt lat="45.92784" lon="5.59935">
        <ele>861.6</ele>
        <time>2026-05-13T08:16:27Z</time>
      </trkpt>
      <trkpt lat="45.92782" lon="5.59939">
        <ele>861.8</ele>
        <time>2026-05-13T08:16:28Z</time>
      </trkpt>
      <trkpt lat="45.9278" lon="5.59943">
        <ele>861.8</ele>
        <time>2026-05-13T08:16:29Z</time>
      </trkpt>
      <trkpt lat="45.92777" lon="5.59946">
        <ele>861.6</ele>
        <time>2026-05-13T08:16:30Z</time>
      </trkpt>
      <trkpt lat="45.92775" lon="5.59949">
        <ele>861.8</ele>
        <time>2026-05-13T08:16:31Z</time>
      </trkpt>
      <trkpt lat="45.92773" lon="5.59952">
        <ele>861.4</ele>
        <time>2026-05-13T08:16:32Z</time>
      </trkpt>
      <trkpt lat="45.9277" lon="5.59955">
        <ele>861.8</ele>
        <time>2026-05-13T08:16:33Z</time>
      </trkpt>
      <trkpt lat="45.92767" lon="5.59959">
        <ele>861.8</ele>
        <time>2026-05-13T08:16:34Z</time>
      </trkpt>
      <trkpt lat="45.92765" lon="5.59962">
        <ele>861.8</ele>
        <time>2026-05-13T08:16:35Z</time>
      </trkpt>
      <trkpt lat="45.92762" lon="5.59965">
        <ele>861.4</ele>
        <time>2026-05-13T08:16:36Z</time>
      </trkpt>
      <trkpt lat="45.92759" lon="5.59968">
        <ele>861.6</ele>
        <time>2026-05-13T08:16:37Z</time>
      </trkpt>
      <trkpt lat="45.92756" lon="5.59972">
        <ele>861.6</ele>
        <time>2026-05-13T08:16:38Z</time>
      </trkpt>
      <trkpt lat="45.92753" lon="5.59975">
        <ele>861.8</ele>
        <time>2026-05-13T08:16:39Z</time>
      </trkpt>
      <trkpt lat="45.92751" lon="5.59978">
        <ele>861.8</ele>
        <time>2026-05-13T08:16:40Z</time>
      </trkpt>
      <trkpt lat="45.92748" lon="5.59982">
        <ele>861.8</ele>
        <time>2026-05-13T08:16:41Z</time>
      </trkpt>
      <trkpt lat="45.92745" lon="5.59985">
        <ele>861.8</ele>
        <time>2026-05-13T08:16:42Z</time>
      </trkpt>
      <trkpt lat="45.92742" lon="5.59988">
        <ele>861.4</ele>
        <time>2026-05-13T08:16:43Z</time>
      </trkpt>
      <trkpt lat="45.9274" lon="5.59992">
        <ele>861.4</ele>
        <time>2026-05-13T08:16:44Z</time>
      </trkpt>
      <trkpt lat="45.92737" lon="5.59995">
        <ele>861.4</ele>
        <time>2026-05-13T08:16:45Z</time>
      </trkpt>
      <trkpt lat="45.92734" lon="5.59999">
        <ele>861.4</ele>
        <time>2026-05-13T08:16:46Z</time>
      </trkpt>
      <trkpt lat="45.92731" lon="5.60003">
        <ele>861.2</ele>
        <time>2026-05-13T08:16:47Z</time>
      </trkpt>
      <trkpt lat="45.92729" lon="5.60006">
        <ele>860.8</ele>
        <time>2026-05-13T08:16:48Z</time>
      </trkpt>
      <trkpt lat="45.92727" lon="5.6001">
        <ele>860.8</ele>
        <time>2026-05-13T08:16:49Z</time>
      </trkpt>
      <trkpt lat="45.92724" lon="5.60014">
        <ele>860.8</ele>
        <time>2026-05-13T08:16:50Z</time>
      </trkpt>
      <trkpt lat="45.92722" lon="5.60018">
        <ele>860.8</ele>
        <time>2026-05-13T08:16:51Z</time>
      </trkpt>
      <trkpt lat="45.9272" lon="5.60022">
        <ele>861</ele>
        <time>2026-05-13T08:16:52Z</time>
      </trkpt>
      <trkpt lat="45.92718" lon="5.60026">
        <ele>861.2</ele>
        <time>2026-05-13T08:16:53Z</time>
      </trkpt>
      <trkpt lat="45.92715" lon="5.6003">
        <ele>861.2</ele>
        <time>2026-05-13T08:16:54Z</time>
      </trkpt>
      <trkpt lat="45.92713" lon="5.60034">
        <ele>861.2</ele>
        <time>2026-05-13T08:16:55Z</time>
      </trkpt>
      <trkpt lat="45.92711" lon="5.60037">
        <ele>861.2</ele>
        <time>2026-05-13T08:16:56Z</time>
      </trkpt>
      <trkpt lat="45.92709" lon="5.60041">
        <ele>861.2</ele>
        <time>2026-05-13T08:16:57Z</time>
      </trkpt>
      <trkpt lat="45.92706" lon="5.60045">
        <ele>860.8</ele>
        <time>2026-05-13T08:16:58Z</time>
      </trkpt>
      <trkpt lat="45.92704" lon="5.60049">
        <ele>860.8</ele>
        <time>2026-05-13T08:16:59Z</time>
      </trkpt>
      <trkpt lat="45.92701" lon="5.60054">
        <ele>860.6</ele>
        <time>2026-05-13T08:17:00Z</time>
      </trkpt>
      <trkpt lat="45.92698" lon="5.60058">
        <ele>860.4</ele>
        <time>2026-05-13T08:17:01Z</time>
      </trkpt>
      <trkpt lat="45.92696" lon="5.60063">
        <ele>860.4</ele>
        <time>2026-05-13T08:17:02Z</time>
      </trkpt>
      <trkpt lat="45.92693" lon="5.60067">
        <ele>860.4</ele>
        <time>2026-05-13T08:17:03Z</time>
      </trkpt>
      <trkpt lat="45.9269" lon="5.60071">
        <ele>860.4</ele>
        <time>2026-05-13T08:17:04Z</time>
      </trkpt>
      <trkpt lat="45.92687" lon="5.60076">
        <ele>859.8</ele>
        <time>2026-05-13T08:17:05Z</time>
      </trkpt>
      <trkpt lat="45.92684" lon="5.6008">
        <ele>859.8</ele>
        <time>2026-05-13T08:17:06Z</time>
      </trkpt>
      <trkpt lat="45.92681" lon="5.60084">
        <ele>859.8</ele>
        <time>2026-05-13T08:17:07Z</time>
      </trkpt>
      <trkpt lat="45.92678" lon="5.60088">
        <ele>859.6</ele>
        <time>2026-05-13T08:17:08Z</time>
      </trkpt>
      <trkpt lat="45.92675" lon="5.60093">
        <ele>859.6</ele>
        <time>2026-05-13T08:17:09Z</time>
      </trkpt>
      <trkpt lat="45.92672" lon="5.60097">
        <ele>859.6</ele>
        <time>2026-05-13T08:17:10Z</time>
      </trkpt>
      <trkpt lat="45.9267" lon="5.601">
        <ele>859.6</ele>
        <time>2026-05-13T08:17:11Z</time>
      </trkpt>
      <trkpt lat="45.92667" lon="5.60104">
        <ele>858.8</ele>
        <time>2026-05-13T08:17:12Z</time>
      </trkpt>
      <trkpt lat="45.92664" lon="5.60107">
        <ele>858.8</ele>
        <time>2026-05-13T08:17:13Z</time>
      </trkpt>
      <trkpt lat="45.92661" lon="5.6011">
        <ele>858.8</ele>
        <time>2026-05-13T08:17:14Z</time>
      </trkpt>
      <trkpt lat="45.92659" lon="5.60113">
        <ele>858.8</ele>
        <time>2026-05-13T08:17:15Z</time>
      </trkpt>
      <trkpt lat="45.92656" lon="5.60116">
        <ele>858.8</ele>
        <time>2026-05-13T08:17:16Z</time>
      </trkpt>
      <trkpt lat="45.92653" lon="5.60119">
        <ele>858.8</ele>
        <time>2026-05-13T08:17:17Z</time>
      </trkpt>
      <trkpt lat="45.9265" lon="5.60122">
        <ele>858.4</ele>
        <time>2026-05-13T08:17:18Z</time>
      </trkpt>
      <trkpt lat="45.92647" lon="5.60125">
        <ele>858.4</ele>
        <time>2026-05-13T08:17:19Z</time>
      </trkpt>
      <trkpt lat="45.92645" lon="5.60128">
        <ele>859</ele>
        <time>2026-05-13T08:17:20Z</time>
      </trkpt>
      <trkpt lat="45.92642" lon="5.60131">
        <ele>859</ele>
        <time>2026-05-13T08:17:21Z</time>
      </trkpt>
      <trkpt lat="45.9264" lon="5.60134">
        <ele>859</ele>
        <time>2026-05-13T08:17:22Z</time>
      </trkpt>
      <trkpt lat="45.92637" lon="5.60137">
        <ele>859</ele>
        <time>2026-05-13T08:17:23Z</time>
      </trkpt>
      <trkpt lat="45.92634" lon="5.6014">
        <ele>859</ele>
        <time>2026-05-13T08:17:24Z</time>
      </trkpt>
      <trkpt lat="45.92631" lon="5.60144">
        <ele>859</ele>
        <time>2026-05-13T08:17:25Z</time>
      </trkpt>
      <trkpt lat="45.92628" lon="5.60147">
        <ele>859</ele>
        <time>2026-05-13T08:17:26Z</time>
      </trkpt>
      <trkpt lat="45.92625" lon="5.60151">
        <ele>859</ele>
        <time>2026-05-13T08:17:27Z</time>
      </trkpt>
      <trkpt lat="45.92622" lon="5.60154">
        <ele>859</ele>
        <time>2026-05-13T08:17:28Z</time>
      </trkpt>
      <trkpt lat="45.92619" lon="5.60158">
        <ele>859</ele>
        <time>2026-05-13T08:17:29Z</time>
      </trkpt>
      <trkpt lat="45.92617" lon="5.60161">
        <ele>859</ele>
        <time>2026-05-13T08:17:30Z</time>
      </trkpt>
      <trkpt lat="45.92614" lon="5.60164">
        <ele>859</ele>
        <time>2026-05-13T08:17:31Z</time>
      </trkpt>
      <trkpt lat="45.92612" lon="5.60167">
        <ele>859</ele>
        <time>2026-05-13T08:17:32Z</time>
      </trkpt>
      <trkpt lat="45.92608" lon="5.60171">
        <ele>859</ele>
        <time>2026-05-13T08:17:33Z</time>
      </trkpt>
      <trkpt lat="45.92605" lon="5.60174">
        <ele>859</ele>
        <time>2026-05-13T08:17:34Z</time>
      </trkpt>
      <trkpt lat="45.92602" lon="5.60177">
        <ele>858.8</ele>
        <time>2026-05-13T08:17:35Z</time>
      </trkpt>
      <trkpt lat="45.92599" lon="5.60181">
        <ele>859</ele>
        <time>2026-05-13T08:17:36Z</time>
      </trkpt>
      <trkpt lat="45.92596" lon="5.60184">
        <ele>859</ele>
        <time>2026-05-13T08:17:37Z</time>
      </trkpt>
      <trkpt lat="45.92592" lon="5.60188">
        <ele>858.6</ele>
        <time>2026-05-13T08:17:38Z</time>
      </trkpt>
      <trkpt lat="45.92589" lon="5.60191">
        <ele>858.6</ele>
        <time>2026-05-13T08:17:39Z</time>
      </trkpt>
      <trkpt lat="45.92586" lon="5.60194">
        <ele>858.4</ele>
        <time>2026-05-13T08:17:40Z</time>
      </trkpt>
      <trkpt lat="45.92583" lon="5.60197">
        <ele>858.4</ele>
        <time>2026-05-13T08:17:41Z</time>
      </trkpt>
      <trkpt lat="45.9258" lon="5.602">
        <ele>858.4</ele>
        <time>2026-05-13T08:17:42Z</time>
      </trkpt>
      <trkpt lat="45.92577" lon="5.60203">
        <ele>858.4</ele>
        <time>2026-05-13T08:17:43Z</time>
      </trkpt>
      <trkpt lat="45.92574" lon="5.60206">
        <ele>858.8</ele>
        <time>2026-05-13T08:17:44Z</time>
      </trkpt>
      <trkpt lat="45.92571" lon="5.60209">
        <ele>858.8</ele>
        <time>2026-05-13T08:17:45Z</time>
      </trkpt>
      <trkpt lat="45.92568" lon="5.60212">
        <ele>859</ele>
        <time>2026-05-13T08:17:46Z</time>
      </trkpt>
      <trkpt lat="45.92566" lon="5.60216">
        <ele>858.8</ele>
        <time>2026-05-13T08:17:47Z</time>
      </trkpt>
      <trkpt lat="45.92563" lon="5.60219">
        <ele>858.6</ele>
        <time>2026-05-13T08:17:48Z</time>
      </trkpt>
      <trkpt lat="45.9256" lon="5.60223">
        <ele>858.6</ele>
        <time>2026-05-13T08:17:49Z</time>
      </trkpt>
      <trkpt lat="45.92556" lon="5.60226">
        <ele>859</ele>
        <time>2026-05-13T08:17:50Z</time>
      </trkpt>
      <trkpt lat="45.92553" lon="5.6023">
        <ele>859</ele>
        <time>2026-05-13T08:17:51Z</time>
      </trkpt>
      <trkpt lat="45.92549" lon="5.60235">
        <ele>859</ele>
        <time>2026-05-13T08:17:52Z</time>
      </trkpt>
      <trkpt lat="45.92547" lon="5.60238">
        <ele>859</ele>
        <time>2026-05-13T08:17:53Z</time>
      </trkpt>
      <trkpt lat="45.92544" lon="5.60242">
        <ele>859</ele>
        <time>2026-05-13T08:17:54Z</time>
      </trkpt>
      <trkpt lat="45.92541" lon="5.60245">
        <ele>858.6</ele>
        <time>2026-05-13T08:17:55Z</time>
      </trkpt>
      <trkpt lat="45.9254" lon="5.60248">
        <ele>858.6</ele>
        <time>2026-05-13T08:17:56Z</time>
      </trkpt>
      <trkpt lat="45.92538" lon="5.60253">
        <ele>859</ele>
        <time>2026-05-13T08:17:57Z</time>
      </trkpt>
      <trkpt lat="45.92534" lon="5.60256">
        <ele>858.6</ele>
        <time>2026-05-13T08:17:58Z</time>
      </trkpt>
      <trkpt lat="45.92532" lon="5.6026">
        <ele>858.6</ele>
        <time>2026-05-13T08:17:59Z</time>
      </trkpt>
      <trkpt lat="45.9253" lon="5.60264">
        <ele>858.6</ele>
        <time>2026-05-13T08:18:00Z</time>
      </trkpt>
      <trkpt lat="45.92528" lon="5.60267">
        <ele>858.8</ele>
        <time>2026-05-13T08:18:01Z</time>
      </trkpt>
      <trkpt lat="45.92526" lon="5.60271">
        <ele>858.8</ele>
        <time>2026-05-13T08:18:02Z</time>
      </trkpt>
      <trkpt lat="45.92524" lon="5.60274">
        <ele>858.8</ele>
        <time>2026-05-13T08:18:03Z</time>
      </trkpt>
      <trkpt lat="45.92524" lon="5.60274">
        <ele>859.2</ele>
        <time>2026-05-13T08:18:04Z</time>
      </trkpt>
      <trkpt lat="45.92522" lon="5.60277">
        <ele>859.2</ele>
        <time>2026-05-13T08:18:05Z</time>
      </trkpt>
      <trkpt lat="45.92519" lon="5.6028">
        <ele>859.2</ele>
        <time>2026-05-13T08:18:06Z</time>
      </trkpt>
      <trkpt lat="45.92517" lon="5.60282">
        <ele>859.2</ele>
        <time>2026-05-13T08:18:07Z</time>
      </trkpt>
      <trkpt lat="45.92514" lon="5.60285">
        <ele>858.8</ele>
        <time>2026-05-13T08:18:08Z</time>
      </trkpt>
      <trkpt lat="45.92512" lon="5.60288">
        <ele>858.8</ele>
        <time>2026-05-13T08:18:09Z</time>
      </trkpt>
      <trkpt lat="45.9251" lon="5.60291">
        <ele>859.2</ele>
        <time>2026-05-13T08:18:10Z</time>
      </trkpt>
      <trkpt lat="45.92508" lon="5.60293">
        <ele>859.8</ele>
        <time>2026-05-13T08:18:11Z</time>
      </trkpt>
      <trkpt lat="45.92506" lon="5.60295">
        <ele>860.2</ele>
        <time>2026-05-13T08:18:12Z</time>
      </trkpt>
      <trkpt lat="45.92504" lon="5.60298">
        <ele>860.2</ele>
        <time>2026-05-13T08:18:13Z</time>
      </trkpt>
      <trkpt lat="45.92502" lon="5.603">
        <ele>860.2</ele>
        <time>2026-05-13T08:18:14Z</time>
      </trkpt>
      <trkpt lat="45.92501" lon="5.60302">
        <ele>860.2</ele>
        <time>2026-05-13T08:18:15Z</time>
      </trkpt>
      <trkpt lat="45.92499" lon="5.60304">
        <ele>860.8</ele>
        <time>2026-05-13T08:18:16Z</time>
      </trkpt>
      <trkpt lat="45.92497" lon="5.60307">
        <ele>861</ele>
        <time>2026-05-13T08:18:17Z</time>
      </trkpt>
      <trkpt lat="45.92495" lon="5.60309">
        <ele>861</ele>
        <time>2026-05-13T08:18:18Z</time>
      </trkpt>
      <trkpt lat="45.92493" lon="5.60311">
        <ele>861.2</ele>
        <time>2026-05-13T08:18:19Z</time>
      </trkpt>
      <trkpt lat="45.92492" lon="5.60312">
        <ele>861.4</ele>
        <time>2026-05-13T08:18:20Z</time>
      </trkpt>
      <trkpt lat="45.92491" lon="5.60314">
        <ele>861.4</ele>
        <time>2026-05-13T08:18:21Z</time>
      </trkpt>
      <trkpt lat="45.92489" lon="5.60316">
        <ele>861.4</ele>
        <time>2026-05-13T08:18:22Z</time>
      </trkpt>
      <trkpt lat="45.92487" lon="5.60318">
        <ele>861.4</ele>
        <time>2026-05-13T08:18:23Z</time>
      </trkpt>
      <trkpt lat="45.92485" lon="5.60321">
        <ele>861.8</ele>
        <time>2026-05-13T08:18:24Z</time>
      </trkpt>
      <trkpt lat="45.92483" lon="5.60324">
        <ele>861.8</ele>
        <time>2026-05-13T08:18:25Z</time>
      </trkpt>
      <trkpt lat="45.92481" lon="5.60326">
        <ele>862.2</ele>
        <time>2026-05-13T08:18:26Z</time>
      </trkpt>
      <trkpt lat="45.92479" lon="5.60329">
        <ele>862.2</ele>
        <time>2026-05-13T08:18:27Z</time>
      </trkpt>
      <trkpt lat="45.92477" lon="5.60332">
        <ele>862.6</ele>
        <time>2026-05-13T08:18:28Z</time>
      </trkpt>
      <trkpt lat="45.92474" lon="5.60336">
        <ele>862.6</ele>
        <time>2026-05-13T08:18:29Z</time>
      </trkpt>
      <trkpt lat="45.92472" lon="5.60339">
        <ele>862.6</ele>
        <time>2026-05-13T08:18:30Z</time>
      </trkpt>
      <trkpt lat="45.9247" lon="5.60341">
        <ele>862.8</ele>
        <time>2026-05-13T08:18:31Z</time>
      </trkpt>
      <trkpt lat="45.92469" lon="5.60344">
        <ele>863.2</ele>
        <time>2026-05-13T08:18:32Z</time>
      </trkpt>
      <trkpt lat="45.92467" lon="5.60347">
        <ele>862.8</ele>
        <time>2026-05-13T08:18:33Z</time>
      </trkpt>
      <trkpt lat="45.92466" lon="5.60349">
        <ele>862.8</ele>
        <time>2026-05-13T08:18:34Z</time>
      </trkpt>
      <trkpt lat="45.92465" lon="5.60352">
        <ele>863</ele>
        <time>2026-05-13T08:18:35Z</time>
      </trkpt>
      <trkpt lat="45.92463" lon="5.60356">
        <ele>863.4</ele>
        <time>2026-05-13T08:18:36Z</time>
      </trkpt>
      <trkpt lat="45.92462" lon="5.6036">
        <ele>863.4</ele>
        <time>2026-05-13T08:18:37Z</time>
      </trkpt>
      <trkpt lat="45.92461" lon="5.60364">
        <ele>863.4</ele>
        <time>2026-05-13T08:18:38Z</time>
      </trkpt>
      <trkpt lat="45.9246" lon="5.60368">
        <ele>863.6</ele>
        <time>2026-05-13T08:18:39Z</time>
      </trkpt>
      <trkpt lat="45.92458" lon="5.60373">
        <ele>863.6</ele>
        <time>2026-05-13T08:18:40Z</time>
      </trkpt>
      <trkpt lat="45.92457" lon="5.60378">
        <ele>863.6</ele>
        <time>2026-05-13T08:18:41Z</time>
      </trkpt>
      <trkpt lat="45.92456" lon="5.60382">
        <ele>863.6</ele>
        <time>2026-05-13T08:18:42Z</time>
      </trkpt>
      <trkpt lat="45.92455" lon="5.60386">
        <ele>863.6</ele>
        <time>2026-05-13T08:18:43Z</time>
      </trkpt>
      <trkpt lat="45.92454" lon="5.6039">
        <ele>863.6</ele>
        <time>2026-05-13T08:18:44Z</time>
      </trkpt>
      <trkpt lat="45.92453" lon="5.60395">
        <ele>863</ele>
        <time>2026-05-13T08:18:45Z</time>
      </trkpt>
      <trkpt lat="45.92452" lon="5.60399">
        <ele>863</ele>
        <time>2026-05-13T08:18:46Z</time>
      </trkpt>
      <trkpt lat="45.92451" lon="5.60403">
        <ele>863</ele>
        <time>2026-05-13T08:18:47Z</time>
      </trkpt>
      <trkpt lat="45.9245" lon="5.60408">
        <ele>863</ele>
        <time>2026-05-13T08:18:48Z</time>
      </trkpt>
      <trkpt lat="45.92449" lon="5.60412">
        <ele>863</ele>
        <time>2026-05-13T08:18:49Z</time>
      </trkpt>
      <trkpt lat="45.92449" lon="5.60415">
        <ele>863.4</ele>
        <time>2026-05-13T08:18:50Z</time>
      </trkpt>
      <trkpt lat="45.92448" lon="5.60417">
        <ele>863.4</ele>
        <time>2026-05-13T08:18:51Z</time>
      </trkpt>
      <trkpt lat="45.92448" lon="5.6042">
        <ele>863.4</ele>
        <time>2026-05-13T08:18:52Z</time>
      </trkpt>
      <trkpt lat="45.92448" lon="5.60423">
        <ele>863.4</ele>
        <time>2026-05-13T08:18:53Z</time>
      </trkpt>
      <trkpt lat="45.92448" lon="5.60426">
        <ele>863.4</ele>
        <time>2026-05-13T08:18:54Z</time>
      </trkpt>
      <trkpt lat="45.92448" lon="5.6043">
        <ele>863.4</ele>
        <time>2026-05-13T08:18:55Z</time>
      </trkpt>
      <trkpt lat="45.92448" lon="5.60434">
        <ele>863.4</ele>
        <time>2026-05-13T08:18:56Z</time>
      </trkpt>
      <trkpt lat="45.92446" lon="5.60437">
        <ele>863.6</ele>
        <time>2026-05-13T08:18:57Z</time>
      </trkpt>
      <trkpt lat="45.92445" lon="5.60439">
        <ele>863.6</ele>
        <time>2026-05-13T08:18:58Z</time>
      </trkpt>
      <trkpt lat="45.92442" lon="5.60441">
        <ele>863.6</ele>
        <time>2026-05-13T08:18:59Z</time>
      </trkpt>
      <trkpt lat="45.92439" lon="5.60442">
        <ele>863.8</ele>
        <time>2026-05-13T08:19:00Z</time>
      </trkpt>
      <trkpt lat="45.92436" lon="5.60442">
        <ele>863.8</ele>
        <time>2026-05-13T08:19:01Z</time>
      </trkpt>
      <trkpt lat="45.92433" lon="5.60443">
        <ele>863.6</ele>
        <time>2026-05-13T08:19:02Z</time>
      </trkpt>
      <trkpt lat="45.9243" lon="5.60443">
        <ele>863.8</ele>
        <time>2026-05-13T08:19:03Z</time>
      </trkpt>
      <trkpt lat="45.92427" lon="5.60443">
        <ele>864.2</ele>
        <time>2026-05-13T08:19:04Z</time>
      </trkpt>
      <trkpt lat="45.92424" lon="5.60442">
        <ele>864.2</ele>
        <time>2026-05-13T08:19:05Z</time>
      </trkpt>
      <trkpt lat="45.92421" lon="5.60443">
        <ele>864.2</ele>
        <time>2026-05-13T08:19:06Z</time>
      </trkpt>
      <trkpt lat="45.92417" lon="5.60443">
        <ele>864.2</ele>
        <time>2026-05-13T08:19:07Z</time>
      </trkpt>
      <trkpt lat="45.92414" lon="5.60444">
        <ele>864.4</ele>
        <time>2026-05-13T08:19:08Z</time>
      </trkpt>
      <trkpt lat="45.92411" lon="5.60445">
        <ele>864.6</ele>
        <time>2026-05-13T08:19:09Z</time>
      </trkpt>
      <trkpt lat="45.92408" lon="5.60446">
        <ele>864.6</ele>
        <time>2026-05-13T08:19:10Z</time>
      </trkpt>
      <trkpt lat="45.92406" lon="5.60448">
        <ele>864.6</ele>
        <time>2026-05-13T08:19:11Z</time>
      </trkpt>
      <trkpt lat="45.92403" lon="5.6045">
        <ele>864.6</ele>
        <time>2026-05-13T08:19:12Z</time>
      </trkpt>
      <trkpt lat="45.924" lon="5.60452">
        <ele>865</ele>
        <time>2026-05-13T08:19:13Z</time>
      </trkpt>
      <trkpt lat="45.92398" lon="5.60454">
        <ele>865</ele>
        <time>2026-05-13T08:19:14Z</time>
      </trkpt>
      <trkpt lat="45.92395" lon="5.60456">
        <ele>865</ele>
        <time>2026-05-13T08:19:15Z</time>
      </trkpt>
      <trkpt lat="45.92392" lon="5.60457">
        <ele>865.2</ele>
        <time>2026-05-13T08:19:16Z</time>
      </trkpt>
      <trkpt lat="45.92386" lon="5.60461">
        <ele>865.2</ele>
        <time>2026-05-13T08:19:17Z</time>
      </trkpt>
      <trkpt lat="45.92384" lon="5.60463">
        <ele>865.4</ele>
        <time>2026-05-13T08:19:18Z</time>
      </trkpt>
      <trkpt lat="45.92382" lon="5.60464">
        <ele>865.8</ele>
        <time>2026-05-13T08:19:19Z</time>
      </trkpt>
      <trkpt lat="45.92379" lon="5.60465">
        <ele>865.8</ele>
        <time>2026-05-13T08:19:20Z</time>
      </trkpt>
      <trkpt lat="45.92376" lon="5.60466">
        <ele>865.8</ele>
        <time>2026-05-13T08:19:21Z</time>
      </trkpt>
      <trkpt lat="45.92374" lon="5.60466">
        <ele>866.2</ele>
        <time>2026-05-13T08:19:22Z</time>
      </trkpt>
      <trkpt lat="45.92372" lon="5.60466">
        <ele>866.4</ele>
        <time>2026-05-13T08:19:23Z</time>
      </trkpt>
      <trkpt lat="45.92369" lon="5.60467">
        <ele>866.8</ele>
        <time>2026-05-13T08:19:24Z</time>
      </trkpt>
      <trkpt lat="45.92367" lon="5.60467">
        <ele>867</ele>
        <time>2026-05-13T08:19:25Z</time>
      </trkpt>
      <trkpt lat="45.92365" lon="5.60468">
        <ele>867.4</ele>
        <time>2026-05-13T08:19:26Z</time>
      </trkpt>
      <trkpt lat="45.92362" lon="5.60468">
        <ele>867.4</ele>
        <time>2026-05-13T08:19:27Z</time>
      </trkpt>
      <trkpt lat="45.9236" lon="5.60468">
        <ele>867.8</ele>
        <time>2026-05-13T08:19:28Z</time>
      </trkpt>
      <trkpt lat="45.92358" lon="5.60469">
        <ele>867.8</ele>
        <time>2026-05-13T08:19:29Z</time>
      </trkpt>
      <trkpt lat="45.92355" lon="5.6047">
        <ele>867.4</ele>
        <time>2026-05-13T08:19:30Z</time>
      </trkpt>
      <trkpt lat="45.92353" lon="5.60471">
        <ele>867.4</ele>
        <time>2026-05-13T08:19:31Z</time>
      </trkpt>
      <trkpt lat="45.9235" lon="5.60472">
        <ele>867.6</ele>
        <time>2026-05-13T08:19:32Z</time>
      </trkpt>
      <trkpt lat="45.92347" lon="5.60474">
        <ele>868</ele>
        <time>2026-05-13T08:19:33Z</time>
      </trkpt>
      <trkpt lat="45.92345" lon="5.60477">
        <ele>868</ele>
        <time>2026-05-13T08:19:34Z</time>
      </trkpt>
      <trkpt lat="45.92342" lon="5.6048">
        <ele>868.2</ele>
        <time>2026-05-13T08:19:35Z</time>
      </trkpt>
      <trkpt lat="45.92341" lon="5.60484">
        <ele>868.2</ele>
        <time>2026-05-13T08:19:36Z</time>
      </trkpt>
      <trkpt lat="45.92339" lon="5.60488">
        <ele>868.6</ele>
        <time>2026-05-13T08:19:37Z</time>
      </trkpt>
      <trkpt lat="45.92338" lon="5.60493">
        <ele>868.4</ele>
        <time>2026-05-13T08:19:38Z</time>
      </trkpt>
      <trkpt lat="45.92337" lon="5.60497">
        <ele>868.4</ele>
        <time>2026-05-13T08:19:39Z</time>
      </trkpt>
      <trkpt lat="45.92336" lon="5.60502">
        <ele>868.4</ele>
        <time>2026-05-13T08:19:40Z</time>
      </trkpt>
      <trkpt lat="45.92336" lon="5.60506">
        <ele>868.4</ele>
        <time>2026-05-13T08:19:41Z</time>
      </trkpt>
      <trkpt lat="45.92335" lon="5.6051">
        <ele>868.4</ele>
        <time>2026-05-13T08:19:42Z</time>
      </trkpt>
      <trkpt lat="45.92335" lon="5.60514">
        <ele>868.4</ele>
        <time>2026-05-13T08:19:43Z</time>
      </trkpt>
      <trkpt lat="45.92334" lon="5.60518">
        <ele>868.6</ele>
        <time>2026-05-13T08:19:44Z</time>
      </trkpt>
      <trkpt lat="45.92334" lon="5.60522">
        <ele>868.6</ele>
        <time>2026-05-13T08:19:45Z</time>
      </trkpt>
      <trkpt lat="45.92334" lon="5.60526">
        <ele>868.6</ele>
        <time>2026-05-13T08:19:46Z</time>
      </trkpt>
      <trkpt lat="45.92333" lon="5.6053">
        <ele>868.6</ele>
        <time>2026-05-13T08:19:47Z</time>
      </trkpt>
      <trkpt lat="45.92333" lon="5.60534">
        <ele>868.6</ele>
        <time>2026-05-13T08:19:48Z</time>
      </trkpt>
      <trkpt lat="45.92332" lon="5.60538">
        <ele>868.8</ele>
        <time>2026-05-13T08:19:49Z</time>
      </trkpt>
      <trkpt lat="45.92332" lon="5.60542">
        <ele>868.8</ele>
        <time>2026-05-13T08:19:50Z</time>
      </trkpt>
      <trkpt lat="45.92331" lon="5.60546">
        <ele>869</ele>
        <time>2026-05-13T08:19:51Z</time>
      </trkpt>
      <trkpt lat="45.92331" lon="5.60549">
        <ele>869</ele>
        <time>2026-05-13T08:19:52Z</time>
      </trkpt>
      <trkpt lat="45.9233" lon="5.60553">
        <ele>869.6</ele>
        <time>2026-05-13T08:19:53Z</time>
      </trkpt>
      <trkpt lat="45.9233" lon="5.60557">
        <ele>869.6</ele>
        <time>2026-05-13T08:19:54Z</time>
      </trkpt>
      <trkpt lat="45.92329" lon="5.60561">
        <ele>869.2</ele>
        <time>2026-05-13T08:19:55Z</time>
      </trkpt>
      <trkpt lat="45.92329" lon="5.60565">
        <ele>869.2</ele>
        <time>2026-05-13T08:19:56Z</time>
      </trkpt>
      <trkpt lat="45.92328" lon="5.60569">
        <ele>869.2</ele>
        <time>2026-05-13T08:19:57Z</time>
      </trkpt>
      <trkpt lat="45.92327" lon="5.60572">
        <ele>869.2</ele>
        <time>2026-05-13T08:19:58Z</time>
      </trkpt>
      <trkpt lat="45.92326" lon="5.60575">
        <ele>869.2</ele>
        <time>2026-05-13T08:19:59Z</time>
      </trkpt>
      <trkpt lat="45.92324" lon="5.60577">
        <ele>869.2</ele>
        <time>2026-05-13T08:20:00Z</time>
      </trkpt>
      <trkpt lat="45.92323" lon="5.6058">
        <ele>869.2</ele>
        <time>2026-05-13T08:20:01Z</time>
      </trkpt>
      <trkpt lat="45.92323" lon="5.60582">
        <ele>869.2</ele>
        <time>2026-05-13T08:20:02Z</time>
      </trkpt>
      <trkpt lat="45.92322" lon="5.60584">
        <ele>869.2</ele>
        <time>2026-05-13T08:20:03Z</time>
      </trkpt>
      <trkpt lat="45.92321" lon="5.60587">
        <ele>869.2</ele>
        <time>2026-05-13T08:20:04Z</time>
      </trkpt>
      <trkpt lat="45.9232" lon="5.60589">
        <ele>869.2</ele>
        <time>2026-05-13T08:20:05Z</time>
      </trkpt>
      <trkpt lat="45.92319" lon="5.60592">
        <ele>869.2</ele>
        <time>2026-05-13T08:20:06Z</time>
      </trkpt>
      <trkpt lat="45.92318" lon="5.60594">
        <ele>869.6</ele>
        <time>2026-05-13T08:20:07Z</time>
      </trkpt>
      <trkpt lat="45.92319" lon="5.60596">
        <ele>869.6</ele>
        <time>2026-05-13T08:20:08Z</time>
      </trkpt>
      <trkpt lat="45.92319" lon="5.606">
        <ele>869.6</ele>
        <time>2026-05-13T08:20:09Z</time>
      </trkpt>
      <trkpt lat="45.92319" lon="5.60603">
        <ele>869.6</ele>
        <time>2026-05-13T08:20:10Z</time>
      </trkpt>
      <trkpt lat="45.92318" lon="5.60607">
        <ele>869.8</ele>
        <time>2026-05-13T08:20:11Z</time>
      </trkpt>
      <trkpt lat="45.92316" lon="5.6061">
        <ele>869.8</ele>
        <time>2026-05-13T08:20:12Z</time>
      </trkpt>
      <trkpt lat="45.92315" lon="5.60613">
        <ele>869.8</ele>
        <time>2026-05-13T08:20:13Z</time>
      </trkpt>
      <trkpt lat="45.92314" lon="5.60615">
        <ele>869.8</ele>
        <time>2026-05-13T08:20:14Z</time>
      </trkpt>
      <trkpt lat="45.92313" lon="5.60619">
        <ele>869.8</ele>
        <time>2026-05-13T08:20:15Z</time>
      </trkpt>
      <trkpt lat="45.92313" lon="5.60622">
        <ele>869.8</ele>
        <time>2026-05-13T08:20:16Z</time>
      </trkpt>
      <trkpt lat="45.92313" lon="5.60625">
        <ele>870</ele>
        <time>2026-05-13T08:20:17Z</time>
      </trkpt>
      <trkpt lat="45.92313" lon="5.60628">
        <ele>870</ele>
        <time>2026-05-13T08:20:18Z</time>
      </trkpt>
      <trkpt lat="45.92312" lon="5.6063">
        <ele>870</ele>
        <time>2026-05-13T08:20:19Z</time>
      </trkpt>
      <trkpt lat="45.92311" lon="5.60634">
        <ele>870</ele>
        <time>2026-05-13T08:20:20Z</time>
      </trkpt>
      <trkpt lat="45.92311" lon="5.60639">
        <ele>869.8</ele>
        <time>2026-05-13T08:20:21Z</time>
      </trkpt>
      <trkpt lat="45.92311" lon="5.60644">
        <ele>869.8</ele>
        <time>2026-05-13T08:20:22Z</time>
      </trkpt>
      <trkpt lat="45.92311" lon="5.60648">
        <ele>869.8</ele>
        <time>2026-05-13T08:20:23Z</time>
      </trkpt>
      <trkpt lat="45.92311" lon="5.60651">
        <ele>869.8</ele>
        <time>2026-05-13T08:20:24Z</time>
      </trkpt>
      <trkpt lat="45.92311" lon="5.60654">
        <ele>869.8</ele>
        <time>2026-05-13T08:20:25Z</time>
      </trkpt>
      <trkpt lat="45.92311" lon="5.60656">
        <ele>869.8</ele>
        <time>2026-05-13T08:20:26Z</time>
      </trkpt>
      <trkpt lat="45.9231" lon="5.60659">
        <ele>869.8</ele>
        <time>2026-05-13T08:20:27Z</time>
      </trkpt>
      <trkpt lat="45.92309" lon="5.60661">
        <ele>869.8</ele>
        <time>2026-05-13T08:20:28Z</time>
      </trkpt>
      <trkpt lat="45.92307" lon="5.60662">
        <ele>869.8</ele>
        <time>2026-05-13T08:20:29Z</time>
      </trkpt>
      <trkpt lat="45.92306" lon="5.60663">
        <ele>869.8</ele>
        <time>2026-05-13T08:20:30Z</time>
      </trkpt>
      <trkpt lat="45.92304" lon="5.60663">
        <ele>869.8</ele>
        <time>2026-05-13T08:20:31Z</time>
      </trkpt>
      <trkpt lat="45.92303" lon="5.60664">
        <ele>869.8</ele>
        <time>2026-05-13T08:20:32Z</time>
      </trkpt>
      <trkpt lat="45.92301" lon="5.60664">
        <ele>869.8</ele>
        <time>2026-05-13T08:20:33Z</time>
      </trkpt>
      <trkpt lat="45.92298" lon="5.60665">
        <ele>870.2</ele>
        <time>2026-05-13T08:20:34Z</time>
      </trkpt>
      <trkpt lat="45.92296" lon="5.60666">
        <ele>870.2</ele>
        <time>2026-05-13T08:20:35Z</time>
      </trkpt>
      <trkpt lat="45.92294" lon="5.60666">
        <ele>870.2</ele>
        <time>2026-05-13T08:20:36Z</time>
      </trkpt>
      <trkpt lat="45.92292" lon="5.60667">
        <ele>870.2</ele>
        <time>2026-05-13T08:20:37Z</time>
      </trkpt>
      <trkpt lat="45.9229" lon="5.60668">
        <ele>870.4</ele>
        <time>2026-05-13T08:20:38Z</time>
      </trkpt>
      <trkpt lat="45.92287" lon="5.60668">
        <ele>871</ele>
        <time>2026-05-13T08:20:39Z</time>
      </trkpt>
      <trkpt lat="45.92286" lon="5.60668">
        <ele>871</ele>
        <time>2026-05-13T08:20:40Z</time>
      </trkpt>
      <trkpt lat="45.92284" lon="5.60668">
        <ele>871.4</ele>
        <time>2026-05-13T08:20:41Z</time>
      </trkpt>
      <trkpt lat="45.92283" lon="5.60669">
        <ele>871.8</ele>
        <time>2026-05-13T08:20:42Z</time>
      </trkpt>
      <trkpt lat="45.92281" lon="5.6067">
        <ele>872</ele>
        <time>2026-05-13T08:20:43Z</time>
      </trkpt>
      <trkpt lat="45.9228" lon="5.6067">
        <ele>872.4</ele>
        <time>2026-05-13T08:20:44Z</time>
      </trkpt>
      <trkpt lat="45.92279" lon="5.60671">
        <ele>872.6</ele>
        <time>2026-05-13T08:20:45Z</time>
      </trkpt>
      <trkpt lat="45.92278" lon="5.60671">
        <ele>872.8</ele>
        <time>2026-05-13T08:20:46Z</time>
      </trkpt>
      <trkpt lat="45.92276" lon="5.60672">
        <ele>873.2</ele>
        <time>2026-05-13T08:20:47Z</time>
      </trkpt>
      <trkpt lat="45.92275" lon="5.60672">
        <ele>873.4</ele>
        <time>2026-05-13T08:20:48Z</time>
      </trkpt>
      <trkpt lat="45.92274" lon="5.60672">
        <ele>873.6</ele>
        <time>2026-05-13T08:20:49Z</time>
      </trkpt>
      <trkpt lat="45.92273" lon="5.60672">
        <ele>873.6</ele>
        <time>2026-05-13T08:20:50Z</time>
      </trkpt>
      <trkpt lat="45.92273" lon="5.60673">
        <ele>874</ele>
        <time>2026-05-13T08:20:51Z</time>
      </trkpt>
      <trkpt lat="45.92273" lon="5.60674">
        <ele>874</ele>
        <time>2026-05-13T08:20:52Z</time>
      </trkpt>
      <trkpt lat="45.92272" lon="5.60674">
        <ele>874.2</ele>
        <time>2026-05-13T08:20:53Z</time>
      </trkpt>
      <trkpt lat="45.92271" lon="5.60675">
        <ele>874.2</ele>
        <time>2026-05-13T08:20:54Z</time>
      </trkpt>
      <trkpt lat="45.92271" lon="5.60675">
        <ele>874.2</ele>
        <time>2026-05-13T08:20:55Z</time>
      </trkpt>
      <trkpt lat="45.9227" lon="5.60676">
        <ele>874.6</ele>
        <time>2026-05-13T08:20:56Z</time>
      </trkpt>
      <trkpt lat="45.92269" lon="5.60678">
        <ele>874.6</ele>
        <time>2026-05-13T08:20:57Z</time>
      </trkpt>
      <trkpt lat="45.92268" lon="5.60678">
        <ele>874.8</ele>
        <time>2026-05-13T08:20:58Z</time>
      </trkpt>
      <trkpt lat="45.92267" lon="5.60679">
        <ele>874.8</ele>
        <time>2026-05-13T08:20:59Z</time>
      </trkpt>
      <trkpt lat="45.92266" lon="5.60679">
        <ele>875.2</ele>
        <time>2026-05-13T08:21:00Z</time>
      </trkpt>
      <trkpt lat="45.92265" lon="5.60679">
        <ele>875.2</ele>
        <time>2026-05-13T08:21:01Z</time>
      </trkpt>
      <trkpt lat="45.92264" lon="5.60679">
        <ele>875.6</ele>
        <time>2026-05-13T08:21:02Z</time>
      </trkpt>
      <trkpt lat="45.92263" lon="5.60678">
        <ele>875.6</ele>
        <time>2026-05-13T08:21:03Z</time>
      </trkpt>
      <trkpt lat="45.92262" lon="5.60678">
        <ele>876</ele>
        <time>2026-05-13T08:21:04Z</time>
      </trkpt>
      <trkpt lat="45.92261" lon="5.60678">
        <ele>876</ele>
        <time>2026-05-13T08:21:05Z</time>
      </trkpt>
      <trkpt lat="45.92261" lon="5.60678">
        <ele>876.4</ele>
        <time>2026-05-13T08:21:06Z</time>
      </trkpt>
      <trkpt lat="45.9226" lon="5.60678">
        <ele>876.4</ele>
        <time>2026-05-13T08:21:07Z</time>
      </trkpt>
      <trkpt lat="45.92259" lon="5.60677">
        <ele>876.6</ele>
        <time>2026-05-13T08:21:08Z</time>
      </trkpt>
      <trkpt lat="45.92258" lon="5.60677">
        <ele>876.6</ele>
        <time>2026-05-13T08:21:09Z</time>
      </trkpt>
      <trkpt lat="45.92257" lon="5.60676">
        <ele>876.6</ele>
        <time>2026-05-13T08:21:10Z</time>
      </trkpt>
      <trkpt lat="45.92257" lon="5.60676">
        <ele>877</ele>
        <time>2026-05-13T08:21:11Z</time>
      </trkpt>
      <trkpt lat="45.92256" lon="5.60675">
        <ele>877</ele>
        <time>2026-05-13T08:21:12Z</time>
      </trkpt>
      <trkpt lat="45.92256" lon="5.60675">
        <ele>877</ele>
        <time>2026-05-13T08:21:13Z</time>
      </trkpt>
      <trkpt lat="45.92255" lon="5.60674">
        <ele>877</ele>
        <time>2026-05-13T08:21:14Z</time>
      </trkpt>
      <trkpt lat="45.92254" lon="5.60674">
        <ele>877.2</ele>
        <time>2026-05-13T08:21:15Z</time>
      </trkpt>
      <trkpt lat="45.92253" lon="5.60674">
        <ele>877.2</ele>
        <time>2026-05-13T08:21:16Z</time>
      </trkpt>
      <trkpt lat="45.92252" lon="5.60673">
        <ele>877.2</ele>
        <time>2026-05-13T08:21:17Z</time>
      </trkpt>
      <trkpt lat="45.9225" lon="5.60672">
        <ele>877.2</ele>
        <time>2026-05-13T08:21:18Z</time>
      </trkpt>
      <trkpt lat="45.92248" lon="5.6067">
        <ele>877.2</ele>
        <time>2026-05-13T08:21:19Z</time>
      </trkpt>
      <trkpt lat="45.92247" lon="5.60669">
        <ele>877.2</ele>
        <time>2026-05-13T08:21:20Z</time>
      </trkpt>
      <trkpt lat="45.92247" lon="5.60667">
        <ele>877.2</ele>
        <time>2026-05-13T08:21:21Z</time>
      </trkpt>
      <trkpt lat="45.92247" lon="5.60667">
        <ele>877.2</ele>
        <time>2026-05-13T08:21:22Z</time>
      </trkpt>
      <trkpt lat="45.92246" lon="5.60665">
        <ele>877.2</ele>
        <time>2026-05-13T08:21:23Z</time>
      </trkpt>
      <trkpt lat="45.92246" lon="5.60664">
        <ele>877.2</ele>
        <time>2026-05-13T08:21:24Z</time>
      </trkpt>
      <trkpt lat="45.92246" lon="5.60663">
        <ele>877.4</ele>
        <time>2026-05-13T08:21:25Z</time>
      </trkpt>
      <trkpt lat="45.92245" lon="5.60662">
        <ele>877.4</ele>
        <time>2026-05-13T08:21:34Z</time>
      </trkpt>
      <trkpt lat="45.92244" lon="5.60662">
        <ele>877.4</ele>
        <time>2026-05-13T08:21:35Z</time>
      </trkpt>
      <trkpt lat="45.92244" lon="5.60662">
        <ele>877.4</ele>
        <time>2026-05-13T08:21:36Z</time>
      </trkpt>
      <trkpt lat="45.92243" lon="5.60662">
        <ele>877.4</ele>
        <time>2026-05-13T08:21:37Z</time>
      </trkpt>
      <trkpt lat="45.92243" lon="5.60661">
        <ele>877.4</ele>
        <time>2026-05-13T08:21:40Z</time>
      </trkpt>
      <trkpt lat="45.92241" lon="5.6066">
        <ele>877.4</ele>
        <time>2026-05-13T08:21:41Z</time>
      </trkpt>
      <trkpt lat="45.9224" lon="5.60659">
        <ele>877.6</ele>
        <time>2026-05-13T08:21:42Z</time>
      </trkpt>
      <trkpt lat="45.92239" lon="5.60658">
        <ele>877.6</ele>
        <time>2026-05-13T08:21:43Z</time>
      </trkpt>
      <trkpt lat="45.92239" lon="5.60656">
        <ele>877.6</ele>
        <time>2026-05-13T08:21:44Z</time>
      </trkpt>
      <trkpt lat="45.92237" lon="5.60654">
        <ele>877.6</ele>
        <time>2026-05-13T08:21:45Z</time>
      </trkpt>
      <trkpt lat="45.92236" lon="5.60653">
        <ele>877.6</ele>
        <time>2026-05-13T08:21:46Z</time>
      </trkpt>
      <trkpt lat="45.92235" lon="5.60652">
        <ele>877.6</ele>
        <time>2026-05-13T08:21:47Z</time>
      </trkpt>
      <trkpt lat="45.92235" lon="5.60653">
        <ele>877.6</ele>
        <time>2026-05-13T08:21:48Z</time>
      </trkpt>
      <trkpt lat="45.92234" lon="5.60646">
        <ele>878</ele>
        <time>2026-05-13T08:22:51Z</time>
      </trkpt>
      <trkpt lat="45.92232" lon="5.60645">
        <ele>878</ele>
        <time>2026-05-13T08:22:52Z</time>
      </trkpt>
      <trkpt lat="45.92231" lon="5.60645">
        <ele>878</ele>
        <time>2026-05-13T08:22:53Z</time>
      </trkpt>
      <trkpt lat="45.9223" lon="5.60645">
        <ele>878</ele>
        <time>2026-05-13T08:22:54Z</time>
      </trkpt>
      <trkpt lat="45.92228" lon="5.60644">
        <ele>878</ele>
        <time>2026-05-13T08:22:55Z</time>
      </trkpt>
      <trkpt lat="45.92226" lon="5.60644">
        <ele>877.6</ele>
        <time>2026-05-13T08:22:56Z</time>
      </trkpt>
      <trkpt lat="45.92223" lon="5.60643">
        <ele>877.6</ele>
        <time>2026-05-13T08:22:57Z</time>
      </trkpt>
      <trkpt lat="45.92221" lon="5.60642">
        <ele>877.4</ele>
        <time>2026-05-13T08:22:58Z</time>
      </trkpt>
      <trkpt lat="45.92218" lon="5.60641">
        <ele>877.4</ele>
        <time>2026-05-13T08:22:59Z</time>
      </trkpt>
      <trkpt lat="45.92216" lon="5.6064">
        <ele>877.4</ele>
        <time>2026-05-13T08:23:00Z</time>
      </trkpt>
      <trkpt lat="45.92213" lon="5.60639">
        <ele>876.8</ele>
        <time>2026-05-13T08:23:01Z</time>
      </trkpt>
      <trkpt lat="45.92211" lon="5.60639">
        <ele>876.8</ele>
        <time>2026-05-13T08:23:02Z</time>
      </trkpt>
      <trkpt lat="45.92208" lon="5.60638">
        <ele>876</ele>
        <time>2026-05-13T08:23:03Z</time>
      </trkpt>
      <trkpt lat="45.92204" lon="5.60637">
        <ele>875.6</ele>
        <time>2026-05-13T08:23:04Z</time>
      </trkpt>
      <trkpt lat="45.92201" lon="5.60635">
        <ele>875.4</ele>
        <time>2026-05-13T08:23:05Z</time>
      </trkpt>
      <trkpt lat="45.92197" lon="5.60634">
        <ele>874.8</ele>
        <time>2026-05-13T08:23:06Z</time>
      </trkpt>
      <trkpt lat="45.92193" lon="5.60631">
        <ele>874.6</ele>
        <time>2026-05-13T08:23:07Z</time>
      </trkpt>
      <trkpt lat="45.92191" lon="5.60629">
        <ele>874.2</ele>
        <time>2026-05-13T08:23:08Z</time>
      </trkpt>
      <trkpt lat="45.92189" lon="5.60625">
        <ele>873.8</ele>
        <time>2026-05-13T08:23:09Z</time>
      </trkpt>
      <trkpt lat="45.92187" lon="5.6062">
        <ele>873.8</ele>
        <time>2026-05-13T08:23:10Z</time>
      </trkpt>
      <trkpt lat="45.92186" lon="5.60616">
        <ele>873.4</ele>
        <time>2026-05-13T08:23:11Z</time>
      </trkpt>
      <trkpt lat="45.92185" lon="5.60612">
        <ele>873.2</ele>
        <time>2026-05-13T08:23:12Z</time>
      </trkpt>
      <trkpt lat="45.92183" lon="5.60608">
        <ele>872.8</ele>
        <time>2026-05-13T08:23:13Z</time>
      </trkpt>
      <trkpt lat="45.92181" lon="5.60604">
        <ele>872.8</ele>
        <time>2026-05-13T08:23:14Z</time>
      </trkpt>
      <trkpt lat="45.9218" lon="5.60602">
        <ele>872.4</ele>
        <time>2026-05-13T08:23:15Z</time>
      </trkpt>
      <trkpt lat="45.92179" lon="5.606">
        <ele>872</ele>
        <time>2026-05-13T08:23:16Z</time>
      </trkpt>
      <trkpt lat="45.92178" lon="5.60599">
        <ele>871.6</ele>
        <time>2026-05-13T08:23:17Z</time>
      </trkpt>
      <trkpt lat="45.92177" lon="5.60597">
        <ele>871.2</ele>
        <time>2026-05-13T08:23:18Z</time>
      </trkpt>
      <trkpt lat="45.92176" lon="5.60595">
        <ele>870.8</ele>
        <time>2026-05-13T08:23:19Z</time>
      </trkpt>
      <trkpt lat="45.92176" lon="5.60593">
        <ele>870.8</ele>
        <time>2026-05-13T08:23:20Z</time>
      </trkpt>
      <trkpt lat="45.92174" lon="5.60591">
        <ele>870.2</ele>
        <time>2026-05-13T08:23:21Z</time>
      </trkpt>
      <trkpt lat="45.92172" lon="5.6059">
        <ele>869.8</ele>
        <time>2026-05-13T08:23:22Z</time>
      </trkpt>
      <trkpt lat="45.9217" lon="5.60587">
        <ele>869.6</ele>
        <time>2026-05-13T08:23:23Z</time>
      </trkpt>
      <trkpt lat="45.92168" lon="5.60585">
        <ele>868.6</ele>
        <time>2026-05-13T08:23:24Z</time>
      </trkpt>
      <trkpt lat="45.92165" lon="5.60584">
        <ele>867.8</ele>
        <time>2026-05-13T08:23:25Z</time>
      </trkpt>
      <trkpt lat="45.92162" lon="5.60584">
        <ele>867.8</ele>
        <time>2026-05-13T08:23:26Z</time>
      </trkpt>
      <trkpt lat="45.92158" lon="5.60584">
        <ele>867.2</ele>
        <time>2026-05-13T08:23:27Z</time>
      </trkpt>
      <trkpt lat="45.92155" lon="5.60585">
        <ele>867.2</ele>
        <time>2026-05-13T08:23:28Z</time>
      </trkpt>
      <trkpt lat="45.92152" lon="5.60586">
        <ele>867.4</ele>
        <time>2026-05-13T08:23:29Z</time>
      </trkpt>
      <trkpt lat="45.92148" lon="5.60587">
        <ele>867</ele>
        <time>2026-05-13T08:23:30Z</time>
      </trkpt>
      <trkpt lat="45.92146" lon="5.60586">
        <ele>867</ele>
        <time>2026-05-13T08:23:31Z</time>
      </trkpt>
      <trkpt lat="45.92142" lon="5.60585">
        <ele>867</ele>
        <time>2026-05-13T08:23:32Z</time>
      </trkpt>
      <trkpt lat="45.92142" lon="5.60585">
        <ele>867</ele>
        <time>2026-05-13T08:23:33Z</time>
      </trkpt>
      <trkpt lat="45.92142" lon="5.60585">
        <ele>867.2</ele>
        <time>2026-05-13T08:23:34Z</time>
      </trkpt>
      <trkpt lat="45.92133" lon="5.6058">
        <ele>867.6</ele>
        <time>2026-05-13T08:23:36Z</time>
      </trkpt>
      <trkpt lat="45.9213" lon="5.60579">
        <ele>867.2</ele>
        <time>2026-05-13T08:23:37Z</time>
      </trkpt>
      <trkpt lat="45.92127" lon="5.60577">
        <ele>867.2</ele>
        <time>2026-05-13T08:23:38Z</time>
      </trkpt>
      <trkpt lat="45.92125" lon="5.60576">
        <ele>867.2</ele>
        <time>2026-05-13T08:23:39Z</time>
      </trkpt>
      <trkpt lat="45.92122" lon="5.60574">
        <ele>867.2</ele>
        <time>2026-05-13T08:23:40Z</time>
      </trkpt>
      <trkpt lat="45.92119" lon="5.60571">
        <ele>867.4</ele>
        <time>2026-05-13T08:23:41Z</time>
      </trkpt>
      <trkpt lat="45.92118" lon="5.60569">
        <ele>867.4</ele>
        <time>2026-05-13T08:23:42Z</time>
      </trkpt>
      <trkpt lat="45.92115" lon="5.60564">
        <ele>867.6</ele>
        <time>2026-05-13T08:23:43Z</time>
      </trkpt>
      <trkpt lat="45.92113" lon="5.60561">
        <ele>867.6</ele>
        <time>2026-05-13T08:23:44Z</time>
      </trkpt>
      <trkpt lat="45.92112" lon="5.6056">
        <ele>868.6</ele>
        <time>2026-05-13T08:23:45Z</time>
      </trkpt>
      <trkpt lat="45.92112" lon="5.6056">
        <ele>868.8</ele>
        <time>2026-05-13T08:23:46Z</time>
      </trkpt>
      <trkpt lat="45.92112" lon="5.60558">
        <ele>868.8</ele>
        <time>2026-05-13T08:23:47Z</time>
      </trkpt>
      <trkpt lat="45.92111" lon="5.60556">
        <ele>868.8</ele>
        <time>2026-05-13T08:23:48Z</time>
      </trkpt>
      <trkpt lat="45.9211" lon="5.60554">
        <ele>869.2</ele>
        <time>2026-05-13T08:23:49Z</time>
      </trkpt>
      <trkpt lat="45.9211" lon="5.60552">
        <ele>869.2</ele>
        <time>2026-05-13T08:23:50Z</time>
      </trkpt>
      <trkpt lat="45.92109" lon="5.6055">
        <ele>869.2</ele>
        <time>2026-05-13T08:23:51Z</time>
      </trkpt>
      <trkpt lat="45.92109" lon="5.60548">
        <ele>869.2</ele>
        <time>2026-05-13T08:23:52Z</time>
      </trkpt>
      <trkpt lat="45.92108" lon="5.60545">
        <ele>868.8</ele>
        <time>2026-05-13T08:23:53Z</time>
      </trkpt>
      <trkpt lat="45.92107" lon="5.60542">
        <ele>868.2</ele>
        <time>2026-05-13T08:23:54Z</time>
      </trkpt>
      <trkpt lat="45.92106" lon="5.60538">
        <ele>868</ele>
        <time>2026-05-13T08:23:55Z</time>
      </trkpt>
      <trkpt lat="45.92106" lon="5.60534">
        <ele>868</ele>
        <time>2026-05-13T08:23:56Z</time>
      </trkpt>
      <trkpt lat="45.92106" lon="5.60531">
        <ele>867.4</ele>
        <time>2026-05-13T08:23:57Z</time>
      </trkpt>
      <trkpt lat="45.92105" lon="5.60528">
        <ele>866.8</ele>
        <time>2026-05-13T08:23:58Z</time>
      </trkpt>
      <trkpt lat="45.92103" lon="5.60526">
        <ele>866.4</ele>
        <time>2026-05-13T08:23:59Z</time>
      </trkpt>
      <trkpt lat="45.92102" lon="5.60524">
        <ele>866.2</ele>
        <time>2026-05-13T08:24:00Z</time>
      </trkpt>
      <trkpt lat="45.921" lon="5.60523">
        <ele>866</ele>
        <time>2026-05-13T08:24:01Z</time>
      </trkpt>
      <trkpt lat="45.92098" lon="5.60521">
        <ele>865.4</ele>
        <time>2026-05-13T08:24:02Z</time>
      </trkpt>
      <trkpt lat="45.92096" lon="5.60518">
        <ele>865</ele>
        <time>2026-05-13T08:24:03Z</time>
      </trkpt>
      <trkpt lat="45.92095" lon="5.60514">
        <ele>864.2</ele>
        <time>2026-05-13T08:24:04Z</time>
      </trkpt>
      <trkpt lat="45.92094" lon="5.6051">
        <ele>863.2</ele>
        <time>2026-05-13T08:24:05Z</time>
      </trkpt>
      <trkpt lat="45.92094" lon="5.60507">
        <ele>862.6</ele>
        <time>2026-05-13T08:24:06Z</time>
      </trkpt>
      <trkpt lat="45.92093" lon="5.60504">
        <ele>862</ele>
        <time>2026-05-13T08:24:07Z</time>
      </trkpt>
      <trkpt lat="45.92091" lon="5.60499">
        <ele>861.6</ele>
        <time>2026-05-13T08:24:08Z</time>
      </trkpt>
      <trkpt lat="45.92087" lon="5.60491">
        <ele>860</ele>
        <time>2026-05-13T08:24:09Z</time>
      </trkpt>
      <trkpt lat="45.92085" lon="5.60486">
        <ele>859.6</ele>
        <time>2026-05-13T08:24:10Z</time>
      </trkpt>
      <trkpt lat="45.92082" lon="5.60476">
        <ele>859.4</ele>
        <time>2026-05-13T08:24:11Z</time>
      </trkpt>
      <trkpt lat="45.9208" lon="5.60471">
        <ele>859</ele>
        <time>2026-05-13T08:24:12Z</time>
      </trkpt>
      <trkpt lat="45.92077" lon="5.60465">
        <ele>858</ele>
        <time>2026-05-13T08:24:13Z</time>
      </trkpt>
      <trkpt lat="45.92075" lon="5.6046">
        <ele>857.8</ele>
        <time>2026-05-13T08:24:14Z</time>
      </trkpt>
      <trkpt lat="45.9207" lon="5.60456">
        <ele>857.8</ele>
        <time>2026-05-13T08:24:15Z</time>
      </trkpt>
      <trkpt lat="45.92067" lon="5.60451">
        <ele>857.8</ele>
        <time>2026-05-13T08:24:16Z</time>
      </trkpt>
      <trkpt lat="45.92064" lon="5.60449">
        <ele>857.6</ele>
        <time>2026-05-13T08:24:17Z</time>
      </trkpt>
      <trkpt lat="45.92061" lon="5.60446">
        <ele>857.6</ele>
        <time>2026-05-13T08:24:18Z</time>
      </trkpt>
      <trkpt lat="45.92057" lon="5.60447">
        <ele>857.6</ele>
        <time>2026-05-13T08:24:19Z</time>
      </trkpt>
      <trkpt lat="45.92054" lon="5.60444">
        <ele>856.8</ele>
        <time>2026-05-13T08:24:20Z</time>
      </trkpt>
      <trkpt lat="45.9205" lon="5.60443">
        <ele>856.4</ele>
        <time>2026-05-13T08:24:21Z</time>
      </trkpt>
      <trkpt lat="45.92047" lon="5.6044">
        <ele>856.4</ele>
        <time>2026-05-13T08:24:22Z</time>
      </trkpt>
      <trkpt lat="45.92043" lon="5.60436">
        <ele>856.4</ele>
        <time>2026-05-13T08:24:23Z</time>
      </trkpt>
      <trkpt lat="45.9204" lon="5.60433">
        <ele>856.2</ele>
        <time>2026-05-13T08:24:24Z</time>
      </trkpt>
      <trkpt lat="45.92038" lon="5.60429">
        <ele>856</ele>
        <time>2026-05-13T08:24:25Z</time>
      </trkpt>
      <trkpt lat="45.92034" lon="5.60429">
        <ele>856</ele>
        <time>2026-05-13T08:24:26Z</time>
      </trkpt>
      <trkpt lat="45.92031" lon="5.60427">
        <ele>856</ele>
        <time>2026-05-13T08:24:27Z</time>
      </trkpt>
      <trkpt lat="45.92028" lon="5.60428">
        <ele>855.6</ele>
        <time>2026-05-13T08:24:28Z</time>
      </trkpt>
      <trkpt lat="45.92024" lon="5.60429">
        <ele>855.4</ele>
        <time>2026-05-13T08:24:29Z</time>
      </trkpt>
      <trkpt lat="45.92021" lon="5.60427">
        <ele>855.2</ele>
        <time>2026-05-13T08:24:30Z</time>
      </trkpt>
      <trkpt lat="45.92018" lon="5.60424">
        <ele>854.8</ele>
        <time>2026-05-13T08:24:31Z</time>
      </trkpt>
      <trkpt lat="45.92015" lon="5.60424">
        <ele>854.8</ele>
        <time>2026-05-13T08:24:32Z</time>
      </trkpt>
      <trkpt lat="45.92012" lon="5.60424">
        <ele>854.8</ele>
        <time>2026-05-13T08:24:33Z</time>
      </trkpt>
      <trkpt lat="45.92009" lon="5.60424">
        <ele>855.2</ele>
        <time>2026-05-13T08:24:34Z</time>
      </trkpt>
      <trkpt lat="45.92006" lon="5.60424">
        <ele>855.2</ele>
        <time>2026-05-13T08:24:35Z</time>
      </trkpt>
      <trkpt lat="45.92003" lon="5.60423">
        <ele>855.4</ele>
        <time>2026-05-13T08:24:36Z</time>
      </trkpt>
      <trkpt lat="45.92" lon="5.60422">
        <ele>855.6</ele>
        <time>2026-05-13T08:24:37Z</time>
      </trkpt>
      <trkpt lat="45.91998" lon="5.60421">
        <ele>855.6</ele>
        <time>2026-05-13T08:24:38Z</time>
      </trkpt>
      <trkpt lat="45.91995" lon="5.60419">
        <ele>856</ele>
        <time>2026-05-13T08:24:39Z</time>
      </trkpt>
      <trkpt lat="45.91992" lon="5.60417">
        <ele>855.6</ele>
        <time>2026-05-13T08:24:40Z</time>
      </trkpt>
      <trkpt lat="45.9199" lon="5.60416">
        <ele>855.6</ele>
        <time>2026-05-13T08:24:41Z</time>
      </trkpt>
      <trkpt lat="45.91988" lon="5.60414">
        <ele>855.6</ele>
        <time>2026-05-13T08:24:42Z</time>
      </trkpt>
      <trkpt lat="45.91986" lon="5.60413">
        <ele>855.6</ele>
        <time>2026-05-13T08:24:43Z</time>
      </trkpt>
      <trkpt lat="45.91983" lon="5.60413">
        <ele>855.6</ele>
        <time>2026-05-13T08:24:44Z</time>
      </trkpt>
      <trkpt lat="45.9198" lon="5.60412">
        <ele>855.6</ele>
        <time>2026-05-13T08:24:45Z</time>
      </trkpt>
      <trkpt lat="45.91978" lon="5.60412">
        <ele>855.6</ele>
        <time>2026-05-13T08:24:46Z</time>
      </trkpt>
      <trkpt lat="45.91975" lon="5.60412">
        <ele>856</ele>
        <time>2026-05-13T08:24:47Z</time>
      </trkpt>
      <trkpt lat="45.91972" lon="5.60412">
        <ele>856</ele>
        <time>2026-05-13T08:24:48Z</time>
      </trkpt>
      <trkpt lat="45.9197" lon="5.60412">
        <ele>856.2</ele>
        <time>2026-05-13T08:24:49Z</time>
      </trkpt>
      <trkpt lat="45.91968" lon="5.60412">
        <ele>856.2</ele>
        <time>2026-05-13T08:24:50Z</time>
      </trkpt>
      <trkpt lat="45.91966" lon="5.60411">
        <ele>856.8</ele>
        <time>2026-05-13T08:24:51Z</time>
      </trkpt>
      <trkpt lat="45.91963" lon="5.60411">
        <ele>856.8</ele>
        <time>2026-05-13T08:24:52Z</time>
      </trkpt>
      <trkpt lat="45.91961" lon="5.60411">
        <ele>857</ele>
        <time>2026-05-13T08:24:53Z</time>
      </trkpt>
      <trkpt lat="45.91958" lon="5.60411">
        <ele>857</ele>
        <time>2026-05-13T08:24:54Z</time>
      </trkpt>
      <trkpt lat="45.91956" lon="5.60411">
        <ele>857.4</ele>
        <time>2026-05-13T08:24:55Z</time>
      </trkpt>
      <trkpt lat="45.91954" lon="5.60411">
        <ele>857.4</ele>
        <time>2026-05-13T08:24:56Z</time>
      </trkpt>
      <trkpt lat="45.91952" lon="5.6041">
        <ele>857.8</ele>
        <time>2026-05-13T08:24:57Z</time>
      </trkpt>
      <trkpt lat="45.9195" lon="5.6041">
        <ele>857.8</ele>
        <time>2026-05-13T08:24:58Z</time>
      </trkpt>
      <trkpt lat="45.91947" lon="5.60409">
        <ele>858</ele>
        <time>2026-05-13T08:24:59Z</time>
      </trkpt>
      <trkpt lat="45.91945" lon="5.60409">
        <ele>858</ele>
        <time>2026-05-13T08:25:00Z</time>
      </trkpt>
      <trkpt lat="45.91943" lon="5.60409">
        <ele>858</ele>
        <time>2026-05-13T08:25:01Z</time>
      </trkpt>
      <trkpt lat="45.91941" lon="5.60409">
        <ele>858</ele>
        <time>2026-05-13T08:25:02Z</time>
      </trkpt>
      <trkpt lat="45.91938" lon="5.60409">
        <ele>858.4</ele>
        <time>2026-05-13T08:25:03Z</time>
      </trkpt>
      <trkpt lat="45.91936" lon="5.6041">
        <ele>859</ele>
        <time>2026-05-13T08:25:04Z</time>
      </trkpt>
      <trkpt lat="45.91934" lon="5.6041">
        <ele>859</ele>
        <time>2026-05-13T08:25:05Z</time>
      </trkpt>
      <trkpt lat="45.91932" lon="5.60411">
        <ele>859</ele>
        <time>2026-05-13T08:25:06Z</time>
      </trkpt>
      <trkpt lat="45.9193" lon="5.60411">
        <ele>859</ele>
        <time>2026-05-13T08:25:07Z</time>
      </trkpt>
      <trkpt lat="45.91928" lon="5.60411">
        <ele>859</ele>
        <time>2026-05-13T08:25:08Z</time>
      </trkpt>
      <trkpt lat="45.91926" lon="5.6041">
        <ele>859</ele>
        <time>2026-05-13T08:25:09Z</time>
      </trkpt>
      <trkpt lat="45.91923" lon="5.6041">
        <ele>859</ele>
        <time>2026-05-13T08:25:10Z</time>
      </trkpt>
      <trkpt lat="45.91921" lon="5.6041">
        <ele>859</ele>
        <time>2026-05-13T08:25:11Z</time>
      </trkpt>
      <trkpt lat="45.91919" lon="5.60409">
        <ele>859</ele>
        <time>2026-05-13T08:25:12Z</time>
      </trkpt>
      <trkpt lat="45.91916" lon="5.6041">
        <ele>859.6</ele>
        <time>2026-05-13T08:25:13Z</time>
      </trkpt>
      <trkpt lat="45.91914" lon="5.6041">
        <ele>859.6</ele>
        <time>2026-05-13T08:25:14Z</time>
      </trkpt>
      <trkpt lat="45.91912" lon="5.60409">
        <ele>859.8</ele>
        <time>2026-05-13T08:25:15Z</time>
      </trkpt>
      <trkpt lat="45.9191" lon="5.60409">
        <ele>859.8</ele>
        <time>2026-05-13T08:25:16Z</time>
      </trkpt>
      <trkpt lat="45.91908" lon="5.60409">
        <ele>860.6</ele>
        <time>2026-05-13T08:25:17Z</time>
      </trkpt>
      <trkpt lat="45.91905" lon="5.60409">
        <ele>860.6</ele>
        <time>2026-05-13T08:25:18Z</time>
      </trkpt>
      <trkpt lat="45.91903" lon="5.60409">
        <ele>860.6</ele>
        <time>2026-05-13T08:25:19Z</time>
      </trkpt>
      <trkpt lat="45.91901" lon="5.60409">
        <ele>860.6</ele>
        <time>2026-05-13T08:25:20Z</time>
      </trkpt>
      <trkpt lat="45.91899" lon="5.60409">
        <ele>860.6</ele>
        <time>2026-05-13T08:25:21Z</time>
      </trkpt>
      <trkpt lat="45.91897" lon="5.6041">
        <ele>860.6</ele>
        <time>2026-05-13T08:25:22Z</time>
      </trkpt>
      <trkpt lat="45.91895" lon="5.6041">
        <ele>860.6</ele>
        <time>2026-05-13T08:25:23Z</time>
      </trkpt>
      <trkpt lat="45.91893" lon="5.6041">
        <ele>860.6</ele>
        <time>2026-05-13T08:25:24Z</time>
      </trkpt>
      <trkpt lat="45.91891" lon="5.6041">
        <ele>860.8</ele>
        <time>2026-05-13T08:25:25Z</time>
      </trkpt>
      <trkpt lat="45.91888" lon="5.6041">
        <ele>860.8</ele>
        <time>2026-05-13T08:25:26Z</time>
      </trkpt>
      <trkpt lat="45.91886" lon="5.60409">
        <ele>861.2</ele>
        <time>2026-05-13T08:25:27Z</time>
      </trkpt>
      <trkpt lat="45.91884" lon="5.60409">
        <ele>861.4</ele>
        <time>2026-05-13T08:25:28Z</time>
      </trkpt>
      <trkpt lat="45.91882" lon="5.6041">
        <ele>861.4</ele>
        <time>2026-05-13T08:25:29Z</time>
      </trkpt>
      <trkpt lat="45.9188" lon="5.6041">
        <ele>861.6</ele>
        <time>2026-05-13T08:25:30Z</time>
      </trkpt>
      <trkpt lat="45.9188" lon="5.6041">
        <ele>861.6</ele>
        <time>2026-05-13T08:25:31Z</time>
      </trkpt>
      <trkpt lat="45.9188" lon="5.6041">
        <ele>862</ele>
        <time>2026-05-13T08:25:32Z</time>
      </trkpt>
      <trkpt lat="45.91876" lon="5.60411">
        <ele>862</ele>
        <time>2026-05-13T08:25:33Z</time>
      </trkpt>
      <trkpt lat="45.91873" lon="5.60412">
        <ele>862</ele>
        <time>2026-05-13T08:25:34Z</time>
      </trkpt>
      <trkpt lat="45.91871" lon="5.60413">
        <ele>862</ele>
        <time>2026-05-13T08:25:35Z</time>
      </trkpt>
      <trkpt lat="45.9187" lon="5.60414">
        <ele>862.2</ele>
        <time>2026-05-13T08:25:36Z</time>
      </trkpt>
      <trkpt lat="45.91868" lon="5.60415">
        <ele>862.2</ele>
        <time>2026-05-13T08:25:37Z</time>
      </trkpt>
      <trkpt lat="45.91866" lon="5.60415">
        <ele>862.4</ele>
        <time>2026-05-13T08:25:38Z</time>
      </trkpt>
      <trkpt lat="45.91862" lon="5.60417">
        <ele>862.4</ele>
        <time>2026-05-13T08:25:39Z</time>
      </trkpt>
      <trkpt lat="45.91859" lon="5.60418">
        <ele>862.4</ele>
        <time>2026-05-13T08:25:40Z</time>
      </trkpt>
      <trkpt lat="45.91857" lon="5.60418">
        <ele>862.8</ele>
        <time>2026-05-13T08:25:41Z</time>
      </trkpt>
      <trkpt lat="45.91855" lon="5.60419">
        <ele>862.8</ele>
        <time>2026-05-13T08:25:42Z</time>
      </trkpt>
      <trkpt lat="45.91853" lon="5.6042">
        <ele>862.6</ele>
        <time>2026-05-13T08:25:43Z</time>
      </trkpt>
      <trkpt lat="45.91851" lon="5.60421">
        <ele>862.8</ele>
        <time>2026-05-13T08:25:44Z</time>
      </trkpt>
      <trkpt lat="45.91848" lon="5.60421">
        <ele>862.8</ele>
        <time>2026-05-13T08:25:45Z</time>
      </trkpt>
      <trkpt lat="45.91846" lon="5.60422">
        <ele>863.2</ele>
        <time>2026-05-13T08:25:46Z</time>
      </trkpt>
      <trkpt lat="45.91844" lon="5.60423">
        <ele>863.4</ele>
        <time>2026-05-13T08:25:47Z</time>
      </trkpt>
      <trkpt lat="45.91842" lon="5.60424">
        <ele>863.4</ele>
        <time>2026-05-13T08:25:48Z</time>
      </trkpt>
      <trkpt lat="45.91839" lon="5.60424">
        <ele>863.6</ele>
        <time>2026-05-13T08:25:49Z</time>
      </trkpt>
      <trkpt lat="45.91836" lon="5.60425">
        <ele>863.6</ele>
        <time>2026-05-13T08:25:50Z</time>
      </trkpt>
      <trkpt lat="45.91834" lon="5.60425">
        <ele>864.2</ele>
        <time>2026-05-13T08:25:51Z</time>
      </trkpt>
      <trkpt lat="45.91831" lon="5.60426">
        <ele>864.2</ele>
        <time>2026-05-13T08:25:52Z</time>
      </trkpt>
      <trkpt lat="45.91829" lon="5.60426">
        <ele>864.2</ele>
        <time>2026-05-13T08:25:53Z</time>
      </trkpt>
      <trkpt lat="45.91827" lon="5.60427">
        <ele>864.4</ele>
        <time>2026-05-13T08:25:54Z</time>
      </trkpt>
      <trkpt lat="45.91825" lon="5.60427">
        <ele>864.4</ele>
        <time>2026-05-13T08:25:55Z</time>
      </trkpt>
      <trkpt lat="45.91822" lon="5.60428">
        <ele>864.8</ele>
        <time>2026-05-13T08:25:56Z</time>
      </trkpt>
      <trkpt lat="45.9182" lon="5.60429">
        <ele>864.8</ele>
        <time>2026-05-13T08:25:57Z</time>
      </trkpt>
      <trkpt lat="45.91818" lon="5.6043">
        <ele>865.2</ele>
        <time>2026-05-13T08:25:58Z</time>
      </trkpt>
      <trkpt lat="45.91816" lon="5.60432">
        <ele>865.2</ele>
        <time>2026-05-13T08:25:59Z</time>
      </trkpt>
      <trkpt lat="45.91814" lon="5.60433">
        <ele>865.2</ele>
        <time>2026-05-13T08:26:00Z</time>
      </trkpt>
      <trkpt lat="45.91812" lon="5.60434">
        <ele>865.4</ele>
        <time>2026-05-13T08:26:01Z</time>
      </trkpt>
      <trkpt lat="45.9181" lon="5.60435">
        <ele>865.4</ele>
        <time>2026-05-13T08:26:02Z</time>
      </trkpt>
      <trkpt lat="45.91808" lon="5.60437">
        <ele>865.8</ele>
        <time>2026-05-13T08:26:03Z</time>
      </trkpt>
      <trkpt lat="45.91806" lon="5.60438">
        <ele>865.8</ele>
        <time>2026-05-13T08:26:04Z</time>
      </trkpt>
      <trkpt lat="45.91804" lon="5.6044">
        <ele>865.8</ele>
        <time>2026-05-13T08:26:05Z</time>
      </trkpt>
      <trkpt lat="45.91802" lon="5.60441">
        <ele>866</ele>
        <time>2026-05-13T08:26:06Z</time>
      </trkpt>
      <trkpt lat="45.918" lon="5.60443">
        <ele>866</ele>
        <time>2026-05-13T08:26:07Z</time>
      </trkpt>
      <trkpt lat="45.91798" lon="5.60445">
        <ele>866</ele>
        <time>2026-05-13T08:26:08Z</time>
      </trkpt>
      <trkpt lat="45.91796" lon="5.60446">
        <ele>866.4</ele>
        <time>2026-05-13T08:26:09Z</time>
      </trkpt>
      <trkpt lat="45.91795" lon="5.60448">
        <ele>866.4</ele>
        <time>2026-05-13T08:26:10Z</time>
      </trkpt>
      <trkpt lat="45.91793" lon="5.60449">
        <ele>866.8</ele>
        <time>2026-05-13T08:26:11Z</time>
      </trkpt>
      <trkpt lat="45.91792" lon="5.6045">
        <ele>866.8</ele>
        <time>2026-05-13T08:26:12Z</time>
      </trkpt>
      <trkpt lat="45.91792" lon="5.60451">
        <ele>866.8</ele>
        <time>2026-05-13T08:26:13Z</time>
      </trkpt>
      <trkpt lat="45.9179" lon="5.60454">
        <ele>866.8</ele>
        <time>2026-05-13T08:26:14Z</time>
      </trkpt>
      <trkpt lat="45.91789" lon="5.60456">
        <ele>866.8</ele>
        <time>2026-05-13T08:26:15Z</time>
      </trkpt>
      <trkpt lat="45.91787" lon="5.60458">
        <ele>866.8</ele>
        <time>2026-05-13T08:26:16Z</time>
      </trkpt>
      <trkpt lat="45.91785" lon="5.60459">
        <ele>867.2</ele>
        <time>2026-05-13T08:26:17Z</time>
      </trkpt>
      <trkpt lat="45.91783" lon="5.6046">
        <ele>867.4</ele>
        <time>2026-05-13T08:26:18Z</time>
      </trkpt>
      <trkpt lat="45.91781" lon="5.60462">
        <ele>867.4</ele>
        <time>2026-05-13T08:26:19Z</time>
      </trkpt>
      <trkpt lat="45.91779" lon="5.60463">
        <ele>867.4</ele>
        <time>2026-05-13T08:26:20Z</time>
      </trkpt>
      <trkpt lat="45.91777" lon="5.60465">
        <ele>867.6</ele>
        <time>2026-05-13T08:26:21Z</time>
      </trkpt>
      <trkpt lat="45.91776" lon="5.60466">
        <ele>867.6</ele>
        <time>2026-05-13T08:26:22Z</time>
      </trkpt>
      <trkpt lat="45.91774" lon="5.60468">
        <ele>867.6</ele>
        <time>2026-05-13T08:26:23Z</time>
      </trkpt>
      <trkpt lat="45.91773" lon="5.6047">
        <ele>867.8</ele>
        <time>2026-05-13T08:26:24Z</time>
      </trkpt>
      <trkpt lat="45.91771" lon="5.60471">
        <ele>867.8</ele>
        <time>2026-05-13T08:26:25Z</time>
      </trkpt>
      <trkpt lat="45.91769" lon="5.60473">
        <ele>867.8</ele>
        <time>2026-05-13T08:26:26Z</time>
      </trkpt>
      <trkpt lat="45.91767" lon="5.60475">
        <ele>867.8</ele>
        <time>2026-05-13T08:26:27Z</time>
      </trkpt>
      <trkpt lat="45.91765" lon="5.60478">
        <ele>867.4</ele>
        <time>2026-05-13T08:26:28Z</time>
      </trkpt>
      <trkpt lat="45.91762" lon="5.60479">
        <ele>867.4</ele>
        <time>2026-05-13T08:26:29Z</time>
      </trkpt>
      <trkpt lat="45.91761" lon="5.6048">
        <ele>867.8</ele>
        <time>2026-05-13T08:26:30Z</time>
      </trkpt>
      <trkpt lat="45.91758" lon="5.60482">
        <ele>867.8</ele>
        <time>2026-05-13T08:26:31Z</time>
      </trkpt>
      <trkpt lat="45.91756" lon="5.60484">
        <ele>868</ele>
        <time>2026-05-13T08:26:32Z</time>
      </trkpt>
      <trkpt lat="45.91754" lon="5.60487">
        <ele>868.4</ele>
        <time>2026-05-13T08:26:33Z</time>
      </trkpt>
      <trkpt lat="45.91751" lon="5.60489">
        <ele>868.6</ele>
        <time>2026-05-13T08:26:34Z</time>
      </trkpt>
      <trkpt lat="45.91749" lon="5.6049">
        <ele>869</ele>
        <time>2026-05-13T08:26:35Z</time>
      </trkpt>
      <trkpt lat="45.91747" lon="5.60491">
        <ele>869</ele>
        <time>2026-05-13T08:26:36Z</time>
      </trkpt>
      <trkpt lat="45.91744" lon="5.60492">
        <ele>869</ele>
        <time>2026-05-13T08:26:37Z</time>
      </trkpt>
      <trkpt lat="45.91741" lon="5.60494">
        <ele>869</ele>
        <time>2026-05-13T08:26:38Z</time>
      </trkpt>
      <trkpt lat="45.91738" lon="5.60496">
        <ele>869</ele>
        <time>2026-05-13T08:26:39Z</time>
      </trkpt>
      <trkpt lat="45.91736" lon="5.60498">
        <ele>869.2</ele>
        <time>2026-05-13T08:26:40Z</time>
      </trkpt>
      <trkpt lat="45.91734" lon="5.605">
        <ele>869.2</ele>
        <time>2026-05-13T08:26:41Z</time>
      </trkpt>
      <trkpt lat="45.91732" lon="5.60501">
        <ele>869.2</ele>
        <time>2026-05-13T08:26:42Z</time>
      </trkpt>
      <trkpt lat="45.9173" lon="5.60503">
        <ele>869.6</ele>
        <time>2026-05-13T08:26:43Z</time>
      </trkpt>
      <trkpt lat="45.91728" lon="5.60505">
        <ele>869.6</ele>
        <time>2026-05-13T08:26:44Z</time>
      </trkpt>
      <trkpt lat="45.91725" lon="5.60506">
        <ele>869.8</ele>
        <time>2026-05-13T08:26:45Z</time>
      </trkpt>
      <trkpt lat="45.91723" lon="5.60508">
        <ele>869.8</ele>
        <time>2026-05-13T08:26:46Z</time>
      </trkpt>
      <trkpt lat="45.91721" lon="5.6051">
        <ele>869.8</ele>
        <time>2026-05-13T08:26:47Z</time>
      </trkpt>
      <trkpt lat="45.91719" lon="5.60512">
        <ele>870</ele>
        <time>2026-05-13T08:26:48Z</time>
      </trkpt>
      <trkpt lat="45.91716" lon="5.60515">
        <ele>870</ele>
        <time>2026-05-13T08:26:49Z</time>
      </trkpt>
      <trkpt lat="45.91714" lon="5.60517">
        <ele>870.4</ele>
        <time>2026-05-13T08:26:50Z</time>
      </trkpt>
      <trkpt lat="45.91711" lon="5.60519">
        <ele>870.4</ele>
        <time>2026-05-13T08:26:51Z</time>
      </trkpt>
      <trkpt lat="45.91709" lon="5.60521">
        <ele>870.4</ele>
        <time>2026-05-13T08:26:52Z</time>
      </trkpt>
      <trkpt lat="45.91707" lon="5.60524">
        <ele>870.4</ele>
        <time>2026-05-13T08:26:53Z</time>
      </trkpt>
      <trkpt lat="45.91704" lon="5.60526">
        <ele>870.4</ele>
        <time>2026-05-13T08:26:54Z</time>
      </trkpt>
      <trkpt lat="45.91702" lon="5.60527">
        <ele>870.6</ele>
        <time>2026-05-13T08:26:55Z</time>
      </trkpt>
      <trkpt lat="45.917" lon="5.60529">
        <ele>870.6</ele>
        <time>2026-05-13T08:26:56Z</time>
      </trkpt>
      <trkpt lat="45.91697" lon="5.60531">
        <ele>870.6</ele>
        <time>2026-05-13T08:26:57Z</time>
      </trkpt>
      <trkpt lat="45.91695" lon="5.60532">
        <ele>870.6</ele>
        <time>2026-05-13T08:26:58Z</time>
      </trkpt>
      <trkpt lat="45.91693" lon="5.60534">
        <ele>870.6</ele>
        <time>2026-05-13T08:26:59Z</time>
      </trkpt>
      <trkpt lat="45.91691" lon="5.60536">
        <ele>870.6</ele>
        <time>2026-05-13T08:27:00Z</time>
      </trkpt>
      <trkpt lat="45.91689" lon="5.60538">
        <ele>870.6</ele>
        <time>2026-05-13T08:27:01Z</time>
      </trkpt>
      <trkpt lat="45.91686" lon="5.6054">
        <ele>870.8</ele>
        <time>2026-05-13T08:27:02Z</time>
      </trkpt>
      <trkpt lat="45.91684" lon="5.60542">
        <ele>871.2</ele>
        <time>2026-05-13T08:27:03Z</time>
      </trkpt>
      <trkpt lat="45.91682" lon="5.60544">
        <ele>871.2</ele>
        <time>2026-05-13T08:27:04Z</time>
      </trkpt>
      <trkpt lat="45.9168" lon="5.60547">
        <ele>871.2</ele>
        <time>2026-05-13T08:27:05Z</time>
      </trkpt>
      <trkpt lat="45.91679" lon="5.6055">
        <ele>871.4</ele>
        <time>2026-05-13T08:27:06Z</time>
      </trkpt>
      <trkpt lat="45.91677" lon="5.60552">
        <ele>872</ele>
        <time>2026-05-13T08:27:07Z</time>
      </trkpt>
      <trkpt lat="45.91675" lon="5.60553">
        <ele>872</ele>
        <time>2026-05-13T08:27:08Z</time>
      </trkpt>
      <trkpt lat="45.91673" lon="5.60555">
        <ele>872</ele>
        <time>2026-05-13T08:27:09Z</time>
      </trkpt>
      <trkpt lat="45.9167" lon="5.60557">
        <ele>872.2</ele>
        <time>2026-05-13T08:27:10Z</time>
      </trkpt>
      <trkpt lat="45.91668" lon="5.60559">
        <ele>872.2</ele>
        <time>2026-05-13T08:27:11Z</time>
      </trkpt>
      <trkpt lat="45.91666" lon="5.60561">
        <ele>872.2</ele>
        <time>2026-05-13T08:27:12Z</time>
      </trkpt>
      <trkpt lat="45.91663" lon="5.60562">
        <ele>872.2</ele>
        <time>2026-05-13T08:27:13Z</time>
      </trkpt>
      <trkpt lat="45.91661" lon="5.60563">
        <ele>872.2</ele>
        <time>2026-05-13T08:27:14Z</time>
      </trkpt>
      <trkpt lat="45.91659" lon="5.60564">
        <ele>872.2</ele>
        <time>2026-05-13T08:27:15Z</time>
      </trkpt>
      <trkpt lat="45.91656" lon="5.60566">
        <ele>872.2</ele>
        <time>2026-05-13T08:27:16Z</time>
      </trkpt>
      <trkpt lat="45.91654" lon="5.60568">
        <ele>872.2</ele>
        <time>2026-05-13T08:27:17Z</time>
      </trkpt>
      <trkpt lat="45.91653" lon="5.60569">
        <ele>872.2</ele>
        <time>2026-05-13T08:27:18Z</time>
      </trkpt>
      <trkpt lat="45.9165" lon="5.60571">
        <ele>872.4</ele>
        <time>2026-05-13T08:27:19Z</time>
      </trkpt>
      <trkpt lat="45.91648" lon="5.60573">
        <ele>872.8</ele>
        <time>2026-05-13T08:27:20Z</time>
      </trkpt>
      <trkpt lat="45.91646" lon="5.60575">
        <ele>872.8</ele>
        <time>2026-05-13T08:27:21Z</time>
      </trkpt>
      <trkpt lat="45.91643" lon="5.60577">
        <ele>873</ele>
        <time>2026-05-13T08:27:22Z</time>
      </trkpt>
      <trkpt lat="45.9164" lon="5.60579">
        <ele>873</ele>
        <time>2026-05-13T08:27:23Z</time>
      </trkpt>
      <trkpt lat="45.91637" lon="5.60581">
        <ele>872.8</ele>
        <time>2026-05-13T08:27:24Z</time>
      </trkpt>
      <trkpt lat="45.91635" lon="5.60582">
        <ele>872.8</ele>
        <time>2026-05-13T08:27:25Z</time>
      </trkpt>
      <trkpt lat="45.91633" lon="5.60583">
        <ele>873.2</ele>
        <time>2026-05-13T08:27:26Z</time>
      </trkpt>
      <trkpt lat="45.91631" lon="5.60585">
        <ele>873.2</ele>
        <time>2026-05-13T08:27:27Z</time>
      </trkpt>
      <trkpt lat="45.91628" lon="5.60586">
        <ele>873.2</ele>
        <time>2026-05-13T08:27:28Z</time>
      </trkpt>
      <trkpt lat="45.91626" lon="5.60588">
        <ele>873.2</ele>
        <time>2026-05-13T08:27:29Z</time>
      </trkpt>
      <trkpt lat="45.91624" lon="5.6059">
        <ele>873.2</ele>
        <time>2026-05-13T08:27:30Z</time>
      </trkpt>
      <trkpt lat="45.91622" lon="5.60591">
        <ele>873.4</ele>
        <time>2026-05-13T08:27:31Z</time>
      </trkpt>
      <trkpt lat="45.91619" lon="5.60592">
        <ele>873.4</ele>
        <time>2026-05-13T08:27:32Z</time>
      </trkpt>
      <trkpt lat="45.91617" lon="5.60594">
        <ele>873.4</ele>
        <time>2026-05-13T08:27:33Z</time>
      </trkpt>
      <trkpt lat="45.91614" lon="5.60595">
        <ele>873.4</ele>
        <time>2026-05-13T08:27:34Z</time>
      </trkpt>
      <trkpt lat="45.91612" lon="5.60597">
        <ele>873.4</ele>
        <time>2026-05-13T08:27:35Z</time>
      </trkpt>
      <trkpt lat="45.9161" lon="5.606">
        <ele>873.4</ele>
        <time>2026-05-13T08:27:36Z</time>
      </trkpt>
      <trkpt lat="45.91608" lon="5.60602">
        <ele>873.8</ele>
        <time>2026-05-13T08:27:37Z</time>
      </trkpt>
      <trkpt lat="45.91606" lon="5.60603">
        <ele>873.4</ele>
        <time>2026-05-13T08:27:38Z</time>
      </trkpt>
      <trkpt lat="45.91603" lon="5.60605">
        <ele>873.4</ele>
        <time>2026-05-13T08:27:39Z</time>
      </trkpt>
      <trkpt lat="45.91601" lon="5.60606">
        <ele>873.8</ele>
        <time>2026-05-13T08:27:40Z</time>
      </trkpt>
      <trkpt lat="45.91599" lon="5.60608">
        <ele>873.8</ele>
        <time>2026-05-13T08:27:41Z</time>
      </trkpt>
      <trkpt lat="45.91596" lon="5.60609">
        <ele>873.8</ele>
        <time>2026-05-13T08:27:42Z</time>
      </trkpt>
      <trkpt lat="45.91594" lon="5.60611">
        <ele>874.2</ele>
        <time>2026-05-13T08:27:43Z</time>
      </trkpt>
      <trkpt lat="45.91591" lon="5.60612">
        <ele>874.2</ele>
        <time>2026-05-13T08:27:44Z</time>
      </trkpt>
      <trkpt lat="45.91588" lon="5.60613">
        <ele>874.2</ele>
        <time>2026-05-13T08:27:45Z</time>
      </trkpt>
      <trkpt lat="45.91586" lon="5.60615">
        <ele>874.2</ele>
        <time>2026-05-13T08:27:46Z</time>
      </trkpt>
      <trkpt lat="45.91583" lon="5.60617">
        <ele>874.2</ele>
        <time>2026-05-13T08:27:47Z</time>
      </trkpt>
      <trkpt lat="45.9158" lon="5.6062">
        <ele>874.2</ele>
        <time>2026-05-13T08:27:48Z</time>
      </trkpt>
      <trkpt lat="45.91578" lon="5.60622">
        <ele>874.4</ele>
        <time>2026-05-13T08:27:49Z</time>
      </trkpt>
      <trkpt lat="45.91575" lon="5.60625">
        <ele>874.4</ele>
        <time>2026-05-13T08:27:50Z</time>
      </trkpt>
      <trkpt lat="45.91573" lon="5.60627">
        <ele>874.6</ele>
        <time>2026-05-13T08:27:51Z</time>
      </trkpt>
      <trkpt lat="45.91571" lon="5.60629">
        <ele>874.6</ele>
        <time>2026-05-13T08:27:52Z</time>
      </trkpt>
      <trkpt lat="45.91568" lon="5.60631">
        <ele>875</ele>
        <time>2026-05-13T08:27:53Z</time>
      </trkpt>
      <trkpt lat="45.91565" lon="5.60632">
        <ele>875.2</ele>
        <time>2026-05-13T08:27:54Z</time>
      </trkpt>
      <trkpt lat="45.91563" lon="5.60634">
        <ele>875.2</ele>
        <time>2026-05-13T08:27:55Z</time>
      </trkpt>
      <trkpt lat="45.9156" lon="5.60637">
        <ele>875.6</ele>
        <time>2026-05-13T08:27:56Z</time>
      </trkpt>
      <trkpt lat="45.91558" lon="5.60638">
        <ele>875.8</ele>
        <time>2026-05-13T08:27:57Z</time>
      </trkpt>
      <trkpt lat="45.91556" lon="5.6064">
        <ele>876</ele>
        <time>2026-05-13T08:27:58Z</time>
      </trkpt>
      <trkpt lat="45.91556" lon="5.6064">
        <ele>876.4</ele>
        <time>2026-05-13T08:27:59Z</time>
      </trkpt>
      <trkpt lat="45.91553" lon="5.60643">
        <ele>876.4</ele>
        <time>2026-05-13T08:28:00Z</time>
      </trkpt>
      <trkpt lat="45.91551" lon="5.60645">
        <ele>876.8</ele>
        <time>2026-05-13T08:28:01Z</time>
      </trkpt>
      <trkpt lat="45.9155" lon="5.60648">
        <ele>877.2</ele>
        <time>2026-05-13T08:28:02Z</time>
      </trkpt>
      <trkpt lat="45.91548" lon="5.6065">
        <ele>877.2</ele>
        <time>2026-05-13T08:28:03Z</time>
      </trkpt>
      <trkpt lat="45.91547" lon="5.60654">
        <ele>877.8</ele>
        <time>2026-05-13T08:28:04Z</time>
      </trkpt>
      <trkpt lat="45.91545" lon="5.60657">
        <ele>877.8</ele>
        <time>2026-05-13T08:28:05Z</time>
      </trkpt>
      <trkpt lat="45.91544" lon="5.60659">
        <ele>878</ele>
        <time>2026-05-13T08:28:06Z</time>
      </trkpt>
      <trkpt lat="45.91543" lon="5.60662">
        <ele>878</ele>
        <time>2026-05-13T08:28:07Z</time>
      </trkpt>
      <trkpt lat="45.91541" lon="5.60666">
        <ele>878.4</ele>
        <time>2026-05-13T08:28:08Z</time>
      </trkpt>
      <trkpt lat="45.9154" lon="5.6067">
        <ele>878.4</ele>
        <time>2026-05-13T08:28:09Z</time>
      </trkpt>
      <trkpt lat="45.91539" lon="5.60674">
        <ele>878.6</ele>
        <time>2026-05-13T08:28:10Z</time>
      </trkpt>
      <trkpt lat="45.91538" lon="5.60678">
        <ele>878.6</ele>
        <time>2026-05-13T08:28:11Z</time>
      </trkpt>
      <trkpt lat="45.91537" lon="5.60681">
        <ele>878.6</ele>
        <time>2026-05-13T08:28:12Z</time>
      </trkpt>
      <trkpt lat="45.91536" lon="5.60685">
        <ele>879</ele>
        <time>2026-05-13T08:28:13Z</time>
      </trkpt>
      <trkpt lat="45.91536" lon="5.60688">
        <ele>879</ele>
        <time>2026-05-13T08:28:14Z</time>
      </trkpt>
      <trkpt lat="45.91535" lon="5.60692">
        <ele>879.4</ele>
        <time>2026-05-13T08:28:15Z</time>
      </trkpt>
      <trkpt lat="45.91534" lon="5.60695">
        <ele>879.4</ele>
        <time>2026-05-13T08:28:16Z</time>
      </trkpt>
      <trkpt lat="45.91532" lon="5.60698">
        <ele>879.8</ele>
        <time>2026-05-13T08:28:17Z</time>
      </trkpt>
      <trkpt lat="45.91531" lon="5.60702">
        <ele>880</ele>
        <time>2026-05-13T08:28:18Z</time>
      </trkpt>
      <trkpt lat="45.9153" lon="5.60705">
        <ele>880</ele>
        <time>2026-05-13T08:28:19Z</time>
      </trkpt>
      <trkpt lat="45.91528" lon="5.60708">
        <ele>880.4</ele>
        <time>2026-05-13T08:28:20Z</time>
      </trkpt>
      <trkpt lat="45.91527" lon="5.60711">
        <ele>880.6</ele>
        <time>2026-05-13T08:28:21Z</time>
      </trkpt>
      <trkpt lat="45.91525" lon="5.60714">
        <ele>880.8</ele>
        <time>2026-05-13T08:28:22Z</time>
      </trkpt>
      <trkpt lat="45.91524" lon="5.60717">
        <ele>880.8</ele>
        <time>2026-05-13T08:28:23Z</time>
      </trkpt>
      <trkpt lat="45.91523" lon="5.6072">
        <ele>881.2</ele>
        <time>2026-05-13T08:28:24Z</time>
      </trkpt>
      <trkpt lat="45.91523" lon="5.60723">
        <ele>881.2</ele>
        <time>2026-05-13T08:28:25Z</time>
      </trkpt>
      <trkpt lat="45.91522" lon="5.60726">
        <ele>881.4</ele>
        <time>2026-05-13T08:28:26Z</time>
      </trkpt>
      <trkpt lat="45.9152" lon="5.60728">
        <ele>881.4</ele>
        <time>2026-05-13T08:28:27Z</time>
      </trkpt>
      <trkpt lat="45.91519" lon="5.6073">
        <ele>881.8</ele>
        <time>2026-05-13T08:28:28Z</time>
      </trkpt>
      <trkpt lat="45.91517" lon="5.60732">
        <ele>881.8</ele>
        <time>2026-05-13T08:28:29Z</time>
      </trkpt>
      <trkpt lat="45.91516" lon="5.60734">
        <ele>882</ele>
        <time>2026-05-13T08:28:30Z</time>
      </trkpt>
      <trkpt lat="45.91515" lon="5.60736">
        <ele>882</ele>
        <time>2026-05-13T08:28:31Z</time>
      </trkpt>
      <trkpt lat="45.91514" lon="5.60738">
        <ele>882.4</ele>
        <time>2026-05-13T08:28:32Z</time>
      </trkpt>
      <trkpt lat="45.91513" lon="5.60741">
        <ele>882.8</ele>
        <time>2026-05-13T08:28:33Z</time>
      </trkpt>
      <trkpt lat="45.91512" lon="5.60743">
        <ele>883</ele>
        <time>2026-05-13T08:28:34Z</time>
      </trkpt>
      <trkpt lat="45.91511" lon="5.60744">
        <ele>883.2</ele>
        <time>2026-05-13T08:28:35Z</time>
      </trkpt>
      <trkpt lat="45.91509" lon="5.60746">
        <ele>883.2</ele>
        <time>2026-05-13T08:28:36Z</time>
      </trkpt>
      <trkpt lat="45.91508" lon="5.60748">
        <ele>883.6</ele>
        <time>2026-05-13T08:28:37Z</time>
      </trkpt>
      <trkpt lat="45.91507" lon="5.6075">
        <ele>883.6</ele>
        <time>2026-05-13T08:28:38Z</time>
      </trkpt>
      <trkpt lat="45.91506" lon="5.60753">
        <ele>884</ele>
        <time>2026-05-13T08:28:39Z</time>
      </trkpt>
      <trkpt lat="45.91504" lon="5.60755">
        <ele>884.2</ele>
        <time>2026-05-13T08:28:40Z</time>
      </trkpt>
      <trkpt lat="45.91503" lon="5.60757">
        <ele>884.2</ele>
        <time>2026-05-13T08:28:41Z</time>
      </trkpt>
      <trkpt lat="45.91502" lon="5.6076">
        <ele>884.6</ele>
        <time>2026-05-13T08:28:42Z</time>
      </trkpt>
      <trkpt lat="45.915" lon="5.60762">
        <ele>884.6</ele>
        <time>2026-05-13T08:28:43Z</time>
      </trkpt>
      <trkpt lat="45.91499" lon="5.60764">
        <ele>884.8</ele>
        <time>2026-05-13T08:28:44Z</time>
      </trkpt>
      <trkpt lat="45.91498" lon="5.60766">
        <ele>884.8</ele>
        <time>2026-05-13T08:28:45Z</time>
      </trkpt>
      <trkpt lat="45.91496" lon="5.60768">
        <ele>885.2</ele>
        <time>2026-05-13T08:28:46Z</time>
      </trkpt>
      <trkpt lat="45.91495" lon="5.6077">
        <ele>885.2</ele>
        <time>2026-05-13T08:28:47Z</time>
      </trkpt>
      <trkpt lat="45.91494" lon="5.60772">
        <ele>885.4</ele>
        <time>2026-05-13T08:28:48Z</time>
      </trkpt>
      <trkpt lat="45.91492" lon="5.60775">
        <ele>885.6</ele>
        <time>2026-05-13T08:28:49Z</time>
      </trkpt>
      <trkpt lat="45.91491" lon="5.60777">
        <ele>885.6</ele>
        <time>2026-05-13T08:28:50Z</time>
      </trkpt>
      <trkpt lat="45.91489" lon="5.6078">
        <ele>885.6</ele>
        <time>2026-05-13T08:28:51Z</time>
      </trkpt>
      <trkpt lat="45.91487" lon="5.60781">
        <ele>885.6</ele>
        <time>2026-05-13T08:28:52Z</time>
      </trkpt>
      <trkpt lat="45.91486" lon="5.60783">
        <ele>885.8</ele>
        <time>2026-05-13T08:28:53Z</time>
      </trkpt>
      <trkpt lat="45.91484" lon="5.60786">
        <ele>885.8</ele>
        <time>2026-05-13T08:28:54Z</time>
      </trkpt>
      <trkpt lat="45.91482" lon="5.60788">
        <ele>886</ele>
        <time>2026-05-13T08:28:55Z</time>
      </trkpt>
      <trkpt lat="45.9148" lon="5.6079">
        <ele>886.2</ele>
        <time>2026-05-13T08:28:56Z</time>
      </trkpt>
      <trkpt lat="45.91479" lon="5.60793">
        <ele>886.6</ele>
        <time>2026-05-13T08:28:57Z</time>
      </trkpt>
      <trkpt lat="45.91477" lon="5.60795">
        <ele>886.6</ele>
        <time>2026-05-13T08:28:58Z</time>
      </trkpt>
      <trkpt lat="45.91475" lon="5.60798">
        <ele>886.6</ele>
        <time>2026-05-13T08:28:59Z</time>
      </trkpt>
      <trkpt lat="45.91473" lon="5.608">
        <ele>887</ele>
        <time>2026-05-13T08:29:00Z</time>
      </trkpt>
      <trkpt lat="45.91472" lon="5.60802">
        <ele>887.2</ele>
        <time>2026-05-13T08:29:01Z</time>
      </trkpt>
      <trkpt lat="45.9147" lon="5.60804">
        <ele>887.4</ele>
        <time>2026-05-13T08:29:02Z</time>
      </trkpt>
      <trkpt lat="45.91468" lon="5.60807">
        <ele>887.4</ele>
        <time>2026-05-13T08:29:03Z</time>
      </trkpt>
      <trkpt lat="45.91467" lon="5.60809">
        <ele>887.6</ele>
        <time>2026-05-13T08:29:04Z</time>
      </trkpt>
      <trkpt lat="45.91465" lon="5.6081">
        <ele>887.6</ele>
        <time>2026-05-13T08:29:05Z</time>
      </trkpt>
      <trkpt lat="45.91463" lon="5.60812">
        <ele>887.8</ele>
        <time>2026-05-13T08:29:06Z</time>
      </trkpt>
      <trkpt lat="45.91462" lon="5.60813">
        <ele>887.8</ele>
        <time>2026-05-13T08:29:07Z</time>
      </trkpt>
      <trkpt lat="45.9146" lon="5.60814">
        <ele>888.2</ele>
        <time>2026-05-13T08:29:08Z</time>
      </trkpt>
      <trkpt lat="45.91459" lon="5.60816">
        <ele>888.2</ele>
        <time>2026-05-13T08:29:09Z</time>
      </trkpt>
      <trkpt lat="45.91457" lon="5.60817">
        <ele>888.4</ele>
        <time>2026-05-13T08:29:10Z</time>
      </trkpt>
      <trkpt lat="45.91453" lon="5.60821">
        <ele>888.4</ele>
        <time>2026-05-13T08:29:11Z</time>
      </trkpt>
      <trkpt lat="45.91451" lon="5.60823">
        <ele>888.6</ele>
        <time>2026-05-13T08:29:12Z</time>
      </trkpt>
      <trkpt lat="45.9145" lon="5.60824">
        <ele>888.6</ele>
        <time>2026-05-13T08:29:13Z</time>
      </trkpt>
      <trkpt lat="45.91448" lon="5.60825">
        <ele>889</ele>
        <time>2026-05-13T08:29:14Z</time>
      </trkpt>
      <trkpt lat="45.91446" lon="5.60826">
        <ele>889.2</ele>
        <time>2026-05-13T08:29:15Z</time>
      </trkpt>
      <trkpt lat="45.91443" lon="5.60828">
        <ele>889.2</ele>
        <time>2026-05-13T08:29:16Z</time>
      </trkpt>
      <trkpt lat="45.91441" lon="5.60829">
        <ele>889.4</ele>
        <time>2026-05-13T08:29:17Z</time>
      </trkpt>
      <trkpt lat="45.91439" lon="5.60831">
        <ele>889.4</ele>
        <time>2026-05-13T08:29:18Z</time>
      </trkpt>
      <trkpt lat="45.91437" lon="5.60832">
        <ele>889.6</ele>
        <time>2026-05-13T08:29:19Z</time>
      </trkpt>
      <trkpt lat="45.91435" lon="5.60833">
        <ele>889.6</ele>
        <time>2026-05-13T08:29:20Z</time>
      </trkpt>
      <trkpt lat="45.91433" lon="5.60834">
        <ele>890</ele>
        <time>2026-05-13T08:29:21Z</time>
      </trkpt>
      <trkpt lat="45.9143" lon="5.60834">
        <ele>890</ele>
        <time>2026-05-13T08:29:22Z</time>
      </trkpt>
      <trkpt lat="45.91428" lon="5.60835">
        <ele>890.2</ele>
        <time>2026-05-13T08:29:23Z</time>
      </trkpt>
      <trkpt lat="45.91427" lon="5.60835">
        <ele>890.2</ele>
        <time>2026-05-13T08:29:24Z</time>
      </trkpt>
      <trkpt lat="45.91425" lon="5.60834">
        <ele>890.2</ele>
        <time>2026-05-13T08:29:25Z</time>
      </trkpt>
      <trkpt lat="45.91423" lon="5.60834">
        <ele>890.4</ele>
        <time>2026-05-13T08:29:26Z</time>
      </trkpt>
      <trkpt lat="45.91422" lon="5.60834">
        <ele>890.4</ele>
        <time>2026-05-13T08:29:27Z</time>
      </trkpt>
      <trkpt lat="45.91419" lon="5.60836">
        <ele>890.8</ele>
        <time>2026-05-13T08:29:28Z</time>
      </trkpt>
      <trkpt lat="45.91417" lon="5.60837">
        <ele>890.8</ele>
        <time>2026-05-13T08:29:29Z</time>
      </trkpt>
      <trkpt lat="45.91416" lon="5.60838">
        <ele>891</ele>
        <time>2026-05-13T08:29:30Z</time>
      </trkpt>
      <trkpt lat="45.91414" lon="5.60839">
        <ele>891.4</ele>
        <time>2026-05-13T08:29:31Z</time>
      </trkpt>
      <trkpt lat="45.91412" lon="5.60841">
        <ele>891.6</ele>
        <time>2026-05-13T08:29:32Z</time>
      </trkpt>
      <trkpt lat="45.9141" lon="5.60841">
        <ele>891.6</ele>
        <time>2026-05-13T08:29:33Z</time>
      </trkpt>
      <trkpt lat="45.91407" lon="5.60841">
        <ele>891.8</ele>
        <time>2026-05-13T08:29:34Z</time>
      </trkpt>
      <trkpt lat="45.91405" lon="5.60841">
        <ele>891.8</ele>
        <time>2026-05-13T08:29:35Z</time>
      </trkpt>
      <trkpt lat="45.91403" lon="5.60841">
        <ele>892.2</ele>
        <time>2026-05-13T08:29:36Z</time>
      </trkpt>
      <trkpt lat="45.91401" lon="5.60841">
        <ele>892.2</ele>
        <time>2026-05-13T08:29:37Z</time>
      </trkpt>
      <trkpt lat="45.91398" lon="5.6084">
        <ele>892.4</ele>
        <time>2026-05-13T08:29:38Z</time>
      </trkpt>
      <trkpt lat="45.91396" lon="5.6084">
        <ele>892.6</ele>
        <time>2026-05-13T08:29:39Z</time>
      </trkpt>
      <trkpt lat="45.91394" lon="5.60839">
        <ele>893</ele>
        <time>2026-05-13T08:29:40Z</time>
      </trkpt>
      <trkpt lat="45.91391" lon="5.60838">
        <ele>893</ele>
        <time>2026-05-13T08:29:41Z</time>
      </trkpt>
      <trkpt lat="45.91389" lon="5.60837">
        <ele>893.2</ele>
        <time>2026-05-13T08:29:42Z</time>
      </trkpt>
      <trkpt lat="45.91387" lon="5.60835">
        <ele>893.4</ele>
        <time>2026-05-13T08:29:43Z</time>
      </trkpt>
      <trkpt lat="45.91386" lon="5.60834">
        <ele>893.4</ele>
        <time>2026-05-13T08:29:44Z</time>
      </trkpt>
      <trkpt lat="45.91384" lon="5.60834">
        <ele>893.8</ele>
        <time>2026-05-13T08:29:45Z</time>
      </trkpt>
      <trkpt lat="45.91382" lon="5.60833">
        <ele>893.8</ele>
        <time>2026-05-13T08:29:46Z</time>
      </trkpt>
      <trkpt lat="45.9138" lon="5.60832">
        <ele>893.8</ele>
        <time>2026-05-13T08:29:47Z</time>
      </trkpt>
      <trkpt lat="45.91378" lon="5.60831">
        <ele>894</ele>
        <time>2026-05-13T08:29:48Z</time>
      </trkpt>
      <trkpt lat="45.91376" lon="5.6083">
        <ele>894.2</ele>
        <time>2026-05-13T08:29:49Z</time>
      </trkpt>
      <trkpt lat="45.91373" lon="5.6083">
        <ele>894.2</ele>
        <time>2026-05-13T08:29:50Z</time>
      </trkpt>
      <trkpt lat="45.91371" lon="5.6083">
        <ele>894.2</ele>
        <time>2026-05-13T08:29:51Z</time>
      </trkpt>
      <trkpt lat="45.91369" lon="5.6083">
        <ele>894.6</ele>
        <time>2026-05-13T08:29:52Z</time>
      </trkpt>
      <trkpt lat="45.91366" lon="5.6083">
        <ele>894.8</ele>
        <time>2026-05-13T08:29:53Z</time>
      </trkpt>
      <trkpt lat="45.91364" lon="5.6083">
        <ele>894.8</ele>
        <time>2026-05-13T08:29:54Z</time>
      </trkpt>
      <trkpt lat="45.91362" lon="5.6083">
        <ele>895.2</ele>
        <time>2026-05-13T08:29:55Z</time>
      </trkpt>
      <trkpt lat="45.9136" lon="5.60829">
        <ele>895.2</ele>
        <time>2026-05-13T08:29:56Z</time>
      </trkpt>
      <trkpt lat="45.91359" lon="5.60829">
        <ele>895.4</ele>
        <time>2026-05-13T08:29:57Z</time>
      </trkpt>
      <trkpt lat="45.91357" lon="5.60829">
        <ele>895.4</ele>
        <time>2026-05-13T08:29:58Z</time>
      </trkpt>
      <trkpt lat="45.91354" lon="5.60829">
        <ele>895.8</ele>
        <time>2026-05-13T08:29:59Z</time>
      </trkpt>
      <trkpt lat="45.91352" lon="5.60829">
        <ele>896</ele>
        <time>2026-05-13T08:30:00Z</time>
      </trkpt>
      <trkpt lat="45.9135" lon="5.60828">
        <ele>896</ele>
        <time>2026-05-13T08:30:01Z</time>
      </trkpt>
      <trkpt lat="45.91349" lon="5.60828">
        <ele>896.4</ele>
        <time>2026-05-13T08:30:02Z</time>
      </trkpt>
      <trkpt lat="45.91346" lon="5.60829">
        <ele>896.4</ele>
        <time>2026-05-13T08:30:03Z</time>
      </trkpt>
      <trkpt lat="45.91344" lon="5.6083">
        <ele>896.8</ele>
        <time>2026-05-13T08:30:04Z</time>
      </trkpt>
      <trkpt lat="45.91342" lon="5.60831">
        <ele>897</ele>
        <time>2026-05-13T08:30:05Z</time>
      </trkpt>
      <trkpt lat="45.9134" lon="5.60832">
        <ele>897</ele>
        <time>2026-05-13T08:30:06Z</time>
      </trkpt>
      <trkpt lat="45.91338" lon="5.60834">
        <ele>897.4</ele>
        <time>2026-05-13T08:30:07Z</time>
      </trkpt>
      <trkpt lat="45.91335" lon="5.60836">
        <ele>897.4</ele>
        <time>2026-05-13T08:30:08Z</time>
      </trkpt>
      <trkpt lat="45.91333" lon="5.60838">
        <ele>897.6</ele>
        <time>2026-05-13T08:30:09Z</time>
      </trkpt>
      <trkpt lat="45.91331" lon="5.6084">
        <ele>897.6</ele>
        <time>2026-05-13T08:30:10Z</time>
      </trkpt>
      <trkpt lat="45.9133" lon="5.60842">
        <ele>897.8</ele>
        <time>2026-05-13T08:30:11Z</time>
      </trkpt>
      <trkpt lat="45.91328" lon="5.60844">
        <ele>897.8</ele>
        <time>2026-05-13T08:30:12Z</time>
      </trkpt>
      <trkpt lat="45.91326" lon="5.60845">
        <ele>898</ele>
        <time>2026-05-13T08:30:13Z</time>
      </trkpt>
      <trkpt lat="45.91324" lon="5.60848">
        <ele>898</ele>
        <time>2026-05-13T08:30:14Z</time>
      </trkpt>
      <trkpt lat="45.91323" lon="5.6085">
        <ele>898</ele>
        <time>2026-05-13T08:30:15Z</time>
      </trkpt>
      <trkpt lat="45.91322" lon="5.60852">
        <ele>898.4</ele>
        <time>2026-05-13T08:30:16Z</time>
      </trkpt>
      <trkpt lat="45.91321" lon="5.60854">
        <ele>898.4</ele>
        <time>2026-05-13T08:30:17Z</time>
      </trkpt>
      <trkpt lat="45.91319" lon="5.60857">
        <ele>898.4</ele>
        <time>2026-05-13T08:30:18Z</time>
      </trkpt>
      <trkpt lat="45.91318" lon="5.6086">
        <ele>898.6</ele>
        <time>2026-05-13T08:30:19Z</time>
      </trkpt>
      <trkpt lat="45.91318" lon="5.60862">
        <ele>898.8</ele>
        <time>2026-05-13T08:30:20Z</time>
      </trkpt>
      <trkpt lat="45.91317" lon="5.60865">
        <ele>899</ele>
        <time>2026-05-13T08:30:21Z</time>
      </trkpt>
      <trkpt lat="45.91316" lon="5.60868">
        <ele>899.2</ele>
        <time>2026-05-13T08:30:22Z</time>
      </trkpt>
      <trkpt lat="45.91315" lon="5.60871">
        <ele>899.2</ele>
        <time>2026-05-13T08:30:23Z</time>
      </trkpt>
      <trkpt lat="45.91314" lon="5.60874">
        <ele>899.6</ele>
        <time>2026-05-13T08:30:24Z</time>
      </trkpt>
      <trkpt lat="45.91314" lon="5.60877">
        <ele>899.6</ele>
        <time>2026-05-13T08:30:25Z</time>
      </trkpt>
      <trkpt lat="45.91314" lon="5.6088">
        <ele>899.8</ele>
        <time>2026-05-13T08:30:26Z</time>
      </trkpt>
      <trkpt lat="45.91313" lon="5.60883">
        <ele>899.8</ele>
        <time>2026-05-13T08:30:27Z</time>
      </trkpt>
      <trkpt lat="45.91313" lon="5.60886">
        <ele>900</ele>
        <time>2026-05-13T08:30:28Z</time>
      </trkpt>
      <trkpt lat="45.91313" lon="5.60889">
        <ele>900</ele>
        <time>2026-05-13T08:30:29Z</time>
      </trkpt>
      <trkpt lat="45.91313" lon="5.60892">
        <ele>900</ele>
        <time>2026-05-13T08:30:30Z</time>
      </trkpt>
      <trkpt lat="45.91312" lon="5.60895">
        <ele>900.2</ele>
        <time>2026-05-13T08:30:31Z</time>
      </trkpt>
      <trkpt lat="45.91312" lon="5.60898">
        <ele>900.2</ele>
        <time>2026-05-13T08:30:32Z</time>
      </trkpt>
      <trkpt lat="45.91312" lon="5.60901">
        <ele>900.6</ele>
        <time>2026-05-13T08:30:33Z</time>
      </trkpt>
      <trkpt lat="45.91312" lon="5.60905">
        <ele>900.6</ele>
        <time>2026-05-13T08:30:34Z</time>
      </trkpt>
      <trkpt lat="45.91312" lon="5.60908">
        <ele>900.6</ele>
        <time>2026-05-13T08:30:35Z</time>
      </trkpt>
      <trkpt lat="45.91312" lon="5.60911">
        <ele>900.8</ele>
        <time>2026-05-13T08:30:36Z</time>
      </trkpt>
      <trkpt lat="45.91313" lon="5.60915">
        <ele>900.8</ele>
        <time>2026-05-13T08:30:37Z</time>
      </trkpt>
      <trkpt lat="45.91313" lon="5.60918">
        <ele>900.8</ele>
        <time>2026-05-13T08:30:38Z</time>
      </trkpt>
      <trkpt lat="45.91314" lon="5.60921">
        <ele>900.8</ele>
        <time>2026-05-13T08:30:39Z</time>
      </trkpt>
      <trkpt lat="45.91314" lon="5.60924">
        <ele>901.2</ele>
        <time>2026-05-13T08:30:40Z</time>
      </trkpt>
      <trkpt lat="45.91314" lon="5.60927">
        <ele>901.2</ele>
        <time>2026-05-13T08:30:41Z</time>
      </trkpt>
      <trkpt lat="45.91315" lon="5.6093">
        <ele>901.2</ele>
        <time>2026-05-13T08:30:42Z</time>
      </trkpt>
      <trkpt lat="45.91316" lon="5.60933">
        <ele>901.2</ele>
        <time>2026-05-13T08:30:43Z</time>
      </trkpt>
      <trkpt lat="45.91316" lon="5.60937">
        <ele>901.6</ele>
        <time>2026-05-13T08:30:44Z</time>
      </trkpt>
      <trkpt lat="45.91317" lon="5.6094">
        <ele>901.8</ele>
        <time>2026-05-13T08:30:45Z</time>
      </trkpt>
      <trkpt lat="45.91318" lon="5.60943">
        <ele>901.8</ele>
        <time>2026-05-13T08:30:46Z</time>
      </trkpt>
      <trkpt lat="45.91319" lon="5.60946">
        <ele>902</ele>
        <time>2026-05-13T08:30:47Z</time>
      </trkpt>
      <trkpt lat="45.91319" lon="5.60949">
        <ele>902</ele>
        <time>2026-05-13T08:30:48Z</time>
      </trkpt>
      <trkpt lat="45.9132" lon="5.60952">
        <ele>902.4</ele>
        <time>2026-05-13T08:30:49Z</time>
      </trkpt>
      <trkpt lat="45.91321" lon="5.60956">
        <ele>902.4</ele>
        <time>2026-05-13T08:30:50Z</time>
      </trkpt>
      <trkpt lat="45.91322" lon="5.60959">
        <ele>902.6</ele>
        <time>2026-05-13T08:30:51Z</time>
      </trkpt>
      <trkpt lat="45.91322" lon="5.60962">
        <ele>902.6</ele>
        <time>2026-05-13T08:30:52Z</time>
      </trkpt>
      <trkpt lat="45.91323" lon="5.60965">
        <ele>902.6</ele>
        <time>2026-05-13T08:30:53Z</time>
      </trkpt>
      <trkpt lat="45.91324" lon="5.60968">
        <ele>902.8</ele>
        <time>2026-05-13T08:30:54Z</time>
      </trkpt>
      <trkpt lat="45.91324" lon="5.60971">
        <ele>903.2</ele>
        <time>2026-05-13T08:30:55Z</time>
      </trkpt>
      <trkpt lat="45.91325" lon="5.60974">
        <ele>903.2</ele>
        <time>2026-05-13T08:30:56Z</time>
      </trkpt>
      <trkpt lat="45.91326" lon="5.60976">
        <ele>903.4</ele>
        <time>2026-05-13T08:30:57Z</time>
      </trkpt>
      <trkpt lat="45.91327" lon="5.60979">
        <ele>903.4</ele>
        <time>2026-05-13T08:30:58Z</time>
      </trkpt>
      <trkpt lat="45.91328" lon="5.60982">
        <ele>904</ele>
        <time>2026-05-13T08:30:59Z</time>
      </trkpt>
      <trkpt lat="45.91328" lon="5.60985">
        <ele>904</ele>
        <time>2026-05-13T08:31:00Z</time>
      </trkpt>
      <trkpt lat="45.91329" lon="5.60988">
        <ele>904.2</ele>
        <time>2026-05-13T08:31:01Z</time>
      </trkpt>
      <trkpt lat="45.9133" lon="5.60991">
        <ele>904.6</ele>
        <time>2026-05-13T08:31:02Z</time>
      </trkpt>
      <trkpt lat="45.91331" lon="5.60995">
        <ele>904.6</ele>
        <time>2026-05-13T08:31:03Z</time>
      </trkpt>
      <trkpt lat="45.91332" lon="5.60998">
        <ele>904.6</ele>
        <time>2026-05-13T08:31:04Z</time>
      </trkpt>
      <trkpt lat="45.91333" lon="5.61001">
        <ele>904.8</ele>
        <time>2026-05-13T08:31:05Z</time>
      </trkpt>
      <trkpt lat="45.91334" lon="5.61005">
        <ele>904.8</ele>
        <time>2026-05-13T08:31:06Z</time>
      </trkpt>
      <trkpt lat="45.91334" lon="5.61008">
        <ele>904.8</ele>
        <time>2026-05-13T08:31:07Z</time>
      </trkpt>
      <trkpt lat="45.91335" lon="5.61011">
        <ele>904.8</ele>
        <time>2026-05-13T08:31:08Z</time>
      </trkpt>
      <trkpt lat="45.91336" lon="5.61014">
        <ele>905.2</ele>
        <time>2026-05-13T08:31:09Z</time>
      </trkpt>
      <trkpt lat="45.91337" lon="5.61017">
        <ele>905.2</ele>
        <time>2026-05-13T08:31:10Z</time>
      </trkpt>
      <trkpt lat="45.91338" lon="5.6102">
        <ele>905.2</ele>
        <time>2026-05-13T08:31:11Z</time>
      </trkpt>
      <trkpt lat="45.91339" lon="5.61023">
        <ele>905.6</ele>
        <time>2026-05-13T08:31:12Z</time>
      </trkpt>
      <trkpt lat="45.9134" lon="5.61027">
        <ele>905.6</ele>
        <time>2026-05-13T08:31:13Z</time>
      </trkpt>
      <trkpt lat="45.91341" lon="5.6103">
        <ele>905.6</ele>
        <time>2026-05-13T08:31:14Z</time>
      </trkpt>
      <trkpt lat="45.91342" lon="5.61032">
        <ele>905.6</ele>
        <time>2026-05-13T08:31:15Z</time>
      </trkpt>
      <trkpt lat="45.91343" lon="5.61035">
        <ele>905.8</ele>
        <time>2026-05-13T08:31:16Z</time>
      </trkpt>
      <trkpt lat="45.91344" lon="5.61039">
        <ele>905.8</ele>
        <time>2026-05-13T08:31:17Z</time>
      </trkpt>
      <trkpt lat="45.91346" lon="5.61042">
        <ele>905.8</ele>
        <time>2026-05-13T08:31:18Z</time>
      </trkpt>
      <trkpt lat="45.91347" lon="5.61045">
        <ele>906</ele>
        <time>2026-05-13T08:31:19Z</time>
      </trkpt>
      <trkpt lat="45.91348" lon="5.61047">
        <ele>906</ele>
        <time>2026-05-13T08:31:20Z</time>
      </trkpt>
      <trkpt lat="45.91349" lon="5.6105">
        <ele>906.4</ele>
        <time>2026-05-13T08:31:21Z</time>
      </trkpt>
      <trkpt lat="45.9135" lon="5.61054">
        <ele>906.4</ele>
        <time>2026-05-13T08:31:22Z</time>
      </trkpt>
      <trkpt lat="45.9135" lon="5.61054">
        <ele>906.6</ele>
        <time>2026-05-13T08:31:23Z</time>
      </trkpt>
      <trkpt lat="45.9135" lon="5.61057">
        <ele>906.6</ele>
        <time>2026-05-13T08:31:24Z</time>
      </trkpt>
      <trkpt lat="45.91351" lon="5.6106">
        <ele>906.6</ele>
        <time>2026-05-13T08:31:25Z</time>
      </trkpt>
      <trkpt lat="45.91352" lon="5.61062">
        <ele>907</ele>
        <time>2026-05-13T08:31:26Z</time>
      </trkpt>
      <trkpt lat="45.91353" lon="5.61066">
        <ele>907</ele>
        <time>2026-05-13T08:31:27Z</time>
      </trkpt>
      <trkpt lat="45.91353" lon="5.61068">
        <ele>907.2</ele>
        <time>2026-05-13T08:31:28Z</time>
      </trkpt>
      <trkpt lat="45.91354" lon="5.61071">
        <ele>907.2</ele>
        <time>2026-05-13T08:31:29Z</time>
      </trkpt>
      <trkpt lat="45.91355" lon="5.61075">
        <ele>907.6</ele>
        <time>2026-05-13T08:31:30Z</time>
      </trkpt>
      <trkpt lat="45.91356" lon="5.61078">
        <ele>907.6</ele>
        <time>2026-05-13T08:31:31Z</time>
      </trkpt>
      <trkpt lat="45.91357" lon="5.6108">
        <ele>907.8</ele>
        <time>2026-05-13T08:31:32Z</time>
      </trkpt>
      <trkpt lat="45.91357" lon="5.61083">
        <ele>907.8</ele>
        <time>2026-05-13T08:31:33Z</time>
      </trkpt>
      <trkpt lat="45.91358" lon="5.61086">
        <ele>908.2</ele>
        <time>2026-05-13T08:31:34Z</time>
      </trkpt>
      <trkpt lat="45.91359" lon="5.61089">
        <ele>908.2</ele>
        <time>2026-05-13T08:31:35Z</time>
      </trkpt>
      <trkpt lat="45.9136" lon="5.61092">
        <ele>908.6</ele>
        <time>2026-05-13T08:31:36Z</time>
      </trkpt>
      <trkpt lat="45.9136" lon="5.61095">
        <ele>908.6</ele>
        <time>2026-05-13T08:31:37Z</time>
      </trkpt>
      <trkpt lat="45.91361" lon="5.61098">
        <ele>908.8</ele>
        <time>2026-05-13T08:31:38Z</time>
      </trkpt>
      <trkpt lat="45.91361" lon="5.61101">
        <ele>908.8</ele>
        <time>2026-05-13T08:31:39Z</time>
      </trkpt>
      <trkpt lat="45.91362" lon="5.61104">
        <ele>909</ele>
        <time>2026-05-13T08:31:40Z</time>
      </trkpt>
      <trkpt lat="45.91362" lon="5.61108">
        <ele>909</ele>
        <time>2026-05-13T08:31:41Z</time>
      </trkpt>
      <trkpt lat="45.91362" lon="5.61111">
        <ele>909</ele>
        <time>2026-05-13T08:31:42Z</time>
      </trkpt>
      <trkpt lat="45.91362" lon="5.61114">
        <ele>909.4</ele>
        <time>2026-05-13T08:31:43Z</time>
      </trkpt>
      <trkpt lat="45.91363" lon="5.61117">
        <ele>909.4</ele>
        <time>2026-05-13T08:31:44Z</time>
      </trkpt>
      <trkpt lat="45.91363" lon="5.6112">
        <ele>909.8</ele>
        <time>2026-05-13T08:31:45Z</time>
      </trkpt>
      <trkpt lat="45.91363" lon="5.61124">
        <ele>909.8</ele>
        <time>2026-05-13T08:31:46Z</time>
      </trkpt>
      <trkpt lat="45.91364" lon="5.61127">
        <ele>909.8</ele>
        <time>2026-05-13T08:31:47Z</time>
      </trkpt>
      <trkpt lat="45.91364" lon="5.6113">
        <ele>910</ele>
        <time>2026-05-13T08:31:48Z</time>
      </trkpt>
      <trkpt lat="45.91364" lon="5.61133">
        <ele>910</ele>
        <time>2026-05-13T08:31:49Z</time>
      </trkpt>
      <trkpt lat="45.91364" lon="5.61136">
        <ele>910</ele>
        <time>2026-05-13T08:31:50Z</time>
      </trkpt>
      <trkpt lat="45.91364" lon="5.61139">
        <ele>910.4</ele>
        <time>2026-05-13T08:31:51Z</time>
      </trkpt>
      <trkpt lat="45.91364" lon="5.61143">
        <ele>910.6</ele>
        <time>2026-05-13T08:31:52Z</time>
      </trkpt>
      <trkpt lat="45.91364" lon="5.61146">
        <ele>910.6</ele>
        <time>2026-05-13T08:31:53Z</time>
      </trkpt>
      <trkpt lat="45.91364" lon="5.61149">
        <ele>910.6</ele>
        <time>2026-05-13T08:31:54Z</time>
      </trkpt>
      <trkpt lat="45.91364" lon="5.61152">
        <ele>911</ele>
        <time>2026-05-13T08:31:55Z</time>
      </trkpt>
      <trkpt lat="45.91364" lon="5.61155">
        <ele>911.2</ele>
        <time>2026-05-13T08:31:56Z</time>
      </trkpt>
      <trkpt lat="45.91364" lon="5.61158">
        <ele>911.2</ele>
        <time>2026-05-13T08:31:57Z</time>
      </trkpt>
      <trkpt lat="45.91364" lon="5.61161">
        <ele>911.2</ele>
        <time>2026-05-13T08:31:58Z</time>
      </trkpt>
      <trkpt lat="45.91364" lon="5.61164">
        <ele>911.6</ele>
        <time>2026-05-13T08:31:59Z</time>
      </trkpt>
      <trkpt lat="45.91365" lon="5.61167">
        <ele>911.6</ele>
        <time>2026-05-13T08:32:00Z</time>
      </trkpt>
      <trkpt lat="45.91365" lon="5.6117">
        <ele>911.6</ele>
        <time>2026-05-13T08:32:01Z</time>
      </trkpt>
      <trkpt lat="45.91365" lon="5.61173">
        <ele>911.6</ele>
        <time>2026-05-13T08:32:02Z</time>
      </trkpt>
      <trkpt lat="45.91365" lon="5.61176">
        <ele>911.8</ele>
        <time>2026-05-13T08:32:03Z</time>
      </trkpt>
      <trkpt lat="45.91365" lon="5.61179">
        <ele>912.2</ele>
        <time>2026-05-13T08:32:04Z</time>
      </trkpt>
      <trkpt lat="45.91365" lon="5.61183">
        <ele>912.2</ele>
        <time>2026-05-13T08:32:05Z</time>
      </trkpt>
      <trkpt lat="45.91365" lon="5.61186">
        <ele>912.2</ele>
        <time>2026-05-13T08:32:06Z</time>
      </trkpt>
      <trkpt lat="45.91365" lon="5.61189">
        <ele>912.6</ele>
        <time>2026-05-13T08:32:07Z</time>
      </trkpt>
      <trkpt lat="45.91365" lon="5.61192">
        <ele>912.8</ele>
        <time>2026-05-13T08:32:08Z</time>
      </trkpt>
      <trkpt lat="45.91365" lon="5.61196">
        <ele>912.8</ele>
        <time>2026-05-13T08:32:09Z</time>
      </trkpt>
      <trkpt lat="45.91365" lon="5.61199">
        <ele>913.2</ele>
        <time>2026-05-13T08:32:10Z</time>
      </trkpt>
      <trkpt lat="45.91366" lon="5.61202">
        <ele>913.2</ele>
        <time>2026-05-13T08:32:11Z</time>
      </trkpt>
      <trkpt lat="45.91366" lon="5.61206">
        <ele>913.2</ele>
        <time>2026-05-13T08:32:12Z</time>
      </trkpt>
      <trkpt lat="45.91366" lon="5.61209">
        <ele>913.2</ele>
        <time>2026-05-13T08:32:13Z</time>
      </trkpt>
      <trkpt lat="45.91366" lon="5.61213">
        <ele>913.6</ele>
        <time>2026-05-13T08:32:14Z</time>
      </trkpt>
      <trkpt lat="45.91366" lon="5.61216">
        <ele>913.6</ele>
        <time>2026-05-13T08:32:15Z</time>
      </trkpt>
      <trkpt lat="45.91366" lon="5.61219">
        <ele>913.8</ele>
        <time>2026-05-13T08:32:16Z</time>
      </trkpt>
      <trkpt lat="45.91366" lon="5.61223">
        <ele>914</ele>
        <time>2026-05-13T08:32:17Z</time>
      </trkpt>
      <trkpt lat="45.91366" lon="5.61227">
        <ele>914</ele>
        <time>2026-05-13T08:32:18Z</time>
      </trkpt>
      <trkpt lat="45.91366" lon="5.6123">
        <ele>914</ele>
        <time>2026-05-13T08:32:19Z</time>
      </trkpt>
      <trkpt lat="45.91366" lon="5.61234">
        <ele>914.2</ele>
        <time>2026-05-13T08:32:20Z</time>
      </trkpt>
      <trkpt lat="45.91367" lon="5.61238">
        <ele>914.2</ele>
        <time>2026-05-13T08:32:21Z</time>
      </trkpt>
      <trkpt lat="45.91367" lon="5.61241">
        <ele>914.4</ele>
        <time>2026-05-13T08:32:22Z</time>
      </trkpt>
      <trkpt lat="45.91367" lon="5.61245">
        <ele>914.4</ele>
        <time>2026-05-13T08:32:23Z</time>
      </trkpt>
      <trkpt lat="45.91367" lon="5.61248">
        <ele>914.4</ele>
        <time>2026-05-13T08:32:24Z</time>
      </trkpt>
      <trkpt lat="45.91368" lon="5.61251">
        <ele>914.4</ele>
        <time>2026-05-13T08:32:25Z</time>
      </trkpt>
      <trkpt lat="45.91368" lon="5.61254">
        <ele>914.4</ele>
        <time>2026-05-13T08:32:26Z</time>
      </trkpt>
      <trkpt lat="45.91368" lon="5.61258">
        <ele>914.8</ele>
        <time>2026-05-13T08:32:27Z</time>
      </trkpt>
      <trkpt lat="45.91367" lon="5.61262">
        <ele>915</ele>
        <time>2026-05-13T08:32:28Z</time>
      </trkpt>
      <trkpt lat="45.91367" lon="5.61265">
        <ele>915.2</ele>
        <time>2026-05-13T08:32:29Z</time>
      </trkpt>
      <trkpt lat="45.91368" lon="5.61272">
        <ele>915.6</ele>
        <time>2026-05-13T08:32:30Z</time>
      </trkpt>
      <trkpt lat="45.91369" lon="5.61275">
        <ele>915.8</ele>
        <time>2026-05-13T08:32:31Z</time>
      </trkpt>
      <trkpt lat="45.91369" lon="5.61278">
        <ele>916</ele>
        <time>2026-05-13T08:32:32Z</time>
      </trkpt>
      <trkpt lat="45.9137" lon="5.61281">
        <ele>916.2</ele>
        <time>2026-05-13T08:32:33Z</time>
      </trkpt>
      <trkpt lat="45.91371" lon="5.61284">
        <ele>916.2</ele>
        <time>2026-05-13T08:32:34Z</time>
      </trkpt>
      <trkpt lat="45.91371" lon="5.61287">
        <ele>916.2</ele>
        <time>2026-05-13T08:32:35Z</time>
      </trkpt>
      <trkpt lat="45.91371" lon="5.6129">
        <ele>916.4</ele>
        <time>2026-05-13T08:32:36Z</time>
      </trkpt>
      <trkpt lat="45.91372" lon="5.61292">
        <ele>916.4</ele>
        <time>2026-05-13T08:32:37Z</time>
      </trkpt>
      <trkpt lat="45.91372" lon="5.61294">
        <ele>916.8</ele>
        <time>2026-05-13T08:32:38Z</time>
      </trkpt>
      <trkpt lat="45.91372" lon="5.61297">
        <ele>917.2</ele>
        <time>2026-05-13T08:32:39Z</time>
      </trkpt>
      <trkpt lat="45.91372" lon="5.61301">
        <ele>917.2</ele>
        <time>2026-05-13T08:32:40Z</time>
      </trkpt>
      <trkpt lat="45.91373" lon="5.61304">
        <ele>917.2</ele>
        <time>2026-05-13T08:32:41Z</time>
      </trkpt>
      <trkpt lat="45.91373" lon="5.61307">
        <ele>917.4</ele>
        <time>2026-05-13T08:32:42Z</time>
      </trkpt>
      <trkpt lat="45.91374" lon="5.61311">
        <ele>917.6</ele>
        <time>2026-05-13T08:32:43Z</time>
      </trkpt>
      <trkpt lat="45.91374" lon="5.61314">
        <ele>917.6</ele>
        <time>2026-05-13T08:32:44Z</time>
      </trkpt>
      <trkpt lat="45.91375" lon="5.61318">
        <ele>918</ele>
        <time>2026-05-13T08:32:45Z</time>
      </trkpt>
      <trkpt lat="45.91376" lon="5.61321">
        <ele>918</ele>
        <time>2026-05-13T08:32:46Z</time>
      </trkpt>
      <trkpt lat="45.91377" lon="5.61325">
        <ele>918.2</ele>
        <time>2026-05-13T08:32:47Z</time>
      </trkpt>
      <trkpt lat="45.91377" lon="5.61329">
        <ele>918.2</ele>
        <time>2026-05-13T08:32:48Z</time>
      </trkpt>
      <trkpt lat="45.91377" lon="5.61333">
        <ele>918.4</ele>
        <time>2026-05-13T08:32:49Z</time>
      </trkpt>
      <trkpt lat="45.91377" lon="5.61336">
        <ele>918.4</ele>
        <time>2026-05-13T08:32:50Z</time>
      </trkpt>
      <trkpt lat="45.91377" lon="5.6134">
        <ele>918.8</ele>
        <time>2026-05-13T08:32:51Z</time>
      </trkpt>
      <trkpt lat="45.91377" lon="5.61343">
        <ele>919</ele>
        <time>2026-05-13T08:32:52Z</time>
      </trkpt>
      <trkpt lat="45.91377" lon="5.61347">
        <ele>919</ele>
        <time>2026-05-13T08:32:53Z</time>
      </trkpt>
      <trkpt lat="45.91377" lon="5.61351">
        <ele>919.2</ele>
        <time>2026-05-13T08:32:54Z</time>
      </trkpt>
      <trkpt lat="45.91377" lon="5.61355">
        <ele>919.2</ele>
        <time>2026-05-13T08:32:55Z</time>
      </trkpt>
      <trkpt lat="45.91376" lon="5.61359">
        <ele>919.2</ele>
        <time>2026-05-13T08:32:56Z</time>
      </trkpt>
      <trkpt lat="45.91376" lon="5.61363">
        <ele>919.2</ele>
        <time>2026-05-13T08:32:57Z</time>
      </trkpt>
      <trkpt lat="45.91375" lon="5.61367">
        <ele>919.2</ele>
        <time>2026-05-13T08:32:58Z</time>
      </trkpt>
      <trkpt lat="45.91374" lon="5.61371">
        <ele>919.6</ele>
        <time>2026-05-13T08:32:59Z</time>
      </trkpt>
      <trkpt lat="45.91373" lon="5.61375">
        <ele>919.6</ele>
        <time>2026-05-13T08:33:00Z</time>
      </trkpt>
      <trkpt lat="45.91372" lon="5.61378">
        <ele>919.6</ele>
        <time>2026-05-13T08:33:01Z</time>
      </trkpt>
      <trkpt lat="45.91371" lon="5.61381">
        <ele>919.8</ele>
        <time>2026-05-13T08:33:02Z</time>
      </trkpt>
      <trkpt lat="45.91371" lon="5.61385">
        <ele>919.8</ele>
        <time>2026-05-13T08:33:03Z</time>
      </trkpt>
      <trkpt lat="45.9137" lon="5.61388">
        <ele>920</ele>
        <time>2026-05-13T08:33:04Z</time>
      </trkpt>
      <trkpt lat="45.91369" lon="5.61392">
        <ele>920.2</ele>
        <time>2026-05-13T08:33:05Z</time>
      </trkpt>
      <trkpt lat="45.91368" lon="5.61395">
        <ele>920.2</ele>
        <time>2026-05-13T08:33:06Z</time>
      </trkpt>
      <trkpt lat="45.91367" lon="5.61399">
        <ele>920.6</ele>
        <time>2026-05-13T08:33:07Z</time>
      </trkpt>
      <trkpt lat="45.91366" lon="5.61402">
        <ele>920.6</ele>
        <time>2026-05-13T08:33:08Z</time>
      </trkpt>
      <trkpt lat="45.91365" lon="5.61406">
        <ele>920.8</ele>
        <time>2026-05-13T08:33:09Z</time>
      </trkpt>
      <trkpt lat="45.91365" lon="5.61409">
        <ele>920.8</ele>
        <time>2026-05-13T08:33:10Z</time>
      </trkpt>
      <trkpt lat="45.91364" lon="5.61413">
        <ele>920.8</ele>
        <time>2026-05-13T08:33:11Z</time>
      </trkpt>
      <trkpt lat="45.91363" lon="5.61416">
        <ele>920.8</ele>
        <time>2026-05-13T08:33:12Z</time>
      </trkpt>
      <trkpt lat="45.91362" lon="5.6142">
        <ele>920.8</ele>
        <time>2026-05-13T08:33:13Z</time>
      </trkpt>
      <trkpt lat="45.91361" lon="5.61424">
        <ele>920.8</ele>
        <time>2026-05-13T08:33:14Z</time>
      </trkpt>
      <trkpt lat="45.9136" lon="5.61429">
        <ele>920.8</ele>
        <time>2026-05-13T08:33:15Z</time>
      </trkpt>
      <trkpt lat="45.91359" lon="5.61434">
        <ele>920.6</ele>
        <time>2026-05-13T08:33:16Z</time>
      </trkpt>
      <trkpt lat="45.91358" lon="5.61439">
        <ele>920.2</ele>
        <time>2026-05-13T08:33:17Z</time>
      </trkpt>
      <trkpt lat="45.91357" lon="5.61445">
        <ele>920</ele>
        <time>2026-05-13T08:33:18Z</time>
      </trkpt>
      <trkpt lat="45.91355" lon="5.61452">
        <ele>920</ele>
        <time>2026-05-13T08:33:19Z</time>
      </trkpt>
      <trkpt lat="45.91354" lon="5.61458">
        <ele>919.6</ele>
        <time>2026-05-13T08:33:20Z</time>
      </trkpt>
      <trkpt lat="45.91351" lon="5.61464">
        <ele>919.2</ele>
        <time>2026-05-13T08:33:21Z</time>
      </trkpt>
      <trkpt lat="45.9135" lon="5.6147">
        <ele>918.8</ele>
        <time>2026-05-13T08:33:22Z</time>
      </trkpt>
      <trkpt lat="45.91349" lon="5.61475">
        <ele>918.8</ele>
        <time>2026-05-13T08:33:23Z</time>
      </trkpt>
      <trkpt lat="45.91348" lon="5.61481">
        <ele>918.2</ele>
        <time>2026-05-13T08:33:24Z</time>
      </trkpt>
      <trkpt lat="45.91347" lon="5.61485">
        <ele>917.8</ele>
        <time>2026-05-13T08:33:25Z</time>
      </trkpt>
      <trkpt lat="45.91346" lon="5.61489">
        <ele>917.6</ele>
        <time>2026-05-13T08:33:26Z</time>
      </trkpt>
      <trkpt lat="45.91346" lon="5.61493">
        <ele>917.4</ele>
        <time>2026-05-13T08:33:27Z</time>
      </trkpt>
      <trkpt lat="45.91344" lon="5.61497">
        <ele>917.4</ele>
        <time>2026-05-13T08:33:28Z</time>
      </trkpt>
      <trkpt lat="45.91344" lon="5.615">
        <ele>917</ele>
        <time>2026-05-13T08:33:29Z</time>
      </trkpt>
      <trkpt lat="45.91343" lon="5.61504">
        <ele>917</ele>
        <time>2026-05-13T08:33:30Z</time>
      </trkpt>
      <trkpt lat="45.91342" lon="5.61508">
        <ele>916.8</ele>
        <time>2026-05-13T08:33:31Z</time>
      </trkpt>
      <trkpt lat="45.91341" lon="5.61511">
        <ele>916.8</ele>
        <time>2026-05-13T08:33:32Z</time>
      </trkpt>
      <trkpt lat="45.91339" lon="5.61513">
        <ele>916.6</ele>
        <time>2026-05-13T08:33:33Z</time>
      </trkpt>
      <trkpt lat="45.91339" lon="5.61516">
        <ele>916.6</ele>
        <time>2026-05-13T08:33:34Z</time>
      </trkpt>
      <trkpt lat="45.91339" lon="5.6152">
        <ele>916.2</ele>
        <time>2026-05-13T08:33:35Z</time>
      </trkpt>
      <trkpt lat="45.91339" lon="5.6152">
        <ele>916.2</ele>
        <time>2026-05-13T08:33:36Z</time>
      </trkpt>
      <trkpt lat="45.91339" lon="5.6152">
        <ele>916</ele>
        <time>2026-05-13T08:33:37Z</time>
      </trkpt>
      <trkpt lat="45.91334" lon="5.61534">
        <ele>915.6</ele>
        <time>2026-05-13T08:33:40Z</time>
      </trkpt>
      <trkpt lat="45.91333" lon="5.61539">
        <ele>915.2</ele>
        <time>2026-05-13T08:33:41Z</time>
      </trkpt>
      <trkpt lat="45.91332" lon="5.61543">
        <ele>915.2</ele>
        <time>2026-05-13T08:33:42Z</time>
      </trkpt>
      <trkpt lat="45.91331" lon="5.61547">
        <ele>915</ele>
        <time>2026-05-13T08:33:43Z</time>
      </trkpt>
      <trkpt lat="45.91329" lon="5.61552">
        <ele>915</ele>
        <time>2026-05-13T08:33:44Z</time>
      </trkpt>
      <trkpt lat="45.91328" lon="5.61557">
        <ele>914.6</ele>
        <time>2026-05-13T08:33:45Z</time>
      </trkpt>
      <trkpt lat="45.91326" lon="5.61563">
        <ele>914.6</ele>
        <time>2026-05-13T08:33:46Z</time>
      </trkpt>
      <trkpt lat="45.91325" lon="5.61569">
        <ele>914.2</ele>
        <time>2026-05-13T08:33:47Z</time>
      </trkpt>
      <trkpt lat="45.91324" lon="5.61575">
        <ele>914.2</ele>
        <time>2026-05-13T08:33:48Z</time>
      </trkpt>
      <trkpt lat="45.91322" lon="5.61582">
        <ele>913.8</ele>
        <time>2026-05-13T08:33:49Z</time>
      </trkpt>
      <trkpt lat="45.9132" lon="5.61588">
        <ele>913.8</ele>
        <time>2026-05-13T08:33:50Z</time>
      </trkpt>
      <trkpt lat="45.91318" lon="5.61595">
        <ele>913.6</ele>
        <time>2026-05-13T08:33:51Z</time>
      </trkpt>
      <trkpt lat="45.91315" lon="5.61609">
        <ele>913.2</ele>
        <time>2026-05-13T08:33:52Z</time>
      </trkpt>
      <trkpt lat="45.91312" lon="5.61616">
        <ele>912.8</ele>
        <time>2026-05-13T08:33:53Z</time>
      </trkpt>
      <trkpt lat="45.9131" lon="5.61624">
        <ele>912.6</ele>
        <time>2026-05-13T08:33:54Z</time>
      </trkpt>
      <trkpt lat="45.91309" lon="5.61631">
        <ele>912.2</ele>
        <time>2026-05-13T08:33:55Z</time>
      </trkpt>
      <trkpt lat="45.91307" lon="5.61639">
        <ele>911.8</ele>
        <time>2026-05-13T08:33:56Z</time>
      </trkpt>
      <trkpt lat="45.91305" lon="5.61646">
        <ele>911.8</ele>
        <time>2026-05-13T08:33:57Z</time>
      </trkpt>
      <trkpt lat="45.91304" lon="5.61654">
        <ele>911.2</ele>
        <time>2026-05-13T08:33:58Z</time>
      </trkpt>
      <trkpt lat="45.91302" lon="5.61662">
        <ele>911.2</ele>
        <time>2026-05-13T08:33:59Z</time>
      </trkpt>
      <trkpt lat="45.913" lon="5.6167">
        <ele>910.8</ele>
        <time>2026-05-13T08:34:00Z</time>
      </trkpt>
      <trkpt lat="45.91299" lon="5.61678">
        <ele>910.4</ele>
        <time>2026-05-13T08:34:01Z</time>
      </trkpt>
      <trkpt lat="45.91298" lon="5.61687">
        <ele>910</ele>
        <time>2026-05-13T08:34:02Z</time>
      </trkpt>
      <trkpt lat="45.91296" lon="5.61695">
        <ele>910</ele>
        <time>2026-05-13T08:34:03Z</time>
      </trkpt>
      <trkpt lat="45.91294" lon="5.61702">
        <ele>909.8</ele>
        <time>2026-05-13T08:34:04Z</time>
      </trkpt>
      <trkpt lat="45.91293" lon="5.61709">
        <ele>909.8</ele>
        <time>2026-05-13T08:34:05Z</time>
      </trkpt>
      <trkpt lat="45.91292" lon="5.61717">
        <ele>909.2</ele>
        <time>2026-05-13T08:34:06Z</time>
      </trkpt>
      <trkpt lat="45.91291" lon="5.61724">
        <ele>908.6</ele>
        <time>2026-05-13T08:34:07Z</time>
      </trkpt>
      <trkpt lat="45.91289" lon="5.61732">
        <ele>908.4</ele>
        <time>2026-05-13T08:34:08Z</time>
      </trkpt>
      <trkpt lat="45.91287" lon="5.6174">
        <ele>908.4</ele>
        <time>2026-05-13T08:34:09Z</time>
      </trkpt>
      <trkpt lat="45.91285" lon="5.61749">
        <ele>907.8</ele>
        <time>2026-05-13T08:34:10Z</time>
      </trkpt>
      <trkpt lat="45.91283" lon="5.61758">
        <ele>907.6</ele>
        <time>2026-05-13T08:34:11Z</time>
      </trkpt>
      <trkpt lat="45.91281" lon="5.61767">
        <ele>907.4</ele>
        <time>2026-05-13T08:34:12Z</time>
      </trkpt>
      <trkpt lat="45.9128" lon="5.61776">
        <ele>907</ele>
        <time>2026-05-13T08:34:13Z</time>
      </trkpt>
      <trkpt lat="45.91278" lon="5.61784">
        <ele>906.8</ele>
        <time>2026-05-13T08:34:14Z</time>
      </trkpt>
      <trkpt lat="45.91277" lon="5.61793">
        <ele>906.6</ele>
        <time>2026-05-13T08:34:15Z</time>
      </trkpt>
      <trkpt lat="45.91276" lon="5.61801">
        <ele>906.2</ele>
        <time>2026-05-13T08:34:16Z</time>
      </trkpt>
      <trkpt lat="45.91275" lon="5.61809">
        <ele>905.8</ele>
        <time>2026-05-13T08:34:17Z</time>
      </trkpt>
      <trkpt lat="45.91275" lon="5.61817">
        <ele>905.4</ele>
        <time>2026-05-13T08:34:18Z</time>
      </trkpt>
      <trkpt lat="45.91275" lon="5.61823">
        <ele>905.4</ele>
        <time>2026-05-13T08:34:19Z</time>
      </trkpt>
      <trkpt lat="45.91276" lon="5.61831">
        <ele>905</ele>
        <time>2026-05-13T08:34:20Z</time>
      </trkpt>
      <trkpt lat="45.91277" lon="5.61839">
        <ele>904.6</ele>
        <time>2026-05-13T08:34:21Z</time>
      </trkpt>
      <trkpt lat="45.91278" lon="5.61847">
        <ele>903.8</ele>
        <time>2026-05-13T08:34:22Z</time>
      </trkpt>
      <trkpt lat="45.9128" lon="5.61856">
        <ele>903.6</ele>
        <time>2026-05-13T08:34:23Z</time>
      </trkpt>
      <trkpt lat="45.91283" lon="5.61865">
        <ele>903.2</ele>
        <time>2026-05-13T08:34:24Z</time>
      </trkpt>
      <trkpt lat="45.91285" lon="5.61875">
        <ele>902.8</ele>
        <time>2026-05-13T08:34:25Z</time>
      </trkpt>
      <trkpt lat="45.91288" lon="5.61884">
        <ele>902.4</ele>
        <time>2026-05-13T08:34:26Z</time>
      </trkpt>
      <trkpt lat="45.9129" lon="5.61894">
        <ele>901.8</ele>
        <time>2026-05-13T08:34:27Z</time>
      </trkpt>
      <trkpt lat="45.91293" lon="5.61905">
        <ele>901.4</ele>
        <time>2026-05-13T08:34:28Z</time>
      </trkpt>
      <trkpt lat="45.91295" lon="5.61915">
        <ele>900.8</ele>
        <time>2026-05-13T08:34:29Z</time>
      </trkpt>
      <trkpt lat="45.91298" lon="5.61926">
        <ele>900.2</ele>
        <time>2026-05-13T08:34:30Z</time>
      </trkpt>
      <trkpt lat="45.91301" lon="5.61937">
        <ele>899.6</ele>
        <time>2026-05-13T08:34:31Z</time>
      </trkpt>
      <trkpt lat="45.91305" lon="5.61949">
        <ele>899</ele>
        <time>2026-05-13T08:34:32Z</time>
      </trkpt>
      <trkpt lat="45.91309" lon="5.61961">
        <ele>898.2</ele>
        <time>2026-05-13T08:34:33Z</time>
      </trkpt>
      <trkpt lat="45.91314" lon="5.61971">
        <ele>897.6</ele>
        <time>2026-05-13T08:34:34Z</time>
      </trkpt>
      <trkpt lat="45.91318" lon="5.61981">
        <ele>897</ele>
        <time>2026-05-13T08:34:35Z</time>
      </trkpt>
      <trkpt lat="45.91324" lon="5.61992">
        <ele>896.6</ele>
        <time>2026-05-13T08:34:36Z</time>
      </trkpt>
      <trkpt lat="45.91324" lon="5.61992">
        <ele>895.8</ele>
        <time>2026-05-13T08:34:37Z</time>
      </trkpt>
      <trkpt lat="45.91324" lon="5.61992">
        <ele>895.4</ele>
        <time>2026-05-13T08:34:38Z</time>
      </trkpt>
      <trkpt lat="45.91343" lon="5.62016">
        <ele>894.8</ele>
        <time>2026-05-13T08:34:39Z</time>
      </trkpt>
      <trkpt lat="45.91349" lon="5.62023">
        <ele>894.2</ele>
        <time>2026-05-13T08:34:40Z</time>
      </trkpt>
      <trkpt lat="45.91355" lon="5.6203">
        <ele>893.6</ele>
        <time>2026-05-13T08:34:41Z</time>
      </trkpt>
      <trkpt lat="45.91359" lon="5.62035">
        <ele>893.4</ele>
        <time>2026-05-13T08:34:42Z</time>
      </trkpt>
      <trkpt lat="45.91364" lon="5.62041">
        <ele>893.2</ele>
        <time>2026-05-13T08:34:43Z</time>
      </trkpt>
      <trkpt lat="45.91368" lon="5.62047">
        <ele>892.6</ele>
        <time>2026-05-13T08:34:44Z</time>
      </trkpt>
      <trkpt lat="45.91372" lon="5.62053">
        <ele>892.2</ele>
        <time>2026-05-13T08:34:45Z</time>
      </trkpt>
      <trkpt lat="45.91374" lon="5.62059">
        <ele>892.2</ele>
        <time>2026-05-13T08:34:46Z</time>
      </trkpt>
      <trkpt lat="45.91376" lon="5.62066">
        <ele>891.8</ele>
        <time>2026-05-13T08:34:47Z</time>
      </trkpt>
      <trkpt lat="45.91378" lon="5.62073">
        <ele>891.6</ele>
        <time>2026-05-13T08:34:48Z</time>
      </trkpt>
      <trkpt lat="45.9138" lon="5.6208">
        <ele>891.2</ele>
        <time>2026-05-13T08:34:49Z</time>
      </trkpt>
      <trkpt lat="45.9138" lon="5.62087">
        <ele>891</ele>
        <time>2026-05-13T08:34:50Z</time>
      </trkpt>
      <trkpt lat="45.9138" lon="5.62093">
        <ele>890.6</ele>
        <time>2026-05-13T08:34:51Z</time>
      </trkpt>
      <trkpt lat="45.91379" lon="5.62101">
        <ele>890.4</ele>
        <time>2026-05-13T08:34:52Z</time>
      </trkpt>
      <trkpt lat="45.91378" lon="5.62108">
        <ele>890</ele>
        <time>2026-05-13T08:34:53Z</time>
      </trkpt>
      <trkpt lat="45.91377" lon="5.62114">
        <ele>889.4</ele>
        <time>2026-05-13T08:34:54Z</time>
      </trkpt>
      <trkpt lat="45.91375" lon="5.62119">
        <ele>889.2</ele>
        <time>2026-05-13T08:34:55Z</time>
      </trkpt>
      <trkpt lat="45.91374" lon="5.62123">
        <ele>888.8</ele>
        <time>2026-05-13T08:34:56Z</time>
      </trkpt>
      <trkpt lat="45.91371" lon="5.62128">
        <ele>888.4</ele>
        <time>2026-05-13T08:34:57Z</time>
      </trkpt>
      <trkpt lat="45.91369" lon="5.62134">
        <ele>888</ele>
        <time>2026-05-13T08:34:58Z</time>
      </trkpt>
      <trkpt lat="45.91366" lon="5.6214">
        <ele>887.6</ele>
        <time>2026-05-13T08:34:59Z</time>
      </trkpt>
      <trkpt lat="45.91363" lon="5.62145">
        <ele>887.4</ele>
        <time>2026-05-13T08:35:00Z</time>
      </trkpt>
      <trkpt lat="45.9136" lon="5.62151">
        <ele>887.2</ele>
        <time>2026-05-13T08:35:01Z</time>
      </trkpt>
      <trkpt lat="45.91357" lon="5.62158">
        <ele>886.8</ele>
        <time>2026-05-13T08:35:02Z</time>
      </trkpt>
      <trkpt lat="45.91354" lon="5.62165">
        <ele>886.4</ele>
        <time>2026-05-13T08:35:03Z</time>
      </trkpt>
      <trkpt lat="45.9135" lon="5.62172">
        <ele>886</ele>
        <time>2026-05-13T08:35:04Z</time>
      </trkpt>
      <trkpt lat="45.91346" lon="5.6218">
        <ele>885.6</ele>
        <time>2026-05-13T08:35:05Z</time>
      </trkpt>
      <trkpt lat="45.91341" lon="5.62188">
        <ele>885.2</ele>
        <time>2026-05-13T08:35:06Z</time>
      </trkpt>
      <trkpt lat="45.91336" lon="5.62196">
        <ele>884.6</ele>
        <time>2026-05-13T08:35:07Z</time>
      </trkpt>
      <trkpt lat="45.91331" lon="5.62204">
        <ele>884.2</ele>
        <time>2026-05-13T08:35:08Z</time>
      </trkpt>
      <trkpt lat="45.91326" lon="5.62213">
        <ele>883.4</ele>
        <time>2026-05-13T08:35:09Z</time>
      </trkpt>
      <trkpt lat="45.9132" lon="5.62221">
        <ele>882.8</ele>
        <time>2026-05-13T08:35:10Z</time>
      </trkpt>
      <trkpt lat="45.91314" lon="5.62231">
        <ele>882.2</ele>
        <time>2026-05-13T08:35:11Z</time>
      </trkpt>
      <trkpt lat="45.91309" lon="5.6224">
        <ele>881.4</ele>
        <time>2026-05-13T08:35:12Z</time>
      </trkpt>
      <trkpt lat="45.91303" lon="5.6225">
        <ele>880.8</ele>
        <time>2026-05-13T08:35:13Z</time>
      </trkpt>
      <trkpt lat="45.91297" lon="5.6226">
        <ele>880.2</ele>
        <time>2026-05-13T08:35:14Z</time>
      </trkpt>
      <trkpt lat="45.91292" lon="5.6227">
        <ele>879.6</ele>
        <time>2026-05-13T08:35:15Z</time>
      </trkpt>
      <trkpt lat="45.91286" lon="5.6228">
        <ele>878.6</ele>
        <time>2026-05-13T08:35:16Z</time>
      </trkpt>
      <trkpt lat="45.9128" lon="5.62291">
        <ele>878.4</ele>
        <time>2026-05-13T08:35:17Z</time>
      </trkpt>
      <trkpt lat="45.91274" lon="5.62301">
        <ele>877.4</ele>
        <time>2026-05-13T08:35:18Z</time>
      </trkpt>
      <trkpt lat="45.91267" lon="5.62311">
        <ele>877</ele>
        <time>2026-05-13T08:35:19Z</time>
      </trkpt>
      <trkpt lat="45.91261" lon="5.62318">
        <ele>876.4</ele>
        <time>2026-05-13T08:35:20Z</time>
      </trkpt>
      <trkpt lat="45.91253" lon="5.62326">
        <ele>876.4</ele>
        <time>2026-05-13T08:35:21Z</time>
      </trkpt>
      <trkpt lat="45.91246" lon="5.62334">
        <ele>876</ele>
        <time>2026-05-13T08:35:22Z</time>
      </trkpt>
      <trkpt lat="45.91239" lon="5.62343">
        <ele>875.4</ele>
        <time>2026-05-13T08:35:23Z</time>
      </trkpt>
      <trkpt lat="45.91233" lon="5.62353">
        <ele>874.6</ele>
        <time>2026-05-13T08:35:24Z</time>
      </trkpt>
      <trkpt lat="45.91228" lon="5.62364">
        <ele>874</ele>
        <time>2026-05-13T08:35:25Z</time>
      </trkpt>
      <trkpt lat="45.91223" lon="5.62375">
        <ele>873.4</ele>
        <time>2026-05-13T08:35:26Z</time>
      </trkpt>
      <trkpt lat="45.9122" lon="5.62387">
        <ele>872.8</ele>
        <time>2026-05-13T08:35:27Z</time>
      </trkpt>
      <trkpt lat="45.91217" lon="5.62397">
        <ele>872.4</ele>
        <time>2026-05-13T08:35:28Z</time>
      </trkpt>
      <trkpt lat="45.91215" lon="5.62409">
        <ele>871.4</ele>
        <time>2026-05-13T08:35:29Z</time>
      </trkpt>
      <trkpt lat="45.91213" lon="5.6242">
        <ele>870.8</ele>
        <time>2026-05-13T08:35:30Z</time>
      </trkpt>
      <trkpt lat="45.91211" lon="5.62431">
        <ele>870.2</ele>
        <time>2026-05-13T08:35:31Z</time>
      </trkpt>
      <trkpt lat="45.91209" lon="5.62442">
        <ele>869.6</ele>
        <time>2026-05-13T08:35:32Z</time>
      </trkpt>
      <trkpt lat="45.91207" lon="5.62453">
        <ele>869.2</ele>
        <time>2026-05-13T08:35:33Z</time>
      </trkpt>
      <trkpt lat="45.91203" lon="5.62465">
        <ele>868.6</ele>
        <time>2026-05-13T08:35:34Z</time>
      </trkpt>
      <trkpt lat="45.91199" lon="5.62476">
        <ele>868</ele>
        <time>2026-05-13T08:35:35Z</time>
      </trkpt>
      <trkpt lat="45.91193" lon="5.62486">
        <ele>867.6</ele>
        <time>2026-05-13T08:35:36Z</time>
      </trkpt>
      <trkpt lat="45.91185" lon="5.62494">
        <ele>866.6</ele>
        <time>2026-05-13T08:35:37Z</time>
      </trkpt>
      <trkpt lat="45.91176" lon="5.625">
        <ele>866</ele>
        <time>2026-05-13T08:35:38Z</time>
      </trkpt>
      <trkpt lat="45.91166" lon="5.62504">
        <ele>865.4</ele>
        <time>2026-05-13T08:35:39Z</time>
      </trkpt>
      <trkpt lat="45.91156" lon="5.62504">
        <ele>864.6</ele>
        <time>2026-05-13T08:35:40Z</time>
      </trkpt>
      <trkpt lat="45.91146" lon="5.62502">
        <ele>863.8</ele>
        <time>2026-05-13T08:35:41Z</time>
      </trkpt>
      <trkpt lat="45.91136" lon="5.625">
        <ele>862.8</ele>
        <time>2026-05-13T08:35:42Z</time>
      </trkpt>
      <trkpt lat="45.91126" lon="5.62502">
        <ele>862</ele>
        <time>2026-05-13T08:35:43Z</time>
      </trkpt>
      <trkpt lat="45.91116" lon="5.62504">
        <ele>861.2</ele>
        <time>2026-05-13T08:35:44Z</time>
      </trkpt>
      <trkpt lat="45.91106" lon="5.62509">
        <ele>860.4</ele>
        <time>2026-05-13T08:35:45Z</time>
      </trkpt>
      <trkpt lat="45.91097" lon="5.62516">
        <ele>859.6</ele>
        <time>2026-05-13T08:35:46Z</time>
      </trkpt>
      <trkpt lat="45.91087" lon="5.62524">
        <ele>858.8</ele>
        <time>2026-05-13T08:35:47Z</time>
      </trkpt>
      <trkpt lat="45.91078" lon="5.62532">
        <ele>858.2</ele>
        <time>2026-05-13T08:35:48Z</time>
      </trkpt>
      <trkpt lat="45.91069" lon="5.62541">
        <ele>857.6</ele>
        <time>2026-05-13T08:35:49Z</time>
      </trkpt>
      <trkpt lat="45.9106" lon="5.62551">
        <ele>856.8</ele>
        <time>2026-05-13T08:35:50Z</time>
      </trkpt>
      <trkpt lat="45.91051" lon="5.62562">
        <ele>855.8</ele>
        <time>2026-05-13T08:35:51Z</time>
      </trkpt>
      <trkpt lat="45.91044" lon="5.62574">
        <ele>855</ele>
        <time>2026-05-13T08:35:52Z</time>
      </trkpt>
      <trkpt lat="45.91036" lon="5.62586">
        <ele>854</ele>
        <time>2026-05-13T08:35:53Z</time>
      </trkpt>
      <trkpt lat="45.91029" lon="5.62596">
        <ele>853.6</ele>
        <time>2026-05-13T08:35:54Z</time>
      </trkpt>
      <trkpt lat="45.91025" lon="5.62606">
        <ele>853</ele>
        <time>2026-05-13T08:35:55Z</time>
      </trkpt>
      <trkpt lat="45.9102" lon="5.62614">
        <ele>852.6</ele>
        <time>2026-05-13T08:35:56Z</time>
      </trkpt>
      <trkpt lat="45.91015" lon="5.62622">
        <ele>852.4</ele>
        <time>2026-05-13T08:35:57Z</time>
      </trkpt>
      <trkpt lat="45.91011" lon="5.6263">
        <ele>852.2</ele>
        <time>2026-05-13T08:35:58Z</time>
      </trkpt>
      <trkpt lat="45.9101" lon="5.62636">
        <ele>851.8</ele>
        <time>2026-05-13T08:35:59Z</time>
      </trkpt>
      <trkpt lat="45.91006" lon="5.62643">
        <ele>851.2</ele>
        <time>2026-05-13T08:36:00Z</time>
      </trkpt>
      <trkpt lat="45.91003" lon="5.62649">
        <ele>850.4</ele>
        <time>2026-05-13T08:36:01Z</time>
      </trkpt>
      <trkpt lat="45.90999" lon="5.6266">
        <ele>849.8</ele>
        <time>2026-05-13T08:36:02Z</time>
      </trkpt>
      <trkpt lat="45.90995" lon="5.62669">
        <ele>849.4</ele>
        <time>2026-05-13T08:36:03Z</time>
      </trkpt>
      <trkpt lat="45.90992" lon="5.62679">
        <ele>849.2</ele>
        <time>2026-05-13T08:36:04Z</time>
      </trkpt>
      <trkpt lat="45.90988" lon="5.6269">
        <ele>848.6</ele>
        <time>2026-05-13T08:36:05Z</time>
      </trkpt>
      <trkpt lat="45.90984" lon="5.627">
        <ele>848</ele>
        <time>2026-05-13T08:36:06Z</time>
      </trkpt>
      <trkpt lat="45.9098" lon="5.62711">
        <ele>847.6</ele>
        <time>2026-05-13T08:36:07Z</time>
      </trkpt>
      <trkpt lat="45.90977" lon="5.62722">
        <ele>847</ele>
        <time>2026-05-13T08:36:08Z</time>
      </trkpt>
      <trkpt lat="45.90973" lon="5.62733">
        <ele>846.6</ele>
        <time>2026-05-13T08:36:09Z</time>
      </trkpt>
      <trkpt lat="45.90969" lon="5.62743">
        <ele>846</ele>
        <time>2026-05-13T08:36:10Z</time>
      </trkpt>
      <trkpt lat="45.90964" lon="5.62753">
        <ele>845.6</ele>
        <time>2026-05-13T08:36:11Z</time>
      </trkpt>
      <trkpt lat="45.90961" lon="5.62764">
        <ele>845</ele>
        <time>2026-05-13T08:36:12Z</time>
      </trkpt>
      <trkpt lat="45.90957" lon="5.62775">
        <ele>844.2</ele>
        <time>2026-05-13T08:36:13Z</time>
      </trkpt>
      <trkpt lat="45.90953" lon="5.62786">
        <ele>843.6</ele>
        <time>2026-05-13T08:36:14Z</time>
      </trkpt>
      <trkpt lat="45.9095" lon="5.62795">
        <ele>843</ele>
        <time>2026-05-13T08:36:15Z</time>
      </trkpt>
      <trkpt lat="45.90946" lon="5.62804">
        <ele>842.8</ele>
        <time>2026-05-13T08:36:16Z</time>
      </trkpt>
      <trkpt lat="45.90943" lon="5.62813">
        <ele>842.4</ele>
        <time>2026-05-13T08:36:17Z</time>
      </trkpt>
      <trkpt lat="45.9094" lon="5.62822">
        <ele>842</ele>
        <time>2026-05-13T08:36:18Z</time>
      </trkpt>
      <trkpt lat="45.90938" lon="5.62831">
        <ele>841.6</ele>
        <time>2026-05-13T08:36:19Z</time>
      </trkpt>
      <trkpt lat="45.90936" lon="5.62841">
        <ele>841.2</ele>
        <time>2026-05-13T08:36:20Z</time>
      </trkpt>
      <trkpt lat="45.90938" lon="5.62849">
        <ele>840.6</ele>
        <time>2026-05-13T08:36:21Z</time>
      </trkpt>
      <trkpt lat="45.90941" lon="5.62858">
        <ele>840.2</ele>
        <time>2026-05-13T08:36:22Z</time>
      </trkpt>
      <trkpt lat="45.90943" lon="5.62865">
        <ele>839.8</ele>
        <time>2026-05-13T08:36:23Z</time>
      </trkpt>
      <trkpt lat="45.90947" lon="5.62872">
        <ele>839.6</ele>
        <time>2026-05-13T08:36:24Z</time>
      </trkpt>
      <trkpt lat="45.9095" lon="5.6288">
        <ele>839.4</ele>
        <time>2026-05-13T08:36:25Z</time>
      </trkpt>
      <trkpt lat="45.90951" lon="5.62886">
        <ele>838.8</ele>
        <time>2026-05-13T08:36:26Z</time>
      </trkpt>
      <trkpt lat="45.90954" lon="5.62894">
        <ele>838.6</ele>
        <time>2026-05-13T08:36:27Z</time>
      </trkpt>
      <trkpt lat="45.90956" lon="5.62902">
        <ele>838</ele>
        <time>2026-05-13T08:36:28Z</time>
      </trkpt>
      <trkpt lat="45.90958" lon="5.6291">
        <ele>837.8</ele>
        <time>2026-05-13T08:36:29Z</time>
      </trkpt>
      <trkpt lat="45.9096" lon="5.62915">
        <ele>837.4</ele>
        <time>2026-05-13T08:36:30Z</time>
      </trkpt>
      <trkpt lat="45.90961" lon="5.62921">
        <ele>837.2</ele>
        <time>2026-05-13T08:36:31Z</time>
      </trkpt>
      <trkpt lat="45.90962" lon="5.62927">
        <ele>836.8</ele>
        <time>2026-05-13T08:36:32Z</time>
      </trkpt>
      <trkpt lat="45.90963" lon="5.62933">
        <ele>836.6</ele>
        <time>2026-05-13T08:36:33Z</time>
      </trkpt>
      <trkpt lat="45.90963" lon="5.62937">
        <ele>836.2</ele>
        <time>2026-05-13T08:36:34Z</time>
      </trkpt>
      <trkpt lat="45.90963" lon="5.62942">
        <ele>836.2</ele>
        <time>2026-05-13T08:36:35Z</time>
      </trkpt>
      <trkpt lat="45.90963" lon="5.62946">
        <ele>835.6</ele>
        <time>2026-05-13T08:36:36Z</time>
      </trkpt>
      <trkpt lat="45.90963" lon="5.6295">
        <ele>835.2</ele>
        <time>2026-05-13T08:36:37Z</time>
      </trkpt>
      <trkpt lat="45.90963" lon="5.62954">
        <ele>834.4</ele>
        <time>2026-05-13T08:36:38Z</time>
      </trkpt>
      <trkpt lat="45.90963" lon="5.62954">
        <ele>833.6</ele>
        <time>2026-05-13T08:36:39Z</time>
      </trkpt>
      <trkpt lat="45.90963" lon="5.62959">
        <ele>833.2</ele>
        <time>2026-05-13T08:36:40Z</time>
      </trkpt>
      <trkpt lat="45.90963" lon="5.62964">
        <ele>832.6</ele>
        <time>2026-05-13T08:36:41Z</time>
      </trkpt>
      <trkpt lat="45.9096" lon="5.62971">
        <ele>832</ele>
        <time>2026-05-13T08:36:42Z</time>
      </trkpt>
      <trkpt lat="45.90958" lon="5.62976">
        <ele>831.4</ele>
        <time>2026-05-13T08:36:43Z</time>
      </trkpt>
      <trkpt lat="45.90956" lon="5.62981">
        <ele>830.4</ele>
        <time>2026-05-13T08:36:44Z</time>
      </trkpt>
      <trkpt lat="45.90954" lon="5.62987">
        <ele>829.6</ele>
        <time>2026-05-13T08:36:45Z</time>
      </trkpt>
      <trkpt lat="45.90951" lon="5.62994">
        <ele>828.8</ele>
        <time>2026-05-13T08:36:46Z</time>
      </trkpt>
      <trkpt lat="45.90947" lon="5.62996">
        <ele>828.8</ele>
        <time>2026-05-13T08:36:47Z</time>
      </trkpt>
      <trkpt lat="45.90944" lon="5.63001">
        <ele>828.4</ele>
        <time>2026-05-13T08:36:48Z</time>
      </trkpt>
      <trkpt lat="45.90942" lon="5.63005">
        <ele>827.8</ele>
        <time>2026-05-13T08:36:49Z</time>
      </trkpt>
      <trkpt lat="45.90942" lon="5.63009">
        <ele>827</ele>
        <time>2026-05-13T08:36:50Z</time>
      </trkpt>
      <trkpt lat="45.90939" lon="5.63013">
        <ele>826</ele>
        <time>2026-05-13T08:36:51Z</time>
      </trkpt>
      <trkpt lat="45.90936" lon="5.63018">
        <ele>825.2</ele>
        <time>2026-05-13T08:36:52Z</time>
      </trkpt>
      <trkpt lat="45.90934" lon="5.63022">
        <ele>824.6</ele>
        <time>2026-05-13T08:36:53Z</time>
      </trkpt>
      <trkpt lat="45.90934" lon="5.63027">
        <ele>824.2</ele>
        <time>2026-05-13T08:36:54Z</time>
      </trkpt>
      <trkpt lat="45.90934" lon="5.63028">
        <ele>823.6</ele>
        <time>2026-05-13T08:36:55Z</time>
      </trkpt>
      <trkpt lat="45.90934" lon="5.63032">
        <ele>823.2</ele>
        <time>2026-05-13T08:36:56Z</time>
      </trkpt>
      <trkpt lat="45.90932" lon="5.63035">
        <ele>823</ele>
        <time>2026-05-13T08:36:57Z</time>
      </trkpt>
      <trkpt lat="45.90931" lon="5.63038">
        <ele>822.6</ele>
        <time>2026-05-13T08:36:58Z</time>
      </trkpt>
      <trkpt lat="45.9093" lon="5.63041">
        <ele>821.8</ele>
        <time>2026-05-13T08:36:59Z</time>
      </trkpt>
      <trkpt lat="45.90928" lon="5.63044">
        <ele>821.4</ele>
        <time>2026-05-13T08:37:00Z</time>
      </trkpt>
      <trkpt lat="45.90926" lon="5.6305">
        <ele>821.4</ele>
        <time>2026-05-13T08:37:01Z</time>
      </trkpt>
      <trkpt lat="45.90924" lon="5.63055">
        <ele>820.8</ele>
        <time>2026-05-13T08:37:02Z</time>
      </trkpt>
      <trkpt lat="45.90922" lon="5.63061">
        <ele>820.2</ele>
        <time>2026-05-13T08:37:03Z</time>
      </trkpt>
      <trkpt lat="45.90921" lon="5.63066">
        <ele>819.4</ele>
        <time>2026-05-13T08:37:04Z</time>
      </trkpt>
      <trkpt lat="45.90919" lon="5.63072">
        <ele>818.2</ele>
        <time>2026-05-13T08:37:05Z</time>
      </trkpt>
      <trkpt lat="45.90918" lon="5.63078">
        <ele>817.2</ele>
        <time>2026-05-13T08:37:06Z</time>
      </trkpt>
      <trkpt lat="45.90916" lon="5.63084">
        <ele>816.4</ele>
        <time>2026-05-13T08:37:07Z</time>
      </trkpt>
      <trkpt lat="45.90914" lon="5.6309">
        <ele>816</ele>
        <time>2026-05-13T08:37:08Z</time>
      </trkpt>
      <trkpt lat="45.90913" lon="5.63097">
        <ele>815.6</ele>
        <time>2026-05-13T08:37:09Z</time>
      </trkpt>
      <trkpt lat="45.90911" lon="5.63102">
        <ele>814.6</ele>
        <time>2026-05-13T08:37:10Z</time>
      </trkpt>
      <trkpt lat="45.90909" lon="5.63107">
        <ele>814</ele>
        <time>2026-05-13T08:37:11Z</time>
      </trkpt>
      <trkpt lat="45.90905" lon="5.63114">
        <ele>813.2</ele>
        <time>2026-05-13T08:37:12Z</time>
      </trkpt>
      <trkpt lat="45.90904" lon="5.6312">
        <ele>812.6</ele>
        <time>2026-05-13T08:37:13Z</time>
      </trkpt>
      <trkpt lat="45.90901" lon="5.63127">
        <ele>812</ele>
        <time>2026-05-13T08:37:14Z</time>
      </trkpt>
      <trkpt lat="45.90899" lon="5.63131">
        <ele>811</ele>
        <time>2026-05-13T08:37:15Z</time>
      </trkpt>
      <trkpt lat="45.90897" lon="5.63134">
        <ele>810.4</ele>
        <time>2026-05-13T08:37:16Z</time>
      </trkpt>
      <trkpt lat="45.90894" lon="5.63138">
        <ele>809.4</ele>
        <time>2026-05-13T08:37:17Z</time>
      </trkpt>
      <trkpt lat="45.90892" lon="5.63139">
        <ele>808.6</ele>
        <time>2026-05-13T08:37:18Z</time>
      </trkpt>
      <trkpt lat="45.90888" lon="5.63142">
        <ele>807.8</ele>
        <time>2026-05-13T08:37:19Z</time>
      </trkpt>
      <trkpt lat="45.90885" lon="5.63146">
        <ele>807</ele>
        <time>2026-05-13T08:37:20Z</time>
      </trkpt>
      <trkpt lat="45.9088" lon="5.63149">
        <ele>807</ele>
        <time>2026-05-13T08:37:21Z</time>
      </trkpt>
      <trkpt lat="45.90876" lon="5.63151">
        <ele>806</ele>
        <time>2026-05-13T08:37:22Z</time>
      </trkpt>
      <trkpt lat="45.90871" lon="5.63155">
        <ele>805.4</ele>
        <time>2026-05-13T08:37:23Z</time>
      </trkpt>
      <trkpt lat="45.90865" lon="5.63159">
        <ele>804.4</ele>
        <time>2026-05-13T08:37:24Z</time>
      </trkpt>
      <trkpt lat="45.9086" lon="5.63161">
        <ele>803.6</ele>
        <time>2026-05-13T08:37:25Z</time>
      </trkpt>
      <trkpt lat="45.90856" lon="5.63166">
        <ele>802.8</ele>
        <time>2026-05-13T08:37:26Z</time>
      </trkpt>
      <trkpt lat="45.90852" lon="5.63167">
        <ele>802</ele>
        <time>2026-05-13T08:37:27Z</time>
      </trkpt>
      <trkpt lat="45.90849" lon="5.6317">
        <ele>801.6</ele>
        <time>2026-05-13T08:37:28Z</time>
      </trkpt>
      <trkpt lat="45.90845" lon="5.63173">
        <ele>800.8</ele>
        <time>2026-05-13T08:37:29Z</time>
      </trkpt>
      <trkpt lat="45.90841" lon="5.63173">
        <ele>799.8</ele>
        <time>2026-05-13T08:37:30Z</time>
      </trkpt>
      <trkpt lat="45.90836" lon="5.63175">
        <ele>798.6</ele>
        <time>2026-05-13T08:37:31Z</time>
      </trkpt>
      <trkpt lat="45.90833" lon="5.63177">
        <ele>797.8</ele>
        <time>2026-05-13T08:37:32Z</time>
      </trkpt>
      <trkpt lat="45.90829" lon="5.63178">
        <ele>797.2</ele>
        <time>2026-05-13T08:37:33Z</time>
      </trkpt>
      <trkpt lat="45.90825" lon="5.6318">
        <ele>796.6</ele>
        <time>2026-05-13T08:37:34Z</time>
      </trkpt>
      <trkpt lat="45.90821" lon="5.63182">
        <ele>796</ele>
        <time>2026-05-13T08:37:35Z</time>
      </trkpt>
      <trkpt lat="45.90817" lon="5.63183">
        <ele>795.6</ele>
        <time>2026-05-13T08:37:36Z</time>
      </trkpt>
      <trkpt lat="45.90814" lon="5.63186">
        <ele>795</ele>
        <time>2026-05-13T08:37:37Z</time>
      </trkpt>
      <trkpt lat="45.90809" lon="5.63189">
        <ele>794.6</ele>
        <time>2026-05-13T08:37:38Z</time>
      </trkpt>
      <trkpt lat="45.90808" lon="5.63192">
        <ele>794</ele>
        <time>2026-05-13T08:37:39Z</time>
      </trkpt>
      <trkpt lat="45.90805" lon="5.63196">
        <ele>793.4</ele>
        <time>2026-05-13T08:37:40Z</time>
      </trkpt>
      <trkpt lat="45.90798" lon="5.63194">
        <ele>792.8</ele>
        <time>2026-05-13T08:37:41Z</time>
      </trkpt>
      <trkpt lat="45.90797" lon="5.63196">
        <ele>792.4</ele>
        <time>2026-05-13T08:37:42Z</time>
      </trkpt>
      <trkpt lat="45.90792" lon="5.632">
        <ele>791.8</ele>
        <time>2026-05-13T08:37:43Z</time>
      </trkpt>
      <trkpt lat="45.90789" lon="5.63204">
        <ele>791.2</ele>
        <time>2026-05-13T08:37:44Z</time>
      </trkpt>
      <trkpt lat="45.90785" lon="5.63204">
        <ele>790.6</ele>
        <time>2026-05-13T08:37:45Z</time>
      </trkpt>
      <trkpt lat="45.90782" lon="5.63207">
        <ele>790.4</ele>
        <time>2026-05-13T08:37:46Z</time>
      </trkpt>
      <trkpt lat="45.9078" lon="5.63211">
        <ele>789.6</ele>
        <time>2026-05-13T08:37:47Z</time>
      </trkpt>
      <trkpt lat="45.90777" lon="5.63213">
        <ele>789</ele>
        <time>2026-05-13T08:37:48Z</time>
      </trkpt>
      <trkpt lat="45.90774" lon="5.63216">
        <ele>788.4</ele>
        <time>2026-05-13T08:37:49Z</time>
      </trkpt>
      <trkpt lat="45.90771" lon="5.63219">
        <ele>787.8</ele>
        <time>2026-05-13T08:37:50Z</time>
      </trkpt>
      <trkpt lat="45.90767" lon="5.63224">
        <ele>787</ele>
        <time>2026-05-13T08:37:51Z</time>
      </trkpt>
      <trkpt lat="45.90763" lon="5.63226">
        <ele>786.6</ele>
        <time>2026-05-13T08:37:52Z</time>
      </trkpt>
      <trkpt lat="45.9076" lon="5.63229">
        <ele>785.8</ele>
        <time>2026-05-13T08:37:53Z</time>
      </trkpt>
      <trkpt lat="45.90756" lon="5.63231">
        <ele>785.2</ele>
        <time>2026-05-13T08:37:54Z</time>
      </trkpt>
      <trkpt lat="45.90753" lon="5.63234">
        <ele>784.8</ele>
        <time>2026-05-13T08:37:55Z</time>
      </trkpt>
      <trkpt lat="45.90749" lon="5.63238">
        <ele>784.2</ele>
        <time>2026-05-13T08:37:56Z</time>
      </trkpt>
      <trkpt lat="45.90745" lon="5.63241">
        <ele>783.6</ele>
        <time>2026-05-13T08:37:57Z</time>
      </trkpt>
      <trkpt lat="45.90742" lon="5.63245">
        <ele>783</ele>
        <time>2026-05-13T08:37:58Z</time>
      </trkpt>
      <trkpt lat="45.90739" lon="5.63249">
        <ele>782</ele>
        <time>2026-05-13T08:37:59Z</time>
      </trkpt>
      <trkpt lat="45.90737" lon="5.63252">
        <ele>781.4</ele>
        <time>2026-05-13T08:38:00Z</time>
      </trkpt>
      <trkpt lat="45.90735" lon="5.63255">
        <ele>780.6</ele>
        <time>2026-05-13T08:38:01Z</time>
      </trkpt>
      <trkpt lat="45.90733" lon="5.63258">
        <ele>780</ele>
        <time>2026-05-13T08:38:02Z</time>
      </trkpt>
      <trkpt lat="45.9073" lon="5.63261">
        <ele>779.2</ele>
        <time>2026-05-13T08:38:03Z</time>
      </trkpt>
      <trkpt lat="45.90728" lon="5.63265">
        <ele>778.4</ele>
        <time>2026-05-13T08:38:04Z</time>
      </trkpt>
      <trkpt lat="45.90727" lon="5.6327">
        <ele>778.2</ele>
        <time>2026-05-13T08:38:05Z</time>
      </trkpt>
      <trkpt lat="45.90727" lon="5.63274">
        <ele>777.4</ele>
        <time>2026-05-13T08:38:06Z</time>
      </trkpt>
      <trkpt lat="45.90728" lon="5.63277">
        <ele>776.8</ele>
        <time>2026-05-13T08:38:07Z</time>
      </trkpt>
      <trkpt lat="45.90729" lon="5.63279">
        <ele>776</ele>
        <time>2026-05-13T08:38:08Z</time>
      </trkpt>
      <trkpt lat="45.90733" lon="5.6328">
        <ele>775.2</ele>
        <time>2026-05-13T08:38:09Z</time>
      </trkpt>
      <trkpt lat="45.90737" lon="5.63282">
        <ele>774.6</ele>
        <time>2026-05-13T08:38:10Z</time>
      </trkpt>
      <trkpt lat="45.90741" lon="5.63282">
        <ele>773.8</ele>
        <time>2026-05-13T08:38:11Z</time>
      </trkpt>
      <trkpt lat="45.90745" lon="5.63283">
        <ele>773.4</ele>
        <time>2026-05-13T08:38:12Z</time>
      </trkpt>
      <trkpt lat="45.90748" lon="5.63283">
        <ele>773.2</ele>
        <time>2026-05-13T08:38:13Z</time>
      </trkpt>
      <trkpt lat="45.9075" lon="5.63283">
        <ele>772.6</ele>
        <time>2026-05-13T08:38:14Z</time>
      </trkpt>
      <trkpt lat="45.90751" lon="5.63283">
        <ele>772.4</ele>
        <time>2026-05-13T08:38:15Z</time>
      </trkpt>
      <trkpt lat="45.90752" lon="5.63284">
        <ele>772.2</ele>
        <time>2026-05-13T08:38:16Z</time>
      </trkpt>
      <trkpt lat="45.90753" lon="5.63283">
        <ele>772.2</ele>
        <time>2026-05-13T08:38:17Z</time>
      </trkpt>
      <trkpt lat="45.90753" lon="5.63283">
        <ele>771.8</ele>
        <time>2026-05-13T08:38:18Z</time>
      </trkpt>
      <trkpt lat="45.90754" lon="5.63283">
        <ele>771.8</ele>
        <time>2026-05-13T08:38:19Z</time>
      </trkpt>
      <trkpt lat="45.90756" lon="5.63284">
        <ele>771</ele>
        <time>2026-05-13T08:38:25Z</time>
      </trkpt>
      <trkpt lat="45.90757" lon="5.63285">
        <ele>771</ele>
        <time>2026-05-13T08:38:26Z</time>
      </trkpt>
      <trkpt lat="45.90757" lon="5.63286">
        <ele>770.6</ele>
        <time>2026-05-13T08:38:27Z</time>
      </trkpt>
      <trkpt lat="45.90759" lon="5.63286">
        <ele>770.4</ele>
        <time>2026-05-13T08:38:28Z</time>
      </trkpt>
      <trkpt lat="45.90761" lon="5.63287">
        <ele>770.4</ele>
        <time>2026-05-13T08:38:29Z</time>
      </trkpt>
      <trkpt lat="45.90764" lon="5.63287">
        <ele>770</ele>
        <time>2026-05-13T08:38:30Z</time>
      </trkpt>
      <trkpt lat="45.90766" lon="5.63287">
        <ele>770</ele>
        <time>2026-05-13T08:38:31Z</time>
      </trkpt>
      <trkpt lat="45.90767" lon="5.63288">
        <ele>769.6</ele>
        <time>2026-05-13T08:38:32Z</time>
      </trkpt>
      <trkpt lat="45.90768" lon="5.63288">
        <ele>769.6</ele>
        <time>2026-05-13T08:38:33Z</time>
      </trkpt>
      <trkpt lat="45.90768" lon="5.63289">
        <ele>769.2</ele>
        <time>2026-05-13T08:38:34Z</time>
      </trkpt>
      <trkpt lat="45.90769" lon="5.63289">
        <ele>769.2</ele>
        <time>2026-05-13T08:38:35Z</time>
      </trkpt>
      <trkpt lat="45.90769" lon="5.63289">
        <ele>768.8</ele>
        <time>2026-05-13T08:40:39Z</time>
      </trkpt>
      <trkpt lat="45.9077" lon="5.63288">
        <ele>768.8</ele>
        <time>2026-05-13T08:40:40Z</time>
      </trkpt>
      <trkpt lat="45.9077" lon="5.63287">
        <ele>768.8</ele>
        <time>2026-05-13T08:40:41Z</time>
      </trkpt>
      <trkpt lat="45.90771" lon="5.63286">
        <ele>768.6</ele>
        <time>2026-05-13T08:40:42Z</time>
      </trkpt>
      <trkpt lat="45.90771" lon="5.63286">
        <ele>768.6</ele>
        <time>2026-05-13T08:40:43Z</time>
      </trkpt>
      <trkpt lat="45.90772" lon="5.63286">
        <ele>768.6</ele>
        <time>2026-05-13T08:40:44Z</time>
      </trkpt>
      <trkpt lat="45.90772" lon="5.63286">
        <ele>768.6</ele>
        <time>2026-05-13T08:40:45Z</time>
      </trkpt>
      <trkpt lat="45.90772" lon="5.63286">
        <ele>768.4</ele>
        <time>2026-05-13T08:40:46Z</time>
      </trkpt>
      <trkpt lat="45.90773" lon="5.63287">
        <ele>768.4</ele>
        <time>2026-05-13T08:40:47Z</time>
      </trkpt>
      <trkpt lat="45.90774" lon="5.63287">
        <ele>768.4</ele>
        <time>2026-05-13T08:40:48Z</time>
      </trkpt>
      <trkpt lat="45.90774" lon="5.63287">
        <ele>768.4</ele>
        <time>2026-05-13T08:40:49Z</time>
      </trkpt>
      <trkpt lat="45.90774" lon="5.63287">
        <ele>768.4</ele>
        <time>2026-05-13T08:40:50Z</time>
      </trkpt>
      <trkpt lat="45.90776" lon="5.63286">
        <ele>768</ele>
        <time>2026-05-13T08:41:12Z</time>
      </trkpt>
      <trkpt lat="45.90778" lon="5.63286">
        <ele>767.8</ele>
        <time>2026-05-13T08:41:13Z</time>
      </trkpt>
      <trkpt lat="45.90781" lon="5.63287">
        <ele>767.8</ele>
        <time>2026-05-13T08:41:14Z</time>
      </trkpt>
      <trkpt lat="45.90784" lon="5.63287">
        <ele>767</ele>
        <time>2026-05-13T08:41:15Z</time>
      </trkpt>
      <trkpt lat="45.90787" lon="5.63288">
        <ele>766.6</ele>
        <time>2026-05-13T08:41:16Z</time>
      </trkpt>
      <trkpt lat="45.9079" lon="5.6329">
        <ele>766.4</ele>
        <time>2026-05-13T08:41:17Z</time>
      </trkpt>
      <trkpt lat="45.90794" lon="5.63292">
        <ele>765.6</ele>
        <time>2026-05-13T08:41:18Z</time>
      </trkpt>
      <trkpt lat="45.90798" lon="5.63294">
        <ele>765</ele>
        <time>2026-05-13T08:41:19Z</time>
      </trkpt>
      <trkpt lat="45.90801" lon="5.63296">
        <ele>764.4</ele>
        <time>2026-05-13T08:41:20Z</time>
      </trkpt>
      <trkpt lat="45.90803" lon="5.63299">
        <ele>763.8</ele>
        <time>2026-05-13T08:41:21Z</time>
      </trkpt>
      <trkpt lat="45.90806" lon="5.63301">
        <ele>763</ele>
        <time>2026-05-13T08:41:22Z</time>
      </trkpt>
      <trkpt lat="45.9081" lon="5.63303">
        <ele>762.4</ele>
        <time>2026-05-13T08:41:23Z</time>
      </trkpt>
      <trkpt lat="45.90813" lon="5.63308">
        <ele>762</ele>
        <time>2026-05-13T08:41:24Z</time>
      </trkpt>
      <trkpt lat="45.90818" lon="5.63311">
        <ele>761.4</ele>
        <time>2026-05-13T08:41:25Z</time>
      </trkpt>
      <trkpt lat="45.90822" lon="5.63313">
        <ele>760.4</ele>
        <time>2026-05-13T08:41:26Z</time>
      </trkpt>
      <trkpt lat="45.90826" lon="5.63315">
        <ele>759.8</ele>
        <time>2026-05-13T08:41:27Z</time>
      </trkpt>
      <trkpt lat="45.9083" lon="5.63318">
        <ele>759.4</ele>
        <time>2026-05-13T08:41:28Z</time>
      </trkpt>
      <trkpt lat="45.90834" lon="5.6332">
        <ele>759.4</ele>
        <time>2026-05-13T08:41:29Z</time>
      </trkpt>
      <trkpt lat="45.90838" lon="5.63322">
        <ele>758.4</ele>
        <time>2026-05-13T08:41:30Z</time>
      </trkpt>
      <trkpt lat="45.90842" lon="5.63325">
        <ele>757.6</ele>
        <time>2026-05-13T08:41:31Z</time>
      </trkpt>
      <trkpt lat="45.90847" lon="5.63326">
        <ele>757</ele>
        <time>2026-05-13T08:41:32Z</time>
      </trkpt>
      <trkpt lat="45.90851" lon="5.6333">
        <ele>756.6</ele>
        <time>2026-05-13T08:41:33Z</time>
      </trkpt>
      <trkpt lat="45.90856" lon="5.63333">
        <ele>756.6</ele>
        <time>2026-05-13T08:41:34Z</time>
      </trkpt>
      <trkpt lat="45.9086" lon="5.63335">
        <ele>755.8</ele>
        <time>2026-05-13T08:41:35Z</time>
      </trkpt>
      <trkpt lat="45.90865" lon="5.63337">
        <ele>754.4</ele>
        <time>2026-05-13T08:41:36Z</time>
      </trkpt>
      <trkpt lat="45.90868" lon="5.63338">
        <ele>753.6</ele>
        <time>2026-05-13T08:41:37Z</time>
      </trkpt>
      <trkpt lat="45.90871" lon="5.63339">
        <ele>752.4</ele>
        <time>2026-05-13T08:41:38Z</time>
      </trkpt>
      <trkpt lat="45.90875" lon="5.63342">
        <ele>751.6</ele>
        <time>2026-05-13T08:41:39Z</time>
      </trkpt>
      <trkpt lat="45.90879" lon="5.63343">
        <ele>751.2</ele>
        <time>2026-05-13T08:41:40Z</time>
      </trkpt>
      <trkpt lat="45.90884" lon="5.63345">
        <ele>751.2</ele>
        <time>2026-05-13T08:41:41Z</time>
      </trkpt>
      <trkpt lat="45.90888" lon="5.63346">
        <ele>750</ele>
        <time>2026-05-13T08:41:42Z</time>
      </trkpt>
      <trkpt lat="45.90893" lon="5.63347">
        <ele>749.2</ele>
        <time>2026-05-13T08:41:43Z</time>
      </trkpt>
      <trkpt lat="45.90898" lon="5.63348">
        <ele>748.4</ele>
        <time>2026-05-13T08:41:44Z</time>
      </trkpt>
      <trkpt lat="45.90902" lon="5.63349">
        <ele>747.6</ele>
        <time>2026-05-13T08:41:45Z</time>
      </trkpt>
      <trkpt lat="45.90907" lon="5.6335">
        <ele>747</ele>
        <time>2026-05-13T08:41:46Z</time>
      </trkpt>
      <trkpt lat="45.90911" lon="5.63351">
        <ele>746.4</ele>
        <time>2026-05-13T08:41:47Z</time>
      </trkpt>
      <trkpt lat="45.90915" lon="5.63352">
        <ele>745.4</ele>
        <time>2026-05-13T08:41:48Z</time>
      </trkpt>
      <trkpt lat="45.90919" lon="5.63354">
        <ele>745</ele>
        <time>2026-05-13T08:41:49Z</time>
      </trkpt>
      <trkpt lat="45.90923" lon="5.63356">
        <ele>744.2</ele>
        <time>2026-05-13T08:41:50Z</time>
      </trkpt>
      <trkpt lat="45.90927" lon="5.63358">
        <ele>743.4</ele>
        <time>2026-05-13T08:41:51Z</time>
      </trkpt>
      <trkpt lat="45.9093" lon="5.63359">
        <ele>742.4</ele>
        <time>2026-05-13T08:41:52Z</time>
      </trkpt>
      <trkpt lat="45.90935" lon="5.63361">
        <ele>741.8</ele>
        <time>2026-05-13T08:41:53Z</time>
      </trkpt>
      <trkpt lat="45.90939" lon="5.63361">
        <ele>741</ele>
        <time>2026-05-13T08:41:54Z</time>
      </trkpt>
      <trkpt lat="45.90943" lon="5.63363">
        <ele>740.2</ele>
        <time>2026-05-13T08:41:55Z</time>
      </trkpt>
      <trkpt lat="45.90947" lon="5.63363">
        <ele>739</ele>
        <time>2026-05-13T08:41:56Z</time>
      </trkpt>
      <trkpt lat="45.90951" lon="5.63365">
        <ele>738.2</ele>
        <time>2026-05-13T08:41:57Z</time>
      </trkpt>
      <trkpt lat="45.90956" lon="5.63368">
        <ele>737.8</ele>
        <time>2026-05-13T08:41:58Z</time>
      </trkpt>
      <trkpt lat="45.9096" lon="5.63369">
        <ele>737.2</ele>
        <time>2026-05-13T08:41:59Z</time>
      </trkpt>
      <trkpt lat="45.90968" lon="5.63372">
        <ele>736.2</ele>
        <time>2026-05-13T08:42:00Z</time>
      </trkpt>
      <trkpt lat="45.90972" lon="5.63374">
        <ele>735.4</ele>
        <time>2026-05-13T08:42:01Z</time>
      </trkpt>
      <trkpt lat="45.90976" lon="5.63377">
        <ele>734.6</ele>
        <time>2026-05-13T08:42:02Z</time>
      </trkpt>
      <trkpt lat="45.9098" lon="5.6338">
        <ele>733.8</ele>
        <time>2026-05-13T08:42:03Z</time>
      </trkpt>
      <trkpt lat="45.90982" lon="5.63382">
        <ele>732.8</ele>
        <time>2026-05-13T08:42:04Z</time>
      </trkpt>
      <trkpt lat="45.90985" lon="5.63385">
        <ele>732.4</ele>
        <time>2026-05-13T08:42:05Z</time>
      </trkpt>
      <trkpt lat="45.90987" lon="5.63389">
        <ele>732.4</ele>
        <time>2026-05-13T08:42:06Z</time>
      </trkpt>
      <trkpt lat="45.90989" lon="5.63394">
        <ele>731.6</ele>
        <time>2026-05-13T08:42:07Z</time>
      </trkpt>
      <trkpt lat="45.90991" lon="5.63398">
        <ele>731</ele>
        <time>2026-05-13T08:42:08Z</time>
      </trkpt>
      <trkpt lat="45.90992" lon="5.63401">
        <ele>730.8</ele>
        <time>2026-05-13T08:42:09Z</time>
      </trkpt>
      <trkpt lat="45.90996" lon="5.63403">
        <ele>730</ele>
        <time>2026-05-13T08:42:10Z</time>
      </trkpt>
      <trkpt lat="45.91001" lon="5.63403">
        <ele>729.2</ele>
        <time>2026-05-13T08:42:11Z</time>
      </trkpt>
      <trkpt lat="45.91005" lon="5.63402">
        <ele>728.8</ele>
        <time>2026-05-13T08:42:12Z</time>
      </trkpt>
      <trkpt lat="45.9101" lon="5.63402">
        <ele>728.2</ele>
        <time>2026-05-13T08:42:13Z</time>
      </trkpt>
      <trkpt lat="45.91014" lon="5.63402">
        <ele>727.6</ele>
        <time>2026-05-13T08:42:14Z</time>
      </trkpt>
      <trkpt lat="45.91019" lon="5.63404">
        <ele>727</ele>
        <time>2026-05-13T08:42:15Z</time>
      </trkpt>
      <trkpt lat="45.91024" lon="5.63407">
        <ele>726.4</ele>
        <time>2026-05-13T08:42:16Z</time>
      </trkpt>
      <trkpt lat="45.91028" lon="5.63409">
        <ele>725.8</ele>
        <time>2026-05-13T08:42:17Z</time>
      </trkpt>
      <trkpt lat="45.91033" lon="5.63412">
        <ele>725</ele>
        <time>2026-05-13T08:42:18Z</time>
      </trkpt>
      <trkpt lat="45.91037" lon="5.63415">
        <ele>724.4</ele>
        <time>2026-05-13T08:42:19Z</time>
      </trkpt>
      <trkpt lat="45.91043" lon="5.63415">
        <ele>723.8</ele>
        <time>2026-05-13T08:42:20Z</time>
      </trkpt>
      <trkpt lat="45.91049" lon="5.63416">
        <ele>723.2</ele>
        <time>2026-05-13T08:42:21Z</time>
      </trkpt>
      <trkpt lat="45.91055" lon="5.63418">
        <ele>722.6</ele>
        <time>2026-05-13T08:42:22Z</time>
      </trkpt>
      <trkpt lat="45.91062" lon="5.6342">
        <ele>721.8</ele>
        <time>2026-05-13T08:42:23Z</time>
      </trkpt>
      <trkpt lat="45.91068" lon="5.63422">
        <ele>721.2</ele>
        <time>2026-05-13T08:42:24Z</time>
      </trkpt>
      <trkpt lat="45.91075" lon="5.63422">
        <ele>720.6</ele>
        <time>2026-05-13T08:42:25Z</time>
      </trkpt>
      <trkpt lat="45.91082" lon="5.63421">
        <ele>720.4</ele>
        <time>2026-05-13T08:42:26Z</time>
      </trkpt>
      <trkpt lat="45.91089" lon="5.6342">
        <ele>720</ele>
        <time>2026-05-13T08:42:27Z</time>
      </trkpt>
      <trkpt lat="45.91095" lon="5.63417">
        <ele>719.4</ele>
        <time>2026-05-13T08:42:28Z</time>
      </trkpt>
      <trkpt lat="45.91101" lon="5.63415">
        <ele>719</ele>
        <time>2026-05-13T08:42:29Z</time>
      </trkpt>
      <trkpt lat="45.91107" lon="5.63412">
        <ele>718.4</ele>
        <time>2026-05-13T08:42:30Z</time>
      </trkpt>
      <trkpt lat="45.91114" lon="5.6341">
        <ele>718</ele>
        <time>2026-05-13T08:42:31Z</time>
      </trkpt>
      <trkpt lat="45.91121" lon="5.63408">
        <ele>717.6</ele>
        <time>2026-05-13T08:42:32Z</time>
      </trkpt>
      <trkpt lat="45.91128" lon="5.63407">
        <ele>717.2</ele>
        <time>2026-05-13T08:42:33Z</time>
      </trkpt>
      <trkpt lat="45.91136" lon="5.63406">
        <ele>716.8</ele>
        <time>2026-05-13T08:42:34Z</time>
      </trkpt>
      <trkpt lat="45.91144" lon="5.63406">
        <ele>716.2</ele>
        <time>2026-05-13T08:42:35Z</time>
      </trkpt>
      <trkpt lat="45.91153" lon="5.63406">
        <ele>715.8</ele>
        <time>2026-05-13T08:42:36Z</time>
      </trkpt>
      <trkpt lat="45.9116" lon="5.63405">
        <ele>715</ele>
        <time>2026-05-13T08:42:37Z</time>
      </trkpt>
      <trkpt lat="45.91168" lon="5.63405">
        <ele>714.8</ele>
        <time>2026-05-13T08:42:38Z</time>
      </trkpt>
      <trkpt lat="45.91174" lon="5.63403">
        <ele>714.4</ele>
        <time>2026-05-13T08:42:39Z</time>
      </trkpt>
      <trkpt lat="45.9118" lon="5.63402">
        <ele>714</ele>
        <time>2026-05-13T08:42:40Z</time>
      </trkpt>
      <trkpt lat="45.91183" lon="5.634">
        <ele>714</ele>
        <time>2026-05-13T08:42:41Z</time>
      </trkpt>
      <trkpt lat="45.91186" lon="5.634">
        <ele>713.8</ele>
        <time>2026-05-13T08:42:42Z</time>
      </trkpt>
      <trkpt lat="45.91188" lon="5.63399">
        <ele>713.8</ele>
        <time>2026-05-13T08:42:43Z</time>
      </trkpt>
      <trkpt lat="45.91189" lon="5.63396">
        <ele>713.8</ele>
        <time>2026-05-13T08:42:44Z</time>
      </trkpt>
      <trkpt lat="45.91187" lon="5.63393">
        <ele>713.6</ele>
        <time>2026-05-13T08:42:45Z</time>
      </trkpt>
      <trkpt lat="45.91187" lon="5.63393">
        <ele>713.6</ele>
        <time>2026-05-13T08:42:46Z</time>
      </trkpt>
      <trkpt lat="45.91187" lon="5.63394">
        <ele>713.6</ele>
        <time>2026-05-13T08:42:47Z</time>
      </trkpt>
      <trkpt lat="45.91187" lon="5.63394">
        <ele>713.6</ele>
        <time>2026-05-13T08:42:48Z</time>
      </trkpt>
      <trkpt lat="45.91187" lon="5.63395">
        <ele>713.6</ele>
        <time>2026-05-13T08:43:10Z</time>
      </trkpt>
      <trkpt lat="45.91187" lon="5.63395">
        <ele>713.6</ele>
        <time>2026-05-13T08:43:11Z</time>
      </trkpt>
      <trkpt lat="45.91186" lon="5.63395">
        <ele>713.6</ele>
        <time>2026-05-13T08:43:14Z</time>
      </trkpt>
      <trkpt lat="45.91186" lon="5.63395">
        <ele>713.6</ele>
        <time>2026-05-13T08:43:15Z</time>
      </trkpt>
      <trkpt lat="45.91185" lon="5.63395">
        <ele>713.6</ele>
        <time>2026-05-13T08:43:16Z</time>
      </trkpt>
      <trkpt lat="45.91186" lon="5.63397">
        <ele>714</ele>
        <time>2026-05-13T08:44:34Z</time>
      </trkpt>
      <trkpt lat="45.91186" lon="5.63397">
        <ele>714</ele>
        <time>2026-05-13T08:44:35Z</time>
      </trkpt>
      <trkpt lat="45.91186" lon="5.63397">
        <ele>714</ele>
        <time>2026-05-13T08:44:36Z</time>
      </trkpt>
      <trkpt lat="45.91186" lon="5.63397">
        <ele>714</ele>
        <time>2026-05-13T08:44:37Z</time>
      </trkpt>
      <trkpt lat="45.91188" lon="5.63397">
        <ele>714</ele>
        <time>2026-05-13T08:45:30Z</time>
      </trkpt>
      <trkpt lat="45.91188" lon="5.63397">
        <ele>714</ele>
        <time>2026-05-13T08:45:31Z</time>
      </trkpt>
      <trkpt lat="45.91192" lon="5.63395">
        <ele>714</ele>
        <time>2026-05-13T08:45:35Z</time>
      </trkpt>
      <trkpt lat="45.91194" lon="5.63395">
        <ele>714</ele>
        <time>2026-05-13T08:45:36Z</time>
      </trkpt>
      <trkpt lat="45.91196" lon="5.63395">
        <ele>713.4</ele>
        <time>2026-05-13T08:45:37Z</time>
      </trkpt>
      <trkpt lat="45.91199" lon="5.63394">
        <ele>713.2</ele>
        <time>2026-05-13T08:45:38Z</time>
      </trkpt>
      <trkpt lat="45.91201" lon="5.63393">
        <ele>713.2</ele>
        <time>2026-05-13T08:45:39Z</time>
      </trkpt>
      <trkpt lat="45.91204" lon="5.63392">
        <ele>713</ele>
        <time>2026-05-13T08:45:40Z</time>
      </trkpt>
      <trkpt lat="45.91208" lon="5.6339">
        <ele>712.8</ele>
        <time>2026-05-13T08:45:41Z</time>
      </trkpt>
      <trkpt lat="45.91211" lon="5.63389">
        <ele>712.8</ele>
        <time>2026-05-13T08:45:42Z</time>
      </trkpt>
      <trkpt lat="45.91214" lon="5.63388">
        <ele>712.4</ele>
        <time>2026-05-13T08:45:43Z</time>
      </trkpt>
      <trkpt lat="45.91218" lon="5.63388">
        <ele>712.2</ele>
        <time>2026-05-13T08:45:44Z</time>
      </trkpt>
      <trkpt lat="45.91222" lon="5.63388">
        <ele>711.8</ele>
        <time>2026-05-13T08:45:45Z</time>
      </trkpt>
      <trkpt lat="45.91225" lon="5.63389">
        <ele>711.4</ele>
        <time>2026-05-13T08:45:46Z</time>
      </trkpt>
      <trkpt lat="45.91229" lon="5.63394">
        <ele>710.6</ele>
        <time>2026-05-13T08:45:47Z</time>
      </trkpt>
      <trkpt lat="45.91233" lon="5.63397">
        <ele>710.2</ele>
        <time>2026-05-13T08:45:48Z</time>
      </trkpt>
      <trkpt lat="45.91237" lon="5.63399">
        <ele>709.8</ele>
        <time>2026-05-13T08:45:49Z</time>
      </trkpt>
      <trkpt lat="45.91241" lon="5.63404">
        <ele>709.6</ele>
        <time>2026-05-13T08:45:50Z</time>
      </trkpt>
      <trkpt lat="45.91245" lon="5.63409">
        <ele>709</ele>
        <time>2026-05-13T08:45:51Z</time>
      </trkpt>
      <trkpt lat="45.91249" lon="5.63415">
        <ele>708.6</ele>
        <time>2026-05-13T08:45:52Z</time>
      </trkpt>
      <trkpt lat="45.91253" lon="5.63419">
        <ele>708.2</ele>
        <time>2026-05-13T08:45:53Z</time>
      </trkpt>
      <trkpt lat="45.91257" lon="5.63425">
        <ele>707.8</ele>
        <time>2026-05-13T08:45:54Z</time>
      </trkpt>
      <trkpt lat="45.9126" lon="5.63428">
        <ele>707.8</ele>
        <time>2026-05-13T08:45:55Z</time>
      </trkpt>
      <trkpt lat="45.91262" lon="5.63435">
        <ele>707</ele>
        <time>2026-05-13T08:45:56Z</time>
      </trkpt>
      <trkpt lat="45.91265" lon="5.63441">
        <ele>706.4</ele>
        <time>2026-05-13T08:45:57Z</time>
      </trkpt>
      <trkpt lat="45.91268" lon="5.63446">
        <ele>706</ele>
        <time>2026-05-13T08:45:58Z</time>
      </trkpt>
      <trkpt lat="45.9127" lon="5.63453">
        <ele>705.8</ele>
        <time>2026-05-13T08:45:59Z</time>
      </trkpt>
      <trkpt lat="45.91273" lon="5.63458">
        <ele>705.4</ele>
        <time>2026-05-13T08:46:00Z</time>
      </trkpt>
      <trkpt lat="45.91276" lon="5.63464">
        <ele>705.2</ele>
        <time>2026-05-13T08:46:01Z</time>
      </trkpt>
      <trkpt lat="45.91278" lon="5.6347">
        <ele>704.8</ele>
        <time>2026-05-13T08:46:02Z</time>
      </trkpt>
      <trkpt lat="45.91279" lon="5.63475">
        <ele>704.4</ele>
        <time>2026-05-13T08:46:03Z</time>
      </trkpt>
      <trkpt lat="45.91281" lon="5.63479">
        <ele>704</ele>
        <time>2026-05-13T08:46:04Z</time>
      </trkpt>
      <trkpt lat="45.91282" lon="5.63483">
        <ele>704</ele>
        <time>2026-05-13T08:46:05Z</time>
      </trkpt>
      <trkpt lat="45.91284" lon="5.63488">
        <ele>703.8</ele>
        <time>2026-05-13T08:46:06Z</time>
      </trkpt>
      <trkpt lat="45.91287" lon="5.63491">
        <ele>703.8</ele>
        <time>2026-05-13T08:46:07Z</time>
      </trkpt>
      <trkpt lat="45.9129" lon="5.63493">
        <ele>703.6</ele>
        <time>2026-05-13T08:46:08Z</time>
      </trkpt>
      <trkpt lat="45.91293" lon="5.63496">
        <ele>703.2</ele>
        <time>2026-05-13T08:46:09Z</time>
      </trkpt>
      <trkpt lat="45.91297" lon="5.63498">
        <ele>703</ele>
        <time>2026-05-13T08:46:10Z</time>
      </trkpt>
      <trkpt lat="45.913" lon="5.635">
        <ele>703</ele>
        <time>2026-05-13T08:46:11Z</time>
      </trkpt>
      <trkpt lat="45.91304" lon="5.63503">
        <ele>702.6</ele>
        <time>2026-05-13T08:46:12Z</time>
      </trkpt>
      <trkpt lat="45.91309" lon="5.63505">
        <ele>702</ele>
        <time>2026-05-13T08:46:13Z</time>
      </trkpt>
      <trkpt lat="45.91314" lon="5.63508">
        <ele>701.4</ele>
        <time>2026-05-13T08:46:14Z</time>
      </trkpt>
      <trkpt lat="45.9132" lon="5.63511">
        <ele>701</ele>
        <time>2026-05-13T08:46:15Z</time>
      </trkpt>
      <trkpt lat="45.91326" lon="5.63513">
        <ele>700.6</ele>
        <time>2026-05-13T08:46:16Z</time>
      </trkpt>
      <trkpt lat="45.91332" lon="5.63515">
        <ele>699.8</ele>
        <time>2026-05-13T08:46:17Z</time>
      </trkpt>
      <trkpt lat="45.91339" lon="5.63518">
        <ele>699.4</ele>
        <time>2026-05-13T08:46:18Z</time>
      </trkpt>
      <trkpt lat="45.91346" lon="5.63521">
        <ele>698.8</ele>
        <time>2026-05-13T08:46:19Z</time>
      </trkpt>
      <trkpt lat="45.91351" lon="5.63525">
        <ele>698.4</ele>
        <time>2026-05-13T08:46:20Z</time>
      </trkpt>
      <trkpt lat="45.91357" lon="5.6353">
        <ele>698</ele>
        <time>2026-05-13T08:46:21Z</time>
      </trkpt>
      <trkpt lat="45.91364" lon="5.63534">
        <ele>697.6</ele>
        <time>2026-05-13T08:46:22Z</time>
      </trkpt>
      <trkpt lat="45.91371" lon="5.63539">
        <ele>696.8</ele>
        <time>2026-05-13T08:46:23Z</time>
      </trkpt>
      <trkpt lat="45.91378" lon="5.63543">
        <ele>696.4</ele>
        <time>2026-05-13T08:46:24Z</time>
      </trkpt>
      <trkpt lat="45.91385" lon="5.63549">
        <ele>695.8</ele>
        <time>2026-05-13T08:46:25Z</time>
      </trkpt>
      <trkpt lat="45.91393" lon="5.63553">
        <ele>695.4</ele>
        <time>2026-05-13T08:46:26Z</time>
      </trkpt>
      <trkpt lat="45.91398" lon="5.63555">
        <ele>695</ele>
        <time>2026-05-13T08:46:27Z</time>
      </trkpt>
      <trkpt lat="45.91404" lon="5.63559">
        <ele>694.8</ele>
        <time>2026-05-13T08:46:28Z</time>
      </trkpt>
      <trkpt lat="45.9141" lon="5.63563">
        <ele>694.4</ele>
        <time>2026-05-13T08:46:29Z</time>
      </trkpt>
      <trkpt lat="45.91416" lon="5.63566">
        <ele>694.2</ele>
        <time>2026-05-13T08:46:30Z</time>
      </trkpt>
      <trkpt lat="45.91423" lon="5.63569">
        <ele>694</ele>
        <time>2026-05-13T08:46:31Z</time>
      </trkpt>
      <trkpt lat="45.9143" lon="5.63572">
        <ele>694</ele>
        <time>2026-05-13T08:46:32Z</time>
      </trkpt>
      <trkpt lat="45.91437" lon="5.63572">
        <ele>693.6</ele>
        <time>2026-05-13T08:46:33Z</time>
      </trkpt>
      <trkpt lat="45.91444" lon="5.63574">
        <ele>693.6</ele>
        <time>2026-05-13T08:46:34Z</time>
      </trkpt>
      <trkpt lat="45.9145" lon="5.63576">
        <ele>693.6</ele>
        <time>2026-05-13T08:46:35Z</time>
      </trkpt>
      <trkpt lat="45.91457" lon="5.63578">
        <ele>693.4</ele>
        <time>2026-05-13T08:46:36Z</time>
      </trkpt>
      <trkpt lat="45.91463" lon="5.63579">
        <ele>693.4</ele>
        <time>2026-05-13T08:46:37Z</time>
      </trkpt>
      <trkpt lat="45.91469" lon="5.6358">
        <ele>693.4</ele>
        <time>2026-05-13T08:46:38Z</time>
      </trkpt>
      <trkpt lat="45.91475" lon="5.63583">
        <ele>693.4</ele>
        <time>2026-05-13T08:46:39Z</time>
      </trkpt>
      <trkpt lat="45.91481" lon="5.63583">
        <ele>693.4</ele>
        <time>2026-05-13T08:46:40Z</time>
      </trkpt>
      <trkpt lat="45.91486" lon="5.63585">
        <ele>693.6</ele>
        <time>2026-05-13T08:46:41Z</time>
      </trkpt>
      <trkpt lat="45.91486" lon="5.63585">
        <ele>694</ele>
        <time>2026-05-13T08:46:42Z</time>
      </trkpt>
      <trkpt lat="45.91492" lon="5.63586">
        <ele>694</ele>
        <time>2026-05-13T08:46:43Z</time>
      </trkpt>
      <trkpt lat="45.91497" lon="5.63588">
        <ele>694.2</ele>
        <time>2026-05-13T08:46:44Z</time>
      </trkpt>
      <trkpt lat="45.91503" lon="5.63589">
        <ele>694.4</ele>
        <time>2026-05-13T08:46:45Z</time>
      </trkpt>
      <trkpt lat="45.91508" lon="5.63589">
        <ele>694.4</ele>
        <time>2026-05-13T08:46:46Z</time>
      </trkpt>
      <trkpt lat="45.91513" lon="5.6359">
        <ele>694.6</ele>
        <time>2026-05-13T08:46:47Z</time>
      </trkpt>
      <trkpt lat="45.91518" lon="5.63591">
        <ele>694.6</ele>
        <time>2026-05-13T08:46:48Z</time>
      </trkpt>
      <trkpt lat="45.91523" lon="5.6359">
        <ele>694.6</ele>
        <time>2026-05-13T08:46:49Z</time>
      </trkpt>
      <trkpt lat="45.91528" lon="5.6359">
        <ele>695</ele>
        <time>2026-05-13T08:46:50Z</time>
      </trkpt>
      <trkpt lat="45.91531" lon="5.6359">
        <ele>694.8</ele>
        <time>2026-05-13T08:46:51Z</time>
      </trkpt>
      <trkpt lat="45.91537" lon="5.63591">
        <ele>694.8</ele>
        <time>2026-05-13T08:46:52Z</time>
      </trkpt>
      <trkpt lat="45.91542" lon="5.63591">
        <ele>694.4</ele>
        <time>2026-05-13T08:46:53Z</time>
      </trkpt>
      <trkpt lat="45.91548" lon="5.63591">
        <ele>694.2</ele>
        <time>2026-05-13T08:46:54Z</time>
      </trkpt>
      <trkpt lat="45.91554" lon="5.63591">
        <ele>693.8</ele>
        <time>2026-05-13T08:46:55Z</time>
      </trkpt>
      <trkpt lat="45.91559" lon="5.6359">
        <ele>693.6</ele>
        <time>2026-05-13T08:46:56Z</time>
      </trkpt>
      <trkpt lat="45.91565" lon="5.6359">
        <ele>693.2</ele>
        <time>2026-05-13T08:46:57Z</time>
      </trkpt>
      <trkpt lat="45.91571" lon="5.63591">
        <ele>693.2</ele>
        <time>2026-05-13T08:46:58Z</time>
      </trkpt>
      <trkpt lat="45.91579" lon="5.63591">
        <ele>692.8</ele>
        <time>2026-05-13T08:46:59Z</time>
      </trkpt>
      <trkpt lat="45.91585" lon="5.63591">
        <ele>692.6</ele>
        <time>2026-05-13T08:47:00Z</time>
      </trkpt>
      <trkpt lat="45.91592" lon="5.6359">
        <ele>692.4</ele>
        <time>2026-05-13T08:47:01Z</time>
      </trkpt>
      <trkpt lat="45.91599" lon="5.6359">
        <ele>692.4</ele>
        <time>2026-05-13T08:47:02Z</time>
      </trkpt>
      <trkpt lat="45.91606" lon="5.63589">
        <ele>692</ele>
        <time>2026-05-13T08:47:03Z</time>
      </trkpt>
      <trkpt lat="45.91612" lon="5.63589">
        <ele>691.6</ele>
        <time>2026-05-13T08:47:04Z</time>
      </trkpt>
      <trkpt lat="45.91619" lon="5.63588">
        <ele>691.6</ele>
        <time>2026-05-13T08:47:05Z</time>
      </trkpt>
      <trkpt lat="45.91626" lon="5.63587">
        <ele>691.4</ele>
        <time>2026-05-13T08:47:06Z</time>
      </trkpt>
      <trkpt lat="45.91633" lon="5.63587">
        <ele>691.4</ele>
        <time>2026-05-13T08:47:07Z</time>
      </trkpt>
      <trkpt lat="45.9164" lon="5.63585">
        <ele>691</ele>
        <time>2026-05-13T08:47:08Z</time>
      </trkpt>
      <trkpt lat="45.91647" lon="5.63585">
        <ele>690.6</ele>
        <time>2026-05-13T08:47:09Z</time>
      </trkpt>
      <trkpt lat="45.91655" lon="5.63584">
        <ele>690.4</ele>
        <time>2026-05-13T08:47:10Z</time>
      </trkpt>
      <trkpt lat="45.91663" lon="5.63582">
        <ele>690</ele>
        <time>2026-05-13T08:47:11Z</time>
      </trkpt>
      <trkpt lat="45.91671" lon="5.63581">
        <ele>690</ele>
        <time>2026-05-13T08:47:12Z</time>
      </trkpt>
      <trkpt lat="45.91678" lon="5.63585">
        <ele>689.4</ele>
        <time>2026-05-13T08:47:13Z</time>
      </trkpt>
      <trkpt lat="45.91685" lon="5.63589">
        <ele>689.4</ele>
        <time>2026-05-13T08:47:14Z</time>
      </trkpt>
      <trkpt lat="45.91692" lon="5.63593">
        <ele>689.4</ele>
        <time>2026-05-13T08:47:15Z</time>
      </trkpt>
      <trkpt lat="45.91699" lon="5.63599">
        <ele>689.4</ele>
        <time>2026-05-13T08:47:16Z</time>
      </trkpt>
      <trkpt lat="45.91706" lon="5.63604">
        <ele>689.4</ele>
        <time>2026-05-13T08:47:17Z</time>
      </trkpt>
      <trkpt lat="45.91712" lon="5.63607">
        <ele>689.6</ele>
        <time>2026-05-13T08:47:18Z</time>
      </trkpt>
      <trkpt lat="45.91718" lon="5.63611">
        <ele>689.6</ele>
        <time>2026-05-13T08:47:19Z</time>
      </trkpt>
      <trkpt lat="45.91725" lon="5.63614">
        <ele>689.6</ele>
        <time>2026-05-13T08:47:20Z</time>
      </trkpt>
      <trkpt lat="45.9173" lon="5.63618">
        <ele>689.6</ele>
        <time>2026-05-13T08:47:21Z</time>
      </trkpt>
      <trkpt lat="45.91737" lon="5.63621">
        <ele>689.6</ele>
        <time>2026-05-13T08:47:22Z</time>
      </trkpt>
      <trkpt lat="45.91743" lon="5.63623">
        <ele>689.6</ele>
        <time>2026-05-13T08:47:23Z</time>
      </trkpt>
      <trkpt lat="45.91749" lon="5.63626">
        <ele>689.4</ele>
        <time>2026-05-13T08:47:24Z</time>
      </trkpt>
      <trkpt lat="45.91755" lon="5.63628">
        <ele>689.4</ele>
        <time>2026-05-13T08:47:25Z</time>
      </trkpt>
      <trkpt lat="45.91761" lon="5.6363">
        <ele>689.4</ele>
        <time>2026-05-13T08:47:26Z</time>
      </trkpt>
      <trkpt lat="45.91768" lon="5.63634">
        <ele>689.2</ele>
        <time>2026-05-13T08:47:27Z</time>
      </trkpt>
      <trkpt lat="45.91774" lon="5.63636">
        <ele>689.2</ele>
        <time>2026-05-13T08:47:28Z</time>
      </trkpt>
      <trkpt lat="45.91781" lon="5.63638">
        <ele>689.2</ele>
        <time>2026-05-13T08:47:29Z</time>
      </trkpt>
      <trkpt lat="45.91788" lon="5.6364">
        <ele>689.2</ele>
        <time>2026-05-13T08:47:30Z</time>
      </trkpt>
      <trkpt lat="45.91794" lon="5.63643">
        <ele>688.6</ele>
        <time>2026-05-13T08:47:31Z</time>
      </trkpt>
      <trkpt lat="45.91801" lon="5.63645">
        <ele>688.4</ele>
        <time>2026-05-13T08:47:32Z</time>
      </trkpt>
      <trkpt lat="45.91809" lon="5.63648">
        <ele>688</ele>
        <time>2026-05-13T08:47:33Z</time>
      </trkpt>
      <trkpt lat="45.91816" lon="5.6365">
        <ele>687.4</ele>
        <time>2026-05-13T08:47:34Z</time>
      </trkpt>
      <trkpt lat="45.91823" lon="5.63654">
        <ele>686.6</ele>
        <time>2026-05-13T08:47:35Z</time>
      </trkpt>
      <trkpt lat="45.9183" lon="5.63655">
        <ele>686.2</ele>
        <time>2026-05-13T08:47:36Z</time>
      </trkpt>
      <trkpt lat="45.91837" lon="5.63656">
        <ele>685.8</ele>
        <time>2026-05-13T08:47:37Z</time>
      </trkpt>
      <trkpt lat="45.91845" lon="5.63661">
        <ele>685.2</ele>
        <time>2026-05-13T08:47:38Z</time>
      </trkpt>
      <trkpt lat="45.91854" lon="5.63665">
        <ele>684.8</ele>
        <time>2026-05-13T08:47:39Z</time>
      </trkpt>
      <trkpt lat="45.91864" lon="5.63669">
        <ele>683.8</ele>
        <time>2026-05-13T08:47:40Z</time>
      </trkpt>
      <trkpt lat="45.91872" lon="5.63671">
        <ele>683.4</ele>
        <time>2026-05-13T08:47:41Z</time>
      </trkpt>
      <trkpt lat="45.9188" lon="5.63673">
        <ele>683</ele>
        <time>2026-05-13T08:47:42Z</time>
      </trkpt>
      <trkpt lat="45.91889" lon="5.63677">
        <ele>682.2</ele>
        <time>2026-05-13T08:47:43Z</time>
      </trkpt>
      <trkpt lat="45.91898" lon="5.63677">
        <ele>681.6</ele>
        <time>2026-05-13T08:47:44Z</time>
      </trkpt>
      <trkpt lat="45.91908" lon="5.63679">
        <ele>681</ele>
        <time>2026-05-13T08:47:45Z</time>
      </trkpt>
      <trkpt lat="45.91918" lon="5.6368">
        <ele>680.4</ele>
        <time>2026-05-13T08:47:46Z</time>
      </trkpt>
      <trkpt lat="45.91928" lon="5.63682">
        <ele>680.4</ele>
        <time>2026-05-13T08:47:47Z</time>
      </trkpt>
      <trkpt lat="45.91938" lon="5.63686">
        <ele>680.4</ele>
        <time>2026-05-13T08:47:48Z</time>
      </trkpt>
      <trkpt lat="45.91949" lon="5.63689">
        <ele>679.8</ele>
        <time>2026-05-13T08:47:49Z</time>
      </trkpt>
      <trkpt lat="45.91958" lon="5.63691">
        <ele>679</ele>
        <time>2026-05-13T08:47:50Z</time>
      </trkpt>
      <trkpt lat="45.91967" lon="5.63695">
        <ele>678.2</ele>
        <time>2026-05-13T08:47:51Z</time>
      </trkpt>
      <trkpt lat="45.91977" lon="5.63698">
        <ele>677.2</ele>
        <time>2026-05-13T08:47:52Z</time>
      </trkpt>
      <trkpt lat="45.91986" lon="5.63702">
        <ele>676.6</ele>
        <time>2026-05-13T08:47:53Z</time>
      </trkpt>
      <trkpt lat="45.91996" lon="5.63705">
        <ele>675.8</ele>
        <time>2026-05-13T08:47:54Z</time>
      </trkpt>
      <trkpt lat="45.92006" lon="5.63709">
        <ele>675.8</ele>
        <time>2026-05-13T08:47:55Z</time>
      </trkpt>
      <trkpt lat="45.92015" lon="5.63714">
        <ele>675.8</ele>
        <time>2026-05-13T08:47:56Z</time>
      </trkpt>
      <trkpt lat="45.92024" lon="5.63719">
        <ele>675.8</ele>
        <time>2026-05-13T08:47:57Z</time>
      </trkpt>
      <trkpt lat="45.92033" lon="5.63723">
        <ele>675.6</ele>
        <time>2026-05-13T08:47:58Z</time>
      </trkpt>
      <trkpt lat="45.92041" lon="5.63728">
        <ele>675.8</ele>
        <time>2026-05-13T08:47:59Z</time>
      </trkpt>
      <trkpt lat="45.92049" lon="5.63731">
        <ele>675.8</ele>
        <time>2026-05-13T08:48:00Z</time>
      </trkpt>
      <trkpt lat="45.92065" lon="5.63738">
        <ele>676.4</ele>
        <time>2026-05-13T08:48:01Z</time>
      </trkpt>
      <trkpt lat="45.92073" lon="5.63741">
        <ele>676.8</ele>
        <time>2026-05-13T08:48:02Z</time>
      </trkpt>
      <trkpt lat="45.9208" lon="5.63744">
        <ele>676.8</ele>
        <time>2026-05-13T08:48:03Z</time>
      </trkpt>
      <trkpt lat="45.92089" lon="5.63746">
        <ele>677.2</ele>
        <time>2026-05-13T08:48:04Z</time>
      </trkpt>
      <trkpt lat="45.92096" lon="5.63749">
        <ele>677.2</ele>
        <time>2026-05-13T08:48:05Z</time>
      </trkpt>
      <trkpt lat="45.92103" lon="5.63751">
        <ele>677.2</ele>
        <time>2026-05-13T08:48:06Z</time>
      </trkpt>
      <trkpt lat="45.9211" lon="5.63755">
        <ele>677.2</ele>
        <time>2026-05-13T08:48:07Z</time>
      </trkpt>
      <trkpt lat="45.92117" lon="5.63758">
        <ele>677.2</ele>
        <time>2026-05-13T08:48:08Z</time>
      </trkpt>
      <trkpt lat="45.92123" lon="5.6376">
        <ele>677.2</ele>
        <time>2026-05-13T08:48:09Z</time>
      </trkpt>
      <trkpt lat="45.9213" lon="5.63762">
        <ele>677.4</ele>
        <time>2026-05-13T08:48:10Z</time>
      </trkpt>
      <trkpt lat="45.92137" lon="5.63764">
        <ele>677.4</ele>
        <time>2026-05-13T08:48:11Z</time>
      </trkpt>
      <trkpt lat="45.92143" lon="5.63766">
        <ele>677.8</ele>
        <time>2026-05-13T08:48:12Z</time>
      </trkpt>
      <trkpt lat="45.92149" lon="5.63769">
        <ele>677.8</ele>
        <time>2026-05-13T08:48:13Z</time>
      </trkpt>
      <trkpt lat="45.92155" lon="5.63771">
        <ele>678.2</ele>
        <time>2026-05-13T08:48:14Z</time>
      </trkpt>
      <trkpt lat="45.9216" lon="5.63772">
        <ele>678.2</ele>
        <time>2026-05-13T08:48:15Z</time>
      </trkpt>
      <trkpt lat="45.92166" lon="5.63774">
        <ele>678.4</ele>
        <time>2026-05-13T08:48:16Z</time>
      </trkpt>
      <trkpt lat="45.92172" lon="5.63776">
        <ele>678.4</ele>
        <time>2026-05-13T08:48:17Z</time>
      </trkpt>
      <trkpt lat="45.92178" lon="5.63778">
        <ele>678.4</ele>
        <time>2026-05-13T08:48:18Z</time>
      </trkpt>
      <trkpt lat="45.92183" lon="5.6378">
        <ele>678.6</ele>
        <time>2026-05-13T08:48:19Z</time>
      </trkpt>
      <trkpt lat="45.92188" lon="5.63782">
        <ele>678.8</ele>
        <time>2026-05-13T08:48:20Z</time>
      </trkpt>
      <trkpt lat="45.92193" lon="5.63783">
        <ele>679</ele>
        <time>2026-05-13T08:48:21Z</time>
      </trkpt>
      <trkpt lat="45.92198" lon="5.63785">
        <ele>679</ele>
        <time>2026-05-13T08:48:22Z</time>
      </trkpt>
      <trkpt lat="45.92203" lon="5.63786">
        <ele>679.4</ele>
        <time>2026-05-13T08:48:23Z</time>
      </trkpt>
      <trkpt lat="45.92208" lon="5.63788">
        <ele>679.6</ele>
        <time>2026-05-13T08:48:24Z</time>
      </trkpt>
      <trkpt lat="45.92213" lon="5.63789">
        <ele>679.6</ele>
        <time>2026-05-13T08:48:25Z</time>
      </trkpt>
      <trkpt lat="45.92217" lon="5.63791">
        <ele>679.6</ele>
        <time>2026-05-13T08:48:26Z</time>
      </trkpt>
      <trkpt lat="45.92222" lon="5.63792">
        <ele>679.8</ele>
        <time>2026-05-13T08:48:27Z</time>
      </trkpt>
      <trkpt lat="45.92227" lon="5.63794">
        <ele>679.8</ele>
        <time>2026-05-13T08:48:28Z</time>
      </trkpt>
      <trkpt lat="45.92233" lon="5.63795">
        <ele>679.8</ele>
        <time>2026-05-13T08:48:29Z</time>
      </trkpt>
      <trkpt lat="45.92238" lon="5.63796">
        <ele>679.8</ele>
        <time>2026-05-13T08:48:30Z</time>
      </trkpt>
      <trkpt lat="45.92244" lon="5.63798">
        <ele>679.8</ele>
        <time>2026-05-13T08:48:31Z</time>
      </trkpt>
      <trkpt lat="45.9225" lon="5.63799">
        <ele>679.8</ele>
        <time>2026-05-13T08:48:32Z</time>
      </trkpt>
      <trkpt lat="45.92257" lon="5.63801">
        <ele>679.8</ele>
        <time>2026-05-13T08:48:33Z</time>
      </trkpt>
      <trkpt lat="45.92263" lon="5.63802">
        <ele>679.6</ele>
        <time>2026-05-13T08:48:34Z</time>
      </trkpt>
      <trkpt lat="45.92269" lon="5.63804">
        <ele>679.2</ele>
        <time>2026-05-13T08:48:35Z</time>
      </trkpt>
      <trkpt lat="45.92275" lon="5.63806">
        <ele>678.8</ele>
        <time>2026-05-13T08:48:36Z</time>
      </trkpt>
      <trkpt lat="45.92281" lon="5.63808">
        <ele>678.6</ele>
        <time>2026-05-13T08:48:37Z</time>
      </trkpt>
      <trkpt lat="45.92287" lon="5.63811">
        <ele>678.6</ele>
        <time>2026-05-13T08:48:38Z</time>
      </trkpt>
      <trkpt lat="45.92292" lon="5.63814">
        <ele>678.6</ele>
        <time>2026-05-13T08:48:39Z</time>
      </trkpt>
      <trkpt lat="45.92299" lon="5.63817">
        <ele>678.6</ele>
        <time>2026-05-13T08:48:40Z</time>
      </trkpt>
      <trkpt lat="45.92305" lon="5.6382">
        <ele>678.6</ele>
        <time>2026-05-13T08:48:41Z</time>
      </trkpt>
      <trkpt lat="45.9231" lon="5.63824">
        <ele>678.6</ele>
        <time>2026-05-13T08:48:42Z</time>
      </trkpt>
      <trkpt lat="45.92317" lon="5.63828">
        <ele>678.6</ele>
        <time>2026-05-13T08:48:43Z</time>
      </trkpt>
      <trkpt lat="45.92322" lon="5.63831">
        <ele>678.6</ele>
        <time>2026-05-13T08:48:44Z</time>
      </trkpt>
      <trkpt lat="45.92327" lon="5.63834">
        <ele>678.8</ele>
        <time>2026-05-13T08:48:45Z</time>
      </trkpt>
      <trkpt lat="45.92332" lon="5.63836">
        <ele>678.8</ele>
        <time>2026-05-13T08:48:46Z</time>
      </trkpt>
      <trkpt lat="45.92337" lon="5.63839">
        <ele>679.2</ele>
        <time>2026-05-13T08:48:47Z</time>
      </trkpt>
      <trkpt lat="45.92342" lon="5.63843">
        <ele>679.2</ele>
        <time>2026-05-13T08:48:48Z</time>
      </trkpt>
      <trkpt lat="45.92346" lon="5.63846">
        <ele>679.6</ele>
        <time>2026-05-13T08:48:49Z</time>
      </trkpt>
      <trkpt lat="45.9235" lon="5.63847">
        <ele>679.6</ele>
        <time>2026-05-13T08:48:50Z</time>
      </trkpt>
      <trkpt lat="45.92354" lon="5.63849">
        <ele>679.6</ele>
        <time>2026-05-13T08:48:51Z</time>
      </trkpt>
      <trkpt lat="45.92359" lon="5.63851">
        <ele>679.8</ele>
        <time>2026-05-13T08:48:52Z</time>
      </trkpt>
      <trkpt lat="45.92362" lon="5.63852">
        <ele>680</ele>
        <time>2026-05-13T08:48:53Z</time>
      </trkpt>
      <trkpt lat="45.92366" lon="5.63854">
        <ele>680.4</ele>
        <time>2026-05-13T08:48:54Z</time>
      </trkpt>
      <trkpt lat="45.9237" lon="5.63856">
        <ele>680.6</ele>
        <time>2026-05-13T08:48:55Z</time>
      </trkpt>
      <trkpt lat="45.92374" lon="5.63858">
        <ele>680.6</ele>
        <time>2026-05-13T08:48:56Z</time>
      </trkpt>
      <trkpt lat="45.92378" lon="5.6386">
        <ele>681</ele>
        <time>2026-05-13T08:48:57Z</time>
      </trkpt>
      <trkpt lat="45.92381" lon="5.63862">
        <ele>681.2</ele>
        <time>2026-05-13T08:48:58Z</time>
      </trkpt>
      <trkpt lat="45.92385" lon="5.63864">
        <ele>681.6</ele>
        <time>2026-05-13T08:48:59Z</time>
      </trkpt>
      <trkpt lat="45.92389" lon="5.63865">
        <ele>681.8</ele>
        <time>2026-05-13T08:49:00Z</time>
      </trkpt>
      <trkpt lat="45.92392" lon="5.63868">
        <ele>682.2</ele>
        <time>2026-05-13T08:49:01Z</time>
      </trkpt>
      <trkpt lat="45.92395" lon="5.63869">
        <ele>682.2</ele>
        <time>2026-05-13T08:49:02Z</time>
      </trkpt>
      <trkpt lat="45.92399" lon="5.63871">
        <ele>682.4</ele>
        <time>2026-05-13T08:49:03Z</time>
      </trkpt>
      <trkpt lat="45.92402" lon="5.63874">
        <ele>682.8</ele>
        <time>2026-05-13T08:49:04Z</time>
      </trkpt>
      <trkpt lat="45.92405" lon="5.63876">
        <ele>682.8</ele>
        <time>2026-05-13T08:49:05Z</time>
      </trkpt>
      <trkpt lat="45.92408" lon="5.63878">
        <ele>683</ele>
        <time>2026-05-13T08:49:06Z</time>
      </trkpt>
      <trkpt lat="45.92412" lon="5.6388">
        <ele>683.4</ele>
        <time>2026-05-13T08:49:07Z</time>
      </trkpt>
      <trkpt lat="45.92415" lon="5.63881">
        <ele>683.6</ele>
        <time>2026-05-13T08:49:08Z</time>
      </trkpt>
      <trkpt lat="45.92418" lon="5.63883">
        <ele>683.8</ele>
        <time>2026-05-13T08:49:09Z</time>
      </trkpt>
      <trkpt lat="45.92421" lon="5.63885">
        <ele>684</ele>
        <time>2026-05-13T08:49:10Z</time>
      </trkpt>
      <trkpt lat="45.92424" lon="5.63886">
        <ele>684</ele>
        <time>2026-05-13T08:49:11Z</time>
      </trkpt>
      <trkpt lat="45.92428" lon="5.63888">
        <ele>684.2</ele>
        <time>2026-05-13T08:49:12Z</time>
      </trkpt>
      <trkpt lat="45.92431" lon="5.6389">
        <ele>684.4</ele>
        <time>2026-05-13T08:49:13Z</time>
      </trkpt>
      <trkpt lat="45.92434" lon="5.63891">
        <ele>684.4</ele>
        <time>2026-05-13T08:49:14Z</time>
      </trkpt>
      <trkpt lat="45.92437" lon="5.63893">
        <ele>684.8</ele>
        <time>2026-05-13T08:49:15Z</time>
      </trkpt>
      <trkpt lat="45.92441" lon="5.63895">
        <ele>684.8</ele>
        <time>2026-05-13T08:49:16Z</time>
      </trkpt>
      <trkpt lat="45.92444" lon="5.63896">
        <ele>685</ele>
        <time>2026-05-13T08:49:17Z</time>
      </trkpt>
      <trkpt lat="45.92448" lon="5.63898">
        <ele>685</ele>
        <time>2026-05-13T08:49:18Z</time>
      </trkpt>
      <trkpt lat="45.92451" lon="5.639">
        <ele>685</ele>
        <time>2026-05-13T08:49:19Z</time>
      </trkpt>
      <trkpt lat="45.92454" lon="5.63902">
        <ele>685</ele>
        <time>2026-05-13T08:49:20Z</time>
      </trkpt>
      <trkpt lat="45.92457" lon="5.63904">
        <ele>685.4</ele>
        <time>2026-05-13T08:49:21Z</time>
      </trkpt>
      <trkpt lat="45.92461" lon="5.63906">
        <ele>685.4</ele>
        <time>2026-05-13T08:49:22Z</time>
      </trkpt>
      <trkpt lat="45.92464" lon="5.63908">
        <ele>685.4</ele>
        <time>2026-05-13T08:49:23Z</time>
      </trkpt>
      <trkpt lat="45.92467" lon="5.63909">
        <ele>685.6</ele>
        <time>2026-05-13T08:49:24Z</time>
      </trkpt>
      <trkpt lat="45.92471" lon="5.63911">
        <ele>685.6</ele>
        <time>2026-05-13T08:49:25Z</time>
      </trkpt>
      <trkpt lat="45.92474" lon="5.63913">
        <ele>685.6</ele>
        <time>2026-05-13T08:49:26Z</time>
      </trkpt>
      <trkpt lat="45.92477" lon="5.63914">
        <ele>685.6</ele>
        <time>2026-05-13T08:49:27Z</time>
      </trkpt>
      <trkpt lat="45.9248" lon="5.63916">
        <ele>685.6</ele>
        <time>2026-05-13T08:49:28Z</time>
      </trkpt>
      <trkpt lat="45.92484" lon="5.63917">
        <ele>686</ele>
        <time>2026-05-13T08:49:29Z</time>
      </trkpt>
      <trkpt lat="45.92487" lon="5.63919">
        <ele>686</ele>
        <time>2026-05-13T08:49:30Z</time>
      </trkpt>
      <trkpt lat="45.9249" lon="5.63921">
        <ele>686</ele>
        <time>2026-05-13T08:49:31Z</time>
      </trkpt>
      <trkpt lat="45.92494" lon="5.63923">
        <ele>686</ele>
        <time>2026-05-13T08:49:32Z</time>
      </trkpt>
      <trkpt lat="45.92497" lon="5.63924">
        <ele>686.2</ele>
        <time>2026-05-13T08:49:33Z</time>
      </trkpt>
      <trkpt lat="45.925" lon="5.63926">
        <ele>686.2</ele>
        <time>2026-05-13T08:49:34Z</time>
      </trkpt>
      <trkpt lat="45.92503" lon="5.63927">
        <ele>686.2</ele>
        <time>2026-05-13T08:49:35Z</time>
      </trkpt>
      <trkpt lat="45.92506" lon="5.63928">
        <ele>686.6</ele>
        <time>2026-05-13T08:49:36Z</time>
      </trkpt>
      <trkpt lat="45.9251" lon="5.63929">
        <ele>686.6</ele>
        <time>2026-05-13T08:49:37Z</time>
      </trkpt>
      <trkpt lat="45.92513" lon="5.63929">
        <ele>687</ele>
        <time>2026-05-13T08:49:38Z</time>
      </trkpt>
      <trkpt lat="45.92516" lon="5.63929">
        <ele>687</ele>
        <time>2026-05-13T08:49:39Z</time>
      </trkpt>
      <trkpt lat="45.92519" lon="5.6393">
        <ele>687.4</ele>
        <time>2026-05-13T08:49:40Z</time>
      </trkpt>
      <trkpt lat="45.92522" lon="5.6393">
        <ele>687.4</ele>
        <time>2026-05-13T08:49:41Z</time>
      </trkpt>
      <trkpt lat="45.92525" lon="5.6393">
        <ele>687.4</ele>
        <time>2026-05-13T08:49:42Z</time>
      </trkpt>
      <trkpt lat="45.92529" lon="5.6393">
        <ele>687.6</ele>
        <time>2026-05-13T08:49:43Z</time>
      </trkpt>
      <trkpt lat="45.92532" lon="5.63929">
        <ele>688.2</ele>
        <time>2026-05-13T08:49:44Z</time>
      </trkpt>
      <trkpt lat="45.92536" lon="5.63928">
        <ele>688.2</ele>
        <time>2026-05-13T08:49:45Z</time>
      </trkpt>
      <trkpt lat="45.92539" lon="5.63926">
        <ele>688</ele>
        <time>2026-05-13T08:49:46Z</time>
      </trkpt>
      <trkpt lat="45.92543" lon="5.63924">
        <ele>688</ele>
        <time>2026-05-13T08:49:47Z</time>
      </trkpt>
      <trkpt lat="45.92546" lon="5.63922">
        <ele>688.4</ele>
        <time>2026-05-13T08:49:48Z</time>
      </trkpt>
      <trkpt lat="45.92549" lon="5.6392">
        <ele>688.4</ele>
        <time>2026-05-13T08:49:49Z</time>
      </trkpt>
      <trkpt lat="45.92553" lon="5.63918">
        <ele>688.4</ele>
        <time>2026-05-13T08:49:50Z</time>
      </trkpt>
      <trkpt lat="45.92556" lon="5.63917">
        <ele>688.4</ele>
        <time>2026-05-13T08:49:51Z</time>
      </trkpt>
      <trkpt lat="45.9256" lon="5.63915">
        <ele>688.4</ele>
        <time>2026-05-13T08:49:52Z</time>
      </trkpt>
      <trkpt lat="45.92563" lon="5.63913">
        <ele>688.4</ele>
        <time>2026-05-13T08:49:53Z</time>
      </trkpt>
      <trkpt lat="45.92567" lon="5.63911">
        <ele>688.8</ele>
        <time>2026-05-13T08:49:54Z</time>
      </trkpt>
      <trkpt lat="45.9257" lon="5.63909">
        <ele>688.8</ele>
        <time>2026-05-13T08:49:55Z</time>
      </trkpt>
      <trkpt lat="45.92574" lon="5.63908">
        <ele>688.8</ele>
        <time>2026-05-13T08:49:56Z</time>
      </trkpt>
      <trkpt lat="45.92578" lon="5.63906">
        <ele>688.8</ele>
        <time>2026-05-13T08:49:57Z</time>
      </trkpt>
      <trkpt lat="45.92582" lon="5.63905">
        <ele>689</ele>
        <time>2026-05-13T08:49:58Z</time>
      </trkpt>
      <trkpt lat="45.92585" lon="5.63904">
        <ele>689</ele>
        <time>2026-05-13T08:49:59Z</time>
      </trkpt>
      <trkpt lat="45.92589" lon="5.63903">
        <ele>689</ele>
        <time>2026-05-13T08:50:00Z</time>
      </trkpt>
      <trkpt lat="45.92592" lon="5.63903">
        <ele>689.2</ele>
        <time>2026-05-13T08:50:01Z</time>
      </trkpt>
      <trkpt lat="45.92596" lon="5.63902">
        <ele>689.2</ele>
        <time>2026-05-13T08:50:02Z</time>
      </trkpt>
      <trkpt lat="45.92599" lon="5.63903">
        <ele>689.2</ele>
        <time>2026-05-13T08:50:03Z</time>
      </trkpt>
      <trkpt lat="45.92603" lon="5.63903">
        <ele>689.6</ele>
        <time>2026-05-13T08:50:04Z</time>
      </trkpt>
      <trkpt lat="45.92606" lon="5.63904">
        <ele>689.8</ele>
        <time>2026-05-13T08:50:05Z</time>
      </trkpt>
      <trkpt lat="45.92609" lon="5.63906">
        <ele>689.8</ele>
        <time>2026-05-13T08:50:06Z</time>
      </trkpt>
      <trkpt lat="45.92612" lon="5.63908">
        <ele>690</ele>
        <time>2026-05-13T08:50:07Z</time>
      </trkpt>
      <trkpt lat="45.92614" lon="5.6391">
        <ele>690</ele>
        <time>2026-05-13T08:50:08Z</time>
      </trkpt>
      <trkpt lat="45.92617" lon="5.63912">
        <ele>690.4</ele>
        <time>2026-05-13T08:50:09Z</time>
      </trkpt>
      <trkpt lat="45.92617" lon="5.63912">
        <ele>690.4</ele>
        <time>2026-05-13T08:50:10Z</time>
      </trkpt>
      <trkpt lat="45.9262" lon="5.63915">
        <ele>690.6</ele>
        <time>2026-05-13T08:50:11Z</time>
      </trkpt>
      <trkpt lat="45.92622" lon="5.63917">
        <ele>690.6</ele>
        <time>2026-05-13T08:50:12Z</time>
      </trkpt>
      <trkpt lat="45.92625" lon="5.63919">
        <ele>691</ele>
        <time>2026-05-13T08:50:13Z</time>
      </trkpt>
      <trkpt lat="45.92628" lon="5.63921">
        <ele>691</ele>
        <time>2026-05-13T08:50:14Z</time>
      </trkpt>
      <trkpt lat="45.92631" lon="5.63923">
        <ele>691</ele>
        <time>2026-05-13T08:50:15Z</time>
      </trkpt>
      <trkpt lat="45.92634" lon="5.63926">
        <ele>691.2</ele>
        <time>2026-05-13T08:50:16Z</time>
      </trkpt>
      <trkpt lat="45.92637" lon="5.63928">
        <ele>691.2</ele>
        <time>2026-05-13T08:50:17Z</time>
      </trkpt>
      <trkpt lat="45.9264" lon="5.6393">
        <ele>691.6</ele>
        <time>2026-05-13T08:50:18Z</time>
      </trkpt>
      <trkpt lat="45.92643" lon="5.63932">
        <ele>691.8</ele>
        <time>2026-05-13T08:50:19Z</time>
      </trkpt>
      <trkpt lat="45.92646" lon="5.63933">
        <ele>691.8</ele>
        <time>2026-05-13T08:50:20Z</time>
      </trkpt>
      <trkpt lat="45.92648" lon="5.63935">
        <ele>691.8</ele>
        <time>2026-05-13T08:50:21Z</time>
      </trkpt>
      <trkpt lat="45.9265" lon="5.63936">
        <ele>691.8</ele>
        <time>2026-05-13T08:50:22Z</time>
      </trkpt>
      <trkpt lat="45.92653" lon="5.63939">
        <ele>691.6</ele>
        <time>2026-05-13T08:50:23Z</time>
      </trkpt>
      <trkpt lat="45.92655" lon="5.63941">
        <ele>691.6</ele>
        <time>2026-05-13T08:50:24Z</time>
      </trkpt>
      <trkpt lat="45.92658" lon="5.63943">
        <ele>691.6</ele>
        <time>2026-05-13T08:50:25Z</time>
      </trkpt>
      <trkpt lat="45.92661" lon="5.63945">
        <ele>691.6</ele>
        <time>2026-05-13T08:50:26Z</time>
      </trkpt>
      <trkpt lat="45.92663" lon="5.63947">
        <ele>691.6</ele>
        <time>2026-05-13T08:50:27Z</time>
      </trkpt>
      <trkpt lat="45.92666" lon="5.63949">
        <ele>691.6</ele>
        <time>2026-05-13T08:50:28Z</time>
      </trkpt>
      <trkpt lat="45.92668" lon="5.63951">
        <ele>691.6</ele>
        <time>2026-05-13T08:50:29Z</time>
      </trkpt>
      <trkpt lat="45.92671" lon="5.63954">
        <ele>691.6</ele>
        <time>2026-05-13T08:50:30Z</time>
      </trkpt>
      <trkpt lat="45.92673" lon="5.63956">
        <ele>691.6</ele>
        <time>2026-05-13T08:50:31Z</time>
      </trkpt>
      <trkpt lat="45.92675" lon="5.6396">
        <ele>691.6</ele>
        <time>2026-05-13T08:50:32Z</time>
      </trkpt>
      <trkpt lat="45.92677" lon="5.63965">
        <ele>691.2</ele>
        <time>2026-05-13T08:50:33Z</time>
      </trkpt>
      <trkpt lat="45.9268" lon="5.63969">
        <ele>691.2</ele>
        <time>2026-05-13T08:50:34Z</time>
      </trkpt>
      <trkpt lat="45.92683" lon="5.63973">
        <ele>691</ele>
        <time>2026-05-13T08:50:35Z</time>
      </trkpt>
      <trkpt lat="45.92686" lon="5.63977">
        <ele>691</ele>
        <time>2026-05-13T08:50:36Z</time>
      </trkpt>
      <trkpt lat="45.92688" lon="5.63981">
        <ele>691</ele>
        <time>2026-05-13T08:50:37Z</time>
      </trkpt>
      <trkpt lat="45.92691" lon="5.63986">
        <ele>690.4</ele>
        <time>2026-05-13T08:50:38Z</time>
      </trkpt>
      <trkpt lat="45.92692" lon="5.6399">
        <ele>690.4</ele>
        <time>2026-05-13T08:50:39Z</time>
      </trkpt>
      <trkpt lat="45.92694" lon="5.63995">
        <ele>690.2</ele>
        <time>2026-05-13T08:50:40Z</time>
      </trkpt>
      <trkpt lat="45.92695" lon="5.64">
        <ele>690.2</ele>
        <time>2026-05-13T08:50:41Z</time>
      </trkpt>
      <trkpt lat="45.92696" lon="5.64005">
        <ele>690</ele>
        <time>2026-05-13T08:50:42Z</time>
      </trkpt>
      <trkpt lat="45.92698" lon="5.6401">
        <ele>690</ele>
        <time>2026-05-13T08:50:43Z</time>
      </trkpt>
      <trkpt lat="45.927" lon="5.64015">
        <ele>689.6</ele>
        <time>2026-05-13T08:50:44Z</time>
      </trkpt>
      <trkpt lat="45.92702" lon="5.6402">
        <ele>689.4</ele>
        <time>2026-05-13T08:50:45Z</time>
      </trkpt>
      <trkpt lat="45.92705" lon="5.64025">
        <ele>689</ele>
        <time>2026-05-13T08:50:46Z</time>
      </trkpt>
      <trkpt lat="45.92708" lon="5.6403">
        <ele>688.8</ele>
        <time>2026-05-13T08:50:47Z</time>
      </trkpt>
      <trkpt lat="45.92711" lon="5.64036">
        <ele>688.8</ele>
        <time>2026-05-13T08:50:48Z</time>
      </trkpt>
      <trkpt lat="45.92713" lon="5.6404">
        <ele>688.2</ele>
        <time>2026-05-13T08:50:49Z</time>
      </trkpt>
      <trkpt lat="45.92715" lon="5.64043">
        <ele>688.2</ele>
        <time>2026-05-13T08:50:50Z</time>
      </trkpt>
      <trkpt lat="45.92717" lon="5.64046">
        <ele>688.2</ele>
        <time>2026-05-13T08:50:51Z</time>
      </trkpt>
      <trkpt lat="45.92718" lon="5.64048">
        <ele>688</ele>
        <time>2026-05-13T08:50:52Z</time>
      </trkpt>
      <trkpt lat="45.92719" lon="5.6405">
        <ele>688</ele>
        <time>2026-05-13T08:50:53Z</time>
      </trkpt>
      <trkpt lat="45.92721" lon="5.64052">
        <ele>687.6</ele>
        <time>2026-05-13T08:50:54Z</time>
      </trkpt>
      <trkpt lat="45.92722" lon="5.64055">
        <ele>687.6</ele>
        <time>2026-05-13T08:50:55Z</time>
      </trkpt>
      <trkpt lat="45.92724" lon="5.64058">
        <ele>687.2</ele>
        <time>2026-05-13T08:50:56Z</time>
      </trkpt>
      <trkpt lat="45.92727" lon="5.64061">
        <ele>687.2</ele>
        <time>2026-05-13T08:50:57Z</time>
      </trkpt>
      <trkpt lat="45.9273" lon="5.64064">
        <ele>687</ele>
        <time>2026-05-13T08:50:58Z</time>
      </trkpt>
      <trkpt lat="45.92732" lon="5.64068">
        <ele>687</ele>
        <time>2026-05-13T08:50:59Z</time>
      </trkpt>
      <trkpt lat="45.92735" lon="5.64071">
        <ele>687</ele>
        <time>2026-05-13T08:51:00Z</time>
      </trkpt>
      <trkpt lat="45.92737" lon="5.64074">
        <ele>687</ele>
        <time>2026-05-13T08:51:01Z</time>
      </trkpt>
      <trkpt lat="45.92739" lon="5.64077">
        <ele>687</ele>
        <time>2026-05-13T08:51:02Z</time>
      </trkpt>
      <trkpt lat="45.9274" lon="5.64082">
        <ele>686.4</ele>
        <time>2026-05-13T08:51:03Z</time>
      </trkpt>
      <trkpt lat="45.92742" lon="5.64087">
        <ele>686.2</ele>
        <time>2026-05-13T08:51:04Z</time>
      </trkpt>
      <trkpt lat="45.92744" lon="5.64093">
        <ele>686.2</ele>
        <time>2026-05-13T08:51:05Z</time>
      </trkpt>
      <trkpt lat="45.92745" lon="5.64098">
        <ele>685.8</ele>
        <time>2026-05-13T08:51:06Z</time>
      </trkpt>
      <trkpt lat="45.92745" lon="5.64102">
        <ele>685.8</ele>
        <time>2026-05-13T08:51:07Z</time>
      </trkpt>
      <trkpt lat="45.92746" lon="5.64106">
        <ele>685.4</ele>
        <time>2026-05-13T08:51:08Z</time>
      </trkpt>
      <trkpt lat="45.92746" lon="5.6411">
        <ele>685.4</ele>
        <time>2026-05-13T08:51:09Z</time>
      </trkpt>
      <trkpt lat="45.92747" lon="5.64114">
        <ele>685.2</ele>
        <time>2026-05-13T08:51:10Z</time>
      </trkpt>
      <trkpt lat="45.92748" lon="5.64117">
        <ele>685.2</ele>
        <time>2026-05-13T08:51:11Z</time>
      </trkpt>
      <trkpt lat="45.92749" lon="5.64119">
        <ele>685</ele>
        <time>2026-05-13T08:51:12Z</time>
      </trkpt>
      <trkpt lat="45.92749" lon="5.64123">
        <ele>685</ele>
        <time>2026-05-13T08:51:13Z</time>
      </trkpt>
      <trkpt lat="45.92749" lon="5.64128">
        <ele>684.4</ele>
        <time>2026-05-13T08:51:14Z</time>
      </trkpt>
      <trkpt lat="45.92749" lon="5.64132">
        <ele>684.4</ele>
        <time>2026-05-13T08:51:15Z</time>
      </trkpt>
      <trkpt lat="45.9275" lon="5.64135">
        <ele>684</ele>
        <time>2026-05-13T08:51:16Z</time>
      </trkpt>
      <trkpt lat="45.9275" lon="5.64137">
        <ele>683.8</ele>
        <time>2026-05-13T08:51:17Z</time>
      </trkpt>
      <trkpt lat="45.9275" lon="5.64139">
        <ele>683.4</ele>
        <time>2026-05-13T08:51:18Z</time>
      </trkpt>
      <trkpt lat="45.9275" lon="5.64142">
        <ele>683.2</ele>
        <time>2026-05-13T08:51:19Z</time>
      </trkpt>
      <trkpt lat="45.92751" lon="5.64145">
        <ele>683</ele>
        <time>2026-05-13T08:51:20Z</time>
      </trkpt>
      <trkpt lat="45.92752" lon="5.64149">
        <ele>683</ele>
        <time>2026-05-13T08:51:21Z</time>
      </trkpt>
      <trkpt lat="45.92753" lon="5.64153">
        <ele>682.4</ele>
        <time>2026-05-13T08:51:22Z</time>
      </trkpt>
      <trkpt lat="45.92755" lon="5.64158">
        <ele>682.2</ele>
        <time>2026-05-13T08:51:23Z</time>
      </trkpt>
      <trkpt lat="45.92756" lon="5.64162">
        <ele>682.2</ele>
        <time>2026-05-13T08:51:24Z</time>
      </trkpt>
      <trkpt lat="45.92757" lon="5.64165">
        <ele>681.6</ele>
        <time>2026-05-13T08:51:25Z</time>
      </trkpt>
      <trkpt lat="45.92758" lon="5.64168">
        <ele>681.4</ele>
        <time>2026-05-13T08:51:26Z</time>
      </trkpt>
      <trkpt lat="45.92759" lon="5.64172">
        <ele>681.2</ele>
        <time>2026-05-13T08:51:27Z</time>
      </trkpt>
      <trkpt lat="45.92762" lon="5.6418">
        <ele>680.8</ele>
        <time>2026-05-13T08:51:28Z</time>
      </trkpt>
      <trkpt lat="45.92762" lon="5.64184">
        <ele>680.6</ele>
        <time>2026-05-13T08:51:29Z</time>
      </trkpt>
      <trkpt lat="45.92763" lon="5.64189">
        <ele>680.4</ele>
        <time>2026-05-13T08:51:30Z</time>
      </trkpt>
      <trkpt lat="45.92764" lon="5.64193">
        <ele>679.8</ele>
        <time>2026-05-13T08:51:31Z</time>
      </trkpt>
      <trkpt lat="45.92764" lon="5.64198">
        <ele>679.6</ele>
        <time>2026-05-13T08:51:32Z</time>
      </trkpt>
      <trkpt lat="45.92765" lon="5.64203">
        <ele>678.8</ele>
        <time>2026-05-13T08:51:33Z</time>
      </trkpt>
      <trkpt lat="45.92765" lon="5.64208">
        <ele>678.6</ele>
        <time>2026-05-13T08:51:34Z</time>
      </trkpt>
      <trkpt lat="45.92765" lon="5.64214">
        <ele>677.8</ele>
        <time>2026-05-13T08:51:35Z</time>
      </trkpt>
      <trkpt lat="45.92766" lon="5.6422">
        <ele>677.4</ele>
        <time>2026-05-13T08:51:36Z</time>
      </trkpt>
      <trkpt lat="45.92765" lon="5.64225">
        <ele>677</ele>
        <time>2026-05-13T08:51:37Z</time>
      </trkpt>
      <trkpt lat="45.92765" lon="5.64228">
        <ele>676.6</ele>
        <time>2026-05-13T08:51:38Z</time>
      </trkpt>
      <trkpt lat="45.92766" lon="5.64231">
        <ele>676.4</ele>
        <time>2026-05-13T08:51:39Z</time>
      </trkpt>
      <trkpt lat="45.92766" lon="5.64234">
        <ele>675.8</ele>
        <time>2026-05-13T08:51:40Z</time>
      </trkpt>
      <trkpt lat="45.92766" lon="5.64239">
        <ele>675.6</ele>
        <time>2026-05-13T08:51:41Z</time>
      </trkpt>
      <trkpt lat="45.92765" lon="5.64244">
        <ele>675</ele>
        <time>2026-05-13T08:51:42Z</time>
      </trkpt>
      <trkpt lat="45.92764" lon="5.64249">
        <ele>674.6</ele>
        <time>2026-05-13T08:51:43Z</time>
      </trkpt>
      <trkpt lat="45.92763" lon="5.64253">
        <ele>674.2</ele>
        <time>2026-05-13T08:51:44Z</time>
      </trkpt>
      <trkpt lat="45.92761" lon="5.64257">
        <ele>673.8</ele>
        <time>2026-05-13T08:51:45Z</time>
      </trkpt>
      <trkpt lat="45.92758" lon="5.6426">
        <ele>673.2</ele>
        <time>2026-05-13T08:51:46Z</time>
      </trkpt>
      <trkpt lat="45.92754" lon="5.64263">
        <ele>672.6</ele>
        <time>2026-05-13T08:51:47Z</time>
      </trkpt>
      <trkpt lat="45.92751" lon="5.64266">
        <ele>672</ele>
        <time>2026-05-13T08:51:48Z</time>
      </trkpt>
      <trkpt lat="45.92747" lon="5.64268">
        <ele>671.6</ele>
        <time>2026-05-13T08:51:49Z</time>
      </trkpt>
      <trkpt lat="45.92745" lon="5.6427">
        <ele>671</ele>
        <time>2026-05-13T08:51:50Z</time>
      </trkpt>
      <trkpt lat="45.92742" lon="5.64272">
        <ele>670.8</ele>
        <time>2026-05-13T08:51:51Z</time>
      </trkpt>
      <trkpt lat="45.92741" lon="5.64275">
        <ele>670.4</ele>
        <time>2026-05-13T08:51:52Z</time>
      </trkpt>
      <trkpt lat="45.92739" lon="5.64279">
        <ele>669.6</ele>
        <time>2026-05-13T08:51:53Z</time>
      </trkpt>
      <trkpt lat="45.92736" lon="5.64283">
        <ele>669</ele>
        <time>2026-05-13T08:51:54Z</time>
      </trkpt>
      <trkpt lat="45.92733" lon="5.64287">
        <ele>668.6</ele>
        <time>2026-05-13T08:51:55Z</time>
      </trkpt>
      <trkpt lat="45.92731" lon="5.64291">
        <ele>668.2</ele>
        <time>2026-05-13T08:51:56Z</time>
      </trkpt>
      <trkpt lat="45.92729" lon="5.64294">
        <ele>667.8</ele>
        <time>2026-05-13T08:51:57Z</time>
      </trkpt>
      <trkpt lat="45.92728" lon="5.64298">
        <ele>667.4</ele>
        <time>2026-05-13T08:51:58Z</time>
      </trkpt>
      <trkpt lat="45.92727" lon="5.64301">
        <ele>667</ele>
        <time>2026-05-13T08:51:59Z</time>
      </trkpt>
      <trkpt lat="45.92727" lon="5.64305">
        <ele>666.6</ele>
        <time>2026-05-13T08:52:00Z</time>
      </trkpt>
      <trkpt lat="45.92726" lon="5.64307">
        <ele>666.4</ele>
        <time>2026-05-13T08:52:01Z</time>
      </trkpt>
      <trkpt lat="45.92726" lon="5.64308">
        <ele>666.4</ele>
        <time>2026-05-13T08:52:02Z</time>
      </trkpt>
      <trkpt lat="45.92726" lon="5.6431">
        <ele>666</ele>
        <time>2026-05-13T08:52:03Z</time>
      </trkpt>
      <trkpt lat="45.92726" lon="5.64312">
        <ele>665.8</ele>
        <time>2026-05-13T08:52:04Z</time>
      </trkpt>
      <trkpt lat="45.92726" lon="5.64314">
        <ele>665.8</ele>
        <time>2026-05-13T08:52:05Z</time>
      </trkpt>
      <trkpt lat="45.92727" lon="5.64314">
        <ele>665.4</ele>
        <time>2026-05-13T08:52:06Z</time>
      </trkpt>
      <trkpt lat="45.92727" lon="5.64314">
        <ele>665.4</ele>
        <time>2026-05-13T08:52:07Z</time>
      </trkpt>
      <trkpt lat="45.92727" lon="5.64315">
        <ele>665.4</ele>
        <time>2026-05-13T08:52:08Z</time>
      </trkpt>
      <trkpt lat="45.92726" lon="5.64319">
        <ele>665</ele>
        <time>2026-05-13T08:52:13Z</time>
      </trkpt>
      <trkpt lat="45.92725" lon="5.64322">
        <ele>664.6</ele>
        <time>2026-05-13T08:52:14Z</time>
      </trkpt>
      <trkpt lat="45.92724" lon="5.64325">
        <ele>664.4</ele>
        <time>2026-05-13T08:52:15Z</time>
      </trkpt>
      <trkpt lat="45.92724" lon="5.64329">
        <ele>664</ele>
        <time>2026-05-13T08:52:16Z</time>
      </trkpt>
      <trkpt lat="45.92723" lon="5.64337">
        <ele>664</ele>
        <time>2026-05-13T08:52:17Z</time>
      </trkpt>
      <trkpt lat="45.92722" lon="5.64343">
        <ele>663.4</ele>
        <time>2026-05-13T08:52:18Z</time>
      </trkpt>
      <trkpt lat="45.9272" lon="5.64349">
        <ele>663.2</ele>
        <time>2026-05-13T08:52:19Z</time>
      </trkpt>
      <trkpt lat="45.92719" lon="5.64355">
        <ele>662.4</ele>
        <time>2026-05-13T08:52:20Z</time>
      </trkpt>
      <trkpt lat="45.92716" lon="5.6436">
        <ele>662</ele>
        <time>2026-05-13T08:52:21Z</time>
      </trkpt>
      <trkpt lat="45.92714" lon="5.64368">
        <ele>661.4</ele>
        <time>2026-05-13T08:52:22Z</time>
      </trkpt>
      <trkpt lat="45.92714" lon="5.64374">
        <ele>660.6</ele>
        <time>2026-05-13T08:52:23Z</time>
      </trkpt>
      <trkpt lat="45.92714" lon="5.64382">
        <ele>660.2</ele>
        <time>2026-05-13T08:52:24Z</time>
      </trkpt>
      <trkpt lat="45.92713" lon="5.64388">
        <ele>659.6</ele>
        <time>2026-05-13T08:52:25Z</time>
      </trkpt>
      <trkpt lat="45.92712" lon="5.64396">
        <ele>659.2</ele>
        <time>2026-05-13T08:52:26Z</time>
      </trkpt>
      <trkpt lat="45.92712" lon="5.64404">
        <ele>658.4</ele>
        <time>2026-05-13T08:52:27Z</time>
      </trkpt>
      <trkpt lat="45.9271" lon="5.64412">
        <ele>657.8</ele>
        <time>2026-05-13T08:52:28Z</time>
      </trkpt>
      <trkpt lat="45.92709" lon="5.64418">
        <ele>656.8</ele>
        <time>2026-05-13T08:52:29Z</time>
      </trkpt>
      <trkpt lat="45.92708" lon="5.64426">
        <ele>656.2</ele>
        <time>2026-05-13T08:52:30Z</time>
      </trkpt>
      <trkpt lat="45.92707" lon="5.64432">
        <ele>655.6</ele>
        <time>2026-05-13T08:52:31Z</time>
      </trkpt>
      <trkpt lat="45.92706" lon="5.64438">
        <ele>655.2</ele>
        <time>2026-05-13T08:52:32Z</time>
      </trkpt>
      <trkpt lat="45.92702" lon="5.64447">
        <ele>654.4</ele>
        <time>2026-05-13T08:52:33Z</time>
      </trkpt>
      <trkpt lat="45.92701" lon="5.64456">
        <ele>653.4</ele>
        <time>2026-05-13T08:52:34Z</time>
      </trkpt>
      <trkpt lat="45.92698" lon="5.64467">
        <ele>652.2</ele>
        <time>2026-05-13T08:52:35Z</time>
      </trkpt>
      <trkpt lat="45.92694" lon="5.64478">
        <ele>651.4</ele>
        <time>2026-05-13T08:52:36Z</time>
      </trkpt>
      <trkpt lat="45.9269" lon="5.64489">
        <ele>650.2</ele>
        <time>2026-05-13T08:52:37Z</time>
      </trkpt>
      <trkpt lat="45.92686" lon="5.64501">
        <ele>649</ele>
        <time>2026-05-13T08:52:38Z</time>
      </trkpt>
      <trkpt lat="45.92682" lon="5.64514">
        <ele>647.4</ele>
        <time>2026-05-13T08:52:39Z</time>
      </trkpt>
      <trkpt lat="45.92678" lon="5.64529">
        <ele>646.4</ele>
        <time>2026-05-13T08:52:40Z</time>
      </trkpt>
      <trkpt lat="45.92676" lon="5.64544">
        <ele>645</ele>
        <time>2026-05-13T08:52:41Z</time>
      </trkpt>
      <trkpt lat="45.92672" lon="5.64556">
        <ele>644</ele>
        <time>2026-05-13T08:52:42Z</time>
      </trkpt>
      <trkpt lat="45.92672" lon="5.64569">
        <ele>643.2</ele>
        <time>2026-05-13T08:52:43Z</time>
      </trkpt>
      <trkpt lat="45.92671" lon="5.64581">
        <ele>642</ele>
        <time>2026-05-13T08:52:44Z</time>
      </trkpt>
      <trkpt lat="45.92671" lon="5.64593">
        <ele>641</ele>
        <time>2026-05-13T08:52:45Z</time>
      </trkpt>
      <trkpt lat="45.92671" lon="5.64603">
        <ele>640.2</ele>
        <time>2026-05-13T08:52:46Z</time>
      </trkpt>
      <trkpt lat="45.92671" lon="5.64613">
        <ele>639.4</ele>
        <time>2026-05-13T08:52:47Z</time>
      </trkpt>
      <trkpt lat="45.92671" lon="5.64621">
        <ele>639.4</ele>
        <time>2026-05-13T08:52:48Z</time>
      </trkpt>
      <trkpt lat="45.9267" lon="5.64628">
        <ele>638.8</ele>
        <time>2026-05-13T08:52:49Z</time>
      </trkpt>
      <trkpt lat="45.92669" lon="5.64634">
        <ele>638.8</ele>
        <time>2026-05-13T08:52:50Z</time>
      </trkpt>
      <trkpt lat="45.92667" lon="5.6464">
        <ele>638.6</ele>
        <time>2026-05-13T08:52:51Z</time>
      </trkpt>
      <trkpt lat="45.92665" lon="5.64647">
        <ele>638.6</ele>
        <time>2026-05-13T08:52:52Z</time>
      </trkpt>
      <trkpt lat="45.92663" lon="5.64654">
        <ele>638.6</ele>
        <time>2026-05-13T08:52:53Z</time>
      </trkpt>
      <trkpt lat="45.92662" lon="5.64661">
        <ele>638.2</ele>
        <time>2026-05-13T08:52:54Z</time>
      </trkpt>
      <trkpt lat="45.92661" lon="5.64668">
        <ele>638.2</ele>
        <time>2026-05-13T08:52:55Z</time>
      </trkpt>
      <trkpt lat="45.9266" lon="5.64676">
        <ele>638.2</ele>
        <time>2026-05-13T08:52:56Z</time>
      </trkpt>
      <trkpt lat="45.92659" lon="5.64684">
        <ele>638.2</ele>
        <time>2026-05-13T08:52:57Z</time>
      </trkpt>
      <trkpt lat="45.92659" lon="5.64693">
        <ele>637.6</ele>
        <time>2026-05-13T08:52:58Z</time>
      </trkpt>
      <trkpt lat="45.92659" lon="5.64702">
        <ele>637.2</ele>
        <time>2026-05-13T08:52:59Z</time>
      </trkpt>
      <trkpt lat="45.92659" lon="5.64712">
        <ele>637</ele>
        <time>2026-05-13T08:53:00Z</time>
      </trkpt>
      <trkpt lat="45.92659" lon="5.64722">
        <ele>637</ele>
        <time>2026-05-13T08:53:01Z</time>
      </trkpt>
      <trkpt lat="45.92659" lon="5.64732">
        <ele>636.4</ele>
        <time>2026-05-13T08:53:02Z</time>
      </trkpt>
      <trkpt lat="45.9266" lon="5.64741">
        <ele>635.6</ele>
        <time>2026-05-13T08:53:03Z</time>
      </trkpt>
      <trkpt lat="45.9266" lon="5.64748">
        <ele>635.2</ele>
        <time>2026-05-13T08:53:04Z</time>
      </trkpt>
      <trkpt lat="45.9266" lon="5.64753">
        <ele>635</ele>
        <time>2026-05-13T08:53:05Z</time>
      </trkpt>
      <trkpt lat="45.9266" lon="5.64757">
        <ele>635</ele>
        <time>2026-05-13T08:53:06Z</time>
      </trkpt>
      <trkpt lat="45.9266" lon="5.64761">
        <ele>634.6</ele>
        <time>2026-05-13T08:53:07Z</time>
      </trkpt>
      <trkpt lat="45.9266" lon="5.64764">
        <ele>634.6</ele>
        <time>2026-05-13T08:53:08Z</time>
      </trkpt>
      <trkpt lat="45.92659" lon="5.64766">
        <ele>634.4</ele>
        <time>2026-05-13T08:53:09Z</time>
      </trkpt>
      <trkpt lat="45.92659" lon="5.64769">
        <ele>634.4</ele>
        <time>2026-05-13T08:53:10Z</time>
      </trkpt>
      <trkpt lat="45.92659" lon="5.64771">
        <ele>634</ele>
        <time>2026-05-13T08:53:11Z</time>
      </trkpt>
      <trkpt lat="45.92658" lon="5.64774">
        <ele>634</ele>
        <time>2026-05-13T08:53:12Z</time>
      </trkpt>
      <trkpt lat="45.92658" lon="5.64776">
        <ele>634</ele>
        <time>2026-05-13T08:53:13Z</time>
      </trkpt>
      <trkpt lat="45.92658" lon="5.64777">
        <ele>633.8</ele>
        <time>2026-05-13T08:53:14Z</time>
      </trkpt>
      <trkpt lat="45.92658" lon="5.64778">
        <ele>633.8</ele>
        <time>2026-05-13T08:53:15Z</time>
      </trkpt>
      <trkpt lat="45.92658" lon="5.64778">
        <ele>633.8</ele>
        <time>2026-05-13T08:53:16Z</time>
      </trkpt>
      <trkpt lat="45.92658" lon="5.64778">
        <ele>633.8</ele>
        <time>2026-05-13T08:53:17Z</time>
      </trkpt>
      <trkpt lat="45.92657" lon="5.64782">
        <ele>633.2</ele>
        <time>2026-05-13T08:53:37Z</time>
      </trkpt>
      <trkpt lat="45.92657" lon="5.64785">
        <ele>633.2</ele>
        <time>2026-05-13T08:53:38Z</time>
      </trkpt>
      <trkpt lat="45.92657" lon="5.64789">
        <ele>633</ele>
        <time>2026-05-13T08:53:39Z</time>
      </trkpt>
      <trkpt lat="45.92657" lon="5.64793">
        <ele>633</ele>
        <time>2026-05-13T08:53:40Z</time>
      </trkpt>
      <trkpt lat="45.92657" lon="5.64798">
        <ele>632.6</ele>
        <time>2026-05-13T08:53:41Z</time>
      </trkpt>
      <trkpt lat="45.92656" lon="5.64804">
        <ele>632.6</ele>
        <time>2026-05-13T08:53:42Z</time>
      </trkpt>
      <trkpt lat="45.92655" lon="5.64809">
        <ele>632.4</ele>
        <time>2026-05-13T08:53:43Z</time>
      </trkpt>
      <trkpt lat="45.92655" lon="5.64817">
        <ele>632</ele>
        <time>2026-05-13T08:53:44Z</time>
      </trkpt>
      <trkpt lat="45.92655" lon="5.64824">
        <ele>631.6</ele>
        <time>2026-05-13T08:53:45Z</time>
      </trkpt>
      <trkpt lat="45.92655" lon="5.64831">
        <ele>631.2</ele>
        <time>2026-05-13T08:53:46Z</time>
      </trkpt>
      <trkpt lat="45.92655" lon="5.64839">
        <ele>630.8</ele>
        <time>2026-05-13T08:53:47Z</time>
      </trkpt>
      <trkpt lat="45.92655" lon="5.64839">
        <ele>630.4</ele>
        <time>2026-05-13T08:53:48Z</time>
      </trkpt>
      <trkpt lat="45.92655" lon="5.64844">
        <ele>630.2</ele>
        <time>2026-05-13T08:53:49Z</time>
      </trkpt>
      <trkpt lat="45.92655" lon="5.64849">
        <ele>630.2</ele>
        <time>2026-05-13T08:53:50Z</time>
      </trkpt>
      <trkpt lat="45.92655" lon="5.64852">
        <ele>629.8</ele>
        <time>2026-05-13T08:53:51Z</time>
      </trkpt>
      <trkpt lat="45.92655" lon="5.64852">
        <ele>629.8</ele>
        <time>2026-05-13T08:53:52Z</time>
      </trkpt>
      <trkpt lat="45.92656" lon="5.64853">
        <ele>629.6</ele>
        <time>2026-05-13T08:53:53Z</time>
      </trkpt>
      <trkpt lat="45.92655" lon="5.6485">
        <ele>629.6</ele>
        <time>2026-05-13T08:53:58Z</time>
      </trkpt>
      <trkpt lat="45.92655" lon="5.6485">
        <ele>629.6</ele>
        <time>2026-05-13T08:53:59Z</time>
      </trkpt>
      <trkpt lat="45.92656" lon="5.64849">
        <ele>629.6</ele>
        <time>2026-05-13T08:54:00Z</time>
      </trkpt>
      <trkpt lat="45.92656" lon="5.64848">
        <ele>629.4</ele>
        <time>2026-05-13T08:54:01Z</time>
      </trkpt>
      <trkpt lat="45.92657" lon="5.64847">
        <ele>629.4</ele>
        <time>2026-05-13T08:54:02Z</time>
      </trkpt>
      <trkpt lat="45.92657" lon="5.64847">
        <ele>629.4</ele>
        <time>2026-05-13T08:54:03Z</time>
      </trkpt>
      <trkpt lat="45.92657" lon="5.64846">
        <ele>629.8</ele>
        <time>2026-05-13T08:54:04Z</time>
      </trkpt>
      <trkpt lat="45.92657" lon="5.64846">
        <ele>629.8</ele>
        <time>2026-05-13T08:54:05Z</time>
      </trkpt>
      <trkpt lat="45.92657" lon="5.64848">
        <ele>630.2</ele>
        <time>2026-05-13T09:03:31Z</time>
      </trkpt>
      <trkpt lat="45.92657" lon="5.64849">
        <ele>630.2</ele>
        <time>2026-05-13T09:03:32Z</time>
      </trkpt>
      <trkpt lat="45.92657" lon="5.64849">
        <ele>629.8</ele>
        <time>2026-05-13T09:03:33Z</time>
      </trkpt>
      <trkpt lat="45.92657" lon="5.64848">
        <ele>629.8</ele>
        <time>2026-05-13T09:03:34Z</time>
      </trkpt>
      <trkpt lat="45.92656" lon="5.6485">
        <ele>629.6</ele>
        <time>2026-05-13T09:03:40Z</time>
      </trkpt>
      <trkpt lat="45.92656" lon="5.64851">
        <ele>629.4</ele>
        <time>2026-05-13T09:03:41Z</time>
      </trkpt>
      <trkpt lat="45.92656" lon="5.64852">
        <ele>629.4</ele>
        <time>2026-05-13T09:03:42Z</time>
      </trkpt>
      <trkpt lat="45.92656" lon="5.64852">
        <ele>629.4</ele>
        <time>2026-05-13T09:03:43Z</time>
      </trkpt>
      <trkpt lat="45.92656" lon="5.6485">
        <ele>629.4</ele>
        <time>2026-05-13T09:03:47Z</time>
      </trkpt>
      <trkpt lat="45.92656" lon="5.6485">
        <ele>629.4</ele>
        <time>2026-05-13T09:03:48Z</time>
      </trkpt>
      <trkpt lat="45.92656" lon="5.6485">
        <ele>629.4</ele>
        <time>2026-05-13T09:03:49Z</time>
      </trkpt>
      <trkpt lat="45.92654" lon="5.64851">
        <ele>629.4</ele>
        <time>2026-05-13T09:03:52Z</time>
      </trkpt>
      <trkpt lat="45.92654" lon="5.64852">
        <ele>629.2</ele>
        <time>2026-05-13T09:03:53Z</time>
      </trkpt>
      <trkpt lat="45.92654" lon="5.64852">
        <ele>629.2</ele>
        <time>2026-05-13T09:03:54Z</time>
      </trkpt>
      <trkpt lat="45.92654" lon="5.64854">
        <ele>629.2</ele>
        <time>2026-05-13T09:03:55Z</time>
      </trkpt>
      <trkpt lat="45.92654" lon="5.64857">
        <ele>629.2</ele>
        <time>2026-05-13T09:03:56Z</time>
      </trkpt>
      <trkpt lat="45.92655" lon="5.64859">
        <ele>629.2</ele>
        <time>2026-05-13T09:03:57Z</time>
      </trkpt>
      <trkpt lat="45.92655" lon="5.64863">
        <ele>629.2</ele>
        <time>2026-05-13T09:03:58Z</time>
      </trkpt>
      <trkpt lat="45.92655" lon="5.64869">
        <ele>628.6</ele>
        <time>2026-05-13T09:03:59Z</time>
      </trkpt>
      <trkpt lat="45.92654" lon="5.64875">
        <ele>628.2</ele>
        <time>2026-05-13T09:04:00Z</time>
      </trkpt>
      <trkpt lat="45.92654" lon="5.64882">
        <ele>628</ele>
        <time>2026-05-13T09:04:01Z</time>
      </trkpt>
      <trkpt lat="45.92654" lon="5.64888">
        <ele>627.4</ele>
        <time>2026-05-13T09:04:02Z</time>
      </trkpt>
      <trkpt lat="45.92653" lon="5.64896">
        <ele>627</ele>
        <time>2026-05-13T09:04:03Z</time>
      </trkpt>
      <trkpt lat="45.92652" lon="5.64903">
        <ele>626.6</ele>
        <time>2026-05-13T09:04:04Z</time>
      </trkpt>
      <trkpt lat="45.92652" lon="5.64911">
        <ele>626</ele>
        <time>2026-05-13T09:04:05Z</time>
      </trkpt>
      <trkpt lat="45.92651" lon="5.64919">
        <ele>625.4</ele>
        <time>2026-05-13T09:04:06Z</time>
      </trkpt>
      <trkpt lat="45.9265" lon="5.64927">
        <ele>624.6</ele>
        <time>2026-05-13T09:04:07Z</time>
      </trkpt>
      <trkpt lat="45.9265" lon="5.64935">
        <ele>624</ele>
        <time>2026-05-13T09:04:08Z</time>
      </trkpt>
      <trkpt lat="45.9265" lon="5.64944">
        <ele>623.4</ele>
        <time>2026-05-13T09:04:09Z</time>
      </trkpt>
      <trkpt lat="45.9265" lon="5.64953">
        <ele>622.8</ele>
        <time>2026-05-13T09:04:10Z</time>
      </trkpt>
      <trkpt lat="45.9265" lon="5.64961">
        <ele>622.4</ele>
        <time>2026-05-13T09:04:11Z</time>
      </trkpt>
      <trkpt lat="45.92649" lon="5.64969">
        <ele>621.8</ele>
        <time>2026-05-13T09:04:12Z</time>
      </trkpt>
      <trkpt lat="45.9265" lon="5.64976">
        <ele>621.4</ele>
        <time>2026-05-13T09:04:13Z</time>
      </trkpt>
      <trkpt lat="45.9265" lon="5.64983">
        <ele>621.2</ele>
        <time>2026-05-13T09:04:14Z</time>
      </trkpt>
      <trkpt lat="45.9265" lon="5.6499">
        <ele>620.6</ele>
        <time>2026-05-13T09:04:15Z</time>
      </trkpt>
      <trkpt lat="45.92651" lon="5.64997">
        <ele>620.2</ele>
        <time>2026-05-13T09:04:16Z</time>
      </trkpt>
      <trkpt lat="45.9265" lon="5.65004">
        <ele>620</ele>
        <time>2026-05-13T09:04:17Z</time>
      </trkpt>
      <trkpt lat="45.9265" lon="5.6501">
        <ele>619.6</ele>
        <time>2026-05-13T09:04:18Z</time>
      </trkpt>
      <trkpt lat="45.92649" lon="5.65015">
        <ele>619.2</ele>
        <time>2026-05-13T09:04:19Z</time>
      </trkpt>
      <trkpt lat="45.92649" lon="5.6502">
        <ele>619.2</ele>
        <time>2026-05-13T09:04:20Z</time>
      </trkpt>
      <trkpt lat="45.9265" lon="5.65024">
        <ele>618.8</ele>
        <time>2026-05-13T09:04:21Z</time>
      </trkpt>
      <trkpt lat="45.9265" lon="5.6503">
        <ele>618.4</ele>
        <time>2026-05-13T09:04:22Z</time>
      </trkpt>
      <trkpt lat="45.92651" lon="5.65035">
        <ele>617.8</ele>
        <time>2026-05-13T09:04:23Z</time>
      </trkpt>
      <trkpt lat="45.92651" lon="5.6504">
        <ele>617.6</ele>
        <time>2026-05-13T09:04:24Z</time>
      </trkpt>
      <trkpt lat="45.92651" lon="5.65045">
        <ele>616.8</ele>
        <time>2026-05-13T09:04:25Z</time>
      </trkpt>
      <trkpt lat="45.92651" lon="5.6505">
        <ele>616.6</ele>
        <time>2026-05-13T09:04:26Z</time>
      </trkpt>
      <trkpt lat="45.92652" lon="5.65056">
        <ele>616.6</ele>
        <time>2026-05-13T09:04:27Z</time>
      </trkpt>
      <trkpt lat="45.92652" lon="5.65061">
        <ele>616</ele>
        <time>2026-05-13T09:04:28Z</time>
      </trkpt>
      <trkpt lat="45.92652" lon="5.65067">
        <ele>615.6</ele>
        <time>2026-05-13T09:04:29Z</time>
      </trkpt>
      <trkpt lat="45.92652" lon="5.65072">
        <ele>615.2</ele>
        <time>2026-05-13T09:04:30Z</time>
      </trkpt>
      <trkpt lat="45.92652" lon="5.65078">
        <ele>615.2</ele>
        <time>2026-05-13T09:04:31Z</time>
      </trkpt>
      <trkpt lat="45.92652" lon="5.65084">
        <ele>614.6</ele>
        <time>2026-05-13T09:04:32Z</time>
      </trkpt>
      <trkpt lat="45.92651" lon="5.65091">
        <ele>613.6</ele>
        <time>2026-05-13T09:04:33Z</time>
      </trkpt>
      <trkpt lat="45.92651" lon="5.65098">
        <ele>613.6</ele>
        <time>2026-05-13T09:04:34Z</time>
      </trkpt>
      <trkpt lat="45.92651" lon="5.65105">
        <ele>613.2</ele>
        <time>2026-05-13T09:04:35Z</time>
      </trkpt>
      <trkpt lat="45.92651" lon="5.65113">
        <ele>612.6</ele>
        <time>2026-05-13T09:04:36Z</time>
      </trkpt>
      <trkpt lat="45.92652" lon="5.65121">
        <ele>612</ele>
        <time>2026-05-13T09:04:37Z</time>
      </trkpt>
      <trkpt lat="45.92652" lon="5.65129">
        <ele>611.2</ele>
        <time>2026-05-13T09:04:38Z</time>
      </trkpt>
      <trkpt lat="45.92652" lon="5.65137">
        <ele>610.8</ele>
        <time>2026-05-13T09:04:39Z</time>
      </trkpt>
      <trkpt lat="45.92652" lon="5.65145">
        <ele>610</ele>
        <time>2026-05-13T09:04:40Z</time>
      </trkpt>
      <trkpt lat="45.92652" lon="5.65154">
        <ele>609</ele>
        <time>2026-05-13T09:04:41Z</time>
      </trkpt>
      <trkpt lat="45.92652" lon="5.65162">
        <ele>608.2</ele>
        <time>2026-05-13T09:04:42Z</time>
      </trkpt>
      <trkpt lat="45.92652" lon="5.65171">
        <ele>607.4</ele>
        <time>2026-05-13T09:04:43Z</time>
      </trkpt>
      <trkpt lat="45.92653" lon="5.65179">
        <ele>606.8</ele>
        <time>2026-05-13T09:04:44Z</time>
      </trkpt>
      <trkpt lat="45.92652" lon="5.65188">
        <ele>607</ele>
        <time>2026-05-13T09:04:45Z</time>
      </trkpt>
      <trkpt lat="45.92652" lon="5.65197">
        <ele>606.6</ele>
        <time>2026-05-13T09:04:46Z</time>
      </trkpt>
      <trkpt lat="45.92652" lon="5.65206">
        <ele>606.6</ele>
        <time>2026-05-13T09:04:47Z</time>
      </trkpt>
      <trkpt lat="45.92653" lon="5.65214">
        <ele>606.6</ele>
        <time>2026-05-13T09:04:48Z</time>
      </trkpt>
      <trkpt lat="45.92653" lon="5.65223">
        <ele>605.4</ele>
        <time>2026-05-13T09:04:49Z</time>
      </trkpt>
      <trkpt lat="45.92653" lon="5.65232">
        <ele>604.8</ele>
        <time>2026-05-13T09:04:50Z</time>
      </trkpt>
      <trkpt lat="45.92653" lon="5.65241">
        <ele>603.6</ele>
        <time>2026-05-13T09:04:51Z</time>
      </trkpt>
      <trkpt lat="45.92654" lon="5.6525">
        <ele>603.6</ele>
        <time>2026-05-13T09:04:52Z</time>
      </trkpt>
      <trkpt lat="45.92654" lon="5.65257">
        <ele>603</ele>
        <time>2026-05-13T09:04:53Z</time>
      </trkpt>
      <trkpt lat="45.92653" lon="5.65264">
        <ele>602.2</ele>
        <time>2026-05-13T09:04:54Z</time>
      </trkpt>
      <trkpt lat="45.92653" lon="5.65272">
        <ele>602.8</ele>
        <time>2026-05-13T09:04:55Z</time>
      </trkpt>
      <trkpt lat="45.92653" lon="5.6528">
        <ele>602.6</ele>
        <time>2026-05-13T09:04:56Z</time>
      </trkpt>
      <trkpt lat="45.92654" lon="5.65285">
        <ele>602.2</ele>
        <time>2026-05-13T09:04:57Z</time>
      </trkpt>
      <trkpt lat="45.92653" lon="5.6529">
        <ele>601.8</ele>
        <time>2026-05-13T09:04:58Z</time>
      </trkpt>
      <trkpt lat="45.92654" lon="5.65294">
        <ele>601.4</ele>
        <time>2026-05-13T09:04:59Z</time>
      </trkpt>
      <trkpt lat="45.92653" lon="5.65299">
        <ele>601.2</ele>
        <time>2026-05-13T09:05:00Z</time>
      </trkpt>
      <trkpt lat="45.92654" lon="5.65304">
        <ele>600.4</ele>
        <time>2026-05-13T09:05:01Z</time>
      </trkpt>
      <trkpt lat="45.92654" lon="5.65308">
        <ele>600.4</ele>
        <time>2026-05-13T09:05:02Z</time>
      </trkpt>
      <trkpt lat="45.92655" lon="5.65314">
        <ele>599.6</ele>
        <time>2026-05-13T09:05:03Z</time>
      </trkpt>
      <trkpt lat="45.92655" lon="5.65318">
        <ele>599.2</ele>
        <time>2026-05-13T09:05:04Z</time>
      </trkpt>
      <trkpt lat="45.92655" lon="5.65324">
        <ele>598.4</ele>
        <time>2026-05-13T09:05:05Z</time>
      </trkpt>
      <trkpt lat="45.92656" lon="5.6533">
        <ele>597.8</ele>
        <time>2026-05-13T09:05:06Z</time>
      </trkpt>
      <trkpt lat="45.92656" lon="5.65336">
        <ele>597.6</ele>
        <time>2026-05-13T09:05:07Z</time>
      </trkpt>
      <trkpt lat="45.92656" lon="5.65343">
        <ele>597</ele>
        <time>2026-05-13T09:05:08Z</time>
      </trkpt>
      <trkpt lat="45.92656" lon="5.6535">
        <ele>596.4</ele>
        <time>2026-05-13T09:05:09Z</time>
      </trkpt>
      <trkpt lat="45.92657" lon="5.65355">
        <ele>596.2</ele>
        <time>2026-05-13T09:05:10Z</time>
      </trkpt>
      <trkpt lat="45.92657" lon="5.6536">
        <ele>595.8</ele>
        <time>2026-05-13T09:05:11Z</time>
      </trkpt>
      <trkpt lat="45.92658" lon="5.65364">
        <ele>595.6</ele>
        <time>2026-05-13T09:05:12Z</time>
      </trkpt>
      <trkpt lat="45.92658" lon="5.65368">
        <ele>595.2</ele>
        <time>2026-05-13T09:05:13Z</time>
      </trkpt>
      <trkpt lat="45.92658" lon="5.65374">
        <ele>594.8</ele>
        <time>2026-05-13T09:05:14Z</time>
      </trkpt>
      <trkpt lat="45.92659" lon="5.65379">
        <ele>594.2</ele>
        <time>2026-05-13T09:05:15Z</time>
      </trkpt>
      <trkpt lat="45.92659" lon="5.65385">
        <ele>593.6</ele>
        <time>2026-05-13T09:05:16Z</time>
      </trkpt>
      <trkpt lat="45.92659" lon="5.65392">
        <ele>593</ele>
        <time>2026-05-13T09:05:17Z</time>
      </trkpt>
      <trkpt lat="45.9266" lon="5.65399">
        <ele>592.6</ele>
        <time>2026-05-13T09:05:18Z</time>
      </trkpt>
      <trkpt lat="45.9266" lon="5.65399">
        <ele>591.8</ele>
        <time>2026-05-13T09:05:19Z</time>
      </trkpt>
      <trkpt lat="45.92661" lon="5.65407">
        <ele>591.8</ele>
        <time>2026-05-13T09:05:20Z</time>
      </trkpt>
      <trkpt lat="45.92661" lon="5.65415">
        <ele>591.2</ele>
        <time>2026-05-13T09:05:21Z</time>
      </trkpt>
      <trkpt lat="45.92663" lon="5.65424">
        <ele>590.2</ele>
        <time>2026-05-13T09:05:22Z</time>
      </trkpt>
      <trkpt lat="45.92663" lon="5.65434">
        <ele>588.6</ele>
        <time>2026-05-13T09:05:23Z</time>
      </trkpt>
      <trkpt lat="45.92665" lon="5.65442">
        <ele>587.6</ele>
        <time>2026-05-13T09:05:24Z</time>
      </trkpt>
      <trkpt lat="45.92667" lon="5.65451">
        <ele>587.4</ele>
        <time>2026-05-13T09:05:25Z</time>
      </trkpt>
      <trkpt lat="45.92669" lon="5.65459">
        <ele>586.8</ele>
        <time>2026-05-13T09:05:26Z</time>
      </trkpt>
      <trkpt lat="45.9267" lon="5.65467">
        <ele>586.8</ele>
        <time>2026-05-13T09:05:27Z</time>
      </trkpt>
      <trkpt lat="45.92671" lon="5.65476">
        <ele>586.4</ele>
        <time>2026-05-13T09:05:28Z</time>
      </trkpt>
      <trkpt lat="45.92672" lon="5.65484">
        <ele>586.4</ele>
        <time>2026-05-13T09:05:29Z</time>
      </trkpt>
      <trkpt lat="45.92673" lon="5.65493">
        <ele>586</ele>
        <time>2026-05-13T09:05:30Z</time>
      </trkpt>
      <trkpt lat="45.92673" lon="5.655">
        <ele>586</ele>
        <time>2026-05-13T09:05:31Z</time>
      </trkpt>
      <trkpt lat="45.92675" lon="5.65506">
        <ele>585.4</ele>
        <time>2026-05-13T09:05:32Z</time>
      </trkpt>
      <trkpt lat="45.92675" lon="5.65511">
        <ele>585.6</ele>
        <time>2026-05-13T09:05:33Z</time>
      </trkpt>
      <trkpt lat="45.92677" lon="5.65515">
        <ele>585.6</ele>
        <time>2026-05-13T09:05:34Z</time>
      </trkpt>
      <trkpt lat="45.92677" lon="5.65519">
        <ele>585.4</ele>
        <time>2026-05-13T09:05:35Z</time>
      </trkpt>
      <trkpt lat="45.92678" lon="5.65525">
        <ele>584.8</ele>
        <time>2026-05-13T09:05:36Z</time>
      </trkpt>
      <trkpt lat="45.92679" lon="5.65529">
        <ele>584.6</ele>
        <time>2026-05-13T09:05:37Z</time>
      </trkpt>
      <trkpt lat="45.9268" lon="5.65533">
        <ele>584.2</ele>
        <time>2026-05-13T09:05:38Z</time>
      </trkpt>
      <trkpt lat="45.9268" lon="5.65538">
        <ele>584.2</ele>
        <time>2026-05-13T09:05:39Z</time>
      </trkpt>
      <trkpt lat="45.9268" lon="5.65541">
        <ele>584.2</ele>
        <time>2026-05-13T09:05:40Z</time>
      </trkpt>
      <trkpt lat="45.92682" lon="5.65546">
        <ele>584.8</ele>
        <time>2026-05-13T09:05:41Z</time>
      </trkpt>
      <trkpt lat="45.92683" lon="5.65551">
        <ele>584.2</ele>
        <time>2026-05-13T09:05:42Z</time>
      </trkpt>
      <trkpt lat="45.92684" lon="5.65556">
        <ele>584</ele>
        <time>2026-05-13T09:05:43Z</time>
      </trkpt>
      <trkpt lat="45.92684" lon="5.65561">
        <ele>584</ele>
        <time>2026-05-13T09:05:44Z</time>
      </trkpt>
      <trkpt lat="45.92685" lon="5.65567">
        <ele>584</ele>
        <time>2026-05-13T09:05:45Z</time>
      </trkpt>
      <trkpt lat="45.92686" lon="5.65572">
        <ele>583.4</ele>
        <time>2026-05-13T09:05:46Z</time>
      </trkpt>
      <trkpt lat="45.92688" lon="5.65578">
        <ele>583.4</ele>
        <time>2026-05-13T09:05:47Z</time>
      </trkpt>
      <trkpt lat="45.92689" lon="5.65584">
        <ele>582.6</ele>
        <time>2026-05-13T09:05:48Z</time>
      </trkpt>
      <trkpt lat="45.9269" lon="5.6559">
        <ele>582.6</ele>
        <time>2026-05-13T09:05:49Z</time>
      </trkpt>
      <trkpt lat="45.92691" lon="5.65596">
        <ele>582.6</ele>
        <time>2026-05-13T09:05:50Z</time>
      </trkpt>
      <trkpt lat="45.92692" lon="5.65601">
        <ele>582.4</ele>
        <time>2026-05-13T09:05:51Z</time>
      </trkpt>
      <trkpt lat="45.92693" lon="5.65605">
        <ele>582.4</ele>
        <time>2026-05-13T09:05:52Z</time>
      </trkpt>
      <trkpt lat="45.92694" lon="5.65608">
        <ele>582.4</ele>
        <time>2026-05-13T09:05:53Z</time>
      </trkpt>
      <trkpt lat="45.92695" lon="5.65612">
        <ele>582.4</ele>
        <time>2026-05-13T09:05:54Z</time>
      </trkpt>
      <trkpt lat="45.92696" lon="5.65615">
        <ele>582.4</ele>
        <time>2026-05-13T09:05:55Z</time>
      </trkpt>
      <trkpt lat="45.92696" lon="5.65617">
        <ele>582.4</ele>
        <time>2026-05-13T09:05:56Z</time>
      </trkpt>
      <trkpt lat="45.92696" lon="5.6562">
        <ele>582.4</ele>
        <time>2026-05-13T09:05:57Z</time>
      </trkpt>
      <trkpt lat="45.92696" lon="5.65622">
        <ele>582.4</ele>
        <time>2026-05-13T09:05:58Z</time>
      </trkpt>
      <trkpt lat="45.92697" lon="5.65626">
        <ele>582</ele>
        <time>2026-05-13T09:05:59Z</time>
      </trkpt>
      <trkpt lat="45.92697" lon="5.6563">
        <ele>581.8</ele>
        <time>2026-05-13T09:06:00Z</time>
      </trkpt>
      <trkpt lat="45.92698" lon="5.65633">
        <ele>581.8</ele>
        <time>2026-05-13T09:06:01Z</time>
      </trkpt>
      <trkpt lat="45.92699" lon="5.65637">
        <ele>581.8</ele>
        <time>2026-05-13T09:06:02Z</time>
      </trkpt>
      <trkpt lat="45.92699" lon="5.65641">
        <ele>581.6</ele>
        <time>2026-05-13T09:06:03Z</time>
      </trkpt>
      <trkpt lat="45.927" lon="5.65646">
        <ele>581.6</ele>
        <time>2026-05-13T09:06:04Z</time>
      </trkpt>
      <trkpt lat="45.927" lon="5.65651">
        <ele>581.6</ele>
        <time>2026-05-13T09:06:05Z</time>
      </trkpt>
      <trkpt lat="45.92701" lon="5.65656">
        <ele>580.8</ele>
        <time>2026-05-13T09:06:06Z</time>
      </trkpt>
      <trkpt lat="45.92701" lon="5.65661">
        <ele>580.8</ele>
        <time>2026-05-13T09:06:07Z</time>
      </trkpt>
      <trkpt lat="45.92702" lon="5.65666">
        <ele>581</ele>
        <time>2026-05-13T09:06:08Z</time>
      </trkpt>
      <trkpt lat="45.92702" lon="5.65672">
        <ele>581</ele>
        <time>2026-05-13T09:06:09Z</time>
      </trkpt>
      <trkpt lat="45.92703" lon="5.65677">
        <ele>580.8</ele>
        <time>2026-05-13T09:06:10Z</time>
      </trkpt>
      <trkpt lat="45.92703" lon="5.65682">
        <ele>580.6</ele>
        <time>2026-05-13T09:06:11Z</time>
      </trkpt>
      <trkpt lat="45.92704" lon="5.65687">
        <ele>580.6</ele>
        <time>2026-05-13T09:06:12Z</time>
      </trkpt>
      <trkpt lat="45.92704" lon="5.65691">
        <ele>580.6</ele>
        <time>2026-05-13T09:06:13Z</time>
      </trkpt>
      <trkpt lat="45.92705" lon="5.65695">
        <ele>580.6</ele>
        <time>2026-05-13T09:06:14Z</time>
      </trkpt>
      <trkpt lat="45.92706" lon="5.65699">
        <ele>580</ele>
        <time>2026-05-13T09:06:15Z</time>
      </trkpt>
      <trkpt lat="45.92707" lon="5.65703">
        <ele>579.8</ele>
        <time>2026-05-13T09:06:16Z</time>
      </trkpt>
      <trkpt lat="45.92708" lon="5.65707">
        <ele>579.4</ele>
        <time>2026-05-13T09:06:17Z</time>
      </trkpt>
      <trkpt lat="45.92709" lon="5.65713">
        <ele>578.8</ele>
        <time>2026-05-13T09:06:18Z</time>
      </trkpt>
      <trkpt lat="45.92711" lon="5.65717">
        <ele>578.8</ele>
        <time>2026-05-13T09:06:19Z</time>
      </trkpt>
      <trkpt lat="45.92713" lon="5.65723">
        <ele>578.8</ele>
        <time>2026-05-13T09:06:20Z</time>
      </trkpt>
      <trkpt lat="45.92715" lon="5.65728">
        <ele>578.6</ele>
        <time>2026-05-13T09:06:21Z</time>
      </trkpt>
      <trkpt lat="45.92717" lon="5.65734">
        <ele>578.6</ele>
        <time>2026-05-13T09:06:22Z</time>
      </trkpt>
      <trkpt lat="45.92719" lon="5.6574">
        <ele>578</ele>
        <time>2026-05-13T09:06:23Z</time>
      </trkpt>
      <trkpt lat="45.92722" lon="5.65745">
        <ele>577.6</ele>
        <time>2026-05-13T09:06:24Z</time>
      </trkpt>
      <trkpt lat="45.92724" lon="5.65751">
        <ele>577.2</ele>
        <time>2026-05-13T09:06:25Z</time>
      </trkpt>
      <trkpt lat="45.92724" lon="5.65751">
        <ele>577.2</ele>
        <time>2026-05-13T09:06:26Z</time>
      </trkpt>
      <trkpt lat="45.92734" lon="5.65769">
        <ele>577</ele>
        <time>2026-05-13T09:06:29Z</time>
      </trkpt>
      <trkpt lat="45.92736" lon="5.65772">
        <ele>577</ele>
        <time>2026-05-13T09:06:30Z</time>
      </trkpt>
      <trkpt lat="45.92739" lon="5.65776">
        <ele>576.6</ele>
        <time>2026-05-13T09:06:31Z</time>
      </trkpt>
      <trkpt lat="45.92741" lon="5.65781">
        <ele>576.2</ele>
        <time>2026-05-13T09:06:32Z</time>
      </trkpt>
      <trkpt lat="45.92744" lon="5.65785">
        <ele>575.8</ele>
        <time>2026-05-13T09:06:33Z</time>
      </trkpt>
      <trkpt lat="45.9275" lon="5.65794">
        <ele>575.8</ele>
        <time>2026-05-13T09:06:34Z</time>
      </trkpt>
      <trkpt lat="45.92752" lon="5.65799">
        <ele>575.6</ele>
        <time>2026-05-13T09:06:35Z</time>
      </trkpt>
      <trkpt lat="45.92755" lon="5.65804">
        <ele>575.6</ele>
        <time>2026-05-13T09:06:36Z</time>
      </trkpt>
      <trkpt lat="45.92758" lon="5.65808">
        <ele>575</ele>
        <time>2026-05-13T09:06:37Z</time>
      </trkpt>
      <trkpt lat="45.92761" lon="5.65814">
        <ele>574.4</ele>
        <time>2026-05-13T09:06:38Z</time>
      </trkpt>
      <trkpt lat="45.92763" lon="5.6582">
        <ele>574.4</ele>
        <time>2026-05-13T09:06:39Z</time>
      </trkpt>
      <trkpt lat="45.92767" lon="5.65825">
        <ele>573.4</ele>
        <time>2026-05-13T09:06:40Z</time>
      </trkpt>
      <trkpt lat="45.9277" lon="5.6583">
        <ele>573.4</ele>
        <time>2026-05-13T09:06:41Z</time>
      </trkpt>
      <trkpt lat="45.92773" lon="5.65836">
        <ele>573</ele>
        <time>2026-05-13T09:06:42Z</time>
      </trkpt>
      <trkpt lat="45.92776" lon="5.6584">
        <ele>572.2</ele>
        <time>2026-05-13T09:06:43Z</time>
      </trkpt>
      <trkpt lat="45.92779" lon="5.65846">
        <ele>572</ele>
        <time>2026-05-13T09:06:44Z</time>
      </trkpt>
      <trkpt lat="45.92781" lon="5.65851">
        <ele>571.4</ele>
        <time>2026-05-13T09:06:45Z</time>
      </trkpt>
      <trkpt lat="45.92783" lon="5.65856">
        <ele>571</ele>
        <time>2026-05-13T09:06:46Z</time>
      </trkpt>
      <trkpt lat="45.92787" lon="5.65861">
        <ele>570.4</ele>
        <time>2026-05-13T09:06:47Z</time>
      </trkpt>
      <trkpt lat="45.92788" lon="5.65866">
        <ele>569.6</ele>
        <time>2026-05-13T09:06:48Z</time>
      </trkpt>
      <trkpt lat="45.9279" lon="5.65869">
        <ele>569.6</ele>
        <time>2026-05-13T09:06:49Z</time>
      </trkpt>
      <trkpt lat="45.92792" lon="5.65874">
        <ele>569.2</ele>
        <time>2026-05-13T09:06:50Z</time>
      </trkpt>
      <trkpt lat="45.92793" lon="5.65877">
        <ele>568.8</ele>
        <time>2026-05-13T09:06:51Z</time>
      </trkpt>
      <trkpt lat="45.92793" lon="5.6588">
        <ele>568.8</ele>
        <time>2026-05-13T09:06:52Z</time>
      </trkpt>
      <trkpt lat="45.92792" lon="5.65884">
        <ele>568.8</ele>
        <time>2026-05-13T09:06:53Z</time>
      </trkpt>
      <trkpt lat="45.92793" lon="5.65886">
        <ele>568</ele>
        <time>2026-05-13T09:06:54Z</time>
      </trkpt>
      <trkpt lat="45.92793" lon="5.65891">
        <ele>567.4</ele>
        <time>2026-05-13T09:06:55Z</time>
      </trkpt>
      <trkpt lat="45.92794" lon="5.65896">
        <ele>567.2</ele>
        <time>2026-05-13T09:06:56Z</time>
      </trkpt>
      <trkpt lat="45.92793" lon="5.65901">
        <ele>566.4</ele>
        <time>2026-05-13T09:06:57Z</time>
      </trkpt>
      <trkpt lat="45.92794" lon="5.65906">
        <ele>565.8</ele>
        <time>2026-05-13T09:06:58Z</time>
      </trkpt>
      <trkpt lat="45.92793" lon="5.65911">
        <ele>565.2</ele>
        <time>2026-05-13T09:06:59Z</time>
      </trkpt>
      <trkpt lat="45.92792" lon="5.65917">
        <ele>564.6</ele>
        <time>2026-05-13T09:07:00Z</time>
      </trkpt>
      <trkpt lat="45.92791" lon="5.65923">
        <ele>564.2</ele>
        <time>2026-05-13T09:07:01Z</time>
      </trkpt>
      <trkpt lat="45.92791" lon="5.65923">
        <ele>563.2</ele>
        <time>2026-05-13T09:07:02Z</time>
      </trkpt>
      <trkpt lat="45.92787" lon="5.65937">
        <ele>562.4</ele>
        <time>2026-05-13T09:07:03Z</time>
      </trkpt>
      <trkpt lat="45.92786" lon="5.65944">
        <ele>562.6</ele>
        <time>2026-05-13T09:07:04Z</time>
      </trkpt>
      <trkpt lat="45.92785" lon="5.6595">
        <ele>562.2</ele>
        <time>2026-05-13T09:07:05Z</time>
      </trkpt>
      <trkpt lat="45.92783" lon="5.65956">
        <ele>561.2</ele>
        <time>2026-05-13T09:07:06Z</time>
      </trkpt>
      <trkpt lat="45.92781" lon="5.65963">
        <ele>561</ele>
        <time>2026-05-13T09:07:07Z</time>
      </trkpt>
      <trkpt lat="45.92779" lon="5.6597">
        <ele>561</ele>
        <time>2026-05-13T09:07:08Z</time>
      </trkpt>
      <trkpt lat="45.92778" lon="5.65975">
        <ele>560.6</ele>
        <time>2026-05-13T09:07:09Z</time>
      </trkpt>
      <trkpt lat="45.92776" lon="5.65981">
        <ele>560.2</ele>
        <time>2026-05-13T09:07:10Z</time>
      </trkpt>
      <trkpt lat="45.92775" lon="5.65985">
        <ele>559.6</ele>
        <time>2026-05-13T09:07:11Z</time>
      </trkpt>
      <trkpt lat="45.92774" lon="5.6599">
        <ele>559.6</ele>
        <time>2026-05-13T09:07:12Z</time>
      </trkpt>
      <trkpt lat="45.92774" lon="5.65994">
        <ele>559.6</ele>
        <time>2026-05-13T09:07:13Z</time>
      </trkpt>
      <trkpt lat="45.92773" lon="5.65999">
        <ele>558.8</ele>
        <time>2026-05-13T09:07:14Z</time>
      </trkpt>
      <trkpt lat="45.92772" lon="5.66002">
        <ele>558.8</ele>
        <time>2026-05-13T09:07:15Z</time>
      </trkpt>
      <trkpt lat="45.92771" lon="5.66005">
        <ele>558.8</ele>
        <time>2026-05-13T09:07:16Z</time>
      </trkpt>
      <trkpt lat="45.9277" lon="5.66009">
        <ele>558.8</ele>
        <time>2026-05-13T09:07:17Z</time>
      </trkpt>
      <trkpt lat="45.9277" lon="5.66012">
        <ele>558.8</ele>
        <time>2026-05-13T09:07:18Z</time>
      </trkpt>
      <trkpt lat="45.92769" lon="5.66015">
        <ele>559</ele>
        <time>2026-05-13T09:07:19Z</time>
      </trkpt>
      <trkpt lat="45.92769" lon="5.66019">
        <ele>559</ele>
        <time>2026-05-13T09:07:20Z</time>
      </trkpt>
      <trkpt lat="45.92768" lon="5.66022">
        <ele>559</ele>
        <time>2026-05-13T09:07:21Z</time>
      </trkpt>
      <trkpt lat="45.92768" lon="5.66025">
        <ele>558.4</ele>
        <time>2026-05-13T09:07:22Z</time>
      </trkpt>
      <trkpt lat="45.92767" lon="5.66027">
        <ele>558.4</ele>
        <time>2026-05-13T09:07:23Z</time>
      </trkpt>
      <trkpt lat="45.92766" lon="5.66029">
        <ele>558.4</ele>
        <time>2026-05-13T09:07:24Z</time>
      </trkpt>
      <trkpt lat="45.92766" lon="5.6603">
        <ele>558.4</ele>
        <time>2026-05-13T09:07:25Z</time>
      </trkpt>
      <trkpt lat="45.92765" lon="5.66032">
        <ele>558.4</ele>
        <time>2026-05-13T09:07:26Z</time>
      </trkpt>
      <trkpt lat="45.92763" lon="5.66036">
        <ele>558.4</ele>
        <time>2026-05-13T09:07:27Z</time>
      </trkpt>
      <trkpt lat="45.92762" lon="5.66041">
        <ele>558</ele>
        <time>2026-05-13T09:07:28Z</time>
      </trkpt>
      <trkpt lat="45.92761" lon="5.66045">
        <ele>557.8</ele>
        <time>2026-05-13T09:07:29Z</time>
      </trkpt>
      <trkpt lat="45.9276" lon="5.6605">
        <ele>557.2</ele>
        <time>2026-05-13T09:07:30Z</time>
      </trkpt>
      <trkpt lat="45.92759" lon="5.66055">
        <ele>556.8</ele>
        <time>2026-05-13T09:07:31Z</time>
      </trkpt>
      <trkpt lat="45.92757" lon="5.66059">
        <ele>556.4</ele>
        <time>2026-05-13T09:07:32Z</time>
      </trkpt>
      <trkpt lat="45.92756" lon="5.66064">
        <ele>556.6</ele>
        <time>2026-05-13T09:07:33Z</time>
      </trkpt>
      <trkpt lat="45.92753" lon="5.66069">
        <ele>556.4</ele>
        <time>2026-05-13T09:07:34Z</time>
      </trkpt>
      <trkpt lat="45.92751" lon="5.66074">
        <ele>556.8</ele>
        <time>2026-05-13T09:07:35Z</time>
      </trkpt>
      <trkpt lat="45.92749" lon="5.66079">
        <ele>556.8</ele>
        <time>2026-05-13T09:07:36Z</time>
      </trkpt>
      <trkpt lat="45.92746" lon="5.66085">
        <ele>556.6</ele>
        <time>2026-05-13T09:07:37Z</time>
      </trkpt>
      <trkpt lat="45.92744" lon="5.66089">
        <ele>556</ele>
        <time>2026-05-13T09:07:38Z</time>
      </trkpt>
      <trkpt lat="45.92741" lon="5.66096">
        <ele>555.8</ele>
        <time>2026-05-13T09:07:39Z</time>
      </trkpt>
      <trkpt lat="45.92739" lon="5.66101">
        <ele>555.2</ele>
        <time>2026-05-13T09:07:40Z</time>
      </trkpt>
      <trkpt lat="45.92737" lon="5.66106">
        <ele>554.2</ele>
        <time>2026-05-13T09:07:41Z</time>
      </trkpt>
      <trkpt lat="45.92735" lon="5.66111">
        <ele>553.8</ele>
        <time>2026-05-13T09:07:42Z</time>
      </trkpt>
      <trkpt lat="45.92732" lon="5.66116">
        <ele>553.8</ele>
        <time>2026-05-13T09:07:43Z</time>
      </trkpt>
      <trkpt lat="45.9273" lon="5.66121">
        <ele>552.8</ele>
        <time>2026-05-13T09:07:44Z</time>
      </trkpt>
      <trkpt lat="45.92727" lon="5.66127">
        <ele>552</ele>
        <time>2026-05-13T09:07:45Z</time>
      </trkpt>
      <trkpt lat="45.92725" lon="5.66131">
        <ele>551.4</ele>
        <time>2026-05-13T09:07:46Z</time>
      </trkpt>
      <trkpt lat="45.92722" lon="5.66137">
        <ele>551.2</ele>
        <time>2026-05-13T09:07:47Z</time>
      </trkpt>
      <trkpt lat="45.92719" lon="5.66141">
        <ele>551.2</ele>
        <time>2026-05-13T09:07:48Z</time>
      </trkpt>
      <trkpt lat="45.92717" lon="5.66146">
        <ele>551</ele>
        <time>2026-05-13T09:07:49Z</time>
      </trkpt>
      <trkpt lat="45.92715" lon="5.66151">
        <ele>551</ele>
        <time>2026-05-13T09:07:50Z</time>
      </trkpt>
      <trkpt lat="45.92714" lon="5.66155">
        <ele>549.4</ele>
        <time>2026-05-13T09:07:51Z</time>
      </trkpt>
      <trkpt lat="45.92715" lon="5.6616">
        <ele>549.2</ele>
        <time>2026-05-13T09:07:52Z</time>
      </trkpt>
      <trkpt lat="45.92716" lon="5.66164">
        <ele>548.8</ele>
        <time>2026-05-13T09:07:53Z</time>
      </trkpt>
      <trkpt lat="45.92716" lon="5.66164">
        <ele>548.8</ele>
        <time>2026-05-13T09:07:54Z</time>
      </trkpt>
      <trkpt lat="45.92716" lon="5.66169">
        <ele>548.4</ele>
        <time>2026-05-13T09:07:55Z</time>
      </trkpt>
      <trkpt lat="45.92717" lon="5.66174">
        <ele>548.4</ele>
        <time>2026-05-13T09:07:56Z</time>
      </trkpt>
      <trkpt lat="45.92718" lon="5.66179">
        <ele>548.2</ele>
        <time>2026-05-13T09:07:57Z</time>
      </trkpt>
      <trkpt lat="45.92718" lon="5.66184">
        <ele>548.2</ele>
        <time>2026-05-13T09:07:58Z</time>
      </trkpt>
      <trkpt lat="45.92719" lon="5.66189">
        <ele>548</ele>
        <time>2026-05-13T09:07:59Z</time>
      </trkpt>
      <trkpt lat="45.9272" lon="5.66194">
        <ele>548</ele>
        <time>2026-05-13T09:08:00Z</time>
      </trkpt>
      <trkpt lat="45.9272" lon="5.66199">
        <ele>548</ele>
        <time>2026-05-13T09:08:01Z</time>
      </trkpt>
      <trkpt lat="45.92721" lon="5.66204">
        <ele>548.2</ele>
        <time>2026-05-13T09:08:02Z</time>
      </trkpt>
      <trkpt lat="45.92721" lon="5.66209">
        <ele>547.8</ele>
        <time>2026-05-13T09:08:03Z</time>
      </trkpt>
      <trkpt lat="45.92721" lon="5.66213">
        <ele>547.8</ele>
        <time>2026-05-13T09:08:04Z</time>
      </trkpt>
      <trkpt lat="45.92721" lon="5.66219">
        <ele>547.8</ele>
        <time>2026-05-13T09:08:05Z</time>
      </trkpt>
      <trkpt lat="45.9272" lon="5.66224">
        <ele>548.2</ele>
        <time>2026-05-13T09:08:06Z</time>
      </trkpt>
      <trkpt lat="45.92719" lon="5.66229">
        <ele>548.4</ele>
        <time>2026-05-13T09:08:07Z</time>
      </trkpt>
      <trkpt lat="45.92718" lon="5.66234">
        <ele>548.4</ele>
        <time>2026-05-13T09:08:08Z</time>
      </trkpt>
      <trkpt lat="45.92717" lon="5.66239">
        <ele>548.4</ele>
        <time>2026-05-13T09:08:09Z</time>
      </trkpt>
      <trkpt lat="45.92716" lon="5.66243">
        <ele>549</ele>
        <time>2026-05-13T09:08:10Z</time>
      </trkpt>
      <trkpt lat="45.92715" lon="5.66247">
        <ele>549.2</ele>
        <time>2026-05-13T09:08:11Z</time>
      </trkpt>
      <trkpt lat="45.92715" lon="5.66251">
        <ele>549.2</ele>
        <time>2026-05-13T09:08:12Z</time>
      </trkpt>
      <trkpt lat="45.92715" lon="5.66254">
        <ele>549.6</ele>
        <time>2026-05-13T09:08:13Z</time>
      </trkpt>
      <trkpt lat="45.92715" lon="5.66258">
        <ele>549.8</ele>
        <time>2026-05-13T09:08:14Z</time>
      </trkpt>
      <trkpt lat="45.92714" lon="5.66261">
        <ele>549.8</ele>
        <time>2026-05-13T09:08:15Z</time>
      </trkpt>
      <trkpt lat="45.92714" lon="5.66265">
        <ele>550</ele>
        <time>2026-05-13T09:08:16Z</time>
      </trkpt>
      <trkpt lat="45.92713" lon="5.66268">
        <ele>550</ele>
        <time>2026-05-13T09:08:17Z</time>
      </trkpt>
      <trkpt lat="45.92713" lon="5.6627">
        <ele>550.4</ele>
        <time>2026-05-13T09:08:18Z</time>
      </trkpt>
      <trkpt lat="45.92714" lon="5.66273">
        <ele>550.4</ele>
        <time>2026-05-13T09:08:19Z</time>
      </trkpt>
      <trkpt lat="45.92714" lon="5.66276">
        <ele>550.4</ele>
        <time>2026-05-13T09:08:20Z</time>
      </trkpt>
      <trkpt lat="45.92714" lon="5.6628">
        <ele>550.4</ele>
        <time>2026-05-13T09:08:21Z</time>
      </trkpt>
      <trkpt lat="45.92714" lon="5.66283">
        <ele>550.4</ele>
        <time>2026-05-13T09:08:22Z</time>
      </trkpt>
      <trkpt lat="45.92714" lon="5.66287">
        <ele>550.4</ele>
        <time>2026-05-13T09:08:23Z</time>
      </trkpt>
      <trkpt lat="45.92714" lon="5.6629">
        <ele>550.4</ele>
        <time>2026-05-13T09:08:24Z</time>
      </trkpt>
      <trkpt lat="45.92715" lon="5.66294">
        <ele>550.4</ele>
        <time>2026-05-13T09:08:25Z</time>
      </trkpt>
      <trkpt lat="45.92715" lon="5.66297">
        <ele>550.2</ele>
        <time>2026-05-13T09:08:26Z</time>
      </trkpt>
      <trkpt lat="45.92715" lon="5.66301">
        <ele>550.2</ele>
        <time>2026-05-13T09:08:27Z</time>
      </trkpt>
      <trkpt lat="45.92716" lon="5.66306">
        <ele>549.4</ele>
        <time>2026-05-13T09:08:28Z</time>
      </trkpt>
      <trkpt lat="45.92717" lon="5.66311">
        <ele>549</ele>
        <time>2026-05-13T09:08:29Z</time>
      </trkpt>
      <trkpt lat="45.92718" lon="5.66317">
        <ele>549</ele>
        <time>2026-05-13T09:08:30Z</time>
      </trkpt>
      <trkpt lat="45.9272" lon="5.66322">
        <ele>548.6</ele>
        <time>2026-05-13T09:08:31Z</time>
      </trkpt>
      <trkpt lat="45.9272" lon="5.66325">
        <ele>548.6</ele>
        <time>2026-05-13T09:08:32Z</time>
      </trkpt>
      <trkpt lat="45.9272" lon="5.66327">
        <ele>548.6</ele>
        <time>2026-05-13T09:08:33Z</time>
      </trkpt>
      <trkpt lat="45.92721" lon="5.66328">
        <ele>548.8</ele>
        <time>2026-05-13T09:08:34Z</time>
      </trkpt>
      <trkpt lat="45.92721" lon="5.66328">
        <ele>548.8</ele>
        <time>2026-05-13T09:08:35Z</time>
      </trkpt>
      <trkpt lat="45.92721" lon="5.66333">
        <ele>548.6</ele>
        <time>2026-05-13T09:09:40Z</time>
      </trkpt>
      <trkpt lat="45.92722" lon="5.66336">
        <ele>548.6</ele>
        <time>2026-05-13T09:09:41Z</time>
      </trkpt>
      <trkpt lat="45.92724" lon="5.66338">
        <ele>548.6</ele>
        <time>2026-05-13T09:09:42Z</time>
      </trkpt>
      <trkpt lat="45.92726" lon="5.66341">
        <ele>548.2</ele>
        <time>2026-05-13T09:09:43Z</time>
      </trkpt>
      <trkpt lat="45.92728" lon="5.66344">
        <ele>548.2</ele>
        <time>2026-05-13T09:09:44Z</time>
      </trkpt>
      <trkpt lat="45.92731" lon="5.66347">
        <ele>547.8</ele>
        <time>2026-05-13T09:09:45Z</time>
      </trkpt>
      <trkpt lat="45.92734" lon="5.66351">
        <ele>547.8</ele>
        <time>2026-05-13T09:09:46Z</time>
      </trkpt>
      <trkpt lat="45.92737" lon="5.66354">
        <ele>547.8</ele>
        <time>2026-05-13T09:09:47Z</time>
      </trkpt>
      <trkpt lat="45.9274" lon="5.66358">
        <ele>547.6</ele>
        <time>2026-05-13T09:09:48Z</time>
      </trkpt>
      <trkpt lat="45.92742" lon="5.66362">
        <ele>547.6</ele>
        <time>2026-05-13T09:09:49Z</time>
      </trkpt>
      <trkpt lat="45.92744" lon="5.66367">
        <ele>547.6</ele>
        <time>2026-05-13T09:09:50Z</time>
      </trkpt>
      <trkpt lat="45.92746" lon="5.6637">
        <ele>547.4</ele>
        <time>2026-05-13T09:09:51Z</time>
      </trkpt>
      <trkpt lat="45.92748" lon="5.66374">
        <ele>547.4</ele>
        <time>2026-05-13T09:09:52Z</time>
      </trkpt>
      <trkpt lat="45.9275" lon="5.66377">
        <ele>547.4</ele>
        <time>2026-05-13T09:09:53Z</time>
      </trkpt>
      <trkpt lat="45.92752" lon="5.6638">
        <ele>547.4</ele>
        <time>2026-05-13T09:09:54Z</time>
      </trkpt>
      <trkpt lat="45.92753" lon="5.66383">
        <ele>547.4</ele>
        <time>2026-05-13T09:09:55Z</time>
      </trkpt>
      <trkpt lat="45.92755" lon="5.66387">
        <ele>547.6</ele>
        <time>2026-05-13T09:09:56Z</time>
      </trkpt>
      <trkpt lat="45.92756" lon="5.66391">
        <ele>547.6</ele>
        <time>2026-05-13T09:09:57Z</time>
      </trkpt>
      <trkpt lat="45.92757" lon="5.66394">
        <ele>547.6</ele>
        <time>2026-05-13T09:09:58Z</time>
      </trkpt>
      <trkpt lat="45.92757" lon="5.66398">
        <ele>547.6</ele>
        <time>2026-05-13T09:09:59Z</time>
      </trkpt>
      <trkpt lat="45.92757" lon="5.66403">
        <ele>547.6</ele>
        <time>2026-05-13T09:10:00Z</time>
      </trkpt>
      <trkpt lat="45.92757" lon="5.66407">
        <ele>547.6</ele>
        <time>2026-05-13T09:10:01Z</time>
      </trkpt>
      <trkpt lat="45.92757" lon="5.66412">
        <ele>547.6</ele>
        <time>2026-05-13T09:10:02Z</time>
      </trkpt>
      <trkpt lat="45.92756" lon="5.66416">
        <ele>547.6</ele>
        <time>2026-05-13T09:10:03Z</time>
      </trkpt>
      <trkpt lat="45.92757" lon="5.66422">
        <ele>547.6</ele>
        <time>2026-05-13T09:10:04Z</time>
      </trkpt>
      <trkpt lat="45.92757" lon="5.66427">
        <ele>547.6</ele>
        <time>2026-05-13T09:10:05Z</time>
      </trkpt>
      <trkpt lat="45.92757" lon="5.66431">
        <ele>547.8</ele>
        <time>2026-05-13T09:10:06Z</time>
      </trkpt>
      <trkpt lat="45.92757" lon="5.66436">
        <ele>547.8</ele>
        <time>2026-05-13T09:10:07Z</time>
      </trkpt>
      <trkpt lat="45.92757" lon="5.6644">
        <ele>548.2</ele>
        <time>2026-05-13T09:10:08Z</time>
      </trkpt>
      <trkpt lat="45.92757" lon="5.66445">
        <ele>548.4</ele>
        <time>2026-05-13T09:10:09Z</time>
      </trkpt>
      <trkpt lat="45.92756" lon="5.66449">
        <ele>548.8</ele>
        <time>2026-05-13T09:10:10Z</time>
      </trkpt>
      <trkpt lat="45.92756" lon="5.66453">
        <ele>549</ele>
        <time>2026-05-13T09:10:11Z</time>
      </trkpt>
      <trkpt lat="45.92756" lon="5.66457">
        <ele>549.4</ele>
        <time>2026-05-13T09:10:12Z</time>
      </trkpt>
      <trkpt lat="45.92756" lon="5.6646">
        <ele>549.4</ele>
        <time>2026-05-13T09:10:13Z</time>
      </trkpt>
      <trkpt lat="45.92755" lon="5.66463">
        <ele>549.8</ele>
        <time>2026-05-13T09:10:14Z</time>
      </trkpt>
      <trkpt lat="45.92755" lon="5.66466">
        <ele>549.8</ele>
        <time>2026-05-13T09:10:15Z</time>
      </trkpt>
      <trkpt lat="45.92754" lon="5.66469">
        <ele>549.8</ele>
        <time>2026-05-13T09:10:16Z</time>
      </trkpt>
      <trkpt lat="45.92754" lon="5.66471">
        <ele>550</ele>
        <time>2026-05-13T09:10:17Z</time>
      </trkpt>
      <trkpt lat="45.92753" lon="5.66474">
        <ele>550</ele>
        <time>2026-05-13T09:10:18Z</time>
      </trkpt>
      <trkpt lat="45.92753" lon="5.66476">
        <ele>550.4</ele>
        <time>2026-05-13T09:10:19Z</time>
      </trkpt>
      <trkpt lat="45.92753" lon="5.66478">
        <ele>550.4</ele>
        <time>2026-05-13T09:10:20Z</time>
      </trkpt>
      <trkpt lat="45.92753" lon="5.6648">
        <ele>550.4</ele>
        <time>2026-05-13T09:10:21Z</time>
      </trkpt>
      <trkpt lat="45.92753" lon="5.66482">
        <ele>550.4</ele>
        <time>2026-05-13T09:10:22Z</time>
      </trkpt>
      <trkpt lat="45.92753" lon="5.66484">
        <ele>550.8</ele>
        <time>2026-05-13T09:10:23Z</time>
      </trkpt>
      <trkpt lat="45.92753" lon="5.66487">
        <ele>550.8</ele>
        <time>2026-05-13T09:10:24Z</time>
      </trkpt>
      <trkpt lat="45.92753" lon="5.66489">
        <ele>550.8</ele>
        <time>2026-05-13T09:10:25Z</time>
      </trkpt>
      <trkpt lat="45.92754" lon="5.66491">
        <ele>550.8</ele>
        <time>2026-05-13T09:10:26Z</time>
      </trkpt>
      <trkpt lat="45.92754" lon="5.66491">
        <ele>550.8</ele>
        <time>2026-05-13T09:10:27Z</time>
      </trkpt>
      <trkpt lat="45.92754" lon="5.6649">
        <ele>551</ele>
        <time>2026-05-13T09:10:28Z</time>
      </trkpt>
      <trkpt lat="45.92755" lon="5.66491">
        <ele>551</ele>
        <time>2026-05-13T09:10:31Z</time>
      </trkpt>
      <trkpt lat="45.92756" lon="5.66492">
        <ele>551</ele>
        <time>2026-05-13T09:10:32Z</time>
      </trkpt>
      <trkpt lat="45.92757" lon="5.66495">
        <ele>551</ele>
        <time>2026-05-13T09:10:33Z</time>
      </trkpt>
      <trkpt lat="45.92758" lon="5.66497">
        <ele>551</ele>
        <time>2026-05-13T09:10:34Z</time>
      </trkpt>
      <trkpt lat="45.92759" lon="5.66498">
        <ele>551</ele>
        <time>2026-05-13T09:10:35Z</time>
      </trkpt>
      <trkpt lat="45.9276" lon="5.665">
        <ele>551</ele>
        <time>2026-05-13T09:10:36Z</time>
      </trkpt>
      <trkpt lat="45.92761" lon="5.66501">
        <ele>551</ele>
        <time>2026-05-13T09:10:37Z</time>
      </trkpt>
      <trkpt lat="45.92763" lon="5.66502">
        <ele>551</ele>
        <time>2026-05-13T09:10:38Z</time>
      </trkpt>
      <trkpt lat="45.92764" lon="5.66501">
        <ele>551</ele>
        <time>2026-05-13T09:10:39Z</time>
      </trkpt>
      <trkpt lat="45.92764" lon="5.66498">
        <ele>551</ele>
        <time>2026-05-13T09:10:40Z</time>
      </trkpt>
      <trkpt lat="45.92763" lon="5.66496">
        <ele>551</ele>
        <time>2026-05-13T09:10:41Z</time>
      </trkpt>
      <trkpt lat="45.92761" lon="5.66494">
        <ele>551</ele>
        <time>2026-05-13T09:10:42Z</time>
      </trkpt>
      <trkpt lat="45.92758" lon="5.66492">
        <ele>550.8</ele>
        <time>2026-05-13T09:10:43Z</time>
      </trkpt>
      <trkpt lat="45.92756" lon="5.6649">
        <ele>550.8</ele>
        <time>2026-05-13T09:10:44Z</time>
      </trkpt>
      <trkpt lat="45.92755" lon="5.66488">
        <ele>550.8</ele>
        <time>2026-05-13T09:10:45Z</time>
      </trkpt>
      <trkpt lat="45.92755" lon="5.66486">
        <ele>550.8</ele>
        <time>2026-05-13T09:10:46Z</time>
      </trkpt>
      <trkpt lat="45.92756" lon="5.66484">
        <ele>550.8</ele>
        <time>2026-05-13T09:10:47Z</time>
      </trkpt>
      <trkpt lat="45.92759" lon="5.66483">
        <ele>550.8</ele>
        <time>2026-05-13T09:10:48Z</time>
      </trkpt>
      <trkpt lat="45.92761" lon="5.66483">
        <ele>550.8</ele>
        <time>2026-05-13T09:10:49Z</time>
      </trkpt>
      <trkpt lat="45.92763" lon="5.66484">
        <ele>550.8</ele>
        <time>2026-05-13T09:10:50Z</time>
      </trkpt>
      <trkpt lat="45.92765" lon="5.66485">
        <ele>551.2</ele>
        <time>2026-05-13T09:10:51Z</time>
      </trkpt>
      <trkpt lat="45.92767" lon="5.66488">
        <ele>551.2</ele>
        <time>2026-05-13T09:10:52Z</time>
      </trkpt>
      <trkpt lat="45.92768" lon="5.66491">
        <ele>551.2</ele>
        <time>2026-05-13T09:10:53Z</time>
      </trkpt>
      <trkpt lat="45.92769" lon="5.66494">
        <ele>551.2</ele>
        <time>2026-05-13T09:10:54Z</time>
      </trkpt>
      <trkpt lat="45.92769" lon="5.66497">
        <ele>551.2</ele>
        <time>2026-05-13T09:10:55Z</time>
      </trkpt>
      <trkpt lat="45.92769" lon="5.66501">
        <ele>551.2</ele>
        <time>2026-05-13T09:10:56Z</time>
      </trkpt>
      <trkpt lat="45.92769" lon="5.66504">
        <ele>551.2</ele>
        <time>2026-05-13T09:10:57Z</time>
      </trkpt>
      <trkpt lat="45.92769" lon="5.66508">
        <ele>551.4</ele>
        <time>2026-05-13T09:10:58Z</time>
      </trkpt>
      <trkpt lat="45.9277" lon="5.66511">
        <ele>551.4</ele>
        <time>2026-05-13T09:10:59Z</time>
      </trkpt>
      <trkpt lat="45.92771" lon="5.66514">
        <ele>551.4</ele>
        <time>2026-05-13T09:11:00Z</time>
      </trkpt>
      <trkpt lat="45.92771" lon="5.66517">
        <ele>551.4</ele>
        <time>2026-05-13T09:11:01Z</time>
      </trkpt>
      <trkpt lat="45.92772" lon="5.66519">
        <ele>551.6</ele>
        <time>2026-05-13T09:11:02Z</time>
      </trkpt>
      <trkpt lat="45.92772" lon="5.66521">
        <ele>551.6</ele>
        <time>2026-05-13T09:11:03Z</time>
      </trkpt>
      <trkpt lat="45.92772" lon="5.66523">
        <ele>552</ele>
        <time>2026-05-13T09:11:04Z</time>
      </trkpt>
      <trkpt lat="45.92772" lon="5.66524">
        <ele>552</ele>
        <time>2026-05-13T09:11:05Z</time>
      </trkpt>
      <trkpt lat="45.92773" lon="5.66524">
        <ele>552.2</ele>
        <time>2026-05-13T09:11:06Z</time>
      </trkpt>
      <trkpt lat="45.92773" lon="5.66526">
        <ele>552.2</ele>
        <time>2026-05-13T09:11:07Z</time>
      </trkpt>
      <trkpt lat="45.92774" lon="5.66529">
        <ele>552.2</ele>
        <time>2026-05-13T09:11:08Z</time>
      </trkpt>
      <trkpt lat="45.92775" lon="5.66531">
        <ele>552.2</ele>
        <time>2026-05-13T09:11:09Z</time>
      </trkpt>
      <trkpt lat="45.92775" lon="5.66534">
        <ele>552.4</ele>
        <time>2026-05-13T09:11:10Z</time>
      </trkpt>
      <trkpt lat="45.92776" lon="5.66537">
        <ele>552.4</ele>
        <time>2026-05-13T09:11:11Z</time>
      </trkpt>
      <trkpt lat="45.92776" lon="5.66541">
        <ele>552.4</ele>
        <time>2026-05-13T09:11:12Z</time>
      </trkpt>
      <trkpt lat="45.92777" lon="5.66544">
        <ele>552.4</ele>
        <time>2026-05-13T09:11:13Z</time>
      </trkpt>
      <trkpt lat="45.92778" lon="5.66547">
        <ele>553</ele>
        <time>2026-05-13T09:11:14Z</time>
      </trkpt>
      <trkpt lat="45.92779" lon="5.6655">
        <ele>553</ele>
        <time>2026-05-13T09:11:15Z</time>
      </trkpt>
      <trkpt lat="45.92779" lon="5.66552">
        <ele>553</ele>
        <time>2026-05-13T09:11:16Z</time>
      </trkpt>
      <trkpt lat="45.92779" lon="5.66555">
        <ele>553</ele>
        <time>2026-05-13T09:11:17Z</time>
      </trkpt>
      <trkpt lat="45.92779" lon="5.66558">
        <ele>553</ele>
        <time>2026-05-13T09:11:18Z</time>
      </trkpt>
      <trkpt lat="45.9278" lon="5.66562">
        <ele>553</ele>
        <time>2026-05-13T09:11:19Z</time>
      </trkpt>
      <trkpt lat="45.9278" lon="5.66565">
        <ele>553</ele>
        <time>2026-05-13T09:11:20Z</time>
      </trkpt>
      <trkpt lat="45.92781" lon="5.66568">
        <ele>553</ele>
        <time>2026-05-13T09:11:21Z</time>
      </trkpt>
      <trkpt lat="45.92782" lon="5.66571">
        <ele>553</ele>
        <time>2026-05-13T09:11:22Z</time>
      </trkpt>
      <trkpt lat="45.92782" lon="5.66574">
        <ele>553</ele>
        <time>2026-05-13T09:11:23Z</time>
      </trkpt>
      <trkpt lat="45.92783" lon="5.66577">
        <ele>553</ele>
        <time>2026-05-13T09:11:24Z</time>
      </trkpt>
      <trkpt lat="45.92784" lon="5.66581">
        <ele>553</ele>
        <time>2026-05-13T09:11:25Z</time>
      </trkpt>
      <trkpt lat="45.92785" lon="5.66585">
        <ele>553.2</ele>
        <time>2026-05-13T09:11:26Z</time>
      </trkpt>
      <trkpt lat="45.92787" lon="5.66588">
        <ele>553.2</ele>
        <time>2026-05-13T09:11:27Z</time>
      </trkpt>
      <trkpt lat="45.92788" lon="5.66592">
        <ele>553.2</ele>
        <time>2026-05-13T09:11:28Z</time>
      </trkpt>
      <trkpt lat="45.92789" lon="5.66597">
        <ele>553.2</ele>
        <time>2026-05-13T09:11:29Z</time>
      </trkpt>
      <trkpt lat="45.92791" lon="5.66601">
        <ele>553.2</ele>
        <time>2026-05-13T09:11:30Z</time>
      </trkpt>
      <trkpt lat="45.92793" lon="5.66604">
        <ele>553.2</ele>
        <time>2026-05-13T09:11:31Z</time>
      </trkpt>
      <trkpt lat="45.92796" lon="5.66608">
        <ele>553.2</ele>
        <time>2026-05-13T09:11:32Z</time>
      </trkpt>
      <trkpt lat="45.92798" lon="5.66611">
        <ele>553.2</ele>
        <time>2026-05-13T09:11:33Z</time>
      </trkpt>
      <trkpt lat="45.92801" lon="5.66615">
        <ele>553.2</ele>
        <time>2026-05-13T09:11:34Z</time>
      </trkpt>
      <trkpt lat="45.92804" lon="5.66618">
        <ele>553.2</ele>
        <time>2026-05-13T09:11:35Z</time>
      </trkpt>
      <trkpt lat="45.92804" lon="5.66618">
        <ele>553.2</ele>
        <time>2026-05-13T09:11:36Z</time>
      </trkpt>
      <trkpt lat="45.92806" lon="5.66621">
        <ele>553.2</ele>
        <time>2026-05-13T09:11:37Z</time>
      </trkpt>
      <trkpt lat="45.92809" lon="5.66623">
        <ele>553.2</ele>
        <time>2026-05-13T09:11:38Z</time>
      </trkpt>
      <trkpt lat="45.92812" lon="5.66626">
        <ele>553.2</ele>
        <time>2026-05-13T09:11:39Z</time>
      </trkpt>
      <trkpt lat="45.92816" lon="5.66628">
        <ele>553.2</ele>
        <time>2026-05-13T09:11:40Z</time>
      </trkpt>
      <trkpt lat="45.92819" lon="5.6663">
        <ele>553.2</ele>
        <time>2026-05-13T09:11:41Z</time>
      </trkpt>
      <trkpt lat="45.92823" lon="5.66631">
        <ele>553.2</ele>
        <time>2026-05-13T09:11:42Z</time>
      </trkpt>
      <trkpt lat="45.92826" lon="5.66633">
        <ele>553.2</ele>
        <time>2026-05-13T09:11:43Z</time>
      </trkpt>
      <trkpt lat="45.92829" lon="5.66634">
        <ele>553.2</ele>
        <time>2026-05-13T09:11:44Z</time>
      </trkpt>
      <trkpt lat="45.92833" lon="5.66635">
        <ele>553.2</ele>
        <time>2026-05-13T09:11:45Z</time>
      </trkpt>
      <trkpt lat="45.92837" lon="5.66636">
        <ele>553.2</ele>
        <time>2026-05-13T09:11:46Z</time>
      </trkpt>
      <trkpt lat="45.9284" lon="5.66637">
        <ele>553.2</ele>
        <time>2026-05-13T09:11:47Z</time>
      </trkpt>
      <trkpt lat="45.92843" lon="5.66638">
        <ele>553.2</ele>
        <time>2026-05-13T09:11:48Z</time>
      </trkpt>
      <trkpt lat="45.92846" lon="5.66639">
        <ele>553.4</ele>
        <time>2026-05-13T09:11:49Z</time>
      </trkpt>
      <trkpt lat="45.92849" lon="5.6664">
        <ele>553.4</ele>
        <time>2026-05-13T09:11:50Z</time>
      </trkpt>
      <trkpt lat="45.92853" lon="5.66641">
        <ele>553.4</ele>
        <time>2026-05-13T09:11:51Z</time>
      </trkpt>
      <trkpt lat="45.92856" lon="5.66643">
        <ele>553.6</ele>
        <time>2026-05-13T09:11:52Z</time>
      </trkpt>
      <trkpt lat="45.92859" lon="5.66646">
        <ele>553.6</ele>
        <time>2026-05-13T09:11:53Z</time>
      </trkpt>
      <trkpt lat="45.92862" lon="5.6665">
        <ele>553.6</ele>
        <time>2026-05-13T09:11:54Z</time>
      </trkpt>
      <trkpt lat="45.92864" lon="5.66654">
        <ele>553.6</ele>
        <time>2026-05-13T09:11:55Z</time>
      </trkpt>
      <trkpt lat="45.92866" lon="5.66659">
        <ele>554</ele>
        <time>2026-05-13T09:11:56Z</time>
      </trkpt>
      <trkpt lat="45.92868" lon="5.66663">
        <ele>554</ele>
        <time>2026-05-13T09:11:57Z</time>
      </trkpt>
      <trkpt lat="45.9287" lon="5.66668">
        <ele>554</ele>
        <time>2026-05-13T09:11:58Z</time>
      </trkpt>
      <trkpt lat="45.92871" lon="5.66672">
        <ele>554</ele>
        <time>2026-05-13T09:11:59Z</time>
      </trkpt>
      <trkpt lat="45.92872" lon="5.66677">
        <ele>554.2</ele>
        <time>2026-05-13T09:12:00Z</time>
      </trkpt>
      <trkpt lat="45.92873" lon="5.66681">
        <ele>554.2</ele>
        <time>2026-05-13T09:12:01Z</time>
      </trkpt>
      <trkpt lat="45.92875" lon="5.66686">
        <ele>554.2</ele>
        <time>2026-05-13T09:12:02Z</time>
      </trkpt>
      <trkpt lat="45.92877" lon="5.66689">
        <ele>554.6</ele>
        <time>2026-05-13T09:12:03Z</time>
      </trkpt>
      <trkpt lat="45.9288" lon="5.66692">
        <ele>554.6</ele>
        <time>2026-05-13T09:12:04Z</time>
      </trkpt>
      <trkpt lat="45.92883" lon="5.66695">
        <ele>554.6</ele>
        <time>2026-05-13T09:12:05Z</time>
      </trkpt>
      <trkpt lat="45.92886" lon="5.66697">
        <ele>554.6</ele>
        <time>2026-05-13T09:12:06Z</time>
      </trkpt>
      <trkpt lat="45.92889" lon="5.667">
        <ele>554.6</ele>
        <time>2026-05-13T09:12:07Z</time>
      </trkpt>
      <trkpt lat="45.92891" lon="5.66703">
        <ele>555</ele>
        <time>2026-05-13T09:12:08Z</time>
      </trkpt>
      <trkpt lat="45.92894" lon="5.66707">
        <ele>555</ele>
        <time>2026-05-13T09:12:09Z</time>
      </trkpt>
      <trkpt lat="45.92897" lon="5.6671">
        <ele>555</ele>
        <time>2026-05-13T09:12:10Z</time>
      </trkpt>
      <trkpt lat="45.92899" lon="5.66713">
        <ele>555</ele>
        <time>2026-05-13T09:12:11Z</time>
      </trkpt>
      <trkpt lat="45.92902" lon="5.66716">
        <ele>555</ele>
        <time>2026-05-13T09:12:12Z</time>
      </trkpt>
      <trkpt lat="45.92905" lon="5.66718">
        <ele>555</ele>
        <time>2026-05-13T09:12:13Z</time>
      </trkpt>
      <trkpt lat="45.92908" lon="5.6672">
        <ele>555.2</ele>
        <time>2026-05-13T09:12:14Z</time>
      </trkpt>
      <trkpt lat="45.92911" lon="5.66723">
        <ele>555.2</ele>
        <time>2026-05-13T09:12:15Z</time>
      </trkpt>
      <trkpt lat="45.92913" lon="5.66726">
        <ele>555</ele>
        <time>2026-05-13T09:12:16Z</time>
      </trkpt>
      <trkpt lat="45.92915" lon="5.6673">
        <ele>555.2</ele>
        <time>2026-05-13T09:12:17Z</time>
      </trkpt>
      <trkpt lat="45.92917" lon="5.66734">
        <ele>555.2</ele>
        <time>2026-05-13T09:12:18Z</time>
      </trkpt>
      <trkpt lat="45.92919" lon="5.66738">
        <ele>555.2</ele>
        <time>2026-05-13T09:12:19Z</time>
      </trkpt>
      <trkpt lat="45.92921" lon="5.66743">
        <ele>555.2</ele>
        <time>2026-05-13T09:12:20Z</time>
      </trkpt>
      <trkpt lat="45.92923" lon="5.66747">
        <ele>555.4</ele>
        <time>2026-05-13T09:12:21Z</time>
      </trkpt>
      <trkpt lat="45.92924" lon="5.66751">
        <ele>555.4</ele>
        <time>2026-05-13T09:12:22Z</time>
      </trkpt>
      <trkpt lat="45.92924" lon="5.66756">
        <ele>556.2</ele>
        <time>2026-05-13T09:12:23Z</time>
      </trkpt>
      <trkpt lat="45.92925" lon="5.6676">
        <ele>556.2</ele>
        <time>2026-05-13T09:12:24Z</time>
      </trkpt>
      <trkpt lat="45.92926" lon="5.66764">
        <ele>556.2</ele>
        <time>2026-05-13T09:12:25Z</time>
      </trkpt>
      <trkpt lat="45.92927" lon="5.66769">
        <ele>556.2</ele>
        <time>2026-05-13T09:12:26Z</time>
      </trkpt>
      <trkpt lat="45.92928" lon="5.66774">
        <ele>555.8</ele>
        <time>2026-05-13T09:12:27Z</time>
      </trkpt>
      <trkpt lat="45.92929" lon="5.66778">
        <ele>555.8</ele>
        <time>2026-05-13T09:12:28Z</time>
      </trkpt>
      <trkpt lat="45.92929" lon="5.66783">
        <ele>555.8</ele>
        <time>2026-05-13T09:12:29Z</time>
      </trkpt>
      <trkpt lat="45.92929" lon="5.66789">
        <ele>555.8</ele>
        <time>2026-05-13T09:12:30Z</time>
      </trkpt>
      <trkpt lat="45.9293" lon="5.66794">
        <ele>555.6</ele>
        <time>2026-05-13T09:12:31Z</time>
      </trkpt>
      <trkpt lat="45.92931" lon="5.668">
        <ele>555.6</ele>
        <time>2026-05-13T09:12:32Z</time>
      </trkpt>
      <trkpt lat="45.92932" lon="5.66806">
        <ele>555.6</ele>
        <time>2026-05-13T09:12:33Z</time>
      </trkpt>
      <trkpt lat="45.92931" lon="5.66815">
        <ele>555.4</ele>
        <time>2026-05-13T09:12:34Z</time>
      </trkpt>
      <trkpt lat="45.92931" lon="5.66821">
        <ele>554.8</ele>
        <time>2026-05-13T09:12:35Z</time>
      </trkpt>
      <trkpt lat="45.92932" lon="5.66828">
        <ele>554.4</ele>
        <time>2026-05-13T09:12:36Z</time>
      </trkpt>
      <trkpt lat="45.92932" lon="5.66834">
        <ele>554.4</ele>
        <time>2026-05-13T09:12:37Z</time>
      </trkpt>
      <trkpt lat="45.92932" lon="5.66841">
        <ele>554.4</ele>
        <time>2026-05-13T09:12:38Z</time>
      </trkpt>
      <trkpt lat="45.92931" lon="5.66847">
        <ele>554.2</ele>
        <time>2026-05-13T09:12:39Z</time>
      </trkpt>
      <trkpt lat="45.92931" lon="5.66854">
        <ele>553.6</ele>
        <time>2026-05-13T09:12:40Z</time>
      </trkpt>
      <trkpt lat="45.92931" lon="5.66859">
        <ele>553.8</ele>
        <time>2026-05-13T09:12:41Z</time>
      </trkpt>
      <trkpt lat="45.9293" lon="5.66865">
        <ele>553.2</ele>
        <time>2026-05-13T09:12:42Z</time>
      </trkpt>
      <trkpt lat="45.92929" lon="5.66872">
        <ele>553.2</ele>
        <time>2026-05-13T09:12:43Z</time>
      </trkpt>
      <trkpt lat="45.92928" lon="5.66877">
        <ele>553</ele>
        <time>2026-05-13T09:12:44Z</time>
      </trkpt>
      <trkpt lat="45.92928" lon="5.66882">
        <ele>553</ele>
        <time>2026-05-13T09:12:45Z</time>
      </trkpt>
      <trkpt lat="45.92928" lon="5.66887">
        <ele>553</ele>
        <time>2026-05-13T09:12:46Z</time>
      </trkpt>
      <trkpt lat="45.92927" lon="5.66892">
        <ele>553.2</ele>
        <time>2026-05-13T09:12:47Z</time>
      </trkpt>
      <trkpt lat="45.92925" lon="5.66903">
        <ele>553.2</ele>
        <time>2026-05-13T09:12:48Z</time>
      </trkpt>
      <trkpt lat="45.92924" lon="5.66909">
        <ele>553.2</ele>
        <time>2026-05-13T09:12:49Z</time>
      </trkpt>
      <trkpt lat="45.92924" lon="5.66914">
        <ele>553</ele>
        <time>2026-05-13T09:12:50Z</time>
      </trkpt>
      <trkpt lat="45.92922" lon="5.6692">
        <ele>553</ele>
        <time>2026-05-13T09:12:51Z</time>
      </trkpt>
      <trkpt lat="45.9292" lon="5.66925">
        <ele>553</ele>
        <time>2026-05-13T09:12:52Z</time>
      </trkpt>
      <trkpt lat="45.9292" lon="5.6693">
        <ele>553</ele>
        <time>2026-05-13T09:12:53Z</time>
      </trkpt>
      <trkpt lat="45.92921" lon="5.66936">
        <ele>553</ele>
        <time>2026-05-13T09:12:54Z</time>
      </trkpt>
      <trkpt lat="45.92923" lon="5.6694">
        <ele>553</ele>
        <time>2026-05-13T09:12:55Z</time>
      </trkpt>
      <trkpt lat="45.92926" lon="5.66943">
        <ele>552.8</ele>
        <time>2026-05-13T09:12:56Z</time>
      </trkpt>
      <trkpt lat="45.92929" lon="5.66946">
        <ele>552.8</ele>
        <time>2026-05-13T09:12:57Z</time>
      </trkpt>
      <trkpt lat="45.92933" lon="5.66949">
        <ele>552.8</ele>
        <time>2026-05-13T09:12:58Z</time>
      </trkpt>
      <trkpt lat="45.92937" lon="5.6695">
        <ele>552.8</ele>
        <time>2026-05-13T09:12:59Z</time>
      </trkpt>
      <trkpt lat="45.9294" lon="5.66951">
        <ele>552.8</ele>
        <time>2026-05-13T09:13:00Z</time>
      </trkpt>
      <trkpt lat="45.92945" lon="5.66952">
        <ele>552.8</ele>
        <time>2026-05-13T09:13:01Z</time>
      </trkpt>
      <trkpt lat="45.92949" lon="5.66953">
        <ele>552.8</ele>
        <time>2026-05-13T09:13:02Z</time>
      </trkpt>
      <trkpt lat="45.92953" lon="5.66954">
        <ele>553.2</ele>
        <time>2026-05-13T09:13:03Z</time>
      </trkpt>
      <trkpt lat="45.92956" lon="5.66954">
        <ele>553.4</ele>
        <time>2026-05-13T09:13:04Z</time>
      </trkpt>
      <trkpt lat="45.9296" lon="5.66954">
        <ele>553.6</ele>
        <time>2026-05-13T09:13:05Z</time>
      </trkpt>
      <trkpt lat="45.92963" lon="5.66955">
        <ele>554</ele>
        <time>2026-05-13T09:13:06Z</time>
      </trkpt>
      <trkpt lat="45.92967" lon="5.66955">
        <ele>554</ele>
        <time>2026-05-13T09:13:07Z</time>
      </trkpt>
      <trkpt lat="45.9297" lon="5.66956">
        <ele>554</ele>
        <time>2026-05-13T09:13:08Z</time>
      </trkpt>
      <trkpt lat="45.92973" lon="5.66956">
        <ele>554.2</ele>
        <time>2026-05-13T09:13:09Z</time>
      </trkpt>
      <trkpt lat="45.92976" lon="5.66957">
        <ele>554.2</ele>
        <time>2026-05-13T09:13:10Z</time>
      </trkpt>
      <trkpt lat="45.92979" lon="5.66958">
        <ele>554.4</ele>
        <time>2026-05-13T09:13:11Z</time>
      </trkpt>
      <trkpt lat="45.92982" lon="5.66959">
        <ele>554.4</ele>
        <time>2026-05-13T09:13:12Z</time>
      </trkpt>
      <trkpt lat="45.92985" lon="5.6696">
        <ele>554.8</ele>
        <time>2026-05-13T09:13:13Z</time>
      </trkpt>
      <trkpt lat="45.92987" lon="5.66961">
        <ele>554.8</ele>
        <time>2026-05-13T09:13:14Z</time>
      </trkpt>
      <trkpt lat="45.92991" lon="5.66964">
        <ele>554.8</ele>
        <time>2026-05-13T09:13:15Z</time>
      </trkpt>
      <trkpt lat="45.92995" lon="5.66966">
        <ele>554.8</ele>
        <time>2026-05-13T09:13:16Z</time>
      </trkpt>
      <trkpt lat="45.92998" lon="5.6697">
        <ele>554.8</ele>
        <time>2026-05-13T09:13:17Z</time>
      </trkpt>
      <trkpt lat="45.93002" lon="5.66976">
        <ele>554.8</ele>
        <time>2026-05-13T09:13:18Z</time>
      </trkpt>
      <trkpt lat="45.93004" lon="5.66981">
        <ele>554.4</ele>
        <time>2026-05-13T09:13:19Z</time>
      </trkpt>
      <trkpt lat="45.93004" lon="5.66989">
        <ele>554.4</ele>
        <time>2026-05-13T09:13:20Z</time>
      </trkpt>
      <trkpt lat="45.93007" lon="5.66996">
        <ele>553.8</ele>
        <time>2026-05-13T09:13:21Z</time>
      </trkpt>
      <trkpt lat="45.93008" lon="5.67004">
        <ele>553.6</ele>
        <time>2026-05-13T09:13:22Z</time>
      </trkpt>
      <trkpt lat="45.93009" lon="5.67011">
        <ele>553.4</ele>
        <time>2026-05-13T09:13:23Z</time>
      </trkpt>
      <trkpt lat="45.9301" lon="5.67019">
        <ele>552.6</ele>
        <time>2026-05-13T09:13:24Z</time>
      </trkpt>
      <trkpt lat="45.9301" lon="5.67027">
        <ele>552.4</ele>
        <time>2026-05-13T09:13:25Z</time>
      </trkpt>
      <trkpt lat="45.93009" lon="5.67036">
        <ele>552.2</ele>
        <time>2026-05-13T09:13:26Z</time>
      </trkpt>
      <trkpt lat="45.9301" lon="5.67044">
        <ele>552.2</ele>
        <time>2026-05-13T09:13:27Z</time>
      </trkpt>
      <trkpt lat="45.9301" lon="5.67054">
        <ele>551.8</ele>
        <time>2026-05-13T09:13:28Z</time>
      </trkpt>
      <trkpt lat="45.93011" lon="5.6706">
        <ele>551.8</ele>
        <time>2026-05-13T09:13:29Z</time>
      </trkpt>
      <trkpt lat="45.93011" lon="5.6707">
        <ele>551.8</ele>
        <time>2026-05-13T09:13:30Z</time>
      </trkpt>
      <trkpt lat="45.9301" lon="5.67078">
        <ele>551.6</ele>
        <time>2026-05-13T09:13:31Z</time>
      </trkpt>
      <trkpt lat="45.9301" lon="5.67087">
        <ele>551.6</ele>
        <time>2026-05-13T09:13:32Z</time>
      </trkpt>
      <trkpt lat="45.93011" lon="5.67095">
        <ele>551</ele>
        <time>2026-05-13T09:13:33Z</time>
      </trkpt>
      <trkpt lat="45.93013" lon="5.67102">
        <ele>551</ele>
        <time>2026-05-13T09:13:34Z</time>
      </trkpt>
      <trkpt lat="45.93015" lon="5.67111">
        <ele>551</ele>
        <time>2026-05-13T09:13:35Z</time>
      </trkpt>
      <trkpt lat="45.9302" lon="5.67117">
        <ele>550.8</ele>
        <time>2026-05-13T09:13:36Z</time>
      </trkpt>
      <trkpt lat="45.93021" lon="5.67124">
        <ele>551</ele>
        <time>2026-05-13T09:13:37Z</time>
      </trkpt>
      <trkpt lat="45.93025" lon="5.67132">
        <ele>551</ele>
        <time>2026-05-13T09:13:38Z</time>
      </trkpt>
      <trkpt lat="45.93029" lon="5.67139">
        <ele>550.4</ele>
        <time>2026-05-13T09:13:39Z</time>
      </trkpt>
      <trkpt lat="45.93033" lon="5.67146">
        <ele>549.6</ele>
        <time>2026-05-13T09:13:40Z</time>
      </trkpt>
      <trkpt lat="45.93037" lon="5.67152">
        <ele>549.2</ele>
        <time>2026-05-13T09:13:41Z</time>
      </trkpt>
      <trkpt lat="45.9304" lon="5.67158">
        <ele>549.4</ele>
        <time>2026-05-13T09:13:42Z</time>
      </trkpt>
      <trkpt lat="45.93044" lon="5.67163">
        <ele>549.4</ele>
        <time>2026-05-13T09:13:43Z</time>
      </trkpt>
      <trkpt lat="45.93048" lon="5.67168">
        <ele>549.2</ele>
        <time>2026-05-13T09:13:44Z</time>
      </trkpt>
      <trkpt lat="45.93053" lon="5.67174">
        <ele>548.4</ele>
        <time>2026-05-13T09:13:45Z</time>
      </trkpt>
      <trkpt lat="45.93056" lon="5.67179">
        <ele>549</ele>
        <time>2026-05-13T09:13:46Z</time>
      </trkpt>
      <trkpt lat="45.93059" lon="5.67185">
        <ele>549.4</ele>
        <time>2026-05-13T09:13:47Z</time>
      </trkpt>
      <trkpt lat="45.93062" lon="5.67191">
        <ele>549.4</ele>
        <time>2026-05-13T09:13:48Z</time>
      </trkpt>
      <trkpt lat="45.93066" lon="5.67195">
        <ele>549.4</ele>
        <time>2026-05-13T09:13:49Z</time>
      </trkpt>
      <trkpt lat="45.93069" lon="5.67199">
        <ele>548.8</ele>
        <time>2026-05-13T09:13:50Z</time>
      </trkpt>
      <trkpt lat="45.93073" lon="5.67205">
        <ele>548.8</ele>
        <time>2026-05-13T09:13:51Z</time>
      </trkpt>
      <trkpt lat="45.93077" lon="5.67209">
        <ele>548.8</ele>
        <time>2026-05-13T09:13:52Z</time>
      </trkpt>
      <trkpt lat="45.93081" lon="5.67213">
        <ele>549</ele>
        <time>2026-05-13T09:13:53Z</time>
      </trkpt>
      <trkpt lat="45.93083" lon="5.67215">
        <ele>549</ele>
        <time>2026-05-13T09:13:54Z</time>
      </trkpt>
      <trkpt lat="45.93083" lon="5.67216">
        <ele>549.2</ele>
        <time>2026-05-13T09:13:55Z</time>
      </trkpt>
      <trkpt lat="45.93083" lon="5.67216">
        <ele>549.4</ele>
        <time>2026-05-13T09:13:56Z</time>
      </trkpt>
      <trkpt lat="45.93083" lon="5.67216">
        <ele>549.4</ele>
        <time>2026-05-13T09:13:57Z</time>
      </trkpt>
      <trkpt lat="45.93083" lon="5.67217">
        <ele>549.8</ele>
        <time>2026-05-13T09:13:58Z</time>
      </trkpt>
      <trkpt lat="45.93083" lon="5.67217">
        <ele>549.8</ele>
        <time>2026-05-13T09:14:14Z</time>
      </trkpt>
      <trkpt lat="45.93083" lon="5.67218">
        <ele>549.8</ele>
        <time>2026-05-13T09:14:15Z</time>
      </trkpt>
      <trkpt lat="45.93083" lon="5.67218">
        <ele>549.8</ele>
        <time>2026-05-13T09:14:16Z</time>
      </trkpt>
      <trkpt lat="45.93082" lon="5.67218">
        <ele>549.8</ele>
        <time>2026-05-13T09:14:17Z</time>
      </trkpt>
      <trkpt lat="45.9308" lon="5.67217">
        <ele>549.8</ele>
        <time>2026-05-13T09:15:05Z</time>
      </trkpt>
      <trkpt lat="45.9308" lon="5.67217">
        <ele>549.8</ele>
        <time>2026-05-13T09:15:06Z</time>
      </trkpt>
      <trkpt lat="45.9308" lon="5.67218">
        <ele>549.4</ele>
        <time>2026-05-13T09:15:09Z</time>
      </trkpt>
      <trkpt lat="45.93081" lon="5.67219">
        <ele>549.4</ele>
        <time>2026-05-13T09:15:10Z</time>
      </trkpt>
      <trkpt lat="45.93081" lon="5.6722">
        <ele>549.4</ele>
        <time>2026-05-13T09:15:11Z</time>
      </trkpt>
      <trkpt lat="45.93082" lon="5.67221">
        <ele>549.4</ele>
        <time>2026-05-13T09:15:12Z</time>
      </trkpt>
      <trkpt lat="45.93082" lon="5.67221">
        <ele>549.4</ele>
        <time>2026-05-13T09:15:13Z</time>
      </trkpt>
      <trkpt lat="45.93083" lon="5.67219">
        <ele>549.6</ele>
        <time>2026-05-13T09:15:40Z</time>
      </trkpt>
      <trkpt lat="45.93083" lon="5.67219">
        <ele>549.6</ele>
        <time>2026-05-13T09:15:41Z</time>
      </trkpt>
      <trkpt lat="45.93084" lon="5.67219">
        <ele>549.6</ele>
        <time>2026-05-13T09:15:42Z</time>
      </trkpt>
      <trkpt lat="45.93085" lon="5.67219">
        <ele>549.4</ele>
        <time>2026-05-13T09:15:43Z</time>
      </trkpt>
      <trkpt lat="45.93085" lon="5.67219">
        <ele>549.4</ele>
        <time>2026-05-13T09:15:44Z</time>
      </trkpt>
      <trkpt lat="45.93087" lon="5.67219">
        <ele>549.4</ele>
        <time>2026-05-13T09:15:52Z</time>
      </trkpt>
      <trkpt lat="45.93088" lon="5.67219">
        <ele>549.4</ele>
        <time>2026-05-13T09:15:53Z</time>
      </trkpt>
      <trkpt lat="45.93089" lon="5.67219">
        <ele>549.4</ele>
        <time>2026-05-13T09:15:54Z</time>
      </trkpt>
      <trkpt lat="45.9309" lon="5.67218">
        <ele>549.4</ele>
        <time>2026-05-13T09:15:55Z</time>
      </trkpt>
      <trkpt lat="45.93092" lon="5.6722">
        <ele>549.4</ele>
        <time>2026-05-13T09:15:56Z</time>
      </trkpt>
      <trkpt lat="45.93094" lon="5.67223">
        <ele>549.4</ele>
        <time>2026-05-13T09:15:57Z</time>
      </trkpt>
      <trkpt lat="45.93096" lon="5.67226">
        <ele>549.4</ele>
        <time>2026-05-13T09:15:58Z</time>
      </trkpt>
      <trkpt lat="45.93098" lon="5.67229">
        <ele>549.4</ele>
        <time>2026-05-13T09:15:59Z</time>
      </trkpt>
      <trkpt lat="45.931" lon="5.67232">
        <ele>549</ele>
        <time>2026-05-13T09:16:00Z</time>
      </trkpt>
      <trkpt lat="45.93102" lon="5.67235">
        <ele>549</ele>
        <time>2026-05-13T09:16:01Z</time>
      </trkpt>
      <trkpt lat="45.93105" lon="5.67238">
        <ele>548.6</ele>
        <time>2026-05-13T09:16:02Z</time>
      </trkpt>
      <trkpt lat="45.93108" lon="5.67241">
        <ele>548.6</ele>
        <time>2026-05-13T09:16:03Z</time>
      </trkpt>
      <trkpt lat="45.93111" lon="5.67244">
        <ele>548.6</ele>
        <time>2026-05-13T09:16:04Z</time>
      </trkpt>
      <trkpt lat="45.93114" lon="5.67248">
        <ele>548.6</ele>
        <time>2026-05-13T09:16:05Z</time>
      </trkpt>
      <trkpt lat="45.93117" lon="5.67251">
        <ele>548.4</ele>
        <time>2026-05-13T09:16:06Z</time>
      </trkpt>
      <trkpt lat="45.9312" lon="5.67254">
        <ele>548.4</ele>
        <time>2026-05-13T09:16:07Z</time>
      </trkpt>
      <trkpt lat="45.93123" lon="5.67257">
        <ele>548.4</ele>
        <time>2026-05-13T09:16:08Z</time>
      </trkpt>
      <trkpt lat="45.93126" lon="5.6726">
        <ele>548.4</ele>
        <time>2026-05-13T09:16:09Z</time>
      </trkpt>
      <trkpt lat="45.9313" lon="5.67262">
        <ele>548.4</ele>
        <time>2026-05-13T09:16:10Z</time>
      </trkpt>
      <trkpt lat="45.93133" lon="5.67264">
        <ele>548</ele>
        <time>2026-05-13T09:16:11Z</time>
      </trkpt>
      <trkpt lat="45.93136" lon="5.67265">
        <ele>548</ele>
        <time>2026-05-13T09:16:12Z</time>
      </trkpt>
      <trkpt lat="45.93139" lon="5.67266">
        <ele>548</ele>
        <time>2026-05-13T09:16:13Z</time>
      </trkpt>
      <trkpt lat="45.93142" lon="5.67268">
        <ele>548.4</ele>
        <time>2026-05-13T09:16:14Z</time>
      </trkpt>
      <trkpt lat="45.93145" lon="5.6727">
        <ele>548.4</ele>
        <time>2026-05-13T09:16:15Z</time>
      </trkpt>
      <trkpt lat="45.93148" lon="5.67271">
        <ele>548.4</ele>
        <time>2026-05-13T09:16:16Z</time>
      </trkpt>
      <trkpt lat="45.93151" lon="5.67273">
        <ele>548.4</ele>
        <time>2026-05-13T09:16:17Z</time>
      </trkpt>
      <trkpt lat="45.93155" lon="5.67275">
        <ele>547.8</ele>
        <time>2026-05-13T09:16:18Z</time>
      </trkpt>
      <trkpt lat="45.93158" lon="5.67277">
        <ele>548</ele>
        <time>2026-05-13T09:16:19Z</time>
      </trkpt>
      <trkpt lat="45.9316" lon="5.67279">
        <ele>548</ele>
        <time>2026-05-13T09:16:20Z</time>
      </trkpt>
      <trkpt lat="45.93163" lon="5.67281">
        <ele>547.6</ele>
        <time>2026-05-13T09:16:21Z</time>
      </trkpt>
      <trkpt lat="45.93166" lon="5.67283">
        <ele>547.4</ele>
        <time>2026-05-13T09:16:22Z</time>
      </trkpt>
      <trkpt lat="45.93169" lon="5.67285">
        <ele>547</ele>
        <time>2026-05-13T09:16:23Z</time>
      </trkpt>
      <trkpt lat="45.93173" lon="5.67286">
        <ele>547</ele>
        <time>2026-05-13T09:16:24Z</time>
      </trkpt>
      <trkpt lat="45.93176" lon="5.67288">
        <ele>546.6</ele>
        <time>2026-05-13T09:16:25Z</time>
      </trkpt>
      <trkpt lat="45.93179" lon="5.67291">
        <ele>546.6</ele>
        <time>2026-05-13T09:16:26Z</time>
      </trkpt>
      <trkpt lat="45.93183" lon="5.67294">
        <ele>546.6</ele>
        <time>2026-05-13T09:16:27Z</time>
      </trkpt>
      <trkpt lat="45.93186" lon="5.67298">
        <ele>546.4</ele>
        <time>2026-05-13T09:16:28Z</time>
      </trkpt>
      <trkpt lat="45.93186" lon="5.67298">
        <ele>546.2</ele>
        <time>2026-05-13T09:16:29Z</time>
      </trkpt>
      <trkpt lat="45.93194" lon="5.67321">
        <ele>545.8</ele>
        <time>2026-05-13T09:16:31Z</time>
      </trkpt>
      <trkpt lat="45.93196" lon="5.67327">
        <ele>545.6</ele>
        <time>2026-05-13T09:16:32Z</time>
      </trkpt>
      <trkpt lat="45.93198" lon="5.67333">
        <ele>545</ele>
        <time>2026-05-13T09:16:33Z</time>
      </trkpt>
      <trkpt lat="45.932" lon="5.67338">
        <ele>544.8</ele>
        <time>2026-05-13T09:16:34Z</time>
      </trkpt>
      <trkpt lat="45.93202" lon="5.67343">
        <ele>545</ele>
        <time>2026-05-13T09:16:35Z</time>
      </trkpt>
      <trkpt lat="45.93203" lon="5.67349">
        <ele>545</ele>
        <time>2026-05-13T09:16:36Z</time>
      </trkpt>
      <trkpt lat="45.93204" lon="5.67355">
        <ele>545.4</ele>
        <time>2026-05-13T09:16:37Z</time>
      </trkpt>
      <trkpt lat="45.93205" lon="5.6736">
        <ele>545.4</ele>
        <time>2026-05-13T09:16:38Z</time>
      </trkpt>
      <trkpt lat="45.93206" lon="5.67365">
        <ele>544.2</ele>
        <time>2026-05-13T09:16:39Z</time>
      </trkpt>
      <trkpt lat="45.93206" lon="5.6737">
        <ele>543.8</ele>
        <time>2026-05-13T09:16:40Z</time>
      </trkpt>
      <trkpt lat="45.93207" lon="5.67375">
        <ele>543.8</ele>
        <time>2026-05-13T09:16:41Z</time>
      </trkpt>
      <trkpt lat="45.93208" lon="5.6738">
        <ele>543.2</ele>
        <time>2026-05-13T09:16:42Z</time>
      </trkpt>
      <trkpt lat="45.93208" lon="5.67384">
        <ele>543.2</ele>
        <time>2026-05-13T09:16:43Z</time>
      </trkpt>
      <trkpt lat="45.93207" lon="5.67388">
        <ele>543.2</ele>
        <time>2026-05-13T09:16:44Z</time>
      </trkpt>
      <trkpt lat="45.93208" lon="5.67393">
        <ele>543.4</ele>
        <time>2026-05-13T09:16:45Z</time>
      </trkpt>
      <trkpt lat="45.93207" lon="5.67398">
        <ele>543.2</ele>
        <time>2026-05-13T09:16:46Z</time>
      </trkpt>
      <trkpt lat="45.93208" lon="5.67404">
        <ele>543.2</ele>
        <time>2026-05-13T09:16:47Z</time>
      </trkpt>
      <trkpt lat="45.93208" lon="5.67409">
        <ele>543.2</ele>
        <time>2026-05-13T09:16:48Z</time>
      </trkpt>
      <trkpt lat="45.93209" lon="5.67414">
        <ele>543.2</ele>
        <time>2026-05-13T09:16:49Z</time>
      </trkpt>
      <trkpt lat="45.93209" lon="5.6742">
        <ele>542.8</ele>
        <time>2026-05-13T09:16:50Z</time>
      </trkpt>
      <trkpt lat="45.93209" lon="5.67425">
        <ele>542.8</ele>
        <time>2026-05-13T09:16:51Z</time>
      </trkpt>
      <trkpt lat="45.93209" lon="5.6743">
        <ele>542.2</ele>
        <time>2026-05-13T09:16:52Z</time>
      </trkpt>
      <trkpt lat="45.9321" lon="5.67435">
        <ele>541.8</ele>
        <time>2026-05-13T09:16:53Z</time>
      </trkpt>
      <trkpt lat="45.9321" lon="5.67441">
        <ele>541.4</ele>
        <time>2026-05-13T09:16:54Z</time>
      </trkpt>
      <trkpt lat="45.9321" lon="5.67447">
        <ele>541</ele>
        <time>2026-05-13T09:16:55Z</time>
      </trkpt>
      <trkpt lat="45.93209" lon="5.67452">
        <ele>540.8</ele>
        <time>2026-05-13T09:16:56Z</time>
      </trkpt>
      <trkpt lat="45.93209" lon="5.67458">
        <ele>540.4</ele>
        <time>2026-05-13T09:16:57Z</time>
      </trkpt>
      <trkpt lat="45.9321" lon="5.67462">
        <ele>540</ele>
        <time>2026-05-13T09:16:58Z</time>
      </trkpt>
      <trkpt lat="45.9321" lon="5.67466">
        <ele>540</ele>
        <time>2026-05-13T09:16:59Z</time>
      </trkpt>
      <trkpt lat="45.9321" lon="5.67471">
        <ele>540</ele>
        <time>2026-05-13T09:17:00Z</time>
      </trkpt>
      <trkpt lat="45.9321" lon="5.67475">
        <ele>539.2</ele>
        <time>2026-05-13T09:17:01Z</time>
      </trkpt>
      <trkpt lat="45.9321" lon="5.6748">
        <ele>539</ele>
        <time>2026-05-13T09:17:02Z</time>
      </trkpt>
      <trkpt lat="45.9321" lon="5.67485">
        <ele>538.4</ele>
        <time>2026-05-13T09:17:03Z</time>
      </trkpt>
      <trkpt lat="45.9321" lon="5.6749">
        <ele>538.4</ele>
        <time>2026-05-13T09:17:04Z</time>
      </trkpt>
      <trkpt lat="45.9321" lon="5.6749">
        <ele>537.6</ele>
        <time>2026-05-13T09:17:05Z</time>
      </trkpt>
      <trkpt lat="45.9321" lon="5.67495">
        <ele>538</ele>
        <time>2026-05-13T09:17:06Z</time>
      </trkpt>
      <trkpt lat="45.93211" lon="5.675">
        <ele>537.8</ele>
        <time>2026-05-13T09:17:07Z</time>
      </trkpt>
      <trkpt lat="45.93211" lon="5.67504">
        <ele>537</ele>
        <time>2026-05-13T09:17:08Z</time>
      </trkpt>
      <trkpt lat="45.93211" lon="5.67509">
        <ele>537</ele>
        <time>2026-05-13T09:17:09Z</time>
      </trkpt>
      <trkpt lat="45.93211" lon="5.67514">
        <ele>537</ele>
        <time>2026-05-13T09:17:10Z</time>
      </trkpt>
      <trkpt lat="45.93211" lon="5.67519">
        <ele>536.8</ele>
        <time>2026-05-13T09:17:11Z</time>
      </trkpt>
      <trkpt lat="45.93211" lon="5.67524">
        <ele>536.4</ele>
        <time>2026-05-13T09:17:12Z</time>
      </trkpt>
      <trkpt lat="45.93211" lon="5.67529">
        <ele>535.4</ele>
        <time>2026-05-13T09:17:13Z</time>
      </trkpt>
      <trkpt lat="45.93211" lon="5.67534">
        <ele>535</ele>
        <time>2026-05-13T09:17:14Z</time>
      </trkpt>
      <trkpt lat="45.93211" lon="5.67539">
        <ele>534.4</ele>
        <time>2026-05-13T09:17:15Z</time>
      </trkpt>
      <trkpt lat="45.93211" lon="5.67544">
        <ele>534.4</ele>
        <time>2026-05-13T09:17:16Z</time>
      </trkpt>
      <trkpt lat="45.9321" lon="5.67549">
        <ele>534.2</ele>
        <time>2026-05-13T09:17:17Z</time>
      </trkpt>
      <trkpt lat="45.93211" lon="5.67555">
        <ele>533.6</ele>
        <time>2026-05-13T09:17:18Z</time>
      </trkpt>
      <trkpt lat="45.93211" lon="5.67561">
        <ele>533</ele>
        <time>2026-05-13T09:17:19Z</time>
      </trkpt>
      <trkpt lat="45.93211" lon="5.67566">
        <ele>532.2</ele>
        <time>2026-05-13T09:17:20Z</time>
      </trkpt>
      <trkpt lat="45.93211" lon="5.67572">
        <ele>531</ele>
        <time>2026-05-13T09:17:21Z</time>
      </trkpt>
      <trkpt lat="45.93211" lon="5.67577">
        <ele>530.4</ele>
        <time>2026-05-13T09:17:22Z</time>
      </trkpt>
      <trkpt lat="45.93211" lon="5.67582">
        <ele>530</ele>
        <time>2026-05-13T09:17:23Z</time>
      </trkpt>
      <trkpt lat="45.93211" lon="5.67587">
        <ele>530</ele>
        <time>2026-05-13T09:17:24Z</time>
      </trkpt>
      <trkpt lat="45.93211" lon="5.67593">
        <ele>529.8</ele>
        <time>2026-05-13T09:17:25Z</time>
      </trkpt>
      <trkpt lat="45.93211" lon="5.67598">
        <ele>529.8</ele>
        <time>2026-05-13T09:17:26Z</time>
      </trkpt>
      <trkpt lat="45.93211" lon="5.67603">
        <ele>528.8</ele>
        <time>2026-05-13T09:17:27Z</time>
      </trkpt>
      <trkpt lat="45.93211" lon="5.67609">
        <ele>528.8</ele>
        <time>2026-05-13T09:17:28Z</time>
      </trkpt>
      <trkpt lat="45.93212" lon="5.67614">
        <ele>528.2</ele>
        <time>2026-05-13T09:17:29Z</time>
      </trkpt>
      <trkpt lat="45.93212" lon="5.67619">
        <ele>528.2</ele>
        <time>2026-05-13T09:17:30Z</time>
      </trkpt>
      <trkpt lat="45.93213" lon="5.67623">
        <ele>527.6</ele>
        <time>2026-05-13T09:17:31Z</time>
      </trkpt>
      <trkpt lat="45.93214" lon="5.67627">
        <ele>527.6</ele>
        <time>2026-05-13T09:17:32Z</time>
      </trkpt>
      <trkpt lat="45.93215" lon="5.67631">
        <ele>528</ele>
        <time>2026-05-13T09:17:33Z</time>
      </trkpt>
      <trkpt lat="45.93216" lon="5.67635">
        <ele>528</ele>
        <time>2026-05-13T09:17:34Z</time>
      </trkpt>
      <trkpt lat="45.93216" lon="5.67639">
        <ele>527.6</ele>
        <time>2026-05-13T09:17:35Z</time>
      </trkpt>
      <trkpt lat="45.93217" lon="5.67643">
        <ele>527.6</ele>
        <time>2026-05-13T09:17:36Z</time>
      </trkpt>
      <trkpt lat="45.93217" lon="5.67647">
        <ele>527.6</ele>
        <time>2026-05-13T09:17:37Z</time>
      </trkpt>
      <trkpt lat="45.93217" lon="5.67651">
        <ele>527.6</ele>
        <time>2026-05-13T09:17:38Z</time>
      </trkpt>
      <trkpt lat="45.93217" lon="5.67655">
        <ele>527.4</ele>
        <time>2026-05-13T09:17:39Z</time>
      </trkpt>
      <trkpt lat="45.93217" lon="5.67659">
        <ele>527.6</ele>
        <time>2026-05-13T09:17:40Z</time>
      </trkpt>
      <trkpt lat="45.93217" lon="5.67662">
        <ele>527.6</ele>
        <time>2026-05-13T09:17:41Z</time>
      </trkpt>
      <trkpt lat="45.93216" lon="5.67664">
        <ele>527.6</ele>
        <time>2026-05-13T09:17:42Z</time>
      </trkpt>
      <trkpt lat="45.93214" lon="5.67667">
        <ele>527.6</ele>
        <time>2026-05-13T09:17:43Z</time>
      </trkpt>
      <trkpt lat="45.93213" lon="5.67669">
        <ele>527.6</ele>
        <time>2026-05-13T09:17:44Z</time>
      </trkpt>
      <trkpt lat="45.93211" lon="5.6767">
        <ele>527</ele>
        <time>2026-05-13T09:17:45Z</time>
      </trkpt>
      <trkpt lat="45.93208" lon="5.67671">
        <ele>527</ele>
        <time>2026-05-13T09:17:46Z</time>
      </trkpt>
      <trkpt lat="45.93205" lon="5.67672">
        <ele>526.6</ele>
        <time>2026-05-13T09:17:47Z</time>
      </trkpt>
      <trkpt lat="45.93202" lon="5.67672">
        <ele>526.2</ele>
        <time>2026-05-13T09:17:48Z</time>
      </trkpt>
      <trkpt lat="45.93199" lon="5.67673">
        <ele>526.2</ele>
        <time>2026-05-13T09:17:49Z</time>
      </trkpt>
      <trkpt lat="45.93196" lon="5.67673">
        <ele>526.2</ele>
        <time>2026-05-13T09:17:50Z</time>
      </trkpt>
      <trkpt lat="45.93193" lon="5.67673">
        <ele>525.8</ele>
        <time>2026-05-13T09:17:51Z</time>
      </trkpt>
      <trkpt lat="45.9319" lon="5.67673">
        <ele>525.8</ele>
        <time>2026-05-13T09:17:52Z</time>
      </trkpt>
      <trkpt lat="45.93187" lon="5.67674">
        <ele>525.4</ele>
        <time>2026-05-13T09:17:53Z</time>
      </trkpt>
      <trkpt lat="45.93184" lon="5.67674">
        <ele>525</ele>
        <time>2026-05-13T09:17:54Z</time>
      </trkpt>
      <trkpt lat="45.93181" lon="5.67674">
        <ele>525</ele>
        <time>2026-05-13T09:17:55Z</time>
      </trkpt>
      <trkpt lat="45.93178" lon="5.67674">
        <ele>524.4</ele>
        <time>2026-05-13T09:17:56Z</time>
      </trkpt>
      <trkpt lat="45.93175" lon="5.67674">
        <ele>524.4</ele>
        <time>2026-05-13T09:17:57Z</time>
      </trkpt>
      <trkpt lat="45.93173" lon="5.67675">
        <ele>524</ele>
        <time>2026-05-13T09:17:58Z</time>
      </trkpt>
      <trkpt lat="45.9317" lon="5.67675">
        <ele>523.6</ele>
        <time>2026-05-13T09:17:59Z</time>
      </trkpt>
      <trkpt lat="45.93168" lon="5.67675">
        <ele>523.4</ele>
        <time>2026-05-13T09:18:00Z</time>
      </trkpt>
      <trkpt lat="45.93166" lon="5.67676">
        <ele>523.4</ele>
        <time>2026-05-13T09:18:01Z</time>
      </trkpt>
      <trkpt lat="45.93163" lon="5.67677">
        <ele>522.8</ele>
        <time>2026-05-13T09:18:02Z</time>
      </trkpt>
      <trkpt lat="45.93159" lon="5.67677">
        <ele>522.8</ele>
        <time>2026-05-13T09:18:03Z</time>
      </trkpt>
      <trkpt lat="45.93156" lon="5.67678">
        <ele>522.8</ele>
        <time>2026-05-13T09:18:04Z</time>
      </trkpt>
      <trkpt lat="45.93153" lon="5.67678">
        <ele>522.8</ele>
        <time>2026-05-13T09:18:05Z</time>
      </trkpt>
      <trkpt lat="45.93149" lon="5.67679">
        <ele>522.4</ele>
        <time>2026-05-13T09:18:06Z</time>
      </trkpt>
      <trkpt lat="45.93146" lon="5.6768">
        <ele>522.4</ele>
        <time>2026-05-13T09:18:07Z</time>
      </trkpt>
      <trkpt lat="45.93142" lon="5.6768">
        <ele>522</ele>
        <time>2026-05-13T09:18:08Z</time>
      </trkpt>
      <trkpt lat="45.93139" lon="5.67681">
        <ele>522</ele>
        <time>2026-05-13T09:18:09Z</time>
      </trkpt>
      <trkpt lat="45.93136" lon="5.67681">
        <ele>521.8</ele>
        <time>2026-05-13T09:18:10Z</time>
      </trkpt>
      <trkpt lat="45.93134" lon="5.67682">
        <ele>521.8</ele>
        <time>2026-05-13T09:18:11Z</time>
      </trkpt>
      <trkpt lat="45.93132" lon="5.67682">
        <ele>521.4</ele>
        <time>2026-05-13T09:18:12Z</time>
      </trkpt>
      <trkpt lat="45.9313" lon="5.67683">
        <ele>521.4</ele>
        <time>2026-05-13T09:18:13Z</time>
      </trkpt>
      <trkpt lat="45.93128" lon="5.67683">
        <ele>521.2</ele>
        <time>2026-05-13T09:18:14Z</time>
      </trkpt>
      <trkpt lat="45.93125" lon="5.67684">
        <ele>521.2</ele>
        <time>2026-05-13T09:18:15Z</time>
      </trkpt>
      <trkpt lat="45.9312" lon="5.67684">
        <ele>521.2</ele>
        <time>2026-05-13T09:18:16Z</time>
      </trkpt>
      <trkpt lat="45.93118" lon="5.67685">
        <ele>521</ele>
        <time>2026-05-13T09:18:17Z</time>
      </trkpt>
      <trkpt lat="45.93116" lon="5.67686">
        <ele>521</ele>
        <time>2026-05-13T09:18:18Z</time>
      </trkpt>
      <trkpt lat="45.93115" lon="5.67686">
        <ele>520.6</ele>
        <time>2026-05-13T09:18:19Z</time>
      </trkpt>
      <trkpt lat="45.93113" lon="5.67687">
        <ele>520.4</ele>
        <time>2026-05-13T09:18:20Z</time>
      </trkpt>
      <trkpt lat="45.93111" lon="5.67687">
        <ele>520.2</ele>
        <time>2026-05-13T09:18:21Z</time>
      </trkpt>
      <trkpt lat="45.93109" lon="5.67688">
        <ele>520.2</ele>
        <time>2026-05-13T09:18:22Z</time>
      </trkpt>
      <trkpt lat="45.93108" lon="5.67689">
        <ele>519.8</ele>
        <time>2026-05-13T09:18:23Z</time>
      </trkpt>
      <trkpt lat="45.93107" lon="5.67689">
        <ele>519.8</ele>
        <time>2026-05-13T09:18:24Z</time>
      </trkpt>
      <trkpt lat="45.93106" lon="5.6769">
        <ele>519.6</ele>
        <time>2026-05-13T09:18:25Z</time>
      </trkpt>
      <trkpt lat="45.93105" lon="5.67691">
        <ele>519.4</ele>
        <time>2026-05-13T09:18:26Z</time>
      </trkpt>
      <trkpt lat="45.93104" lon="5.67693">
        <ele>519.4</ele>
        <time>2026-05-13T09:18:27Z</time>
      </trkpt>
      <trkpt lat="45.93103" lon="5.67695">
        <ele>519.4</ele>
        <time>2026-05-13T09:18:28Z</time>
      </trkpt>
      <trkpt lat="45.93102" lon="5.67698">
        <ele>519.4</ele>
        <time>2026-05-13T09:18:29Z</time>
      </trkpt>
      <trkpt lat="45.93102" lon="5.677">
        <ele>518.8</ele>
        <time>2026-05-13T09:18:30Z</time>
      </trkpt>
      <trkpt lat="45.93101" lon="5.67703">
        <ele>518.8</ele>
        <time>2026-05-13T09:18:31Z</time>
      </trkpt>
      <trkpt lat="45.931" lon="5.67706">
        <ele>518.8</ele>
        <time>2026-05-13T09:18:32Z</time>
      </trkpt>
      <trkpt lat="45.93099" lon="5.67709">
        <ele>518.6</ele>
        <time>2026-05-13T09:18:33Z</time>
      </trkpt>
      <trkpt lat="45.93097" lon="5.67713">
        <ele>518.2</ele>
        <time>2026-05-13T09:18:34Z</time>
      </trkpt>
      <trkpt lat="45.93095" lon="5.67716">
        <ele>517.8</ele>
        <time>2026-05-13T09:18:35Z</time>
      </trkpt>
      <trkpt lat="45.93093" lon="5.67719">
        <ele>517.6</ele>
        <time>2026-05-13T09:18:36Z</time>
      </trkpt>
      <trkpt lat="45.93092" lon="5.67722">
        <ele>517</ele>
        <time>2026-05-13T09:18:37Z</time>
      </trkpt>
      <trkpt lat="45.93091" lon="5.67725">
        <ele>516.6</ele>
        <time>2026-05-13T09:18:38Z</time>
      </trkpt>
      <trkpt lat="45.93089" lon="5.67728">
        <ele>516.4</ele>
        <time>2026-05-13T09:18:39Z</time>
      </trkpt>
      <trkpt lat="45.93088" lon="5.67731">
        <ele>516.2</ele>
        <time>2026-05-13T09:18:40Z</time>
      </trkpt>
      <trkpt lat="45.93087" lon="5.67734">
        <ele>515.6</ele>
        <time>2026-05-13T09:18:41Z</time>
      </trkpt>
      <trkpt lat="45.93086" lon="5.67738">
        <ele>515.2</ele>
        <time>2026-05-13T09:18:42Z</time>
      </trkpt>
      <trkpt lat="45.93086" lon="5.67742">
        <ele>514.8</ele>
        <time>2026-05-13T09:18:43Z</time>
      </trkpt>
      <trkpt lat="45.93086" lon="5.67746">
        <ele>514.6</ele>
        <time>2026-05-13T09:18:44Z</time>
      </trkpt>
      <trkpt lat="45.93087" lon="5.67751">
        <ele>514.6</ele>
        <time>2026-05-13T09:18:45Z</time>
      </trkpt>
      <trkpt lat="45.93086" lon="5.67756">
        <ele>514.4</ele>
        <time>2026-05-13T09:18:46Z</time>
      </trkpt>
      <trkpt lat="45.93086" lon="5.67761">
        <ele>513.4</ele>
        <time>2026-05-13T09:18:47Z</time>
      </trkpt>
      <trkpt lat="45.93086" lon="5.67766">
        <ele>512.6</ele>
        <time>2026-05-13T09:18:48Z</time>
      </trkpt>
      <trkpt lat="45.93086" lon="5.67771">
        <ele>512.6</ele>
        <time>2026-05-13T09:18:49Z</time>
      </trkpt>
      <trkpt lat="45.93087" lon="5.67776">
        <ele>511.8</ele>
        <time>2026-05-13T09:18:50Z</time>
      </trkpt>
      <trkpt lat="45.93087" lon="5.67781">
        <ele>511.8</ele>
        <time>2026-05-13T09:18:51Z</time>
      </trkpt>
      <trkpt lat="45.93087" lon="5.67786">
        <ele>511.4</ele>
        <time>2026-05-13T09:18:52Z</time>
      </trkpt>
      <trkpt lat="45.93087" lon="5.67792">
        <ele>510.8</ele>
        <time>2026-05-13T09:18:53Z</time>
      </trkpt>
      <trkpt lat="45.93087" lon="5.67797">
        <ele>510.8</ele>
        <time>2026-05-13T09:18:54Z</time>
      </trkpt>
      <trkpt lat="45.93088" lon="5.67802">
        <ele>509.8</ele>
        <time>2026-05-13T09:18:55Z</time>
      </trkpt>
      <trkpt lat="45.93088" lon="5.67807">
        <ele>509.6</ele>
        <time>2026-05-13T09:18:56Z</time>
      </trkpt>
      <trkpt lat="45.93088" lon="5.67811">
        <ele>508.4</ele>
        <time>2026-05-13T09:18:57Z</time>
      </trkpt>
      <trkpt lat="45.93088" lon="5.67816">
        <ele>508.4</ele>
        <time>2026-05-13T09:18:58Z</time>
      </trkpt>
      <trkpt lat="45.93088" lon="5.6782">
        <ele>508</ele>
        <time>2026-05-13T09:18:59Z</time>
      </trkpt>
      <trkpt lat="45.93088" lon="5.67826">
        <ele>507.6</ele>
        <time>2026-05-13T09:19:00Z</time>
      </trkpt>
      <trkpt lat="45.93088" lon="5.6783">
        <ele>507</ele>
        <time>2026-05-13T09:19:01Z</time>
      </trkpt>
      <trkpt lat="45.93088" lon="5.67835">
        <ele>506.6</ele>
        <time>2026-05-13T09:19:02Z</time>
      </trkpt>
      <trkpt lat="45.93089" lon="5.67839">
        <ele>506.6</ele>
        <time>2026-05-13T09:19:03Z</time>
      </trkpt>
      <trkpt lat="45.93089" lon="5.67844">
        <ele>506.6</ele>
        <time>2026-05-13T09:19:04Z</time>
      </trkpt>
      <trkpt lat="45.93089" lon="5.67848">
        <ele>506.6</ele>
        <time>2026-05-13T09:19:05Z</time>
      </trkpt>
      <trkpt lat="45.93088" lon="5.67853">
        <ele>506.4</ele>
        <time>2026-05-13T09:19:06Z</time>
      </trkpt>
      <trkpt lat="45.93087" lon="5.67858">
        <ele>506.6</ele>
        <time>2026-05-13T09:19:07Z</time>
      </trkpt>
      <trkpt lat="45.93087" lon="5.67863">
        <ele>506.6</ele>
        <time>2026-05-13T09:19:08Z</time>
      </trkpt>
      <trkpt lat="45.93087" lon="5.67869">
        <ele>506.6</ele>
        <time>2026-05-13T09:19:09Z</time>
      </trkpt>
      <trkpt lat="45.93087" lon="5.67874">
        <ele>506.6</ele>
        <time>2026-05-13T09:19:10Z</time>
      </trkpt>
      <trkpt lat="45.93088" lon="5.67877">
        <ele>506</ele>
        <time>2026-05-13T09:19:11Z</time>
      </trkpt>
      <trkpt lat="45.93088" lon="5.67881">
        <ele>506</ele>
        <time>2026-05-13T09:19:12Z</time>
      </trkpt>
      <trkpt lat="45.93088" lon="5.67885">
        <ele>505.8</ele>
        <time>2026-05-13T09:19:13Z</time>
      </trkpt>
      <trkpt lat="45.93088" lon="5.67888">
        <ele>505.8</ele>
        <time>2026-05-13T09:19:14Z</time>
      </trkpt>
      <trkpt lat="45.93088" lon="5.67891">
        <ele>506.2</ele>
        <time>2026-05-13T09:19:15Z</time>
      </trkpt>
      <trkpt lat="45.93088" lon="5.67894">
        <ele>506.2</ele>
        <time>2026-05-13T09:19:16Z</time>
      </trkpt>
      <trkpt lat="45.93088" lon="5.67896">
        <ele>506.4</ele>
        <time>2026-05-13T09:19:17Z</time>
      </trkpt>
      <trkpt lat="45.93088" lon="5.679">
        <ele>506.4</ele>
        <time>2026-05-13T09:19:18Z</time>
      </trkpt>
      <trkpt lat="45.93087" lon="5.67904">
        <ele>506.4</ele>
        <time>2026-05-13T09:19:19Z</time>
      </trkpt>
      <trkpt lat="45.93088" lon="5.67908">
        <ele>506.2</ele>
        <time>2026-05-13T09:19:20Z</time>
      </trkpt>
      <trkpt lat="45.93089" lon="5.67911">
        <ele>506.2</ele>
        <time>2026-05-13T09:19:21Z</time>
      </trkpt>
      <trkpt lat="45.93091" lon="5.67914">
        <ele>505.2</ele>
        <time>2026-05-13T09:19:22Z</time>
      </trkpt>
      <trkpt lat="45.93093" lon="5.67917">
        <ele>505.2</ele>
        <time>2026-05-13T09:19:23Z</time>
      </trkpt>
      <trkpt lat="45.93094" lon="5.6792">
        <ele>504.8</ele>
        <time>2026-05-13T09:19:24Z</time>
      </trkpt>
      <trkpt lat="45.93095" lon="5.67925">
        <ele>504</ele>
        <time>2026-05-13T09:19:25Z</time>
      </trkpt>
      <trkpt lat="45.93096" lon="5.67928">
        <ele>503.4</ele>
        <time>2026-05-13T09:19:26Z</time>
      </trkpt>
      <trkpt lat="45.93097" lon="5.67932">
        <ele>502.8</ele>
        <time>2026-05-13T09:19:27Z</time>
      </trkpt>
      <trkpt lat="45.93099" lon="5.67936">
        <ele>502.6</ele>
        <time>2026-05-13T09:19:28Z</time>
      </trkpt>
      <trkpt lat="45.93102" lon="5.6794">
        <ele>502.2</ele>
        <time>2026-05-13T09:19:29Z</time>
      </trkpt>
      <trkpt lat="45.93103" lon="5.67944">
        <ele>501.2</ele>
        <time>2026-05-13T09:19:30Z</time>
      </trkpt>
      <trkpt lat="45.93105" lon="5.67947">
        <ele>500.6</ele>
        <time>2026-05-13T09:19:31Z</time>
      </trkpt>
      <trkpt lat="45.93105" lon="5.6795">
        <ele>500</ele>
        <time>2026-05-13T09:19:32Z</time>
      </trkpt>
      <trkpt lat="45.93106" lon="5.67954">
        <ele>497.8</ele>
        <time>2026-05-13T09:19:33Z</time>
      </trkpt>
      <trkpt lat="45.93107" lon="5.67959">
        <ele>497.2</ele>
        <time>2026-05-13T09:19:34Z</time>
      </trkpt>
      <trkpt lat="45.93108" lon="5.67963">
        <ele>496.8</ele>
        <time>2026-05-13T09:19:35Z</time>
      </trkpt>
      <trkpt lat="45.93109" lon="5.67968">
        <ele>496.2</ele>
        <time>2026-05-13T09:19:36Z</time>
      </trkpt>
      <trkpt lat="45.9311" lon="5.67973">
        <ele>495.6</ele>
        <time>2026-05-13T09:19:37Z</time>
      </trkpt>
      <trkpt lat="45.9311" lon="5.67978">
        <ele>495</ele>
        <time>2026-05-13T09:19:38Z</time>
      </trkpt>
      <trkpt lat="45.9311" lon="5.67982">
        <ele>494</ele>
        <time>2026-05-13T09:19:39Z</time>
      </trkpt>
      <trkpt lat="45.9311" lon="5.67987">
        <ele>493.4</ele>
        <time>2026-05-13T09:19:40Z</time>
      </trkpt>
      <trkpt lat="45.93108" lon="5.67992">
        <ele>493</ele>
        <time>2026-05-13T09:19:41Z</time>
      </trkpt>
      <trkpt lat="45.93102" lon="5.67995">
        <ele>492</ele>
        <time>2026-05-13T09:19:42Z</time>
      </trkpt>
      <trkpt lat="45.931" lon="5.67999">
        <ele>492</ele>
        <time>2026-05-13T09:19:43Z</time>
      </trkpt>
      <trkpt lat="45.93096" lon="5.68003">
        <ele>491.2</ele>
        <time>2026-05-13T09:19:44Z</time>
      </trkpt>
      <trkpt lat="45.93093" lon="5.68006">
        <ele>490.6</ele>
        <time>2026-05-13T09:19:45Z</time>
      </trkpt>
      <trkpt lat="45.9309" lon="5.68009">
        <ele>490.6</ele>
        <time>2026-05-13T09:19:46Z</time>
      </trkpt>
      <trkpt lat="45.93087" lon="5.68012">
        <ele>490.4</ele>
        <time>2026-05-13T09:19:47Z</time>
      </trkpt>
      <trkpt lat="45.93082" lon="5.68013">
        <ele>490.4</ele>
        <time>2026-05-13T09:19:48Z</time>
      </trkpt>
      <trkpt lat="45.93079" lon="5.68013">
        <ele>489.8</ele>
        <time>2026-05-13T09:19:49Z</time>
      </trkpt>
      <trkpt lat="45.93076" lon="5.68016">
        <ele>489.2</ele>
        <time>2026-05-13T09:19:50Z</time>
      </trkpt>
      <trkpt lat="45.93071" lon="5.68018">
        <ele>488.8</ele>
        <time>2026-05-13T09:19:51Z</time>
      </trkpt>
      <trkpt lat="45.93067" lon="5.6802">
        <ele>488.6</ele>
        <time>2026-05-13T09:19:52Z</time>
      </trkpt>
      <trkpt lat="45.93064" lon="5.68021">
        <ele>488.6</ele>
        <time>2026-05-13T09:19:53Z</time>
      </trkpt>
      <trkpt lat="45.9306" lon="5.68022">
        <ele>488.2</ele>
        <time>2026-05-13T09:19:54Z</time>
      </trkpt>
      <trkpt lat="45.93056" lon="5.68024">
        <ele>487.8</ele>
        <time>2026-05-13T09:19:55Z</time>
      </trkpt>
      <trkpt lat="45.93051" lon="5.68026">
        <ele>487.6</ele>
        <time>2026-05-13T09:19:56Z</time>
      </trkpt>
      <trkpt lat="45.93046" lon="5.68028">
        <ele>487.2</ele>
        <time>2026-05-13T09:19:57Z</time>
      </trkpt>
      <trkpt lat="45.93042" lon="5.68028">
        <ele>487.2</ele>
        <time>2026-05-13T09:19:58Z</time>
      </trkpt>
      <trkpt lat="45.93039" lon="5.68029">
        <ele>487</ele>
        <time>2026-05-13T09:19:59Z</time>
      </trkpt>
      <trkpt lat="45.93037" lon="5.68032">
        <ele>487</ele>
        <time>2026-05-13T09:20:00Z</time>
      </trkpt>
      <trkpt lat="45.93034" lon="5.68035">
        <ele>487</ele>
        <time>2026-05-13T09:20:01Z</time>
      </trkpt>
      <trkpt lat="45.93034" lon="5.68035">
        <ele>486.6</ele>
        <time>2026-05-13T09:20:02Z</time>
      </trkpt>
      <trkpt lat="45.93034" lon="5.68035">
        <ele>486.6</ele>
        <time>2026-05-13T09:20:03Z</time>
      </trkpt>
      <trkpt lat="45.93034" lon="5.68041">
        <ele>486.2</ele>
        <time>2026-05-13T09:20:04Z</time>
      </trkpt>
      <trkpt lat="45.93034" lon="5.68044">
        <ele>486.2</ele>
        <time>2026-05-13T09:20:05Z</time>
      </trkpt>
      <trkpt lat="45.93036" lon="5.68047">
        <ele>486</ele>
        <time>2026-05-13T09:20:06Z</time>
      </trkpt>
      <trkpt lat="45.93036" lon="5.68048">
        <ele>486</ele>
        <time>2026-05-13T09:20:07Z</time>
      </trkpt>
      <trkpt lat="45.93036" lon="5.68048">
        <ele>486</ele>
        <time>2026-05-13T09:20:08Z</time>
      </trkpt>
      <trkpt lat="45.93036" lon="5.68048">
        <ele>486</ele>
        <time>2026-05-13T09:20:09Z</time>
      </trkpt>
      <trkpt lat="45.93039" lon="5.68051">
        <ele>485</ele>
        <time>2026-05-13T09:20:52Z</time>
      </trkpt>
      <trkpt lat="45.93039" lon="5.68052">
        <ele>485</ele>
        <time>2026-05-13T09:20:53Z</time>
      </trkpt>
      <trkpt lat="45.93038" lon="5.68053">
        <ele>485</ele>
        <time>2026-05-13T09:20:54Z</time>
      </trkpt>
      <trkpt lat="45.93037" lon="5.68054">
        <ele>485</ele>
        <time>2026-05-13T09:20:55Z</time>
      </trkpt>
      <trkpt lat="45.93037" lon="5.68054">
        <ele>485</ele>
        <time>2026-05-13T09:20:56Z</time>
      </trkpt>
      <trkpt lat="45.93036" lon="5.68054">
        <ele>485</ele>
        <time>2026-05-13T09:20:57Z</time>
      </trkpt>
      <trkpt lat="45.93031" lon="5.68052">
        <ele>484.6</ele>
        <time>2026-05-13T09:21:18Z</time>
      </trkpt>
      <trkpt lat="45.93031" lon="5.68052">
        <ele>484.6</ele>
        <time>2026-05-13T09:21:19Z</time>
      </trkpt>
      <trkpt lat="45.93032" lon="5.68052">
        <ele>485</ele>
        <time>2026-05-13T09:21:20Z</time>
      </trkpt>
      <trkpt lat="45.93032" lon="5.68053">
        <ele>485</ele>
        <time>2026-05-13T09:21:21Z</time>
      </trkpt>
      <trkpt lat="45.93032" lon="5.68054">
        <ele>485</ele>
        <time>2026-05-13T09:21:22Z</time>
      </trkpt>
      <trkpt lat="45.93032" lon="5.68055">
        <ele>485</ele>
        <time>2026-05-13T09:21:23Z</time>
      </trkpt>
      <trkpt lat="45.93032" lon="5.68056">
        <ele>485</ele>
        <time>2026-05-13T09:21:24Z</time>
      </trkpt>
      <trkpt lat="45.93032" lon="5.68056">
        <ele>485</ele>
        <time>2026-05-13T09:21:25Z</time>
      </trkpt>
      <trkpt lat="45.93031" lon="5.68056">
        <ele>485.6</ele>
        <time>2026-05-13T09:23:09Z</time>
      </trkpt>
      <trkpt lat="45.93031" lon="5.68055">
        <ele>485.6</ele>
        <time>2026-05-13T09:23:10Z</time>
      </trkpt>
      <trkpt lat="45.9303" lon="5.68054">
        <ele>485.4</ele>
        <time>2026-05-13T09:23:11Z</time>
      </trkpt>
      <trkpt lat="45.9303" lon="5.68053">
        <ele>485.4</ele>
        <time>2026-05-13T09:23:12Z</time>
      </trkpt>
      <trkpt lat="45.93031" lon="5.68051">
        <ele>485.4</ele>
        <time>2026-05-13T09:23:13Z</time>
      </trkpt>
      <trkpt lat="45.93031" lon="5.68051">
        <ele>485.4</ele>
        <time>2026-05-13T09:23:14Z</time>
      </trkpt>
      <trkpt lat="45.93042" lon="5.68042">
        <ele>485.8</ele>
        <time>2026-05-13T09:28:16Z</time>
      </trkpt>
      <trkpt lat="45.93042" lon="5.68042">
        <ele>485.8</ele>
        <time>2026-05-13T09:28:17Z</time>
      </trkpt>
      <trkpt lat="45.93042" lon="5.68042">
        <ele>485.8</ele>
        <time>2026-05-13T09:28:18Z</time>
      </trkpt>
      <trkpt lat="45.9304" lon="5.68045">
        <ele>486</ele>
        <time>2026-05-13T09:28:20Z</time>
      </trkpt>
      <trkpt lat="45.9304" lon="5.68046">
        <ele>486</ele>
        <time>2026-05-13T09:28:21Z</time>
      </trkpt>
      <trkpt lat="45.93039" lon="5.68047">
        <ele>486</ele>
        <time>2026-05-13T09:28:22Z</time>
      </trkpt>
      <trkpt lat="45.93038" lon="5.68048">
        <ele>486</ele>
        <time>2026-05-13T09:28:23Z</time>
      </trkpt>
      <trkpt lat="45.93038" lon="5.68049">
        <ele>486</ele>
        <time>2026-05-13T09:28:24Z</time>
      </trkpt>
      <trkpt lat="45.93038" lon="5.6805">
        <ele>486</ele>
        <time>2026-05-13T09:28:25Z</time>
      </trkpt>
      <trkpt lat="45.93037" lon="5.68051">
        <ele>486.4</ele>
        <time>2026-05-13T09:28:26Z</time>
      </trkpt>
      <trkpt lat="45.93037" lon="5.68052">
        <ele>486.4</ele>
        <time>2026-05-13T09:28:27Z</time>
      </trkpt>
      <trkpt lat="45.93036" lon="5.68052">
        <ele>486.6</ele>
        <time>2026-05-13T09:28:28Z</time>
      </trkpt>
      <trkpt lat="45.93035" lon="5.68052">
        <ele>486.6</ele>
        <time>2026-05-13T09:28:29Z</time>
      </trkpt>
      <trkpt lat="45.93035" lon="5.68053">
        <ele>486.6</ele>
        <time>2026-05-13T09:28:30Z</time>
      </trkpt>
      <trkpt lat="45.93035" lon="5.68053">
        <ele>487</ele>
        <time>2026-05-13T09:28:31Z</time>
      </trkpt>
      <trkpt lat="45.93034" lon="5.68054">
        <ele>487</ele>
        <time>2026-05-13T09:28:32Z</time>
      </trkpt>
      <trkpt lat="45.93034" lon="5.68055">
        <ele>487</ele>
        <time>2026-05-13T09:28:33Z</time>
      </trkpt>
      <trkpt lat="45.93034" lon="5.68056">
        <ele>487</ele>
        <time>2026-05-13T09:28:34Z</time>
      </trkpt>
      <trkpt lat="45.93034" lon="5.68057">
        <ele>487</ele>
        <time>2026-05-13T09:28:35Z</time>
      </trkpt>
      <trkpt lat="45.93033" lon="5.68058">
        <ele>487</ele>
        <time>2026-05-13T09:28:36Z</time>
      </trkpt>
      <trkpt lat="45.93033" lon="5.68059">
        <ele>487</ele>
        <time>2026-05-13T09:28:37Z</time>
      </trkpt>
      <trkpt lat="45.93033" lon="5.6806">
        <ele>487</ele>
        <time>2026-05-13T09:28:38Z</time>
      </trkpt>
      <trkpt lat="45.93033" lon="5.68061">
        <ele>487</ele>
        <time>2026-05-13T09:28:39Z</time>
      </trkpt>
      <trkpt lat="45.93033" lon="5.68062">
        <ele>487</ele>
        <time>2026-05-13T09:28:40Z</time>
      </trkpt>
      <trkpt lat="45.93033" lon="5.68063">
        <ele>487</ele>
        <time>2026-05-13T09:28:41Z</time>
      </trkpt>
      <trkpt lat="45.93033" lon="5.68065">
        <ele>487</ele>
        <time>2026-05-13T09:28:42Z</time>
      </trkpt>
      <trkpt lat="45.93033" lon="5.68067">
        <ele>487</ele>
        <time>2026-05-13T09:28:43Z</time>
      </trkpt>
      <trkpt lat="45.93034" lon="5.68069">
        <ele>487</ele>
        <time>2026-05-13T09:28:44Z</time>
      </trkpt>
      <trkpt lat="45.93033" lon="5.68069">
        <ele>487</ele>
        <time>2026-05-13T09:28:45Z</time>
      </trkpt>
      <trkpt lat="45.93033" lon="5.68069">
        <ele>487</ele>
        <time>2026-05-13T09:28:46Z</time>
      </trkpt>
      <trkpt lat="45.93033" lon="5.6807">
        <ele>486.8</ele>
        <time>2026-05-13T09:28:47Z</time>
      </trkpt>
      <trkpt lat="45.93034" lon="5.68071">
        <ele>486.4</ele>
        <time>2026-05-13T09:28:50Z</time>
      </trkpt>
      <trkpt lat="45.93035" lon="5.68071">
        <ele>486.4</ele>
        <time>2026-05-13T09:28:51Z</time>
      </trkpt>
      <trkpt lat="45.93036" lon="5.68071">
        <ele>486.4</ele>
        <time>2026-05-13T09:28:52Z</time>
      </trkpt>
      <trkpt lat="45.93035" lon="5.68071">
        <ele>486.4</ele>
        <time>2026-05-13T09:28:53Z</time>
      </trkpt>
      <trkpt lat="45.93035" lon="5.68071">
        <ele>486.2</ele>
        <time>2026-05-13T09:28:54Z</time>
      </trkpt>
      <trkpt lat="45.93038" lon="5.68071">
        <ele>486.2</ele>
        <time>2026-05-13T09:28:58Z</time>
      </trkpt>
      <trkpt lat="45.93039" lon="5.68071">
        <ele>486.2</ele>
        <time>2026-05-13T09:28:59Z</time>
      </trkpt>
      <trkpt lat="45.93041" lon="5.6807">
        <ele>486</ele>
        <time>2026-05-13T09:29:00Z</time>
      </trkpt>
      <trkpt lat="45.93041" lon="5.68069">
        <ele>486</ele>
        <time>2026-05-13T09:29:01Z</time>
      </trkpt>
      <trkpt lat="45.93041" lon="5.68069">
        <ele>485.8</ele>
        <time>2026-05-13T09:29:02Z</time>
      </trkpt>
      <trkpt lat="45.9304" lon="5.68066">
        <ele>485.8</ele>
        <time>2026-05-13T09:29:03Z</time>
      </trkpt>
      <trkpt lat="45.93039" lon="5.68065">
        <ele>485.8</ele>
        <time>2026-05-13T09:29:04Z</time>
      </trkpt>
      <trkpt lat="45.93038" lon="5.68064">
        <ele>485.8</ele>
        <time>2026-05-13T09:29:05Z</time>
      </trkpt>
      <trkpt lat="45.93038" lon="5.68063">
        <ele>485.4</ele>
        <time>2026-05-13T09:29:06Z</time>
      </trkpt>
      <trkpt lat="45.93038" lon="5.68063">
        <ele>485.4</ele>
        <time>2026-05-13T09:29:07Z</time>
      </trkpt>
      <trkpt lat="45.93039" lon="5.68063">
        <ele>485.4</ele>
        <time>2026-05-13T09:29:08Z</time>
      </trkpt>
      <trkpt lat="45.93041" lon="5.68067">
        <ele>485</ele>
        <time>2026-05-13T09:31:04Z</time>
      </trkpt>
      <trkpt lat="45.93042" lon="5.68067">
        <ele>485</ele>
        <time>2026-05-13T09:31:05Z</time>
      </trkpt>
      <trkpt lat="45.93044" lon="5.68066">
        <ele>485</ele>
        <time>2026-05-13T09:31:06Z</time>
      </trkpt>
      <trkpt lat="45.93045" lon="5.68066">
        <ele>485</ele>
        <time>2026-05-13T09:31:07Z</time>
      </trkpt>
      <trkpt lat="45.93047" lon="5.68066">
        <ele>485</ele>
        <time>2026-05-13T09:31:08Z</time>
      </trkpt>
      <trkpt lat="45.93047" lon="5.68066">
        <ele>485</ele>
        <time>2026-05-13T09:31:09Z</time>
      </trkpt>
      <trkpt lat="45.93048" lon="5.68067">
        <ele>485</ele>
        <time>2026-05-13T09:31:10Z</time>
      </trkpt>
      <trkpt lat="45.93048" lon="5.68067">
        <ele>485.2</ele>
        <time>2026-05-13T09:31:11Z</time>
      </trkpt>
      <trkpt lat="45.93048" lon="5.68067">
        <ele>485.2</ele>
        <time>2026-05-13T09:31:12Z</time>
      </trkpt>
      <trkpt lat="45.93048" lon="5.68067">
        <ele>485.2</ele>
        <time>2026-05-13T09:31:13Z</time>
      </trkpt>
      <trkpt lat="45.9305" lon="5.68072">
        <ele>484.2</ele>
        <time>2026-05-13T09:31:29Z</time>
      </trkpt>
      <trkpt lat="45.93051" lon="5.68072">
        <ele>484.2</ele>
        <time>2026-05-13T09:31:30Z</time>
      </trkpt>
      <trkpt lat="45.93053" lon="5.68072">
        <ele>484.4</ele>
        <time>2026-05-13T09:31:31Z</time>
      </trkpt>
      <trkpt lat="45.93055" lon="5.68072">
        <ele>484.8</ele>
        <time>2026-05-13T09:31:32Z</time>
      </trkpt>
      <trkpt lat="45.93056" lon="5.68072">
        <ele>484.8</ele>
        <time>2026-05-13T09:31:33Z</time>
      </trkpt>
      <trkpt lat="45.93059" lon="5.68072">
        <ele>484.8</ele>
        <time>2026-05-13T09:31:34Z</time>
      </trkpt>
      <trkpt lat="45.93061" lon="5.68072">
        <ele>484.8</ele>
        <time>2026-05-13T09:31:35Z</time>
      </trkpt>
      <trkpt lat="45.93064" lon="5.68072">
        <ele>484.8</ele>
        <time>2026-05-13T09:31:36Z</time>
      </trkpt>
      <trkpt lat="45.93066" lon="5.68072">
        <ele>484.8</ele>
        <time>2026-05-13T09:31:37Z</time>
      </trkpt>
      <trkpt lat="45.93068" lon="5.68072">
        <ele>485</ele>
        <time>2026-05-13T09:31:38Z</time>
      </trkpt>
      <trkpt lat="45.9307" lon="5.68072">
        <ele>485</ele>
        <time>2026-05-13T09:31:39Z</time>
      </trkpt>
      <trkpt lat="45.93072" lon="5.68073">
        <ele>485</ele>
        <time>2026-05-13T09:31:40Z</time>
      </trkpt>
      <trkpt lat="45.93075" lon="5.68073">
        <ele>485.2</ele>
        <time>2026-05-13T09:31:41Z</time>
      </trkpt>
      <trkpt lat="45.93077" lon="5.68073">
        <ele>485.2</ele>
        <time>2026-05-13T09:31:42Z</time>
      </trkpt>
      <trkpt lat="45.9308" lon="5.68073">
        <ele>485.2</ele>
        <time>2026-05-13T09:31:43Z</time>
      </trkpt>
      <trkpt lat="45.93081" lon="5.68074">
        <ele>485.6</ele>
        <time>2026-05-13T09:31:44Z</time>
      </trkpt>
      <trkpt lat="45.93083" lon="5.68074">
        <ele>485.6</ele>
        <time>2026-05-13T09:31:45Z</time>
      </trkpt>
      <trkpt lat="45.93086" lon="5.68074">
        <ele>485.6</ele>
        <time>2026-05-13T09:31:46Z</time>
      </trkpt>
      <trkpt lat="45.93089" lon="5.68073">
        <ele>485.6</ele>
        <time>2026-05-13T09:31:47Z</time>
      </trkpt>
      <trkpt lat="45.93092" lon="5.68072">
        <ele>485.6</ele>
        <time>2026-05-13T09:31:48Z</time>
      </trkpt>
      <trkpt lat="45.93094" lon="5.68072">
        <ele>485.8</ele>
        <time>2026-05-13T09:31:49Z</time>
      </trkpt>
      <trkpt lat="45.93096" lon="5.68072">
        <ele>485.6</ele>
        <time>2026-05-13T09:31:50Z</time>
      </trkpt>
      <trkpt lat="45.93099" lon="5.68071">
        <ele>485.6</ele>
        <time>2026-05-13T09:31:51Z</time>
      </trkpt>
      <trkpt lat="45.93102" lon="5.68072">
        <ele>485.6</ele>
        <time>2026-05-13T09:31:52Z</time>
      </trkpt>
      <trkpt lat="45.93104" lon="5.68072">
        <ele>485.6</ele>
        <time>2026-05-13T09:31:53Z</time>
      </trkpt>
      <trkpt lat="45.93107" lon="5.68072">
        <ele>485.6</ele>
        <time>2026-05-13T09:31:54Z</time>
      </trkpt>
      <trkpt lat="45.9311" lon="5.68071">
        <ele>485.8</ele>
        <time>2026-05-13T09:31:55Z</time>
      </trkpt>
      <trkpt lat="45.93113" lon="5.68072">
        <ele>485.8</ele>
        <time>2026-05-13T09:31:56Z</time>
      </trkpt>
      <trkpt lat="45.93117" lon="5.68073">
        <ele>485.8</ele>
        <time>2026-05-13T09:31:57Z</time>
      </trkpt>
      <trkpt lat="45.9312" lon="5.68074">
        <ele>485.8</ele>
        <time>2026-05-13T09:31:58Z</time>
      </trkpt>
      <trkpt lat="45.93122" lon="5.68074">
        <ele>485.8</ele>
        <time>2026-05-13T09:31:59Z</time>
      </trkpt>
      <trkpt lat="45.93124" lon="5.68074">
        <ele>486</ele>
        <time>2026-05-13T09:32:00Z</time>
      </trkpt>
      <trkpt lat="45.93126" lon="5.68075">
        <ele>486</ele>
        <time>2026-05-13T09:32:01Z</time>
      </trkpt>
      <trkpt lat="45.93129" lon="5.68077">
        <ele>486.4</ele>
        <time>2026-05-13T09:32:02Z</time>
      </trkpt>
      <trkpt lat="45.93131" lon="5.6808">
        <ele>486.4</ele>
        <time>2026-05-13T09:32:03Z</time>
      </trkpt>
      <trkpt lat="45.93132" lon="5.68083">
        <ele>486.4</ele>
        <time>2026-05-13T09:32:04Z</time>
      </trkpt>
      <trkpt lat="45.93133" lon="5.68086">
        <ele>486.6</ele>
        <time>2026-05-13T09:32:05Z</time>
      </trkpt>
      <trkpt lat="45.93134" lon="5.6809">
        <ele>486.6</ele>
        <time>2026-05-13T09:32:06Z</time>
      </trkpt>
      <trkpt lat="45.93135" lon="5.68095">
        <ele>486.6</ele>
        <time>2026-05-13T09:32:07Z</time>
      </trkpt>
      <trkpt lat="45.93136" lon="5.68099">
        <ele>486.6</ele>
        <time>2026-05-13T09:32:08Z</time>
      </trkpt>
      <trkpt lat="45.93138" lon="5.68102">
        <ele>486.6</ele>
        <time>2026-05-13T09:32:09Z</time>
      </trkpt>
      <trkpt lat="45.93139" lon="5.68105">
        <ele>486.6</ele>
        <time>2026-05-13T09:32:10Z</time>
      </trkpt>
      <trkpt lat="45.93141" lon="5.68109">
        <ele>487</ele>
        <time>2026-05-13T09:32:11Z</time>
      </trkpt>
      <trkpt lat="45.93142" lon="5.68111">
        <ele>487</ele>
        <time>2026-05-13T09:32:12Z</time>
      </trkpt>
      <trkpt lat="45.93144" lon="5.68113">
        <ele>487.4</ele>
        <time>2026-05-13T09:32:13Z</time>
      </trkpt>
      <trkpt lat="45.93145" lon="5.68115">
        <ele>487.6</ele>
        <time>2026-05-13T09:32:14Z</time>
      </trkpt>
      <trkpt lat="45.93146" lon="5.68117">
        <ele>487.8</ele>
        <time>2026-05-13T09:32:15Z</time>
      </trkpt>
      <trkpt lat="45.93147" lon="5.6812">
        <ele>487.8</ele>
        <time>2026-05-13T09:32:16Z</time>
      </trkpt>
      <trkpt lat="45.93148" lon="5.68122">
        <ele>488.2</ele>
        <time>2026-05-13T09:32:17Z</time>
      </trkpt>
      <trkpt lat="45.93149" lon="5.68125">
        <ele>488.2</ele>
        <time>2026-05-13T09:32:18Z</time>
      </trkpt>
      <trkpt lat="45.9315" lon="5.68127">
        <ele>488.6</ele>
        <time>2026-05-13T09:32:19Z</time>
      </trkpt>
      <trkpt lat="45.9315" lon="5.68129">
        <ele>488.6</ele>
        <time>2026-05-13T09:32:20Z</time>
      </trkpt>
      <trkpt lat="45.93151" lon="5.68132">
        <ele>488.8</ele>
        <time>2026-05-13T09:32:21Z</time>
      </trkpt>
      <trkpt lat="45.93152" lon="5.68136">
        <ele>489</ele>
        <time>2026-05-13T09:32:22Z</time>
      </trkpt>
      <trkpt lat="45.93152" lon="5.68139">
        <ele>489</ele>
        <time>2026-05-13T09:32:23Z</time>
      </trkpt>
      <trkpt lat="45.93152" lon="5.68141">
        <ele>489</ele>
        <time>2026-05-13T09:32:24Z</time>
      </trkpt>
      <trkpt lat="45.93151" lon="5.68143">
        <ele>489.2</ele>
        <time>2026-05-13T09:32:25Z</time>
      </trkpt>
      <trkpt lat="45.93151" lon="5.68146">
        <ele>489.8</ele>
        <time>2026-05-13T09:32:26Z</time>
      </trkpt>
      <trkpt lat="45.9315" lon="5.68148">
        <ele>490</ele>
        <time>2026-05-13T09:32:27Z</time>
      </trkpt>
      <trkpt lat="45.93149" lon="5.6815">
        <ele>490.4</ele>
        <time>2026-05-13T09:32:28Z</time>
      </trkpt>
      <trkpt lat="45.93148" lon="5.68153">
        <ele>491</ele>
        <time>2026-05-13T09:32:29Z</time>
      </trkpt>
      <trkpt lat="45.93147" lon="5.68154">
        <ele>491.4</ele>
        <time>2026-05-13T09:32:30Z</time>
      </trkpt>
      <trkpt lat="45.93146" lon="5.68156">
        <ele>491.6</ele>
        <time>2026-05-13T09:32:31Z</time>
      </trkpt>
      <trkpt lat="45.93145" lon="5.68158">
        <ele>491.8</ele>
        <time>2026-05-13T09:32:32Z</time>
      </trkpt>
      <trkpt lat="45.93144" lon="5.6816">
        <ele>491.8</ele>
        <time>2026-05-13T09:32:33Z</time>
      </trkpt>
      <trkpt lat="45.93142" lon="5.68161">
        <ele>491.8</ele>
        <time>2026-05-13T09:32:34Z</time>
      </trkpt>
      <trkpt lat="45.9314" lon="5.68162">
        <ele>492.2</ele>
        <time>2026-05-13T09:32:35Z</time>
      </trkpt>
      <trkpt lat="45.93138" lon="5.68162">
        <ele>492.6</ele>
        <time>2026-05-13T09:32:36Z</time>
      </trkpt>
      <trkpt lat="45.93136" lon="5.68163">
        <ele>492.8</ele>
        <time>2026-05-13T09:32:37Z</time>
      </trkpt>
      <trkpt lat="45.93134" lon="5.68163">
        <ele>493</ele>
        <time>2026-05-13T09:32:38Z</time>
      </trkpt>
      <trkpt lat="45.93132" lon="5.68163">
        <ele>493</ele>
        <time>2026-05-13T09:32:39Z</time>
      </trkpt>
      <trkpt lat="45.93131" lon="5.68163">
        <ele>493.4</ele>
        <time>2026-05-13T09:32:40Z</time>
      </trkpt>
      <trkpt lat="45.9313" lon="5.68163">
        <ele>493.4</ele>
        <time>2026-05-13T09:32:41Z</time>
      </trkpt>
      <trkpt lat="45.93128" lon="5.68164">
        <ele>493.8</ele>
        <time>2026-05-13T09:32:42Z</time>
      </trkpt>
      <trkpt lat="45.93126" lon="5.68164">
        <ele>494</ele>
        <time>2026-05-13T09:32:43Z</time>
      </trkpt>
      <trkpt lat="45.93125" lon="5.68165">
        <ele>494.6</ele>
        <time>2026-05-13T09:32:44Z</time>
      </trkpt>
      <trkpt lat="45.93124" lon="5.68165">
        <ele>494.6</ele>
        <time>2026-05-13T09:32:45Z</time>
      </trkpt>
      <trkpt lat="45.93123" lon="5.68166">
        <ele>495</ele>
        <time>2026-05-13T09:32:46Z</time>
      </trkpt>
      <trkpt lat="45.93122" lon="5.68167">
        <ele>495</ele>
        <time>2026-05-13T09:32:47Z</time>
      </trkpt>
      <trkpt lat="45.9312" lon="5.68168">
        <ele>495.2</ele>
        <time>2026-05-13T09:32:48Z</time>
      </trkpt>
      <trkpt lat="45.93119" lon="5.68169">
        <ele>495.2</ele>
        <time>2026-05-13T09:32:49Z</time>
      </trkpt>
      <trkpt lat="45.93117" lon="5.6817">
        <ele>495.6</ele>
        <time>2026-05-13T09:32:50Z</time>
      </trkpt>
      <trkpt lat="45.93115" lon="5.68171">
        <ele>495.6</ele>
        <time>2026-05-13T09:32:51Z</time>
      </trkpt>
      <trkpt lat="45.93113" lon="5.68171">
        <ele>495.6</ele>
        <time>2026-05-13T09:32:52Z</time>
      </trkpt>
      <trkpt lat="45.93112" lon="5.68172">
        <ele>495.6</ele>
        <time>2026-05-13T09:32:53Z</time>
      </trkpt>
      <trkpt lat="45.9311" lon="5.68173">
        <ele>496</ele>
        <time>2026-05-13T09:32:54Z</time>
      </trkpt>
      <trkpt lat="45.93109" lon="5.68174">
        <ele>496</ele>
        <time>2026-05-13T09:32:55Z</time>
      </trkpt>
      <trkpt lat="45.93109" lon="5.68174">
        <ele>496.2</ele>
        <time>2026-05-13T09:32:56Z</time>
      </trkpt>
      <trkpt lat="45.93107" lon="5.68174">
        <ele>496.2</ele>
        <time>2026-05-13T09:32:57Z</time>
      </trkpt>
      <trkpt lat="45.93105" lon="5.68175">
        <ele>496.4</ele>
        <time>2026-05-13T09:32:58Z</time>
      </trkpt>
      <trkpt lat="45.93103" lon="5.68174">
        <ele>496.4</ele>
        <time>2026-05-13T09:32:59Z</time>
      </trkpt>
      <trkpt lat="45.93102" lon="5.68174">
        <ele>496.4</ele>
        <time>2026-05-13T09:33:00Z</time>
      </trkpt>
      <trkpt lat="45.93101" lon="5.68174">
        <ele>496.8</ele>
        <time>2026-05-13T09:33:01Z</time>
      </trkpt>
      <trkpt lat="45.93099" lon="5.68175">
        <ele>497</ele>
        <time>2026-05-13T09:33:02Z</time>
      </trkpt>
      <trkpt lat="45.93098" lon="5.68175">
        <ele>497</ele>
        <time>2026-05-13T09:33:03Z</time>
      </trkpt>
      <trkpt lat="45.93097" lon="5.68176">
        <ele>497.4</ele>
        <time>2026-05-13T09:33:04Z</time>
      </trkpt>
      <trkpt lat="45.93096" lon="5.68176">
        <ele>497.6</ele>
        <time>2026-05-13T09:33:05Z</time>
      </trkpt>
      <trkpt lat="45.93094" lon="5.68176">
        <ele>497.8</ele>
        <time>2026-05-13T09:33:06Z</time>
      </trkpt>
      <trkpt lat="45.93093" lon="5.68176">
        <ele>497.8</ele>
        <time>2026-05-13T09:33:07Z</time>
      </trkpt>
      <trkpt lat="45.93091" lon="5.68176">
        <ele>498.4</ele>
        <time>2026-05-13T09:33:08Z</time>
      </trkpt>
      <trkpt lat="45.9309" lon="5.68175">
        <ele>498.4</ele>
        <time>2026-05-13T09:33:09Z</time>
      </trkpt>
      <trkpt lat="45.93088" lon="5.68175">
        <ele>498.8</ele>
        <time>2026-05-13T09:33:10Z</time>
      </trkpt>
      <trkpt lat="45.93086" lon="5.68174">
        <ele>499</ele>
        <time>2026-05-13T09:33:11Z</time>
      </trkpt>
      <trkpt lat="45.93086" lon="5.68174">
        <ele>499.2</ele>
        <time>2026-05-13T09:33:12Z</time>
      </trkpt>
      <trkpt lat="45.93084" lon="5.68174">
        <ele>499.2</ele>
        <time>2026-05-13T09:33:13Z</time>
      </trkpt>
      <trkpt lat="45.93082" lon="5.68174">
        <ele>499.2</ele>
        <time>2026-05-13T09:33:14Z</time>
      </trkpt>
      <trkpt lat="45.93081" lon="5.68175">
        <ele>499.8</ele>
        <time>2026-05-13T09:33:15Z</time>
      </trkpt>
      <trkpt lat="45.93079" lon="5.68177">
        <ele>499.8</ele>
        <time>2026-05-13T09:33:16Z</time>
      </trkpt>
      <trkpt lat="45.93078" lon="5.68178">
        <ele>500</ele>
        <time>2026-05-13T09:33:17Z</time>
      </trkpt>
      <trkpt lat="45.93077" lon="5.6818">
        <ele>500</ele>
        <time>2026-05-13T09:33:18Z</time>
      </trkpt>
      <trkpt lat="45.93075" lon="5.6818">
        <ele>500</ele>
        <time>2026-05-13T09:33:19Z</time>
      </trkpt>
      <trkpt lat="45.93073" lon="5.68181">
        <ele>500</ele>
        <time>2026-05-13T09:33:20Z</time>
      </trkpt>
      <trkpt lat="45.93072" lon="5.6818">
        <ele>500.2</ele>
        <time>2026-05-13T09:33:21Z</time>
      </trkpt>
      <trkpt lat="45.9307" lon="5.68181">
        <ele>500.2</ele>
        <time>2026-05-13T09:33:22Z</time>
      </trkpt>
      <trkpt lat="45.93068" lon="5.68181">
        <ele>500.2</ele>
        <time>2026-05-13T09:33:23Z</time>
      </trkpt>
      <trkpt lat="45.93066" lon="5.68182">
        <ele>500.4</ele>
        <time>2026-05-13T09:33:24Z</time>
      </trkpt>
      <trkpt lat="45.93064" lon="5.68182">
        <ele>500.4</ele>
        <time>2026-05-13T09:33:25Z</time>
      </trkpt>
      <trkpt lat="45.93062" lon="5.68181">
        <ele>500.8</ele>
        <time>2026-05-13T09:33:26Z</time>
      </trkpt>
      <trkpt lat="45.9306" lon="5.6818">
        <ele>500.8</ele>
        <time>2026-05-13T09:33:27Z</time>
      </trkpt>
      <trkpt lat="45.93057" lon="5.68178">
        <ele>501</ele>
        <time>2026-05-13T09:33:28Z</time>
      </trkpt>
      <trkpt lat="45.93056" lon="5.68176">
        <ele>501</ele>
        <time>2026-05-13T09:33:29Z</time>
      </trkpt>
      <trkpt lat="45.93054" lon="5.68175">
        <ele>501.2</ele>
        <time>2026-05-13T09:33:30Z</time>
      </trkpt>
      <trkpt lat="45.93053" lon="5.68174">
        <ele>501.6</ele>
        <time>2026-05-13T09:33:31Z</time>
      </trkpt>
      <trkpt lat="45.93052" lon="5.68175">
        <ele>501.6</ele>
        <time>2026-05-13T09:33:32Z</time>
      </trkpt>
      <trkpt lat="45.93051" lon="5.68175">
        <ele>501.8</ele>
        <time>2026-05-13T09:33:33Z</time>
      </trkpt>
      <trkpt lat="45.93048" lon="5.68175">
        <ele>501.8</ele>
        <time>2026-05-13T09:33:34Z</time>
      </trkpt>
      <trkpt lat="45.93046" lon="5.68173">
        <ele>502.2</ele>
        <time>2026-05-13T09:33:35Z</time>
      </trkpt>
      <trkpt lat="45.93044" lon="5.68172">
        <ele>502.2</ele>
        <time>2026-05-13T09:33:36Z</time>
      </trkpt>
      <trkpt lat="45.93042" lon="5.68171">
        <ele>502.4</ele>
        <time>2026-05-13T09:33:37Z</time>
      </trkpt>
      <trkpt lat="45.9304" lon="5.6817">
        <ele>502.4</ele>
        <time>2026-05-13T09:33:38Z</time>
      </trkpt>
      <trkpt lat="45.93037" lon="5.68169">
        <ele>502.4</ele>
        <time>2026-05-13T09:33:39Z</time>
      </trkpt>
      <trkpt lat="45.93036" lon="5.68169">
        <ele>502.6</ele>
        <time>2026-05-13T09:33:40Z</time>
      </trkpt>
      <trkpt lat="45.93034" lon="5.68169">
        <ele>502.6</ele>
        <time>2026-05-13T09:33:41Z</time>
      </trkpt>
      <trkpt lat="45.93033" lon="5.68167">
        <ele>503</ele>
        <time>2026-05-13T09:33:42Z</time>
      </trkpt>
      <trkpt lat="45.93032" lon="5.68167">
        <ele>503.2</ele>
        <time>2026-05-13T09:33:43Z</time>
      </trkpt>
      <trkpt lat="45.9303" lon="5.68166">
        <ele>503.2</ele>
        <time>2026-05-13T09:33:44Z</time>
      </trkpt>
      <trkpt lat="45.93028" lon="5.68166">
        <ele>503.4</ele>
        <time>2026-05-13T09:33:45Z</time>
      </trkpt>
      <trkpt lat="45.93026" lon="5.68165">
        <ele>503.4</ele>
        <time>2026-05-13T09:33:46Z</time>
      </trkpt>
      <trkpt lat="45.93024" lon="5.68166">
        <ele>503.8</ele>
        <time>2026-05-13T09:33:47Z</time>
      </trkpt>
      <trkpt lat="45.93021" lon="5.68165">
        <ele>503.8</ele>
        <time>2026-05-13T09:33:48Z</time>
      </trkpt>
      <trkpt lat="45.93019" lon="5.68164">
        <ele>504</ele>
        <time>2026-05-13T09:33:49Z</time>
      </trkpt>
      <trkpt lat="45.93017" lon="5.68163">
        <ele>504</ele>
        <time>2026-05-13T09:33:50Z</time>
      </trkpt>
      <trkpt lat="45.93015" lon="5.68161">
        <ele>504</ele>
        <time>2026-05-13T09:33:51Z</time>
      </trkpt>
      <trkpt lat="45.93013" lon="5.6816">
        <ele>504.4</ele>
        <time>2026-05-13T09:33:52Z</time>
      </trkpt>
      <trkpt lat="45.93011" lon="5.68159">
        <ele>504.4</ele>
        <time>2026-05-13T09:33:53Z</time>
      </trkpt>
      <trkpt lat="45.93009" lon="5.68158">
        <ele>504.6</ele>
        <time>2026-05-13T09:33:54Z</time>
      </trkpt>
      <trkpt lat="45.93007" lon="5.68156">
        <ele>504.6</ele>
        <time>2026-05-13T09:33:55Z</time>
      </trkpt>
      <trkpt lat="45.93005" lon="5.68155">
        <ele>504.6</ele>
        <time>2026-05-13T09:33:56Z</time>
      </trkpt>
      <trkpt lat="45.93003" lon="5.68154">
        <ele>504.8</ele>
        <time>2026-05-13T09:33:57Z</time>
      </trkpt>
      <trkpt lat="45.93" lon="5.68154">
        <ele>504.8</ele>
        <time>2026-05-13T09:33:58Z</time>
      </trkpt>
      <trkpt lat="45.92998" lon="5.68154">
        <ele>504.8</ele>
        <time>2026-05-13T09:33:59Z</time>
      </trkpt>
      <trkpt lat="45.92997" lon="5.68153">
        <ele>504.8</ele>
        <time>2026-05-13T09:34:00Z</time>
      </trkpt>
      <trkpt lat="45.92995" lon="5.68152">
        <ele>505.2</ele>
        <time>2026-05-13T09:34:01Z</time>
      </trkpt>
      <trkpt lat="45.92993" lon="5.68152">
        <ele>505.2</ele>
        <time>2026-05-13T09:34:02Z</time>
      </trkpt>
      <trkpt lat="45.92991" lon="5.6815">
        <ele>505.2</ele>
        <time>2026-05-13T09:34:03Z</time>
      </trkpt>
      <trkpt lat="45.92987" lon="5.6815">
        <ele>505.2</ele>
        <time>2026-05-13T09:34:04Z</time>
      </trkpt>
      <trkpt lat="45.92985" lon="5.68149">
        <ele>505.2</ele>
        <time>2026-05-13T09:34:05Z</time>
      </trkpt>
      <trkpt lat="45.92983" lon="5.6815">
        <ele>505.2</ele>
        <time>2026-05-13T09:34:06Z</time>
      </trkpt>
      <trkpt lat="45.92981" lon="5.6815">
        <ele>505.2</ele>
        <time>2026-05-13T09:34:07Z</time>
      </trkpt>
      <trkpt lat="45.92978" lon="5.6815">
        <ele>505.6</ele>
        <time>2026-05-13T09:34:08Z</time>
      </trkpt>
      <trkpt lat="45.92976" lon="5.6815">
        <ele>506.2</ele>
        <time>2026-05-13T09:34:09Z</time>
      </trkpt>
      <trkpt lat="45.92975" lon="5.6815">
        <ele>506.4</ele>
        <time>2026-05-13T09:34:10Z</time>
      </trkpt>
      <trkpt lat="45.92973" lon="5.68151">
        <ele>506.4</ele>
        <time>2026-05-13T09:34:11Z</time>
      </trkpt>
      <trkpt lat="45.92972" lon="5.68152">
        <ele>506.6</ele>
        <time>2026-05-13T09:34:12Z</time>
      </trkpt>
      <trkpt lat="45.9297" lon="5.68152">
        <ele>506.8</ele>
        <time>2026-05-13T09:34:13Z</time>
      </trkpt>
      <trkpt lat="45.92967" lon="5.68152">
        <ele>506.8</ele>
        <time>2026-05-13T09:34:14Z</time>
      </trkpt>
      <trkpt lat="45.92965" lon="5.68153">
        <ele>506.8</ele>
        <time>2026-05-13T09:34:15Z</time>
      </trkpt>
      <trkpt lat="45.92963" lon="5.68153">
        <ele>506.6</ele>
        <time>2026-05-13T09:34:16Z</time>
      </trkpt>
      <trkpt lat="45.92961" lon="5.68153">
        <ele>506.6</ele>
        <time>2026-05-13T09:34:17Z</time>
      </trkpt>
      <trkpt lat="45.92959" lon="5.68153">
        <ele>507.2</ele>
        <time>2026-05-13T09:34:18Z</time>
      </trkpt>
      <trkpt lat="45.92958" lon="5.68153">
        <ele>507.4</ele>
        <time>2026-05-13T09:34:19Z</time>
      </trkpt>
      <trkpt lat="45.92956" lon="5.68154">
        <ele>507.4</ele>
        <time>2026-05-13T09:34:20Z</time>
      </trkpt>
      <trkpt lat="45.92954" lon="5.68153">
        <ele>508</ele>
        <time>2026-05-13T09:34:21Z</time>
      </trkpt>
      <trkpt lat="45.92952" lon="5.68154">
        <ele>508.4</ele>
        <time>2026-05-13T09:34:22Z</time>
      </trkpt>
      <trkpt lat="45.9295" lon="5.68154">
        <ele>508.8</ele>
        <time>2026-05-13T09:34:23Z</time>
      </trkpt>
      <trkpt lat="45.92948" lon="5.68155">
        <ele>509.2</ele>
        <time>2026-05-13T09:34:24Z</time>
      </trkpt>
      <trkpt lat="45.92947" lon="5.68156">
        <ele>509.2</ele>
        <time>2026-05-13T09:34:25Z</time>
      </trkpt>
      <trkpt lat="45.92945" lon="5.68158">
        <ele>509.2</ele>
        <time>2026-05-13T09:34:26Z</time>
      </trkpt>
      <trkpt lat="45.92944" lon="5.68161">
        <ele>509.8</ele>
        <time>2026-05-13T09:34:27Z</time>
      </trkpt>
      <trkpt lat="45.92944" lon="5.68163">
        <ele>509.8</ele>
        <time>2026-05-13T09:34:28Z</time>
      </trkpt>
      <trkpt lat="45.92945" lon="5.68166">
        <ele>509.8</ele>
        <time>2026-05-13T09:34:29Z</time>
      </trkpt>
      <trkpt lat="45.92947" lon="5.68168">
        <ele>510.2</ele>
        <time>2026-05-13T09:34:30Z</time>
      </trkpt>
      <trkpt lat="45.92948" lon="5.6817">
        <ele>510.2</ele>
        <time>2026-05-13T09:34:31Z</time>
      </trkpt>
      <trkpt lat="45.9295" lon="5.68171">
        <ele>510.6</ele>
        <time>2026-05-13T09:34:32Z</time>
      </trkpt>
      <trkpt lat="45.92952" lon="5.68173">
        <ele>510.6</ele>
        <time>2026-05-13T09:34:33Z</time>
      </trkpt>
      <trkpt lat="45.92954" lon="5.68174">
        <ele>511</ele>
        <time>2026-05-13T09:34:34Z</time>
      </trkpt>
      <trkpt lat="45.92956" lon="5.68175">
        <ele>511</ele>
        <time>2026-05-13T09:34:35Z</time>
      </trkpt>
      <trkpt lat="45.92958" lon="5.68175">
        <ele>511.2</ele>
        <time>2026-05-13T09:34:36Z</time>
      </trkpt>
      <trkpt lat="45.9296" lon="5.68176">
        <ele>511.4</ele>
        <time>2026-05-13T09:34:37Z</time>
      </trkpt>
      <trkpt lat="45.92961" lon="5.68176">
        <ele>511.6</ele>
        <time>2026-05-13T09:34:38Z</time>
      </trkpt>
      <trkpt lat="45.92963" lon="5.68177">
        <ele>511.6</ele>
        <time>2026-05-13T09:34:39Z</time>
      </trkpt>
      <trkpt lat="45.92965" lon="5.68178">
        <ele>511.6</ele>
        <time>2026-05-13T09:34:40Z</time>
      </trkpt>
      <trkpt lat="45.92967" lon="5.68179">
        <ele>512.2</ele>
        <time>2026-05-13T09:34:41Z</time>
      </trkpt>
      <trkpt lat="45.92968" lon="5.68179">
        <ele>512.6</ele>
        <time>2026-05-13T09:34:42Z</time>
      </trkpt>
      <trkpt lat="45.9297" lon="5.68179">
        <ele>512.6</ele>
        <time>2026-05-13T09:34:43Z</time>
      </trkpt>
      <trkpt lat="45.92971" lon="5.6818">
        <ele>513</ele>
        <time>2026-05-13T09:34:44Z</time>
      </trkpt>
      <trkpt lat="45.92973" lon="5.6818">
        <ele>513</ele>
        <time>2026-05-13T09:34:45Z</time>
      </trkpt>
      <trkpt lat="45.92974" lon="5.68181">
        <ele>513.4</ele>
        <time>2026-05-13T09:34:46Z</time>
      </trkpt>
      <trkpt lat="45.92975" lon="5.68182">
        <ele>513.6</ele>
        <time>2026-05-13T09:34:47Z</time>
      </trkpt>
      <trkpt lat="45.92976" lon="5.68183">
        <ele>514</ele>
        <time>2026-05-13T09:34:48Z</time>
      </trkpt>
      <trkpt lat="45.92977" lon="5.68184">
        <ele>514</ele>
        <time>2026-05-13T09:34:49Z</time>
      </trkpt>
      <trkpt lat="45.92978" lon="5.68185">
        <ele>514.4</ele>
        <time>2026-05-13T09:34:50Z</time>
      </trkpt>
      <trkpt lat="45.9298" lon="5.68186">
        <ele>514.8</ele>
        <time>2026-05-13T09:34:51Z</time>
      </trkpt>
      <trkpt lat="45.92982" lon="5.68187">
        <ele>515</ele>
        <time>2026-05-13T09:34:52Z</time>
      </trkpt>
      <trkpt lat="45.92984" lon="5.68189">
        <ele>515</ele>
        <time>2026-05-13T09:34:53Z</time>
      </trkpt>
      <trkpt lat="45.92985" lon="5.6819">
        <ele>515.4</ele>
        <time>2026-05-13T09:34:54Z</time>
      </trkpt>
      <trkpt lat="45.92987" lon="5.68192">
        <ele>515.4</ele>
        <time>2026-05-13T09:34:55Z</time>
      </trkpt>
      <trkpt lat="45.92988" lon="5.68193">
        <ele>515.6</ele>
        <time>2026-05-13T09:34:56Z</time>
      </trkpt>
      <trkpt lat="45.92989" lon="5.68194">
        <ele>515.6</ele>
        <time>2026-05-13T09:34:57Z</time>
      </trkpt>
      <trkpt lat="45.92991" lon="5.68196">
        <ele>515.6</ele>
        <time>2026-05-13T09:34:58Z</time>
      </trkpt>
      <trkpt lat="45.92992" lon="5.68198">
        <ele>516</ele>
        <time>2026-05-13T09:34:59Z</time>
      </trkpt>
      <trkpt lat="45.92994" lon="5.68199">
        <ele>516</ele>
        <time>2026-05-13T09:35:00Z</time>
      </trkpt>
      <trkpt lat="45.92995" lon="5.682">
        <ele>516.2</ele>
        <time>2026-05-13T09:35:01Z</time>
      </trkpt>
      <trkpt lat="45.92996" lon="5.68201">
        <ele>516.2</ele>
        <time>2026-05-13T09:35:02Z</time>
      </trkpt>
      <trkpt lat="45.92998" lon="5.68202">
        <ele>516.6</ele>
        <time>2026-05-13T09:35:03Z</time>
      </trkpt>
      <trkpt lat="45.93" lon="5.68203">
        <ele>516.6</ele>
        <time>2026-05-13T09:35:04Z</time>
      </trkpt>
      <trkpt lat="45.93002" lon="5.68205">
        <ele>516.8</ele>
        <time>2026-05-13T09:35:05Z</time>
      </trkpt>
      <trkpt lat="45.93003" lon="5.68206">
        <ele>516.8</ele>
        <time>2026-05-13T09:35:06Z</time>
      </trkpt>
      <trkpt lat="45.93004" lon="5.68207">
        <ele>517.2</ele>
        <time>2026-05-13T09:35:07Z</time>
      </trkpt>
      <trkpt lat="45.93006" lon="5.68209">
        <ele>517.2</ele>
        <time>2026-05-13T09:35:08Z</time>
      </trkpt>
      <trkpt lat="45.93007" lon="5.6821">
        <ele>517.6</ele>
        <time>2026-05-13T09:35:09Z</time>
      </trkpt>
      <trkpt lat="45.93008" lon="5.68212">
        <ele>517.8</ele>
        <time>2026-05-13T09:35:10Z</time>
      </trkpt>
      <trkpt lat="45.9301" lon="5.68213">
        <ele>518</ele>
        <time>2026-05-13T09:35:11Z</time>
      </trkpt>
      <trkpt lat="45.93012" lon="5.68215">
        <ele>518.2</ele>
        <time>2026-05-13T09:35:12Z</time>
      </trkpt>
      <trkpt lat="45.93013" lon="5.68216">
        <ele>518.6</ele>
        <time>2026-05-13T09:35:13Z</time>
      </trkpt>
      <trkpt lat="45.93014" lon="5.68217">
        <ele>518.6</ele>
        <time>2026-05-13T09:35:14Z</time>
      </trkpt>
      <trkpt lat="45.93016" lon="5.68219">
        <ele>518.8</ele>
        <time>2026-05-13T09:35:15Z</time>
      </trkpt>
      <trkpt lat="45.93017" lon="5.6822">
        <ele>518.8</ele>
        <time>2026-05-13T09:35:16Z</time>
      </trkpt>
      <trkpt lat="45.93019" lon="5.68221">
        <ele>519</ele>
        <time>2026-05-13T09:35:17Z</time>
      </trkpt>
      <trkpt lat="45.93021" lon="5.68222">
        <ele>519.2</ele>
        <time>2026-05-13T09:35:18Z</time>
      </trkpt>
      <trkpt lat="45.93022" lon="5.68223">
        <ele>519.4</ele>
        <time>2026-05-13T09:35:19Z</time>
      </trkpt>
      <trkpt lat="45.93024" lon="5.68224">
        <ele>519.6</ele>
        <time>2026-05-13T09:35:20Z</time>
      </trkpt>
      <trkpt lat="45.93025" lon="5.68225">
        <ele>519.6</ele>
        <time>2026-05-13T09:35:21Z</time>
      </trkpt>
      <trkpt lat="45.93027" lon="5.68225">
        <ele>519.6</ele>
        <time>2026-05-13T09:35:22Z</time>
      </trkpt>
      <trkpt lat="45.93029" lon="5.68226">
        <ele>519.6</ele>
        <time>2026-05-13T09:35:23Z</time>
      </trkpt>
      <trkpt lat="45.9303" lon="5.68227">
        <ele>519.8</ele>
        <time>2026-05-13T09:35:24Z</time>
      </trkpt>
      <trkpt lat="45.93032" lon="5.68228">
        <ele>519.8</ele>
        <time>2026-05-13T09:35:25Z</time>
      </trkpt>
      <trkpt lat="45.93034" lon="5.68228">
        <ele>520.2</ele>
        <time>2026-05-13T09:35:26Z</time>
      </trkpt>
      <trkpt lat="45.93035" lon="5.68229">
        <ele>520.6</ele>
        <time>2026-05-13T09:35:27Z</time>
      </trkpt>
      <trkpt lat="45.93036" lon="5.6823">
        <ele>520.6</ele>
        <time>2026-05-13T09:35:28Z</time>
      </trkpt>
      <trkpt lat="45.93038" lon="5.68232">
        <ele>520.6</ele>
        <time>2026-05-13T09:35:29Z</time>
      </trkpt>
      <trkpt lat="45.93039" lon="5.68233">
        <ele>520.6</ele>
        <time>2026-05-13T09:35:30Z</time>
      </trkpt>
      <trkpt lat="45.93041" lon="5.68234">
        <ele>520.8</ele>
        <time>2026-05-13T09:35:31Z</time>
      </trkpt>
      <trkpt lat="45.93042" lon="5.68234">
        <ele>520.8</ele>
        <time>2026-05-13T09:35:32Z</time>
      </trkpt>
      <trkpt lat="45.93044" lon="5.68234">
        <ele>521</ele>
        <time>2026-05-13T09:35:33Z</time>
      </trkpt>
      <trkpt lat="45.93046" lon="5.68234">
        <ele>521</ele>
        <time>2026-05-13T09:35:34Z</time>
      </trkpt>
      <trkpt lat="45.93047" lon="5.68234">
        <ele>521.4</ele>
        <time>2026-05-13T09:35:35Z</time>
      </trkpt>
      <trkpt lat="45.93049" lon="5.68235">
        <ele>521.4</ele>
        <time>2026-05-13T09:35:36Z</time>
      </trkpt>
      <trkpt lat="45.9305" lon="5.68235">
        <ele>521.6</ele>
        <time>2026-05-13T09:35:37Z</time>
      </trkpt>
      <trkpt lat="45.93052" lon="5.68236">
        <ele>521.6</ele>
        <time>2026-05-13T09:35:38Z</time>
      </trkpt>
      <trkpt lat="45.93053" lon="5.68236">
        <ele>522</ele>
        <time>2026-05-13T09:35:39Z</time>
      </trkpt>
      <trkpt lat="45.93055" lon="5.68237">
        <ele>522</ele>
        <time>2026-05-13T09:35:40Z</time>
      </trkpt>
      <trkpt lat="45.93056" lon="5.68238">
        <ele>522.6</ele>
        <time>2026-05-13T09:35:41Z</time>
      </trkpt>
      <trkpt lat="45.93057" lon="5.68239">
        <ele>522.6</ele>
        <time>2026-05-13T09:35:42Z</time>
      </trkpt>
      <trkpt lat="45.93059" lon="5.6824">
        <ele>522.6</ele>
        <time>2026-05-13T09:35:43Z</time>
      </trkpt>
      <trkpt lat="45.9306" lon="5.68241">
        <ele>522.8</ele>
        <time>2026-05-13T09:35:44Z</time>
      </trkpt>
      <trkpt lat="45.93061" lon="5.68243">
        <ele>522.8</ele>
        <time>2026-05-13T09:35:45Z</time>
      </trkpt>
      <trkpt lat="45.93063" lon="5.68245">
        <ele>522.8</ele>
        <time>2026-05-13T09:35:46Z</time>
      </trkpt>
      <trkpt lat="45.93064" lon="5.68247">
        <ele>523</ele>
        <time>2026-05-13T09:35:47Z</time>
      </trkpt>
      <trkpt lat="45.93066" lon="5.68247">
        <ele>523</ele>
        <time>2026-05-13T09:35:48Z</time>
      </trkpt>
      <trkpt lat="45.93067" lon="5.68248">
        <ele>523.2</ele>
        <time>2026-05-13T09:35:49Z</time>
      </trkpt>
      <trkpt lat="45.93069" lon="5.68249">
        <ele>523.6</ele>
        <time>2026-05-13T09:35:50Z</time>
      </trkpt>
      <trkpt lat="45.93071" lon="5.68251">
        <ele>523.6</ele>
        <time>2026-05-13T09:35:51Z</time>
      </trkpt>
      <trkpt lat="45.93072" lon="5.68252">
        <ele>524</ele>
        <time>2026-05-13T09:35:52Z</time>
      </trkpt>
      <trkpt lat="45.93073" lon="5.68254">
        <ele>524</ele>
        <time>2026-05-13T09:35:53Z</time>
      </trkpt>
      <trkpt lat="45.93074" lon="5.68256">
        <ele>524.4</ele>
        <time>2026-05-13T09:35:54Z</time>
      </trkpt>
      <trkpt lat="45.93075" lon="5.68258">
        <ele>524.4</ele>
        <time>2026-05-13T09:35:55Z</time>
      </trkpt>
      <trkpt lat="45.93076" lon="5.68261">
        <ele>524.6</ele>
        <time>2026-05-13T09:35:56Z</time>
      </trkpt>
      <trkpt lat="45.93077" lon="5.68264">
        <ele>524.6</ele>
        <time>2026-05-13T09:35:57Z</time>
      </trkpt>
      <trkpt lat="45.93077" lon="5.68266">
        <ele>524.6</ele>
        <time>2026-05-13T09:35:58Z</time>
      </trkpt>
      <trkpt lat="45.93077" lon="5.68269">
        <ele>525</ele>
        <time>2026-05-13T09:35:59Z</time>
      </trkpt>
      <trkpt lat="45.93077" lon="5.68273">
        <ele>525</ele>
        <time>2026-05-13T09:36:00Z</time>
      </trkpt>
      <trkpt lat="45.93077" lon="5.68275">
        <ele>525.4</ele>
        <time>2026-05-13T09:36:01Z</time>
      </trkpt>
      <trkpt lat="45.93077" lon="5.68278">
        <ele>525.4</ele>
        <time>2026-05-13T09:36:02Z</time>
      </trkpt>
      <trkpt lat="45.93077" lon="5.68281">
        <ele>525.4</ele>
        <time>2026-05-13T09:36:03Z</time>
      </trkpt>
      <trkpt lat="45.93077" lon="5.68281">
        <ele>525.8</ele>
        <time>2026-05-13T09:36:04Z</time>
      </trkpt>
      <trkpt lat="45.93077" lon="5.68283">
        <ele>525.8</ele>
        <time>2026-05-13T09:36:05Z</time>
      </trkpt>
      <trkpt lat="45.93076" lon="5.68285">
        <ele>526</ele>
        <time>2026-05-13T09:36:06Z</time>
      </trkpt>
      <trkpt lat="45.93075" lon="5.68288">
        <ele>526</ele>
        <time>2026-05-13T09:36:07Z</time>
      </trkpt>
      <trkpt lat="45.93075" lon="5.68291">
        <ele>526.4</ele>
        <time>2026-05-13T09:36:08Z</time>
      </trkpt>
      <trkpt lat="45.93075" lon="5.68295">
        <ele>526.4</ele>
        <time>2026-05-13T09:36:09Z</time>
      </trkpt>
      <trkpt lat="45.93075" lon="5.68298">
        <ele>526.4</ele>
        <time>2026-05-13T09:36:10Z</time>
      </trkpt>
      <trkpt lat="45.93075" lon="5.683">
        <ele>526.6</ele>
        <time>2026-05-13T09:36:11Z</time>
      </trkpt>
      <trkpt lat="45.93074" lon="5.68304">
        <ele>526.6</ele>
        <time>2026-05-13T09:36:12Z</time>
      </trkpt>
      <trkpt lat="45.93074" lon="5.68307">
        <ele>526.6</ele>
        <time>2026-05-13T09:36:13Z</time>
      </trkpt>
      <trkpt lat="45.93074" lon="5.68309">
        <ele>526.6</ele>
        <time>2026-05-13T09:36:14Z</time>
      </trkpt>
      <trkpt lat="45.93074" lon="5.68312">
        <ele>526.8</ele>
        <time>2026-05-13T09:36:15Z</time>
      </trkpt>
      <trkpt lat="45.93074" lon="5.68314">
        <ele>526.8</ele>
        <time>2026-05-13T09:36:16Z</time>
      </trkpt>
      <trkpt lat="45.93073" lon="5.68316">
        <ele>526.8</ele>
        <time>2026-05-13T09:36:17Z</time>
      </trkpt>
      <trkpt lat="45.93073" lon="5.68318">
        <ele>526.8</ele>
        <time>2026-05-13T09:36:18Z</time>
      </trkpt>
      <trkpt lat="45.93073" lon="5.68319">
        <ele>527</ele>
        <time>2026-05-13T09:36:19Z</time>
      </trkpt>
      <trkpt lat="45.93073" lon="5.68319">
        <ele>527</ele>
        <time>2026-05-13T09:36:20Z</time>
      </trkpt>
      <trkpt lat="45.93075" lon="5.68319">
        <ele>526.4</ele>
        <time>2026-05-13T09:36:29Z</time>
      </trkpt>
      <trkpt lat="45.93075" lon="5.68319">
        <ele>526.4</ele>
        <time>2026-05-13T09:36:30Z</time>
      </trkpt>
      <trkpt lat="45.93074" lon="5.68319">
        <ele>526.4</ele>
        <time>2026-05-13T09:37:29Z</time>
      </trkpt>
      <trkpt lat="45.93074" lon="5.68319">
        <ele>526.4</ele>
        <time>2026-05-13T09:37:30Z</time>
      </trkpt>
      <trkpt lat="45.93074" lon="5.68321">
        <ele>526.4</ele>
        <time>2026-05-13T09:37:31Z</time>
      </trkpt>
      <trkpt lat="45.93074" lon="5.68321">
        <ele>526.4</ele>
        <time>2026-05-13T09:37:32Z</time>
      </trkpt>
      <trkpt lat="45.93075" lon="5.68323">
        <ele>526.4</ele>
        <time>2026-05-13T09:37:33Z</time>
      </trkpt>
      <trkpt lat="45.93075" lon="5.68326">
        <ele>526.4</ele>
        <time>2026-05-13T09:37:34Z</time>
      </trkpt>
      <trkpt lat="45.93074" lon="5.68329">
        <ele>526.4</ele>
        <time>2026-05-13T09:37:35Z</time>
      </trkpt>
      <trkpt lat="45.93074" lon="5.68332">
        <ele>526.4</ele>
        <time>2026-05-13T09:37:36Z</time>
      </trkpt>
      <trkpt lat="45.93073" lon="5.68336">
        <ele>526.4</ele>
        <time>2026-05-13T09:37:37Z</time>
      </trkpt>
      <trkpt lat="45.93073" lon="5.68339">
        <ele>526.4</ele>
        <time>2026-05-13T09:37:38Z</time>
      </trkpt>
      <trkpt lat="45.93072" lon="5.68343">
        <ele>526.2</ele>
        <time>2026-05-13T09:37:39Z</time>
      </trkpt>
      <trkpt lat="45.93072" lon="5.68348">
        <ele>526.4</ele>
        <time>2026-05-13T09:37:40Z</time>
      </trkpt>
      <trkpt lat="45.93071" lon="5.68353">
        <ele>526.4</ele>
        <time>2026-05-13T09:37:41Z</time>
      </trkpt>
      <trkpt lat="45.9307" lon="5.68357">
        <ele>526.4</ele>
        <time>2026-05-13T09:37:42Z</time>
      </trkpt>
      <trkpt lat="45.93069" lon="5.68362">
        <ele>526.4</ele>
        <time>2026-05-13T09:37:43Z</time>
      </trkpt>
      <trkpt lat="45.93069" lon="5.68367">
        <ele>526.4</ele>
        <time>2026-05-13T09:37:44Z</time>
      </trkpt>
      <trkpt lat="45.93068" lon="5.68371">
        <ele>526.4</ele>
        <time>2026-05-13T09:37:45Z</time>
      </trkpt>
      <trkpt lat="45.93067" lon="5.68376">
        <ele>526.4</ele>
        <time>2026-05-13T09:37:46Z</time>
      </trkpt>
      <trkpt lat="45.93067" lon="5.68382">
        <ele>526.4</ele>
        <time>2026-05-13T09:37:47Z</time>
      </trkpt>
      <trkpt lat="45.93066" lon="5.68387">
        <ele>526.8</ele>
        <time>2026-05-13T09:37:48Z</time>
      </trkpt>
      <trkpt lat="45.93065" lon="5.68392">
        <ele>526.4</ele>
        <time>2026-05-13T09:37:49Z</time>
      </trkpt>
      <trkpt lat="45.93065" lon="5.68398">
        <ele>526.4</ele>
        <time>2026-05-13T09:37:50Z</time>
      </trkpt>
      <trkpt lat="45.93064" lon="5.68403">
        <ele>526.8</ele>
        <time>2026-05-13T09:37:51Z</time>
      </trkpt>
      <trkpt lat="45.93063" lon="5.68409">
        <ele>526.8</ele>
        <time>2026-05-13T09:37:52Z</time>
      </trkpt>
      <trkpt lat="45.93062" lon="5.68414">
        <ele>526.8</ele>
        <time>2026-05-13T09:37:53Z</time>
      </trkpt>
      <trkpt lat="45.93062" lon="5.6842">
        <ele>526.8</ele>
        <time>2026-05-13T09:37:54Z</time>
      </trkpt>
      <trkpt lat="45.93061" lon="5.68425">
        <ele>526.8</ele>
        <time>2026-05-13T09:37:55Z</time>
      </trkpt>
      <trkpt lat="45.9306" lon="5.68431">
        <ele>526.8</ele>
        <time>2026-05-13T09:37:56Z</time>
      </trkpt>
      <trkpt lat="45.93059" lon="5.68436">
        <ele>526.8</ele>
        <time>2026-05-13T09:37:57Z</time>
      </trkpt>
      <trkpt lat="45.93059" lon="5.68442">
        <ele>526.8</ele>
        <time>2026-05-13T09:37:58Z</time>
      </trkpt>
      <trkpt lat="45.93058" lon="5.68446">
        <ele>526.6</ele>
        <time>2026-05-13T09:37:59Z</time>
      </trkpt>
      <trkpt lat="45.93057" lon="5.68451">
        <ele>526.4</ele>
        <time>2026-05-13T09:38:00Z</time>
      </trkpt>
      <trkpt lat="45.93057" lon="5.68456">
        <ele>526.4</ele>
        <time>2026-05-13T09:38:01Z</time>
      </trkpt>
      <trkpt lat="45.93056" lon="5.68462">
        <ele>526.4</ele>
        <time>2026-05-13T09:38:02Z</time>
      </trkpt>
      <trkpt lat="45.93055" lon="5.68467">
        <ele>526.4</ele>
        <time>2026-05-13T09:38:03Z</time>
      </trkpt>
      <trkpt lat="45.93055" lon="5.68473">
        <ele>526.4</ele>
        <time>2026-05-13T09:38:04Z</time>
      </trkpt>
      <trkpt lat="45.93054" lon="5.68478">
        <ele>526.4</ele>
        <time>2026-05-13T09:38:05Z</time>
      </trkpt>
      <trkpt lat="45.93054" lon="5.68484">
        <ele>525.8</ele>
        <time>2026-05-13T09:38:06Z</time>
      </trkpt>
      <trkpt lat="45.93053" lon="5.68491">
        <ele>525.8</ele>
        <time>2026-05-13T09:38:07Z</time>
      </trkpt>
      <trkpt lat="45.93053" lon="5.68497">
        <ele>525.8</ele>
        <time>2026-05-13T09:38:08Z</time>
      </trkpt>
      <trkpt lat="45.93052" lon="5.68504">
        <ele>525.8</ele>
        <time>2026-05-13T09:38:09Z</time>
      </trkpt>
      <trkpt lat="45.9305" lon="5.68509">
        <ele>525.8</ele>
        <time>2026-05-13T09:38:10Z</time>
      </trkpt>
      <trkpt lat="45.9305" lon="5.68515">
        <ele>525.8</ele>
        <time>2026-05-13T09:38:11Z</time>
      </trkpt>
      <trkpt lat="45.93049" lon="5.6852">
        <ele>526.4</ele>
        <time>2026-05-13T09:38:12Z</time>
      </trkpt>
      <trkpt lat="45.93048" lon="5.68526">
        <ele>526.4</ele>
        <time>2026-05-13T09:38:13Z</time>
      </trkpt>
      <trkpt lat="45.93047" lon="5.68532">
        <ele>526.4</ele>
        <time>2026-05-13T09:38:14Z</time>
      </trkpt>
      <trkpt lat="45.93046" lon="5.68537">
        <ele>526.4</ele>
        <time>2026-05-13T09:38:15Z</time>
      </trkpt>
      <trkpt lat="45.93045" lon="5.68543">
        <ele>527</ele>
        <time>2026-05-13T09:38:16Z</time>
      </trkpt>
      <trkpt lat="45.93044" lon="5.68547">
        <ele>527</ele>
        <time>2026-05-13T09:38:17Z</time>
      </trkpt>
      <trkpt lat="45.93043" lon="5.68552">
        <ele>527</ele>
        <time>2026-05-13T09:38:18Z</time>
      </trkpt>
      <trkpt lat="45.93043" lon="5.68558">
        <ele>527.2</ele>
        <time>2026-05-13T09:38:19Z</time>
      </trkpt>
      <trkpt lat="45.93043" lon="5.68561">
        <ele>527.2</ele>
        <time>2026-05-13T09:38:20Z</time>
      </trkpt>
      <trkpt lat="45.9304" lon="5.68569">
        <ele>527.2</ele>
        <time>2026-05-13T09:38:21Z</time>
      </trkpt>
      <trkpt lat="45.93039" lon="5.68576">
        <ele>527.2</ele>
        <time>2026-05-13T09:38:22Z</time>
      </trkpt>
      <trkpt lat="45.93038" lon="5.68582">
        <ele>527</ele>
        <time>2026-05-13T09:38:23Z</time>
      </trkpt>
      <trkpt lat="45.93037" lon="5.68589">
        <ele>527</ele>
        <time>2026-05-13T09:38:24Z</time>
      </trkpt>
      <trkpt lat="45.93036" lon="5.68595">
        <ele>527</ele>
        <time>2026-05-13T09:38:25Z</time>
      </trkpt>
      <trkpt lat="45.93035" lon="5.686">
        <ele>527</ele>
        <time>2026-05-13T09:38:26Z</time>
      </trkpt>
      <trkpt lat="45.93034" lon="5.68604">
        <ele>527.2</ele>
        <time>2026-05-13T09:38:27Z</time>
      </trkpt>
      <trkpt lat="45.93033" lon="5.68608">
        <ele>527.2</ele>
        <time>2026-05-13T09:38:28Z</time>
      </trkpt>
      <trkpt lat="45.93033" lon="5.68613">
        <ele>527.2</ele>
        <time>2026-05-13T09:38:29Z</time>
      </trkpt>
      <trkpt lat="45.93031" lon="5.68617">
        <ele>527.2</ele>
        <time>2026-05-13T09:38:30Z</time>
      </trkpt>
      <trkpt lat="45.93031" lon="5.68623">
        <ele>526.8</ele>
        <time>2026-05-13T09:38:31Z</time>
      </trkpt>
      <trkpt lat="45.93029" lon="5.68627">
        <ele>526.8</ele>
        <time>2026-05-13T09:38:32Z</time>
      </trkpt>
      <trkpt lat="45.93027" lon="5.68631">
        <ele>526.6</ele>
        <time>2026-05-13T09:38:33Z</time>
      </trkpt>
      <trkpt lat="45.93024" lon="5.68633">
        <ele>526.6</ele>
        <time>2026-05-13T09:38:34Z</time>
      </trkpt>
      <trkpt lat="45.93021" lon="5.68635">
        <ele>526</ele>
        <time>2026-05-13T09:38:35Z</time>
      </trkpt>
      <trkpt lat="45.93015" lon="5.68629">
        <ele>525.6</ele>
        <time>2026-05-13T09:38:36Z</time>
      </trkpt>
      <trkpt lat="45.93011" lon="5.68628">
        <ele>525.2</ele>
        <time>2026-05-13T09:38:37Z</time>
      </trkpt>
      <trkpt lat="45.93006" lon="5.6863">
        <ele>524.8</ele>
        <time>2026-05-13T09:38:38Z</time>
      </trkpt>
      <trkpt lat="45.93002" lon="5.68635">
        <ele>524.2</ele>
        <time>2026-05-13T09:38:39Z</time>
      </trkpt>
      <trkpt lat="45.92998" lon="5.68639">
        <ele>524.2</ele>
        <time>2026-05-13T09:38:40Z</time>
      </trkpt>
      <trkpt lat="45.92995" lon="5.68645">
        <ele>524.2</ele>
        <time>2026-05-13T09:38:41Z</time>
      </trkpt>
      <trkpt lat="45.92992" lon="5.68651">
        <ele>524.2</ele>
        <time>2026-05-13T09:38:42Z</time>
      </trkpt>
      <trkpt lat="45.92989" lon="5.68657">
        <ele>524.2</ele>
        <time>2026-05-13T09:38:43Z</time>
      </trkpt>
      <trkpt lat="45.92986" lon="5.68663">
        <ele>523.8</ele>
        <time>2026-05-13T09:38:44Z</time>
      </trkpt>
      <trkpt lat="45.92983" lon="5.6867">
        <ele>523.8</ele>
        <time>2026-05-13T09:38:45Z</time>
      </trkpt>
      <trkpt lat="45.9298" lon="5.68675">
        <ele>523.8</ele>
        <time>2026-05-13T09:38:46Z</time>
      </trkpt>
      <trkpt lat="45.92977" lon="5.6868">
        <ele>523.8</ele>
        <time>2026-05-13T09:38:47Z</time>
      </trkpt>
      <trkpt lat="45.92974" lon="5.68685">
        <ele>523.4</ele>
        <time>2026-05-13T09:38:48Z</time>
      </trkpt>
      <trkpt lat="45.9297" lon="5.68689">
        <ele>523.4</ele>
        <time>2026-05-13T09:38:49Z</time>
      </trkpt>
      <trkpt lat="45.92968" lon="5.68693">
        <ele>523.4</ele>
        <time>2026-05-13T09:38:50Z</time>
      </trkpt>
      <trkpt lat="45.92966" lon="5.68698">
        <ele>523.4</ele>
        <time>2026-05-13T09:38:51Z</time>
      </trkpt>
      <trkpt lat="45.92964" lon="5.68703">
        <ele>523.4</ele>
        <time>2026-05-13T09:38:52Z</time>
      </trkpt>
      <trkpt lat="45.92963" lon="5.68709">
        <ele>523.8</ele>
        <time>2026-05-13T09:38:53Z</time>
      </trkpt>
      <trkpt lat="45.92962" lon="5.68713">
        <ele>524</ele>
        <time>2026-05-13T09:38:54Z</time>
      </trkpt>
      <trkpt lat="45.92962" lon="5.68718">
        <ele>524.2</ele>
        <time>2026-05-13T09:38:55Z</time>
      </trkpt>
      <trkpt lat="45.92962" lon="5.68722">
        <ele>524.2</ele>
        <time>2026-05-13T09:38:56Z</time>
      </trkpt>
      <trkpt lat="45.92961" lon="5.68727">
        <ele>524.6</ele>
        <time>2026-05-13T09:38:57Z</time>
      </trkpt>
      <trkpt lat="45.92961" lon="5.6873">
        <ele>524.6</ele>
        <time>2026-05-13T09:38:58Z</time>
      </trkpt>
      <trkpt lat="45.92961" lon="5.68732">
        <ele>524.8</ele>
        <time>2026-05-13T09:38:59Z</time>
      </trkpt>
      <trkpt lat="45.9296" lon="5.68734">
        <ele>524.8</ele>
        <time>2026-05-13T09:39:00Z</time>
      </trkpt>
      <trkpt lat="45.9296" lon="5.68736">
        <ele>524.8</ele>
        <time>2026-05-13T09:39:01Z</time>
      </trkpt>
      <trkpt lat="45.92959" lon="5.68739">
        <ele>525.2</ele>
        <time>2026-05-13T09:39:02Z</time>
      </trkpt>
      <trkpt lat="45.92959" lon="5.68741">
        <ele>525.2</ele>
        <time>2026-05-13T09:39:03Z</time>
      </trkpt>
      <trkpt lat="45.92959" lon="5.68743">
        <ele>525.2</ele>
        <time>2026-05-13T09:39:04Z</time>
      </trkpt>
      <trkpt lat="45.92959" lon="5.68745">
        <ele>525.4</ele>
        <time>2026-05-13T09:39:05Z</time>
      </trkpt>
      <trkpt lat="45.92959" lon="5.68746">
        <ele>525.4</ele>
        <time>2026-05-13T09:39:06Z</time>
      </trkpt>
      <trkpt lat="45.92959" lon="5.68747">
        <ele>525.8</ele>
        <time>2026-05-13T09:39:07Z</time>
      </trkpt>
      <trkpt lat="45.92959" lon="5.68746">
        <ele>525.8</ele>
        <time>2026-05-13T09:39:08Z</time>
      </trkpt>
      <trkpt lat="45.92959" lon="5.68746">
        <ele>525.8</ele>
        <time>2026-05-13T09:39:09Z</time>
      </trkpt>
      <trkpt lat="45.92958" lon="5.68748">
        <ele>525.8</ele>
        <time>2026-05-13T09:39:13Z</time>
      </trkpt>
      <trkpt lat="45.92957" lon="5.68748">
        <ele>526</ele>
        <time>2026-05-13T09:39:14Z</time>
      </trkpt>
      <trkpt lat="45.92958" lon="5.68748">
        <ele>526</ele>
        <time>2026-05-13T09:39:15Z</time>
      </trkpt>
      <trkpt lat="45.92958" lon="5.68748">
        <ele>526</ele>
        <time>2026-05-13T09:39:16Z</time>
      </trkpt>
      <trkpt lat="45.92959" lon="5.68748">
        <ele>526.4</ele>
        <time>2026-05-13T09:40:23Z</time>
      </trkpt>
      <trkpt lat="45.92959" lon="5.68748">
        <ele>526.4</ele>
        <time>2026-05-13T09:40:24Z</time>
      </trkpt>
      <trkpt lat="45.92959" lon="5.68748">
        <ele>526.2</ele>
        <time>2026-05-13T09:40:25Z</time>
      </trkpt>
      <trkpt lat="45.9296" lon="5.68748">
        <ele>526.2</ele>
        <time>2026-05-13T09:40:26Z</time>
      </trkpt>
      <trkpt lat="45.92961" lon="5.68749">
        <ele>526.2</ele>
        <time>2026-05-13T09:40:27Z</time>
      </trkpt>
      <trkpt lat="45.92963" lon="5.68749">
        <ele>526</ele>
        <time>2026-05-13T09:40:28Z</time>
      </trkpt>
      <trkpt lat="45.92965" lon="5.6875">
        <ele>526</ele>
        <time>2026-05-13T09:40:29Z</time>
      </trkpt>
      <trkpt lat="45.92967" lon="5.6875">
        <ele>526</ele>
        <time>2026-05-13T09:40:30Z</time>
      </trkpt>
      <trkpt lat="45.92969" lon="5.68752">
        <ele>526</ele>
        <time>2026-05-13T09:40:31Z</time>
      </trkpt>
      <trkpt lat="45.92971" lon="5.68754">
        <ele>526</ele>
        <time>2026-05-13T09:40:32Z</time>
      </trkpt>
      <trkpt lat="45.92973" lon="5.68756">
        <ele>526</ele>
        <time>2026-05-13T09:40:33Z</time>
      </trkpt>
      <trkpt lat="45.92974" lon="5.68758">
        <ele>526</ele>
        <time>2026-05-13T09:40:34Z</time>
      </trkpt>
      <trkpt lat="45.92976" lon="5.68759">
        <ele>526.2</ele>
        <time>2026-05-13T09:40:35Z</time>
      </trkpt>
      <trkpt lat="45.92977" lon="5.68761">
        <ele>526.2</ele>
        <time>2026-05-13T09:40:36Z</time>
      </trkpt>
      <trkpt lat="45.92978" lon="5.68763">
        <ele>526.2</ele>
        <time>2026-05-13T09:40:37Z</time>
      </trkpt>
      <trkpt lat="45.92979" lon="5.68766">
        <ele>526.6</ele>
        <time>2026-05-13T09:40:38Z</time>
      </trkpt>
      <trkpt lat="45.92981" lon="5.68768">
        <ele>527</ele>
        <time>2026-05-13T09:40:39Z</time>
      </trkpt>
      <trkpt lat="45.92982" lon="5.6877">
        <ele>527.2</ele>
        <time>2026-05-13T09:40:40Z</time>
      </trkpt>
      <trkpt lat="45.92984" lon="5.68772">
        <ele>527.6</ele>
        <time>2026-05-13T09:40:41Z</time>
      </trkpt>
      <trkpt lat="45.92986" lon="5.68774">
        <ele>527.8</ele>
        <time>2026-05-13T09:40:42Z</time>
      </trkpt>
      <trkpt lat="45.92987" lon="5.68777">
        <ele>527.8</ele>
        <time>2026-05-13T09:40:43Z</time>
      </trkpt>
      <trkpt lat="45.92989" lon="5.68779">
        <ele>528.2</ele>
        <time>2026-05-13T09:40:44Z</time>
      </trkpt>
      <trkpt lat="45.92992" lon="5.68783">
        <ele>527.8</ele>
        <time>2026-05-13T09:40:45Z</time>
      </trkpt>
      <trkpt lat="45.92993" lon="5.68785">
        <ele>528</ele>
        <time>2026-05-13T09:40:46Z</time>
      </trkpt>
      <trkpt lat="45.92995" lon="5.68787">
        <ele>528</ele>
        <time>2026-05-13T09:40:47Z</time>
      </trkpt>
      <trkpt lat="45.92996" lon="5.6879">
        <ele>528.4</ele>
        <time>2026-05-13T09:40:48Z</time>
      </trkpt>
      <trkpt lat="45.92998" lon="5.68792">
        <ele>528.4</ele>
        <time>2026-05-13T09:40:49Z</time>
      </trkpt>
      <trkpt lat="45.92999" lon="5.68795">
        <ele>528.8</ele>
        <time>2026-05-13T09:40:50Z</time>
      </trkpt>
      <trkpt lat="45.93001" lon="5.68798">
        <ele>528.8</ele>
        <time>2026-05-13T09:40:51Z</time>
      </trkpt>
      <trkpt lat="45.93003" lon="5.68801">
        <ele>528.8</ele>
        <time>2026-05-13T09:40:52Z</time>
      </trkpt>
      <trkpt lat="45.93005" lon="5.68803">
        <ele>528.8</ele>
        <time>2026-05-13T09:40:53Z</time>
      </trkpt>
      <trkpt lat="45.93007" lon="5.68806">
        <ele>528.8</ele>
        <time>2026-05-13T09:40:54Z</time>
      </trkpt>
      <trkpt lat="45.93009" lon="5.68808">
        <ele>529</ele>
        <time>2026-05-13T09:40:55Z</time>
      </trkpt>
      <trkpt lat="45.93011" lon="5.68811">
        <ele>529</ele>
        <time>2026-05-13T09:40:56Z</time>
      </trkpt>
      <trkpt lat="45.93013" lon="5.68814">
        <ele>529</ele>
        <time>2026-05-13T09:40:57Z</time>
      </trkpt>
      <trkpt lat="45.93015" lon="5.68817">
        <ele>529.4</ele>
        <time>2026-05-13T09:40:58Z</time>
      </trkpt>
      <trkpt lat="45.93017" lon="5.68819">
        <ele>529.4</ele>
        <time>2026-05-13T09:40:59Z</time>
      </trkpt>
      <trkpt lat="45.93019" lon="5.68822">
        <ele>529.4</ele>
        <time>2026-05-13T09:41:00Z</time>
      </trkpt>
      <trkpt lat="45.93022" lon="5.68825">
        <ele>529.4</ele>
        <time>2026-05-13T09:41:01Z</time>
      </trkpt>
      <trkpt lat="45.93024" lon="5.68828">
        <ele>529.6</ele>
        <time>2026-05-13T09:41:02Z</time>
      </trkpt>
      <trkpt lat="45.93026" lon="5.68831">
        <ele>529.6</ele>
        <time>2026-05-13T09:41:03Z</time>
      </trkpt>
      <trkpt lat="45.93028" lon="5.68835">
        <ele>529.6</ele>
        <time>2026-05-13T09:41:04Z</time>
      </trkpt>
      <trkpt lat="45.93031" lon="5.68838">
        <ele>529.8</ele>
        <time>2026-05-13T09:41:05Z</time>
      </trkpt>
      <trkpt lat="45.93033" lon="5.68841">
        <ele>529.8</ele>
        <time>2026-05-13T09:41:06Z</time>
      </trkpt>
      <trkpt lat="45.93036" lon="5.68844">
        <ele>529.8</ele>
        <time>2026-05-13T09:41:07Z</time>
      </trkpt>
      <trkpt lat="45.93038" lon="5.68847">
        <ele>529.8</ele>
        <time>2026-05-13T09:41:08Z</time>
      </trkpt>
      <trkpt lat="45.9304" lon="5.68851">
        <ele>529.8</ele>
        <time>2026-05-13T09:41:09Z</time>
      </trkpt>
      <trkpt lat="45.93042" lon="5.68854">
        <ele>529.8</ele>
        <time>2026-05-13T09:41:10Z</time>
      </trkpt>
      <trkpt lat="45.93045" lon="5.68857">
        <ele>529.8</ele>
        <time>2026-05-13T09:41:11Z</time>
      </trkpt>
      <trkpt lat="45.93047" lon="5.6886">
        <ele>529.8</ele>
        <time>2026-05-13T09:41:12Z</time>
      </trkpt>
      <trkpt lat="45.93049" lon="5.68863">
        <ele>529.8</ele>
        <time>2026-05-13T09:41:13Z</time>
      </trkpt>
      <trkpt lat="45.93051" lon="5.68866">
        <ele>530.2</ele>
        <time>2026-05-13T09:41:14Z</time>
      </trkpt>
      <trkpt lat="45.93053" lon="5.68869">
        <ele>530.2</ele>
        <time>2026-05-13T09:41:15Z</time>
      </trkpt>
      <trkpt lat="45.93055" lon="5.68872">
        <ele>530.2</ele>
        <time>2026-05-13T09:41:16Z</time>
      </trkpt>
      <trkpt lat="45.93057" lon="5.68875">
        <ele>530.2</ele>
        <time>2026-05-13T09:41:17Z</time>
      </trkpt>
      <trkpt lat="45.9306" lon="5.68878">
        <ele>529.8</ele>
        <time>2026-05-13T09:41:18Z</time>
      </trkpt>
      <trkpt lat="45.93063" lon="5.68881">
        <ele>529.8</ele>
        <time>2026-05-13T09:41:19Z</time>
      </trkpt>
      <trkpt lat="45.93065" lon="5.68884">
        <ele>529.6</ele>
        <time>2026-05-13T09:41:20Z</time>
      </trkpt>
      <trkpt lat="45.93068" lon="5.68888">
        <ele>529.6</ele>
        <time>2026-05-13T09:41:21Z</time>
      </trkpt>
      <trkpt lat="45.9307" lon="5.68891">
        <ele>529.4</ele>
        <time>2026-05-13T09:41:22Z</time>
      </trkpt>
      <trkpt lat="45.93073" lon="5.68895">
        <ele>529.4</ele>
        <time>2026-05-13T09:41:23Z</time>
      </trkpt>
      <trkpt lat="45.93074" lon="5.68897">
        <ele>529.2</ele>
        <time>2026-05-13T09:41:24Z</time>
      </trkpt>
      <trkpt lat="45.93076" lon="5.689">
        <ele>529.2</ele>
        <time>2026-05-13T09:41:25Z</time>
      </trkpt>
      <trkpt lat="45.93078" lon="5.68903">
        <ele>528.8</ele>
        <time>2026-05-13T09:41:26Z</time>
      </trkpt>
      <trkpt lat="45.9308" lon="5.68906">
        <ele>528.8</ele>
        <time>2026-05-13T09:41:27Z</time>
      </trkpt>
      <trkpt lat="45.93082" lon="5.68908">
        <ele>528.8</ele>
        <time>2026-05-13T09:41:28Z</time>
      </trkpt>
      <trkpt lat="45.93084" lon="5.68911">
        <ele>528.8</ele>
        <time>2026-05-13T09:41:29Z</time>
      </trkpt>
      <trkpt lat="45.93086" lon="5.68914">
        <ele>528.8</ele>
        <time>2026-05-13T09:41:30Z</time>
      </trkpt>
      <trkpt lat="45.93088" lon="5.68918">
        <ele>528.8</ele>
        <time>2026-05-13T09:41:31Z</time>
      </trkpt>
      <trkpt lat="45.93089" lon="5.68921">
        <ele>528.4</ele>
        <time>2026-05-13T09:41:32Z</time>
      </trkpt>
      <trkpt lat="45.93089" lon="5.68923">
        <ele>528.4</ele>
        <time>2026-05-13T09:41:33Z</time>
      </trkpt>
      <trkpt lat="45.9309" lon="5.68925">
        <ele>528.4</ele>
        <time>2026-05-13T09:41:34Z</time>
      </trkpt>
      <trkpt lat="45.9309" lon="5.68926">
        <ele>528.4</ele>
        <time>2026-05-13T09:41:35Z</time>
      </trkpt>
      <trkpt lat="45.9309" lon="5.68928">
        <ele>528.2</ele>
        <time>2026-05-13T09:41:36Z</time>
      </trkpt>
      <trkpt lat="45.9309" lon="5.68929">
        <ele>528.2</ele>
        <time>2026-05-13T09:41:37Z</time>
      </trkpt>
      <trkpt lat="45.9309" lon="5.68929">
        <ele>528.2</ele>
        <time>2026-05-13T09:41:38Z</time>
      </trkpt>
      <trkpt lat="45.9309" lon="5.68929">
        <ele>528.2</ele>
        <time>2026-05-13T09:41:39Z</time>
      </trkpt>
      <trkpt lat="45.9309" lon="5.68929">
        <ele>528.2</ele>
        <time>2026-05-13T09:41:42Z</time>
      </trkpt>
      <trkpt lat="45.93091" lon="5.68929">
        <ele>528</ele>
        <time>2026-05-13T09:41:43Z</time>
      </trkpt>
      <trkpt lat="45.9309" lon="5.68929">
        <ele>527.8</ele>
        <time>2026-05-13T09:47:37Z</time>
      </trkpt>
      <trkpt lat="45.9309" lon="5.6893">
        <ele>527.8</ele>
        <time>2026-05-13T09:47:38Z</time>
      </trkpt>
      <trkpt lat="45.93091" lon="5.6893">
        <ele>527.2</ele>
        <time>2026-05-13T09:47:46Z</time>
      </trkpt>
      <trkpt lat="45.93093" lon="5.68931">
        <ele>527.2</ele>
        <time>2026-05-13T09:47:47Z</time>
      </trkpt>
      <trkpt lat="45.93095" lon="5.68931">
        <ele>527</ele>
        <time>2026-05-13T09:47:48Z</time>
      </trkpt>
      <trkpt lat="45.93098" lon="5.68932">
        <ele>527</ele>
        <time>2026-05-13T09:47:49Z</time>
      </trkpt>
      <trkpt lat="45.931" lon="5.68935">
        <ele>526.8</ele>
        <time>2026-05-13T09:47:50Z</time>
      </trkpt>
      <trkpt lat="45.93102" lon="5.68938">
        <ele>526.8</ele>
        <time>2026-05-13T09:47:51Z</time>
      </trkpt>
      <trkpt lat="45.93105" lon="5.68942">
        <ele>526.4</ele>
        <time>2026-05-13T09:47:52Z</time>
      </trkpt>
      <trkpt lat="45.93107" lon="5.68946">
        <ele>526.2</ele>
        <time>2026-05-13T09:47:53Z</time>
      </trkpt>
      <trkpt lat="45.9311" lon="5.6895">
        <ele>526.2</ele>
        <time>2026-05-13T09:47:54Z</time>
      </trkpt>
      <trkpt lat="45.93112" lon="5.68955">
        <ele>525.8</ele>
        <time>2026-05-13T09:47:55Z</time>
      </trkpt>
      <trkpt lat="45.93115" lon="5.68959">
        <ele>525.8</ele>
        <time>2026-05-13T09:47:56Z</time>
      </trkpt>
      <trkpt lat="45.93117" lon="5.68965">
        <ele>525.2</ele>
        <time>2026-05-13T09:47:57Z</time>
      </trkpt>
      <trkpt lat="45.9312" lon="5.6897">
        <ele>525</ele>
        <time>2026-05-13T09:47:58Z</time>
      </trkpt>
      <trkpt lat="45.93123" lon="5.68975">
        <ele>524.8</ele>
        <time>2026-05-13T09:47:59Z</time>
      </trkpt>
      <trkpt lat="45.93127" lon="5.6898">
        <ele>524.4</ele>
        <time>2026-05-13T09:48:00Z</time>
      </trkpt>
      <trkpt lat="45.9313" lon="5.68986">
        <ele>524.2</ele>
        <time>2026-05-13T09:48:01Z</time>
      </trkpt>
      <trkpt lat="45.93133" lon="5.68992">
        <ele>523.8</ele>
        <time>2026-05-13T09:48:02Z</time>
      </trkpt>
      <trkpt lat="45.93136" lon="5.68999">
        <ele>523.2</ele>
        <time>2026-05-13T09:48:03Z</time>
      </trkpt>
      <trkpt lat="45.9314" lon="5.69005">
        <ele>523.2</ele>
        <time>2026-05-13T09:48:04Z</time>
      </trkpt>
      <trkpt lat="45.93144" lon="5.69012">
        <ele>522.8</ele>
        <time>2026-05-13T09:48:05Z</time>
      </trkpt>
      <trkpt lat="45.93148" lon="5.69019">
        <ele>522.6</ele>
        <time>2026-05-13T09:48:06Z</time>
      </trkpt>
      <trkpt lat="45.93152" lon="5.69028">
        <ele>522</ele>
        <time>2026-05-13T09:48:07Z</time>
      </trkpt>
      <trkpt lat="45.93158" lon="5.69036">
        <ele>521.4</ele>
        <time>2026-05-13T09:48:08Z</time>
      </trkpt>
      <trkpt lat="45.93162" lon="5.69045">
        <ele>520.8</ele>
        <time>2026-05-13T09:48:09Z</time>
      </trkpt>
      <trkpt lat="45.93166" lon="5.69055">
        <ele>520.6</ele>
        <time>2026-05-13T09:48:10Z</time>
      </trkpt>
      <trkpt lat="45.9317" lon="5.69065">
        <ele>520.6</ele>
        <time>2026-05-13T09:48:11Z</time>
      </trkpt>
      <trkpt lat="45.93171" lon="5.69075">
        <ele>520.6</ele>
        <time>2026-05-13T09:48:12Z</time>
      </trkpt>
      <trkpt lat="45.93175" lon="5.69084">
        <ele>521</ele>
        <time>2026-05-13T09:48:13Z</time>
      </trkpt>
      <trkpt lat="45.93177" lon="5.69093">
        <ele>521.4</ele>
        <time>2026-05-13T09:48:14Z</time>
      </trkpt>
      <trkpt lat="45.93179" lon="5.69102">
        <ele>521.6</ele>
        <time>2026-05-13T09:48:15Z</time>
      </trkpt>
      <trkpt lat="45.9318" lon="5.6911">
        <ele>522</ele>
        <time>2026-05-13T09:48:16Z</time>
      </trkpt>
      <trkpt lat="45.9318" lon="5.69118">
        <ele>522.2</ele>
        <time>2026-05-13T09:48:17Z</time>
      </trkpt>
      <trkpt lat="45.93182" lon="5.69125">
        <ele>522.8</ele>
        <time>2026-05-13T09:48:18Z</time>
      </trkpt>
      <trkpt lat="45.93182" lon="5.69133">
        <ele>523.2</ele>
        <time>2026-05-13T09:48:19Z</time>
      </trkpt>
      <trkpt lat="45.93183" lon="5.69139">
        <ele>523.4</ele>
        <time>2026-05-13T09:48:20Z</time>
      </trkpt>
      <trkpt lat="45.93184" lon="5.69146">
        <ele>523.8</ele>
        <time>2026-05-13T09:48:21Z</time>
      </trkpt>
      <trkpt lat="45.93186" lon="5.69157">
        <ele>524</ele>
        <time>2026-05-13T09:48:22Z</time>
      </trkpt>
      <trkpt lat="45.93188" lon="5.69162">
        <ele>524.4</ele>
        <time>2026-05-13T09:48:23Z</time>
      </trkpt>
      <trkpt lat="45.93189" lon="5.69167">
        <ele>524.6</ele>
        <time>2026-05-13T09:48:24Z</time>
      </trkpt>
      <trkpt lat="45.9319" lon="5.69172">
        <ele>525.2</ele>
        <time>2026-05-13T09:48:25Z</time>
      </trkpt>
      <trkpt lat="45.93191" lon="5.69177">
        <ele>525.6</ele>
        <time>2026-05-13T09:48:26Z</time>
      </trkpt>
      <trkpt lat="45.93193" lon="5.69182">
        <ele>525.8</ele>
        <time>2026-05-13T09:48:27Z</time>
      </trkpt>
      <trkpt lat="45.93194" lon="5.69187">
        <ele>525.8</ele>
        <time>2026-05-13T09:48:28Z</time>
      </trkpt>
      <trkpt lat="45.93197" lon="5.69191">
        <ele>526.2</ele>
        <time>2026-05-13T09:48:29Z</time>
      </trkpt>
      <trkpt lat="45.93199" lon="5.69196">
        <ele>526.6</ele>
        <time>2026-05-13T09:48:30Z</time>
      </trkpt>
      <trkpt lat="45.93201" lon="5.692">
        <ele>526.8</ele>
        <time>2026-05-13T09:48:31Z</time>
      </trkpt>
      <trkpt lat="45.93203" lon="5.69204">
        <ele>527</ele>
        <time>2026-05-13T09:48:32Z</time>
      </trkpt>
      <trkpt lat="45.93205" lon="5.69208">
        <ele>527</ele>
        <time>2026-05-13T09:48:33Z</time>
      </trkpt>
      <trkpt lat="45.93207" lon="5.69212">
        <ele>527.4</ele>
        <time>2026-05-13T09:48:34Z</time>
      </trkpt>
      <trkpt lat="45.93209" lon="5.69216">
        <ele>527.6</ele>
        <time>2026-05-13T09:48:35Z</time>
      </trkpt>
      <trkpt lat="45.93212" lon="5.69219">
        <ele>527.6</ele>
        <time>2026-05-13T09:48:36Z</time>
      </trkpt>
      <trkpt lat="45.93214" lon="5.69223">
        <ele>528.2</ele>
        <time>2026-05-13T09:48:37Z</time>
      </trkpt>
      <trkpt lat="45.93216" lon="5.69226">
        <ele>528.6</ele>
        <time>2026-05-13T09:48:38Z</time>
      </trkpt>
      <trkpt lat="45.93219" lon="5.69229">
        <ele>528.8</ele>
        <time>2026-05-13T09:48:39Z</time>
      </trkpt>
      <trkpt lat="45.93221" lon="5.69232">
        <ele>528.8</ele>
        <time>2026-05-13T09:48:40Z</time>
      </trkpt>
      <trkpt lat="45.93223" lon="5.69235">
        <ele>528.8</ele>
        <time>2026-05-13T09:48:41Z</time>
      </trkpt>
      <trkpt lat="45.93225" lon="5.69239">
        <ele>529.4</ele>
        <time>2026-05-13T09:48:42Z</time>
      </trkpt>
      <trkpt lat="45.93228" lon="5.69242">
        <ele>529.4</ele>
        <time>2026-05-13T09:48:43Z</time>
      </trkpt>
      <trkpt lat="45.9323" lon="5.69245">
        <ele>529.4</ele>
        <time>2026-05-13T09:48:44Z</time>
      </trkpt>
      <trkpt lat="45.93232" lon="5.69248">
        <ele>529.6</ele>
        <time>2026-05-13T09:48:45Z</time>
      </trkpt>
      <trkpt lat="45.93235" lon="5.69251">
        <ele>529.6</ele>
        <time>2026-05-13T09:48:46Z</time>
      </trkpt>
      <trkpt lat="45.93237" lon="5.69254">
        <ele>530</ele>
        <time>2026-05-13T09:48:47Z</time>
      </trkpt>
      <trkpt lat="45.93239" lon="5.69257">
        <ele>530.2</ele>
        <time>2026-05-13T09:48:48Z</time>
      </trkpt>
      <trkpt lat="45.93241" lon="5.6926">
        <ele>530.6</ele>
        <time>2026-05-13T09:48:49Z</time>
      </trkpt>
      <trkpt lat="45.93243" lon="5.69263">
        <ele>530.4</ele>
        <time>2026-05-13T09:48:50Z</time>
      </trkpt>
      <trkpt lat="45.93245" lon="5.69267">
        <ele>530.4</ele>
        <time>2026-05-13T09:48:51Z</time>
      </trkpt>
      <trkpt lat="45.93247" lon="5.6927">
        <ele>530.8</ele>
        <time>2026-05-13T09:48:52Z</time>
      </trkpt>
      <trkpt lat="45.93249" lon="5.69274">
        <ele>531</ele>
        <time>2026-05-13T09:48:53Z</time>
      </trkpt>
      <trkpt lat="45.9325" lon="5.69277">
        <ele>531.2</ele>
        <time>2026-05-13T09:48:54Z</time>
      </trkpt>
      <trkpt lat="45.93252" lon="5.69281">
        <ele>531.4</ele>
        <time>2026-05-13T09:48:55Z</time>
      </trkpt>
      <trkpt lat="45.93254" lon="5.69284">
        <ele>531.8</ele>
        <time>2026-05-13T09:48:56Z</time>
      </trkpt>
      <trkpt lat="45.93256" lon="5.69287">
        <ele>532</ele>
        <time>2026-05-13T09:48:57Z</time>
      </trkpt>
      <trkpt lat="45.93257" lon="5.6929">
        <ele>532</ele>
        <time>2026-05-13T09:48:58Z</time>
      </trkpt>
      <trkpt lat="45.93259" lon="5.69294">
        <ele>532.4</ele>
        <time>2026-05-13T09:48:59Z</time>
      </trkpt>
      <trkpt lat="45.93261" lon="5.69297">
        <ele>532.4</ele>
        <time>2026-05-13T09:49:00Z</time>
      </trkpt>
      <trkpt lat="45.93262" lon="5.693">
        <ele>532.6</ele>
        <time>2026-05-13T09:49:01Z</time>
      </trkpt>
      <trkpt lat="45.93264" lon="5.69304">
        <ele>532.6</ele>
        <time>2026-05-13T09:49:02Z</time>
      </trkpt>
      <trkpt lat="45.93265" lon="5.69307">
        <ele>532.6</ele>
        <time>2026-05-13T09:49:03Z</time>
      </trkpt>
      <trkpt lat="45.93267" lon="5.6931">
        <ele>532.8</ele>
        <time>2026-05-13T09:49:04Z</time>
      </trkpt>
      <trkpt lat="45.93268" lon="5.69314">
        <ele>533</ele>
        <time>2026-05-13T09:49:05Z</time>
      </trkpt>
      <trkpt lat="45.9327" lon="5.69317">
        <ele>533.4</ele>
        <time>2026-05-13T09:49:06Z</time>
      </trkpt>
      <trkpt lat="45.93272" lon="5.6932">
        <ele>533.4</ele>
        <time>2026-05-13T09:49:07Z</time>
      </trkpt>
      <trkpt lat="45.93273" lon="5.69323">
        <ele>533.8</ele>
        <time>2026-05-13T09:49:08Z</time>
      </trkpt>
      <trkpt lat="45.93274" lon="5.69326">
        <ele>533.8</ele>
        <time>2026-05-13T09:49:09Z</time>
      </trkpt>
      <trkpt lat="45.93276" lon="5.69329">
        <ele>534</ele>
        <time>2026-05-13T09:49:10Z</time>
      </trkpt>
      <trkpt lat="45.93278" lon="5.69332">
        <ele>534.2</ele>
        <time>2026-05-13T09:49:11Z</time>
      </trkpt>
      <trkpt lat="45.93279" lon="5.69335">
        <ele>534.2</ele>
        <time>2026-05-13T09:49:12Z</time>
      </trkpt>
      <trkpt lat="45.93281" lon="5.69338">
        <ele>534.6</ele>
        <time>2026-05-13T09:49:13Z</time>
      </trkpt>
      <trkpt lat="45.93282" lon="5.69341">
        <ele>534.8</ele>
        <time>2026-05-13T09:49:14Z</time>
      </trkpt>
      <trkpt lat="45.93283" lon="5.69344">
        <ele>534.8</ele>
        <time>2026-05-13T09:49:15Z</time>
      </trkpt>
      <trkpt lat="45.93285" lon="5.69347">
        <ele>535.2</ele>
        <time>2026-05-13T09:49:16Z</time>
      </trkpt>
      <trkpt lat="45.93286" lon="5.6935">
        <ele>535.2</ele>
        <time>2026-05-13T09:49:17Z</time>
      </trkpt>
      <trkpt lat="45.93288" lon="5.69353">
        <ele>535.4</ele>
        <time>2026-05-13T09:49:18Z</time>
      </trkpt>
      <trkpt lat="45.93289" lon="5.69356">
        <ele>535.8</ele>
        <time>2026-05-13T09:49:19Z</time>
      </trkpt>
      <trkpt lat="45.93291" lon="5.69359">
        <ele>535.8</ele>
        <time>2026-05-13T09:49:20Z</time>
      </trkpt>
      <trkpt lat="45.93293" lon="5.69362">
        <ele>535.8</ele>
        <time>2026-05-13T09:49:21Z</time>
      </trkpt>
      <trkpt lat="45.93294" lon="5.69365">
        <ele>536.2</ele>
        <time>2026-05-13T09:49:22Z</time>
      </trkpt>
      <trkpt lat="45.93296" lon="5.69368">
        <ele>536.2</ele>
        <time>2026-05-13T09:49:23Z</time>
      </trkpt>
      <trkpt lat="45.93297" lon="5.69371">
        <ele>536.4</ele>
        <time>2026-05-13T09:49:24Z</time>
      </trkpt>
      <trkpt lat="45.93298" lon="5.69374">
        <ele>536.4</ele>
        <time>2026-05-13T09:49:25Z</time>
      </trkpt>
      <trkpt lat="45.933" lon="5.69377">
        <ele>536.4</ele>
        <time>2026-05-13T09:49:26Z</time>
      </trkpt>
      <trkpt lat="45.93301" lon="5.6938">
        <ele>536.8</ele>
        <time>2026-05-13T09:49:27Z</time>
      </trkpt>
      <trkpt lat="45.93303" lon="5.69383">
        <ele>537</ele>
        <time>2026-05-13T09:49:28Z</time>
      </trkpt>
      <trkpt lat="45.93304" lon="5.69386">
        <ele>537</ele>
        <time>2026-05-13T09:49:29Z</time>
      </trkpt>
      <trkpt lat="45.93306" lon="5.69389">
        <ele>537.4</ele>
        <time>2026-05-13T09:49:30Z</time>
      </trkpt>
      <trkpt lat="45.93307" lon="5.69392">
        <ele>537.4</ele>
        <time>2026-05-13T09:49:31Z</time>
      </trkpt>
      <trkpt lat="45.93308" lon="5.69394">
        <ele>537.8</ele>
        <time>2026-05-13T09:49:32Z</time>
      </trkpt>
      <trkpt lat="45.9331" lon="5.69397">
        <ele>538.2</ele>
        <time>2026-05-13T09:49:33Z</time>
      </trkpt>
      <trkpt lat="45.93311" lon="5.694">
        <ele>538.2</ele>
        <time>2026-05-13T09:49:34Z</time>
      </trkpt>
      <trkpt lat="45.93312" lon="5.69402">
        <ele>538.4</ele>
        <time>2026-05-13T09:49:35Z</time>
      </trkpt>
      <trkpt lat="45.93313" lon="5.69405">
        <ele>538.8</ele>
        <time>2026-05-13T09:49:36Z</time>
      </trkpt>
      <trkpt lat="45.93314" lon="5.69408">
        <ele>539</ele>
        <time>2026-05-13T09:49:37Z</time>
      </trkpt>
      <trkpt lat="45.93315" lon="5.6941">
        <ele>539.2</ele>
        <time>2026-05-13T09:49:38Z</time>
      </trkpt>
      <trkpt lat="45.93316" lon="5.69413">
        <ele>539.4</ele>
        <time>2026-05-13T09:49:39Z</time>
      </trkpt>
      <trkpt lat="45.93317" lon="5.69416">
        <ele>539.4</ele>
        <time>2026-05-13T09:49:40Z</time>
      </trkpt>
      <trkpt lat="45.93318" lon="5.69419">
        <ele>539.4</ele>
        <time>2026-05-13T09:49:41Z</time>
      </trkpt>
      <trkpt lat="45.93319" lon="5.69421">
        <ele>539.4</ele>
        <time>2026-05-13T09:49:42Z</time>
      </trkpt>
      <trkpt lat="45.9332" lon="5.69424">
        <ele>539.8</ele>
        <time>2026-05-13T09:49:43Z</time>
      </trkpt>
      <trkpt lat="45.93321" lon="5.69427">
        <ele>539.8</ele>
        <time>2026-05-13T09:49:44Z</time>
      </trkpt>
      <trkpt lat="45.93322" lon="5.6943">
        <ele>540.2</ele>
        <time>2026-05-13T09:49:45Z</time>
      </trkpt>
      <trkpt lat="45.93323" lon="5.69433">
        <ele>540.2</ele>
        <time>2026-05-13T09:49:46Z</time>
      </trkpt>
      <trkpt lat="45.93324" lon="5.69436">
        <ele>540.6</ele>
        <time>2026-05-13T09:49:47Z</time>
      </trkpt>
      <trkpt lat="45.93325" lon="5.69439">
        <ele>540.6</ele>
        <time>2026-05-13T09:49:48Z</time>
      </trkpt>
      <trkpt lat="45.93326" lon="5.69442">
        <ele>541</ele>
        <time>2026-05-13T09:49:49Z</time>
      </trkpt>
      <trkpt lat="45.93327" lon="5.69445">
        <ele>541</ele>
        <time>2026-05-13T09:49:50Z</time>
      </trkpt>
      <trkpt lat="45.93328" lon="5.69448">
        <ele>541.2</ele>
        <time>2026-05-13T09:49:51Z</time>
      </trkpt>
      <trkpt lat="45.93329" lon="5.69451">
        <ele>541.2</ele>
        <time>2026-05-13T09:49:52Z</time>
      </trkpt>
      <trkpt lat="45.9333" lon="5.69453">
        <ele>541.2</ele>
        <time>2026-05-13T09:49:53Z</time>
      </trkpt>
      <trkpt lat="45.93331" lon="5.69456">
        <ele>541.2</ele>
        <time>2026-05-13T09:49:54Z</time>
      </trkpt>
      <trkpt lat="45.93332" lon="5.69458">
        <ele>541.6</ele>
        <time>2026-05-13T09:49:55Z</time>
      </trkpt>
      <trkpt lat="45.93333" lon="5.69461">
        <ele>541.6</ele>
        <time>2026-05-13T09:49:56Z</time>
      </trkpt>
      <trkpt lat="45.93334" lon="5.69464">
        <ele>542</ele>
        <time>2026-05-13T09:49:57Z</time>
      </trkpt>
      <trkpt lat="45.93335" lon="5.69467">
        <ele>542</ele>
        <time>2026-05-13T09:49:58Z</time>
      </trkpt>
      <trkpt lat="45.93336" lon="5.69469">
        <ele>542</ele>
        <time>2026-05-13T09:49:59Z</time>
      </trkpt>
      <trkpt lat="45.93337" lon="5.69472">
        <ele>542</ele>
        <time>2026-05-13T09:50:00Z</time>
      </trkpt>
      <trkpt lat="45.93338" lon="5.69474">
        <ele>542.2</ele>
        <time>2026-05-13T09:50:01Z</time>
      </trkpt>
      <trkpt lat="45.93339" lon="5.69477">
        <ele>542.2</ele>
        <time>2026-05-13T09:50:02Z</time>
      </trkpt>
      <trkpt lat="45.9334" lon="5.69479">
        <ele>542.6</ele>
        <time>2026-05-13T09:50:03Z</time>
      </trkpt>
      <trkpt lat="45.93341" lon="5.69482">
        <ele>542.6</ele>
        <time>2026-05-13T09:50:04Z</time>
      </trkpt>
      <trkpt lat="45.93342" lon="5.69484">
        <ele>542.6</ele>
        <time>2026-05-13T09:50:05Z</time>
      </trkpt>
      <trkpt lat="45.93344" lon="5.69487">
        <ele>543</ele>
        <time>2026-05-13T09:50:06Z</time>
      </trkpt>
      <trkpt lat="45.93345" lon="5.69489">
        <ele>543</ele>
        <time>2026-05-13T09:50:07Z</time>
      </trkpt>
      <trkpt lat="45.93346" lon="5.69492">
        <ele>543</ele>
        <time>2026-05-13T09:50:08Z</time>
      </trkpt>
      <trkpt lat="45.93348" lon="5.69495">
        <ele>543.2</ele>
        <time>2026-05-13T09:50:09Z</time>
      </trkpt>
      <trkpt lat="45.93349" lon="5.69498">
        <ele>543.2</ele>
        <time>2026-05-13T09:50:10Z</time>
      </trkpt>
      <trkpt lat="45.9335" lon="5.69501">
        <ele>543.6</ele>
        <time>2026-05-13T09:50:11Z</time>
      </trkpt>
      <trkpt lat="45.93352" lon="5.69503">
        <ele>543.6</ele>
        <time>2026-05-13T09:50:12Z</time>
      </trkpt>
      <trkpt lat="45.93354" lon="5.69506">
        <ele>543.8</ele>
        <time>2026-05-13T09:50:13Z</time>
      </trkpt>
      <trkpt lat="45.93355" lon="5.69509">
        <ele>543.8</ele>
        <time>2026-05-13T09:50:14Z</time>
      </trkpt>
      <trkpt lat="45.93356" lon="5.69511">
        <ele>543.8</ele>
        <time>2026-05-13T09:50:15Z</time>
      </trkpt>
      <trkpt lat="45.93358" lon="5.69514">
        <ele>544</ele>
        <time>2026-05-13T09:50:16Z</time>
      </trkpt>
      <trkpt lat="45.93359" lon="5.69516">
        <ele>544.2</ele>
        <time>2026-05-13T09:50:17Z</time>
      </trkpt>
      <trkpt lat="45.93361" lon="5.69519">
        <ele>544.2</ele>
        <time>2026-05-13T09:50:18Z</time>
      </trkpt>
      <trkpt lat="45.93362" lon="5.69522">
        <ele>544.6</ele>
        <time>2026-05-13T09:50:19Z</time>
      </trkpt>
      <trkpt lat="45.93363" lon="5.69525">
        <ele>544.8</ele>
        <time>2026-05-13T09:50:20Z</time>
      </trkpt>
      <trkpt lat="45.93365" lon="5.69528">
        <ele>545</ele>
        <time>2026-05-13T09:50:21Z</time>
      </trkpt>
      <trkpt lat="45.93366" lon="5.6953">
        <ele>545.2</ele>
        <time>2026-05-13T09:50:22Z</time>
      </trkpt>
      <trkpt lat="45.93368" lon="5.69533">
        <ele>545.6</ele>
        <time>2026-05-13T09:50:23Z</time>
      </trkpt>
      <trkpt lat="45.93369" lon="5.69535">
        <ele>546</ele>
        <time>2026-05-13T09:50:24Z</time>
      </trkpt>
      <trkpt lat="45.93371" lon="5.69538">
        <ele>546</ele>
        <time>2026-05-13T09:50:25Z</time>
      </trkpt>
      <trkpt lat="45.93372" lon="5.6954">
        <ele>546</ele>
        <time>2026-05-13T09:50:26Z</time>
      </trkpt>
      <trkpt lat="45.93373" lon="5.69542">
        <ele>546</ele>
        <time>2026-05-13T09:50:27Z</time>
      </trkpt>
      <trkpt lat="45.93375" lon="5.69544">
        <ele>546</ele>
        <time>2026-05-13T09:50:28Z</time>
      </trkpt>
      <trkpt lat="45.93376" lon="5.69546">
        <ele>547</ele>
        <time>2026-05-13T09:50:29Z</time>
      </trkpt>
      <trkpt lat="45.93378" lon="5.69549">
        <ele>547</ele>
        <time>2026-05-13T09:50:30Z</time>
      </trkpt>
      <trkpt lat="45.93379" lon="5.69551">
        <ele>547</ele>
        <time>2026-05-13T09:50:31Z</time>
      </trkpt>
      <trkpt lat="45.9338" lon="5.69554">
        <ele>547</ele>
        <time>2026-05-13T09:50:32Z</time>
      </trkpt>
      <trkpt lat="45.93381" lon="5.69557">
        <ele>547</ele>
        <time>2026-05-13T09:50:33Z</time>
      </trkpt>
      <trkpt lat="45.93382" lon="5.6956">
        <ele>547</ele>
        <time>2026-05-13T09:50:34Z</time>
      </trkpt>
      <trkpt lat="45.93384" lon="5.69562">
        <ele>547.2</ele>
        <time>2026-05-13T09:50:35Z</time>
      </trkpt>
      <trkpt lat="45.93385" lon="5.69565">
        <ele>547.2</ele>
        <time>2026-05-13T09:50:36Z</time>
      </trkpt>
      <trkpt lat="45.93387" lon="5.69567">
        <ele>547.4</ele>
        <time>2026-05-13T09:50:37Z</time>
      </trkpt>
      <trkpt lat="45.93388" lon="5.6957">
        <ele>547.4</ele>
        <time>2026-05-13T09:50:38Z</time>
      </trkpt>
      <trkpt lat="45.93389" lon="5.69572">
        <ele>547.8</ele>
        <time>2026-05-13T09:50:39Z</time>
      </trkpt>
      <trkpt lat="45.93391" lon="5.69575">
        <ele>548</ele>
        <time>2026-05-13T09:50:40Z</time>
      </trkpt>
      <trkpt lat="45.93392" lon="5.69577">
        <ele>548</ele>
        <time>2026-05-13T09:50:41Z</time>
      </trkpt>
      <trkpt lat="45.93393" lon="5.69579">
        <ele>548.2</ele>
        <time>2026-05-13T09:50:42Z</time>
      </trkpt>
      <trkpt lat="45.93395" lon="5.69582">
        <ele>548.2</ele>
        <time>2026-05-13T09:50:43Z</time>
      </trkpt>
      <trkpt lat="45.93396" lon="5.69584">
        <ele>548.4</ele>
        <time>2026-05-13T09:50:44Z</time>
      </trkpt>
      <trkpt lat="45.93398" lon="5.69587">
        <ele>548.4</ele>
        <time>2026-05-13T09:50:45Z</time>
      </trkpt>
      <trkpt lat="45.93399" lon="5.69589">
        <ele>548.8</ele>
        <time>2026-05-13T09:50:46Z</time>
      </trkpt>
      <trkpt lat="45.93399" lon="5.69589">
        <ele>549</ele>
        <time>2026-05-13T09:50:47Z</time>
      </trkpt>
      <trkpt lat="45.93401" lon="5.69592">
        <ele>549</ele>
        <time>2026-05-13T09:50:48Z</time>
      </trkpt>
      <trkpt lat="45.93403" lon="5.69594">
        <ele>549.2</ele>
        <time>2026-05-13T09:50:49Z</time>
      </trkpt>
      <trkpt lat="45.93404" lon="5.69597">
        <ele>549.2</ele>
        <time>2026-05-13T09:50:50Z</time>
      </trkpt>
      <trkpt lat="45.93405" lon="5.69599">
        <ele>549.2</ele>
        <time>2026-05-13T09:50:51Z</time>
      </trkpt>
      <trkpt lat="45.93407" lon="5.69601">
        <ele>549.6</ele>
        <time>2026-05-13T09:50:52Z</time>
      </trkpt>
      <trkpt lat="45.93408" lon="5.69604">
        <ele>549.6</ele>
        <time>2026-05-13T09:50:53Z</time>
      </trkpt>
      <trkpt lat="45.9341" lon="5.69606">
        <ele>550</ele>
        <time>2026-05-13T09:50:54Z</time>
      </trkpt>
      <trkpt lat="45.93411" lon="5.69608">
        <ele>550</ele>
        <time>2026-05-13T09:50:55Z</time>
      </trkpt>
      <trkpt lat="45.93413" lon="5.6961">
        <ele>550.2</ele>
        <time>2026-05-13T09:50:56Z</time>
      </trkpt>
      <trkpt lat="45.93415" lon="5.69612">
        <ele>550.4</ele>
        <time>2026-05-13T09:50:57Z</time>
      </trkpt>
      <trkpt lat="45.93416" lon="5.69615">
        <ele>550.4</ele>
        <time>2026-05-13T09:50:58Z</time>
      </trkpt>
      <trkpt lat="45.93418" lon="5.69617">
        <ele>550.4</ele>
        <time>2026-05-13T09:50:59Z</time>
      </trkpt>
      <trkpt lat="45.93419" lon="5.69619">
        <ele>550.4</ele>
        <time>2026-05-13T09:51:00Z</time>
      </trkpt>
      <trkpt lat="45.93421" lon="5.69622">
        <ele>551.2</ele>
        <time>2026-05-13T09:51:01Z</time>
      </trkpt>
      <trkpt lat="45.93423" lon="5.69624">
        <ele>551.2</ele>
        <time>2026-05-13T09:51:02Z</time>
      </trkpt>
      <trkpt lat="45.93424" lon="5.69627">
        <ele>551.2</ele>
        <time>2026-05-13T09:51:03Z</time>
      </trkpt>
      <trkpt lat="45.93426" lon="5.69629">
        <ele>551.4</ele>
        <time>2026-05-13T09:51:04Z</time>
      </trkpt>
      <trkpt lat="45.93428" lon="5.69632">
        <ele>551.8</ele>
        <time>2026-05-13T09:51:05Z</time>
      </trkpt>
      <trkpt lat="45.93429" lon="5.69634">
        <ele>552</ele>
        <time>2026-05-13T09:51:06Z</time>
      </trkpt>
      <trkpt lat="45.93431" lon="5.69636">
        <ele>552</ele>
        <time>2026-05-13T09:51:07Z</time>
      </trkpt>
      <trkpt lat="45.93432" lon="5.69639">
        <ele>552</ele>
        <time>2026-05-13T09:51:08Z</time>
      </trkpt>
      <trkpt lat="45.93434" lon="5.69642">
        <ele>552</ele>
        <time>2026-05-13T09:51:09Z</time>
      </trkpt>
      <trkpt lat="45.93435" lon="5.69644">
        <ele>552</ele>
        <time>2026-05-13T09:51:10Z</time>
      </trkpt>
      <trkpt lat="45.93436" lon="5.69647">
        <ele>552.8</ele>
        <time>2026-05-13T09:51:11Z</time>
      </trkpt>
      <trkpt lat="45.93438" lon="5.6965">
        <ele>552.8</ele>
        <time>2026-05-13T09:51:12Z</time>
      </trkpt>
      <trkpt lat="45.93439" lon="5.69652">
        <ele>553</ele>
        <time>2026-05-13T09:51:13Z</time>
      </trkpt>
      <trkpt lat="45.93441" lon="5.69655">
        <ele>553</ele>
        <time>2026-05-13T09:51:14Z</time>
      </trkpt>
      <trkpt lat="45.93442" lon="5.69657">
        <ele>553</ele>
        <time>2026-05-13T09:51:15Z</time>
      </trkpt>
      <trkpt lat="45.93444" lon="5.69659">
        <ele>553</ele>
        <time>2026-05-13T09:51:16Z</time>
      </trkpt>
      <trkpt lat="45.93446" lon="5.69662">
        <ele>553</ele>
        <time>2026-05-13T09:51:17Z</time>
      </trkpt>
      <trkpt lat="45.93447" lon="5.69664">
        <ele>553</ele>
        <time>2026-05-13T09:51:18Z</time>
      </trkpt>
      <trkpt lat="45.93449" lon="5.69667">
        <ele>552.8</ele>
        <time>2026-05-13T09:51:19Z</time>
      </trkpt>
      <trkpt lat="45.9345" lon="5.6967">
        <ele>553.2</ele>
        <time>2026-05-13T09:51:20Z</time>
      </trkpt>
      <trkpt lat="45.93452" lon="5.69673">
        <ele>554</ele>
        <time>2026-05-13T09:51:21Z</time>
      </trkpt>
      <trkpt lat="45.93453" lon="5.69676">
        <ele>554</ele>
        <time>2026-05-13T09:51:22Z</time>
      </trkpt>
      <trkpt lat="45.93455" lon="5.69679">
        <ele>554</ele>
        <time>2026-05-13T09:51:23Z</time>
      </trkpt>
      <trkpt lat="45.93457" lon="5.69681">
        <ele>554</ele>
        <time>2026-05-13T09:51:24Z</time>
      </trkpt>
      <trkpt lat="45.93458" lon="5.69684">
        <ele>554</ele>
        <time>2026-05-13T09:51:25Z</time>
      </trkpt>
      <trkpt lat="45.9346" lon="5.69687">
        <ele>554</ele>
        <time>2026-05-13T09:51:26Z</time>
      </trkpt>
      <trkpt lat="45.93461" lon="5.6969">
        <ele>554.2</ele>
        <time>2026-05-13T09:51:27Z</time>
      </trkpt>
      <trkpt lat="45.93463" lon="5.69693">
        <ele>554.2</ele>
        <time>2026-05-13T09:51:28Z</time>
      </trkpt>
      <trkpt lat="45.93464" lon="5.69696">
        <ele>554.4</ele>
        <time>2026-05-13T09:51:29Z</time>
      </trkpt>
      <trkpt lat="45.93466" lon="5.69699">
        <ele>554.8</ele>
        <time>2026-05-13T09:51:30Z</time>
      </trkpt>
      <trkpt lat="45.93468" lon="5.69703">
        <ele>554.8</ele>
        <time>2026-05-13T09:51:31Z</time>
      </trkpt>
      <trkpt lat="45.9347" lon="5.69706">
        <ele>555</ele>
        <time>2026-05-13T09:51:32Z</time>
      </trkpt>
      <trkpt lat="45.93472" lon="5.6971">
        <ele>555</ele>
        <time>2026-05-13T09:51:33Z</time>
      </trkpt>
      <trkpt lat="45.93474" lon="5.69714">
        <ele>555.4</ele>
        <time>2026-05-13T09:51:34Z</time>
      </trkpt>
      <trkpt lat="45.93476" lon="5.69718">
        <ele>555.4</ele>
        <time>2026-05-13T09:51:35Z</time>
      </trkpt>
      <trkpt lat="45.93478" lon="5.69721">
        <ele>555.6</ele>
        <time>2026-05-13T09:51:36Z</time>
      </trkpt>
      <trkpt lat="45.9348" lon="5.69725">
        <ele>555.6</ele>
        <time>2026-05-13T09:51:37Z</time>
      </trkpt>
      <trkpt lat="45.93481" lon="5.69729">
        <ele>555.6</ele>
        <time>2026-05-13T09:51:38Z</time>
      </trkpt>
      <trkpt lat="45.93483" lon="5.69733">
        <ele>555.8</ele>
        <time>2026-05-13T09:51:39Z</time>
      </trkpt>
      <trkpt lat="45.93484" lon="5.69737">
        <ele>556.2</ele>
        <time>2026-05-13T09:51:40Z</time>
      </trkpt>
      <trkpt lat="45.93486" lon="5.6974">
        <ele>556.4</ele>
        <time>2026-05-13T09:51:41Z</time>
      </trkpt>
      <trkpt lat="45.93488" lon="5.69744">
        <ele>556.6</ele>
        <time>2026-05-13T09:51:42Z</time>
      </trkpt>
      <trkpt lat="45.93489" lon="5.69747">
        <ele>557</ele>
        <time>2026-05-13T09:51:43Z</time>
      </trkpt>
      <trkpt lat="45.93491" lon="5.69751">
        <ele>557</ele>
        <time>2026-05-13T09:51:44Z</time>
      </trkpt>
      <trkpt lat="45.93492" lon="5.69755">
        <ele>557.2</ele>
        <time>2026-05-13T09:51:45Z</time>
      </trkpt>
      <trkpt lat="45.93494" lon="5.69758">
        <ele>557.2</ele>
        <time>2026-05-13T09:51:46Z</time>
      </trkpt>
      <trkpt lat="45.93496" lon="5.69761">
        <ele>557.6</ele>
        <time>2026-05-13T09:51:47Z</time>
      </trkpt>
      <trkpt lat="45.93497" lon="5.69765">
        <ele>557.6</ele>
        <time>2026-05-13T09:51:48Z</time>
      </trkpt>
      <trkpt lat="45.93499" lon="5.69768">
        <ele>557.8</ele>
        <time>2026-05-13T09:51:49Z</time>
      </trkpt>
      <trkpt lat="45.935" lon="5.69772">
        <ele>557.8</ele>
        <time>2026-05-13T09:51:50Z</time>
      </trkpt>
      <trkpt lat="45.93501" lon="5.69775">
        <ele>558</ele>
        <time>2026-05-13T09:51:51Z</time>
      </trkpt>
      <trkpt lat="45.93503" lon="5.69779">
        <ele>558.4</ele>
        <time>2026-05-13T09:51:52Z</time>
      </trkpt>
      <trkpt lat="45.93504" lon="5.69782">
        <ele>558.4</ele>
        <time>2026-05-13T09:51:53Z</time>
      </trkpt>
      <trkpt lat="45.93506" lon="5.69786">
        <ele>558.6</ele>
        <time>2026-05-13T09:51:54Z</time>
      </trkpt>
      <trkpt lat="45.93507" lon="5.69789">
        <ele>558.6</ele>
        <time>2026-05-13T09:51:55Z</time>
      </trkpt>
      <trkpt lat="45.93508" lon="5.69792">
        <ele>559</ele>
        <time>2026-05-13T09:51:56Z</time>
      </trkpt>
      <trkpt lat="45.93509" lon="5.69795">
        <ele>559.2</ele>
        <time>2026-05-13T09:51:57Z</time>
      </trkpt>
      <trkpt lat="45.93509" lon="5.69795">
        <ele>559.2</ele>
        <time>2026-05-13T09:51:58Z</time>
      </trkpt>
      <trkpt lat="45.93513" lon="5.69809">
        <ele>559.4</ele>
        <time>2026-05-13T09:52:00Z</time>
      </trkpt>
      <trkpt lat="45.93515" lon="5.69812">
        <ele>559.8</ele>
        <time>2026-05-13T09:52:01Z</time>
      </trkpt>
      <trkpt lat="45.93516" lon="5.69815">
        <ele>559.8</ele>
        <time>2026-05-13T09:52:02Z</time>
      </trkpt>
      <trkpt lat="45.93517" lon="5.69818">
        <ele>559.8</ele>
        <time>2026-05-13T09:52:03Z</time>
      </trkpt>
      <trkpt lat="45.93518" lon="5.69821">
        <ele>560.2</ele>
        <time>2026-05-13T09:52:04Z</time>
      </trkpt>
      <trkpt lat="45.9352" lon="5.69825">
        <ele>560.4</ele>
        <time>2026-05-13T09:52:05Z</time>
      </trkpt>
      <trkpt lat="45.93521" lon="5.69828">
        <ele>560.4</ele>
        <time>2026-05-13T09:52:06Z</time>
      </trkpt>
      <trkpt lat="45.93522" lon="5.69831">
        <ele>560.8</ele>
        <time>2026-05-13T09:52:07Z</time>
      </trkpt>
      <trkpt lat="45.93524" lon="5.69834">
        <ele>560.8</ele>
        <time>2026-05-13T09:52:08Z</time>
      </trkpt>
      <trkpt lat="45.93526" lon="5.69837">
        <ele>561</ele>
        <time>2026-05-13T09:52:09Z</time>
      </trkpt>
      <trkpt lat="45.93527" lon="5.6984">
        <ele>561</ele>
        <time>2026-05-13T09:52:10Z</time>
      </trkpt>
      <trkpt lat="45.93529" lon="5.69843">
        <ele>561.4</ele>
        <time>2026-05-13T09:52:11Z</time>
      </trkpt>
      <trkpt lat="45.9353" lon="5.69846">
        <ele>561.4</ele>
        <time>2026-05-13T09:52:12Z</time>
      </trkpt>
      <trkpt lat="45.93532" lon="5.69849">
        <ele>561.4</ele>
        <time>2026-05-13T09:52:13Z</time>
      </trkpt>
      <trkpt lat="45.93533" lon="5.69852">
        <ele>561.6</ele>
        <time>2026-05-13T09:52:14Z</time>
      </trkpt>
      <trkpt lat="45.93535" lon="5.69855">
        <ele>561.6</ele>
        <time>2026-05-13T09:52:15Z</time>
      </trkpt>
      <trkpt lat="45.93536" lon="5.69857">
        <ele>562</ele>
        <time>2026-05-13T09:52:16Z</time>
      </trkpt>
      <trkpt lat="45.93538" lon="5.6986">
        <ele>562.2</ele>
        <time>2026-05-13T09:52:17Z</time>
      </trkpt>
      <trkpt lat="45.9354" lon="5.69862">
        <ele>562.2</ele>
        <time>2026-05-13T09:52:18Z</time>
      </trkpt>
      <trkpt lat="45.93542" lon="5.69865">
        <ele>562.6</ele>
        <time>2026-05-13T09:52:19Z</time>
      </trkpt>
      <trkpt lat="45.93543" lon="5.69868">
        <ele>562.6</ele>
        <time>2026-05-13T09:52:20Z</time>
      </trkpt>
      <trkpt lat="45.93545" lon="5.69871">
        <ele>562.6</ele>
        <time>2026-05-13T09:52:21Z</time>
      </trkpt>
      <trkpt lat="45.93546" lon="5.69874">
        <ele>562.6</ele>
        <time>2026-05-13T09:52:22Z</time>
      </trkpt>
      <trkpt lat="45.93548" lon="5.69877">
        <ele>562.6</ele>
        <time>2026-05-13T09:52:23Z</time>
      </trkpt>
      <trkpt lat="45.93549" lon="5.69879">
        <ele>562.8</ele>
        <time>2026-05-13T09:52:24Z</time>
      </trkpt>
      <trkpt lat="45.93551" lon="5.69882">
        <ele>562.8</ele>
        <time>2026-05-13T09:52:25Z</time>
      </trkpt>
      <trkpt lat="45.93552" lon="5.69885">
        <ele>563</ele>
        <time>2026-05-13T09:52:26Z</time>
      </trkpt>
      <trkpt lat="45.93554" lon="5.69888">
        <ele>563</ele>
        <time>2026-05-13T09:52:27Z</time>
      </trkpt>
      <trkpt lat="45.93556" lon="5.6989">
        <ele>563.4</ele>
        <time>2026-05-13T09:52:28Z</time>
      </trkpt>
      <trkpt lat="45.93558" lon="5.69893">
        <ele>563.4</ele>
        <time>2026-05-13T09:52:29Z</time>
      </trkpt>
      <trkpt lat="45.93559" lon="5.69896">
        <ele>563.6</ele>
        <time>2026-05-13T09:52:30Z</time>
      </trkpt>
      <trkpt lat="45.93561" lon="5.69899">
        <ele>563.8</ele>
        <time>2026-05-13T09:52:31Z</time>
      </trkpt>
      <trkpt lat="45.93563" lon="5.69901">
        <ele>563.8</ele>
        <time>2026-05-13T09:52:32Z</time>
      </trkpt>
      <trkpt lat="45.93565" lon="5.69904">
        <ele>564</ele>
        <time>2026-05-13T09:52:33Z</time>
      </trkpt>
      <trkpt lat="45.93566" lon="5.69906">
        <ele>564</ele>
        <time>2026-05-13T09:52:34Z</time>
      </trkpt>
      <trkpt lat="45.93568" lon="5.69909">
        <ele>564</ele>
        <time>2026-05-13T09:52:35Z</time>
      </trkpt>
      <trkpt lat="45.9357" lon="5.69912">
        <ele>564</ele>
        <time>2026-05-13T09:52:36Z</time>
      </trkpt>
      <trkpt lat="45.93571" lon="5.69914">
        <ele>564.4</ele>
        <time>2026-05-13T09:52:37Z</time>
      </trkpt>
      <trkpt lat="45.93573" lon="5.69917">
        <ele>564.4</ele>
        <time>2026-05-13T09:52:38Z</time>
      </trkpt>
      <trkpt lat="45.93575" lon="5.69919">
        <ele>564.4</ele>
        <time>2026-05-13T09:52:39Z</time>
      </trkpt>
      <trkpt lat="45.93577" lon="5.69922">
        <ele>564.6</ele>
        <time>2026-05-13T09:52:40Z</time>
      </trkpt>
      <trkpt lat="45.93579" lon="5.69924">
        <ele>564.6</ele>
        <time>2026-05-13T09:52:41Z</time>
      </trkpt>
      <trkpt lat="45.9358" lon="5.69926">
        <ele>564.8</ele>
        <time>2026-05-13T09:52:42Z</time>
      </trkpt>
      <trkpt lat="45.93582" lon="5.69928">
        <ele>564.8</ele>
        <time>2026-05-13T09:52:43Z</time>
      </trkpt>
      <trkpt lat="45.93584" lon="5.69931">
        <ele>565</ele>
        <time>2026-05-13T09:52:44Z</time>
      </trkpt>
      <trkpt lat="45.93586" lon="5.69933">
        <ele>565</ele>
        <time>2026-05-13T09:52:45Z</time>
      </trkpt>
      <trkpt lat="45.93588" lon="5.69935">
        <ele>565.4</ele>
        <time>2026-05-13T09:52:46Z</time>
      </trkpt>
      <trkpt lat="45.93589" lon="5.69937">
        <ele>565.4</ele>
        <time>2026-05-13T09:52:47Z</time>
      </trkpt>
      <trkpt lat="45.93591" lon="5.69939">
        <ele>565.8</ele>
        <time>2026-05-13T09:52:48Z</time>
      </trkpt>
      <trkpt lat="45.93593" lon="5.69941">
        <ele>566</ele>
        <time>2026-05-13T09:52:49Z</time>
      </trkpt>
      <trkpt lat="45.93595" lon="5.69944">
        <ele>566.2</ele>
        <time>2026-05-13T09:52:50Z</time>
      </trkpt>
      <trkpt lat="45.93597" lon="5.69946">
        <ele>566.2</ele>
        <time>2026-05-13T09:52:51Z</time>
      </trkpt>
      <trkpt lat="45.93599" lon="5.69948">
        <ele>566.2</ele>
        <time>2026-05-13T09:52:52Z</time>
      </trkpt>
      <trkpt lat="45.93601" lon="5.6995">
        <ele>566.6</ele>
        <time>2026-05-13T09:52:53Z</time>
      </trkpt>
      <trkpt lat="45.93603" lon="5.69953">
        <ele>566.8</ele>
        <time>2026-05-13T09:52:54Z</time>
      </trkpt>
      <trkpt lat="45.93604" lon="5.69955">
        <ele>566.8</ele>
        <time>2026-05-13T09:52:55Z</time>
      </trkpt>
      <trkpt lat="45.93606" lon="5.69957">
        <ele>566.8</ele>
        <time>2026-05-13T09:52:56Z</time>
      </trkpt>
      <trkpt lat="45.93608" lon="5.69959">
        <ele>567.2</ele>
        <time>2026-05-13T09:52:57Z</time>
      </trkpt>
      <trkpt lat="45.9361" lon="5.69962">
        <ele>567.2</ele>
        <time>2026-05-13T09:52:58Z</time>
      </trkpt>
      <trkpt lat="45.93611" lon="5.69964">
        <ele>567.2</ele>
        <time>2026-05-13T09:52:59Z</time>
      </trkpt>
      <trkpt lat="45.93613" lon="5.69966">
        <ele>567.4</ele>
        <time>2026-05-13T09:53:00Z</time>
      </trkpt>
      <trkpt lat="45.93615" lon="5.69968">
        <ele>567.4</ele>
        <time>2026-05-13T09:53:01Z</time>
      </trkpt>
      <trkpt lat="45.93617" lon="5.6997">
        <ele>567.8</ele>
        <time>2026-05-13T09:53:02Z</time>
      </trkpt>
      <trkpt lat="45.93619" lon="5.69972">
        <ele>567.8</ele>
        <time>2026-05-13T09:53:03Z</time>
      </trkpt>
      <trkpt lat="45.93621" lon="5.69975">
        <ele>567.8</ele>
        <time>2026-05-13T09:53:04Z</time>
      </trkpt>
      <trkpt lat="45.93622" lon="5.69978">
        <ele>568</ele>
        <time>2026-05-13T09:53:05Z</time>
      </trkpt>
      <trkpt lat="45.93624" lon="5.6998">
        <ele>568</ele>
        <time>2026-05-13T09:53:06Z</time>
      </trkpt>
      <trkpt lat="45.93626" lon="5.69982">
        <ele>568</ele>
        <time>2026-05-13T09:53:07Z</time>
      </trkpt>
      <trkpt lat="45.93628" lon="5.69984">
        <ele>568.2</ele>
        <time>2026-05-13T09:53:08Z</time>
      </trkpt>
      <trkpt lat="45.9363" lon="5.69987">
        <ele>568.2</ele>
        <time>2026-05-13T09:53:09Z</time>
      </trkpt>
      <trkpt lat="45.93631" lon="5.69989">
        <ele>568.2</ele>
        <time>2026-05-13T09:53:10Z</time>
      </trkpt>
      <trkpt lat="45.93633" lon="5.69991">
        <ele>568.6</ele>
        <time>2026-05-13T09:53:11Z</time>
      </trkpt>
      <trkpt lat="45.93635" lon="5.69994">
        <ele>568.6</ele>
        <time>2026-05-13T09:53:12Z</time>
      </trkpt>
      <trkpt lat="45.93637" lon="5.69996">
        <ele>568.6</ele>
        <time>2026-05-13T09:53:13Z</time>
      </trkpt>
      <trkpt lat="45.93638" lon="5.69998">
        <ele>568.8</ele>
        <time>2026-05-13T09:53:14Z</time>
      </trkpt>
      <trkpt lat="45.93638" lon="5.69998">
        <ele>569</ele>
        <time>2026-05-13T09:53:15Z</time>
      </trkpt>
      <trkpt lat="45.9364" lon="5.7">
        <ele>569.2</ele>
        <time>2026-05-13T09:53:16Z</time>
      </trkpt>
      <trkpt lat="45.93641" lon="5.70003">
        <ele>569.2</ele>
        <time>2026-05-13T09:53:17Z</time>
      </trkpt>
      <trkpt lat="45.93643" lon="5.70005">
        <ele>569.4</ele>
        <time>2026-05-13T09:53:18Z</time>
      </trkpt>
      <trkpt lat="45.93645" lon="5.70007">
        <ele>569.8</ele>
        <time>2026-05-13T09:53:19Z</time>
      </trkpt>
      <trkpt lat="45.93646" lon="5.7001">
        <ele>569.8</ele>
        <time>2026-05-13T09:53:20Z</time>
      </trkpt>
      <trkpt lat="45.93648" lon="5.70013">
        <ele>570</ele>
        <time>2026-05-13T09:53:21Z</time>
      </trkpt>
      <trkpt lat="45.93649" lon="5.70015">
        <ele>570</ele>
        <time>2026-05-13T09:53:22Z</time>
      </trkpt>
      <trkpt lat="45.93651" lon="5.70017">
        <ele>570.2</ele>
        <time>2026-05-13T09:53:23Z</time>
      </trkpt>
      <trkpt lat="45.93652" lon="5.7002">
        <ele>570.2</ele>
        <time>2026-05-13T09:53:24Z</time>
      </trkpt>
      <trkpt lat="45.93653" lon="5.70022">
        <ele>570.6</ele>
        <time>2026-05-13T09:53:25Z</time>
      </trkpt>
      <trkpt lat="45.93655" lon="5.70025">
        <ele>570.8</ele>
        <time>2026-05-13T09:53:26Z</time>
      </trkpt>
      <trkpt lat="45.93656" lon="5.70028">
        <ele>570.8</ele>
        <time>2026-05-13T09:53:27Z</time>
      </trkpt>
      <trkpt lat="45.93657" lon="5.7003">
        <ele>570.8</ele>
        <time>2026-05-13T09:53:28Z</time>
      </trkpt>
      <trkpt lat="45.93659" lon="5.70033">
        <ele>571</ele>
        <time>2026-05-13T09:53:29Z</time>
      </trkpt>
      <trkpt lat="45.9366" lon="5.70036">
        <ele>571</ele>
        <time>2026-05-13T09:53:30Z</time>
      </trkpt>
      <trkpt lat="45.93662" lon="5.70038">
        <ele>571.2</ele>
        <time>2026-05-13T09:53:31Z</time>
      </trkpt>
      <trkpt lat="45.93663" lon="5.70041">
        <ele>571.2</ele>
        <time>2026-05-13T09:53:32Z</time>
      </trkpt>
      <trkpt lat="45.93664" lon="5.70043">
        <ele>571.2</ele>
        <time>2026-05-13T09:53:33Z</time>
      </trkpt>
      <trkpt lat="45.93666" lon="5.70046">
        <ele>571.6</ele>
        <time>2026-05-13T09:53:34Z</time>
      </trkpt>
      <trkpt lat="45.93667" lon="5.70049">
        <ele>571.6</ele>
        <time>2026-05-13T09:53:35Z</time>
      </trkpt>
      <trkpt lat="45.93669" lon="5.70052">
        <ele>571.8</ele>
        <time>2026-05-13T09:53:36Z</time>
      </trkpt>
      <trkpt lat="45.9367" lon="5.70055">
        <ele>571.8</ele>
        <time>2026-05-13T09:53:37Z</time>
      </trkpt>
      <trkpt lat="45.93672" lon="5.70058">
        <ele>571.8</ele>
        <time>2026-05-13T09:53:38Z</time>
      </trkpt>
      <trkpt lat="45.93673" lon="5.70061">
        <ele>572.2</ele>
        <time>2026-05-13T09:53:39Z</time>
      </trkpt>
      <trkpt lat="45.93674" lon="5.70065">
        <ele>572.2</ele>
        <time>2026-05-13T09:53:40Z</time>
      </trkpt>
      <trkpt lat="45.93675" lon="5.70068">
        <ele>572.2</ele>
        <time>2026-05-13T09:53:41Z</time>
      </trkpt>
      <trkpt lat="45.93677" lon="5.70071">
        <ele>572.2</ele>
        <time>2026-05-13T09:53:42Z</time>
      </trkpt>
      <trkpt lat="45.93678" lon="5.70073">
        <ele>572.4</ele>
        <time>2026-05-13T09:53:43Z</time>
      </trkpt>
      <trkpt lat="45.9368" lon="5.70076">
        <ele>572.4</ele>
        <time>2026-05-13T09:53:44Z</time>
      </trkpt>
      <trkpt lat="45.93681" lon="5.70079">
        <ele>572.8</ele>
        <time>2026-05-13T09:53:45Z</time>
      </trkpt>
      <trkpt lat="45.93683" lon="5.70081">
        <ele>572.8</ele>
        <time>2026-05-13T09:53:46Z</time>
      </trkpt>
      <trkpt lat="45.93684" lon="5.70084">
        <ele>573.2</ele>
        <time>2026-05-13T09:53:47Z</time>
      </trkpt>
      <trkpt lat="45.93685" lon="5.70086">
        <ele>573.2</ele>
        <time>2026-05-13T09:53:48Z</time>
      </trkpt>
      <trkpt lat="45.93687" lon="5.70088">
        <ele>573.2</ele>
        <time>2026-05-13T09:53:49Z</time>
      </trkpt>
      <trkpt lat="45.93689" lon="5.70091">
        <ele>573.2</ele>
        <time>2026-05-13T09:53:50Z</time>
      </trkpt>
      <trkpt lat="45.93691" lon="5.70094">
        <ele>573.6</ele>
        <time>2026-05-13T09:53:51Z</time>
      </trkpt>
      <trkpt lat="45.93692" lon="5.70096">
        <ele>573.8</ele>
        <time>2026-05-13T09:53:52Z</time>
      </trkpt>
      <trkpt lat="45.93694" lon="5.70099">
        <ele>573.8</ele>
        <time>2026-05-13T09:53:53Z</time>
      </trkpt>
      <trkpt lat="45.93696" lon="5.70101">
        <ele>574.2</ele>
        <time>2026-05-13T09:53:54Z</time>
      </trkpt>
      <trkpt lat="45.93698" lon="5.70104">
        <ele>574.2</ele>
        <time>2026-05-13T09:53:55Z</time>
      </trkpt>
      <trkpt lat="45.93699" lon="5.70107">
        <ele>574.2</ele>
        <time>2026-05-13T09:53:56Z</time>
      </trkpt>
      <trkpt lat="45.93701" lon="5.7011">
        <ele>574.2</ele>
        <time>2026-05-13T09:53:57Z</time>
      </trkpt>
      <trkpt lat="45.93702" lon="5.70113">
        <ele>574.2</ele>
        <time>2026-05-13T09:53:58Z</time>
      </trkpt>
      <trkpt lat="45.93704" lon="5.70116">
        <ele>574.8</ele>
        <time>2026-05-13T09:53:59Z</time>
      </trkpt>
      <trkpt lat="45.93705" lon="5.70118">
        <ele>575</ele>
        <time>2026-05-13T09:54:00Z</time>
      </trkpt>
      <trkpt lat="45.93707" lon="5.7012">
        <ele>575</ele>
        <time>2026-05-13T09:54:01Z</time>
      </trkpt>
      <trkpt lat="45.93708" lon="5.70123">
        <ele>575.2</ele>
        <time>2026-05-13T09:54:02Z</time>
      </trkpt>
      <trkpt lat="45.9371" lon="5.70126">
        <ele>575.2</ele>
        <time>2026-05-13T09:54:03Z</time>
      </trkpt>
      <trkpt lat="45.93711" lon="5.70128">
        <ele>575.4</ele>
        <time>2026-05-13T09:54:04Z</time>
      </trkpt>
      <trkpt lat="45.93712" lon="5.7013">
        <ele>575.4</ele>
        <time>2026-05-13T09:54:05Z</time>
      </trkpt>
      <trkpt lat="45.93714" lon="5.70133">
        <ele>575.8</ele>
        <time>2026-05-13T09:54:06Z</time>
      </trkpt>
      <trkpt lat="45.93715" lon="5.70135">
        <ele>575.8</ele>
        <time>2026-05-13T09:54:07Z</time>
      </trkpt>
      <trkpt lat="45.93717" lon="5.70138">
        <ele>576</ele>
        <time>2026-05-13T09:54:08Z</time>
      </trkpt>
      <trkpt lat="45.93718" lon="5.7014">
        <ele>576</ele>
        <time>2026-05-13T09:54:09Z</time>
      </trkpt>
      <trkpt lat="45.9372" lon="5.70143">
        <ele>576</ele>
        <time>2026-05-13T09:54:10Z</time>
      </trkpt>
      <trkpt lat="45.93721" lon="5.70145">
        <ele>576.6</ele>
        <time>2026-05-13T09:54:11Z</time>
      </trkpt>
      <trkpt lat="45.93722" lon="5.70149">
        <ele>576.6</ele>
        <time>2026-05-13T09:54:12Z</time>
      </trkpt>
      <trkpt lat="45.93723" lon="5.70151">
        <ele>577</ele>
        <time>2026-05-13T09:54:13Z</time>
      </trkpt>
      <trkpt lat="45.93723" lon="5.70154">
        <ele>577</ele>
        <time>2026-05-13T09:54:14Z</time>
      </trkpt>
      <trkpt lat="45.93725" lon="5.70157">
        <ele>577.2</ele>
        <time>2026-05-13T09:54:15Z</time>
      </trkpt>
      <trkpt lat="45.93726" lon="5.7016">
        <ele>577.2</ele>
        <time>2026-05-13T09:54:16Z</time>
      </trkpt>
      <trkpt lat="45.93727" lon="5.70162">
        <ele>577.6</ele>
        <time>2026-05-13T09:54:17Z</time>
      </trkpt>
      <trkpt lat="45.93728" lon="5.70164">
        <ele>577.6</ele>
        <time>2026-05-13T09:54:18Z</time>
      </trkpt>
      <trkpt lat="45.93729" lon="5.70166">
        <ele>578</ele>
        <time>2026-05-13T09:54:19Z</time>
      </trkpt>
      <trkpt lat="45.93731" lon="5.70169">
        <ele>578</ele>
        <time>2026-05-13T09:54:20Z</time>
      </trkpt>
      <trkpt lat="45.93732" lon="5.70171">
        <ele>578</ele>
        <time>2026-05-13T09:54:21Z</time>
      </trkpt>
      <trkpt lat="45.93734" lon="5.70174">
        <ele>578.4</ele>
        <time>2026-05-13T09:54:22Z</time>
      </trkpt>
      <trkpt lat="45.93735" lon="5.70176">
        <ele>578.4</ele>
        <time>2026-05-13T09:54:23Z</time>
      </trkpt>
      <trkpt lat="45.93736" lon="5.70179">
        <ele>578.8</ele>
        <time>2026-05-13T09:54:24Z</time>
      </trkpt>
      <trkpt lat="45.93737" lon="5.70181">
        <ele>578.8</ele>
        <time>2026-05-13T09:54:25Z</time>
      </trkpt>
      <trkpt lat="45.93738" lon="5.70183">
        <ele>578.8</ele>
        <time>2026-05-13T09:54:26Z</time>
      </trkpt>
      <trkpt lat="45.9374" lon="5.70186">
        <ele>579.2</ele>
        <time>2026-05-13T09:54:27Z</time>
      </trkpt>
      <trkpt lat="45.93741" lon="5.70189">
        <ele>579.2</ele>
        <time>2026-05-13T09:54:28Z</time>
      </trkpt>
      <trkpt lat="45.93744" lon="5.70195">
        <ele>579.4</ele>
        <time>2026-05-13T09:54:29Z</time>
      </trkpt>
      <trkpt lat="45.93746" lon="5.70198">
        <ele>579.4</ele>
        <time>2026-05-13T09:54:30Z</time>
      </trkpt>
      <trkpt lat="45.93747" lon="5.70201">
        <ele>579.8</ele>
        <time>2026-05-13T09:54:31Z</time>
      </trkpt>
      <trkpt lat="45.93748" lon="5.70204">
        <ele>580</ele>
        <time>2026-05-13T09:54:32Z</time>
      </trkpt>
      <trkpt lat="45.9375" lon="5.70206">
        <ele>580.2</ele>
        <time>2026-05-13T09:54:33Z</time>
      </trkpt>
      <trkpt lat="45.93751" lon="5.70209">
        <ele>580.2</ele>
        <time>2026-05-13T09:54:34Z</time>
      </trkpt>
      <trkpt lat="45.93753" lon="5.70212">
        <ele>580.4</ele>
        <time>2026-05-13T09:54:35Z</time>
      </trkpt>
      <trkpt lat="45.93754" lon="5.70214">
        <ele>580.4</ele>
        <time>2026-05-13T09:54:36Z</time>
      </trkpt>
      <trkpt lat="45.93756" lon="5.70217">
        <ele>580.8</ele>
        <time>2026-05-13T09:54:37Z</time>
      </trkpt>
      <trkpt lat="45.93757" lon="5.70219">
        <ele>581</ele>
        <time>2026-05-13T09:54:38Z</time>
      </trkpt>
      <trkpt lat="45.93758" lon="5.70221">
        <ele>581</ele>
        <time>2026-05-13T09:54:39Z</time>
      </trkpt>
      <trkpt lat="45.9376" lon="5.70224">
        <ele>581.4</ele>
        <time>2026-05-13T09:54:40Z</time>
      </trkpt>
      <trkpt lat="45.93761" lon="5.70227">
        <ele>581.4</ele>
        <time>2026-05-13T09:54:41Z</time>
      </trkpt>
      <trkpt lat="45.93762" lon="5.7023">
        <ele>581.6</ele>
        <time>2026-05-13T09:54:42Z</time>
      </trkpt>
      <trkpt lat="45.93763" lon="5.70232">
        <ele>581.6</ele>
        <time>2026-05-13T09:54:43Z</time>
      </trkpt>
      <trkpt lat="45.93764" lon="5.70235">
        <ele>581.6</ele>
        <time>2026-05-13T09:54:44Z</time>
      </trkpt>
      <trkpt lat="45.93766" lon="5.70237">
        <ele>581.8</ele>
        <time>2026-05-13T09:54:45Z</time>
      </trkpt>
      <trkpt lat="45.93767" lon="5.7024">
        <ele>582.2</ele>
        <time>2026-05-13T09:54:46Z</time>
      </trkpt>
      <trkpt lat="45.93768" lon="5.70243">
        <ele>582.2</ele>
        <time>2026-05-13T09:54:47Z</time>
      </trkpt>
      <trkpt lat="45.93769" lon="5.70246">
        <ele>582.4</ele>
        <time>2026-05-13T09:54:48Z</time>
      </trkpt>
      <trkpt lat="45.9377" lon="5.70248">
        <ele>582.6</ele>
        <time>2026-05-13T09:54:49Z</time>
      </trkpt>
      <trkpt lat="45.93771" lon="5.70251">
        <ele>582.6</ele>
        <time>2026-05-13T09:54:50Z</time>
      </trkpt>
      <trkpt lat="45.93773" lon="5.70254">
        <ele>583</ele>
        <time>2026-05-13T09:54:51Z</time>
      </trkpt>
      <trkpt lat="45.93774" lon="5.70257">
        <ele>583</ele>
        <time>2026-05-13T09:54:52Z</time>
      </trkpt>
      <trkpt lat="45.93775" lon="5.70259">
        <ele>583</ele>
        <time>2026-05-13T09:54:53Z</time>
      </trkpt>
      <trkpt lat="45.93776" lon="5.70262">
        <ele>583</ele>
        <time>2026-05-13T09:54:54Z</time>
      </trkpt>
      <trkpt lat="45.93777" lon="5.70265">
        <ele>583.2</ele>
        <time>2026-05-13T09:54:55Z</time>
      </trkpt>
      <trkpt lat="45.93779" lon="5.70268">
        <ele>583.4</ele>
        <time>2026-05-13T09:54:56Z</time>
      </trkpt>
      <trkpt lat="45.9378" lon="5.70271">
        <ele>583.4</ele>
        <time>2026-05-13T09:54:57Z</time>
      </trkpt>
      <trkpt lat="45.93781" lon="5.70273">
        <ele>583.8</ele>
        <time>2026-05-13T09:54:58Z</time>
      </trkpt>
      <trkpt lat="45.93782" lon="5.70276">
        <ele>583.8</ele>
        <time>2026-05-13T09:54:59Z</time>
      </trkpt>
      <trkpt lat="45.93783" lon="5.70278">
        <ele>584</ele>
        <time>2026-05-13T09:55:00Z</time>
      </trkpt>
      <trkpt lat="45.93784" lon="5.70281">
        <ele>584</ele>
        <time>2026-05-13T09:55:01Z</time>
      </trkpt>
      <trkpt lat="45.93784" lon="5.70281">
        <ele>584</ele>
        <time>2026-05-13T09:55:02Z</time>
      </trkpt>
      <trkpt lat="45.93784" lon="5.70281">
        <ele>584.2</ele>
        <time>2026-05-13T09:55:03Z</time>
      </trkpt>
      <trkpt lat="45.93787" lon="5.7029">
        <ele>584.6</ele>
        <time>2026-05-13T09:55:04Z</time>
      </trkpt>
      <trkpt lat="45.93788" lon="5.70293">
        <ele>584.6</ele>
        <time>2026-05-13T09:55:05Z</time>
      </trkpt>
      <trkpt lat="45.93789" lon="5.70296">
        <ele>584.8</ele>
        <time>2026-05-13T09:55:06Z</time>
      </trkpt>
      <trkpt lat="45.9379" lon="5.70299">
        <ele>584.8</ele>
        <time>2026-05-13T09:55:07Z</time>
      </trkpt>
      <trkpt lat="45.93791" lon="5.70302">
        <ele>585.2</ele>
        <time>2026-05-13T09:55:08Z</time>
      </trkpt>
      <trkpt lat="45.93792" lon="5.70305">
        <ele>585.4</ele>
        <time>2026-05-13T09:55:09Z</time>
      </trkpt>
      <trkpt lat="45.93793" lon="5.70308">
        <ele>585.6</ele>
        <time>2026-05-13T09:55:10Z</time>
      </trkpt>
      <trkpt lat="45.93793" lon="5.70311">
        <ele>585.6</ele>
        <time>2026-05-13T09:55:11Z</time>
      </trkpt>
      <trkpt lat="45.93794" lon="5.70314">
        <ele>585.8</ele>
        <time>2026-05-13T09:55:12Z</time>
      </trkpt>
      <trkpt lat="45.93795" lon="5.70317">
        <ele>585.8</ele>
        <time>2026-05-13T09:55:13Z</time>
      </trkpt>
      <trkpt lat="45.93796" lon="5.7032">
        <ele>586.2</ele>
        <time>2026-05-13T09:55:14Z</time>
      </trkpt>
      <trkpt lat="45.93797" lon="5.70322">
        <ele>586.4</ele>
        <time>2026-05-13T09:55:15Z</time>
      </trkpt>
      <trkpt lat="45.93797" lon="5.70325">
        <ele>586.4</ele>
        <time>2026-05-13T09:55:16Z</time>
      </trkpt>
      <trkpt lat="45.93798" lon="5.70328">
        <ele>586.6</ele>
        <time>2026-05-13T09:55:17Z</time>
      </trkpt>
      <trkpt lat="45.93799" lon="5.70331">
        <ele>586.6</ele>
        <time>2026-05-13T09:55:18Z</time>
      </trkpt>
      <trkpt lat="45.938" lon="5.70334">
        <ele>586.8</ele>
        <time>2026-05-13T09:55:19Z</time>
      </trkpt>
      <trkpt lat="45.938" lon="5.70337">
        <ele>586.8</ele>
        <time>2026-05-13T09:55:20Z</time>
      </trkpt>
      <trkpt lat="45.938" lon="5.7034">
        <ele>587.2</ele>
        <time>2026-05-13T09:55:21Z</time>
      </trkpt>
      <trkpt lat="45.93801" lon="5.70343">
        <ele>587.2</ele>
        <time>2026-05-13T09:55:22Z</time>
      </trkpt>
      <trkpt lat="45.93801" lon="5.70346">
        <ele>587.4</ele>
        <time>2026-05-13T09:55:23Z</time>
      </trkpt>
      <trkpt lat="45.93801" lon="5.70348">
        <ele>587.4</ele>
        <time>2026-05-13T09:55:24Z</time>
      </trkpt>
      <trkpt lat="45.93802" lon="5.70351">
        <ele>587.8</ele>
        <time>2026-05-13T09:55:25Z</time>
      </trkpt>
      <trkpt lat="45.93802" lon="5.70354">
        <ele>587.8</ele>
        <time>2026-05-13T09:55:26Z</time>
      </trkpt>
      <trkpt lat="45.93803" lon="5.70357">
        <ele>588</ele>
        <time>2026-05-13T09:55:27Z</time>
      </trkpt>
      <trkpt lat="45.93803" lon="5.7036">
        <ele>588</ele>
        <time>2026-05-13T09:55:28Z</time>
      </trkpt>
      <trkpt lat="45.93803" lon="5.70363">
        <ele>588.2</ele>
        <time>2026-05-13T09:55:29Z</time>
      </trkpt>
      <trkpt lat="45.93803" lon="5.70365">
        <ele>588.6</ele>
        <time>2026-05-13T09:55:30Z</time>
      </trkpt>
      <trkpt lat="45.93802" lon="5.70368">
        <ele>588.8</ele>
        <time>2026-05-13T09:55:31Z</time>
      </trkpt>
      <trkpt lat="45.93802" lon="5.70371">
        <ele>588.8</ele>
        <time>2026-05-13T09:55:32Z</time>
      </trkpt>
      <trkpt lat="45.93802" lon="5.70373">
        <ele>589.2</ele>
        <time>2026-05-13T09:55:33Z</time>
      </trkpt>
      <trkpt lat="45.93802" lon="5.70375">
        <ele>589.2</ele>
        <time>2026-05-13T09:55:34Z</time>
      </trkpt>
      <trkpt lat="45.93801" lon="5.70378">
        <ele>589.2</ele>
        <time>2026-05-13T09:55:35Z</time>
      </trkpt>
      <trkpt lat="45.93801" lon="5.70381">
        <ele>589.4</ele>
        <time>2026-05-13T09:55:36Z</time>
      </trkpt>
      <trkpt lat="45.938" lon="5.70383">
        <ele>589.4</ele>
        <time>2026-05-13T09:55:37Z</time>
      </trkpt>
      <trkpt lat="45.93799" lon="5.70386">
        <ele>589.4</ele>
        <time>2026-05-13T09:55:38Z</time>
      </trkpt>
      <trkpt lat="45.93797" lon="5.70388">
        <ele>589.8</ele>
        <time>2026-05-13T09:55:39Z</time>
      </trkpt>
      <trkpt lat="45.93796" lon="5.7039">
        <ele>589.8</ele>
        <time>2026-05-13T09:55:40Z</time>
      </trkpt>
      <trkpt lat="45.93794" lon="5.70392">
        <ele>590</ele>
        <time>2026-05-13T09:55:41Z</time>
      </trkpt>
      <trkpt lat="45.93792" lon="5.70393">
        <ele>590.4</ele>
        <time>2026-05-13T09:55:42Z</time>
      </trkpt>
      <trkpt lat="45.93791" lon="5.70395">
        <ele>590.4</ele>
        <time>2026-05-13T09:55:43Z</time>
      </trkpt>
      <trkpt lat="45.93789" lon="5.70397">
        <ele>590.4</ele>
        <time>2026-05-13T09:55:44Z</time>
      </trkpt>
      <trkpt lat="45.93787" lon="5.70399">
        <ele>590.6</ele>
        <time>2026-05-13T09:55:45Z</time>
      </trkpt>
      <trkpt lat="45.93785" lon="5.704">
        <ele>590.6</ele>
        <time>2026-05-13T09:55:46Z</time>
      </trkpt>
      <trkpt lat="45.93783" lon="5.70401">
        <ele>590.6</ele>
        <time>2026-05-13T09:55:47Z</time>
      </trkpt>
      <trkpt lat="45.93781" lon="5.70402">
        <ele>590.6</ele>
        <time>2026-05-13T09:55:48Z</time>
      </trkpt>
      <trkpt lat="45.9378" lon="5.70403">
        <ele>590.8</ele>
        <time>2026-05-13T09:55:49Z</time>
      </trkpt>
      <trkpt lat="45.93777" lon="5.70404">
        <ele>590.8</ele>
        <time>2026-05-13T09:55:50Z</time>
      </trkpt>
      <trkpt lat="45.93775" lon="5.70405">
        <ele>590.8</ele>
        <time>2026-05-13T09:55:51Z</time>
      </trkpt>
      <trkpt lat="45.93773" lon="5.70406">
        <ele>591.4</ele>
        <time>2026-05-13T09:55:52Z</time>
      </trkpt>
      <trkpt lat="45.93771" lon="5.70407">
        <ele>591.4</ele>
        <time>2026-05-13T09:55:53Z</time>
      </trkpt>
      <trkpt lat="45.93768" lon="5.70408">
        <ele>591.4</ele>
        <time>2026-05-13T09:55:54Z</time>
      </trkpt>
      <trkpt lat="45.93766" lon="5.70408">
        <ele>591.4</ele>
        <time>2026-05-13T09:55:55Z</time>
      </trkpt>
      <trkpt lat="45.93763" lon="5.70408">
        <ele>591.8</ele>
        <time>2026-05-13T09:55:56Z</time>
      </trkpt>
      <trkpt lat="45.93761" lon="5.70408">
        <ele>591.8</ele>
        <time>2026-05-13T09:55:57Z</time>
      </trkpt>
      <trkpt lat="45.93758" lon="5.70408">
        <ele>592</ele>
        <time>2026-05-13T09:55:58Z</time>
      </trkpt>
      <trkpt lat="45.93756" lon="5.70409">
        <ele>592</ele>
        <time>2026-05-13T09:55:59Z</time>
      </trkpt>
      <trkpt lat="45.93753" lon="5.7041">
        <ele>592.2</ele>
        <time>2026-05-13T09:56:00Z</time>
      </trkpt>
      <trkpt lat="45.93751" lon="5.70411">
        <ele>592.2</ele>
        <time>2026-05-13T09:56:01Z</time>
      </trkpt>
      <trkpt lat="45.93748" lon="5.70411">
        <ele>592.2</ele>
        <time>2026-05-13T09:56:02Z</time>
      </trkpt>
      <trkpt lat="45.93746" lon="5.70411">
        <ele>592.6</ele>
        <time>2026-05-13T09:56:03Z</time>
      </trkpt>
      <trkpt lat="45.93744" lon="5.70412">
        <ele>592.6</ele>
        <time>2026-05-13T09:56:04Z</time>
      </trkpt>
      <trkpt lat="45.93741" lon="5.70413">
        <ele>592.8</ele>
        <time>2026-05-13T09:56:05Z</time>
      </trkpt>
      <trkpt lat="45.93739" lon="5.70414">
        <ele>592.8</ele>
        <time>2026-05-13T09:56:06Z</time>
      </trkpt>
      <trkpt lat="45.93737" lon="5.70416">
        <ele>593.2</ele>
        <time>2026-05-13T09:56:07Z</time>
      </trkpt>
      <trkpt lat="45.93735" lon="5.70418">
        <ele>593.2</ele>
        <time>2026-05-13T09:56:08Z</time>
      </trkpt>
      <trkpt lat="45.93732" lon="5.70419">
        <ele>593.4</ele>
        <time>2026-05-13T09:56:09Z</time>
      </trkpt>
      <trkpt lat="45.9373" lon="5.70421">
        <ele>593.4</ele>
        <time>2026-05-13T09:56:10Z</time>
      </trkpt>
      <trkpt lat="45.93728" lon="5.70423">
        <ele>593.4</ele>
        <time>2026-05-13T09:56:11Z</time>
      </trkpt>
      <trkpt lat="45.93726" lon="5.70425">
        <ele>593.8</ele>
        <time>2026-05-13T09:56:12Z</time>
      </trkpt>
      <trkpt lat="45.93724" lon="5.70427">
        <ele>593.8</ele>
        <time>2026-05-13T09:56:13Z</time>
      </trkpt>
      <trkpt lat="45.93722" lon="5.70429">
        <ele>594</ele>
        <time>2026-05-13T09:56:14Z</time>
      </trkpt>
      <trkpt lat="45.9372" lon="5.70432">
        <ele>594</ele>
        <time>2026-05-13T09:56:15Z</time>
      </trkpt>
      <trkpt lat="45.93718" lon="5.70434">
        <ele>594</ele>
        <time>2026-05-13T09:56:16Z</time>
      </trkpt>
      <trkpt lat="45.93716" lon="5.70436">
        <ele>594.4</ele>
        <time>2026-05-13T09:56:17Z</time>
      </trkpt>
      <trkpt lat="45.93714" lon="5.70438">
        <ele>594.4</ele>
        <time>2026-05-13T09:56:18Z</time>
      </trkpt>
      <trkpt lat="45.93712" lon="5.70441">
        <ele>594.8</ele>
        <time>2026-05-13T09:56:19Z</time>
      </trkpt>
      <trkpt lat="45.9371" lon="5.70444">
        <ele>594.8</ele>
        <time>2026-05-13T09:56:20Z</time>
      </trkpt>
      <trkpt lat="45.93709" lon="5.70446">
        <ele>595</ele>
        <time>2026-05-13T09:56:21Z</time>
      </trkpt>
      <trkpt lat="45.93707" lon="5.70448">
        <ele>595.2</ele>
        <time>2026-05-13T09:56:22Z</time>
      </trkpt>
      <trkpt lat="45.93705" lon="5.70451">
        <ele>595.2</ele>
        <time>2026-05-13T09:56:23Z</time>
      </trkpt>
      <trkpt lat="45.93703" lon="5.70453">
        <ele>595.8</ele>
        <time>2026-05-13T09:56:24Z</time>
      </trkpt>
      <trkpt lat="45.93701" lon="5.70456">
        <ele>595.8</ele>
        <time>2026-05-13T09:56:25Z</time>
      </trkpt>
      <trkpt lat="45.937" lon="5.70458">
        <ele>595.8</ele>
        <time>2026-05-13T09:56:26Z</time>
      </trkpt>
      <trkpt lat="45.937" lon="5.70458">
        <ele>596.2</ele>
        <time>2026-05-13T09:56:27Z</time>
      </trkpt>
      <trkpt lat="45.93698" lon="5.70461">
        <ele>596.6</ele>
        <time>2026-05-13T09:56:28Z</time>
      </trkpt>
      <trkpt lat="45.93697" lon="5.70464">
        <ele>596.6</ele>
        <time>2026-05-13T09:56:29Z</time>
      </trkpt>
      <trkpt lat="45.93695" lon="5.70466">
        <ele>597</ele>
        <time>2026-05-13T09:56:30Z</time>
      </trkpt>
      <trkpt lat="45.93694" lon="5.70469">
        <ele>597</ele>
        <time>2026-05-13T09:56:31Z</time>
      </trkpt>
      <trkpt lat="45.93693" lon="5.70471">
        <ele>597.2</ele>
        <time>2026-05-13T09:56:32Z</time>
      </trkpt>
      <trkpt lat="45.93692" lon="5.70474">
        <ele>597.2</ele>
        <time>2026-05-13T09:56:33Z</time>
      </trkpt>
      <trkpt lat="45.93691" lon="5.70477">
        <ele>597.6</ele>
        <time>2026-05-13T09:56:34Z</time>
      </trkpt>
      <trkpt lat="45.93691" lon="5.70481">
        <ele>597.6</ele>
        <time>2026-05-13T09:56:35Z</time>
      </trkpt>
      <trkpt lat="45.9369" lon="5.70484">
        <ele>598.2</ele>
        <time>2026-05-13T09:56:36Z</time>
      </trkpt>
      <trkpt lat="45.93689" lon="5.70487">
        <ele>598.2</ele>
        <time>2026-05-13T09:56:37Z</time>
      </trkpt>
      <trkpt lat="45.93688" lon="5.70489">
        <ele>598.4</ele>
        <time>2026-05-13T09:56:38Z</time>
      </trkpt>
      <trkpt lat="45.93687" lon="5.70492">
        <ele>598.4</ele>
        <time>2026-05-13T09:56:39Z</time>
      </trkpt>
      <trkpt lat="45.93686" lon="5.70495">
        <ele>598.8</ele>
        <time>2026-05-13T09:56:40Z</time>
      </trkpt>
      <trkpt lat="45.93685" lon="5.70498">
        <ele>598.8</ele>
        <time>2026-05-13T09:56:41Z</time>
      </trkpt>
      <trkpt lat="45.93684" lon="5.70501">
        <ele>599.2</ele>
        <time>2026-05-13T09:56:42Z</time>
      </trkpt>
      <trkpt lat="45.93683" lon="5.70503">
        <ele>599.2</ele>
        <time>2026-05-13T09:56:43Z</time>
      </trkpt>
      <trkpt lat="45.93682" lon="5.70506">
        <ele>599.6</ele>
        <time>2026-05-13T09:56:44Z</time>
      </trkpt>
      <trkpt lat="45.93681" lon="5.70509">
        <ele>599.6</ele>
        <time>2026-05-13T09:56:45Z</time>
      </trkpt>
      <trkpt lat="45.9368" lon="5.70511">
        <ele>599.8</ele>
        <time>2026-05-13T09:56:46Z</time>
      </trkpt>
      <trkpt lat="45.93679" lon="5.70514">
        <ele>599.8</ele>
        <time>2026-05-13T09:56:47Z</time>
      </trkpt>
      <trkpt lat="45.93678" lon="5.70517">
        <ele>600.2</ele>
        <time>2026-05-13T09:56:48Z</time>
      </trkpt>
      <trkpt lat="45.93677" lon="5.7052">
        <ele>600.4</ele>
        <time>2026-05-13T09:56:49Z</time>
      </trkpt>
      <trkpt lat="45.93676" lon="5.70522">
        <ele>600.6</ele>
        <time>2026-05-13T09:56:50Z</time>
      </trkpt>
      <trkpt lat="45.93675" lon="5.70525">
        <ele>600.6</ele>
        <time>2026-05-13T09:56:51Z</time>
      </trkpt>
      <trkpt lat="45.93674" lon="5.70527">
        <ele>601</ele>
        <time>2026-05-13T09:56:52Z</time>
      </trkpt>
      <trkpt lat="45.93673" lon="5.7053">
        <ele>601</ele>
        <time>2026-05-13T09:56:53Z</time>
      </trkpt>
      <trkpt lat="45.93672" lon="5.70533">
        <ele>601</ele>
        <time>2026-05-13T09:56:54Z</time>
      </trkpt>
      <trkpt lat="45.93671" lon="5.70535">
        <ele>601.2</ele>
        <time>2026-05-13T09:56:55Z</time>
      </trkpt>
      <trkpt lat="45.9367" lon="5.70538">
        <ele>601.2</ele>
        <time>2026-05-13T09:56:56Z</time>
      </trkpt>
      <trkpt lat="45.93669" lon="5.7054">
        <ele>601.6</ele>
        <time>2026-05-13T09:56:57Z</time>
      </trkpt>
      <trkpt lat="45.93669" lon="5.70543">
        <ele>601.6</ele>
        <time>2026-05-13T09:56:58Z</time>
      </trkpt>
      <trkpt lat="45.93668" lon="5.70545">
        <ele>601.6</ele>
        <time>2026-05-13T09:56:59Z</time>
      </trkpt>
      <trkpt lat="45.93667" lon="5.70548">
        <ele>602</ele>
        <time>2026-05-13T09:57:00Z</time>
      </trkpt>
      <trkpt lat="45.93666" lon="5.70551">
        <ele>602</ele>
        <time>2026-05-13T09:57:01Z</time>
      </trkpt>
      <trkpt lat="45.93665" lon="5.70553">
        <ele>602</ele>
        <time>2026-05-13T09:57:02Z</time>
      </trkpt>
      <trkpt lat="45.93664" lon="5.70556">
        <ele>602.2</ele>
        <time>2026-05-13T09:57:03Z</time>
      </trkpt>
      <trkpt lat="45.93663" lon="5.70559">
        <ele>602.2</ele>
        <time>2026-05-13T09:57:04Z</time>
      </trkpt>
      <trkpt lat="45.93663" lon="5.70561">
        <ele>602.6</ele>
        <time>2026-05-13T09:57:05Z</time>
      </trkpt>
      <trkpt lat="45.93662" lon="5.70564">
        <ele>602.8</ele>
        <time>2026-05-13T09:57:06Z</time>
      </trkpt>
      <trkpt lat="45.93661" lon="5.70566">
        <ele>602.8</ele>
        <time>2026-05-13T09:57:07Z</time>
      </trkpt>
      <trkpt lat="45.9366" lon="5.70569">
        <ele>602.8</ele>
        <time>2026-05-13T09:57:08Z</time>
      </trkpt>
      <trkpt lat="45.93659" lon="5.70572">
        <ele>603.2</ele>
        <time>2026-05-13T09:57:09Z</time>
      </trkpt>
      <trkpt lat="45.93658" lon="5.70574">
        <ele>603.4</ele>
        <time>2026-05-13T09:57:10Z</time>
      </trkpt>
      <trkpt lat="45.93657" lon="5.70577">
        <ele>603.6</ele>
        <time>2026-05-13T09:57:11Z</time>
      </trkpt>
      <trkpt lat="45.93656" lon="5.70579">
        <ele>604</ele>
        <time>2026-05-13T09:57:12Z</time>
      </trkpt>
      <trkpt lat="45.93656" lon="5.70582">
        <ele>604</ele>
        <time>2026-05-13T09:57:13Z</time>
      </trkpt>
      <trkpt lat="45.93655" lon="5.70585">
        <ele>604.2</ele>
        <time>2026-05-13T09:57:14Z</time>
      </trkpt>
      <trkpt lat="45.93654" lon="5.70587">
        <ele>604.2</ele>
        <time>2026-05-13T09:57:15Z</time>
      </trkpt>
      <trkpt lat="45.93653" lon="5.7059">
        <ele>604.6</ele>
        <time>2026-05-13T09:57:16Z</time>
      </trkpt>
      <trkpt lat="45.93653" lon="5.70593">
        <ele>604.6</ele>
        <time>2026-05-13T09:57:17Z</time>
      </trkpt>
      <trkpt lat="45.93651" lon="5.70595">
        <ele>604.8</ele>
        <time>2026-05-13T09:57:18Z</time>
      </trkpt>
      <trkpt lat="45.9365" lon="5.70597">
        <ele>604.8</ele>
        <time>2026-05-13T09:57:19Z</time>
      </trkpt>
      <trkpt lat="45.93649" lon="5.706">
        <ele>605.2</ele>
        <time>2026-05-13T09:57:20Z</time>
      </trkpt>
      <trkpt lat="45.93648" lon="5.70602">
        <ele>605.2</ele>
        <time>2026-05-13T09:57:21Z</time>
      </trkpt>
      <trkpt lat="45.93647" lon="5.70605">
        <ele>605.2</ele>
        <time>2026-05-13T09:57:22Z</time>
      </trkpt>
      <trkpt lat="45.93646" lon="5.70607">
        <ele>605.4</ele>
        <time>2026-05-13T09:57:23Z</time>
      </trkpt>
      <trkpt lat="45.93645" lon="5.7061">
        <ele>605.4</ele>
        <time>2026-05-13T09:57:24Z</time>
      </trkpt>
      <trkpt lat="45.93644" lon="5.70612">
        <ele>605.6</ele>
        <time>2026-05-13T09:57:25Z</time>
      </trkpt>
      <trkpt lat="45.93643" lon="5.70615">
        <ele>605.6</ele>
        <time>2026-05-13T09:57:26Z</time>
      </trkpt>
      <trkpt lat="45.93642" lon="5.70617">
        <ele>605.8</ele>
        <time>2026-05-13T09:57:27Z</time>
      </trkpt>
      <trkpt lat="45.93641" lon="5.7062">
        <ele>605.8</ele>
        <time>2026-05-13T09:57:28Z</time>
      </trkpt>
      <trkpt lat="45.9364" lon="5.70622">
        <ele>605.8</ele>
        <time>2026-05-13T09:57:29Z</time>
      </trkpt>
      <trkpt lat="45.9364" lon="5.70625">
        <ele>606.2</ele>
        <time>2026-05-13T09:57:30Z</time>
      </trkpt>
      <trkpt lat="45.93638" lon="5.70628">
        <ele>606.2</ele>
        <time>2026-05-13T09:57:31Z</time>
      </trkpt>
      <trkpt lat="45.93637" lon="5.7063">
        <ele>606.6</ele>
        <time>2026-05-13T09:57:32Z</time>
      </trkpt>
      <trkpt lat="45.93636" lon="5.70632">
        <ele>606.6</ele>
        <time>2026-05-13T09:57:33Z</time>
      </trkpt>
      <trkpt lat="45.93634" lon="5.70634">
        <ele>606.8</ele>
        <time>2026-05-13T09:57:34Z</time>
      </trkpt>
      <trkpt lat="45.93633" lon="5.70637">
        <ele>606.8</ele>
        <time>2026-05-13T09:57:35Z</time>
      </trkpt>
      <trkpt lat="45.93632" lon="5.70639">
        <ele>606.8</ele>
        <time>2026-05-13T09:57:36Z</time>
      </trkpt>
      <trkpt lat="45.93631" lon="5.70642">
        <ele>607</ele>
        <time>2026-05-13T09:57:37Z</time>
      </trkpt>
      <trkpt lat="45.9363" lon="5.70644">
        <ele>607</ele>
        <time>2026-05-13T09:57:38Z</time>
      </trkpt>
      <trkpt lat="45.93628" lon="5.70647">
        <ele>607.4</ele>
        <time>2026-05-13T09:57:39Z</time>
      </trkpt>
      <trkpt lat="45.93627" lon="5.70649">
        <ele>607.6</ele>
        <time>2026-05-13T09:57:40Z</time>
      </trkpt>
      <trkpt lat="45.93626" lon="5.70651">
        <ele>607.6</ele>
        <time>2026-05-13T09:57:41Z</time>
      </trkpt>
      <trkpt lat="45.93623" lon="5.70657">
        <ele>607.6</ele>
        <time>2026-05-13T09:57:42Z</time>
      </trkpt>
      <trkpt lat="45.93621" lon="5.70659">
        <ele>607.6</ele>
        <time>2026-05-13T09:57:43Z</time>
      </trkpt>
      <trkpt lat="45.9362" lon="5.70662">
        <ele>607.6</ele>
        <time>2026-05-13T09:57:44Z</time>
      </trkpt>
      <trkpt lat="45.93618" lon="5.70665">
        <ele>607.6</ele>
        <time>2026-05-13T09:57:45Z</time>
      </trkpt>
      <trkpt lat="45.93617" lon="5.70668">
        <ele>607.8</ele>
        <time>2026-05-13T09:57:46Z</time>
      </trkpt>
      <trkpt lat="45.93616" lon="5.70671">
        <ele>607.8</ele>
        <time>2026-05-13T09:57:47Z</time>
      </trkpt>
      <trkpt lat="45.93615" lon="5.70674">
        <ele>608.2</ele>
        <time>2026-05-13T09:57:48Z</time>
      </trkpt>
      <trkpt lat="45.93614" lon="5.70677">
        <ele>608.2</ele>
        <time>2026-05-13T09:57:49Z</time>
      </trkpt>
      <trkpt lat="45.93613" lon="5.7068">
        <ele>608.6</ele>
        <time>2026-05-13T09:57:50Z</time>
      </trkpt>
      <trkpt lat="45.93612" lon="5.70683">
        <ele>608.6</ele>
        <time>2026-05-13T09:57:51Z</time>
      </trkpt>
      <trkpt lat="45.93611" lon="5.70686">
        <ele>608.8</ele>
        <time>2026-05-13T09:57:52Z</time>
      </trkpt>
      <trkpt lat="45.9361" lon="5.70689">
        <ele>608.8</ele>
        <time>2026-05-13T09:57:53Z</time>
      </trkpt>
      <trkpt lat="45.93609" lon="5.70692">
        <ele>609</ele>
        <time>2026-05-13T09:57:54Z</time>
      </trkpt>
      <trkpt lat="45.93609" lon="5.70695">
        <ele>609</ele>
        <time>2026-05-13T09:57:55Z</time>
      </trkpt>
      <trkpt lat="45.93609" lon="5.70698">
        <ele>609</ele>
        <time>2026-05-13T09:57:56Z</time>
      </trkpt>
      <trkpt lat="45.93608" lon="5.70701">
        <ele>609.4</ele>
        <time>2026-05-13T09:57:57Z</time>
      </trkpt>
      <trkpt lat="45.93607" lon="5.70704">
        <ele>609.6</ele>
        <time>2026-05-13T09:57:58Z</time>
      </trkpt>
      <trkpt lat="45.93607" lon="5.70707">
        <ele>609.6</ele>
        <time>2026-05-13T09:57:59Z</time>
      </trkpt>
      <trkpt lat="45.93607" lon="5.7071">
        <ele>609.6</ele>
        <time>2026-05-13T09:58:00Z</time>
      </trkpt>
      <trkpt lat="45.93607" lon="5.70714">
        <ele>609.6</ele>
        <time>2026-05-13T09:58:01Z</time>
      </trkpt>
      <trkpt lat="45.93606" lon="5.70717">
        <ele>609.6</ele>
        <time>2026-05-13T09:58:02Z</time>
      </trkpt>
      <trkpt lat="45.93606" lon="5.7072">
        <ele>610</ele>
        <time>2026-05-13T09:58:03Z</time>
      </trkpt>
      <trkpt lat="45.93606" lon="5.70723">
        <ele>610</ele>
        <time>2026-05-13T09:58:04Z</time>
      </trkpt>
      <trkpt lat="45.93606" lon="5.70726">
        <ele>610.2</ele>
        <time>2026-05-13T09:58:05Z</time>
      </trkpt>
      <trkpt lat="45.93605" lon="5.70729">
        <ele>610.4</ele>
        <time>2026-05-13T09:58:06Z</time>
      </trkpt>
      <trkpt lat="45.93605" lon="5.70732">
        <ele>610.4</ele>
        <time>2026-05-13T09:58:07Z</time>
      </trkpt>
      <trkpt lat="45.93605" lon="5.70735">
        <ele>610.8</ele>
        <time>2026-05-13T09:58:08Z</time>
      </trkpt>
      <trkpt lat="45.93605" lon="5.70738">
        <ele>610.8</ele>
        <time>2026-05-13T09:58:09Z</time>
      </trkpt>
      <trkpt lat="45.93605" lon="5.70741">
        <ele>611</ele>
        <time>2026-05-13T09:58:10Z</time>
      </trkpt>
      <trkpt lat="45.93605" lon="5.70744">
        <ele>611</ele>
        <time>2026-05-13T09:58:11Z</time>
      </trkpt>
      <trkpt lat="45.93605" lon="5.70747">
        <ele>611.2</ele>
        <time>2026-05-13T09:58:12Z</time>
      </trkpt>
      <trkpt lat="45.93605" lon="5.7075">
        <ele>611.2</ele>
        <time>2026-05-13T09:58:13Z</time>
      </trkpt>
      <trkpt lat="45.93606" lon="5.70753">
        <ele>611.2</ele>
        <time>2026-05-13T09:58:14Z</time>
      </trkpt>
      <trkpt lat="45.93606" lon="5.70755">
        <ele>611.6</ele>
        <time>2026-05-13T09:58:15Z</time>
      </trkpt>
      <trkpt lat="45.93606" lon="5.70758">
        <ele>611.6</ele>
        <time>2026-05-13T09:58:16Z</time>
      </trkpt>
      <trkpt lat="45.93606" lon="5.70761">
        <ele>611.8</ele>
        <time>2026-05-13T09:58:17Z</time>
      </trkpt>
      <trkpt lat="45.93606" lon="5.70763">
        <ele>612</ele>
        <time>2026-05-13T09:58:18Z</time>
      </trkpt>
      <trkpt lat="45.93605" lon="5.70766">
        <ele>612</ele>
        <time>2026-05-13T09:58:19Z</time>
      </trkpt>
      <trkpt lat="45.93605" lon="5.70769">
        <ele>612.4</ele>
        <time>2026-05-13T09:58:20Z</time>
      </trkpt>
      <trkpt lat="45.93606" lon="5.70771">
        <ele>612.6</ele>
        <time>2026-05-13T09:58:21Z</time>
      </trkpt>
      <trkpt lat="45.93605" lon="5.70774">
        <ele>612.6</ele>
        <time>2026-05-13T09:58:22Z</time>
      </trkpt>
      <trkpt lat="45.93605" lon="5.70776">
        <ele>612.8</ele>
        <time>2026-05-13T09:58:23Z</time>
      </trkpt>
      <trkpt lat="45.93605" lon="5.70779">
        <ele>612.8</ele>
        <time>2026-05-13T09:58:24Z</time>
      </trkpt>
      <trkpt lat="45.93605" lon="5.70782">
        <ele>613.2</ele>
        <time>2026-05-13T09:58:25Z</time>
      </trkpt>
      <trkpt lat="45.93605" lon="5.70785">
        <ele>613.2</ele>
        <time>2026-05-13T09:58:26Z</time>
      </trkpt>
      <trkpt lat="45.93606" lon="5.70788">
        <ele>613.2</ele>
        <time>2026-05-13T09:58:27Z</time>
      </trkpt>
      <trkpt lat="45.93606" lon="5.70791">
        <ele>613.4</ele>
        <time>2026-05-13T09:58:28Z</time>
      </trkpt>
      <trkpt lat="45.93605" lon="5.70794">
        <ele>613.4</ele>
        <time>2026-05-13T09:58:29Z</time>
      </trkpt>
      <trkpt lat="45.93605" lon="5.70797">
        <ele>613.4</ele>
        <time>2026-05-13T09:58:30Z</time>
      </trkpt>
      <trkpt lat="45.93605" lon="5.70799">
        <ele>613.6</ele>
        <time>2026-05-13T09:58:31Z</time>
      </trkpt>
      <trkpt lat="45.93605" lon="5.70802">
        <ele>613.8</ele>
        <time>2026-05-13T09:58:32Z</time>
      </trkpt>
      <trkpt lat="45.93605" lon="5.70804">
        <ele>614.6</ele>
        <time>2026-05-13T09:58:33Z</time>
      </trkpt>
      <trkpt lat="45.93606" lon="5.70807">
        <ele>614.8</ele>
        <time>2026-05-13T09:58:34Z</time>
      </trkpt>
      <trkpt lat="45.93606" lon="5.7081">
        <ele>614.8</ele>
        <time>2026-05-13T09:58:35Z</time>
      </trkpt>
      <trkpt lat="45.93606" lon="5.70813">
        <ele>614.8</ele>
        <time>2026-05-13T09:58:36Z</time>
      </trkpt>
      <trkpt lat="45.93606" lon="5.70816">
        <ele>614.8</ele>
        <time>2026-05-13T09:58:37Z</time>
      </trkpt>
      <trkpt lat="45.93606" lon="5.70819">
        <ele>614.8</ele>
        <time>2026-05-13T09:58:38Z</time>
      </trkpt>
      <trkpt lat="45.93606" lon="5.70822">
        <ele>615</ele>
        <time>2026-05-13T09:58:39Z</time>
      </trkpt>
      <trkpt lat="45.93606" lon="5.70825">
        <ele>615</ele>
        <time>2026-05-13T09:58:40Z</time>
      </trkpt>
      <trkpt lat="45.93605" lon="5.70827">
        <ele>615</ele>
        <time>2026-05-13T09:58:41Z</time>
      </trkpt>
      <trkpt lat="45.93605" lon="5.7083">
        <ele>615.4</ele>
        <time>2026-05-13T09:58:42Z</time>
      </trkpt>
      <trkpt lat="45.93605" lon="5.70833">
        <ele>615.4</ele>
        <time>2026-05-13T09:58:43Z</time>
      </trkpt>
      <trkpt lat="45.93605" lon="5.70835">
        <ele>615.8</ele>
        <time>2026-05-13T09:58:44Z</time>
      </trkpt>
      <trkpt lat="45.93604" lon="5.70838">
        <ele>615.8</ele>
        <time>2026-05-13T09:58:45Z</time>
      </trkpt>
      <trkpt lat="45.93604" lon="5.70841">
        <ele>616</ele>
        <time>2026-05-13T09:58:46Z</time>
      </trkpt>
      <trkpt lat="45.93604" lon="5.70844">
        <ele>616.2</ele>
        <time>2026-05-13T09:58:47Z</time>
      </trkpt>
      <trkpt lat="45.93605" lon="5.70847">
        <ele>616.2</ele>
        <time>2026-05-13T09:58:48Z</time>
      </trkpt>
      <trkpt lat="45.93605" lon="5.7085">
        <ele>616.6</ele>
        <time>2026-05-13T09:58:49Z</time>
      </trkpt>
      <trkpt lat="45.93605" lon="5.70853">
        <ele>616.6</ele>
        <time>2026-05-13T09:58:50Z</time>
      </trkpt>
      <trkpt lat="45.93605" lon="5.70856">
        <ele>617</ele>
        <time>2026-05-13T09:58:51Z</time>
      </trkpt>
      <trkpt lat="45.93606" lon="5.70859">
        <ele>617</ele>
        <time>2026-05-13T09:58:52Z</time>
      </trkpt>
      <trkpt lat="45.93606" lon="5.70862">
        <ele>617</ele>
        <time>2026-05-13T09:58:53Z</time>
      </trkpt>
      <trkpt lat="45.93607" lon="5.70865">
        <ele>617.2</ele>
        <time>2026-05-13T09:58:54Z</time>
      </trkpt>
      <trkpt lat="45.93607" lon="5.70868">
        <ele>617.2</ele>
        <time>2026-05-13T09:58:55Z</time>
      </trkpt>
      <trkpt lat="45.93607" lon="5.70871">
        <ele>617.4</ele>
        <time>2026-05-13T09:58:56Z</time>
      </trkpt>
      <trkpt lat="45.93607" lon="5.70874">
        <ele>617.4</ele>
        <time>2026-05-13T09:58:57Z</time>
      </trkpt>
      <trkpt lat="45.93606" lon="5.70877">
        <ele>617.4</ele>
        <time>2026-05-13T09:58:58Z</time>
      </trkpt>
      <trkpt lat="45.93606" lon="5.70879">
        <ele>617.8</ele>
        <time>2026-05-13T09:58:59Z</time>
      </trkpt>
      <trkpt lat="45.93606" lon="5.70882">
        <ele>617.8</ele>
        <time>2026-05-13T09:59:00Z</time>
      </trkpt>
      <trkpt lat="45.93607" lon="5.70885">
        <ele>618</ele>
        <time>2026-05-13T09:59:01Z</time>
      </trkpt>
      <trkpt lat="45.93607" lon="5.70888">
        <ele>618.4</ele>
        <time>2026-05-13T09:59:02Z</time>
      </trkpt>
      <trkpt lat="45.93607" lon="5.7089">
        <ele>618.4</ele>
        <time>2026-05-13T09:59:03Z</time>
      </trkpt>
      <trkpt lat="45.93608" lon="5.70894">
        <ele>618.4</ele>
        <time>2026-05-13T09:59:04Z</time>
      </trkpt>
      <trkpt lat="45.93608" lon="5.70897">
        <ele>618.6</ele>
        <time>2026-05-13T09:59:05Z</time>
      </trkpt>
      <trkpt lat="45.93608" lon="5.709">
        <ele>618.6</ele>
        <time>2026-05-13T09:59:06Z</time>
      </trkpt>
      <trkpt lat="45.93608" lon="5.70902">
        <ele>619</ele>
        <time>2026-05-13T09:59:07Z</time>
      </trkpt>
      <trkpt lat="45.93608" lon="5.70905">
        <ele>619.2</ele>
        <time>2026-05-13T09:59:08Z</time>
      </trkpt>
      <trkpt lat="45.93608" lon="5.70908">
        <ele>619.2</ele>
        <time>2026-05-13T09:59:09Z</time>
      </trkpt>
      <trkpt lat="45.93609" lon="5.70911">
        <ele>619.4</ele>
        <time>2026-05-13T09:59:10Z</time>
      </trkpt>
      <trkpt lat="45.93609" lon="5.70914">
        <ele>619.4</ele>
        <time>2026-05-13T09:59:11Z</time>
      </trkpt>
      <trkpt lat="45.93609" lon="5.70917">
        <ele>619.8</ele>
        <time>2026-05-13T09:59:12Z</time>
      </trkpt>
      <trkpt lat="45.93609" lon="5.70919">
        <ele>619.8</ele>
        <time>2026-05-13T09:59:13Z</time>
      </trkpt>
      <trkpt lat="45.93609" lon="5.70922">
        <ele>620</ele>
        <time>2026-05-13T09:59:14Z</time>
      </trkpt>
      <trkpt lat="45.93609" lon="5.70925">
        <ele>620</ele>
        <time>2026-05-13T09:59:15Z</time>
      </trkpt>
      <trkpt lat="45.93609" lon="5.70928">
        <ele>620.2</ele>
        <time>2026-05-13T09:59:16Z</time>
      </trkpt>
      <trkpt lat="45.9361" lon="5.7093">
        <ele>620.4</ele>
        <time>2026-05-13T09:59:17Z</time>
      </trkpt>
      <trkpt lat="45.9361" lon="5.70933">
        <ele>620.4</ele>
        <time>2026-05-13T09:59:18Z</time>
      </trkpt>
      <trkpt lat="45.93611" lon="5.70936">
        <ele>620.8</ele>
        <time>2026-05-13T09:59:19Z</time>
      </trkpt>
      <trkpt lat="45.93611" lon="5.70939">
        <ele>620.8</ele>
        <time>2026-05-13T09:59:20Z</time>
      </trkpt>
      <trkpt lat="45.93611" lon="5.70942">
        <ele>621.2</ele>
        <time>2026-05-13T09:59:21Z</time>
      </trkpt>
      <trkpt lat="45.93611" lon="5.70945">
        <ele>621.2</ele>
        <time>2026-05-13T09:59:22Z</time>
      </trkpt>
      <trkpt lat="45.93611" lon="5.70948">
        <ele>621.4</ele>
        <time>2026-05-13T09:59:23Z</time>
      </trkpt>
      <trkpt lat="45.93611" lon="5.70951">
        <ele>621.4</ele>
        <time>2026-05-13T09:59:24Z</time>
      </trkpt>
      <trkpt lat="45.93611" lon="5.70954">
        <ele>621.6</ele>
        <time>2026-05-13T09:59:25Z</time>
      </trkpt>
      <trkpt lat="45.93611" lon="5.70957">
        <ele>621.6</ele>
        <time>2026-05-13T09:59:26Z</time>
      </trkpt>
      <trkpt lat="45.9361" lon="5.70959">
        <ele>622</ele>
        <time>2026-05-13T09:59:27Z</time>
      </trkpt>
      <trkpt lat="45.9361" lon="5.70961">
        <ele>622</ele>
        <time>2026-05-13T09:59:28Z</time>
      </trkpt>
      <trkpt lat="45.9361" lon="5.70963">
        <ele>622.2</ele>
        <time>2026-05-13T09:59:29Z</time>
      </trkpt>
      <trkpt lat="45.9361" lon="5.70965">
        <ele>622.2</ele>
        <time>2026-05-13T09:59:30Z</time>
      </trkpt>
      <trkpt lat="45.9361" lon="5.70967">
        <ele>622.4</ele>
        <time>2026-05-13T09:59:31Z</time>
      </trkpt>
      <trkpt lat="45.9361" lon="5.7097">
        <ele>622.4</ele>
        <time>2026-05-13T09:59:32Z</time>
      </trkpt>
      <trkpt lat="45.9361" lon="5.70972">
        <ele>622.4</ele>
        <time>2026-05-13T09:59:33Z</time>
      </trkpt>
      <trkpt lat="45.9361" lon="5.70974">
        <ele>622.8</ele>
        <time>2026-05-13T09:59:34Z</time>
      </trkpt>
      <trkpt lat="45.9361" lon="5.70976">
        <ele>622.8</ele>
        <time>2026-05-13T09:59:35Z</time>
      </trkpt>
      <trkpt lat="45.9361" lon="5.70979">
        <ele>623</ele>
        <time>2026-05-13T09:59:36Z</time>
      </trkpt>
      <trkpt lat="45.93609" lon="5.70982">
        <ele>623</ele>
        <time>2026-05-13T09:59:37Z</time>
      </trkpt>
      <trkpt lat="45.93609" lon="5.70984">
        <ele>623</ele>
        <time>2026-05-13T09:59:38Z</time>
      </trkpt>
      <trkpt lat="45.93608" lon="5.70987">
        <ele>623.4</ele>
        <time>2026-05-13T09:59:39Z</time>
      </trkpt>
      <trkpt lat="45.93608" lon="5.70989">
        <ele>623.4</ele>
        <time>2026-05-13T09:59:40Z</time>
      </trkpt>
      <trkpt lat="45.93608" lon="5.70992">
        <ele>623.6</ele>
        <time>2026-05-13T09:59:41Z</time>
      </trkpt>
      <trkpt lat="45.93607" lon="5.70994">
        <ele>623.6</ele>
        <time>2026-05-13T09:59:42Z</time>
      </trkpt>
      <trkpt lat="45.93606" lon="5.70997">
        <ele>623.8</ele>
        <time>2026-05-13T09:59:43Z</time>
      </trkpt>
      <trkpt lat="45.93606" lon="5.71">
        <ele>623.8</ele>
        <time>2026-05-13T09:59:44Z</time>
      </trkpt>
      <trkpt lat="45.93605" lon="5.71002">
        <ele>623.8</ele>
        <time>2026-05-13T09:59:45Z</time>
      </trkpt>
      <trkpt lat="45.93605" lon="5.71005">
        <ele>624.2</ele>
        <time>2026-05-13T09:59:46Z</time>
      </trkpt>
      <trkpt lat="45.93605" lon="5.71007">
        <ele>624.2</ele>
        <time>2026-05-13T09:59:47Z</time>
      </trkpt>
      <trkpt lat="45.93604" lon="5.7101">
        <ele>624.4</ele>
        <time>2026-05-13T09:59:48Z</time>
      </trkpt>
      <trkpt lat="45.93603" lon="5.71013">
        <ele>624.4</ele>
        <time>2026-05-13T09:59:49Z</time>
      </trkpt>
      <trkpt lat="45.93603" lon="5.71016">
        <ele>624.4</ele>
        <time>2026-05-13T09:59:50Z</time>
      </trkpt>
      <trkpt lat="45.93602" lon="5.71018">
        <ele>624.4</ele>
        <time>2026-05-13T09:59:51Z</time>
      </trkpt>
      <trkpt lat="45.93602" lon="5.71018">
        <ele>625</ele>
        <time>2026-05-13T09:59:52Z</time>
      </trkpt>
      <trkpt lat="45.93602" lon="5.71021">
        <ele>625</ele>
        <time>2026-05-13T09:59:53Z</time>
      </trkpt>
      <trkpt lat="45.93601" lon="5.71024">
        <ele>625.2</ele>
        <time>2026-05-13T09:59:54Z</time>
      </trkpt>
      <trkpt lat="45.93601" lon="5.71026">
        <ele>625.4</ele>
        <time>2026-05-13T09:59:55Z</time>
      </trkpt>
      <trkpt lat="45.936" lon="5.71029">
        <ele>625.8</ele>
        <time>2026-05-13T09:59:56Z</time>
      </trkpt>
      <trkpt lat="45.936" lon="5.71031">
        <ele>625.8</ele>
        <time>2026-05-13T09:59:57Z</time>
      </trkpt>
      <trkpt lat="45.93599" lon="5.71033">
        <ele>626</ele>
        <time>2026-05-13T09:59:58Z</time>
      </trkpt>
      <trkpt lat="45.93598" lon="5.71034">
        <ele>626</ele>
        <time>2026-05-13T09:59:59Z</time>
      </trkpt>
      <trkpt lat="45.93598" lon="5.71036">
        <ele>626</ele>
        <time>2026-05-13T10:00:00Z</time>
      </trkpt>
      <trkpt lat="45.93598" lon="5.71038">
        <ele>626.2</ele>
        <time>2026-05-13T10:00:01Z</time>
      </trkpt>
      <trkpt lat="45.93598" lon="5.7104">
        <ele>626.2</ele>
        <time>2026-05-13T10:00:02Z</time>
      </trkpt>
      <trkpt lat="45.93598" lon="5.71042">
        <ele>626.4</ele>
        <time>2026-05-13T10:00:03Z</time>
      </trkpt>
      <trkpt lat="45.93598" lon="5.71043">
        <ele>626.4</ele>
        <time>2026-05-13T10:00:04Z</time>
      </trkpt>
      <trkpt lat="45.93598" lon="5.71045">
        <ele>626.8</ele>
        <time>2026-05-13T10:00:05Z</time>
      </trkpt>
      <trkpt lat="45.93597" lon="5.71046">
        <ele>626.8</ele>
        <time>2026-05-13T10:00:06Z</time>
      </trkpt>
      <trkpt lat="45.93597" lon="5.71047">
        <ele>626.8</ele>
        <time>2026-05-13T10:00:07Z</time>
      </trkpt>
      <trkpt lat="45.93596" lon="5.71047">
        <ele>626.8</ele>
        <time>2026-05-13T10:00:08Z</time>
      </trkpt>
      <trkpt lat="45.93595" lon="5.71048">
        <ele>626.8</ele>
        <time>2026-05-13T10:01:16Z</time>
      </trkpt>
      <trkpt lat="45.93595" lon="5.7105">
        <ele>626.8</ele>
        <time>2026-05-13T10:01:17Z</time>
      </trkpt>
      <trkpt lat="45.93595" lon="5.71053">
        <ele>626.8</ele>
        <time>2026-05-13T10:01:18Z</time>
      </trkpt>
      <trkpt lat="45.93596" lon="5.71056">
        <ele>626.8</ele>
        <time>2026-05-13T10:01:19Z</time>
      </trkpt>
      <trkpt lat="45.93597" lon="5.71063">
        <ele>626.8</ele>
        <time>2026-05-13T10:01:20Z</time>
      </trkpt>
      <trkpt lat="45.93597" lon="5.71066">
        <ele>626.8</ele>
        <time>2026-05-13T10:01:21Z</time>
      </trkpt>
      <trkpt lat="45.93597" lon="5.71069">
        <ele>627</ele>
        <time>2026-05-13T10:01:22Z</time>
      </trkpt>
      <trkpt lat="45.93597" lon="5.71072">
        <ele>627</ele>
        <time>2026-05-13T10:01:23Z</time>
      </trkpt>
      <trkpt lat="45.93597" lon="5.71075">
        <ele>627</ele>
        <time>2026-05-13T10:01:24Z</time>
      </trkpt>
      <trkpt lat="45.93597" lon="5.71078">
        <ele>627.2</ele>
        <time>2026-05-13T10:01:25Z</time>
      </trkpt>
      <trkpt lat="45.93597" lon="5.71081">
        <ele>627.4</ele>
        <time>2026-05-13T10:01:26Z</time>
      </trkpt>
      <trkpt lat="45.93598" lon="5.71084">
        <ele>627.4</ele>
        <time>2026-05-13T10:01:27Z</time>
      </trkpt>
      <trkpt lat="45.93598" lon="5.71087">
        <ele>627.8</ele>
        <time>2026-05-13T10:01:28Z</time>
      </trkpt>
      <trkpt lat="45.93598" lon="5.7109">
        <ele>627.8</ele>
        <time>2026-05-13T10:01:29Z</time>
      </trkpt>
      <trkpt lat="45.93599" lon="5.71093">
        <ele>627.8</ele>
        <time>2026-05-13T10:01:30Z</time>
      </trkpt>
      <trkpt lat="45.93599" lon="5.71095">
        <ele>628</ele>
        <time>2026-05-13T10:01:31Z</time>
      </trkpt>
      <trkpt lat="45.936" lon="5.71098">
        <ele>628.2</ele>
        <time>2026-05-13T10:01:32Z</time>
      </trkpt>
      <trkpt lat="45.936" lon="5.71101">
        <ele>628.2</ele>
        <time>2026-05-13T10:01:33Z</time>
      </trkpt>
      <trkpt lat="45.93601" lon="5.71104">
        <ele>628.8</ele>
        <time>2026-05-13T10:01:34Z</time>
      </trkpt>
      <trkpt lat="45.93601" lon="5.71106">
        <ele>628.8</ele>
        <time>2026-05-13T10:01:35Z</time>
      </trkpt>
      <trkpt lat="45.93602" lon="5.71108">
        <ele>629</ele>
        <time>2026-05-13T10:01:36Z</time>
      </trkpt>
      <trkpt lat="45.93602" lon="5.71111">
        <ele>629</ele>
        <time>2026-05-13T10:01:37Z</time>
      </trkpt>
      <trkpt lat="45.93603" lon="5.71113">
        <ele>629</ele>
        <time>2026-05-13T10:01:38Z</time>
      </trkpt>
      <trkpt lat="45.93604" lon="5.71116">
        <ele>629.2</ele>
        <time>2026-05-13T10:01:39Z</time>
      </trkpt>
      <trkpt lat="45.93605" lon="5.71118">
        <ele>629.2</ele>
        <time>2026-05-13T10:01:40Z</time>
      </trkpt>
      <trkpt lat="45.93606" lon="5.71121">
        <ele>629.6</ele>
        <time>2026-05-13T10:01:41Z</time>
      </trkpt>
      <trkpt lat="45.93607" lon="5.71123">
        <ele>629.6</ele>
        <time>2026-05-13T10:01:42Z</time>
      </trkpt>
      <trkpt lat="45.93608" lon="5.71126">
        <ele>630</ele>
        <time>2026-05-13T10:01:43Z</time>
      </trkpt>
      <trkpt lat="45.93609" lon="5.71129">
        <ele>630</ele>
        <time>2026-05-13T10:01:44Z</time>
      </trkpt>
      <trkpt lat="45.9361" lon="5.71131">
        <ele>630.2</ele>
        <time>2026-05-13T10:01:45Z</time>
      </trkpt>
      <trkpt lat="45.93611" lon="5.71133">
        <ele>630.2</ele>
        <time>2026-05-13T10:01:46Z</time>
      </trkpt>
      <trkpt lat="45.93612" lon="5.71135">
        <ele>630.2</ele>
        <time>2026-05-13T10:01:47Z</time>
      </trkpt>
      <trkpt lat="45.93614" lon="5.71138">
        <ele>630.6</ele>
        <time>2026-05-13T10:01:48Z</time>
      </trkpt>
      <trkpt lat="45.93616" lon="5.71141">
        <ele>630.6</ele>
        <time>2026-05-13T10:01:49Z</time>
      </trkpt>
      <trkpt lat="45.93617" lon="5.71143">
        <ele>631</ele>
        <time>2026-05-13T10:01:50Z</time>
      </trkpt>
      <trkpt lat="45.93619" lon="5.71146">
        <ele>631</ele>
        <time>2026-05-13T10:01:51Z</time>
      </trkpt>
      <trkpt lat="45.93621" lon="5.71148">
        <ele>631.2</ele>
        <time>2026-05-13T10:01:52Z</time>
      </trkpt>
      <trkpt lat="45.93623" lon="5.7115">
        <ele>631.2</ele>
        <time>2026-05-13T10:01:53Z</time>
      </trkpt>
      <trkpt lat="45.93624" lon="5.71151">
        <ele>631.4</ele>
        <time>2026-05-13T10:01:54Z</time>
      </trkpt>
      <trkpt lat="45.93626" lon="5.71153">
        <ele>631.6</ele>
        <time>2026-05-13T10:01:55Z</time>
      </trkpt>
      <trkpt lat="45.93628" lon="5.71155">
        <ele>631.6</ele>
        <time>2026-05-13T10:01:56Z</time>
      </trkpt>
      <trkpt lat="45.93628" lon="5.71155">
        <ele>631.8</ele>
        <time>2026-05-13T10:01:57Z</time>
      </trkpt>
      <trkpt lat="45.93628" lon="5.71155">
        <ele>631.8</ele>
        <time>2026-05-13T10:01:58Z</time>
      </trkpt>
      <trkpt lat="45.93635" lon="5.71161">
        <ele>632.2</ele>
        <time>2026-05-13T10:02:01Z</time>
      </trkpt>
      <trkpt lat="45.93636" lon="5.71164">
        <ele>632.6</ele>
        <time>2026-05-13T10:02:02Z</time>
      </trkpt>
      <trkpt lat="45.93638" lon="5.71166">
        <ele>632.6</ele>
        <time>2026-05-13T10:02:03Z</time>
      </trkpt>
      <trkpt lat="45.9364" lon="5.71168">
        <ele>632.8</ele>
        <time>2026-05-13T10:02:04Z</time>
      </trkpt>
      <trkpt lat="45.93641" lon="5.71169">
        <ele>632.8</ele>
        <time>2026-05-13T10:02:05Z</time>
      </trkpt>
      <trkpt lat="45.93643" lon="5.7117">
        <ele>633.2</ele>
        <time>2026-05-13T10:02:06Z</time>
      </trkpt>
      <trkpt lat="45.93645" lon="5.71171">
        <ele>633.2</ele>
        <time>2026-05-13T10:02:07Z</time>
      </trkpt>
      <trkpt lat="45.93647" lon="5.71172">
        <ele>633.4</ele>
        <time>2026-05-13T10:02:08Z</time>
      </trkpt>
      <trkpt lat="45.93649" lon="5.71173">
        <ele>633.6</ele>
        <time>2026-05-13T10:02:09Z</time>
      </trkpt>
      <trkpt lat="45.9365" lon="5.71174">
        <ele>633.6</ele>
        <time>2026-05-13T10:02:10Z</time>
      </trkpt>
      <trkpt lat="45.93652" lon="5.71175">
        <ele>634</ele>
        <time>2026-05-13T10:02:11Z</time>
      </trkpt>
      <trkpt lat="45.93654" lon="5.71176">
        <ele>634.2</ele>
        <time>2026-05-13T10:02:12Z</time>
      </trkpt>
      <trkpt lat="45.93656" lon="5.71177">
        <ele>634.2</ele>
        <time>2026-05-13T10:02:13Z</time>
      </trkpt>
      <trkpt lat="45.93657" lon="5.71178">
        <ele>634.6</ele>
        <time>2026-05-13T10:02:14Z</time>
      </trkpt>
      <trkpt lat="45.93659" lon="5.71178">
        <ele>634.8</ele>
        <time>2026-05-13T10:02:15Z</time>
      </trkpt>
      <trkpt lat="45.93661" lon="5.71179">
        <ele>634.8</ele>
        <time>2026-05-13T10:02:16Z</time>
      </trkpt>
      <trkpt lat="45.93663" lon="5.71179">
        <ele>635</ele>
        <time>2026-05-13T10:02:17Z</time>
      </trkpt>
      <trkpt lat="45.93664" lon="5.7118">
        <ele>635</ele>
        <time>2026-05-13T10:02:18Z</time>
      </trkpt>
      <trkpt lat="45.93666" lon="5.71181">
        <ele>635.2</ele>
        <time>2026-05-13T10:02:19Z</time>
      </trkpt>
      <trkpt lat="45.93668" lon="5.71182">
        <ele>635.2</ele>
        <time>2026-05-13T10:02:20Z</time>
      </trkpt>
      <trkpt lat="45.9367" lon="5.71184">
        <ele>635.2</ele>
        <time>2026-05-13T10:02:21Z</time>
      </trkpt>
      <trkpt lat="45.93672" lon="5.71186">
        <ele>635.6</ele>
        <time>2026-05-13T10:02:22Z</time>
      </trkpt>
      <trkpt lat="45.93674" lon="5.71188">
        <ele>635.6</ele>
        <time>2026-05-13T10:02:23Z</time>
      </trkpt>
      <trkpt lat="45.93675" lon="5.71189">
        <ele>635.8</ele>
        <time>2026-05-13T10:02:24Z</time>
      </trkpt>
      <trkpt lat="45.93677" lon="5.71189">
        <ele>635.8</ele>
        <time>2026-05-13T10:02:25Z</time>
      </trkpt>
      <trkpt lat="45.93681" lon="5.7119">
        <ele>635.8</ele>
        <time>2026-05-13T10:02:26Z</time>
      </trkpt>
      <trkpt lat="45.93684" lon="5.71191">
        <ele>636</ele>
        <time>2026-05-13T10:02:27Z</time>
      </trkpt>
      <trkpt lat="45.93686" lon="5.71191">
        <ele>636</ele>
        <time>2026-05-13T10:02:28Z</time>
      </trkpt>
      <trkpt lat="45.93688" lon="5.71192">
        <ele>636.4</ele>
        <time>2026-05-13T10:02:29Z</time>
      </trkpt>
      <trkpt lat="45.9369" lon="5.71193">
        <ele>636.4</ele>
        <time>2026-05-13T10:02:30Z</time>
      </trkpt>
      <trkpt lat="45.93692" lon="5.71193">
        <ele>636.4</ele>
        <time>2026-05-13T10:02:31Z</time>
      </trkpt>
      <trkpt lat="45.93694" lon="5.71193">
        <ele>636.4</ele>
        <time>2026-05-13T10:02:32Z</time>
      </trkpt>
      <trkpt lat="45.93697" lon="5.71193">
        <ele>636.4</ele>
        <time>2026-05-13T10:02:33Z</time>
      </trkpt>
      <trkpt lat="45.93698" lon="5.71193">
        <ele>636.6</ele>
        <time>2026-05-13T10:02:34Z</time>
      </trkpt>
      <trkpt lat="45.93699" lon="5.71193">
        <ele>636.8</ele>
        <time>2026-05-13T10:02:35Z</time>
      </trkpt>
      <trkpt lat="45.93699" lon="5.71194">
        <ele>636.8</ele>
        <time>2026-05-13T10:02:36Z</time>
      </trkpt>
      <trkpt lat="45.937" lon="5.71195">
        <ele>637.2</ele>
        <time>2026-05-13T10:02:37Z</time>
      </trkpt>
      <trkpt lat="45.93701" lon="5.71196">
        <ele>637.2</ele>
        <time>2026-05-13T10:02:38Z</time>
      </trkpt>
      <trkpt lat="45.93702" lon="5.71196">
        <ele>637.2</ele>
        <time>2026-05-13T10:02:39Z</time>
      </trkpt>
      <trkpt lat="45.93703" lon="5.71195">
        <ele>637.2</ele>
        <time>2026-05-13T10:02:40Z</time>
      </trkpt>
      <trkpt lat="45.93703" lon="5.71193">
        <ele>637.2</ele>
        <time>2026-05-13T10:02:41Z</time>
      </trkpt>
      <trkpt lat="45.93701" lon="5.71191">
        <ele>637.2</ele>
        <time>2026-05-13T10:02:42Z</time>
      </trkpt>
      <trkpt lat="45.93698" lon="5.71191">
        <ele>637.2</ele>
        <time>2026-05-13T10:02:43Z</time>
      </trkpt>
      <trkpt lat="45.93696" lon="5.71191">
        <ele>637.2</ele>
        <time>2026-05-13T10:02:44Z</time>
      </trkpt>
      <trkpt lat="45.93694" lon="5.71191">
        <ele>637.2</ele>
        <time>2026-05-13T10:02:45Z</time>
      </trkpt>
      <trkpt lat="45.93692" lon="5.71189">
        <ele>637</ele>
        <time>2026-05-13T10:02:46Z</time>
      </trkpt>
      <trkpt lat="45.9369" lon="5.71188">
        <ele>637</ele>
        <time>2026-05-13T10:02:47Z</time>
      </trkpt>
      <trkpt lat="45.93688" lon="5.71188">
        <ele>636.6</ele>
        <time>2026-05-13T10:02:48Z</time>
      </trkpt>
      <trkpt lat="45.93687" lon="5.7119">
        <ele>636.6</ele>
        <time>2026-05-13T10:02:49Z</time>
      </trkpt>
      <trkpt lat="45.93687" lon="5.71191">
        <ele>636.8</ele>
        <time>2026-05-13T10:02:50Z</time>
      </trkpt>
      <trkpt lat="45.93688" lon="5.71192">
        <ele>636.8</ele>
        <time>2026-05-13T10:02:51Z</time>
      </trkpt>
      <trkpt lat="45.93689" lon="5.71193">
        <ele>636.8</ele>
        <time>2026-05-13T10:02:52Z</time>
      </trkpt>
      <trkpt lat="45.93689" lon="5.71193">
        <ele>636.8</ele>
        <time>2026-05-13T10:02:53Z</time>
      </trkpt>
      <trkpt lat="45.93692" lon="5.71194">
        <ele>636.4</ele>
        <time>2026-05-13T10:03:16Z</time>
      </trkpt>
      <trkpt lat="45.93693" lon="5.71194">
        <ele>636.4</ele>
        <time>2026-05-13T10:03:17Z</time>
      </trkpt>
      <trkpt lat="45.93695" lon="5.71195">
        <ele>636.4</ele>
        <time>2026-05-13T10:03:18Z</time>
      </trkpt>
      <trkpt lat="45.93696" lon="5.71195">
        <ele>636.6</ele>
        <time>2026-05-13T10:03:19Z</time>
      </trkpt>
      <trkpt lat="45.93697" lon="5.71195">
        <ele>636.6</ele>
        <time>2026-05-13T10:03:20Z</time>
      </trkpt>
      <trkpt lat="45.93699" lon="5.71195">
        <ele>636.8</ele>
        <time>2026-05-13T10:03:21Z</time>
      </trkpt>
      <trkpt lat="45.937" lon="5.71196">
        <ele>636.8</ele>
        <time>2026-05-13T10:03:22Z</time>
      </trkpt>
      <trkpt lat="45.93702" lon="5.71197">
        <ele>636.8</ele>
        <time>2026-05-13T10:03:23Z</time>
      </trkpt>
      <trkpt lat="45.93703" lon="5.71198">
        <ele>636.8</ele>
        <time>2026-05-13T10:03:24Z</time>
      </trkpt>
      <trkpt lat="45.93705" lon="5.71198">
        <ele>637.2</ele>
        <time>2026-05-13T10:03:25Z</time>
      </trkpt>
      <trkpt lat="45.93707" lon="5.71199">
        <ele>637.2</ele>
        <time>2026-05-13T10:03:26Z</time>
      </trkpt>
      <trkpt lat="45.93708" lon="5.71199">
        <ele>637.2</ele>
        <time>2026-05-13T10:03:27Z</time>
      </trkpt>
      <trkpt lat="45.9371" lon="5.712">
        <ele>637.2</ele>
        <time>2026-05-13T10:03:28Z</time>
      </trkpt>
      <trkpt lat="45.93712" lon="5.71201">
        <ele>637.2</ele>
        <time>2026-05-13T10:03:29Z</time>
      </trkpt>
      <trkpt lat="45.93714" lon="5.71202">
        <ele>637.2</ele>
        <time>2026-05-13T10:03:30Z</time>
      </trkpt>
      <trkpt lat="45.93716" lon="5.71202">
        <ele>637.2</ele>
        <time>2026-05-13T10:03:31Z</time>
      </trkpt>
      <trkpt lat="45.93718" lon="5.71202">
        <ele>637.4</ele>
        <time>2026-05-13T10:03:32Z</time>
      </trkpt>
      <trkpt lat="45.93719" lon="5.71203">
        <ele>637.4</ele>
        <time>2026-05-13T10:03:33Z</time>
      </trkpt>
      <trkpt lat="45.93722" lon="5.71203">
        <ele>637.4</ele>
        <time>2026-05-13T10:03:34Z</time>
      </trkpt>
      <trkpt lat="45.93724" lon="5.71204">
        <ele>637.4</ele>
        <time>2026-05-13T10:03:35Z</time>
      </trkpt>
      <trkpt lat="45.93726" lon="5.71204">
        <ele>637.4</ele>
        <time>2026-05-13T10:03:36Z</time>
      </trkpt>
      <trkpt lat="45.93728" lon="5.71205">
        <ele>637.6</ele>
        <time>2026-05-13T10:03:37Z</time>
      </trkpt>
      <trkpt lat="45.9373" lon="5.71206">
        <ele>637.6</ele>
        <time>2026-05-13T10:03:38Z</time>
      </trkpt>
      <trkpt lat="45.93732" lon="5.71206">
        <ele>637.6</ele>
        <time>2026-05-13T10:03:39Z</time>
      </trkpt>
      <trkpt lat="45.93734" lon="5.71207">
        <ele>637.6</ele>
        <time>2026-05-13T10:03:40Z</time>
      </trkpt>
      <trkpt lat="45.93736" lon="5.71208">
        <ele>637.6</ele>
        <time>2026-05-13T10:03:41Z</time>
      </trkpt>
      <trkpt lat="45.93738" lon="5.71209">
        <ele>637.6</ele>
        <time>2026-05-13T10:03:42Z</time>
      </trkpt>
      <trkpt lat="45.9374" lon="5.7121">
        <ele>638</ele>
        <time>2026-05-13T10:03:43Z</time>
      </trkpt>
      <trkpt lat="45.93743" lon="5.71211">
        <ele>638</ele>
        <time>2026-05-13T10:03:44Z</time>
      </trkpt>
      <trkpt lat="45.93745" lon="5.71212">
        <ele>638.4</ele>
        <time>2026-05-13T10:03:45Z</time>
      </trkpt>
      <trkpt lat="45.93748" lon="5.71213">
        <ele>638.4</ele>
        <time>2026-05-13T10:03:46Z</time>
      </trkpt>
      <trkpt lat="45.93751" lon="5.71214">
        <ele>638.4</ele>
        <time>2026-05-13T10:03:47Z</time>
      </trkpt>
      <trkpt lat="45.93753" lon="5.71215">
        <ele>638.4</ele>
        <time>2026-05-13T10:03:48Z</time>
      </trkpt>
      <trkpt lat="45.93756" lon="5.71216">
        <ele>638.4</ele>
        <time>2026-05-13T10:03:49Z</time>
      </trkpt>
      <trkpt lat="45.93759" lon="5.71217">
        <ele>638.4</ele>
        <time>2026-05-13T10:03:50Z</time>
      </trkpt>
      <trkpt lat="45.93763" lon="5.71217">
        <ele>638.6</ele>
        <time>2026-05-13T10:03:51Z</time>
      </trkpt>
      <trkpt lat="45.93766" lon="5.71217">
        <ele>638</ele>
        <time>2026-05-13T10:03:52Z</time>
      </trkpt>
      <trkpt lat="45.93769" lon="5.71218">
        <ele>638</ele>
        <time>2026-05-13T10:03:53Z</time>
      </trkpt>
      <trkpt lat="45.93772" lon="5.71219">
        <ele>638</ele>
        <time>2026-05-13T10:03:54Z</time>
      </trkpt>
      <trkpt lat="45.93775" lon="5.7122">
        <ele>639</ele>
        <time>2026-05-13T10:03:55Z</time>
      </trkpt>
      <trkpt lat="45.93777" lon="5.71222">
        <ele>639</ele>
        <time>2026-05-13T10:03:56Z</time>
      </trkpt>
      <trkpt lat="45.93779" lon="5.71223">
        <ele>639</ele>
        <time>2026-05-13T10:03:57Z</time>
      </trkpt>
      <trkpt lat="45.93781" lon="5.71225">
        <ele>639</ele>
        <time>2026-05-13T10:03:58Z</time>
      </trkpt>
      <trkpt lat="45.93783" lon="5.71227">
        <ele>639</ele>
        <time>2026-05-13T10:03:59Z</time>
      </trkpt>
      <trkpt lat="45.93786" lon="5.71229">
        <ele>639.2</ele>
        <time>2026-05-13T10:04:00Z</time>
      </trkpt>
      <trkpt lat="45.93788" lon="5.7123">
        <ele>639.2</ele>
        <time>2026-05-13T10:04:01Z</time>
      </trkpt>
      <trkpt lat="45.9379" lon="5.71232">
        <ele>639.2</ele>
        <time>2026-05-13T10:04:02Z</time>
      </trkpt>
      <trkpt lat="45.93792" lon="5.71233">
        <ele>639</ele>
        <time>2026-05-13T10:04:03Z</time>
      </trkpt>
      <trkpt lat="45.93795" lon="5.71235">
        <ele>639</ele>
        <time>2026-05-13T10:04:04Z</time>
      </trkpt>
      <trkpt lat="45.93798" lon="5.71238">
        <ele>639</ele>
        <time>2026-05-13T10:04:05Z</time>
      </trkpt>
      <trkpt lat="45.938" lon="5.71239">
        <ele>639</ele>
        <time>2026-05-13T10:04:06Z</time>
      </trkpt>
      <trkpt lat="45.93802" lon="5.7124">
        <ele>639</ele>
        <time>2026-05-13T10:04:07Z</time>
      </trkpt>
      <trkpt lat="45.93803" lon="5.71241">
        <ele>638.8</ele>
        <time>2026-05-13T10:04:08Z</time>
      </trkpt>
      <trkpt lat="45.93805" lon="5.71243">
        <ele>638.8</ele>
        <time>2026-05-13T10:04:09Z</time>
      </trkpt>
      <trkpt lat="45.93807" lon="5.71246">
        <ele>638.8</ele>
        <time>2026-05-13T10:04:10Z</time>
      </trkpt>
      <trkpt lat="45.9381" lon="5.71249">
        <ele>638.8</ele>
        <time>2026-05-13T10:04:11Z</time>
      </trkpt>
      <trkpt lat="45.93813" lon="5.71252">
        <ele>638.8</ele>
        <time>2026-05-13T10:04:12Z</time>
      </trkpt>
      <trkpt lat="45.93816" lon="5.71254">
        <ele>639</ele>
        <time>2026-05-13T10:04:13Z</time>
      </trkpt>
      <trkpt lat="45.93819" lon="5.71256">
        <ele>639</ele>
        <time>2026-05-13T10:04:14Z</time>
      </trkpt>
      <trkpt lat="45.93821" lon="5.71258">
        <ele>639</ele>
        <time>2026-05-13T10:04:15Z</time>
      </trkpt>
      <trkpt lat="45.93823" lon="5.71261">
        <ele>639</ele>
        <time>2026-05-13T10:04:16Z</time>
      </trkpt>
      <trkpt lat="45.93826" lon="5.71264">
        <ele>639</ele>
        <time>2026-05-13T10:04:17Z</time>
      </trkpt>
      <trkpt lat="45.93829" lon="5.71267">
        <ele>639</ele>
        <time>2026-05-13T10:04:18Z</time>
      </trkpt>
      <trkpt lat="45.93832" lon="5.7127">
        <ele>639</ele>
        <time>2026-05-13T10:04:19Z</time>
      </trkpt>
      <trkpt lat="45.93834" lon="5.71273">
        <ele>639</ele>
        <time>2026-05-13T10:04:20Z</time>
      </trkpt>
      <trkpt lat="45.93837" lon="5.71276">
        <ele>638.8</ele>
        <time>2026-05-13T10:04:21Z</time>
      </trkpt>
      <trkpt lat="45.93839" lon="5.71279">
        <ele>638.8</ele>
        <time>2026-05-13T10:04:22Z</time>
      </trkpt>
      <trkpt lat="45.93841" lon="5.71281">
        <ele>638.8</ele>
        <time>2026-05-13T10:04:23Z</time>
      </trkpt>
      <trkpt lat="45.93844" lon="5.71285">
        <ele>638.8</ele>
        <time>2026-05-13T10:04:24Z</time>
      </trkpt>
      <trkpt lat="45.93846" lon="5.71288">
        <ele>638.8</ele>
        <time>2026-05-13T10:04:25Z</time>
      </trkpt>
      <trkpt lat="45.93849" lon="5.71292">
        <ele>638.8</ele>
        <time>2026-05-13T10:04:26Z</time>
      </trkpt>
      <trkpt lat="45.93851" lon="5.71296">
        <ele>638.8</ele>
        <time>2026-05-13T10:04:27Z</time>
      </trkpt>
      <trkpt lat="45.93854" lon="5.71299">
        <ele>638.8</ele>
        <time>2026-05-13T10:04:28Z</time>
      </trkpt>
      <trkpt lat="45.93857" lon="5.71303">
        <ele>638.8</ele>
        <time>2026-05-13T10:04:29Z</time>
      </trkpt>
      <trkpt lat="45.93859" lon="5.71306">
        <ele>638.8</ele>
        <time>2026-05-13T10:04:30Z</time>
      </trkpt>
      <trkpt lat="45.93862" lon="5.71309">
        <ele>638.8</ele>
        <time>2026-05-13T10:04:31Z</time>
      </trkpt>
      <trkpt lat="45.93864" lon="5.71313">
        <ele>638.8</ele>
        <time>2026-05-13T10:04:32Z</time>
      </trkpt>
      <trkpt lat="45.93867" lon="5.71316">
        <ele>639.2</ele>
        <time>2026-05-13T10:04:33Z</time>
      </trkpt>
      <trkpt lat="45.93869" lon="5.71318">
        <ele>639.2</ele>
        <time>2026-05-13T10:04:34Z</time>
      </trkpt>
      <trkpt lat="45.93873" lon="5.71323">
        <ele>639.2</ele>
        <time>2026-05-13T10:04:35Z</time>
      </trkpt>
      <trkpt lat="45.93875" lon="5.71326">
        <ele>639.2</ele>
        <time>2026-05-13T10:04:36Z</time>
      </trkpt>
      <trkpt lat="45.93877" lon="5.71329">
        <ele>639.2</ele>
        <time>2026-05-13T10:04:37Z</time>
      </trkpt>
      <trkpt lat="45.93878" lon="5.71331">
        <ele>639.2</ele>
        <time>2026-05-13T10:04:38Z</time>
      </trkpt>
      <trkpt lat="45.9388" lon="5.71334">
        <ele>639.2</ele>
        <time>2026-05-13T10:04:39Z</time>
      </trkpt>
      <trkpt lat="45.93881" lon="5.71337">
        <ele>639.2</ele>
        <time>2026-05-13T10:04:40Z</time>
      </trkpt>
      <trkpt lat="45.93881" lon="5.71339">
        <ele>639.2</ele>
        <time>2026-05-13T10:04:41Z</time>
      </trkpt>
      <trkpt lat="45.93881" lon="5.71342">
        <ele>639.2</ele>
        <time>2026-05-13T10:04:42Z</time>
      </trkpt>
      <trkpt lat="45.93882" lon="5.71344">
        <ele>639.2</ele>
        <time>2026-05-13T10:04:43Z</time>
      </trkpt>
      <trkpt lat="45.93882" lon="5.71346">
        <ele>639.2</ele>
        <time>2026-05-13T10:04:44Z</time>
      </trkpt>
      <trkpt lat="45.93882" lon="5.71347">
        <ele>639.2</ele>
        <time>2026-05-13T10:04:45Z</time>
      </trkpt>
      <trkpt lat="45.93881" lon="5.71348">
        <ele>639.4</ele>
        <time>2026-05-13T10:04:46Z</time>
      </trkpt>
      <trkpt lat="45.93881" lon="5.71347">
        <ele>639.4</ele>
        <time>2026-05-13T10:04:47Z</time>
      </trkpt>
      <trkpt lat="45.9388" lon="5.71348">
        <ele>639.4</ele>
        <time>2026-05-13T10:05:01Z</time>
      </trkpt>
      <trkpt lat="45.9388" lon="5.71349">
        <ele>639.4</ele>
        <time>2026-05-13T10:05:02Z</time>
      </trkpt>
      <trkpt lat="45.9388" lon="5.71349">
        <ele>639.2</ele>
        <time>2026-05-13T10:05:03Z</time>
      </trkpt>
      <trkpt lat="45.93879" lon="5.71349">
        <ele>639.2</ele>
        <time>2026-05-13T10:05:04Z</time>
      </trkpt>
      <trkpt lat="45.93879" lon="5.71349">
        <ele>639.2</ele>
        <time>2026-05-13T10:05:05Z</time>
      </trkpt>
      <trkpt lat="45.93879" lon="5.71348">
        <ele>639.2</ele>
        <time>2026-05-13T10:05:06Z</time>
      </trkpt>
      <trkpt lat="45.93934" lon="5.71356">
        <ele>639.6</ele>
        <time>2026-05-13T10:27:22Z</time>
      </trkpt>
      <trkpt lat="45.93937" lon="5.71357">
        <ele>640</ele>
        <time>2026-05-13T10:27:23Z</time>
      </trkpt>
      <trkpt lat="45.9394" lon="5.71358">
        <ele>640</ele>
        <time>2026-05-13T10:27:24Z</time>
      </trkpt>
      <trkpt lat="45.93942" lon="5.71359">
        <ele>640.2</ele>
        <time>2026-05-13T10:27:25Z</time>
      </trkpt>
      <trkpt lat="45.93945" lon="5.7136">
        <ele>640.2</ele>
        <time>2026-05-13T10:27:26Z</time>
      </trkpt>
      <trkpt lat="45.93948" lon="5.71361">
        <ele>640.2</ele>
        <time>2026-05-13T10:27:27Z</time>
      </trkpt>
      <trkpt lat="45.93953" lon="5.71365">
        <ele>640.2</ele>
        <time>2026-05-13T10:27:28Z</time>
      </trkpt>
      <trkpt lat="45.93956" lon="5.71366">
        <ele>640.6</ele>
        <time>2026-05-13T10:27:29Z</time>
      </trkpt>
      <trkpt lat="45.93957" lon="5.71368">
        <ele>640.6</ele>
        <time>2026-05-13T10:27:30Z</time>
      </trkpt>
      <trkpt lat="45.93959" lon="5.71371">
        <ele>640.6</ele>
        <time>2026-05-13T10:27:31Z</time>
      </trkpt>
      <trkpt lat="45.93961" lon="5.71373">
        <ele>640.8</ele>
        <time>2026-05-13T10:27:32Z</time>
      </trkpt>
      <trkpt lat="45.93962" lon="5.71375">
        <ele>640.8</ele>
        <time>2026-05-13T10:27:33Z</time>
      </trkpt>
      <trkpt lat="45.93964" lon="5.71378">
        <ele>641</ele>
        <time>2026-05-13T10:27:34Z</time>
      </trkpt>
      <trkpt lat="45.93966" lon="5.71382">
        <ele>641</ele>
        <time>2026-05-13T10:27:35Z</time>
      </trkpt>
      <trkpt lat="45.93967" lon="5.71386">
        <ele>641</ele>
        <time>2026-05-13T10:27:36Z</time>
      </trkpt>
      <trkpt lat="45.93968" lon="5.7139">
        <ele>641</ele>
        <time>2026-05-13T10:27:37Z</time>
      </trkpt>
      <trkpt lat="45.93969" lon="5.71394">
        <ele>641</ele>
        <time>2026-05-13T10:27:38Z</time>
      </trkpt>
      <trkpt lat="45.93968" lon="5.71398">
        <ele>641</ele>
        <time>2026-05-13T10:27:39Z</time>
      </trkpt>
      <trkpt lat="45.93966" lon="5.71403">
        <ele>641.2</ele>
        <time>2026-05-13T10:27:40Z</time>
      </trkpt>
      <trkpt lat="45.93964" lon="5.71406">
        <ele>641.2</ele>
        <time>2026-05-13T10:27:41Z</time>
      </trkpt>
      <trkpt lat="45.93962" lon="5.71408">
        <ele>641.8</ele>
        <time>2026-05-13T10:27:42Z</time>
      </trkpt>
      <trkpt lat="45.9396" lon="5.71409">
        <ele>641.8</ele>
        <time>2026-05-13T10:27:43Z</time>
      </trkpt>
      <trkpt lat="45.93957" lon="5.7141">
        <ele>642.2</ele>
        <time>2026-05-13T10:27:44Z</time>
      </trkpt>
      <trkpt lat="45.93954" lon="5.7141">
        <ele>642.4</ele>
        <time>2026-05-13T10:27:45Z</time>
      </trkpt>
      <trkpt lat="45.93951" lon="5.71411">
        <ele>642.8</ele>
        <time>2026-05-13T10:27:46Z</time>
      </trkpt>
      <trkpt lat="45.93948" lon="5.71411">
        <ele>642.8</ele>
        <time>2026-05-13T10:27:47Z</time>
      </trkpt>
      <trkpt lat="45.93945" lon="5.71412">
        <ele>643</ele>
        <time>2026-05-13T10:27:48Z</time>
      </trkpt>
      <trkpt lat="45.93942" lon="5.71412">
        <ele>643</ele>
        <time>2026-05-13T10:27:49Z</time>
      </trkpt>
      <trkpt lat="45.9394" lon="5.71414">
        <ele>643</ele>
        <time>2026-05-13T10:27:50Z</time>
      </trkpt>
      <trkpt lat="45.93937" lon="5.71415">
        <ele>643</ele>
        <time>2026-05-13T10:27:51Z</time>
      </trkpt>
      <trkpt lat="45.93934" lon="5.71416">
        <ele>643</ele>
        <time>2026-05-13T10:27:52Z</time>
      </trkpt>
      <trkpt lat="45.93931" lon="5.71417">
        <ele>643.4</ele>
        <time>2026-05-13T10:27:53Z</time>
      </trkpt>
      <trkpt lat="45.93929" lon="5.71418">
        <ele>643.4</ele>
        <time>2026-05-13T10:27:54Z</time>
      </trkpt>
      <trkpt lat="45.93926" lon="5.71419">
        <ele>643.4</ele>
        <time>2026-05-13T10:27:55Z</time>
      </trkpt>
      <trkpt lat="45.93924" lon="5.7142">
        <ele>643.4</ele>
        <time>2026-05-13T10:27:56Z</time>
      </trkpt>
      <trkpt lat="45.93922" lon="5.71421">
        <ele>643.4</ele>
        <time>2026-05-13T10:27:57Z</time>
      </trkpt>
      <trkpt lat="45.9392" lon="5.71422">
        <ele>643.4</ele>
        <time>2026-05-13T10:27:58Z</time>
      </trkpt>
      <trkpt lat="45.93917" lon="5.71423">
        <ele>643.4</ele>
        <time>2026-05-13T10:27:59Z</time>
      </trkpt>
      <trkpt lat="45.93914" lon="5.71425">
        <ele>643.4</ele>
        <time>2026-05-13T10:28:00Z</time>
      </trkpt>
      <trkpt lat="45.93911" lon="5.71427">
        <ele>643.4</ele>
        <time>2026-05-13T10:28:01Z</time>
      </trkpt>
      <trkpt lat="45.93908" lon="5.71428">
        <ele>643.4</ele>
        <time>2026-05-13T10:28:02Z</time>
      </trkpt>
      <trkpt lat="45.93903" lon="5.71428">
        <ele>643.4</ele>
        <time>2026-05-13T10:28:03Z</time>
      </trkpt>
      <trkpt lat="45.93897" lon="5.71427">
        <ele>643</ele>
        <time>2026-05-13T10:28:04Z</time>
      </trkpt>
      <trkpt lat="45.93892" lon="5.71429">
        <ele>642.6</ele>
        <time>2026-05-13T10:28:05Z</time>
      </trkpt>
      <trkpt lat="45.93888" lon="5.7143">
        <ele>642.6</ele>
        <time>2026-05-13T10:28:06Z</time>
      </trkpt>
      <trkpt lat="45.93883" lon="5.71431">
        <ele>642.2</ele>
        <time>2026-05-13T10:28:07Z</time>
      </trkpt>
      <trkpt lat="45.93877" lon="5.71431">
        <ele>641.8</ele>
        <time>2026-05-13T10:28:08Z</time>
      </trkpt>
      <trkpt lat="45.93872" lon="5.7143">
        <ele>641.8</ele>
        <time>2026-05-13T10:28:09Z</time>
      </trkpt>
      <trkpt lat="45.93866" lon="5.7143">
        <ele>641.4</ele>
        <time>2026-05-13T10:28:10Z</time>
      </trkpt>
      <trkpt lat="45.93862" lon="5.71428">
        <ele>641.2</ele>
        <time>2026-05-13T10:28:11Z</time>
      </trkpt>
      <trkpt lat="45.93858" lon="5.71427">
        <ele>641.2</ele>
        <time>2026-05-13T10:28:12Z</time>
      </trkpt>
      <trkpt lat="45.93855" lon="5.71424">
        <ele>641.6</ele>
        <time>2026-05-13T10:28:13Z</time>
      </trkpt>
      <trkpt lat="45.93851" lon="5.71422">
        <ele>641.6</ele>
        <time>2026-05-13T10:28:14Z</time>
      </trkpt>
      <trkpt lat="45.93849" lon="5.71418">
        <ele>641.6</ele>
        <time>2026-05-13T10:28:15Z</time>
      </trkpt>
      <trkpt lat="45.93846" lon="5.71415">
        <ele>642</ele>
        <time>2026-05-13T10:28:16Z</time>
      </trkpt>
      <trkpt lat="45.93843" lon="5.71411">
        <ele>642.4</ele>
        <time>2026-05-13T10:28:17Z</time>
      </trkpt>
      <trkpt lat="45.93839" lon="5.71407">
        <ele>642.6</ele>
        <time>2026-05-13T10:28:18Z</time>
      </trkpt>
      <trkpt lat="45.93836" lon="5.71404">
        <ele>642.6</ele>
        <time>2026-05-13T10:28:19Z</time>
      </trkpt>
      <trkpt lat="45.93834" lon="5.71401">
        <ele>642.6</ele>
        <time>2026-05-13T10:28:20Z</time>
      </trkpt>
      <trkpt lat="45.9383" lon="5.71397">
        <ele>643.2</ele>
        <time>2026-05-13T10:28:21Z</time>
      </trkpt>
      <trkpt lat="45.93826" lon="5.71394">
        <ele>643.2</ele>
        <time>2026-05-13T10:28:22Z</time>
      </trkpt>
      <trkpt lat="45.93821" lon="5.71393">
        <ele>643.2</ele>
        <time>2026-05-13T10:28:23Z</time>
      </trkpt>
      <trkpt lat="45.93817" lon="5.71392">
        <ele>642.8</ele>
        <time>2026-05-13T10:28:24Z</time>
      </trkpt>
      <trkpt lat="45.93813" lon="5.71391">
        <ele>642.8</ele>
        <time>2026-05-13T10:28:25Z</time>
      </trkpt>
      <trkpt lat="45.93808" lon="5.71391">
        <ele>642.2</ele>
        <time>2026-05-13T10:28:26Z</time>
      </trkpt>
      <trkpt lat="45.93803" lon="5.71391">
        <ele>642.2</ele>
        <time>2026-05-13T10:28:27Z</time>
      </trkpt>
      <trkpt lat="45.93799" lon="5.71391">
        <ele>642</ele>
        <time>2026-05-13T10:28:28Z</time>
      </trkpt>
      <trkpt lat="45.93794" lon="5.71392">
        <ele>642</ele>
        <time>2026-05-13T10:28:29Z</time>
      </trkpt>
      <trkpt lat="45.9379" lon="5.71392">
        <ele>642</ele>
        <time>2026-05-13T10:28:30Z</time>
      </trkpt>
      <trkpt lat="45.93786" lon="5.71393">
        <ele>641.8</ele>
        <time>2026-05-13T10:28:31Z</time>
      </trkpt>
      <trkpt lat="45.93782" lon="5.71394">
        <ele>641.8</ele>
        <time>2026-05-13T10:28:32Z</time>
      </trkpt>
      <trkpt lat="45.93777" lon="5.71395">
        <ele>641.8</ele>
        <time>2026-05-13T10:28:33Z</time>
      </trkpt>
      <trkpt lat="45.93773" lon="5.71396">
        <ele>641.2</ele>
        <time>2026-05-13T10:28:34Z</time>
      </trkpt>
      <trkpt lat="45.93766" lon="5.71397">
        <ele>640.8</ele>
        <time>2026-05-13T10:28:35Z</time>
      </trkpt>
      <trkpt lat="45.9376" lon="5.71399">
        <ele>640.8</ele>
        <time>2026-05-13T10:28:36Z</time>
      </trkpt>
      <trkpt lat="45.93754" lon="5.71402">
        <ele>640.2</ele>
        <time>2026-05-13T10:28:37Z</time>
      </trkpt>
      <trkpt lat="45.93747" lon="5.71406">
        <ele>639.2</ele>
        <time>2026-05-13T10:28:38Z</time>
      </trkpt>
      <trkpt lat="45.93741" lon="5.71411">
        <ele>638.4</ele>
        <time>2026-05-13T10:28:39Z</time>
      </trkpt>
      <trkpt lat="45.93735" lon="5.71417">
        <ele>637.8</ele>
        <time>2026-05-13T10:28:40Z</time>
      </trkpt>
      <trkpt lat="45.93728" lon="5.71422">
        <ele>637.4</ele>
        <time>2026-05-13T10:28:41Z</time>
      </trkpt>
      <trkpt lat="45.93722" lon="5.71427">
        <ele>636.8</ele>
        <time>2026-05-13T10:28:42Z</time>
      </trkpt>
      <trkpt lat="45.93716" lon="5.71433">
        <ele>636.4</ele>
        <time>2026-05-13T10:28:43Z</time>
      </trkpt>
      <trkpt lat="45.93712" lon="5.71436">
        <ele>636.4</ele>
        <time>2026-05-13T10:28:44Z</time>
      </trkpt>
      <trkpt lat="45.93707" lon="5.71441">
        <ele>635.8</ele>
        <time>2026-05-13T10:28:45Z</time>
      </trkpt>
      <trkpt lat="45.93702" lon="5.71448">
        <ele>635.4</ele>
        <time>2026-05-13T10:28:46Z</time>
      </trkpt>
      <trkpt lat="45.93698" lon="5.71455">
        <ele>635.2</ele>
        <time>2026-05-13T10:28:47Z</time>
      </trkpt>
      <trkpt lat="45.93696" lon="5.71464">
        <ele>634.6</ele>
        <time>2026-05-13T10:28:48Z</time>
      </trkpt>
      <trkpt lat="45.93694" lon="5.71475">
        <ele>634.2</ele>
        <time>2026-05-13T10:28:49Z</time>
      </trkpt>
      <trkpt lat="45.93692" lon="5.71487">
        <ele>634.2</ele>
        <time>2026-05-13T10:28:50Z</time>
      </trkpt>
      <trkpt lat="45.93692" lon="5.71499">
        <ele>633.2</ele>
        <time>2026-05-13T10:28:51Z</time>
      </trkpt>
      <trkpt lat="45.93692" lon="5.71512">
        <ele>632.4</ele>
        <time>2026-05-13T10:28:52Z</time>
      </trkpt>
      <trkpt lat="45.93691" lon="5.71526">
        <ele>631.2</ele>
        <time>2026-05-13T10:28:53Z</time>
      </trkpt>
      <trkpt lat="45.9369" lon="5.71541">
        <ele>630</ele>
        <time>2026-05-13T10:28:54Z</time>
      </trkpt>
      <trkpt lat="45.9369" lon="5.71555">
        <ele>629</ele>
        <time>2026-05-13T10:28:55Z</time>
      </trkpt>
      <trkpt lat="45.93689" lon="5.71567">
        <ele>627.8</ele>
        <time>2026-05-13T10:28:56Z</time>
      </trkpt>
      <trkpt lat="45.93688" lon="5.71579">
        <ele>626.8</ele>
        <time>2026-05-13T10:28:57Z</time>
      </trkpt>
      <trkpt lat="45.93682" lon="5.71588">
        <ele>626.4</ele>
        <time>2026-05-13T10:28:58Z</time>
      </trkpt>
      <trkpt lat="45.93677" lon="5.71596">
        <ele>625.8</ele>
        <time>2026-05-13T10:28:59Z</time>
      </trkpt>
      <trkpt lat="45.93672" lon="5.71602">
        <ele>625.2</ele>
        <time>2026-05-13T10:29:00Z</time>
      </trkpt>
      <trkpt lat="45.93665" lon="5.71608">
        <ele>624.8</ele>
        <time>2026-05-13T10:29:01Z</time>
      </trkpt>
      <trkpt lat="45.93659" lon="5.71616">
        <ele>623.8</ele>
        <time>2026-05-13T10:29:02Z</time>
      </trkpt>
      <trkpt lat="45.93656" lon="5.71625">
        <ele>622.4</ele>
        <time>2026-05-13T10:29:03Z</time>
      </trkpt>
      <trkpt lat="45.93651" lon="5.71636">
        <ele>621.6</ele>
        <time>2026-05-13T10:29:04Z</time>
      </trkpt>
      <trkpt lat="45.93649" lon="5.71648">
        <ele>620.2</ele>
        <time>2026-05-13T10:29:05Z</time>
      </trkpt>
      <trkpt lat="45.93646" lon="5.71664">
        <ele>619.4</ele>
        <time>2026-05-13T10:29:06Z</time>
      </trkpt>
      <trkpt lat="45.93644" lon="5.71678">
        <ele>619</ele>
        <time>2026-05-13T10:29:07Z</time>
      </trkpt>
      <trkpt lat="45.93642" lon="5.71691">
        <ele>618.2</ele>
        <time>2026-05-13T10:29:08Z</time>
      </trkpt>
      <trkpt lat="45.93639" lon="5.71705">
        <ele>618</ele>
        <time>2026-05-13T10:29:09Z</time>
      </trkpt>
      <trkpt lat="45.93637" lon="5.71717">
        <ele>617.6</ele>
        <time>2026-05-13T10:29:10Z</time>
      </trkpt>
      <trkpt lat="45.93634" lon="5.71728">
        <ele>617.4</ele>
        <time>2026-05-13T10:29:11Z</time>
      </trkpt>
      <trkpt lat="45.93632" lon="5.71739">
        <ele>617.4</ele>
        <time>2026-05-13T10:29:12Z</time>
      </trkpt>
      <trkpt lat="45.93629" lon="5.71748">
        <ele>617.4</ele>
        <time>2026-05-13T10:29:13Z</time>
      </trkpt>
      <trkpt lat="45.93627" lon="5.71757">
        <ele>616.8</ele>
        <time>2026-05-13T10:29:14Z</time>
      </trkpt>
      <trkpt lat="45.93624" lon="5.71767">
        <ele>616.6</ele>
        <time>2026-05-13T10:29:15Z</time>
      </trkpt>
      <trkpt lat="45.93621" lon="5.71775">
        <ele>616.2</ele>
        <time>2026-05-13T10:29:16Z</time>
      </trkpt>
      <trkpt lat="45.93621" lon="5.71775">
        <ele>616.2</ele>
        <time>2026-05-13T10:29:17Z</time>
      </trkpt>
      <trkpt lat="45.93619" lon="5.71784">
        <ele>616</ele>
        <time>2026-05-13T10:29:18Z</time>
      </trkpt>
      <trkpt lat="45.93616" lon="5.71793">
        <ele>615.4</ele>
        <time>2026-05-13T10:29:19Z</time>
      </trkpt>
      <trkpt lat="45.93614" lon="5.71803">
        <ele>615.2</ele>
        <time>2026-05-13T10:29:20Z</time>
      </trkpt>
      <trkpt lat="45.93611" lon="5.71812">
        <ele>614.4</ele>
        <time>2026-05-13T10:29:21Z</time>
      </trkpt>
      <trkpt lat="45.93609" lon="5.71821">
        <ele>614</ele>
        <time>2026-05-13T10:29:22Z</time>
      </trkpt>
      <trkpt lat="45.93607" lon="5.71831">
        <ele>613.6</ele>
        <time>2026-05-13T10:29:23Z</time>
      </trkpt>
      <trkpt lat="45.93605" lon="5.71841">
        <ele>613.4</ele>
        <time>2026-05-13T10:29:24Z</time>
      </trkpt>
      <trkpt lat="45.93603" lon="5.71852">
        <ele>613.4</ele>
        <time>2026-05-13T10:29:25Z</time>
      </trkpt>
      <trkpt lat="45.93601" lon="5.71863">
        <ele>612.8</ele>
        <time>2026-05-13T10:29:26Z</time>
      </trkpt>
      <trkpt lat="45.936" lon="5.71874">
        <ele>612.4</ele>
        <time>2026-05-13T10:29:27Z</time>
      </trkpt>
      <trkpt lat="45.93599" lon="5.71884">
        <ele>612.4</ele>
        <time>2026-05-13T10:29:28Z</time>
      </trkpt>
      <trkpt lat="45.93597" lon="5.71895">
        <ele>612.2</ele>
        <time>2026-05-13T10:29:29Z</time>
      </trkpt>
      <trkpt lat="45.93597" lon="5.71905">
        <ele>612</ele>
        <time>2026-05-13T10:29:30Z</time>
      </trkpt>
      <trkpt lat="45.93595" lon="5.71915">
        <ele>612</ele>
        <time>2026-05-13T10:29:31Z</time>
      </trkpt>
      <trkpt lat="45.93595" lon="5.71925">
        <ele>611.6</ele>
        <time>2026-05-13T10:29:32Z</time>
      </trkpt>
      <trkpt lat="45.93595" lon="5.71936">
        <ele>611.6</ele>
        <time>2026-05-13T10:29:33Z</time>
      </trkpt>
      <trkpt lat="45.93596" lon="5.71946">
        <ele>611.4</ele>
        <time>2026-05-13T10:29:34Z</time>
      </trkpt>
      <trkpt lat="45.93596" lon="5.71956">
        <ele>611.4</ele>
        <time>2026-05-13T10:29:35Z</time>
      </trkpt>
      <trkpt lat="45.93597" lon="5.71966">
        <ele>611.4</ele>
        <time>2026-05-13T10:29:36Z</time>
      </trkpt>
      <trkpt lat="45.93598" lon="5.71975">
        <ele>611.4</ele>
        <time>2026-05-13T10:29:37Z</time>
      </trkpt>
      <trkpt lat="45.93599" lon="5.71984">
        <ele>611.4</ele>
        <time>2026-05-13T10:29:38Z</time>
      </trkpt>
      <trkpt lat="45.936" lon="5.71993">
        <ele>611.4</ele>
        <time>2026-05-13T10:29:39Z</time>
      </trkpt>
      <trkpt lat="45.93601" lon="5.72001">
        <ele>611.4</ele>
        <time>2026-05-13T10:29:40Z</time>
      </trkpt>
      <trkpt lat="45.936" lon="5.72009">
        <ele>611.6</ele>
        <time>2026-05-13T10:29:41Z</time>
      </trkpt>
      <trkpt lat="45.93598" lon="5.72018">
        <ele>611.6</ele>
        <time>2026-05-13T10:29:42Z</time>
      </trkpt>
      <trkpt lat="45.93596" lon="5.72025">
        <ele>611.6</ele>
        <time>2026-05-13T10:29:43Z</time>
      </trkpt>
      <trkpt lat="45.93591" lon="5.7203">
        <ele>611.4</ele>
        <time>2026-05-13T10:29:44Z</time>
      </trkpt>
      <trkpt lat="45.93586" lon="5.72033">
        <ele>611</ele>
        <time>2026-05-13T10:29:45Z</time>
      </trkpt>
      <trkpt lat="45.9358" lon="5.72034">
        <ele>610.4</ele>
        <time>2026-05-13T10:29:46Z</time>
      </trkpt>
      <trkpt lat="45.93573" lon="5.72032">
        <ele>610.4</ele>
        <time>2026-05-13T10:29:47Z</time>
      </trkpt>
      <trkpt lat="45.93568" lon="5.72026">
        <ele>610</ele>
        <time>2026-05-13T10:29:48Z</time>
      </trkpt>
      <trkpt lat="45.93564" lon="5.72019">
        <ele>609.6</ele>
        <time>2026-05-13T10:29:49Z</time>
      </trkpt>
      <trkpt lat="45.93561" lon="5.72011">
        <ele>609.6</ele>
        <time>2026-05-13T10:29:50Z</time>
      </trkpt>
      <trkpt lat="45.93558" lon="5.72004">
        <ele>609</ele>
        <time>2026-05-13T10:29:51Z</time>
      </trkpt>
      <trkpt lat="45.93553" lon="5.71998">
        <ele>608.2</ele>
        <time>2026-05-13T10:29:52Z</time>
      </trkpt>
      <trkpt lat="45.93547" lon="5.71992">
        <ele>607.6</ele>
        <time>2026-05-13T10:29:53Z</time>
      </trkpt>
      <trkpt lat="45.93541" lon="5.71991">
        <ele>607.2</ele>
        <time>2026-05-13T10:29:54Z</time>
      </trkpt>
      <trkpt lat="45.93535" lon="5.71993">
        <ele>607</ele>
        <time>2026-05-13T10:29:55Z</time>
      </trkpt>
      <trkpt lat="45.9353" lon="5.71997">
        <ele>606.8</ele>
        <time>2026-05-13T10:29:56Z</time>
      </trkpt>
      <trkpt lat="45.93527" lon="5.72003">
        <ele>606.2</ele>
        <time>2026-05-13T10:29:57Z</time>
      </trkpt>
      <trkpt lat="45.93526" lon="5.72012">
        <ele>605.8</ele>
        <time>2026-05-13T10:29:58Z</time>
      </trkpt>
      <trkpt lat="45.93527" lon="5.7202">
        <ele>605.6</ele>
        <time>2026-05-13T10:29:59Z</time>
      </trkpt>
      <trkpt lat="45.9353" lon="5.72029">
        <ele>605</ele>
        <time>2026-05-13T10:30:00Z</time>
      </trkpt>
      <trkpt lat="45.93534" lon="5.72038">
        <ele>604.4</ele>
        <time>2026-05-13T10:30:01Z</time>
      </trkpt>
      <trkpt lat="45.93537" lon="5.72048">
        <ele>603.8</ele>
        <time>2026-05-13T10:30:02Z</time>
      </trkpt>
      <trkpt lat="45.93541" lon="5.72058">
        <ele>603</ele>
        <time>2026-05-13T10:30:03Z</time>
      </trkpt>
      <trkpt lat="45.93545" lon="5.72069">
        <ele>602</ele>
        <time>2026-05-13T10:30:04Z</time>
      </trkpt>
      <trkpt lat="45.93549" lon="5.7208">
        <ele>601.2</ele>
        <time>2026-05-13T10:30:05Z</time>
      </trkpt>
      <trkpt lat="45.93554" lon="5.72092">
        <ele>600.2</ele>
        <time>2026-05-13T10:30:06Z</time>
      </trkpt>
      <trkpt lat="45.93558" lon="5.72104">
        <ele>599.8</ele>
        <time>2026-05-13T10:30:07Z</time>
      </trkpt>
      <trkpt lat="45.93563" lon="5.72115">
        <ele>598.8</ele>
        <time>2026-05-13T10:30:08Z</time>
      </trkpt>
      <trkpt lat="45.93567" lon="5.72128">
        <ele>598.6</ele>
        <time>2026-05-13T10:30:09Z</time>
      </trkpt>
      <trkpt lat="45.93569" lon="5.72141">
        <ele>598.2</ele>
        <time>2026-05-13T10:30:10Z</time>
      </trkpt>
      <trkpt lat="45.93573" lon="5.72154">
        <ele>598.2</ele>
        <time>2026-05-13T10:30:11Z</time>
      </trkpt>
      <trkpt lat="45.93575" lon="5.72167">
        <ele>598</ele>
        <time>2026-05-13T10:30:12Z</time>
      </trkpt>
      <trkpt lat="45.93579" lon="5.72178">
        <ele>598</ele>
        <time>2026-05-13T10:30:13Z</time>
      </trkpt>
      <trkpt lat="45.93583" lon="5.7219">
        <ele>597.6</ele>
        <time>2026-05-13T10:30:14Z</time>
      </trkpt>
      <trkpt lat="45.93589" lon="5.72199">
        <ele>597.6</ele>
        <time>2026-05-13T10:30:15Z</time>
      </trkpt>
      <trkpt lat="45.93594" lon="5.72207">
        <ele>597.6</ele>
        <time>2026-05-13T10:30:16Z</time>
      </trkpt>
      <trkpt lat="45.936" lon="5.72214">
        <ele>597.8</ele>
        <time>2026-05-13T10:30:17Z</time>
      </trkpt>
      <trkpt lat="45.93605" lon="5.72221">
        <ele>598.2</ele>
        <time>2026-05-13T10:30:18Z</time>
      </trkpt>
      <trkpt lat="45.93611" lon="5.72227">
        <ele>598.6</ele>
        <time>2026-05-13T10:30:19Z</time>
      </trkpt>
      <trkpt lat="45.93616" lon="5.72234">
        <ele>598.6</ele>
        <time>2026-05-13T10:30:20Z</time>
      </trkpt>
      <trkpt lat="45.93621" lon="5.7224">
        <ele>598.8</ele>
        <time>2026-05-13T10:30:21Z</time>
      </trkpt>
      <trkpt lat="45.93626" lon="5.72246">
        <ele>599.2</ele>
        <time>2026-05-13T10:30:22Z</time>
      </trkpt>
      <trkpt lat="45.93631" lon="5.72252">
        <ele>599.2</ele>
        <time>2026-05-13T10:30:23Z</time>
      </trkpt>
      <trkpt lat="45.93636" lon="5.72257">
        <ele>599.2</ele>
        <time>2026-05-13T10:30:24Z</time>
      </trkpt>
      <trkpt lat="45.93642" lon="5.72261">
        <ele>599.2</ele>
        <time>2026-05-13T10:30:25Z</time>
      </trkpt>
      <trkpt lat="45.93649" lon="5.72265">
        <ele>599.2</ele>
        <time>2026-05-13T10:30:26Z</time>
      </trkpt>
      <trkpt lat="45.93655" lon="5.72268">
        <ele>599.2</ele>
        <time>2026-05-13T10:30:27Z</time>
      </trkpt>
      <trkpt lat="45.93661" lon="5.7227">
        <ele>598.8</ele>
        <time>2026-05-13T10:30:28Z</time>
      </trkpt>
      <trkpt lat="45.93669" lon="5.72272">
        <ele>598.2</ele>
        <time>2026-05-13T10:30:29Z</time>
      </trkpt>
      <trkpt lat="45.93675" lon="5.72275">
        <ele>598.2</ele>
        <time>2026-05-13T10:30:30Z</time>
      </trkpt>
      <trkpt lat="45.93682" lon="5.72277">
        <ele>598.2</ele>
        <time>2026-05-13T10:30:31Z</time>
      </trkpt>
      <trkpt lat="45.93688" lon="5.72278">
        <ele>598.2</ele>
        <time>2026-05-13T10:30:32Z</time>
      </trkpt>
      <trkpt lat="45.93694" lon="5.72281">
        <ele>598.2</ele>
        <time>2026-05-13T10:30:33Z</time>
      </trkpt>
      <trkpt lat="45.93701" lon="5.72282">
        <ele>597.8</ele>
        <time>2026-05-13T10:30:34Z</time>
      </trkpt>
      <trkpt lat="45.93707" lon="5.72284">
        <ele>597.8</ele>
        <time>2026-05-13T10:30:35Z</time>
      </trkpt>
      <trkpt lat="45.93713" lon="5.72285">
        <ele>598.2</ele>
        <time>2026-05-13T10:30:36Z</time>
      </trkpt>
      <trkpt lat="45.93719" lon="5.72285">
        <ele>598</ele>
        <time>2026-05-13T10:30:37Z</time>
      </trkpt>
      <trkpt lat="45.93732" lon="5.72287">
        <ele>598</ele>
        <time>2026-05-13T10:30:38Z</time>
      </trkpt>
      <trkpt lat="45.93738" lon="5.72288">
        <ele>597.8</ele>
        <time>2026-05-13T10:30:39Z</time>
      </trkpt>
      <trkpt lat="45.93744" lon="5.7229">
        <ele>598</ele>
        <time>2026-05-13T10:30:40Z</time>
      </trkpt>
      <trkpt lat="45.9375" lon="5.72292">
        <ele>598</ele>
        <time>2026-05-13T10:30:41Z</time>
      </trkpt>
      <trkpt lat="45.93756" lon="5.72294">
        <ele>598.4</ele>
        <time>2026-05-13T10:30:42Z</time>
      </trkpt>
      <trkpt lat="45.93762" lon="5.72297">
        <ele>598.4</ele>
        <time>2026-05-13T10:30:43Z</time>
      </trkpt>
      <trkpt lat="45.93767" lon="5.72302">
        <ele>598.4</ele>
        <time>2026-05-13T10:30:44Z</time>
      </trkpt>
      <trkpt lat="45.93772" lon="5.72306">
        <ele>598.4</ele>
        <time>2026-05-13T10:30:45Z</time>
      </trkpt>
      <trkpt lat="45.93777" lon="5.72312">
        <ele>598.4</ele>
        <time>2026-05-13T10:30:46Z</time>
      </trkpt>
      <trkpt lat="45.9378" lon="5.72316">
        <ele>598.6</ele>
        <time>2026-05-13T10:30:47Z</time>
      </trkpt>
      <trkpt lat="45.93784" lon="5.72321">
        <ele>599</ele>
        <time>2026-05-13T10:30:48Z</time>
      </trkpt>
      <trkpt lat="45.93789" lon="5.72325">
        <ele>599</ele>
        <time>2026-05-13T10:30:49Z</time>
      </trkpt>
      <trkpt lat="45.93794" lon="5.72329">
        <ele>599</ele>
        <time>2026-05-13T10:30:50Z</time>
      </trkpt>
      <trkpt lat="45.93799" lon="5.72332">
        <ele>599</ele>
        <time>2026-05-13T10:30:51Z</time>
      </trkpt>
      <trkpt lat="45.93804" lon="5.72334">
        <ele>599</ele>
        <time>2026-05-13T10:30:52Z</time>
      </trkpt>
      <trkpt lat="45.93809" lon="5.72336">
        <ele>599</ele>
        <time>2026-05-13T10:30:53Z</time>
      </trkpt>
      <trkpt lat="45.93812" lon="5.72338">
        <ele>599</ele>
        <time>2026-05-13T10:30:54Z</time>
      </trkpt>
      <trkpt lat="45.93819" lon="5.72338">
        <ele>599</ele>
        <time>2026-05-13T10:30:55Z</time>
      </trkpt>
      <trkpt lat="45.93825" lon="5.72338">
        <ele>599</ele>
        <time>2026-05-13T10:30:56Z</time>
      </trkpt>
      <trkpt lat="45.93831" lon="5.72336">
        <ele>598.6</ele>
        <time>2026-05-13T10:30:57Z</time>
      </trkpt>
      <trkpt lat="45.93837" lon="5.72336">
        <ele>598.6</ele>
        <time>2026-05-13T10:30:58Z</time>
      </trkpt>
      <trkpt lat="45.93844" lon="5.72337">
        <ele>598.6</ele>
        <time>2026-05-13T10:30:59Z</time>
      </trkpt>
      <trkpt lat="45.9385" lon="5.72335">
        <ele>598</ele>
        <time>2026-05-13T10:31:00Z</time>
      </trkpt>
      <trkpt lat="45.93857" lon="5.72337">
        <ele>597.8</ele>
        <time>2026-05-13T10:31:01Z</time>
      </trkpt>
      <trkpt lat="45.93863" lon="5.72339">
        <ele>597.8</ele>
        <time>2026-05-13T10:31:02Z</time>
      </trkpt>
      <trkpt lat="45.9387" lon="5.72337">
        <ele>597.8</ele>
        <time>2026-05-13T10:31:03Z</time>
      </trkpt>
      <trkpt lat="45.93874" lon="5.72338">
        <ele>597.8</ele>
        <time>2026-05-13T10:31:04Z</time>
      </trkpt>
      <trkpt lat="45.9388" lon="5.72338">
        <ele>597.8</ele>
        <time>2026-05-13T10:31:05Z</time>
      </trkpt>
      <trkpt lat="45.93885" lon="5.72339">
        <ele>598</ele>
        <time>2026-05-13T10:31:06Z</time>
      </trkpt>
      <trkpt lat="45.9389" lon="5.72339">
        <ele>598</ele>
        <time>2026-05-13T10:31:07Z</time>
      </trkpt>
      <trkpt lat="45.93894" lon="5.7234">
        <ele>598.2</ele>
        <time>2026-05-13T10:31:08Z</time>
      </trkpt>
      <trkpt lat="45.93898" lon="5.7234">
        <ele>598.2</ele>
        <time>2026-05-13T10:31:09Z</time>
      </trkpt>
      <trkpt lat="45.93903" lon="5.72342">
        <ele>598.2</ele>
        <time>2026-05-13T10:31:10Z</time>
      </trkpt>
      <trkpt lat="45.9391" lon="5.72344">
        <ele>598.6</ele>
        <time>2026-05-13T10:31:11Z</time>
      </trkpt>
      <trkpt lat="45.93915" lon="5.72344">
        <ele>598.6</ele>
        <time>2026-05-13T10:31:12Z</time>
      </trkpt>
      <trkpt lat="45.9392" lon="5.72349">
        <ele>598.6</ele>
        <time>2026-05-13T10:31:13Z</time>
      </trkpt>
      <trkpt lat="45.93923" lon="5.72354">
        <ele>598.6</ele>
        <time>2026-05-13T10:31:14Z</time>
      </trkpt>
      <trkpt lat="45.93928" lon="5.72359">
        <ele>598.6</ele>
        <time>2026-05-13T10:31:15Z</time>
      </trkpt>
      <trkpt lat="45.93931" lon="5.7237">
        <ele>598.6</ele>
        <time>2026-05-13T10:31:16Z</time>
      </trkpt>
      <trkpt lat="45.93933" lon="5.72377">
        <ele>598.8</ele>
        <time>2026-05-13T10:31:17Z</time>
      </trkpt>
      <trkpt lat="45.93925" lon="5.72383">
        <ele>598.8</ele>
        <time>2026-05-13T10:31:18Z</time>
      </trkpt>
      <trkpt lat="45.9392" lon="5.72387">
        <ele>598.8</ele>
        <time>2026-05-13T10:31:19Z</time>
      </trkpt>
      <trkpt lat="45.93915" lon="5.72389">
        <ele>598.8</ele>
        <time>2026-05-13T10:31:20Z</time>
      </trkpt>
      <trkpt lat="45.93911" lon="5.72389">
        <ele>598.8</ele>
        <time>2026-05-13T10:31:21Z</time>
      </trkpt>
      <trkpt lat="45.93907" lon="5.72392">
        <ele>599</ele>
        <time>2026-05-13T10:31:22Z</time>
      </trkpt>
      <trkpt lat="45.93902" lon="5.72395">
        <ele>599</ele>
        <time>2026-05-13T10:31:23Z</time>
      </trkpt>
      <trkpt lat="45.93899" lon="5.72398">
        <ele>599</ele>
        <time>2026-05-13T10:31:24Z</time>
      </trkpt>
      <trkpt lat="45.93896" lon="5.72401">
        <ele>599</ele>
        <time>2026-05-13T10:31:25Z</time>
      </trkpt>
      <trkpt lat="45.93891" lon="5.72405">
        <ele>599</ele>
        <time>2026-05-13T10:31:26Z</time>
      </trkpt>
      <trkpt lat="45.93886" lon="5.72409">
        <ele>599.4</ele>
        <time>2026-05-13T10:31:27Z</time>
      </trkpt>
      <trkpt lat="45.93883" lon="5.72409">
        <ele>599.4</ele>
        <time>2026-05-13T10:31:28Z</time>
      </trkpt>
      <trkpt lat="45.93879" lon="5.72411">
        <ele>598.8</ele>
        <time>2026-05-13T10:31:29Z</time>
      </trkpt>
      <trkpt lat="45.93875" lon="5.72416">
        <ele>599.2</ele>
        <time>2026-05-13T10:31:30Z</time>
      </trkpt>
      <trkpt lat="45.93871" lon="5.72418">
        <ele>599.2</ele>
        <time>2026-05-13T10:31:31Z</time>
      </trkpt>
      <trkpt lat="45.93869" lon="5.72422">
        <ele>599.2</ele>
        <time>2026-05-13T10:31:32Z</time>
      </trkpt>
      <trkpt lat="45.93867" lon="5.72424">
        <ele>599.2</ele>
        <time>2026-05-13T10:31:33Z</time>
      </trkpt>
      <trkpt lat="45.93863" lon="5.72429">
        <ele>599.6</ele>
        <time>2026-05-13T10:31:34Z</time>
      </trkpt>
      <trkpt lat="45.93859" lon="5.72432">
        <ele>600</ele>
        <time>2026-05-13T10:31:35Z</time>
      </trkpt>
      <trkpt lat="45.93857" lon="5.72435">
        <ele>600</ele>
        <time>2026-05-13T10:31:36Z</time>
      </trkpt>
      <trkpt lat="45.93855" lon="5.72438">
        <ele>600.2</ele>
        <time>2026-05-13T10:31:37Z</time>
      </trkpt>
      <trkpt lat="45.93852" lon="5.72439">
        <ele>600.6</ele>
        <time>2026-05-13T10:31:38Z</time>
      </trkpt>
      <trkpt lat="45.93849" lon="5.72441">
        <ele>600.6</ele>
        <time>2026-05-13T10:31:39Z</time>
      </trkpt>
      <trkpt lat="45.93847" lon="5.72444">
        <ele>600.8</ele>
        <time>2026-05-13T10:31:40Z</time>
      </trkpt>
      <trkpt lat="45.93845" lon="5.72447">
        <ele>600.8</ele>
        <time>2026-05-13T10:31:41Z</time>
      </trkpt>
      <trkpt lat="45.93842" lon="5.72451">
        <ele>600.8</ele>
        <time>2026-05-13T10:31:42Z</time>
      </trkpt>
      <trkpt lat="45.9384" lon="5.72455">
        <ele>601</ele>
        <time>2026-05-13T10:31:43Z</time>
      </trkpt>
      <trkpt lat="45.93837" lon="5.72458">
        <ele>601</ele>
        <time>2026-05-13T10:31:44Z</time>
      </trkpt>
      <trkpt lat="45.93834" lon="5.72461">
        <ele>601</ele>
        <time>2026-05-13T10:31:45Z</time>
      </trkpt>
      <trkpt lat="45.9383" lon="5.72463">
        <ele>601.4</ele>
        <time>2026-05-13T10:31:46Z</time>
      </trkpt>
      <trkpt lat="45.93826" lon="5.72465">
        <ele>601.4</ele>
        <time>2026-05-13T10:31:47Z</time>
      </trkpt>
      <trkpt lat="45.93822" lon="5.72467">
        <ele>601.4</ele>
        <time>2026-05-13T10:31:48Z</time>
      </trkpt>
      <trkpt lat="45.93819" lon="5.72469">
        <ele>601.4</ele>
        <time>2026-05-13T10:31:49Z</time>
      </trkpt>
      <trkpt lat="45.93815" lon="5.7247">
        <ele>601.4</ele>
        <time>2026-05-13T10:31:50Z</time>
      </trkpt>
      <trkpt lat="45.9381" lon="5.72472">
        <ele>601.4</ele>
        <time>2026-05-13T10:31:51Z</time>
      </trkpt>
      <trkpt lat="45.93806" lon="5.72473">
        <ele>601.4</ele>
        <time>2026-05-13T10:31:52Z</time>
      </trkpt>
      <trkpt lat="45.93803" lon="5.72474">
        <ele>601.4</ele>
        <time>2026-05-13T10:31:53Z</time>
      </trkpt>
      <trkpt lat="45.93798" lon="5.72475">
        <ele>601.4</ele>
        <time>2026-05-13T10:31:54Z</time>
      </trkpt>
      <trkpt lat="45.93794" lon="5.72476">
        <ele>601.4</ele>
        <time>2026-05-13T10:31:55Z</time>
      </trkpt>
      <trkpt lat="45.9379" lon="5.72478">
        <ele>601.4</ele>
        <time>2026-05-13T10:31:56Z</time>
      </trkpt>
      <trkpt lat="45.93786" lon="5.72479">
        <ele>601.4</ele>
        <time>2026-05-13T10:31:57Z</time>
      </trkpt>
      <trkpt lat="45.93782" lon="5.72481">
        <ele>601.4</ele>
        <time>2026-05-13T10:31:58Z</time>
      </trkpt>
      <trkpt lat="45.93778" lon="5.72483">
        <ele>601.4</ele>
        <time>2026-05-13T10:31:59Z</time>
      </trkpt>
      <trkpt lat="45.93774" lon="5.72485">
        <ele>601.4</ele>
        <time>2026-05-13T10:32:00Z</time>
      </trkpt>
      <trkpt lat="45.93771" lon="5.72487">
        <ele>601.8</ele>
        <time>2026-05-13T10:32:01Z</time>
      </trkpt>
      <trkpt lat="45.93767" lon="5.72491">
        <ele>601.8</ele>
        <time>2026-05-13T10:32:02Z</time>
      </trkpt>
      <trkpt lat="45.93763" lon="5.72494">
        <ele>601.8</ele>
        <time>2026-05-13T10:32:03Z</time>
      </trkpt>
      <trkpt lat="45.93759" lon="5.72497">
        <ele>601.8</ele>
        <time>2026-05-13T10:32:04Z</time>
      </trkpt>
      <trkpt lat="45.93755" lon="5.725">
        <ele>601.8</ele>
        <time>2026-05-13T10:32:05Z</time>
      </trkpt>
      <trkpt lat="45.93752" lon="5.72503">
        <ele>602</ele>
        <time>2026-05-13T10:32:06Z</time>
      </trkpt>
      <trkpt lat="45.93748" lon="5.72506">
        <ele>602</ele>
        <time>2026-05-13T10:32:07Z</time>
      </trkpt>
      <trkpt lat="45.93744" lon="5.72508">
        <ele>601.6</ele>
        <time>2026-05-13T10:32:08Z</time>
      </trkpt>
      <trkpt lat="45.93741" lon="5.72511">
        <ele>601.8</ele>
        <time>2026-05-13T10:32:09Z</time>
      </trkpt>
      <trkpt lat="45.93738" lon="5.72512">
        <ele>601.8</ele>
        <time>2026-05-13T10:32:10Z</time>
      </trkpt>
      <trkpt lat="45.93734" lon="5.72514">
        <ele>602.2</ele>
        <time>2026-05-13T10:32:11Z</time>
      </trkpt>
      <trkpt lat="45.93729" lon="5.72513">
        <ele>602.2</ele>
        <time>2026-05-13T10:32:12Z</time>
      </trkpt>
      <trkpt lat="45.93725" lon="5.72512">
        <ele>602.4</ele>
        <time>2026-05-13T10:32:13Z</time>
      </trkpt>
      <trkpt lat="45.93721" lon="5.72511">
        <ele>602.6</ele>
        <time>2026-05-13T10:32:14Z</time>
      </trkpt>
      <trkpt lat="45.93717" lon="5.7251">
        <ele>602.6</ele>
        <time>2026-05-13T10:32:15Z</time>
      </trkpt>
      <trkpt lat="45.93714" lon="5.72509">
        <ele>602.6</ele>
        <time>2026-05-13T10:32:16Z</time>
      </trkpt>
      <trkpt lat="45.9371" lon="5.72509">
        <ele>603</ele>
        <time>2026-05-13T10:32:17Z</time>
      </trkpt>
      <trkpt lat="45.93707" lon="5.72509">
        <ele>603</ele>
        <time>2026-05-13T10:32:18Z</time>
      </trkpt>
      <trkpt lat="45.93703" lon="5.7251">
        <ele>603</ele>
        <time>2026-05-13T10:32:19Z</time>
      </trkpt>
      <trkpt lat="45.93699" lon="5.72512">
        <ele>603</ele>
        <time>2026-05-13T10:32:20Z</time>
      </trkpt>
      <trkpt lat="45.93696" lon="5.72515">
        <ele>603</ele>
        <time>2026-05-13T10:32:21Z</time>
      </trkpt>
      <trkpt lat="45.93692" lon="5.72519">
        <ele>603</ele>
        <time>2026-05-13T10:32:22Z</time>
      </trkpt>
      <trkpt lat="45.93689" lon="5.72523">
        <ele>603.2</ele>
        <time>2026-05-13T10:32:23Z</time>
      </trkpt>
      <trkpt lat="45.93686" lon="5.72527">
        <ele>603.2</ele>
        <time>2026-05-13T10:32:24Z</time>
      </trkpt>
      <trkpt lat="45.93683" lon="5.72531">
        <ele>603.2</ele>
        <time>2026-05-13T10:32:25Z</time>
      </trkpt>
      <trkpt lat="45.93681" lon="5.72537">
        <ele>603.2</ele>
        <time>2026-05-13T10:32:26Z</time>
      </trkpt>
      <trkpt lat="45.93679" lon="5.72541">
        <ele>603.2</ele>
        <time>2026-05-13T10:32:27Z</time>
      </trkpt>
      <trkpt lat="45.93677" lon="5.72547">
        <ele>603.2</ele>
        <time>2026-05-13T10:32:28Z</time>
      </trkpt>
      <trkpt lat="45.93675" lon="5.72552">
        <ele>603.2</ele>
        <time>2026-05-13T10:32:29Z</time>
      </trkpt>
      <trkpt lat="45.93673" lon="5.72557">
        <ele>603</ele>
        <time>2026-05-13T10:32:30Z</time>
      </trkpt>
      <trkpt lat="45.9367" lon="5.72562">
        <ele>603</ele>
        <time>2026-05-13T10:32:31Z</time>
      </trkpt>
      <trkpt lat="45.93668" lon="5.72567">
        <ele>603</ele>
        <time>2026-05-13T10:32:32Z</time>
      </trkpt>
      <trkpt lat="45.93666" lon="5.72572">
        <ele>603</ele>
        <time>2026-05-13T10:32:33Z</time>
      </trkpt>
      <trkpt lat="45.93663" lon="5.72576">
        <ele>603</ele>
        <time>2026-05-13T10:32:34Z</time>
      </trkpt>
      <trkpt lat="45.9366" lon="5.72581">
        <ele>603</ele>
        <time>2026-05-13T10:32:35Z</time>
      </trkpt>
      <trkpt lat="45.93657" lon="5.72586">
        <ele>602.6</ele>
        <time>2026-05-13T10:32:36Z</time>
      </trkpt>
      <trkpt lat="45.93657" lon="5.72586">
        <ele>602.6</ele>
        <time>2026-05-13T10:32:37Z</time>
      </trkpt>
      <trkpt lat="45.93653" lon="5.7259">
        <ele>602.6</ele>
        <time>2026-05-13T10:32:38Z</time>
      </trkpt>
      <trkpt lat="45.93649" lon="5.72594">
        <ele>602.6</ele>
        <time>2026-05-13T10:32:39Z</time>
      </trkpt>
      <trkpt lat="45.93644" lon="5.72596">
        <ele>602.6</ele>
        <time>2026-05-13T10:32:40Z</time>
      </trkpt>
      <trkpt lat="45.93639" lon="5.72596">
        <ele>602.4</ele>
        <time>2026-05-13T10:32:41Z</time>
      </trkpt>
      <trkpt lat="45.93633" lon="5.72595">
        <ele>602.4</ele>
        <time>2026-05-13T10:32:42Z</time>
      </trkpt>
      <trkpt lat="45.9363" lon="5.72592">
        <ele>602.6</ele>
        <time>2026-05-13T10:32:43Z</time>
      </trkpt>
      <trkpt lat="45.93625" lon="5.72589">
        <ele>602.6</ele>
        <time>2026-05-13T10:32:44Z</time>
      </trkpt>
      <trkpt lat="45.93622" lon="5.72585">
        <ele>602.4</ele>
        <time>2026-05-13T10:32:45Z</time>
      </trkpt>
      <trkpt lat="45.93619" lon="5.7258">
        <ele>602.4</ele>
        <time>2026-05-13T10:32:46Z</time>
      </trkpt>
      <trkpt lat="45.93616" lon="5.72577">
        <ele>602.6</ele>
        <time>2026-05-13T10:32:47Z</time>
      </trkpt>
      <trkpt lat="45.93612" lon="5.72572">
        <ele>602.6</ele>
        <time>2026-05-13T10:32:48Z</time>
      </trkpt>
      <trkpt lat="45.93609" lon="5.72568">
        <ele>603</ele>
        <time>2026-05-13T10:32:49Z</time>
      </trkpt>
      <trkpt lat="45.93606" lon="5.72563">
        <ele>603.2</ele>
        <time>2026-05-13T10:32:50Z</time>
      </trkpt>
      <trkpt lat="45.93603" lon="5.72559">
        <ele>603.2</ele>
        <time>2026-05-13T10:32:51Z</time>
      </trkpt>
      <trkpt lat="45.936" lon="5.72554">
        <ele>603.2</ele>
        <time>2026-05-13T10:32:52Z</time>
      </trkpt>
      <trkpt lat="45.93597" lon="5.72551">
        <ele>603.2</ele>
        <time>2026-05-13T10:32:53Z</time>
      </trkpt>
      <trkpt lat="45.93594" lon="5.72547">
        <ele>603.2</ele>
        <time>2026-05-13T10:32:54Z</time>
      </trkpt>
      <trkpt lat="45.93591" lon="5.72542">
        <ele>603.2</ele>
        <time>2026-05-13T10:32:55Z</time>
      </trkpt>
      <trkpt lat="45.93587" lon="5.72538">
        <ele>603.2</ele>
        <time>2026-05-13T10:32:56Z</time>
      </trkpt>
      <trkpt lat="45.93584" lon="5.72534">
        <ele>603</ele>
        <time>2026-05-13T10:32:57Z</time>
      </trkpt>
      <trkpt lat="45.93581" lon="5.72531">
        <ele>603</ele>
        <time>2026-05-13T10:32:58Z</time>
      </trkpt>
      <trkpt lat="45.93577" lon="5.72527">
        <ele>602.6</ele>
        <time>2026-05-13T10:32:59Z</time>
      </trkpt>
      <trkpt lat="45.93572" lon="5.72524">
        <ele>602.6</ele>
        <time>2026-05-13T10:33:00Z</time>
      </trkpt>
      <trkpt lat="45.93569" lon="5.72521">
        <ele>602.6</ele>
        <time>2026-05-13T10:33:01Z</time>
      </trkpt>
      <trkpt lat="45.93564" lon="5.7252">
        <ele>602</ele>
        <time>2026-05-13T10:33:02Z</time>
      </trkpt>
      <trkpt lat="45.9356" lon="5.72517">
        <ele>601.8</ele>
        <time>2026-05-13T10:33:03Z</time>
      </trkpt>
      <trkpt lat="45.93556" lon="5.72515">
        <ele>601.6</ele>
        <time>2026-05-13T10:33:04Z</time>
      </trkpt>
      <trkpt lat="45.93552" lon="5.72513">
        <ele>601.6</ele>
        <time>2026-05-13T10:33:05Z</time>
      </trkpt>
      <trkpt lat="45.93547" lon="5.72511">
        <ele>601.4</ele>
        <time>2026-05-13T10:33:06Z</time>
      </trkpt>
      <trkpt lat="45.93543" lon="5.72509">
        <ele>601.4</ele>
        <time>2026-05-13T10:33:07Z</time>
      </trkpt>
      <trkpt lat="45.93539" lon="5.72507">
        <ele>601</ele>
        <time>2026-05-13T10:33:08Z</time>
      </trkpt>
      <trkpt lat="45.93534" lon="5.72505">
        <ele>600.8</ele>
        <time>2026-05-13T10:33:09Z</time>
      </trkpt>
      <trkpt lat="45.9353" lon="5.72502">
        <ele>600.4</ele>
        <time>2026-05-13T10:33:10Z</time>
      </trkpt>
      <trkpt lat="45.93524" lon="5.725">
        <ele>600.4</ele>
        <time>2026-05-13T10:33:11Z</time>
      </trkpt>
      <trkpt lat="45.9352" lon="5.72498">
        <ele>600.4</ele>
        <time>2026-05-13T10:33:12Z</time>
      </trkpt>
      <trkpt lat="45.93515" lon="5.72496">
        <ele>600</ele>
        <time>2026-05-13T10:33:13Z</time>
      </trkpt>
      <trkpt lat="45.9351" lon="5.72495">
        <ele>599.6</ele>
        <time>2026-05-13T10:33:14Z</time>
      </trkpt>
      <trkpt lat="45.93505" lon="5.72492">
        <ele>599.6</ele>
        <time>2026-05-13T10:33:15Z</time>
      </trkpt>
      <trkpt lat="45.935" lon="5.7249">
        <ele>599.2</ele>
        <time>2026-05-13T10:33:16Z</time>
      </trkpt>
      <trkpt lat="45.93495" lon="5.72488">
        <ele>598.4</ele>
        <time>2026-05-13T10:33:17Z</time>
      </trkpt>
      <trkpt lat="45.93489" lon="5.72486">
        <ele>598.2</ele>
        <time>2026-05-13T10:33:18Z</time>
      </trkpt>
      <trkpt lat="45.93483" lon="5.72484">
        <ele>597.8</ele>
        <time>2026-05-13T10:33:19Z</time>
      </trkpt>
      <trkpt lat="45.93477" lon="5.72482">
        <ele>597.6</ele>
        <time>2026-05-13T10:33:20Z</time>
      </trkpt>
      <trkpt lat="45.93471" lon="5.7248">
        <ele>597.6</ele>
        <time>2026-05-13T10:33:21Z</time>
      </trkpt>
      <trkpt lat="45.93464" lon="5.72478">
        <ele>597</ele>
        <time>2026-05-13T10:33:22Z</time>
      </trkpt>
      <trkpt lat="45.93457" lon="5.72475">
        <ele>596.6</ele>
        <time>2026-05-13T10:33:23Z</time>
      </trkpt>
      <trkpt lat="45.9345" lon="5.72473">
        <ele>595.2</ele>
        <time>2026-05-13T10:33:24Z</time>
      </trkpt>
      <trkpt lat="45.93444" lon="5.72471">
        <ele>595.2</ele>
        <time>2026-05-13T10:33:25Z</time>
      </trkpt>
      <trkpt lat="45.93436" lon="5.72469">
        <ele>594.8</ele>
        <time>2026-05-13T10:33:26Z</time>
      </trkpt>
      <trkpt lat="45.93429" lon="5.72467">
        <ele>594.4</ele>
        <time>2026-05-13T10:33:27Z</time>
      </trkpt>
      <trkpt lat="45.93422" lon="5.72465">
        <ele>594</ele>
        <time>2026-05-13T10:33:28Z</time>
      </trkpt>
      <trkpt lat="45.93414" lon="5.72464">
        <ele>593.6</ele>
        <time>2026-05-13T10:33:29Z</time>
      </trkpt>
      <trkpt lat="45.93406" lon="5.72462">
        <ele>593.4</ele>
        <time>2026-05-13T10:33:30Z</time>
      </trkpt>
      <trkpt lat="45.93398" lon="5.72462">
        <ele>592.6</ele>
        <time>2026-05-13T10:33:31Z</time>
      </trkpt>
      <trkpt lat="45.9339" lon="5.72461">
        <ele>592.4</ele>
        <time>2026-05-13T10:33:32Z</time>
      </trkpt>
      <trkpt lat="45.93381" lon="5.72462">
        <ele>592</ele>
        <time>2026-05-13T10:33:33Z</time>
      </trkpt>
      <trkpt lat="45.93373" lon="5.72463">
        <ele>591.6</ele>
        <time>2026-05-13T10:33:34Z</time>
      </trkpt>
      <trkpt lat="45.93365" lon="5.72464">
        <ele>591.2</ele>
        <time>2026-05-13T10:33:35Z</time>
      </trkpt>
      <trkpt lat="45.93356" lon="5.72465">
        <ele>591.2</ele>
        <time>2026-05-13T10:33:36Z</time>
      </trkpt>
      <trkpt lat="45.93348" lon="5.72466">
        <ele>591.2</ele>
        <time>2026-05-13T10:33:37Z</time>
      </trkpt>
      <trkpt lat="45.9334" lon="5.72469">
        <ele>590.8</ele>
        <time>2026-05-13T10:33:38Z</time>
      </trkpt>
      <trkpt lat="45.93332" lon="5.72471">
        <ele>590.8</ele>
        <time>2026-05-13T10:33:39Z</time>
      </trkpt>
      <trkpt lat="45.93324" lon="5.72473">
        <ele>590.8</ele>
        <time>2026-05-13T10:33:40Z</time>
      </trkpt>
      <trkpt lat="45.93316" lon="5.72475">
        <ele>590.8</ele>
        <time>2026-05-13T10:33:41Z</time>
      </trkpt>
      <trkpt lat="45.93309" lon="5.72477">
        <ele>591.2</ele>
        <time>2026-05-13T10:33:42Z</time>
      </trkpt>
      <trkpt lat="45.93302" lon="5.72479">
        <ele>591.2</ele>
        <time>2026-05-13T10:33:43Z</time>
      </trkpt>
      <trkpt lat="45.93295" lon="5.72481">
        <ele>591.2</ele>
        <time>2026-05-13T10:33:44Z</time>
      </trkpt>
      <trkpt lat="45.93288" lon="5.72483">
        <ele>591.2</ele>
        <time>2026-05-13T10:33:45Z</time>
      </trkpt>
      <trkpt lat="45.93282" lon="5.72484">
        <ele>591.2</ele>
        <time>2026-05-13T10:33:46Z</time>
      </trkpt>
      <trkpt lat="45.93276" lon="5.72485">
        <ele>591.6</ele>
        <time>2026-05-13T10:33:47Z</time>
      </trkpt>
      <trkpt lat="45.93269" lon="5.72488">
        <ele>592</ele>
        <time>2026-05-13T10:33:48Z</time>
      </trkpt>
      <trkpt lat="45.93264" lon="5.72489">
        <ele>592.6</ele>
        <time>2026-05-13T10:33:49Z</time>
      </trkpt>
      <trkpt lat="45.93258" lon="5.72491">
        <ele>593</ele>
        <time>2026-05-13T10:33:50Z</time>
      </trkpt>
      <trkpt lat="45.93252" lon="5.72493">
        <ele>593.4</ele>
        <time>2026-05-13T10:33:51Z</time>
      </trkpt>
      <trkpt lat="45.93247" lon="5.72494">
        <ele>593.8</ele>
        <time>2026-05-13T10:33:52Z</time>
      </trkpt>
      <trkpt lat="45.93242" lon="5.72497">
        <ele>594.2</ele>
        <time>2026-05-13T10:33:53Z</time>
      </trkpt>
      <trkpt lat="45.93238" lon="5.72499">
        <ele>594.2</ele>
        <time>2026-05-13T10:33:54Z</time>
      </trkpt>
      <trkpt lat="45.93234" lon="5.72501">
        <ele>594.2</ele>
        <time>2026-05-13T10:33:55Z</time>
      </trkpt>
      <trkpt lat="45.9323" lon="5.72504">
        <ele>594.2</ele>
        <time>2026-05-13T10:33:56Z</time>
      </trkpt>
      <trkpt lat="45.93227" lon="5.72505">
        <ele>594.4</ele>
        <time>2026-05-13T10:33:57Z</time>
      </trkpt>
      <trkpt lat="45.93221" lon="5.72509">
        <ele>594.4</ele>
        <time>2026-05-13T10:33:58Z</time>
      </trkpt>
      <trkpt lat="45.9322" lon="5.72511">
        <ele>595.2</ele>
        <time>2026-05-13T10:33:59Z</time>
      </trkpt>
      <trkpt lat="45.93219" lon="5.72513">
        <ele>595.4</ele>
        <time>2026-05-13T10:34:00Z</time>
      </trkpt>
      <trkpt lat="45.93218" lon="5.72514">
        <ele>595.6</ele>
        <time>2026-05-13T10:34:01Z</time>
      </trkpt>
      <trkpt lat="45.93217" lon="5.72517">
        <ele>596</ele>
        <time>2026-05-13T10:34:02Z</time>
      </trkpt>
      <trkpt lat="45.93216" lon="5.72518">
        <ele>596.2</ele>
        <time>2026-05-13T10:34:03Z</time>
      </trkpt>
      <trkpt lat="45.93214" lon="5.72518">
        <ele>596.4</ele>
        <time>2026-05-13T10:34:04Z</time>
      </trkpt>
      <trkpt lat="45.93212" lon="5.7252">
        <ele>596.4</ele>
        <time>2026-05-13T10:34:05Z</time>
      </trkpt>
      <trkpt lat="45.9321" lon="5.72522">
        <ele>596.4</ele>
        <time>2026-05-13T10:34:06Z</time>
      </trkpt>
      <trkpt lat="45.93208" lon="5.72524">
        <ele>596.8</ele>
        <time>2026-05-13T10:34:07Z</time>
      </trkpt>
      <trkpt lat="45.93206" lon="5.72526">
        <ele>596.8</ele>
        <time>2026-05-13T10:34:08Z</time>
      </trkpt>
      <trkpt lat="45.93204" lon="5.72529">
        <ele>596.8</ele>
        <time>2026-05-13T10:34:09Z</time>
      </trkpt>
      <trkpt lat="45.93202" lon="5.72532">
        <ele>597</ele>
        <time>2026-05-13T10:34:10Z</time>
      </trkpt>
      <trkpt lat="45.93199" lon="5.72534">
        <ele>597</ele>
        <time>2026-05-13T10:34:11Z</time>
      </trkpt>
      <trkpt lat="45.93197" lon="5.72536">
        <ele>597</ele>
        <time>2026-05-13T10:34:12Z</time>
      </trkpt>
      <trkpt lat="45.93191" lon="5.72539">
        <ele>597.4</ele>
        <time>2026-05-13T10:34:13Z</time>
      </trkpt>
      <trkpt lat="45.9319" lon="5.72542">
        <ele>597.4</ele>
        <time>2026-05-13T10:34:14Z</time>
      </trkpt>
      <trkpt lat="45.93188" lon="5.72544">
        <ele>597.4</ele>
        <time>2026-05-13T10:34:15Z</time>
      </trkpt>
      <trkpt lat="45.93184" lon="5.72547">
        <ele>597.4</ele>
        <time>2026-05-13T10:34:16Z</time>
      </trkpt>
      <trkpt lat="45.93182" lon="5.7255">
        <ele>597.8</ele>
        <time>2026-05-13T10:34:17Z</time>
      </trkpt>
      <trkpt lat="45.93179" lon="5.72553">
        <ele>598</ele>
        <time>2026-05-13T10:34:18Z</time>
      </trkpt>
      <trkpt lat="45.93176" lon="5.72555">
        <ele>598</ele>
        <time>2026-05-13T10:34:19Z</time>
      </trkpt>
      <trkpt lat="45.93173" lon="5.72558">
        <ele>598</ele>
        <time>2026-05-13T10:34:20Z</time>
      </trkpt>
      <trkpt lat="45.93171" lon="5.72561">
        <ele>598.4</ele>
        <time>2026-05-13T10:34:21Z</time>
      </trkpt>
      <trkpt lat="45.93168" lon="5.72565">
        <ele>598.6</ele>
        <time>2026-05-13T10:34:22Z</time>
      </trkpt>
      <trkpt lat="45.93166" lon="5.72568">
        <ele>598.6</ele>
        <time>2026-05-13T10:34:23Z</time>
      </trkpt>
      <trkpt lat="45.93164" lon="5.7257">
        <ele>598.8</ele>
        <time>2026-05-13T10:34:24Z</time>
      </trkpt>
      <trkpt lat="45.93161" lon="5.72572">
        <ele>598.8</ele>
        <time>2026-05-13T10:34:25Z</time>
      </trkpt>
      <trkpt lat="45.93159" lon="5.72575">
        <ele>598.8</ele>
        <time>2026-05-13T10:34:26Z</time>
      </trkpt>
      <trkpt lat="45.93156" lon="5.72577">
        <ele>599</ele>
        <time>2026-05-13T10:34:27Z</time>
      </trkpt>
      <trkpt lat="45.93154" lon="5.7258">
        <ele>599</ele>
        <time>2026-05-13T10:34:28Z</time>
      </trkpt>
      <trkpt lat="45.93152" lon="5.72583">
        <ele>599</ele>
        <time>2026-05-13T10:34:29Z</time>
      </trkpt>
      <trkpt lat="45.9315" lon="5.72585">
        <ele>599</ele>
        <time>2026-05-13T10:34:30Z</time>
      </trkpt>
      <trkpt lat="45.93148" lon="5.72588">
        <ele>599</ele>
        <time>2026-05-13T10:34:31Z</time>
      </trkpt>
      <trkpt lat="45.93145" lon="5.7259">
        <ele>599.4</ele>
        <time>2026-05-13T10:34:32Z</time>
      </trkpt>
      <trkpt lat="45.93143" lon="5.72593">
        <ele>599.4</ele>
        <time>2026-05-13T10:34:33Z</time>
      </trkpt>
      <trkpt lat="45.9314" lon="5.72595">
        <ele>599.4</ele>
        <time>2026-05-13T10:34:34Z</time>
      </trkpt>
      <trkpt lat="45.93138" lon="5.72598">
        <ele>599.4</ele>
        <time>2026-05-13T10:34:35Z</time>
      </trkpt>
      <trkpt lat="45.93135" lon="5.726">
        <ele>599.4</ele>
        <time>2026-05-13T10:34:36Z</time>
      </trkpt>
      <trkpt lat="45.93132" lon="5.72602">
        <ele>599.4</ele>
        <time>2026-05-13T10:34:37Z</time>
      </trkpt>
      <trkpt lat="45.9313" lon="5.72605">
        <ele>599.4</ele>
        <time>2026-05-13T10:34:38Z</time>
      </trkpt>
      <trkpt lat="45.93127" lon="5.72607">
        <ele>599.4</ele>
        <time>2026-05-13T10:34:39Z</time>
      </trkpt>
      <trkpt lat="45.93124" lon="5.72609">
        <ele>599.4</ele>
        <time>2026-05-13T10:34:40Z</time>
      </trkpt>
      <trkpt lat="45.93122" lon="5.72611">
        <ele>599</ele>
        <time>2026-05-13T10:34:41Z</time>
      </trkpt>
      <trkpt lat="45.93119" lon="5.72614">
        <ele>599</ele>
        <time>2026-05-13T10:34:42Z</time>
      </trkpt>
      <trkpt lat="45.93116" lon="5.72616">
        <ele>599</ele>
        <time>2026-05-13T10:34:43Z</time>
      </trkpt>
      <trkpt lat="45.93113" lon="5.72618">
        <ele>599</ele>
        <time>2026-05-13T10:34:44Z</time>
      </trkpt>
      <trkpt lat="45.93111" lon="5.7262">
        <ele>599</ele>
        <time>2026-05-13T10:34:45Z</time>
      </trkpt>
      <trkpt lat="45.93108" lon="5.72623">
        <ele>599</ele>
        <time>2026-05-13T10:34:46Z</time>
      </trkpt>
      <trkpt lat="45.93105" lon="5.72625">
        <ele>599</ele>
        <time>2026-05-13T10:34:47Z</time>
      </trkpt>
      <trkpt lat="45.93103" lon="5.72628">
        <ele>599</ele>
        <time>2026-05-13T10:34:48Z</time>
      </trkpt>
      <trkpt lat="45.93101" lon="5.72631">
        <ele>599</ele>
        <time>2026-05-13T10:34:49Z</time>
      </trkpt>
      <trkpt lat="45.93099" lon="5.72634">
        <ele>599</ele>
        <time>2026-05-13T10:34:50Z</time>
      </trkpt>
      <trkpt lat="45.93098" lon="5.72639">
        <ele>599</ele>
        <time>2026-05-13T10:34:51Z</time>
      </trkpt>
      <trkpt lat="45.93098" lon="5.72643">
        <ele>599.2</ele>
        <time>2026-05-13T10:34:52Z</time>
      </trkpt>
      <trkpt lat="45.931" lon="5.72647">
        <ele>599.6</ele>
        <time>2026-05-13T10:34:53Z</time>
      </trkpt>
      <trkpt lat="45.93101" lon="5.72649">
        <ele>599.2</ele>
        <time>2026-05-13T10:34:54Z</time>
      </trkpt>
      <trkpt lat="45.93103" lon="5.72652">
        <ele>599.6</ele>
        <time>2026-05-13T10:34:55Z</time>
      </trkpt>
      <trkpt lat="45.93105" lon="5.72654">
        <ele>599.6</ele>
        <time>2026-05-13T10:34:56Z</time>
      </trkpt>
      <trkpt lat="45.93107" lon="5.72656">
        <ele>599.8</ele>
        <time>2026-05-13T10:34:57Z</time>
      </trkpt>
      <trkpt lat="45.93109" lon="5.72658">
        <ele>599.8</ele>
        <time>2026-05-13T10:34:58Z</time>
      </trkpt>
      <trkpt lat="45.93111" lon="5.72661">
        <ele>600.2</ele>
        <time>2026-05-13T10:34:59Z</time>
      </trkpt>
      <trkpt lat="45.93112" lon="5.72663">
        <ele>600.2</ele>
        <time>2026-05-13T10:35:00Z</time>
      </trkpt>
      <trkpt lat="45.93114" lon="5.72666">
        <ele>600.6</ele>
        <time>2026-05-13T10:35:01Z</time>
      </trkpt>
      <trkpt lat="45.93115" lon="5.72669">
        <ele>600.6</ele>
        <time>2026-05-13T10:35:02Z</time>
      </trkpt>
      <trkpt lat="45.93116" lon="5.72672">
        <ele>600.8</ele>
        <time>2026-05-13T10:35:03Z</time>
      </trkpt>
      <trkpt lat="45.93116" lon="5.72674">
        <ele>600.8</ele>
        <time>2026-05-13T10:35:04Z</time>
      </trkpt>
      <trkpt lat="45.93117" lon="5.72678">
        <ele>601</ele>
        <time>2026-05-13T10:35:05Z</time>
      </trkpt>
      <trkpt lat="45.93117" lon="5.72681">
        <ele>601</ele>
        <time>2026-05-13T10:35:06Z</time>
      </trkpt>
      <trkpt lat="45.93117" lon="5.72685">
        <ele>601.6</ele>
        <time>2026-05-13T10:35:07Z</time>
      </trkpt>
      <trkpt lat="45.93116" lon="5.72689">
        <ele>601.6</ele>
        <time>2026-05-13T10:35:08Z</time>
      </trkpt>
      <trkpt lat="45.93115" lon="5.72692">
        <ele>602</ele>
        <time>2026-05-13T10:35:09Z</time>
      </trkpt>
      <trkpt lat="45.93113" lon="5.72696">
        <ele>602</ele>
        <time>2026-05-13T10:35:10Z</time>
      </trkpt>
      <trkpt lat="45.93111" lon="5.72699">
        <ele>602</ele>
        <time>2026-05-13T10:35:11Z</time>
      </trkpt>
      <trkpt lat="45.93109" lon="5.72702">
        <ele>602.2</ele>
        <time>2026-05-13T10:35:12Z</time>
      </trkpt>
      <trkpt lat="45.93106" lon="5.72705">
        <ele>602.2</ele>
        <time>2026-05-13T10:35:13Z</time>
      </trkpt>
      <trkpt lat="45.93104" lon="5.72707">
        <ele>602.4</ele>
        <time>2026-05-13T10:35:14Z</time>
      </trkpt>
      <trkpt lat="45.93101" lon="5.72709">
        <ele>602.4</ele>
        <time>2026-05-13T10:35:15Z</time>
      </trkpt>
      <trkpt lat="45.93099" lon="5.72711">
        <ele>602.4</ele>
        <time>2026-05-13T10:35:16Z</time>
      </trkpt>
      <trkpt lat="45.93097" lon="5.72713">
        <ele>602.8</ele>
        <time>2026-05-13T10:35:17Z</time>
      </trkpt>
      <trkpt lat="45.93094" lon="5.72716">
        <ele>602.8</ele>
        <time>2026-05-13T10:35:18Z</time>
      </trkpt>
      <trkpt lat="45.93092" lon="5.72718">
        <ele>602.8</ele>
        <time>2026-05-13T10:35:19Z</time>
      </trkpt>
      <trkpt lat="45.93089" lon="5.7272">
        <ele>602.8</ele>
        <time>2026-05-13T10:35:20Z</time>
      </trkpt>
      <trkpt lat="45.93087" lon="5.72722">
        <ele>602.8</ele>
        <time>2026-05-13T10:35:21Z</time>
      </trkpt>
      <trkpt lat="45.93084" lon="5.72725">
        <ele>603</ele>
        <time>2026-05-13T10:35:22Z</time>
      </trkpt>
      <trkpt lat="45.93082" lon="5.72727">
        <ele>603</ele>
        <time>2026-05-13T10:35:23Z</time>
      </trkpt>
      <trkpt lat="45.93079" lon="5.72729">
        <ele>603</ele>
        <time>2026-05-13T10:35:24Z</time>
      </trkpt>
      <trkpt lat="45.93077" lon="5.72731">
        <ele>603</ele>
        <time>2026-05-13T10:35:25Z</time>
      </trkpt>
      <trkpt lat="45.93075" lon="5.72733">
        <ele>603</ele>
        <time>2026-05-13T10:35:26Z</time>
      </trkpt>
      <trkpt lat="45.93072" lon="5.72735">
        <ele>603</ele>
        <time>2026-05-13T10:35:27Z</time>
      </trkpt>
      <trkpt lat="45.9307" lon="5.72738">
        <ele>603</ele>
        <time>2026-05-13T10:35:28Z</time>
      </trkpt>
      <trkpt lat="45.93068" lon="5.7274">
        <ele>603.4</ele>
        <time>2026-05-13T10:35:29Z</time>
      </trkpt>
      <trkpt lat="45.93066" lon="5.72742">
        <ele>603.4</ele>
        <time>2026-05-13T10:35:30Z</time>
      </trkpt>
      <trkpt lat="45.93064" lon="5.72744">
        <ele>603.6</ele>
        <time>2026-05-13T10:35:31Z</time>
      </trkpt>
      <trkpt lat="45.93061" lon="5.72746">
        <ele>603.6</ele>
        <time>2026-05-13T10:35:32Z</time>
      </trkpt>
      <trkpt lat="45.93059" lon="5.72748">
        <ele>604</ele>
        <time>2026-05-13T10:35:33Z</time>
      </trkpt>
      <trkpt lat="45.93057" lon="5.7275">
        <ele>604</ele>
        <time>2026-05-13T10:35:34Z</time>
      </trkpt>
      <trkpt lat="45.93054" lon="5.72752">
        <ele>604</ele>
        <time>2026-05-13T10:35:35Z</time>
      </trkpt>
      <trkpt lat="45.93051" lon="5.72754">
        <ele>604.2</ele>
        <time>2026-05-13T10:35:36Z</time>
      </trkpt>
      <trkpt lat="45.93049" lon="5.72756">
        <ele>604.2</ele>
        <time>2026-05-13T10:35:37Z</time>
      </trkpt>
      <trkpt lat="45.93047" lon="5.72758">
        <ele>604.6</ele>
        <time>2026-05-13T10:35:38Z</time>
      </trkpt>
      <trkpt lat="45.93046" lon="5.7276">
        <ele>605</ele>
        <time>2026-05-13T10:35:39Z</time>
      </trkpt>
      <trkpt lat="45.93045" lon="5.72763">
        <ele>605.2</ele>
        <time>2026-05-13T10:35:40Z</time>
      </trkpt>
      <trkpt lat="45.93044" lon="5.72766">
        <ele>605.4</ele>
        <time>2026-05-13T10:35:41Z</time>
      </trkpt>
      <trkpt lat="45.93043" lon="5.72769">
        <ele>605.4</ele>
        <time>2026-05-13T10:35:42Z</time>
      </trkpt>
      <trkpt lat="45.93043" lon="5.72772">
        <ele>605.4</ele>
        <time>2026-05-13T10:35:43Z</time>
      </trkpt>
      <trkpt lat="45.93043" lon="5.72775">
        <ele>605.6</ele>
        <time>2026-05-13T10:35:44Z</time>
      </trkpt>
      <trkpt lat="45.93043" lon="5.72778">
        <ele>605.6</ele>
        <time>2026-05-13T10:35:45Z</time>
      </trkpt>
      <trkpt lat="45.93043" lon="5.7278">
        <ele>605.6</ele>
        <time>2026-05-13T10:35:46Z</time>
      </trkpt>
      <trkpt lat="45.93044" lon="5.72782">
        <ele>605.6</ele>
        <time>2026-05-13T10:35:47Z</time>
      </trkpt>
      <trkpt lat="45.93044" lon="5.72783">
        <ele>606</ele>
        <time>2026-05-13T10:35:48Z</time>
      </trkpt>
      <trkpt lat="45.93045" lon="5.72784">
        <ele>606.2</ele>
        <time>2026-05-13T10:35:49Z</time>
      </trkpt>
      <trkpt lat="45.93046" lon="5.72785">
        <ele>606.6</ele>
        <time>2026-05-13T10:35:50Z</time>
      </trkpt>
      <trkpt lat="45.93048" lon="5.72785">
        <ele>606.6</ele>
        <time>2026-05-13T10:35:51Z</time>
      </trkpt>
      <trkpt lat="45.9305" lon="5.72785">
        <ele>606.6</ele>
        <time>2026-05-13T10:35:52Z</time>
      </trkpt>
      <trkpt lat="45.93052" lon="5.72784">
        <ele>606.8</ele>
        <time>2026-05-13T10:35:53Z</time>
      </trkpt>
      <trkpt lat="45.93055" lon="5.72784">
        <ele>606.8</ele>
        <time>2026-05-13T10:35:54Z</time>
      </trkpt>
      <trkpt lat="45.93057" lon="5.72783">
        <ele>607</ele>
        <time>2026-05-13T10:35:55Z</time>
      </trkpt>
      <trkpt lat="45.93059" lon="5.72783">
        <ele>607</ele>
        <time>2026-05-13T10:35:56Z</time>
      </trkpt>
      <trkpt lat="45.93061" lon="5.72783">
        <ele>607.2</ele>
        <time>2026-05-13T10:35:57Z</time>
      </trkpt>
      <trkpt lat="45.93063" lon="5.72782">
        <ele>607.2</ele>
        <time>2026-05-13T10:35:58Z</time>
      </trkpt>
      <trkpt lat="45.93066" lon="5.72782">
        <ele>607.4</ele>
        <time>2026-05-13T10:35:59Z</time>
      </trkpt>
      <trkpt lat="45.93068" lon="5.72782">
        <ele>607.4</ele>
        <time>2026-05-13T10:36:00Z</time>
      </trkpt>
      <trkpt lat="45.9307" lon="5.72782">
        <ele>607.8</ele>
        <time>2026-05-13T10:36:01Z</time>
      </trkpt>
      <trkpt lat="45.93072" lon="5.72782">
        <ele>608</ele>
        <time>2026-05-13T10:36:02Z</time>
      </trkpt>
      <trkpt lat="45.93074" lon="5.72782">
        <ele>608</ele>
        <time>2026-05-13T10:36:03Z</time>
      </trkpt>
      <trkpt lat="45.93076" lon="5.72782">
        <ele>608</ele>
        <time>2026-05-13T10:36:04Z</time>
      </trkpt>
      <trkpt lat="45.93079" lon="5.72782">
        <ele>608.2</ele>
        <time>2026-05-13T10:36:05Z</time>
      </trkpt>
      <trkpt lat="45.93081" lon="5.72781">
        <ele>608.2</ele>
        <time>2026-05-13T10:36:06Z</time>
      </trkpt>
      <trkpt lat="45.93083" lon="5.7278">
        <ele>608.4</ele>
        <time>2026-05-13T10:36:07Z</time>
      </trkpt>
      <trkpt lat="45.93086" lon="5.72779">
        <ele>608.8</ele>
        <time>2026-05-13T10:36:08Z</time>
      </trkpt>
      <trkpt lat="45.93088" lon="5.72779">
        <ele>608.8</ele>
        <time>2026-05-13T10:36:09Z</time>
      </trkpt>
      <trkpt lat="45.9309" lon="5.72778">
        <ele>608.8</ele>
        <time>2026-05-13T10:36:10Z</time>
      </trkpt>
      <trkpt lat="45.9309" lon="5.72778">
        <ele>609</ele>
        <time>2026-05-13T10:36:11Z</time>
      </trkpt>
      <trkpt lat="45.93092" lon="5.72777">
        <ele>609</ele>
        <time>2026-05-13T10:36:12Z</time>
      </trkpt>
      <trkpt lat="45.93094" lon="5.72775">
        <ele>609.4</ele>
        <time>2026-05-13T10:36:13Z</time>
      </trkpt>
      <trkpt lat="45.93096" lon="5.72774">
        <ele>609.4</ele>
        <time>2026-05-13T10:36:14Z</time>
      </trkpt>
      <trkpt lat="45.93098" lon="5.72772">
        <ele>609.6</ele>
        <time>2026-05-13T10:36:15Z</time>
      </trkpt>
      <trkpt lat="45.93101" lon="5.7277">
        <ele>609.6</ele>
        <time>2026-05-13T10:36:16Z</time>
      </trkpt>
      <trkpt lat="45.93103" lon="5.72769">
        <ele>609.6</ele>
        <time>2026-05-13T10:36:17Z</time>
      </trkpt>
      <trkpt lat="45.93106" lon="5.72767">
        <ele>610</ele>
        <time>2026-05-13T10:36:18Z</time>
      </trkpt>
      <trkpt lat="45.93108" lon="5.72765">
        <ele>610</ele>
        <time>2026-05-13T10:36:19Z</time>
      </trkpt>
      <trkpt lat="45.9311" lon="5.72763">
        <ele>610.2</ele>
        <time>2026-05-13T10:36:20Z</time>
      </trkpt>
      <trkpt lat="45.93112" lon="5.72761">
        <ele>610.2</ele>
        <time>2026-05-13T10:36:21Z</time>
      </trkpt>
      <trkpt lat="45.93114" lon="5.72759">
        <ele>610.2</ele>
        <time>2026-05-13T10:36:22Z</time>
      </trkpt>
      <trkpt lat="45.93116" lon="5.72757">
        <ele>610.4</ele>
        <time>2026-05-13T10:36:23Z</time>
      </trkpt>
      <trkpt lat="45.93119" lon="5.72756">
        <ele>610.4</ele>
        <time>2026-05-13T10:36:24Z</time>
      </trkpt>
      <trkpt lat="45.93121" lon="5.72754">
        <ele>610.8</ele>
        <time>2026-05-13T10:36:25Z</time>
      </trkpt>
      <trkpt lat="45.93123" lon="5.72752">
        <ele>611</ele>
        <time>2026-05-13T10:36:26Z</time>
      </trkpt>
      <trkpt lat="45.93125" lon="5.72749">
        <ele>611.2</ele>
        <time>2026-05-13T10:36:27Z</time>
      </trkpt>
      <trkpt lat="45.93126" lon="5.72747">
        <ele>611.4</ele>
        <time>2026-05-13T10:36:28Z</time>
      </trkpt>
      <trkpt lat="45.93128" lon="5.72745">
        <ele>611.6</ele>
        <time>2026-05-13T10:36:29Z</time>
      </trkpt>
      <trkpt lat="45.93131" lon="5.72743">
        <ele>611.6</ele>
        <time>2026-05-13T10:36:30Z</time>
      </trkpt>
      <trkpt lat="45.93133" lon="5.72741">
        <ele>611.6</ele>
        <time>2026-05-13T10:36:31Z</time>
      </trkpt>
      <trkpt lat="45.93136" lon="5.72739">
        <ele>611.6</ele>
        <time>2026-05-13T10:36:32Z</time>
      </trkpt>
      <trkpt lat="45.93138" lon="5.72738">
        <ele>611.6</ele>
        <time>2026-05-13T10:36:33Z</time>
      </trkpt>
      <trkpt lat="45.93141" lon="5.72736">
        <ele>611.6</ele>
        <time>2026-05-13T10:36:34Z</time>
      </trkpt>
      <trkpt lat="45.93143" lon="5.72734">
        <ele>612</ele>
        <time>2026-05-13T10:36:35Z</time>
      </trkpt>
      <trkpt lat="45.93143" lon="5.72734">
        <ele>612</ele>
        <time>2026-05-13T10:36:36Z</time>
      </trkpt>
      <trkpt lat="45.93153" lon="5.72726">
        <ele>612</ele>
        <time>2026-05-13T10:36:38Z</time>
      </trkpt>
      <trkpt lat="45.93155" lon="5.72724">
        <ele>612</ele>
        <time>2026-05-13T10:36:39Z</time>
      </trkpt>
      <trkpt lat="45.93158" lon="5.72722">
        <ele>612</ele>
        <time>2026-05-13T10:36:40Z</time>
      </trkpt>
      <trkpt lat="45.93161" lon="5.72721">
        <ele>612</ele>
        <time>2026-05-13T10:36:41Z</time>
      </trkpt>
      <trkpt lat="45.93164" lon="5.7272">
        <ele>612</ele>
        <time>2026-05-13T10:36:42Z</time>
      </trkpt>
      <trkpt lat="45.93167" lon="5.72718">
        <ele>612.2</ele>
        <time>2026-05-13T10:36:43Z</time>
      </trkpt>
      <trkpt lat="45.93167" lon="5.72718">
        <ele>612.2</ele>
        <time>2026-05-13T10:36:44Z</time>
      </trkpt>
      <trkpt lat="45.9317" lon="5.72716">
        <ele>612.2</ele>
        <time>2026-05-13T10:36:45Z</time>
      </trkpt>
      <trkpt lat="45.93173" lon="5.72715">
        <ele>612.2</ele>
        <time>2026-05-13T10:36:46Z</time>
      </trkpt>
      <trkpt lat="45.93176" lon="5.72713">
        <ele>612.2</ele>
        <time>2026-05-13T10:36:47Z</time>
      </trkpt>
      <trkpt lat="45.93179" lon="5.72711">
        <ele>612.2</ele>
        <time>2026-05-13T10:36:48Z</time>
      </trkpt>
      <trkpt lat="45.93182" lon="5.7271">
        <ele>612.4</ele>
        <time>2026-05-13T10:36:49Z</time>
      </trkpt>
      <trkpt lat="45.93185" lon="5.72708">
        <ele>612.4</ele>
        <time>2026-05-13T10:36:50Z</time>
      </trkpt>
      <trkpt lat="45.93188" lon="5.72707">
        <ele>612.6</ele>
        <time>2026-05-13T10:36:51Z</time>
      </trkpt>
      <trkpt lat="45.93191" lon="5.72706">
        <ele>612.6</ele>
        <time>2026-05-13T10:36:52Z</time>
      </trkpt>
      <trkpt lat="45.93194" lon="5.72705">
        <ele>612.6</ele>
        <time>2026-05-13T10:36:53Z</time>
      </trkpt>
      <trkpt lat="45.93197" lon="5.72703">
        <ele>612.8</ele>
        <time>2026-05-13T10:36:54Z</time>
      </trkpt>
      <trkpt lat="45.932" lon="5.72702">
        <ele>612.8</ele>
        <time>2026-05-13T10:36:55Z</time>
      </trkpt>
      <trkpt lat="45.93203" lon="5.727">
        <ele>612.8</ele>
        <time>2026-05-13T10:36:56Z</time>
      </trkpt>
      <trkpt lat="45.93206" lon="5.72699">
        <ele>612.8</ele>
        <time>2026-05-13T10:36:57Z</time>
      </trkpt>
      <trkpt lat="45.93208" lon="5.72697">
        <ele>612.8</ele>
        <time>2026-05-13T10:36:58Z</time>
      </trkpt>
      <trkpt lat="45.93211" lon="5.72696">
        <ele>612.8</ele>
        <time>2026-05-13T10:36:59Z</time>
      </trkpt>
      <trkpt lat="45.93213" lon="5.72695">
        <ele>612.8</ele>
        <time>2026-05-13T10:37:00Z</time>
      </trkpt>
      <trkpt lat="45.93216" lon="5.72694">
        <ele>613</ele>
        <time>2026-05-13T10:37:01Z</time>
      </trkpt>
      <trkpt lat="45.93222" lon="5.72691">
        <ele>613.4</ele>
        <time>2026-05-13T10:37:02Z</time>
      </trkpt>
      <trkpt lat="45.93224" lon="5.7269">
        <ele>613.4</ele>
        <time>2026-05-13T10:37:03Z</time>
      </trkpt>
      <trkpt lat="45.93227" lon="5.72689">
        <ele>613.8</ele>
        <time>2026-05-13T10:37:04Z</time>
      </trkpt>
      <trkpt lat="45.93229" lon="5.72689">
        <ele>613.8</ele>
        <time>2026-05-13T10:37:05Z</time>
      </trkpt>
      <trkpt lat="45.93231" lon="5.7269">
        <ele>613.8</ele>
        <time>2026-05-13T10:37:06Z</time>
      </trkpt>
      <trkpt lat="45.93232" lon="5.72691">
        <ele>614.2</ele>
        <time>2026-05-13T10:37:07Z</time>
      </trkpt>
      <trkpt lat="45.93232" lon="5.72692">
        <ele>614.2</ele>
        <time>2026-05-13T10:37:08Z</time>
      </trkpt>
      <trkpt lat="45.93232" lon="5.72692">
        <ele>614.4</ele>
        <time>2026-05-13T10:37:09Z</time>
      </trkpt>
      <trkpt lat="45.93232" lon="5.72693">
        <ele>614.4</ele>
        <time>2026-05-13T10:37:10Z</time>
      </trkpt>
      <trkpt lat="45.93232" lon="5.72693">
        <ele>614.8</ele>
        <time>2026-05-13T10:37:14Z</time>
      </trkpt>
      <trkpt lat="45.93232" lon="5.72693">
        <ele>614.8</ele>
        <time>2026-05-13T10:37:15Z</time>
      </trkpt>
      <trkpt lat="45.93231" lon="5.72693">
        <ele>614.8</ele>
        <time>2026-05-13T10:37:16Z</time>
      </trkpt>
      <trkpt lat="45.9323" lon="5.72693">
        <ele>614.8</ele>
        <time>2026-05-13T10:37:17Z</time>
      </trkpt>
      <trkpt lat="45.9323" lon="5.72694">
        <ele>615</ele>
        <time>2026-05-13T10:37:18Z</time>
      </trkpt>
      <trkpt lat="45.93229" lon="5.72694">
        <ele>615</ele>
        <time>2026-05-13T10:37:19Z</time>
      </trkpt>
      <trkpt lat="45.93226" lon="5.72692">
        <ele>614.4</ele>
        <time>2026-05-13T10:45:01Z</time>
      </trkpt>
      <trkpt lat="45.93225" lon="5.72693">
        <ele>614.4</ele>
        <time>2026-05-13T10:45:02Z</time>
      </trkpt>
      <trkpt lat="45.93224" lon="5.72694">
        <ele>614</ele>
        <time>2026-05-13T10:45:03Z</time>
      </trkpt>
      <trkpt lat="45.93223" lon="5.72694">
        <ele>614</ele>
        <time>2026-05-13T10:45:04Z</time>
      </trkpt>
      <trkpt lat="45.93221" lon="5.72694">
        <ele>614</ele>
        <time>2026-05-13T10:45:05Z</time>
      </trkpt>
      <trkpt lat="45.9322" lon="5.72694">
        <ele>613.8</ele>
        <time>2026-05-13T10:45:06Z</time>
      </trkpt>
      <trkpt lat="45.93219" lon="5.72695">
        <ele>613.8</ele>
        <time>2026-05-13T10:45:07Z</time>
      </trkpt>
      <trkpt lat="45.93218" lon="5.72695">
        <ele>613.8</ele>
        <time>2026-05-13T10:45:08Z</time>
      </trkpt>
      <trkpt lat="45.93216" lon="5.72696">
        <ele>613.8</ele>
        <time>2026-05-13T10:45:09Z</time>
      </trkpt>
      <trkpt lat="45.93215" lon="5.72697">
        <ele>613.8</ele>
        <time>2026-05-13T10:45:10Z</time>
      </trkpt>
      <trkpt lat="45.93213" lon="5.72698">
        <ele>613.8</ele>
        <time>2026-05-13T10:45:11Z</time>
      </trkpt>
      <trkpt lat="45.9321" lon="5.72698">
        <ele>613.6</ele>
        <time>2026-05-13T10:45:12Z</time>
      </trkpt>
      <trkpt lat="45.93208" lon="5.72698">
        <ele>613.6</ele>
        <time>2026-05-13T10:45:13Z</time>
      </trkpt>
      <trkpt lat="45.93205" lon="5.72698">
        <ele>613.6</ele>
        <time>2026-05-13T10:45:14Z</time>
      </trkpt>
      <trkpt lat="45.93202" lon="5.72698">
        <ele>613.6</ele>
        <time>2026-05-13T10:45:15Z</time>
      </trkpt>
      <trkpt lat="45.93199" lon="5.72699">
        <ele>613.2</ele>
        <time>2026-05-13T10:45:16Z</time>
      </trkpt>
      <trkpt lat="45.93196" lon="5.727">
        <ele>613.2</ele>
        <time>2026-05-13T10:45:17Z</time>
      </trkpt>
      <trkpt lat="45.93192" lon="5.72703">
        <ele>612.6</ele>
        <time>2026-05-13T10:45:18Z</time>
      </trkpt>
      <trkpt lat="45.93189" lon="5.72705">
        <ele>612.6</ele>
        <time>2026-05-13T10:45:19Z</time>
      </trkpt>
      <trkpt lat="45.93186" lon="5.72706">
        <ele>612</ele>
        <time>2026-05-13T10:45:20Z</time>
      </trkpt>
      <trkpt lat="45.93182" lon="5.72708">
        <ele>612</ele>
        <time>2026-05-13T10:45:21Z</time>
      </trkpt>
      <trkpt lat="45.93178" lon="5.7271">
        <ele>612</ele>
        <time>2026-05-13T10:45:22Z</time>
      </trkpt>
      <trkpt lat="45.93176" lon="5.72711">
        <ele>612</ele>
        <time>2026-05-13T10:45:23Z</time>
      </trkpt>
      <trkpt lat="45.93173" lon="5.72713">
        <ele>611.8</ele>
        <time>2026-05-13T10:45:24Z</time>
      </trkpt>
      <trkpt lat="45.9317" lon="5.72714">
        <ele>611.8</ele>
        <time>2026-05-13T10:45:25Z</time>
      </trkpt>
      <trkpt lat="45.93168" lon="5.72716">
        <ele>611.6</ele>
        <time>2026-05-13T10:45:26Z</time>
      </trkpt>
      <trkpt lat="45.93165" lon="5.72718">
        <ele>611.6</ele>
        <time>2026-05-13T10:45:27Z</time>
      </trkpt>
      <trkpt lat="45.93162" lon="5.7272">
        <ele>611.2</ele>
        <time>2026-05-13T10:45:28Z</time>
      </trkpt>
      <trkpt lat="45.93159" lon="5.72721">
        <ele>611.2</ele>
        <time>2026-05-13T10:45:29Z</time>
      </trkpt>
      <trkpt lat="45.93155" lon="5.72723">
        <ele>611</ele>
        <time>2026-05-13T10:45:30Z</time>
      </trkpt>
      <trkpt lat="45.93152" lon="5.72725">
        <ele>611</ele>
        <time>2026-05-13T10:45:31Z</time>
      </trkpt>
      <trkpt lat="45.93148" lon="5.72727">
        <ele>611</ele>
        <time>2026-05-13T10:45:32Z</time>
      </trkpt>
      <trkpt lat="45.93144" lon="5.7273">
        <ele>611.2</ele>
        <time>2026-05-13T10:45:33Z</time>
      </trkpt>
      <trkpt lat="45.9314" lon="5.72733">
        <ele>611.2</ele>
        <time>2026-05-13T10:45:34Z</time>
      </trkpt>
      <trkpt lat="45.93137" lon="5.72737">
        <ele>611.2</ele>
        <time>2026-05-13T10:45:35Z</time>
      </trkpt>
      <trkpt lat="45.93133" lon="5.72739">
        <ele>610.8</ele>
        <time>2026-05-13T10:45:36Z</time>
      </trkpt>
      <trkpt lat="45.93129" lon="5.72743">
        <ele>610.6</ele>
        <time>2026-05-13T10:45:37Z</time>
      </trkpt>
      <trkpt lat="45.93126" lon="5.72747">
        <ele>610.6</ele>
        <time>2026-05-13T10:45:38Z</time>
      </trkpt>
      <trkpt lat="45.93121" lon="5.7275">
        <ele>610.2</ele>
        <time>2026-05-13T10:45:39Z</time>
      </trkpt>
      <trkpt lat="45.93116" lon="5.72755">
        <ele>609.8</ele>
        <time>2026-05-13T10:45:40Z</time>
      </trkpt>
      <trkpt lat="45.93111" lon="5.72759">
        <ele>609.6</ele>
        <time>2026-05-13T10:45:41Z</time>
      </trkpt>
      <trkpt lat="45.93107" lon="5.72763">
        <ele>609.2</ele>
        <time>2026-05-13T10:45:42Z</time>
      </trkpt>
      <trkpt lat="45.93102" lon="5.72767">
        <ele>609.2</ele>
        <time>2026-05-13T10:45:43Z</time>
      </trkpt>
      <trkpt lat="45.93096" lon="5.72772">
        <ele>608.8</ele>
        <time>2026-05-13T10:45:44Z</time>
      </trkpt>
      <trkpt lat="45.93091" lon="5.72775">
        <ele>608.4</ele>
        <time>2026-05-13T10:45:45Z</time>
      </trkpt>
      <trkpt lat="45.93086" lon="5.72777">
        <ele>608.2</ele>
        <time>2026-05-13T10:45:46Z</time>
      </trkpt>
      <trkpt lat="45.93081" lon="5.72779">
        <ele>608</ele>
        <time>2026-05-13T10:45:47Z</time>
      </trkpt>
      <trkpt lat="45.93077" lon="5.72779">
        <ele>607.6</ele>
        <time>2026-05-13T10:45:48Z</time>
      </trkpt>
      <trkpt lat="45.93073" lon="5.72784">
        <ele>607.4</ele>
        <time>2026-05-13T10:45:49Z</time>
      </trkpt>
      <trkpt lat="45.93071" lon="5.7279">
        <ele>607.4</ele>
        <time>2026-05-13T10:45:50Z</time>
      </trkpt>
      <trkpt lat="45.9307" lon="5.72794">
        <ele>607.6</ele>
        <time>2026-05-13T10:45:51Z</time>
      </trkpt>
      <trkpt lat="45.93069" lon="5.72797">
        <ele>608</ele>
        <time>2026-05-13T10:45:52Z</time>
      </trkpt>
      <trkpt lat="45.93067" lon="5.72799">
        <ele>608.2</ele>
        <time>2026-05-13T10:45:53Z</time>
      </trkpt>
      <trkpt lat="45.93067" lon="5.72802">
        <ele>608.6</ele>
        <time>2026-05-13T10:45:54Z</time>
      </trkpt>
      <trkpt lat="45.93068" lon="5.72804">
        <ele>609</ele>
        <time>2026-05-13T10:45:55Z</time>
      </trkpt>
      <trkpt lat="45.93069" lon="5.72806">
        <ele>609.2</ele>
        <time>2026-05-13T10:45:56Z</time>
      </trkpt>
      <trkpt lat="45.93068" lon="5.72809">
        <ele>609.6</ele>
        <time>2026-05-13T10:45:57Z</time>
      </trkpt>
      <trkpt lat="45.93068" lon="5.72811">
        <ele>610</ele>
        <time>2026-05-13T10:45:58Z</time>
      </trkpt>
      <trkpt lat="45.93068" lon="5.72813">
        <ele>610.2</ele>
        <time>2026-05-13T10:45:59Z</time>
      </trkpt>
      <trkpt lat="45.93067" lon="5.72816">
        <ele>610.6</ele>
        <time>2026-05-13T10:46:00Z</time>
      </trkpt>
      <trkpt lat="45.93067" lon="5.72819">
        <ele>610.8</ele>
        <time>2026-05-13T10:46:01Z</time>
      </trkpt>
      <trkpt lat="45.93067" lon="5.72821">
        <ele>611.2</ele>
        <time>2026-05-13T10:46:02Z</time>
      </trkpt>
      <trkpt lat="45.93068" lon="5.72824">
        <ele>611.4</ele>
        <time>2026-05-13T10:46:03Z</time>
      </trkpt>
      <trkpt lat="45.93068" lon="5.72826">
        <ele>611.8</ele>
        <time>2026-05-13T10:46:04Z</time>
      </trkpt>
      <trkpt lat="45.93068" lon="5.72828">
        <ele>612.2</ele>
        <time>2026-05-13T10:46:05Z</time>
      </trkpt>
      <trkpt lat="45.93068" lon="5.72831">
        <ele>612.4</ele>
        <time>2026-05-13T10:46:06Z</time>
      </trkpt>
      <trkpt lat="45.93068" lon="5.72833">
        <ele>612.8</ele>
        <time>2026-05-13T10:46:07Z</time>
      </trkpt>
      <trkpt lat="45.93069" lon="5.72835">
        <ele>612.8</ele>
        <time>2026-05-13T10:46:08Z</time>
      </trkpt>
      <trkpt lat="45.93069" lon="5.72837">
        <ele>613.2</ele>
        <time>2026-05-13T10:46:09Z</time>
      </trkpt>
      <trkpt lat="45.93069" lon="5.72839">
        <ele>613.2</ele>
        <time>2026-05-13T10:46:10Z</time>
      </trkpt>
      <trkpt lat="45.93068" lon="5.72842">
        <ele>613.8</ele>
        <time>2026-05-13T10:46:11Z</time>
      </trkpt>
      <trkpt lat="45.93068" lon="5.72844">
        <ele>613.8</ele>
        <time>2026-05-13T10:46:12Z</time>
      </trkpt>
      <trkpt lat="45.93068" lon="5.72847">
        <ele>614.2</ele>
        <time>2026-05-13T10:46:13Z</time>
      </trkpt>
      <trkpt lat="45.93067" lon="5.72849">
        <ele>614.6</ele>
        <time>2026-05-13T10:46:14Z</time>
      </trkpt>
      <trkpt lat="45.93067" lon="5.72851">
        <ele>614.6</ele>
        <time>2026-05-13T10:46:15Z</time>
      </trkpt>
      <trkpt lat="45.93066" lon="5.72853">
        <ele>614.8</ele>
        <time>2026-05-13T10:46:16Z</time>
      </trkpt>
      <trkpt lat="45.93066" lon="5.72854">
        <ele>615.2</ele>
        <time>2026-05-13T10:46:17Z</time>
      </trkpt>
      <trkpt lat="45.93064" lon="5.72856">
        <ele>615.2</ele>
        <time>2026-05-13T10:46:18Z</time>
      </trkpt>
      <trkpt lat="45.93063" lon="5.72858">
        <ele>615.6</ele>
        <time>2026-05-13T10:46:19Z</time>
      </trkpt>
      <trkpt lat="45.93062" lon="5.72859">
        <ele>615.8</ele>
        <time>2026-05-13T10:46:20Z</time>
      </trkpt>
      <trkpt lat="45.93061" lon="5.72861">
        <ele>615.8</ele>
        <time>2026-05-13T10:46:21Z</time>
      </trkpt>
      <trkpt lat="45.93059" lon="5.72862">
        <ele>616</ele>
        <time>2026-05-13T10:46:22Z</time>
      </trkpt>
      <trkpt lat="45.93058" lon="5.72863">
        <ele>616</ele>
        <time>2026-05-13T10:46:23Z</time>
      </trkpt>
      <trkpt lat="45.93057" lon="5.72863">
        <ele>616.4</ele>
        <time>2026-05-13T10:46:24Z</time>
      </trkpt>
      <trkpt lat="45.93054" lon="5.72865">
        <ele>616.4</ele>
        <time>2026-05-13T10:46:25Z</time>
      </trkpt>
      <trkpt lat="45.93053" lon="5.72865">
        <ele>616.6</ele>
        <time>2026-05-13T10:46:26Z</time>
      </trkpt>
      <trkpt lat="45.93051" lon="5.72866">
        <ele>617</ele>
        <time>2026-05-13T10:46:27Z</time>
      </trkpt>
      <trkpt lat="45.9305" lon="5.72867">
        <ele>617.4</ele>
        <time>2026-05-13T10:46:28Z</time>
      </trkpt>
      <trkpt lat="45.93049" lon="5.72867">
        <ele>617.4</ele>
        <time>2026-05-13T10:46:29Z</time>
      </trkpt>
      <trkpt lat="45.93047" lon="5.72868">
        <ele>617.6</ele>
        <time>2026-05-13T10:46:30Z</time>
      </trkpt>
      <trkpt lat="45.93046" lon="5.72868">
        <ele>617.6</ele>
        <time>2026-05-13T10:46:31Z</time>
      </trkpt>
      <trkpt lat="45.93045" lon="5.72868">
        <ele>617.8</ele>
        <time>2026-05-13T10:46:32Z</time>
      </trkpt>
      <trkpt lat="45.93043" lon="5.72869">
        <ele>617.8</ele>
        <time>2026-05-13T10:46:33Z</time>
      </trkpt>
      <trkpt lat="45.93042" lon="5.72869">
        <ele>617.8</ele>
        <time>2026-05-13T10:46:34Z</time>
      </trkpt>
      <trkpt lat="45.93041" lon="5.7287">
        <ele>618.2</ele>
        <time>2026-05-13T10:46:35Z</time>
      </trkpt>
      <trkpt lat="45.93039" lon="5.7287">
        <ele>618.2</ele>
        <time>2026-05-13T10:46:36Z</time>
      </trkpt>
      <trkpt lat="45.93038" lon="5.72871">
        <ele>618.6</ele>
        <time>2026-05-13T10:46:37Z</time>
      </trkpt>
      <trkpt lat="45.93036" lon="5.72872">
        <ele>618.6</ele>
        <time>2026-05-13T10:46:38Z</time>
      </trkpt>
      <trkpt lat="45.93034" lon="5.72872">
        <ele>618.6</ele>
        <time>2026-05-13T10:46:39Z</time>
      </trkpt>
      <trkpt lat="45.93033" lon="5.72873">
        <ele>618.8</ele>
        <time>2026-05-13T10:46:40Z</time>
      </trkpt>
      <trkpt lat="45.93031" lon="5.72873">
        <ele>618.8</ele>
        <time>2026-05-13T10:46:41Z</time>
      </trkpt>
      <trkpt lat="45.9303" lon="5.72874">
        <ele>619.2</ele>
        <time>2026-05-13T10:46:42Z</time>
      </trkpt>
      <trkpt lat="45.93029" lon="5.72875">
        <ele>619.4</ele>
        <time>2026-05-13T10:46:43Z</time>
      </trkpt>
      <trkpt lat="45.93027" lon="5.72876">
        <ele>619.8</ele>
        <time>2026-05-13T10:46:44Z</time>
      </trkpt>
      <trkpt lat="45.93026" lon="5.72877">
        <ele>619.8</ele>
        <time>2026-05-13T10:46:45Z</time>
      </trkpt>
      <trkpt lat="45.93024" lon="5.72879">
        <ele>620.2</ele>
        <time>2026-05-13T10:46:46Z</time>
      </trkpt>
      <trkpt lat="45.93023" lon="5.7288">
        <ele>620.4</ele>
        <time>2026-05-13T10:46:47Z</time>
      </trkpt>
      <trkpt lat="45.93021" lon="5.72882">
        <ele>620.6</ele>
        <time>2026-05-13T10:46:48Z</time>
      </trkpt>
      <trkpt lat="45.9302" lon="5.72884">
        <ele>621</ele>
        <time>2026-05-13T10:46:49Z</time>
      </trkpt>
      <trkpt lat="45.93019" lon="5.72885">
        <ele>621</ele>
        <time>2026-05-13T10:46:50Z</time>
      </trkpt>
      <trkpt lat="45.93019" lon="5.72887">
        <ele>621.2</ele>
        <time>2026-05-13T10:46:51Z</time>
      </trkpt>
      <trkpt lat="45.93018" lon="5.72888">
        <ele>621.4</ele>
        <time>2026-05-13T10:46:52Z</time>
      </trkpt>
      <trkpt lat="45.93017" lon="5.7289">
        <ele>621.4</ele>
        <time>2026-05-13T10:46:53Z</time>
      </trkpt>
      <trkpt lat="45.93016" lon="5.72892">
        <ele>621.4</ele>
        <time>2026-05-13T10:46:54Z</time>
      </trkpt>
      <trkpt lat="45.93016" lon="5.72894">
        <ele>621.8</ele>
        <time>2026-05-13T10:46:55Z</time>
      </trkpt>
      <trkpt lat="45.93015" lon="5.72896">
        <ele>622</ele>
        <time>2026-05-13T10:46:56Z</time>
      </trkpt>
      <trkpt lat="45.93015" lon="5.72897">
        <ele>622</ele>
        <time>2026-05-13T10:46:57Z</time>
      </trkpt>
      <trkpt lat="45.93014" lon="5.72899">
        <ele>622.2</ele>
        <time>2026-05-13T10:46:58Z</time>
      </trkpt>
      <trkpt lat="45.93014" lon="5.72901">
        <ele>622.2</ele>
        <time>2026-05-13T10:46:59Z</time>
      </trkpt>
      <trkpt lat="45.93013" lon="5.72903">
        <ele>622.6</ele>
        <time>2026-05-13T10:47:00Z</time>
      </trkpt>
      <trkpt lat="45.93013" lon="5.72905">
        <ele>622.6</ele>
        <time>2026-05-13T10:47:01Z</time>
      </trkpt>
      <trkpt lat="45.93013" lon="5.72906">
        <ele>622.6</ele>
        <time>2026-05-13T10:47:02Z</time>
      </trkpt>
      <trkpt lat="45.93012" lon="5.72908">
        <ele>623</ele>
        <time>2026-05-13T10:47:03Z</time>
      </trkpt>
      <trkpt lat="45.93012" lon="5.72909">
        <ele>623</ele>
        <time>2026-05-13T10:47:04Z</time>
      </trkpt>
      <trkpt lat="45.93012" lon="5.72911">
        <ele>623.4</ele>
        <time>2026-05-13T10:47:05Z</time>
      </trkpt>
      <trkpt lat="45.93011" lon="5.72913">
        <ele>623.6</ele>
        <time>2026-05-13T10:47:06Z</time>
      </trkpt>
      <trkpt lat="45.93011" lon="5.72915">
        <ele>623.8</ele>
        <time>2026-05-13T10:47:07Z</time>
      </trkpt>
      <trkpt lat="45.93011" lon="5.72916">
        <ele>623.8</ele>
        <time>2026-05-13T10:47:08Z</time>
      </trkpt>
      <trkpt lat="45.93011" lon="5.72918">
        <ele>623.8</ele>
        <time>2026-05-13T10:47:09Z</time>
      </trkpt>
      <trkpt lat="45.93011" lon="5.72919">
        <ele>624.2</ele>
        <time>2026-05-13T10:47:10Z</time>
      </trkpt>
      <trkpt lat="45.93011" lon="5.72921">
        <ele>624.4</ele>
        <time>2026-05-13T10:47:11Z</time>
      </trkpt>
      <trkpt lat="45.93011" lon="5.72922">
        <ele>624.4</ele>
        <time>2026-05-13T10:47:12Z</time>
      </trkpt>
      <trkpt lat="45.9301" lon="5.72924">
        <ele>624.6</ele>
        <time>2026-05-13T10:47:13Z</time>
      </trkpt>
      <trkpt lat="45.93009" lon="5.72925">
        <ele>624.6</ele>
        <time>2026-05-13T10:47:14Z</time>
      </trkpt>
      <trkpt lat="45.93008" lon="5.72925">
        <ele>625</ele>
        <time>2026-05-13T10:47:15Z</time>
      </trkpt>
      <trkpt lat="45.93008" lon="5.72926">
        <ele>625.4</ele>
        <time>2026-05-13T10:47:16Z</time>
      </trkpt>
      <trkpt lat="45.93007" lon="5.72928">
        <ele>625.6</ele>
        <time>2026-05-13T10:47:17Z</time>
      </trkpt>
      <trkpt lat="45.93007" lon="5.7293">
        <ele>625.8</ele>
        <time>2026-05-13T10:47:18Z</time>
      </trkpt>
      <trkpt lat="45.93007" lon="5.72932">
        <ele>626</ele>
        <time>2026-05-13T10:47:19Z</time>
      </trkpt>
      <trkpt lat="45.93006" lon="5.72934">
        <ele>626</ele>
        <time>2026-05-13T10:47:20Z</time>
      </trkpt>
      <trkpt lat="45.93006" lon="5.72935">
        <ele>626.2</ele>
        <time>2026-05-13T10:47:21Z</time>
      </trkpt>
      <trkpt lat="45.93005" lon="5.72937">
        <ele>626.6</ele>
        <time>2026-05-13T10:47:22Z</time>
      </trkpt>
      <trkpt lat="45.93004" lon="5.72938">
        <ele>626.6</ele>
        <time>2026-05-13T10:47:23Z</time>
      </trkpt>
      <trkpt lat="45.93004" lon="5.72939">
        <ele>627.2</ele>
        <time>2026-05-13T10:47:24Z</time>
      </trkpt>
      <trkpt lat="45.93003" lon="5.7294">
        <ele>627.4</ele>
        <time>2026-05-13T10:47:25Z</time>
      </trkpt>
      <trkpt lat="45.93003" lon="5.72942">
        <ele>627.8</ele>
        <time>2026-05-13T10:47:26Z</time>
      </trkpt>
      <trkpt lat="45.93002" lon="5.72943">
        <ele>627.8</ele>
        <time>2026-05-13T10:47:27Z</time>
      </trkpt>
      <trkpt lat="45.93002" lon="5.72944">
        <ele>628.2</ele>
        <time>2026-05-13T10:47:28Z</time>
      </trkpt>
      <trkpt lat="45.93001" lon="5.72945">
        <ele>628.6</ele>
        <time>2026-05-13T10:47:29Z</time>
      </trkpt>
      <trkpt lat="45.93" lon="5.72946">
        <ele>628.6</ele>
        <time>2026-05-13T10:47:30Z</time>
      </trkpt>
      <trkpt lat="45.92999" lon="5.72948">
        <ele>628.8</ele>
        <time>2026-05-13T10:47:31Z</time>
      </trkpt>
      <trkpt lat="45.92999" lon="5.72949">
        <ele>628.8</ele>
        <time>2026-05-13T10:47:32Z</time>
      </trkpt>
      <trkpt lat="45.92998" lon="5.7295">
        <ele>629</ele>
        <time>2026-05-13T10:47:33Z</time>
      </trkpt>
      <trkpt lat="45.92998" lon="5.72951">
        <ele>629.4</ele>
        <time>2026-05-13T10:47:34Z</time>
      </trkpt>
      <trkpt lat="45.92996" lon="5.72953">
        <ele>629.8</ele>
        <time>2026-05-13T10:47:35Z</time>
      </trkpt>
      <trkpt lat="45.92995" lon="5.72954">
        <ele>630.2</ele>
        <time>2026-05-13T10:47:36Z</time>
      </trkpt>
      <trkpt lat="45.92993" lon="5.72954">
        <ele>630.4</ele>
        <time>2026-05-13T10:47:37Z</time>
      </trkpt>
      <trkpt lat="45.92992" lon="5.72955">
        <ele>630.8</ele>
        <time>2026-05-13T10:47:38Z</time>
      </trkpt>
      <trkpt lat="45.92991" lon="5.72956">
        <ele>631</ele>
        <time>2026-05-13T10:47:39Z</time>
      </trkpt>
      <trkpt lat="45.9299" lon="5.72957">
        <ele>631.2</ele>
        <time>2026-05-13T10:47:40Z</time>
      </trkpt>
      <trkpt lat="45.9299" lon="5.72958">
        <ele>631.6</ele>
        <time>2026-05-13T10:47:41Z</time>
      </trkpt>
      <trkpt lat="45.92989" lon="5.72959">
        <ele>631.6</ele>
        <time>2026-05-13T10:47:42Z</time>
      </trkpt>
      <trkpt lat="45.92988" lon="5.72961">
        <ele>632.2</ele>
        <time>2026-05-13T10:47:43Z</time>
      </trkpt>
      <trkpt lat="45.92987" lon="5.72962">
        <ele>632.4</ele>
        <time>2026-05-13T10:47:44Z</time>
      </trkpt>
      <trkpt lat="45.92986" lon="5.72963">
        <ele>632.8</ele>
        <time>2026-05-13T10:47:45Z</time>
      </trkpt>
      <trkpt lat="45.92985" lon="5.72965">
        <ele>633</ele>
        <time>2026-05-13T10:47:46Z</time>
      </trkpt>
      <trkpt lat="45.92984" lon="5.72966">
        <ele>633</ele>
        <time>2026-05-13T10:47:47Z</time>
      </trkpt>
      <trkpt lat="45.92983" lon="5.72967">
        <ele>633.4</ele>
        <time>2026-05-13T10:47:48Z</time>
      </trkpt>
      <trkpt lat="45.92982" lon="5.72969">
        <ele>633.8</ele>
        <time>2026-05-13T10:47:49Z</time>
      </trkpt>
      <trkpt lat="45.92982" lon="5.7297">
        <ele>634</ele>
        <time>2026-05-13T10:47:50Z</time>
      </trkpt>
      <trkpt lat="45.92981" lon="5.72971">
        <ele>634.2</ele>
        <time>2026-05-13T10:47:51Z</time>
      </trkpt>
      <trkpt lat="45.92981" lon="5.72973">
        <ele>634.6</ele>
        <time>2026-05-13T10:47:52Z</time>
      </trkpt>
      <trkpt lat="45.9298" lon="5.72974">
        <ele>634.8</ele>
        <time>2026-05-13T10:47:53Z</time>
      </trkpt>
      <trkpt lat="45.9298" lon="5.72976">
        <ele>635.2</ele>
        <time>2026-05-13T10:47:54Z</time>
      </trkpt>
      <trkpt lat="45.9298" lon="5.72978">
        <ele>635.6</ele>
        <time>2026-05-13T10:47:55Z</time>
      </trkpt>
      <trkpt lat="45.9298" lon="5.7298">
        <ele>635.8</ele>
        <time>2026-05-13T10:47:56Z</time>
      </trkpt>
      <trkpt lat="45.9298" lon="5.72981">
        <ele>635.8</ele>
        <time>2026-05-13T10:47:57Z</time>
      </trkpt>
      <trkpt lat="45.92979" lon="5.72983">
        <ele>636.2</ele>
        <time>2026-05-13T10:47:58Z</time>
      </trkpt>
      <trkpt lat="45.92978" lon="5.72984">
        <ele>636.4</ele>
        <time>2026-05-13T10:47:59Z</time>
      </trkpt>
      <trkpt lat="45.92978" lon="5.72985">
        <ele>636.4</ele>
        <time>2026-05-13T10:48:00Z</time>
      </trkpt>
      <trkpt lat="45.92978" lon="5.72985">
        <ele>636.6</ele>
        <time>2026-05-13T10:48:01Z</time>
      </trkpt>
      <trkpt lat="45.92978" lon="5.72985">
        <ele>636.6</ele>
        <time>2026-05-13T10:48:02Z</time>
      </trkpt>
      <trkpt lat="45.92977" lon="5.72985">
        <ele>637</ele>
        <time>2026-05-13T10:48:08Z</time>
      </trkpt>
      <trkpt lat="45.92977" lon="5.72986">
        <ele>637</ele>
        <time>2026-05-13T10:48:09Z</time>
      </trkpt>
      <trkpt lat="45.92977" lon="5.72988">
        <ele>637.2</ele>
        <time>2026-05-13T10:48:10Z</time>
      </trkpt>
      <trkpt lat="45.92976" lon="5.72989">
        <ele>637.4</ele>
        <time>2026-05-13T10:48:11Z</time>
      </trkpt>
      <trkpt lat="45.92976" lon="5.7299">
        <ele>637.4</ele>
        <time>2026-05-13T10:48:12Z</time>
      </trkpt>
      <trkpt lat="45.92975" lon="5.72992">
        <ele>637.8</ele>
        <time>2026-05-13T10:48:13Z</time>
      </trkpt>
      <trkpt lat="45.92975" lon="5.72993">
        <ele>637.8</ele>
        <time>2026-05-13T10:48:14Z</time>
      </trkpt>
      <trkpt lat="45.92975" lon="5.72994">
        <ele>638</ele>
        <time>2026-05-13T10:48:15Z</time>
      </trkpt>
      <trkpt lat="45.92975" lon="5.72996">
        <ele>638</ele>
        <time>2026-05-13T10:48:16Z</time>
      </trkpt>
      <trkpt lat="45.92975" lon="5.72997">
        <ele>638.4</ele>
        <time>2026-05-13T10:48:17Z</time>
      </trkpt>
      <trkpt lat="45.92975" lon="5.72998">
        <ele>638.6</ele>
        <time>2026-05-13T10:48:18Z</time>
      </trkpt>
      <trkpt lat="45.92974" lon="5.72999">
        <ele>638.6</ele>
        <time>2026-05-13T10:48:19Z</time>
      </trkpt>
      <trkpt lat="45.92974" lon="5.73">
        <ele>639.2</ele>
        <time>2026-05-13T10:48:20Z</time>
      </trkpt>
      <trkpt lat="45.92974" lon="5.73002">
        <ele>639.4</ele>
        <time>2026-05-13T10:48:21Z</time>
      </trkpt>
      <trkpt lat="45.92973" lon="5.73003">
        <ele>639.4</ele>
        <time>2026-05-13T10:48:22Z</time>
      </trkpt>
      <trkpt lat="45.92973" lon="5.73004">
        <ele>639.8</ele>
        <time>2026-05-13T10:48:23Z</time>
      </trkpt>
      <trkpt lat="45.92973" lon="5.73006">
        <ele>639.8</ele>
        <time>2026-05-13T10:48:24Z</time>
      </trkpt>
      <trkpt lat="45.92973" lon="5.73007">
        <ele>640.2</ele>
        <time>2026-05-13T10:48:25Z</time>
      </trkpt>
      <trkpt lat="45.92973" lon="5.73008">
        <ele>640.2</ele>
        <time>2026-05-13T10:48:26Z</time>
      </trkpt>
      <trkpt lat="45.92972" lon="5.73009">
        <ele>640.4</ele>
        <time>2026-05-13T10:48:27Z</time>
      </trkpt>
      <trkpt lat="45.92972" lon="5.73011">
        <ele>640.6</ele>
        <time>2026-05-13T10:48:28Z</time>
      </trkpt>
      <trkpt lat="45.92972" lon="5.73013">
        <ele>640.6</ele>
        <time>2026-05-13T10:48:29Z</time>
      </trkpt>
      <trkpt lat="45.92972" lon="5.73014">
        <ele>641</ele>
        <time>2026-05-13T10:48:30Z</time>
      </trkpt>
      <trkpt lat="45.92972" lon="5.73015">
        <ele>641</ele>
        <time>2026-05-13T10:48:31Z</time>
      </trkpt>
      <trkpt lat="45.92972" lon="5.73016">
        <ele>641.4</ele>
        <time>2026-05-13T10:48:32Z</time>
      </trkpt>
      <trkpt lat="45.92972" lon="5.73016">
        <ele>641.4</ele>
        <time>2026-05-13T10:48:33Z</time>
      </trkpt>
      <trkpt lat="45.92971" lon="5.73017">
        <ele>641.4</ele>
        <time>2026-05-13T10:48:34Z</time>
      </trkpt>
      <trkpt lat="45.92971" lon="5.73018">
        <ele>641.6</ele>
        <time>2026-05-13T10:48:35Z</time>
      </trkpt>
      <trkpt lat="45.9297" lon="5.73019">
        <ele>642</ele>
        <time>2026-05-13T10:48:36Z</time>
      </trkpt>
      <trkpt lat="45.9297" lon="5.7302">
        <ele>642</ele>
        <time>2026-05-13T10:48:37Z</time>
      </trkpt>
      <trkpt lat="45.9297" lon="5.73021">
        <ele>642.2</ele>
        <time>2026-05-13T10:48:38Z</time>
      </trkpt>
      <trkpt lat="45.9297" lon="5.73022">
        <ele>642.2</ele>
        <time>2026-05-13T10:48:39Z</time>
      </trkpt>
      <trkpt lat="45.9297" lon="5.73023">
        <ele>642.6</ele>
        <time>2026-05-13T10:48:40Z</time>
      </trkpt>
      <trkpt lat="45.9297" lon="5.73024">
        <ele>642.6</ele>
        <time>2026-05-13T10:48:41Z</time>
      </trkpt>
      <trkpt lat="45.9297" lon="5.73025">
        <ele>643</ele>
        <time>2026-05-13T10:48:42Z</time>
      </trkpt>
      <trkpt lat="45.9297" lon="5.73026">
        <ele>643</ele>
        <time>2026-05-13T10:48:43Z</time>
      </trkpt>
      <trkpt lat="45.9297" lon="5.73027">
        <ele>643.6</ele>
        <time>2026-05-13T10:48:44Z</time>
      </trkpt>
      <trkpt lat="45.9297" lon="5.73027">
        <ele>643.8</ele>
        <time>2026-05-13T10:48:45Z</time>
      </trkpt>
      <trkpt lat="45.9297" lon="5.73031">
        <ele>644</ele>
        <time>2026-05-13T10:48:46Z</time>
      </trkpt>
      <trkpt lat="45.9297" lon="5.73032">
        <ele>644.2</ele>
        <time>2026-05-13T10:48:47Z</time>
      </trkpt>
      <trkpt lat="45.9297" lon="5.73034">
        <ele>644.6</ele>
        <time>2026-05-13T10:48:48Z</time>
      </trkpt>
      <trkpt lat="45.9297" lon="5.73035">
        <ele>644.8</ele>
        <time>2026-05-13T10:48:49Z</time>
      </trkpt>
      <trkpt lat="45.9297" lon="5.73036">
        <ele>645</ele>
        <time>2026-05-13T10:48:50Z</time>
      </trkpt>
      <trkpt lat="45.92969" lon="5.73037">
        <ele>645</ele>
        <time>2026-05-13T10:48:51Z</time>
      </trkpt>
      <trkpt lat="45.92969" lon="5.73038">
        <ele>645</ele>
        <time>2026-05-13T10:48:52Z</time>
      </trkpt>
      <trkpt lat="45.92968" lon="5.73039">
        <ele>645.2</ele>
        <time>2026-05-13T10:48:53Z</time>
      </trkpt>
      <trkpt lat="45.92968" lon="5.73041">
        <ele>645.6</ele>
        <time>2026-05-13T10:48:54Z</time>
      </trkpt>
      <trkpt lat="45.92968" lon="5.73041">
        <ele>645.8</ele>
        <time>2026-05-13T10:48:55Z</time>
      </trkpt>
      <trkpt lat="45.92967" lon="5.73043">
        <ele>646</ele>
        <time>2026-05-13T10:48:56Z</time>
      </trkpt>
      <trkpt lat="45.92967" lon="5.73044">
        <ele>646</ele>
        <time>2026-05-13T10:48:57Z</time>
      </trkpt>
      <trkpt lat="45.92967" lon="5.73045">
        <ele>646.6</ele>
        <time>2026-05-13T10:48:58Z</time>
      </trkpt>
      <trkpt lat="45.92967" lon="5.73046">
        <ele>646.8</ele>
        <time>2026-05-13T10:48:59Z</time>
      </trkpt>
      <trkpt lat="45.92968" lon="5.73047">
        <ele>646.8</ele>
        <time>2026-05-13T10:49:00Z</time>
      </trkpt>
      <trkpt lat="45.92968" lon="5.73048">
        <ele>647</ele>
        <time>2026-05-13T10:49:01Z</time>
      </trkpt>
      <trkpt lat="45.92968" lon="5.73049">
        <ele>647.2</ele>
        <time>2026-05-13T10:49:02Z</time>
      </trkpt>
      <trkpt lat="45.92968" lon="5.73051">
        <ele>647.4</ele>
        <time>2026-05-13T10:49:03Z</time>
      </trkpt>
      <trkpt lat="45.92967" lon="5.73052">
        <ele>647.6</ele>
        <time>2026-05-13T10:49:04Z</time>
      </trkpt>
      <trkpt lat="45.92967" lon="5.73053">
        <ele>648</ele>
        <time>2026-05-13T10:49:05Z</time>
      </trkpt>
      <trkpt lat="45.92967" lon="5.73054">
        <ele>648.2</ele>
        <time>2026-05-13T10:49:06Z</time>
      </trkpt>
      <trkpt lat="45.92967" lon="5.73055">
        <ele>648.2</ele>
        <time>2026-05-13T10:49:07Z</time>
      </trkpt>
      <trkpt lat="45.92966" lon="5.73056">
        <ele>648.4</ele>
        <time>2026-05-13T10:49:08Z</time>
      </trkpt>
      <trkpt lat="45.92966" lon="5.73057">
        <ele>648.6</ele>
        <time>2026-05-13T10:49:09Z</time>
      </trkpt>
      <trkpt lat="45.92967" lon="5.73058">
        <ele>648.8</ele>
        <time>2026-05-13T10:49:10Z</time>
      </trkpt>
      <trkpt lat="45.92967" lon="5.7306">
        <ele>649</ele>
        <time>2026-05-13T10:49:11Z</time>
      </trkpt>
      <trkpt lat="45.92967" lon="5.73061">
        <ele>649</ele>
        <time>2026-05-13T10:49:12Z</time>
      </trkpt>
      <trkpt lat="45.92967" lon="5.73062">
        <ele>649.2</ele>
        <time>2026-05-13T10:49:13Z</time>
      </trkpt>
      <trkpt lat="45.92967" lon="5.73064">
        <ele>649.6</ele>
        <time>2026-05-13T10:49:14Z</time>
      </trkpt>
      <trkpt lat="45.92967" lon="5.73065">
        <ele>649.8</ele>
        <time>2026-05-13T10:49:15Z</time>
      </trkpt>
      <trkpt lat="45.92966" lon="5.73066">
        <ele>649.8</ele>
        <time>2026-05-13T10:49:16Z</time>
      </trkpt>
      <trkpt lat="45.92966" lon="5.73068">
        <ele>650.2</ele>
        <time>2026-05-13T10:49:17Z</time>
      </trkpt>
      <trkpt lat="45.92966" lon="5.73069">
        <ele>650.2</ele>
        <time>2026-05-13T10:49:18Z</time>
      </trkpt>
      <trkpt lat="45.92966" lon="5.73071">
        <ele>650.6</ele>
        <time>2026-05-13T10:49:19Z</time>
      </trkpt>
      <trkpt lat="45.92966" lon="5.73072">
        <ele>650.8</ele>
        <time>2026-05-13T10:49:20Z</time>
      </trkpt>
      <trkpt lat="45.92966" lon="5.73073">
        <ele>650.8</ele>
        <time>2026-05-13T10:49:21Z</time>
      </trkpt>
      <trkpt lat="45.92966" lon="5.73074">
        <ele>650.8</ele>
        <time>2026-05-13T10:49:22Z</time>
      </trkpt>
      <trkpt lat="45.92965" lon="5.73074">
        <ele>651.2</ele>
        <time>2026-05-13T10:49:23Z</time>
      </trkpt>
      <trkpt lat="45.92965" lon="5.73074">
        <ele>651.2</ele>
        <time>2026-05-13T10:49:24Z</time>
      </trkpt>
      <trkpt lat="45.92965" lon="5.73076">
        <ele>651.6</ele>
        <time>2026-05-13T10:49:25Z</time>
      </trkpt>
      <trkpt lat="45.92965" lon="5.73078">
        <ele>651.8</ele>
        <time>2026-05-13T10:49:26Z</time>
      </trkpt>
      <trkpt lat="45.92965" lon="5.73079">
        <ele>652</ele>
        <time>2026-05-13T10:49:27Z</time>
      </trkpt>
      <trkpt lat="45.92965" lon="5.7308">
        <ele>652.4</ele>
        <time>2026-05-13T10:49:28Z</time>
      </trkpt>
      <trkpt lat="45.92964" lon="5.73081">
        <ele>652.6</ele>
        <time>2026-05-13T10:49:29Z</time>
      </trkpt>
      <trkpt lat="45.92964" lon="5.73082">
        <ele>652.8</ele>
        <time>2026-05-13T10:49:30Z</time>
      </trkpt>
      <trkpt lat="45.92963" lon="5.73083">
        <ele>653</ele>
        <time>2026-05-13T10:49:31Z</time>
      </trkpt>
      <trkpt lat="45.92963" lon="5.73084">
        <ele>653.4</ele>
        <time>2026-05-13T10:49:32Z</time>
      </trkpt>
      <trkpt lat="45.92962" lon="5.73085">
        <ele>653.6</ele>
        <time>2026-05-13T10:49:33Z</time>
      </trkpt>
      <trkpt lat="45.92962" lon="5.73086">
        <ele>653.8</ele>
        <time>2026-05-13T10:49:34Z</time>
      </trkpt>
      <trkpt lat="45.92961" lon="5.73087">
        <ele>654</ele>
        <time>2026-05-13T10:49:35Z</time>
      </trkpt>
      <trkpt lat="45.9296" lon="5.73088">
        <ele>654</ele>
        <time>2026-05-13T10:49:36Z</time>
      </trkpt>
      <trkpt lat="45.9296" lon="5.73089">
        <ele>654.4</ele>
        <time>2026-05-13T10:49:37Z</time>
      </trkpt>
      <trkpt lat="45.9296" lon="5.7309">
        <ele>654.4</ele>
        <time>2026-05-13T10:49:38Z</time>
      </trkpt>
      <trkpt lat="45.92959" lon="5.73092">
        <ele>654.4</ele>
        <time>2026-05-13T10:49:39Z</time>
      </trkpt>
      <trkpt lat="45.92959" lon="5.73093">
        <ele>654.8</ele>
        <time>2026-05-13T10:49:40Z</time>
      </trkpt>
      <trkpt lat="45.92959" lon="5.73094">
        <ele>655.2</ele>
        <time>2026-05-13T10:49:41Z</time>
      </trkpt>
      <trkpt lat="45.9296" lon="5.73095">
        <ele>655.2</ele>
        <time>2026-05-13T10:49:42Z</time>
      </trkpt>
      <trkpt lat="45.9296" lon="5.73096">
        <ele>655.6</ele>
        <time>2026-05-13T10:49:43Z</time>
      </trkpt>
      <trkpt lat="45.9296" lon="5.73096">
        <ele>655.6</ele>
        <time>2026-05-13T10:49:44Z</time>
      </trkpt>
      <trkpt lat="45.92959" lon="5.73097">
        <ele>656</ele>
        <time>2026-05-13T10:49:45Z</time>
      </trkpt>
      <trkpt lat="45.92959" lon="5.73098">
        <ele>656.2</ele>
        <time>2026-05-13T10:49:46Z</time>
      </trkpt>
      <trkpt lat="45.92959" lon="5.73099">
        <ele>656.4</ele>
        <time>2026-05-13T10:49:47Z</time>
      </trkpt>
      <trkpt lat="45.92958" lon="5.731">
        <ele>656.4</ele>
        <time>2026-05-13T10:49:48Z</time>
      </trkpt>
      <trkpt lat="45.92959" lon="5.731">
        <ele>656.6</ele>
        <time>2026-05-13T10:49:49Z</time>
      </trkpt>
      <trkpt lat="45.92959" lon="5.73101">
        <ele>656.6</ele>
        <time>2026-05-13T10:49:50Z</time>
      </trkpt>
      <trkpt lat="45.92959" lon="5.73102">
        <ele>656.6</ele>
        <time>2026-05-13T10:49:51Z</time>
      </trkpt>
      <trkpt lat="45.92958" lon="5.73103">
        <ele>657.2</ele>
        <time>2026-05-13T10:49:52Z</time>
      </trkpt>
      <trkpt lat="45.92958" lon="5.73104">
        <ele>657.6</ele>
        <time>2026-05-13T10:49:53Z</time>
      </trkpt>
      <trkpt lat="45.92957" lon="5.73105">
        <ele>657.6</ele>
        <time>2026-05-13T10:49:54Z</time>
      </trkpt>
      <trkpt lat="45.92957" lon="5.73106">
        <ele>658</ele>
        <time>2026-05-13T10:49:55Z</time>
      </trkpt>
      <trkpt lat="45.92957" lon="5.73107">
        <ele>658.2</ele>
        <time>2026-05-13T10:49:56Z</time>
      </trkpt>
      <trkpt lat="45.92956" lon="5.73108">
        <ele>658.2</ele>
        <time>2026-05-13T10:49:57Z</time>
      </trkpt>
      <trkpt lat="45.92956" lon="5.73109">
        <ele>658.6</ele>
        <time>2026-05-13T10:49:58Z</time>
      </trkpt>
      <trkpt lat="45.92956" lon="5.7311">
        <ele>658.6</ele>
        <time>2026-05-13T10:49:59Z</time>
      </trkpt>
      <trkpt lat="45.92957" lon="5.73111">
        <ele>659</ele>
        <time>2026-05-13T10:50:00Z</time>
      </trkpt>
      <trkpt lat="45.92957" lon="5.73111">
        <ele>659.2</ele>
        <time>2026-05-13T10:50:01Z</time>
      </trkpt>
      <trkpt lat="45.92957" lon="5.73111">
        <ele>659.4</ele>
        <time>2026-05-13T10:50:02Z</time>
      </trkpt>
      <trkpt lat="45.92956" lon="5.73112">
        <ele>659.4</ele>
        <time>2026-05-13T10:50:03Z</time>
      </trkpt>
      <trkpt lat="45.92956" lon="5.73112">
        <ele>659.8</ele>
        <time>2026-05-13T10:50:04Z</time>
      </trkpt>
      <trkpt lat="45.92955" lon="5.73113">
        <ele>659.8</ele>
        <time>2026-05-13T10:50:05Z</time>
      </trkpt>
      <trkpt lat="45.92955" lon="5.73114">
        <ele>660.2</ele>
        <time>2026-05-13T10:50:06Z</time>
      </trkpt>
      <trkpt lat="45.92954" lon="5.73115">
        <ele>660.2</ele>
        <time>2026-05-13T10:50:07Z</time>
      </trkpt>
      <trkpt lat="45.92954" lon="5.73117">
        <ele>660.6</ele>
        <time>2026-05-13T10:50:08Z</time>
      </trkpt>
      <trkpt lat="45.92953" lon="5.73118">
        <ele>660.6</ele>
        <time>2026-05-13T10:50:09Z</time>
      </trkpt>
      <trkpt lat="45.92952" lon="5.73119">
        <ele>661</ele>
        <time>2026-05-13T10:50:10Z</time>
      </trkpt>
      <trkpt lat="45.92952" lon="5.7312">
        <ele>661</ele>
        <time>2026-05-13T10:50:11Z</time>
      </trkpt>
      <trkpt lat="45.92952" lon="5.73121">
        <ele>661.2</ele>
        <time>2026-05-13T10:50:12Z</time>
      </trkpt>
      <trkpt lat="45.92951" lon="5.73122">
        <ele>661.4</ele>
        <time>2026-05-13T10:50:13Z</time>
      </trkpt>
      <trkpt lat="45.92952" lon="5.73122">
        <ele>661.4</ele>
        <time>2026-05-13T10:50:14Z</time>
      </trkpt>
      <trkpt lat="45.92951" lon="5.73124">
        <ele>661.8</ele>
        <time>2026-05-13T10:50:15Z</time>
      </trkpt>
      <trkpt lat="45.92951" lon="5.73126">
        <ele>662</ele>
        <time>2026-05-13T10:50:16Z</time>
      </trkpt>
      <trkpt lat="45.9295" lon="5.73127">
        <ele>662</ele>
        <time>2026-05-13T10:50:17Z</time>
      </trkpt>
      <trkpt lat="45.92949" lon="5.73129">
        <ele>662.4</ele>
        <time>2026-05-13T10:50:18Z</time>
      </trkpt>
      <trkpt lat="45.92948" lon="5.7313">
        <ele>662.4</ele>
        <time>2026-05-13T10:50:19Z</time>
      </trkpt>
      <trkpt lat="45.92948" lon="5.73131">
        <ele>662.4</ele>
        <time>2026-05-13T10:50:20Z</time>
      </trkpt>
      <trkpt lat="45.92948" lon="5.73132">
        <ele>663</ele>
        <time>2026-05-13T10:50:21Z</time>
      </trkpt>
      <trkpt lat="45.92947" lon="5.73134">
        <ele>663</ele>
        <time>2026-05-13T10:50:22Z</time>
      </trkpt>
      <trkpt lat="45.92946" lon="5.73135">
        <ele>663.2</ele>
        <time>2026-05-13T10:50:23Z</time>
      </trkpt>
      <trkpt lat="45.92945" lon="5.73137">
        <ele>663.2</ele>
        <time>2026-05-13T10:50:24Z</time>
      </trkpt>
      <trkpt lat="45.92945" lon="5.73138">
        <ele>663.6</ele>
        <time>2026-05-13T10:50:25Z</time>
      </trkpt>
      <trkpt lat="45.92944" lon="5.73139">
        <ele>663.6</ele>
        <time>2026-05-13T10:50:26Z</time>
      </trkpt>
      <trkpt lat="45.92943" lon="5.7314">
        <ele>664</ele>
        <time>2026-05-13T10:50:27Z</time>
      </trkpt>
      <trkpt lat="45.92943" lon="5.73141">
        <ele>664.2</ele>
        <time>2026-05-13T10:50:28Z</time>
      </trkpt>
      <trkpt lat="45.92943" lon="5.73143">
        <ele>664.4</ele>
        <time>2026-05-13T10:50:29Z</time>
      </trkpt>
      <trkpt lat="45.92943" lon="5.73144">
        <ele>664.4</ele>
        <time>2026-05-13T10:50:30Z</time>
      </trkpt>
      <trkpt lat="45.92943" lon="5.73145">
        <ele>664.8</ele>
        <time>2026-05-13T10:50:31Z</time>
      </trkpt>
      <trkpt lat="45.92943" lon="5.73146">
        <ele>665</ele>
        <time>2026-05-13T10:50:32Z</time>
      </trkpt>
      <trkpt lat="45.92943" lon="5.73148">
        <ele>665.4</ele>
        <time>2026-05-13T10:50:33Z</time>
      </trkpt>
      <trkpt lat="45.92943" lon="5.73149">
        <ele>665.6</ele>
        <time>2026-05-13T10:50:34Z</time>
      </trkpt>
      <trkpt lat="45.92943" lon="5.7315">
        <ele>665.6</ele>
        <time>2026-05-13T10:50:35Z</time>
      </trkpt>
      <trkpt lat="45.92943" lon="5.73151">
        <ele>665.8</ele>
        <time>2026-05-13T10:50:36Z</time>
      </trkpt>
      <trkpt lat="45.92943" lon="5.73153">
        <ele>665.8</ele>
        <time>2026-05-13T10:50:37Z</time>
      </trkpt>
      <trkpt lat="45.92943" lon="5.73154">
        <ele>666.2</ele>
        <time>2026-05-13T10:50:38Z</time>
      </trkpt>
      <trkpt lat="45.92943" lon="5.73155">
        <ele>666.4</ele>
        <time>2026-05-13T10:50:39Z</time>
      </trkpt>
      <trkpt lat="45.92943" lon="5.73156">
        <ele>666.6</ele>
        <time>2026-05-13T10:50:40Z</time>
      </trkpt>
      <trkpt lat="45.92942" lon="5.73157">
        <ele>667</ele>
        <time>2026-05-13T10:50:41Z</time>
      </trkpt>
      <trkpt lat="45.92942" lon="5.73158">
        <ele>667</ele>
        <time>2026-05-13T10:50:42Z</time>
      </trkpt>
      <trkpt lat="45.92942" lon="5.73159">
        <ele>667.4</ele>
        <time>2026-05-13T10:50:43Z</time>
      </trkpt>
      <trkpt lat="45.92942" lon="5.7316">
        <ele>667.6</ele>
        <time>2026-05-13T10:50:44Z</time>
      </trkpt>
      <trkpt lat="45.92943" lon="5.7316">
        <ele>667.8</ele>
        <time>2026-05-13T10:50:45Z</time>
      </trkpt>
      <trkpt lat="45.92943" lon="5.73161">
        <ele>667.8</ele>
        <time>2026-05-13T10:50:46Z</time>
      </trkpt>
      <trkpt lat="45.92944" lon="5.73162">
        <ele>668</ele>
        <time>2026-05-13T10:50:47Z</time>
      </trkpt>
      <trkpt lat="45.92945" lon="5.73163">
        <ele>668</ele>
        <time>2026-05-13T10:50:48Z</time>
      </trkpt>
      <trkpt lat="45.92946" lon="5.73163">
        <ele>668</ele>
        <time>2026-05-13T10:50:49Z</time>
      </trkpt>
      <trkpt lat="45.92946" lon="5.73163">
        <ele>668.6</ele>
        <time>2026-05-13T10:50:50Z</time>
      </trkpt>
      <trkpt lat="45.92947" lon="5.73163">
        <ele>668.4</ele>
        <time>2026-05-13T10:50:55Z</time>
      </trkpt>
      <trkpt lat="45.92948" lon="5.73164">
        <ele>668.4</ele>
        <time>2026-05-13T10:50:56Z</time>
      </trkpt>
      <trkpt lat="45.92949" lon="5.73166">
        <ele>668.4</ele>
        <time>2026-05-13T10:50:57Z</time>
      </trkpt>
      <trkpt lat="45.9295" lon="5.73167">
        <ele>668.8</ele>
        <time>2026-05-13T10:50:58Z</time>
      </trkpt>
      <trkpt lat="45.92951" lon="5.73167">
        <ele>668.8</ele>
        <time>2026-05-13T10:50:59Z</time>
      </trkpt>
      <trkpt lat="45.92951" lon="5.73168">
        <ele>669</ele>
        <time>2026-05-13T10:51:00Z</time>
      </trkpt>
      <trkpt lat="45.92953" lon="5.73168">
        <ele>669.2</ele>
        <time>2026-05-13T10:51:01Z</time>
      </trkpt>
      <trkpt lat="45.92954" lon="5.73169">
        <ele>669.2</ele>
        <time>2026-05-13T10:51:02Z</time>
      </trkpt>
      <trkpt lat="45.92955" lon="5.73169">
        <ele>669.6</ele>
        <time>2026-05-13T10:51:03Z</time>
      </trkpt>
      <trkpt lat="45.92956" lon="5.7317">
        <ele>669.6</ele>
        <time>2026-05-13T10:51:04Z</time>
      </trkpt>
      <trkpt lat="45.92957" lon="5.73171">
        <ele>670</ele>
        <time>2026-05-13T10:51:05Z</time>
      </trkpt>
      <trkpt lat="45.92957" lon="5.73172">
        <ele>670</ele>
        <time>2026-05-13T10:51:06Z</time>
      </trkpt>
      <trkpt lat="45.92958" lon="5.73172">
        <ele>670.2</ele>
        <time>2026-05-13T10:51:07Z</time>
      </trkpt>
      <trkpt lat="45.92959" lon="5.73173">
        <ele>670.2</ele>
        <time>2026-05-13T10:51:08Z</time>
      </trkpt>
      <trkpt lat="45.92959" lon="5.73173">
        <ele>670.6</ele>
        <time>2026-05-13T10:51:09Z</time>
      </trkpt>
      <trkpt lat="45.92959" lon="5.73172">
        <ele>670.6</ele>
        <time>2026-05-13T10:51:10Z</time>
      </trkpt>
      <trkpt lat="45.9296" lon="5.73172">
        <ele>671.4</ele>
        <time>2026-05-13T10:51:13Z</time>
      </trkpt>
      <trkpt lat="45.92961" lon="5.73172">
        <ele>671.4</ele>
        <time>2026-05-13T10:51:14Z</time>
      </trkpt>
      <trkpt lat="45.92962" lon="5.73172">
        <ele>671.8</ele>
        <time>2026-05-13T10:51:15Z</time>
      </trkpt>
      <trkpt lat="45.92963" lon="5.73172">
        <ele>672</ele>
        <time>2026-05-13T10:51:16Z</time>
      </trkpt>
      <trkpt lat="45.92963" lon="5.73172">
        <ele>672.4</ele>
        <time>2026-05-13T10:51:17Z</time>
      </trkpt>
      <trkpt lat="45.92964" lon="5.73173">
        <ele>672.6</ele>
        <time>2026-05-13T10:51:18Z</time>
      </trkpt>
      <trkpt lat="45.92966" lon="5.73174">
        <ele>673</ele>
        <time>2026-05-13T10:51:19Z</time>
      </trkpt>
      <trkpt lat="45.92967" lon="5.73175">
        <ele>673</ele>
        <time>2026-05-13T10:51:20Z</time>
      </trkpt>
      <trkpt lat="45.92968" lon="5.73175">
        <ele>673.6</ele>
        <time>2026-05-13T10:51:21Z</time>
      </trkpt>
      <trkpt lat="45.92969" lon="5.73175">
        <ele>673.6</ele>
        <time>2026-05-13T10:51:22Z</time>
      </trkpt>
      <trkpt lat="45.9297" lon="5.73176">
        <ele>673.8</ele>
        <time>2026-05-13T10:51:23Z</time>
      </trkpt>
      <trkpt lat="45.92971" lon="5.73177">
        <ele>673.8</ele>
        <time>2026-05-13T10:51:24Z</time>
      </trkpt>
      <trkpt lat="45.92971" lon="5.73177">
        <ele>674.4</ele>
        <time>2026-05-13T10:51:25Z</time>
      </trkpt>
      <trkpt lat="45.92972" lon="5.73178">
        <ele>674.6</ele>
        <time>2026-05-13T10:51:26Z</time>
      </trkpt>
      <trkpt lat="45.92973" lon="5.73178">
        <ele>674.6</ele>
        <time>2026-05-13T10:51:27Z</time>
      </trkpt>
      <trkpt lat="45.92975" lon="5.73178">
        <ele>675</ele>
        <time>2026-05-13T10:51:28Z</time>
      </trkpt>
      <trkpt lat="45.92975" lon="5.73177">
        <ele>675</ele>
        <time>2026-05-13T10:51:29Z</time>
      </trkpt>
      <trkpt lat="45.92976" lon="5.73177">
        <ele>675.2</ele>
        <time>2026-05-13T10:51:30Z</time>
      </trkpt>
      <trkpt lat="45.92978" lon="5.73178">
        <ele>675.4</ele>
        <time>2026-05-13T10:51:31Z</time>
      </trkpt>
      <trkpt lat="45.92979" lon="5.73177">
        <ele>675.4</ele>
        <time>2026-05-13T10:51:32Z</time>
      </trkpt>
      <trkpt lat="45.9298" lon="5.73177">
        <ele>675.8</ele>
        <time>2026-05-13T10:51:33Z</time>
      </trkpt>
      <trkpt lat="45.92982" lon="5.73178">
        <ele>675.8</ele>
        <time>2026-05-13T10:51:34Z</time>
      </trkpt>
      <trkpt lat="45.92983" lon="5.73178">
        <ele>676</ele>
        <time>2026-05-13T10:51:35Z</time>
      </trkpt>
      <trkpt lat="45.92983" lon="5.73178">
        <ele>676</ele>
        <time>2026-05-13T10:51:36Z</time>
      </trkpt>
      <trkpt lat="45.92982" lon="5.73178">
        <ele>676</ele>
        <time>2026-05-13T10:51:37Z</time>
      </trkpt>
      <trkpt lat="45.92989" lon="5.73177">
        <ele>677</ele>
        <time>2026-05-13T10:52:08Z</time>
      </trkpt>
      <trkpt lat="45.92991" lon="5.73176">
        <ele>677</ele>
        <time>2026-05-13T10:52:09Z</time>
      </trkpt>
      <trkpt lat="45.92991" lon="5.73175">
        <ele>677.2</ele>
        <time>2026-05-13T10:52:10Z</time>
      </trkpt>
      <trkpt lat="45.92992" lon="5.73175">
        <ele>677.2</ele>
        <time>2026-05-13T10:52:11Z</time>
      </trkpt>
      <trkpt lat="45.92994" lon="5.73174">
        <ele>677.4</ele>
        <time>2026-05-13T10:52:12Z</time>
      </trkpt>
      <trkpt lat="45.92995" lon="5.73174">
        <ele>677.4</ele>
        <time>2026-05-13T10:52:13Z</time>
      </trkpt>
      <trkpt lat="45.92996" lon="5.73173">
        <ele>677.8</ele>
        <time>2026-05-13T10:52:14Z</time>
      </trkpt>
      <trkpt lat="45.92998" lon="5.73173">
        <ele>677.8</ele>
        <time>2026-05-13T10:52:15Z</time>
      </trkpt>
      <trkpt lat="45.92999" lon="5.73172">
        <ele>678</ele>
        <time>2026-05-13T10:52:16Z</time>
      </trkpt>
      <trkpt lat="45.93001" lon="5.73172">
        <ele>678</ele>
        <time>2026-05-13T10:52:17Z</time>
      </trkpt>
      <trkpt lat="45.93003" lon="5.73171">
        <ele>678.4</ele>
        <time>2026-05-13T10:52:18Z</time>
      </trkpt>
      <trkpt lat="45.93005" lon="5.73171">
        <ele>678.4</ele>
        <time>2026-05-13T10:52:19Z</time>
      </trkpt>
      <trkpt lat="45.93006" lon="5.73171">
        <ele>678.6</ele>
        <time>2026-05-13T10:52:20Z</time>
      </trkpt>
      <trkpt lat="45.93008" lon="5.73171">
        <ele>678.6</ele>
        <time>2026-05-13T10:52:21Z</time>
      </trkpt>
      <trkpt lat="45.93009" lon="5.7317">
        <ele>679</ele>
        <time>2026-05-13T10:52:22Z</time>
      </trkpt>
      <trkpt lat="45.9301" lon="5.7317">
        <ele>679</ele>
        <time>2026-05-13T10:52:23Z</time>
      </trkpt>
      <trkpt lat="45.93012" lon="5.73169">
        <ele>679.2</ele>
        <time>2026-05-13T10:52:24Z</time>
      </trkpt>
      <trkpt lat="45.93013" lon="5.73169">
        <ele>679.2</ele>
        <time>2026-05-13T10:52:25Z</time>
      </trkpt>
      <trkpt lat="45.93015" lon="5.73168">
        <ele>679.6</ele>
        <time>2026-05-13T10:52:26Z</time>
      </trkpt>
      <trkpt lat="45.93016" lon="5.73168">
        <ele>679.6</ele>
        <time>2026-05-13T10:52:27Z</time>
      </trkpt>
      <trkpt lat="45.93018" lon="5.73168">
        <ele>680</ele>
        <time>2026-05-13T10:52:28Z</time>
      </trkpt>
      <trkpt lat="45.9302" lon="5.73168">
        <ele>680</ele>
        <time>2026-05-13T10:52:29Z</time>
      </trkpt>
      <trkpt lat="45.93021" lon="5.73168">
        <ele>680.2</ele>
        <time>2026-05-13T10:52:30Z</time>
      </trkpt>
      <trkpt lat="45.93023" lon="5.73168">
        <ele>680.2</ele>
        <time>2026-05-13T10:52:31Z</time>
      </trkpt>
      <trkpt lat="45.93025" lon="5.73168">
        <ele>680.6</ele>
        <time>2026-05-13T10:52:32Z</time>
      </trkpt>
      <trkpt lat="45.93026" lon="5.73168">
        <ele>680.8</ele>
        <time>2026-05-13T10:52:33Z</time>
      </trkpt>
      <trkpt lat="45.93028" lon="5.73168">
        <ele>681</ele>
        <time>2026-05-13T10:52:34Z</time>
      </trkpt>
      <trkpt lat="45.93029" lon="5.73168">
        <ele>681</ele>
        <time>2026-05-13T10:52:35Z</time>
      </trkpt>
      <trkpt lat="45.9303" lon="5.73168">
        <ele>681.4</ele>
        <time>2026-05-13T10:52:36Z</time>
      </trkpt>
      <trkpt lat="45.93032" lon="5.73168">
        <ele>681.4</ele>
        <time>2026-05-13T10:52:37Z</time>
      </trkpt>
      <trkpt lat="45.93033" lon="5.73168">
        <ele>681.4</ele>
        <time>2026-05-13T10:52:38Z</time>
      </trkpt>
      <trkpt lat="45.93035" lon="5.73168">
        <ele>681.8</ele>
        <time>2026-05-13T10:52:39Z</time>
      </trkpt>
      <trkpt lat="45.93037" lon="5.73169">
        <ele>682</ele>
        <time>2026-05-13T10:52:40Z</time>
      </trkpt>
      <trkpt lat="45.93039" lon="5.73169">
        <ele>682.2</ele>
        <time>2026-05-13T10:52:41Z</time>
      </trkpt>
      <trkpt lat="45.9304" lon="5.73169">
        <ele>682.6</ele>
        <time>2026-05-13T10:52:42Z</time>
      </trkpt>
      <trkpt lat="45.93041" lon="5.73169">
        <ele>682.8</ele>
        <time>2026-05-13T10:52:43Z</time>
      </trkpt>
      <trkpt lat="45.93042" lon="5.73169">
        <ele>683</ele>
        <time>2026-05-13T10:52:44Z</time>
      </trkpt>
      <trkpt lat="45.93044" lon="5.73169">
        <ele>683</ele>
        <time>2026-05-13T10:52:45Z</time>
      </trkpt>
      <trkpt lat="45.93045" lon="5.73169">
        <ele>683.4</ele>
        <time>2026-05-13T10:52:46Z</time>
      </trkpt>
      <trkpt lat="45.93047" lon="5.7317">
        <ele>683.6</ele>
        <time>2026-05-13T10:52:47Z</time>
      </trkpt>
      <trkpt lat="45.93048" lon="5.7317">
        <ele>683.6</ele>
        <time>2026-05-13T10:52:48Z</time>
      </trkpt>
      <trkpt lat="45.93049" lon="5.73171">
        <ele>684</ele>
        <time>2026-05-13T10:52:49Z</time>
      </trkpt>
      <trkpt lat="45.9305" lon="5.73171">
        <ele>684.4</ele>
        <time>2026-05-13T10:52:50Z</time>
      </trkpt>
      <trkpt lat="45.93051" lon="5.73171">
        <ele>684.4</ele>
        <time>2026-05-13T10:52:51Z</time>
      </trkpt>
      <trkpt lat="45.93053" lon="5.73171">
        <ele>684.6</ele>
        <time>2026-05-13T10:52:52Z</time>
      </trkpt>
      <trkpt lat="45.93055" lon="5.73171">
        <ele>684.6</ele>
        <time>2026-05-13T10:52:53Z</time>
      </trkpt>
      <trkpt lat="45.93056" lon="5.7317">
        <ele>685.2</ele>
        <time>2026-05-13T10:52:54Z</time>
      </trkpt>
      <trkpt lat="45.93057" lon="5.7317">
        <ele>685.2</ele>
        <time>2026-05-13T10:52:55Z</time>
      </trkpt>
      <trkpt lat="45.93059" lon="5.7317">
        <ele>685.4</ele>
        <time>2026-05-13T10:52:56Z</time>
      </trkpt>
      <trkpt lat="45.93061" lon="5.7317">
        <ele>685.6</ele>
        <time>2026-05-13T10:52:57Z</time>
      </trkpt>
      <trkpt lat="45.93062" lon="5.7317">
        <ele>686</ele>
        <time>2026-05-13T10:52:58Z</time>
      </trkpt>
      <trkpt lat="45.93063" lon="5.7317">
        <ele>686</ele>
        <time>2026-05-13T10:52:59Z</time>
      </trkpt>
      <trkpt lat="45.93064" lon="5.7317">
        <ele>686.4</ele>
        <time>2026-05-13T10:53:00Z</time>
      </trkpt>
      <trkpt lat="45.93066" lon="5.7317">
        <ele>686.6</ele>
        <time>2026-05-13T10:53:01Z</time>
      </trkpt>
      <trkpt lat="45.93067" lon="5.7317">
        <ele>686.8</ele>
        <time>2026-05-13T10:53:02Z</time>
      </trkpt>
      <trkpt lat="45.93068" lon="5.7317">
        <ele>686.8</ele>
        <time>2026-05-13T10:53:03Z</time>
      </trkpt>
      <trkpt lat="45.9307" lon="5.73171">
        <ele>687.2</ele>
        <time>2026-05-13T10:53:04Z</time>
      </trkpt>
      <trkpt lat="45.93071" lon="5.73171">
        <ele>687.2</ele>
        <time>2026-05-13T10:53:05Z</time>
      </trkpt>
      <trkpt lat="45.93072" lon="5.73172">
        <ele>687.4</ele>
        <time>2026-05-13T10:53:06Z</time>
      </trkpt>
      <trkpt lat="45.93074" lon="5.73172">
        <ele>687.4</ele>
        <time>2026-05-13T10:53:07Z</time>
      </trkpt>
      <trkpt lat="45.93075" lon="5.73171">
        <ele>687.6</ele>
        <time>2026-05-13T10:53:08Z</time>
      </trkpt>
      <trkpt lat="45.93077" lon="5.73171">
        <ele>688</ele>
        <time>2026-05-13T10:53:09Z</time>
      </trkpt>
      <trkpt lat="45.93078" lon="5.73172">
        <ele>688.2</ele>
        <time>2026-05-13T10:53:10Z</time>
      </trkpt>
      <trkpt lat="45.9308" lon="5.73173">
        <ele>688.6</ele>
        <time>2026-05-13T10:53:11Z</time>
      </trkpt>
      <trkpt lat="45.93081" lon="5.73174">
        <ele>688.6</ele>
        <time>2026-05-13T10:53:12Z</time>
      </trkpt>
      <trkpt lat="45.93082" lon="5.73174">
        <ele>688.8</ele>
        <time>2026-05-13T10:53:13Z</time>
      </trkpt>
      <trkpt lat="45.93083" lon="5.73174">
        <ele>688.8</ele>
        <time>2026-05-13T10:53:14Z</time>
      </trkpt>
      <trkpt lat="45.93084" lon="5.73175">
        <ele>689.2</ele>
        <time>2026-05-13T10:53:15Z</time>
      </trkpt>
      <trkpt lat="45.93086" lon="5.73175">
        <ele>689.2</ele>
        <time>2026-05-13T10:53:16Z</time>
      </trkpt>
      <trkpt lat="45.93087" lon="5.73176">
        <ele>689.6</ele>
        <time>2026-05-13T10:53:17Z</time>
      </trkpt>
      <trkpt lat="45.93088" lon="5.73176">
        <ele>689.6</ele>
        <time>2026-05-13T10:53:18Z</time>
      </trkpt>
      <trkpt lat="45.93089" lon="5.73176">
        <ele>689.6</ele>
        <time>2026-05-13T10:53:19Z</time>
      </trkpt>
      <trkpt lat="45.93089" lon="5.73176">
        <ele>690</ele>
        <time>2026-05-13T10:53:20Z</time>
      </trkpt>
      <trkpt lat="45.9309" lon="5.73177">
        <ele>690</ele>
        <time>2026-05-13T10:53:21Z</time>
      </trkpt>
      <trkpt lat="45.93091" lon="5.73178">
        <ele>690.4</ele>
        <time>2026-05-13T10:53:22Z</time>
      </trkpt>
      <trkpt lat="45.93092" lon="5.73178">
        <ele>690.4</ele>
        <time>2026-05-13T10:53:23Z</time>
      </trkpt>
      <trkpt lat="45.93093" lon="5.7318">
        <ele>690.8</ele>
        <time>2026-05-13T10:53:24Z</time>
      </trkpt>
      <trkpt lat="45.93094" lon="5.7318">
        <ele>690.8</ele>
        <time>2026-05-13T10:53:25Z</time>
      </trkpt>
      <trkpt lat="45.93096" lon="5.73181">
        <ele>691.2</ele>
        <time>2026-05-13T10:53:26Z</time>
      </trkpt>
      <trkpt lat="45.93097" lon="5.73181">
        <ele>691.2</ele>
        <time>2026-05-13T10:53:27Z</time>
      </trkpt>
      <trkpt lat="45.93098" lon="5.73181">
        <ele>691.8</ele>
        <time>2026-05-13T10:53:28Z</time>
      </trkpt>
      <trkpt lat="45.93099" lon="5.73181">
        <ele>691.8</ele>
        <time>2026-05-13T10:53:29Z</time>
      </trkpt>
      <trkpt lat="45.931" lon="5.73182">
        <ele>692.2</ele>
        <time>2026-05-13T10:53:30Z</time>
      </trkpt>
      <trkpt lat="45.93101" lon="5.73182">
        <ele>692.4</ele>
        <time>2026-05-13T10:53:31Z</time>
      </trkpt>
      <trkpt lat="45.93102" lon="5.73183">
        <ele>692.8</ele>
        <time>2026-05-13T10:53:32Z</time>
      </trkpt>
      <trkpt lat="45.93103" lon="5.73183">
        <ele>693</ele>
        <time>2026-05-13T10:53:33Z</time>
      </trkpt>
      <trkpt lat="45.93105" lon="5.73183">
        <ele>693.2</ele>
        <time>2026-05-13T10:53:34Z</time>
      </trkpt>
      <trkpt lat="45.93106" lon="5.73183">
        <ele>693.4</ele>
        <time>2026-05-13T10:53:35Z</time>
      </trkpt>
      <trkpt lat="45.93107" lon="5.73184">
        <ele>693.4</ele>
        <time>2026-05-13T10:53:36Z</time>
      </trkpt>
      <trkpt lat="45.93108" lon="5.73184">
        <ele>693.8</ele>
        <time>2026-05-13T10:53:37Z</time>
      </trkpt>
      <trkpt lat="45.93109" lon="5.73185">
        <ele>693.8</ele>
        <time>2026-05-13T10:53:38Z</time>
      </trkpt>
      <trkpt lat="45.93109" lon="5.73184">
        <ele>694.2</ele>
        <time>2026-05-13T10:53:39Z</time>
      </trkpt>
      <trkpt lat="45.93109" lon="5.73184">
        <ele>694.2</ele>
        <time>2026-05-13T10:53:40Z</time>
      </trkpt>
      <trkpt lat="45.9311" lon="5.73184">
        <ele>694.6</ele>
        <time>2026-05-13T10:53:41Z</time>
      </trkpt>
      <trkpt lat="45.93112" lon="5.73185">
        <ele>694.6</ele>
        <time>2026-05-13T10:53:42Z</time>
      </trkpt>
      <trkpt lat="45.93113" lon="5.73185">
        <ele>694.8</ele>
        <time>2026-05-13T10:53:43Z</time>
      </trkpt>
      <trkpt lat="45.93114" lon="5.73186">
        <ele>694.8</ele>
        <time>2026-05-13T10:53:44Z</time>
      </trkpt>
      <trkpt lat="45.93115" lon="5.73186">
        <ele>695.2</ele>
        <time>2026-05-13T10:53:45Z</time>
      </trkpt>
      <trkpt lat="45.93116" lon="5.73187">
        <ele>695.2</ele>
        <time>2026-05-13T10:53:46Z</time>
      </trkpt>
      <trkpt lat="45.93117" lon="5.73188">
        <ele>695.4</ele>
        <time>2026-05-13T10:53:47Z</time>
      </trkpt>
      <trkpt lat="45.93119" lon="5.73188">
        <ele>695.6</ele>
        <time>2026-05-13T10:53:48Z</time>
      </trkpt>
      <trkpt lat="45.93121" lon="5.73188">
        <ele>695.6</ele>
        <time>2026-05-13T10:53:49Z</time>
      </trkpt>
      <trkpt lat="45.93123" lon="5.73189">
        <ele>696</ele>
        <time>2026-05-13T10:53:50Z</time>
      </trkpt>
      <trkpt lat="45.93124" lon="5.73189">
        <ele>696.2</ele>
        <time>2026-05-13T10:53:51Z</time>
      </trkpt>
      <trkpt lat="45.93125" lon="5.73189">
        <ele>696.4</ele>
        <time>2026-05-13T10:53:52Z</time>
      </trkpt>
      <trkpt lat="45.93127" lon="5.73189">
        <ele>696.8</ele>
        <time>2026-05-13T10:53:53Z</time>
      </trkpt>
      <trkpt lat="45.93128" lon="5.73189">
        <ele>697.2</ele>
        <time>2026-05-13T10:53:54Z</time>
      </trkpt>
      <trkpt lat="45.93129" lon="5.73189">
        <ele>697.4</ele>
        <time>2026-05-13T10:53:55Z</time>
      </trkpt>
      <trkpt lat="45.9313" lon="5.73189">
        <ele>697.4</ele>
        <time>2026-05-13T10:53:56Z</time>
      </trkpt>
      <trkpt lat="45.93131" lon="5.73188">
        <ele>697.8</ele>
        <time>2026-05-13T10:53:57Z</time>
      </trkpt>
      <trkpt lat="45.93132" lon="5.73189">
        <ele>698</ele>
        <time>2026-05-13T10:53:58Z</time>
      </trkpt>
      <trkpt lat="45.93134" lon="5.73189">
        <ele>698</ele>
        <time>2026-05-13T10:53:59Z</time>
      </trkpt>
      <trkpt lat="45.93135" lon="5.73189">
        <ele>698.4</ele>
        <time>2026-05-13T10:54:00Z</time>
      </trkpt>
      <trkpt lat="45.93136" lon="5.73189">
        <ele>698.6</ele>
        <time>2026-05-13T10:54:01Z</time>
      </trkpt>
      <trkpt lat="45.93138" lon="5.73189">
        <ele>698.6</ele>
        <time>2026-05-13T10:54:02Z</time>
      </trkpt>
      <trkpt lat="45.93139" lon="5.73188">
        <ele>698.8</ele>
        <time>2026-05-13T10:54:03Z</time>
      </trkpt>
      <trkpt lat="45.93141" lon="5.73189">
        <ele>699</ele>
        <time>2026-05-13T10:54:04Z</time>
      </trkpt>
      <trkpt lat="45.93142" lon="5.73189">
        <ele>699</ele>
        <time>2026-05-13T10:54:05Z</time>
      </trkpt>
      <trkpt lat="45.93142" lon="5.73189">
        <ele>699.4</ele>
        <time>2026-05-13T10:54:06Z</time>
      </trkpt>
      <trkpt lat="45.93143" lon="5.73189">
        <ele>699.6</ele>
        <time>2026-05-13T10:54:07Z</time>
      </trkpt>
      <trkpt lat="45.93143" lon="5.73189">
        <ele>699.6</ele>
        <time>2026-05-13T10:54:08Z</time>
      </trkpt>
      <trkpt lat="45.93144" lon="5.73188">
        <ele>699.8</ele>
        <time>2026-05-13T10:54:09Z</time>
      </trkpt>
      <trkpt lat="45.93145" lon="5.73188">
        <ele>699.8</ele>
        <time>2026-05-13T10:54:10Z</time>
      </trkpt>
      <trkpt lat="45.93146" lon="5.73188">
        <ele>700.2</ele>
        <time>2026-05-13T10:54:11Z</time>
      </trkpt>
      <trkpt lat="45.93148" lon="5.73188">
        <ele>700.2</ele>
        <time>2026-05-13T10:54:12Z</time>
      </trkpt>
      <trkpt lat="45.9315" lon="5.73188">
        <ele>700.8</ele>
        <time>2026-05-13T10:54:13Z</time>
      </trkpt>
      <trkpt lat="45.93151" lon="5.73189">
        <ele>701</ele>
        <time>2026-05-13T10:54:14Z</time>
      </trkpt>
      <trkpt lat="45.93152" lon="5.73189">
        <ele>701</ele>
        <time>2026-05-13T10:54:15Z</time>
      </trkpt>
      <trkpt lat="45.93153" lon="5.73189">
        <ele>701.2</ele>
        <time>2026-05-13T10:54:16Z</time>
      </trkpt>
      <trkpt lat="45.93154" lon="5.73189">
        <ele>701.6</ele>
        <time>2026-05-13T10:54:17Z</time>
      </trkpt>
      <trkpt lat="45.93156" lon="5.73189">
        <ele>701.6</ele>
        <time>2026-05-13T10:54:18Z</time>
      </trkpt>
      <trkpt lat="45.93157" lon="5.73189">
        <ele>702</ele>
        <time>2026-05-13T10:54:19Z</time>
      </trkpt>
      <trkpt lat="45.93158" lon="5.73189">
        <ele>702.2</ele>
        <time>2026-05-13T10:54:20Z</time>
      </trkpt>
      <trkpt lat="45.93158" lon="5.73189">
        <ele>702.4</ele>
        <time>2026-05-13T10:54:21Z</time>
      </trkpt>
      <trkpt lat="45.93159" lon="5.73189">
        <ele>702.4</ele>
        <time>2026-05-13T10:54:22Z</time>
      </trkpt>
      <trkpt lat="45.93159" lon="5.7319">
        <ele>702.8</ele>
        <time>2026-05-13T10:54:23Z</time>
      </trkpt>
      <trkpt lat="45.93161" lon="5.73189">
        <ele>702.8</ele>
        <time>2026-05-13T10:54:24Z</time>
      </trkpt>
      <trkpt lat="45.93162" lon="5.73189">
        <ele>703</ele>
        <time>2026-05-13T10:54:25Z</time>
      </trkpt>
      <trkpt lat="45.93163" lon="5.73189">
        <ele>703</ele>
        <time>2026-05-13T10:54:26Z</time>
      </trkpt>
      <trkpt lat="45.93165" lon="5.73189">
        <ele>703.4</ele>
        <time>2026-05-13T10:54:27Z</time>
      </trkpt>
      <trkpt lat="45.93166" lon="5.73189">
        <ele>703.4</ele>
        <time>2026-05-13T10:54:28Z</time>
      </trkpt>
      <trkpt lat="45.93167" lon="5.73189">
        <ele>703.6</ele>
        <time>2026-05-13T10:54:29Z</time>
      </trkpt>
      <trkpt lat="45.93167" lon="5.73189">
        <ele>703.6</ele>
        <time>2026-05-13T10:54:30Z</time>
      </trkpt>
      <trkpt lat="45.93168" lon="5.73189">
        <ele>704</ele>
        <time>2026-05-13T10:54:31Z</time>
      </trkpt>
      <trkpt lat="45.93169" lon="5.73189">
        <ele>704</ele>
        <time>2026-05-13T10:54:32Z</time>
      </trkpt>
      <trkpt lat="45.9317" lon="5.73189">
        <ele>704.2</ele>
        <time>2026-05-13T10:54:33Z</time>
      </trkpt>
      <trkpt lat="45.9317" lon="5.73189">
        <ele>704.2</ele>
        <time>2026-05-13T10:54:34Z</time>
      </trkpt>
      <trkpt lat="45.93172" lon="5.73189">
        <ele>704.2</ele>
        <time>2026-05-13T10:54:35Z</time>
      </trkpt>
      <trkpt lat="45.93172" lon="5.7319">
        <ele>704.4</ele>
        <time>2026-05-13T10:54:36Z</time>
      </trkpt>
      <trkpt lat="45.93174" lon="5.73191">
        <ele>704.8</ele>
        <time>2026-05-13T10:54:37Z</time>
      </trkpt>
      <trkpt lat="45.93175" lon="5.73191">
        <ele>704.8</ele>
        <time>2026-05-13T10:54:38Z</time>
      </trkpt>
      <trkpt lat="45.93176" lon="5.73191">
        <ele>704.2</ele>
        <time>2026-05-13T10:54:39Z</time>
      </trkpt>
      <trkpt lat="45.93177" lon="5.73192">
        <ele>704.6</ele>
        <time>2026-05-13T10:54:40Z</time>
      </trkpt>
      <trkpt lat="45.93177" lon="5.73192">
        <ele>704.6</ele>
        <time>2026-05-13T10:54:41Z</time>
      </trkpt>
      <trkpt lat="45.93178" lon="5.73193">
        <ele>704.8</ele>
        <time>2026-05-13T10:54:42Z</time>
      </trkpt>
      <trkpt lat="45.93178" lon="5.73193">
        <ele>705</ele>
        <time>2026-05-13T10:54:43Z</time>
      </trkpt>
      <trkpt lat="45.93179" lon="5.73193">
        <ele>705.4</ele>
        <time>2026-05-13T10:54:44Z</time>
      </trkpt>
      <trkpt lat="45.9318" lon="5.73193">
        <ele>705.6</ele>
        <time>2026-05-13T10:54:45Z</time>
      </trkpt>
      <trkpt lat="45.93181" lon="5.73193">
        <ele>705.8</ele>
        <time>2026-05-13T10:54:46Z</time>
      </trkpt>
      <trkpt lat="45.93182" lon="5.73192">
        <ele>706</ele>
        <time>2026-05-13T10:54:47Z</time>
      </trkpt>
      <trkpt lat="45.93182" lon="5.73192">
        <ele>706</ele>
        <time>2026-05-13T10:54:48Z</time>
      </trkpt>
      <trkpt lat="45.93183" lon="5.73192">
        <ele>706.4</ele>
        <time>2026-05-13T10:54:49Z</time>
      </trkpt>
      <trkpt lat="45.93184" lon="5.73191">
        <ele>706.4</ele>
        <time>2026-05-13T10:54:50Z</time>
      </trkpt>
      <trkpt lat="45.93185" lon="5.73191">
        <ele>707</ele>
        <time>2026-05-13T10:54:51Z</time>
      </trkpt>
      <trkpt lat="45.93186" lon="5.73191">
        <ele>707.2</ele>
        <time>2026-05-13T10:54:52Z</time>
      </trkpt>
      <trkpt lat="45.93186" lon="5.73191">
        <ele>707.2</ele>
        <time>2026-05-13T10:54:53Z</time>
      </trkpt>
      <trkpt lat="45.93187" lon="5.73191">
        <ele>707.6</ele>
        <time>2026-05-13T10:54:54Z</time>
      </trkpt>
      <trkpt lat="45.93188" lon="5.73191">
        <ele>707.8</ele>
        <time>2026-05-13T10:54:55Z</time>
      </trkpt>
      <trkpt lat="45.93189" lon="5.73191">
        <ele>707.8</ele>
        <time>2026-05-13T10:54:56Z</time>
      </trkpt>
      <trkpt lat="45.9319" lon="5.73192">
        <ele>708</ele>
        <time>2026-05-13T10:54:57Z</time>
      </trkpt>
      <trkpt lat="45.93191" lon="5.73192">
        <ele>708</ele>
        <time>2026-05-13T10:54:58Z</time>
      </trkpt>
      <trkpt lat="45.93193" lon="5.73193">
        <ele>708</ele>
        <time>2026-05-13T10:54:59Z</time>
      </trkpt>
      <trkpt lat="45.93194" lon="5.73194">
        <ele>708.4</ele>
        <time>2026-05-13T10:55:00Z</time>
      </trkpt>
      <trkpt lat="45.93195" lon="5.73194">
        <ele>708.6</ele>
        <time>2026-05-13T10:55:01Z</time>
      </trkpt>
      <trkpt lat="45.93196" lon="5.73194">
        <ele>708.6</ele>
        <time>2026-05-13T10:55:02Z</time>
      </trkpt>
      <trkpt lat="45.93197" lon="5.73194">
        <ele>708.6</ele>
        <time>2026-05-13T10:55:03Z</time>
      </trkpt>
      <trkpt lat="45.93198" lon="5.73194">
        <ele>708.6</ele>
        <time>2026-05-13T10:55:04Z</time>
      </trkpt>
      <trkpt lat="45.93199" lon="5.73194">
        <ele>708.6</ele>
        <time>2026-05-13T10:55:05Z</time>
      </trkpt>
      <trkpt lat="45.932" lon="5.73195">
        <ele>709</ele>
        <time>2026-05-13T10:55:06Z</time>
      </trkpt>
      <trkpt lat="45.93201" lon="5.73195">
        <ele>709</ele>
        <time>2026-05-13T10:55:07Z</time>
      </trkpt>
      <trkpt lat="45.93201" lon="5.73195">
        <ele>709.2</ele>
        <time>2026-05-13T10:55:08Z</time>
      </trkpt>
      <trkpt lat="45.932" lon="5.73195">
        <ele>709.2</ele>
        <time>2026-05-13T10:55:09Z</time>
      </trkpt>
      <trkpt lat="45.932" lon="5.73194">
        <ele>709.4</ele>
        <time>2026-05-13T10:55:10Z</time>
      </trkpt>
      <trkpt lat="45.93202" lon="5.73194">
        <ele>710.4</ele>
        <time>2026-05-13T10:55:18Z</time>
      </trkpt>
      <trkpt lat="45.93202" lon="5.73194">
        <ele>710.6</ele>
        <time>2026-05-13T10:55:19Z</time>
      </trkpt>
      <trkpt lat="45.93202" lon="5.73195">
        <ele>710.6</ele>
        <time>2026-05-13T10:55:20Z</time>
      </trkpt>
      <trkpt lat="45.93203" lon="5.73196">
        <ele>711</ele>
        <time>2026-05-13T10:55:21Z</time>
      </trkpt>
      <trkpt lat="45.93204" lon="5.73197">
        <ele>711.2</ele>
        <time>2026-05-13T10:55:22Z</time>
      </trkpt>
      <trkpt lat="45.93206" lon="5.73198">
        <ele>711.2</ele>
        <time>2026-05-13T10:55:23Z</time>
      </trkpt>
      <trkpt lat="45.93207" lon="5.73199">
        <ele>711.4</ele>
        <time>2026-05-13T10:55:24Z</time>
      </trkpt>
      <trkpt lat="45.93208" lon="5.732">
        <ele>711.4</ele>
        <time>2026-05-13T10:55:25Z</time>
      </trkpt>
      <trkpt lat="45.93209" lon="5.732">
        <ele>711.8</ele>
        <time>2026-05-13T10:55:26Z</time>
      </trkpt>
      <trkpt lat="45.93209" lon="5.732">
        <ele>711.8</ele>
        <time>2026-05-13T10:55:27Z</time>
      </trkpt>
      <trkpt lat="45.9321" lon="5.73201">
        <ele>711.8</ele>
        <time>2026-05-13T10:55:28Z</time>
      </trkpt>
      <trkpt lat="45.93211" lon="5.73201">
        <ele>712</ele>
        <time>2026-05-13T10:55:29Z</time>
      </trkpt>
      <trkpt lat="45.93212" lon="5.73201">
        <ele>712.2</ele>
        <time>2026-05-13T10:55:30Z</time>
      </trkpt>
      <trkpt lat="45.93213" lon="5.73202">
        <ele>712.6</ele>
        <time>2026-05-13T10:55:31Z</time>
      </trkpt>
      <trkpt lat="45.93213" lon="5.73202">
        <ele>712.6</ele>
        <time>2026-05-13T10:55:32Z</time>
      </trkpt>
      <trkpt lat="45.93214" lon="5.73202">
        <ele>713</ele>
        <time>2026-05-13T10:55:33Z</time>
      </trkpt>
      <trkpt lat="45.93215" lon="5.73203">
        <ele>713.2</ele>
        <time>2026-05-13T10:55:34Z</time>
      </trkpt>
      <trkpt lat="45.93216" lon="5.73204">
        <ele>713.4</ele>
        <time>2026-05-13T10:55:35Z</time>
      </trkpt>
      <trkpt lat="45.93217" lon="5.73204">
        <ele>713.4</ele>
        <time>2026-05-13T10:55:36Z</time>
      </trkpt>
      <trkpt lat="45.93218" lon="5.73205">
        <ele>714</ele>
        <time>2026-05-13T10:55:37Z</time>
      </trkpt>
      <trkpt lat="45.93218" lon="5.73206">
        <ele>714</ele>
        <time>2026-05-13T10:55:38Z</time>
      </trkpt>
      <trkpt lat="45.93219" lon="5.73207">
        <ele>714.2</ele>
        <time>2026-05-13T10:55:39Z</time>
      </trkpt>
      <trkpt lat="45.93219" lon="5.73208">
        <ele>714.2</ele>
        <time>2026-05-13T10:55:40Z</time>
      </trkpt>
      <trkpt lat="45.93219" lon="5.73209">
        <ele>714.6</ele>
        <time>2026-05-13T10:55:41Z</time>
      </trkpt>
      <trkpt lat="45.9322" lon="5.7321">
        <ele>714.8</ele>
        <time>2026-05-13T10:55:42Z</time>
      </trkpt>
      <trkpt lat="45.9322" lon="5.73211">
        <ele>714.8</ele>
        <time>2026-05-13T10:55:43Z</time>
      </trkpt>
      <trkpt lat="45.9322" lon="5.73212">
        <ele>715.2</ele>
        <time>2026-05-13T10:55:44Z</time>
      </trkpt>
      <trkpt lat="45.9322" lon="5.73212">
        <ele>715.2</ele>
        <time>2026-05-13T10:55:45Z</time>
      </trkpt>
      <trkpt lat="45.93221" lon="5.73214">
        <ele>715.6</ele>
        <time>2026-05-13T10:55:46Z</time>
      </trkpt>
      <trkpt lat="45.93221" lon="5.73215">
        <ele>715.6</ele>
        <time>2026-05-13T10:55:47Z</time>
      </trkpt>
      <trkpt lat="45.93221" lon="5.73216">
        <ele>716</ele>
        <time>2026-05-13T10:55:48Z</time>
      </trkpt>
      <trkpt lat="45.93222" lon="5.73217">
        <ele>716</ele>
        <time>2026-05-13T10:55:49Z</time>
      </trkpt>
      <trkpt lat="45.93222" lon="5.73219">
        <ele>716.2</ele>
        <time>2026-05-13T10:55:50Z</time>
      </trkpt>
      <trkpt lat="45.93222" lon="5.73219">
        <ele>716.2</ele>
        <time>2026-05-13T10:55:51Z</time>
      </trkpt>
      <trkpt lat="45.93223" lon="5.7322">
        <ele>716.6</ele>
        <time>2026-05-13T10:55:52Z</time>
      </trkpt>
      <trkpt lat="45.93224" lon="5.73221">
        <ele>716.6</ele>
        <time>2026-05-13T10:55:53Z</time>
      </trkpt>
      <trkpt lat="45.93225" lon="5.73222">
        <ele>717</ele>
        <time>2026-05-13T10:55:54Z</time>
      </trkpt>
      <trkpt lat="45.93226" lon="5.73223">
        <ele>717</ele>
        <time>2026-05-13T10:55:55Z</time>
      </trkpt>
      <trkpt lat="45.93227" lon="5.73224">
        <ele>717.4</ele>
        <time>2026-05-13T10:55:56Z</time>
      </trkpt>
      <trkpt lat="45.93228" lon="5.73225">
        <ele>717.6</ele>
        <time>2026-05-13T10:55:57Z</time>
      </trkpt>
      <trkpt lat="45.93229" lon="5.73227">
        <ele>717.8</ele>
        <time>2026-05-13T10:55:58Z</time>
      </trkpt>
      <trkpt lat="45.9323" lon="5.73228">
        <ele>717.8</ele>
        <time>2026-05-13T10:55:59Z</time>
      </trkpt>
      <trkpt lat="45.9323" lon="5.73229">
        <ele>718.2</ele>
        <time>2026-05-13T10:56:00Z</time>
      </trkpt>
      <trkpt lat="45.93231" lon="5.7323">
        <ele>718.2</ele>
        <time>2026-05-13T10:56:01Z</time>
      </trkpt>
      <trkpt lat="45.93232" lon="5.73231">
        <ele>718.4</ele>
        <time>2026-05-13T10:56:02Z</time>
      </trkpt>
      <trkpt lat="45.93232" lon="5.73232">
        <ele>718.4</ele>
        <time>2026-05-13T10:56:03Z</time>
      </trkpt>
      <trkpt lat="45.93233" lon="5.73234">
        <ele>718.8</ele>
        <time>2026-05-13T10:56:04Z</time>
      </trkpt>
      <trkpt lat="45.93233" lon="5.73235">
        <ele>719</ele>
        <time>2026-05-13T10:56:05Z</time>
      </trkpt>
      <trkpt lat="45.93234" lon="5.73236">
        <ele>719</ele>
        <time>2026-05-13T10:56:06Z</time>
      </trkpt>
      <trkpt lat="45.93234" lon="5.73238">
        <ele>719</ele>
        <time>2026-05-13T10:56:07Z</time>
      </trkpt>
      <trkpt lat="45.93234" lon="5.73239">
        <ele>719.4</ele>
        <time>2026-05-13T10:56:08Z</time>
      </trkpt>
      <trkpt lat="45.93234" lon="5.7324">
        <ele>719.4</ele>
        <time>2026-05-13T10:56:09Z</time>
      </trkpt>
      <trkpt lat="45.93234" lon="5.73241">
        <ele>719.6</ele>
        <time>2026-05-13T10:56:10Z</time>
      </trkpt>
      <trkpt lat="45.93233" lon="5.73242">
        <ele>719.6</ele>
        <time>2026-05-13T10:56:11Z</time>
      </trkpt>
      <trkpt lat="45.93234" lon="5.73243">
        <ele>720</ele>
        <time>2026-05-13T10:56:12Z</time>
      </trkpt>
      <trkpt lat="45.93234" lon="5.73244">
        <ele>720</ele>
        <time>2026-05-13T10:56:13Z</time>
      </trkpt>
      <trkpt lat="45.93234" lon="5.73245">
        <ele>720.2</ele>
        <time>2026-05-13T10:56:14Z</time>
      </trkpt>
      <trkpt lat="45.93235" lon="5.73247">
        <ele>720.2</ele>
        <time>2026-05-13T10:56:15Z</time>
      </trkpt>
      <trkpt lat="45.93235" lon="5.73248">
        <ele>720</ele>
        <time>2026-05-13T10:56:16Z</time>
      </trkpt>
      <trkpt lat="45.93236" lon="5.73249">
        <ele>720.2</ele>
        <time>2026-05-13T10:56:17Z</time>
      </trkpt>
      <trkpt lat="45.93236" lon="5.73251">
        <ele>720.6</ele>
        <time>2026-05-13T10:56:18Z</time>
      </trkpt>
      <trkpt lat="45.93237" lon="5.73252">
        <ele>720.6</ele>
        <time>2026-05-13T10:56:19Z</time>
      </trkpt>
      <trkpt lat="45.93237" lon="5.73253">
        <ele>720.8</ele>
        <time>2026-05-13T10:56:20Z</time>
      </trkpt>
      <trkpt lat="45.93237" lon="5.73255">
        <ele>720.8</ele>
        <time>2026-05-13T10:56:21Z</time>
      </trkpt>
      <trkpt lat="45.93236" lon="5.73255">
        <ele>721</ele>
        <time>2026-05-13T10:56:22Z</time>
      </trkpt>
      <trkpt lat="45.93236" lon="5.73255">
        <ele>721</ele>
        <time>2026-05-13T10:56:23Z</time>
      </trkpt>
      <trkpt lat="45.93235" lon="5.73258">
        <ele>721.6</ele>
        <time>2026-05-13T10:56:31Z</time>
      </trkpt>
      <trkpt lat="45.93235" lon="5.73259">
        <ele>721.6</ele>
        <time>2026-05-13T10:56:32Z</time>
      </trkpt>
      <trkpt lat="45.93236" lon="5.7326">
        <ele>721.8</ele>
        <time>2026-05-13T10:56:33Z</time>
      </trkpt>
      <trkpt lat="45.93236" lon="5.73261">
        <ele>722</ele>
        <time>2026-05-13T10:56:34Z</time>
      </trkpt>
      <trkpt lat="45.93236" lon="5.73263">
        <ele>722</ele>
        <time>2026-05-13T10:56:35Z</time>
      </trkpt>
      <trkpt lat="45.93237" lon="5.73264">
        <ele>722</ele>
        <time>2026-05-13T10:56:36Z</time>
      </trkpt>
      <trkpt lat="45.93237" lon="5.73265">
        <ele>722.4</ele>
        <time>2026-05-13T10:56:37Z</time>
      </trkpt>
      <trkpt lat="45.93237" lon="5.73267">
        <ele>722.4</ele>
        <time>2026-05-13T10:56:38Z</time>
      </trkpt>
      <trkpt lat="45.93238" lon="5.73268">
        <ele>722.6</ele>
        <time>2026-05-13T10:56:39Z</time>
      </trkpt>
      <trkpt lat="45.93238" lon="5.73269">
        <ele>723</ele>
        <time>2026-05-13T10:56:40Z</time>
      </trkpt>
      <trkpt lat="45.93238" lon="5.7327">
        <ele>723</ele>
        <time>2026-05-13T10:56:41Z</time>
      </trkpt>
      <trkpt lat="45.93238" lon="5.73271">
        <ele>723.2</ele>
        <time>2026-05-13T10:56:42Z</time>
      </trkpt>
      <trkpt lat="45.93238" lon="5.73273">
        <ele>723.2</ele>
        <time>2026-05-13T10:56:43Z</time>
      </trkpt>
      <trkpt lat="45.93238" lon="5.73274">
        <ele>723.6</ele>
        <time>2026-05-13T10:56:44Z</time>
      </trkpt>
      <trkpt lat="45.93238" lon="5.73275">
        <ele>723.6</ele>
        <time>2026-05-13T10:56:45Z</time>
      </trkpt>
      <trkpt lat="45.93239" lon="5.73276">
        <ele>723.8</ele>
        <time>2026-05-13T10:56:46Z</time>
      </trkpt>
      <trkpt lat="45.93239" lon="5.73276">
        <ele>723.8</ele>
        <time>2026-05-13T10:56:47Z</time>
      </trkpt>
      <trkpt lat="45.93239" lon="5.73278">
        <ele>724</ele>
        <time>2026-05-13T10:56:48Z</time>
      </trkpt>
      <trkpt lat="45.9324" lon="5.73279">
        <ele>724.4</ele>
        <time>2026-05-13T10:56:49Z</time>
      </trkpt>
      <trkpt lat="45.9324" lon="5.7328">
        <ele>724.4</ele>
        <time>2026-05-13T10:56:50Z</time>
      </trkpt>
      <trkpt lat="45.93241" lon="5.73281">
        <ele>724.6</ele>
        <time>2026-05-13T10:56:51Z</time>
      </trkpt>
      <trkpt lat="45.93241" lon="5.73283">
        <ele>724.6</ele>
        <time>2026-05-13T10:56:52Z</time>
      </trkpt>
      <trkpt lat="45.93242" lon="5.73284">
        <ele>724.8</ele>
        <time>2026-05-13T10:56:53Z</time>
      </trkpt>
      <trkpt lat="45.93242" lon="5.73285">
        <ele>725</ele>
        <time>2026-05-13T10:56:54Z</time>
      </trkpt>
      <trkpt lat="45.93242" lon="5.73286">
        <ele>725</ele>
        <time>2026-05-13T10:56:55Z</time>
      </trkpt>
      <trkpt lat="45.93243" lon="5.73287">
        <ele>725.4</ele>
        <time>2026-05-13T10:56:56Z</time>
      </trkpt>
      <trkpt lat="45.93243" lon="5.73288">
        <ele>725.4</ele>
        <time>2026-05-13T10:56:57Z</time>
      </trkpt>
      <trkpt lat="45.93244" lon="5.73289">
        <ele>725.8</ele>
        <time>2026-05-13T10:56:58Z</time>
      </trkpt>
      <trkpt lat="45.93244" lon="5.7329">
        <ele>725.8</ele>
        <time>2026-05-13T10:56:59Z</time>
      </trkpt>
      <trkpt lat="45.93244" lon="5.73291">
        <ele>726</ele>
        <time>2026-05-13T10:57:00Z</time>
      </trkpt>
      <trkpt lat="45.93244" lon="5.73292">
        <ele>726</ele>
        <time>2026-05-13T10:57:01Z</time>
      </trkpt>
      <trkpt lat="45.93244" lon="5.73292">
        <ele>726</ele>
        <time>2026-05-13T10:57:02Z</time>
      </trkpt>
      <trkpt lat="45.93243" lon="5.73292">
        <ele>726.2</ele>
        <time>2026-05-13T10:57:13Z</time>
      </trkpt>
      <trkpt lat="45.93243" lon="5.73293">
        <ele>726.2</ele>
        <time>2026-05-13T10:57:14Z</time>
      </trkpt>
      <trkpt lat="45.93243" lon="5.73294">
        <ele>726.2</ele>
        <time>2026-05-13T10:57:15Z</time>
      </trkpt>
      <trkpt lat="45.93243" lon="5.73295">
        <ele>726.2</ele>
        <time>2026-05-13T10:57:16Z</time>
      </trkpt>
      <trkpt lat="45.93244" lon="5.73295">
        <ele>726.2</ele>
        <time>2026-05-13T10:57:17Z</time>
      </trkpt>
      <trkpt lat="45.93244" lon="5.73295">
        <ele>726.2</ele>
        <time>2026-05-13T10:57:18Z</time>
      </trkpt>
      <trkpt lat="45.93246" lon="5.73295">
        <ele>727</ele>
        <time>2026-05-13T10:58:35Z</time>
      </trkpt>
      <trkpt lat="45.93246" lon="5.73295">
        <ele>727</ele>
        <time>2026-05-13T10:58:36Z</time>
      </trkpt>
      <trkpt lat="45.93246" lon="5.73295">
        <ele>727</ele>
        <time>2026-05-13T10:58:37Z</time>
      </trkpt>
      <trkpt lat="45.93246" lon="5.73295">
        <ele>727</ele>
        <time>2026-05-13T10:58:38Z</time>
      </trkpt>
      <trkpt lat="45.93247" lon="5.73302">
        <ele>727.4</ele>
        <time>2026-05-13T10:58:40Z</time>
      </trkpt>
      <trkpt lat="45.93247" lon="5.73304">
        <ele>727.4</ele>
        <time>2026-05-13T10:58:41Z</time>
      </trkpt>
      <trkpt lat="45.93247" lon="5.73306">
        <ele>727.8</ele>
        <time>2026-05-13T10:58:42Z</time>
      </trkpt>
      <trkpt lat="45.93247" lon="5.73307">
        <ele>727.8</ele>
        <time>2026-05-13T10:58:43Z</time>
      </trkpt>
      <trkpt lat="45.93247" lon="5.73309">
        <ele>728.2</ele>
        <time>2026-05-13T10:58:44Z</time>
      </trkpt>
      <trkpt lat="45.93247" lon="5.73311">
        <ele>728.2</ele>
        <time>2026-05-13T10:58:45Z</time>
      </trkpt>
      <trkpt lat="45.93248" lon="5.73312">
        <ele>728.6</ele>
        <time>2026-05-13T10:58:46Z</time>
      </trkpt>
      <trkpt lat="45.93249" lon="5.73314">
        <ele>728.6</ele>
        <time>2026-05-13T10:58:47Z</time>
      </trkpt>
      <trkpt lat="45.93249" lon="5.73315">
        <ele>728.8</ele>
        <time>2026-05-13T10:58:48Z</time>
      </trkpt>
      <trkpt lat="45.93249" lon="5.73317">
        <ele>728.8</ele>
        <time>2026-05-13T10:58:49Z</time>
      </trkpt>
      <trkpt lat="45.93249" lon="5.73318">
        <ele>728.8</ele>
        <time>2026-05-13T10:58:50Z</time>
      </trkpt>
      <trkpt lat="45.93249" lon="5.7332">
        <ele>729.2</ele>
        <time>2026-05-13T10:58:51Z</time>
      </trkpt>
      <trkpt lat="45.93249" lon="5.73321">
        <ele>729.2</ele>
        <time>2026-05-13T10:58:52Z</time>
      </trkpt>
      <trkpt lat="45.93248" lon="5.73323">
        <ele>729.4</ele>
        <time>2026-05-13T10:58:53Z</time>
      </trkpt>
      <trkpt lat="45.93248" lon="5.73325">
        <ele>729.4</ele>
        <time>2026-05-13T10:58:54Z</time>
      </trkpt>
      <trkpt lat="45.93247" lon="5.73326">
        <ele>729.4</ele>
        <time>2026-05-13T10:58:55Z</time>
      </trkpt>
      <trkpt lat="45.93246" lon="5.73327">
        <ele>729.4</ele>
        <time>2026-05-13T10:58:56Z</time>
      </trkpt>
      <trkpt lat="45.93245" lon="5.73328">
        <ele>729.4</ele>
        <time>2026-05-13T10:58:57Z</time>
      </trkpt>
      <trkpt lat="45.93244" lon="5.73329">
        <ele>729.8</ele>
        <time>2026-05-13T10:58:58Z</time>
      </trkpt>
      <trkpt lat="45.93244" lon="5.73329">
        <ele>729.8</ele>
        <time>2026-05-13T10:58:59Z</time>
      </trkpt>
      <trkpt lat="45.9324" lon="5.73329">
        <ele>729.8</ele>
        <time>2026-05-13T10:59:03Z</time>
      </trkpt>
      <trkpt lat="45.93237" lon="5.7333">
        <ele>729.8</ele>
        <time>2026-05-13T10:59:04Z</time>
      </trkpt>
      <trkpt lat="45.93233" lon="5.7333">
        <ele>729.4</ele>
        <time>2026-05-13T10:59:05Z</time>
      </trkpt>
      <trkpt lat="45.9323" lon="5.73331">
        <ele>729.4</ele>
        <time>2026-05-13T10:59:06Z</time>
      </trkpt>
      <trkpt lat="45.93226" lon="5.73332">
        <ele>729.2</ele>
        <time>2026-05-13T10:59:07Z</time>
      </trkpt>
      <trkpt lat="45.9322" lon="5.73333">
        <ele>729.2</ele>
        <time>2026-05-13T10:59:08Z</time>
      </trkpt>
      <trkpt lat="45.93216" lon="5.73335">
        <ele>728.6</ele>
        <time>2026-05-13T10:59:09Z</time>
      </trkpt>
      <trkpt lat="45.93211" lon="5.73338">
        <ele>728.6</ele>
        <time>2026-05-13T10:59:10Z</time>
      </trkpt>
      <trkpt lat="45.93206" lon="5.73338">
        <ele>728.4</ele>
        <time>2026-05-13T10:59:11Z</time>
      </trkpt>
      <trkpt lat="45.93203" lon="5.7334">
        <ele>728</ele>
        <time>2026-05-13T10:59:12Z</time>
      </trkpt>
      <trkpt lat="45.93199" lon="5.73342">
        <ele>728</ele>
        <time>2026-05-13T10:59:13Z</time>
      </trkpt>
      <trkpt lat="45.93195" lon="5.73344">
        <ele>728</ele>
        <time>2026-05-13T10:59:14Z</time>
      </trkpt>
      <trkpt lat="45.93191" lon="5.73345">
        <ele>727.6</ele>
        <time>2026-05-13T10:59:15Z</time>
      </trkpt>
      <trkpt lat="45.93186" lon="5.73345">
        <ele>727.6</ele>
        <time>2026-05-13T10:59:16Z</time>
      </trkpt>
      <trkpt lat="45.93182" lon="5.73346">
        <ele>727.6</ele>
        <time>2026-05-13T10:59:17Z</time>
      </trkpt>
      <trkpt lat="45.93178" lon="5.73348">
        <ele>727.4</ele>
        <time>2026-05-13T10:59:18Z</time>
      </trkpt>
      <trkpt lat="45.93173" lon="5.73349">
        <ele>727.4</ele>
        <time>2026-05-13T10:59:19Z</time>
      </trkpt>
      <trkpt lat="45.93168" lon="5.7335">
        <ele>727.2</ele>
        <time>2026-05-13T10:59:20Z</time>
      </trkpt>
      <trkpt lat="45.93163" lon="5.7335">
        <ele>727.2</ele>
        <time>2026-05-13T10:59:21Z</time>
      </trkpt>
      <trkpt lat="45.93158" lon="5.73353">
        <ele>727.2</ele>
        <time>2026-05-13T10:59:22Z</time>
      </trkpt>
      <trkpt lat="45.93153" lon="5.73351">
        <ele>727.2</ele>
        <time>2026-05-13T10:59:23Z</time>
      </trkpt>
      <trkpt lat="45.9315" lon="5.73354">
        <ele>727.2</ele>
        <time>2026-05-13T10:59:24Z</time>
      </trkpt>
      <trkpt lat="45.93146" lon="5.73355">
        <ele>727.2</ele>
        <time>2026-05-13T10:59:25Z</time>
      </trkpt>
      <trkpt lat="45.93142" lon="5.73356">
        <ele>727.2</ele>
        <time>2026-05-13T10:59:26Z</time>
      </trkpt>
      <trkpt lat="45.93138" lon="5.73357">
        <ele>727.4</ele>
        <time>2026-05-13T10:59:27Z</time>
      </trkpt>
      <trkpt lat="45.93136" lon="5.73357">
        <ele>727.4</ele>
        <time>2026-05-13T10:59:28Z</time>
      </trkpt>
      <trkpt lat="45.93132" lon="5.73359">
        <ele>727.6</ele>
        <time>2026-05-13T10:59:29Z</time>
      </trkpt>
      <trkpt lat="45.93129" lon="5.73361">
        <ele>728</ele>
        <time>2026-05-13T10:59:30Z</time>
      </trkpt>
      <trkpt lat="45.93126" lon="5.7336">
        <ele>728.2</ele>
        <time>2026-05-13T10:59:31Z</time>
      </trkpt>
      <trkpt lat="45.93123" lon="5.73362">
        <ele>728.4</ele>
        <time>2026-05-13T10:59:32Z</time>
      </trkpt>
      <trkpt lat="45.9312" lon="5.73361">
        <ele>728.4</ele>
        <time>2026-05-13T10:59:33Z</time>
      </trkpt>
      <trkpt lat="45.93118" lon="5.73362">
        <ele>728.6</ele>
        <time>2026-05-13T10:59:34Z</time>
      </trkpt>
      <trkpt lat="45.93115" lon="5.73362">
        <ele>728.8</ele>
        <time>2026-05-13T10:59:35Z</time>
      </trkpt>
      <trkpt lat="45.93113" lon="5.73363">
        <ele>728.8</ele>
        <time>2026-05-13T10:59:36Z</time>
      </trkpt>
      <trkpt lat="45.93111" lon="5.73364">
        <ele>729.2</ele>
        <time>2026-05-13T10:59:37Z</time>
      </trkpt>
      <trkpt lat="45.93108" lon="5.73365">
        <ele>729.2</ele>
        <time>2026-05-13T10:59:38Z</time>
      </trkpt>
      <trkpt lat="45.93106" lon="5.73366">
        <ele>729.6</ele>
        <time>2026-05-13T10:59:39Z</time>
      </trkpt>
      <trkpt lat="45.93104" lon="5.73367">
        <ele>729.8</ele>
        <time>2026-05-13T10:59:40Z</time>
      </trkpt>
      <trkpt lat="45.93101" lon="5.73369">
        <ele>729.8</ele>
        <time>2026-05-13T10:59:41Z</time>
      </trkpt>
      <trkpt lat="45.93099" lon="5.7337">
        <ele>729.8</ele>
        <time>2026-05-13T10:59:42Z</time>
      </trkpt>
      <trkpt lat="45.93097" lon="5.73371">
        <ele>729.8</ele>
        <time>2026-05-13T10:59:43Z</time>
      </trkpt>
      <trkpt lat="45.93096" lon="5.73372">
        <ele>729.8</ele>
        <time>2026-05-13T10:59:44Z</time>
      </trkpt>
      <trkpt lat="45.93093" lon="5.73373">
        <ele>729.8</ele>
        <time>2026-05-13T10:59:45Z</time>
      </trkpt>
      <trkpt lat="45.9309" lon="5.73375">
        <ele>729.8</ele>
        <time>2026-05-13T10:59:46Z</time>
      </trkpt>
      <trkpt lat="45.93087" lon="5.73377">
        <ele>729.8</ele>
        <time>2026-05-13T10:59:47Z</time>
      </trkpt>
      <trkpt lat="45.93084" lon="5.73378">
        <ele>729.6</ele>
        <time>2026-05-13T10:59:48Z</time>
      </trkpt>
      <trkpt lat="45.93081" lon="5.7338">
        <ele>729.6</ele>
        <time>2026-05-13T10:59:49Z</time>
      </trkpt>
      <trkpt lat="45.93078" lon="5.73381">
        <ele>729.6</ele>
        <time>2026-05-13T10:59:50Z</time>
      </trkpt>
      <trkpt lat="45.93074" lon="5.73383">
        <ele>729.4</ele>
        <time>2026-05-13T10:59:51Z</time>
      </trkpt>
      <trkpt lat="45.93071" lon="5.73385">
        <ele>729.4</ele>
        <time>2026-05-13T10:59:52Z</time>
      </trkpt>
      <trkpt lat="45.93068" lon="5.73388">
        <ele>729</ele>
        <time>2026-05-13T10:59:53Z</time>
      </trkpt>
      <trkpt lat="45.93065" lon="5.7339">
        <ele>729</ele>
        <time>2026-05-13T10:59:54Z</time>
      </trkpt>
      <trkpt lat="45.93062" lon="5.73393">
        <ele>729</ele>
        <time>2026-05-13T10:59:55Z</time>
      </trkpt>
      <trkpt lat="45.93058" lon="5.73396">
        <ele>728.8</ele>
        <time>2026-05-13T10:59:56Z</time>
      </trkpt>
      <trkpt lat="45.93055" lon="5.73399">
        <ele>728.8</ele>
        <time>2026-05-13T10:59:57Z</time>
      </trkpt>
      <trkpt lat="45.93052" lon="5.73402">
        <ele>728.4</ele>
        <time>2026-05-13T10:59:58Z</time>
      </trkpt>
      <trkpt lat="45.93048" lon="5.73406">
        <ele>727.8</ele>
        <time>2026-05-13T10:59:59Z</time>
      </trkpt>
      <trkpt lat="45.93045" lon="5.73411">
        <ele>727.6</ele>
        <time>2026-05-13T11:00:00Z</time>
      </trkpt>
      <trkpt lat="45.93042" lon="5.73415">
        <ele>727.2</ele>
        <time>2026-05-13T11:00:01Z</time>
      </trkpt>
      <trkpt lat="45.93039" lon="5.7342">
        <ele>726.6</ele>
        <time>2026-05-13T11:00:02Z</time>
      </trkpt>
      <trkpt lat="45.93034" lon="5.73425">
        <ele>726.2</ele>
        <time>2026-05-13T11:00:03Z</time>
      </trkpt>
      <trkpt lat="45.93031" lon="5.73429">
        <ele>725.8</ele>
        <time>2026-05-13T11:00:04Z</time>
      </trkpt>
      <trkpt lat="45.93027" lon="5.73433">
        <ele>725.6</ele>
        <time>2026-05-13T11:00:05Z</time>
      </trkpt>
      <trkpt lat="45.93023" lon="5.73439">
        <ele>725.6</ele>
        <time>2026-05-13T11:00:06Z</time>
      </trkpt>
      <trkpt lat="45.93019" lon="5.73444">
        <ele>725.4</ele>
        <time>2026-05-13T11:00:07Z</time>
      </trkpt>
      <trkpt lat="45.93014" lon="5.73449">
        <ele>725.4</ele>
        <time>2026-05-13T11:00:08Z</time>
      </trkpt>
      <trkpt lat="45.9301" lon="5.73454">
        <ele>725</ele>
        <time>2026-05-13T11:00:09Z</time>
      </trkpt>
      <trkpt lat="45.93006" lon="5.73459">
        <ele>724.8</ele>
        <time>2026-05-13T11:00:10Z</time>
      </trkpt>
      <trkpt lat="45.93002" lon="5.73464">
        <ele>724.4</ele>
        <time>2026-05-13T11:00:11Z</time>
      </trkpt>
      <trkpt lat="45.92997" lon="5.73469">
        <ele>724</ele>
        <time>2026-05-13T11:00:12Z</time>
      </trkpt>
      <trkpt lat="45.92993" lon="5.73475">
        <ele>723.4</ele>
        <time>2026-05-13T11:00:13Z</time>
      </trkpt>
      <trkpt lat="45.92988" lon="5.73481">
        <ele>723.4</ele>
        <time>2026-05-13T11:00:14Z</time>
      </trkpt>
      <trkpt lat="45.92983" lon="5.73486">
        <ele>723</ele>
        <time>2026-05-13T11:00:15Z</time>
      </trkpt>
      <trkpt lat="45.92978" lon="5.73491">
        <ele>723</ele>
        <time>2026-05-13T11:00:16Z</time>
      </trkpt>
      <trkpt lat="45.92974" lon="5.73496">
        <ele>722.8</ele>
        <time>2026-05-13T11:00:17Z</time>
      </trkpt>
      <trkpt lat="45.9297" lon="5.73502">
        <ele>722.8</ele>
        <time>2026-05-13T11:00:18Z</time>
      </trkpt>
      <trkpt lat="45.92969" lon="5.73509">
        <ele>723</ele>
        <time>2026-05-13T11:00:19Z</time>
      </trkpt>
      <trkpt lat="45.92968" lon="5.73516">
        <ele>723.2</ele>
        <time>2026-05-13T11:00:20Z</time>
      </trkpt>
      <trkpt lat="45.92968" lon="5.73522">
        <ele>723.2</ele>
        <time>2026-05-13T11:00:21Z</time>
      </trkpt>
      <trkpt lat="45.92968" lon="5.73529">
        <ele>723.6</ele>
        <time>2026-05-13T11:00:22Z</time>
      </trkpt>
      <trkpt lat="45.92968" lon="5.73533">
        <ele>723.8</ele>
        <time>2026-05-13T11:00:23Z</time>
      </trkpt>
      <trkpt lat="45.92967" lon="5.73538">
        <ele>724.2</ele>
        <time>2026-05-13T11:00:24Z</time>
      </trkpt>
      <trkpt lat="45.92965" lon="5.73542">
        <ele>724.6</ele>
        <time>2026-05-13T11:00:25Z</time>
      </trkpt>
      <trkpt lat="45.92962" lon="5.73545">
        <ele>725</ele>
        <time>2026-05-13T11:00:26Z</time>
      </trkpt>
      <trkpt lat="45.92959" lon="5.73547">
        <ele>725.2</ele>
        <time>2026-05-13T11:00:27Z</time>
      </trkpt>
      <trkpt lat="45.92956" lon="5.7355">
        <ele>725.2</ele>
        <time>2026-05-13T11:00:28Z</time>
      </trkpt>
      <trkpt lat="45.92954" lon="5.73552">
        <ele>725.6</ele>
        <time>2026-05-13T11:00:29Z</time>
      </trkpt>
      <trkpt lat="45.92952" lon="5.73554">
        <ele>725.8</ele>
        <time>2026-05-13T11:00:30Z</time>
      </trkpt>
      <trkpt lat="45.9295" lon="5.73555">
        <ele>726.2</ele>
        <time>2026-05-13T11:00:31Z</time>
      </trkpt>
      <trkpt lat="45.92948" lon="5.73556">
        <ele>726.4</ele>
        <time>2026-05-13T11:00:32Z</time>
      </trkpt>
      <trkpt lat="45.92947" lon="5.73558">
        <ele>726.6</ele>
        <time>2026-05-13T11:00:33Z</time>
      </trkpt>
      <trkpt lat="45.92945" lon="5.73559">
        <ele>727</ele>
        <time>2026-05-13T11:00:34Z</time>
      </trkpt>
      <trkpt lat="45.92943" lon="5.7356">
        <ele>726.6</ele>
        <time>2026-05-13T11:00:35Z</time>
      </trkpt>
      <trkpt lat="45.92941" lon="5.73561">
        <ele>727</ele>
        <time>2026-05-13T11:00:36Z</time>
      </trkpt>
      <trkpt lat="45.9294" lon="5.73562">
        <ele>727</ele>
        <time>2026-05-13T11:00:37Z</time>
      </trkpt>
      <trkpt lat="45.92938" lon="5.73564">
        <ele>727.2</ele>
        <time>2026-05-13T11:00:38Z</time>
      </trkpt>
      <trkpt lat="45.92936" lon="5.73566">
        <ele>727.4</ele>
        <time>2026-05-13T11:00:39Z</time>
      </trkpt>
      <trkpt lat="45.92934" lon="5.73568">
        <ele>727.4</ele>
        <time>2026-05-13T11:00:40Z</time>
      </trkpt>
      <trkpt lat="45.92932" lon="5.7357">
        <ele>727.4</ele>
        <time>2026-05-13T11:00:41Z</time>
      </trkpt>
      <trkpt lat="45.9293" lon="5.73573">
        <ele>727.8</ele>
        <time>2026-05-13T11:00:42Z</time>
      </trkpt>
      <trkpt lat="45.92928" lon="5.73575">
        <ele>727.8</ele>
        <time>2026-05-13T11:00:43Z</time>
      </trkpt>
      <trkpt lat="45.92926" lon="5.73577">
        <ele>727.8</ele>
        <time>2026-05-13T11:00:44Z</time>
      </trkpt>
      <trkpt lat="45.92924" lon="5.73579">
        <ele>727.8</ele>
        <time>2026-05-13T11:00:45Z</time>
      </trkpt>
      <trkpt lat="45.92921" lon="5.73581">
        <ele>727.8</ele>
        <time>2026-05-13T11:00:46Z</time>
      </trkpt>
      <trkpt lat="45.92918" lon="5.73584">
        <ele>727.8</ele>
        <time>2026-05-13T11:00:47Z</time>
      </trkpt>
      <trkpt lat="45.92916" lon="5.73586">
        <ele>728</ele>
        <time>2026-05-13T11:00:48Z</time>
      </trkpt>
      <trkpt lat="45.92914" lon="5.73587">
        <ele>728</ele>
        <time>2026-05-13T11:00:49Z</time>
      </trkpt>
      <trkpt lat="45.92912" lon="5.73589">
        <ele>728.2</ele>
        <time>2026-05-13T11:00:50Z</time>
      </trkpt>
      <trkpt lat="45.92909" lon="5.73591">
        <ele>728.2</ele>
        <time>2026-05-13T11:00:51Z</time>
      </trkpt>
      <trkpt lat="45.92907" lon="5.73593">
        <ele>728.2</ele>
        <time>2026-05-13T11:00:52Z</time>
      </trkpt>
      <trkpt lat="45.92905" lon="5.73595">
        <ele>728.2</ele>
        <time>2026-05-13T11:00:53Z</time>
      </trkpt>
      <trkpt lat="45.92903" lon="5.73597">
        <ele>728.4</ele>
        <time>2026-05-13T11:00:54Z</time>
      </trkpt>
      <trkpt lat="45.92901" lon="5.73599">
        <ele>728.4</ele>
        <time>2026-05-13T11:00:55Z</time>
      </trkpt>
      <trkpt lat="45.92899" lon="5.73601">
        <ele>728.4</ele>
        <time>2026-05-13T11:00:56Z</time>
      </trkpt>
      <trkpt lat="45.92899" lon="5.73601">
        <ele>728.4</ele>
        <time>2026-05-13T11:00:57Z</time>
      </trkpt>
      <trkpt lat="45.92897" lon="5.73603">
        <ele>728.4</ele>
        <time>2026-05-13T11:00:58Z</time>
      </trkpt>
      <trkpt lat="45.92894" lon="5.73605">
        <ele>728.4</ele>
        <time>2026-05-13T11:00:59Z</time>
      </trkpt>
      <trkpt lat="45.92893" lon="5.73607">
        <ele>728.4</ele>
        <time>2026-05-13T11:01:00Z</time>
      </trkpt>
      <trkpt lat="45.9289" lon="5.73609">
        <ele>728.4</ele>
        <time>2026-05-13T11:01:01Z</time>
      </trkpt>
      <trkpt lat="45.92888" lon="5.73611">
        <ele>728.8</ele>
        <time>2026-05-13T11:01:02Z</time>
      </trkpt>
      <trkpt lat="45.92886" lon="5.73613">
        <ele>728.8</ele>
        <time>2026-05-13T11:01:03Z</time>
      </trkpt>
      <trkpt lat="45.92884" lon="5.73615">
        <ele>728.8</ele>
        <time>2026-05-13T11:01:04Z</time>
      </trkpt>
      <trkpt lat="45.92882" lon="5.73616">
        <ele>728.8</ele>
        <time>2026-05-13T11:01:05Z</time>
      </trkpt>
      <trkpt lat="45.9288" lon="5.73618">
        <ele>729</ele>
        <time>2026-05-13T11:01:06Z</time>
      </trkpt>
      <trkpt lat="45.92878" lon="5.73619">
        <ele>729</ele>
        <time>2026-05-13T11:01:07Z</time>
      </trkpt>
      <trkpt lat="45.92876" lon="5.73621">
        <ele>729</ele>
        <time>2026-05-13T11:01:08Z</time>
      </trkpt>
      <trkpt lat="45.92874" lon="5.73623">
        <ele>729</ele>
        <time>2026-05-13T11:01:09Z</time>
      </trkpt>
      <trkpt lat="45.92871" lon="5.73625">
        <ele>729</ele>
        <time>2026-05-13T11:01:10Z</time>
      </trkpt>
      <trkpt lat="45.92869" lon="5.73627">
        <ele>729</ele>
        <time>2026-05-13T11:01:11Z</time>
      </trkpt>
      <trkpt lat="45.92867" lon="5.73628">
        <ele>729</ele>
        <time>2026-05-13T11:01:12Z</time>
      </trkpt>
      <trkpt lat="45.92866" lon="5.73629">
        <ele>729</ele>
        <time>2026-05-13T11:01:13Z</time>
      </trkpt>
      <trkpt lat="45.92864" lon="5.7363">
        <ele>729.2</ele>
        <time>2026-05-13T11:01:14Z</time>
      </trkpt>
      <trkpt lat="45.92862" lon="5.73632">
        <ele>729.2</ele>
        <time>2026-05-13T11:01:15Z</time>
      </trkpt>
      <trkpt lat="45.92861" lon="5.73634">
        <ele>729.6</ele>
        <time>2026-05-13T11:01:16Z</time>
      </trkpt>
      <trkpt lat="45.9286" lon="5.73635">
        <ele>729.6</ele>
        <time>2026-05-13T11:01:17Z</time>
      </trkpt>
      <trkpt lat="45.92858" lon="5.73637">
        <ele>730</ele>
        <time>2026-05-13T11:01:18Z</time>
      </trkpt>
      <trkpt lat="45.92856" lon="5.73638">
        <ele>730.4</ele>
        <time>2026-05-13T11:01:19Z</time>
      </trkpt>
      <trkpt lat="45.92854" lon="5.73638">
        <ele>730.8</ele>
        <time>2026-05-13T11:01:20Z</time>
      </trkpt>
      <trkpt lat="45.92852" lon="5.73638">
        <ele>731</ele>
        <time>2026-05-13T11:01:21Z</time>
      </trkpt>
      <trkpt lat="45.9285" lon="5.73639">
        <ele>731.2</ele>
        <time>2026-05-13T11:01:22Z</time>
      </trkpt>
      <trkpt lat="45.92848" lon="5.73639">
        <ele>731.4</ele>
        <time>2026-05-13T11:01:23Z</time>
      </trkpt>
      <trkpt lat="45.92846" lon="5.73639">
        <ele>731.8</ele>
        <time>2026-05-13T11:01:24Z</time>
      </trkpt>
      <trkpt lat="45.92844" lon="5.7364">
        <ele>732</ele>
        <time>2026-05-13T11:01:25Z</time>
      </trkpt>
      <trkpt lat="45.92842" lon="5.7364">
        <ele>732.2</ele>
        <time>2026-05-13T11:01:26Z</time>
      </trkpt>
      <trkpt lat="45.92841" lon="5.7364">
        <ele>732.2</ele>
        <time>2026-05-13T11:01:27Z</time>
      </trkpt>
      <trkpt lat="45.92839" lon="5.73641">
        <ele>732.2</ele>
        <time>2026-05-13T11:01:28Z</time>
      </trkpt>
      <trkpt lat="45.92837" lon="5.73641">
        <ele>732.6</ele>
        <time>2026-05-13T11:01:29Z</time>
      </trkpt>
      <trkpt lat="45.92836" lon="5.73641">
        <ele>732.6</ele>
        <time>2026-05-13T11:01:30Z</time>
      </trkpt>
      <trkpt lat="45.92834" lon="5.73642">
        <ele>733.2</ele>
        <time>2026-05-13T11:01:31Z</time>
      </trkpt>
      <trkpt lat="45.92832" lon="5.73642">
        <ele>733.2</ele>
        <time>2026-05-13T11:01:32Z</time>
      </trkpt>
      <trkpt lat="45.92831" lon="5.73642">
        <ele>733.4</ele>
        <time>2026-05-13T11:01:33Z</time>
      </trkpt>
      <trkpt lat="45.92829" lon="5.73642">
        <ele>733.4</ele>
        <time>2026-05-13T11:01:34Z</time>
      </trkpt>
      <trkpt lat="45.92827" lon="5.73643">
        <ele>733.8</ele>
        <time>2026-05-13T11:01:35Z</time>
      </trkpt>
      <trkpt lat="45.92825" lon="5.73643">
        <ele>734</ele>
        <time>2026-05-13T11:01:36Z</time>
      </trkpt>
      <trkpt lat="45.92824" lon="5.73643">
        <ele>734.2</ele>
        <time>2026-05-13T11:01:37Z</time>
      </trkpt>
      <trkpt lat="45.92823" lon="5.73643">
        <ele>734.2</ele>
        <time>2026-05-13T11:01:38Z</time>
      </trkpt>
      <trkpt lat="45.92822" lon="5.73643">
        <ele>734.4</ele>
        <time>2026-05-13T11:01:39Z</time>
      </trkpt>
      <trkpt lat="45.9282" lon="5.73644">
        <ele>734.4</ele>
        <time>2026-05-13T11:01:40Z</time>
      </trkpt>
      <trkpt lat="45.92819" lon="5.73644">
        <ele>734.8</ele>
        <time>2026-05-13T11:01:41Z</time>
      </trkpt>
      <trkpt lat="45.92817" lon="5.73645">
        <ele>734.8</ele>
        <time>2026-05-13T11:01:42Z</time>
      </trkpt>
      <trkpt lat="45.92816" lon="5.73646">
        <ele>735</ele>
        <time>2026-05-13T11:01:43Z</time>
      </trkpt>
      <trkpt lat="45.92814" lon="5.73646">
        <ele>735</ele>
        <time>2026-05-13T11:01:44Z</time>
      </trkpt>
      <trkpt lat="45.92812" lon="5.73647">
        <ele>735.4</ele>
        <time>2026-05-13T11:01:45Z</time>
      </trkpt>
      <trkpt lat="45.92811" lon="5.73648">
        <ele>735.4</ele>
        <time>2026-05-13T11:01:46Z</time>
      </trkpt>
      <trkpt lat="45.92809" lon="5.73648">
        <ele>735.6</ele>
        <time>2026-05-13T11:01:47Z</time>
      </trkpt>
      <trkpt lat="45.92808" lon="5.73649">
        <ele>735.6</ele>
        <time>2026-05-13T11:01:48Z</time>
      </trkpt>
      <trkpt lat="45.92806" lon="5.73649">
        <ele>736</ele>
        <time>2026-05-13T11:01:49Z</time>
      </trkpt>
      <trkpt lat="45.92804" lon="5.7365">
        <ele>736</ele>
        <time>2026-05-13T11:01:50Z</time>
      </trkpt>
      <trkpt lat="45.92802" lon="5.7365">
        <ele>736.2</ele>
        <time>2026-05-13T11:01:51Z</time>
      </trkpt>
      <trkpt lat="45.92801" lon="5.7365">
        <ele>736.2</ele>
        <time>2026-05-13T11:01:52Z</time>
      </trkpt>
      <trkpt lat="45.928" lon="5.7365">
        <ele>736.4</ele>
        <time>2026-05-13T11:01:53Z</time>
      </trkpt>
      <trkpt lat="45.92798" lon="5.7365">
        <ele>736.4</ele>
        <time>2026-05-13T11:01:54Z</time>
      </trkpt>
      <trkpt lat="45.92796" lon="5.73651">
        <ele>736.6</ele>
        <time>2026-05-13T11:01:55Z</time>
      </trkpt>
      <trkpt lat="45.92795" lon="5.73651">
        <ele>736.6</ele>
        <time>2026-05-13T11:01:56Z</time>
      </trkpt>
      <trkpt lat="45.92793" lon="5.73651">
        <ele>736.6</ele>
        <time>2026-05-13T11:01:57Z</time>
      </trkpt>
      <trkpt lat="45.92792" lon="5.73652">
        <ele>737</ele>
        <time>2026-05-13T11:01:58Z</time>
      </trkpt>
      <trkpt lat="45.9279" lon="5.73653">
        <ele>737</ele>
        <time>2026-05-13T11:01:59Z</time>
      </trkpt>
      <trkpt lat="45.92789" lon="5.73653">
        <ele>737.4</ele>
        <time>2026-05-13T11:02:00Z</time>
      </trkpt>
      <trkpt lat="45.92787" lon="5.73654">
        <ele>737.4</ele>
        <time>2026-05-13T11:02:01Z</time>
      </trkpt>
      <trkpt lat="45.92785" lon="5.73654">
        <ele>737.6</ele>
        <time>2026-05-13T11:02:02Z</time>
      </trkpt>
      <trkpt lat="45.92784" lon="5.73655">
        <ele>737.8</ele>
        <time>2026-05-13T11:02:03Z</time>
      </trkpt>
      <trkpt lat="45.92782" lon="5.73656">
        <ele>737.8</ele>
        <time>2026-05-13T11:02:04Z</time>
      </trkpt>
      <trkpt lat="45.92781" lon="5.73657">
        <ele>738.2</ele>
        <time>2026-05-13T11:02:05Z</time>
      </trkpt>
      <trkpt lat="45.92779" lon="5.73657">
        <ele>738.2</ele>
        <time>2026-05-13T11:02:06Z</time>
      </trkpt>
      <trkpt lat="45.92777" lon="5.73658">
        <ele>738.4</ele>
        <time>2026-05-13T11:02:07Z</time>
      </trkpt>
      <trkpt lat="45.92776" lon="5.73658">
        <ele>738.4</ele>
        <time>2026-05-13T11:02:08Z</time>
      </trkpt>
      <trkpt lat="45.92774" lon="5.73659">
        <ele>738.8</ele>
        <time>2026-05-13T11:02:09Z</time>
      </trkpt>
      <trkpt lat="45.92773" lon="5.7366">
        <ele>739.2</ele>
        <time>2026-05-13T11:02:10Z</time>
      </trkpt>
      <trkpt lat="45.92771" lon="5.73661">
        <ele>739.2</ele>
        <time>2026-05-13T11:02:11Z</time>
      </trkpt>
      <trkpt lat="45.9277" lon="5.73662">
        <ele>739.6</ele>
        <time>2026-05-13T11:02:12Z</time>
      </trkpt>
      <trkpt lat="45.92768" lon="5.73663">
        <ele>739.6</ele>
        <time>2026-05-13T11:02:13Z</time>
      </trkpt>
      <trkpt lat="45.92766" lon="5.73664">
        <ele>739.8</ele>
        <time>2026-05-13T11:02:14Z</time>
      </trkpt>
      <trkpt lat="45.92764" lon="5.73666">
        <ele>739.8</ele>
        <time>2026-05-13T11:02:15Z</time>
      </trkpt>
      <trkpt lat="45.92762" lon="5.73667">
        <ele>740.2</ele>
        <time>2026-05-13T11:02:16Z</time>
      </trkpt>
      <trkpt lat="45.92761" lon="5.73668">
        <ele>740.4</ele>
        <time>2026-05-13T11:02:17Z</time>
      </trkpt>
      <trkpt lat="45.92761" lon="5.73669">
        <ele>740.4</ele>
        <time>2026-05-13T11:02:18Z</time>
      </trkpt>
      <trkpt lat="45.9276" lon="5.73669">
        <ele>740.6</ele>
        <time>2026-05-13T11:02:19Z</time>
      </trkpt>
      <trkpt lat="45.9276" lon="5.73669">
        <ele>740.6</ele>
        <time>2026-05-13T11:02:20Z</time>
      </trkpt>
      <trkpt lat="45.9276" lon="5.73669">
        <ele>741</ele>
        <time>2026-05-13T11:02:21Z</time>
      </trkpt>
      <trkpt lat="45.92758" lon="5.73671">
        <ele>741.4</ele>
        <time>2026-05-13T11:02:26Z</time>
      </trkpt>
      <trkpt lat="45.92756" lon="5.73672">
        <ele>741.8</ele>
        <time>2026-05-13T11:02:27Z</time>
      </trkpt>
      <trkpt lat="45.92754" lon="5.73674">
        <ele>741.8</ele>
        <time>2026-05-13T11:02:28Z</time>
      </trkpt>
      <trkpt lat="45.92752" lon="5.73675">
        <ele>742</ele>
        <time>2026-05-13T11:02:29Z</time>
      </trkpt>
      <trkpt lat="45.92751" lon="5.73676">
        <ele>742</ele>
        <time>2026-05-13T11:02:30Z</time>
      </trkpt>
      <trkpt lat="45.92749" lon="5.73677">
        <ele>742.2</ele>
        <time>2026-05-13T11:02:31Z</time>
      </trkpt>
      <trkpt lat="45.92747" lon="5.73678">
        <ele>742.4</ele>
        <time>2026-05-13T11:02:32Z</time>
      </trkpt>
      <trkpt lat="45.92746" lon="5.73679">
        <ele>742.8</ele>
        <time>2026-05-13T11:02:33Z</time>
      </trkpt>
      <trkpt lat="45.92745" lon="5.73679">
        <ele>743.2</ele>
        <time>2026-05-13T11:02:34Z</time>
      </trkpt>
      <trkpt lat="45.92744" lon="5.7368">
        <ele>743.2</ele>
        <time>2026-05-13T11:02:35Z</time>
      </trkpt>
      <trkpt lat="45.92742" lon="5.73681">
        <ele>743.2</ele>
        <time>2026-05-13T11:02:36Z</time>
      </trkpt>
      <trkpt lat="45.92741" lon="5.73683">
        <ele>743.2</ele>
        <time>2026-05-13T11:02:37Z</time>
      </trkpt>
      <trkpt lat="45.9274" lon="5.73684">
        <ele>743.4</ele>
        <time>2026-05-13T11:02:38Z</time>
      </trkpt>
      <trkpt lat="45.92739" lon="5.73685">
        <ele>743.6</ele>
        <time>2026-05-13T11:02:39Z</time>
      </trkpt>
      <trkpt lat="45.92737" lon="5.73686">
        <ele>743.6</ele>
        <time>2026-05-13T11:02:40Z</time>
      </trkpt>
      <trkpt lat="45.92735" lon="5.73687">
        <ele>744.2</ele>
        <time>2026-05-13T11:02:41Z</time>
      </trkpt>
      <trkpt lat="45.92734" lon="5.73688">
        <ele>744.2</ele>
        <time>2026-05-13T11:02:42Z</time>
      </trkpt>
      <trkpt lat="45.92732" lon="5.7369">
        <ele>744.4</ele>
        <time>2026-05-13T11:02:43Z</time>
      </trkpt>
      <trkpt lat="45.9273" lon="5.73691">
        <ele>744.4</ele>
        <time>2026-05-13T11:02:44Z</time>
      </trkpt>
      <trkpt lat="45.92728" lon="5.73692">
        <ele>744.6</ele>
        <time>2026-05-13T11:02:45Z</time>
      </trkpt>
      <trkpt lat="45.92727" lon="5.73692">
        <ele>744.6</ele>
        <time>2026-05-13T11:02:46Z</time>
      </trkpt>
      <trkpt lat="45.92725" lon="5.73693">
        <ele>745</ele>
        <time>2026-05-13T11:02:47Z</time>
      </trkpt>
      <trkpt lat="45.92723" lon="5.73694">
        <ele>745</ele>
        <time>2026-05-13T11:02:48Z</time>
      </trkpt>
      <trkpt lat="45.92722" lon="5.73694">
        <ele>745.2</ele>
        <time>2026-05-13T11:02:49Z</time>
      </trkpt>
      <trkpt lat="45.92721" lon="5.73695">
        <ele>745.2</ele>
        <time>2026-05-13T11:02:50Z</time>
      </trkpt>
      <trkpt lat="45.92719" lon="5.73695">
        <ele>745.6</ele>
        <time>2026-05-13T11:02:51Z</time>
      </trkpt>
      <trkpt lat="45.92718" lon="5.73695">
        <ele>746</ele>
        <time>2026-05-13T11:02:52Z</time>
      </trkpt>
      <trkpt lat="45.92717" lon="5.73696">
        <ele>746.2</ele>
        <time>2026-05-13T11:02:53Z</time>
      </trkpt>
      <trkpt lat="45.92715" lon="5.73696">
        <ele>746.2</ele>
        <time>2026-05-13T11:02:54Z</time>
      </trkpt>
      <trkpt lat="45.92714" lon="5.73697">
        <ele>746.2</ele>
        <time>2026-05-13T11:02:55Z</time>
      </trkpt>
      <trkpt lat="45.92713" lon="5.73697">
        <ele>746.4</ele>
        <time>2026-05-13T11:02:56Z</time>
      </trkpt>
      <trkpt lat="45.92711" lon="5.73698">
        <ele>746.4</ele>
        <time>2026-05-13T11:02:57Z</time>
      </trkpt>
      <trkpt lat="45.92711" lon="5.73698">
        <ele>746.8</ele>
        <time>2026-05-13T11:02:58Z</time>
      </trkpt>
      <trkpt lat="45.9271" lon="5.73699">
        <ele>746.8</ele>
        <time>2026-05-13T11:02:59Z</time>
      </trkpt>
      <trkpt lat="45.92709" lon="5.737">
        <ele>747</ele>
        <time>2026-05-13T11:03:00Z</time>
      </trkpt>
      <trkpt lat="45.92707" lon="5.737">
        <ele>747.2</ele>
        <time>2026-05-13T11:03:01Z</time>
      </trkpt>
      <trkpt lat="45.92705" lon="5.73701">
        <ele>747.4</ele>
        <time>2026-05-13T11:03:02Z</time>
      </trkpt>
      <trkpt lat="45.92703" lon="5.73701">
        <ele>747.4</ele>
        <time>2026-05-13T11:03:03Z</time>
      </trkpt>
      <trkpt lat="45.92701" lon="5.73701">
        <ele>747.8</ele>
        <time>2026-05-13T11:03:04Z</time>
      </trkpt>
      <trkpt lat="45.927" lon="5.73701">
        <ele>748</ele>
        <time>2026-05-13T11:03:05Z</time>
      </trkpt>
      <trkpt lat="45.92698" lon="5.73701">
        <ele>748.2</ele>
        <time>2026-05-13T11:03:06Z</time>
      </trkpt>
      <trkpt lat="45.92697" lon="5.73702">
        <ele>748.2</ele>
        <time>2026-05-13T11:03:07Z</time>
      </trkpt>
      <trkpt lat="45.92695" lon="5.73702">
        <ele>748.2</ele>
        <time>2026-05-13T11:03:08Z</time>
      </trkpt>
      <trkpt lat="45.92694" lon="5.73703">
        <ele>748.2</ele>
        <time>2026-05-13T11:03:09Z</time>
      </trkpt>
      <trkpt lat="45.92692" lon="5.73703">
        <ele>748.4</ele>
        <time>2026-05-13T11:03:10Z</time>
      </trkpt>
      <trkpt lat="45.92691" lon="5.73704">
        <ele>748.4</ele>
        <time>2026-05-13T11:03:11Z</time>
      </trkpt>
      <trkpt lat="45.9269" lon="5.73704">
        <ele>748.8</ele>
        <time>2026-05-13T11:03:12Z</time>
      </trkpt>
      <trkpt lat="45.92688" lon="5.73705">
        <ele>748.8</ele>
        <time>2026-05-13T11:03:13Z</time>
      </trkpt>
      <trkpt lat="45.92687" lon="5.73705">
        <ele>749.2</ele>
        <time>2026-05-13T11:03:14Z</time>
      </trkpt>
      <trkpt lat="45.92685" lon="5.73705">
        <ele>749.2</ele>
        <time>2026-05-13T11:03:15Z</time>
      </trkpt>
      <trkpt lat="45.92684" lon="5.73705">
        <ele>749.6</ele>
        <time>2026-05-13T11:03:16Z</time>
      </trkpt>
      <trkpt lat="45.92682" lon="5.73705">
        <ele>749.8</ele>
        <time>2026-05-13T11:03:17Z</time>
      </trkpt>
      <trkpt lat="45.9268" lon="5.73706">
        <ele>749.8</ele>
        <time>2026-05-13T11:03:18Z</time>
      </trkpt>
      <trkpt lat="45.92678" lon="5.73706">
        <ele>750.2</ele>
        <time>2026-05-13T11:03:19Z</time>
      </trkpt>
      <trkpt lat="45.92677" lon="5.73707">
        <ele>750.2</ele>
        <time>2026-05-13T11:03:20Z</time>
      </trkpt>
      <trkpt lat="45.92676" lon="5.73707">
        <ele>750.6</ele>
        <time>2026-05-13T11:03:21Z</time>
      </trkpt>
      <trkpt lat="45.92674" lon="5.73707">
        <ele>750.8</ele>
        <time>2026-05-13T11:03:22Z</time>
      </trkpt>
      <trkpt lat="45.92673" lon="5.73707">
        <ele>750.8</ele>
        <time>2026-05-13T11:03:23Z</time>
      </trkpt>
      <trkpt lat="45.92671" lon="5.73707">
        <ele>751.2</ele>
        <time>2026-05-13T11:03:24Z</time>
      </trkpt>
      <trkpt lat="45.9267" lon="5.73708">
        <ele>751.4</ele>
        <time>2026-05-13T11:03:25Z</time>
      </trkpt>
      <trkpt lat="45.92668" lon="5.73708">
        <ele>751.4</ele>
        <time>2026-05-13T11:03:26Z</time>
      </trkpt>
      <trkpt lat="45.92667" lon="5.73708">
        <ele>751.4</ele>
        <time>2026-05-13T11:03:27Z</time>
      </trkpt>
      <trkpt lat="45.92665" lon="5.73708">
        <ele>751.8</ele>
        <time>2026-05-13T11:03:28Z</time>
      </trkpt>
      <trkpt lat="45.92664" lon="5.73709">
        <ele>751.8</ele>
        <time>2026-05-13T11:03:29Z</time>
      </trkpt>
      <trkpt lat="45.92663" lon="5.73709">
        <ele>752</ele>
        <time>2026-05-13T11:03:30Z</time>
      </trkpt>
      <trkpt lat="45.92661" lon="5.73709">
        <ele>752</ele>
        <time>2026-05-13T11:03:31Z</time>
      </trkpt>
      <trkpt lat="45.9266" lon="5.73709">
        <ele>752.2</ele>
        <time>2026-05-13T11:03:32Z</time>
      </trkpt>
      <trkpt lat="45.92659" lon="5.73709">
        <ele>752.2</ele>
        <time>2026-05-13T11:03:33Z</time>
      </trkpt>
      <trkpt lat="45.92658" lon="5.73709">
        <ele>752.6</ele>
        <time>2026-05-13T11:03:34Z</time>
      </trkpt>
      <trkpt lat="45.92657" lon="5.73709">
        <ele>752.6</ele>
        <time>2026-05-13T11:03:35Z</time>
      </trkpt>
      <trkpt lat="45.92655" lon="5.73709">
        <ele>753</ele>
        <time>2026-05-13T11:03:36Z</time>
      </trkpt>
      <trkpt lat="45.92654" lon="5.73709">
        <ele>753</ele>
        <time>2026-05-13T11:03:37Z</time>
      </trkpt>
      <trkpt lat="45.92653" lon="5.73709">
        <ele>753</ele>
        <time>2026-05-13T11:03:38Z</time>
      </trkpt>
      <trkpt lat="45.92651" lon="5.73709">
        <ele>753.4</ele>
        <time>2026-05-13T11:03:39Z</time>
      </trkpt>
      <trkpt lat="45.9265" lon="5.73709">
        <ele>753.4</ele>
        <time>2026-05-13T11:03:40Z</time>
      </trkpt>
      <trkpt lat="45.92649" lon="5.7371">
        <ele>753.6</ele>
        <time>2026-05-13T11:03:41Z</time>
      </trkpt>
      <trkpt lat="45.92647" lon="5.7371">
        <ele>753.6</ele>
        <time>2026-05-13T11:03:42Z</time>
      </trkpt>
      <trkpt lat="45.92646" lon="5.7371">
        <ele>754</ele>
        <time>2026-05-13T11:03:43Z</time>
      </trkpt>
      <trkpt lat="45.92644" lon="5.7371">
        <ele>754</ele>
        <time>2026-05-13T11:03:44Z</time>
      </trkpt>
      <trkpt lat="45.92642" lon="5.7371">
        <ele>754.4</ele>
        <time>2026-05-13T11:03:45Z</time>
      </trkpt>
      <trkpt lat="45.92641" lon="5.7371">
        <ele>754.8</ele>
        <time>2026-05-13T11:03:46Z</time>
      </trkpt>
      <trkpt lat="45.92639" lon="5.73711">
        <ele>755</ele>
        <time>2026-05-13T11:03:47Z</time>
      </trkpt>
      <trkpt lat="45.92638" lon="5.73711">
        <ele>755.2</ele>
        <time>2026-05-13T11:03:48Z</time>
      </trkpt>
      <trkpt lat="45.92636" lon="5.73712">
        <ele>755.2</ele>
        <time>2026-05-13T11:03:49Z</time>
      </trkpt>
      <trkpt lat="45.92635" lon="5.73712">
        <ele>755.6</ele>
        <time>2026-05-13T11:03:50Z</time>
      </trkpt>
      <trkpt lat="45.92633" lon="5.73712">
        <ele>755.6</ele>
        <time>2026-05-13T11:03:51Z</time>
      </trkpt>
      <trkpt lat="45.92632" lon="5.73712">
        <ele>755.8</ele>
        <time>2026-05-13T11:03:52Z</time>
      </trkpt>
      <trkpt lat="45.92631" lon="5.73712">
        <ele>755.8</ele>
        <time>2026-05-13T11:03:53Z</time>
      </trkpt>
      <trkpt lat="45.92629" lon="5.73712">
        <ele>755.8</ele>
        <time>2026-05-13T11:03:54Z</time>
      </trkpt>
      <trkpt lat="45.92628" lon="5.73713">
        <ele>756.2</ele>
        <time>2026-05-13T11:03:55Z</time>
      </trkpt>
      <trkpt lat="45.92626" lon="5.73713">
        <ele>756.2</ele>
        <time>2026-05-13T11:03:56Z</time>
      </trkpt>
      <trkpt lat="45.92625" lon="5.73713">
        <ele>756.6</ele>
        <time>2026-05-13T11:03:57Z</time>
      </trkpt>
      <trkpt lat="45.92623" lon="5.73713">
        <ele>756.6</ele>
        <time>2026-05-13T11:03:58Z</time>
      </trkpt>
      <trkpt lat="45.92622" lon="5.73713">
        <ele>756.8</ele>
        <time>2026-05-13T11:03:59Z</time>
      </trkpt>
      <trkpt lat="45.9262" lon="5.73713">
        <ele>756.8</ele>
        <time>2026-05-13T11:04:00Z</time>
      </trkpt>
      <trkpt lat="45.92619" lon="5.73714">
        <ele>757.2</ele>
        <time>2026-05-13T11:04:01Z</time>
      </trkpt>
      <trkpt lat="45.92618" lon="5.73714">
        <ele>757.4</ele>
        <time>2026-05-13T11:04:02Z</time>
      </trkpt>
      <trkpt lat="45.92617" lon="5.73715">
        <ele>757.8</ele>
        <time>2026-05-13T11:04:03Z</time>
      </trkpt>
      <trkpt lat="45.92616" lon="5.73716">
        <ele>757.8</ele>
        <time>2026-05-13T11:04:04Z</time>
      </trkpt>
      <trkpt lat="45.92615" lon="5.73716">
        <ele>758</ele>
        <time>2026-05-13T11:04:05Z</time>
      </trkpt>
      <trkpt lat="45.92614" lon="5.73716">
        <ele>758</ele>
        <time>2026-05-13T11:04:06Z</time>
      </trkpt>
      <trkpt lat="45.92612" lon="5.73717">
        <ele>758.4</ele>
        <time>2026-05-13T11:04:07Z</time>
      </trkpt>
      <trkpt lat="45.92611" lon="5.73718">
        <ele>758.4</ele>
        <time>2026-05-13T11:04:08Z</time>
      </trkpt>
      <trkpt lat="45.9261" lon="5.73718">
        <ele>758.6</ele>
        <time>2026-05-13T11:04:09Z</time>
      </trkpt>
      <trkpt lat="45.92608" lon="5.73718">
        <ele>758.6</ele>
        <time>2026-05-13T11:04:10Z</time>
      </trkpt>
      <trkpt lat="45.92607" lon="5.73719">
        <ele>759</ele>
        <time>2026-05-13T11:04:11Z</time>
      </trkpt>
      <trkpt lat="45.92606" lon="5.7372">
        <ele>759</ele>
        <time>2026-05-13T11:04:12Z</time>
      </trkpt>
      <trkpt lat="45.92604" lon="5.7372">
        <ele>759</ele>
        <time>2026-05-13T11:04:13Z</time>
      </trkpt>
      <trkpt lat="45.92603" lon="5.73721">
        <ele>759.4</ele>
        <time>2026-05-13T11:04:14Z</time>
      </trkpt>
      <trkpt lat="45.92602" lon="5.73722">
        <ele>759.4</ele>
        <time>2026-05-13T11:04:15Z</time>
      </trkpt>
      <trkpt lat="45.926" lon="5.73723">
        <ele>759.6</ele>
        <time>2026-05-13T11:04:16Z</time>
      </trkpt>
      <trkpt lat="45.92599" lon="5.73723">
        <ele>759.6</ele>
        <time>2026-05-13T11:04:17Z</time>
      </trkpt>
      <trkpt lat="45.92598" lon="5.73724">
        <ele>759.6</ele>
        <time>2026-05-13T11:04:18Z</time>
      </trkpt>
      <trkpt lat="45.92598" lon="5.73724">
        <ele>760</ele>
        <time>2026-05-13T11:04:19Z</time>
      </trkpt>
      <trkpt lat="45.92597" lon="5.73725">
        <ele>760</ele>
        <time>2026-05-13T11:04:20Z</time>
      </trkpt>
      <trkpt lat="45.92595" lon="5.73726">
        <ele>760.4</ele>
        <time>2026-05-13T11:04:21Z</time>
      </trkpt>
      <trkpt lat="45.92594" lon="5.73726">
        <ele>760.6</ele>
        <time>2026-05-13T11:04:22Z</time>
      </trkpt>
      <trkpt lat="45.92592" lon="5.73728">
        <ele>760.6</ele>
        <time>2026-05-13T11:04:23Z</time>
      </trkpt>
      <trkpt lat="45.92591" lon="5.73729">
        <ele>760.8</ele>
        <time>2026-05-13T11:04:24Z</time>
      </trkpt>
      <trkpt lat="45.9259" lon="5.7373">
        <ele>760.8</ele>
        <time>2026-05-13T11:04:25Z</time>
      </trkpt>
      <trkpt lat="45.92589" lon="5.73731">
        <ele>760.8</ele>
        <time>2026-05-13T11:04:26Z</time>
      </trkpt>
      <trkpt lat="45.92588" lon="5.73732">
        <ele>761.2</ele>
        <time>2026-05-13T11:04:27Z</time>
      </trkpt>
      <trkpt lat="45.92587" lon="5.73732">
        <ele>761.2</ele>
        <time>2026-05-13T11:04:28Z</time>
      </trkpt>
      <trkpt lat="45.92585" lon="5.73733">
        <ele>761.2</ele>
        <time>2026-05-13T11:04:29Z</time>
      </trkpt>
      <trkpt lat="45.92584" lon="5.73734">
        <ele>761.2</ele>
        <time>2026-05-13T11:04:30Z</time>
      </trkpt>
      <trkpt lat="45.92583" lon="5.73734">
        <ele>761.4</ele>
        <time>2026-05-13T11:04:31Z</time>
      </trkpt>
      <trkpt lat="45.92582" lon="5.73735">
        <ele>761.4</ele>
        <time>2026-05-13T11:04:32Z</time>
      </trkpt>
      <trkpt lat="45.92581" lon="5.73737">
        <ele>761.8</ele>
        <time>2026-05-13T11:04:33Z</time>
      </trkpt>
      <trkpt lat="45.92581" lon="5.73738">
        <ele>761.8</ele>
        <time>2026-05-13T11:04:34Z</time>
      </trkpt>
      <trkpt lat="45.9258" lon="5.73739">
        <ele>762.2</ele>
        <time>2026-05-13T11:04:35Z</time>
      </trkpt>
      <trkpt lat="45.9258" lon="5.73741">
        <ele>762.4</ele>
        <time>2026-05-13T11:04:36Z</time>
      </trkpt>
      <trkpt lat="45.92579" lon="5.73743">
        <ele>762.8</ele>
        <time>2026-05-13T11:04:37Z</time>
      </trkpt>
      <trkpt lat="45.92579" lon="5.73746">
        <ele>762.8</ele>
        <time>2026-05-13T11:04:38Z</time>
      </trkpt>
      <trkpt lat="45.92578" lon="5.73748">
        <ele>763</ele>
        <time>2026-05-13T11:04:39Z</time>
      </trkpt>
      <trkpt lat="45.92577" lon="5.7375">
        <ele>763</ele>
        <time>2026-05-13T11:04:40Z</time>
      </trkpt>
      <trkpt lat="45.92577" lon="5.73752">
        <ele>763</ele>
        <time>2026-05-13T11:04:41Z</time>
      </trkpt>
      <trkpt lat="45.92576" lon="5.73754">
        <ele>763</ele>
        <time>2026-05-13T11:04:42Z</time>
      </trkpt>
      <trkpt lat="45.92576" lon="5.73756">
        <ele>763</ele>
        <time>2026-05-13T11:04:43Z</time>
      </trkpt>
      <trkpt lat="45.92576" lon="5.73758">
        <ele>763.2</ele>
        <time>2026-05-13T11:04:44Z</time>
      </trkpt>
      <trkpt lat="45.92576" lon="5.7376">
        <ele>763.2</ele>
        <time>2026-05-13T11:04:45Z</time>
      </trkpt>
      <trkpt lat="45.92577" lon="5.73762">
        <ele>763.6</ele>
        <time>2026-05-13T11:04:46Z</time>
      </trkpt>
      <trkpt lat="45.92578" lon="5.73764">
        <ele>763.6</ele>
        <time>2026-05-13T11:04:47Z</time>
      </trkpt>
      <trkpt lat="45.92579" lon="5.73765">
        <ele>763.6</ele>
        <time>2026-05-13T11:04:48Z</time>
      </trkpt>
      <trkpt lat="45.9258" lon="5.73766">
        <ele>763.6</ele>
        <time>2026-05-13T11:04:49Z</time>
      </trkpt>
      <trkpt lat="45.92581" lon="5.73768">
        <ele>763.8</ele>
        <time>2026-05-13T11:04:50Z</time>
      </trkpt>
      <trkpt lat="45.92582" lon="5.7377">
        <ele>764</ele>
        <time>2026-05-13T11:04:51Z</time>
      </trkpt>
      <trkpt lat="45.92583" lon="5.73771">
        <ele>764</ele>
        <time>2026-05-13T11:04:52Z</time>
      </trkpt>
      <trkpt lat="45.92584" lon="5.73772">
        <ele>764.2</ele>
        <time>2026-05-13T11:04:53Z</time>
      </trkpt>
      <trkpt lat="45.92586" lon="5.73773">
        <ele>764.6</ele>
        <time>2026-05-13T11:04:54Z</time>
      </trkpt>
      <trkpt lat="45.92587" lon="5.73774">
        <ele>764.6</ele>
        <time>2026-05-13T11:04:55Z</time>
      </trkpt>
      <trkpt lat="45.92589" lon="5.73775">
        <ele>765</ele>
        <time>2026-05-13T11:04:56Z</time>
      </trkpt>
      <trkpt lat="45.9259" lon="5.73776">
        <ele>765.2</ele>
        <time>2026-05-13T11:04:57Z</time>
      </trkpt>
      <trkpt lat="45.92593" lon="5.73776">
        <ele>765.4</ele>
        <time>2026-05-13T11:04:58Z</time>
      </trkpt>
      <trkpt lat="45.92595" lon="5.73777">
        <ele>765.4</ele>
        <time>2026-05-13T11:04:59Z</time>
      </trkpt>
      <trkpt lat="45.92597" lon="5.73777">
        <ele>765.8</ele>
        <time>2026-05-13T11:05:00Z</time>
      </trkpt>
      <trkpt lat="45.92598" lon="5.73777">
        <ele>765.8</ele>
        <time>2026-05-13T11:05:01Z</time>
      </trkpt>
      <trkpt lat="45.92597" lon="5.73776">
        <ele>765.8</ele>
        <time>2026-05-13T11:05:02Z</time>
      </trkpt>
      <trkpt lat="45.92596" lon="5.73775">
        <ele>766</ele>
        <time>2026-05-13T11:05:03Z</time>
      </trkpt>
      <trkpt lat="45.92597" lon="5.73775">
        <ele>766.2</ele>
        <time>2026-05-13T11:05:04Z</time>
      </trkpt>
      <trkpt lat="45.926" lon="5.73776">
        <ele>766.2</ele>
        <time>2026-05-13T11:05:05Z</time>
      </trkpt>
      <trkpt lat="45.92601" lon="5.73776">
        <ele>766.2</ele>
        <time>2026-05-13T11:05:06Z</time>
      </trkpt>
      <trkpt lat="45.92602" lon="5.73775">
        <ele>766.6</ele>
        <time>2026-05-13T11:05:07Z</time>
      </trkpt>
      <trkpt lat="45.92604" lon="5.73776">
        <ele>766.8</ele>
        <time>2026-05-13T11:05:08Z</time>
      </trkpt>
      <trkpt lat="45.92606" lon="5.73776">
        <ele>766.8</ele>
        <time>2026-05-13T11:05:09Z</time>
      </trkpt>
      <trkpt lat="45.92607" lon="5.73777">
        <ele>766.8</ele>
        <time>2026-05-13T11:05:10Z</time>
      </trkpt>
      <trkpt lat="45.92608" lon="5.73777">
        <ele>767</ele>
        <time>2026-05-13T11:05:11Z</time>
      </trkpt>
      <trkpt lat="45.9261" lon="5.73778">
        <ele>767</ele>
        <time>2026-05-13T11:05:12Z</time>
      </trkpt>
      <trkpt lat="45.92612" lon="5.73778">
        <ele>767.4</ele>
        <time>2026-05-13T11:05:13Z</time>
      </trkpt>
      <trkpt lat="45.92613" lon="5.73778">
        <ele>767.4</ele>
        <time>2026-05-13T11:05:14Z</time>
      </trkpt>
      <trkpt lat="45.92613" lon="5.73778">
        <ele>767.6</ele>
        <time>2026-05-13T11:05:15Z</time>
      </trkpt>
      <trkpt lat="45.92615" lon="5.73779">
        <ele>767.6</ele>
        <time>2026-05-13T11:05:16Z</time>
      </trkpt>
      <trkpt lat="45.92616" lon="5.73779">
        <ele>767.8</ele>
        <time>2026-05-13T11:05:17Z</time>
      </trkpt>
      <trkpt lat="45.92617" lon="5.73779">
        <ele>767.8</ele>
        <time>2026-05-13T11:05:18Z</time>
      </trkpt>
      <trkpt lat="45.92618" lon="5.7378">
        <ele>768.2</ele>
        <time>2026-05-13T11:05:19Z</time>
      </trkpt>
      <trkpt lat="45.9262" lon="5.73779">
        <ele>768.4</ele>
        <time>2026-05-13T11:05:20Z</time>
      </trkpt>
      <trkpt lat="45.92621" lon="5.73778">
        <ele>768.4</ele>
        <time>2026-05-13T11:05:21Z</time>
      </trkpt>
      <trkpt lat="45.92623" lon="5.73777">
        <ele>768.8</ele>
        <time>2026-05-13T11:05:22Z</time>
      </trkpt>
      <trkpt lat="45.92625" lon="5.73777">
        <ele>769.2</ele>
        <time>2026-05-13T11:05:23Z</time>
      </trkpt>
      <trkpt lat="45.92626" lon="5.73778">
        <ele>769.2</ele>
        <time>2026-05-13T11:05:24Z</time>
      </trkpt>
      <trkpt lat="45.92627" lon="5.73779">
        <ele>769.4</ele>
        <time>2026-05-13T11:05:25Z</time>
      </trkpt>
      <trkpt lat="45.92629" lon="5.7378">
        <ele>769.8</ele>
        <time>2026-05-13T11:05:26Z</time>
      </trkpt>
      <trkpt lat="45.9263" lon="5.73781">
        <ele>769.8</ele>
        <time>2026-05-13T11:05:27Z</time>
      </trkpt>
      <trkpt lat="45.92631" lon="5.73782">
        <ele>770</ele>
        <time>2026-05-13T11:05:28Z</time>
      </trkpt>
      <trkpt lat="45.92632" lon="5.73782">
        <ele>770.2</ele>
        <time>2026-05-13T11:05:29Z</time>
      </trkpt>
      <trkpt lat="45.92633" lon="5.73783">
        <ele>770.4</ele>
        <time>2026-05-13T11:05:30Z</time>
      </trkpt>
      <trkpt lat="45.92635" lon="5.73784">
        <ele>770.4</ele>
        <time>2026-05-13T11:05:31Z</time>
      </trkpt>
      <trkpt lat="45.92637" lon="5.73784">
        <ele>770.8</ele>
        <time>2026-05-13T11:05:32Z</time>
      </trkpt>
      <trkpt lat="45.92638" lon="5.73784">
        <ele>770.8</ele>
        <time>2026-05-13T11:05:33Z</time>
      </trkpt>
      <trkpt lat="45.92639" lon="5.73784">
        <ele>771</ele>
        <time>2026-05-13T11:05:34Z</time>
      </trkpt>
      <trkpt lat="45.9264" lon="5.73783">
        <ele>771</ele>
        <time>2026-05-13T11:05:35Z</time>
      </trkpt>
      <trkpt lat="45.92643" lon="5.73783">
        <ele>771.4</ele>
        <time>2026-05-13T11:05:36Z</time>
      </trkpt>
      <trkpt lat="45.92644" lon="5.73783">
        <ele>771.4</ele>
        <time>2026-05-13T11:05:37Z</time>
      </trkpt>
      <trkpt lat="45.92645" lon="5.73782">
        <ele>771.6</ele>
        <time>2026-05-13T11:05:38Z</time>
      </trkpt>
      <trkpt lat="45.92645" lon="5.73782">
        <ele>771.8</ele>
        <time>2026-05-13T11:05:39Z</time>
      </trkpt>
      <trkpt lat="45.92647" lon="5.73783">
        <ele>772.2</ele>
        <time>2026-05-13T11:05:40Z</time>
      </trkpt>
      <trkpt lat="45.92648" lon="5.73784">
        <ele>772.2</ele>
        <time>2026-05-13T11:05:41Z</time>
      </trkpt>
      <trkpt lat="45.92648" lon="5.73786">
        <ele>772.4</ele>
        <time>2026-05-13T11:05:42Z</time>
      </trkpt>
      <trkpt lat="45.92648" lon="5.73788">
        <ele>772.8</ele>
        <time>2026-05-13T11:05:43Z</time>
      </trkpt>
      <trkpt lat="45.9265" lon="5.73791">
        <ele>772.8</ele>
        <time>2026-05-13T11:05:44Z</time>
      </trkpt>
      <trkpt lat="45.92651" lon="5.73793">
        <ele>772.8</ele>
        <time>2026-05-13T11:05:45Z</time>
      </trkpt>
      <trkpt lat="45.92653" lon="5.73794">
        <ele>773</ele>
        <time>2026-05-13T11:05:46Z</time>
      </trkpt>
      <trkpt lat="45.92654" lon="5.73794">
        <ele>773</ele>
        <time>2026-05-13T11:05:47Z</time>
      </trkpt>
      <trkpt lat="45.92655" lon="5.73795">
        <ele>773.4</ele>
        <time>2026-05-13T11:05:48Z</time>
      </trkpt>
      <trkpt lat="45.92657" lon="5.73795">
        <ele>773.4</ele>
        <time>2026-05-13T11:05:49Z</time>
      </trkpt>
      <trkpt lat="45.92659" lon="5.73795">
        <ele>773.6</ele>
        <time>2026-05-13T11:05:50Z</time>
      </trkpt>
      <trkpt lat="45.92661" lon="5.73796">
        <ele>773.6</ele>
        <time>2026-05-13T11:05:51Z</time>
      </trkpt>
      <trkpt lat="45.92662" lon="5.73797">
        <ele>774</ele>
        <time>2026-05-13T11:05:52Z</time>
      </trkpt>
      <trkpt lat="45.92664" lon="5.73797">
        <ele>774</ele>
        <time>2026-05-13T11:05:53Z</time>
      </trkpt>
      <trkpt lat="45.92665" lon="5.73797">
        <ele>774</ele>
        <time>2026-05-13T11:05:54Z</time>
      </trkpt>
      <trkpt lat="45.92667" lon="5.73798">
        <ele>774.4</ele>
        <time>2026-05-13T11:05:55Z</time>
      </trkpt>
      <trkpt lat="45.92668" lon="5.73799">
        <ele>774.4</ele>
        <time>2026-05-13T11:05:56Z</time>
      </trkpt>
      <trkpt lat="45.9267" lon="5.73801">
        <ele>774.6</ele>
        <time>2026-05-13T11:05:57Z</time>
      </trkpt>
      <trkpt lat="45.92671" lon="5.73801">
        <ele>774.6</ele>
        <time>2026-05-13T11:05:58Z</time>
      </trkpt>
      <trkpt lat="45.92673" lon="5.73801">
        <ele>774.8</ele>
        <time>2026-05-13T11:05:59Z</time>
      </trkpt>
      <trkpt lat="45.92673" lon="5.73799">
        <ele>775.2</ele>
        <time>2026-05-13T11:06:00Z</time>
      </trkpt>
      <trkpt lat="45.92673" lon="5.73797">
        <ele>775.4</ele>
        <time>2026-05-13T11:06:01Z</time>
      </trkpt>
      <trkpt lat="45.92675" lon="5.73796">
        <ele>775.6</ele>
        <time>2026-05-13T11:06:02Z</time>
      </trkpt>
      <trkpt lat="45.92676" lon="5.73796">
        <ele>775.6</ele>
        <time>2026-05-13T11:06:03Z</time>
      </trkpt>
      <trkpt lat="45.92679" lon="5.73795">
        <ele>775.8</ele>
        <time>2026-05-13T11:06:04Z</time>
      </trkpt>
      <trkpt lat="45.92681" lon="5.73795">
        <ele>776</ele>
        <time>2026-05-13T11:06:05Z</time>
      </trkpt>
      <trkpt lat="45.92683" lon="5.73795">
        <ele>776</ele>
        <time>2026-05-13T11:06:06Z</time>
      </trkpt>
      <trkpt lat="45.92685" lon="5.73795">
        <ele>776.4</ele>
        <time>2026-05-13T11:06:07Z</time>
      </trkpt>
      <trkpt lat="45.92687" lon="5.73795">
        <ele>776.4</ele>
        <time>2026-05-13T11:06:08Z</time>
      </trkpt>
      <trkpt lat="45.92689" lon="5.73795">
        <ele>776.8</ele>
        <time>2026-05-13T11:06:09Z</time>
      </trkpt>
      <trkpt lat="45.92691" lon="5.73796">
        <ele>776.8</ele>
        <time>2026-05-13T11:06:10Z</time>
      </trkpt>
      <trkpt lat="45.92694" lon="5.73797">
        <ele>777</ele>
        <time>2026-05-13T11:06:11Z</time>
      </trkpt>
      <trkpt lat="45.92696" lon="5.73797">
        <ele>777</ele>
        <time>2026-05-13T11:06:12Z</time>
      </trkpt>
      <trkpt lat="45.92698" lon="5.73798">
        <ele>777.2</ele>
        <time>2026-05-13T11:06:13Z</time>
      </trkpt>
      <trkpt lat="45.927" lon="5.73798">
        <ele>777.4</ele>
        <time>2026-05-13T11:06:14Z</time>
      </trkpt>
      <trkpt lat="45.92702" lon="5.73798">
        <ele>777.6</ele>
        <time>2026-05-13T11:06:15Z</time>
      </trkpt>
      <trkpt lat="45.92703" lon="5.73799">
        <ele>777.6</ele>
        <time>2026-05-13T11:06:16Z</time>
      </trkpt>
      <trkpt lat="45.92705" lon="5.738">
        <ele>778</ele>
        <time>2026-05-13T11:06:17Z</time>
      </trkpt>
      <trkpt lat="45.92707" lon="5.73801">
        <ele>778.2</ele>
        <time>2026-05-13T11:06:18Z</time>
      </trkpt>
      <trkpt lat="45.92709" lon="5.73802">
        <ele>778.2</ele>
        <time>2026-05-13T11:06:19Z</time>
      </trkpt>
      <trkpt lat="45.9271" lon="5.73803">
        <ele>778.6</ele>
        <time>2026-05-13T11:06:20Z</time>
      </trkpt>
      <trkpt lat="45.92711" lon="5.73803">
        <ele>778.8</ele>
        <time>2026-05-13T11:06:21Z</time>
      </trkpt>
      <trkpt lat="45.92713" lon="5.73803">
        <ele>778.8</ele>
        <time>2026-05-13T11:06:22Z</time>
      </trkpt>
      <trkpt lat="45.92715" lon="5.73804">
        <ele>779.2</ele>
        <time>2026-05-13T11:06:23Z</time>
      </trkpt>
      <trkpt lat="45.92714" lon="5.73805">
        <ele>779.2</ele>
        <time>2026-05-13T11:06:24Z</time>
      </trkpt>
      <trkpt lat="45.92715" lon="5.73806">
        <ele>779.6</ele>
        <time>2026-05-13T11:06:25Z</time>
      </trkpt>
      <trkpt lat="45.92716" lon="5.73807">
        <ele>779.6</ele>
        <time>2026-05-13T11:06:26Z</time>
      </trkpt>
      <trkpt lat="45.92717" lon="5.73808">
        <ele>779.8</ele>
        <time>2026-05-13T11:06:27Z</time>
      </trkpt>
      <trkpt lat="45.92719" lon="5.73808">
        <ele>779.8</ele>
        <time>2026-05-13T11:06:28Z</time>
      </trkpt>
      <trkpt lat="45.92721" lon="5.73808">
        <ele>779.8</ele>
        <time>2026-05-13T11:06:29Z</time>
      </trkpt>
      <trkpt lat="45.92721" lon="5.73807">
        <ele>780.2</ele>
        <time>2026-05-13T11:06:30Z</time>
      </trkpt>
      <trkpt lat="45.92722" lon="5.73807">
        <ele>780.2</ele>
        <time>2026-05-13T11:06:31Z</time>
      </trkpt>
      <trkpt lat="45.92724" lon="5.73807">
        <ele>780.4</ele>
        <time>2026-05-13T11:06:32Z</time>
      </trkpt>
      <trkpt lat="45.92725" lon="5.73807">
        <ele>780.4</ele>
        <time>2026-05-13T11:06:33Z</time>
      </trkpt>
      <trkpt lat="45.92727" lon="5.73807">
        <ele>780.6</ele>
        <time>2026-05-13T11:06:34Z</time>
      </trkpt>
      <trkpt lat="45.92728" lon="5.73807">
        <ele>780.6</ele>
        <time>2026-05-13T11:06:35Z</time>
      </trkpt>
      <trkpt lat="45.9273" lon="5.73807">
        <ele>781</ele>
        <time>2026-05-13T11:06:36Z</time>
      </trkpt>
      <trkpt lat="45.92731" lon="5.73807">
        <ele>781</ele>
        <time>2026-05-13T11:06:37Z</time>
      </trkpt>
      <trkpt lat="45.92731" lon="5.73808">
        <ele>781.2</ele>
        <time>2026-05-13T11:06:38Z</time>
      </trkpt>
      <trkpt lat="45.92732" lon="5.73808">
        <ele>781.4</ele>
        <time>2026-05-13T11:06:39Z</time>
      </trkpt>
      <trkpt lat="45.92732" lon="5.73809">
        <ele>781.4</ele>
        <time>2026-05-13T11:06:40Z</time>
      </trkpt>
      <trkpt lat="45.92733" lon="5.73809">
        <ele>781.8</ele>
        <time>2026-05-13T11:06:41Z</time>
      </trkpt>
      <trkpt lat="45.92734" lon="5.73809">
        <ele>782</ele>
        <time>2026-05-13T11:06:42Z</time>
      </trkpt>
      <trkpt lat="45.92734" lon="5.7381">
        <ele>782</ele>
        <time>2026-05-13T11:06:43Z</time>
      </trkpt>
      <trkpt lat="45.92735" lon="5.73811">
        <ele>782.2</ele>
        <time>2026-05-13T11:06:44Z</time>
      </trkpt>
      <trkpt lat="45.92735" lon="5.73813">
        <ele>782.2</ele>
        <time>2026-05-13T11:06:45Z</time>
      </trkpt>
      <trkpt lat="45.92736" lon="5.73814">
        <ele>782.2</ele>
        <time>2026-05-13T11:06:46Z</time>
      </trkpt>
      <trkpt lat="45.92736" lon="5.73814">
        <ele>782.6</ele>
        <time>2026-05-13T11:06:47Z</time>
      </trkpt>
      <trkpt lat="45.92737" lon="5.73813">
        <ele>782.6</ele>
        <time>2026-05-13T11:06:48Z</time>
      </trkpt>
      <trkpt lat="45.92739" lon="5.73813">
        <ele>782.8</ele>
        <time>2026-05-13T11:06:49Z</time>
      </trkpt>
      <trkpt lat="45.9274" lon="5.73813">
        <ele>782.8</ele>
        <time>2026-05-13T11:06:50Z</time>
      </trkpt>
      <trkpt lat="45.92741" lon="5.73812">
        <ele>783.2</ele>
        <time>2026-05-13T11:06:51Z</time>
      </trkpt>
      <trkpt lat="45.92742" lon="5.73812">
        <ele>783.2</ele>
        <time>2026-05-13T11:06:52Z</time>
      </trkpt>
      <trkpt lat="45.92744" lon="5.73811">
        <ele>783.4</ele>
        <time>2026-05-13T11:06:53Z</time>
      </trkpt>
      <trkpt lat="45.92746" lon="5.73812">
        <ele>783.4</ele>
        <time>2026-05-13T11:06:54Z</time>
      </trkpt>
      <trkpt lat="45.92747" lon="5.73813">
        <ele>783.6</ele>
        <time>2026-05-13T11:06:55Z</time>
      </trkpt>
      <trkpt lat="45.92749" lon="5.73813">
        <ele>783.6</ele>
        <time>2026-05-13T11:06:56Z</time>
      </trkpt>
      <trkpt lat="45.92751" lon="5.73813">
        <ele>783.8</ele>
        <time>2026-05-13T11:06:57Z</time>
      </trkpt>
      <trkpt lat="45.92752" lon="5.73813">
        <ele>783.8</ele>
        <time>2026-05-13T11:06:58Z</time>
      </trkpt>
      <trkpt lat="45.92753" lon="5.73815">
        <ele>783.8</ele>
        <time>2026-05-13T11:06:59Z</time>
      </trkpt>
      <trkpt lat="45.92754" lon="5.73817">
        <ele>784.2</ele>
        <time>2026-05-13T11:07:00Z</time>
      </trkpt>
      <trkpt lat="45.92754" lon="5.7382">
        <ele>784.2</ele>
        <time>2026-05-13T11:07:01Z</time>
      </trkpt>
      <trkpt lat="45.92754" lon="5.73822">
        <ele>783.6</ele>
        <time>2026-05-13T11:07:02Z</time>
      </trkpt>
      <trkpt lat="45.92754" lon="5.73824">
        <ele>784</ele>
        <time>2026-05-13T11:07:03Z</time>
      </trkpt>
      <trkpt lat="45.92755" lon="5.73825">
        <ele>784.2</ele>
        <time>2026-05-13T11:07:04Z</time>
      </trkpt>
      <trkpt lat="45.92758" lon="5.73824">
        <ele>784.6</ele>
        <time>2026-05-13T11:07:05Z</time>
      </trkpt>
      <trkpt lat="45.9276" lon="5.73824">
        <ele>784.8</ele>
        <time>2026-05-13T11:07:06Z</time>
      </trkpt>
      <trkpt lat="45.92761" lon="5.73824">
        <ele>785</ele>
        <time>2026-05-13T11:07:07Z</time>
      </trkpt>
      <trkpt lat="45.92762" lon="5.73826">
        <ele>785.2</ele>
        <time>2026-05-13T11:07:08Z</time>
      </trkpt>
      <trkpt lat="45.92763" lon="5.73828">
        <ele>785.2</ele>
        <time>2026-05-13T11:07:09Z</time>
      </trkpt>
      <trkpt lat="45.92765" lon="5.73829">
        <ele>785.6</ele>
        <time>2026-05-13T11:07:10Z</time>
      </trkpt>
      <trkpt lat="45.92767" lon="5.7383">
        <ele>785.6</ele>
        <time>2026-05-13T11:07:11Z</time>
      </trkpt>
      <trkpt lat="45.92768" lon="5.73831">
        <ele>785.8</ele>
        <time>2026-05-13T11:07:12Z</time>
      </trkpt>
      <trkpt lat="45.9277" lon="5.73832">
        <ele>785.8</ele>
        <time>2026-05-13T11:07:13Z</time>
      </trkpt>
      <trkpt lat="45.92771" lon="5.73834">
        <ele>786.2</ele>
        <time>2026-05-13T11:07:14Z</time>
      </trkpt>
      <trkpt lat="45.92772" lon="5.73836">
        <ele>786.2</ele>
        <time>2026-05-13T11:07:15Z</time>
      </trkpt>
      <trkpt lat="45.92773" lon="5.73836">
        <ele>786.4</ele>
        <time>2026-05-13T11:07:16Z</time>
      </trkpt>
      <trkpt lat="45.92775" lon="5.73836">
        <ele>786.4</ele>
        <time>2026-05-13T11:07:17Z</time>
      </trkpt>
      <trkpt lat="45.92775" lon="5.73835">
        <ele>786.4</ele>
        <time>2026-05-13T11:07:18Z</time>
      </trkpt>
      <trkpt lat="45.92776" lon="5.73835">
        <ele>787</ele>
        <time>2026-05-13T11:07:19Z</time>
      </trkpt>
      <trkpt lat="45.92776" lon="5.73835">
        <ele>787.2</ele>
        <time>2026-05-13T11:07:20Z</time>
      </trkpt>
      <trkpt lat="45.92778" lon="5.73835">
        <ele>787.2</ele>
        <time>2026-05-13T11:07:21Z</time>
      </trkpt>
      <trkpt lat="45.9278" lon="5.73835">
        <ele>787.6</ele>
        <time>2026-05-13T11:07:22Z</time>
      </trkpt>
      <trkpt lat="45.92782" lon="5.73835">
        <ele>787.6</ele>
        <time>2026-05-13T11:07:23Z</time>
      </trkpt>
      <trkpt lat="45.92784" lon="5.73835">
        <ele>787.8</ele>
        <time>2026-05-13T11:07:24Z</time>
      </trkpt>
      <trkpt lat="45.92785" lon="5.73835">
        <ele>788</ele>
        <time>2026-05-13T11:07:25Z</time>
      </trkpt>
      <trkpt lat="45.92787" lon="5.73835">
        <ele>788</ele>
        <time>2026-05-13T11:07:26Z</time>
      </trkpt>
      <trkpt lat="45.92789" lon="5.73834">
        <ele>788.2</ele>
        <time>2026-05-13T11:07:27Z</time>
      </trkpt>
      <trkpt lat="45.9279" lon="5.73834">
        <ele>788.2</ele>
        <time>2026-05-13T11:07:28Z</time>
      </trkpt>
      <trkpt lat="45.92792" lon="5.73834">
        <ele>788.6</ele>
        <time>2026-05-13T11:07:29Z</time>
      </trkpt>
      <trkpt lat="45.92794" lon="5.73834">
        <ele>788.6</ele>
        <time>2026-05-13T11:07:30Z</time>
      </trkpt>
      <trkpt lat="45.92796" lon="5.73833">
        <ele>788.8</ele>
        <time>2026-05-13T11:07:31Z</time>
      </trkpt>
      <trkpt lat="45.92798" lon="5.73834">
        <ele>788.8</ele>
        <time>2026-05-13T11:07:32Z</time>
      </trkpt>
      <trkpt lat="45.92801" lon="5.73835">
        <ele>788.8</ele>
        <time>2026-05-13T11:07:33Z</time>
      </trkpt>
      <trkpt lat="45.92803" lon="5.73836">
        <ele>789.2</ele>
        <time>2026-05-13T11:07:34Z</time>
      </trkpt>
      <trkpt lat="45.92805" lon="5.73836">
        <ele>789.2</ele>
        <time>2026-05-13T11:07:35Z</time>
      </trkpt>
      <trkpt lat="45.92807" lon="5.73837">
        <ele>789.2</ele>
        <time>2026-05-13T11:07:36Z</time>
      </trkpt>
      <trkpt lat="45.92808" lon="5.73837">
        <ele>789.6</ele>
        <time>2026-05-13T11:07:37Z</time>
      </trkpt>
      <trkpt lat="45.92809" lon="5.73837">
        <ele>789.8</ele>
        <time>2026-05-13T11:07:38Z</time>
      </trkpt>
      <trkpt lat="45.9281" lon="5.73838">
        <ele>789.8</ele>
        <time>2026-05-13T11:07:39Z</time>
      </trkpt>
      <trkpt lat="45.92811" lon="5.73838">
        <ele>789.8</ele>
        <time>2026-05-13T11:07:40Z</time>
      </trkpt>
      <trkpt lat="45.92813" lon="5.73838">
        <ele>790.2</ele>
        <time>2026-05-13T11:07:41Z</time>
      </trkpt>
      <trkpt lat="45.92813" lon="5.73838">
        <ele>790.4</ele>
        <time>2026-05-13T11:07:42Z</time>
      </trkpt>
      <trkpt lat="45.92815" lon="5.73837">
        <ele>790.4</ele>
        <time>2026-05-13T11:07:43Z</time>
      </trkpt>
      <trkpt lat="45.92817" lon="5.73835">
        <ele>790.4</ele>
        <time>2026-05-13T11:07:44Z</time>
      </trkpt>
      <trkpt lat="45.92819" lon="5.73834">
        <ele>790.8</ele>
        <time>2026-05-13T11:07:45Z</time>
      </trkpt>
      <trkpt lat="45.9282" lon="5.73834">
        <ele>790.8</ele>
        <time>2026-05-13T11:07:46Z</time>
      </trkpt>
      <trkpt lat="45.92821" lon="5.73834">
        <ele>790.8</ele>
        <time>2026-05-13T11:07:47Z</time>
      </trkpt>
      <trkpt lat="45.92822" lon="5.73835">
        <ele>791.2</ele>
        <time>2026-05-13T11:07:48Z</time>
      </trkpt>
      <trkpt lat="45.92823" lon="5.73835">
        <ele>791.4</ele>
        <time>2026-05-13T11:07:49Z</time>
      </trkpt>
      <trkpt lat="45.92823" lon="5.73835">
        <ele>791.6</ele>
        <time>2026-05-13T11:07:50Z</time>
      </trkpt>
      <trkpt lat="45.92825" lon="5.73835">
        <ele>792</ele>
        <time>2026-05-13T11:07:51Z</time>
      </trkpt>
      <trkpt lat="45.92826" lon="5.73835">
        <ele>792.2</ele>
        <time>2026-05-13T11:07:52Z</time>
      </trkpt>
      <trkpt lat="45.92828" lon="5.73836">
        <ele>792.2</ele>
        <time>2026-05-13T11:07:53Z</time>
      </trkpt>
      <trkpt lat="45.92829" lon="5.73837">
        <ele>792.6</ele>
        <time>2026-05-13T11:07:54Z</time>
      </trkpt>
      <trkpt lat="45.9283" lon="5.73837">
        <ele>792.6</ele>
        <time>2026-05-13T11:07:55Z</time>
      </trkpt>
      <trkpt lat="45.92831" lon="5.73838">
        <ele>792.6</ele>
        <time>2026-05-13T11:07:56Z</time>
      </trkpt>
      <trkpt lat="45.92832" lon="5.73838">
        <ele>792.8</ele>
        <time>2026-05-13T11:07:57Z</time>
      </trkpt>
      <trkpt lat="45.92835" lon="5.73838">
        <ele>792.8</ele>
        <time>2026-05-13T11:07:58Z</time>
      </trkpt>
      <trkpt lat="45.92837" lon="5.73838">
        <ele>793.2</ele>
        <time>2026-05-13T11:07:59Z</time>
      </trkpt>
      <trkpt lat="45.92837" lon="5.73838">
        <ele>793.2</ele>
        <time>2026-05-13T11:08:00Z</time>
      </trkpt>
      <trkpt lat="45.92838" lon="5.73838">
        <ele>793.6</ele>
        <time>2026-05-13T11:08:01Z</time>
      </trkpt>
      <trkpt lat="45.92839" lon="5.73837">
        <ele>793.6</ele>
        <time>2026-05-13T11:08:02Z</time>
      </trkpt>
      <trkpt lat="45.9284" lon="5.73838">
        <ele>793.6</ele>
        <time>2026-05-13T11:08:03Z</time>
      </trkpt>
      <trkpt lat="45.92841" lon="5.73838">
        <ele>794</ele>
        <time>2026-05-13T11:08:04Z</time>
      </trkpt>
      <trkpt lat="45.92843" lon="5.73838">
        <ele>794.2</ele>
        <time>2026-05-13T11:08:05Z</time>
      </trkpt>
      <trkpt lat="45.92845" lon="5.73838">
        <ele>794.2</ele>
        <time>2026-05-13T11:08:06Z</time>
      </trkpt>
      <trkpt lat="45.92847" lon="5.73838">
        <ele>794.4</ele>
        <time>2026-05-13T11:08:07Z</time>
      </trkpt>
      <trkpt lat="45.92849" lon="5.73839">
        <ele>794.6</ele>
        <time>2026-05-13T11:08:08Z</time>
      </trkpt>
      <trkpt lat="45.92851" lon="5.7384">
        <ele>794.6</ele>
        <time>2026-05-13T11:08:09Z</time>
      </trkpt>
      <trkpt lat="45.92853" lon="5.73841">
        <ele>795</ele>
        <time>2026-05-13T11:08:10Z</time>
      </trkpt>
      <trkpt lat="45.92854" lon="5.73842">
        <ele>795</ele>
        <time>2026-05-13T11:08:11Z</time>
      </trkpt>
      <trkpt lat="45.92855" lon="5.73843">
        <ele>795.2</ele>
        <time>2026-05-13T11:08:12Z</time>
      </trkpt>
      <trkpt lat="45.92856" lon="5.73844">
        <ele>795.2</ele>
        <time>2026-05-13T11:08:13Z</time>
      </trkpt>
      <trkpt lat="45.92856" lon="5.73844">
        <ele>795.4</ele>
        <time>2026-05-13T11:08:14Z</time>
      </trkpt>
      <trkpt lat="45.92857" lon="5.73845">
        <ele>795.4</ele>
        <time>2026-05-13T11:08:15Z</time>
      </trkpt>
      <trkpt lat="45.9286" lon="5.73846">
        <ele>795.8</ele>
        <time>2026-05-13T11:08:16Z</time>
      </trkpt>
      <trkpt lat="45.92861" lon="5.73846">
        <ele>795.8</ele>
        <time>2026-05-13T11:08:17Z</time>
      </trkpt>
      <trkpt lat="45.92861" lon="5.73847">
        <ele>795.8</ele>
        <time>2026-05-13T11:08:18Z</time>
      </trkpt>
      <trkpt lat="45.92861" lon="5.73848">
        <ele>795.8</ele>
        <time>2026-05-13T11:08:19Z</time>
      </trkpt>
      <trkpt lat="45.92862" lon="5.73849">
        <ele>796</ele>
        <time>2026-05-13T11:08:20Z</time>
      </trkpt>
      <trkpt lat="45.92863" lon="5.73848">
        <ele>796</ele>
        <time>2026-05-13T11:08:21Z</time>
      </trkpt>
      <trkpt lat="45.92864" lon="5.73848">
        <ele>796.4</ele>
        <time>2026-05-13T11:08:22Z</time>
      </trkpt>
      <trkpt lat="45.92865" lon="5.73847">
        <ele>796.4</ele>
        <time>2026-05-13T11:08:23Z</time>
      </trkpt>
      <trkpt lat="45.92866" lon="5.73847">
        <ele>796.6</ele>
        <time>2026-05-13T11:08:24Z</time>
      </trkpt>
      <trkpt lat="45.92866" lon="5.73848">
        <ele>796.6</ele>
        <time>2026-05-13T11:08:25Z</time>
      </trkpt>
      <trkpt lat="45.92867" lon="5.73849">
        <ele>796.8</ele>
        <time>2026-05-13T11:08:26Z</time>
      </trkpt>
      <trkpt lat="45.92868" lon="5.7385">
        <ele>796.8</ele>
        <time>2026-05-13T11:08:27Z</time>
      </trkpt>
      <trkpt lat="45.92869" lon="5.7385">
        <ele>797.4</ele>
        <time>2026-05-13T11:08:28Z</time>
      </trkpt>
      <trkpt lat="45.9287" lon="5.73851">
        <ele>797.4</ele>
        <time>2026-05-13T11:08:29Z</time>
      </trkpt>
      <trkpt lat="45.92871" lon="5.73852">
        <ele>797.6</ele>
        <time>2026-05-13T11:08:30Z</time>
      </trkpt>
      <trkpt lat="45.92873" lon="5.73853">
        <ele>797.6</ele>
        <time>2026-05-13T11:08:31Z</time>
      </trkpt>
      <trkpt lat="45.92874" lon="5.73853">
        <ele>797.8</ele>
        <time>2026-05-13T11:08:32Z</time>
      </trkpt>
      <trkpt lat="45.92875" lon="5.73853">
        <ele>798</ele>
        <time>2026-05-13T11:08:33Z</time>
      </trkpt>
      <trkpt lat="45.92876" lon="5.73853">
        <ele>798.4</ele>
        <time>2026-05-13T11:08:34Z</time>
      </trkpt>
      <trkpt lat="45.92877" lon="5.73852">
        <ele>798.6</ele>
        <time>2026-05-13T11:08:35Z</time>
      </trkpt>
      <trkpt lat="45.92879" lon="5.73852">
        <ele>798.8</ele>
        <time>2026-05-13T11:08:36Z</time>
      </trkpt>
      <trkpt lat="45.9288" lon="5.73852">
        <ele>799</ele>
        <time>2026-05-13T11:08:37Z</time>
      </trkpt>
      <trkpt lat="45.92882" lon="5.73853">
        <ele>799</ele>
        <time>2026-05-13T11:08:38Z</time>
      </trkpt>
      <trkpt lat="45.92884" lon="5.73853">
        <ele>799.4</ele>
        <time>2026-05-13T11:08:39Z</time>
      </trkpt>
      <trkpt lat="45.92886" lon="5.73853">
        <ele>799.4</ele>
        <time>2026-05-13T11:08:40Z</time>
      </trkpt>
      <trkpt lat="45.92886" lon="5.73853">
        <ele>799.6</ele>
        <time>2026-05-13T11:08:41Z</time>
      </trkpt>
      <trkpt lat="45.92888" lon="5.73851">
        <ele>799.6</ele>
        <time>2026-05-13T11:08:42Z</time>
      </trkpt>
      <trkpt lat="45.9289" lon="5.73849">
        <ele>799.8</ele>
        <time>2026-05-13T11:08:43Z</time>
      </trkpt>
      <trkpt lat="45.9289" lon="5.73848">
        <ele>799.8</ele>
        <time>2026-05-13T11:08:44Z</time>
      </trkpt>
      <trkpt lat="45.9289" lon="5.73849">
        <ele>799.8</ele>
        <time>2026-05-13T11:08:45Z</time>
      </trkpt>
      <trkpt lat="45.9289" lon="5.73849">
        <ele>800.2</ele>
        <time>2026-05-13T11:08:46Z</time>
      </trkpt>
      <trkpt lat="45.92891" lon="5.7385">
        <ele>800.2</ele>
        <time>2026-05-13T11:08:47Z</time>
      </trkpt>
      <trkpt lat="45.92893" lon="5.7385">
        <ele>800.2</ele>
        <time>2026-05-13T11:08:48Z</time>
      </trkpt>
      <trkpt lat="45.92894" lon="5.7385">
        <ele>800.8</ele>
        <time>2026-05-13T11:08:49Z</time>
      </trkpt>
      <trkpt lat="45.92895" lon="5.73851">
        <ele>801</ele>
        <time>2026-05-13T11:08:50Z</time>
      </trkpt>
      <trkpt lat="45.92896" lon="5.73851">
        <ele>801.2</ele>
        <time>2026-05-13T11:08:51Z</time>
      </trkpt>
      <trkpt lat="45.92898" lon="5.73852">
        <ele>801.4</ele>
        <time>2026-05-13T11:08:52Z</time>
      </trkpt>
      <trkpt lat="45.929" lon="5.73853">
        <ele>801.4</ele>
        <time>2026-05-13T11:08:53Z</time>
      </trkpt>
      <trkpt lat="45.92902" lon="5.73855">
        <ele>801.8</ele>
        <time>2026-05-13T11:08:54Z</time>
      </trkpt>
      <trkpt lat="45.92904" lon="5.73856">
        <ele>801.8</ele>
        <time>2026-05-13T11:08:55Z</time>
      </trkpt>
      <trkpt lat="45.92904" lon="5.73857">
        <ele>802</ele>
        <time>2026-05-13T11:08:56Z</time>
      </trkpt>
      <trkpt lat="45.92906" lon="5.73858">
        <ele>802.4</ele>
        <time>2026-05-13T11:08:57Z</time>
      </trkpt>
      <trkpt lat="45.92907" lon="5.7386">
        <ele>802.4</ele>
        <time>2026-05-13T11:08:58Z</time>
      </trkpt>
      <trkpt lat="45.92908" lon="5.73861">
        <ele>802.6</ele>
        <time>2026-05-13T11:08:59Z</time>
      </trkpt>
      <trkpt lat="45.92909" lon="5.73861">
        <ele>802.6</ele>
        <time>2026-05-13T11:09:00Z</time>
      </trkpt>
      <trkpt lat="45.92909" lon="5.73862">
        <ele>802.8</ele>
        <time>2026-05-13T11:09:01Z</time>
      </trkpt>
      <trkpt lat="45.92909" lon="5.73862">
        <ele>803</ele>
        <time>2026-05-13T11:09:02Z</time>
      </trkpt>
      <trkpt lat="45.92911" lon="5.73863">
        <ele>803.2</ele>
        <time>2026-05-13T11:09:03Z</time>
      </trkpt>
      <trkpt lat="45.92911" lon="5.73864">
        <ele>803.2</ele>
        <time>2026-05-13T11:09:04Z</time>
      </trkpt>
      <trkpt lat="45.92915" lon="5.73863">
        <ele>803.6</ele>
        <time>2026-05-13T11:09:05Z</time>
      </trkpt>
      <trkpt lat="45.92917" lon="5.73863">
        <ele>803.6</ele>
        <time>2026-05-13T11:09:06Z</time>
      </trkpt>
      <trkpt lat="45.92917" lon="5.73863">
        <ele>803.8</ele>
        <time>2026-05-13T11:09:07Z</time>
      </trkpt>
      <trkpt lat="45.92918" lon="5.73864">
        <ele>803.8</ele>
        <time>2026-05-13T11:09:08Z</time>
      </trkpt>
      <trkpt lat="45.92919" lon="5.73865">
        <ele>804</ele>
        <time>2026-05-13T11:09:09Z</time>
      </trkpt>
      <trkpt lat="45.92919" lon="5.73865">
        <ele>804</ele>
        <time>2026-05-13T11:09:10Z</time>
      </trkpt>
      <trkpt lat="45.92921" lon="5.73865">
        <ele>804</ele>
        <time>2026-05-13T11:09:11Z</time>
      </trkpt>
      <trkpt lat="45.92921" lon="5.73865">
        <ele>804.4</ele>
        <time>2026-05-13T11:09:12Z</time>
      </trkpt>
      <trkpt lat="45.92921" lon="5.73865">
        <ele>804.4</ele>
        <time>2026-05-13T11:09:13Z</time>
      </trkpt>
      <trkpt lat="45.92922" lon="5.73867">
        <ele>804.8</ele>
        <time>2026-05-13T11:09:14Z</time>
      </trkpt>
      <trkpt lat="45.92925" lon="5.73868">
        <ele>805</ele>
        <time>2026-05-13T11:09:15Z</time>
      </trkpt>
      <trkpt lat="45.92927" lon="5.7387">
        <ele>805.2</ele>
        <time>2026-05-13T11:09:16Z</time>
      </trkpt>
      <trkpt lat="45.92929" lon="5.73871">
        <ele>805.2</ele>
        <time>2026-05-13T11:09:17Z</time>
      </trkpt>
      <trkpt lat="45.92932" lon="5.73872">
        <ele>805.4</ele>
        <time>2026-05-13T11:09:18Z</time>
      </trkpt>
      <trkpt lat="45.92934" lon="5.73872">
        <ele>805.4</ele>
        <time>2026-05-13T11:09:19Z</time>
      </trkpt>
      <trkpt lat="45.92936" lon="5.73873">
        <ele>805.6</ele>
        <time>2026-05-13T11:09:20Z</time>
      </trkpt>
      <trkpt lat="45.92938" lon="5.73874">
        <ele>805.6</ele>
        <time>2026-05-13T11:09:21Z</time>
      </trkpt>
      <trkpt lat="45.92939" lon="5.73875">
        <ele>806</ele>
        <time>2026-05-13T11:09:22Z</time>
      </trkpt>
      <trkpt lat="45.92941" lon="5.73876">
        <ele>806</ele>
        <time>2026-05-13T11:09:23Z</time>
      </trkpt>
      <trkpt lat="45.92943" lon="5.73876">
        <ele>806.2</ele>
        <time>2026-05-13T11:09:24Z</time>
      </trkpt>
      <trkpt lat="45.92944" lon="5.73876">
        <ele>806.4</ele>
        <time>2026-05-13T11:09:25Z</time>
      </trkpt>
      <trkpt lat="45.92945" lon="5.73876">
        <ele>806.6</ele>
        <time>2026-05-13T11:09:26Z</time>
      </trkpt>
      <trkpt lat="45.92947" lon="5.73877">
        <ele>806.6</ele>
        <time>2026-05-13T11:09:27Z</time>
      </trkpt>
      <trkpt lat="45.92949" lon="5.73878">
        <ele>807</ele>
        <time>2026-05-13T11:09:28Z</time>
      </trkpt>
      <trkpt lat="45.92951" lon="5.73879">
        <ele>807.2</ele>
        <time>2026-05-13T11:09:29Z</time>
      </trkpt>
      <trkpt lat="45.92953" lon="5.73879">
        <ele>807.2</ele>
        <time>2026-05-13T11:09:30Z</time>
      </trkpt>
      <trkpt lat="45.92954" lon="5.7388">
        <ele>807.2</ele>
        <time>2026-05-13T11:09:31Z</time>
      </trkpt>
      <trkpt lat="45.92954" lon="5.73881">
        <ele>807.4</ele>
        <time>2026-05-13T11:09:32Z</time>
      </trkpt>
      <trkpt lat="45.92954" lon="5.7388">
        <ele>807.4</ele>
        <time>2026-05-13T11:09:33Z</time>
      </trkpt>
      <trkpt lat="45.92955" lon="5.73881">
        <ele>807.8</ele>
        <time>2026-05-13T11:09:34Z</time>
      </trkpt>
      <trkpt lat="45.92956" lon="5.73882">
        <ele>807.8</ele>
        <time>2026-05-13T11:09:35Z</time>
      </trkpt>
      <trkpt lat="45.92958" lon="5.73884">
        <ele>808.2</ele>
        <time>2026-05-13T11:09:36Z</time>
      </trkpt>
      <trkpt lat="45.9296" lon="5.73886">
        <ele>808.2</ele>
        <time>2026-05-13T11:09:37Z</time>
      </trkpt>
      <trkpt lat="45.92962" lon="5.73887">
        <ele>808.4</ele>
        <time>2026-05-13T11:09:38Z</time>
      </trkpt>
      <trkpt lat="45.92963" lon="5.73888">
        <ele>808.4</ele>
        <time>2026-05-13T11:09:39Z</time>
      </trkpt>
      <trkpt lat="45.92965" lon="5.73889">
        <ele>808.4</ele>
        <time>2026-05-13T11:09:40Z</time>
      </trkpt>
      <trkpt lat="45.92966" lon="5.7389">
        <ele>808.8</ele>
        <time>2026-05-13T11:09:41Z</time>
      </trkpt>
      <trkpt lat="45.92967" lon="5.73891">
        <ele>808.8</ele>
        <time>2026-05-13T11:09:42Z</time>
      </trkpt>
      <trkpt lat="45.92967" lon="5.73894">
        <ele>808.8</ele>
        <time>2026-05-13T11:09:43Z</time>
      </trkpt>
      <trkpt lat="45.92967" lon="5.73898">
        <ele>809</ele>
        <time>2026-05-13T11:09:44Z</time>
      </trkpt>
      <trkpt lat="45.92967" lon="5.73899">
        <ele>809.2</ele>
        <time>2026-05-13T11:09:45Z</time>
      </trkpt>
      <trkpt lat="45.92968" lon="5.73899">
        <ele>809.2</ele>
        <time>2026-05-13T11:09:46Z</time>
      </trkpt>
      <trkpt lat="45.9297" lon="5.73899">
        <ele>809.6</ele>
        <time>2026-05-13T11:09:47Z</time>
      </trkpt>
      <trkpt lat="45.92971" lon="5.73898">
        <ele>810</ele>
        <time>2026-05-13T11:09:48Z</time>
      </trkpt>
      <trkpt lat="45.92973" lon="5.73898">
        <ele>810</ele>
        <time>2026-05-13T11:09:49Z</time>
      </trkpt>
      <trkpt lat="45.92975" lon="5.73898">
        <ele>810</ele>
        <time>2026-05-13T11:09:50Z</time>
      </trkpt>
      <trkpt lat="45.92977" lon="5.73898">
        <ele>810.2</ele>
        <time>2026-05-13T11:09:51Z</time>
      </trkpt>
      <trkpt lat="45.92979" lon="5.73898">
        <ele>810.2</ele>
        <time>2026-05-13T11:09:52Z</time>
      </trkpt>
      <trkpt lat="45.9298" lon="5.73898">
        <ele>810.2</ele>
        <time>2026-05-13T11:09:53Z</time>
      </trkpt>
      <trkpt lat="45.92981" lon="5.73898">
        <ele>810.6</ele>
        <time>2026-05-13T11:09:54Z</time>
      </trkpt>
      <trkpt lat="45.92981" lon="5.73898">
        <ele>810.6</ele>
        <time>2026-05-13T11:09:55Z</time>
      </trkpt>
      <trkpt lat="45.92982" lon="5.73899">
        <ele>810.6</ele>
        <time>2026-05-13T11:09:56Z</time>
      </trkpt>
      <trkpt lat="45.92983" lon="5.73899">
        <ele>811</ele>
        <time>2026-05-13T11:09:57Z</time>
      </trkpt>
      <trkpt lat="45.92984" lon="5.739">
        <ele>811</ele>
        <time>2026-05-13T11:09:58Z</time>
      </trkpt>
      <trkpt lat="45.92986" lon="5.739">
        <ele>811.2</ele>
        <time>2026-05-13T11:09:59Z</time>
      </trkpt>
      <trkpt lat="45.92988" lon="5.739">
        <ele>811.2</ele>
        <time>2026-05-13T11:10:00Z</time>
      </trkpt>
      <trkpt lat="45.92989" lon="5.739">
        <ele>811.2</ele>
        <time>2026-05-13T11:10:01Z</time>
      </trkpt>
      <trkpt lat="45.92991" lon="5.73899">
        <ele>811.4</ele>
        <time>2026-05-13T11:10:02Z</time>
      </trkpt>
      <trkpt lat="45.92992" lon="5.73899">
        <ele>811.4</ele>
        <time>2026-05-13T11:10:03Z</time>
      </trkpt>
      <trkpt lat="45.92995" lon="5.73899">
        <ele>811.4</ele>
        <time>2026-05-13T11:10:04Z</time>
      </trkpt>
      <trkpt lat="45.92998" lon="5.739">
        <ele>811.6</ele>
        <time>2026-05-13T11:10:05Z</time>
      </trkpt>
      <trkpt lat="45.93" lon="5.739">
        <ele>811.6</ele>
        <time>2026-05-13T11:10:06Z</time>
      </trkpt>
      <trkpt lat="45.93001" lon="5.739">
        <ele>812</ele>
        <time>2026-05-13T11:10:07Z</time>
      </trkpt>
      <trkpt lat="45.93001" lon="5.739">
        <ele>812</ele>
        <time>2026-05-13T11:10:08Z</time>
      </trkpt>
      <trkpt lat="45.93001" lon="5.73899">
        <ele>812</ele>
        <time>2026-05-13T11:10:09Z</time>
      </trkpt>
      <trkpt lat="45.93002" lon="5.73899">
        <ele>812.2</ele>
        <time>2026-05-13T11:10:10Z</time>
      </trkpt>
      <trkpt lat="45.93005" lon="5.73899">
        <ele>812.2</ele>
        <time>2026-05-13T11:10:11Z</time>
      </trkpt>
      <trkpt lat="45.93008" lon="5.73899">
        <ele>812.2</ele>
        <time>2026-05-13T11:10:12Z</time>
      </trkpt>
      <trkpt lat="45.9301" lon="5.73899">
        <ele>812.2</ele>
        <time>2026-05-13T11:10:13Z</time>
      </trkpt>
      <trkpt lat="45.93012" lon="5.739">
        <ele>812.2</ele>
        <time>2026-05-13T11:10:14Z</time>
      </trkpt>
      <trkpt lat="45.93013" lon="5.73899">
        <ele>812.4</ele>
        <time>2026-05-13T11:10:15Z</time>
      </trkpt>
      <trkpt lat="45.93015" lon="5.739">
        <ele>812.6</ele>
        <time>2026-05-13T11:10:16Z</time>
      </trkpt>
      <trkpt lat="45.93017" lon="5.739">
        <ele>812.6</ele>
        <time>2026-05-13T11:10:17Z</time>
      </trkpt>
      <trkpt lat="45.93017" lon="5.739">
        <ele>812.6</ele>
        <time>2026-05-13T11:10:18Z</time>
      </trkpt>
      <trkpt lat="45.93019" lon="5.739">
        <ele>812.8</ele>
        <time>2026-05-13T11:10:19Z</time>
      </trkpt>
      <trkpt lat="45.9302" lon="5.739">
        <ele>812.8</ele>
        <time>2026-05-13T11:10:20Z</time>
      </trkpt>
      <trkpt lat="45.93022" lon="5.73901">
        <ele>813</ele>
        <time>2026-05-13T11:10:21Z</time>
      </trkpt>
      <trkpt lat="45.93023" lon="5.73901">
        <ele>813</ele>
        <time>2026-05-13T11:10:22Z</time>
      </trkpt>
      <trkpt lat="45.93025" lon="5.73901">
        <ele>813</ele>
        <time>2026-05-13T11:10:23Z</time>
      </trkpt>
      <trkpt lat="45.93024" lon="5.73901">
        <ele>813</ele>
        <time>2026-05-13T11:10:24Z</time>
      </trkpt>
      <trkpt lat="45.93023" lon="5.73901">
        <ele>813.4</ele>
        <time>2026-05-13T11:10:25Z</time>
      </trkpt>
      <trkpt lat="45.93023" lon="5.73901">
        <ele>813.4</ele>
        <time>2026-05-13T11:10:26Z</time>
      </trkpt>
      <trkpt lat="45.93026" lon="5.73901">
        <ele>813.4</ele>
        <time>2026-05-13T11:10:27Z</time>
      </trkpt>
      <trkpt lat="45.93028" lon="5.73901">
        <ele>813.6</ele>
        <time>2026-05-13T11:10:28Z</time>
      </trkpt>
      <trkpt lat="45.9303" lon="5.73901">
        <ele>814</ele>
        <time>2026-05-13T11:10:29Z</time>
      </trkpt>
      <trkpt lat="45.9303" lon="5.73901">
        <ele>814</ele>
        <time>2026-05-13T11:10:30Z</time>
      </trkpt>
      <trkpt lat="45.9303" lon="5.73901">
        <ele>814</ele>
        <time>2026-05-13T11:10:31Z</time>
      </trkpt>
      <trkpt lat="45.93038" lon="5.73902">
        <ele>814</ele>
        <time>2026-05-13T11:10:33Z</time>
      </trkpt>
      <trkpt lat="45.9304" lon="5.73902">
        <ele>814</ele>
        <time>2026-05-13T11:10:34Z</time>
      </trkpt>
      <trkpt lat="45.93043" lon="5.73902">
        <ele>814</ele>
        <time>2026-05-13T11:10:35Z</time>
      </trkpt>
      <trkpt lat="45.93044" lon="5.73902">
        <ele>814</ele>
        <time>2026-05-13T11:10:36Z</time>
      </trkpt>
      <trkpt lat="45.93047" lon="5.73902">
        <ele>814</ele>
        <time>2026-05-13T11:10:37Z</time>
      </trkpt>
      <trkpt lat="45.93051" lon="5.73902">
        <ele>814</ele>
        <time>2026-05-13T11:10:38Z</time>
      </trkpt>
      <trkpt lat="45.93053" lon="5.73902">
        <ele>814</ele>
        <time>2026-05-13T11:10:39Z</time>
      </trkpt>
      <trkpt lat="45.93056" lon="5.73901">
        <ele>814</ele>
        <time>2026-05-13T11:10:40Z</time>
      </trkpt>
      <trkpt lat="45.93058" lon="5.73901">
        <ele>814</ele>
        <time>2026-05-13T11:10:41Z</time>
      </trkpt>
      <trkpt lat="45.93061" lon="5.73901">
        <ele>814.2</ele>
        <time>2026-05-13T11:10:42Z</time>
      </trkpt>
      <trkpt lat="45.93063" lon="5.73901">
        <ele>814.2</ele>
        <time>2026-05-13T11:10:43Z</time>
      </trkpt>
      <trkpt lat="45.93065" lon="5.73901">
        <ele>814.4</ele>
        <time>2026-05-13T11:10:44Z</time>
      </trkpt>
      <trkpt lat="45.93067" lon="5.73901">
        <ele>814.4</ele>
        <time>2026-05-13T11:10:45Z</time>
      </trkpt>
      <trkpt lat="45.93068" lon="5.73901">
        <ele>814.4</ele>
        <time>2026-05-13T11:10:46Z</time>
      </trkpt>
      <trkpt lat="45.93069" lon="5.73901">
        <ele>814.4</ele>
        <time>2026-05-13T11:10:47Z</time>
      </trkpt>
      <trkpt lat="45.93071" lon="5.739">
        <ele>814.6</ele>
        <time>2026-05-13T11:10:48Z</time>
      </trkpt>
      <trkpt lat="45.93073" lon="5.739">
        <ele>814.6</ele>
        <time>2026-05-13T11:10:49Z</time>
      </trkpt>
      <trkpt lat="45.93075" lon="5.73899">
        <ele>814.6</ele>
        <time>2026-05-13T11:10:50Z</time>
      </trkpt>
      <trkpt lat="45.93075" lon="5.73898">
        <ele>814.6</ele>
        <time>2026-05-13T11:10:51Z</time>
      </trkpt>
      <trkpt lat="45.93074" lon="5.73898">
        <ele>814.6</ele>
        <time>2026-05-13T11:10:52Z</time>
      </trkpt>
      <trkpt lat="45.93075" lon="5.73897">
        <ele>815</ele>
        <time>2026-05-13T11:10:53Z</time>
      </trkpt>
      <trkpt lat="45.93077" lon="5.73896">
        <ele>815</ele>
        <time>2026-05-13T11:10:54Z</time>
      </trkpt>
      <trkpt lat="45.93078" lon="5.73896">
        <ele>815.2</ele>
        <time>2026-05-13T11:10:55Z</time>
      </trkpt>
      <trkpt lat="45.93081" lon="5.73896">
        <ele>815.2</ele>
        <time>2026-05-13T11:10:56Z</time>
      </trkpt>
      <trkpt lat="45.93084" lon="5.73896">
        <ele>815.2</ele>
        <time>2026-05-13T11:10:57Z</time>
      </trkpt>
      <trkpt lat="45.93086" lon="5.73897">
        <ele>815.2</ele>
        <time>2026-05-13T11:10:58Z</time>
      </trkpt>
      <trkpt lat="45.93087" lon="5.73897">
        <ele>815.6</ele>
        <time>2026-05-13T11:10:59Z</time>
      </trkpt>
      <trkpt lat="45.93089" lon="5.73897">
        <ele>815.8</ele>
        <time>2026-05-13T11:11:00Z</time>
      </trkpt>
      <trkpt lat="45.93089" lon="5.73897">
        <ele>815.8</ele>
        <time>2026-05-13T11:11:01Z</time>
      </trkpt>
      <trkpt lat="45.93089" lon="5.73897">
        <ele>816</ele>
        <time>2026-05-13T11:11:02Z</time>
      </trkpt>
      <trkpt lat="45.93092" lon="5.73899">
        <ele>816</ele>
        <time>2026-05-13T11:11:03Z</time>
      </trkpt>
      <trkpt lat="45.93093" lon="5.73901">
        <ele>816.4</ele>
        <time>2026-05-13T11:11:04Z</time>
      </trkpt>
      <trkpt lat="45.93095" lon="5.73903">
        <ele>816.4</ele>
        <time>2026-05-13T11:11:05Z</time>
      </trkpt>
      <trkpt lat="45.93097" lon="5.73904">
        <ele>816.6</ele>
        <time>2026-05-13T11:11:06Z</time>
      </trkpt>
      <trkpt lat="45.93098" lon="5.73906">
        <ele>816.6</ele>
        <time>2026-05-13T11:11:07Z</time>
      </trkpt>
      <trkpt lat="45.93099" lon="5.73909">
        <ele>816.8</ele>
        <time>2026-05-13T11:11:08Z</time>
      </trkpt>
      <trkpt lat="45.93099" lon="5.73911">
        <ele>816.8</ele>
        <time>2026-05-13T11:11:09Z</time>
      </trkpt>
      <trkpt lat="45.931" lon="5.73914">
        <ele>817.2</ele>
        <time>2026-05-13T11:11:10Z</time>
      </trkpt>
      <trkpt lat="45.93102" lon="5.73917">
        <ele>817.6</ele>
        <time>2026-05-13T11:11:11Z</time>
      </trkpt>
      <trkpt lat="45.93103" lon="5.73919">
        <ele>817.6</ele>
        <time>2026-05-13T11:11:12Z</time>
      </trkpt>
      <trkpt lat="45.93104" lon="5.73921">
        <ele>818</ele>
        <time>2026-05-13T11:11:13Z</time>
      </trkpt>
      <trkpt lat="45.93105" lon="5.73923">
        <ele>818</ele>
        <time>2026-05-13T11:11:14Z</time>
      </trkpt>
      <trkpt lat="45.93106" lon="5.73925">
        <ele>818.4</ele>
        <time>2026-05-13T11:11:15Z</time>
      </trkpt>
      <trkpt lat="45.93106" lon="5.73927">
        <ele>818.4</ele>
        <time>2026-05-13T11:11:16Z</time>
      </trkpt>
      <trkpt lat="45.93106" lon="5.73929">
        <ele>818.6</ele>
        <time>2026-05-13T11:11:17Z</time>
      </trkpt>
      <trkpt lat="45.93105" lon="5.73931">
        <ele>818.6</ele>
        <time>2026-05-13T11:11:18Z</time>
      </trkpt>
      <trkpt lat="45.93105" lon="5.73932">
        <ele>818.8</ele>
        <time>2026-05-13T11:11:19Z</time>
      </trkpt>
      <trkpt lat="45.93103" lon="5.73934">
        <ele>818.8</ele>
        <time>2026-05-13T11:11:20Z</time>
      </trkpt>
      <trkpt lat="45.931" lon="5.73936">
        <ele>819.2</ele>
        <time>2026-05-13T11:11:21Z</time>
      </trkpt>
      <trkpt lat="45.93096" lon="5.73937">
        <ele>819.2</ele>
        <time>2026-05-13T11:11:22Z</time>
      </trkpt>
      <trkpt lat="45.93094" lon="5.73938">
        <ele>819.2</ele>
        <time>2026-05-13T11:11:23Z</time>
      </trkpt>
      <trkpt lat="45.9309" lon="5.73938">
        <ele>819.2</ele>
        <time>2026-05-13T11:11:24Z</time>
      </trkpt>
      <trkpt lat="45.93088" lon="5.73938">
        <ele>819.2</ele>
        <time>2026-05-13T11:11:25Z</time>
      </trkpt>
      <trkpt lat="45.93086" lon="5.73938">
        <ele>819.6</ele>
        <time>2026-05-13T11:11:26Z</time>
      </trkpt>
      <trkpt lat="45.93085" lon="5.73938">
        <ele>820</ele>
        <time>2026-05-13T11:11:27Z</time>
      </trkpt>
      <trkpt lat="45.93084" lon="5.73939">
        <ele>820.2</ele>
        <time>2026-05-13T11:11:28Z</time>
      </trkpt>
      <trkpt lat="45.93082" lon="5.7394">
        <ele>820.4</ele>
        <time>2026-05-13T11:11:29Z</time>
      </trkpt>
      <trkpt lat="45.93083" lon="5.7394">
        <ele>820.4</ele>
        <time>2026-05-13T11:11:30Z</time>
      </trkpt>
      <trkpt lat="45.93082" lon="5.73941">
        <ele>820.8</ele>
        <time>2026-05-13T11:11:31Z</time>
      </trkpt>
      <trkpt lat="45.93081" lon="5.73942">
        <ele>821</ele>
        <time>2026-05-13T11:11:32Z</time>
      </trkpt>
      <trkpt lat="45.9308" lon="5.73942">
        <ele>821.2</ele>
        <time>2026-05-13T11:11:33Z</time>
      </trkpt>
      <trkpt lat="45.93079" lon="5.73942">
        <ele>821.2</ele>
        <time>2026-05-13T11:11:34Z</time>
      </trkpt>
      <trkpt lat="45.93078" lon="5.73943">
        <ele>821.2</ele>
        <time>2026-05-13T11:11:35Z</time>
      </trkpt>
      <trkpt lat="45.93076" lon="5.73942">
        <ele>821.6</ele>
        <time>2026-05-13T11:11:36Z</time>
      </trkpt>
      <trkpt lat="45.93075" lon="5.73942">
        <ele>821.8</ele>
        <time>2026-05-13T11:11:37Z</time>
      </trkpt>
      <trkpt lat="45.93073" lon="5.73941">
        <ele>821.8</ele>
        <time>2026-05-13T11:11:38Z</time>
      </trkpt>
      <trkpt lat="45.93071" lon="5.73941">
        <ele>821.8</ele>
        <time>2026-05-13T11:11:39Z</time>
      </trkpt>
      <trkpt lat="45.93069" lon="5.73942">
        <ele>822.4</ele>
        <time>2026-05-13T11:11:40Z</time>
      </trkpt>
      <trkpt lat="45.93067" lon="5.73943">
        <ele>822.6</ele>
        <time>2026-05-13T11:11:41Z</time>
      </trkpt>
      <trkpt lat="45.93066" lon="5.73943">
        <ele>822.6</ele>
        <time>2026-05-13T11:11:42Z</time>
      </trkpt>
      <trkpt lat="45.93064" lon="5.73943">
        <ele>822.6</ele>
        <time>2026-05-13T11:11:43Z</time>
      </trkpt>
      <trkpt lat="45.93061" lon="5.73943">
        <ele>823</ele>
        <time>2026-05-13T11:11:44Z</time>
      </trkpt>
      <trkpt lat="45.93059" lon="5.73943">
        <ele>823</ele>
        <time>2026-05-13T11:11:45Z</time>
      </trkpt>
      <trkpt lat="45.93057" lon="5.73944">
        <ele>823</ele>
        <time>2026-05-13T11:11:46Z</time>
      </trkpt>
      <trkpt lat="45.93056" lon="5.73944">
        <ele>823.6</ele>
        <time>2026-05-13T11:11:47Z</time>
      </trkpt>
      <trkpt lat="45.93055" lon="5.73944">
        <ele>823.8</ele>
        <time>2026-05-13T11:11:48Z</time>
      </trkpt>
      <trkpt lat="45.93054" lon="5.73945">
        <ele>824.2</ele>
        <time>2026-05-13T11:11:49Z</time>
      </trkpt>
      <trkpt lat="45.93054" lon="5.73946">
        <ele>824.4</ele>
        <time>2026-05-13T11:11:50Z</time>
      </trkpt>
      <trkpt lat="45.93053" lon="5.73947">
        <ele>824.6</ele>
        <time>2026-05-13T11:11:51Z</time>
      </trkpt>
      <trkpt lat="45.93052" lon="5.73947">
        <ele>824.8</ele>
        <time>2026-05-13T11:11:52Z</time>
      </trkpt>
      <trkpt lat="45.9305" lon="5.73948">
        <ele>825</ele>
        <time>2026-05-13T11:11:53Z</time>
      </trkpt>
      <trkpt lat="45.93048" lon="5.73947">
        <ele>825</ele>
        <time>2026-05-13T11:11:54Z</time>
      </trkpt>
      <trkpt lat="45.93046" lon="5.73947">
        <ele>825.4</ele>
        <time>2026-05-13T11:11:55Z</time>
      </trkpt>
      <trkpt lat="45.93044" lon="5.73947">
        <ele>825.4</ele>
        <time>2026-05-13T11:11:56Z</time>
      </trkpt>
      <trkpt lat="45.93042" lon="5.73947">
        <ele>825.6</ele>
        <time>2026-05-13T11:11:57Z</time>
      </trkpt>
      <trkpt lat="45.9304" lon="5.73946">
        <ele>825.6</ele>
        <time>2026-05-13T11:11:58Z</time>
      </trkpt>
      <trkpt lat="45.93038" lon="5.73946">
        <ele>826</ele>
        <time>2026-05-13T11:11:59Z</time>
      </trkpt>
      <trkpt lat="45.93036" lon="5.73946">
        <ele>826</ele>
        <time>2026-05-13T11:12:00Z</time>
      </trkpt>
      <trkpt lat="45.93033" lon="5.73946">
        <ele>826.4</ele>
        <time>2026-05-13T11:12:01Z</time>
      </trkpt>
      <trkpt lat="45.93031" lon="5.73946">
        <ele>826.4</ele>
        <time>2026-05-13T11:12:02Z</time>
      </trkpt>
      <trkpt lat="45.9303" lon="5.73946">
        <ele>826.8</ele>
        <time>2026-05-13T11:12:03Z</time>
      </trkpt>
      <trkpt lat="45.93029" lon="5.73946">
        <ele>826.8</ele>
        <time>2026-05-13T11:12:04Z</time>
      </trkpt>
      <trkpt lat="45.93028" lon="5.73946">
        <ele>827</ele>
        <time>2026-05-13T11:12:05Z</time>
      </trkpt>
      <trkpt lat="45.93027" lon="5.73946">
        <ele>827</ele>
        <time>2026-05-13T11:12:06Z</time>
      </trkpt>
      <trkpt lat="45.93025" lon="5.73946">
        <ele>827.6</ele>
        <time>2026-05-13T11:12:07Z</time>
      </trkpt>
      <trkpt lat="45.93025" lon="5.73946">
        <ele>827.6</ele>
        <time>2026-05-13T11:12:08Z</time>
      </trkpt>
      <trkpt lat="45.93024" lon="5.73945">
        <ele>827.6</ele>
        <time>2026-05-13T11:12:09Z</time>
      </trkpt>
      <trkpt lat="45.93022" lon="5.73945">
        <ele>827.8</ele>
        <time>2026-05-13T11:12:10Z</time>
      </trkpt>
      <trkpt lat="45.93021" lon="5.73945">
        <ele>827.8</ele>
        <time>2026-05-13T11:12:11Z</time>
      </trkpt>
      <trkpt lat="45.9302" lon="5.73946">
        <ele>828.2</ele>
        <time>2026-05-13T11:12:12Z</time>
      </trkpt>
      <trkpt lat="45.93018" lon="5.73946">
        <ele>828.4</ele>
        <time>2026-05-13T11:12:13Z</time>
      </trkpt>
      <trkpt lat="45.93017" lon="5.73946">
        <ele>828.4</ele>
        <time>2026-05-13T11:12:14Z</time>
      </trkpt>
      <trkpt lat="45.93019" lon="5.73947">
        <ele>828.8</ele>
        <time>2026-05-13T11:12:15Z</time>
      </trkpt>
      <trkpt lat="45.93018" lon="5.73947">
        <ele>828.8</ele>
        <time>2026-05-13T11:12:16Z</time>
      </trkpt>
      <trkpt lat="45.93016" lon="5.73947">
        <ele>829</ele>
        <time>2026-05-13T11:12:17Z</time>
      </trkpt>
      <trkpt lat="45.93016" lon="5.73948">
        <ele>829</ele>
        <time>2026-05-13T11:12:18Z</time>
      </trkpt>
      <trkpt lat="45.93015" lon="5.73948">
        <ele>829.4</ele>
        <time>2026-05-13T11:12:19Z</time>
      </trkpt>
      <trkpt lat="45.93014" lon="5.73948">
        <ele>829.4</ele>
        <time>2026-05-13T11:12:20Z</time>
      </trkpt>
      <trkpt lat="45.93012" lon="5.73948">
        <ele>829.6</ele>
        <time>2026-05-13T11:12:21Z</time>
      </trkpt>
      <trkpt lat="45.9301" lon="5.73948">
        <ele>829.6</ele>
        <time>2026-05-13T11:12:22Z</time>
      </trkpt>
      <trkpt lat="45.93008" lon="5.73948">
        <ele>829.6</ele>
        <time>2026-05-13T11:12:23Z</time>
      </trkpt>
      <trkpt lat="45.93006" lon="5.73948">
        <ele>830</ele>
        <time>2026-05-13T11:12:24Z</time>
      </trkpt>
      <trkpt lat="45.93005" lon="5.73948">
        <ele>830</ele>
        <time>2026-05-13T11:12:25Z</time>
      </trkpt>
      <trkpt lat="45.93004" lon="5.73949">
        <ele>830</ele>
        <time>2026-05-13T11:12:26Z</time>
      </trkpt>
      <trkpt lat="45.93004" lon="5.73949">
        <ele>830.4</ele>
        <time>2026-05-13T11:12:27Z</time>
      </trkpt>
      <trkpt lat="45.93002" lon="5.7395">
        <ele>830.4</ele>
        <time>2026-05-13T11:12:28Z</time>
      </trkpt>
      <trkpt lat="45.93001" lon="5.7395">
        <ele>830.8</ele>
        <time>2026-05-13T11:12:29Z</time>
      </trkpt>
      <trkpt lat="45.92999" lon="5.73951">
        <ele>831</ele>
        <time>2026-05-13T11:12:30Z</time>
      </trkpt>
      <trkpt lat="45.92997" lon="5.73951">
        <ele>831</ele>
        <time>2026-05-13T11:12:31Z</time>
      </trkpt>
      <trkpt lat="45.92996" lon="5.73952">
        <ele>831.4</ele>
        <time>2026-05-13T11:12:32Z</time>
      </trkpt>
      <trkpt lat="45.92994" lon="5.73952">
        <ele>831.4</ele>
        <time>2026-05-13T11:12:33Z</time>
      </trkpt>
      <trkpt lat="45.92994" lon="5.73953">
        <ele>831.6</ele>
        <time>2026-05-13T11:12:34Z</time>
      </trkpt>
      <trkpt lat="45.92993" lon="5.73953">
        <ele>831.6</ele>
        <time>2026-05-13T11:12:35Z</time>
      </trkpt>
      <trkpt lat="45.92992" lon="5.73954">
        <ele>832</ele>
        <time>2026-05-13T11:12:36Z</time>
      </trkpt>
      <trkpt lat="45.92991" lon="5.73954">
        <ele>832</ele>
        <time>2026-05-13T11:12:37Z</time>
      </trkpt>
      <trkpt lat="45.92991" lon="5.73954">
        <ele>832.2</ele>
        <time>2026-05-13T11:12:38Z</time>
      </trkpt>
      <trkpt lat="45.9299" lon="5.73954">
        <ele>832.2</ele>
        <time>2026-05-13T11:12:39Z</time>
      </trkpt>
      <trkpt lat="45.92991" lon="5.73953">
        <ele>832.2</ele>
        <time>2026-05-13T11:12:40Z</time>
      </trkpt>
      <trkpt lat="45.9299" lon="5.73954">
        <ele>832.8</ele>
        <time>2026-05-13T11:12:41Z</time>
      </trkpt>
      <trkpt lat="45.92989" lon="5.73954">
        <ele>833</ele>
        <time>2026-05-13T11:12:42Z</time>
      </trkpt>
      <trkpt lat="45.92988" lon="5.73954">
        <ele>833.2</ele>
        <time>2026-05-13T11:12:43Z</time>
      </trkpt>
      <trkpt lat="45.92987" lon="5.73954">
        <ele>833.4</ele>
        <time>2026-05-13T11:12:44Z</time>
      </trkpt>
      <trkpt lat="45.92986" lon="5.73954">
        <ele>833.4</ele>
        <time>2026-05-13T11:12:45Z</time>
      </trkpt>
      <trkpt lat="45.92984" lon="5.73955">
        <ele>833.8</ele>
        <time>2026-05-13T11:12:46Z</time>
      </trkpt>
      <trkpt lat="45.92982" lon="5.73956">
        <ele>833.8</ele>
        <time>2026-05-13T11:12:47Z</time>
      </trkpt>
      <trkpt lat="45.9298" lon="5.73956">
        <ele>833.8</ele>
        <time>2026-05-13T11:12:48Z</time>
      </trkpt>
      <trkpt lat="45.92979" lon="5.73956">
        <ele>834.2</ele>
        <time>2026-05-13T11:12:49Z</time>
      </trkpt>
      <trkpt lat="45.92977" lon="5.73957">
        <ele>834.2</ele>
        <time>2026-05-13T11:12:50Z</time>
      </trkpt>
      <trkpt lat="45.92975" lon="5.73958">
        <ele>834.6</ele>
        <time>2026-05-13T11:12:51Z</time>
      </trkpt>
      <trkpt lat="45.92974" lon="5.73958">
        <ele>834.6</ele>
        <time>2026-05-13T11:12:52Z</time>
      </trkpt>
      <trkpt lat="45.92972" lon="5.73959">
        <ele>834.8</ele>
        <time>2026-05-13T11:12:53Z</time>
      </trkpt>
      <trkpt lat="45.9297" lon="5.73959">
        <ele>835</ele>
        <time>2026-05-13T11:12:54Z</time>
      </trkpt>
      <trkpt lat="45.92968" lon="5.73959">
        <ele>835</ele>
        <time>2026-05-13T11:12:55Z</time>
      </trkpt>
      <trkpt lat="45.92968" lon="5.7396">
        <ele>835.4</ele>
        <time>2026-05-13T11:12:56Z</time>
      </trkpt>
      <trkpt lat="45.92967" lon="5.7396">
        <ele>835.4</ele>
        <time>2026-05-13T11:12:57Z</time>
      </trkpt>
      <trkpt lat="45.92965" lon="5.7396">
        <ele>835.8</ele>
        <time>2026-05-13T11:12:58Z</time>
      </trkpt>
      <trkpt lat="45.92965" lon="5.7396">
        <ele>835.8</ele>
        <time>2026-05-13T11:12:59Z</time>
      </trkpt>
      <trkpt lat="45.92964" lon="5.73959">
        <ele>836</ele>
        <time>2026-05-13T11:13:00Z</time>
      </trkpt>
      <trkpt lat="45.92963" lon="5.73959">
        <ele>836</ele>
        <time>2026-05-13T11:13:01Z</time>
      </trkpt>
      <trkpt lat="45.92963" lon="5.73959">
        <ele>836.4</ele>
        <time>2026-05-13T11:13:02Z</time>
      </trkpt>
      <trkpt lat="45.92962" lon="5.7396">
        <ele>836.4</ele>
        <time>2026-05-13T11:13:03Z</time>
      </trkpt>
      <trkpt lat="45.9296" lon="5.7396">
        <ele>836.8</ele>
        <time>2026-05-13T11:13:04Z</time>
      </trkpt>
      <trkpt lat="45.92959" lon="5.73961">
        <ele>836.8</ele>
        <time>2026-05-13T11:13:05Z</time>
      </trkpt>
      <trkpt lat="45.92959" lon="5.73961">
        <ele>837</ele>
        <time>2026-05-13T11:13:06Z</time>
      </trkpt>
      <trkpt lat="45.92958" lon="5.73962">
        <ele>837</ele>
        <time>2026-05-13T11:13:07Z</time>
      </trkpt>
      <trkpt lat="45.92956" lon="5.73962">
        <ele>837.4</ele>
        <time>2026-05-13T11:13:08Z</time>
      </trkpt>
      <trkpt lat="45.92955" lon="5.73962">
        <ele>837.4</ele>
        <time>2026-05-13T11:13:09Z</time>
      </trkpt>
      <trkpt lat="45.92953" lon="5.73962">
        <ele>837.4</ele>
        <time>2026-05-13T11:13:10Z</time>
      </trkpt>
      <trkpt lat="45.92952" lon="5.73962">
        <ele>837.8</ele>
        <time>2026-05-13T11:13:11Z</time>
      </trkpt>
      <trkpt lat="45.92952" lon="5.73963">
        <ele>837.8</ele>
        <time>2026-05-13T11:13:12Z</time>
      </trkpt>
      <trkpt lat="45.9295" lon="5.73963">
        <ele>838</ele>
        <time>2026-05-13T11:13:13Z</time>
      </trkpt>
      <trkpt lat="45.92949" lon="5.73964">
        <ele>838.2</ele>
        <time>2026-05-13T11:13:14Z</time>
      </trkpt>
      <trkpt lat="45.92947" lon="5.73964">
        <ele>838.2</ele>
        <time>2026-05-13T11:13:15Z</time>
      </trkpt>
      <trkpt lat="45.92946" lon="5.73964">
        <ele>838.6</ele>
        <time>2026-05-13T11:13:16Z</time>
      </trkpt>
      <trkpt lat="45.92945" lon="5.73964">
        <ele>838.6</ele>
        <time>2026-05-13T11:13:17Z</time>
      </trkpt>
      <trkpt lat="45.92943" lon="5.73963">
        <ele>839</ele>
        <time>2026-05-13T11:13:18Z</time>
      </trkpt>
      <trkpt lat="45.92942" lon="5.73963">
        <ele>839</ele>
        <time>2026-05-13T11:13:19Z</time>
      </trkpt>
      <trkpt lat="45.9294" lon="5.73964">
        <ele>839.4</ele>
        <time>2026-05-13T11:13:20Z</time>
      </trkpt>
      <trkpt lat="45.92939" lon="5.73964">
        <ele>839.6</ele>
        <time>2026-05-13T11:13:21Z</time>
      </trkpt>
      <trkpt lat="45.92937" lon="5.73964">
        <ele>839.8</ele>
        <time>2026-05-13T11:13:22Z</time>
      </trkpt>
      <trkpt lat="45.92936" lon="5.73963">
        <ele>839.8</ele>
        <time>2026-05-13T11:13:23Z</time>
      </trkpt>
      <trkpt lat="45.92935" lon="5.73963">
        <ele>840.2</ele>
        <time>2026-05-13T11:13:24Z</time>
      </trkpt>
      <trkpt lat="45.92933" lon="5.73962">
        <ele>840.2</ele>
        <time>2026-05-13T11:13:25Z</time>
      </trkpt>
      <trkpt lat="45.92931" lon="5.73961">
        <ele>840.4</ele>
        <time>2026-05-13T11:13:26Z</time>
      </trkpt>
      <trkpt lat="45.92931" lon="5.73961">
        <ele>840.8</ele>
        <time>2026-05-13T11:13:27Z</time>
      </trkpt>
      <trkpt lat="45.92931" lon="5.7396">
        <ele>840.8</ele>
        <time>2026-05-13T11:13:28Z</time>
      </trkpt>
      <trkpt lat="45.92931" lon="5.73959">
        <ele>840.8</ele>
        <time>2026-05-13T11:13:29Z</time>
      </trkpt>
      <trkpt lat="45.9293" lon="5.73959">
        <ele>841</ele>
        <time>2026-05-13T11:13:30Z</time>
      </trkpt>
      <trkpt lat="45.92928" lon="5.73958">
        <ele>841.2</ele>
        <time>2026-05-13T11:13:31Z</time>
      </trkpt>
      <trkpt lat="45.92927" lon="5.73959">
        <ele>841.4</ele>
        <time>2026-05-13T11:13:32Z</time>
      </trkpt>
      <trkpt lat="45.92926" lon="5.73959">
        <ele>841.6</ele>
        <time>2026-05-13T11:13:33Z</time>
      </trkpt>
      <trkpt lat="45.92925" lon="5.7396">
        <ele>841.6</ele>
        <time>2026-05-13T11:13:34Z</time>
      </trkpt>
      <trkpt lat="45.92923" lon="5.73961">
        <ele>842</ele>
        <time>2026-05-13T11:13:35Z</time>
      </trkpt>
      <trkpt lat="45.92922" lon="5.73961">
        <ele>842.2</ele>
        <time>2026-05-13T11:13:36Z</time>
      </trkpt>
      <trkpt lat="45.92921" lon="5.73961">
        <ele>842.6</ele>
        <time>2026-05-13T11:13:37Z</time>
      </trkpt>
      <trkpt lat="45.92919" lon="5.73961">
        <ele>842.6</ele>
        <time>2026-05-13T11:13:38Z</time>
      </trkpt>
      <trkpt lat="45.92918" lon="5.73961">
        <ele>842.8</ele>
        <time>2026-05-13T11:13:39Z</time>
      </trkpt>
      <trkpt lat="45.92916" lon="5.73962">
        <ele>843</ele>
        <time>2026-05-13T11:13:40Z</time>
      </trkpt>
      <trkpt lat="45.92915" lon="5.73963">
        <ele>843</ele>
        <time>2026-05-13T11:13:41Z</time>
      </trkpt>
      <trkpt lat="45.92914" lon="5.73963">
        <ele>843.4</ele>
        <time>2026-05-13T11:13:42Z</time>
      </trkpt>
      <trkpt lat="45.92912" lon="5.73963">
        <ele>843.4</ele>
        <time>2026-05-13T11:13:43Z</time>
      </trkpt>
      <trkpt lat="45.9291" lon="5.73962">
        <ele>843.6</ele>
        <time>2026-05-13T11:13:44Z</time>
      </trkpt>
      <trkpt lat="45.92909" lon="5.73961">
        <ele>843.6</ele>
        <time>2026-05-13T11:13:45Z</time>
      </trkpt>
      <trkpt lat="45.92907" lon="5.73961">
        <ele>843.8</ele>
        <time>2026-05-13T11:13:46Z</time>
      </trkpt>
      <trkpt lat="45.92906" lon="5.73962">
        <ele>844</ele>
        <time>2026-05-13T11:13:47Z</time>
      </trkpt>
      <trkpt lat="45.92905" lon="5.73963">
        <ele>844.2</ele>
        <time>2026-05-13T11:13:48Z</time>
      </trkpt>
      <trkpt lat="45.92904" lon="5.73964">
        <ele>844.2</ele>
        <time>2026-05-13T11:13:49Z</time>
      </trkpt>
      <trkpt lat="45.92903" lon="5.73965">
        <ele>844.2</ele>
        <time>2026-05-13T11:13:50Z</time>
      </trkpt>
      <trkpt lat="45.92902" lon="5.73966">
        <ele>844.6</ele>
        <time>2026-05-13T11:13:51Z</time>
      </trkpt>
      <trkpt lat="45.929" lon="5.73966">
        <ele>844.8</ele>
        <time>2026-05-13T11:13:52Z</time>
      </trkpt>
      <trkpt lat="45.92899" lon="5.73966">
        <ele>844.8</ele>
        <time>2026-05-13T11:13:53Z</time>
      </trkpt>
      <trkpt lat="45.92898" lon="5.73967">
        <ele>845</ele>
        <time>2026-05-13T11:13:54Z</time>
      </trkpt>
      <trkpt lat="45.92897" lon="5.73967">
        <ele>845.2</ele>
        <time>2026-05-13T11:13:55Z</time>
      </trkpt>
      <trkpt lat="45.92896" lon="5.73967">
        <ele>845.2</ele>
        <time>2026-05-13T11:13:56Z</time>
      </trkpt>
      <trkpt lat="45.92894" lon="5.73966">
        <ele>845.6</ele>
        <time>2026-05-13T11:13:57Z</time>
      </trkpt>
      <trkpt lat="45.92893" lon="5.73966">
        <ele>845.6</ele>
        <time>2026-05-13T11:13:58Z</time>
      </trkpt>
      <trkpt lat="45.92891" lon="5.73965">
        <ele>845.8</ele>
        <time>2026-05-13T11:13:59Z</time>
      </trkpt>
      <trkpt lat="45.9289" lon="5.73965">
        <ele>845.8</ele>
        <time>2026-05-13T11:14:00Z</time>
      </trkpt>
      <trkpt lat="45.92889" lon="5.73964">
        <ele>845.8</ele>
        <time>2026-05-13T11:14:01Z</time>
      </trkpt>
      <trkpt lat="45.92888" lon="5.73964">
        <ele>846.2</ele>
        <time>2026-05-13T11:14:02Z</time>
      </trkpt>
      <trkpt lat="45.92886" lon="5.73964">
        <ele>846.2</ele>
        <time>2026-05-13T11:14:03Z</time>
      </trkpt>
      <trkpt lat="45.92885" lon="5.73964">
        <ele>846.6</ele>
        <time>2026-05-13T11:14:04Z</time>
      </trkpt>
      <trkpt lat="45.92884" lon="5.73965">
        <ele>846.6</ele>
        <time>2026-05-13T11:14:05Z</time>
      </trkpt>
      <trkpt lat="45.92883" lon="5.73965">
        <ele>847.2</ele>
        <time>2026-05-13T11:14:06Z</time>
      </trkpt>
      <trkpt lat="45.92882" lon="5.73964">
        <ele>847.2</ele>
        <time>2026-05-13T11:14:07Z</time>
      </trkpt>
      <trkpt lat="45.92881" lon="5.73965">
        <ele>847.4</ele>
        <time>2026-05-13T11:14:08Z</time>
      </trkpt>
      <trkpt lat="45.92879" lon="5.73965">
        <ele>847.8</ele>
        <time>2026-05-13T11:14:09Z</time>
      </trkpt>
      <trkpt lat="45.92878" lon="5.73966">
        <ele>847.8</ele>
        <time>2026-05-13T11:14:10Z</time>
      </trkpt>
      <trkpt lat="45.92877" lon="5.73966">
        <ele>848</ele>
        <time>2026-05-13T11:14:11Z</time>
      </trkpt>
      <trkpt lat="45.92876" lon="5.73966">
        <ele>848</ele>
        <time>2026-05-13T11:14:12Z</time>
      </trkpt>
      <trkpt lat="45.92874" lon="5.73966">
        <ele>848.4</ele>
        <time>2026-05-13T11:14:13Z</time>
      </trkpt>
      <trkpt lat="45.92873" lon="5.73966">
        <ele>848.4</ele>
        <time>2026-05-13T11:14:14Z</time>
      </trkpt>
      <trkpt lat="45.92872" lon="5.73965">
        <ele>848.8</ele>
        <time>2026-05-13T11:14:15Z</time>
      </trkpt>
      <trkpt lat="45.9287" lon="5.73964">
        <ele>848.8</ele>
        <time>2026-05-13T11:14:16Z</time>
      </trkpt>
      <trkpt lat="45.92869" lon="5.73964">
        <ele>849</ele>
        <time>2026-05-13T11:14:17Z</time>
      </trkpt>
      <trkpt lat="45.92867" lon="5.73963">
        <ele>849</ele>
        <time>2026-05-13T11:14:18Z</time>
      </trkpt>
      <trkpt lat="45.92866" lon="5.73963">
        <ele>849.2</ele>
        <time>2026-05-13T11:14:19Z</time>
      </trkpt>
      <trkpt lat="45.92865" lon="5.73963">
        <ele>849.2</ele>
        <time>2026-05-13T11:14:20Z</time>
      </trkpt>
      <trkpt lat="45.92864" lon="5.73963">
        <ele>849.6</ele>
        <time>2026-05-13T11:14:21Z</time>
      </trkpt>
      <trkpt lat="45.92862" lon="5.73964">
        <ele>849.6</ele>
        <time>2026-05-13T11:14:22Z</time>
      </trkpt>
      <trkpt lat="45.92861" lon="5.73964">
        <ele>849.6</ele>
        <time>2026-05-13T11:14:23Z</time>
      </trkpt>
      <trkpt lat="45.9286" lon="5.73964">
        <ele>849.8</ele>
        <time>2026-05-13T11:14:24Z</time>
      </trkpt>
      <trkpt lat="45.92858" lon="5.73964">
        <ele>849.8</ele>
        <time>2026-05-13T11:14:25Z</time>
      </trkpt>
      <trkpt lat="45.92857" lon="5.73963">
        <ele>850.2</ele>
        <time>2026-05-13T11:14:26Z</time>
      </trkpt>
      <trkpt lat="45.92855" lon="5.73963">
        <ele>850.2</ele>
        <time>2026-05-13T11:14:27Z</time>
      </trkpt>
      <trkpt lat="45.92854" lon="5.73963">
        <ele>850.6</ele>
        <time>2026-05-13T11:14:28Z</time>
      </trkpt>
      <trkpt lat="45.92853" lon="5.73963">
        <ele>850.6</ele>
        <time>2026-05-13T11:14:29Z</time>
      </trkpt>
      <trkpt lat="45.92852" lon="5.73963">
        <ele>851</ele>
        <time>2026-05-13T11:14:30Z</time>
      </trkpt>
      <trkpt lat="45.92851" lon="5.73964">
        <ele>851.2</ele>
        <time>2026-05-13T11:14:31Z</time>
      </trkpt>
      <trkpt lat="45.9285" lon="5.73964">
        <ele>851.2</ele>
        <time>2026-05-13T11:14:32Z</time>
      </trkpt>
      <trkpt lat="45.92849" lon="5.73964">
        <ele>851.2</ele>
        <time>2026-05-13T11:14:33Z</time>
      </trkpt>
      <trkpt lat="45.92848" lon="5.73965">
        <ele>851.6</ele>
        <time>2026-05-13T11:14:34Z</time>
      </trkpt>
      <trkpt lat="45.92846" lon="5.73966">
        <ele>851.8</ele>
        <time>2026-05-13T11:14:35Z</time>
      </trkpt>
      <trkpt lat="45.92845" lon="5.73966">
        <ele>851.8</ele>
        <time>2026-05-13T11:14:36Z</time>
      </trkpt>
      <trkpt lat="45.92844" lon="5.73967">
        <ele>852.2</ele>
        <time>2026-05-13T11:14:37Z</time>
      </trkpt>
      <trkpt lat="45.92842" lon="5.73967">
        <ele>852.4</ele>
        <time>2026-05-13T11:14:38Z</time>
      </trkpt>
      <trkpt lat="45.92841" lon="5.73967">
        <ele>852.6</ele>
        <time>2026-05-13T11:14:39Z</time>
      </trkpt>
      <trkpt lat="45.92839" lon="5.73967">
        <ele>852.6</ele>
        <time>2026-05-13T11:14:40Z</time>
      </trkpt>
      <trkpt lat="45.92837" lon="5.73967">
        <ele>852.8</ele>
        <time>2026-05-13T11:14:41Z</time>
      </trkpt>
      <trkpt lat="45.92836" lon="5.73966">
        <ele>852.8</ele>
        <time>2026-05-13T11:14:42Z</time>
      </trkpt>
      <trkpt lat="45.92834" lon="5.73966">
        <ele>853.2</ele>
        <time>2026-05-13T11:14:43Z</time>
      </trkpt>
      <trkpt lat="45.92832" lon="5.73965">
        <ele>853.2</ele>
        <time>2026-05-13T11:14:44Z</time>
      </trkpt>
      <trkpt lat="45.92831" lon="5.73965">
        <ele>853.6</ele>
        <time>2026-05-13T11:14:45Z</time>
      </trkpt>
      <trkpt lat="45.9283" lon="5.73965">
        <ele>853.6</ele>
        <time>2026-05-13T11:14:46Z</time>
      </trkpt>
      <trkpt lat="45.92828" lon="5.73965">
        <ele>853.8</ele>
        <time>2026-05-13T11:14:47Z</time>
      </trkpt>
      <trkpt lat="45.92827" lon="5.73965">
        <ele>853.8</ele>
        <time>2026-05-13T11:14:48Z</time>
      </trkpt>
      <trkpt lat="45.92826" lon="5.73965">
        <ele>853.8</ele>
        <time>2026-05-13T11:14:49Z</time>
      </trkpt>
      <trkpt lat="45.92825" lon="5.73965">
        <ele>854</ele>
        <time>2026-05-13T11:14:50Z</time>
      </trkpt>
      <trkpt lat="45.92823" lon="5.73964">
        <ele>854</ele>
        <time>2026-05-13T11:14:51Z</time>
      </trkpt>
      <trkpt lat="45.92822" lon="5.73964">
        <ele>854.4</ele>
        <time>2026-05-13T11:14:52Z</time>
      </trkpt>
      <trkpt lat="45.92821" lon="5.73964">
        <ele>854.4</ele>
        <time>2026-05-13T11:14:53Z</time>
      </trkpt>
      <trkpt lat="45.9282" lon="5.73964">
        <ele>854.6</ele>
        <time>2026-05-13T11:14:54Z</time>
      </trkpt>
      <trkpt lat="45.92819" lon="5.73964">
        <ele>855</ele>
        <time>2026-05-13T11:14:55Z</time>
      </trkpt>
      <trkpt lat="45.92818" lon="5.73964">
        <ele>855</ele>
        <time>2026-05-13T11:14:56Z</time>
      </trkpt>
      <trkpt lat="45.92817" lon="5.73965">
        <ele>855.4</ele>
        <time>2026-05-13T11:14:57Z</time>
      </trkpt>
      <trkpt lat="45.92816" lon="5.73966">
        <ele>855.4</ele>
        <time>2026-05-13T11:14:58Z</time>
      </trkpt>
      <trkpt lat="45.92815" lon="5.73967">
        <ele>855.4</ele>
        <time>2026-05-13T11:14:59Z</time>
      </trkpt>
      <trkpt lat="45.92814" lon="5.73968">
        <ele>855.8</ele>
        <time>2026-05-13T11:15:00Z</time>
      </trkpt>
      <trkpt lat="45.92813" lon="5.73968">
        <ele>855.8</ele>
        <time>2026-05-13T11:15:01Z</time>
      </trkpt>
      <trkpt lat="45.92811" lon="5.73968">
        <ele>855.8</ele>
        <time>2026-05-13T11:15:02Z</time>
      </trkpt>
      <trkpt lat="45.9281" lon="5.73969">
        <ele>856</ele>
        <time>2026-05-13T11:15:03Z</time>
      </trkpt>
      <trkpt lat="45.92809" lon="5.73969">
        <ele>856.2</ele>
        <time>2026-05-13T11:15:04Z</time>
      </trkpt>
      <trkpt lat="45.92808" lon="5.7397">
        <ele>856.4</ele>
        <time>2026-05-13T11:15:05Z</time>
      </trkpt>
      <trkpt lat="45.92806" lon="5.7397">
        <ele>856.6</ele>
        <time>2026-05-13T11:15:06Z</time>
      </trkpt>
      <trkpt lat="45.92805" lon="5.7397">
        <ele>856.6</ele>
        <time>2026-05-13T11:15:07Z</time>
      </trkpt>
      <trkpt lat="45.92804" lon="5.7397">
        <ele>857</ele>
        <time>2026-05-13T11:15:08Z</time>
      </trkpt>
      <trkpt lat="45.92802" lon="5.7397">
        <ele>857</ele>
        <time>2026-05-13T11:15:09Z</time>
      </trkpt>
      <trkpt lat="45.92801" lon="5.7397">
        <ele>857.4</ele>
        <time>2026-05-13T11:15:10Z</time>
      </trkpt>
      <trkpt lat="45.92799" lon="5.7397">
        <ele>857.4</ele>
        <time>2026-05-13T11:15:11Z</time>
      </trkpt>
      <trkpt lat="45.92798" lon="5.7397">
        <ele>857.6</ele>
        <time>2026-05-13T11:15:12Z</time>
      </trkpt>
      <trkpt lat="45.92796" lon="5.7397">
        <ele>857.6</ele>
        <time>2026-05-13T11:15:13Z</time>
      </trkpt>
      <trkpt lat="45.92795" lon="5.73971">
        <ele>857.8</ele>
        <time>2026-05-13T11:15:14Z</time>
      </trkpt>
      <trkpt lat="45.92793" lon="5.73971">
        <ele>857.8</ele>
        <time>2026-05-13T11:15:15Z</time>
      </trkpt>
      <trkpt lat="45.92792" lon="5.73971">
        <ele>858.2</ele>
        <time>2026-05-13T11:15:16Z</time>
      </trkpt>
      <trkpt lat="45.9279" lon="5.73971">
        <ele>858.2</ele>
        <time>2026-05-13T11:15:17Z</time>
      </trkpt>
      <trkpt lat="45.92788" lon="5.73971">
        <ele>858.4</ele>
        <time>2026-05-13T11:15:18Z</time>
      </trkpt>
      <trkpt lat="45.92786" lon="5.73971">
        <ele>858.4</ele>
        <time>2026-05-13T11:15:19Z</time>
      </trkpt>
      <trkpt lat="45.92785" lon="5.73971">
        <ele>858.8</ele>
        <time>2026-05-13T11:15:20Z</time>
      </trkpt>
      <trkpt lat="45.92783" lon="5.73971">
        <ele>858.8</ele>
        <time>2026-05-13T11:15:21Z</time>
      </trkpt>
      <trkpt lat="45.92781" lon="5.7397">
        <ele>858.8</ele>
        <time>2026-05-13T11:15:22Z</time>
      </trkpt>
      <trkpt lat="45.9278" lon="5.73969">
        <ele>858.8</ele>
        <time>2026-05-13T11:15:23Z</time>
      </trkpt>
      <trkpt lat="45.92782" lon="5.73968">
        <ele>858.8</ele>
        <time>2026-05-13T11:15:24Z</time>
      </trkpt>
      <trkpt lat="45.92781" lon="5.73968">
        <ele>859.2</ele>
        <time>2026-05-13T11:15:25Z</time>
      </trkpt>
      <trkpt lat="45.9278" lon="5.73969">
        <ele>859.2</ele>
        <time>2026-05-13T11:15:26Z</time>
      </trkpt>
      <trkpt lat="45.92778" lon="5.73969">
        <ele>859.2</ele>
        <time>2026-05-13T11:15:27Z</time>
      </trkpt>
      <trkpt lat="45.92776" lon="5.7397">
        <ele>859.2</ele>
        <time>2026-05-13T11:15:28Z</time>
      </trkpt>
      <trkpt lat="45.92773" lon="5.7397">
        <ele>859.4</ele>
        <time>2026-05-13T11:15:29Z</time>
      </trkpt>
      <trkpt lat="45.92771" lon="5.73969">
        <ele>859.4</ele>
        <time>2026-05-13T11:15:30Z</time>
      </trkpt>
      <trkpt lat="45.92768" lon="5.73969">
        <ele>859.6</ele>
        <time>2026-05-13T11:15:31Z</time>
      </trkpt>
      <trkpt lat="45.92767" lon="5.73969">
        <ele>859.6</ele>
        <time>2026-05-13T11:15:32Z</time>
      </trkpt>
      <trkpt lat="45.92765" lon="5.73969">
        <ele>859.6</ele>
        <time>2026-05-13T11:15:33Z</time>
      </trkpt>
      <trkpt lat="45.92764" lon="5.7397">
        <ele>859.8</ele>
        <time>2026-05-13T11:15:34Z</time>
      </trkpt>
      <trkpt lat="45.92762" lon="5.7397">
        <ele>859.8</ele>
        <time>2026-05-13T11:15:35Z</time>
      </trkpt>
      <trkpt lat="45.9276" lon="5.73972">
        <ele>859.8</ele>
        <time>2026-05-13T11:15:36Z</time>
      </trkpt>
      <trkpt lat="45.92759" lon="5.73973">
        <ele>859.8</ele>
        <time>2026-05-13T11:15:37Z</time>
      </trkpt>
      <trkpt lat="45.92758" lon="5.73973">
        <ele>860</ele>
        <time>2026-05-13T11:15:38Z</time>
      </trkpt>
      <trkpt lat="45.92757" lon="5.73974">
        <ele>860.4</ele>
        <time>2026-05-13T11:15:39Z</time>
      </trkpt>
      <trkpt lat="45.92756" lon="5.73974">
        <ele>860.4</ele>
        <time>2026-05-13T11:15:40Z</time>
      </trkpt>
      <trkpt lat="45.92754" lon="5.73975">
        <ele>860.4</ele>
        <time>2026-05-13T11:15:41Z</time>
      </trkpt>
      <trkpt lat="45.92753" lon="5.73977">
        <ele>860.4</ele>
        <time>2026-05-13T11:15:42Z</time>
      </trkpt>
      <trkpt lat="45.92751" lon="5.73977">
        <ele>860.4</ele>
        <time>2026-05-13T11:15:43Z</time>
      </trkpt>
      <trkpt lat="45.9275" lon="5.73978">
        <ele>860.6</ele>
        <time>2026-05-13T11:15:44Z</time>
      </trkpt>
      <trkpt lat="45.92751" lon="5.73979">
        <ele>860.6</ele>
        <time>2026-05-13T11:15:45Z</time>
      </trkpt>
      <trkpt lat="45.9275" lon="5.73979">
        <ele>860.6</ele>
        <time>2026-05-13T11:15:46Z</time>
      </trkpt>
      <trkpt lat="45.92748" lon="5.7398">
        <ele>860.6</ele>
        <time>2026-05-13T11:15:47Z</time>
      </trkpt>
      <trkpt lat="45.92745" lon="5.73981">
        <ele>860.8</ele>
        <time>2026-05-13T11:15:48Z</time>
      </trkpt>
      <trkpt lat="45.92744" lon="5.73981">
        <ele>860.8</ele>
        <time>2026-05-13T11:15:49Z</time>
      </trkpt>
      <trkpt lat="45.92742" lon="5.73982">
        <ele>860.8</ele>
        <time>2026-05-13T11:15:50Z</time>
      </trkpt>
      <trkpt lat="45.9274" lon="5.73983">
        <ele>860.8</ele>
        <time>2026-05-13T11:15:51Z</time>
      </trkpt>
      <trkpt lat="45.92738" lon="5.73983">
        <ele>860.8</ele>
        <time>2026-05-13T11:15:52Z</time>
      </trkpt>
      <trkpt lat="45.92736" lon="5.73984">
        <ele>860.8</ele>
        <time>2026-05-13T11:15:53Z</time>
      </trkpt>
      <trkpt lat="45.92733" lon="5.73985">
        <ele>860.8</ele>
        <time>2026-05-13T11:15:54Z</time>
      </trkpt>
      <trkpt lat="45.9273" lon="5.73987">
        <ele>860.8</ele>
        <time>2026-05-13T11:15:55Z</time>
      </trkpt>
      <trkpt lat="45.92728" lon="5.73988">
        <ele>860.8</ele>
        <time>2026-05-13T11:15:56Z</time>
      </trkpt>
      <trkpt lat="45.92727" lon="5.73989">
        <ele>861.2</ele>
        <time>2026-05-13T11:15:57Z</time>
      </trkpt>
      <trkpt lat="45.92726" lon="5.7399">
        <ele>861.2</ele>
        <time>2026-05-13T11:15:58Z</time>
      </trkpt>
      <trkpt lat="45.92724" lon="5.73991">
        <ele>861.4</ele>
        <time>2026-05-13T11:15:59Z</time>
      </trkpt>
      <trkpt lat="45.92723" lon="5.73992">
        <ele>861.4</ele>
        <time>2026-05-13T11:16:00Z</time>
      </trkpt>
      <trkpt lat="45.92722" lon="5.73993">
        <ele>861.4</ele>
        <time>2026-05-13T11:16:01Z</time>
      </trkpt>
      <trkpt lat="45.9272" lon="5.73994">
        <ele>861.4</ele>
        <time>2026-05-13T11:16:02Z</time>
      </trkpt>
      <trkpt lat="45.92719" lon="5.73994">
        <ele>861.4</ele>
        <time>2026-05-13T11:16:03Z</time>
      </trkpt>
      <trkpt lat="45.92717" lon="5.73995">
        <ele>861.4</ele>
        <time>2026-05-13T11:16:04Z</time>
      </trkpt>
      <trkpt lat="45.92716" lon="5.73995">
        <ele>861.8</ele>
        <time>2026-05-13T11:16:05Z</time>
      </trkpt>
      <trkpt lat="45.92713" lon="5.73996">
        <ele>861.8</ele>
        <time>2026-05-13T11:16:06Z</time>
      </trkpt>
      <trkpt lat="45.9271" lon="5.73996">
        <ele>862</ele>
        <time>2026-05-13T11:16:07Z</time>
      </trkpt>
      <trkpt lat="45.92708" lon="5.73997">
        <ele>862</ele>
        <time>2026-05-13T11:16:08Z</time>
      </trkpt>
      <trkpt lat="45.92705" lon="5.73997">
        <ele>862</ele>
        <time>2026-05-13T11:16:09Z</time>
      </trkpt>
      <trkpt lat="45.92703" lon="5.73998">
        <ele>862</ele>
        <time>2026-05-13T11:16:10Z</time>
      </trkpt>
      <trkpt lat="45.92702" lon="5.73999">
        <ele>862.2</ele>
        <time>2026-05-13T11:16:11Z</time>
      </trkpt>
      <trkpt lat="45.92701" lon="5.74">
        <ele>862.2</ele>
        <time>2026-05-13T11:16:12Z</time>
      </trkpt>
      <trkpt lat="45.927" lon="5.74001">
        <ele>862.2</ele>
        <time>2026-05-13T11:16:13Z</time>
      </trkpt>
      <trkpt lat="45.92699" lon="5.74002">
        <ele>862.4</ele>
        <time>2026-05-13T11:16:14Z</time>
      </trkpt>
      <trkpt lat="45.92697" lon="5.74002">
        <ele>862.4</ele>
        <time>2026-05-13T11:16:15Z</time>
      </trkpt>
      <trkpt lat="45.92695" lon="5.74003">
        <ele>862.4</ele>
        <time>2026-05-13T11:16:16Z</time>
      </trkpt>
      <trkpt lat="45.92694" lon="5.74004">
        <ele>862.4</ele>
        <time>2026-05-13T11:16:17Z</time>
      </trkpt>
      <trkpt lat="45.92693" lon="5.74005">
        <ele>862.8</ele>
        <time>2026-05-13T11:16:18Z</time>
      </trkpt>
      <trkpt lat="45.92692" lon="5.74006">
        <ele>863</ele>
        <time>2026-05-13T11:16:19Z</time>
      </trkpt>
      <trkpt lat="45.92691" lon="5.74007">
        <ele>863</ele>
        <time>2026-05-13T11:16:20Z</time>
      </trkpt>
      <trkpt lat="45.9269" lon="5.74009">
        <ele>863.2</ele>
        <time>2026-05-13T11:16:21Z</time>
      </trkpt>
      <trkpt lat="45.92689" lon="5.74009">
        <ele>863.4</ele>
        <time>2026-05-13T11:16:22Z</time>
      </trkpt>
      <trkpt lat="45.92688" lon="5.7401">
        <ele>863.4</ele>
        <time>2026-05-13T11:16:23Z</time>
      </trkpt>
      <trkpt lat="45.92687" lon="5.7401">
        <ele>863.8</ele>
        <time>2026-05-13T11:16:24Z</time>
      </trkpt>
      <trkpt lat="45.92686" lon="5.74012">
        <ele>863.8</ele>
        <time>2026-05-13T11:16:25Z</time>
      </trkpt>
      <trkpt lat="45.92685" lon="5.74013">
        <ele>864</ele>
        <time>2026-05-13T11:16:26Z</time>
      </trkpt>
      <trkpt lat="45.92684" lon="5.74014">
        <ele>864</ele>
        <time>2026-05-13T11:16:27Z</time>
      </trkpt>
      <trkpt lat="45.92683" lon="5.74014">
        <ele>864.6</ele>
        <time>2026-05-13T11:16:28Z</time>
      </trkpt>
      <trkpt lat="45.92681" lon="5.74015">
        <ele>864.6</ele>
        <time>2026-05-13T11:16:29Z</time>
      </trkpt>
      <trkpt lat="45.9268" lon="5.74017">
        <ele>864.6</ele>
        <time>2026-05-13T11:16:30Z</time>
      </trkpt>
      <trkpt lat="45.92679" lon="5.74018">
        <ele>864.6</ele>
        <time>2026-05-13T11:16:31Z</time>
      </trkpt>
      <trkpt lat="45.92678" lon="5.7402">
        <ele>864.6</ele>
        <time>2026-05-13T11:16:32Z</time>
      </trkpt>
      <trkpt lat="45.92676" lon="5.74022">
        <ele>864.8</ele>
        <time>2026-05-13T11:16:33Z</time>
      </trkpt>
      <trkpt lat="45.92675" lon="5.74024">
        <ele>864.8</ele>
        <time>2026-05-13T11:16:34Z</time>
      </trkpt>
      <trkpt lat="45.92674" lon="5.74025">
        <ele>864.8</ele>
        <time>2026-05-13T11:16:35Z</time>
      </trkpt>
      <trkpt lat="45.92673" lon="5.74026">
        <ele>865.2</ele>
        <time>2026-05-13T11:16:36Z</time>
      </trkpt>
      <trkpt lat="45.92671" lon="5.74027">
        <ele>865.4</ele>
        <time>2026-05-13T11:16:37Z</time>
      </trkpt>
      <trkpt lat="45.92669" lon="5.74028">
        <ele>865.4</ele>
        <time>2026-05-13T11:16:38Z</time>
      </trkpt>
      <trkpt lat="45.92668" lon="5.74029">
        <ele>865.4</ele>
        <time>2026-05-13T11:16:39Z</time>
      </trkpt>
      <trkpt lat="45.92667" lon="5.7403">
        <ele>865.8</ele>
        <time>2026-05-13T11:16:40Z</time>
      </trkpt>
      <trkpt lat="45.92666" lon="5.74031">
        <ele>865.8</ele>
        <time>2026-05-13T11:16:41Z</time>
      </trkpt>
      <trkpt lat="45.92665" lon="5.74033">
        <ele>866</ele>
        <time>2026-05-13T11:16:42Z</time>
      </trkpt>
      <trkpt lat="45.92664" lon="5.74034">
        <ele>866</ele>
        <time>2026-05-13T11:16:43Z</time>
      </trkpt>
      <trkpt lat="45.92662" lon="5.74036">
        <ele>866.2</ele>
        <time>2026-05-13T11:16:44Z</time>
      </trkpt>
      <trkpt lat="45.92662" lon="5.74037">
        <ele>866.2</ele>
        <time>2026-05-13T11:16:45Z</time>
      </trkpt>
      <trkpt lat="45.92662" lon="5.74037">
        <ele>866.2</ele>
        <time>2026-05-13T11:16:46Z</time>
      </trkpt>
      <trkpt lat="45.92661" lon="5.74038">
        <ele>866.6</ele>
        <time>2026-05-13T11:16:47Z</time>
      </trkpt>
      <trkpt lat="45.92659" lon="5.7404">
        <ele>866.6</ele>
        <time>2026-05-13T11:16:48Z</time>
      </trkpt>
      <trkpt lat="45.92658" lon="5.74041">
        <ele>866.6</ele>
        <time>2026-05-13T11:16:49Z</time>
      </trkpt>
      <trkpt lat="45.92657" lon="5.74042">
        <ele>867</ele>
        <time>2026-05-13T11:16:50Z</time>
      </trkpt>
      <trkpt lat="45.92656" lon="5.74044">
        <ele>867</ele>
        <time>2026-05-13T11:16:51Z</time>
      </trkpt>
      <trkpt lat="45.92655" lon="5.74046">
        <ele>867</ele>
        <time>2026-05-13T11:16:52Z</time>
      </trkpt>
      <trkpt lat="45.92653" lon="5.74047">
        <ele>867</ele>
        <time>2026-05-13T11:16:53Z</time>
      </trkpt>
      <trkpt lat="45.92652" lon="5.74048">
        <ele>867.2</ele>
        <time>2026-05-13T11:16:54Z</time>
      </trkpt>
      <trkpt lat="45.92651" lon="5.74049">
        <ele>867.2</ele>
        <time>2026-05-13T11:16:55Z</time>
      </trkpt>
      <trkpt lat="45.9265" lon="5.7405">
        <ele>867.6</ele>
        <time>2026-05-13T11:16:56Z</time>
      </trkpt>
      <trkpt lat="45.92648" lon="5.74052">
        <ele>867.6</ele>
        <time>2026-05-13T11:16:57Z</time>
      </trkpt>
      <trkpt lat="45.92647" lon="5.74053">
        <ele>868</ele>
        <time>2026-05-13T11:16:58Z</time>
      </trkpt>
      <trkpt lat="45.92646" lon="5.74054">
        <ele>868.2</ele>
        <time>2026-05-13T11:16:59Z</time>
      </trkpt>
      <trkpt lat="45.92645" lon="5.74055">
        <ele>868.2</ele>
        <time>2026-05-13T11:17:00Z</time>
      </trkpt>
      <trkpt lat="45.92643" lon="5.74056">
        <ele>868.2</ele>
        <time>2026-05-13T11:17:01Z</time>
      </trkpt>
      <trkpt lat="45.92641" lon="5.74057">
        <ele>868.6</ele>
        <time>2026-05-13T11:17:02Z</time>
      </trkpt>
      <trkpt lat="45.92639" lon="5.74058">
        <ele>868.6</ele>
        <time>2026-05-13T11:17:03Z</time>
      </trkpt>
      <trkpt lat="45.92637" lon="5.74059">
        <ele>868.8</ele>
        <time>2026-05-13T11:17:04Z</time>
      </trkpt>
      <trkpt lat="45.92636" lon="5.7406">
        <ele>868.8</ele>
        <time>2026-05-13T11:17:05Z</time>
      </trkpt>
      <trkpt lat="45.92635" lon="5.74061">
        <ele>869</ele>
        <time>2026-05-13T11:17:06Z</time>
      </trkpt>
      <trkpt lat="45.92635" lon="5.74062">
        <ele>869</ele>
        <time>2026-05-13T11:17:07Z</time>
      </trkpt>
      <trkpt lat="45.92634" lon="5.74062">
        <ele>869.4</ele>
        <time>2026-05-13T11:17:08Z</time>
      </trkpt>
      <trkpt lat="45.92634" lon="5.74063">
        <ele>869.4</ele>
        <time>2026-05-13T11:17:09Z</time>
      </trkpt>
      <trkpt lat="45.92633" lon="5.74064">
        <ele>869.8</ele>
        <time>2026-05-13T11:17:10Z</time>
      </trkpt>
      <trkpt lat="45.92632" lon="5.74064">
        <ele>869.8</ele>
        <time>2026-05-13T11:17:11Z</time>
      </trkpt>
      <trkpt lat="45.9263" lon="5.74065">
        <ele>869.8</ele>
        <time>2026-05-13T11:17:12Z</time>
      </trkpt>
      <trkpt lat="45.92629" lon="5.74066">
        <ele>869.8</ele>
        <time>2026-05-13T11:17:13Z</time>
      </trkpt>
      <trkpt lat="45.92628" lon="5.74067">
        <ele>870</ele>
        <time>2026-05-13T11:17:14Z</time>
      </trkpt>
      <trkpt lat="45.92627" lon="5.74068">
        <ele>870</ele>
        <time>2026-05-13T11:17:15Z</time>
      </trkpt>
      <trkpt lat="45.92626" lon="5.74069">
        <ele>870.4</ele>
        <time>2026-05-13T11:17:16Z</time>
      </trkpt>
      <trkpt lat="45.92624" lon="5.7407">
        <ele>870.4</ele>
        <time>2026-05-13T11:17:17Z</time>
      </trkpt>
      <trkpt lat="45.92622" lon="5.74071">
        <ele>870.6</ele>
        <time>2026-05-13T11:17:18Z</time>
      </trkpt>
      <trkpt lat="45.92621" lon="5.74071">
        <ele>870.8</ele>
        <time>2026-05-13T11:17:19Z</time>
      </trkpt>
      <trkpt lat="45.9262" lon="5.74072">
        <ele>870.8</ele>
        <time>2026-05-13T11:17:20Z</time>
      </trkpt>
      <trkpt lat="45.92619" lon="5.74072">
        <ele>871</ele>
        <time>2026-05-13T11:17:21Z</time>
      </trkpt>
      <trkpt lat="45.92618" lon="5.74072">
        <ele>871</ele>
        <time>2026-05-13T11:17:22Z</time>
      </trkpt>
      <trkpt lat="45.92617" lon="5.74072">
        <ele>871.4</ele>
        <time>2026-05-13T11:17:23Z</time>
      </trkpt>
      <trkpt lat="45.92616" lon="5.74073">
        <ele>871.4</ele>
        <time>2026-05-13T11:17:24Z</time>
      </trkpt>
      <trkpt lat="45.92614" lon="5.74074">
        <ele>871.6</ele>
        <time>2026-05-13T11:17:25Z</time>
      </trkpt>
      <trkpt lat="45.92612" lon="5.74074">
        <ele>871.6</ele>
        <time>2026-05-13T11:17:26Z</time>
      </trkpt>
      <trkpt lat="45.9261" lon="5.74074">
        <ele>872</ele>
        <time>2026-05-13T11:17:27Z</time>
      </trkpt>
      <trkpt lat="45.92609" lon="5.74075">
        <ele>872</ele>
        <time>2026-05-13T11:17:28Z</time>
      </trkpt>
      <trkpt lat="45.92607" lon="5.74075">
        <ele>872</ele>
        <time>2026-05-13T11:17:29Z</time>
      </trkpt>
      <trkpt lat="45.92606" lon="5.74076">
        <ele>872.2</ele>
        <time>2026-05-13T11:17:30Z</time>
      </trkpt>
      <trkpt lat="45.92604" lon="5.74076">
        <ele>872.2</ele>
        <time>2026-05-13T11:17:31Z</time>
      </trkpt>
      <trkpt lat="45.92603" lon="5.74077">
        <ele>872.4</ele>
        <time>2026-05-13T11:17:32Z</time>
      </trkpt>
      <trkpt lat="45.92602" lon="5.74078">
        <ele>872.4</ele>
        <time>2026-05-13T11:17:33Z</time>
      </trkpt>
      <trkpt lat="45.92601" lon="5.74079">
        <ele>872.8</ele>
        <time>2026-05-13T11:17:34Z</time>
      </trkpt>
      <trkpt lat="45.926" lon="5.7408">
        <ele>872.8</ele>
        <time>2026-05-13T11:17:35Z</time>
      </trkpt>
      <trkpt lat="45.92599" lon="5.74081">
        <ele>872.8</ele>
        <time>2026-05-13T11:17:36Z</time>
      </trkpt>
      <trkpt lat="45.92598" lon="5.74081">
        <ele>873</ele>
        <time>2026-05-13T11:17:37Z</time>
      </trkpt>
      <trkpt lat="45.92596" lon="5.74082">
        <ele>873</ele>
        <time>2026-05-13T11:17:38Z</time>
      </trkpt>
      <trkpt lat="45.92595" lon="5.74083">
        <ele>873.4</ele>
        <time>2026-05-13T11:17:39Z</time>
      </trkpt>
      <trkpt lat="45.92593" lon="5.74084">
        <ele>873.4</ele>
        <time>2026-05-13T11:17:40Z</time>
      </trkpt>
      <trkpt lat="45.92591" lon="5.74085">
        <ele>873.4</ele>
        <time>2026-05-13T11:17:41Z</time>
      </trkpt>
      <trkpt lat="45.9259" lon="5.74087">
        <ele>873.8</ele>
        <time>2026-05-13T11:17:42Z</time>
      </trkpt>
      <trkpt lat="45.9259" lon="5.74088">
        <ele>873.8</ele>
        <time>2026-05-13T11:17:43Z</time>
      </trkpt>
      <trkpt lat="45.9259" lon="5.74089">
        <ele>873.8</ele>
        <time>2026-05-13T11:17:44Z</time>
      </trkpt>
      <trkpt lat="45.9259" lon="5.7409">
        <ele>873.8</ele>
        <time>2026-05-13T11:17:45Z</time>
      </trkpt>
      <trkpt lat="45.92589" lon="5.7409">
        <ele>874.2</ele>
        <time>2026-05-13T11:17:46Z</time>
      </trkpt>
      <trkpt lat="45.92588" lon="5.7409">
        <ele>874.2</ele>
        <time>2026-05-13T11:17:47Z</time>
      </trkpt>
      <trkpt lat="45.92587" lon="5.74091">
        <ele>874.6</ele>
        <time>2026-05-13T11:17:48Z</time>
      </trkpt>
      <trkpt lat="45.92585" lon="5.74092">
        <ele>874.8</ele>
        <time>2026-05-13T11:17:49Z</time>
      </trkpt>
      <trkpt lat="45.92584" lon="5.74093">
        <ele>874.8</ele>
        <time>2026-05-13T11:17:50Z</time>
      </trkpt>
      <trkpt lat="45.92583" lon="5.74094">
        <ele>874.8</ele>
        <time>2026-05-13T11:17:51Z</time>
      </trkpt>
      <trkpt lat="45.92581" lon="5.74094">
        <ele>875.2</ele>
        <time>2026-05-13T11:17:52Z</time>
      </trkpt>
      <trkpt lat="45.9258" lon="5.74093">
        <ele>875.2</ele>
        <time>2026-05-13T11:17:53Z</time>
      </trkpt>
      <trkpt lat="45.92579" lon="5.74094">
        <ele>875.2</ele>
        <time>2026-05-13T11:17:54Z</time>
      </trkpt>
      <trkpt lat="45.92577" lon="5.74095">
        <ele>875.4</ele>
        <time>2026-05-13T11:17:55Z</time>
      </trkpt>
      <trkpt lat="45.92575" lon="5.74096">
        <ele>875.4</ele>
        <time>2026-05-13T11:17:56Z</time>
      </trkpt>
      <trkpt lat="45.92573" lon="5.74097">
        <ele>875.6</ele>
        <time>2026-05-13T11:17:57Z</time>
      </trkpt>
      <trkpt lat="45.92572" lon="5.74098">
        <ele>875.6</ele>
        <time>2026-05-13T11:17:58Z</time>
      </trkpt>
      <trkpt lat="45.9257" lon="5.74099">
        <ele>875.6</ele>
        <time>2026-05-13T11:17:59Z</time>
      </trkpt>
      <trkpt lat="45.9257" lon="5.74099">
        <ele>875.8</ele>
        <time>2026-05-13T11:18:00Z</time>
      </trkpt>
      <trkpt lat="45.9257" lon="5.741">
        <ele>876.2</ele>
        <time>2026-05-13T11:18:01Z</time>
      </trkpt>
      <trkpt lat="45.92569" lon="5.74101">
        <ele>876.2</ele>
        <time>2026-05-13T11:18:02Z</time>
      </trkpt>
      <trkpt lat="45.92567" lon="5.74101">
        <ele>876.4</ele>
        <time>2026-05-13T11:18:03Z</time>
      </trkpt>
      <trkpt lat="45.92565" lon="5.74101">
        <ele>876.4</ele>
        <time>2026-05-13T11:18:04Z</time>
      </trkpt>
      <trkpt lat="45.92564" lon="5.74102">
        <ele>877</ele>
        <time>2026-05-13T11:18:05Z</time>
      </trkpt>
      <trkpt lat="45.92563" lon="5.74103">
        <ele>877</ele>
        <time>2026-05-13T11:18:06Z</time>
      </trkpt>
      <trkpt lat="45.92561" lon="5.74104">
        <ele>877</ele>
        <time>2026-05-13T11:18:07Z</time>
      </trkpt>
      <trkpt lat="45.92561" lon="5.74104">
        <ele>877.2</ele>
        <time>2026-05-13T11:18:08Z</time>
      </trkpt>
      <trkpt lat="45.9256" lon="5.74104">
        <ele>877.2</ele>
        <time>2026-05-13T11:18:09Z</time>
      </trkpt>
      <trkpt lat="45.92559" lon="5.74104">
        <ele>877.2</ele>
        <time>2026-05-13T11:18:10Z</time>
      </trkpt>
      <trkpt lat="45.92556" lon="5.74105">
        <ele>877.4</ele>
        <time>2026-05-13T11:18:11Z</time>
      </trkpt>
      <trkpt lat="45.92554" lon="5.74107">
        <ele>877.4</ele>
        <time>2026-05-13T11:18:12Z</time>
      </trkpt>
      <trkpt lat="45.92553" lon="5.74109">
        <ele>877.8</ele>
        <time>2026-05-13T11:18:13Z</time>
      </trkpt>
      <trkpt lat="45.92552" lon="5.7411">
        <ele>877.8</ele>
        <time>2026-05-13T11:18:14Z</time>
      </trkpt>
      <trkpt lat="45.92552" lon="5.7411">
        <ele>878.2</ele>
        <time>2026-05-13T11:18:15Z</time>
      </trkpt>
      <trkpt lat="45.92549" lon="5.74111">
        <ele>878.2</ele>
        <time>2026-05-13T11:18:16Z</time>
      </trkpt>
      <trkpt lat="45.92546" lon="5.74113">
        <ele>878.4</ele>
        <time>2026-05-13T11:18:17Z</time>
      </trkpt>
      <trkpt lat="45.92544" lon="5.74113">
        <ele>878.4</ele>
        <time>2026-05-13T11:18:18Z</time>
      </trkpt>
      <trkpt lat="45.92543" lon="5.74114">
        <ele>878.8</ele>
        <time>2026-05-13T11:18:19Z</time>
      </trkpt>
      <trkpt lat="45.92542" lon="5.74114">
        <ele>878.8</ele>
        <time>2026-05-13T11:18:20Z</time>
      </trkpt>
      <trkpt lat="45.9254" lon="5.74113">
        <ele>879</ele>
        <time>2026-05-13T11:18:21Z</time>
      </trkpt>
      <trkpt lat="45.92537" lon="5.74113">
        <ele>879</ele>
        <time>2026-05-13T11:18:22Z</time>
      </trkpt>
      <trkpt lat="45.92535" lon="5.74113">
        <ele>879.2</ele>
        <time>2026-05-13T11:18:23Z</time>
      </trkpt>
      <trkpt lat="45.92535" lon="5.74114">
        <ele>879.2</ele>
        <time>2026-05-13T11:18:24Z</time>
      </trkpt>
      <trkpt lat="45.92534" lon="5.74115">
        <ele>879.2</ele>
        <time>2026-05-13T11:18:25Z</time>
      </trkpt>
      <trkpt lat="45.92533" lon="5.74116">
        <ele>879.6</ele>
        <time>2026-05-13T11:18:26Z</time>
      </trkpt>
      <trkpt lat="45.92531" lon="5.74116">
        <ele>879.6</ele>
        <time>2026-05-13T11:18:27Z</time>
      </trkpt>
      <trkpt lat="45.9253" lon="5.74117">
        <ele>880</ele>
        <time>2026-05-13T11:18:28Z</time>
      </trkpt>
      <trkpt lat="45.92528" lon="5.74118">
        <ele>880</ele>
        <time>2026-05-13T11:18:29Z</time>
      </trkpt>
      <trkpt lat="45.92526" lon="5.74118">
        <ele>880</ele>
        <time>2026-05-13T11:18:30Z</time>
      </trkpt>
      <trkpt lat="45.92525" lon="5.74118">
        <ele>880.2</ele>
        <time>2026-05-13T11:18:31Z</time>
      </trkpt>
      <trkpt lat="45.92523" lon="5.74118">
        <ele>880.2</ele>
        <time>2026-05-13T11:18:32Z</time>
      </trkpt>
      <trkpt lat="45.92522" lon="5.74118">
        <ele>880.6</ele>
        <time>2026-05-13T11:18:33Z</time>
      </trkpt>
      <trkpt lat="45.9252" lon="5.74119">
        <ele>880.8</ele>
        <time>2026-05-13T11:18:34Z</time>
      </trkpt>
      <trkpt lat="45.92519" lon="5.7412">
        <ele>880.8</ele>
        <time>2026-05-13T11:18:35Z</time>
      </trkpt>
      <trkpt lat="45.92518" lon="5.7412">
        <ele>881.2</ele>
        <time>2026-05-13T11:18:36Z</time>
      </trkpt>
      <trkpt lat="45.92516" lon="5.74121">
        <ele>881.2</ele>
        <time>2026-05-13T11:18:37Z</time>
      </trkpt>
      <trkpt lat="45.92514" lon="5.74123">
        <ele>881.4</ele>
        <time>2026-05-13T11:18:38Z</time>
      </trkpt>
      <trkpt lat="45.92513" lon="5.74123">
        <ele>881.4</ele>
        <time>2026-05-13T11:18:39Z</time>
      </trkpt>
      <trkpt lat="45.92511" lon="5.74124">
        <ele>881.6</ele>
        <time>2026-05-13T11:18:40Z</time>
      </trkpt>
      <trkpt lat="45.9251" lon="5.74125">
        <ele>881.6</ele>
        <time>2026-05-13T11:18:41Z</time>
      </trkpt>
      <trkpt lat="45.92508" lon="5.74127">
        <ele>882</ele>
        <time>2026-05-13T11:18:42Z</time>
      </trkpt>
      <trkpt lat="45.92507" lon="5.74128">
        <ele>882</ele>
        <time>2026-05-13T11:18:43Z</time>
      </trkpt>
      <trkpt lat="45.92506" lon="5.74128">
        <ele>882</ele>
        <time>2026-05-13T11:18:44Z</time>
      </trkpt>
      <trkpt lat="45.92504" lon="5.74127">
        <ele>882.2</ele>
        <time>2026-05-13T11:18:45Z</time>
      </trkpt>
      <trkpt lat="45.92502" lon="5.74127">
        <ele>882.2</ele>
        <time>2026-05-13T11:18:46Z</time>
      </trkpt>
      <trkpt lat="45.925" lon="5.74126">
        <ele>882.4</ele>
        <time>2026-05-13T11:18:47Z</time>
      </trkpt>
      <trkpt lat="45.92499" lon="5.74125">
        <ele>882.6</ele>
        <time>2026-05-13T11:18:48Z</time>
      </trkpt>
      <trkpt lat="45.92497" lon="5.74123">
        <ele>882.6</ele>
        <time>2026-05-13T11:18:49Z</time>
      </trkpt>
      <trkpt lat="45.92496" lon="5.74123">
        <ele>883</ele>
        <time>2026-05-13T11:18:50Z</time>
      </trkpt>
      <trkpt lat="45.92495" lon="5.74124">
        <ele>883</ele>
        <time>2026-05-13T11:18:51Z</time>
      </trkpt>
      <trkpt lat="45.92493" lon="5.74125">
        <ele>883</ele>
        <time>2026-05-13T11:18:52Z</time>
      </trkpt>
      <trkpt lat="45.92493" lon="5.74125">
        <ele>883.2</ele>
        <time>2026-05-13T11:18:53Z</time>
      </trkpt>
      <trkpt lat="45.92493" lon="5.74125">
        <ele>883.2</ele>
        <time>2026-05-13T11:18:54Z</time>
      </trkpt>
      <trkpt lat="45.92491" lon="5.74125">
        <ele>883.2</ele>
        <time>2026-05-13T11:18:55Z</time>
      </trkpt>
      <trkpt lat="45.92489" lon="5.74125">
        <ele>883.6</ele>
        <time>2026-05-13T11:18:56Z</time>
      </trkpt>
      <trkpt lat="45.92488" lon="5.74125">
        <ele>883.8</ele>
        <time>2026-05-13T11:18:57Z</time>
      </trkpt>
      <trkpt lat="45.92486" lon="5.74125">
        <ele>883.8</ele>
        <time>2026-05-13T11:18:58Z</time>
      </trkpt>
      <trkpt lat="45.92485" lon="5.74125">
        <ele>884.2</ele>
        <time>2026-05-13T11:18:59Z</time>
      </trkpt>
      <trkpt lat="45.92483" lon="5.74125">
        <ele>884.2</ele>
        <time>2026-05-13T11:19:00Z</time>
      </trkpt>
      <trkpt lat="45.92482" lon="5.74125">
        <ele>884.6</ele>
        <time>2026-05-13T11:19:01Z</time>
      </trkpt>
      <trkpt lat="45.92481" lon="5.74126">
        <ele>884.6</ele>
        <time>2026-05-13T11:19:02Z</time>
      </trkpt>
      <trkpt lat="45.92479" lon="5.74126">
        <ele>884.8</ele>
        <time>2026-05-13T11:19:03Z</time>
      </trkpt>
      <trkpt lat="45.92478" lon="5.74127">
        <ele>884.8</ele>
        <time>2026-05-13T11:19:04Z</time>
      </trkpt>
      <trkpt lat="45.92476" lon="5.74127">
        <ele>884.8</ele>
        <time>2026-05-13T11:19:05Z</time>
      </trkpt>
      <trkpt lat="45.92474" lon="5.74127">
        <ele>884.8</ele>
        <time>2026-05-13T11:19:06Z</time>
      </trkpt>
      <trkpt lat="45.92472" lon="5.74126">
        <ele>885</ele>
        <time>2026-05-13T11:19:07Z</time>
      </trkpt>
      <trkpt lat="45.92471" lon="5.74126">
        <ele>885</ele>
        <time>2026-05-13T11:19:08Z</time>
      </trkpt>
      <trkpt lat="45.92469" lon="5.74125">
        <ele>885</ele>
        <time>2026-05-13T11:19:09Z</time>
      </trkpt>
      <trkpt lat="45.9247" lon="5.74125">
        <ele>885.4</ele>
        <time>2026-05-13T11:19:10Z</time>
      </trkpt>
      <trkpt lat="45.92469" lon="5.74124">
        <ele>885.4</ele>
        <time>2026-05-13T11:19:11Z</time>
      </trkpt>
      <trkpt lat="45.92468" lon="5.74125">
        <ele>885.8</ele>
        <time>2026-05-13T11:19:12Z</time>
      </trkpt>
      <trkpt lat="45.92467" lon="5.74125">
        <ele>885.8</ele>
        <time>2026-05-13T11:19:13Z</time>
      </trkpt>
      <trkpt lat="45.92466" lon="5.74125">
        <ele>885.8</ele>
        <time>2026-05-13T11:19:14Z</time>
      </trkpt>
      <trkpt lat="45.92465" lon="5.74125">
        <ele>885.8</ele>
        <time>2026-05-13T11:19:15Z</time>
      </trkpt>
      <trkpt lat="45.92464" lon="5.74126">
        <ele>886.2</ele>
        <time>2026-05-13T11:19:16Z</time>
      </trkpt>
      <trkpt lat="45.92464" lon="5.74126">
        <ele>886.2</ele>
        <time>2026-05-13T11:19:17Z</time>
      </trkpt>
      <trkpt lat="45.92464" lon="5.74127">
        <ele>886.2</ele>
        <time>2026-05-13T11:19:18Z</time>
      </trkpt>
      <trkpt lat="45.92463" lon="5.74127">
        <ele>886.4</ele>
        <time>2026-05-13T11:19:19Z</time>
      </trkpt>
      <trkpt lat="45.92462" lon="5.74127">
        <ele>886.4</ele>
        <time>2026-05-13T11:19:20Z</time>
      </trkpt>
      <trkpt lat="45.92461" lon="5.74128">
        <ele>886.8</ele>
        <time>2026-05-13T11:19:21Z</time>
      </trkpt>
      <trkpt lat="45.92459" lon="5.74129">
        <ele>886.8</ele>
        <time>2026-05-13T11:19:22Z</time>
      </trkpt>
      <trkpt lat="45.92456" lon="5.74129">
        <ele>887</ele>
        <time>2026-05-13T11:19:23Z</time>
      </trkpt>
      <trkpt lat="45.92454" lon="5.7413">
        <ele>887</ele>
        <time>2026-05-13T11:19:24Z</time>
      </trkpt>
      <trkpt lat="45.92452" lon="5.74131">
        <ele>887.2</ele>
        <time>2026-05-13T11:19:25Z</time>
      </trkpt>
      <trkpt lat="45.9245" lon="5.74131">
        <ele>887.2</ele>
        <time>2026-05-13T11:19:26Z</time>
      </trkpt>
      <trkpt lat="45.92449" lon="5.74132">
        <ele>887.6</ele>
        <time>2026-05-13T11:19:27Z</time>
      </trkpt>
      <trkpt lat="45.92448" lon="5.74132">
        <ele>887.6</ele>
        <time>2026-05-13T11:19:28Z</time>
      </trkpt>
      <trkpt lat="45.92446" lon="5.74132">
        <ele>887.6</ele>
        <time>2026-05-13T11:19:29Z</time>
      </trkpt>
      <trkpt lat="45.92444" lon="5.74133">
        <ele>887.8</ele>
        <time>2026-05-13T11:19:30Z</time>
      </trkpt>
      <trkpt lat="45.92442" lon="5.74134">
        <ele>887.8</ele>
        <time>2026-05-13T11:19:31Z</time>
      </trkpt>
      <trkpt lat="45.92439" lon="5.74135">
        <ele>887.8</ele>
        <time>2026-05-13T11:19:32Z</time>
      </trkpt>
      <trkpt lat="45.92437" lon="5.74137">
        <ele>887.8</ele>
        <time>2026-05-13T11:19:33Z</time>
      </trkpt>
      <trkpt lat="45.92434" lon="5.74138">
        <ele>888</ele>
        <time>2026-05-13T11:19:34Z</time>
      </trkpt>
      <trkpt lat="45.92433" lon="5.74139">
        <ele>888</ele>
        <time>2026-05-13T11:19:35Z</time>
      </trkpt>
      <trkpt lat="45.92431" lon="5.7414">
        <ele>888</ele>
        <time>2026-05-13T11:19:36Z</time>
      </trkpt>
      <trkpt lat="45.9243" lon="5.74142">
        <ele>888.2</ele>
        <time>2026-05-13T11:19:37Z</time>
      </trkpt>
      <trkpt lat="45.92429" lon="5.74143">
        <ele>888.2</ele>
        <time>2026-05-13T11:19:38Z</time>
      </trkpt>
      <trkpt lat="45.92427" lon="5.74145">
        <ele>888.6</ele>
        <time>2026-05-13T11:19:39Z</time>
      </trkpt>
      <trkpt lat="45.92426" lon="5.74146">
        <ele>888.6</ele>
        <time>2026-05-13T11:19:40Z</time>
      </trkpt>
      <trkpt lat="45.92424" lon="5.74147">
        <ele>888.6</ele>
        <time>2026-05-13T11:19:41Z</time>
      </trkpt>
      <trkpt lat="45.92423" lon="5.74148">
        <ele>888.8</ele>
        <time>2026-05-13T11:19:42Z</time>
      </trkpt>
      <trkpt lat="45.92422" lon="5.74148">
        <ele>888.8</ele>
        <time>2026-05-13T11:19:43Z</time>
      </trkpt>
      <trkpt lat="45.92421" lon="5.74149">
        <ele>889</ele>
        <time>2026-05-13T11:19:44Z</time>
      </trkpt>
      <trkpt lat="45.92419" lon="5.74149">
        <ele>889</ele>
        <time>2026-05-13T11:19:45Z</time>
      </trkpt>
      <trkpt lat="45.92418" lon="5.7415">
        <ele>889.4</ele>
        <time>2026-05-13T11:19:46Z</time>
      </trkpt>
      <trkpt lat="45.92417" lon="5.74151">
        <ele>889.4</ele>
        <time>2026-05-13T11:19:47Z</time>
      </trkpt>
      <trkpt lat="45.92416" lon="5.74152">
        <ele>889.4</ele>
        <time>2026-05-13T11:19:48Z</time>
      </trkpt>
      <trkpt lat="45.92415" lon="5.74153">
        <ele>889.6</ele>
        <time>2026-05-13T11:19:49Z</time>
      </trkpt>
      <trkpt lat="45.92414" lon="5.74155">
        <ele>889.6</ele>
        <time>2026-05-13T11:19:50Z</time>
      </trkpt>
      <trkpt lat="45.92413" lon="5.74156">
        <ele>889.6</ele>
        <time>2026-05-13T11:19:51Z</time>
      </trkpt>
      <trkpt lat="45.92412" lon="5.74157">
        <ele>890</ele>
        <time>2026-05-13T11:19:52Z</time>
      </trkpt>
      <trkpt lat="45.92412" lon="5.74157">
        <ele>890.2</ele>
        <time>2026-05-13T11:19:53Z</time>
      </trkpt>
      <trkpt lat="45.92411" lon="5.74158">
        <ele>890.2</ele>
        <time>2026-05-13T11:19:54Z</time>
      </trkpt>
      <trkpt lat="45.9241" lon="5.74159">
        <ele>890.4</ele>
        <time>2026-05-13T11:19:55Z</time>
      </trkpt>
      <trkpt lat="45.92408" lon="5.74161">
        <ele>890.4</ele>
        <time>2026-05-13T11:19:56Z</time>
      </trkpt>
      <trkpt lat="45.92407" lon="5.74162">
        <ele>890.8</ele>
        <time>2026-05-13T11:19:57Z</time>
      </trkpt>
      <trkpt lat="45.92405" lon="5.74163">
        <ele>890.8</ele>
        <time>2026-05-13T11:19:58Z</time>
      </trkpt>
      <trkpt lat="45.92404" lon="5.74164">
        <ele>891</ele>
        <time>2026-05-13T11:19:59Z</time>
      </trkpt>
      <trkpt lat="45.92403" lon="5.74165">
        <ele>891</ele>
        <time>2026-05-13T11:20:00Z</time>
      </trkpt>
      <trkpt lat="45.92402" lon="5.74166">
        <ele>891.4</ele>
        <time>2026-05-13T11:20:01Z</time>
      </trkpt>
      <trkpt lat="45.92401" lon="5.74168">
        <ele>891.4</ele>
        <time>2026-05-13T11:20:02Z</time>
      </trkpt>
      <trkpt lat="45.92399" lon="5.74169">
        <ele>891.6</ele>
        <time>2026-05-13T11:20:03Z</time>
      </trkpt>
      <trkpt lat="45.92398" lon="5.7417">
        <ele>891.8</ele>
        <time>2026-05-13T11:20:04Z</time>
      </trkpt>
      <trkpt lat="45.92397" lon="5.74171">
        <ele>892.2</ele>
        <time>2026-05-13T11:20:05Z</time>
      </trkpt>
      <trkpt lat="45.92396" lon="5.74172">
        <ele>892.4</ele>
        <time>2026-05-13T11:20:06Z</time>
      </trkpt>
      <trkpt lat="45.92394" lon="5.74173">
        <ele>892.6</ele>
        <time>2026-05-13T11:20:07Z</time>
      </trkpt>
      <trkpt lat="45.92393" lon="5.74174">
        <ele>892.6</ele>
        <time>2026-05-13T11:20:08Z</time>
      </trkpt>
      <trkpt lat="45.92392" lon="5.74175">
        <ele>893</ele>
        <time>2026-05-13T11:20:09Z</time>
      </trkpt>
      <trkpt lat="45.9239" lon="5.74176">
        <ele>893</ele>
        <time>2026-05-13T11:20:10Z</time>
      </trkpt>
      <trkpt lat="45.92389" lon="5.74177">
        <ele>893</ele>
        <time>2026-05-13T11:20:11Z</time>
      </trkpt>
      <trkpt lat="45.92388" lon="5.74179">
        <ele>893.2</ele>
        <time>2026-05-13T11:20:12Z</time>
      </trkpt>
      <trkpt lat="45.92387" lon="5.7418">
        <ele>893.2</ele>
        <time>2026-05-13T11:20:13Z</time>
      </trkpt>
      <trkpt lat="45.92386" lon="5.74181">
        <ele>893.4</ele>
        <time>2026-05-13T11:20:14Z</time>
      </trkpt>
      <trkpt lat="45.92385" lon="5.74183">
        <ele>893.8</ele>
        <time>2026-05-13T11:20:15Z</time>
      </trkpt>
      <trkpt lat="45.92383" lon="5.74184">
        <ele>894</ele>
        <time>2026-05-13T11:20:16Z</time>
      </trkpt>
      <trkpt lat="45.92382" lon="5.74184">
        <ele>894</ele>
        <time>2026-05-13T11:20:17Z</time>
      </trkpt>
      <trkpt lat="45.9238" lon="5.74184">
        <ele>894.2</ele>
        <time>2026-05-13T11:20:18Z</time>
      </trkpt>
      <trkpt lat="45.92379" lon="5.74185">
        <ele>894.2</ele>
        <time>2026-05-13T11:20:19Z</time>
      </trkpt>
      <trkpt lat="45.92377" lon="5.74186">
        <ele>894.2</ele>
        <time>2026-05-13T11:20:20Z</time>
      </trkpt>
      <trkpt lat="45.92376" lon="5.74187">
        <ele>894.6</ele>
        <time>2026-05-13T11:20:21Z</time>
      </trkpt>
      <trkpt lat="45.92375" lon="5.74188">
        <ele>894.6</ele>
        <time>2026-05-13T11:20:22Z</time>
      </trkpt>
      <trkpt lat="45.92374" lon="5.74189">
        <ele>894.8</ele>
        <time>2026-05-13T11:20:23Z</time>
      </trkpt>
      <trkpt lat="45.92373" lon="5.7419">
        <ele>894.8</ele>
        <time>2026-05-13T11:20:24Z</time>
      </trkpt>
      <trkpt lat="45.92372" lon="5.7419">
        <ele>895.2</ele>
        <time>2026-05-13T11:20:25Z</time>
      </trkpt>
      <trkpt lat="45.92371" lon="5.74191">
        <ele>895.2</ele>
        <time>2026-05-13T11:20:26Z</time>
      </trkpt>
      <trkpt lat="45.9237" lon="5.74191">
        <ele>895.2</ele>
        <time>2026-05-13T11:20:27Z</time>
      </trkpt>
      <trkpt lat="45.92368" lon="5.74191">
        <ele>895.2</ele>
        <time>2026-05-13T11:20:28Z</time>
      </trkpt>
      <trkpt lat="45.92367" lon="5.74192">
        <ele>895.6</ele>
        <time>2026-05-13T11:20:29Z</time>
      </trkpt>
      <trkpt lat="45.92367" lon="5.74193">
        <ele>895.6</ele>
        <time>2026-05-13T11:20:30Z</time>
      </trkpt>
      <trkpt lat="45.92366" lon="5.74193">
        <ele>895.8</ele>
        <time>2026-05-13T11:20:31Z</time>
      </trkpt>
      <trkpt lat="45.92366" lon="5.74194">
        <ele>895.8</ele>
        <time>2026-05-13T11:20:32Z</time>
      </trkpt>
      <trkpt lat="45.92366" lon="5.74193">
        <ele>895.8</ele>
        <time>2026-05-13T11:20:33Z</time>
      </trkpt>
      <trkpt lat="45.92365" lon="5.7419">
        <ele>896</ele>
        <time>2026-05-13T11:21:08Z</time>
      </trkpt>
      <trkpt lat="45.92365" lon="5.7419">
        <ele>896</ele>
        <time>2026-05-13T11:21:09Z</time>
      </trkpt>
      <trkpt lat="45.92365" lon="5.74189">
        <ele>896</ele>
        <time>2026-05-13T11:21:10Z</time>
      </trkpt>
      <trkpt lat="45.92362" lon="5.74193">
        <ele>896</ele>
        <time>2026-05-13T11:21:13Z</time>
      </trkpt>
      <trkpt lat="45.9236" lon="5.74195">
        <ele>896</ele>
        <time>2026-05-13T11:21:14Z</time>
      </trkpt>
      <trkpt lat="45.92359" lon="5.74196">
        <ele>896</ele>
        <time>2026-05-13T11:21:15Z</time>
      </trkpt>
      <trkpt lat="45.92358" lon="5.74198">
        <ele>896.2</ele>
        <time>2026-05-13T11:21:16Z</time>
      </trkpt>
      <trkpt lat="45.92357" lon="5.74199">
        <ele>896.6</ele>
        <time>2026-05-13T11:21:17Z</time>
      </trkpt>
      <trkpt lat="45.92355" lon="5.74201">
        <ele>897</ele>
        <time>2026-05-13T11:21:18Z</time>
      </trkpt>
      <trkpt lat="45.92354" lon="5.74202">
        <ele>897</ele>
        <time>2026-05-13T11:21:19Z</time>
      </trkpt>
      <trkpt lat="45.92352" lon="5.74204">
        <ele>897.4</ele>
        <time>2026-05-13T11:21:20Z</time>
      </trkpt>
      <trkpt lat="45.92351" lon="5.74206">
        <ele>897.4</ele>
        <time>2026-05-13T11:21:21Z</time>
      </trkpt>
      <trkpt lat="45.92349" lon="5.74208">
        <ele>897.8</ele>
        <time>2026-05-13T11:21:22Z</time>
      </trkpt>
      <trkpt lat="45.92347" lon="5.74209">
        <ele>898.2</ele>
        <time>2026-05-13T11:21:23Z</time>
      </trkpt>
      <trkpt lat="45.92346" lon="5.74211">
        <ele>898.2</ele>
        <time>2026-05-13T11:21:24Z</time>
      </trkpt>
      <trkpt lat="45.92345" lon="5.74213">
        <ele>898.4</ele>
        <time>2026-05-13T11:21:25Z</time>
      </trkpt>
      <trkpt lat="45.92343" lon="5.74215">
        <ele>898.6</ele>
        <time>2026-05-13T11:21:26Z</time>
      </trkpt>
      <trkpt lat="45.92342" lon="5.74216">
        <ele>898.6</ele>
        <time>2026-05-13T11:21:27Z</time>
      </trkpt>
      <trkpt lat="45.92339" lon="5.74218">
        <ele>898.6</ele>
        <time>2026-05-13T11:21:28Z</time>
      </trkpt>
      <trkpt lat="45.92337" lon="5.7422">
        <ele>899</ele>
        <time>2026-05-13T11:21:29Z</time>
      </trkpt>
      <trkpt lat="45.92335" lon="5.74221">
        <ele>899.2</ele>
        <time>2026-05-13T11:21:30Z</time>
      </trkpt>
      <trkpt lat="45.92333" lon="5.74223">
        <ele>899.2</ele>
        <time>2026-05-13T11:21:31Z</time>
      </trkpt>
      <trkpt lat="45.92332" lon="5.74224">
        <ele>899.8</ele>
        <time>2026-05-13T11:21:32Z</time>
      </trkpt>
      <trkpt lat="45.92331" lon="5.74226">
        <ele>899.8</ele>
        <time>2026-05-13T11:21:33Z</time>
      </trkpt>
      <trkpt lat="45.92329" lon="5.74228">
        <ele>900</ele>
        <time>2026-05-13T11:21:34Z</time>
      </trkpt>
      <trkpt lat="45.92327" lon="5.74229">
        <ele>900.2</ele>
        <time>2026-05-13T11:21:35Z</time>
      </trkpt>
      <trkpt lat="45.92325" lon="5.74231">
        <ele>900.2</ele>
        <time>2026-05-13T11:21:36Z</time>
      </trkpt>
      <trkpt lat="45.92324" lon="5.74232">
        <ele>900.6</ele>
        <time>2026-05-13T11:21:37Z</time>
      </trkpt>
      <trkpt lat="45.92322" lon="5.74234">
        <ele>900.6</ele>
        <time>2026-05-13T11:21:38Z</time>
      </trkpt>
      <trkpt lat="45.9232" lon="5.74236">
        <ele>900.6</ele>
        <time>2026-05-13T11:21:39Z</time>
      </trkpt>
      <trkpt lat="45.92318" lon="5.74237">
        <ele>900.6</ele>
        <time>2026-05-13T11:21:40Z</time>
      </trkpt>
      <trkpt lat="45.92316" lon="5.74238">
        <ele>900.6</ele>
        <time>2026-05-13T11:21:41Z</time>
      </trkpt>
      <trkpt lat="45.92314" lon="5.74239">
        <ele>901</ele>
        <time>2026-05-13T11:21:42Z</time>
      </trkpt>
      <trkpt lat="45.92313" lon="5.74241">
        <ele>901.2</ele>
        <time>2026-05-13T11:21:43Z</time>
      </trkpt>
      <trkpt lat="45.92311" lon="5.74242">
        <ele>901.4</ele>
        <time>2026-05-13T11:21:44Z</time>
      </trkpt>
      <trkpt lat="45.9231" lon="5.74243">
        <ele>901.4</ele>
        <time>2026-05-13T11:21:45Z</time>
      </trkpt>
      <trkpt lat="45.92309" lon="5.74244">
        <ele>901.8</ele>
        <time>2026-05-13T11:21:46Z</time>
      </trkpt>
      <trkpt lat="45.92307" lon="5.74245">
        <ele>901.8</ele>
        <time>2026-05-13T11:21:47Z</time>
      </trkpt>
      <trkpt lat="45.92305" lon="5.74246">
        <ele>901.8</ele>
        <time>2026-05-13T11:21:48Z</time>
      </trkpt>
      <trkpt lat="45.92303" lon="5.74247">
        <ele>901.8</ele>
        <time>2026-05-13T11:21:49Z</time>
      </trkpt>
      <trkpt lat="45.92301" lon="5.74248">
        <ele>901.8</ele>
        <time>2026-05-13T11:21:50Z</time>
      </trkpt>
      <trkpt lat="45.92301" lon="5.74248">
        <ele>902.2</ele>
        <time>2026-05-13T11:21:51Z</time>
      </trkpt>
      <trkpt lat="45.92299" lon="5.74249">
        <ele>902.2</ele>
        <time>2026-05-13T11:21:52Z</time>
      </trkpt>
      <trkpt lat="45.92297" lon="5.7425">
        <ele>902.2</ele>
        <time>2026-05-13T11:21:53Z</time>
      </trkpt>
      <trkpt lat="45.92295" lon="5.74251">
        <ele>902.2</ele>
        <time>2026-05-13T11:21:54Z</time>
      </trkpt>
      <trkpt lat="45.92294" lon="5.74251">
        <ele>902.4</ele>
        <time>2026-05-13T11:21:55Z</time>
      </trkpt>
      <trkpt lat="45.92292" lon="5.74252">
        <ele>902.4</ele>
        <time>2026-05-13T11:21:56Z</time>
      </trkpt>
      <trkpt lat="45.92291" lon="5.74253">
        <ele>902.6</ele>
        <time>2026-05-13T11:21:57Z</time>
      </trkpt>
      <trkpt lat="45.92289" lon="5.74254">
        <ele>902.6</ele>
        <time>2026-05-13T11:21:58Z</time>
      </trkpt>
      <trkpt lat="45.92287" lon="5.74254">
        <ele>903</ele>
        <time>2026-05-13T11:21:59Z</time>
      </trkpt>
      <trkpt lat="45.92284" lon="5.74255">
        <ele>903</ele>
        <time>2026-05-13T11:22:00Z</time>
      </trkpt>
      <trkpt lat="45.92283" lon="5.74256">
        <ele>903.4</ele>
        <time>2026-05-13T11:22:01Z</time>
      </trkpt>
      <trkpt lat="45.92281" lon="5.74257">
        <ele>903.4</ele>
        <time>2026-05-13T11:22:02Z</time>
      </trkpt>
      <trkpt lat="45.92279" lon="5.74257">
        <ele>903.4</ele>
        <time>2026-05-13T11:22:03Z</time>
      </trkpt>
      <trkpt lat="45.92277" lon="5.74258">
        <ele>903.6</ele>
        <time>2026-05-13T11:22:04Z</time>
      </trkpt>
      <trkpt lat="45.92275" lon="5.74258">
        <ele>903.6</ele>
        <time>2026-05-13T11:22:05Z</time>
      </trkpt>
      <trkpt lat="45.92273" lon="5.74259">
        <ele>903.8</ele>
        <time>2026-05-13T11:22:06Z</time>
      </trkpt>
      <trkpt lat="45.92272" lon="5.74259">
        <ele>903.8</ele>
        <time>2026-05-13T11:22:07Z</time>
      </trkpt>
      <trkpt lat="45.92271" lon="5.74259">
        <ele>904.2</ele>
        <time>2026-05-13T11:22:08Z</time>
      </trkpt>
      <trkpt lat="45.9227" lon="5.7426">
        <ele>904.2</ele>
        <time>2026-05-13T11:22:09Z</time>
      </trkpt>
      <trkpt lat="45.92269" lon="5.7426">
        <ele>904.6</ele>
        <time>2026-05-13T11:22:10Z</time>
      </trkpt>
      <trkpt lat="45.92267" lon="5.74261">
        <ele>904.8</ele>
        <time>2026-05-13T11:22:11Z</time>
      </trkpt>
      <trkpt lat="45.92266" lon="5.74261">
        <ele>905</ele>
        <time>2026-05-13T11:22:12Z</time>
      </trkpt>
      <trkpt lat="45.92265" lon="5.74262">
        <ele>905.2</ele>
        <time>2026-05-13T11:22:13Z</time>
      </trkpt>
      <trkpt lat="45.92264" lon="5.74263">
        <ele>905.6</ele>
        <time>2026-05-13T11:22:14Z</time>
      </trkpt>
      <trkpt lat="45.92263" lon="5.74263">
        <ele>905.6</ele>
        <time>2026-05-13T11:22:15Z</time>
      </trkpt>
      <trkpt lat="45.92262" lon="5.74263">
        <ele>905.6</ele>
        <time>2026-05-13T11:22:16Z</time>
      </trkpt>
      <trkpt lat="45.9226" lon="5.74264">
        <ele>905.8</ele>
        <time>2026-05-13T11:22:17Z</time>
      </trkpt>
      <trkpt lat="45.92259" lon="5.74264">
        <ele>905.8</ele>
        <time>2026-05-13T11:22:18Z</time>
      </trkpt>
      <trkpt lat="45.92257" lon="5.74265">
        <ele>906</ele>
        <time>2026-05-13T11:22:19Z</time>
      </trkpt>
      <trkpt lat="45.92257" lon="5.74265">
        <ele>906.2</ele>
        <time>2026-05-13T11:22:20Z</time>
      </trkpt>
      <trkpt lat="45.92255" lon="5.74265">
        <ele>906.4</ele>
        <time>2026-05-13T11:22:21Z</time>
      </trkpt>
      <trkpt lat="45.92254" lon="5.74266">
        <ele>906.4</ele>
        <time>2026-05-13T11:22:22Z</time>
      </trkpt>
      <trkpt lat="45.92252" lon="5.74266">
        <ele>906.4</ele>
        <time>2026-05-13T11:22:23Z</time>
      </trkpt>
      <trkpt lat="45.92251" lon="5.74266">
        <ele>906.8</ele>
        <time>2026-05-13T11:22:24Z</time>
      </trkpt>
      <trkpt lat="45.9225" lon="5.74267">
        <ele>907</ele>
        <time>2026-05-13T11:22:25Z</time>
      </trkpt>
      <trkpt lat="45.92248" lon="5.74267">
        <ele>907.2</ele>
        <time>2026-05-13T11:22:26Z</time>
      </trkpt>
      <trkpt lat="45.92247" lon="5.74268">
        <ele>907.2</ele>
        <time>2026-05-13T11:22:27Z</time>
      </trkpt>
      <trkpt lat="45.92246" lon="5.74268">
        <ele>907.6</ele>
        <time>2026-05-13T11:22:28Z</time>
      </trkpt>
      <trkpt lat="45.92244" lon="5.74269">
        <ele>907.6</ele>
        <time>2026-05-13T11:22:29Z</time>
      </trkpt>
      <trkpt lat="45.92243" lon="5.7427">
        <ele>907.8</ele>
        <time>2026-05-13T11:22:30Z</time>
      </trkpt>
      <trkpt lat="45.92242" lon="5.74271">
        <ele>907.8</ele>
        <time>2026-05-13T11:22:31Z</time>
      </trkpt>
      <trkpt lat="45.9224" lon="5.74271">
        <ele>908</ele>
        <time>2026-05-13T11:22:32Z</time>
      </trkpt>
      <trkpt lat="45.92239" lon="5.74271">
        <ele>908</ele>
        <time>2026-05-13T11:22:33Z</time>
      </trkpt>
      <trkpt lat="45.92237" lon="5.74272">
        <ele>908.6</ele>
        <time>2026-05-13T11:22:34Z</time>
      </trkpt>
      <trkpt lat="45.92235" lon="5.74273">
        <ele>908.6</ele>
        <time>2026-05-13T11:22:35Z</time>
      </trkpt>
      <trkpt lat="45.92233" lon="5.74273">
        <ele>909</ele>
        <time>2026-05-13T11:22:36Z</time>
      </trkpt>
      <trkpt lat="45.92232" lon="5.74273">
        <ele>909.4</ele>
        <time>2026-05-13T11:22:37Z</time>
      </trkpt>
      <trkpt lat="45.92231" lon="5.74273">
        <ele>909.6</ele>
        <time>2026-05-13T11:22:38Z</time>
      </trkpt>
      <trkpt lat="45.9223" lon="5.74274">
        <ele>909.8</ele>
        <time>2026-05-13T11:22:39Z</time>
      </trkpt>
      <trkpt lat="45.92229" lon="5.74274">
        <ele>909.8</ele>
        <time>2026-05-13T11:22:40Z</time>
      </trkpt>
      <trkpt lat="45.92228" lon="5.74275">
        <ele>910</ele>
        <time>2026-05-13T11:22:41Z</time>
      </trkpt>
      <trkpt lat="45.92226" lon="5.74275">
        <ele>910</ele>
        <time>2026-05-13T11:22:42Z</time>
      </trkpt>
      <trkpt lat="45.92225" lon="5.74276">
        <ele>910.4</ele>
        <time>2026-05-13T11:22:43Z</time>
      </trkpt>
      <trkpt lat="45.92224" lon="5.74277">
        <ele>910.4</ele>
        <time>2026-05-13T11:22:44Z</time>
      </trkpt>
      <trkpt lat="45.92222" lon="5.74277">
        <ele>910.8</ele>
        <time>2026-05-13T11:22:45Z</time>
      </trkpt>
      <trkpt lat="45.92221" lon="5.74277">
        <ele>911</ele>
        <time>2026-05-13T11:22:46Z</time>
      </trkpt>
      <trkpt lat="45.92219" lon="5.74277">
        <ele>911</ele>
        <time>2026-05-13T11:22:47Z</time>
      </trkpt>
      <trkpt lat="45.92218" lon="5.74277">
        <ele>911</ele>
        <time>2026-05-13T11:22:48Z</time>
      </trkpt>
      <trkpt lat="45.92216" lon="5.74278">
        <ele>911.2</ele>
        <time>2026-05-13T11:22:49Z</time>
      </trkpt>
      <trkpt lat="45.92215" lon="5.74278">
        <ele>911.4</ele>
        <time>2026-05-13T11:22:50Z</time>
      </trkpt>
      <trkpt lat="45.92213" lon="5.74279">
        <ele>911.4</ele>
        <time>2026-05-13T11:22:51Z</time>
      </trkpt>
      <trkpt lat="45.92212" lon="5.7428">
        <ele>911.4</ele>
        <time>2026-05-13T11:22:52Z</time>
      </trkpt>
      <trkpt lat="45.9221" lon="5.74281">
        <ele>911.6</ele>
        <time>2026-05-13T11:22:53Z</time>
      </trkpt>
      <trkpt lat="45.92209" lon="5.74282">
        <ele>911.6</ele>
        <time>2026-05-13T11:22:54Z</time>
      </trkpt>
      <trkpt lat="45.92208" lon="5.74283">
        <ele>911.6</ele>
        <time>2026-05-13T11:22:55Z</time>
      </trkpt>
      <trkpt lat="45.92206" lon="5.74284">
        <ele>912</ele>
        <time>2026-05-13T11:22:56Z</time>
      </trkpt>
      <trkpt lat="45.92205" lon="5.74284">
        <ele>912</ele>
        <time>2026-05-13T11:22:57Z</time>
      </trkpt>
      <trkpt lat="45.92203" lon="5.74285">
        <ele>912</ele>
        <time>2026-05-13T11:22:58Z</time>
      </trkpt>
      <trkpt lat="45.92202" lon="5.74286">
        <ele>912.2</ele>
        <time>2026-05-13T11:22:59Z</time>
      </trkpt>
      <trkpt lat="45.92202" lon="5.74286">
        <ele>912.2</ele>
        <time>2026-05-13T11:23:00Z</time>
      </trkpt>
      <trkpt lat="45.92202" lon="5.74287">
        <ele>912.4</ele>
        <time>2026-05-13T11:23:01Z</time>
      </trkpt>
      <trkpt lat="45.92201" lon="5.74288">
        <ele>912.8</ele>
        <time>2026-05-13T11:23:02Z</time>
      </trkpt>
      <trkpt lat="45.922" lon="5.74289">
        <ele>913</ele>
        <time>2026-05-13T11:23:03Z</time>
      </trkpt>
      <trkpt lat="45.92198" lon="5.7429">
        <ele>913</ele>
        <time>2026-05-13T11:23:04Z</time>
      </trkpt>
      <trkpt lat="45.92197" lon="5.74291">
        <ele>913.4</ele>
        <time>2026-05-13T11:23:05Z</time>
      </trkpt>
      <trkpt lat="45.92196" lon="5.74292">
        <ele>913.6</ele>
        <time>2026-05-13T11:23:06Z</time>
      </trkpt>
      <trkpt lat="45.92195" lon="5.74293">
        <ele>913.6</ele>
        <time>2026-05-13T11:23:07Z</time>
      </trkpt>
      <trkpt lat="45.92194" lon="5.74294">
        <ele>913.8</ele>
        <time>2026-05-13T11:23:08Z</time>
      </trkpt>
      <trkpt lat="45.92192" lon="5.74295">
        <ele>913.8</ele>
        <time>2026-05-13T11:23:09Z</time>
      </trkpt>
      <trkpt lat="45.92191" lon="5.74295">
        <ele>913.8</ele>
        <time>2026-05-13T11:23:10Z</time>
      </trkpt>
      <trkpt lat="45.9219" lon="5.74297">
        <ele>914.2</ele>
        <time>2026-05-13T11:23:11Z</time>
      </trkpt>
      <trkpt lat="45.92189" lon="5.74298">
        <ele>914.2</ele>
        <time>2026-05-13T11:23:12Z</time>
      </trkpt>
      <trkpt lat="45.92188" lon="5.74299">
        <ele>914.6</ele>
        <time>2026-05-13T11:23:13Z</time>
      </trkpt>
      <trkpt lat="45.92187" lon="5.74301">
        <ele>914.6</ele>
        <time>2026-05-13T11:23:14Z</time>
      </trkpt>
      <trkpt lat="45.92186" lon="5.74302">
        <ele>914.6</ele>
        <time>2026-05-13T11:23:15Z</time>
      </trkpt>
      <trkpt lat="45.92185" lon="5.74303">
        <ele>914.8</ele>
        <time>2026-05-13T11:23:16Z</time>
      </trkpt>
      <trkpt lat="45.92184" lon="5.74304">
        <ele>915</ele>
        <time>2026-05-13T11:23:17Z</time>
      </trkpt>
      <trkpt lat="45.92182" lon="5.74305">
        <ele>915</ele>
        <time>2026-05-13T11:23:18Z</time>
      </trkpt>
      <trkpt lat="45.92181" lon="5.74306">
        <ele>915.4</ele>
        <time>2026-05-13T11:23:19Z</time>
      </trkpt>
      <trkpt lat="45.92179" lon="5.74308">
        <ele>915.4</ele>
        <time>2026-05-13T11:23:20Z</time>
      </trkpt>
      <trkpt lat="45.92178" lon="5.7431">
        <ele>915.6</ele>
        <time>2026-05-13T11:23:21Z</time>
      </trkpt>
      <trkpt lat="45.92176" lon="5.74311">
        <ele>915.8</ele>
        <time>2026-05-13T11:23:22Z</time>
      </trkpt>
      <trkpt lat="45.92175" lon="5.74312">
        <ele>915.8</ele>
        <time>2026-05-13T11:23:23Z</time>
      </trkpt>
      <trkpt lat="45.92174" lon="5.74314">
        <ele>916.2</ele>
        <time>2026-05-13T11:23:24Z</time>
      </trkpt>
      <trkpt lat="45.92172" lon="5.74316">
        <ele>916.2</ele>
        <time>2026-05-13T11:23:25Z</time>
      </trkpt>
      <trkpt lat="45.92171" lon="5.74317">
        <ele>916.6</ele>
        <time>2026-05-13T11:23:26Z</time>
      </trkpt>
      <trkpt lat="45.9217" lon="5.74319">
        <ele>916.8</ele>
        <time>2026-05-13T11:23:27Z</time>
      </trkpt>
      <trkpt lat="45.92169" lon="5.7432">
        <ele>917</ele>
        <time>2026-05-13T11:23:28Z</time>
      </trkpt>
      <trkpt lat="45.92168" lon="5.74321">
        <ele>917</ele>
        <time>2026-05-13T11:23:29Z</time>
      </trkpt>
      <trkpt lat="45.92166" lon="5.74322">
        <ele>917.4</ele>
        <time>2026-05-13T11:23:30Z</time>
      </trkpt>
      <trkpt lat="45.92165" lon="5.74324">
        <ele>917.4</ele>
        <time>2026-05-13T11:23:31Z</time>
      </trkpt>
      <trkpt lat="45.92164" lon="5.74325">
        <ele>917.6</ele>
        <time>2026-05-13T11:23:32Z</time>
      </trkpt>
      <trkpt lat="45.92163" lon="5.74326">
        <ele>917.6</ele>
        <time>2026-05-13T11:23:33Z</time>
      </trkpt>
      <trkpt lat="45.92162" lon="5.74327">
        <ele>917.8</ele>
        <time>2026-05-13T11:23:34Z</time>
      </trkpt>
      <trkpt lat="45.9216" lon="5.74328">
        <ele>918.2</ele>
        <time>2026-05-13T11:23:35Z</time>
      </trkpt>
      <trkpt lat="45.92158" lon="5.7433">
        <ele>918.2</ele>
        <time>2026-05-13T11:23:36Z</time>
      </trkpt>
      <trkpt lat="45.92157" lon="5.74331">
        <ele>918.2</ele>
        <time>2026-05-13T11:23:37Z</time>
      </trkpt>
      <trkpt lat="45.92155" lon="5.74332">
        <ele>918.4</ele>
        <time>2026-05-13T11:23:38Z</time>
      </trkpt>
      <trkpt lat="45.92154" lon="5.74333">
        <ele>918.4</ele>
        <time>2026-05-13T11:23:39Z</time>
      </trkpt>
      <trkpt lat="45.92152" lon="5.74334">
        <ele>918.8</ele>
        <time>2026-05-13T11:23:40Z</time>
      </trkpt>
      <trkpt lat="45.92151" lon="5.74334">
        <ele>919</ele>
        <time>2026-05-13T11:23:41Z</time>
      </trkpt>
      <trkpt lat="45.9215" lon="5.74335">
        <ele>919</ele>
        <time>2026-05-13T11:23:42Z</time>
      </trkpt>
      <trkpt lat="45.92149" lon="5.74336">
        <ele>919.2</ele>
        <time>2026-05-13T11:23:43Z</time>
      </trkpt>
      <trkpt lat="45.92148" lon="5.74337">
        <ele>919.2</ele>
        <time>2026-05-13T11:23:44Z</time>
      </trkpt>
      <trkpt lat="45.92147" lon="5.74338">
        <ele>919.2</ele>
        <time>2026-05-13T11:23:45Z</time>
      </trkpt>
      <trkpt lat="45.92146" lon="5.74339">
        <ele>919.6</ele>
        <time>2026-05-13T11:23:46Z</time>
      </trkpt>
      <trkpt lat="45.92145" lon="5.7434">
        <ele>919.6</ele>
        <time>2026-05-13T11:23:47Z</time>
      </trkpt>
      <trkpt lat="45.92144" lon="5.74341">
        <ele>919.8</ele>
        <time>2026-05-13T11:23:48Z</time>
      </trkpt>
      <trkpt lat="45.92143" lon="5.74342">
        <ele>920</ele>
        <time>2026-05-13T11:23:49Z</time>
      </trkpt>
      <trkpt lat="45.92142" lon="5.74344">
        <ele>920</ele>
        <time>2026-05-13T11:23:50Z</time>
      </trkpt>
      <trkpt lat="45.92142" lon="5.74345">
        <ele>920.4</ele>
        <time>2026-05-13T11:23:51Z</time>
      </trkpt>
      <trkpt lat="45.92141" lon="5.74346">
        <ele>920.6</ele>
        <time>2026-05-13T11:23:52Z</time>
      </trkpt>
      <trkpt lat="45.9214" lon="5.74348">
        <ele>920.8</ele>
        <time>2026-05-13T11:23:53Z</time>
      </trkpt>
      <trkpt lat="45.92138" lon="5.74349">
        <ele>920.8</ele>
        <time>2026-05-13T11:23:54Z</time>
      </trkpt>
      <trkpt lat="45.92137" lon="5.7435">
        <ele>920.8</ele>
        <time>2026-05-13T11:23:55Z</time>
      </trkpt>
      <trkpt lat="45.92135" lon="5.74351">
        <ele>921.2</ele>
        <time>2026-05-13T11:23:56Z</time>
      </trkpt>
      <trkpt lat="45.92135" lon="5.74352">
        <ele>921.4</ele>
        <time>2026-05-13T11:23:57Z</time>
      </trkpt>
      <trkpt lat="45.92134" lon="5.74353">
        <ele>921.4</ele>
        <time>2026-05-13T11:23:58Z</time>
      </trkpt>
      <trkpt lat="45.92132" lon="5.74354">
        <ele>921.6</ele>
        <time>2026-05-13T11:23:59Z</time>
      </trkpt>
      <trkpt lat="45.92131" lon="5.74355">
        <ele>921.6</ele>
        <time>2026-05-13T11:24:00Z</time>
      </trkpt>
      <trkpt lat="45.9213" lon="5.74356">
        <ele>921.6</ele>
        <time>2026-05-13T11:24:01Z</time>
      </trkpt>
      <trkpt lat="45.92129" lon="5.74357">
        <ele>922</ele>
        <time>2026-05-13T11:24:02Z</time>
      </trkpt>
      <trkpt lat="45.92127" lon="5.74358">
        <ele>922.2</ele>
        <time>2026-05-13T11:24:03Z</time>
      </trkpt>
      <trkpt lat="45.92126" lon="5.74359">
        <ele>922.2</ele>
        <time>2026-05-13T11:24:04Z</time>
      </trkpt>
      <trkpt lat="45.92125" lon="5.7436">
        <ele>922.6</ele>
        <time>2026-05-13T11:24:05Z</time>
      </trkpt>
      <trkpt lat="45.92123" lon="5.74361">
        <ele>922.8</ele>
        <time>2026-05-13T11:24:06Z</time>
      </trkpt>
      <trkpt lat="45.92122" lon="5.74363">
        <ele>923</ele>
        <time>2026-05-13T11:24:07Z</time>
      </trkpt>
      <trkpt lat="45.92121" lon="5.74363">
        <ele>923</ele>
        <time>2026-05-13T11:24:08Z</time>
      </trkpt>
      <trkpt lat="45.9212" lon="5.74364">
        <ele>923.2</ele>
        <time>2026-05-13T11:24:09Z</time>
      </trkpt>
      <trkpt lat="45.92118" lon="5.74365">
        <ele>923.6</ele>
        <time>2026-05-13T11:24:10Z</time>
      </trkpt>
      <trkpt lat="45.92117" lon="5.74366">
        <ele>923.8</ele>
        <time>2026-05-13T11:24:11Z</time>
      </trkpt>
      <trkpt lat="45.92116" lon="5.74367">
        <ele>924</ele>
        <time>2026-05-13T11:24:12Z</time>
      </trkpt>
      <trkpt lat="45.92115" lon="5.74368">
        <ele>924.2</ele>
        <time>2026-05-13T11:24:13Z</time>
      </trkpt>
      <trkpt lat="45.92114" lon="5.74369">
        <ele>924.4</ele>
        <time>2026-05-13T11:24:14Z</time>
      </trkpt>
      <trkpt lat="45.92113" lon="5.74371">
        <ele>924.4</ele>
        <time>2026-05-13T11:24:15Z</time>
      </trkpt>
      <trkpt lat="45.92112" lon="5.74372">
        <ele>924.4</ele>
        <time>2026-05-13T11:24:16Z</time>
      </trkpt>
      <trkpt lat="45.92111" lon="5.74374">
        <ele>925</ele>
        <time>2026-05-13T11:24:17Z</time>
      </trkpt>
      <trkpt lat="45.9211" lon="5.74375">
        <ele>925</ele>
        <time>2026-05-13T11:24:18Z</time>
      </trkpt>
      <trkpt lat="45.92109" lon="5.74376">
        <ele>925.2</ele>
        <time>2026-05-13T11:24:19Z</time>
      </trkpt>
      <trkpt lat="45.92108" lon="5.74378">
        <ele>925.2</ele>
        <time>2026-05-13T11:24:20Z</time>
      </trkpt>
      <trkpt lat="45.92107" lon="5.74379">
        <ele>925.4</ele>
        <time>2026-05-13T11:24:21Z</time>
      </trkpt>
      <trkpt lat="45.92106" lon="5.7438">
        <ele>925.4</ele>
        <time>2026-05-13T11:24:22Z</time>
      </trkpt>
      <trkpt lat="45.92104" lon="5.74381">
        <ele>925.4</ele>
        <time>2026-05-13T11:24:23Z</time>
      </trkpt>
      <trkpt lat="45.92103" lon="5.74382">
        <ele>925.8</ele>
        <time>2026-05-13T11:24:24Z</time>
      </trkpt>
      <trkpt lat="45.92102" lon="5.74383">
        <ele>926.2</ele>
        <time>2026-05-13T11:24:25Z</time>
      </trkpt>
      <trkpt lat="45.92101" lon="5.74383">
        <ele>926.2</ele>
        <time>2026-05-13T11:24:26Z</time>
      </trkpt>
      <trkpt lat="45.921" lon="5.74385">
        <ele>926.4</ele>
        <time>2026-05-13T11:24:27Z</time>
      </trkpt>
      <trkpt lat="45.92098" lon="5.74386">
        <ele>926.4</ele>
        <time>2026-05-13T11:24:28Z</time>
      </trkpt>
      <trkpt lat="45.92096" lon="5.74387">
        <ele>926.4</ele>
        <time>2026-05-13T11:24:29Z</time>
      </trkpt>
      <trkpt lat="45.92095" lon="5.74388">
        <ele>926.8</ele>
        <time>2026-05-13T11:24:30Z</time>
      </trkpt>
      <trkpt lat="45.92093" lon="5.74389">
        <ele>927</ele>
        <time>2026-05-13T11:24:31Z</time>
      </trkpt>
      <trkpt lat="45.92091" lon="5.7439">
        <ele>927</ele>
        <time>2026-05-13T11:24:32Z</time>
      </trkpt>
      <trkpt lat="45.9209" lon="5.74391">
        <ele>927</ele>
        <time>2026-05-13T11:24:33Z</time>
      </trkpt>
      <trkpt lat="45.92088" lon="5.74392">
        <ele>927.2</ele>
        <time>2026-05-13T11:24:34Z</time>
      </trkpt>
      <trkpt lat="45.92087" lon="5.74393">
        <ele>927.2</ele>
        <time>2026-05-13T11:24:35Z</time>
      </trkpt>
      <trkpt lat="45.92086" lon="5.74394">
        <ele>927.6</ele>
        <time>2026-05-13T11:24:36Z</time>
      </trkpt>
      <trkpt lat="45.92084" lon="5.74394">
        <ele>927.6</ele>
        <time>2026-05-13T11:24:37Z</time>
      </trkpt>
      <trkpt lat="45.92083" lon="5.74395">
        <ele>928</ele>
        <time>2026-05-13T11:24:38Z</time>
      </trkpt>
      <trkpt lat="45.92082" lon="5.74396">
        <ele>928</ele>
        <time>2026-05-13T11:24:39Z</time>
      </trkpt>
      <trkpt lat="45.92081" lon="5.74397">
        <ele>928.4</ele>
        <time>2026-05-13T11:24:40Z</time>
      </trkpt>
      <trkpt lat="45.9208" lon="5.74398">
        <ele>928.6</ele>
        <time>2026-05-13T11:24:41Z</time>
      </trkpt>
      <trkpt lat="45.92079" lon="5.74399">
        <ele>928.6</ele>
        <time>2026-05-13T11:24:42Z</time>
      </trkpt>
      <trkpt lat="45.92077" lon="5.744">
        <ele>929</ele>
        <time>2026-05-13T11:24:43Z</time>
      </trkpt>
      <trkpt lat="45.92076" lon="5.744">
        <ele>929</ele>
        <time>2026-05-13T11:24:44Z</time>
      </trkpt>
      <trkpt lat="45.92074" lon="5.74401">
        <ele>929.2</ele>
        <time>2026-05-13T11:24:45Z</time>
      </trkpt>
      <trkpt lat="45.92073" lon="5.74401">
        <ele>929.2</ele>
        <time>2026-05-13T11:24:46Z</time>
      </trkpt>
      <trkpt lat="45.92072" lon="5.74402">
        <ele>929.6</ele>
        <time>2026-05-13T11:24:47Z</time>
      </trkpt>
      <trkpt lat="45.92071" lon="5.74403">
        <ele>929.6</ele>
        <time>2026-05-13T11:24:48Z</time>
      </trkpt>
      <trkpt lat="45.92071" lon="5.74403">
        <ele>930</ele>
        <time>2026-05-13T11:24:49Z</time>
      </trkpt>
      <trkpt lat="45.9207" lon="5.74405">
        <ele>930</ele>
        <time>2026-05-13T11:24:50Z</time>
      </trkpt>
      <trkpt lat="45.92069" lon="5.74406">
        <ele>930.2</ele>
        <time>2026-05-13T11:24:51Z</time>
      </trkpt>
      <trkpt lat="45.92068" lon="5.74406">
        <ele>930.4</ele>
        <time>2026-05-13T11:24:52Z</time>
      </trkpt>
      <trkpt lat="45.92067" lon="5.74407">
        <ele>930.8</ele>
        <time>2026-05-13T11:24:53Z</time>
      </trkpt>
      <trkpt lat="45.92066" lon="5.74408">
        <ele>930.8</ele>
        <time>2026-05-13T11:24:54Z</time>
      </trkpt>
      <trkpt lat="45.92065" lon="5.74409">
        <ele>931</ele>
        <time>2026-05-13T11:24:55Z</time>
      </trkpt>
      <trkpt lat="45.92064" lon="5.7441">
        <ele>931.2</ele>
        <time>2026-05-13T11:24:56Z</time>
      </trkpt>
      <trkpt lat="45.92062" lon="5.74411">
        <ele>931.6</ele>
        <time>2026-05-13T11:24:57Z</time>
      </trkpt>
      <trkpt lat="45.92061" lon="5.74412">
        <ele>931.8</ele>
        <time>2026-05-13T11:24:58Z</time>
      </trkpt>
      <trkpt lat="45.9206" lon="5.74412">
        <ele>932.2</ele>
        <time>2026-05-13T11:24:59Z</time>
      </trkpt>
      <trkpt lat="45.92059" lon="5.74414">
        <ele>932.2</ele>
        <time>2026-05-13T11:25:00Z</time>
      </trkpt>
      <trkpt lat="45.92057" lon="5.74415">
        <ele>932.6</ele>
        <time>2026-05-13T11:25:01Z</time>
      </trkpt>
      <trkpt lat="45.92056" lon="5.74416">
        <ele>932.6</ele>
        <time>2026-05-13T11:25:02Z</time>
      </trkpt>
      <trkpt lat="45.92055" lon="5.74417">
        <ele>932.6</ele>
        <time>2026-05-13T11:25:03Z</time>
      </trkpt>
      <trkpt lat="45.92054" lon="5.74418">
        <ele>933</ele>
        <time>2026-05-13T11:25:04Z</time>
      </trkpt>
      <trkpt lat="45.92053" lon="5.74419">
        <ele>933.2</ele>
        <time>2026-05-13T11:25:05Z</time>
      </trkpt>
      <trkpt lat="45.92051" lon="5.74419">
        <ele>933.2</ele>
        <time>2026-05-13T11:25:06Z</time>
      </trkpt>
      <trkpt lat="45.9205" lon="5.7442">
        <ele>933.4</ele>
        <time>2026-05-13T11:25:07Z</time>
      </trkpt>
      <trkpt lat="45.92049" lon="5.74421">
        <ele>933.6</ele>
        <time>2026-05-13T11:25:08Z</time>
      </trkpt>
      <trkpt lat="45.92048" lon="5.74422">
        <ele>933.6</ele>
        <time>2026-05-13T11:25:09Z</time>
      </trkpt>
      <trkpt lat="45.92047" lon="5.74423">
        <ele>934</ele>
        <time>2026-05-13T11:25:10Z</time>
      </trkpt>
      <trkpt lat="45.92046" lon="5.74424">
        <ele>934</ele>
        <time>2026-05-13T11:25:11Z</time>
      </trkpt>
      <trkpt lat="45.92045" lon="5.74425">
        <ele>934.2</ele>
        <time>2026-05-13T11:25:12Z</time>
      </trkpt>
      <trkpt lat="45.92045" lon="5.74426">
        <ele>934.4</ele>
        <time>2026-05-13T11:25:13Z</time>
      </trkpt>
      <trkpt lat="45.92043" lon="5.74428">
        <ele>934.4</ele>
        <time>2026-05-13T11:25:14Z</time>
      </trkpt>
      <trkpt lat="45.92042" lon="5.74429">
        <ele>934.8</ele>
        <time>2026-05-13T11:25:15Z</time>
      </trkpt>
      <trkpt lat="45.92041" lon="5.74431">
        <ele>935</ele>
        <time>2026-05-13T11:25:16Z</time>
      </trkpt>
      <trkpt lat="45.92041" lon="5.74434">
        <ele>935.2</ele>
        <time>2026-05-13T11:25:17Z</time>
      </trkpt>
      <trkpt lat="45.92041" lon="5.74436">
        <ele>935.6</ele>
        <time>2026-05-13T11:25:18Z</time>
      </trkpt>
      <trkpt lat="45.9204" lon="5.74438">
        <ele>935.6</ele>
        <time>2026-05-13T11:25:19Z</time>
      </trkpt>
      <trkpt lat="45.92039" lon="5.7444">
        <ele>935.8</ele>
        <time>2026-05-13T11:25:20Z</time>
      </trkpt>
      <trkpt lat="45.92038" lon="5.74441">
        <ele>935.8</ele>
        <time>2026-05-13T11:25:21Z</time>
      </trkpt>
      <trkpt lat="45.92037" lon="5.74443">
        <ele>936</ele>
        <time>2026-05-13T11:25:22Z</time>
      </trkpt>
      <trkpt lat="45.92035" lon="5.74444">
        <ele>936</ele>
        <time>2026-05-13T11:25:23Z</time>
      </trkpt>
      <trkpt lat="45.92033" lon="5.74445">
        <ele>936.4</ele>
        <time>2026-05-13T11:25:24Z</time>
      </trkpt>
      <trkpt lat="45.92032" lon="5.74446">
        <ele>936.4</ele>
        <time>2026-05-13T11:25:25Z</time>
      </trkpt>
      <trkpt lat="45.92031" lon="5.74447">
        <ele>936.6</ele>
        <time>2026-05-13T11:25:26Z</time>
      </trkpt>
      <trkpt lat="45.9203" lon="5.74448">
        <ele>936.6</ele>
        <time>2026-05-13T11:25:27Z</time>
      </trkpt>
      <trkpt lat="45.92029" lon="5.7445">
        <ele>937</ele>
        <time>2026-05-13T11:25:28Z</time>
      </trkpt>
      <trkpt lat="45.92028" lon="5.74451">
        <ele>937.2</ele>
        <time>2026-05-13T11:25:29Z</time>
      </trkpt>
      <trkpt lat="45.92028" lon="5.74452">
        <ele>937.2</ele>
        <time>2026-05-13T11:25:30Z</time>
      </trkpt>
      <trkpt lat="45.92027" lon="5.74453">
        <ele>937.6</ele>
        <time>2026-05-13T11:25:31Z</time>
      </trkpt>
      <trkpt lat="45.92026" lon="5.74454">
        <ele>937.8</ele>
        <time>2026-05-13T11:25:32Z</time>
      </trkpt>
      <trkpt lat="45.92025" lon="5.74456">
        <ele>937.8</ele>
        <time>2026-05-13T11:25:33Z</time>
      </trkpt>
      <trkpt lat="45.92024" lon="5.74458">
        <ele>938.2</ele>
        <time>2026-05-13T11:25:34Z</time>
      </trkpt>
      <trkpt lat="45.92024" lon="5.74458">
        <ele>938.4</ele>
        <time>2026-05-13T11:25:35Z</time>
      </trkpt>
      <trkpt lat="45.92023" lon="5.74458">
        <ele>938.4</ele>
        <time>2026-05-13T11:25:36Z</time>
      </trkpt>
      <trkpt lat="45.92022" lon="5.7446">
        <ele>938.4</ele>
        <time>2026-05-13T11:25:37Z</time>
      </trkpt>
      <trkpt lat="45.9202" lon="5.74461">
        <ele>938.8</ele>
        <time>2026-05-13T11:25:38Z</time>
      </trkpt>
      <trkpt lat="45.92019" lon="5.74462">
        <ele>938.8</ele>
        <time>2026-05-13T11:25:39Z</time>
      </trkpt>
      <trkpt lat="45.92018" lon="5.74462">
        <ele>939</ele>
        <time>2026-05-13T11:25:40Z</time>
      </trkpt>
      <trkpt lat="45.92017" lon="5.74463">
        <ele>939</ele>
        <time>2026-05-13T11:25:41Z</time>
      </trkpt>
      <trkpt lat="45.92015" lon="5.74463">
        <ele>939</ele>
        <time>2026-05-13T11:25:42Z</time>
      </trkpt>
      <trkpt lat="45.92013" lon="5.74464">
        <ele>939.4</ele>
        <time>2026-05-13T11:25:43Z</time>
      </trkpt>
      <trkpt lat="45.92012" lon="5.74466">
        <ele>939.4</ele>
        <time>2026-05-13T11:25:44Z</time>
      </trkpt>
      <trkpt lat="45.92012" lon="5.74467">
        <ele>939.8</ele>
        <time>2026-05-13T11:25:45Z</time>
      </trkpt>
      <trkpt lat="45.92012" lon="5.74469">
        <ele>940</ele>
        <time>2026-05-13T11:25:46Z</time>
      </trkpt>
      <trkpt lat="45.92012" lon="5.7447">
        <ele>940</ele>
        <time>2026-05-13T11:25:47Z</time>
      </trkpt>
      <trkpt lat="45.92012" lon="5.74471">
        <ele>940.4</ele>
        <time>2026-05-13T11:25:48Z</time>
      </trkpt>
      <trkpt lat="45.92011" lon="5.74473">
        <ele>940.4</ele>
        <time>2026-05-13T11:25:49Z</time>
      </trkpt>
      <trkpt lat="45.92011" lon="5.74474">
        <ele>940.6</ele>
        <time>2026-05-13T11:25:50Z</time>
      </trkpt>
      <trkpt lat="45.9201" lon="5.74475">
        <ele>940.6</ele>
        <time>2026-05-13T11:25:51Z</time>
      </trkpt>
      <trkpt lat="45.92008" lon="5.74477">
        <ele>941</ele>
        <time>2026-05-13T11:25:52Z</time>
      </trkpt>
      <trkpt lat="45.92006" lon="5.74478">
        <ele>941.2</ele>
        <time>2026-05-13T11:25:53Z</time>
      </trkpt>
      <trkpt lat="45.92005" lon="5.7448">
        <ele>941.2</ele>
        <time>2026-05-13T11:25:54Z</time>
      </trkpt>
      <trkpt lat="45.92004" lon="5.74481">
        <ele>941.8</ele>
        <time>2026-05-13T11:25:55Z</time>
      </trkpt>
      <trkpt lat="45.92002" lon="5.74482">
        <ele>942</ele>
        <time>2026-05-13T11:25:56Z</time>
      </trkpt>
      <trkpt lat="45.92001" lon="5.74483">
        <ele>942</ele>
        <time>2026-05-13T11:25:57Z</time>
      </trkpt>
      <trkpt lat="45.92" lon="5.74485">
        <ele>942.4</ele>
        <time>2026-05-13T11:25:58Z</time>
      </trkpt>
      <trkpt lat="45.92" lon="5.74486">
        <ele>942.6</ele>
        <time>2026-05-13T11:25:59Z</time>
      </trkpt>
      <trkpt lat="45.91999" lon="5.74488">
        <ele>942.8</ele>
        <time>2026-05-13T11:26:00Z</time>
      </trkpt>
      <trkpt lat="45.91998" lon="5.74489">
        <ele>942.8</ele>
        <time>2026-05-13T11:26:01Z</time>
      </trkpt>
      <trkpt lat="45.91997" lon="5.74491">
        <ele>943.2</ele>
        <time>2026-05-13T11:26:02Z</time>
      </trkpt>
      <trkpt lat="45.91996" lon="5.74492">
        <ele>943.2</ele>
        <time>2026-05-13T11:26:03Z</time>
      </trkpt>
      <trkpt lat="45.91995" lon="5.74494">
        <ele>943.6</ele>
        <time>2026-05-13T11:26:04Z</time>
      </trkpt>
      <trkpt lat="45.91994" lon="5.74495">
        <ele>943.6</ele>
        <time>2026-05-13T11:26:05Z</time>
      </trkpt>
      <trkpt lat="45.91994" lon="5.74496">
        <ele>944</ele>
        <time>2026-05-13T11:26:06Z</time>
      </trkpt>
      <trkpt lat="45.91994" lon="5.74498">
        <ele>944</ele>
        <time>2026-05-13T11:26:07Z</time>
      </trkpt>
      <trkpt lat="45.91993" lon="5.745">
        <ele>944</ele>
        <time>2026-05-13T11:26:08Z</time>
      </trkpt>
      <trkpt lat="45.91992" lon="5.74501">
        <ele>944.2</ele>
        <time>2026-05-13T11:26:09Z</time>
      </trkpt>
      <trkpt lat="45.91991" lon="5.74502">
        <ele>944.2</ele>
        <time>2026-05-13T11:26:10Z</time>
      </trkpt>
      <trkpt lat="45.9199" lon="5.74504">
        <ele>944.6</ele>
        <time>2026-05-13T11:26:11Z</time>
      </trkpt>
      <trkpt lat="45.91989" lon="5.74505">
        <ele>944.6</ele>
        <time>2026-05-13T11:26:12Z</time>
      </trkpt>
      <trkpt lat="45.91987" lon="5.74506">
        <ele>944.8</ele>
        <time>2026-05-13T11:26:13Z</time>
      </trkpt>
      <trkpt lat="45.91986" lon="5.74508">
        <ele>944.8</ele>
        <time>2026-05-13T11:26:14Z</time>
      </trkpt>
      <trkpt lat="45.91985" lon="5.74509">
        <ele>944.8</ele>
        <time>2026-05-13T11:26:15Z</time>
      </trkpt>
      <trkpt lat="45.91984" lon="5.7451">
        <ele>945.2</ele>
        <time>2026-05-13T11:26:16Z</time>
      </trkpt>
      <trkpt lat="45.91984" lon="5.74512">
        <ele>945.4</ele>
        <time>2026-05-13T11:26:17Z</time>
      </trkpt>
      <trkpt lat="45.91984" lon="5.74513">
        <ele>945.6</ele>
        <time>2026-05-13T11:26:18Z</time>
      </trkpt>
      <trkpt lat="45.91984" lon="5.74514">
        <ele>945.8</ele>
        <time>2026-05-13T11:26:19Z</time>
      </trkpt>
      <trkpt lat="45.91983" lon="5.74515">
        <ele>946</ele>
        <time>2026-05-13T11:26:20Z</time>
      </trkpt>
      <trkpt lat="45.91981" lon="5.74517">
        <ele>946</ele>
        <time>2026-05-13T11:26:21Z</time>
      </trkpt>
      <trkpt lat="45.9198" lon="5.74519">
        <ele>946.4</ele>
        <time>2026-05-13T11:26:22Z</time>
      </trkpt>
      <trkpt lat="45.91979" lon="5.7452">
        <ele>946.4</ele>
        <time>2026-05-13T11:26:23Z</time>
      </trkpt>
      <trkpt lat="45.91978" lon="5.74522">
        <ele>946.6</ele>
        <time>2026-05-13T11:26:24Z</time>
      </trkpt>
      <trkpt lat="45.91977" lon="5.74523">
        <ele>947</ele>
        <time>2026-05-13T11:26:25Z</time>
      </trkpt>
      <trkpt lat="45.91976" lon="5.74525">
        <ele>947</ele>
        <time>2026-05-13T11:26:26Z</time>
      </trkpt>
      <trkpt lat="45.91975" lon="5.74526">
        <ele>947</ele>
        <time>2026-05-13T11:26:27Z</time>
      </trkpt>
      <trkpt lat="45.91974" lon="5.74527">
        <ele>947.2</ele>
        <time>2026-05-13T11:26:28Z</time>
      </trkpt>
      <trkpt lat="45.91974" lon="5.74528">
        <ele>947.2</ele>
        <time>2026-05-13T11:26:29Z</time>
      </trkpt>
      <trkpt lat="45.91973" lon="5.74529">
        <ele>947.2</ele>
        <time>2026-05-13T11:26:30Z</time>
      </trkpt>
      <trkpt lat="45.91973" lon="5.74531">
        <ele>947.6</ele>
        <time>2026-05-13T11:26:31Z</time>
      </trkpt>
      <trkpt lat="45.91972" lon="5.74533">
        <ele>947.6</ele>
        <time>2026-05-13T11:26:32Z</time>
      </trkpt>
      <trkpt lat="45.91972" lon="5.74535">
        <ele>947.8</ele>
        <time>2026-05-13T11:26:33Z</time>
      </trkpt>
      <trkpt lat="45.91971" lon="5.74536">
        <ele>947.8</ele>
        <time>2026-05-13T11:26:34Z</time>
      </trkpt>
      <trkpt lat="45.9197" lon="5.74537">
        <ele>948</ele>
        <time>2026-05-13T11:26:35Z</time>
      </trkpt>
      <trkpt lat="45.91969" lon="5.74539">
        <ele>948.2</ele>
        <time>2026-05-13T11:26:36Z</time>
      </trkpt>
      <trkpt lat="45.91968" lon="5.7454">
        <ele>948.2</ele>
        <time>2026-05-13T11:26:37Z</time>
      </trkpt>
      <trkpt lat="45.91966" lon="5.74541">
        <ele>948.6</ele>
        <time>2026-05-13T11:26:38Z</time>
      </trkpt>
      <trkpt lat="45.91965" lon="5.74543">
        <ele>948.6</ele>
        <time>2026-05-13T11:26:39Z</time>
      </trkpt>
      <trkpt lat="45.91965" lon="5.74545">
        <ele>948.6</ele>
        <time>2026-05-13T11:26:40Z</time>
      </trkpt>
      <trkpt lat="45.91964" lon="5.74547">
        <ele>949</ele>
        <time>2026-05-13T11:26:41Z</time>
      </trkpt>
      <trkpt lat="45.91964" lon="5.7455">
        <ele>949</ele>
        <time>2026-05-13T11:26:42Z</time>
      </trkpt>
      <trkpt lat="45.91965" lon="5.74552">
        <ele>949.2</ele>
        <time>2026-05-13T11:26:43Z</time>
      </trkpt>
      <trkpt lat="45.91965" lon="5.74554">
        <ele>949.8</ele>
        <time>2026-05-13T11:26:44Z</time>
      </trkpt>
      <trkpt lat="45.91966" lon="5.74555">
        <ele>949.8</ele>
        <time>2026-05-13T11:26:45Z</time>
      </trkpt>
      <trkpt lat="45.91966" lon="5.74558">
        <ele>950.2</ele>
        <time>2026-05-13T11:26:46Z</time>
      </trkpt>
      <trkpt lat="45.91966" lon="5.7456">
        <ele>950.4</ele>
        <time>2026-05-13T11:26:47Z</time>
      </trkpt>
      <trkpt lat="45.91966" lon="5.74562">
        <ele>950.4</ele>
        <time>2026-05-13T11:26:48Z</time>
      </trkpt>
      <trkpt lat="45.91967" lon="5.74564">
        <ele>950.8</ele>
        <time>2026-05-13T11:26:49Z</time>
      </trkpt>
      <trkpt lat="45.91967" lon="5.74567">
        <ele>950.8</ele>
        <time>2026-05-13T11:26:50Z</time>
      </trkpt>
      <trkpt lat="45.91968" lon="5.74569">
        <ele>951</ele>
        <time>2026-05-13T11:26:51Z</time>
      </trkpt>
      <trkpt lat="45.91968" lon="5.74572">
        <ele>951</ele>
        <time>2026-05-13T11:26:52Z</time>
      </trkpt>
      <trkpt lat="45.91968" lon="5.74574">
        <ele>951</ele>
        <time>2026-05-13T11:26:53Z</time>
      </trkpt>
      <trkpt lat="45.91968" lon="5.74576">
        <ele>951.2</ele>
        <time>2026-05-13T11:26:54Z</time>
      </trkpt>
      <trkpt lat="45.91969" lon="5.7458">
        <ele>951.2</ele>
        <time>2026-05-13T11:26:55Z</time>
      </trkpt>
      <trkpt lat="45.91969" lon="5.74583">
        <ele>951.8</ele>
        <time>2026-05-13T11:26:56Z</time>
      </trkpt>
      <trkpt lat="45.9197" lon="5.74585">
        <ele>952</ele>
        <time>2026-05-13T11:26:57Z</time>
      </trkpt>
      <trkpt lat="45.9197" lon="5.74588">
        <ele>952.2</ele>
        <time>2026-05-13T11:26:58Z</time>
      </trkpt>
      <trkpt lat="45.91969" lon="5.74591">
        <ele>952.2</ele>
        <time>2026-05-13T11:26:59Z</time>
      </trkpt>
      <trkpt lat="45.91969" lon="5.74594">
        <ele>952.2</ele>
        <time>2026-05-13T11:27:00Z</time>
      </trkpt>
      <trkpt lat="45.91969" lon="5.74596">
        <ele>952.6</ele>
        <time>2026-05-13T11:27:01Z</time>
      </trkpt>
      <trkpt lat="45.91969" lon="5.74598">
        <ele>952.6</ele>
        <time>2026-05-13T11:27:02Z</time>
      </trkpt>
      <trkpt lat="45.91969" lon="5.74601">
        <ele>952.8</ele>
        <time>2026-05-13T11:27:03Z</time>
      </trkpt>
      <trkpt lat="45.91969" lon="5.74603">
        <ele>952.8</ele>
        <time>2026-05-13T11:27:04Z</time>
      </trkpt>
      <trkpt lat="45.9197" lon="5.74606">
        <ele>952.8</ele>
        <time>2026-05-13T11:27:05Z</time>
      </trkpt>
      <trkpt lat="45.9197" lon="5.74609">
        <ele>952.8</ele>
        <time>2026-05-13T11:27:06Z</time>
      </trkpt>
      <trkpt lat="45.9197" lon="5.74612">
        <ele>953.2</ele>
        <time>2026-05-13T11:27:07Z</time>
      </trkpt>
      <trkpt lat="45.9197" lon="5.74614">
        <ele>953.6</ele>
        <time>2026-05-13T11:27:08Z</time>
      </trkpt>
      <trkpt lat="45.91969" lon="5.74617">
        <ele>954</ele>
        <time>2026-05-13T11:27:09Z</time>
      </trkpt>
      <trkpt lat="45.91968" lon="5.7462">
        <ele>954</ele>
        <time>2026-05-13T11:27:10Z</time>
      </trkpt>
      <trkpt lat="45.91966" lon="5.74623">
        <ele>954</ele>
        <time>2026-05-13T11:27:11Z</time>
      </trkpt>
      <trkpt lat="45.91965" lon="5.74625">
        <ele>954</ele>
        <time>2026-05-13T11:27:12Z</time>
      </trkpt>
      <trkpt lat="45.91964" lon="5.74628">
        <ele>954</ele>
        <time>2026-05-13T11:27:13Z</time>
      </trkpt>
      <trkpt lat="45.91963" lon="5.74631">
        <ele>954</ele>
        <time>2026-05-13T11:27:14Z</time>
      </trkpt>
      <trkpt lat="45.91962" lon="5.74634">
        <ele>954</ele>
        <time>2026-05-13T11:27:15Z</time>
      </trkpt>
      <trkpt lat="45.91961" lon="5.74637">
        <ele>954</ele>
        <time>2026-05-13T11:27:16Z</time>
      </trkpt>
      <trkpt lat="45.91961" lon="5.7464">
        <ele>954.2</ele>
        <time>2026-05-13T11:27:17Z</time>
      </trkpt>
      <trkpt lat="45.9196" lon="5.74643">
        <ele>954.2</ele>
        <time>2026-05-13T11:27:18Z</time>
      </trkpt>
      <trkpt lat="45.9196" lon="5.74646">
        <ele>954.4</ele>
        <time>2026-05-13T11:27:19Z</time>
      </trkpt>
      <trkpt lat="45.9196" lon="5.74649">
        <ele>954.4</ele>
        <time>2026-05-13T11:27:20Z</time>
      </trkpt>
      <trkpt lat="45.9196" lon="5.74651">
        <ele>954.6</ele>
        <time>2026-05-13T11:27:21Z</time>
      </trkpt>
      <trkpt lat="45.9196" lon="5.74654">
        <ele>954.6</ele>
        <time>2026-05-13T11:27:22Z</time>
      </trkpt>
      <trkpt lat="45.91961" lon="5.74657">
        <ele>954.8</ele>
        <time>2026-05-13T11:27:23Z</time>
      </trkpt>
      <trkpt lat="45.91962" lon="5.74659">
        <ele>954.8</ele>
        <time>2026-05-13T11:27:24Z</time>
      </trkpt>
      <trkpt lat="45.91963" lon="5.74662">
        <ele>954.8</ele>
        <time>2026-05-13T11:27:25Z</time>
      </trkpt>
      <trkpt lat="45.91964" lon="5.74664">
        <ele>954.8</ele>
        <time>2026-05-13T11:27:26Z</time>
      </trkpt>
      <trkpt lat="45.91966" lon="5.74666">
        <ele>954.8</ele>
        <time>2026-05-13T11:27:27Z</time>
      </trkpt>
      <trkpt lat="45.91968" lon="5.74667">
        <ele>954.8</ele>
        <time>2026-05-13T11:27:28Z</time>
      </trkpt>
      <trkpt lat="45.91971" lon="5.74668">
        <ele>955.2</ele>
        <time>2026-05-13T11:27:29Z</time>
      </trkpt>
      <trkpt lat="45.91972" lon="5.74669">
        <ele>955.2</ele>
        <time>2026-05-13T11:27:30Z</time>
      </trkpt>
      <trkpt lat="45.91974" lon="5.7467">
        <ele>955.2</ele>
        <time>2026-05-13T11:27:31Z</time>
      </trkpt>
      <trkpt lat="45.91976" lon="5.74671">
        <ele>955.2</ele>
        <time>2026-05-13T11:27:32Z</time>
      </trkpt>
      <trkpt lat="45.91977" lon="5.74672">
        <ele>955.2</ele>
        <time>2026-05-13T11:27:33Z</time>
      </trkpt>
      <trkpt lat="45.91978" lon="5.74673">
        <ele>955.2</ele>
        <time>2026-05-13T11:27:34Z</time>
      </trkpt>
      <trkpt lat="45.9198" lon="5.74673">
        <ele>955.2</ele>
        <time>2026-05-13T11:27:35Z</time>
      </trkpt>
      <trkpt lat="45.91983" lon="5.74673">
        <ele>955.2</ele>
        <time>2026-05-13T11:27:36Z</time>
      </trkpt>
      <trkpt lat="45.91984" lon="5.74673">
        <ele>955.2</ele>
        <time>2026-05-13T11:27:37Z</time>
      </trkpt>
      <trkpt lat="45.91986" lon="5.74673">
        <ele>955.2</ele>
        <time>2026-05-13T11:27:38Z</time>
      </trkpt>
      <trkpt lat="45.91988" lon="5.74674">
        <ele>955.2</ele>
        <time>2026-05-13T11:27:39Z</time>
      </trkpt>
      <trkpt lat="45.91989" lon="5.74676">
        <ele>955.2</ele>
        <time>2026-05-13T11:27:40Z</time>
      </trkpt>
      <trkpt lat="45.9199" lon="5.74677">
        <ele>955.4</ele>
        <time>2026-05-13T11:27:41Z</time>
      </trkpt>
      <trkpt lat="45.91992" lon="5.74678">
        <ele>955.4</ele>
        <time>2026-05-13T11:27:42Z</time>
      </trkpt>
      <trkpt lat="45.91994" lon="5.74678">
        <ele>955.4</ele>
        <time>2026-05-13T11:27:43Z</time>
      </trkpt>
      <trkpt lat="45.91996" lon="5.74678">
        <ele>955.4</ele>
        <time>2026-05-13T11:27:44Z</time>
      </trkpt>
      <trkpt lat="45.91998" lon="5.74679">
        <ele>955.4</ele>
        <time>2026-05-13T11:27:45Z</time>
      </trkpt>
      <trkpt lat="45.92" lon="5.7468">
        <ele>955.4</ele>
        <time>2026-05-13T11:27:46Z</time>
      </trkpt>
      <trkpt lat="45.92002" lon="5.7468">
        <ele>955.4</ele>
        <time>2026-05-13T11:27:47Z</time>
      </trkpt>
      <trkpt lat="45.92004" lon="5.74681">
        <ele>955.4</ele>
        <time>2026-05-13T11:27:48Z</time>
      </trkpt>
      <trkpt lat="45.92005" lon="5.74682">
        <ele>955.4</ele>
        <time>2026-05-13T11:27:49Z</time>
      </trkpt>
      <trkpt lat="45.92006" lon="5.74683">
        <ele>955.4</ele>
        <time>2026-05-13T11:27:50Z</time>
      </trkpt>
      <trkpt lat="45.92008" lon="5.74684">
        <ele>955.8</ele>
        <time>2026-05-13T11:27:51Z</time>
      </trkpt>
      <trkpt lat="45.92011" lon="5.74684">
        <ele>955.8</ele>
        <time>2026-05-13T11:27:52Z</time>
      </trkpt>
      <trkpt lat="45.92013" lon="5.74685">
        <ele>955.8</ele>
        <time>2026-05-13T11:27:53Z</time>
      </trkpt>
      <trkpt lat="45.92014" lon="5.74685">
        <ele>955.8</ele>
        <time>2026-05-13T11:27:54Z</time>
      </trkpt>
      <trkpt lat="45.92015" lon="5.74686">
        <ele>955.8</ele>
        <time>2026-05-13T11:27:55Z</time>
      </trkpt>
      <trkpt lat="45.92016" lon="5.74688">
        <ele>955.8</ele>
        <time>2026-05-13T11:27:56Z</time>
      </trkpt>
      <trkpt lat="45.92017" lon="5.74689">
        <ele>956</ele>
        <time>2026-05-13T11:27:57Z</time>
      </trkpt>
      <trkpt lat="45.92019" lon="5.74691">
        <ele>956</ele>
        <time>2026-05-13T11:27:58Z</time>
      </trkpt>
      <trkpt lat="45.92021" lon="5.74692">
        <ele>956</ele>
        <time>2026-05-13T11:27:59Z</time>
      </trkpt>
      <trkpt lat="45.92024" lon="5.74694">
        <ele>956.4</ele>
        <time>2026-05-13T11:28:00Z</time>
      </trkpt>
      <trkpt lat="45.92025" lon="5.74695">
        <ele>956.4</ele>
        <time>2026-05-13T11:28:01Z</time>
      </trkpt>
      <trkpt lat="45.92027" lon="5.74697">
        <ele>956.4</ele>
        <time>2026-05-13T11:28:02Z</time>
      </trkpt>
      <trkpt lat="45.92028" lon="5.74699">
        <ele>956.4</ele>
        <time>2026-05-13T11:28:03Z</time>
      </trkpt>
      <trkpt lat="45.9203" lon="5.74701">
        <ele>956.4</ele>
        <time>2026-05-13T11:28:04Z</time>
      </trkpt>
      <trkpt lat="45.92031" lon="5.74702">
        <ele>956.4</ele>
        <time>2026-05-13T11:28:05Z</time>
      </trkpt>
      <trkpt lat="45.92032" lon="5.74704">
        <ele>956.4</ele>
        <time>2026-05-13T11:28:06Z</time>
      </trkpt>
      <trkpt lat="45.92034" lon="5.74706">
        <ele>956.4</ele>
        <time>2026-05-13T11:28:07Z</time>
      </trkpt>
      <trkpt lat="45.92036" lon="5.74708">
        <ele>956.4</ele>
        <time>2026-05-13T11:28:08Z</time>
      </trkpt>
      <trkpt lat="45.92038" lon="5.7471">
        <ele>956.4</ele>
        <time>2026-05-13T11:28:09Z</time>
      </trkpt>
      <trkpt lat="45.9204" lon="5.74711">
        <ele>956.4</ele>
        <time>2026-05-13T11:28:10Z</time>
      </trkpt>
      <trkpt lat="45.92042" lon="5.74713">
        <ele>956.4</ele>
        <time>2026-05-13T11:28:11Z</time>
      </trkpt>
      <trkpt lat="45.92043" lon="5.74714">
        <ele>956.4</ele>
        <time>2026-05-13T11:28:12Z</time>
      </trkpt>
      <trkpt lat="45.92044" lon="5.74716">
        <ele>956.4</ele>
        <time>2026-05-13T11:28:13Z</time>
      </trkpt>
      <trkpt lat="45.92045" lon="5.74718">
        <ele>956.4</ele>
        <time>2026-05-13T11:28:14Z</time>
      </trkpt>
      <trkpt lat="45.92047" lon="5.7472">
        <ele>956.4</ele>
        <time>2026-05-13T11:28:15Z</time>
      </trkpt>
      <trkpt lat="45.92049" lon="5.74723">
        <ele>956.4</ele>
        <time>2026-05-13T11:28:16Z</time>
      </trkpt>
      <trkpt lat="45.92051" lon="5.74725">
        <ele>956.4</ele>
        <time>2026-05-13T11:28:17Z</time>
      </trkpt>
      <trkpt lat="45.92053" lon="5.74726">
        <ele>955.8</ele>
        <time>2026-05-13T11:28:18Z</time>
      </trkpt>
      <trkpt lat="45.92055" lon="5.74728">
        <ele>956</ele>
        <time>2026-05-13T11:28:19Z</time>
      </trkpt>
      <trkpt lat="45.92057" lon="5.7473">
        <ele>956</ele>
        <time>2026-05-13T11:28:20Z</time>
      </trkpt>
      <trkpt lat="45.92059" lon="5.74732">
        <ele>956</ele>
        <time>2026-05-13T11:28:21Z</time>
      </trkpt>
      <trkpt lat="45.92061" lon="5.74735">
        <ele>956</ele>
        <time>2026-05-13T11:28:22Z</time>
      </trkpt>
      <trkpt lat="45.92063" lon="5.74739">
        <ele>956</ele>
        <time>2026-05-13T11:28:23Z</time>
      </trkpt>
      <trkpt lat="45.92064" lon="5.74742">
        <ele>956</ele>
        <time>2026-05-13T11:28:24Z</time>
      </trkpt>
      <trkpt lat="45.92066" lon="5.74744">
        <ele>956</ele>
        <time>2026-05-13T11:28:25Z</time>
      </trkpt>
      <trkpt lat="45.92067" lon="5.74747">
        <ele>956</ele>
        <time>2026-05-13T11:28:26Z</time>
      </trkpt>
      <trkpt lat="45.92069" lon="5.74749">
        <ele>956.4</ele>
        <time>2026-05-13T11:28:27Z</time>
      </trkpt>
      <trkpt lat="45.9207" lon="5.74751">
        <ele>956.4</ele>
        <time>2026-05-13T11:28:28Z</time>
      </trkpt>
      <trkpt lat="45.92072" lon="5.74752">
        <ele>956.6</ele>
        <time>2026-05-13T11:28:29Z</time>
      </trkpt>
      <trkpt lat="45.92073" lon="5.74753">
        <ele>956.6</ele>
        <time>2026-05-13T11:28:30Z</time>
      </trkpt>
      <trkpt lat="45.92075" lon="5.74754">
        <ele>956.6</ele>
        <time>2026-05-13T11:28:31Z</time>
      </trkpt>
      <trkpt lat="45.92076" lon="5.74756">
        <ele>956.8</ele>
        <time>2026-05-13T11:28:32Z</time>
      </trkpt>
      <trkpt lat="45.92077" lon="5.74758">
        <ele>956.8</ele>
        <time>2026-05-13T11:28:33Z</time>
      </trkpt>
      <trkpt lat="45.92078" lon="5.74759">
        <ele>956.8</ele>
        <time>2026-05-13T11:28:34Z</time>
      </trkpt>
      <trkpt lat="45.92079" lon="5.7476">
        <ele>956.8</ele>
        <time>2026-05-13T11:28:35Z</time>
      </trkpt>
      <trkpt lat="45.92081" lon="5.74762">
        <ele>957.2</ele>
        <time>2026-05-13T11:28:36Z</time>
      </trkpt>
      <trkpt lat="45.92085" lon="5.74762">
        <ele>957.2</ele>
        <time>2026-05-13T11:28:37Z</time>
      </trkpt>
      <trkpt lat="45.92088" lon="5.74763">
        <ele>957.4</ele>
        <time>2026-05-13T11:28:38Z</time>
      </trkpt>
      <trkpt lat="45.92091" lon="5.74762">
        <ele>957.4</ele>
        <time>2026-05-13T11:28:39Z</time>
      </trkpt>
      <trkpt lat="45.92093" lon="5.74763">
        <ele>957.4</ele>
        <time>2026-05-13T11:28:40Z</time>
      </trkpt>
      <trkpt lat="45.92095" lon="5.74764">
        <ele>957.4</ele>
        <time>2026-05-13T11:28:41Z</time>
      </trkpt>
      <trkpt lat="45.92098" lon="5.74765">
        <ele>957.8</ele>
        <time>2026-05-13T11:28:42Z</time>
      </trkpt>
      <trkpt lat="45.92099" lon="5.74765">
        <ele>957.8</ele>
        <time>2026-05-13T11:28:43Z</time>
      </trkpt>
      <trkpt lat="45.92102" lon="5.74765">
        <ele>957.8</ele>
        <time>2026-05-13T11:28:44Z</time>
      </trkpt>
      <trkpt lat="45.92105" lon="5.74766">
        <ele>957.8</ele>
        <time>2026-05-13T11:28:45Z</time>
      </trkpt>
      <trkpt lat="45.92107" lon="5.74766">
        <ele>958</ele>
        <time>2026-05-13T11:28:46Z</time>
      </trkpt>
      <trkpt lat="45.92109" lon="5.74766">
        <ele>958</ele>
        <time>2026-05-13T11:28:47Z</time>
      </trkpt>
      <trkpt lat="45.92112" lon="5.74766">
        <ele>958</ele>
        <time>2026-05-13T11:28:48Z</time>
      </trkpt>
      <trkpt lat="45.92114" lon="5.74766">
        <ele>958</ele>
        <time>2026-05-13T11:28:49Z</time>
      </trkpt>
      <trkpt lat="45.92116" lon="5.74766">
        <ele>958.4</ele>
        <time>2026-05-13T11:28:50Z</time>
      </trkpt>
      <trkpt lat="45.92118" lon="5.74766">
        <ele>958.4</ele>
        <time>2026-05-13T11:28:51Z</time>
      </trkpt>
      <trkpt lat="45.92121" lon="5.74766">
        <ele>958.4</ele>
        <time>2026-05-13T11:28:52Z</time>
      </trkpt>
      <trkpt lat="45.92123" lon="5.74765">
        <ele>958.4</ele>
        <time>2026-05-13T11:28:53Z</time>
      </trkpt>
      <trkpt lat="45.92125" lon="5.74765">
        <ele>958.4</ele>
        <time>2026-05-13T11:28:54Z</time>
      </trkpt>
      <trkpt lat="45.92127" lon="5.74764">
        <ele>958.4</ele>
        <time>2026-05-13T11:28:55Z</time>
      </trkpt>
      <trkpt lat="45.92128" lon="5.74764">
        <ele>958.4</ele>
        <time>2026-05-13T11:28:56Z</time>
      </trkpt>
      <trkpt lat="45.92128" lon="5.74764">
        <ele>958.4</ele>
        <time>2026-05-13T11:28:57Z</time>
      </trkpt>
      <trkpt lat="45.92129" lon="5.74765">
        <ele>958</ele>
        <time>2026-05-13T11:28:58Z</time>
      </trkpt>
      <trkpt lat="45.9213" lon="5.74765">
        <ele>958</ele>
        <time>2026-05-13T11:28:59Z</time>
      </trkpt>
      <trkpt lat="45.9213" lon="5.74766">
        <ele>958.4</ele>
        <time>2026-05-13T11:29:00Z</time>
      </trkpt>
      <trkpt lat="45.9213" lon="5.74766">
        <ele>958.4</ele>
        <time>2026-05-13T11:29:01Z</time>
      </trkpt>
      <trkpt lat="45.9213" lon="5.74766">
        <ele>958.8</ele>
        <time>2026-05-13T11:29:02Z</time>
      </trkpt>
      <trkpt lat="45.92138" lon="5.74766">
        <ele>959.8</ele>
        <time>2026-05-13T11:36:12Z</time>
      </trkpt>
      <trkpt lat="45.92138" lon="5.74766">
        <ele>959.6</ele>
        <time>2026-05-13T11:36:13Z</time>
      </trkpt>
      <trkpt lat="45.92138" lon="5.74766">
        <ele>959.6</ele>
        <time>2026-05-13T11:36:14Z</time>
      </trkpt>
      <trkpt lat="45.92144" lon="5.74767">
        <ele>959.6</ele>
        <time>2026-05-13T11:36:15Z</time>
      </trkpt>
      <trkpt lat="45.92145" lon="5.74767">
        <ele>959.6</ele>
        <time>2026-05-13T11:36:16Z</time>
      </trkpt>
      <trkpt lat="45.92148" lon="5.74767">
        <ele>959.6</ele>
        <time>2026-05-13T11:36:17Z</time>
      </trkpt>
      <trkpt lat="45.92149" lon="5.74768">
        <ele>959.6</ele>
        <time>2026-05-13T11:36:18Z</time>
      </trkpt>
      <trkpt lat="45.9215" lon="5.74767">
        <ele>959.6</ele>
        <time>2026-05-13T11:36:19Z</time>
      </trkpt>
      <trkpt lat="45.92152" lon="5.74767">
        <ele>959.6</ele>
        <time>2026-05-13T11:36:20Z</time>
      </trkpt>
      <trkpt lat="45.92153" lon="5.74768">
        <ele>959.6</ele>
        <time>2026-05-13T11:36:21Z</time>
      </trkpt>
      <trkpt lat="45.92154" lon="5.74769">
        <ele>959.6</ele>
        <time>2026-05-13T11:36:22Z</time>
      </trkpt>
      <trkpt lat="45.92155" lon="5.7477">
        <ele>959.6</ele>
        <time>2026-05-13T11:36:23Z</time>
      </trkpt>
      <trkpt lat="45.92157" lon="5.7477">
        <ele>959.6</ele>
        <time>2026-05-13T11:36:24Z</time>
      </trkpt>
      <trkpt lat="45.92159" lon="5.7477">
        <ele>959.8</ele>
        <time>2026-05-13T11:36:25Z</time>
      </trkpt>
      <trkpt lat="45.9216" lon="5.7477">
        <ele>959.8</ele>
        <time>2026-05-13T11:36:26Z</time>
      </trkpt>
      <trkpt lat="45.92162" lon="5.7477">
        <ele>959.8</ele>
        <time>2026-05-13T11:36:27Z</time>
      </trkpt>
      <trkpt lat="45.92164" lon="5.7477">
        <ele>959.8</ele>
        <time>2026-05-13T11:36:28Z</time>
      </trkpt>
      <trkpt lat="45.92166" lon="5.74771">
        <ele>959.8</ele>
        <time>2026-05-13T11:36:29Z</time>
      </trkpt>
      <trkpt lat="45.92169" lon="5.74771">
        <ele>959.6</ele>
        <time>2026-05-13T11:36:30Z</time>
      </trkpt>
      <trkpt lat="45.92172" lon="5.74772">
        <ele>959.6</ele>
        <time>2026-05-13T11:36:31Z</time>
      </trkpt>
      <trkpt lat="45.92175" lon="5.74772">
        <ele>959.6</ele>
        <time>2026-05-13T11:36:32Z</time>
      </trkpt>
      <trkpt lat="45.92178" lon="5.74772">
        <ele>959.6</ele>
        <time>2026-05-13T11:36:33Z</time>
      </trkpt>
      <trkpt lat="45.92181" lon="5.74772">
        <ele>959.6</ele>
        <time>2026-05-13T11:36:34Z</time>
      </trkpt>
      <trkpt lat="45.92184" lon="5.74772">
        <ele>959.6</ele>
        <time>2026-05-13T11:36:35Z</time>
      </trkpt>
      <trkpt lat="45.92187" lon="5.74772">
        <ele>959.6</ele>
        <time>2026-05-13T11:36:36Z</time>
      </trkpt>
      <trkpt lat="45.92189" lon="5.74772">
        <ele>959.6</ele>
        <time>2026-05-13T11:36:37Z</time>
      </trkpt>
      <trkpt lat="45.92192" lon="5.74772">
        <ele>959.6</ele>
        <time>2026-05-13T11:36:38Z</time>
      </trkpt>
      <trkpt lat="45.92194" lon="5.74773">
        <ele>959.6</ele>
        <time>2026-05-13T11:36:39Z</time>
      </trkpt>
      <trkpt lat="45.92197" lon="5.74773">
        <ele>959.6</ele>
        <time>2026-05-13T11:36:40Z</time>
      </trkpt>
      <trkpt lat="45.922" lon="5.74774">
        <ele>959.6</ele>
        <time>2026-05-13T11:36:41Z</time>
      </trkpt>
      <trkpt lat="45.92203" lon="5.74774">
        <ele>959.6</ele>
        <time>2026-05-13T11:36:42Z</time>
      </trkpt>
      <trkpt lat="45.92206" lon="5.74775">
        <ele>959.6</ele>
        <time>2026-05-13T11:36:43Z</time>
      </trkpt>
      <trkpt lat="45.9221" lon="5.74776">
        <ele>959.8</ele>
        <time>2026-05-13T11:36:44Z</time>
      </trkpt>
      <trkpt lat="45.92213" lon="5.74776">
        <ele>959.8</ele>
        <time>2026-05-13T11:36:45Z</time>
      </trkpt>
      <trkpt lat="45.92216" lon="5.74777">
        <ele>959.8</ele>
        <time>2026-05-13T11:36:46Z</time>
      </trkpt>
      <trkpt lat="45.92219" lon="5.74778">
        <ele>959.8</ele>
        <time>2026-05-13T11:36:47Z</time>
      </trkpt>
      <trkpt lat="45.92223" lon="5.74778">
        <ele>959.8</ele>
        <time>2026-05-13T11:36:48Z</time>
      </trkpt>
      <trkpt lat="45.92225" lon="5.74779">
        <ele>959.8</ele>
        <time>2026-05-13T11:36:49Z</time>
      </trkpt>
      <trkpt lat="45.92228" lon="5.74779">
        <ele>959.8</ele>
        <time>2026-05-13T11:36:50Z</time>
      </trkpt>
      <trkpt lat="45.92231" lon="5.74779">
        <ele>959.8</ele>
        <time>2026-05-13T11:36:51Z</time>
      </trkpt>
      <trkpt lat="45.92234" lon="5.7478">
        <ele>959.8</ele>
        <time>2026-05-13T11:36:52Z</time>
      </trkpt>
      <trkpt lat="45.92237" lon="5.7478">
        <ele>959.8</ele>
        <time>2026-05-13T11:36:53Z</time>
      </trkpt>
      <trkpt lat="45.9224" lon="5.74781">
        <ele>959.8</ele>
        <time>2026-05-13T11:36:54Z</time>
      </trkpt>
      <trkpt lat="45.9224" lon="5.74781">
        <ele>959.8</ele>
        <time>2026-05-13T11:36:55Z</time>
      </trkpt>
      <trkpt lat="45.9224" lon="5.74781">
        <ele>959.8</ele>
        <time>2026-05-13T11:36:56Z</time>
      </trkpt>
      <trkpt lat="45.92246" lon="5.74783">
        <ele>959.8</ele>
        <time>2026-05-13T11:36:57Z</time>
      </trkpt>
      <trkpt lat="45.92248" lon="5.74784">
        <ele>959.8</ele>
        <time>2026-05-13T11:36:58Z</time>
      </trkpt>
      <trkpt lat="45.9225" lon="5.74785">
        <ele>959.8</ele>
        <time>2026-05-13T11:36:59Z</time>
      </trkpt>
      <trkpt lat="45.92252" lon="5.74785">
        <ele>960.2</ele>
        <time>2026-05-13T11:37:00Z</time>
      </trkpt>
      <trkpt lat="45.92254" lon="5.74786">
        <ele>960.2</ele>
        <time>2026-05-13T11:37:01Z</time>
      </trkpt>
      <trkpt lat="45.92256" lon="5.74785">
        <ele>960.2</ele>
        <time>2026-05-13T11:37:02Z</time>
      </trkpt>
      <trkpt lat="45.92258" lon="5.74784">
        <ele>960.4</ele>
        <time>2026-05-13T11:37:03Z</time>
      </trkpt>
      <trkpt lat="45.92261" lon="5.74784">
        <ele>960.4</ele>
        <time>2026-05-13T11:37:04Z</time>
      </trkpt>
      <trkpt lat="45.92263" lon="5.74784">
        <ele>960.4</ele>
        <time>2026-05-13T11:37:05Z</time>
      </trkpt>
      <trkpt lat="45.9227" lon="5.74784">
        <ele>960.4</ele>
        <time>2026-05-13T11:37:06Z</time>
      </trkpt>
      <trkpt lat="45.92274" lon="5.74784">
        <ele>960.4</ele>
        <time>2026-05-13T11:37:07Z</time>
      </trkpt>
      <trkpt lat="45.92277" lon="5.74785">
        <ele>960.4</ele>
        <time>2026-05-13T11:37:08Z</time>
      </trkpt>
      <trkpt lat="45.9228" lon="5.74786">
        <ele>960.4</ele>
        <time>2026-05-13T11:37:09Z</time>
      </trkpt>
      <trkpt lat="45.92284" lon="5.74787">
        <ele>960.4</ele>
        <time>2026-05-13T11:37:10Z</time>
      </trkpt>
      <trkpt lat="45.92288" lon="5.74788">
        <ele>960.4</ele>
        <time>2026-05-13T11:37:11Z</time>
      </trkpt>
      <trkpt lat="45.92291" lon="5.7479">
        <ele>960.4</ele>
        <time>2026-05-13T11:37:12Z</time>
      </trkpt>
      <trkpt lat="45.92294" lon="5.74791">
        <ele>960.4</ele>
        <time>2026-05-13T11:37:13Z</time>
      </trkpt>
      <trkpt lat="45.92298" lon="5.74793">
        <ele>960.4</ele>
        <time>2026-05-13T11:37:14Z</time>
      </trkpt>
      <trkpt lat="45.92301" lon="5.74794">
        <ele>960.2</ele>
        <time>2026-05-13T11:37:15Z</time>
      </trkpt>
      <trkpt lat="45.92305" lon="5.74796">
        <ele>960.2</ele>
        <time>2026-05-13T11:37:16Z</time>
      </trkpt>
      <trkpt lat="45.92309" lon="5.74798">
        <ele>960.2</ele>
        <time>2026-05-13T11:37:17Z</time>
      </trkpt>
      <trkpt lat="45.92312" lon="5.748">
        <ele>960.2</ele>
        <time>2026-05-13T11:37:18Z</time>
      </trkpt>
      <trkpt lat="45.92315" lon="5.74802">
        <ele>960.2</ele>
        <time>2026-05-13T11:37:19Z</time>
      </trkpt>
      <trkpt lat="45.92319" lon="5.74805">
        <ele>960.4</ele>
        <time>2026-05-13T11:37:20Z</time>
      </trkpt>
      <trkpt lat="45.92322" lon="5.74807">
        <ele>960.4</ele>
        <time>2026-05-13T11:37:21Z</time>
      </trkpt>
      <trkpt lat="45.92325" lon="5.74809">
        <ele>960.4</ele>
        <time>2026-05-13T11:37:22Z</time>
      </trkpt>
      <trkpt lat="45.92327" lon="5.74811">
        <ele>960.4</ele>
        <time>2026-05-13T11:37:23Z</time>
      </trkpt>
      <trkpt lat="45.9233" lon="5.74812">
        <ele>960.4</ele>
        <time>2026-05-13T11:37:24Z</time>
      </trkpt>
      <trkpt lat="45.92333" lon="5.74814">
        <ele>960.4</ele>
        <time>2026-05-13T11:37:25Z</time>
      </trkpt>
      <trkpt lat="45.92335" lon="5.74816">
        <ele>960.8</ele>
        <time>2026-05-13T11:37:26Z</time>
      </trkpt>
      <trkpt lat="45.92338" lon="5.74818">
        <ele>960.8</ele>
        <time>2026-05-13T11:37:27Z</time>
      </trkpt>
      <trkpt lat="45.92341" lon="5.74819">
        <ele>960.8</ele>
        <time>2026-05-13T11:37:28Z</time>
      </trkpt>
      <trkpt lat="45.92345" lon="5.74821">
        <ele>961</ele>
        <time>2026-05-13T11:37:29Z</time>
      </trkpt>
      <trkpt lat="45.92348" lon="5.74822">
        <ele>961</ele>
        <time>2026-05-13T11:37:30Z</time>
      </trkpt>
      <trkpt lat="45.92352" lon="5.74823">
        <ele>961</ele>
        <time>2026-05-13T11:37:31Z</time>
      </trkpt>
      <trkpt lat="45.92355" lon="5.74824">
        <ele>961</ele>
        <time>2026-05-13T11:37:32Z</time>
      </trkpt>
      <trkpt lat="45.92358" lon="5.74825">
        <ele>961</ele>
        <time>2026-05-13T11:37:33Z</time>
      </trkpt>
      <trkpt lat="45.92361" lon="5.74827">
        <ele>961.2</ele>
        <time>2026-05-13T11:37:34Z</time>
      </trkpt>
      <trkpt lat="45.92364" lon="5.74829">
        <ele>961.2</ele>
        <time>2026-05-13T11:37:35Z</time>
      </trkpt>
      <trkpt lat="45.92366" lon="5.7483">
        <ele>961.4</ele>
        <time>2026-05-13T11:37:36Z</time>
      </trkpt>
      <trkpt lat="45.92369" lon="5.74832">
        <ele>961.4</ele>
        <time>2026-05-13T11:37:37Z</time>
      </trkpt>
      <trkpt lat="45.92372" lon="5.74834">
        <ele>961.4</ele>
        <time>2026-05-13T11:37:38Z</time>
      </trkpt>
      <trkpt lat="45.92375" lon="5.74836">
        <ele>961.4</ele>
        <time>2026-05-13T11:37:39Z</time>
      </trkpt>
      <trkpt lat="45.92378" lon="5.74838">
        <ele>961.4</ele>
        <time>2026-05-13T11:37:40Z</time>
      </trkpt>
      <trkpt lat="45.9238" lon="5.74841">
        <ele>961.4</ele>
        <time>2026-05-13T11:37:41Z</time>
      </trkpt>
      <trkpt lat="45.92383" lon="5.74844">
        <ele>961.4</ele>
        <time>2026-05-13T11:37:42Z</time>
      </trkpt>
      <trkpt lat="45.92386" lon="5.74847">
        <ele>961.4</ele>
        <time>2026-05-13T11:37:43Z</time>
      </trkpt>
      <trkpt lat="45.92389" lon="5.7485">
        <ele>961.4</ele>
        <time>2026-05-13T11:37:44Z</time>
      </trkpt>
      <trkpt lat="45.92392" lon="5.74853">
        <ele>961.4</ele>
        <time>2026-05-13T11:37:45Z</time>
      </trkpt>
      <trkpt lat="45.92395" lon="5.74856">
        <ele>961.4</ele>
        <time>2026-05-13T11:37:46Z</time>
      </trkpt>
      <trkpt lat="45.92397" lon="5.74859">
        <ele>961.4</ele>
        <time>2026-05-13T11:37:47Z</time>
      </trkpt>
      <trkpt lat="45.924" lon="5.74862">
        <ele>961.4</ele>
        <time>2026-05-13T11:37:48Z</time>
      </trkpt>
      <trkpt lat="45.92402" lon="5.74865">
        <ele>961.4</ele>
        <time>2026-05-13T11:37:49Z</time>
      </trkpt>
      <trkpt lat="45.92405" lon="5.74867">
        <ele>961.4</ele>
        <time>2026-05-13T11:37:50Z</time>
      </trkpt>
      <trkpt lat="45.92408" lon="5.7487">
        <ele>961.4</ele>
        <time>2026-05-13T11:37:51Z</time>
      </trkpt>
      <trkpt lat="45.9241" lon="5.74873">
        <ele>961.4</ele>
        <time>2026-05-13T11:37:52Z</time>
      </trkpt>
      <trkpt lat="45.92412" lon="5.74876">
        <ele>961.4</ele>
        <time>2026-05-13T11:37:53Z</time>
      </trkpt>
      <trkpt lat="45.92414" lon="5.74879">
        <ele>961.4</ele>
        <time>2026-05-13T11:37:54Z</time>
      </trkpt>
      <trkpt lat="45.92416" lon="5.74882">
        <ele>961.6</ele>
        <time>2026-05-13T11:37:55Z</time>
      </trkpt>
      <trkpt lat="45.92419" lon="5.74885">
        <ele>961.6</ele>
        <time>2026-05-13T11:37:56Z</time>
      </trkpt>
      <trkpt lat="45.92422" lon="5.74888">
        <ele>961.6</ele>
        <time>2026-05-13T11:37:57Z</time>
      </trkpt>
      <trkpt lat="45.92425" lon="5.74891">
        <ele>961.6</ele>
        <time>2026-05-13T11:37:58Z</time>
      </trkpt>
      <trkpt lat="45.92427" lon="5.74894">
        <ele>961.6</ele>
        <time>2026-05-13T11:37:59Z</time>
      </trkpt>
      <trkpt lat="45.92429" lon="5.74897">
        <ele>961.6</ele>
        <time>2026-05-13T11:38:00Z</time>
      </trkpt>
      <trkpt lat="45.92432" lon="5.74901">
        <ele>961.6</ele>
        <time>2026-05-13T11:38:01Z</time>
      </trkpt>
      <trkpt lat="45.92435" lon="5.74905">
        <ele>961.6</ele>
        <time>2026-05-13T11:38:02Z</time>
      </trkpt>
      <trkpt lat="45.92437" lon="5.7491">
        <ele>961.4</ele>
        <time>2026-05-13T11:38:03Z</time>
      </trkpt>
      <trkpt lat="45.92439" lon="5.74914">
        <ele>961.4</ele>
        <time>2026-05-13T11:38:04Z</time>
      </trkpt>
      <trkpt lat="45.92441" lon="5.74919">
        <ele>961.4</ele>
        <time>2026-05-13T11:38:05Z</time>
      </trkpt>
      <trkpt lat="45.92443" lon="5.74924">
        <ele>961.4</ele>
        <time>2026-05-13T11:38:06Z</time>
      </trkpt>
      <trkpt lat="45.92444" lon="5.7493">
        <ele>961.4</ele>
        <time>2026-05-13T11:38:07Z</time>
      </trkpt>
      <trkpt lat="45.92446" lon="5.74934">
        <ele>961.4</ele>
        <time>2026-05-13T11:38:08Z</time>
      </trkpt>
      <trkpt lat="45.92448" lon="5.74939">
        <ele>961.4</ele>
        <time>2026-05-13T11:38:09Z</time>
      </trkpt>
      <trkpt lat="45.9245" lon="5.74944">
        <ele>961.4</ele>
        <time>2026-05-13T11:38:10Z</time>
      </trkpt>
      <trkpt lat="45.92451" lon="5.74948">
        <ele>961.8</ele>
        <time>2026-05-13T11:38:11Z</time>
      </trkpt>
      <trkpt lat="45.92453" lon="5.74952">
        <ele>961.8</ele>
        <time>2026-05-13T11:38:12Z</time>
      </trkpt>
      <trkpt lat="45.92455" lon="5.74956">
        <ele>962.2</ele>
        <time>2026-05-13T11:38:13Z</time>
      </trkpt>
      <trkpt lat="45.92457" lon="5.74959">
        <ele>962.2</ele>
        <time>2026-05-13T11:38:14Z</time>
      </trkpt>
      <trkpt lat="45.9246" lon="5.74962">
        <ele>962.2</ele>
        <time>2026-05-13T11:38:15Z</time>
      </trkpt>
      <trkpt lat="45.92463" lon="5.74965">
        <ele>962.4</ele>
        <time>2026-05-13T11:38:16Z</time>
      </trkpt>
      <trkpt lat="45.92466" lon="5.74967">
        <ele>962.4</ele>
        <time>2026-05-13T11:38:17Z</time>
      </trkpt>
      <trkpt lat="45.9247" lon="5.74969">
        <ele>962.4</ele>
        <time>2026-05-13T11:38:18Z</time>
      </trkpt>
      <trkpt lat="45.92473" lon="5.74971">
        <ele>962.4</ele>
        <time>2026-05-13T11:38:19Z</time>
      </trkpt>
      <trkpt lat="45.92476" lon="5.74973">
        <ele>962.4</ele>
        <time>2026-05-13T11:38:20Z</time>
      </trkpt>
      <trkpt lat="45.9248" lon="5.74974">
        <ele>962.4</ele>
        <time>2026-05-13T11:38:21Z</time>
      </trkpt>
      <trkpt lat="45.92483" lon="5.74975">
        <ele>962.6</ele>
        <time>2026-05-13T11:38:22Z</time>
      </trkpt>
      <trkpt lat="45.92487" lon="5.74976">
        <ele>962.6</ele>
        <time>2026-05-13T11:38:23Z</time>
      </trkpt>
      <trkpt lat="45.9249" lon="5.74977">
        <ele>962.6</ele>
        <time>2026-05-13T11:38:24Z</time>
      </trkpt>
      <trkpt lat="45.92493" lon="5.74977">
        <ele>963</ele>
        <time>2026-05-13T11:38:25Z</time>
      </trkpt>
      <trkpt lat="45.92497" lon="5.74978">
        <ele>963</ele>
        <time>2026-05-13T11:38:26Z</time>
      </trkpt>
      <trkpt lat="45.925" lon="5.74979">
        <ele>963</ele>
        <time>2026-05-13T11:38:27Z</time>
      </trkpt>
      <trkpt lat="45.92503" lon="5.7498">
        <ele>963</ele>
        <time>2026-05-13T11:38:28Z</time>
      </trkpt>
      <trkpt lat="45.92507" lon="5.74981">
        <ele>963</ele>
        <time>2026-05-13T11:38:29Z</time>
      </trkpt>
      <trkpt lat="45.9251" lon="5.74982">
        <ele>963.2</ele>
        <time>2026-05-13T11:38:30Z</time>
      </trkpt>
      <trkpt lat="45.92514" lon="5.74983">
        <ele>963.2</ele>
        <time>2026-05-13T11:38:31Z</time>
      </trkpt>
      <trkpt lat="45.92517" lon="5.74984">
        <ele>963.2</ele>
        <time>2026-05-13T11:38:32Z</time>
      </trkpt>
      <trkpt lat="45.9252" lon="5.74985">
        <ele>963.2</ele>
        <time>2026-05-13T11:38:33Z</time>
      </trkpt>
      <trkpt lat="45.92523" lon="5.74986">
        <ele>963.4</ele>
        <time>2026-05-13T11:38:34Z</time>
      </trkpt>
      <trkpt lat="45.92526" lon="5.74987">
        <ele>963.4</ele>
        <time>2026-05-13T11:38:35Z</time>
      </trkpt>
      <trkpt lat="45.92529" lon="5.74988">
        <ele>963.4</ele>
        <time>2026-05-13T11:38:36Z</time>
      </trkpt>
      <trkpt lat="45.92533" lon="5.74989">
        <ele>963.4</ele>
        <time>2026-05-13T11:38:37Z</time>
      </trkpt>
      <trkpt lat="45.92537" lon="5.7499">
        <ele>963.4</ele>
        <time>2026-05-13T11:38:38Z</time>
      </trkpt>
      <trkpt lat="45.9254" lon="5.7499">
        <ele>963.4</ele>
        <time>2026-05-13T11:38:39Z</time>
      </trkpt>
      <trkpt lat="45.92544" lon="5.7499">
        <ele>963.4</ele>
        <time>2026-05-13T11:38:40Z</time>
      </trkpt>
      <trkpt lat="45.92547" lon="5.74992">
        <ele>963.4</ele>
        <time>2026-05-13T11:38:41Z</time>
      </trkpt>
      <trkpt lat="45.9255" lon="5.74993">
        <ele>963.4</ele>
        <time>2026-05-13T11:38:42Z</time>
      </trkpt>
      <trkpt lat="45.92553" lon="5.74994">
        <ele>963.4</ele>
        <time>2026-05-13T11:38:43Z</time>
      </trkpt>
      <trkpt lat="45.92556" lon="5.74995">
        <ele>963.8</ele>
        <time>2026-05-13T11:38:44Z</time>
      </trkpt>
      <trkpt lat="45.9256" lon="5.74996">
        <ele>964.2</ele>
        <time>2026-05-13T11:38:45Z</time>
      </trkpt>
      <trkpt lat="45.92564" lon="5.74998">
        <ele>964.2</ele>
        <time>2026-05-13T11:38:46Z</time>
      </trkpt>
      <trkpt lat="45.92567" lon="5.75">
        <ele>964.2</ele>
        <time>2026-05-13T11:38:47Z</time>
      </trkpt>
      <trkpt lat="45.9257" lon="5.75002">
        <ele>963.8</ele>
        <time>2026-05-13T11:38:48Z</time>
      </trkpt>
      <trkpt lat="45.92573" lon="5.75004">
        <ele>963.8</ele>
        <time>2026-05-13T11:38:49Z</time>
      </trkpt>
      <trkpt lat="45.92576" lon="5.75007">
        <ele>963.8</ele>
        <time>2026-05-13T11:38:50Z</time>
      </trkpt>
      <trkpt lat="45.92579" lon="5.75009">
        <ele>963.8</ele>
        <time>2026-05-13T11:38:51Z</time>
      </trkpt>
      <trkpt lat="45.92582" lon="5.75012">
        <ele>963.8</ele>
        <time>2026-05-13T11:38:52Z</time>
      </trkpt>
      <trkpt lat="45.92586" lon="5.75015">
        <ele>963.8</ele>
        <time>2026-05-13T11:38:53Z</time>
      </trkpt>
      <trkpt lat="45.92589" lon="5.75018">
        <ele>964</ele>
        <time>2026-05-13T11:38:54Z</time>
      </trkpt>
      <trkpt lat="45.92591" lon="5.7502">
        <ele>964</ele>
        <time>2026-05-13T11:38:55Z</time>
      </trkpt>
      <trkpt lat="45.92594" lon="5.75023">
        <ele>964</ele>
        <time>2026-05-13T11:38:56Z</time>
      </trkpt>
      <trkpt lat="45.92598" lon="5.75026">
        <ele>964</ele>
        <time>2026-05-13T11:38:57Z</time>
      </trkpt>
      <trkpt lat="45.92601" lon="5.75029">
        <ele>964.4</ele>
        <time>2026-05-13T11:38:58Z</time>
      </trkpt>
      <trkpt lat="45.92604" lon="5.75032">
        <ele>964.4</ele>
        <time>2026-05-13T11:38:59Z</time>
      </trkpt>
      <trkpt lat="45.92607" lon="5.75034">
        <ele>964</ele>
        <time>2026-05-13T11:39:00Z</time>
      </trkpt>
      <trkpt lat="45.9261" lon="5.75037">
        <ele>964</ele>
        <time>2026-05-13T11:39:01Z</time>
      </trkpt>
      <trkpt lat="45.92612" lon="5.7504">
        <ele>964</ele>
        <time>2026-05-13T11:39:02Z</time>
      </trkpt>
      <trkpt lat="45.92615" lon="5.75043">
        <ele>964</ele>
        <time>2026-05-13T11:39:03Z</time>
      </trkpt>
      <trkpt lat="45.92618" lon="5.75046">
        <ele>964</ele>
        <time>2026-05-13T11:39:04Z</time>
      </trkpt>
      <trkpt lat="45.92621" lon="5.75049">
        <ele>964</ele>
        <time>2026-05-13T11:39:05Z</time>
      </trkpt>
      <trkpt lat="45.92624" lon="5.75052">
        <ele>964</ele>
        <time>2026-05-13T11:39:06Z</time>
      </trkpt>
      <trkpt lat="45.92627" lon="5.75056">
        <ele>964</ele>
        <time>2026-05-13T11:39:07Z</time>
      </trkpt>
      <trkpt lat="45.92629" lon="5.7506">
        <ele>964</ele>
        <time>2026-05-13T11:39:08Z</time>
      </trkpt>
      <trkpt lat="45.92632" lon="5.75063">
        <ele>964</ele>
        <time>2026-05-13T11:39:09Z</time>
      </trkpt>
      <trkpt lat="45.92635" lon="5.75067">
        <ele>964</ele>
        <time>2026-05-13T11:39:10Z</time>
      </trkpt>
      <trkpt lat="45.92637" lon="5.7507">
        <ele>963.8</ele>
        <time>2026-05-13T11:39:11Z</time>
      </trkpt>
      <trkpt lat="45.92637" lon="5.7507">
        <ele>963.8</ele>
        <time>2026-05-13T11:39:12Z</time>
      </trkpt>
      <trkpt lat="45.9264" lon="5.75074">
        <ele>963.8</ele>
        <time>2026-05-13T11:39:13Z</time>
      </trkpt>
      <trkpt lat="45.92642" lon="5.75077">
        <ele>963.8</ele>
        <time>2026-05-13T11:39:14Z</time>
      </trkpt>
      <trkpt lat="45.92645" lon="5.75081">
        <ele>963.8</ele>
        <time>2026-05-13T11:39:15Z</time>
      </trkpt>
      <trkpt lat="45.92647" lon="5.75083">
        <ele>963.8</ele>
        <time>2026-05-13T11:39:16Z</time>
      </trkpt>
      <trkpt lat="45.9265" lon="5.75086">
        <ele>963.8</ele>
        <time>2026-05-13T11:39:17Z</time>
      </trkpt>
      <trkpt lat="45.92653" lon="5.7509">
        <ele>963.8</ele>
        <time>2026-05-13T11:39:18Z</time>
      </trkpt>
      <trkpt lat="45.92655" lon="5.75092">
        <ele>963.8</ele>
        <time>2026-05-13T11:39:19Z</time>
      </trkpt>
      <trkpt lat="45.92658" lon="5.75095">
        <ele>963.8</ele>
        <time>2026-05-13T11:39:20Z</time>
      </trkpt>
      <trkpt lat="45.92661" lon="5.75097">
        <ele>963.8</ele>
        <time>2026-05-13T11:39:21Z</time>
      </trkpt>
      <trkpt lat="45.92664" lon="5.75099">
        <ele>964.2</ele>
        <time>2026-05-13T11:39:22Z</time>
      </trkpt>
      <trkpt lat="45.92667" lon="5.75101">
        <ele>964.2</ele>
        <time>2026-05-13T11:39:23Z</time>
      </trkpt>
      <trkpt lat="45.92669" lon="5.75103">
        <ele>964.2</ele>
        <time>2026-05-13T11:39:24Z</time>
      </trkpt>
      <trkpt lat="45.92673" lon="5.75105">
        <ele>964.6</ele>
        <time>2026-05-13T11:39:25Z</time>
      </trkpt>
      <trkpt lat="45.92676" lon="5.75106">
        <ele>964.6</ele>
        <time>2026-05-13T11:39:26Z</time>
      </trkpt>
      <trkpt lat="45.92679" lon="5.75108">
        <ele>964.6</ele>
        <time>2026-05-13T11:39:27Z</time>
      </trkpt>
      <trkpt lat="45.92682" lon="5.75111">
        <ele>964.6</ele>
        <time>2026-05-13T11:39:28Z</time>
      </trkpt>
      <trkpt lat="45.92685" lon="5.75113">
        <ele>964.8</ele>
        <time>2026-05-13T11:39:29Z</time>
      </trkpt>
      <trkpt lat="45.92688" lon="5.75117">
        <ele>964.8</ele>
        <time>2026-05-13T11:39:30Z</time>
      </trkpt>
      <trkpt lat="45.92691" lon="5.75121">
        <ele>964.8</ele>
        <time>2026-05-13T11:39:31Z</time>
      </trkpt>
      <trkpt lat="45.92694" lon="5.75125">
        <ele>964.8</ele>
        <time>2026-05-13T11:39:32Z</time>
      </trkpt>
      <trkpt lat="45.92696" lon="5.75129">
        <ele>964.8</ele>
        <time>2026-05-13T11:39:33Z</time>
      </trkpt>
      <trkpt lat="45.92699" lon="5.75133">
        <ele>965</ele>
        <time>2026-05-13T11:39:34Z</time>
      </trkpt>
      <trkpt lat="45.92702" lon="5.75137">
        <ele>965</ele>
        <time>2026-05-13T11:39:35Z</time>
      </trkpt>
      <trkpt lat="45.92705" lon="5.75141">
        <ele>965.4</ele>
        <time>2026-05-13T11:39:36Z</time>
      </trkpt>
      <trkpt lat="45.92708" lon="5.75144">
        <ele>965.4</ele>
        <time>2026-05-13T11:39:37Z</time>
      </trkpt>
      <trkpt lat="45.92711" lon="5.75148">
        <ele>965.4</ele>
        <time>2026-05-13T11:39:38Z</time>
      </trkpt>
      <trkpt lat="45.92714" lon="5.75151">
        <ele>965.4</ele>
        <time>2026-05-13T11:39:39Z</time>
      </trkpt>
      <trkpt lat="45.92717" lon="5.75153">
        <ele>965.4</ele>
        <time>2026-05-13T11:39:40Z</time>
      </trkpt>
      <trkpt lat="45.92719" lon="5.75156">
        <ele>965.4</ele>
        <time>2026-05-13T11:39:41Z</time>
      </trkpt>
      <trkpt lat="45.92722" lon="5.75159">
        <ele>965.4</ele>
        <time>2026-05-13T11:39:42Z</time>
      </trkpt>
      <trkpt lat="45.92726" lon="5.75162">
        <ele>965</ele>
        <time>2026-05-13T11:39:43Z</time>
      </trkpt>
      <trkpt lat="45.92729" lon="5.75165">
        <ele>965</ele>
        <time>2026-05-13T11:39:44Z</time>
      </trkpt>
      <trkpt lat="45.92731" lon="5.75169">
        <ele>965.4</ele>
        <time>2026-05-13T11:39:45Z</time>
      </trkpt>
      <trkpt lat="45.92733" lon="5.75173">
        <ele>965.4</ele>
        <time>2026-05-13T11:39:46Z</time>
      </trkpt>
      <trkpt lat="45.92735" lon="5.75176">
        <ele>965.4</ele>
        <time>2026-05-13T11:39:47Z</time>
      </trkpt>
      <trkpt lat="45.92737" lon="5.7518">
        <ele>965.6</ele>
        <time>2026-05-13T11:39:48Z</time>
      </trkpt>
      <trkpt lat="45.92739" lon="5.75183">
        <ele>965.6</ele>
        <time>2026-05-13T11:39:49Z</time>
      </trkpt>
      <trkpt lat="45.92741" lon="5.75187">
        <ele>965.8</ele>
        <time>2026-05-13T11:39:50Z</time>
      </trkpt>
      <trkpt lat="45.92743" lon="5.75191">
        <ele>965.8</ele>
        <time>2026-05-13T11:39:51Z</time>
      </trkpt>
      <trkpt lat="45.92745" lon="5.75195">
        <ele>965.8</ele>
        <time>2026-05-13T11:39:52Z</time>
      </trkpt>
      <trkpt lat="45.92748" lon="5.75199">
        <ele>965.8</ele>
        <time>2026-05-13T11:39:53Z</time>
      </trkpt>
      <trkpt lat="45.9275" lon="5.75203">
        <ele>965.8</ele>
        <time>2026-05-13T11:39:54Z</time>
      </trkpt>
      <trkpt lat="45.92753" lon="5.75207">
        <ele>965.8</ele>
        <time>2026-05-13T11:39:55Z</time>
      </trkpt>
      <trkpt lat="45.92755" lon="5.75211">
        <ele>965.8</ele>
        <time>2026-05-13T11:39:56Z</time>
      </trkpt>
      <trkpt lat="45.92757" lon="5.75215">
        <ele>966.2</ele>
        <time>2026-05-13T11:39:57Z</time>
      </trkpt>
      <trkpt lat="45.92759" lon="5.75219">
        <ele>966.2</ele>
        <time>2026-05-13T11:39:58Z</time>
      </trkpt>
      <trkpt lat="45.92761" lon="5.75223">
        <ele>966.2</ele>
        <time>2026-05-13T11:39:59Z</time>
      </trkpt>
      <trkpt lat="45.92764" lon="5.75226">
        <ele>966.2</ele>
        <time>2026-05-13T11:40:00Z</time>
      </trkpt>
      <trkpt lat="45.92767" lon="5.7523">
        <ele>966.2</ele>
        <time>2026-05-13T11:40:01Z</time>
      </trkpt>
      <trkpt lat="45.92769" lon="5.75234">
        <ele>966.2</ele>
        <time>2026-05-13T11:40:02Z</time>
      </trkpt>
      <trkpt lat="45.92771" lon="5.75238">
        <ele>966.2</ele>
        <time>2026-05-13T11:40:03Z</time>
      </trkpt>
      <trkpt lat="45.92773" lon="5.75241">
        <ele>966.4</ele>
        <time>2026-05-13T11:40:04Z</time>
      </trkpt>
      <trkpt lat="45.92775" lon="5.75245">
        <ele>966.4</ele>
        <time>2026-05-13T11:40:05Z</time>
      </trkpt>
      <trkpt lat="45.92777" lon="5.75249">
        <ele>966.2</ele>
        <time>2026-05-13T11:40:06Z</time>
      </trkpt>
      <trkpt lat="45.92779" lon="5.75254">
        <ele>966.2</ele>
        <time>2026-05-13T11:40:07Z</time>
      </trkpt>
      <trkpt lat="45.92781" lon="5.75259">
        <ele>966.2</ele>
        <time>2026-05-13T11:40:08Z</time>
      </trkpt>
      <trkpt lat="45.92783" lon="5.75263">
        <ele>966.4</ele>
        <time>2026-05-13T11:40:09Z</time>
      </trkpt>
      <trkpt lat="45.92785" lon="5.75268">
        <ele>966.4</ele>
        <time>2026-05-13T11:40:10Z</time>
      </trkpt>
      <trkpt lat="45.92786" lon="5.75272">
        <ele>966.4</ele>
        <time>2026-05-13T11:40:11Z</time>
      </trkpt>
      <trkpt lat="45.92787" lon="5.75277">
        <ele>966.4</ele>
        <time>2026-05-13T11:40:12Z</time>
      </trkpt>
      <trkpt lat="45.92787" lon="5.75282">
        <ele>966.8</ele>
        <time>2026-05-13T11:40:13Z</time>
      </trkpt>
      <trkpt lat="45.92788" lon="5.75287">
        <ele>966.8</ele>
        <time>2026-05-13T11:40:14Z</time>
      </trkpt>
      <trkpt lat="45.9279" lon="5.75292">
        <ele>967</ele>
        <time>2026-05-13T11:40:15Z</time>
      </trkpt>
      <trkpt lat="45.92791" lon="5.75296">
        <ele>967</ele>
        <time>2026-05-13T11:40:16Z</time>
      </trkpt>
      <trkpt lat="45.92794" lon="5.753">
        <ele>967.2</ele>
        <time>2026-05-13T11:40:17Z</time>
      </trkpt>
      <trkpt lat="45.92796" lon="5.75304">
        <ele>967.2</ele>
        <time>2026-05-13T11:40:18Z</time>
      </trkpt>
      <trkpt lat="45.92798" lon="5.75307">
        <ele>967.2</ele>
        <time>2026-05-13T11:40:19Z</time>
      </trkpt>
      <trkpt lat="45.92801" lon="5.75311">
        <ele>967.2</ele>
        <time>2026-05-13T11:40:20Z</time>
      </trkpt>
      <trkpt lat="45.92804" lon="5.75314">
        <ele>967.2</ele>
        <time>2026-05-13T11:40:21Z</time>
      </trkpt>
      <trkpt lat="45.92806" lon="5.75316">
        <ele>967.2</ele>
        <time>2026-05-13T11:40:22Z</time>
      </trkpt>
      <trkpt lat="45.92809" lon="5.75319">
        <ele>967.2</ele>
        <time>2026-05-13T11:40:23Z</time>
      </trkpt>
      <trkpt lat="45.92813" lon="5.75321">
        <ele>967.2</ele>
        <time>2026-05-13T11:40:24Z</time>
      </trkpt>
      <trkpt lat="45.92816" lon="5.75323">
        <ele>967.2</ele>
        <time>2026-05-13T11:40:25Z</time>
      </trkpt>
      <trkpt lat="45.92819" lon="5.75326">
        <ele>967.6</ele>
        <time>2026-05-13T11:40:26Z</time>
      </trkpt>
      <trkpt lat="45.92822" lon="5.7533">
        <ele>967.6</ele>
        <time>2026-05-13T11:40:27Z</time>
      </trkpt>
      <trkpt lat="45.92824" lon="5.75333">
        <ele>967.6</ele>
        <time>2026-05-13T11:40:28Z</time>
      </trkpt>
      <trkpt lat="45.92826" lon="5.75337">
        <ele>967.8</ele>
        <time>2026-05-13T11:40:29Z</time>
      </trkpt>
      <trkpt lat="45.92828" lon="5.75342">
        <ele>967.8</ele>
        <time>2026-05-13T11:40:30Z</time>
      </trkpt>
      <trkpt lat="45.9283" lon="5.75346">
        <ele>967.8</ele>
        <time>2026-05-13T11:40:31Z</time>
      </trkpt>
      <trkpt lat="45.92832" lon="5.75355">
        <ele>967.8</ele>
        <time>2026-05-13T11:40:32Z</time>
      </trkpt>
      <trkpt lat="45.92834" lon="5.75359">
        <ele>967.8</ele>
        <time>2026-05-13T11:40:33Z</time>
      </trkpt>
      <trkpt lat="45.92834" lon="5.75363">
        <ele>968</ele>
        <time>2026-05-13T11:40:34Z</time>
      </trkpt>
      <trkpt lat="45.92834" lon="5.75367">
        <ele>968</ele>
        <time>2026-05-13T11:40:35Z</time>
      </trkpt>
      <trkpt lat="45.92834" lon="5.75372">
        <ele>968.2</ele>
        <time>2026-05-13T11:40:36Z</time>
      </trkpt>
      <trkpt lat="45.92833" lon="5.75376">
        <ele>968.6</ele>
        <time>2026-05-13T11:40:37Z</time>
      </trkpt>
      <trkpt lat="45.92833" lon="5.75381">
        <ele>968.6</ele>
        <time>2026-05-13T11:40:38Z</time>
      </trkpt>
      <trkpt lat="45.92832" lon="5.75386">
        <ele>968.6</ele>
        <time>2026-05-13T11:40:39Z</time>
      </trkpt>
      <trkpt lat="45.92832" lon="5.75392">
        <ele>968.6</ele>
        <time>2026-05-13T11:40:40Z</time>
      </trkpt>
      <trkpt lat="45.92832" lon="5.75397">
        <ele>968.2</ele>
        <time>2026-05-13T11:40:41Z</time>
      </trkpt>
      <trkpt lat="45.92833" lon="5.75401">
        <ele>968.2</ele>
        <time>2026-05-13T11:40:42Z</time>
      </trkpt>
      <trkpt lat="45.92833" lon="5.75406">
        <ele>968.2</ele>
        <time>2026-05-13T11:40:43Z</time>
      </trkpt>
      <trkpt lat="45.92834" lon="5.7541">
        <ele>968.6</ele>
        <time>2026-05-13T11:40:44Z</time>
      </trkpt>
      <trkpt lat="45.92835" lon="5.75415">
        <ele>968.6</ele>
        <time>2026-05-13T11:40:45Z</time>
      </trkpt>
      <trkpt lat="45.92836" lon="5.7542">
        <ele>968.6</ele>
        <time>2026-05-13T11:40:46Z</time>
      </trkpt>
      <trkpt lat="45.92838" lon="5.75424">
        <ele>968.6</ele>
        <time>2026-05-13T11:40:47Z</time>
      </trkpt>
      <trkpt lat="45.92839" lon="5.75429">
        <ele>968.8</ele>
        <time>2026-05-13T11:40:48Z</time>
      </trkpt>
      <trkpt lat="45.92841" lon="5.75434">
        <ele>968.8</ele>
        <time>2026-05-13T11:40:49Z</time>
      </trkpt>
      <trkpt lat="45.92841" lon="5.75439">
        <ele>968.8</ele>
        <time>2026-05-13T11:40:50Z</time>
      </trkpt>
      <trkpt lat="45.92841" lon="5.75444">
        <ele>968.8</ele>
        <time>2026-05-13T11:40:51Z</time>
      </trkpt>
      <trkpt lat="45.92841" lon="5.75448">
        <ele>968.8</ele>
        <time>2026-05-13T11:40:52Z</time>
      </trkpt>
      <trkpt lat="45.9284" lon="5.75454">
        <ele>969</ele>
        <time>2026-05-13T11:40:53Z</time>
      </trkpt>
      <trkpt lat="45.9284" lon="5.75459">
        <ele>969</ele>
        <time>2026-05-13T11:40:54Z</time>
      </trkpt>
      <trkpt lat="45.9284" lon="5.75464">
        <ele>969</ele>
        <time>2026-05-13T11:40:55Z</time>
      </trkpt>
      <trkpt lat="45.9284" lon="5.75468">
        <ele>969</ele>
        <time>2026-05-13T11:40:56Z</time>
      </trkpt>
      <trkpt lat="45.9284" lon="5.75471">
        <ele>969</ele>
        <time>2026-05-13T11:40:57Z</time>
      </trkpt>
      <trkpt lat="45.9284" lon="5.75474">
        <ele>969.4</ele>
        <time>2026-05-13T11:40:58Z</time>
      </trkpt>
      <trkpt lat="45.9284" lon="5.75476">
        <ele>969.4</ele>
        <time>2026-05-13T11:40:59Z</time>
      </trkpt>
      <trkpt lat="45.92841" lon="5.75478">
        <ele>969.4</ele>
        <time>2026-05-13T11:41:00Z</time>
      </trkpt>
      <trkpt lat="45.92843" lon="5.75481">
        <ele>969.4</ele>
        <time>2026-05-13T11:41:01Z</time>
      </trkpt>
      <trkpt lat="45.92844" lon="5.75483">
        <ele>969.8</ele>
        <time>2026-05-13T11:41:02Z</time>
      </trkpt>
      <trkpt lat="45.92845" lon="5.75486">
        <ele>969.8</ele>
        <time>2026-05-13T11:41:03Z</time>
      </trkpt>
      <trkpt lat="45.92847" lon="5.75488">
        <ele>969.8</ele>
        <time>2026-05-13T11:41:04Z</time>
      </trkpt>
      <trkpt lat="45.92848" lon="5.75491">
        <ele>969.8</ele>
        <time>2026-05-13T11:41:05Z</time>
      </trkpt>
      <trkpt lat="45.92849" lon="5.75494">
        <ele>970</ele>
        <time>2026-05-13T11:41:06Z</time>
      </trkpt>
      <trkpt lat="45.9285" lon="5.75498">
        <ele>970</ele>
        <time>2026-05-13T11:41:07Z</time>
      </trkpt>
      <trkpt lat="45.9285" lon="5.75501">
        <ele>970</ele>
        <time>2026-05-13T11:41:08Z</time>
      </trkpt>
      <trkpt lat="45.92851" lon="5.75504">
        <ele>970.2</ele>
        <time>2026-05-13T11:41:09Z</time>
      </trkpt>
      <trkpt lat="45.92853" lon="5.75507">
        <ele>970.2</ele>
        <time>2026-05-13T11:41:10Z</time>
      </trkpt>
      <trkpt lat="45.92855" lon="5.7551">
        <ele>970.4</ele>
        <time>2026-05-13T11:41:11Z</time>
      </trkpt>
      <trkpt lat="45.92856" lon="5.75513">
        <ele>970.4</ele>
        <time>2026-05-13T11:41:12Z</time>
      </trkpt>
      <trkpt lat="45.92858" lon="5.75516">
        <ele>970.8</ele>
        <time>2026-05-13T11:41:13Z</time>
      </trkpt>
      <trkpt lat="45.9286" lon="5.75519">
        <ele>971</ele>
        <time>2026-05-13T11:41:14Z</time>
      </trkpt>
      <trkpt lat="45.92861" lon="5.75521">
        <ele>971</ele>
        <time>2026-05-13T11:41:15Z</time>
      </trkpt>
      <trkpt lat="45.9286" lon="5.75524">
        <ele>971.2</ele>
        <time>2026-05-13T11:41:16Z</time>
      </trkpt>
      <trkpt lat="45.9286" lon="5.75526">
        <ele>971.4</ele>
        <time>2026-05-13T11:41:17Z</time>
      </trkpt>
      <trkpt lat="45.92859" lon="5.75529">
        <ele>971.4</ele>
        <time>2026-05-13T11:41:18Z</time>
      </trkpt>
      <trkpt lat="45.92858" lon="5.75531">
        <ele>971.8</ele>
        <time>2026-05-13T11:41:19Z</time>
      </trkpt>
      <trkpt lat="45.92858" lon="5.75534">
        <ele>971.8</ele>
        <time>2026-05-13T11:41:20Z</time>
      </trkpt>
      <trkpt lat="45.92858" lon="5.75536">
        <ele>972</ele>
        <time>2026-05-13T11:41:21Z</time>
      </trkpt>
      <trkpt lat="45.92858" lon="5.75539">
        <ele>972.4</ele>
        <time>2026-05-13T11:41:22Z</time>
      </trkpt>
      <trkpt lat="45.92857" lon="5.75541">
        <ele>972.6</ele>
        <time>2026-05-13T11:41:23Z</time>
      </trkpt>
      <trkpt lat="45.92857" lon="5.75543">
        <ele>972.6</ele>
        <time>2026-05-13T11:41:24Z</time>
      </trkpt>
      <trkpt lat="45.92856" lon="5.75545">
        <ele>972.6</ele>
        <time>2026-05-13T11:41:25Z</time>
      </trkpt>
      <trkpt lat="45.92855" lon="5.75549">
        <ele>972.8</ele>
        <time>2026-05-13T11:41:26Z</time>
      </trkpt>
      <trkpt lat="45.92854" lon="5.75552">
        <ele>972.8</ele>
        <time>2026-05-13T11:41:27Z</time>
      </trkpt>
      <trkpt lat="45.92854" lon="5.75554">
        <ele>973.2</ele>
        <time>2026-05-13T11:41:28Z</time>
      </trkpt>
      <trkpt lat="45.92854" lon="5.75556">
        <ele>973.2</ele>
        <time>2026-05-13T11:41:29Z</time>
      </trkpt>
      <trkpt lat="45.92853" lon="5.75559">
        <ele>973.4</ele>
        <time>2026-05-13T11:41:30Z</time>
      </trkpt>
      <trkpt lat="45.92852" lon="5.75561">
        <ele>973.4</ele>
        <time>2026-05-13T11:41:31Z</time>
      </trkpt>
      <trkpt lat="45.92851" lon="5.75562">
        <ele>973.4</ele>
        <time>2026-05-13T11:41:32Z</time>
      </trkpt>
      <trkpt lat="45.92851" lon="5.75562">
        <ele>973.4</ele>
        <time>2026-05-13T11:41:33Z</time>
      </trkpt>
      <trkpt lat="45.92851" lon="5.75562">
        <ele>973.4</ele>
        <time>2026-05-13T11:41:34Z</time>
      </trkpt>
      <trkpt lat="45.92842" lon="5.75566">
        <ele>973.4</ele>
        <time>2026-05-13T11:42:03Z</time>
      </trkpt>
      <trkpt lat="45.92839" lon="5.75566">
        <ele>973.4</ele>
        <time>2026-05-13T11:42:04Z</time>
      </trkpt>
      <trkpt lat="45.92836" lon="5.75567">
        <ele>973.4</ele>
        <time>2026-05-13T11:42:05Z</time>
      </trkpt>
      <trkpt lat="45.92833" lon="5.75567">
        <ele>973.4</ele>
        <time>2026-05-13T11:42:06Z</time>
      </trkpt>
      <trkpt lat="45.92831" lon="5.75567">
        <ele>973.4</ele>
        <time>2026-05-13T11:42:07Z</time>
      </trkpt>
      <trkpt lat="45.92829" lon="5.75568">
        <ele>973.4</ele>
        <time>2026-05-13T11:42:08Z</time>
      </trkpt>
      <trkpt lat="45.92829" lon="5.75568">
        <ele>973.4</ele>
        <time>2026-05-13T11:42:09Z</time>
      </trkpt>
      <trkpt lat="45.92829" lon="5.75569">
        <ele>973.4</ele>
        <time>2026-05-13T11:42:10Z</time>
      </trkpt>
      <trkpt lat="45.92829" lon="5.75569">
        <ele>973.4</ele>
        <time>2026-05-13T11:42:11Z</time>
      </trkpt>
      <trkpt lat="45.92837" lon="5.75569">
        <ele>973.4</ele>
        <time>2026-05-13T11:42:17Z</time>
      </trkpt>
      <trkpt lat="45.92837" lon="5.75571">
        <ele>973.4</ele>
        <time>2026-05-13T11:42:18Z</time>
      </trkpt>
      <trkpt lat="45.92837" lon="5.75572">
        <ele>973.4</ele>
        <time>2026-05-13T11:42:19Z</time>
      </trkpt>
      <trkpt lat="45.92836" lon="5.75573">
        <ele>973.4</ele>
        <time>2026-05-13T11:42:20Z</time>
      </trkpt>
      <trkpt lat="45.92837" lon="5.75573">
        <ele>973.4</ele>
        <time>2026-05-13T11:42:21Z</time>
      </trkpt>
      <trkpt lat="45.92838" lon="5.75574">
        <ele>973.4</ele>
        <time>2026-05-13T11:42:22Z</time>
      </trkpt>
      <trkpt lat="45.9284" lon="5.75574">
        <ele>973.4</ele>
        <time>2026-05-13T11:42:23Z</time>
      </trkpt>
      <trkpt lat="45.92842" lon="5.75573">
        <ele>973.4</ele>
        <time>2026-05-13T11:42:24Z</time>
      </trkpt>
      <trkpt lat="45.92844" lon="5.75572">
        <ele>973.4</ele>
        <time>2026-05-13T11:42:25Z</time>
      </trkpt>
      <trkpt lat="45.92849" lon="5.75571">
        <ele>974.4</ele>
        <time>2026-05-13T11:43:08Z</time>
      </trkpt>
      <trkpt lat="45.92848" lon="5.75571">
        <ele>974.4</ele>
        <time>2026-05-13T11:43:09Z</time>
      </trkpt>
      <trkpt lat="45.92847" lon="5.75572">
        <ele>974.4</ele>
        <time>2026-05-13T11:43:10Z</time>
      </trkpt>
      <trkpt lat="45.92846" lon="5.75573">
        <ele>974.4</ele>
        <time>2026-05-13T11:43:11Z</time>
      </trkpt>
      <trkpt lat="45.92845" lon="5.75575">
        <ele>974.4</ele>
        <time>2026-05-13T11:43:12Z</time>
      </trkpt>
      <trkpt lat="45.92843" lon="5.75576">
        <ele>974.4</ele>
        <time>2026-05-13T11:43:13Z</time>
      </trkpt>
      <trkpt lat="45.92842" lon="5.75577">
        <ele>974.8</ele>
        <time>2026-05-13T11:43:14Z</time>
      </trkpt>
      <trkpt lat="45.92841" lon="5.75578">
        <ele>974.8</ele>
        <time>2026-05-13T11:43:15Z</time>
      </trkpt>
      <trkpt lat="45.92839" lon="5.75579">
        <ele>974.8</ele>
        <time>2026-05-13T11:43:16Z</time>
      </trkpt>
      <trkpt lat="45.92838" lon="5.7558">
        <ele>975</ele>
        <time>2026-05-13T11:43:17Z</time>
      </trkpt>
      <trkpt lat="45.92837" lon="5.7558">
        <ele>975</ele>
        <time>2026-05-13T11:43:18Z</time>
      </trkpt>
      <trkpt lat="45.92835" lon="5.75581">
        <ele>975.4</ele>
        <time>2026-05-13T11:43:19Z</time>
      </trkpt>
      <trkpt lat="45.92834" lon="5.75581">
        <ele>975.4</ele>
        <time>2026-05-13T11:43:20Z</time>
      </trkpt>
      <trkpt lat="45.92834" lon="5.75582">
        <ele>975.4</ele>
        <time>2026-05-13T11:43:21Z</time>
      </trkpt>
      <trkpt lat="45.92833" lon="5.75581">
        <ele>975.4</ele>
        <time>2026-05-13T11:43:22Z</time>
      </trkpt>
      <trkpt lat="45.92833" lon="5.75581">
        <ele>975.6</ele>
        <time>2026-05-13T11:43:23Z</time>
      </trkpt>
      <trkpt lat="45.92833" lon="5.75581">
        <ele>975.6</ele>
        <time>2026-05-13T11:43:24Z</time>
      </trkpt>
      <trkpt lat="45.92832" lon="5.75581">
        <ele>975.6</ele>
        <time>2026-05-13T11:43:25Z</time>
      </trkpt>
      <trkpt lat="45.92833" lon="5.75581">
        <ele>975.6</ele>
        <time>2026-05-13T11:43:26Z</time>
      </trkpt>
      <trkpt lat="45.92834" lon="5.7558">
        <ele>975.6</ele>
        <time>2026-05-13T11:43:27Z</time>
      </trkpt>
      <trkpt lat="45.92839" lon="5.75571">
        <ele>975.8</ele>
        <time>2026-05-13T11:44:08Z</time>
      </trkpt>
      <trkpt lat="45.92837" lon="5.75572">
        <ele>975.8</ele>
        <time>2026-05-13T11:44:09Z</time>
      </trkpt>
      <trkpt lat="45.92836" lon="5.75573">
        <ele>975.8</ele>
        <time>2026-05-13T11:44:10Z</time>
      </trkpt>
      <trkpt lat="45.92834" lon="5.75573">
        <ele>975.8</ele>
        <time>2026-05-13T11:44:11Z</time>
      </trkpt>
      <trkpt lat="45.92833" lon="5.75573">
        <ele>975.8</ele>
        <time>2026-05-13T11:44:12Z</time>
      </trkpt>
      <trkpt lat="45.9283" lon="5.75572">
        <ele>975.8</ele>
        <time>2026-05-13T11:44:13Z</time>
      </trkpt>
      <trkpt lat="45.92827" lon="5.75569">
        <ele>976</ele>
        <time>2026-05-13T11:44:14Z</time>
      </trkpt>
      <trkpt lat="45.92825" lon="5.75567">
        <ele>976</ele>
        <time>2026-05-13T11:44:15Z</time>
      </trkpt>
      <trkpt lat="45.92824" lon="5.75566">
        <ele>976</ele>
        <time>2026-05-13T11:44:16Z</time>
      </trkpt>
      <trkpt lat="45.92822" lon="5.75566">
        <ele>976.4</ele>
        <time>2026-05-13T11:44:17Z</time>
      </trkpt>
      <trkpt lat="45.92821" lon="5.75566">
        <ele>976.4</ele>
        <time>2026-05-13T11:44:18Z</time>
      </trkpt>
      <trkpt lat="45.9282" lon="5.75565">
        <ele>976.6</ele>
        <time>2026-05-13T11:44:19Z</time>
      </trkpt>
      <trkpt lat="45.92819" lon="5.75563">
        <ele>976.6</ele>
        <time>2026-05-13T11:44:20Z</time>
      </trkpt>
      <trkpt lat="45.92818" lon="5.75562">
        <ele>977</ele>
        <time>2026-05-13T11:44:21Z</time>
      </trkpt>
      <trkpt lat="45.92816" lon="5.75561">
        <ele>977</ele>
        <time>2026-05-13T11:44:22Z</time>
      </trkpt>
      <trkpt lat="45.92814" lon="5.7556">
        <ele>977.2</ele>
        <time>2026-05-13T11:44:23Z</time>
      </trkpt>
      <trkpt lat="45.92813" lon="5.75559">
        <ele>977.6</ele>
        <time>2026-05-13T11:44:24Z</time>
      </trkpt>
      <trkpt lat="45.92812" lon="5.75558">
        <ele>977.8</ele>
        <time>2026-05-13T11:44:25Z</time>
      </trkpt>
      <trkpt lat="45.9281" lon="5.75557">
        <ele>977.8</ele>
        <time>2026-05-13T11:44:26Z</time>
      </trkpt>
      <trkpt lat="45.92809" lon="5.75556">
        <ele>978</ele>
        <time>2026-05-13T11:44:27Z</time>
      </trkpt>
      <trkpt lat="45.92808" lon="5.75555">
        <ele>978.2</ele>
        <time>2026-05-13T11:44:28Z</time>
      </trkpt>
      <trkpt lat="45.92807" lon="5.75553">
        <ele>978.6</ele>
        <time>2026-05-13T11:44:29Z</time>
      </trkpt>
      <trkpt lat="45.92807" lon="5.75551">
        <ele>978.6</ele>
        <time>2026-05-13T11:44:30Z</time>
      </trkpt>
      <trkpt lat="45.92806" lon="5.75549">
        <ele>978.8</ele>
        <time>2026-05-13T11:44:31Z</time>
      </trkpt>
      <trkpt lat="45.92806" lon="5.75547">
        <ele>979.4</ele>
        <time>2026-05-13T11:44:32Z</time>
      </trkpt>
      <trkpt lat="45.92805" lon="5.75545">
        <ele>979.4</ele>
        <time>2026-05-13T11:44:33Z</time>
      </trkpt>
      <trkpt lat="45.92804" lon="5.75544">
        <ele>979.8</ele>
        <time>2026-05-13T11:44:34Z</time>
      </trkpt>
      <trkpt lat="45.92803" lon="5.75542">
        <ele>979.8</ele>
        <time>2026-05-13T11:44:35Z</time>
      </trkpt>
      <trkpt lat="45.92802" lon="5.75542">
        <ele>980</ele>
        <time>2026-05-13T11:44:36Z</time>
      </trkpt>
      <trkpt lat="45.92801" lon="5.75541">
        <ele>980</ele>
        <time>2026-05-13T11:44:37Z</time>
      </trkpt>
      <trkpt lat="45.92801" lon="5.75539">
        <ele>980.4</ele>
        <time>2026-05-13T11:44:38Z</time>
      </trkpt>
      <trkpt lat="45.92801" lon="5.75538">
        <ele>980.4</ele>
        <time>2026-05-13T11:44:39Z</time>
      </trkpt>
      <trkpt lat="45.928" lon="5.75537">
        <ele>980.8</ele>
        <time>2026-05-13T11:44:40Z</time>
      </trkpt>
      <trkpt lat="45.928" lon="5.75536">
        <ele>981.2</ele>
        <time>2026-05-13T11:44:41Z</time>
      </trkpt>
      <trkpt lat="45.92798" lon="5.75535">
        <ele>981.4</ele>
        <time>2026-05-13T11:44:42Z</time>
      </trkpt>
      <trkpt lat="45.92796" lon="5.75534">
        <ele>981.8</ele>
        <time>2026-05-13T11:44:43Z</time>
      </trkpt>
      <trkpt lat="45.92795" lon="5.75533">
        <ele>982</ele>
        <time>2026-05-13T11:44:44Z</time>
      </trkpt>
      <trkpt lat="45.92795" lon="5.75532">
        <ele>982.2</ele>
        <time>2026-05-13T11:44:45Z</time>
      </trkpt>
      <trkpt lat="45.92794" lon="5.75531">
        <ele>982.6</ele>
        <time>2026-05-13T11:44:46Z</time>
      </trkpt>
      <trkpt lat="45.92792" lon="5.7553">
        <ele>982.6</ele>
        <time>2026-05-13T11:44:47Z</time>
      </trkpt>
      <trkpt lat="45.9279" lon="5.75529">
        <ele>982.8</ele>
        <time>2026-05-13T11:44:48Z</time>
      </trkpt>
      <trkpt lat="45.92789" lon="5.75528">
        <ele>982.8</ele>
        <time>2026-05-13T11:44:49Z</time>
      </trkpt>
      <trkpt lat="45.92789" lon="5.75527">
        <ele>983.2</ele>
        <time>2026-05-13T11:44:50Z</time>
      </trkpt>
      <trkpt lat="45.92789" lon="5.75526">
        <ele>983.6</ele>
        <time>2026-05-13T11:44:51Z</time>
      </trkpt>
      <trkpt lat="45.92788" lon="5.75524">
        <ele>983.6</ele>
        <time>2026-05-13T11:44:52Z</time>
      </trkpt>
      <trkpt lat="45.92787" lon="5.75523">
        <ele>984.2</ele>
        <time>2026-05-13T11:44:53Z</time>
      </trkpt>
      <trkpt lat="45.92785" lon="5.75522">
        <ele>984.4</ele>
        <time>2026-05-13T11:44:54Z</time>
      </trkpt>
      <trkpt lat="45.92784" lon="5.75521">
        <ele>984.6</ele>
        <time>2026-05-13T11:44:55Z</time>
      </trkpt>
      <trkpt lat="45.92782" lon="5.75521">
        <ele>984.8</ele>
        <time>2026-05-13T11:44:56Z</time>
      </trkpt>
      <trkpt lat="45.92781" lon="5.7552">
        <ele>984.8</ele>
        <time>2026-05-13T11:44:57Z</time>
      </trkpt>
      <trkpt lat="45.9278" lon="5.7552">
        <ele>984.8</ele>
        <time>2026-05-13T11:44:58Z</time>
      </trkpt>
      <trkpt lat="45.92779" lon="5.75519">
        <ele>985.2</ele>
        <time>2026-05-13T11:44:59Z</time>
      </trkpt>
      <trkpt lat="45.92779" lon="5.75517">
        <ele>985.4</ele>
        <time>2026-05-13T11:45:00Z</time>
      </trkpt>
      <trkpt lat="45.92778" lon="5.75516">
        <ele>985.6</ele>
        <time>2026-05-13T11:45:01Z</time>
      </trkpt>
      <trkpt lat="45.92777" lon="5.75515">
        <ele>985.6</ele>
        <time>2026-05-13T11:45:02Z</time>
      </trkpt>
      <trkpt lat="45.92776" lon="5.75514">
        <ele>986</ele>
        <time>2026-05-13T11:45:03Z</time>
      </trkpt>
      <trkpt lat="45.92776" lon="5.75513">
        <ele>986</ele>
        <time>2026-05-13T11:45:04Z</time>
      </trkpt>
      <trkpt lat="45.92775" lon="5.75512">
        <ele>986.4</ele>
        <time>2026-05-13T11:45:05Z</time>
      </trkpt>
      <trkpt lat="45.92774" lon="5.75511">
        <ele>986.6</ele>
        <time>2026-05-13T11:45:06Z</time>
      </trkpt>
      <trkpt lat="45.92773" lon="5.7551">
        <ele>986.6</ele>
        <time>2026-05-13T11:45:07Z</time>
      </trkpt>
      <trkpt lat="45.92772" lon="5.75509">
        <ele>987</ele>
        <time>2026-05-13T11:45:08Z</time>
      </trkpt>
      <trkpt lat="45.92771" lon="5.75508">
        <ele>987</ele>
        <time>2026-05-13T11:45:09Z</time>
      </trkpt>
      <trkpt lat="45.9277" lon="5.75507">
        <ele>987.2</ele>
        <time>2026-05-13T11:45:10Z</time>
      </trkpt>
      <trkpt lat="45.92769" lon="5.75505">
        <ele>987.2</ele>
        <time>2026-05-13T11:45:11Z</time>
      </trkpt>
      <trkpt lat="45.92768" lon="5.75503">
        <ele>987.6</ele>
        <time>2026-05-13T11:45:12Z</time>
      </trkpt>
      <trkpt lat="45.92767" lon="5.75502">
        <ele>987.6</ele>
        <time>2026-05-13T11:45:13Z</time>
      </trkpt>
      <trkpt lat="45.92766" lon="5.75499">
        <ele>988</ele>
        <time>2026-05-13T11:45:14Z</time>
      </trkpt>
      <trkpt lat="45.92766" lon="5.75497">
        <ele>988.2</ele>
        <time>2026-05-13T11:45:15Z</time>
      </trkpt>
      <trkpt lat="45.92766" lon="5.75495">
        <ele>988.2</ele>
        <time>2026-05-13T11:45:16Z</time>
      </trkpt>
      <trkpt lat="45.92766" lon="5.75494">
        <ele>988.4</ele>
        <time>2026-05-13T11:45:17Z</time>
      </trkpt>
      <trkpt lat="45.92765" lon="5.75492">
        <ele>988.4</ele>
        <time>2026-05-13T11:45:18Z</time>
      </trkpt>
      <trkpt lat="45.92763" lon="5.75491">
        <ele>988.6</ele>
        <time>2026-05-13T11:45:19Z</time>
      </trkpt>
      <trkpt lat="45.92762" lon="5.7549">
        <ele>988.6</ele>
        <time>2026-05-13T11:45:20Z</time>
      </trkpt>
      <trkpt lat="45.92762" lon="5.7549">
        <ele>988.6</ele>
        <time>2026-05-13T11:45:21Z</time>
      </trkpt>
      <trkpt lat="45.92761" lon="5.75489">
        <ele>989</ele>
        <time>2026-05-13T11:45:22Z</time>
      </trkpt>
      <trkpt lat="45.92759" lon="5.75489">
        <ele>989</ele>
        <time>2026-05-13T11:45:23Z</time>
      </trkpt>
      <trkpt lat="45.92758" lon="5.75488">
        <ele>989.4</ele>
        <time>2026-05-13T11:45:24Z</time>
      </trkpt>
      <trkpt lat="45.92756" lon="5.75488">
        <ele>989.6</ele>
        <time>2026-05-13T11:45:25Z</time>
      </trkpt>
      <trkpt lat="45.92755" lon="5.75487">
        <ele>989.6</ele>
        <time>2026-05-13T11:45:26Z</time>
      </trkpt>
      <trkpt lat="45.92754" lon="5.75487">
        <ele>989.6</ele>
        <time>2026-05-13T11:45:27Z</time>
      </trkpt>
      <trkpt lat="45.92753" lon="5.75486">
        <ele>989.6</ele>
        <time>2026-05-13T11:45:28Z</time>
      </trkpt>
      <trkpt lat="45.92752" lon="5.75485">
        <ele>990</ele>
        <time>2026-05-13T11:45:29Z</time>
      </trkpt>
      <trkpt lat="45.9275" lon="5.75484">
        <ele>990</ele>
        <time>2026-05-13T11:45:30Z</time>
      </trkpt>
      <trkpt lat="45.9275" lon="5.75484">
        <ele>990.4</ele>
        <time>2026-05-13T11:45:31Z</time>
      </trkpt>
      <trkpt lat="45.9275" lon="5.75483">
        <ele>990.4</ele>
        <time>2026-05-13T11:45:32Z</time>
      </trkpt>
      <trkpt lat="45.92751" lon="5.75482">
        <ele>990.6</ele>
        <time>2026-05-13T11:45:33Z</time>
      </trkpt>
      <trkpt lat="45.9275" lon="5.75482">
        <ele>990.8</ele>
        <time>2026-05-13T11:45:34Z</time>
      </trkpt>
      <trkpt lat="45.92748" lon="5.75481">
        <ele>990.8</ele>
        <time>2026-05-13T11:45:35Z</time>
      </trkpt>
      <trkpt lat="45.92746" lon="5.75481">
        <ele>991.2</ele>
        <time>2026-05-13T11:45:36Z</time>
      </trkpt>
      <trkpt lat="45.92745" lon="5.7548">
        <ele>991.2</ele>
        <time>2026-05-13T11:45:37Z</time>
      </trkpt>
      <trkpt lat="45.92744" lon="5.75479">
        <ele>991.2</ele>
        <time>2026-05-13T11:45:38Z</time>
      </trkpt>
      <trkpt lat="45.92743" lon="5.75478">
        <ele>991.4</ele>
        <time>2026-05-13T11:45:39Z</time>
      </trkpt>
      <trkpt lat="45.92742" lon="5.75477">
        <ele>991.4</ele>
        <time>2026-05-13T11:45:40Z</time>
      </trkpt>
      <trkpt lat="45.9274" lon="5.75477">
        <ele>991.8</ele>
        <time>2026-05-13T11:45:41Z</time>
      </trkpt>
      <trkpt lat="45.92738" lon="5.75477">
        <ele>991.8</ele>
        <time>2026-05-13T11:45:42Z</time>
      </trkpt>
      <trkpt lat="45.92735" lon="5.75477">
        <ele>991.8</ele>
        <time>2026-05-13T11:45:43Z</time>
      </trkpt>
      <trkpt lat="45.92734" lon="5.75477">
        <ele>992</ele>
        <time>2026-05-13T11:45:44Z</time>
      </trkpt>
      <trkpt lat="45.92732" lon="5.75477">
        <ele>992.2</ele>
        <time>2026-05-13T11:45:45Z</time>
      </trkpt>
      <trkpt lat="45.9273" lon="5.75476">
        <ele>992.2</ele>
        <time>2026-05-13T11:45:46Z</time>
      </trkpt>
      <trkpt lat="45.92729" lon="5.75476">
        <ele>992.6</ele>
        <time>2026-05-13T11:45:47Z</time>
      </trkpt>
      <trkpt lat="45.92727" lon="5.75475">
        <ele>992.6</ele>
        <time>2026-05-13T11:45:48Z</time>
      </trkpt>
      <trkpt lat="45.92726" lon="5.75475">
        <ele>992.8</ele>
        <time>2026-05-13T11:45:49Z</time>
      </trkpt>
      <trkpt lat="45.92725" lon="5.75474">
        <ele>992.8</ele>
        <time>2026-05-13T11:45:50Z</time>
      </trkpt>
      <trkpt lat="45.92723" lon="5.75472">
        <ele>993.2</ele>
        <time>2026-05-13T11:45:51Z</time>
      </trkpt>
      <trkpt lat="45.92722" lon="5.75471">
        <ele>993.2</ele>
        <time>2026-05-13T11:45:52Z</time>
      </trkpt>
      <trkpt lat="45.92721" lon="5.75469">
        <ele>993.4</ele>
        <time>2026-05-13T11:45:53Z</time>
      </trkpt>
      <trkpt lat="45.9272" lon="5.75468">
        <ele>993.4</ele>
        <time>2026-05-13T11:45:54Z</time>
      </trkpt>
      <trkpt lat="45.92719" lon="5.75466">
        <ele>993.8</ele>
        <time>2026-05-13T11:45:55Z</time>
      </trkpt>
      <trkpt lat="45.92717" lon="5.75464">
        <ele>993.8</ele>
        <time>2026-05-13T11:45:56Z</time>
      </trkpt>
      <trkpt lat="45.92716" lon="5.75463">
        <ele>993.8</ele>
        <time>2026-05-13T11:45:57Z</time>
      </trkpt>
      <trkpt lat="45.92715" lon="5.75462">
        <ele>994</ele>
        <time>2026-05-13T11:45:58Z</time>
      </trkpt>
      <trkpt lat="45.92714" lon="5.75461">
        <ele>994</ele>
        <time>2026-05-13T11:45:59Z</time>
      </trkpt>
      <trkpt lat="45.92712" lon="5.7546">
        <ele>994</ele>
        <time>2026-05-13T11:46:00Z</time>
      </trkpt>
      <trkpt lat="45.92711" lon="5.7546">
        <ele>994.2</ele>
        <time>2026-05-13T11:46:01Z</time>
      </trkpt>
      <trkpt lat="45.92709" lon="5.75458">
        <ele>994.2</ele>
        <time>2026-05-13T11:46:02Z</time>
      </trkpt>
      <trkpt lat="45.92708" lon="5.75457">
        <ele>994.2</ele>
        <time>2026-05-13T11:46:03Z</time>
      </trkpt>
      <trkpt lat="45.92707" lon="5.75456">
        <ele>994.2</ele>
        <time>2026-05-13T11:46:04Z</time>
      </trkpt>
      <trkpt lat="45.92705" lon="5.75455">
        <ele>994.4</ele>
        <time>2026-05-13T11:46:05Z</time>
      </trkpt>
      <trkpt lat="45.92704" lon="5.75454">
        <ele>994.4</ele>
        <time>2026-05-13T11:46:06Z</time>
      </trkpt>
      <trkpt lat="45.92702" lon="5.75452">
        <ele>994.4</ele>
        <time>2026-05-13T11:46:07Z</time>
      </trkpt>
      <trkpt lat="45.927" lon="5.7545">
        <ele>994.4</ele>
        <time>2026-05-13T11:46:08Z</time>
      </trkpt>
      <trkpt lat="45.92698" lon="5.75448">
        <ele>994.8</ele>
        <time>2026-05-13T11:46:09Z</time>
      </trkpt>
      <trkpt lat="45.92696" lon="5.75446">
        <ele>994.8</ele>
        <time>2026-05-13T11:46:10Z</time>
      </trkpt>
      <trkpt lat="45.92692" lon="5.75444">
        <ele>994.8</ele>
        <time>2026-05-13T11:46:11Z</time>
      </trkpt>
      <trkpt lat="45.92689" lon="5.75443">
        <ele>994.8</ele>
        <time>2026-05-13T11:46:12Z</time>
      </trkpt>
      <trkpt lat="45.92685" lon="5.75442">
        <ele>995</ele>
        <time>2026-05-13T11:46:13Z</time>
      </trkpt>
      <trkpt lat="45.92682" lon="5.7544">
        <ele>995</ele>
        <time>2026-05-13T11:46:14Z</time>
      </trkpt>
      <trkpt lat="45.9268" lon="5.75439">
        <ele>995</ele>
        <time>2026-05-13T11:46:15Z</time>
      </trkpt>
      <trkpt lat="45.92678" lon="5.75437">
        <ele>995</ele>
        <time>2026-05-13T11:46:16Z</time>
      </trkpt>
      <trkpt lat="45.92676" lon="5.75436">
        <ele>995</ele>
        <time>2026-05-13T11:46:17Z</time>
      </trkpt>
      <trkpt lat="45.92673" lon="5.75434">
        <ele>995</ele>
        <time>2026-05-13T11:46:18Z</time>
      </trkpt>
      <trkpt lat="45.92673" lon="5.75434">
        <ele>995</ele>
        <time>2026-05-13T11:46:19Z</time>
      </trkpt>
      <trkpt lat="45.92673" lon="5.75434">
        <ele>995.4</ele>
        <time>2026-05-13T11:46:20Z</time>
      </trkpt>
      <trkpt lat="45.92662" lon="5.75424">
        <ele>995</ele>
        <time>2026-05-13T11:46:23Z</time>
      </trkpt>
      <trkpt lat="45.9266" lon="5.75421">
        <ele>994.8</ele>
        <time>2026-05-13T11:46:24Z</time>
      </trkpt>
      <trkpt lat="45.92658" lon="5.75419">
        <ele>994.8</ele>
        <time>2026-05-13T11:46:25Z</time>
      </trkpt>
      <trkpt lat="45.92655" lon="5.75417">
        <ele>994.8</ele>
        <time>2026-05-13T11:46:26Z</time>
      </trkpt>
      <trkpt lat="45.92652" lon="5.75416">
        <ele>994.8</ele>
        <time>2026-05-13T11:46:27Z</time>
      </trkpt>
      <trkpt lat="45.9265" lon="5.75414">
        <ele>994.8</ele>
        <time>2026-05-13T11:46:28Z</time>
      </trkpt>
      <trkpt lat="45.92647" lon="5.75413">
        <ele>994.8</ele>
        <time>2026-05-13T11:46:29Z</time>
      </trkpt>
      <trkpt lat="45.92645" lon="5.75412">
        <ele>994.8</ele>
        <time>2026-05-13T11:46:30Z</time>
      </trkpt>
      <trkpt lat="45.92643" lon="5.7541">
        <ele>994.8</ele>
        <time>2026-05-13T11:46:31Z</time>
      </trkpt>
      <trkpt lat="45.92641" lon="5.7541">
        <ele>995</ele>
        <time>2026-05-13T11:46:32Z</time>
      </trkpt>
      <trkpt lat="45.92638" lon="5.75409">
        <ele>995</ele>
        <time>2026-05-13T11:46:33Z</time>
      </trkpt>
      <trkpt lat="45.92635" lon="5.75409">
        <ele>995</ele>
        <time>2026-05-13T11:46:34Z</time>
      </trkpt>
      <trkpt lat="45.92633" lon="5.7541">
        <ele>995</ele>
        <time>2026-05-13T11:46:35Z</time>
      </trkpt>
      <trkpt lat="45.92629" lon="5.7541">
        <ele>995</ele>
        <time>2026-05-13T11:46:36Z</time>
      </trkpt>
      <trkpt lat="45.92626" lon="5.7541">
        <ele>995</ele>
        <time>2026-05-13T11:46:37Z</time>
      </trkpt>
      <trkpt lat="45.92624" lon="5.7541">
        <ele>995</ele>
        <time>2026-05-13T11:46:38Z</time>
      </trkpt>
      <trkpt lat="45.92621" lon="5.7541">
        <ele>995</ele>
        <time>2026-05-13T11:46:39Z</time>
      </trkpt>
      <trkpt lat="45.92618" lon="5.7541">
        <ele>995</ele>
        <time>2026-05-13T11:46:40Z</time>
      </trkpt>
      <trkpt lat="45.92615" lon="5.7541">
        <ele>995</ele>
        <time>2026-05-13T11:46:41Z</time>
      </trkpt>
      <trkpt lat="45.92613" lon="5.7541">
        <ele>995</ele>
        <time>2026-05-13T11:46:42Z</time>
      </trkpt>
      <trkpt lat="45.9261" lon="5.75409">
        <ele>995</ele>
        <time>2026-05-13T11:46:43Z</time>
      </trkpt>
      <trkpt lat="45.92607" lon="5.75409">
        <ele>995</ele>
        <time>2026-05-13T11:46:44Z</time>
      </trkpt>
      <trkpt lat="45.92604" lon="5.75408">
        <ele>994.8</ele>
        <time>2026-05-13T11:46:45Z</time>
      </trkpt>
      <trkpt lat="45.926" lon="5.75407">
        <ele>994.8</ele>
        <time>2026-05-13T11:46:46Z</time>
      </trkpt>
      <trkpt lat="45.92597" lon="5.75406">
        <ele>994.8</ele>
        <time>2026-05-13T11:46:47Z</time>
      </trkpt>
      <trkpt lat="45.92594" lon="5.75404">
        <ele>994.4</ele>
        <time>2026-05-13T11:46:48Z</time>
      </trkpt>
      <trkpt lat="45.92591" lon="5.75401">
        <ele>994.4</ele>
        <time>2026-05-13T11:46:49Z</time>
      </trkpt>
      <trkpt lat="45.92587" lon="5.75398">
        <ele>993.8</ele>
        <time>2026-05-13T11:46:50Z</time>
      </trkpt>
      <trkpt lat="45.92586" lon="5.75393">
        <ele>993.6</ele>
        <time>2026-05-13T11:46:51Z</time>
      </trkpt>
      <trkpt lat="45.92583" lon="5.75388">
        <ele>993.2</ele>
        <time>2026-05-13T11:46:52Z</time>
      </trkpt>
      <trkpt lat="45.92578" lon="5.75386">
        <ele>993</ele>
        <time>2026-05-13T11:46:53Z</time>
      </trkpt>
      <trkpt lat="45.92575" lon="5.75382">
        <ele>992.8</ele>
        <time>2026-05-13T11:46:54Z</time>
      </trkpt>
      <trkpt lat="45.92568" lon="5.75382">
        <ele>992.4</ele>
        <time>2026-05-13T11:46:55Z</time>
      </trkpt>
      <trkpt lat="45.92562" lon="5.75379">
        <ele>992.4</ele>
        <time>2026-05-13T11:46:56Z</time>
      </trkpt>
      <trkpt lat="45.92562" lon="5.75374">
        <ele>992.4</ele>
        <time>2026-05-13T11:46:57Z</time>
      </trkpt>
      <trkpt lat="45.92557" lon="5.75369">
        <ele>992.4</ele>
        <time>2026-05-13T11:46:58Z</time>
      </trkpt>
      <trkpt lat="45.92554" lon="5.75366">
        <ele>992.2</ele>
        <time>2026-05-13T11:46:59Z</time>
      </trkpt>
      <trkpt lat="45.92551" lon="5.7536">
        <ele>991.8</ele>
        <time>2026-05-13T11:47:00Z</time>
      </trkpt>
      <trkpt lat="45.92551" lon="5.7536">
        <ele>991.8</ele>
        <time>2026-05-13T11:47:01Z</time>
      </trkpt>
      <trkpt lat="45.92551" lon="5.7536">
        <ele>991.4</ele>
        <time>2026-05-13T11:47:02Z</time>
      </trkpt>
      <trkpt lat="45.92545" lon="5.75352">
        <ele>991.4</ele>
        <time>2026-05-13T11:47:03Z</time>
      </trkpt>
      <trkpt lat="45.92541" lon="5.75349">
        <ele>991.2</ele>
        <time>2026-05-13T11:47:04Z</time>
      </trkpt>
      <trkpt lat="45.92537" lon="5.75348">
        <ele>991.2</ele>
        <time>2026-05-13T11:47:05Z</time>
      </trkpt>
      <trkpt lat="45.92534" lon="5.75345">
        <ele>991.2</ele>
        <time>2026-05-13T11:47:06Z</time>
      </trkpt>
      <trkpt lat="45.92529" lon="5.75344">
        <ele>991.2</ele>
        <time>2026-05-13T11:47:07Z</time>
      </trkpt>
      <trkpt lat="45.92526" lon="5.75342">
        <ele>991.2</ele>
        <time>2026-05-13T11:47:08Z</time>
      </trkpt>
      <trkpt lat="45.92523" lon="5.75337">
        <ele>990.8</ele>
        <time>2026-05-13T11:47:09Z</time>
      </trkpt>
      <trkpt lat="45.92518" lon="5.75335">
        <ele>990.8</ele>
        <time>2026-05-13T11:47:10Z</time>
      </trkpt>
      <trkpt lat="45.92513" lon="5.75332">
        <ele>990.6</ele>
        <time>2026-05-13T11:47:11Z</time>
      </trkpt>
      <trkpt lat="45.9251" lon="5.75329">
        <ele>990.6</ele>
        <time>2026-05-13T11:47:12Z</time>
      </trkpt>
      <trkpt lat="45.92503" lon="5.75326">
        <ele>990.2</ele>
        <time>2026-05-13T11:47:13Z</time>
      </trkpt>
      <trkpt lat="45.92494" lon="5.75324">
        <ele>990</ele>
        <time>2026-05-13T11:47:14Z</time>
      </trkpt>
      <trkpt lat="45.92489" lon="5.75322">
        <ele>990</ele>
        <time>2026-05-13T11:47:15Z</time>
      </trkpt>
      <trkpt lat="45.92483" lon="5.7532">
        <ele>989.2</ele>
        <time>2026-05-13T11:47:16Z</time>
      </trkpt>
      <trkpt lat="45.92479" lon="5.75321">
        <ele>988.8</ele>
        <time>2026-05-13T11:47:17Z</time>
      </trkpt>
      <trkpt lat="45.92474" lon="5.7532">
        <ele>988.2</ele>
        <time>2026-05-13T11:47:18Z</time>
      </trkpt>
      <trkpt lat="45.92468" lon="5.75318">
        <ele>987.8</ele>
        <time>2026-05-13T11:47:19Z</time>
      </trkpt>
      <trkpt lat="45.92462" lon="5.75316">
        <ele>987.8</ele>
        <time>2026-05-13T11:47:20Z</time>
      </trkpt>
      <trkpt lat="45.92458" lon="5.75316">
        <ele>987.4</ele>
        <time>2026-05-13T11:47:21Z</time>
      </trkpt>
      <trkpt lat="45.92451" lon="5.75316">
        <ele>987.4</ele>
        <time>2026-05-13T11:47:22Z</time>
      </trkpt>
      <trkpt lat="45.92446" lon="5.75313">
        <ele>987.4</ele>
        <time>2026-05-13T11:47:23Z</time>
      </trkpt>
      <trkpt lat="45.92441" lon="5.75312">
        <ele>987.4</ele>
        <time>2026-05-13T11:47:24Z</time>
      </trkpt>
      <trkpt lat="45.92435" lon="5.75312">
        <ele>987.4</ele>
        <time>2026-05-13T11:47:25Z</time>
      </trkpt>
      <trkpt lat="45.9243" lon="5.75309">
        <ele>987.2</ele>
        <time>2026-05-13T11:47:26Z</time>
      </trkpt>
      <trkpt lat="45.92421" lon="5.75305">
        <ele>987.2</ele>
        <time>2026-05-13T11:47:27Z</time>
      </trkpt>
      <trkpt lat="45.92415" lon="5.75302">
        <ele>987.4</ele>
        <time>2026-05-13T11:47:28Z</time>
      </trkpt>
      <trkpt lat="45.92413" lon="5.75303">
        <ele>987.4</ele>
        <time>2026-05-13T11:47:29Z</time>
      </trkpt>
      <trkpt lat="45.92408" lon="5.75298">
        <ele>987</ele>
        <time>2026-05-13T11:47:30Z</time>
      </trkpt>
      <trkpt lat="45.92405" lon="5.75295">
        <ele>986.8</ele>
        <time>2026-05-13T11:47:31Z</time>
      </trkpt>
      <trkpt lat="45.92402" lon="5.75291">
        <ele>986.8</ele>
        <time>2026-05-13T11:47:32Z</time>
      </trkpt>
      <trkpt lat="45.92397" lon="5.75289">
        <ele>986.8</ele>
        <time>2026-05-13T11:47:33Z</time>
      </trkpt>
      <trkpt lat="45.9239" lon="5.75285">
        <ele>986.6</ele>
        <time>2026-05-13T11:47:34Z</time>
      </trkpt>
      <trkpt lat="45.92386" lon="5.75282">
        <ele>986.6</ele>
        <time>2026-05-13T11:47:35Z</time>
      </trkpt>
      <trkpt lat="45.92382" lon="5.75281">
        <ele>986.2</ele>
        <time>2026-05-13T11:47:36Z</time>
      </trkpt>
      <trkpt lat="45.92377" lon="5.75281">
        <ele>986</ele>
        <time>2026-05-13T11:47:37Z</time>
      </trkpt>
      <trkpt lat="45.92373" lon="5.75275">
        <ele>985.6</ele>
        <time>2026-05-13T11:47:38Z</time>
      </trkpt>
      <trkpt lat="45.92364" lon="5.75274">
        <ele>985.4</ele>
        <time>2026-05-13T11:47:39Z</time>
      </trkpt>
      <trkpt lat="45.92358" lon="5.75269">
        <ele>985.4</ele>
        <time>2026-05-13T11:47:40Z</time>
      </trkpt>
      <trkpt lat="45.92353" lon="5.75265">
        <ele>985.4</ele>
        <time>2026-05-13T11:47:41Z</time>
      </trkpt>
      <trkpt lat="45.92349" lon="5.75261">
        <ele>985</ele>
        <time>2026-05-13T11:47:42Z</time>
      </trkpt>
      <trkpt lat="45.92344" lon="5.75256">
        <ele>984.6</ele>
        <time>2026-05-13T11:47:43Z</time>
      </trkpt>
      <trkpt lat="45.92339" lon="5.75254">
        <ele>984.6</ele>
        <time>2026-05-13T11:47:44Z</time>
      </trkpt>
      <trkpt lat="45.92334" lon="5.75251">
        <ele>984.6</ele>
        <time>2026-05-13T11:47:45Z</time>
      </trkpt>
      <trkpt lat="45.92329" lon="5.75246">
        <ele>984.6</ele>
        <time>2026-05-13T11:47:46Z</time>
      </trkpt>
      <trkpt lat="45.92322" lon="5.75242">
        <ele>984</ele>
        <time>2026-05-13T11:47:47Z</time>
      </trkpt>
      <trkpt lat="45.92317" lon="5.75237">
        <ele>984</ele>
        <time>2026-05-13T11:47:48Z</time>
      </trkpt>
      <trkpt lat="45.92312" lon="5.75231">
        <ele>984</ele>
        <time>2026-05-13T11:47:49Z</time>
      </trkpt>
      <trkpt lat="45.92308" lon="5.75225">
        <ele>984</ele>
        <time>2026-05-13T11:47:50Z</time>
      </trkpt>
      <trkpt lat="45.92304" lon="5.7522">
        <ele>984</ele>
        <time>2026-05-13T11:47:51Z</time>
      </trkpt>
      <trkpt lat="45.92299" lon="5.75214">
        <ele>984</ele>
        <time>2026-05-13T11:47:52Z</time>
      </trkpt>
      <trkpt lat="45.92294" lon="5.75209">
        <ele>984</ele>
        <time>2026-05-13T11:47:53Z</time>
      </trkpt>
      <trkpt lat="45.92291" lon="5.75204">
        <ele>984</ele>
        <time>2026-05-13T11:47:54Z</time>
      </trkpt>
      <trkpt lat="45.92285" lon="5.75199">
        <ele>984</ele>
        <time>2026-05-13T11:47:55Z</time>
      </trkpt>
      <trkpt lat="45.92282" lon="5.75195">
        <ele>984</ele>
        <time>2026-05-13T11:47:56Z</time>
      </trkpt>
      <trkpt lat="45.92278" lon="5.7519">
        <ele>984</ele>
        <time>2026-05-13T11:47:57Z</time>
      </trkpt>
      <trkpt lat="45.92274" lon="5.75188">
        <ele>984.4</ele>
        <time>2026-05-13T11:47:58Z</time>
      </trkpt>
      <trkpt lat="45.92271" lon="5.75184">
        <ele>984.8</ele>
        <time>2026-05-13T11:47:59Z</time>
      </trkpt>
      <trkpt lat="45.92268" lon="5.75182">
        <ele>984.8</ele>
        <time>2026-05-13T11:48:00Z</time>
      </trkpt>
      <trkpt lat="45.92264" lon="5.75181">
        <ele>984.8</ele>
        <time>2026-05-13T11:48:01Z</time>
      </trkpt>
      <trkpt lat="45.9226" lon="5.75179">
        <ele>985.2</ele>
        <time>2026-05-13T11:48:02Z</time>
      </trkpt>
      <trkpt lat="45.92256" lon="5.75178">
        <ele>985.4</ele>
        <time>2026-05-13T11:48:03Z</time>
      </trkpt>
      <trkpt lat="45.92252" lon="5.75176">
        <ele>985.4</ele>
        <time>2026-05-13T11:48:04Z</time>
      </trkpt>
      <trkpt lat="45.92249" lon="5.75175">
        <ele>985.6</ele>
        <time>2026-05-13T11:48:05Z</time>
      </trkpt>
      <trkpt lat="45.92246" lon="5.75175">
        <ele>985.6</ele>
        <time>2026-05-13T11:48:06Z</time>
      </trkpt>
      <trkpt lat="45.92242" lon="5.75172">
        <ele>986</ele>
        <time>2026-05-13T11:48:07Z</time>
      </trkpt>
      <trkpt lat="45.92238" lon="5.7517">
        <ele>986.2</ele>
        <time>2026-05-13T11:48:08Z</time>
      </trkpt>
      <trkpt lat="45.92235" lon="5.75169">
        <ele>986.2</ele>
        <time>2026-05-13T11:48:09Z</time>
      </trkpt>
      <trkpt lat="45.92231" lon="5.75169">
        <ele>986.2</ele>
        <time>2026-05-13T11:48:10Z</time>
      </trkpt>
      <trkpt lat="45.92228" lon="5.75168">
        <ele>986.2</ele>
        <time>2026-05-13T11:48:11Z</time>
      </trkpt>
      <trkpt lat="45.92225" lon="5.75169">
        <ele>986.4</ele>
        <time>2026-05-13T11:48:12Z</time>
      </trkpt>
      <trkpt lat="45.92222" lon="5.75169">
        <ele>986.4</ele>
        <time>2026-05-13T11:48:13Z</time>
      </trkpt>
      <trkpt lat="45.92219" lon="5.75169">
        <ele>986.4</ele>
        <time>2026-05-13T11:48:14Z</time>
      </trkpt>
      <trkpt lat="45.92216" lon="5.75169">
        <ele>986.8</ele>
        <time>2026-05-13T11:48:15Z</time>
      </trkpt>
      <trkpt lat="45.92212" lon="5.75169">
        <ele>986.8</ele>
        <time>2026-05-13T11:48:16Z</time>
      </trkpt>
      <trkpt lat="45.92209" lon="5.75169">
        <ele>987</ele>
        <time>2026-05-13T11:48:17Z</time>
      </trkpt>
      <trkpt lat="45.92206" lon="5.75168">
        <ele>987</ele>
        <time>2026-05-13T11:48:18Z</time>
      </trkpt>
      <trkpt lat="45.92204" lon="5.75168">
        <ele>987</ele>
        <time>2026-05-13T11:48:19Z</time>
      </trkpt>
      <trkpt lat="45.922" lon="5.75167">
        <ele>987.2</ele>
        <time>2026-05-13T11:48:20Z</time>
      </trkpt>
      <trkpt lat="45.92196" lon="5.75167">
        <ele>987</ele>
        <time>2026-05-13T11:48:21Z</time>
      </trkpt>
      <trkpt lat="45.92193" lon="5.75167">
        <ele>987</ele>
        <time>2026-05-13T11:48:22Z</time>
      </trkpt>
      <trkpt lat="45.92188" lon="5.75166">
        <ele>987.4</ele>
        <time>2026-05-13T11:48:23Z</time>
      </trkpt>
      <trkpt lat="45.92185" lon="5.75167">
        <ele>987.4</ele>
        <time>2026-05-13T11:48:24Z</time>
      </trkpt>
      <trkpt lat="45.92182" lon="5.75167">
        <ele>987.6</ele>
        <time>2026-05-13T11:48:25Z</time>
      </trkpt>
      <trkpt lat="45.92179" lon="5.75168">
        <ele>987.6</ele>
        <time>2026-05-13T11:48:26Z</time>
      </trkpt>
      <trkpt lat="45.92176" lon="5.75169">
        <ele>987.6</ele>
        <time>2026-05-13T11:48:27Z</time>
      </trkpt>
      <trkpt lat="45.92173" lon="5.7517">
        <ele>987.6</ele>
        <time>2026-05-13T11:48:28Z</time>
      </trkpt>
      <trkpt lat="45.92169" lon="5.7517">
        <ele>987.8</ele>
        <time>2026-05-13T11:48:29Z</time>
      </trkpt>
      <trkpt lat="45.92165" lon="5.75169">
        <ele>988</ele>
        <time>2026-05-13T11:48:30Z</time>
      </trkpt>
      <trkpt lat="45.92161" lon="5.75169">
        <ele>988</ele>
        <time>2026-05-13T11:48:31Z</time>
      </trkpt>
      <trkpt lat="45.92157" lon="5.75169">
        <ele>988.2</ele>
        <time>2026-05-13T11:48:32Z</time>
      </trkpt>
      <trkpt lat="45.92155" lon="5.7517">
        <ele>988.2</ele>
        <time>2026-05-13T11:48:33Z</time>
      </trkpt>
      <trkpt lat="45.92152" lon="5.7517">
        <ele>988.2</ele>
        <time>2026-05-13T11:48:34Z</time>
      </trkpt>
      <trkpt lat="45.92148" lon="5.75172">
        <ele>988.2</ele>
        <time>2026-05-13T11:48:35Z</time>
      </trkpt>
      <trkpt lat="45.92143" lon="5.75172">
        <ele>988.6</ele>
        <time>2026-05-13T11:48:36Z</time>
      </trkpt>
      <trkpt lat="45.92138" lon="5.75173">
        <ele>988.6</ele>
        <time>2026-05-13T11:48:37Z</time>
      </trkpt>
      <trkpt lat="45.92135" lon="5.75174">
        <ele>988.6</ele>
        <time>2026-05-13T11:48:38Z</time>
      </trkpt>
      <trkpt lat="45.92131" lon="5.75175">
        <ele>988.6</ele>
        <time>2026-05-13T11:48:39Z</time>
      </trkpt>
      <trkpt lat="45.92127" lon="5.75175">
        <ele>988.6</ele>
        <time>2026-05-13T11:48:40Z</time>
      </trkpt>
      <trkpt lat="45.92124" lon="5.75176">
        <ele>988.6</ele>
        <time>2026-05-13T11:48:41Z</time>
      </trkpt>
      <trkpt lat="45.92119" lon="5.75177">
        <ele>988.6</ele>
        <time>2026-05-13T11:48:42Z</time>
      </trkpt>
      <trkpt lat="45.92116" lon="5.75179">
        <ele>988.8</ele>
        <time>2026-05-13T11:48:43Z</time>
      </trkpt>
      <trkpt lat="45.92112" lon="5.7518">
        <ele>989</ele>
        <time>2026-05-13T11:48:44Z</time>
      </trkpt>
      <trkpt lat="45.92108" lon="5.75181">
        <ele>989</ele>
        <time>2026-05-13T11:48:45Z</time>
      </trkpt>
      <trkpt lat="45.92105" lon="5.75181">
        <ele>989</ele>
        <time>2026-05-13T11:48:46Z</time>
      </trkpt>
      <trkpt lat="45.92102" lon="5.75182">
        <ele>989</ele>
        <time>2026-05-13T11:48:47Z</time>
      </trkpt>
      <trkpt lat="45.92098" lon="5.75184">
        <ele>989</ele>
        <time>2026-05-13T11:48:48Z</time>
      </trkpt>
      <trkpt lat="45.92094" lon="5.75187">
        <ele>989</ele>
        <time>2026-05-13T11:48:49Z</time>
      </trkpt>
      <trkpt lat="45.92091" lon="5.75189">
        <ele>989</ele>
        <time>2026-05-13T11:48:50Z</time>
      </trkpt>
      <trkpt lat="45.92088" lon="5.75192">
        <ele>989.4</ele>
        <time>2026-05-13T11:48:51Z</time>
      </trkpt>
      <trkpt lat="45.92085" lon="5.75195">
        <ele>989.6</ele>
        <time>2026-05-13T11:48:52Z</time>
      </trkpt>
      <trkpt lat="45.92083" lon="5.75198">
        <ele>989.6</ele>
        <time>2026-05-13T11:48:53Z</time>
      </trkpt>
      <trkpt lat="45.9208" lon="5.75201">
        <ele>989.6</ele>
        <time>2026-05-13T11:48:54Z</time>
      </trkpt>
      <trkpt lat="45.92077" lon="5.75204">
        <ele>989.6</ele>
        <time>2026-05-13T11:48:55Z</time>
      </trkpt>
      <trkpt lat="45.92074" lon="5.75207">
        <ele>989.6</ele>
        <time>2026-05-13T11:48:56Z</time>
      </trkpt>
      <trkpt lat="45.92071" lon="5.75209">
        <ele>989.6</ele>
        <time>2026-05-13T11:48:57Z</time>
      </trkpt>
      <trkpt lat="45.92069" lon="5.75212">
        <ele>989.8</ele>
        <time>2026-05-13T11:48:58Z</time>
      </trkpt>
      <trkpt lat="45.92067" lon="5.75215">
        <ele>989.8</ele>
        <time>2026-05-13T11:48:59Z</time>
      </trkpt>
      <trkpt lat="45.92064" lon="5.75218">
        <ele>990.2</ele>
        <time>2026-05-13T11:49:00Z</time>
      </trkpt>
      <trkpt lat="45.92062" lon="5.75221">
        <ele>990.2</ele>
        <time>2026-05-13T11:49:01Z</time>
      </trkpt>
      <trkpt lat="45.92059" lon="5.75224">
        <ele>990.2</ele>
        <time>2026-05-13T11:49:02Z</time>
      </trkpt>
      <trkpt lat="45.92056" lon="5.75227">
        <ele>990.4</ele>
        <time>2026-05-13T11:49:03Z</time>
      </trkpt>
      <trkpt lat="45.92053" lon="5.7523">
        <ele>990.4</ele>
        <time>2026-05-13T11:49:04Z</time>
      </trkpt>
      <trkpt lat="45.92051" lon="5.75232">
        <ele>990.4</ele>
        <time>2026-05-13T11:49:05Z</time>
      </trkpt>
      <trkpt lat="45.92048" lon="5.75235">
        <ele>990.8</ele>
        <time>2026-05-13T11:49:06Z</time>
      </trkpt>
      <trkpt lat="45.92044" lon="5.75237">
        <ele>990.8</ele>
        <time>2026-05-13T11:49:07Z</time>
      </trkpt>
      <trkpt lat="45.92041" lon="5.75239">
        <ele>991</ele>
        <time>2026-05-13T11:49:08Z</time>
      </trkpt>
      <trkpt lat="45.92037" lon="5.7524">
        <ele>991</ele>
        <time>2026-05-13T11:49:09Z</time>
      </trkpt>
      <trkpt lat="45.92033" lon="5.75241">
        <ele>991</ele>
        <time>2026-05-13T11:49:10Z</time>
      </trkpt>
      <trkpt lat="45.92029" lon="5.75242">
        <ele>991</ele>
        <time>2026-05-13T11:49:11Z</time>
      </trkpt>
      <trkpt lat="45.92026" lon="5.75243">
        <ele>991.2</ele>
        <time>2026-05-13T11:49:12Z</time>
      </trkpt>
      <trkpt lat="45.92022" lon="5.75245">
        <ele>991.4</ele>
        <time>2026-05-13T11:49:13Z</time>
      </trkpt>
      <trkpt lat="45.92019" lon="5.75247">
        <ele>991.4</ele>
        <time>2026-05-13T11:49:14Z</time>
      </trkpt>
      <trkpt lat="45.92017" lon="5.75249">
        <ele>991.4</ele>
        <time>2026-05-13T11:49:15Z</time>
      </trkpt>
      <trkpt lat="45.92013" lon="5.75251">
        <ele>991.4</ele>
        <time>2026-05-13T11:49:16Z</time>
      </trkpt>
      <trkpt lat="45.9201" lon="5.75253">
        <ele>991.8</ele>
        <time>2026-05-13T11:49:17Z</time>
      </trkpt>
      <trkpt lat="45.92007" lon="5.75254">
        <ele>991.8</ele>
        <time>2026-05-13T11:49:18Z</time>
      </trkpt>
      <trkpt lat="45.92005" lon="5.75255">
        <ele>992</ele>
        <time>2026-05-13T11:49:19Z</time>
      </trkpt>
      <trkpt lat="45.92002" lon="5.75256">
        <ele>992</ele>
        <time>2026-05-13T11:49:20Z</time>
      </trkpt>
      <trkpt lat="45.92" lon="5.75257">
        <ele>992</ele>
        <time>2026-05-13T11:49:21Z</time>
      </trkpt>
      <trkpt lat="45.91998" lon="5.75257">
        <ele>992</ele>
        <time>2026-05-13T11:49:22Z</time>
      </trkpt>
      <trkpt lat="45.91995" lon="5.75259">
        <ele>992</ele>
        <time>2026-05-13T11:49:23Z</time>
      </trkpt>
      <trkpt lat="45.91993" lon="5.75261">
        <ele>992.2</ele>
        <time>2026-05-13T11:49:24Z</time>
      </trkpt>
      <trkpt lat="45.91992" lon="5.75262">
        <ele>992.2</ele>
        <time>2026-05-13T11:49:25Z</time>
      </trkpt>
      <trkpt lat="45.91992" lon="5.75262">
        <ele>992.6</ele>
        <time>2026-05-13T11:49:26Z</time>
      </trkpt>
      <trkpt lat="45.91991" lon="5.75263">
        <ele>992.6</ele>
        <time>2026-05-13T11:49:27Z</time>
      </trkpt>
      <trkpt lat="45.91991" lon="5.75264">
        <ele>992.8</ele>
        <time>2026-05-13T11:49:28Z</time>
      </trkpt>
      <trkpt lat="45.9199" lon="5.75264">
        <ele>992.8</ele>
        <time>2026-05-13T11:49:29Z</time>
      </trkpt>
      <trkpt lat="45.91989" lon="5.75265">
        <ele>992.8</ele>
        <time>2026-05-13T11:49:30Z</time>
      </trkpt>
      <trkpt lat="45.91988" lon="5.75267">
        <ele>993</ele>
        <time>2026-05-13T11:49:31Z</time>
      </trkpt>
      <trkpt lat="45.91986" lon="5.75269">
        <ele>993</ele>
        <time>2026-05-13T11:49:32Z</time>
      </trkpt>
      <trkpt lat="45.91986" lon="5.75269">
        <ele>993</ele>
        <time>2026-05-13T11:49:33Z</time>
      </trkpt>
      <trkpt lat="45.91984" lon="5.7527">
        <ele>993</ele>
        <time>2026-05-13T11:49:34Z</time>
      </trkpt>
      <trkpt lat="45.91981" lon="5.75271">
        <ele>993</ele>
        <time>2026-05-13T11:49:35Z</time>
      </trkpt>
      <trkpt lat="45.91978" lon="5.75271">
        <ele>993.4</ele>
        <time>2026-05-13T11:49:36Z</time>
      </trkpt>
      <trkpt lat="45.91974" lon="5.75271">
        <ele>993.4</ele>
        <time>2026-05-13T11:49:37Z</time>
      </trkpt>
      <trkpt lat="45.91971" lon="5.75271">
        <ele>993.4</ele>
        <time>2026-05-13T11:49:38Z</time>
      </trkpt>
      <trkpt lat="45.91968" lon="5.7527">
        <ele>993.6</ele>
        <time>2026-05-13T11:49:39Z</time>
      </trkpt>
      <trkpt lat="45.91964" lon="5.7527">
        <ele>993.6</ele>
        <time>2026-05-13T11:49:40Z</time>
      </trkpt>
      <trkpt lat="45.91961" lon="5.7527">
        <ele>993.6</ele>
        <time>2026-05-13T11:49:41Z</time>
      </trkpt>
      <trkpt lat="45.91957" lon="5.75269">
        <ele>993.6</ele>
        <time>2026-05-13T11:49:42Z</time>
      </trkpt>
      <trkpt lat="45.91953" lon="5.75269">
        <ele>994</ele>
        <time>2026-05-13T11:49:43Z</time>
      </trkpt>
      <trkpt lat="45.9195" lon="5.75269">
        <ele>994</ele>
        <time>2026-05-13T11:49:44Z</time>
      </trkpt>
      <trkpt lat="45.91947" lon="5.75269">
        <ele>994.2</ele>
        <time>2026-05-13T11:49:45Z</time>
      </trkpt>
      <trkpt lat="45.91944" lon="5.75269">
        <ele>994.2</ele>
        <time>2026-05-13T11:49:46Z</time>
      </trkpt>
      <trkpt lat="45.9194" lon="5.75268">
        <ele>994.2</ele>
        <time>2026-05-13T11:49:47Z</time>
      </trkpt>
      <trkpt lat="45.91937" lon="5.75267">
        <ele>994.2</ele>
        <time>2026-05-13T11:49:48Z</time>
      </trkpt>
      <trkpt lat="45.91934" lon="5.75264">
        <ele>994.4</ele>
        <time>2026-05-13T11:49:49Z</time>
      </trkpt>
      <trkpt lat="45.91931" lon="5.75262">
        <ele>994.4</ele>
        <time>2026-05-13T11:49:50Z</time>
      </trkpt>
      <trkpt lat="45.91928" lon="5.75259">
        <ele>994.8</ele>
        <time>2026-05-13T11:49:51Z</time>
      </trkpt>
      <trkpt lat="45.91925" lon="5.75258">
        <ele>994.8</ele>
        <time>2026-05-13T11:49:52Z</time>
      </trkpt>
      <trkpt lat="45.91922" lon="5.75256">
        <ele>994.8</ele>
        <time>2026-05-13T11:49:53Z</time>
      </trkpt>
      <trkpt lat="45.9192" lon="5.75253">
        <ele>995.2</ele>
        <time>2026-05-13T11:49:54Z</time>
      </trkpt>
      <trkpt lat="45.91917" lon="5.75251">
        <ele>995.2</ele>
        <time>2026-05-13T11:49:55Z</time>
      </trkpt>
      <trkpt lat="45.91915" lon="5.75249">
        <ele>995.4</ele>
        <time>2026-05-13T11:49:56Z</time>
      </trkpt>
      <trkpt lat="45.91913" lon="5.75246">
        <ele>995.4</ele>
        <time>2026-05-13T11:49:57Z</time>
      </trkpt>
      <trkpt lat="45.91911" lon="5.75243">
        <ele>995.4</ele>
        <time>2026-05-13T11:49:58Z</time>
      </trkpt>
      <trkpt lat="45.9191" lon="5.75241">
        <ele>995.8</ele>
        <time>2026-05-13T11:49:59Z</time>
      </trkpt>
      <trkpt lat="45.91907" lon="5.75238">
        <ele>995.8</ele>
        <time>2026-05-13T11:50:00Z</time>
      </trkpt>
      <trkpt lat="45.91905" lon="5.75235">
        <ele>996</ele>
        <time>2026-05-13T11:50:01Z</time>
      </trkpt>
      <trkpt lat="45.91902" lon="5.75233">
        <ele>996</ele>
        <time>2026-05-13T11:50:02Z</time>
      </trkpt>
      <trkpt lat="45.919" lon="5.7523">
        <ele>996.4</ele>
        <time>2026-05-13T11:50:03Z</time>
      </trkpt>
      <trkpt lat="45.91898" lon="5.75228">
        <ele>996.4</ele>
        <time>2026-05-13T11:50:04Z</time>
      </trkpt>
      <trkpt lat="45.91896" lon="5.75226">
        <ele>996.6</ele>
        <time>2026-05-13T11:50:05Z</time>
      </trkpt>
      <trkpt lat="45.91893" lon="5.75225">
        <ele>996.6</ele>
        <time>2026-05-13T11:50:06Z</time>
      </trkpt>
      <trkpt lat="45.91891" lon="5.75224">
        <ele>996.6</ele>
        <time>2026-05-13T11:50:07Z</time>
      </trkpt>
      <trkpt lat="45.91888" lon="5.75222">
        <ele>996.6</ele>
        <time>2026-05-13T11:50:08Z</time>
      </trkpt>
      <trkpt lat="45.91885" lon="5.75221">
        <ele>996.6</ele>
        <time>2026-05-13T11:50:09Z</time>
      </trkpt>
      <trkpt lat="45.91882" lon="5.75219">
        <ele>997</ele>
        <time>2026-05-13T11:50:10Z</time>
      </trkpt>
      <trkpt lat="45.9188" lon="5.75218">
        <ele>997</ele>
        <time>2026-05-13T11:50:11Z</time>
      </trkpt>
      <trkpt lat="45.91877" lon="5.75217">
        <ele>997</ele>
        <time>2026-05-13T11:50:12Z</time>
      </trkpt>
      <trkpt lat="45.91874" lon="5.75215">
        <ele>997.4</ele>
        <time>2026-05-13T11:50:13Z</time>
      </trkpt>
      <trkpt lat="45.91871" lon="5.75213">
        <ele>997.4</ele>
        <time>2026-05-13T11:50:14Z</time>
      </trkpt>
      <trkpt lat="45.91868" lon="5.75211">
        <ele>997.4</ele>
        <time>2026-05-13T11:50:15Z</time>
      </trkpt>
      <trkpt lat="45.91865" lon="5.75209">
        <ele>997.4</ele>
        <time>2026-05-13T11:50:16Z</time>
      </trkpt>
      <trkpt lat="45.91863" lon="5.75208">
        <ele>997.4</ele>
        <time>2026-05-13T11:50:17Z</time>
      </trkpt>
      <trkpt lat="45.9186" lon="5.75207">
        <ele>997.4</ele>
        <time>2026-05-13T11:50:18Z</time>
      </trkpt>
      <trkpt lat="45.91858" lon="5.75206">
        <ele>997.8</ele>
        <time>2026-05-13T11:50:19Z</time>
      </trkpt>
      <trkpt lat="45.91856" lon="5.75205">
        <ele>997.8</ele>
        <time>2026-05-13T11:50:20Z</time>
      </trkpt>
      <trkpt lat="45.91854" lon="5.75204">
        <ele>997.8</ele>
        <time>2026-05-13T11:50:21Z</time>
      </trkpt>
      <trkpt lat="45.91851" lon="5.75204">
        <ele>998.2</ele>
        <time>2026-05-13T11:50:22Z</time>
      </trkpt>
      <trkpt lat="45.91849" lon="5.75202">
        <ele>998.2</ele>
        <time>2026-05-13T11:50:23Z</time>
      </trkpt>
      <trkpt lat="45.91846" lon="5.75201">
        <ele>998.2</ele>
        <time>2026-05-13T11:50:24Z</time>
      </trkpt>
      <trkpt lat="45.91843" lon="5.752">
        <ele>998.2</ele>
        <time>2026-05-13T11:50:25Z</time>
      </trkpt>
      <trkpt lat="45.91841" lon="5.75198">
        <ele>998.2</ele>
        <time>2026-05-13T11:50:26Z</time>
      </trkpt>
      <trkpt lat="45.91838" lon="5.75197">
        <ele>998.2</ele>
        <time>2026-05-13T11:50:27Z</time>
      </trkpt>
      <trkpt lat="45.91835" lon="5.75196">
        <ele>998.4</ele>
        <time>2026-05-13T11:50:28Z</time>
      </trkpt>
      <trkpt lat="45.91833" lon="5.75196">
        <ele>998.4</ele>
        <time>2026-05-13T11:50:29Z</time>
      </trkpt>
      <trkpt lat="45.91831" lon="5.75195">
        <ele>998.4</ele>
        <time>2026-05-13T11:50:30Z</time>
      </trkpt>
      <trkpt lat="45.91828" lon="5.75194">
        <ele>998.6</ele>
        <time>2026-05-13T11:50:31Z</time>
      </trkpt>
      <trkpt lat="45.91825" lon="5.75193">
        <ele>999</ele>
        <time>2026-05-13T11:50:32Z</time>
      </trkpt>
      <trkpt lat="45.91822" lon="5.75191">
        <ele>999</ele>
        <time>2026-05-13T11:50:33Z</time>
      </trkpt>
      <trkpt lat="45.9182" lon="5.75189">
        <ele>999</ele>
        <time>2026-05-13T11:50:34Z</time>
      </trkpt>
      <trkpt lat="45.91817" lon="5.75187">
        <ele>999</ele>
        <time>2026-05-13T11:50:35Z</time>
      </trkpt>
      <trkpt lat="45.91815" lon="5.75185">
        <ele>999</ele>
        <time>2026-05-13T11:50:36Z</time>
      </trkpt>
      <trkpt lat="45.91813" lon="5.75184">
        <ele>999.2</ele>
        <time>2026-05-13T11:50:37Z</time>
      </trkpt>
      <trkpt lat="45.91811" lon="5.75182">
        <ele>999.2</ele>
        <time>2026-05-13T11:50:38Z</time>
      </trkpt>
      <trkpt lat="45.91809" lon="5.75181">
        <ele>999.2</ele>
        <time>2026-05-13T11:50:39Z</time>
      </trkpt>
      <trkpt lat="45.91807" lon="5.75179">
        <ele>999.2</ele>
        <time>2026-05-13T11:50:40Z</time>
      </trkpt>
      <trkpt lat="45.91804" lon="5.75177">
        <ele>999.4</ele>
        <time>2026-05-13T11:50:41Z</time>
      </trkpt>
      <trkpt lat="45.91803" lon="5.75176">
        <ele>999.4</ele>
        <time>2026-05-13T11:50:42Z</time>
      </trkpt>
      <trkpt lat="45.91801" lon="5.75175">
        <ele>999.4</ele>
        <time>2026-05-13T11:50:43Z</time>
      </trkpt>
      <trkpt lat="45.91799" lon="5.75173">
        <ele>999.4</ele>
        <time>2026-05-13T11:50:44Z</time>
      </trkpt>
      <trkpt lat="45.91796" lon="5.75172">
        <ele>999.4</ele>
        <time>2026-05-13T11:50:45Z</time>
      </trkpt>
      <trkpt lat="45.91794" lon="5.75171">
        <ele>999.8</ele>
        <time>2026-05-13T11:50:46Z</time>
      </trkpt>
      <trkpt lat="45.91792" lon="5.7517">
        <ele>999.8</ele>
        <time>2026-05-13T11:50:47Z</time>
      </trkpt>
      <trkpt lat="45.91789" lon="5.75169">
        <ele>999.8</ele>
        <time>2026-05-13T11:50:48Z</time>
      </trkpt>
      <trkpt lat="45.91785" lon="5.75168">
        <ele>999.8</ele>
        <time>2026-05-13T11:50:49Z</time>
      </trkpt>
      <trkpt lat="45.91779" lon="5.75167">
        <ele>999.8</ele>
        <time>2026-05-13T11:50:50Z</time>
      </trkpt>
      <trkpt lat="45.91775" lon="5.75167">
        <ele>1000</ele>
        <time>2026-05-13T11:50:51Z</time>
      </trkpt>
      <trkpt lat="45.91772" lon="5.75166">
        <ele>1000</ele>
        <time>2026-05-13T11:50:52Z</time>
      </trkpt>
      <trkpt lat="45.91769" lon="5.75166">
        <ele>1000</ele>
        <time>2026-05-13T11:50:53Z</time>
      </trkpt>
      <trkpt lat="45.91767" lon="5.75166">
        <ele>1000</ele>
        <time>2026-05-13T11:50:54Z</time>
      </trkpt>
      <trkpt lat="45.91764" lon="5.75166">
        <ele>1000.4</ele>
        <time>2026-05-13T11:50:55Z</time>
      </trkpt>
      <trkpt lat="45.91761" lon="5.75165">
        <ele>1000.4</ele>
        <time>2026-05-13T11:50:56Z</time>
      </trkpt>
      <trkpt lat="45.91757" lon="5.75165">
        <ele>1000.6</ele>
        <time>2026-05-13T11:50:57Z</time>
      </trkpt>
      <trkpt lat="45.91754" lon="5.75165">
        <ele>1000.6</ele>
        <time>2026-05-13T11:50:58Z</time>
      </trkpt>
      <trkpt lat="45.91752" lon="5.75164">
        <ele>1000.6</ele>
        <time>2026-05-13T11:50:59Z</time>
      </trkpt>
      <trkpt lat="45.91749" lon="5.75164">
        <ele>1000.6</ele>
        <time>2026-05-13T11:51:00Z</time>
      </trkpt>
      <trkpt lat="45.91746" lon="5.75163">
        <ele>1000.8</ele>
        <time>2026-05-13T11:51:01Z</time>
      </trkpt>
      <trkpt lat="45.91744" lon="5.75162">
        <ele>1000.8</ele>
        <time>2026-05-13T11:51:02Z</time>
      </trkpt>
      <trkpt lat="45.91741" lon="5.75161">
        <ele>1001</ele>
        <time>2026-05-13T11:51:03Z</time>
      </trkpt>
      <trkpt lat="45.91739" lon="5.75161">
        <ele>1001.4</ele>
        <time>2026-05-13T11:51:04Z</time>
      </trkpt>
      <trkpt lat="45.91736" lon="5.7516">
        <ele>1001.6</ele>
        <time>2026-05-13T11:51:05Z</time>
      </trkpt>
      <trkpt lat="45.91734" lon="5.75159">
        <ele>1001.6</ele>
        <time>2026-05-13T11:51:06Z</time>
      </trkpt>
      <trkpt lat="45.91731" lon="5.75159">
        <ele>1001.6</ele>
        <time>2026-05-13T11:51:07Z</time>
      </trkpt>
      <trkpt lat="45.91729" lon="5.75157">
        <ele>1001.8</ele>
        <time>2026-05-13T11:51:08Z</time>
      </trkpt>
      <trkpt lat="45.91726" lon="5.75156">
        <ele>1002.2</ele>
        <time>2026-05-13T11:51:09Z</time>
      </trkpt>
      <trkpt lat="45.91724" lon="5.75155">
        <ele>1002.2</ele>
        <time>2026-05-13T11:51:10Z</time>
      </trkpt>
      <trkpt lat="45.91721" lon="5.75154">
        <ele>1002.2</ele>
        <time>2026-05-13T11:51:11Z</time>
      </trkpt>
      <trkpt lat="45.91719" lon="5.75153">
        <ele>1002.2</ele>
        <time>2026-05-13T11:51:12Z</time>
      </trkpt>
      <trkpt lat="45.91716" lon="5.75152">
        <ele>1002.2</ele>
        <time>2026-05-13T11:51:13Z</time>
      </trkpt>
      <trkpt lat="45.91714" lon="5.7515">
        <ele>1002.2</ele>
        <time>2026-05-13T11:51:14Z</time>
      </trkpt>
      <trkpt lat="45.91711" lon="5.75148">
        <ele>1002.6</ele>
        <time>2026-05-13T11:51:15Z</time>
      </trkpt>
      <trkpt lat="45.91709" lon="5.75147">
        <ele>1002.6</ele>
        <time>2026-05-13T11:51:16Z</time>
      </trkpt>
      <trkpt lat="45.91708" lon="5.75146">
        <ele>1002.8</ele>
        <time>2026-05-13T11:51:17Z</time>
      </trkpt>
      <trkpt lat="45.91706" lon="5.75144">
        <ele>1003.2</ele>
        <time>2026-05-13T11:51:18Z</time>
      </trkpt>
      <trkpt lat="45.91704" lon="5.75143">
        <ele>1003.2</ele>
        <time>2026-05-13T11:51:19Z</time>
      </trkpt>
      <trkpt lat="45.91702" lon="5.75141">
        <ele>1003.2</ele>
        <time>2026-05-13T11:51:20Z</time>
      </trkpt>
      <trkpt lat="45.917" lon="5.75139">
        <ele>1003.6</ele>
        <time>2026-05-13T11:51:21Z</time>
      </trkpt>
      <trkpt lat="45.91699" lon="5.75138">
        <ele>1003.6</ele>
        <time>2026-05-13T11:51:22Z</time>
      </trkpt>
      <trkpt lat="45.91697" lon="5.75136">
        <ele>1003.6</ele>
        <time>2026-05-13T11:51:23Z</time>
      </trkpt>
      <trkpt lat="45.91695" lon="5.75134">
        <ele>1003.6</ele>
        <time>2026-05-13T11:51:24Z</time>
      </trkpt>
      <trkpt lat="45.91694" lon="5.75133">
        <ele>1003.6</ele>
        <time>2026-05-13T11:51:25Z</time>
      </trkpt>
      <trkpt lat="45.91693" lon="5.75132">
        <ele>1003.6</ele>
        <time>2026-05-13T11:51:26Z</time>
      </trkpt>
      <trkpt lat="45.91691" lon="5.7513">
        <ele>1004</ele>
        <time>2026-05-13T11:51:27Z</time>
      </trkpt>
      <trkpt lat="45.9169" lon="5.75129">
        <ele>1004</ele>
        <time>2026-05-13T11:51:28Z</time>
      </trkpt>
      <trkpt lat="45.91688" lon="5.75127">
        <ele>1004</ele>
        <time>2026-05-13T11:51:29Z</time>
      </trkpt>
      <trkpt lat="45.91687" lon="5.75125">
        <ele>1004</ele>
        <time>2026-05-13T11:51:30Z</time>
      </trkpt>
      <trkpt lat="45.91685" lon="5.75123">
        <ele>1004.2</ele>
        <time>2026-05-13T11:51:31Z</time>
      </trkpt>
      <trkpt lat="45.91683" lon="5.75121">
        <ele>1004.4</ele>
        <time>2026-05-13T11:51:32Z</time>
      </trkpt>
      <trkpt lat="45.91682" lon="5.75119">
        <ele>1004.8</ele>
        <time>2026-05-13T11:51:33Z</time>
      </trkpt>
      <trkpt lat="45.91681" lon="5.75118">
        <ele>1005.2</ele>
        <time>2026-05-13T11:51:34Z</time>
      </trkpt>
      <trkpt lat="45.9168" lon="5.75118">
        <ele>1005.4</ele>
        <time>2026-05-13T11:51:35Z</time>
      </trkpt>
      <trkpt lat="45.91679" lon="5.75117">
        <ele>1005.4</ele>
        <time>2026-05-13T11:51:36Z</time>
      </trkpt>
      <trkpt lat="45.91677" lon="5.75116">
        <ele>1005.4</ele>
        <time>2026-05-13T11:51:37Z</time>
      </trkpt>
      <trkpt lat="45.91675" lon="5.75114">
        <ele>1005.6</ele>
        <time>2026-05-13T11:51:38Z</time>
      </trkpt>
      <trkpt lat="45.91674" lon="5.75112">
        <ele>1005.6</ele>
        <time>2026-05-13T11:51:39Z</time>
      </trkpt>
      <trkpt lat="45.91672" lon="5.75111">
        <ele>1006.2</ele>
        <time>2026-05-13T11:51:40Z</time>
      </trkpt>
      <trkpt lat="45.91671" lon="5.7511">
        <ele>1006.2</ele>
        <time>2026-05-13T11:51:41Z</time>
      </trkpt>
      <trkpt lat="45.9167" lon="5.75108">
        <ele>1006.4</ele>
        <time>2026-05-13T11:51:42Z</time>
      </trkpt>
      <trkpt lat="45.91668" lon="5.75106">
        <ele>1006.4</ele>
        <time>2026-05-13T11:51:43Z</time>
      </trkpt>
      <trkpt lat="45.91666" lon="5.75104">
        <ele>1006.4</ele>
        <time>2026-05-13T11:51:44Z</time>
      </trkpt>
      <trkpt lat="45.91665" lon="5.75103">
        <ele>1006.8</ele>
        <time>2026-05-13T11:51:45Z</time>
      </trkpt>
      <trkpt lat="45.91663" lon="5.75102">
        <ele>1006.8</ele>
        <time>2026-05-13T11:51:46Z</time>
      </trkpt>
      <trkpt lat="45.91662" lon="5.75101">
        <ele>1007.2</ele>
        <time>2026-05-13T11:51:47Z</time>
      </trkpt>
      <trkpt lat="45.91661" lon="5.75099">
        <ele>1007.2</ele>
        <time>2026-05-13T11:51:48Z</time>
      </trkpt>
      <trkpt lat="45.91659" lon="5.75098">
        <ele>1007.4</ele>
        <time>2026-05-13T11:51:49Z</time>
      </trkpt>
      <trkpt lat="45.91657" lon="5.75096">
        <ele>1007.8</ele>
        <time>2026-05-13T11:51:50Z</time>
      </trkpt>
      <trkpt lat="45.91655" lon="5.75095">
        <ele>1007.8</ele>
        <time>2026-05-13T11:51:51Z</time>
      </trkpt>
      <trkpt lat="45.91653" lon="5.75095">
        <ele>1008</ele>
        <time>2026-05-13T11:51:52Z</time>
      </trkpt>
      <trkpt lat="45.91651" lon="5.75094">
        <ele>1008</ele>
        <time>2026-05-13T11:51:53Z</time>
      </trkpt>
      <trkpt lat="45.91649" lon="5.75094">
        <ele>1008.4</ele>
        <time>2026-05-13T11:51:54Z</time>
      </trkpt>
      <trkpt lat="45.91647" lon="5.75093">
        <ele>1008.6</ele>
        <time>2026-05-13T11:51:55Z</time>
      </trkpt>
      <trkpt lat="45.91645" lon="5.75092">
        <ele>1008.8</ele>
        <time>2026-05-13T11:51:56Z</time>
      </trkpt>
      <trkpt lat="45.91644" lon="5.75091">
        <ele>1008.8</ele>
        <time>2026-05-13T11:51:57Z</time>
      </trkpt>
      <trkpt lat="45.91643" lon="5.7509">
        <ele>1008.8</ele>
        <time>2026-05-13T11:51:58Z</time>
      </trkpt>
      <trkpt lat="45.91642" lon="5.75089">
        <ele>1009.2</ele>
        <time>2026-05-13T11:51:59Z</time>
      </trkpt>
      <trkpt lat="45.91641" lon="5.75088">
        <ele>1009.2</ele>
        <time>2026-05-13T11:52:00Z</time>
      </trkpt>
      <trkpt lat="45.9164" lon="5.75087">
        <ele>1009.4</ele>
        <time>2026-05-13T11:52:01Z</time>
      </trkpt>
      <trkpt lat="45.91639" lon="5.75086">
        <ele>1009.4</ele>
        <time>2026-05-13T11:52:02Z</time>
      </trkpt>
      <trkpt lat="45.91638" lon="5.75085">
        <ele>1010</ele>
        <time>2026-05-13T11:52:03Z</time>
      </trkpt>
      <trkpt lat="45.91637" lon="5.75084">
        <ele>1010</ele>
        <time>2026-05-13T11:52:04Z</time>
      </trkpt>
      <trkpt lat="45.91636" lon="5.75084">
        <ele>1010.4</ele>
        <time>2026-05-13T11:52:05Z</time>
      </trkpt>
      <trkpt lat="45.91635" lon="5.75084">
        <ele>1010.4</ele>
        <time>2026-05-13T11:52:06Z</time>
      </trkpt>
      <trkpt lat="45.91633" lon="5.75083">
        <ele>1010.8</ele>
        <time>2026-05-13T11:52:07Z</time>
      </trkpt>
      <trkpt lat="45.91631" lon="5.75083">
        <ele>1011</ele>
        <time>2026-05-13T11:52:08Z</time>
      </trkpt>
      <trkpt lat="45.91629" lon="5.75083">
        <ele>1011</ele>
        <time>2026-05-13T11:52:09Z</time>
      </trkpt>
      <trkpt lat="45.91629" lon="5.75083">
        <ele>1011.2</ele>
        <time>2026-05-13T11:52:10Z</time>
      </trkpt>
      <trkpt lat="45.91628" lon="5.75084">
        <ele>1011.2</ele>
        <time>2026-05-13T11:52:11Z</time>
      </trkpt>
      <trkpt lat="45.91628" lon="5.75084">
        <ele>1011.6</ele>
        <time>2026-05-13T11:52:12Z</time>
      </trkpt>
      <trkpt lat="45.91627" lon="5.75084">
        <ele>1011.6</ele>
        <time>2026-05-13T11:52:13Z</time>
      </trkpt>
      <trkpt lat="45.91625" lon="5.75085">
        <ele>1011.8</ele>
        <time>2026-05-13T11:52:14Z</time>
      </trkpt>
      <trkpt lat="45.91624" lon="5.75085">
        <ele>1012</ele>
        <time>2026-05-13T11:52:15Z</time>
      </trkpt>
      <trkpt lat="45.91624" lon="5.75086">
        <ele>1012</ele>
        <time>2026-05-13T11:52:16Z</time>
      </trkpt>
      <trkpt lat="45.91623" lon="5.75087">
        <ele>1012.2</ele>
        <time>2026-05-13T11:52:17Z</time>
      </trkpt>
      <trkpt lat="45.91622" lon="5.75088">
        <ele>1012.2</ele>
        <time>2026-05-13T11:52:18Z</time>
      </trkpt>
      <trkpt lat="45.91621" lon="5.75089">
        <ele>1012.6</ele>
        <time>2026-05-13T11:52:19Z</time>
      </trkpt>
      <trkpt lat="45.9162" lon="5.7509">
        <ele>1012.6</ele>
        <time>2026-05-13T11:52:20Z</time>
      </trkpt>
      <trkpt lat="45.91619" lon="5.75091">
        <ele>1012.8</ele>
        <time>2026-05-13T11:52:21Z</time>
      </trkpt>
      <trkpt lat="45.91618" lon="5.75092">
        <ele>1012.8</ele>
        <time>2026-05-13T11:52:22Z</time>
      </trkpt>
      <trkpt lat="45.91617" lon="5.75093">
        <ele>1013.2</ele>
        <time>2026-05-13T11:52:23Z</time>
      </trkpt>
      <trkpt lat="45.91615" lon="5.75095">
        <ele>1013.4</ele>
        <time>2026-05-13T11:52:24Z</time>
      </trkpt>
      <trkpt lat="45.91614" lon="5.75096">
        <ele>1013.8</ele>
        <time>2026-05-13T11:52:25Z</time>
      </trkpt>
      <trkpt lat="45.91613" lon="5.75097">
        <ele>1013.8</ele>
        <time>2026-05-13T11:52:26Z</time>
      </trkpt>
      <trkpt lat="45.91612" lon="5.75097">
        <ele>1014</ele>
        <time>2026-05-13T11:52:27Z</time>
      </trkpt>
      <trkpt lat="45.9161" lon="5.75098">
        <ele>1014</ele>
        <time>2026-05-13T11:52:28Z</time>
      </trkpt>
      <trkpt lat="45.91609" lon="5.75099">
        <ele>1014.4</ele>
        <time>2026-05-13T11:52:29Z</time>
      </trkpt>
      <trkpt lat="45.91607" lon="5.75101">
        <ele>1014.4</ele>
        <time>2026-05-13T11:52:30Z</time>
      </trkpt>
      <trkpt lat="45.91606" lon="5.75102">
        <ele>1014.6</ele>
        <time>2026-05-13T11:52:31Z</time>
      </trkpt>
      <trkpt lat="45.91605" lon="5.75103">
        <ele>1014.6</ele>
        <time>2026-05-13T11:52:32Z</time>
      </trkpt>
      <trkpt lat="45.91604" lon="5.75104">
        <ele>1014.8</ele>
        <time>2026-05-13T11:52:33Z</time>
      </trkpt>
      <trkpt lat="45.91603" lon="5.75104">
        <ele>1014.8</ele>
        <time>2026-05-13T11:52:34Z</time>
      </trkpt>
      <trkpt lat="45.91601" lon="5.75105">
        <ele>1015</ele>
        <time>2026-05-13T11:52:35Z</time>
      </trkpt>
      <trkpt lat="45.916" lon="5.75105">
        <ele>1015</ele>
        <time>2026-05-13T11:52:36Z</time>
      </trkpt>
      <trkpt lat="45.91598" lon="5.75106">
        <ele>1015.4</ele>
        <time>2026-05-13T11:52:37Z</time>
      </trkpt>
      <trkpt lat="45.91597" lon="5.75106">
        <ele>1015.4</ele>
        <time>2026-05-13T11:52:38Z</time>
      </trkpt>
      <trkpt lat="45.91595" lon="5.75107">
        <ele>1015.8</ele>
        <time>2026-05-13T11:52:39Z</time>
      </trkpt>
      <trkpt lat="45.91594" lon="5.75108">
        <ele>1015.8</ele>
        <time>2026-05-13T11:52:40Z</time>
      </trkpt>
      <trkpt lat="45.91593" lon="5.75108">
        <ele>1016.2</ele>
        <time>2026-05-13T11:52:41Z</time>
      </trkpt>
      <trkpt lat="45.91592" lon="5.7511">
        <ele>1016.2</ele>
        <time>2026-05-13T11:52:42Z</time>
      </trkpt>
      <trkpt lat="45.9159" lon="5.75111">
        <ele>1016.4</ele>
        <time>2026-05-13T11:52:43Z</time>
      </trkpt>
      <trkpt lat="45.91589" lon="5.75112">
        <ele>1017</ele>
        <time>2026-05-13T11:52:44Z</time>
      </trkpt>
      <trkpt lat="45.91587" lon="5.75113">
        <ele>1017.2</ele>
        <time>2026-05-13T11:52:45Z</time>
      </trkpt>
      <trkpt lat="45.91587" lon="5.75112">
        <ele>1017.4</ele>
        <time>2026-05-13T11:52:46Z</time>
      </trkpt>
      <trkpt lat="45.91585" lon="5.75112">
        <ele>1017.4</ele>
        <time>2026-05-13T11:52:47Z</time>
      </trkpt>
      <trkpt lat="45.91583" lon="5.75113">
        <ele>1017.8</ele>
        <time>2026-05-13T11:52:48Z</time>
      </trkpt>
      <trkpt lat="45.91582" lon="5.75114">
        <ele>1018</ele>
        <time>2026-05-13T11:52:49Z</time>
      </trkpt>
      <trkpt lat="45.9158" lon="5.75115">
        <ele>1018</ele>
        <time>2026-05-13T11:52:50Z</time>
      </trkpt>
      <trkpt lat="45.91579" lon="5.75116">
        <ele>1018</ele>
        <time>2026-05-13T11:52:51Z</time>
      </trkpt>
      <trkpt lat="45.91578" lon="5.75117">
        <ele>1018.4</ele>
        <time>2026-05-13T11:52:52Z</time>
      </trkpt>
      <trkpt lat="45.91577" lon="5.75118">
        <ele>1018.4</ele>
        <time>2026-05-13T11:52:53Z</time>
      </trkpt>
      <trkpt lat="45.91576" lon="5.75119">
        <ele>1018.8</ele>
        <time>2026-05-13T11:52:54Z</time>
      </trkpt>
      <trkpt lat="45.91575" lon="5.7512">
        <ele>1018.8</ele>
        <time>2026-05-13T11:52:55Z</time>
      </trkpt>
      <trkpt lat="45.91574" lon="5.75121">
        <ele>1019.2</ele>
        <time>2026-05-13T11:52:56Z</time>
      </trkpt>
      <trkpt lat="45.91573" lon="5.75122">
        <ele>1019.2</ele>
        <time>2026-05-13T11:52:57Z</time>
      </trkpt>
      <trkpt lat="45.91572" lon="5.75123">
        <ele>1019.6</ele>
        <time>2026-05-13T11:52:58Z</time>
      </trkpt>
      <trkpt lat="45.91571" lon="5.75124">
        <ele>1019.6</ele>
        <time>2026-05-13T11:52:59Z</time>
      </trkpt>
      <trkpt lat="45.9157" lon="5.75125">
        <ele>1020</ele>
        <time>2026-05-13T11:53:00Z</time>
      </trkpt>
      <trkpt lat="45.9157" lon="5.75126">
        <ele>1020</ele>
        <time>2026-05-13T11:53:01Z</time>
      </trkpt>
      <trkpt lat="45.9157" lon="5.75127">
        <ele>1020.4</ele>
        <time>2026-05-13T11:53:02Z</time>
      </trkpt>
      <trkpt lat="45.9157" lon="5.75129">
        <ele>1020.4</ele>
        <time>2026-05-13T11:53:03Z</time>
      </trkpt>
      <trkpt lat="45.91569" lon="5.75131">
        <ele>1020.6</ele>
        <time>2026-05-13T11:53:04Z</time>
      </trkpt>
      <trkpt lat="45.91568" lon="5.75132">
        <ele>1021</ele>
        <time>2026-05-13T11:53:05Z</time>
      </trkpt>
      <trkpt lat="45.91567" lon="5.75133">
        <ele>1021.2</ele>
        <time>2026-05-13T11:53:06Z</time>
      </trkpt>
      <trkpt lat="45.91565" lon="5.75134">
        <ele>1021.2</ele>
        <time>2026-05-13T11:53:07Z</time>
      </trkpt>
      <trkpt lat="45.91563" lon="5.75135">
        <ele>1021.6</ele>
        <time>2026-05-13T11:53:08Z</time>
      </trkpt>
      <trkpt lat="45.91562" lon="5.75136">
        <ele>1021.8</ele>
        <time>2026-05-13T11:53:09Z</time>
      </trkpt>
      <trkpt lat="45.91561" lon="5.75139">
        <ele>1021.8</ele>
        <time>2026-05-13T11:53:10Z</time>
      </trkpt>
      <trkpt lat="45.9156" lon="5.75141">
        <ele>1022.2</ele>
        <time>2026-05-13T11:53:11Z</time>
      </trkpt>
      <trkpt lat="45.91559" lon="5.75142">
        <ele>1022.2</ele>
        <time>2026-05-13T11:53:12Z</time>
      </trkpt>
      <trkpt lat="45.91557" lon="5.75143">
        <ele>1022.8</ele>
        <time>2026-05-13T11:53:13Z</time>
      </trkpt>
      <trkpt lat="45.91556" lon="5.75144">
        <ele>1022.8</ele>
        <time>2026-05-13T11:53:14Z</time>
      </trkpt>
      <trkpt lat="45.91557" lon="5.75144">
        <ele>1023</ele>
        <time>2026-05-13T11:53:15Z</time>
      </trkpt>
      <trkpt lat="45.91556" lon="5.75145">
        <ele>1023</ele>
        <time>2026-05-13T11:53:16Z</time>
      </trkpt>
      <trkpt lat="45.91554" lon="5.75146">
        <ele>1023</ele>
        <time>2026-05-13T11:53:17Z</time>
      </trkpt>
      <trkpt lat="45.91554" lon="5.75147">
        <ele>1023.4</ele>
        <time>2026-05-13T11:53:18Z</time>
      </trkpt>
      <trkpt lat="45.91552" lon="5.75148">
        <ele>1023.4</ele>
        <time>2026-05-13T11:53:19Z</time>
      </trkpt>
      <trkpt lat="45.91551" lon="5.75149">
        <ele>1023.8</ele>
        <time>2026-05-13T11:53:20Z</time>
      </trkpt>
      <trkpt lat="45.9155" lon="5.75149">
        <ele>1023.8</ele>
        <time>2026-05-13T11:53:21Z</time>
      </trkpt>
      <trkpt lat="45.91548" lon="5.7515">
        <ele>1024.2</ele>
        <time>2026-05-13T11:53:22Z</time>
      </trkpt>
      <trkpt lat="45.91547" lon="5.75151">
        <ele>1024.2</ele>
        <time>2026-05-13T11:53:23Z</time>
      </trkpt>
      <trkpt lat="45.91546" lon="5.75151">
        <ele>1024.4</ele>
        <time>2026-05-13T11:53:24Z</time>
      </trkpt>
      <trkpt lat="45.91545" lon="5.75152">
        <ele>1024.4</ele>
        <time>2026-05-13T11:53:25Z</time>
      </trkpt>
      <trkpt lat="45.91543" lon="5.75153">
        <ele>1025</ele>
        <time>2026-05-13T11:53:26Z</time>
      </trkpt>
      <trkpt lat="45.91542" lon="5.75154">
        <ele>1025.2</ele>
        <time>2026-05-13T11:53:27Z</time>
      </trkpt>
      <trkpt lat="45.91541" lon="5.75157">
        <ele>1025.4</ele>
        <time>2026-05-13T11:53:28Z</time>
      </trkpt>
      <trkpt lat="45.9154" lon="5.75158">
        <ele>1025.6</ele>
        <time>2026-05-13T11:53:29Z</time>
      </trkpt>
      <trkpt lat="45.9154" lon="5.75159">
        <ele>1025.6</ele>
        <time>2026-05-13T11:53:30Z</time>
      </trkpt>
      <trkpt lat="45.91539" lon="5.7516">
        <ele>1026</ele>
        <time>2026-05-13T11:53:31Z</time>
      </trkpt>
      <trkpt lat="45.91538" lon="5.7516">
        <ele>1026</ele>
        <time>2026-05-13T11:53:32Z</time>
      </trkpt>
      <trkpt lat="45.91537" lon="5.75162">
        <ele>1026.2</ele>
        <time>2026-05-13T11:53:33Z</time>
      </trkpt>
      <trkpt lat="45.91536" lon="5.75163">
        <ele>1026.2</ele>
        <time>2026-05-13T11:53:34Z</time>
      </trkpt>
      <trkpt lat="45.91534" lon="5.75163">
        <ele>1026.4</ele>
        <time>2026-05-13T11:53:35Z</time>
      </trkpt>
      <trkpt lat="45.91533" lon="5.75163">
        <ele>1026.6</ele>
        <time>2026-05-13T11:53:36Z</time>
      </trkpt>
      <trkpt lat="45.91532" lon="5.75163">
        <ele>1026.6</ele>
        <time>2026-05-13T11:53:37Z</time>
      </trkpt>
      <trkpt lat="45.91531" lon="5.75163">
        <ele>1027.2</ele>
        <time>2026-05-13T11:53:38Z</time>
      </trkpt>
      <trkpt lat="45.9153" lon="5.75164">
        <ele>1027.4</ele>
        <time>2026-05-13T11:53:39Z</time>
      </trkpt>
      <trkpt lat="45.91528" lon="5.75165">
        <ele>1027.8</ele>
        <time>2026-05-13T11:53:40Z</time>
      </trkpt>
      <trkpt lat="45.91527" lon="5.75166">
        <ele>1028</ele>
        <time>2026-05-13T11:53:41Z</time>
      </trkpt>
      <trkpt lat="45.91525" lon="5.75166">
        <ele>1028</ele>
        <time>2026-05-13T11:53:42Z</time>
      </trkpt>
      <trkpt lat="45.91524" lon="5.75165">
        <ele>1028.2</ele>
        <time>2026-05-13T11:53:43Z</time>
      </trkpt>
      <trkpt lat="45.91522" lon="5.75165">
        <ele>1028.2</ele>
        <time>2026-05-13T11:53:44Z</time>
      </trkpt>
      <trkpt lat="45.91521" lon="5.75165">
        <ele>1028.6</ele>
        <time>2026-05-13T11:53:45Z</time>
      </trkpt>
      <trkpt lat="45.91519" lon="5.75166">
        <ele>1028.8</ele>
        <time>2026-05-13T11:53:46Z</time>
      </trkpt>
      <trkpt lat="45.91518" lon="5.75166">
        <ele>1028.8</ele>
        <time>2026-05-13T11:53:47Z</time>
      </trkpt>
      <trkpt lat="45.91517" lon="5.75166">
        <ele>1029.2</ele>
        <time>2026-05-13T11:53:48Z</time>
      </trkpt>
      <trkpt lat="45.91515" lon="5.75166">
        <ele>1029.2</ele>
        <time>2026-05-13T11:53:49Z</time>
      </trkpt>
      <trkpt lat="45.91513" lon="5.75167">
        <ele>1029.4</ele>
        <time>2026-05-13T11:53:50Z</time>
      </trkpt>
      <trkpt lat="45.91512" lon="5.75169">
        <ele>1029.8</ele>
        <time>2026-05-13T11:53:51Z</time>
      </trkpt>
      <trkpt lat="45.9151" lon="5.7517">
        <ele>1030</ele>
        <time>2026-05-13T11:53:52Z</time>
      </trkpt>
      <trkpt lat="45.91509" lon="5.75171">
        <ele>1030.2</ele>
        <time>2026-05-13T11:53:53Z</time>
      </trkpt>
      <trkpt lat="45.91509" lon="5.75172">
        <ele>1030.2</ele>
        <time>2026-05-13T11:53:54Z</time>
      </trkpt>
      <trkpt lat="45.91508" lon="5.75173">
        <ele>1030.6</ele>
        <time>2026-05-13T11:53:55Z</time>
      </trkpt>
      <trkpt lat="45.91507" lon="5.75175">
        <ele>1030.6</ele>
        <time>2026-05-13T11:53:56Z</time>
      </trkpt>
      <trkpt lat="45.91505" lon="5.75177">
        <ele>1030.8</ele>
        <time>2026-05-13T11:53:57Z</time>
      </trkpt>
      <trkpt lat="45.91505" lon="5.75179">
        <ele>1031</ele>
        <time>2026-05-13T11:53:58Z</time>
      </trkpt>
      <trkpt lat="45.91504" lon="5.7518">
        <ele>1031</ele>
        <time>2026-05-13T11:53:59Z</time>
      </trkpt>
      <trkpt lat="45.91503" lon="5.75181">
        <ele>1031.4</ele>
        <time>2026-05-13T11:54:00Z</time>
      </trkpt>
      <trkpt lat="45.91502" lon="5.75182">
        <ele>1031.4</ele>
        <time>2026-05-13T11:54:01Z</time>
      </trkpt>
      <trkpt lat="45.91501" lon="5.75184">
        <ele>1031.6</ele>
        <time>2026-05-13T11:54:02Z</time>
      </trkpt>
      <trkpt lat="45.91501" lon="5.75184">
        <ele>1031.6</ele>
        <time>2026-05-13T11:54:03Z</time>
      </trkpt>
      <trkpt lat="45.91501" lon="5.75185">
        <ele>1032</ele>
        <time>2026-05-13T11:54:04Z</time>
      </trkpt>
      <trkpt lat="45.915" lon="5.75186">
        <ele>1032</ele>
        <time>2026-05-13T11:54:05Z</time>
      </trkpt>
      <trkpt lat="45.915" lon="5.75188">
        <ele>1032.2</ele>
        <time>2026-05-13T11:54:06Z</time>
      </trkpt>
      <trkpt lat="45.91498" lon="5.7519">
        <ele>1032.2</ele>
        <time>2026-05-13T11:54:07Z</time>
      </trkpt>
      <trkpt lat="45.91498" lon="5.75191">
        <ele>1032.4</ele>
        <time>2026-05-13T11:54:08Z</time>
      </trkpt>
      <trkpt lat="45.91498" lon="5.75192">
        <ele>1032.4</ele>
        <time>2026-05-13T11:54:09Z</time>
      </trkpt>
      <trkpt lat="45.91497" lon="5.75193">
        <ele>1032.4</ele>
        <time>2026-05-13T11:54:10Z</time>
      </trkpt>
      <trkpt lat="45.91495" lon="5.75195">
        <ele>1032.6</ele>
        <time>2026-05-13T11:54:11Z</time>
      </trkpt>
      <trkpt lat="45.91494" lon="5.75196">
        <ele>1032.6</ele>
        <time>2026-05-13T11:54:12Z</time>
      </trkpt>
      <trkpt lat="45.91492" lon="5.75198">
        <ele>1033.2</ele>
        <time>2026-05-13T11:54:13Z</time>
      </trkpt>
      <trkpt lat="45.9149" lon="5.75199">
        <ele>1033.2</ele>
        <time>2026-05-13T11:54:14Z</time>
      </trkpt>
      <trkpt lat="45.91489" lon="5.752">
        <ele>1033.4</ele>
        <time>2026-05-13T11:54:15Z</time>
      </trkpt>
      <trkpt lat="45.91488" lon="5.75201">
        <ele>1033.4</ele>
        <time>2026-05-13T11:54:16Z</time>
      </trkpt>
      <trkpt lat="45.91487" lon="5.752">
        <ele>1033.8</ele>
        <time>2026-05-13T11:54:17Z</time>
      </trkpt>
      <trkpt lat="45.91485" lon="5.752">
        <ele>1033.8</ele>
        <time>2026-05-13T11:54:18Z</time>
      </trkpt>
      <trkpt lat="45.91484" lon="5.75201">
        <ele>1034</ele>
        <time>2026-05-13T11:54:19Z</time>
      </trkpt>
      <trkpt lat="45.91482" lon="5.75201">
        <ele>1034.2</ele>
        <time>2026-05-13T11:54:20Z</time>
      </trkpt>
      <trkpt lat="45.91481" lon="5.752">
        <ele>1034.2</ele>
        <time>2026-05-13T11:54:21Z</time>
      </trkpt>
      <trkpt lat="45.91479" lon="5.75199">
        <ele>1034.6</ele>
        <time>2026-05-13T11:54:22Z</time>
      </trkpt>
      <trkpt lat="45.91478" lon="5.75198">
        <ele>1034.6</ele>
        <time>2026-05-13T11:54:23Z</time>
      </trkpt>
      <trkpt lat="45.91476" lon="5.75198">
        <ele>1035</ele>
        <time>2026-05-13T11:54:24Z</time>
      </trkpt>
      <trkpt lat="45.91475" lon="5.75199">
        <ele>1035</ele>
        <time>2026-05-13T11:54:25Z</time>
      </trkpt>
      <trkpt lat="45.91474" lon="5.75199">
        <ele>1035.2</ele>
        <time>2026-05-13T11:54:26Z</time>
      </trkpt>
      <trkpt lat="45.91473" lon="5.752">
        <ele>1035.4</ele>
        <time>2026-05-13T11:54:27Z</time>
      </trkpt>
      <trkpt lat="45.91471" lon="5.75201">
        <ele>1035.4</ele>
        <time>2026-05-13T11:54:28Z</time>
      </trkpt>
      <trkpt lat="45.9147" lon="5.752">
        <ele>1035.6</ele>
        <time>2026-05-13T11:54:29Z</time>
      </trkpt>
      <trkpt lat="45.91468" lon="5.752">
        <ele>1035.6</ele>
        <time>2026-05-13T11:54:30Z</time>
      </trkpt>
      <trkpt lat="45.91467" lon="5.752">
        <ele>1035.8</ele>
        <time>2026-05-13T11:54:31Z</time>
      </trkpt>
      <trkpt lat="45.91465" lon="5.75198">
        <ele>1036.2</ele>
        <time>2026-05-13T11:54:32Z</time>
      </trkpt>
      <trkpt lat="45.91464" lon="5.75197">
        <ele>1036.2</ele>
        <time>2026-05-13T11:54:33Z</time>
      </trkpt>
      <trkpt lat="45.91463" lon="5.75196">
        <ele>1036.6</ele>
        <time>2026-05-13T11:54:34Z</time>
      </trkpt>
      <trkpt lat="45.91462" lon="5.75195">
        <ele>1036.6</ele>
        <time>2026-05-13T11:54:35Z</time>
      </trkpt>
      <trkpt lat="45.91461" lon="5.75195">
        <ele>1037</ele>
        <time>2026-05-13T11:54:36Z</time>
      </trkpt>
      <trkpt lat="45.91461" lon="5.75194">
        <ele>1037</ele>
        <time>2026-05-13T11:54:37Z</time>
      </trkpt>
      <trkpt lat="45.9146" lon="5.75193">
        <ele>1037.2</ele>
        <time>2026-05-13T11:54:38Z</time>
      </trkpt>
      <trkpt lat="45.91458" lon="5.75191">
        <ele>1037.2</ele>
        <time>2026-05-13T11:54:39Z</time>
      </trkpt>
      <trkpt lat="45.91457" lon="5.7519">
        <ele>1037.2</ele>
        <time>2026-05-13T11:54:40Z</time>
      </trkpt>
      <trkpt lat="45.91455" lon="5.7519">
        <ele>1037.6</ele>
        <time>2026-05-13T11:54:41Z</time>
      </trkpt>
      <trkpt lat="45.91454" lon="5.7519">
        <ele>1037.6</ele>
        <time>2026-05-13T11:54:42Z</time>
      </trkpt>
      <trkpt lat="45.91453" lon="5.7519">
        <ele>1037.8</ele>
        <time>2026-05-13T11:54:43Z</time>
      </trkpt>
      <trkpt lat="45.91451" lon="5.75189">
        <ele>1038</ele>
        <time>2026-05-13T11:54:44Z</time>
      </trkpt>
      <trkpt lat="45.9145" lon="5.75189">
        <ele>1038</ele>
        <time>2026-05-13T11:54:45Z</time>
      </trkpt>
      <trkpt lat="45.91449" lon="5.75188">
        <ele>1038.4</ele>
        <time>2026-05-13T11:54:46Z</time>
      </trkpt>
      <trkpt lat="45.91447" lon="5.75186">
        <ele>1038.6</ele>
        <time>2026-05-13T11:54:47Z</time>
      </trkpt>
      <trkpt lat="45.91444" lon="5.75185">
        <ele>1038.6</ele>
        <time>2026-05-13T11:54:48Z</time>
      </trkpt>
      <trkpt lat="45.91442" lon="5.75184">
        <ele>1039</ele>
        <time>2026-05-13T11:54:49Z</time>
      </trkpt>
      <trkpt lat="45.91441" lon="5.75183">
        <ele>1039.2</ele>
        <time>2026-05-13T11:54:50Z</time>
      </trkpt>
      <trkpt lat="45.9144" lon="5.75181">
        <ele>1039.6</ele>
        <time>2026-05-13T11:54:51Z</time>
      </trkpt>
      <trkpt lat="45.9144" lon="5.75179">
        <ele>1039.8</ele>
        <time>2026-05-13T11:54:52Z</time>
      </trkpt>
      <trkpt lat="45.91439" lon="5.75178">
        <ele>1039.8</ele>
        <time>2026-05-13T11:54:53Z</time>
      </trkpt>
      <trkpt lat="45.91439" lon="5.75177">
        <ele>1040.2</ele>
        <time>2026-05-13T11:54:54Z</time>
      </trkpt>
      <trkpt lat="45.91438" lon="5.75176">
        <ele>1040.2</ele>
        <time>2026-05-13T11:54:55Z</time>
      </trkpt>
      <trkpt lat="45.91437" lon="5.75176">
        <ele>1040.2</ele>
        <time>2026-05-13T11:54:56Z</time>
      </trkpt>
      <trkpt lat="45.91436" lon="5.75175">
        <ele>1040.6</ele>
        <time>2026-05-13T11:54:57Z</time>
      </trkpt>
      <trkpt lat="45.91435" lon="5.75174">
        <ele>1040.6</ele>
        <time>2026-05-13T11:54:58Z</time>
      </trkpt>
      <trkpt lat="45.91435" lon="5.75172">
        <ele>1041</ele>
        <time>2026-05-13T11:54:59Z</time>
      </trkpt>
      <trkpt lat="45.91436" lon="5.75171">
        <ele>1041</ele>
        <time>2026-05-13T11:55:00Z</time>
      </trkpt>
      <trkpt lat="45.91435" lon="5.7517">
        <ele>1041.2</ele>
        <time>2026-05-13T11:55:01Z</time>
      </trkpt>
      <trkpt lat="45.91435" lon="5.75168">
        <ele>1041.2</ele>
        <time>2026-05-13T11:55:02Z</time>
      </trkpt>
      <trkpt lat="45.91434" lon="5.75166">
        <ele>1041.8</ele>
        <time>2026-05-13T11:55:03Z</time>
      </trkpt>
      <trkpt lat="45.91433" lon="5.75165">
        <ele>1041.8</ele>
        <time>2026-05-13T11:55:04Z</time>
      </trkpt>
      <trkpt lat="45.91431" lon="5.75164">
        <ele>1042</ele>
        <time>2026-05-13T11:55:05Z</time>
      </trkpt>
      <trkpt lat="45.9143" lon="5.75163">
        <ele>1042</ele>
        <time>2026-05-13T11:55:06Z</time>
      </trkpt>
      <trkpt lat="45.9143" lon="5.75163">
        <ele>1042.2</ele>
        <time>2026-05-13T11:55:07Z</time>
      </trkpt>
      <trkpt lat="45.9143" lon="5.75162">
        <ele>1042.2</ele>
        <time>2026-05-13T11:55:08Z</time>
      </trkpt>
      <trkpt lat="45.9143" lon="5.75161">
        <ele>1042.6</ele>
        <time>2026-05-13T11:55:09Z</time>
      </trkpt>
      <trkpt lat="45.91429" lon="5.75159">
        <ele>1042.6</ele>
        <time>2026-05-13T11:55:10Z</time>
      </trkpt>
      <trkpt lat="45.91428" lon="5.75157">
        <ele>1042.6</ele>
        <time>2026-05-13T11:55:11Z</time>
      </trkpt>
      <trkpt lat="45.91428" lon="5.75156">
        <ele>1042.8</ele>
        <time>2026-05-13T11:55:12Z</time>
      </trkpt>
      <trkpt lat="45.91427" lon="5.75154">
        <ele>1042.8</ele>
        <time>2026-05-13T11:55:13Z</time>
      </trkpt>
      <trkpt lat="45.91426" lon="5.75153">
        <ele>1043.4</ele>
        <time>2026-05-13T11:55:14Z</time>
      </trkpt>
      <trkpt lat="45.91425" lon="5.75152">
        <ele>1043.4</ele>
        <time>2026-05-13T11:55:15Z</time>
      </trkpt>
      <trkpt lat="45.91424" lon="5.75152">
        <ele>1043.8</ele>
        <time>2026-05-13T11:55:16Z</time>
      </trkpt>
      <trkpt lat="45.91423" lon="5.75152">
        <ele>1044</ele>
        <time>2026-05-13T11:55:17Z</time>
      </trkpt>
      <trkpt lat="45.91422" lon="5.75151">
        <ele>1044.2</ele>
        <time>2026-05-13T11:55:18Z</time>
      </trkpt>
      <trkpt lat="45.9142" lon="5.7515">
        <ele>1044.2</ele>
        <time>2026-05-13T11:55:19Z</time>
      </trkpt>
      <trkpt lat="45.91419" lon="5.75149">
        <ele>1044.2</ele>
        <time>2026-05-13T11:55:20Z</time>
      </trkpt>
      <trkpt lat="45.91418" lon="5.75148">
        <ele>1044.4</ele>
        <time>2026-05-13T11:55:21Z</time>
      </trkpt>
      <trkpt lat="45.91416" lon="5.75146">
        <ele>1044.8</ele>
        <time>2026-05-13T11:55:22Z</time>
      </trkpt>
      <trkpt lat="45.91415" lon="5.75144">
        <ele>1045</ele>
        <time>2026-05-13T11:55:23Z</time>
      </trkpt>
      <trkpt lat="45.91414" lon="5.75142">
        <ele>1045.2</ele>
        <time>2026-05-13T11:55:24Z</time>
      </trkpt>
      <trkpt lat="45.91413" lon="5.7514">
        <ele>1045.2</ele>
        <time>2026-05-13T11:55:25Z</time>
      </trkpt>
      <trkpt lat="45.91412" lon="5.75138">
        <ele>1045.6</ele>
        <time>2026-05-13T11:55:26Z</time>
      </trkpt>
      <trkpt lat="45.91412" lon="5.75138">
        <ele>1045</ele>
        <time>2026-05-13T11:55:27Z</time>
      </trkpt>
      <trkpt lat="45.91411" lon="5.75136">
        <ele>1045.4</ele>
        <time>2026-05-13T11:55:28Z</time>
      </trkpt>
      <trkpt lat="45.91411" lon="5.75135">
        <ele>1045.4</ele>
        <time>2026-05-13T11:55:29Z</time>
      </trkpt>
      <trkpt lat="45.91409" lon="5.75133">
        <ele>1045.8</ele>
        <time>2026-05-13T11:55:30Z</time>
      </trkpt>
      <trkpt lat="45.91408" lon="5.75131">
        <ele>1045.8</ele>
        <time>2026-05-13T11:55:31Z</time>
      </trkpt>
      <trkpt lat="45.91407" lon="5.7513">
        <ele>1046.2</ele>
        <time>2026-05-13T11:55:32Z</time>
      </trkpt>
      <trkpt lat="45.91407" lon="5.75128">
        <ele>1046.2</ele>
        <time>2026-05-13T11:55:33Z</time>
      </trkpt>
      <trkpt lat="45.91404" lon="5.75127">
        <ele>1046.2</ele>
        <time>2026-05-13T11:55:34Z</time>
      </trkpt>
      <trkpt lat="45.91403" lon="5.75126">
        <ele>1046.4</ele>
        <time>2026-05-13T11:55:35Z</time>
      </trkpt>
      <trkpt lat="45.91402" lon="5.75125">
        <ele>1046.4</ele>
        <time>2026-05-13T11:55:36Z</time>
      </trkpt>
      <trkpt lat="45.91401" lon="5.75124">
        <ele>1047</ele>
        <time>2026-05-13T11:55:37Z</time>
      </trkpt>
      <trkpt lat="45.91399" lon="5.75123">
        <ele>1047.2</ele>
        <time>2026-05-13T11:55:38Z</time>
      </trkpt>
      <trkpt lat="45.91398" lon="5.75122">
        <ele>1047.2</ele>
        <time>2026-05-13T11:55:39Z</time>
      </trkpt>
      <trkpt lat="45.91397" lon="5.7512">
        <ele>1047.4</ele>
        <time>2026-05-13T11:55:40Z</time>
      </trkpt>
      <trkpt lat="45.91396" lon="5.75119">
        <ele>1047.4</ele>
        <time>2026-05-13T11:55:41Z</time>
      </trkpt>
      <trkpt lat="45.91394" lon="5.75117">
        <ele>1047.8</ele>
        <time>2026-05-13T11:55:42Z</time>
      </trkpt>
      <trkpt lat="45.91393" lon="5.75116">
        <ele>1047.8</ele>
        <time>2026-05-13T11:55:43Z</time>
      </trkpt>
      <trkpt lat="45.91392" lon="5.75115">
        <ele>1048</ele>
        <time>2026-05-13T11:55:44Z</time>
      </trkpt>
      <trkpt lat="45.91391" lon="5.75114">
        <ele>1048</ele>
        <time>2026-05-13T11:55:45Z</time>
      </trkpt>
      <trkpt lat="45.9139" lon="5.75112">
        <ele>1048</ele>
        <time>2026-05-13T11:55:46Z</time>
      </trkpt>
      <trkpt lat="45.9139" lon="5.75111">
        <ele>1048</ele>
        <time>2026-05-13T11:55:47Z</time>
      </trkpt>
      <trkpt lat="45.91388" lon="5.7511">
        <ele>1048.4</ele>
        <time>2026-05-13T11:55:48Z</time>
      </trkpt>
      <trkpt lat="45.91387" lon="5.75109">
        <ele>1048.8</ele>
        <time>2026-05-13T11:55:49Z</time>
      </trkpt>
      <trkpt lat="45.91386" lon="5.75108">
        <ele>1048.8</ele>
        <time>2026-05-13T11:55:50Z</time>
      </trkpt>
      <trkpt lat="45.91385" lon="5.75107">
        <ele>1049</ele>
        <time>2026-05-13T11:55:51Z</time>
      </trkpt>
      <trkpt lat="45.91384" lon="5.75107">
        <ele>1049</ele>
        <time>2026-05-13T11:55:52Z</time>
      </trkpt>
      <trkpt lat="45.91382" lon="5.75106">
        <ele>1049.4</ele>
        <time>2026-05-13T11:55:53Z</time>
      </trkpt>
      <trkpt lat="45.9138" lon="5.75105">
        <ele>1049.4</ele>
        <time>2026-05-13T11:55:54Z</time>
      </trkpt>
      <trkpt lat="45.91378" lon="5.75105">
        <ele>1049.4</ele>
        <time>2026-05-13T11:55:55Z</time>
      </trkpt>
      <trkpt lat="45.91377" lon="5.75104">
        <ele>1049.6</ele>
        <time>2026-05-13T11:55:56Z</time>
      </trkpt>
      <trkpt lat="45.91376" lon="5.75103">
        <ele>1050</ele>
        <time>2026-05-13T11:55:57Z</time>
      </trkpt>
      <trkpt lat="45.91375" lon="5.75102">
        <ele>1050</ele>
        <time>2026-05-13T11:55:58Z</time>
      </trkpt>
      <trkpt lat="45.91374" lon="5.75102">
        <ele>1050.2</ele>
        <time>2026-05-13T11:55:59Z</time>
      </trkpt>
      <trkpt lat="45.91373" lon="5.75102">
        <ele>1050.2</ele>
        <time>2026-05-13T11:56:00Z</time>
      </trkpt>
      <trkpt lat="45.91372" lon="5.75102">
        <ele>1050.6</ele>
        <time>2026-05-13T11:56:01Z</time>
      </trkpt>
      <trkpt lat="45.91371" lon="5.75101">
        <ele>1050.6</ele>
        <time>2026-05-13T11:56:02Z</time>
      </trkpt>
      <trkpt lat="45.9137" lon="5.75099">
        <ele>1051</ele>
        <time>2026-05-13T11:56:03Z</time>
      </trkpt>
      <trkpt lat="45.91368" lon="5.75097">
        <ele>1051</ele>
        <time>2026-05-13T11:56:04Z</time>
      </trkpt>
      <trkpt lat="45.91367" lon="5.75096">
        <ele>1051.2</ele>
        <time>2026-05-13T11:56:05Z</time>
      </trkpt>
      <trkpt lat="45.91366" lon="5.75095">
        <ele>1051.6</ele>
        <time>2026-05-13T11:56:06Z</time>
      </trkpt>
      <trkpt lat="45.91365" lon="5.75094">
        <ele>1051.6</ele>
        <time>2026-05-13T11:56:07Z</time>
      </trkpt>
      <trkpt lat="45.91364" lon="5.75092">
        <ele>1052</ele>
        <time>2026-05-13T11:56:08Z</time>
      </trkpt>
      <trkpt lat="45.91363" lon="5.7509">
        <ele>1052.4</ele>
        <time>2026-05-13T11:56:09Z</time>
      </trkpt>
      <trkpt lat="45.91362" lon="5.75088">
        <ele>1052.8</ele>
        <time>2026-05-13T11:56:10Z</time>
      </trkpt>
      <trkpt lat="45.91361" lon="5.75085">
        <ele>1053</ele>
        <time>2026-05-13T11:56:11Z</time>
      </trkpt>
      <trkpt lat="45.91359" lon="5.75084">
        <ele>1053</ele>
        <time>2026-05-13T11:56:12Z</time>
      </trkpt>
      <trkpt lat="45.91358" lon="5.75083">
        <ele>1053.2</ele>
        <time>2026-05-13T11:56:13Z</time>
      </trkpt>
      <trkpt lat="45.91357" lon="5.75082">
        <ele>1053.6</ele>
        <time>2026-05-13T11:56:14Z</time>
      </trkpt>
      <trkpt lat="45.91355" lon="5.7508">
        <ele>1053.8</ele>
        <time>2026-05-13T11:56:15Z</time>
      </trkpt>
      <trkpt lat="45.91354" lon="5.75079">
        <ele>1054</ele>
        <time>2026-05-13T11:56:16Z</time>
      </trkpt>
      <trkpt lat="45.91352" lon="5.75078">
        <ele>1054.2</ele>
        <time>2026-05-13T11:56:17Z</time>
      </trkpt>
      <trkpt lat="45.91351" lon="5.75076">
        <ele>1054.2</ele>
        <time>2026-05-13T11:56:18Z</time>
      </trkpt>
      <trkpt lat="45.9135" lon="5.75074">
        <ele>1054.6</ele>
        <time>2026-05-13T11:56:19Z</time>
      </trkpt>
      <trkpt lat="45.91349" lon="5.75072">
        <ele>1054.8</ele>
        <time>2026-05-13T11:56:20Z</time>
      </trkpt>
      <trkpt lat="45.91349" lon="5.7507">
        <ele>1055</ele>
        <time>2026-05-13T11:56:21Z</time>
      </trkpt>
      <trkpt lat="45.91348" lon="5.75069">
        <ele>1055</ele>
        <time>2026-05-13T11:56:22Z</time>
      </trkpt>
      <trkpt lat="45.91347" lon="5.75068">
        <ele>1055.4</ele>
        <time>2026-05-13T11:56:23Z</time>
      </trkpt>
      <trkpt lat="45.91346" lon="5.75066">
        <ele>1055.4</ele>
        <time>2026-05-13T11:56:24Z</time>
      </trkpt>
      <trkpt lat="45.91346" lon="5.75064">
        <ele>1055.6</ele>
        <time>2026-05-13T11:56:25Z</time>
      </trkpt>
      <trkpt lat="45.91345" lon="5.75063">
        <ele>1055.8</ele>
        <time>2026-05-13T11:56:26Z</time>
      </trkpt>
      <trkpt lat="45.91344" lon="5.75061">
        <ele>1055.8</ele>
        <time>2026-05-13T11:56:27Z</time>
      </trkpt>
      <trkpt lat="45.91343" lon="5.75059">
        <ele>1056.2</ele>
        <time>2026-05-13T11:56:28Z</time>
      </trkpt>
      <trkpt lat="45.91342" lon="5.75057">
        <ele>1056.2</ele>
        <time>2026-05-13T11:56:29Z</time>
      </trkpt>
      <trkpt lat="45.91341" lon="5.75056">
        <ele>1056.6</ele>
        <time>2026-05-13T11:56:30Z</time>
      </trkpt>
      <trkpt lat="45.9134" lon="5.75054">
        <ele>1056.6</ele>
        <time>2026-05-13T11:56:31Z</time>
      </trkpt>
      <trkpt lat="45.91339" lon="5.75053">
        <ele>1056.8</ele>
        <time>2026-05-13T11:56:32Z</time>
      </trkpt>
      <trkpt lat="45.91338" lon="5.75051">
        <ele>1056.8</ele>
        <time>2026-05-13T11:56:33Z</time>
      </trkpt>
      <trkpt lat="45.91338" lon="5.75049">
        <ele>1057.2</ele>
        <time>2026-05-13T11:56:34Z</time>
      </trkpt>
      <trkpt lat="45.91338" lon="5.75047">
        <ele>1057.2</ele>
        <time>2026-05-13T11:56:35Z</time>
      </trkpt>
      <trkpt lat="45.91338" lon="5.75046">
        <ele>1057.4</ele>
        <time>2026-05-13T11:56:36Z</time>
      </trkpt>
      <trkpt lat="45.91337" lon="5.75044">
        <ele>1057.6</ele>
        <time>2026-05-13T11:56:37Z</time>
      </trkpt>
      <trkpt lat="45.91337" lon="5.75043">
        <ele>1057.6</ele>
        <time>2026-05-13T11:56:38Z</time>
      </trkpt>
      <trkpt lat="45.91336" lon="5.75041">
        <ele>1058</ele>
        <time>2026-05-13T11:56:39Z</time>
      </trkpt>
      <trkpt lat="45.91335" lon="5.75039">
        <ele>1058.2</ele>
        <time>2026-05-13T11:56:40Z</time>
      </trkpt>
      <trkpt lat="45.91335" lon="5.75038">
        <ele>1058.2</ele>
        <time>2026-05-13T11:56:41Z</time>
      </trkpt>
      <trkpt lat="45.91335" lon="5.75036">
        <ele>1058.4</ele>
        <time>2026-05-13T11:56:42Z</time>
      </trkpt>
      <trkpt lat="45.91334" lon="5.75034">
        <ele>1058.4</ele>
        <time>2026-05-13T11:56:43Z</time>
      </trkpt>
      <trkpt lat="45.91334" lon="5.75033">
        <ele>1058.8</ele>
        <time>2026-05-13T11:56:44Z</time>
      </trkpt>
      <trkpt lat="45.91333" lon="5.75031">
        <ele>1059</ele>
        <time>2026-05-13T11:56:45Z</time>
      </trkpt>
      <trkpt lat="45.91332" lon="5.75029">
        <ele>1059.2</ele>
        <time>2026-05-13T11:56:46Z</time>
      </trkpt>
      <trkpt lat="45.91331" lon="5.75028">
        <ele>1059.4</ele>
        <time>2026-05-13T11:56:47Z</time>
      </trkpt>
      <trkpt lat="45.9133" lon="5.75027">
        <ele>1059.4</ele>
        <time>2026-05-13T11:56:48Z</time>
      </trkpt>
      <trkpt lat="45.9133" lon="5.75026">
        <ele>1059.8</ele>
        <time>2026-05-13T11:56:49Z</time>
      </trkpt>
      <trkpt lat="45.91329" lon="5.75025">
        <ele>1059.8</ele>
        <time>2026-05-13T11:56:50Z</time>
      </trkpt>
      <trkpt lat="45.91328" lon="5.75023">
        <ele>1060</ele>
        <time>2026-05-13T11:56:51Z</time>
      </trkpt>
      <trkpt lat="45.91326" lon="5.7502">
        <ele>1060.4</ele>
        <time>2026-05-13T11:56:52Z</time>
      </trkpt>
      <trkpt lat="45.91326" lon="5.75017">
        <ele>1060.6</ele>
        <time>2026-05-13T11:56:53Z</time>
      </trkpt>
      <trkpt lat="45.91325" lon="5.75015">
        <ele>1060.6</ele>
        <time>2026-05-13T11:56:54Z</time>
      </trkpt>
      <trkpt lat="45.91325" lon="5.75013">
        <ele>1060.8</ele>
        <time>2026-05-13T11:56:55Z</time>
      </trkpt>
      <trkpt lat="45.91324" lon="5.75012">
        <ele>1061.2</ele>
        <time>2026-05-13T11:56:56Z</time>
      </trkpt>
      <trkpt lat="45.91323" lon="5.75011">
        <ele>1061.2</ele>
        <time>2026-05-13T11:56:57Z</time>
      </trkpt>
      <trkpt lat="45.91321" lon="5.75009">
        <ele>1061.4</ele>
        <time>2026-05-13T11:56:58Z</time>
      </trkpt>
      <trkpt lat="45.9132" lon="5.75008">
        <ele>1061.4</ele>
        <time>2026-05-13T11:56:59Z</time>
      </trkpt>
      <trkpt lat="45.9132" lon="5.75006">
        <ele>1061.8</ele>
        <time>2026-05-13T11:57:00Z</time>
      </trkpt>
      <trkpt lat="45.9132" lon="5.75004">
        <ele>1061.8</ele>
        <time>2026-05-13T11:57:01Z</time>
      </trkpt>
      <trkpt lat="45.91319" lon="5.75003">
        <ele>1062.2</ele>
        <time>2026-05-13T11:57:02Z</time>
      </trkpt>
      <trkpt lat="45.91317" lon="5.75001">
        <ele>1062.2</ele>
        <time>2026-05-13T11:57:03Z</time>
      </trkpt>
      <trkpt lat="45.91315" lon="5.75">
        <ele>1062.4</ele>
        <time>2026-05-13T11:57:04Z</time>
      </trkpt>
      <trkpt lat="45.91314" lon="5.74999">
        <ele>1062.4</ele>
        <time>2026-05-13T11:57:05Z</time>
      </trkpt>
      <trkpt lat="45.91313" lon="5.74998">
        <ele>1062.8</ele>
        <time>2026-05-13T11:57:06Z</time>
      </trkpt>
      <trkpt lat="45.91311" lon="5.74997">
        <ele>1062.8</ele>
        <time>2026-05-13T11:57:07Z</time>
      </trkpt>
      <trkpt lat="45.9131" lon="5.74996">
        <ele>1063.2</ele>
        <time>2026-05-13T11:57:08Z</time>
      </trkpt>
      <trkpt lat="45.91309" lon="5.74995">
        <ele>1063.4</ele>
        <time>2026-05-13T11:57:09Z</time>
      </trkpt>
      <trkpt lat="45.91307" lon="5.74994">
        <ele>1063.8</ele>
        <time>2026-05-13T11:57:10Z</time>
      </trkpt>
      <trkpt lat="45.91306" lon="5.74994">
        <ele>1063.8</ele>
        <time>2026-05-13T11:57:11Z</time>
      </trkpt>
      <trkpt lat="45.91305" lon="5.74993">
        <ele>1064</ele>
        <time>2026-05-13T11:57:12Z</time>
      </trkpt>
      <trkpt lat="45.91304" lon="5.74992">
        <ele>1064</ele>
        <time>2026-05-13T11:57:13Z</time>
      </trkpt>
      <trkpt lat="45.91303" lon="5.7499">
        <ele>1064.4</ele>
        <time>2026-05-13T11:57:14Z</time>
      </trkpt>
      <trkpt lat="45.91302" lon="5.74989">
        <ele>1064.4</ele>
        <time>2026-05-13T11:57:15Z</time>
      </trkpt>
      <trkpt lat="45.91302" lon="5.74988">
        <ele>1064.6</ele>
        <time>2026-05-13T11:57:16Z</time>
      </trkpt>
      <trkpt lat="45.91301" lon="5.74986">
        <ele>1064.6</ele>
        <time>2026-05-13T11:57:17Z</time>
      </trkpt>
      <trkpt lat="45.913" lon="5.74986">
        <ele>1065</ele>
        <time>2026-05-13T11:57:18Z</time>
      </trkpt>
      <trkpt lat="45.91299" lon="5.74985">
        <ele>1065</ele>
        <time>2026-05-13T11:57:19Z</time>
      </trkpt>
      <trkpt lat="45.91297" lon="5.74984">
        <ele>1065.4</ele>
        <time>2026-05-13T11:57:20Z</time>
      </trkpt>
      <trkpt lat="45.91296" lon="5.74983">
        <ele>1065.4</ele>
        <time>2026-05-13T11:57:21Z</time>
      </trkpt>
      <trkpt lat="45.91295" lon="5.74982">
        <ele>1065.6</ele>
        <time>2026-05-13T11:57:22Z</time>
      </trkpt>
      <trkpt lat="45.91294" lon="5.74981">
        <ele>1065.6</ele>
        <time>2026-05-13T11:57:23Z</time>
      </trkpt>
      <trkpt lat="45.91294" lon="5.7498">
        <ele>1066</ele>
        <time>2026-05-13T11:57:24Z</time>
      </trkpt>
      <trkpt lat="45.91293" lon="5.74979">
        <ele>1066</ele>
        <time>2026-05-13T11:57:25Z</time>
      </trkpt>
      <trkpt lat="45.91292" lon="5.74978">
        <ele>1066.2</ele>
        <time>2026-05-13T11:57:26Z</time>
      </trkpt>
      <trkpt lat="45.91291" lon="5.74977">
        <ele>1066.4</ele>
        <time>2026-05-13T11:57:27Z</time>
      </trkpt>
      <trkpt lat="45.9129" lon="5.74976">
        <ele>1066.6</ele>
        <time>2026-05-13T11:57:28Z</time>
      </trkpt>
      <trkpt lat="45.91289" lon="5.74975">
        <ele>1066.8</ele>
        <time>2026-05-13T11:57:29Z</time>
      </trkpt>
      <trkpt lat="45.91288" lon="5.74974">
        <ele>1066.8</ele>
        <time>2026-05-13T11:57:30Z</time>
      </trkpt>
      <trkpt lat="45.91288" lon="5.74973">
        <ele>1067.2</ele>
        <time>2026-05-13T11:57:31Z</time>
      </trkpt>
      <trkpt lat="45.91287" lon="5.74972">
        <ele>1067.2</ele>
        <time>2026-05-13T11:57:32Z</time>
      </trkpt>
      <trkpt lat="45.91287" lon="5.74971">
        <ele>1067.4</ele>
        <time>2026-05-13T11:57:33Z</time>
      </trkpt>
      <trkpt lat="45.91286" lon="5.7497">
        <ele>1067.6</ele>
        <time>2026-05-13T11:57:34Z</time>
      </trkpt>
      <trkpt lat="45.91285" lon="5.7497">
        <ele>1068</ele>
        <time>2026-05-13T11:57:35Z</time>
      </trkpt>
      <trkpt lat="45.91284" lon="5.7497">
        <ele>1068.2</ele>
        <time>2026-05-13T11:57:36Z</time>
      </trkpt>
      <trkpt lat="45.91282" lon="5.7497">
        <ele>1068.2</ele>
        <time>2026-05-13T11:57:37Z</time>
      </trkpt>
      <trkpt lat="45.9128" lon="5.7497">
        <ele>1068.6</ele>
        <time>2026-05-13T11:57:38Z</time>
      </trkpt>
      <trkpt lat="45.91278" lon="5.74969">
        <ele>1068.6</ele>
        <time>2026-05-13T11:57:39Z</time>
      </trkpt>
      <trkpt lat="45.91277" lon="5.74968">
        <ele>1069</ele>
        <time>2026-05-13T11:57:40Z</time>
      </trkpt>
      <trkpt lat="45.91276" lon="5.74966">
        <ele>1069</ele>
        <time>2026-05-13T11:57:41Z</time>
      </trkpt>
      <trkpt lat="45.91276" lon="5.74964">
        <ele>1069.2</ele>
        <time>2026-05-13T11:57:42Z</time>
      </trkpt>
      <trkpt lat="45.91275" lon="5.74963">
        <ele>1069.4</ele>
        <time>2026-05-13T11:57:43Z</time>
      </trkpt>
      <trkpt lat="45.91274" lon="5.74962">
        <ele>1069.4</ele>
        <time>2026-05-13T11:57:44Z</time>
      </trkpt>
      <trkpt lat="45.91273" lon="5.74962">
        <ele>1069.8</ele>
        <time>2026-05-13T11:57:45Z</time>
      </trkpt>
      <trkpt lat="45.91272" lon="5.74962">
        <ele>1069.8</ele>
        <time>2026-05-13T11:57:46Z</time>
      </trkpt>
      <trkpt lat="45.9127" lon="5.7496">
        <ele>1070.2</ele>
        <time>2026-05-13T11:57:47Z</time>
      </trkpt>
      <trkpt lat="45.91268" lon="5.7496">
        <ele>1070.2</ele>
        <time>2026-05-13T11:57:48Z</time>
      </trkpt>
      <trkpt lat="45.91267" lon="5.7496">
        <ele>1070.2</ele>
        <time>2026-05-13T11:57:49Z</time>
      </trkpt>
      <trkpt lat="45.91265" lon="5.7496">
        <ele>1070.4</ele>
        <time>2026-05-13T11:57:50Z</time>
      </trkpt>
      <trkpt lat="45.91263" lon="5.74959">
        <ele>1070.4</ele>
        <time>2026-05-13T11:57:51Z</time>
      </trkpt>
      <trkpt lat="45.91261" lon="5.74959">
        <ele>1070.8</ele>
        <time>2026-05-13T11:57:52Z</time>
      </trkpt>
      <trkpt lat="45.9126" lon="5.74959">
        <ele>1070.8</ele>
        <time>2026-05-13T11:57:53Z</time>
      </trkpt>
      <trkpt lat="45.91259" lon="5.74958">
        <ele>1071.2</ele>
        <time>2026-05-13T11:57:54Z</time>
      </trkpt>
      <trkpt lat="45.91257" lon="5.74958">
        <ele>1071.2</ele>
        <time>2026-05-13T11:57:55Z</time>
      </trkpt>
      <trkpt lat="45.91255" lon="5.74958">
        <ele>1071.6</ele>
        <time>2026-05-13T11:57:56Z</time>
      </trkpt>
      <trkpt lat="45.91254" lon="5.74958">
        <ele>1071.6</ele>
        <time>2026-05-13T11:57:57Z</time>
      </trkpt>
      <trkpt lat="45.91254" lon="5.74958">
        <ele>1071.2</ele>
        <time>2026-05-13T11:57:58Z</time>
      </trkpt>
      <trkpt lat="45.91254" lon="5.74958">
        <ele>1071.6</ele>
        <time>2026-05-13T11:57:59Z</time>
      </trkpt>
      <trkpt lat="45.91245" lon="5.74957">
        <ele>1072.4</ele>
        <time>2026-05-13T11:58:02Z</time>
      </trkpt>
      <trkpt lat="45.91244" lon="5.74957">
        <ele>1072.4</ele>
        <time>2026-05-13T11:58:03Z</time>
      </trkpt>
      <trkpt lat="45.91243" lon="5.74957">
        <ele>1072.8</ele>
        <time>2026-05-13T11:58:04Z</time>
      </trkpt>
      <trkpt lat="45.91242" lon="5.74957">
        <ele>1073</ele>
        <time>2026-05-13T11:58:05Z</time>
      </trkpt>
      <trkpt lat="45.9124" lon="5.74958">
        <ele>1073.2</ele>
        <time>2026-05-13T11:58:06Z</time>
      </trkpt>
      <trkpt lat="45.91238" lon="5.74959">
        <ele>1073.2</ele>
        <time>2026-05-13T11:58:07Z</time>
      </trkpt>
      <trkpt lat="45.91236" lon="5.7496">
        <ele>1073.4</ele>
        <time>2026-05-13T11:58:08Z</time>
      </trkpt>
      <trkpt lat="45.91235" lon="5.7496">
        <ele>1073.4</ele>
        <time>2026-05-13T11:58:09Z</time>
      </trkpt>
      <trkpt lat="45.91234" lon="5.74961">
        <ele>1073.8</ele>
        <time>2026-05-13T11:58:10Z</time>
      </trkpt>
      <trkpt lat="45.91232" lon="5.74962">
        <ele>1073.8</ele>
        <time>2026-05-13T11:58:11Z</time>
      </trkpt>
      <trkpt lat="45.91231" lon="5.74963">
        <ele>1074.2</ele>
        <time>2026-05-13T11:58:12Z</time>
      </trkpt>
      <trkpt lat="45.91229" lon="5.74964">
        <ele>1074.2</ele>
        <time>2026-05-13T11:58:13Z</time>
      </trkpt>
      <trkpt lat="45.91228" lon="5.74965">
        <ele>1074.6</ele>
        <time>2026-05-13T11:58:14Z</time>
      </trkpt>
      <trkpt lat="45.91227" lon="5.74965">
        <ele>1074.6</ele>
        <time>2026-05-13T11:58:15Z</time>
      </trkpt>
      <trkpt lat="45.91226" lon="5.74965">
        <ele>1074.8</ele>
        <time>2026-05-13T11:58:16Z</time>
      </trkpt>
      <trkpt lat="45.91224" lon="5.74965">
        <ele>1074.8</ele>
        <time>2026-05-13T11:58:17Z</time>
      </trkpt>
      <trkpt lat="45.91223" lon="5.74966">
        <ele>1075.2</ele>
        <time>2026-05-13T11:58:18Z</time>
      </trkpt>
      <trkpt lat="45.91222" lon="5.74966">
        <ele>1075.2</ele>
        <time>2026-05-13T11:58:19Z</time>
      </trkpt>
      <trkpt lat="45.91222" lon="5.74967">
        <ele>1075.4</ele>
        <time>2026-05-13T11:58:20Z</time>
      </trkpt>
      <trkpt lat="45.91221" lon="5.74968">
        <ele>1075.8</ele>
        <time>2026-05-13T11:58:21Z</time>
      </trkpt>
      <trkpt lat="45.91219" lon="5.74969">
        <ele>1076</ele>
        <time>2026-05-13T11:58:22Z</time>
      </trkpt>
      <trkpt lat="45.91217" lon="5.74969">
        <ele>1076</ele>
        <time>2026-05-13T11:58:23Z</time>
      </trkpt>
      <trkpt lat="45.91216" lon="5.7497">
        <ele>1076</ele>
        <time>2026-05-13T11:58:24Z</time>
      </trkpt>
      <trkpt lat="45.91215" lon="5.7497">
        <ele>1076.4</ele>
        <time>2026-05-13T11:58:25Z</time>
      </trkpt>
      <trkpt lat="45.91214" lon="5.74971">
        <ele>1076.4</ele>
        <time>2026-05-13T11:58:26Z</time>
      </trkpt>
      <trkpt lat="45.91212" lon="5.74971">
        <ele>1076.6</ele>
        <time>2026-05-13T11:58:27Z</time>
      </trkpt>
      <trkpt lat="45.91211" lon="5.74972">
        <ele>1076.6</ele>
        <time>2026-05-13T11:58:28Z</time>
      </trkpt>
      <trkpt lat="45.91211" lon="5.74973">
        <ele>1076.8</ele>
        <time>2026-05-13T11:58:29Z</time>
      </trkpt>
      <trkpt lat="45.9121" lon="5.74974">
        <ele>1076.8</ele>
        <time>2026-05-13T11:58:30Z</time>
      </trkpt>
      <trkpt lat="45.91209" lon="5.74975">
        <ele>1077.2</ele>
        <time>2026-05-13T11:58:31Z</time>
      </trkpt>
      <trkpt lat="45.91207" lon="5.74976">
        <ele>1077.2</ele>
        <time>2026-05-13T11:58:32Z</time>
      </trkpt>
      <trkpt lat="45.91207" lon="5.74976">
        <ele>1077.6</ele>
        <time>2026-05-13T11:58:33Z</time>
      </trkpt>
      <trkpt lat="45.91205" lon="5.74977">
        <ele>1077.8</ele>
        <time>2026-05-13T11:58:34Z</time>
      </trkpt>
      <trkpt lat="45.91204" lon="5.74977">
        <ele>1077.8</ele>
        <time>2026-05-13T11:58:35Z</time>
      </trkpt>
      <trkpt lat="45.91202" lon="5.74978">
        <ele>1078.2</ele>
        <time>2026-05-13T11:58:36Z</time>
      </trkpt>
      <trkpt lat="45.91201" lon="5.74979">
        <ele>1078.2</ele>
        <time>2026-05-13T11:58:37Z</time>
      </trkpt>
      <trkpt lat="45.91201" lon="5.74979">
        <ele>1078.4</ele>
        <time>2026-05-13T11:58:38Z</time>
      </trkpt>
      <trkpt lat="45.91201" lon="5.74979">
        <ele>1078.4</ele>
        <time>2026-05-13T11:58:39Z</time>
      </trkpt>
      <trkpt lat="45.91199" lon="5.74981">
        <ele>1078.6</ele>
        <time>2026-05-13T11:58:40Z</time>
      </trkpt>
      <trkpt lat="45.91199" lon="5.74982">
        <ele>1078.6</ele>
        <time>2026-05-13T11:58:41Z</time>
      </trkpt>
      <trkpt lat="45.91197" lon="5.74983">
        <ele>1079</ele>
        <time>2026-05-13T11:58:42Z</time>
      </trkpt>
      <trkpt lat="45.91195" lon="5.74983">
        <ele>1079</ele>
        <time>2026-05-13T11:58:43Z</time>
      </trkpt>
      <trkpt lat="45.91194" lon="5.74982">
        <ele>1079.2</ele>
        <time>2026-05-13T11:58:44Z</time>
      </trkpt>
      <trkpt lat="45.91193" lon="5.74981">
        <ele>1079.2</ele>
        <time>2026-05-13T11:58:45Z</time>
      </trkpt>
      <trkpt lat="45.91192" lon="5.74981">
        <ele>1079.4</ele>
        <time>2026-05-13T11:58:46Z</time>
      </trkpt>
      <trkpt lat="45.91191" lon="5.7498">
        <ele>1079.6</ele>
        <time>2026-05-13T11:58:47Z</time>
      </trkpt>
      <trkpt lat="45.91189" lon="5.74979">
        <ele>1079.6</ele>
        <time>2026-05-13T11:58:48Z</time>
      </trkpt>
      <trkpt lat="45.91188" lon="5.74978">
        <ele>1079.8</ele>
        <time>2026-05-13T11:58:49Z</time>
      </trkpt>
      <trkpt lat="45.91187" lon="5.74979">
        <ele>1079.8</ele>
        <time>2026-05-13T11:58:50Z</time>
      </trkpt>
      <trkpt lat="45.91186" lon="5.7498">
        <ele>1080</ele>
        <time>2026-05-13T11:58:51Z</time>
      </trkpt>
      <trkpt lat="45.91186" lon="5.74982">
        <ele>1080</ele>
        <time>2026-05-13T11:58:52Z</time>
      </trkpt>
      <trkpt lat="45.91186" lon="5.74983">
        <ele>1080.4</ele>
        <time>2026-05-13T11:58:53Z</time>
      </trkpt>
      <trkpt lat="45.91186" lon="5.74984">
        <ele>1080.4</ele>
        <time>2026-05-13T11:58:54Z</time>
      </trkpt>
      <trkpt lat="45.91184" lon="5.74984">
        <ele>1080.8</ele>
        <time>2026-05-13T11:58:55Z</time>
      </trkpt>
      <trkpt lat="45.91183" lon="5.74984">
        <ele>1080.8</ele>
        <time>2026-05-13T11:58:56Z</time>
      </trkpt>
      <trkpt lat="45.91182" lon="5.74985">
        <ele>1081.2</ele>
        <time>2026-05-13T11:58:57Z</time>
      </trkpt>
      <trkpt lat="45.91181" lon="5.74985">
        <ele>1081</ele>
        <time>2026-05-13T11:58:58Z</time>
      </trkpt>
      <trkpt lat="45.91179" lon="5.74986">
        <ele>1081.6</ele>
        <time>2026-05-13T11:58:59Z</time>
      </trkpt>
      <trkpt lat="45.91178" lon="5.74986">
        <ele>1081.8</ele>
        <time>2026-05-13T11:59:00Z</time>
      </trkpt>
      <trkpt lat="45.91176" lon="5.74987">
        <ele>1081.8</ele>
        <time>2026-05-13T11:59:01Z</time>
      </trkpt>
      <trkpt lat="45.91175" lon="5.74988">
        <ele>1081.8</ele>
        <time>2026-05-13T11:59:02Z</time>
      </trkpt>
      <trkpt lat="45.91174" lon="5.74989">
        <ele>1081.8</ele>
        <time>2026-05-13T11:59:03Z</time>
      </trkpt>
      <trkpt lat="45.91173" lon="5.7499">
        <ele>1081.8</ele>
        <time>2026-05-13T11:59:04Z</time>
      </trkpt>
      <trkpt lat="45.91172" lon="5.74991">
        <ele>1082.2</ele>
        <time>2026-05-13T11:59:05Z</time>
      </trkpt>
      <trkpt lat="45.9117" lon="5.74992">
        <ele>1082.4</ele>
        <time>2026-05-13T11:59:06Z</time>
      </trkpt>
      <trkpt lat="45.91169" lon="5.74992">
        <ele>1082.4</ele>
        <time>2026-05-13T11:59:07Z</time>
      </trkpt>
      <trkpt lat="45.91168" lon="5.74992">
        <ele>1082.8</ele>
        <time>2026-05-13T11:59:08Z</time>
      </trkpt>
      <trkpt lat="45.91167" lon="5.74992">
        <ele>1082.8</ele>
        <time>2026-05-13T11:59:09Z</time>
      </trkpt>
      <trkpt lat="45.91165" lon="5.74991">
        <ele>1082.8</ele>
        <time>2026-05-13T11:59:10Z</time>
      </trkpt>
      <trkpt lat="45.91164" lon="5.74991">
        <ele>1083</ele>
        <time>2026-05-13T11:59:11Z</time>
      </trkpt>
      <trkpt lat="45.91162" lon="5.74991">
        <ele>1083</ele>
        <time>2026-05-13T11:59:12Z</time>
      </trkpt>
      <trkpt lat="45.91161" lon="5.74991">
        <ele>1083.4</ele>
        <time>2026-05-13T11:59:13Z</time>
      </trkpt>
      <trkpt lat="45.9116" lon="5.74991">
        <ele>1083.4</ele>
        <time>2026-05-13T11:59:14Z</time>
      </trkpt>
      <trkpt lat="45.91159" lon="5.74992">
        <ele>1083.6</ele>
        <time>2026-05-13T11:59:15Z</time>
      </trkpt>
      <trkpt lat="45.91158" lon="5.74992">
        <ele>1083.6</ele>
        <time>2026-05-13T11:59:16Z</time>
      </trkpt>
      <trkpt lat="45.91156" lon="5.74992">
        <ele>1084</ele>
        <time>2026-05-13T11:59:17Z</time>
      </trkpt>
      <trkpt lat="45.91155" lon="5.74992">
        <ele>1084.2</ele>
        <time>2026-05-13T11:59:18Z</time>
      </trkpt>
      <trkpt lat="45.91154" lon="5.74992">
        <ele>1084.6</ele>
        <time>2026-05-13T11:59:19Z</time>
      </trkpt>
      <trkpt lat="45.91154" lon="5.74992">
        <ele>1084.6</ele>
        <time>2026-05-13T11:59:20Z</time>
      </trkpt>
      <trkpt lat="45.91153" lon="5.74993">
        <ele>1084.6</ele>
        <time>2026-05-13T11:59:21Z</time>
      </trkpt>
      <trkpt lat="45.91152" lon="5.74993">
        <ele>1085</ele>
        <time>2026-05-13T11:59:22Z</time>
      </trkpt>
      <trkpt lat="45.9115" lon="5.74994">
        <ele>1085.2</ele>
        <time>2026-05-13T11:59:23Z</time>
      </trkpt>
      <trkpt lat="45.91149" lon="5.74994">
        <ele>1085.2</ele>
        <time>2026-05-13T11:59:24Z</time>
      </trkpt>
      <trkpt lat="45.91148" lon="5.74995">
        <ele>1085.4</ele>
        <time>2026-05-13T11:59:25Z</time>
      </trkpt>
      <trkpt lat="45.91148" lon="5.74997">
        <ele>1085.8</ele>
        <time>2026-05-13T11:59:26Z</time>
      </trkpt>
      <trkpt lat="45.91146" lon="5.74997">
        <ele>1086</ele>
        <time>2026-05-13T11:59:27Z</time>
      </trkpt>
      <trkpt lat="45.91145" lon="5.74998">
        <ele>1086</ele>
        <time>2026-05-13T11:59:28Z</time>
      </trkpt>
      <trkpt lat="45.91144" lon="5.74999">
        <ele>1086.4</ele>
        <time>2026-05-13T11:59:29Z</time>
      </trkpt>
      <trkpt lat="45.91143" lon="5.75">
        <ele>1086.4</ele>
        <time>2026-05-13T11:59:30Z</time>
      </trkpt>
      <trkpt lat="45.91142" lon="5.75">
        <ele>1086.6</ele>
        <time>2026-05-13T11:59:31Z</time>
      </trkpt>
      <trkpt lat="45.91142" lon="5.75001">
        <ele>1087</ele>
        <time>2026-05-13T11:59:32Z</time>
      </trkpt>
      <trkpt lat="45.91141" lon="5.75002">
        <ele>1087</ele>
        <time>2026-05-13T11:59:33Z</time>
      </trkpt>
      <trkpt lat="45.9114" lon="5.75002">
        <ele>1087.2</ele>
        <time>2026-05-13T11:59:34Z</time>
      </trkpt>
      <trkpt lat="45.91139" lon="5.75003">
        <ele>1087.4</ele>
        <time>2026-05-13T11:59:35Z</time>
      </trkpt>
      <trkpt lat="45.91137" lon="5.75003">
        <ele>1087.4</ele>
        <time>2026-05-13T11:59:36Z</time>
      </trkpt>
      <trkpt lat="45.91136" lon="5.75003">
        <ele>1087.8</ele>
        <time>2026-05-13T11:59:37Z</time>
      </trkpt>
      <trkpt lat="45.91135" lon="5.75003">
        <ele>1087.8</ele>
        <time>2026-05-13T11:59:38Z</time>
      </trkpt>
      <trkpt lat="45.91135" lon="5.75003">
        <ele>1088</ele>
        <time>2026-05-13T11:59:39Z</time>
      </trkpt>
      <trkpt lat="45.91134" lon="5.75002">
        <ele>1088</ele>
        <time>2026-05-13T11:59:40Z</time>
      </trkpt>
      <trkpt lat="45.91132" lon="5.75003">
        <ele>1088.4</ele>
        <time>2026-05-13T11:59:41Z</time>
      </trkpt>
      <trkpt lat="45.91131" lon="5.75003">
        <ele>1088.4</ele>
        <time>2026-05-13T11:59:42Z</time>
      </trkpt>
      <trkpt lat="45.9113" lon="5.75003">
        <ele>1088.8</ele>
        <time>2026-05-13T11:59:43Z</time>
      </trkpt>
      <trkpt lat="45.91129" lon="5.75004">
        <ele>1088.8</ele>
        <time>2026-05-13T11:59:44Z</time>
      </trkpt>
      <trkpt lat="45.91128" lon="5.75005">
        <ele>1089.2</ele>
        <time>2026-05-13T11:59:45Z</time>
      </trkpt>
      <trkpt lat="45.91127" lon="5.75007">
        <ele>1089.2</ele>
        <time>2026-05-13T11:59:46Z</time>
      </trkpt>
      <trkpt lat="45.91126" lon="5.75008">
        <ele>1089.2</ele>
        <time>2026-05-13T11:59:47Z</time>
      </trkpt>
      <trkpt lat="45.91125" lon="5.75009">
        <ele>1089.6</ele>
        <time>2026-05-13T11:59:48Z</time>
      </trkpt>
      <trkpt lat="45.91124" lon="5.75011">
        <ele>1089.6</ele>
        <time>2026-05-13T11:59:49Z</time>
      </trkpt>
      <trkpt lat="45.91123" lon="5.75012">
        <ele>1090</ele>
        <time>2026-05-13T11:59:50Z</time>
      </trkpt>
      <trkpt lat="45.91122" lon="5.75013">
        <ele>1090</ele>
        <time>2026-05-13T11:59:51Z</time>
      </trkpt>
      <trkpt lat="45.91121" lon="5.75013">
        <ele>1090.2</ele>
        <time>2026-05-13T11:59:52Z</time>
      </trkpt>
      <trkpt lat="45.9112" lon="5.75014">
        <ele>1090.4</ele>
        <time>2026-05-13T11:59:53Z</time>
      </trkpt>
      <trkpt lat="45.91118" lon="5.75015">
        <ele>1090.4</ele>
        <time>2026-05-13T11:59:54Z</time>
      </trkpt>
      <trkpt lat="45.91117" lon="5.75015">
        <ele>1090.6</ele>
        <time>2026-05-13T11:59:55Z</time>
      </trkpt>
      <trkpt lat="45.91116" lon="5.75016">
        <ele>1090.6</ele>
        <time>2026-05-13T11:59:56Z</time>
      </trkpt>
      <trkpt lat="45.91114" lon="5.75017">
        <ele>1090.8</ele>
        <time>2026-05-13T11:59:57Z</time>
      </trkpt>
      <trkpt lat="45.91113" lon="5.75018">
        <ele>1091.2</ele>
        <time>2026-05-13T11:59:58Z</time>
      </trkpt>
      <trkpt lat="45.91111" lon="5.7502">
        <ele>1091.4</ele>
        <time>2026-05-13T11:59:59Z</time>
      </trkpt>
      <trkpt lat="45.9111" lon="5.7502">
        <ele>1091.4</ele>
        <time>2026-05-13T12:00:00Z</time>
      </trkpt>
      <trkpt lat="45.91109" lon="5.75021">
        <ele>1091.6</ele>
        <time>2026-05-13T12:00:01Z</time>
      </trkpt>
      <trkpt lat="45.91108" lon="5.75021">
        <ele>1091.6</ele>
        <time>2026-05-13T12:00:02Z</time>
      </trkpt>
      <trkpt lat="45.91106" lon="5.75021">
        <ele>1091.6</ele>
        <time>2026-05-13T12:00:03Z</time>
      </trkpt>
      <trkpt lat="45.91104" lon="5.75022">
        <ele>1091.6</ele>
        <time>2026-05-13T12:00:04Z</time>
      </trkpt>
      <trkpt lat="45.91103" lon="5.75022">
        <ele>1092</ele>
        <time>2026-05-13T12:00:05Z</time>
      </trkpt>
      <trkpt lat="45.91102" lon="5.75022">
        <ele>1092.2</ele>
        <time>2026-05-13T12:00:06Z</time>
      </trkpt>
      <trkpt lat="45.911" lon="5.75022">
        <ele>1092.2</ele>
        <time>2026-05-13T12:00:07Z</time>
      </trkpt>
      <trkpt lat="45.91098" lon="5.75022">
        <ele>1092.4</ele>
        <time>2026-05-13T12:00:08Z</time>
      </trkpt>
      <trkpt lat="45.91096" lon="5.75022">
        <ele>1092.8</ele>
        <time>2026-05-13T12:00:09Z</time>
      </trkpt>
      <trkpt lat="45.91095" lon="5.75022">
        <ele>1092.8</ele>
        <time>2026-05-13T12:00:10Z</time>
      </trkpt>
      <trkpt lat="45.91094" lon="5.75022">
        <ele>1093</ele>
        <time>2026-05-13T12:00:11Z</time>
      </trkpt>
      <trkpt lat="45.91093" lon="5.75022">
        <ele>1093.2</ele>
        <time>2026-05-13T12:00:12Z</time>
      </trkpt>
      <trkpt lat="45.91092" lon="5.75021">
        <ele>1093.4</ele>
        <time>2026-05-13T12:00:13Z</time>
      </trkpt>
      <trkpt lat="45.91091" lon="5.75021">
        <ele>1093.4</ele>
        <time>2026-05-13T12:00:14Z</time>
      </trkpt>
      <trkpt lat="45.9109" lon="5.75021">
        <ele>1093.6</ele>
        <time>2026-05-13T12:00:15Z</time>
      </trkpt>
      <trkpt lat="45.91088" lon="5.7502">
        <ele>1093.8</ele>
        <time>2026-05-13T12:00:16Z</time>
      </trkpt>
      <trkpt lat="45.91087" lon="5.7502">
        <ele>1093.8</ele>
        <time>2026-05-13T12:00:17Z</time>
      </trkpt>
      <trkpt lat="45.91086" lon="5.75019">
        <ele>1094.2</ele>
        <time>2026-05-13T12:00:18Z</time>
      </trkpt>
      <trkpt lat="45.91085" lon="5.75019">
        <ele>1094.2</ele>
        <time>2026-05-13T12:00:19Z</time>
      </trkpt>
      <trkpt lat="45.91084" lon="5.75019">
        <ele>1094.4</ele>
        <time>2026-05-13T12:00:20Z</time>
      </trkpt>
      <trkpt lat="45.91083" lon="5.7502">
        <ele>1094.4</ele>
        <time>2026-05-13T12:00:21Z</time>
      </trkpt>
      <trkpt lat="45.91082" lon="5.75021">
        <ele>1094.8</ele>
        <time>2026-05-13T12:00:22Z</time>
      </trkpt>
      <trkpt lat="45.91081" lon="5.75021">
        <ele>1094.8</ele>
        <time>2026-05-13T12:00:23Z</time>
      </trkpt>
      <trkpt lat="45.91079" lon="5.75021">
        <ele>1095.2</ele>
        <time>2026-05-13T12:00:24Z</time>
      </trkpt>
      <trkpt lat="45.91078" lon="5.75021">
        <ele>1095.2</ele>
        <time>2026-05-13T12:00:25Z</time>
      </trkpt>
      <trkpt lat="45.91076" lon="5.7502">
        <ele>1095.4</ele>
        <time>2026-05-13T12:00:26Z</time>
      </trkpt>
      <trkpt lat="45.91076" lon="5.7502">
        <ele>1095.6</ele>
        <time>2026-05-13T12:00:27Z</time>
      </trkpt>
      <trkpt lat="45.91075" lon="5.7502">
        <ele>1095.6</ele>
        <time>2026-05-13T12:00:28Z</time>
      </trkpt>
      <trkpt lat="45.91073" lon="5.7502">
        <ele>1096</ele>
        <time>2026-05-13T12:00:29Z</time>
      </trkpt>
      <trkpt lat="45.91072" lon="5.7502">
        <ele>1096</ele>
        <time>2026-05-13T12:00:30Z</time>
      </trkpt>
      <trkpt lat="45.91071" lon="5.7502">
        <ele>1096.2</ele>
        <time>2026-05-13T12:00:31Z</time>
      </trkpt>
      <trkpt lat="45.91069" lon="5.7502">
        <ele>1096.2</ele>
        <time>2026-05-13T12:00:32Z</time>
      </trkpt>
      <trkpt lat="45.91068" lon="5.7502">
        <ele>1096.4</ele>
        <time>2026-05-13T12:00:33Z</time>
      </trkpt>
      <trkpt lat="45.91067" lon="5.75019">
        <ele>1096.8</ele>
        <time>2026-05-13T12:00:34Z</time>
      </trkpt>
      <trkpt lat="45.91067" lon="5.75019">
        <ele>1097</ele>
        <time>2026-05-13T12:00:35Z</time>
      </trkpt>
      <trkpt lat="45.91066" lon="5.75019">
        <ele>1097.2</ele>
        <time>2026-05-13T12:00:36Z</time>
      </trkpt>
      <trkpt lat="45.91065" lon="5.75019">
        <ele>1097.2</ele>
        <time>2026-05-13T12:00:37Z</time>
      </trkpt>
      <trkpt lat="45.91064" lon="5.75019">
        <ele>1097.4</ele>
        <time>2026-05-13T12:00:38Z</time>
      </trkpt>
      <trkpt lat="45.91062" lon="5.75019">
        <ele>1097.4</ele>
        <time>2026-05-13T12:00:39Z</time>
      </trkpt>
      <trkpt lat="45.91061" lon="5.75019">
        <ele>1097.8</ele>
        <time>2026-05-13T12:00:40Z</time>
      </trkpt>
      <trkpt lat="45.9106" lon="5.75019">
        <ele>1097.8</ele>
        <time>2026-05-13T12:00:41Z</time>
      </trkpt>
      <trkpt lat="45.91059" lon="5.75019">
        <ele>1098</ele>
        <time>2026-05-13T12:00:42Z</time>
      </trkpt>
      <trkpt lat="45.91058" lon="5.7502">
        <ele>1098</ele>
        <time>2026-05-13T12:00:43Z</time>
      </trkpt>
      <trkpt lat="45.91057" lon="5.7502">
        <ele>1098.4</ele>
        <time>2026-05-13T12:00:44Z</time>
      </trkpt>
      <trkpt lat="45.91056" lon="5.75021">
        <ele>1098.4</ele>
        <time>2026-05-13T12:00:45Z</time>
      </trkpt>
      <trkpt lat="45.91055" lon="5.75021">
        <ele>1098.4</ele>
        <time>2026-05-13T12:00:46Z</time>
      </trkpt>
      <trkpt lat="45.91054" lon="5.75022">
        <ele>1098.6</ele>
        <time>2026-05-13T12:00:47Z</time>
      </trkpt>
      <trkpt lat="45.91053" lon="5.75023">
        <ele>1098.6</ele>
        <time>2026-05-13T12:00:48Z</time>
      </trkpt>
      <trkpt lat="45.91053" lon="5.75023">
        <ele>1098.8</ele>
        <time>2026-05-13T12:00:49Z</time>
      </trkpt>
      <trkpt lat="45.91052" lon="5.75024">
        <ele>1099.2</ele>
        <time>2026-05-13T12:00:50Z</time>
      </trkpt>
      <trkpt lat="45.91051" lon="5.75024">
        <ele>1099.2</ele>
        <time>2026-05-13T12:00:51Z</time>
      </trkpt>
      <trkpt lat="45.9105" lon="5.75025">
        <ele>1099.2</ele>
        <time>2026-05-13T12:00:52Z</time>
      </trkpt>
      <trkpt lat="45.91049" lon="5.75026">
        <ele>1099.6</ele>
        <time>2026-05-13T12:00:53Z</time>
      </trkpt>
      <trkpt lat="45.91048" lon="5.75027">
        <ele>1099.6</ele>
        <time>2026-05-13T12:00:54Z</time>
      </trkpt>
      <trkpt lat="45.91047" lon="5.75028">
        <ele>1100</ele>
        <time>2026-05-13T12:00:55Z</time>
      </trkpt>
      <trkpt lat="45.91046" lon="5.75028">
        <ele>1100</ele>
        <time>2026-05-13T12:00:56Z</time>
      </trkpt>
      <trkpt lat="45.91044" lon="5.75029">
        <ele>1100.2</ele>
        <time>2026-05-13T12:00:57Z</time>
      </trkpt>
      <trkpt lat="45.91043" lon="5.7503">
        <ele>1100.4</ele>
        <time>2026-05-13T12:00:58Z</time>
      </trkpt>
      <trkpt lat="45.91042" lon="5.75031">
        <ele>1100.4</ele>
        <time>2026-05-13T12:00:59Z</time>
      </trkpt>
      <trkpt lat="45.91041" lon="5.75031">
        <ele>1100.4</ele>
        <time>2026-05-13T12:01:00Z</time>
      </trkpt>
      <trkpt lat="45.91039" lon="5.75032">
        <ele>1100.8</ele>
        <time>2026-05-13T12:01:01Z</time>
      </trkpt>
      <trkpt lat="45.91038" lon="5.75032">
        <ele>1101</ele>
        <time>2026-05-13T12:01:02Z</time>
      </trkpt>
      <trkpt lat="45.91036" lon="5.75031">
        <ele>1101</ele>
        <time>2026-05-13T12:01:03Z</time>
      </trkpt>
      <trkpt lat="45.91035" lon="5.75031">
        <ele>1101.6</ele>
        <time>2026-05-13T12:01:04Z</time>
      </trkpt>
      <trkpt lat="45.91034" lon="5.75032">
        <ele>1101.6</ele>
        <time>2026-05-13T12:01:05Z</time>
      </trkpt>
      <trkpt lat="45.91033" lon="5.75032">
        <ele>1101.6</ele>
        <time>2026-05-13T12:01:06Z</time>
      </trkpt>
      <trkpt lat="45.91032" lon="5.75033">
        <ele>1102</ele>
        <time>2026-05-13T12:01:07Z</time>
      </trkpt>
      <trkpt lat="45.91031" lon="5.75035">
        <ele>1102</ele>
        <time>2026-05-13T12:01:08Z</time>
      </trkpt>
      <trkpt lat="45.9103" lon="5.75036">
        <ele>1102.2</ele>
        <time>2026-05-13T12:01:09Z</time>
      </trkpt>
      <trkpt lat="45.91029" lon="5.75037">
        <ele>1102.2</ele>
        <time>2026-05-13T12:01:10Z</time>
      </trkpt>
      <trkpt lat="45.91027" lon="5.75037">
        <ele>1102.6</ele>
        <time>2026-05-13T12:01:11Z</time>
      </trkpt>
      <trkpt lat="45.91025" lon="5.75038">
        <ele>1102.6</ele>
        <time>2026-05-13T12:01:12Z</time>
      </trkpt>
      <trkpt lat="45.91023" lon="5.75038">
        <ele>1103</ele>
        <time>2026-05-13T12:01:13Z</time>
      </trkpt>
      <trkpt lat="45.91022" lon="5.75039">
        <ele>1103.2</ele>
        <time>2026-05-13T12:01:14Z</time>
      </trkpt>
      <trkpt lat="45.91022" lon="5.75039">
        <ele>1103.2</ele>
        <time>2026-05-13T12:01:15Z</time>
      </trkpt>
      <trkpt lat="45.91021" lon="5.75038">
        <ele>1103.4</ele>
        <time>2026-05-13T12:01:16Z</time>
      </trkpt>
      <trkpt lat="45.9102" lon="5.75038">
        <ele>1103.4</ele>
        <time>2026-05-13T12:01:17Z</time>
      </trkpt>
      <trkpt lat="45.91019" lon="5.75039">
        <ele>1103.4</ele>
        <time>2026-05-13T12:01:18Z</time>
      </trkpt>
      <trkpt lat="45.91019" lon="5.7504">
        <ele>1103.8</ele>
        <time>2026-05-13T12:01:19Z</time>
      </trkpt>
      <trkpt lat="45.91019" lon="5.75041">
        <ele>1103.8</ele>
        <time>2026-05-13T12:01:20Z</time>
      </trkpt>
      <trkpt lat="45.91019" lon="5.75042">
        <ele>1104.2</ele>
        <time>2026-05-13T12:01:21Z</time>
      </trkpt>
      <trkpt lat="45.91018" lon="5.75043">
        <ele>1104.4</ele>
        <time>2026-05-13T12:01:22Z</time>
      </trkpt>
      <trkpt lat="45.91016" lon="5.75044">
        <ele>1104.4</ele>
        <time>2026-05-13T12:01:23Z</time>
      </trkpt>
      <trkpt lat="45.91015" lon="5.75044">
        <ele>1104.6</ele>
        <time>2026-05-13T12:01:24Z</time>
      </trkpt>
      <trkpt lat="45.91014" lon="5.75045">
        <ele>1104.6</ele>
        <time>2026-05-13T12:01:25Z</time>
      </trkpt>
      <trkpt lat="45.91013" lon="5.75046">
        <ele>1104.8</ele>
        <time>2026-05-13T12:01:26Z</time>
      </trkpt>
      <trkpt lat="45.91011" lon="5.75046">
        <ele>1105</ele>
        <time>2026-05-13T12:01:27Z</time>
      </trkpt>
      <trkpt lat="45.9101" lon="5.75047">
        <ele>1105</ele>
        <time>2026-05-13T12:01:28Z</time>
      </trkpt>
      <trkpt lat="45.91009" lon="5.75046">
        <ele>1105.2</ele>
        <time>2026-05-13T12:01:29Z</time>
      </trkpt>
      <trkpt lat="45.91009" lon="5.75046">
        <ele>1105.2</ele>
        <time>2026-05-13T12:01:30Z</time>
      </trkpt>
      <trkpt lat="45.91008" lon="5.75048">
        <ele>1105.4</ele>
        <time>2026-05-13T12:01:31Z</time>
      </trkpt>
      <trkpt lat="45.91007" lon="5.75049">
        <ele>1105.4</ele>
        <time>2026-05-13T12:01:32Z</time>
      </trkpt>
      <trkpt lat="45.91006" lon="5.7505">
        <ele>1105.8</ele>
        <time>2026-05-13T12:01:33Z</time>
      </trkpt>
      <trkpt lat="45.91004" lon="5.75052">
        <ele>1105.8</ele>
        <time>2026-05-13T12:01:34Z</time>
      </trkpt>
      <trkpt lat="45.91003" lon="5.75053">
        <ele>1106.2</ele>
        <time>2026-05-13T12:01:35Z</time>
      </trkpt>
      <trkpt lat="45.91003" lon="5.75053">
        <ele>1106.2</ele>
        <time>2026-05-13T12:01:36Z</time>
      </trkpt>
      <trkpt lat="45.91002" lon="5.75053">
        <ele>1106.4</ele>
        <time>2026-05-13T12:01:37Z</time>
      </trkpt>
      <trkpt lat="45.91001" lon="5.75054">
        <ele>1106.4</ele>
        <time>2026-05-13T12:01:38Z</time>
      </trkpt>
      <trkpt lat="45.91" lon="5.75055">
        <ele>1106.6</ele>
        <time>2026-05-13T12:01:39Z</time>
      </trkpt>
      <trkpt lat="45.90999" lon="5.75057">
        <ele>1106.6</ele>
        <time>2026-05-13T12:01:40Z</time>
      </trkpt>
      <trkpt lat="45.90998" lon="5.75058">
        <ele>1106.8</ele>
        <time>2026-05-13T12:01:41Z</time>
      </trkpt>
      <trkpt lat="45.90997" lon="5.75059">
        <ele>1107</ele>
        <time>2026-05-13T12:01:42Z</time>
      </trkpt>
      <trkpt lat="45.90996" lon="5.75059">
        <ele>1107.4</ele>
        <time>2026-05-13T12:01:43Z</time>
      </trkpt>
      <trkpt lat="45.90995" lon="5.75059">
        <ele>1107.4</ele>
        <time>2026-05-13T12:01:44Z</time>
      </trkpt>
      <trkpt lat="45.90994" lon="5.75059">
        <ele>1107.6</ele>
        <time>2026-05-13T12:01:45Z</time>
      </trkpt>
      <trkpt lat="45.90993" lon="5.7506">
        <ele>1107.6</ele>
        <time>2026-05-13T12:01:46Z</time>
      </trkpt>
      <trkpt lat="45.90992" lon="5.75062">
        <ele>1108</ele>
        <time>2026-05-13T12:01:47Z</time>
      </trkpt>
      <trkpt lat="45.9099" lon="5.75064">
        <ele>1108</ele>
        <time>2026-05-13T12:01:48Z</time>
      </trkpt>
      <trkpt lat="45.9099" lon="5.75064">
        <ele>1108.2</ele>
        <time>2026-05-13T12:01:49Z</time>
      </trkpt>
      <trkpt lat="45.90989" lon="5.75065">
        <ele>1108.4</ele>
        <time>2026-05-13T12:01:50Z</time>
      </trkpt>
      <trkpt lat="45.90989" lon="5.75065">
        <ele>1108.4</ele>
        <time>2026-05-13T12:01:51Z</time>
      </trkpt>
      <trkpt lat="45.90988" lon="5.75064">
        <ele>1108.8</ele>
        <time>2026-05-13T12:01:52Z</time>
      </trkpt>
      <trkpt lat="45.90987" lon="5.75063">
        <ele>1108.8</ele>
        <time>2026-05-13T12:01:53Z</time>
      </trkpt>
      <trkpt lat="45.90985" lon="5.75063">
        <ele>1108.8</ele>
        <time>2026-05-13T12:01:54Z</time>
      </trkpt>
      <trkpt lat="45.90983" lon="5.75063">
        <ele>1109</ele>
        <time>2026-05-13T12:01:55Z</time>
      </trkpt>
      <trkpt lat="45.90982" lon="5.75064">
        <ele>1109.4</ele>
        <time>2026-05-13T12:01:56Z</time>
      </trkpt>
      <trkpt lat="45.90981" lon="5.75065">
        <ele>1109.4</ele>
        <time>2026-05-13T12:01:57Z</time>
      </trkpt>
      <trkpt lat="45.90979" lon="5.75065">
        <ele>1109.4</ele>
        <time>2026-05-13T12:01:58Z</time>
      </trkpt>
      <trkpt lat="45.90978" lon="5.75066">
        <ele>1109.4</ele>
        <time>2026-05-13T12:01:59Z</time>
      </trkpt>
      <trkpt lat="45.90977" lon="5.75066">
        <ele>1109.8</ele>
        <time>2026-05-13T12:02:00Z</time>
      </trkpt>
      <trkpt lat="45.90976" lon="5.75066">
        <ele>1109.8</ele>
        <time>2026-05-13T12:02:01Z</time>
      </trkpt>
      <trkpt lat="45.90975" lon="5.75066">
        <ele>1110</ele>
        <time>2026-05-13T12:02:02Z</time>
      </trkpt>
      <trkpt lat="45.90974" lon="5.75067">
        <ele>1110</ele>
        <time>2026-05-13T12:02:03Z</time>
      </trkpt>
      <trkpt lat="45.90973" lon="5.75067">
        <ele>1110.2</ele>
        <time>2026-05-13T12:02:04Z</time>
      </trkpt>
      <trkpt lat="45.9097" lon="5.75066">
        <ele>1110.6</ele>
        <time>2026-05-13T12:02:05Z</time>
      </trkpt>
      <trkpt lat="45.90969" lon="5.75065">
        <ele>1110.8</ele>
        <time>2026-05-13T12:02:06Z</time>
      </trkpt>
      <trkpt lat="45.90968" lon="5.75063">
        <ele>1110.8</ele>
        <time>2026-05-13T12:02:07Z</time>
      </trkpt>
      <trkpt lat="45.90967" lon="5.75062">
        <ele>1111</ele>
        <time>2026-05-13T12:02:08Z</time>
      </trkpt>
      <trkpt lat="45.90966" lon="5.75061">
        <ele>1111</ele>
        <time>2026-05-13T12:02:09Z</time>
      </trkpt>
      <trkpt lat="45.90966" lon="5.75063">
        <ele>1111.2</ele>
        <time>2026-05-13T12:02:10Z</time>
      </trkpt>
      <trkpt lat="45.90966" lon="5.75064">
        <ele>1111.2</ele>
        <time>2026-05-13T12:02:11Z</time>
      </trkpt>
      <trkpt lat="45.90965" lon="5.75064">
        <ele>1111.6</ele>
        <time>2026-05-13T12:02:12Z</time>
      </trkpt>
      <trkpt lat="45.90963" lon="5.75065">
        <ele>1111.6</ele>
        <time>2026-05-13T12:02:13Z</time>
      </trkpt>
      <trkpt lat="45.90961" lon="5.75065">
        <ele>1111.8</ele>
        <time>2026-05-13T12:02:14Z</time>
      </trkpt>
      <trkpt lat="45.9096" lon="5.75065">
        <ele>1111.8</ele>
        <time>2026-05-13T12:02:15Z</time>
      </trkpt>
      <trkpt lat="45.90958" lon="5.75065">
        <ele>1112</ele>
        <time>2026-05-13T12:02:16Z</time>
      </trkpt>
      <trkpt lat="45.90957" lon="5.75065">
        <ele>1112.4</ele>
        <time>2026-05-13T12:02:17Z</time>
      </trkpt>
      <trkpt lat="45.90956" lon="5.75065">
        <ele>1112.6</ele>
        <time>2026-05-13T12:02:18Z</time>
      </trkpt>
      <trkpt lat="45.90955" lon="5.75066">
        <ele>1112.8</ele>
        <time>2026-05-13T12:02:19Z</time>
      </trkpt>
      <trkpt lat="45.90953" lon="5.75067">
        <ele>1112.8</ele>
        <time>2026-05-13T12:02:20Z</time>
      </trkpt>
      <trkpt lat="45.90952" lon="5.75067">
        <ele>1113</ele>
        <time>2026-05-13T12:02:21Z</time>
      </trkpt>
      <trkpt lat="45.90951" lon="5.75068">
        <ele>1113</ele>
        <time>2026-05-13T12:02:22Z</time>
      </trkpt>
      <trkpt lat="45.90951" lon="5.75068">
        <ele>1113</ele>
        <time>2026-05-13T12:02:23Z</time>
      </trkpt>
      <trkpt lat="45.9095" lon="5.75069">
        <ele>1113</ele>
        <time>2026-05-13T12:02:24Z</time>
      </trkpt>
      <trkpt lat="45.90949" lon="5.7507">
        <ele>1113.4</ele>
        <time>2026-05-13T12:02:25Z</time>
      </trkpt>
      <trkpt lat="45.90948" lon="5.7507">
        <ele>1113.4</ele>
        <time>2026-05-13T12:02:26Z</time>
      </trkpt>
      <trkpt lat="45.90947" lon="5.75071">
        <ele>1113.6</ele>
        <time>2026-05-13T12:02:27Z</time>
      </trkpt>
      <trkpt lat="45.90945" lon="5.75072">
        <ele>1113.6</ele>
        <time>2026-05-13T12:02:28Z</time>
      </trkpt>
      <trkpt lat="45.90944" lon="5.75072">
        <ele>1114</ele>
        <time>2026-05-13T12:02:29Z</time>
      </trkpt>
      <trkpt lat="45.90943" lon="5.75072">
        <ele>1114</ele>
        <time>2026-05-13T12:02:30Z</time>
      </trkpt>
      <trkpt lat="45.90942" lon="5.75072">
        <ele>1114.4</ele>
        <time>2026-05-13T12:02:31Z</time>
      </trkpt>
      <trkpt lat="45.9094" lon="5.75072">
        <ele>1114.2</ele>
        <time>2026-05-13T12:02:32Z</time>
      </trkpt>
      <trkpt lat="45.90938" lon="5.75072">
        <ele>1113.2</ele>
        <time>2026-05-13T12:02:33Z</time>
      </trkpt>
      <trkpt lat="45.90938" lon="5.75072">
        <ele>1114</ele>
        <time>2026-05-13T12:02:34Z</time>
      </trkpt>
      <trkpt lat="45.90937" lon="5.75072">
        <ele>1114.6</ele>
        <time>2026-05-13T12:02:35Z</time>
      </trkpt>
      <trkpt lat="45.90937" lon="5.75071">
        <ele>1115</ele>
        <time>2026-05-13T12:02:36Z</time>
      </trkpt>
      <trkpt lat="45.90935" lon="5.7507">
        <ele>1115.2</ele>
        <time>2026-05-13T12:02:37Z</time>
      </trkpt>
      <trkpt lat="45.90933" lon="5.75069">
        <ele>1115.4</ele>
        <time>2026-05-13T12:02:38Z</time>
      </trkpt>
      <trkpt lat="45.90932" lon="5.75068">
        <ele>1115.8</ele>
        <time>2026-05-13T12:02:39Z</time>
      </trkpt>
      <trkpt lat="45.9093" lon="5.75068">
        <ele>1116.2</ele>
        <time>2026-05-13T12:02:40Z</time>
      </trkpt>
      <trkpt lat="45.90929" lon="5.75067">
        <ele>1116.4</ele>
        <time>2026-05-13T12:02:41Z</time>
      </trkpt>
      <trkpt lat="45.90928" lon="5.75066">
        <ele>1116.4</ele>
        <time>2026-05-13T12:02:42Z</time>
      </trkpt>
      <trkpt lat="45.90927" lon="5.75065">
        <ele>1116.6</ele>
        <time>2026-05-13T12:02:43Z</time>
      </trkpt>
      <trkpt lat="45.90927" lon="5.75065">
        <ele>1116.6</ele>
        <time>2026-05-13T12:02:44Z</time>
      </trkpt>
      <trkpt lat="45.90926" lon="5.75064">
        <ele>1116.8</ele>
        <time>2026-05-13T12:02:45Z</time>
      </trkpt>
      <trkpt lat="45.90926" lon="5.75062">
        <ele>1116.8</ele>
        <time>2026-05-13T12:02:46Z</time>
      </trkpt>
      <trkpt lat="45.90925" lon="5.75061">
        <ele>1116.8</ele>
        <time>2026-05-13T12:02:47Z</time>
      </trkpt>
      <trkpt lat="45.90924" lon="5.7506">
        <ele>1117.2</ele>
        <time>2026-05-13T12:02:48Z</time>
      </trkpt>
      <trkpt lat="45.90923" lon="5.75059">
        <ele>1117.2</ele>
        <time>2026-05-13T12:02:49Z</time>
      </trkpt>
      <trkpt lat="45.90921" lon="5.75057">
        <ele>1117.6</ele>
        <time>2026-05-13T12:02:50Z</time>
      </trkpt>
      <trkpt lat="45.90921" lon="5.75055">
        <ele>1117.6</ele>
        <time>2026-05-13T12:02:51Z</time>
      </trkpt>
      <trkpt lat="45.90921" lon="5.75053">
        <ele>1117.6</ele>
        <time>2026-05-13T12:02:52Z</time>
      </trkpt>
      <trkpt lat="45.9092" lon="5.75051">
        <ele>1117.8</ele>
        <time>2026-05-13T12:02:53Z</time>
      </trkpt>
      <trkpt lat="45.9092" lon="5.75049">
        <ele>1118</ele>
        <time>2026-05-13T12:02:54Z</time>
      </trkpt>
      <trkpt lat="45.90918" lon="5.75048">
        <ele>1118.2</ele>
        <time>2026-05-13T12:02:55Z</time>
      </trkpt>
      <trkpt lat="45.90917" lon="5.75046">
        <ele>1118.4</ele>
        <time>2026-05-13T12:02:56Z</time>
      </trkpt>
      <trkpt lat="45.90916" lon="5.75045">
        <ele>1118.4</ele>
        <time>2026-05-13T12:02:57Z</time>
      </trkpt>
      <trkpt lat="45.90915" lon="5.75044">
        <ele>1118.4</ele>
        <time>2026-05-13T12:02:58Z</time>
      </trkpt>
      <trkpt lat="45.90914" lon="5.75043">
        <ele>1118.6</ele>
        <time>2026-05-13T12:02:59Z</time>
      </trkpt>
      <trkpt lat="45.90913" lon="5.75042">
        <ele>1118.6</ele>
        <time>2026-05-13T12:03:00Z</time>
      </trkpt>
      <trkpt lat="45.90911" lon="5.75041">
        <ele>1119</ele>
        <time>2026-05-13T12:03:01Z</time>
      </trkpt>
      <trkpt lat="45.9091" lon="5.75039">
        <ele>1119.2</ele>
        <time>2026-05-13T12:03:02Z</time>
      </trkpt>
      <trkpt lat="45.90908" lon="5.75037">
        <ele>1119.2</ele>
        <time>2026-05-13T12:03:03Z</time>
      </trkpt>
      <trkpt lat="45.90907" lon="5.75036">
        <ele>1119.2</ele>
        <time>2026-05-13T12:03:04Z</time>
      </trkpt>
      <trkpt lat="45.90906" lon="5.75034">
        <ele>1119.6</ele>
        <time>2026-05-13T12:03:05Z</time>
      </trkpt>
      <trkpt lat="45.90905" lon="5.75032">
        <ele>1119.6</ele>
        <time>2026-05-13T12:03:06Z</time>
      </trkpt>
      <trkpt lat="45.90903" lon="5.75031">
        <ele>1120</ele>
        <time>2026-05-13T12:03:07Z</time>
      </trkpt>
      <trkpt lat="45.90902" lon="5.7503">
        <ele>1120</ele>
        <time>2026-05-13T12:03:08Z</time>
      </trkpt>
      <trkpt lat="45.90902" lon="5.75029">
        <ele>1120.4</ele>
        <time>2026-05-13T12:03:09Z</time>
      </trkpt>
      <trkpt lat="45.90901" lon="5.75027">
        <ele>1120.4</ele>
        <time>2026-05-13T12:03:10Z</time>
      </trkpt>
      <trkpt lat="45.909" lon="5.75025">
        <ele>1120.4</ele>
        <time>2026-05-13T12:03:11Z</time>
      </trkpt>
      <trkpt lat="45.90899" lon="5.75023">
        <ele>1120.4</ele>
        <time>2026-05-13T12:03:12Z</time>
      </trkpt>
      <trkpt lat="45.90897" lon="5.75022">
        <ele>1120.6</ele>
        <time>2026-05-13T12:03:13Z</time>
      </trkpt>
      <trkpt lat="45.90895" lon="5.75021">
        <ele>1120.6</ele>
        <time>2026-05-13T12:03:14Z</time>
      </trkpt>
      <trkpt lat="45.90894" lon="5.7502">
        <ele>1121</ele>
        <time>2026-05-13T12:03:15Z</time>
      </trkpt>
      <trkpt lat="45.90893" lon="5.75019">
        <ele>1121</ele>
        <time>2026-05-13T12:03:16Z</time>
      </trkpt>
      <trkpt lat="45.90892" lon="5.75017">
        <ele>1121.4</ele>
        <time>2026-05-13T12:03:17Z</time>
      </trkpt>
      <trkpt lat="45.90892" lon="5.75016">
        <ele>1121.6</ele>
        <time>2026-05-13T12:03:18Z</time>
      </trkpt>
      <trkpt lat="45.90891" lon="5.75015">
        <ele>1121.6</ele>
        <time>2026-05-13T12:03:19Z</time>
      </trkpt>
      <trkpt lat="45.9089" lon="5.75014">
        <ele>1122</ele>
        <time>2026-05-13T12:03:20Z</time>
      </trkpt>
      <trkpt lat="45.90889" lon="5.75012">
        <ele>1122</ele>
        <time>2026-05-13T12:03:21Z</time>
      </trkpt>
      <trkpt lat="45.90888" lon="5.75011">
        <ele>1122.2</ele>
        <time>2026-05-13T12:03:22Z</time>
      </trkpt>
      <trkpt lat="45.90888" lon="5.7501">
        <ele>1122.2</ele>
        <time>2026-05-13T12:03:23Z</time>
      </trkpt>
      <trkpt lat="45.90888" lon="5.75007">
        <ele>1122.2</ele>
        <time>2026-05-13T12:03:24Z</time>
      </trkpt>
      <trkpt lat="45.90888" lon="5.75005">
        <ele>1122.8</ele>
        <time>2026-05-13T12:03:25Z</time>
      </trkpt>
      <trkpt lat="45.90888" lon="5.75003">
        <ele>1122.8</ele>
        <time>2026-05-13T12:03:26Z</time>
      </trkpt>
      <trkpt lat="45.90888" lon="5.75002">
        <ele>1122.8</ele>
        <time>2026-05-13T12:03:27Z</time>
      </trkpt>
      <trkpt lat="45.90886" lon="5.75">
        <ele>1123.2</ele>
        <time>2026-05-13T12:03:28Z</time>
      </trkpt>
      <trkpt lat="45.90886" lon="5.74999">
        <ele>1123.2</ele>
        <time>2026-05-13T12:03:29Z</time>
      </trkpt>
      <trkpt lat="45.90885" lon="5.74998">
        <ele>1123.4</ele>
        <time>2026-05-13T12:03:30Z</time>
      </trkpt>
      <trkpt lat="45.90884" lon="5.74997">
        <ele>1123.4</ele>
        <time>2026-05-13T12:03:31Z</time>
      </trkpt>
      <trkpt lat="45.90883" lon="5.74995">
        <ele>1123.8</ele>
        <time>2026-05-13T12:03:32Z</time>
      </trkpt>
      <trkpt lat="45.90882" lon="5.74994">
        <ele>1123.8</ele>
        <time>2026-05-13T12:03:33Z</time>
      </trkpt>
      <trkpt lat="45.90882" lon="5.74993">
        <ele>1123.8</ele>
        <time>2026-05-13T12:03:34Z</time>
      </trkpt>
      <trkpt lat="45.90881" lon="5.74991">
        <ele>1124.2</ele>
        <time>2026-05-13T12:03:35Z</time>
      </trkpt>
      <trkpt lat="45.9088" lon="5.7499">
        <ele>1124.4</ele>
        <time>2026-05-13T12:03:36Z</time>
      </trkpt>
      <trkpt lat="45.9088" lon="5.74988">
        <ele>1124.6</ele>
        <time>2026-05-13T12:03:37Z</time>
      </trkpt>
      <trkpt lat="45.90879" lon="5.74986">
        <ele>1125</ele>
        <time>2026-05-13T12:03:38Z</time>
      </trkpt>
      <trkpt lat="45.90878" lon="5.74985">
        <ele>1125</ele>
        <time>2026-05-13T12:03:39Z</time>
      </trkpt>
      <trkpt lat="45.90878" lon="5.74983">
        <ele>1125.2</ele>
        <time>2026-05-13T12:03:40Z</time>
      </trkpt>
      <trkpt lat="45.90877" lon="5.74982">
        <ele>1125.2</ele>
        <time>2026-05-13T12:03:41Z</time>
      </trkpt>
      <trkpt lat="45.90876" lon="5.7498">
        <ele>1125.6</ele>
        <time>2026-05-13T12:03:42Z</time>
      </trkpt>
      <trkpt lat="45.90875" lon="5.74979">
        <ele>1125.6</ele>
        <time>2026-05-13T12:03:43Z</time>
      </trkpt>
      <trkpt lat="45.90874" lon="5.74977">
        <ele>1125.8</ele>
        <time>2026-05-13T12:03:44Z</time>
      </trkpt>
      <trkpt lat="45.90874" lon="5.74975">
        <ele>1125.8</ele>
        <time>2026-05-13T12:03:45Z</time>
      </trkpt>
      <trkpt lat="45.90873" lon="5.74974">
        <ele>1125.8</ele>
        <time>2026-05-13T12:03:46Z</time>
      </trkpt>
      <trkpt lat="45.90872" lon="5.74972">
        <ele>1125.8</ele>
        <time>2026-05-13T12:03:47Z</time>
      </trkpt>
      <trkpt lat="45.9087" lon="5.7497">
        <ele>1126.2</ele>
        <time>2026-05-13T12:03:48Z</time>
      </trkpt>
      <trkpt lat="45.90869" lon="5.74969">
        <ele>1126.2</ele>
        <time>2026-05-13T12:03:49Z</time>
      </trkpt>
      <trkpt lat="45.90868" lon="5.74967">
        <ele>1126.4</ele>
        <time>2026-05-13T12:03:50Z</time>
      </trkpt>
      <trkpt lat="45.90867" lon="5.74965">
        <ele>1126.4</ele>
        <time>2026-05-13T12:03:51Z</time>
      </trkpt>
      <trkpt lat="45.90867" lon="5.74964">
        <ele>1126.8</ele>
        <time>2026-05-13T12:03:52Z</time>
      </trkpt>
      <trkpt lat="45.90866" lon="5.74963">
        <ele>1127</ele>
        <time>2026-05-13T12:03:53Z</time>
      </trkpt>
      <trkpt lat="45.90865" lon="5.74962">
        <ele>1127.4</ele>
        <time>2026-05-13T12:03:54Z</time>
      </trkpt>
      <trkpt lat="45.90864" lon="5.7496">
        <ele>1127.6</ele>
        <time>2026-05-13T12:03:55Z</time>
      </trkpt>
      <trkpt lat="45.90864" lon="5.74959">
        <ele>1127.6</ele>
        <time>2026-05-13T12:03:56Z</time>
      </trkpt>
      <trkpt lat="45.90863" lon="5.74957">
        <ele>1128</ele>
        <time>2026-05-13T12:03:57Z</time>
      </trkpt>
      <trkpt lat="45.90863" lon="5.74955">
        <ele>1128</ele>
        <time>2026-05-13T12:03:58Z</time>
      </trkpt>
      <trkpt lat="45.90863" lon="5.74954">
        <ele>1128</ele>
        <time>2026-05-13T12:03:59Z</time>
      </trkpt>
      <trkpt lat="45.90862" lon="5.74952">
        <ele>1128.4</ele>
        <time>2026-05-13T12:04:00Z</time>
      </trkpt>
      <trkpt lat="45.90861" lon="5.74951">
        <ele>1128.4</ele>
        <time>2026-05-13T12:04:01Z</time>
      </trkpt>
      <trkpt lat="45.9086" lon="5.7495">
        <ele>1128.6</ele>
        <time>2026-05-13T12:04:02Z</time>
      </trkpt>
      <trkpt lat="45.90859" lon="5.74949">
        <ele>1128.6</ele>
        <time>2026-05-13T12:04:03Z</time>
      </trkpt>
      <trkpt lat="45.90858" lon="5.74948">
        <ele>1128.6</ele>
        <time>2026-05-13T12:04:04Z</time>
      </trkpt>
      <trkpt lat="45.90857" lon="5.74947">
        <ele>1128.6</ele>
        <time>2026-05-13T12:04:05Z</time>
      </trkpt>
      <trkpt lat="45.90856" lon="5.74946">
        <ele>1129</ele>
        <time>2026-05-13T12:04:06Z</time>
      </trkpt>
      <trkpt lat="45.90855" lon="5.74945">
        <ele>1129</ele>
        <time>2026-05-13T12:04:07Z</time>
      </trkpt>
      <trkpt lat="45.90855" lon="5.74943">
        <ele>1129.2</ele>
        <time>2026-05-13T12:04:08Z</time>
      </trkpt>
      <trkpt lat="45.90854" lon="5.74942">
        <ele>1129.2</ele>
        <time>2026-05-13T12:04:09Z</time>
      </trkpt>
      <trkpt lat="45.90854" lon="5.74941">
        <ele>1129.6</ele>
        <time>2026-05-13T12:04:10Z</time>
      </trkpt>
      <trkpt lat="45.90853" lon="5.7494">
        <ele>1129.6</ele>
        <time>2026-05-13T12:04:11Z</time>
      </trkpt>
      <trkpt lat="45.90852" lon="5.74939">
        <ele>1130</ele>
        <time>2026-05-13T12:04:12Z</time>
      </trkpt>
      <trkpt lat="45.90851" lon="5.74938">
        <ele>1130</ele>
        <time>2026-05-13T12:04:13Z</time>
      </trkpt>
      <trkpt lat="45.9085" lon="5.74938">
        <ele>1130.2</ele>
        <time>2026-05-13T12:04:14Z</time>
      </trkpt>
      <trkpt lat="45.90849" lon="5.74937">
        <ele>1130.2</ele>
        <time>2026-05-13T12:04:15Z</time>
      </trkpt>
      <trkpt lat="45.90849" lon="5.74936">
        <ele>1130.4</ele>
        <time>2026-05-13T12:04:16Z</time>
      </trkpt>
      <trkpt lat="45.90848" lon="5.74935">
        <ele>1130.4</ele>
        <time>2026-05-13T12:04:17Z</time>
      </trkpt>
      <trkpt lat="45.90847" lon="5.74934">
        <ele>1130.8</ele>
        <time>2026-05-13T12:04:18Z</time>
      </trkpt>
      <trkpt lat="45.90846" lon="5.74933">
        <ele>1130.8</ele>
        <time>2026-05-13T12:04:19Z</time>
      </trkpt>
      <trkpt lat="45.90845" lon="5.74932">
        <ele>1131</ele>
        <time>2026-05-13T12:04:20Z</time>
      </trkpt>
      <trkpt lat="45.90845" lon="5.74932">
        <ele>1131</ele>
        <time>2026-05-13T12:04:21Z</time>
      </trkpt>
      <trkpt lat="45.90844" lon="5.74931">
        <ele>1131.4</ele>
        <time>2026-05-13T12:04:22Z</time>
      </trkpt>
      <trkpt lat="45.90843" lon="5.7493">
        <ele>1131.4</ele>
        <time>2026-05-13T12:04:23Z</time>
      </trkpt>
      <trkpt lat="45.90842" lon="5.7493">
        <ele>1131.6</ele>
        <time>2026-05-13T12:04:24Z</time>
      </trkpt>
      <trkpt lat="45.90841" lon="5.74929">
        <ele>1131.6</ele>
        <time>2026-05-13T12:04:25Z</time>
      </trkpt>
      <trkpt lat="45.9084" lon="5.74928">
        <ele>1131.8</ele>
        <time>2026-05-13T12:04:26Z</time>
      </trkpt>
      <trkpt lat="45.9084" lon="5.74928">
        <ele>1131.8</ele>
        <time>2026-05-13T12:04:27Z</time>
      </trkpt>
      <trkpt lat="45.90839" lon="5.74927">
        <ele>1132.2</ele>
        <time>2026-05-13T12:04:28Z</time>
      </trkpt>
      <trkpt lat="45.90838" lon="5.74925">
        <ele>1132.2</ele>
        <time>2026-05-13T12:04:29Z</time>
      </trkpt>
      <trkpt lat="45.90837" lon="5.74924">
        <ele>1132.4</ele>
        <time>2026-05-13T12:04:30Z</time>
      </trkpt>
      <trkpt lat="45.90836" lon="5.74924">
        <ele>1132.4</ele>
        <time>2026-05-13T12:04:31Z</time>
      </trkpt>
      <trkpt lat="45.90834" lon="5.74923">
        <ele>1132.8</ele>
        <time>2026-05-13T12:04:32Z</time>
      </trkpt>
      <trkpt lat="45.90832" lon="5.74923">
        <ele>1132.8</ele>
        <time>2026-05-13T12:04:33Z</time>
      </trkpt>
      <trkpt lat="45.90831" lon="5.74922">
        <ele>1133</ele>
        <time>2026-05-13T12:04:34Z</time>
      </trkpt>
      <trkpt lat="45.9083" lon="5.74921">
        <ele>1133</ele>
        <time>2026-05-13T12:04:35Z</time>
      </trkpt>
      <trkpt lat="45.9083" lon="5.7492">
        <ele>1133</ele>
        <time>2026-05-13T12:04:36Z</time>
      </trkpt>
      <trkpt lat="45.90829" lon="5.74919">
        <ele>1133.2</ele>
        <time>2026-05-13T12:04:37Z</time>
      </trkpt>
      <trkpt lat="45.90828" lon="5.74918">
        <ele>1133.2</ele>
        <time>2026-05-13T12:04:38Z</time>
      </trkpt>
      <trkpt lat="45.90827" lon="5.74917">
        <ele>1133.2</ele>
        <time>2026-05-13T12:04:39Z</time>
      </trkpt>
      <trkpt lat="45.90827" lon="5.74916">
        <ele>1133.6</ele>
        <time>2026-05-13T12:04:40Z</time>
      </trkpt>
      <trkpt lat="45.90826" lon="5.74915">
        <ele>1133.6</ele>
        <time>2026-05-13T12:04:41Z</time>
      </trkpt>
      <trkpt lat="45.90826" lon="5.74915">
        <ele>1134</ele>
        <time>2026-05-13T12:04:42Z</time>
      </trkpt>
      <trkpt lat="45.90825" lon="5.74914">
        <ele>1134</ele>
        <time>2026-05-13T12:04:43Z</time>
      </trkpt>
      <trkpt lat="45.90823" lon="5.74913">
        <ele>1134.2</ele>
        <time>2026-05-13T12:04:44Z</time>
      </trkpt>
      <trkpt lat="45.90822" lon="5.74912">
        <ele>1134.2</ele>
        <time>2026-05-13T12:04:45Z</time>
      </trkpt>
      <trkpt lat="45.90821" lon="5.74911">
        <ele>1134.6</ele>
        <time>2026-05-13T12:04:46Z</time>
      </trkpt>
      <trkpt lat="45.90821" lon="5.7491">
        <ele>1134.8</ele>
        <time>2026-05-13T12:04:47Z</time>
      </trkpt>
      <trkpt lat="45.9082" lon="5.74909">
        <ele>1135</ele>
        <time>2026-05-13T12:04:48Z</time>
      </trkpt>
      <trkpt lat="45.90819" lon="5.74908">
        <ele>1135</ele>
        <time>2026-05-13T12:04:49Z</time>
      </trkpt>
      <trkpt lat="45.90817" lon="5.74908">
        <ele>1135.4</ele>
        <time>2026-05-13T12:04:50Z</time>
      </trkpt>
      <trkpt lat="45.90815" lon="5.74907">
        <ele>1135.4</ele>
        <time>2026-05-13T12:04:51Z</time>
      </trkpt>
      <trkpt lat="45.90814" lon="5.74906">
        <ele>1135.6</ele>
        <time>2026-05-13T12:04:52Z</time>
      </trkpt>
      <trkpt lat="45.90813" lon="5.74904">
        <ele>1135.6</ele>
        <time>2026-05-13T12:04:53Z</time>
      </trkpt>
      <trkpt lat="45.90812" lon="5.74903">
        <ele>1136</ele>
        <time>2026-05-13T12:04:54Z</time>
      </trkpt>
      <trkpt lat="45.90811" lon="5.74902">
        <ele>1136</ele>
        <time>2026-05-13T12:04:55Z</time>
      </trkpt>
      <trkpt lat="45.9081" lon="5.74902">
        <ele>1136.2</ele>
        <time>2026-05-13T12:04:56Z</time>
      </trkpt>
      <trkpt lat="45.90809" lon="5.74902">
        <ele>1136.2</ele>
        <time>2026-05-13T12:04:57Z</time>
      </trkpt>
      <trkpt lat="45.90809" lon="5.74902">
        <ele>1136.4</ele>
        <time>2026-05-13T12:04:58Z</time>
      </trkpt>
      <trkpt lat="45.90807" lon="5.74902">
        <ele>1136.4</ele>
        <time>2026-05-13T12:04:59Z</time>
      </trkpt>
      <trkpt lat="45.90805" lon="5.74901">
        <ele>1136.4</ele>
        <time>2026-05-13T12:05:00Z</time>
      </trkpt>
      <trkpt lat="45.90805" lon="5.749">
        <ele>1136.8</ele>
        <time>2026-05-13T12:05:01Z</time>
      </trkpt>
      <trkpt lat="45.90804" lon="5.749">
        <ele>1136.8</ele>
        <time>2026-05-13T12:05:02Z</time>
      </trkpt>
      <trkpt lat="45.90804" lon="5.74898">
        <ele>1137</ele>
        <time>2026-05-13T12:05:03Z</time>
      </trkpt>
      <trkpt lat="45.90803" lon="5.74897">
        <ele>1137</ele>
        <time>2026-05-13T12:05:04Z</time>
      </trkpt>
      <trkpt lat="45.90802" lon="5.74897">
        <ele>1137</ele>
        <time>2026-05-13T12:05:05Z</time>
      </trkpt>
      <trkpt lat="45.90801" lon="5.74896">
        <ele>1137.4</ele>
        <time>2026-05-13T12:05:06Z</time>
      </trkpt>
      <trkpt lat="45.908" lon="5.74896">
        <ele>1137.4</ele>
        <time>2026-05-13T12:05:07Z</time>
      </trkpt>
      <trkpt lat="45.90799" lon="5.74895">
        <ele>1137.4</ele>
        <time>2026-05-13T12:05:08Z</time>
      </trkpt>
      <trkpt lat="45.90798" lon="5.74895">
        <ele>1137.6</ele>
        <time>2026-05-13T12:05:09Z</time>
      </trkpt>
      <trkpt lat="45.90797" lon="5.74895">
        <ele>1137.8</ele>
        <time>2026-05-13T12:05:10Z</time>
      </trkpt>
      <trkpt lat="45.90795" lon="5.74895">
        <ele>1138</ele>
        <time>2026-05-13T12:05:11Z</time>
      </trkpt>
      <trkpt lat="45.90794" lon="5.74895">
        <ele>1138.2</ele>
        <time>2026-05-13T12:05:12Z</time>
      </trkpt>
      <trkpt lat="45.90793" lon="5.74894">
        <ele>1138.2</ele>
        <time>2026-05-13T12:05:13Z</time>
      </trkpt>
      <trkpt lat="45.90792" lon="5.74893">
        <ele>1138.6</ele>
        <time>2026-05-13T12:05:14Z</time>
      </trkpt>
      <trkpt lat="45.90791" lon="5.74892">
        <ele>1138.6</ele>
        <time>2026-05-13T12:05:15Z</time>
      </trkpt>
      <trkpt lat="45.9079" lon="5.74891">
        <ele>1138.8</ele>
        <time>2026-05-13T12:05:16Z</time>
      </trkpt>
      <trkpt lat="45.90789" lon="5.7489">
        <ele>1139</ele>
        <time>2026-05-13T12:05:17Z</time>
      </trkpt>
      <trkpt lat="45.90788" lon="5.7489">
        <ele>1139</ele>
        <time>2026-05-13T12:05:18Z</time>
      </trkpt>
      <trkpt lat="45.90786" lon="5.74889">
        <ele>1139</ele>
        <time>2026-05-13T12:05:19Z</time>
      </trkpt>
      <trkpt lat="45.90785" lon="5.74888">
        <ele>1139.4</ele>
        <time>2026-05-13T12:05:20Z</time>
      </trkpt>
      <trkpt lat="45.90784" lon="5.74887">
        <ele>1139.4</ele>
        <time>2026-05-13T12:05:21Z</time>
      </trkpt>
      <trkpt lat="45.90783" lon="5.74886">
        <ele>1139.6</ele>
        <time>2026-05-13T12:05:22Z</time>
      </trkpt>
      <trkpt lat="45.90782" lon="5.74885">
        <ele>1139.6</ele>
        <time>2026-05-13T12:05:23Z</time>
      </trkpt>
      <trkpt lat="45.90781" lon="5.74884">
        <ele>1139.8</ele>
        <time>2026-05-13T12:05:24Z</time>
      </trkpt>
      <trkpt lat="45.90781" lon="5.74884">
        <ele>1139.8</ele>
        <time>2026-05-13T12:05:25Z</time>
      </trkpt>
      <trkpt lat="45.9078" lon="5.74884">
        <ele>1140.2</ele>
        <time>2026-05-13T12:05:26Z</time>
      </trkpt>
      <trkpt lat="45.9078" lon="5.74883">
        <ele>1140.2</ele>
        <time>2026-05-13T12:05:27Z</time>
      </trkpt>
      <trkpt lat="45.9078" lon="5.74882">
        <ele>1140.4</ele>
        <time>2026-05-13T12:05:28Z</time>
      </trkpt>
      <trkpt lat="45.90779" lon="5.74881">
        <ele>1140.4</ele>
        <time>2026-05-13T12:05:29Z</time>
      </trkpt>
      <trkpt lat="45.90778" lon="5.7488">
        <ele>1140.6</ele>
        <time>2026-05-13T12:05:30Z</time>
      </trkpt>
      <trkpt lat="45.90777" lon="5.74879">
        <ele>1140.6</ele>
        <time>2026-05-13T12:05:31Z</time>
      </trkpt>
      <trkpt lat="45.90777" lon="5.74878">
        <ele>1140.6</ele>
        <time>2026-05-13T12:05:32Z</time>
      </trkpt>
      <trkpt lat="45.90776" lon="5.74877">
        <ele>1141</ele>
        <time>2026-05-13T12:05:33Z</time>
      </trkpt>
      <trkpt lat="45.90775" lon="5.74876">
        <ele>1141</ele>
        <time>2026-05-13T12:05:34Z</time>
      </trkpt>
      <trkpt lat="45.90774" lon="5.74875">
        <ele>1141.2</ele>
        <time>2026-05-13T12:05:35Z</time>
      </trkpt>
      <trkpt lat="45.90772" lon="5.74874">
        <ele>1141.6</ele>
        <time>2026-05-13T12:05:36Z</time>
      </trkpt>
      <trkpt lat="45.90771" lon="5.74874">
        <ele>1141.8</ele>
        <time>2026-05-13T12:05:37Z</time>
      </trkpt>
      <trkpt lat="45.9077" lon="5.74873">
        <ele>1142</ele>
        <time>2026-05-13T12:05:38Z</time>
      </trkpt>
      <trkpt lat="45.90768" lon="5.74873">
        <ele>1142.4</ele>
        <time>2026-05-13T12:05:39Z</time>
      </trkpt>
      <trkpt lat="45.90765" lon="5.74872">
        <ele>1142.6</ele>
        <time>2026-05-13T12:05:40Z</time>
      </trkpt>
      <trkpt lat="45.90764" lon="5.74871">
        <ele>1142.6</ele>
        <time>2026-05-13T12:05:41Z</time>
      </trkpt>
      <trkpt lat="45.90763" lon="5.74871">
        <ele>1142.8</ele>
        <time>2026-05-13T12:05:42Z</time>
      </trkpt>
      <trkpt lat="45.90762" lon="5.7487">
        <ele>1142.8</ele>
        <time>2026-05-13T12:05:43Z</time>
      </trkpt>
      <trkpt lat="45.9076" lon="5.7487">
        <ele>1142.8</ele>
        <time>2026-05-13T12:05:44Z</time>
      </trkpt>
      <trkpt lat="45.90759" lon="5.74869">
        <ele>1143</ele>
        <time>2026-05-13T12:05:45Z</time>
      </trkpt>
      <trkpt lat="45.90758" lon="5.74869">
        <ele>1143</ele>
        <time>2026-05-13T12:05:46Z</time>
      </trkpt>
      <trkpt lat="45.90757" lon="5.74869">
        <ele>1143.4</ele>
        <time>2026-05-13T12:05:47Z</time>
      </trkpt>
      <trkpt lat="45.90756" lon="5.74868">
        <ele>1143.4</ele>
        <time>2026-05-13T12:05:48Z</time>
      </trkpt>
      <trkpt lat="45.90756" lon="5.74867">
        <ele>1141.8</ele>
        <time>2026-05-13T12:05:49Z</time>
      </trkpt>
      <trkpt lat="45.90756" lon="5.74867">
        <ele>1142.6</ele>
        <time>2026-05-13T12:05:50Z</time>
      </trkpt>
      <trkpt lat="45.90755" lon="5.74865">
        <ele>1143</ele>
        <time>2026-05-13T12:05:51Z</time>
      </trkpt>
      <trkpt lat="45.90755" lon="5.74864">
        <ele>1143.2</ele>
        <time>2026-05-13T12:05:52Z</time>
      </trkpt>
      <trkpt lat="45.90754" lon="5.74863">
        <ele>1143.6</ele>
        <time>2026-05-13T12:05:53Z</time>
      </trkpt>
      <trkpt lat="45.90753" lon="5.74861">
        <ele>1144</ele>
        <time>2026-05-13T12:05:54Z</time>
      </trkpt>
      <trkpt lat="45.90753" lon="5.74859">
        <ele>1144.2</ele>
        <time>2026-05-13T12:05:55Z</time>
      </trkpt>
      <trkpt lat="45.90753" lon="5.74858">
        <ele>1144.2</ele>
        <time>2026-05-13T12:05:56Z</time>
      </trkpt>
      <trkpt lat="45.90752" lon="5.74857">
        <ele>1144.6</ele>
        <time>2026-05-13T12:05:57Z</time>
      </trkpt>
      <trkpt lat="45.90751" lon="5.74856">
        <ele>1144.8</ele>
        <time>2026-05-13T12:05:58Z</time>
      </trkpt>
      <trkpt lat="45.9075" lon="5.74854">
        <ele>1144.8</ele>
        <time>2026-05-13T12:05:59Z</time>
      </trkpt>
      <trkpt lat="45.90749" lon="5.74852">
        <ele>1145.2</ele>
        <time>2026-05-13T12:06:00Z</time>
      </trkpt>
      <trkpt lat="45.90748" lon="5.7485">
        <ele>1145.2</ele>
        <time>2026-05-13T12:06:01Z</time>
      </trkpt>
      <trkpt lat="45.90747" lon="5.74848">
        <ele>1145.4</ele>
        <time>2026-05-13T12:06:02Z</time>
      </trkpt>
      <trkpt lat="45.90746" lon="5.74847">
        <ele>1145.8</ele>
        <time>2026-05-13T12:06:03Z</time>
      </trkpt>
      <trkpt lat="45.90746" lon="5.74846">
        <ele>1145.8</ele>
        <time>2026-05-13T12:06:04Z</time>
      </trkpt>
      <trkpt lat="45.90745" lon="5.74845">
        <ele>1145.8</ele>
        <time>2026-05-13T12:06:05Z</time>
      </trkpt>
      <trkpt lat="45.90743" lon="5.74843">
        <ele>1146</ele>
        <time>2026-05-13T12:06:06Z</time>
      </trkpt>
      <trkpt lat="45.90742" lon="5.74842">
        <ele>1146</ele>
        <time>2026-05-13T12:06:07Z</time>
      </trkpt>
      <trkpt lat="45.9074" lon="5.74841">
        <ele>1146.4</ele>
        <time>2026-05-13T12:06:08Z</time>
      </trkpt>
      <trkpt lat="45.90739" lon="5.7484">
        <ele>1146.8</ele>
        <time>2026-05-13T12:06:09Z</time>
      </trkpt>
      <trkpt lat="45.90738" lon="5.7484">
        <ele>1146.8</ele>
        <time>2026-05-13T12:06:10Z</time>
      </trkpt>
      <trkpt lat="45.90736" lon="5.74839">
        <ele>1147</ele>
        <time>2026-05-13T12:06:11Z</time>
      </trkpt>
      <trkpt lat="45.90735" lon="5.74838">
        <ele>1147</ele>
        <time>2026-05-13T12:06:12Z</time>
      </trkpt>
      <trkpt lat="45.90733" lon="5.74837">
        <ele>1147</ele>
        <time>2026-05-13T12:06:13Z</time>
      </trkpt>
      <trkpt lat="45.90732" lon="5.74837">
        <ele>1147.4</ele>
        <time>2026-05-13T12:06:14Z</time>
      </trkpt>
      <trkpt lat="45.9073" lon="5.74836">
        <ele>1147.4</ele>
        <time>2026-05-13T12:06:15Z</time>
      </trkpt>
      <trkpt lat="45.90728" lon="5.74836">
        <ele>1147.4</ele>
        <time>2026-05-13T12:06:16Z</time>
      </trkpt>
      <trkpt lat="45.90727" lon="5.74836">
        <ele>1147.6</ele>
        <time>2026-05-13T12:06:17Z</time>
      </trkpt>
      <trkpt lat="45.90725" lon="5.74835">
        <ele>1147.6</ele>
        <time>2026-05-13T12:06:18Z</time>
      </trkpt>
      <trkpt lat="45.90724" lon="5.74835">
        <ele>1148</ele>
        <time>2026-05-13T12:06:19Z</time>
      </trkpt>
      <trkpt lat="45.90723" lon="5.74834">
        <ele>1148</ele>
        <time>2026-05-13T12:06:20Z</time>
      </trkpt>
      <trkpt lat="45.90721" lon="5.74833">
        <ele>1148.2</ele>
        <time>2026-05-13T12:06:21Z</time>
      </trkpt>
      <trkpt lat="45.9072" lon="5.74832">
        <ele>1148.4</ele>
        <time>2026-05-13T12:06:22Z</time>
      </trkpt>
      <trkpt lat="45.90719" lon="5.74831">
        <ele>1148.4</ele>
        <time>2026-05-13T12:06:23Z</time>
      </trkpt>
      <trkpt lat="45.90718" lon="5.7483">
        <ele>1148.6</ele>
        <time>2026-05-13T12:06:24Z</time>
      </trkpt>
      <trkpt lat="45.90716" lon="5.7483">
        <ele>1148.6</ele>
        <time>2026-05-13T12:06:25Z</time>
      </trkpt>
      <trkpt lat="45.90714" lon="5.74829">
        <ele>1148.8</ele>
        <time>2026-05-13T12:06:26Z</time>
      </trkpt>
      <trkpt lat="45.90713" lon="5.74828">
        <ele>1149.2</ele>
        <time>2026-05-13T12:06:27Z</time>
      </trkpt>
      <trkpt lat="45.90712" lon="5.74826">
        <ele>1149.2</ele>
        <time>2026-05-13T12:06:28Z</time>
      </trkpt>
      <trkpt lat="45.90711" lon="5.74824">
        <ele>1149.2</ele>
        <time>2026-05-13T12:06:29Z</time>
      </trkpt>
      <trkpt lat="45.90711" lon="5.74823">
        <ele>1149.4</ele>
        <time>2026-05-13T12:06:30Z</time>
      </trkpt>
      <trkpt lat="45.9071" lon="5.74822">
        <ele>1149.4</ele>
        <time>2026-05-13T12:06:31Z</time>
      </trkpt>
      <trkpt lat="45.90709" lon="5.74821">
        <ele>1149.4</ele>
        <time>2026-05-13T12:06:32Z</time>
      </trkpt>
      <trkpt lat="45.90709" lon="5.74819">
        <ele>1149.8</ele>
        <time>2026-05-13T12:06:33Z</time>
      </trkpt>
      <trkpt lat="45.90708" lon="5.74818">
        <ele>1150</ele>
        <time>2026-05-13T12:06:34Z</time>
      </trkpt>
      <trkpt lat="45.90708" lon="5.74816">
        <ele>1150</ele>
        <time>2026-05-13T12:06:35Z</time>
      </trkpt>
      <trkpt lat="45.90708" lon="5.74815">
        <ele>1150.4</ele>
        <time>2026-05-13T12:06:36Z</time>
      </trkpt>
      <trkpt lat="45.90707" lon="5.74814">
        <ele>1150.4</ele>
        <time>2026-05-13T12:06:37Z</time>
      </trkpt>
      <trkpt lat="45.90705" lon="5.74813">
        <ele>1150.6</ele>
        <time>2026-05-13T12:06:38Z</time>
      </trkpt>
      <trkpt lat="45.90705" lon="5.74812">
        <ele>1150.6</ele>
        <time>2026-05-13T12:06:39Z</time>
      </trkpt>
      <trkpt lat="45.90704" lon="5.74811">
        <ele>1151</ele>
        <time>2026-05-13T12:06:40Z</time>
      </trkpt>
      <trkpt lat="45.90704" lon="5.7481">
        <ele>1151</ele>
        <time>2026-05-13T12:06:41Z</time>
      </trkpt>
      <trkpt lat="45.90703" lon="5.74809">
        <ele>1151.2</ele>
        <time>2026-05-13T12:06:42Z</time>
      </trkpt>
      <trkpt lat="45.90702" lon="5.74808">
        <ele>1151.2</ele>
        <time>2026-05-13T12:06:43Z</time>
      </trkpt>
      <trkpt lat="45.907" lon="5.74807">
        <ele>1151.2</ele>
        <time>2026-05-13T12:06:44Z</time>
      </trkpt>
      <trkpt lat="45.90699" lon="5.74806">
        <ele>1151.4</ele>
        <time>2026-05-13T12:06:45Z</time>
      </trkpt>
      <trkpt lat="45.90698" lon="5.74805">
        <ele>1151.4</ele>
        <time>2026-05-13T12:06:46Z</time>
      </trkpt>
      <trkpt lat="45.90697" lon="5.74803">
        <ele>1151.8</ele>
        <time>2026-05-13T12:06:47Z</time>
      </trkpt>
      <trkpt lat="45.90696" lon="5.74802">
        <ele>1152</ele>
        <time>2026-05-13T12:06:48Z</time>
      </trkpt>
      <trkpt lat="45.90696" lon="5.74802">
        <ele>1152</ele>
        <time>2026-05-13T12:06:49Z</time>
      </trkpt>
      <trkpt lat="45.90696" lon="5.74801">
        <ele>1152</ele>
        <time>2026-05-13T12:06:50Z</time>
      </trkpt>
      <trkpt lat="45.90697" lon="5.74799">
        <ele>1152.4</ele>
        <time>2026-05-13T12:06:51Z</time>
      </trkpt>
      <trkpt lat="45.90698" lon="5.74798">
        <ele>1152.4</ele>
        <time>2026-05-13T12:06:52Z</time>
      </trkpt>
      <trkpt lat="45.90699" lon="5.74797">
        <ele>1152.4</ele>
        <time>2026-05-13T12:06:53Z</time>
      </trkpt>
      <trkpt lat="45.90698" lon="5.74795">
        <ele>1152.6</ele>
        <time>2026-05-13T12:06:54Z</time>
      </trkpt>
      <trkpt lat="45.90697" lon="5.74794">
        <ele>1152.6</ele>
        <time>2026-05-13T12:06:55Z</time>
      </trkpt>
      <trkpt lat="45.90696" lon="5.74793">
        <ele>1153</ele>
        <time>2026-05-13T12:06:56Z</time>
      </trkpt>
      <trkpt lat="45.90694" lon="5.74791">
        <ele>1153</ele>
        <time>2026-05-13T12:06:57Z</time>
      </trkpt>
      <trkpt lat="45.90693" lon="5.74789">
        <ele>1153.4</ele>
        <time>2026-05-13T12:06:58Z</time>
      </trkpt>
      <trkpt lat="45.90692" lon="5.74788">
        <ele>1153.6</ele>
        <time>2026-05-13T12:06:59Z</time>
      </trkpt>
      <trkpt lat="45.90692" lon="5.74787">
        <ele>1153.6</ele>
        <time>2026-05-13T12:07:00Z</time>
      </trkpt>
      <trkpt lat="45.90691" lon="5.74786">
        <ele>1153.6</ele>
        <time>2026-05-13T12:07:01Z</time>
      </trkpt>
      <trkpt lat="45.9069" lon="5.74785">
        <ele>1154</ele>
        <time>2026-05-13T12:07:02Z</time>
      </trkpt>
      <trkpt lat="45.90689" lon="5.74784">
        <ele>1154.2</ele>
        <time>2026-05-13T12:07:03Z</time>
      </trkpt>
      <trkpt lat="45.90688" lon="5.74784">
        <ele>1154.4</ele>
        <time>2026-05-13T12:07:04Z</time>
      </trkpt>
      <trkpt lat="45.90687" lon="5.74782">
        <ele>1154.4</ele>
        <time>2026-05-13T12:07:05Z</time>
      </trkpt>
      <trkpt lat="45.90686" lon="5.74782">
        <ele>1154.4</ele>
        <time>2026-05-13T12:07:06Z</time>
      </trkpt>
      <trkpt lat="45.90685" lon="5.74781">
        <ele>1154.6</ele>
        <time>2026-05-13T12:07:07Z</time>
      </trkpt>
      <trkpt lat="45.90685" lon="5.7478">
        <ele>1154.6</ele>
        <time>2026-05-13T12:07:08Z</time>
      </trkpt>
      <trkpt lat="45.90684" lon="5.74779">
        <ele>1154.6</ele>
        <time>2026-05-13T12:07:09Z</time>
      </trkpt>
      <trkpt lat="45.90684" lon="5.74778">
        <ele>1155</ele>
        <time>2026-05-13T12:07:10Z</time>
      </trkpt>
      <trkpt lat="45.90683" lon="5.74777">
        <ele>1155.2</ele>
        <time>2026-05-13T12:07:11Z</time>
      </trkpt>
      <trkpt lat="45.90682" lon="5.74776">
        <ele>1155.4</ele>
        <time>2026-05-13T12:07:12Z</time>
      </trkpt>
      <trkpt lat="45.90681" lon="5.74775">
        <ele>1155.4</ele>
        <time>2026-05-13T12:07:13Z</time>
      </trkpt>
      <trkpt lat="45.90681" lon="5.74774">
        <ele>1155.8</ele>
        <time>2026-05-13T12:07:14Z</time>
      </trkpt>
      <trkpt lat="45.9068" lon="5.74773">
        <ele>1155.8</ele>
        <time>2026-05-13T12:07:15Z</time>
      </trkpt>
      <trkpt lat="45.90679" lon="5.74771">
        <ele>1155.8</ele>
        <time>2026-05-13T12:07:16Z</time>
      </trkpt>
      <trkpt lat="45.90678" lon="5.7477">
        <ele>1156.2</ele>
        <time>2026-05-13T12:07:17Z</time>
      </trkpt>
      <trkpt lat="45.90678" lon="5.74769">
        <ele>1156.2</ele>
        <time>2026-05-13T12:07:18Z</time>
      </trkpt>
      <trkpt lat="45.90677" lon="5.74767">
        <ele>1156.4</ele>
        <time>2026-05-13T12:07:19Z</time>
      </trkpt>
      <trkpt lat="45.90677" lon="5.74766">
        <ele>1156.6</ele>
        <time>2026-05-13T12:07:20Z</time>
      </trkpt>
      <trkpt lat="45.90676" lon="5.74764">
        <ele>1156.6</ele>
        <time>2026-05-13T12:07:21Z</time>
      </trkpt>
      <trkpt lat="45.90676" lon="5.74764">
        <ele>1156.6</ele>
        <time>2026-05-13T12:07:22Z</time>
      </trkpt>
      <trkpt lat="45.90675" lon="5.74763">
        <ele>1156.6</ele>
        <time>2026-05-13T12:07:23Z</time>
      </trkpt>
      <trkpt lat="45.90674" lon="5.74763">
        <ele>1156.6</ele>
        <time>2026-05-13T12:07:24Z</time>
      </trkpt>
      <trkpt lat="45.90673" lon="5.74761">
        <ele>1157</ele>
        <time>2026-05-13T12:07:25Z</time>
      </trkpt>
      <trkpt lat="45.90672" lon="5.7476">
        <ele>1157</ele>
        <time>2026-05-13T12:07:26Z</time>
      </trkpt>
      <trkpt lat="45.90671" lon="5.74758">
        <ele>1157.4</ele>
        <time>2026-05-13T12:07:27Z</time>
      </trkpt>
      <trkpt lat="45.90671" lon="5.74757">
        <ele>1157.4</ele>
        <time>2026-05-13T12:07:28Z</time>
      </trkpt>
      <trkpt lat="45.9067" lon="5.74755">
        <ele>1157.6</ele>
        <time>2026-05-13T12:07:29Z</time>
      </trkpt>
      <trkpt lat="45.9067" lon="5.74754">
        <ele>1157.6</ele>
        <time>2026-05-13T12:07:30Z</time>
      </trkpt>
      <trkpt lat="45.90669" lon="5.74752">
        <ele>1157.8</ele>
        <time>2026-05-13T12:07:31Z</time>
      </trkpt>
      <trkpt lat="45.90668" lon="5.74751">
        <ele>1157.8</ele>
        <time>2026-05-13T12:07:32Z</time>
      </trkpt>
      <trkpt lat="45.90667" lon="5.7475">
        <ele>1157.8</ele>
        <time>2026-05-13T12:07:33Z</time>
      </trkpt>
      <trkpt lat="45.90666" lon="5.74749">
        <ele>1158.2</ele>
        <time>2026-05-13T12:07:34Z</time>
      </trkpt>
      <trkpt lat="45.90664" lon="5.74747">
        <ele>1158.4</ele>
        <time>2026-05-13T12:07:35Z</time>
      </trkpt>
      <trkpt lat="45.90663" lon="5.74746">
        <ele>1158.4</ele>
        <time>2026-05-13T12:07:36Z</time>
      </trkpt>
      <trkpt lat="45.90662" lon="5.74745">
        <ele>1158.6</ele>
        <time>2026-05-13T12:07:37Z</time>
      </trkpt>
      <trkpt lat="45.9066" lon="5.74744">
        <ele>1158.6</ele>
        <time>2026-05-13T12:07:38Z</time>
      </trkpt>
      <trkpt lat="45.90658" lon="5.74743">
        <ele>1159</ele>
        <time>2026-05-13T12:07:39Z</time>
      </trkpt>
      <trkpt lat="45.90656" lon="5.74741">
        <ele>1159</ele>
        <time>2026-05-13T12:07:40Z</time>
      </trkpt>
      <trkpt lat="45.90654" lon="5.74739">
        <ele>1159.2</ele>
        <time>2026-05-13T12:07:41Z</time>
      </trkpt>
      <trkpt lat="45.90653" lon="5.74738">
        <ele>1159.2</ele>
        <time>2026-05-13T12:07:42Z</time>
      </trkpt>
      <trkpt lat="45.90652" lon="5.74737">
        <ele>1159.6</ele>
        <time>2026-05-13T12:07:43Z</time>
      </trkpt>
      <trkpt lat="45.90651" lon="5.74735">
        <ele>1159.6</ele>
        <time>2026-05-13T12:07:44Z</time>
      </trkpt>
      <trkpt lat="45.9065" lon="5.74733">
        <ele>1159.6</ele>
        <time>2026-05-13T12:07:45Z</time>
      </trkpt>
      <trkpt lat="45.90649" lon="5.74732">
        <ele>1159.6</ele>
        <time>2026-05-13T12:07:46Z</time>
      </trkpt>
      <trkpt lat="45.90648" lon="5.74731">
        <ele>1160</ele>
        <time>2026-05-13T12:07:47Z</time>
      </trkpt>
      <trkpt lat="45.90648" lon="5.74731">
        <ele>1160.2</ele>
        <time>2026-05-13T12:07:48Z</time>
      </trkpt>
      <trkpt lat="45.90647" lon="5.7473">
        <ele>1160.4</ele>
        <time>2026-05-13T12:07:49Z</time>
      </trkpt>
      <trkpt lat="45.90647" lon="5.74729">
        <ele>1160.4</ele>
        <time>2026-05-13T12:07:50Z</time>
      </trkpt>
      <trkpt lat="45.90646" lon="5.74728">
        <ele>1160.8</ele>
        <time>2026-05-13T12:07:51Z</time>
      </trkpt>
      <trkpt lat="45.90645" lon="5.74726">
        <ele>1160.8</ele>
        <time>2026-05-13T12:07:52Z</time>
      </trkpt>
      <trkpt lat="45.90645" lon="5.74724">
        <ele>1161.2</ele>
        <time>2026-05-13T12:07:53Z</time>
      </trkpt>
      <trkpt lat="45.90644" lon="5.74723">
        <ele>1161.2</ele>
        <time>2026-05-13T12:07:54Z</time>
      </trkpt>
      <trkpt lat="45.90644" lon="5.74721">
        <ele>1161.4</ele>
        <time>2026-05-13T12:07:55Z</time>
      </trkpt>
      <trkpt lat="45.90643" lon="5.74719">
        <ele>1161.4</ele>
        <time>2026-05-13T12:07:56Z</time>
      </trkpt>
      <trkpt lat="45.90643" lon="5.74718">
        <ele>1161.8</ele>
        <time>2026-05-13T12:07:57Z</time>
      </trkpt>
      <trkpt lat="45.90642" lon="5.74717">
        <ele>1161.8</ele>
        <time>2026-05-13T12:07:58Z</time>
      </trkpt>
      <trkpt lat="45.90641" lon="5.74715">
        <ele>1162.2</ele>
        <time>2026-05-13T12:07:59Z</time>
      </trkpt>
      <trkpt lat="45.9064" lon="5.74714">
        <ele>1162.2</ele>
        <time>2026-05-13T12:08:00Z</time>
      </trkpt>
      <trkpt lat="45.90639" lon="5.74713">
        <ele>1162.4</ele>
        <time>2026-05-13T12:08:01Z</time>
      </trkpt>
      <trkpt lat="45.90638" lon="5.74711">
        <ele>1162.4</ele>
        <time>2026-05-13T12:08:02Z</time>
      </trkpt>
      <trkpt lat="45.90638" lon="5.74709">
        <ele>1162.6</ele>
        <time>2026-05-13T12:08:03Z</time>
      </trkpt>
      <trkpt lat="45.90637" lon="5.74708">
        <ele>1162.6</ele>
        <time>2026-05-13T12:08:04Z</time>
      </trkpt>
      <trkpt lat="45.90637" lon="5.74707">
        <ele>1163</ele>
        <time>2026-05-13T12:08:05Z</time>
      </trkpt>
      <trkpt lat="45.90636" lon="5.74705">
        <ele>1163.2</ele>
        <time>2026-05-13T12:08:06Z</time>
      </trkpt>
      <trkpt lat="45.90635" lon="5.74703">
        <ele>1163.2</ele>
        <time>2026-05-13T12:08:07Z</time>
      </trkpt>
      <trkpt lat="45.90634" lon="5.74702">
        <ele>1163.6</ele>
        <time>2026-05-13T12:08:08Z</time>
      </trkpt>
      <trkpt lat="45.90633" lon="5.747">
        <ele>1163.6</ele>
        <time>2026-05-13T12:08:09Z</time>
      </trkpt>
      <trkpt lat="45.90632" lon="5.74699">
        <ele>1163.8</ele>
        <time>2026-05-13T12:08:10Z</time>
      </trkpt>
      <trkpt lat="45.90631" lon="5.74698">
        <ele>1163.8</ele>
        <time>2026-05-13T12:08:11Z</time>
      </trkpt>
      <trkpt lat="45.9063" lon="5.74697">
        <ele>1164</ele>
        <time>2026-05-13T12:08:12Z</time>
      </trkpt>
      <trkpt lat="45.90629" lon="5.74696">
        <ele>1164</ele>
        <time>2026-05-13T12:08:13Z</time>
      </trkpt>
      <trkpt lat="45.90629" lon="5.74694">
        <ele>1164.4</ele>
        <time>2026-05-13T12:08:14Z</time>
      </trkpt>
      <trkpt lat="45.90628" lon="5.74692">
        <ele>1164.4</ele>
        <time>2026-05-13T12:08:15Z</time>
      </trkpt>
      <trkpt lat="45.90628" lon="5.74692">
        <ele>1164.6</ele>
        <time>2026-05-13T12:08:16Z</time>
      </trkpt>
      <trkpt lat="45.90625" lon="5.74687">
        <ele>1164.6</ele>
        <time>2026-05-13T12:08:19Z</time>
      </trkpt>
      <trkpt lat="45.90623" lon="5.74686">
        <ele>1165</ele>
        <time>2026-05-13T12:08:20Z</time>
      </trkpt>
      <trkpt lat="45.90622" lon="5.74685">
        <ele>1165</ele>
        <time>2026-05-13T12:08:21Z</time>
      </trkpt>
      <trkpt lat="45.90621" lon="5.74684">
        <ele>1165.4</ele>
        <time>2026-05-13T12:08:22Z</time>
      </trkpt>
      <trkpt lat="45.9062" lon="5.74683">
        <ele>1165.6</ele>
        <time>2026-05-13T12:08:23Z</time>
      </trkpt>
      <trkpt lat="45.90619" lon="5.74682">
        <ele>1165.6</ele>
        <time>2026-05-13T12:08:24Z</time>
      </trkpt>
      <trkpt lat="45.90619" lon="5.7468">
        <ele>1166</ele>
        <time>2026-05-13T12:08:25Z</time>
      </trkpt>
      <trkpt lat="45.90618" lon="5.74679">
        <ele>1166</ele>
        <time>2026-05-13T12:08:26Z</time>
      </trkpt>
      <trkpt lat="45.90617" lon="5.74677">
        <ele>1166.2</ele>
        <time>2026-05-13T12:08:27Z</time>
      </trkpt>
      <trkpt lat="45.90616" lon="5.74676">
        <ele>1166.2</ele>
        <time>2026-05-13T12:08:28Z</time>
      </trkpt>
      <trkpt lat="45.90615" lon="5.74674">
        <ele>1166.6</ele>
        <time>2026-05-13T12:08:29Z</time>
      </trkpt>
      <trkpt lat="45.90615" lon="5.74673">
        <ele>1166.6</ele>
        <time>2026-05-13T12:08:30Z</time>
      </trkpt>
      <trkpt lat="45.90614" lon="5.74671">
        <ele>1166.8</ele>
        <time>2026-05-13T12:08:31Z</time>
      </trkpt>
      <trkpt lat="45.90613" lon="5.74669">
        <ele>1167.2</ele>
        <time>2026-05-13T12:08:32Z</time>
      </trkpt>
      <trkpt lat="45.90612" lon="5.74668">
        <ele>1167.2</ele>
        <time>2026-05-13T12:08:33Z</time>
      </trkpt>
      <trkpt lat="45.90612" lon="5.74667">
        <ele>1167.6</ele>
        <time>2026-05-13T12:08:34Z</time>
      </trkpt>
      <trkpt lat="45.90611" lon="5.74666">
        <ele>1167.6</ele>
        <time>2026-05-13T12:08:35Z</time>
      </trkpt>
      <trkpt lat="45.90609" lon="5.74665">
        <ele>1168</ele>
        <time>2026-05-13T12:08:36Z</time>
      </trkpt>
      <trkpt lat="45.90609" lon="5.74663">
        <ele>1168</ele>
        <time>2026-05-13T12:08:37Z</time>
      </trkpt>
      <trkpt lat="45.90608" lon="5.74662">
        <ele>1168</ele>
        <time>2026-05-13T12:08:38Z</time>
      </trkpt>
      <trkpt lat="45.90607" lon="5.7466">
        <ele>1168.4</ele>
        <time>2026-05-13T12:08:39Z</time>
      </trkpt>
      <trkpt lat="45.90606" lon="5.74658">
        <ele>1168.4</ele>
        <time>2026-05-13T12:08:40Z</time>
      </trkpt>
      <trkpt lat="45.90605" lon="5.74657">
        <ele>1168.8</ele>
        <time>2026-05-13T12:08:41Z</time>
      </trkpt>
      <trkpt lat="45.90604" lon="5.74655">
        <ele>1168.8</ele>
        <time>2026-05-13T12:08:42Z</time>
      </trkpt>
      <trkpt lat="45.90604" lon="5.74654">
        <ele>1169</ele>
        <time>2026-05-13T12:08:43Z</time>
      </trkpt>
      <trkpt lat="45.90602" lon="5.7465">
        <ele>1169</ele>
        <time>2026-05-13T12:08:44Z</time>
      </trkpt>
      <trkpt lat="45.90602" lon="5.74649">
        <ele>1169.2</ele>
        <time>2026-05-13T12:08:45Z</time>
      </trkpt>
      <trkpt lat="45.90602" lon="5.74647">
        <ele>1169.2</ele>
        <time>2026-05-13T12:08:46Z</time>
      </trkpt>
      <trkpt lat="45.90601" lon="5.74646">
        <ele>1169.2</ele>
        <time>2026-05-13T12:08:47Z</time>
      </trkpt>
      <trkpt lat="45.906" lon="5.74645">
        <ele>1169.6</ele>
        <time>2026-05-13T12:08:48Z</time>
      </trkpt>
      <trkpt lat="45.90599" lon="5.74643">
        <ele>1169.6</ele>
        <time>2026-05-13T12:08:49Z</time>
      </trkpt>
      <trkpt lat="45.90598" lon="5.74641">
        <ele>1170</ele>
        <time>2026-05-13T12:08:50Z</time>
      </trkpt>
      <trkpt lat="45.90598" lon="5.7464">
        <ele>1170</ele>
        <time>2026-05-13T12:08:51Z</time>
      </trkpt>
      <trkpt lat="45.90597" lon="5.74638">
        <ele>1170.4</ele>
        <time>2026-05-13T12:08:52Z</time>
      </trkpt>
      <trkpt lat="45.90596" lon="5.74636">
        <ele>1170.4</ele>
        <time>2026-05-13T12:08:53Z</time>
      </trkpt>
      <trkpt lat="45.90595" lon="5.74635">
        <ele>1170.6</ele>
        <time>2026-05-13T12:08:54Z</time>
      </trkpt>
      <trkpt lat="45.90595" lon="5.74633">
        <ele>1170.6</ele>
        <time>2026-05-13T12:08:55Z</time>
      </trkpt>
      <trkpt lat="45.90595" lon="5.74631">
        <ele>1170.8</ele>
        <time>2026-05-13T12:08:56Z</time>
      </trkpt>
      <trkpt lat="45.90594" lon="5.7463">
        <ele>1170.8</ele>
        <time>2026-05-13T12:08:57Z</time>
      </trkpt>
      <trkpt lat="45.90593" lon="5.74628">
        <ele>1170.8</ele>
        <time>2026-05-13T12:08:58Z</time>
      </trkpt>
      <trkpt lat="45.90593" lon="5.74628">
        <ele>1170.8</ele>
        <time>2026-05-13T12:08:59Z</time>
      </trkpt>
      <trkpt lat="45.90592" lon="5.74625">
        <ele>1170.8</ele>
        <time>2026-05-13T12:09:00Z</time>
      </trkpt>
      <trkpt lat="45.90591" lon="5.74624">
        <ele>1171.2</ele>
        <time>2026-05-13T12:09:01Z</time>
      </trkpt>
      <trkpt lat="45.9059" lon="5.74623">
        <ele>1171.4</ele>
        <time>2026-05-13T12:09:02Z</time>
      </trkpt>
      <trkpt lat="45.9059" lon="5.74621">
        <ele>1171.4</ele>
        <time>2026-05-13T12:09:03Z</time>
      </trkpt>
      <trkpt lat="45.90589" lon="5.7462">
        <ele>1171.6</ele>
        <time>2026-05-13T12:09:04Z</time>
      </trkpt>
      <trkpt lat="45.90588" lon="5.74619">
        <ele>1171.8</ele>
        <time>2026-05-13T12:09:05Z</time>
      </trkpt>
      <trkpt lat="45.90588" lon="5.74619">
        <ele>1171.8</ele>
        <time>2026-05-13T12:09:06Z</time>
      </trkpt>
      <trkpt lat="45.90588" lon="5.74618">
        <ele>1172.2</ele>
        <time>2026-05-13T12:09:07Z</time>
      </trkpt>
      <trkpt lat="45.90587" lon="5.74616">
        <ele>1172.4</ele>
        <time>2026-05-13T12:09:08Z</time>
      </trkpt>
      <trkpt lat="45.90587" lon="5.74615">
        <ele>1172.4</ele>
        <time>2026-05-13T12:09:09Z</time>
      </trkpt>
      <trkpt lat="45.90586" lon="5.74613">
        <ele>1172.8</ele>
        <time>2026-05-13T12:09:10Z</time>
      </trkpt>
      <trkpt lat="45.90585" lon="5.74612">
        <ele>1172.8</ele>
        <time>2026-05-13T12:09:11Z</time>
      </trkpt>
      <trkpt lat="45.90585" lon="5.7461">
        <ele>1173</ele>
        <time>2026-05-13T12:09:12Z</time>
      </trkpt>
      <trkpt lat="45.90584" lon="5.74609">
        <ele>1173</ele>
        <time>2026-05-13T12:09:13Z</time>
      </trkpt>
      <trkpt lat="45.90583" lon="5.74608">
        <ele>1173.4</ele>
        <time>2026-05-13T12:09:14Z</time>
      </trkpt>
      <trkpt lat="45.90583" lon="5.74607">
        <ele>1173.4</ele>
        <time>2026-05-13T12:09:15Z</time>
      </trkpt>
      <trkpt lat="45.90582" lon="5.74605">
        <ele>1173.6</ele>
        <time>2026-05-13T12:09:16Z</time>
      </trkpt>
      <trkpt lat="45.90581" lon="5.74604">
        <ele>1173.6</ele>
        <time>2026-05-13T12:09:17Z</time>
      </trkpt>
      <trkpt lat="45.9058" lon="5.74603">
        <ele>1173.8</ele>
        <time>2026-05-13T12:09:18Z</time>
      </trkpt>
      <trkpt lat="45.9058" lon="5.74601">
        <ele>1173.8</ele>
        <time>2026-05-13T12:09:19Z</time>
      </trkpt>
      <trkpt lat="45.90579" lon="5.746">
        <ele>1174</ele>
        <time>2026-05-13T12:09:20Z</time>
      </trkpt>
      <trkpt lat="45.90578" lon="5.74599">
        <ele>1174</ele>
        <time>2026-05-13T12:09:21Z</time>
      </trkpt>
      <trkpt lat="45.90577" lon="5.74598">
        <ele>1174.4</ele>
        <time>2026-05-13T12:09:22Z</time>
      </trkpt>
      <trkpt lat="45.90576" lon="5.74597">
        <ele>1174.4</ele>
        <time>2026-05-13T12:09:23Z</time>
      </trkpt>
      <trkpt lat="45.90576" lon="5.74596">
        <ele>1174.8</ele>
        <time>2026-05-13T12:09:24Z</time>
      </trkpt>
      <trkpt lat="45.90575" lon="5.74594">
        <ele>1174.8</ele>
        <time>2026-05-13T12:09:25Z</time>
      </trkpt>
      <trkpt lat="45.90575" lon="5.74593">
        <ele>1175</ele>
        <time>2026-05-13T12:09:26Z</time>
      </trkpt>
      <trkpt lat="45.90574" lon="5.74591">
        <ele>1175</ele>
        <time>2026-05-13T12:09:27Z</time>
      </trkpt>
      <trkpt lat="45.90574" lon="5.74589">
        <ele>1175</ele>
        <time>2026-05-13T12:09:28Z</time>
      </trkpt>
      <trkpt lat="45.90573" lon="5.74588">
        <ele>1175.4</ele>
        <time>2026-05-13T12:09:29Z</time>
      </trkpt>
      <trkpt lat="45.90573" lon="5.74587">
        <ele>1175.4</ele>
        <time>2026-05-13T12:09:30Z</time>
      </trkpt>
      <trkpt lat="45.90572" lon="5.74585">
        <ele>1175.4</ele>
        <time>2026-05-13T12:09:31Z</time>
      </trkpt>
      <trkpt lat="45.90572" lon="5.74583">
        <ele>1175.6</ele>
        <time>2026-05-13T12:09:32Z</time>
      </trkpt>
      <trkpt lat="45.90572" lon="5.74581">
        <ele>1175.6</ele>
        <time>2026-05-13T12:09:33Z</time>
      </trkpt>
      <trkpt lat="45.90572" lon="5.7458">
        <ele>1176</ele>
        <time>2026-05-13T12:09:34Z</time>
      </trkpt>
      <trkpt lat="45.90571" lon="5.74578">
        <ele>1176</ele>
        <time>2026-05-13T12:09:35Z</time>
      </trkpt>
      <trkpt lat="45.90571" lon="5.74576">
        <ele>1176.2</ele>
        <time>2026-05-13T12:09:36Z</time>
      </trkpt>
      <trkpt lat="45.90571" lon="5.74574">
        <ele>1176.2</ele>
        <time>2026-05-13T12:09:37Z</time>
      </trkpt>
      <trkpt lat="45.90571" lon="5.74572">
        <ele>1176.6</ele>
        <time>2026-05-13T12:09:38Z</time>
      </trkpt>
      <trkpt lat="45.9057" lon="5.7457">
        <ele>1176.6</ele>
        <time>2026-05-13T12:09:39Z</time>
      </trkpt>
      <trkpt lat="45.9057" lon="5.74568">
        <ele>1177</ele>
        <time>2026-05-13T12:09:40Z</time>
      </trkpt>
      <trkpt lat="45.9057" lon="5.74566">
        <ele>1177</ele>
        <time>2026-05-13T12:09:41Z</time>
      </trkpt>
      <trkpt lat="45.9057" lon="5.74564">
        <ele>1177.2</ele>
        <time>2026-05-13T12:09:42Z</time>
      </trkpt>
      <trkpt lat="45.9057" lon="5.74563">
        <ele>1177.2</ele>
        <time>2026-05-13T12:09:43Z</time>
      </trkpt>
      <trkpt lat="45.90569" lon="5.74561">
        <ele>1177.2</ele>
        <time>2026-05-13T12:09:44Z</time>
      </trkpt>
      <trkpt lat="45.90569" lon="5.74559">
        <ele>1177.2</ele>
        <time>2026-05-13T12:09:45Z</time>
      </trkpt>
      <trkpt lat="45.90569" lon="5.74557">
        <ele>1177.2</ele>
        <time>2026-05-13T12:09:46Z</time>
      </trkpt>
      <trkpt lat="45.90569" lon="5.74555">
        <ele>1177.4</ele>
        <time>2026-05-13T12:09:47Z</time>
      </trkpt>
      <trkpt lat="45.9057" lon="5.74553">
        <ele>1177.4</ele>
        <time>2026-05-13T12:09:48Z</time>
      </trkpt>
      <trkpt lat="45.9057" lon="5.74551">
        <ele>1177.4</ele>
        <time>2026-05-13T12:09:49Z</time>
      </trkpt>
      <trkpt lat="45.9057" lon="5.74549">
        <ele>1177.4</ele>
        <time>2026-05-13T12:09:50Z</time>
      </trkpt>
      <trkpt lat="45.9057" lon="5.74547">
        <ele>1177.8</ele>
        <time>2026-05-13T12:09:51Z</time>
      </trkpt>
      <trkpt lat="45.9057" lon="5.74546">
        <ele>1177.8</ele>
        <time>2026-05-13T12:09:52Z</time>
      </trkpt>
      <trkpt lat="45.9057" lon="5.74544">
        <ele>1178</ele>
        <time>2026-05-13T12:09:53Z</time>
      </trkpt>
      <trkpt lat="45.9057" lon="5.74542">
        <ele>1178.4</ele>
        <time>2026-05-13T12:09:54Z</time>
      </trkpt>
      <trkpt lat="45.9057" lon="5.7454">
        <ele>1178.6</ele>
        <time>2026-05-13T12:09:55Z</time>
      </trkpt>
      <trkpt lat="45.9057" lon="5.74538">
        <ele>1178.6</ele>
        <time>2026-05-13T12:09:56Z</time>
      </trkpt>
      <trkpt lat="45.9057" lon="5.74536">
        <ele>1178.8</ele>
        <time>2026-05-13T12:09:57Z</time>
      </trkpt>
      <trkpt lat="45.9057" lon="5.74534">
        <ele>1178.8</ele>
        <time>2026-05-13T12:09:58Z</time>
      </trkpt>
      <trkpt lat="45.90569" lon="5.74532">
        <ele>1178.8</ele>
        <time>2026-05-13T12:09:59Z</time>
      </trkpt>
      <trkpt lat="45.90568" lon="5.74531">
        <ele>1179</ele>
        <time>2026-05-13T12:10:00Z</time>
      </trkpt>
      <trkpt lat="45.90568" lon="5.7453">
        <ele>1179</ele>
        <time>2026-05-13T12:10:01Z</time>
      </trkpt>
      <trkpt lat="45.90566" lon="5.74529">
        <ele>1179.2</ele>
        <time>2026-05-13T12:10:02Z</time>
      </trkpt>
      <trkpt lat="45.90565" lon="5.74529">
        <ele>1179.2</ele>
        <time>2026-05-13T12:10:03Z</time>
      </trkpt>
      <trkpt lat="45.90563" lon="5.74528">
        <ele>1179.2</ele>
        <time>2026-05-13T12:10:04Z</time>
      </trkpt>
      <trkpt lat="45.90562" lon="5.74527">
        <ele>1179.2</ele>
        <time>2026-05-13T12:10:05Z</time>
      </trkpt>
      <trkpt lat="45.9056" lon="5.74527">
        <ele>1179.2</ele>
        <time>2026-05-13T12:10:06Z</time>
      </trkpt>
      <trkpt lat="45.90559" lon="5.74526">
        <ele>1179.4</ele>
        <time>2026-05-13T12:10:07Z</time>
      </trkpt>
      <trkpt lat="45.90557" lon="5.74526">
        <ele>1179.4</ele>
        <time>2026-05-13T12:10:08Z</time>
      </trkpt>
      <trkpt lat="45.90556" lon="5.74525">
        <ele>1179.8</ele>
        <time>2026-05-13T12:10:09Z</time>
      </trkpt>
      <trkpt lat="45.90555" lon="5.74525">
        <ele>1180</ele>
        <time>2026-05-13T12:10:10Z</time>
      </trkpt>
      <trkpt lat="45.90554" lon="5.74524">
        <ele>1180.4</ele>
        <time>2026-05-13T12:10:11Z</time>
      </trkpt>
      <trkpt lat="45.90554" lon="5.74523">
        <ele>1180.6</ele>
        <time>2026-05-13T12:10:12Z</time>
      </trkpt>
      <trkpt lat="45.90554" lon="5.74523">
        <ele>1180.6</ele>
        <time>2026-05-13T12:10:13Z</time>
      </trkpt>
      <trkpt lat="45.90554" lon="5.74522">
        <ele>1180.6</ele>
        <time>2026-05-13T12:10:14Z</time>
      </trkpt>
      <trkpt lat="45.90554" lon="5.74523">
        <ele>1180.8</ele>
        <time>2026-05-13T12:10:15Z</time>
      </trkpt>
      <trkpt lat="45.90553" lon="5.74528">
        <ele>1180.6</ele>
        <time>2026-05-13T12:10:35Z</time>
      </trkpt>
      <trkpt lat="45.90553" lon="5.74528">
        <ele>1180.6</ele>
        <time>2026-05-13T12:10:36Z</time>
      </trkpt>
      <trkpt lat="45.90553" lon="5.74528">
        <ele>1180.6</ele>
        <time>2026-05-13T12:10:37Z</time>
      </trkpt>
      <trkpt lat="45.90553" lon="5.74527">
        <ele>1180.6</ele>
        <time>2026-05-13T12:10:43Z</time>
      </trkpt>
      <trkpt lat="45.90553" lon="5.74527">
        <ele>1180.6</ele>
        <time>2026-05-13T12:10:44Z</time>
      </trkpt>
      <trkpt lat="45.90552" lon="5.74528">
        <ele>1180.2</ele>
        <time>2026-05-13T12:10:45Z</time>
      </trkpt>
      <trkpt lat="45.90552" lon="5.74529">
        <ele>1180.2</ele>
        <time>2026-05-13T12:10:46Z</time>
      </trkpt>
      <trkpt lat="45.90551" lon="5.7453">
        <ele>1180.2</ele>
        <time>2026-05-13T12:10:47Z</time>
      </trkpt>
      <trkpt lat="45.9055" lon="5.74532">
        <ele>1180.2</ele>
        <time>2026-05-13T12:10:48Z</time>
      </trkpt>
      <trkpt lat="45.90549" lon="5.74534">
        <ele>1180.2</ele>
        <time>2026-05-13T12:10:49Z</time>
      </trkpt>
      <trkpt lat="45.90548" lon="5.74535">
        <ele>1180.2</ele>
        <time>2026-05-13T12:10:50Z</time>
      </trkpt>
      <trkpt lat="45.90548" lon="5.74538">
        <ele>1180.6</ele>
        <time>2026-05-13T12:10:51Z</time>
      </trkpt>
      <trkpt lat="45.90547" lon="5.7454">
        <ele>1180.6</ele>
        <time>2026-05-13T12:10:52Z</time>
      </trkpt>
      <trkpt lat="45.90547" lon="5.74543">
        <ele>1180.8</ele>
        <time>2026-05-13T12:10:53Z</time>
      </trkpt>
      <trkpt lat="45.90546" lon="5.74545">
        <ele>1180.8</ele>
        <time>2026-05-13T12:10:54Z</time>
      </trkpt>
      <trkpt lat="45.90545" lon="5.74546">
        <ele>1180.8</ele>
        <time>2026-05-13T12:10:55Z</time>
      </trkpt>
      <trkpt lat="45.90544" lon="5.74548">
        <ele>1180.8</ele>
        <time>2026-05-13T12:10:56Z</time>
      </trkpt>
      <trkpt lat="45.90544" lon="5.7455">
        <ele>1180.8</ele>
        <time>2026-05-13T12:10:57Z</time>
      </trkpt>
      <trkpt lat="45.90543" lon="5.74552">
        <ele>1180.8</ele>
        <time>2026-05-13T12:10:58Z</time>
      </trkpt>
      <trkpt lat="45.90543" lon="5.74553">
        <ele>1181</ele>
        <time>2026-05-13T12:10:59Z</time>
      </trkpt>
      <trkpt lat="45.90544" lon="5.74553">
        <ele>1181</ele>
        <time>2026-05-13T12:11:00Z</time>
      </trkpt>
      <trkpt lat="45.90544" lon="5.74553">
        <ele>1181.4</ele>
        <time>2026-05-13T12:11:01Z</time>
      </trkpt>
      <trkpt lat="45.90543" lon="5.74551">
        <ele>1182</ele>
        <time>2026-05-13T12:20:52Z</time>
      </trkpt>
      <trkpt lat="45.90541" lon="5.74552">
        <ele>1182</ele>
        <time>2026-05-13T12:20:53Z</time>
      </trkpt>
      <trkpt lat="45.9054" lon="5.74553">
        <ele>1182</ele>
        <time>2026-05-13T12:20:54Z</time>
      </trkpt>
      <trkpt lat="45.90538" lon="5.74554">
        <ele>1182</ele>
        <time>2026-05-13T12:20:55Z</time>
      </trkpt>
      <trkpt lat="45.90537" lon="5.74555">
        <ele>1182</ele>
        <time>2026-05-13T12:20:56Z</time>
      </trkpt>
      <trkpt lat="45.90537" lon="5.74557">
        <ele>1182</ele>
        <time>2026-05-13T12:20:57Z</time>
      </trkpt>
      <trkpt lat="45.90536" lon="5.74559">
        <ele>1182</ele>
        <time>2026-05-13T12:20:58Z</time>
      </trkpt>
      <trkpt lat="45.90535" lon="5.74562">
        <ele>1182</ele>
        <time>2026-05-13T12:20:59Z</time>
      </trkpt>
      <trkpt lat="45.90534" lon="5.74564">
        <ele>1182</ele>
        <time>2026-05-13T12:21:00Z</time>
      </trkpt>
      <trkpt lat="45.90533" lon="5.74566">
        <ele>1182</ele>
        <time>2026-05-13T12:21:01Z</time>
      </trkpt>
      <trkpt lat="45.90532" lon="5.74568">
        <ele>1182.2</ele>
        <time>2026-05-13T12:21:02Z</time>
      </trkpt>
      <trkpt lat="45.90531" lon="5.7457">
        <ele>1182.2</ele>
        <time>2026-05-13T12:21:03Z</time>
      </trkpt>
      <trkpt lat="45.90531" lon="5.74572">
        <ele>1182.4</ele>
        <time>2026-05-13T12:21:04Z</time>
      </trkpt>
      <trkpt lat="45.9053" lon="5.74574">
        <ele>1182.4</ele>
        <time>2026-05-13T12:21:05Z</time>
      </trkpt>
      <trkpt lat="45.90529" lon="5.74577">
        <ele>1182.4</ele>
        <time>2026-05-13T12:21:06Z</time>
      </trkpt>
      <trkpt lat="45.90528" lon="5.74579">
        <ele>1182.4</ele>
        <time>2026-05-13T12:21:07Z</time>
      </trkpt>
      <trkpt lat="45.90527" lon="5.74581">
        <ele>1182.4</ele>
        <time>2026-05-13T12:21:08Z</time>
      </trkpt>
      <trkpt lat="45.90526" lon="5.74583">
        <ele>1182.4</ele>
        <time>2026-05-13T12:21:09Z</time>
      </trkpt>
      <trkpt lat="45.90525" lon="5.74585">
        <ele>1182.4</ele>
        <time>2026-05-13T12:21:10Z</time>
      </trkpt>
      <trkpt lat="45.90524" lon="5.74587">
        <ele>1182.8</ele>
        <time>2026-05-13T12:21:11Z</time>
      </trkpt>
      <trkpt lat="45.90524" lon="5.74589">
        <ele>1183</ele>
        <time>2026-05-13T12:21:12Z</time>
      </trkpt>
      <trkpt lat="45.90523" lon="5.74592">
        <ele>1183</ele>
        <time>2026-05-13T12:21:13Z</time>
      </trkpt>
      <trkpt lat="45.90523" lon="5.74594">
        <ele>1183.4</ele>
        <time>2026-05-13T12:21:14Z</time>
      </trkpt>
      <trkpt lat="45.90522" lon="5.74597">
        <ele>1183.4</ele>
        <time>2026-05-13T12:21:15Z</time>
      </trkpt>
      <trkpt lat="45.90522" lon="5.74599">
        <ele>1183.6</ele>
        <time>2026-05-13T12:21:16Z</time>
      </trkpt>
      <trkpt lat="45.90521" lon="5.74602">
        <ele>1183.6</ele>
        <time>2026-05-13T12:21:17Z</time>
      </trkpt>
      <trkpt lat="45.90521" lon="5.74604">
        <ele>1183.8</ele>
        <time>2026-05-13T12:21:18Z</time>
      </trkpt>
      <trkpt lat="45.9052" lon="5.74606">
        <ele>1183.8</ele>
        <time>2026-05-13T12:21:19Z</time>
      </trkpt>
      <trkpt lat="45.90519" lon="5.74607">
        <ele>1183.8</ele>
        <time>2026-05-13T12:21:20Z</time>
      </trkpt>
      <trkpt lat="45.90518" lon="5.74609">
        <ele>1183.8</ele>
        <time>2026-05-13T12:21:21Z</time>
      </trkpt>
      <trkpt lat="45.90517" lon="5.7461">
        <ele>1184</ele>
        <time>2026-05-13T12:21:22Z</time>
      </trkpt>
      <trkpt lat="45.90517" lon="5.74613">
        <ele>1184</ele>
        <time>2026-05-13T12:21:23Z</time>
      </trkpt>
      <trkpt lat="45.90517" lon="5.74615">
        <ele>1184</ele>
        <time>2026-05-13T12:21:24Z</time>
      </trkpt>
      <trkpt lat="45.90517" lon="5.74618">
        <ele>1184</ele>
        <time>2026-05-13T12:21:25Z</time>
      </trkpt>
      <trkpt lat="45.90517" lon="5.7462">
        <ele>1184</ele>
        <time>2026-05-13T12:21:26Z</time>
      </trkpt>
      <trkpt lat="45.90516" lon="5.74623">
        <ele>1184</ele>
        <time>2026-05-13T12:21:27Z</time>
      </trkpt>
      <trkpt lat="45.90515" lon="5.74626">
        <ele>1184</ele>
        <time>2026-05-13T12:21:28Z</time>
      </trkpt>
      <trkpt lat="45.90515" lon="5.74628">
        <ele>1184</ele>
        <time>2026-05-13T12:21:29Z</time>
      </trkpt>
      <trkpt lat="45.90514" lon="5.74631">
        <ele>1184.4</ele>
        <time>2026-05-13T12:21:30Z</time>
      </trkpt>
      <trkpt lat="45.90513" lon="5.74634">
        <ele>1184.4</ele>
        <time>2026-05-13T12:21:31Z</time>
      </trkpt>
      <trkpt lat="45.90513" lon="5.74636">
        <ele>1184.6</ele>
        <time>2026-05-13T12:21:32Z</time>
      </trkpt>
      <trkpt lat="45.90512" lon="5.74639">
        <ele>1184.6</ele>
        <time>2026-05-13T12:21:33Z</time>
      </trkpt>
      <trkpt lat="45.90511" lon="5.74641">
        <ele>1185</ele>
        <time>2026-05-13T12:21:34Z</time>
      </trkpt>
      <trkpt lat="45.9051" lon="5.74643">
        <ele>1185.2</ele>
        <time>2026-05-13T12:21:35Z</time>
      </trkpt>
      <trkpt lat="45.90509" lon="5.74645">
        <ele>1185.2</ele>
        <time>2026-05-13T12:21:36Z</time>
      </trkpt>
      <trkpt lat="45.90508" lon="5.74647">
        <ele>1185.2</ele>
        <time>2026-05-13T12:21:37Z</time>
      </trkpt>
      <trkpt lat="45.90507" lon="5.7465">
        <ele>1185.6</ele>
        <time>2026-05-13T12:21:38Z</time>
      </trkpt>
      <trkpt lat="45.90506" lon="5.74652">
        <ele>1185.6</ele>
        <time>2026-05-13T12:21:39Z</time>
      </trkpt>
      <trkpt lat="45.90505" lon="5.74653">
        <ele>1185.6</ele>
        <time>2026-05-13T12:21:40Z</time>
      </trkpt>
      <trkpt lat="45.90504" lon="5.74655">
        <ele>1185.8</ele>
        <time>2026-05-13T12:21:41Z</time>
      </trkpt>
      <trkpt lat="45.90503" lon="5.74657">
        <ele>1185.8</ele>
        <time>2026-05-13T12:21:42Z</time>
      </trkpt>
      <trkpt lat="45.90502" lon="5.74659">
        <ele>1186.2</ele>
        <time>2026-05-13T12:21:43Z</time>
      </trkpt>
      <trkpt lat="45.90501" lon="5.74661">
        <ele>1186.2</ele>
        <time>2026-05-13T12:21:44Z</time>
      </trkpt>
      <trkpt lat="45.905" lon="5.74663">
        <ele>1186.2</ele>
        <time>2026-05-13T12:21:45Z</time>
      </trkpt>
      <trkpt lat="45.90499" lon="5.74664">
        <ele>1186.2</ele>
        <time>2026-05-13T12:21:46Z</time>
      </trkpt>
      <trkpt lat="45.90497" lon="5.74665">
        <ele>1186.2</ele>
        <time>2026-05-13T12:21:47Z</time>
      </trkpt>
      <trkpt lat="45.90496" lon="5.74666">
        <ele>1186.2</ele>
        <time>2026-05-13T12:21:48Z</time>
      </trkpt>
      <trkpt lat="45.90495" lon="5.74666">
        <ele>1186.6</ele>
        <time>2026-05-13T12:21:49Z</time>
      </trkpt>
      <trkpt lat="45.90493" lon="5.74667">
        <ele>1186.6</ele>
        <time>2026-05-13T12:21:50Z</time>
      </trkpt>
      <trkpt lat="45.90492" lon="5.74668">
        <ele>1186.8</ele>
        <time>2026-05-13T12:21:51Z</time>
      </trkpt>
      <trkpt lat="45.9049" lon="5.74668">
        <ele>1186.8</ele>
        <time>2026-05-13T12:21:52Z</time>
      </trkpt>
      <trkpt lat="45.90489" lon="5.74669">
        <ele>1187</ele>
        <time>2026-05-13T12:21:53Z</time>
      </trkpt>
      <trkpt lat="45.90487" lon="5.74669">
        <ele>1187.2</ele>
        <time>2026-05-13T12:21:54Z</time>
      </trkpt>
      <trkpt lat="45.90486" lon="5.7467">
        <ele>1187.2</ele>
        <time>2026-05-13T12:21:55Z</time>
      </trkpt>
      <trkpt lat="45.90484" lon="5.7467">
        <ele>1187.6</ele>
        <time>2026-05-13T12:21:56Z</time>
      </trkpt>
      <trkpt lat="45.90483" lon="5.7467">
        <ele>1187.6</ele>
        <time>2026-05-13T12:21:57Z</time>
      </trkpt>
      <trkpt lat="45.90481" lon="5.74671">
        <ele>1187.6</ele>
        <time>2026-05-13T12:21:58Z</time>
      </trkpt>
      <trkpt lat="45.90479" lon="5.74671">
        <ele>1187.6</ele>
        <time>2026-05-13T12:21:59Z</time>
      </trkpt>
      <trkpt lat="45.90477" lon="5.74671">
        <ele>1187.6</ele>
        <time>2026-05-13T12:22:00Z</time>
      </trkpt>
      <trkpt lat="45.90476" lon="5.74671">
        <ele>1187.6</ele>
        <time>2026-05-13T12:22:01Z</time>
      </trkpt>
      <trkpt lat="45.90474" lon="5.74671">
        <ele>1187.6</ele>
        <time>2026-05-13T12:22:02Z</time>
      </trkpt>
      <trkpt lat="45.90473" lon="5.74671">
        <ele>1187.6</ele>
        <time>2026-05-13T12:22:03Z</time>
      </trkpt>
      <trkpt lat="45.90472" lon="5.74671">
        <ele>1187.8</ele>
        <time>2026-05-13T12:22:04Z</time>
      </trkpt>
      <trkpt lat="45.9047" lon="5.74671">
        <ele>1187.8</ele>
        <time>2026-05-13T12:22:05Z</time>
      </trkpt>
      <trkpt lat="45.90468" lon="5.74672">
        <ele>1188.2</ele>
        <time>2026-05-13T12:22:06Z</time>
      </trkpt>
      <trkpt lat="45.90467" lon="5.74672">
        <ele>1188.2</ele>
        <time>2026-05-13T12:22:07Z</time>
      </trkpt>
      <trkpt lat="45.90465" lon="5.74672">
        <ele>1188.4</ele>
        <time>2026-05-13T12:22:08Z</time>
      </trkpt>
      <trkpt lat="45.90464" lon="5.74672">
        <ele>1188.4</ele>
        <time>2026-05-13T12:22:09Z</time>
      </trkpt>
      <trkpt lat="45.90462" lon="5.74672">
        <ele>1188.6</ele>
        <time>2026-05-13T12:22:10Z</time>
      </trkpt>
      <trkpt lat="45.9046" lon="5.74672">
        <ele>1188.6</ele>
        <time>2026-05-13T12:22:11Z</time>
      </trkpt>
      <trkpt lat="45.90459" lon="5.74672">
        <ele>1188.8</ele>
        <time>2026-05-13T12:22:12Z</time>
      </trkpt>
      <trkpt lat="45.90457" lon="5.74672">
        <ele>1188.8</ele>
        <time>2026-05-13T12:22:13Z</time>
      </trkpt>
      <trkpt lat="45.90455" lon="5.74672">
        <ele>1189.2</ele>
        <time>2026-05-13T12:22:14Z</time>
      </trkpt>
      <trkpt lat="45.90454" lon="5.74672">
        <ele>1189.2</ele>
        <time>2026-05-13T12:22:15Z</time>
      </trkpt>
      <trkpt lat="45.90452" lon="5.74672">
        <ele>1189.4</ele>
        <time>2026-05-13T12:22:16Z</time>
      </trkpt>
      <trkpt lat="45.9045" lon="5.74672">
        <ele>1189.4</ele>
        <time>2026-05-13T12:22:17Z</time>
      </trkpt>
      <trkpt lat="45.90449" lon="5.74672">
        <ele>1189.4</ele>
        <time>2026-05-13T12:22:18Z</time>
      </trkpt>
      <trkpt lat="45.90447" lon="5.74672">
        <ele>1190</ele>
        <time>2026-05-13T12:22:19Z</time>
      </trkpt>
      <trkpt lat="45.90445" lon="5.74673">
        <ele>1190</ele>
        <time>2026-05-13T12:22:20Z</time>
      </trkpt>
      <trkpt lat="45.90443" lon="5.74673">
        <ele>1190.2</ele>
        <time>2026-05-13T12:22:21Z</time>
      </trkpt>
      <trkpt lat="45.90442" lon="5.74674">
        <ele>1190.2</ele>
        <time>2026-05-13T12:22:22Z</time>
      </trkpt>
      <trkpt lat="45.9044" lon="5.74674">
        <ele>1190.2</ele>
        <time>2026-05-13T12:22:23Z</time>
      </trkpt>
      <trkpt lat="45.90438" lon="5.74674">
        <ele>1190.2</ele>
        <time>2026-05-13T12:22:24Z</time>
      </trkpt>
      <trkpt lat="45.90436" lon="5.74674">
        <ele>1190.6</ele>
        <time>2026-05-13T12:22:25Z</time>
      </trkpt>
      <trkpt lat="45.90435" lon="5.74674">
        <ele>1190.6</ele>
        <time>2026-05-13T12:22:26Z</time>
      </trkpt>
      <trkpt lat="45.90433" lon="5.74675">
        <ele>1190.8</ele>
        <time>2026-05-13T12:22:27Z</time>
      </trkpt>
      <trkpt lat="45.90432" lon="5.74676">
        <ele>1190.8</ele>
        <time>2026-05-13T12:22:28Z</time>
      </trkpt>
      <trkpt lat="45.9043" lon="5.74676">
        <ele>1191.2</ele>
        <time>2026-05-13T12:22:29Z</time>
      </trkpt>
      <trkpt lat="45.90429" lon="5.74676">
        <ele>1191.4</ele>
        <time>2026-05-13T12:22:30Z</time>
      </trkpt>
      <trkpt lat="45.90427" lon="5.74676">
        <ele>1191.4</ele>
        <time>2026-05-13T12:22:31Z</time>
      </trkpt>
      <trkpt lat="45.90425" lon="5.74676">
        <ele>1191.6</ele>
        <time>2026-05-13T12:22:32Z</time>
      </trkpt>
      <trkpt lat="45.90424" lon="5.74676">
        <ele>1191.6</ele>
        <time>2026-05-13T12:22:33Z</time>
      </trkpt>
      <trkpt lat="45.90422" lon="5.74677">
        <ele>1191.6</ele>
        <time>2026-05-13T12:22:34Z</time>
      </trkpt>
      <trkpt lat="45.90421" lon="5.74677">
        <ele>1192</ele>
        <time>2026-05-13T12:22:35Z</time>
      </trkpt>
      <trkpt lat="45.90419" lon="5.74678">
        <ele>1192</ele>
        <time>2026-05-13T12:22:36Z</time>
      </trkpt>
      <trkpt lat="45.90417" lon="5.74678">
        <ele>1192</ele>
        <time>2026-05-13T12:22:37Z</time>
      </trkpt>
      <trkpt lat="45.90416" lon="5.74679">
        <ele>1192.2</ele>
        <time>2026-05-13T12:22:38Z</time>
      </trkpt>
      <trkpt lat="45.90415" lon="5.7468">
        <ele>1192.2</ele>
        <time>2026-05-13T12:22:39Z</time>
      </trkpt>
      <trkpt lat="45.90413" lon="5.7468">
        <ele>1192.4</ele>
        <time>2026-05-13T12:22:40Z</time>
      </trkpt>
      <trkpt lat="45.90412" lon="5.74681">
        <ele>1192.4</ele>
        <time>2026-05-13T12:22:41Z</time>
      </trkpt>
      <trkpt lat="45.9041" lon="5.74682">
        <ele>1192.4</ele>
        <time>2026-05-13T12:22:42Z</time>
      </trkpt>
      <trkpt lat="45.90408" lon="5.74682">
        <ele>1192.6</ele>
        <time>2026-05-13T12:22:43Z</time>
      </trkpt>
      <trkpt lat="45.90406" lon="5.74683">
        <ele>1192.6</ele>
        <time>2026-05-13T12:22:44Z</time>
      </trkpt>
      <trkpt lat="45.90405" lon="5.74683">
        <ele>1192.6</ele>
        <time>2026-05-13T12:22:45Z</time>
      </trkpt>
      <trkpt lat="45.90405" lon="5.74683">
        <ele>1193</ele>
        <time>2026-05-13T12:22:46Z</time>
      </trkpt>
      <trkpt lat="45.90403" lon="5.74684">
        <ele>1193</ele>
        <time>2026-05-13T12:22:47Z</time>
      </trkpt>
      <trkpt lat="45.90401" lon="5.74684">
        <ele>1193</ele>
        <time>2026-05-13T12:22:48Z</time>
      </trkpt>
      <trkpt lat="45.904" lon="5.74684">
        <ele>1193</ele>
        <time>2026-05-13T12:22:49Z</time>
      </trkpt>
      <trkpt lat="45.90398" lon="5.74685">
        <ele>1193.2</ele>
        <time>2026-05-13T12:22:50Z</time>
      </trkpt>
      <trkpt lat="45.90397" lon="5.74685">
        <ele>1193.2</ele>
        <time>2026-05-13T12:22:51Z</time>
      </trkpt>
      <trkpt lat="45.90395" lon="5.74686">
        <ele>1193.4</ele>
        <time>2026-05-13T12:22:52Z</time>
      </trkpt>
      <trkpt lat="45.90394" lon="5.74686">
        <ele>1193.4</ele>
        <time>2026-05-13T12:22:53Z</time>
      </trkpt>
      <trkpt lat="45.90392" lon="5.74687">
        <ele>1193.6</ele>
        <time>2026-05-13T12:22:54Z</time>
      </trkpt>
      <trkpt lat="45.9039" lon="5.74687">
        <ele>1193.6</ele>
        <time>2026-05-13T12:22:55Z</time>
      </trkpt>
      <trkpt lat="45.90388" lon="5.74687">
        <ele>1193.6</ele>
        <time>2026-05-13T12:22:56Z</time>
      </trkpt>
      <trkpt lat="45.90386" lon="5.74687">
        <ele>1193.8</ele>
        <time>2026-05-13T12:22:57Z</time>
      </trkpt>
      <trkpt lat="45.90385" lon="5.74688">
        <ele>1193.8</ele>
        <time>2026-05-13T12:22:58Z</time>
      </trkpt>
      <trkpt lat="45.90383" lon="5.74688">
        <ele>1193.8</ele>
        <time>2026-05-13T12:22:59Z</time>
      </trkpt>
      <trkpt lat="45.90381" lon="5.74689">
        <ele>1193.8</ele>
        <time>2026-05-13T12:23:00Z</time>
      </trkpt>
      <trkpt lat="45.90379" lon="5.7469">
        <ele>1194</ele>
        <time>2026-05-13T12:23:01Z</time>
      </trkpt>
      <trkpt lat="45.90378" lon="5.7469">
        <ele>1194</ele>
        <time>2026-05-13T12:23:02Z</time>
      </trkpt>
      <trkpt lat="45.90376" lon="5.7469">
        <ele>1194.4</ele>
        <time>2026-05-13T12:23:03Z</time>
      </trkpt>
      <trkpt lat="45.90374" lon="5.74691">
        <ele>1194.4</ele>
        <time>2026-05-13T12:23:04Z</time>
      </trkpt>
      <trkpt lat="45.90373" lon="5.74691">
        <ele>1194.4</ele>
        <time>2026-05-13T12:23:05Z</time>
      </trkpt>
      <trkpt lat="45.90371" lon="5.74691">
        <ele>1194.6</ele>
        <time>2026-05-13T12:23:06Z</time>
      </trkpt>
      <trkpt lat="45.90369" lon="5.74692">
        <ele>1194.6</ele>
        <time>2026-05-13T12:23:07Z</time>
      </trkpt>
      <trkpt lat="45.90367" lon="5.74692">
        <ele>1194.6</ele>
        <time>2026-05-13T12:23:08Z</time>
      </trkpt>
      <trkpt lat="45.90365" lon="5.74693">
        <ele>1194.6</ele>
        <time>2026-05-13T12:23:09Z</time>
      </trkpt>
      <trkpt lat="45.90363" lon="5.74693">
        <ele>1195</ele>
        <time>2026-05-13T12:23:10Z</time>
      </trkpt>
      <trkpt lat="45.90362" lon="5.74694">
        <ele>1195</ele>
        <time>2026-05-13T12:23:11Z</time>
      </trkpt>
      <trkpt lat="45.9036" lon="5.74694">
        <ele>1195</ele>
        <time>2026-05-13T12:23:12Z</time>
      </trkpt>
      <trkpt lat="45.90358" lon="5.74695">
        <ele>1195</ele>
        <time>2026-05-13T12:23:13Z</time>
      </trkpt>
      <trkpt lat="45.90356" lon="5.74695">
        <ele>1195</ele>
        <time>2026-05-13T12:23:14Z</time>
      </trkpt>
      <trkpt lat="45.90355" lon="5.74695">
        <ele>1195.4</ele>
        <time>2026-05-13T12:23:15Z</time>
      </trkpt>
      <trkpt lat="45.90353" lon="5.74695">
        <ele>1195.4</ele>
        <time>2026-05-13T12:23:16Z</time>
      </trkpt>
      <trkpt lat="45.90351" lon="5.74695">
        <ele>1195.6</ele>
        <time>2026-05-13T12:23:17Z</time>
      </trkpt>
      <trkpt lat="45.90349" lon="5.74696">
        <ele>1195.6</ele>
        <time>2026-05-13T12:23:18Z</time>
      </trkpt>
      <trkpt lat="45.90348" lon="5.74696">
        <ele>1195.6</ele>
        <time>2026-05-13T12:23:19Z</time>
      </trkpt>
      <trkpt lat="45.90346" lon="5.74696">
        <ele>1195.8</ele>
        <time>2026-05-13T12:23:20Z</time>
      </trkpt>
      <trkpt lat="45.90344" lon="5.74696">
        <ele>1195.8</ele>
        <time>2026-05-13T12:23:21Z</time>
      </trkpt>
      <trkpt lat="45.90342" lon="5.74696">
        <ele>1196.2</ele>
        <time>2026-05-13T12:23:22Z</time>
      </trkpt>
      <trkpt lat="45.90341" lon="5.74696">
        <ele>1196.4</ele>
        <time>2026-05-13T12:23:23Z</time>
      </trkpt>
      <trkpt lat="45.90339" lon="5.74697">
        <ele>1196.4</ele>
        <time>2026-05-13T12:23:24Z</time>
      </trkpt>
      <trkpt lat="45.90338" lon="5.74698">
        <ele>1196.4</ele>
        <time>2026-05-13T12:23:25Z</time>
      </trkpt>
      <trkpt lat="45.90336" lon="5.74699">
        <ele>1196.4</ele>
        <time>2026-05-13T12:23:26Z</time>
      </trkpt>
      <trkpt lat="45.90334" lon="5.747">
        <ele>1196.8</ele>
        <time>2026-05-13T12:23:27Z</time>
      </trkpt>
      <trkpt lat="45.90332" lon="5.747">
        <ele>1196.8</ele>
        <time>2026-05-13T12:23:28Z</time>
      </trkpt>
      <trkpt lat="45.90331" lon="5.74701">
        <ele>1196.8</ele>
        <time>2026-05-13T12:23:29Z</time>
      </trkpt>
      <trkpt lat="45.90329" lon="5.74702">
        <ele>1196.8</ele>
        <time>2026-05-13T12:23:30Z</time>
      </trkpt>
      <trkpt lat="45.90327" lon="5.74703">
        <ele>1196.8</ele>
        <time>2026-05-13T12:23:31Z</time>
      </trkpt>
      <trkpt lat="45.90325" lon="5.74705">
        <ele>1197</ele>
        <time>2026-05-13T12:23:32Z</time>
      </trkpt>
      <trkpt lat="45.90323" lon="5.74706">
        <ele>1197</ele>
        <time>2026-05-13T12:23:33Z</time>
      </trkpt>
      <trkpt lat="45.90322" lon="5.74707">
        <ele>1197.2</ele>
        <time>2026-05-13T12:23:34Z</time>
      </trkpt>
      <trkpt lat="45.9032" lon="5.74707">
        <ele>1197.2</ele>
        <time>2026-05-13T12:23:35Z</time>
      </trkpt>
      <trkpt lat="45.90319" lon="5.74707">
        <ele>1197.6</ele>
        <time>2026-05-13T12:23:36Z</time>
      </trkpt>
      <trkpt lat="45.90317" lon="5.74708">
        <ele>1197.6</ele>
        <time>2026-05-13T12:23:37Z</time>
      </trkpt>
      <trkpt lat="45.90315" lon="5.74708">
        <ele>1197.6</ele>
        <time>2026-05-13T12:23:38Z</time>
      </trkpt>
      <trkpt lat="45.90314" lon="5.74709">
        <ele>1197.8</ele>
        <time>2026-05-13T12:23:39Z</time>
      </trkpt>
      <trkpt lat="45.90312" lon="5.74709">
        <ele>1197.8</ele>
        <time>2026-05-13T12:23:40Z</time>
      </trkpt>
      <trkpt lat="45.9031" lon="5.7471">
        <ele>1198.2</ele>
        <time>2026-05-13T12:23:41Z</time>
      </trkpt>
      <trkpt lat="45.90308" lon="5.7471">
        <ele>1198.2</ele>
        <time>2026-05-13T12:23:42Z</time>
      </trkpt>
      <trkpt lat="45.90307" lon="5.74711">
        <ele>1198.2</ele>
        <time>2026-05-13T12:23:43Z</time>
      </trkpt>
      <trkpt lat="45.90305" lon="5.74711">
        <ele>1198.2</ele>
        <time>2026-05-13T12:23:44Z</time>
      </trkpt>
      <trkpt lat="45.90303" lon="5.74711">
        <ele>1198.4</ele>
        <time>2026-05-13T12:23:45Z</time>
      </trkpt>
      <trkpt lat="45.90301" lon="5.74711">
        <ele>1198.4</ele>
        <time>2026-05-13T12:23:46Z</time>
      </trkpt>
      <trkpt lat="45.90299" lon="5.74711">
        <ele>1198.4</ele>
        <time>2026-05-13T12:23:47Z</time>
      </trkpt>
      <trkpt lat="45.90297" lon="5.74711">
        <ele>1198.4</ele>
        <time>2026-05-13T12:23:48Z</time>
      </trkpt>
      <trkpt lat="45.90296" lon="5.74711">
        <ele>1198.4</ele>
        <time>2026-05-13T12:23:49Z</time>
      </trkpt>
      <trkpt lat="45.90294" lon="5.74711">
        <ele>1198.4</ele>
        <time>2026-05-13T12:23:50Z</time>
      </trkpt>
      <trkpt lat="45.90293" lon="5.74711">
        <ele>1198.6</ele>
        <time>2026-05-13T12:23:51Z</time>
      </trkpt>
      <trkpt lat="45.90291" lon="5.74712">
        <ele>1198.6</ele>
        <time>2026-05-13T12:23:52Z</time>
      </trkpt>
      <trkpt lat="45.9029" lon="5.74712">
        <ele>1198.6</ele>
        <time>2026-05-13T12:23:53Z</time>
      </trkpt>
      <trkpt lat="45.90289" lon="5.74712">
        <ele>1198.8</ele>
        <time>2026-05-13T12:23:54Z</time>
      </trkpt>
      <trkpt lat="45.90287" lon="5.74711">
        <ele>1198.8</ele>
        <time>2026-05-13T12:23:55Z</time>
      </trkpt>
      <trkpt lat="45.90285" lon="5.74711">
        <ele>1199</ele>
        <time>2026-05-13T12:23:56Z</time>
      </trkpt>
      <trkpt lat="45.90283" lon="5.74711">
        <ele>1199</ele>
        <time>2026-05-13T12:23:57Z</time>
      </trkpt>
      <trkpt lat="45.90281" lon="5.74711">
        <ele>1199.4</ele>
        <time>2026-05-13T12:23:58Z</time>
      </trkpt>
      <trkpt lat="45.90279" lon="5.74711">
        <ele>1199.4</ele>
        <time>2026-05-13T12:23:59Z</time>
      </trkpt>
      <trkpt lat="45.90277" lon="5.7471">
        <ele>1199.6</ele>
        <time>2026-05-13T12:24:00Z</time>
      </trkpt>
      <trkpt lat="45.90275" lon="5.7471">
        <ele>1199.6</ele>
        <time>2026-05-13T12:24:01Z</time>
      </trkpt>
      <trkpt lat="45.90273" lon="5.7471">
        <ele>1199.8</ele>
        <time>2026-05-13T12:24:02Z</time>
      </trkpt>
      <trkpt lat="45.90271" lon="5.7471">
        <ele>1199.8</ele>
        <time>2026-05-13T12:24:03Z</time>
      </trkpt>
      <trkpt lat="45.90269" lon="5.74709">
        <ele>1199.8</ele>
        <time>2026-05-13T12:24:04Z</time>
      </trkpt>
      <trkpt lat="45.90268" lon="5.74709">
        <ele>1199.8</ele>
        <time>2026-05-13T12:24:05Z</time>
      </trkpt>
      <trkpt lat="45.90263" lon="5.74709">
        <ele>1200.2</ele>
        <time>2026-05-13T12:24:06Z</time>
      </trkpt>
      <trkpt lat="45.90262" lon="5.74708">
        <ele>1200.2</ele>
        <time>2026-05-13T12:24:07Z</time>
      </trkpt>
      <trkpt lat="45.9026" lon="5.74708">
        <ele>1200.2</ele>
        <time>2026-05-13T12:24:08Z</time>
      </trkpt>
      <trkpt lat="45.90258" lon="5.74708">
        <ele>1200.2</ele>
        <time>2026-05-13T12:24:09Z</time>
      </trkpt>
      <trkpt lat="45.90256" lon="5.74708">
        <ele>1200.6</ele>
        <time>2026-05-13T12:24:10Z</time>
      </trkpt>
      <trkpt lat="45.90254" lon="5.74708">
        <ele>1200.8</ele>
        <time>2026-05-13T12:24:11Z</time>
      </trkpt>
      <trkpt lat="45.90252" lon="5.74708">
        <ele>1200.8</ele>
        <time>2026-05-13T12:24:12Z</time>
      </trkpt>
      <trkpt lat="45.9025" lon="5.74708">
        <ele>1200.8</ele>
        <time>2026-05-13T12:24:13Z</time>
      </trkpt>
      <trkpt lat="45.90248" lon="5.74707">
        <ele>1200.8</ele>
        <time>2026-05-13T12:24:14Z</time>
      </trkpt>
      <trkpt lat="45.90246" lon="5.74707">
        <ele>1200.8</ele>
        <time>2026-05-13T12:24:15Z</time>
      </trkpt>
      <trkpt lat="45.90244" lon="5.74707">
        <ele>1201.4</ele>
        <time>2026-05-13T12:24:16Z</time>
      </trkpt>
      <trkpt lat="45.90242" lon="5.74707">
        <ele>1201.6</ele>
        <time>2026-05-13T12:24:17Z</time>
      </trkpt>
      <trkpt lat="45.9024" lon="5.74707">
        <ele>1201.6</ele>
        <time>2026-05-13T12:24:18Z</time>
      </trkpt>
      <trkpt lat="45.90238" lon="5.74706">
        <ele>1201.6</ele>
        <time>2026-05-13T12:24:19Z</time>
      </trkpt>
      <trkpt lat="45.90236" lon="5.74706">
        <ele>1201.6</ele>
        <time>2026-05-13T12:24:20Z</time>
      </trkpt>
      <trkpt lat="45.90234" lon="5.74706">
        <ele>1201.6</ele>
        <time>2026-05-13T12:24:21Z</time>
      </trkpt>
      <trkpt lat="45.90232" lon="5.74705">
        <ele>1201.8</ele>
        <time>2026-05-13T12:24:22Z</time>
      </trkpt>
      <trkpt lat="45.9023" lon="5.74705">
        <ele>1201.8</ele>
        <time>2026-05-13T12:24:23Z</time>
      </trkpt>
      <trkpt lat="45.90228" lon="5.74705">
        <ele>1201.8</ele>
        <time>2026-05-13T12:24:24Z</time>
      </trkpt>
      <trkpt lat="45.90226" lon="5.74705">
        <ele>1202</ele>
        <time>2026-05-13T12:24:25Z</time>
      </trkpt>
      <trkpt lat="45.90224" lon="5.74705">
        <ele>1202.4</ele>
        <time>2026-05-13T12:24:26Z</time>
      </trkpt>
      <trkpt lat="45.90222" lon="5.74705">
        <ele>1202.4</ele>
        <time>2026-05-13T12:24:27Z</time>
      </trkpt>
      <trkpt lat="45.9022" lon="5.74705">
        <ele>1202.6</ele>
        <time>2026-05-13T12:24:28Z</time>
      </trkpt>
      <trkpt lat="45.90218" lon="5.74705">
        <ele>1202.6</ele>
        <time>2026-05-13T12:24:29Z</time>
      </trkpt>
      <trkpt lat="45.90216" lon="5.74705">
        <ele>1202.6</ele>
        <time>2026-05-13T12:24:30Z</time>
      </trkpt>
      <trkpt lat="45.90214" lon="5.74705">
        <ele>1202.8</ele>
        <time>2026-05-13T12:24:31Z</time>
      </trkpt>
      <trkpt lat="45.90211" lon="5.74705">
        <ele>1202.8</ele>
        <time>2026-05-13T12:24:32Z</time>
      </trkpt>
      <trkpt lat="45.90209" lon="5.74704">
        <ele>1202.8</ele>
        <time>2026-05-13T12:24:33Z</time>
      </trkpt>
      <trkpt lat="45.90208" lon="5.74705">
        <ele>1202.8</ele>
        <time>2026-05-13T12:24:34Z</time>
      </trkpt>
      <trkpt lat="45.90206" lon="5.74705">
        <ele>1203.2</ele>
        <time>2026-05-13T12:24:35Z</time>
      </trkpt>
      <trkpt lat="45.90204" lon="5.74706">
        <ele>1203.2</ele>
        <time>2026-05-13T12:24:36Z</time>
      </trkpt>
      <trkpt lat="45.90202" lon="5.74706">
        <ele>1203.4</ele>
        <time>2026-05-13T12:24:37Z</time>
      </trkpt>
      <trkpt lat="45.902" lon="5.74707">
        <ele>1203.4</ele>
        <time>2026-05-13T12:24:38Z</time>
      </trkpt>
      <trkpt lat="45.90198" lon="5.74707">
        <ele>1203.4</ele>
        <time>2026-05-13T12:24:39Z</time>
      </trkpt>
      <trkpt lat="45.90196" lon="5.74707">
        <ele>1203.8</ele>
        <time>2026-05-13T12:24:40Z</time>
      </trkpt>
      <trkpt lat="45.90194" lon="5.74707">
        <ele>1203.8</ele>
        <time>2026-05-13T12:24:41Z</time>
      </trkpt>
      <trkpt lat="45.90192" lon="5.74707">
        <ele>1204.2</ele>
        <time>2026-05-13T12:24:42Z</time>
      </trkpt>
      <trkpt lat="45.9019" lon="5.74707">
        <ele>1204.2</ele>
        <time>2026-05-13T12:24:43Z</time>
      </trkpt>
      <trkpt lat="45.90188" lon="5.74708">
        <ele>1204.2</ele>
        <time>2026-05-13T12:24:44Z</time>
      </trkpt>
      <trkpt lat="45.90186" lon="5.74708">
        <ele>1204.4</ele>
        <time>2026-05-13T12:24:45Z</time>
      </trkpt>
      <trkpt lat="45.90183" lon="5.74708">
        <ele>1204.4</ele>
        <time>2026-05-13T12:24:46Z</time>
      </trkpt>
      <trkpt lat="45.90181" lon="5.74708">
        <ele>1204.6</ele>
        <time>2026-05-13T12:24:47Z</time>
      </trkpt>
      <trkpt lat="45.90179" lon="5.74708">
        <ele>1204.6</ele>
        <time>2026-05-13T12:24:48Z</time>
      </trkpt>
      <trkpt lat="45.90176" lon="5.74709">
        <ele>1205</ele>
        <time>2026-05-13T12:24:49Z</time>
      </trkpt>
      <trkpt lat="45.90174" lon="5.74709">
        <ele>1205</ele>
        <time>2026-05-13T12:24:50Z</time>
      </trkpt>
      <trkpt lat="45.90172" lon="5.7471">
        <ele>1205.4</ele>
        <time>2026-05-13T12:24:51Z</time>
      </trkpt>
      <trkpt lat="45.90169" lon="5.74711">
        <ele>1205.4</ele>
        <time>2026-05-13T12:24:52Z</time>
      </trkpt>
      <trkpt lat="45.90167" lon="5.74712">
        <ele>1205.4</ele>
        <time>2026-05-13T12:24:53Z</time>
      </trkpt>
      <trkpt lat="45.90165" lon="5.74713">
        <ele>1205.8</ele>
        <time>2026-05-13T12:24:54Z</time>
      </trkpt>
      <trkpt lat="45.90162" lon="5.74714">
        <ele>1205.8</ele>
        <time>2026-05-13T12:24:55Z</time>
      </trkpt>
      <trkpt lat="45.9016" lon="5.74714">
        <ele>1205.8</ele>
        <time>2026-05-13T12:24:56Z</time>
      </trkpt>
      <trkpt lat="45.90158" lon="5.74714">
        <ele>1205.8</ele>
        <time>2026-05-13T12:24:57Z</time>
      </trkpt>
      <trkpt lat="45.90155" lon="5.74715">
        <ele>1206</ele>
        <time>2026-05-13T12:24:58Z</time>
      </trkpt>
      <trkpt lat="45.90152" lon="5.74715">
        <ele>1206</ele>
        <time>2026-05-13T12:24:59Z</time>
      </trkpt>
      <trkpt lat="45.90151" lon="5.74715">
        <ele>1206</ele>
        <time>2026-05-13T12:25:00Z</time>
      </trkpt>
      <trkpt lat="45.90148" lon="5.74715">
        <ele>1206</ele>
        <time>2026-05-13T12:25:01Z</time>
      </trkpt>
      <trkpt lat="45.90146" lon="5.74715">
        <ele>1206.4</ele>
        <time>2026-05-13T12:25:02Z</time>
      </trkpt>
      <trkpt lat="45.90144" lon="5.74716">
        <ele>1206.4</ele>
        <time>2026-05-13T12:25:03Z</time>
      </trkpt>
      <trkpt lat="45.90141" lon="5.74716">
        <ele>1206.8</ele>
        <time>2026-05-13T12:25:04Z</time>
      </trkpt>
      <trkpt lat="45.9014" lon="5.74717">
        <ele>1206.8</ele>
        <time>2026-05-13T12:25:05Z</time>
      </trkpt>
      <trkpt lat="45.90138" lon="5.74717">
        <ele>1206.8</ele>
        <time>2026-05-13T12:25:06Z</time>
      </trkpt>
      <trkpt lat="45.90136" lon="5.74717">
        <ele>1206.8</ele>
        <time>2026-05-13T12:25:07Z</time>
      </trkpt>
      <trkpt lat="45.90135" lon="5.74718">
        <ele>1207</ele>
        <time>2026-05-13T12:25:08Z</time>
      </trkpt>
      <trkpt lat="45.90133" lon="5.74719">
        <ele>1207</ele>
        <time>2026-05-13T12:25:09Z</time>
      </trkpt>
      <trkpt lat="45.90131" lon="5.7472">
        <ele>1207</ele>
        <time>2026-05-13T12:25:10Z</time>
      </trkpt>
      <trkpt lat="45.90129" lon="5.74722">
        <ele>1207</ele>
        <time>2026-05-13T12:25:11Z</time>
      </trkpt>
      <trkpt lat="45.90127" lon="5.74724">
        <ele>1207.4</ele>
        <time>2026-05-13T12:25:12Z</time>
      </trkpt>
      <trkpt lat="45.90126" lon="5.74726">
        <ele>1207.4</ele>
        <time>2026-05-13T12:25:13Z</time>
      </trkpt>
      <trkpt lat="45.90124" lon="5.74728">
        <ele>1207.4</ele>
        <time>2026-05-13T12:25:14Z</time>
      </trkpt>
      <trkpt lat="45.90123" lon="5.74729">
        <ele>1207.4</ele>
        <time>2026-05-13T12:25:15Z</time>
      </trkpt>
      <trkpt lat="45.90122" lon="5.74729">
        <ele>1207.4</ele>
        <time>2026-05-13T12:25:16Z</time>
      </trkpt>
      <trkpt lat="45.90119" lon="5.7473">
        <ele>1207.6</ele>
        <time>2026-05-13T12:25:17Z</time>
      </trkpt>
      <trkpt lat="45.90116" lon="5.74731">
        <ele>1207.6</ele>
        <time>2026-05-13T12:25:18Z</time>
      </trkpt>
      <trkpt lat="45.90114" lon="5.74732">
        <ele>1207.6</ele>
        <time>2026-05-13T12:25:19Z</time>
      </trkpt>
      <trkpt lat="45.90112" lon="5.74732">
        <ele>1207.8</ele>
        <time>2026-05-13T12:25:20Z</time>
      </trkpt>
      <trkpt lat="45.9011" lon="5.74733">
        <ele>1207.8</ele>
        <time>2026-05-13T12:25:21Z</time>
      </trkpt>
      <trkpt lat="45.90108" lon="5.74735">
        <ele>1208</ele>
        <time>2026-05-13T12:25:22Z</time>
      </trkpt>
      <trkpt lat="45.90107" lon="5.74736">
        <ele>1208</ele>
        <time>2026-05-13T12:25:23Z</time>
      </trkpt>
      <trkpt lat="45.90105" lon="5.74736">
        <ele>1208.4</ele>
        <time>2026-05-13T12:25:24Z</time>
      </trkpt>
      <trkpt lat="45.90103" lon="5.74738">
        <ele>1208.4</ele>
        <time>2026-05-13T12:25:25Z</time>
      </trkpt>
      <trkpt lat="45.90101" lon="5.7474">
        <ele>1208.6</ele>
        <time>2026-05-13T12:25:26Z</time>
      </trkpt>
      <trkpt lat="45.901" lon="5.74742">
        <ele>1208.6</ele>
        <time>2026-05-13T12:25:27Z</time>
      </trkpt>
      <trkpt lat="45.901" lon="5.74744">
        <ele>1208.8</ele>
        <time>2026-05-13T12:25:28Z</time>
      </trkpt>
      <trkpt lat="45.901" lon="5.74747">
        <ele>1208.8</ele>
        <time>2026-05-13T12:25:29Z</time>
      </trkpt>
      <trkpt lat="45.90099" lon="5.7475">
        <ele>1208.8</ele>
        <time>2026-05-13T12:25:30Z</time>
      </trkpt>
      <trkpt lat="45.90098" lon="5.74753">
        <ele>1208.8</ele>
        <time>2026-05-13T12:25:31Z</time>
      </trkpt>
      <trkpt lat="45.90097" lon="5.74756">
        <ele>1208.8</ele>
        <time>2026-05-13T12:25:32Z</time>
      </trkpt>
      <trkpt lat="45.90095" lon="5.74759">
        <ele>1209.2</ele>
        <time>2026-05-13T12:25:33Z</time>
      </trkpt>
      <trkpt lat="45.90094" lon="5.74761">
        <ele>1209.2</ele>
        <time>2026-05-13T12:25:34Z</time>
      </trkpt>
      <trkpt lat="45.90091" lon="5.74764">
        <ele>1209.2</ele>
        <time>2026-05-13T12:25:35Z</time>
      </trkpt>
      <trkpt lat="45.90089" lon="5.74766">
        <ele>1209.4</ele>
        <time>2026-05-13T12:25:36Z</time>
      </trkpt>
      <trkpt lat="45.90087" lon="5.74768">
        <ele>1209.4</ele>
        <time>2026-05-13T12:25:37Z</time>
      </trkpt>
      <trkpt lat="45.90085" lon="5.74772">
        <ele>1209.4</ele>
        <time>2026-05-13T12:25:38Z</time>
      </trkpt>
      <trkpt lat="45.90083" lon="5.74774">
        <ele>1209.6</ele>
        <time>2026-05-13T12:25:39Z</time>
      </trkpt>
      <trkpt lat="45.9008" lon="5.74776">
        <ele>1209.6</ele>
        <time>2026-05-13T12:25:40Z</time>
      </trkpt>
      <trkpt lat="45.90077" lon="5.74778">
        <ele>1209.6</ele>
        <time>2026-05-13T12:25:41Z</time>
      </trkpt>
      <trkpt lat="45.90074" lon="5.74779">
        <ele>1209.6</ele>
        <time>2026-05-13T12:25:42Z</time>
      </trkpt>
      <trkpt lat="45.90072" lon="5.74781">
        <ele>1210</ele>
        <time>2026-05-13T12:25:43Z</time>
      </trkpt>
      <trkpt lat="45.90069" lon="5.74783">
        <ele>1210</ele>
        <time>2026-05-13T12:25:44Z</time>
      </trkpt>
      <trkpt lat="45.90065" lon="5.74784">
        <ele>1210.2</ele>
        <time>2026-05-13T12:25:45Z</time>
      </trkpt>
      <trkpt lat="45.90062" lon="5.74785">
        <ele>1210.2</ele>
        <time>2026-05-13T12:25:46Z</time>
      </trkpt>
      <trkpt lat="45.90058" lon="5.74785">
        <ele>1210.2</ele>
        <time>2026-05-13T12:25:47Z</time>
      </trkpt>
      <trkpt lat="45.90054" lon="5.74785">
        <ele>1210.6</ele>
        <time>2026-05-13T12:25:48Z</time>
      </trkpt>
      <trkpt lat="45.90052" lon="5.74786">
        <ele>1210.6</ele>
        <time>2026-05-13T12:25:49Z</time>
      </trkpt>
      <trkpt lat="45.90049" lon="5.74788">
        <ele>1210.6</ele>
        <time>2026-05-13T12:25:50Z</time>
      </trkpt>
      <trkpt lat="45.90047" lon="5.7479">
        <ele>1210.6</ele>
        <time>2026-05-13T12:25:51Z</time>
      </trkpt>
      <trkpt lat="45.90044" lon="5.74792">
        <ele>1210.6</ele>
        <time>2026-05-13T12:25:52Z</time>
      </trkpt>
      <trkpt lat="45.90041" lon="5.74794">
        <ele>1210.4</ele>
        <time>2026-05-13T12:25:53Z</time>
      </trkpt>
      <trkpt lat="45.90039" lon="5.74796">
        <ele>1210.4</ele>
        <time>2026-05-13T12:25:54Z</time>
      </trkpt>
      <trkpt lat="45.90036" lon="5.74798">
        <ele>1210.4</ele>
        <time>2026-05-13T12:25:55Z</time>
      </trkpt>
      <trkpt lat="45.90034" lon="5.748">
        <ele>1210.8</ele>
        <time>2026-05-13T12:25:56Z</time>
      </trkpt>
      <trkpt lat="45.90032" lon="5.74802">
        <ele>1210.8</ele>
        <time>2026-05-13T12:25:57Z</time>
      </trkpt>
      <trkpt lat="45.9003" lon="5.74803">
        <ele>1210.8</ele>
        <time>2026-05-13T12:25:58Z</time>
      </trkpt>
      <trkpt lat="45.90027" lon="5.74805">
        <ele>1210.8</ele>
        <time>2026-05-13T12:25:59Z</time>
      </trkpt>
      <trkpt lat="45.90025" lon="5.74807">
        <ele>1211</ele>
        <time>2026-05-13T12:26:00Z</time>
      </trkpt>
      <trkpt lat="45.90024" lon="5.74809">
        <ele>1211</ele>
        <time>2026-05-13T12:26:01Z</time>
      </trkpt>
      <trkpt lat="45.90023" lon="5.74812">
        <ele>1211</ele>
        <time>2026-05-13T12:26:02Z</time>
      </trkpt>
      <trkpt lat="45.90022" lon="5.74815">
        <ele>1211</ele>
        <time>2026-05-13T12:26:03Z</time>
      </trkpt>
      <trkpt lat="45.90021" lon="5.74819">
        <ele>1211.2</ele>
        <time>2026-05-13T12:26:04Z</time>
      </trkpt>
      <trkpt lat="45.90019" lon="5.74822">
        <ele>1211.2</ele>
        <time>2026-05-13T12:26:05Z</time>
      </trkpt>
      <trkpt lat="45.90019" lon="5.74822">
        <ele>1211.2</ele>
        <time>2026-05-13T12:26:06Z</time>
      </trkpt>
      <trkpt lat="45.90017" lon="5.74824">
        <ele>1211.6</ele>
        <time>2026-05-13T12:26:07Z</time>
      </trkpt>
      <trkpt lat="45.90016" lon="5.74826">
        <ele>1211.8</ele>
        <time>2026-05-13T12:26:08Z</time>
      </trkpt>
      <trkpt lat="45.90016" lon="5.7483">
        <ele>1211.8</ele>
        <time>2026-05-13T12:26:09Z</time>
      </trkpt>
      <trkpt lat="45.90015" lon="5.74834">
        <ele>1211.8</ele>
        <time>2026-05-13T12:26:10Z</time>
      </trkpt>
      <trkpt lat="45.90014" lon="5.74837">
        <ele>1211.8</ele>
        <time>2026-05-13T12:26:11Z</time>
      </trkpt>
      <trkpt lat="45.90013" lon="5.7484">
        <ele>1212</ele>
        <time>2026-05-13T12:26:12Z</time>
      </trkpt>
      <trkpt lat="45.90011" lon="5.74844">
        <ele>1212</ele>
        <time>2026-05-13T12:26:13Z</time>
      </trkpt>
      <trkpt lat="45.90008" lon="5.74846">
        <ele>1212.2</ele>
        <time>2026-05-13T12:26:14Z</time>
      </trkpt>
      <trkpt lat="45.90006" lon="5.74848">
        <ele>1212.2</ele>
        <time>2026-05-13T12:26:15Z</time>
      </trkpt>
      <trkpt lat="45.90003" lon="5.7485">
        <ele>1212.6</ele>
        <time>2026-05-13T12:26:16Z</time>
      </trkpt>
      <trkpt lat="45.90001" lon="5.74851">
        <ele>1212.8</ele>
        <time>2026-05-13T12:26:17Z</time>
      </trkpt>
      <trkpt lat="45.89998" lon="5.74853">
        <ele>1212.8</ele>
        <time>2026-05-13T12:26:18Z</time>
      </trkpt>
      <trkpt lat="45.89995" lon="5.74853">
        <ele>1213</ele>
        <time>2026-05-13T12:26:19Z</time>
      </trkpt>
      <trkpt lat="45.89992" lon="5.74853">
        <ele>1213.2</ele>
        <time>2026-05-13T12:26:20Z</time>
      </trkpt>
      <trkpt lat="45.89989" lon="5.74853">
        <ele>1213.2</ele>
        <time>2026-05-13T12:26:21Z</time>
      </trkpt>
      <trkpt lat="45.89986" lon="5.74854">
        <ele>1213.2</ele>
        <time>2026-05-13T12:26:22Z</time>
      </trkpt>
      <trkpt lat="45.89984" lon="5.74855">
        <ele>1213.2</ele>
        <time>2026-05-13T12:26:23Z</time>
      </trkpt>
      <trkpt lat="45.89982" lon="5.74855">
        <ele>1213.2</ele>
        <time>2026-05-13T12:26:24Z</time>
      </trkpt>
      <trkpt lat="45.89979" lon="5.74857">
        <ele>1213.6</ele>
        <time>2026-05-13T12:26:25Z</time>
      </trkpt>
      <trkpt lat="45.89977" lon="5.74858">
        <ele>1214</ele>
        <time>2026-05-13T12:26:26Z</time>
      </trkpt>
      <trkpt lat="45.89975" lon="5.74858">
        <ele>1214</ele>
        <time>2026-05-13T12:26:27Z</time>
      </trkpt>
      <trkpt lat="45.89972" lon="5.74859">
        <ele>1214</ele>
        <time>2026-05-13T12:26:28Z</time>
      </trkpt>
      <trkpt lat="45.8997" lon="5.7486">
        <ele>1214.4</ele>
        <time>2026-05-13T12:26:29Z</time>
      </trkpt>
      <trkpt lat="45.89968" lon="5.74861">
        <ele>1214.6</ele>
        <time>2026-05-13T12:26:30Z</time>
      </trkpt>
      <trkpt lat="45.89966" lon="5.74861">
        <ele>1214.6</ele>
        <time>2026-05-13T12:26:31Z</time>
      </trkpt>
      <trkpt lat="45.89964" lon="5.74861">
        <ele>1214.8</ele>
        <time>2026-05-13T12:26:32Z</time>
      </trkpt>
      <trkpt lat="45.89961" lon="5.74861">
        <ele>1214.8</ele>
        <time>2026-05-13T12:26:33Z</time>
      </trkpt>
      <trkpt lat="45.89959" lon="5.74862">
        <ele>1214.8</ele>
        <time>2026-05-13T12:26:34Z</time>
      </trkpt>
      <trkpt lat="45.89957" lon="5.74863">
        <ele>1215</ele>
        <time>2026-05-13T12:26:35Z</time>
      </trkpt>
      <trkpt lat="45.89955" lon="5.74865">
        <ele>1215</ele>
        <time>2026-05-13T12:26:36Z</time>
      </trkpt>
      <trkpt lat="45.89953" lon="5.74866">
        <ele>1215.6</ele>
        <time>2026-05-13T12:26:37Z</time>
      </trkpt>
      <trkpt lat="45.89951" lon="5.74868">
        <ele>1215.6</ele>
        <time>2026-05-13T12:26:38Z</time>
      </trkpt>
      <trkpt lat="45.89949" lon="5.7487">
        <ele>1215.6</ele>
        <time>2026-05-13T12:26:39Z</time>
      </trkpt>
      <trkpt lat="45.89947" lon="5.74872">
        <ele>1215.8</ele>
        <time>2026-05-13T12:26:40Z</time>
      </trkpt>
      <trkpt lat="45.89945" lon="5.74874">
        <ele>1215.8</ele>
        <time>2026-05-13T12:26:41Z</time>
      </trkpt>
      <trkpt lat="45.89943" lon="5.74875">
        <ele>1216</ele>
        <time>2026-05-13T12:26:42Z</time>
      </trkpt>
      <trkpt lat="45.89941" lon="5.74877">
        <ele>1216</ele>
        <time>2026-05-13T12:26:43Z</time>
      </trkpt>
      <trkpt lat="45.89939" lon="5.74878">
        <ele>1216.4</ele>
        <time>2026-05-13T12:26:44Z</time>
      </trkpt>
      <trkpt lat="45.89938" lon="5.74879">
        <ele>1216.4</ele>
        <time>2026-05-13T12:26:45Z</time>
      </trkpt>
      <trkpt lat="45.89937" lon="5.74881">
        <ele>1216.6</ele>
        <time>2026-05-13T12:26:46Z</time>
      </trkpt>
      <trkpt lat="45.89936" lon="5.74884">
        <ele>1216.6</ele>
        <time>2026-05-13T12:26:47Z</time>
      </trkpt>
      <trkpt lat="45.89936" lon="5.74888">
        <ele>1216.8</ele>
        <time>2026-05-13T12:26:48Z</time>
      </trkpt>
      <trkpt lat="45.89934" lon="5.74891">
        <ele>1216.8</ele>
        <time>2026-05-13T12:26:49Z</time>
      </trkpt>
      <trkpt lat="45.89931" lon="5.74894">
        <ele>1217.2</ele>
        <time>2026-05-13T12:26:50Z</time>
      </trkpt>
      <trkpt lat="45.89929" lon="5.74897">
        <ele>1217.2</ele>
        <time>2026-05-13T12:26:51Z</time>
      </trkpt>
      <trkpt lat="45.89927" lon="5.74898">
        <ele>1217.4</ele>
        <time>2026-05-13T12:26:52Z</time>
      </trkpt>
      <trkpt lat="45.89925" lon="5.74899">
        <ele>1217.4</ele>
        <time>2026-05-13T12:26:53Z</time>
      </trkpt>
      <trkpt lat="45.89923" lon="5.749">
        <ele>1217.8</ele>
        <time>2026-05-13T12:26:54Z</time>
      </trkpt>
      <trkpt lat="45.89921" lon="5.74901">
        <ele>1218</ele>
        <time>2026-05-13T12:26:55Z</time>
      </trkpt>
      <trkpt lat="45.89918" lon="5.749">
        <ele>1218</ele>
        <time>2026-05-13T12:26:56Z</time>
      </trkpt>
      <trkpt lat="45.89916" lon="5.74901">
        <ele>1218</ele>
        <time>2026-05-13T12:26:57Z</time>
      </trkpt>
      <trkpt lat="45.89915" lon="5.74901">
        <ele>1218.4</ele>
        <time>2026-05-13T12:26:58Z</time>
      </trkpt>
      <trkpt lat="45.89913" lon="5.74903">
        <ele>1218.4</ele>
        <time>2026-05-13T12:26:59Z</time>
      </trkpt>
      <trkpt lat="45.89911" lon="5.74905">
        <ele>1218.6</ele>
        <time>2026-05-13T12:27:00Z</time>
      </trkpt>
      <trkpt lat="45.89909" lon="5.74907">
        <ele>1218.6</ele>
        <time>2026-05-13T12:27:01Z</time>
      </trkpt>
      <trkpt lat="45.89908" lon="5.74909">
        <ele>1218.6</ele>
        <time>2026-05-13T12:27:02Z</time>
      </trkpt>
      <trkpt lat="45.89907" lon="5.7491">
        <ele>1219</ele>
        <time>2026-05-13T12:27:03Z</time>
      </trkpt>
      <trkpt lat="45.89905" lon="5.74913">
        <ele>1219.2</ele>
        <time>2026-05-13T12:27:04Z</time>
      </trkpt>
      <trkpt lat="45.89904" lon="5.74915">
        <ele>1219.2</ele>
        <time>2026-05-13T12:27:05Z</time>
      </trkpt>
      <trkpt lat="45.89902" lon="5.74917">
        <ele>1219.4</ele>
        <time>2026-05-13T12:27:06Z</time>
      </trkpt>
      <trkpt lat="45.899" lon="5.74919">
        <ele>1219.4</ele>
        <time>2026-05-13T12:27:07Z</time>
      </trkpt>
      <trkpt lat="45.89897" lon="5.74921">
        <ele>1219.6</ele>
        <time>2026-05-13T12:27:08Z</time>
      </trkpt>
      <trkpt lat="45.89896" lon="5.74922">
        <ele>1219.6</ele>
        <time>2026-05-13T12:27:09Z</time>
      </trkpt>
      <trkpt lat="45.89893" lon="5.74924">
        <ele>1219.6</ele>
        <time>2026-05-13T12:27:10Z</time>
      </trkpt>
      <trkpt lat="45.89891" lon="5.74924">
        <ele>1220</ele>
        <time>2026-05-13T12:27:11Z</time>
      </trkpt>
      <trkpt lat="45.89889" lon="5.74926">
        <ele>1220.2</ele>
        <time>2026-05-13T12:27:12Z</time>
      </trkpt>
      <trkpt lat="45.89887" lon="5.74927">
        <ele>1220.4</ele>
        <time>2026-05-13T12:27:13Z</time>
      </trkpt>
      <trkpt lat="45.89885" lon="5.74929">
        <ele>1220.8</ele>
        <time>2026-05-13T12:27:14Z</time>
      </trkpt>
      <trkpt lat="45.89883" lon="5.7493">
        <ele>1220.8</ele>
        <time>2026-05-13T12:27:15Z</time>
      </trkpt>
      <trkpt lat="45.89881" lon="5.74931">
        <ele>1221</ele>
        <time>2026-05-13T12:27:16Z</time>
      </trkpt>
      <trkpt lat="45.89879" lon="5.74933">
        <ele>1221</ele>
        <time>2026-05-13T12:27:17Z</time>
      </trkpt>
      <trkpt lat="45.89877" lon="5.74934">
        <ele>1221.4</ele>
        <time>2026-05-13T12:27:18Z</time>
      </trkpt>
      <trkpt lat="45.89875" lon="5.74935">
        <ele>1221.4</ele>
        <time>2026-05-13T12:27:19Z</time>
      </trkpt>
      <trkpt lat="45.89873" lon="5.74937">
        <ele>1221.6</ele>
        <time>2026-05-13T12:27:20Z</time>
      </trkpt>
      <trkpt lat="45.89871" lon="5.74938">
        <ele>1221.6</ele>
        <time>2026-05-13T12:27:21Z</time>
      </trkpt>
      <trkpt lat="45.8987" lon="5.74939">
        <ele>1221.6</ele>
        <time>2026-05-13T12:27:22Z</time>
      </trkpt>
      <trkpt lat="45.89867" lon="5.74941">
        <ele>1221.6</ele>
        <time>2026-05-13T12:27:23Z</time>
      </trkpt>
      <trkpt lat="45.89865" lon="5.74944">
        <ele>1221.8</ele>
        <time>2026-05-13T12:27:24Z</time>
      </trkpt>
      <trkpt lat="45.89863" lon="5.74945">
        <ele>1221.8</ele>
        <time>2026-05-13T12:27:25Z</time>
      </trkpt>
      <trkpt lat="45.89861" lon="5.74947">
        <ele>1222</ele>
        <time>2026-05-13T12:27:26Z</time>
      </trkpt>
      <trkpt lat="45.89859" lon="5.74948">
        <ele>1222</ele>
        <time>2026-05-13T12:27:27Z</time>
      </trkpt>
      <trkpt lat="45.89855" lon="5.74952">
        <ele>1222</ele>
        <time>2026-05-13T12:27:28Z</time>
      </trkpt>
      <trkpt lat="45.89853" lon="5.74953">
        <ele>1222</ele>
        <time>2026-05-13T12:27:29Z</time>
      </trkpt>
      <trkpt lat="45.8985" lon="5.74954">
        <ele>1222.2</ele>
        <time>2026-05-13T12:27:30Z</time>
      </trkpt>
      <trkpt lat="45.89848" lon="5.74956">
        <ele>1222.2</ele>
        <time>2026-05-13T12:27:31Z</time>
      </trkpt>
      <trkpt lat="45.89847" lon="5.74957">
        <ele>1222.6</ele>
        <time>2026-05-13T12:27:32Z</time>
      </trkpt>
      <trkpt lat="45.89844" lon="5.7496">
        <ele>1222.8</ele>
        <time>2026-05-13T12:27:33Z</time>
      </trkpt>
      <trkpt lat="45.89842" lon="5.74961">
        <ele>1222.8</ele>
        <time>2026-05-13T12:27:34Z</time>
      </trkpt>
      <trkpt lat="45.8984" lon="5.74963">
        <ele>1222.8</ele>
        <time>2026-05-13T12:27:35Z</time>
      </trkpt>
      <trkpt lat="45.89838" lon="5.74965">
        <ele>1223.2</ele>
        <time>2026-05-13T12:27:36Z</time>
      </trkpt>
      <trkpt lat="45.89836" lon="5.74966">
        <ele>1223.2</ele>
        <time>2026-05-13T12:27:37Z</time>
      </trkpt>
      <trkpt lat="45.89834" lon="5.74968">
        <ele>1223.2</ele>
        <time>2026-05-13T12:27:38Z</time>
      </trkpt>
      <trkpt lat="45.89833" lon="5.74971">
        <ele>1223.2</ele>
        <time>2026-05-13T12:27:39Z</time>
      </trkpt>
      <trkpt lat="45.89831" lon="5.74975">
        <ele>1223.2</ele>
        <time>2026-05-13T12:27:40Z</time>
      </trkpt>
      <trkpt lat="45.8983" lon="5.74978">
        <ele>1223.2</ele>
        <time>2026-05-13T12:27:41Z</time>
      </trkpt>
      <trkpt lat="45.89828" lon="5.74981">
        <ele>1223.2</ele>
        <time>2026-05-13T12:27:42Z</time>
      </trkpt>
      <trkpt lat="45.89827" lon="5.74984">
        <ele>1223.2</ele>
        <time>2026-05-13T12:27:43Z</time>
      </trkpt>
      <trkpt lat="45.89826" lon="5.74987">
        <ele>1223.2</ele>
        <time>2026-05-13T12:27:44Z</time>
      </trkpt>
      <trkpt lat="45.89824" lon="5.7499">
        <ele>1223.2</ele>
        <time>2026-05-13T12:27:45Z</time>
      </trkpt>
      <trkpt lat="45.89823" lon="5.74993">
        <ele>1223.2</ele>
        <time>2026-05-13T12:27:46Z</time>
      </trkpt>
      <trkpt lat="45.89821" lon="5.74996">
        <ele>1223.2</ele>
        <time>2026-05-13T12:27:47Z</time>
      </trkpt>
      <trkpt lat="45.89819" lon="5.74999">
        <ele>1223.2</ele>
        <time>2026-05-13T12:27:48Z</time>
      </trkpt>
      <trkpt lat="45.89817" lon="5.75002">
        <ele>1223.2</ele>
        <time>2026-05-13T12:27:49Z</time>
      </trkpt>
      <trkpt lat="45.89815" lon="5.75005">
        <ele>1223.2</ele>
        <time>2026-05-13T12:27:50Z</time>
      </trkpt>
      <trkpt lat="45.89815" lon="5.75007">
        <ele>1223.4</ele>
        <time>2026-05-13T12:27:51Z</time>
      </trkpt>
      <trkpt lat="45.89814" lon="5.75009">
        <ele>1223.4</ele>
        <time>2026-05-13T12:27:52Z</time>
      </trkpt>
      <trkpt lat="45.89812" lon="5.75012">
        <ele>1223.6</ele>
        <time>2026-05-13T12:27:53Z</time>
      </trkpt>
      <trkpt lat="45.89811" lon="5.75016">
        <ele>1223.8</ele>
        <time>2026-05-13T12:27:54Z</time>
      </trkpt>
      <trkpt lat="45.8981" lon="5.75019">
        <ele>1223.8</ele>
        <time>2026-05-13T12:27:55Z</time>
      </trkpt>
      <trkpt lat="45.89809" lon="5.75023">
        <ele>1224</ele>
        <time>2026-05-13T12:27:56Z</time>
      </trkpt>
      <trkpt lat="45.89807" lon="5.75026">
        <ele>1224</ele>
        <time>2026-05-13T12:27:57Z</time>
      </trkpt>
      <trkpt lat="45.89805" lon="5.75029">
        <ele>1224</ele>
        <time>2026-05-13T12:27:58Z</time>
      </trkpt>
      <trkpt lat="45.89803" lon="5.75032">
        <ele>1224</ele>
        <time>2026-05-13T12:27:59Z</time>
      </trkpt>
      <trkpt lat="45.89802" lon="5.75035">
        <ele>1224</ele>
        <time>2026-05-13T12:28:00Z</time>
      </trkpt>
      <trkpt lat="45.89801" lon="5.75037">
        <ele>1224.2</ele>
        <time>2026-05-13T12:28:01Z</time>
      </trkpt>
      <trkpt lat="45.89799" lon="5.7504">
        <ele>1224.2</ele>
        <time>2026-05-13T12:28:02Z</time>
      </trkpt>
      <trkpt lat="45.89798" lon="5.75042">
        <ele>1224.2</ele>
        <time>2026-05-13T12:28:03Z</time>
      </trkpt>
      <trkpt lat="45.89797" lon="5.75043">
        <ele>1224.2</ele>
        <time>2026-05-13T12:28:04Z</time>
      </trkpt>
      <trkpt lat="45.89796" lon="5.75043">
        <ele>1224.4</ele>
        <time>2026-05-13T12:28:05Z</time>
      </trkpt>
      <trkpt lat="45.89795" lon="5.75045">
        <ele>1224.4</ele>
        <time>2026-05-13T12:28:06Z</time>
      </trkpt>
      <trkpt lat="45.89794" lon="5.75047">
        <ele>1224.4</ele>
        <time>2026-05-13T12:28:07Z</time>
      </trkpt>
      <trkpt lat="45.89794" lon="5.75049">
        <ele>1224.4</ele>
        <time>2026-05-13T12:28:08Z</time>
      </trkpt>
      <trkpt lat="45.89794" lon="5.75052">
        <ele>1224.4</ele>
        <time>2026-05-13T12:28:09Z</time>
      </trkpt>
      <trkpt lat="45.89793" lon="5.75054">
        <ele>1224.8</ele>
        <time>2026-05-13T12:28:10Z</time>
      </trkpt>
      <trkpt lat="45.89792" lon="5.75057">
        <ele>1224.8</ele>
        <time>2026-05-13T12:28:11Z</time>
      </trkpt>
      <trkpt lat="45.8979" lon="5.7506">
        <ele>1224.8</ele>
        <time>2026-05-13T12:28:12Z</time>
      </trkpt>
      <trkpt lat="45.89788" lon="5.75063">
        <ele>1224.8</ele>
        <time>2026-05-13T12:28:13Z</time>
      </trkpt>
      <trkpt lat="45.89786" lon="5.75065">
        <ele>1225</ele>
        <time>2026-05-13T12:28:14Z</time>
      </trkpt>
      <trkpt lat="45.89784" lon="5.75068">
        <ele>1225</ele>
        <time>2026-05-13T12:28:15Z</time>
      </trkpt>
      <trkpt lat="45.89783" lon="5.7507">
        <ele>1225</ele>
        <time>2026-05-13T12:28:16Z</time>
      </trkpt>
      <trkpt lat="45.89782" lon="5.75072">
        <ele>1225.4</ele>
        <time>2026-05-13T12:28:17Z</time>
      </trkpt>
      <trkpt lat="45.8978" lon="5.75075">
        <ele>1225.4</ele>
        <time>2026-05-13T12:28:18Z</time>
      </trkpt>
      <trkpt lat="45.89779" lon="5.75078">
        <ele>1225.4</ele>
        <time>2026-05-13T12:28:19Z</time>
      </trkpt>
      <trkpt lat="45.89777" lon="5.7508">
        <ele>1225.8</ele>
        <time>2026-05-13T12:28:20Z</time>
      </trkpt>
      <trkpt lat="45.89775" lon="5.75083">
        <ele>1225.8</ele>
        <time>2026-05-13T12:28:21Z</time>
      </trkpt>
      <trkpt lat="45.89773" lon="5.75085">
        <ele>1226</ele>
        <time>2026-05-13T12:28:22Z</time>
      </trkpt>
      <trkpt lat="45.89772" lon="5.75088">
        <ele>1226.4</ele>
        <time>2026-05-13T12:28:23Z</time>
      </trkpt>
      <trkpt lat="45.89771" lon="5.7509">
        <ele>1226.4</ele>
        <time>2026-05-13T12:28:24Z</time>
      </trkpt>
      <trkpt lat="45.89769" lon="5.75093">
        <ele>1226.6</ele>
        <time>2026-05-13T12:28:25Z</time>
      </trkpt>
      <trkpt lat="45.89767" lon="5.75095">
        <ele>1226.8</ele>
        <time>2026-05-13T12:28:26Z</time>
      </trkpt>
      <trkpt lat="45.89766" lon="5.75098">
        <ele>1226.8</ele>
        <time>2026-05-13T12:28:27Z</time>
      </trkpt>
      <trkpt lat="45.89764" lon="5.751">
        <ele>1226.8</ele>
        <time>2026-05-13T12:28:28Z</time>
      </trkpt>
      <trkpt lat="45.89762" lon="5.75102">
        <ele>1227.2</ele>
        <time>2026-05-13T12:28:29Z</time>
      </trkpt>
      <trkpt lat="45.8976" lon="5.75104">
        <ele>1227.2</ele>
        <time>2026-05-13T12:28:30Z</time>
      </trkpt>
      <trkpt lat="45.89759" lon="5.75106">
        <ele>1227.6</ele>
        <time>2026-05-13T12:28:31Z</time>
      </trkpt>
      <trkpt lat="45.89757" lon="5.7511">
        <ele>1227.8</ele>
        <time>2026-05-13T12:28:32Z</time>
      </trkpt>
      <trkpt lat="45.89756" lon="5.75112">
        <ele>1227.8</ele>
        <time>2026-05-13T12:28:33Z</time>
      </trkpt>
      <trkpt lat="45.89755" lon="5.75115">
        <ele>1228.2</ele>
        <time>2026-05-13T12:28:34Z</time>
      </trkpt>
      <trkpt lat="45.89754" lon="5.75117">
        <ele>1227.2</ele>
        <time>2026-05-13T12:28:35Z</time>
      </trkpt>
      <trkpt lat="45.89752" lon="5.75119">
        <ele>1227.8</ele>
        <time>2026-05-13T12:28:36Z</time>
      </trkpt>
      <trkpt lat="45.89751" lon="5.75121">
        <ele>1227.8</ele>
        <time>2026-05-13T12:28:37Z</time>
      </trkpt>
      <trkpt lat="45.8975" lon="5.75123">
        <ele>1228.2</ele>
        <time>2026-05-13T12:28:38Z</time>
      </trkpt>
      <trkpt lat="45.89749" lon="5.75126">
        <ele>1228.2</ele>
        <time>2026-05-13T12:28:39Z</time>
      </trkpt>
      <trkpt lat="45.89747" lon="5.75128">
        <ele>1228.4</ele>
        <time>2026-05-13T12:28:40Z</time>
      </trkpt>
      <trkpt lat="45.89746" lon="5.7513">
        <ele>1228.8</ele>
        <time>2026-05-13T12:28:41Z</time>
      </trkpt>
      <trkpt lat="45.89744" lon="5.75132">
        <ele>1229.2</ele>
        <time>2026-05-13T12:28:42Z</time>
      </trkpt>
      <trkpt lat="45.89743" lon="5.75133">
        <ele>1229.2</ele>
        <time>2026-05-13T12:28:43Z</time>
      </trkpt>
      <trkpt lat="45.89742" lon="5.75135">
        <ele>1229.4</ele>
        <time>2026-05-13T12:28:44Z</time>
      </trkpt>
      <trkpt lat="45.89741" lon="5.75137">
        <ele>1229.8</ele>
        <time>2026-05-13T12:28:45Z</time>
      </trkpt>
      <trkpt lat="45.89739" lon="5.75139">
        <ele>1230</ele>
        <time>2026-05-13T12:28:46Z</time>
      </trkpt>
      <trkpt lat="45.89737" lon="5.75141">
        <ele>1230</ele>
        <time>2026-05-13T12:28:47Z</time>
      </trkpt>
      <trkpt lat="45.89736" lon="5.75142">
        <ele>1230.2</ele>
        <time>2026-05-13T12:28:48Z</time>
      </trkpt>
      <trkpt lat="45.89736" lon="5.75143">
        <ele>1230.6</ele>
        <time>2026-05-13T12:28:49Z</time>
      </trkpt>
      <trkpt lat="45.89735" lon="5.75144">
        <ele>1230.6</ele>
        <time>2026-05-13T12:28:50Z</time>
      </trkpt>
      <trkpt lat="45.89733" lon="5.75146">
        <ele>1231</ele>
        <time>2026-05-13T12:28:51Z</time>
      </trkpt>
      <trkpt lat="45.89732" lon="5.75149">
        <ele>1231</ele>
        <time>2026-05-13T12:28:52Z</time>
      </trkpt>
      <trkpt lat="45.8973" lon="5.75152">
        <ele>1231.4</ele>
        <time>2026-05-13T12:28:53Z</time>
      </trkpt>
      <trkpt lat="45.89729" lon="5.75155">
        <ele>1231.6</ele>
        <time>2026-05-13T12:28:54Z</time>
      </trkpt>
      <trkpt lat="45.89728" lon="5.75157">
        <ele>1231.8</ele>
        <time>2026-05-13T12:28:55Z</time>
      </trkpt>
      <trkpt lat="45.89726" lon="5.75158">
        <ele>1232</ele>
        <time>2026-05-13T12:28:56Z</time>
      </trkpt>
      <trkpt lat="45.89725" lon="5.75159">
        <ele>1232.4</ele>
        <time>2026-05-13T12:28:57Z</time>
      </trkpt>
      <trkpt lat="45.89724" lon="5.75161">
        <ele>1232.4</ele>
        <time>2026-05-13T12:28:58Z</time>
      </trkpt>
      <trkpt lat="45.89724" lon="5.75163">
        <ele>1232.6</ele>
        <time>2026-05-13T12:28:59Z</time>
      </trkpt>
      <trkpt lat="45.89723" lon="5.75165">
        <ele>1232.6</ele>
        <time>2026-05-13T12:29:00Z</time>
      </trkpt>
      <trkpt lat="45.89722" lon="5.75167">
        <ele>1233</ele>
        <time>2026-05-13T12:29:01Z</time>
      </trkpt>
      <trkpt lat="45.89721" lon="5.75169">
        <ele>1233.2</ele>
        <time>2026-05-13T12:29:02Z</time>
      </trkpt>
      <trkpt lat="45.8972" lon="5.75171">
        <ele>1233.2</ele>
        <time>2026-05-13T12:29:03Z</time>
      </trkpt>
      <trkpt lat="45.8972" lon="5.75174">
        <ele>1233.6</ele>
        <time>2026-05-13T12:29:04Z</time>
      </trkpt>
      <trkpt lat="45.8972" lon="5.75177">
        <ele>1233.6</ele>
        <time>2026-05-13T12:29:05Z</time>
      </trkpt>
      <trkpt lat="45.89721" lon="5.7518">
        <ele>1233.8</ele>
        <time>2026-05-13T12:29:06Z</time>
      </trkpt>
      <trkpt lat="45.89722" lon="5.75182">
        <ele>1233.8</ele>
        <time>2026-05-13T12:29:07Z</time>
      </trkpt>
      <trkpt lat="45.89723" lon="5.75185">
        <ele>1233.8</ele>
        <time>2026-05-13T12:29:08Z</time>
      </trkpt>
      <trkpt lat="45.89724" lon="5.75186">
        <ele>1234</ele>
        <time>2026-05-13T12:29:09Z</time>
      </trkpt>
      <trkpt lat="45.89724" lon="5.75189">
        <ele>1234</ele>
        <time>2026-05-13T12:29:10Z</time>
      </trkpt>
      <trkpt lat="45.89726" lon="5.75192">
        <ele>1234</ele>
        <time>2026-05-13T12:29:11Z</time>
      </trkpt>
      <trkpt lat="45.89728" lon="5.75194">
        <ele>1234</ele>
        <time>2026-05-13T12:29:12Z</time>
      </trkpt>
      <trkpt lat="45.89729" lon="5.75197">
        <ele>1234.2</ele>
        <time>2026-05-13T12:29:13Z</time>
      </trkpt>
      <trkpt lat="45.89731" lon="5.752">
        <ele>1234.2</ele>
        <time>2026-05-13T12:29:14Z</time>
      </trkpt>
      <trkpt lat="45.89733" lon="5.75202">
        <ele>1234.4</ele>
        <time>2026-05-13T12:29:15Z</time>
      </trkpt>
      <trkpt lat="45.89733" lon="5.75202">
        <ele>1234.4</ele>
        <time>2026-05-13T12:29:16Z</time>
      </trkpt>
      <trkpt lat="45.89733" lon="5.75202">
        <ele>1234.4</ele>
        <time>2026-05-13T12:29:17Z</time>
      </trkpt>
      <trkpt lat="45.89742" lon="5.7521">
        <ele>1234.4</ele>
        <time>2026-05-13T12:29:19Z</time>
      </trkpt>
      <trkpt lat="45.89745" lon="5.75212">
        <ele>1234.4</ele>
        <time>2026-05-13T12:29:20Z</time>
      </trkpt>
      <trkpt lat="45.89747" lon="5.75214">
        <ele>1234.4</ele>
        <time>2026-05-13T12:29:21Z</time>
      </trkpt>
      <trkpt lat="45.8975" lon="5.75216">
        <ele>1234.4</ele>
        <time>2026-05-13T12:29:22Z</time>
      </trkpt>
      <trkpt lat="45.89752" lon="5.75218">
        <ele>1234.4</ele>
        <time>2026-05-13T12:29:23Z</time>
      </trkpt>
      <trkpt lat="45.89754" lon="5.75219">
        <ele>1234.4</ele>
        <time>2026-05-13T12:29:24Z</time>
      </trkpt>
      <trkpt lat="45.89757" lon="5.75221">
        <ele>1234.8</ele>
        <time>2026-05-13T12:29:25Z</time>
      </trkpt>
      <trkpt lat="45.89759" lon="5.75224">
        <ele>1234.8</ele>
        <time>2026-05-13T12:29:26Z</time>
      </trkpt>
      <trkpt lat="45.89762" lon="5.75226">
        <ele>1234.8</ele>
        <time>2026-05-13T12:29:27Z</time>
      </trkpt>
      <trkpt lat="45.89764" lon="5.75227">
        <ele>1234.8</ele>
        <time>2026-05-13T12:29:28Z</time>
      </trkpt>
      <trkpt lat="45.89767" lon="5.75229">
        <ele>1234.8</ele>
        <time>2026-05-13T12:29:29Z</time>
      </trkpt>
      <trkpt lat="45.89769" lon="5.75231">
        <ele>1234.8</ele>
        <time>2026-05-13T12:29:30Z</time>
      </trkpt>
      <trkpt lat="45.89772" lon="5.75233">
        <ele>1234.8</ele>
        <time>2026-05-13T12:29:31Z</time>
      </trkpt>
      <trkpt lat="45.89774" lon="5.75236">
        <ele>1234.8</ele>
        <time>2026-05-13T12:29:32Z</time>
      </trkpt>
      <trkpt lat="45.89776" lon="5.75238">
        <ele>1235</ele>
        <time>2026-05-13T12:29:33Z</time>
      </trkpt>
      <trkpt lat="45.89779" lon="5.7524">
        <ele>1235</ele>
        <time>2026-05-13T12:29:34Z</time>
      </trkpt>
      <trkpt lat="45.89781" lon="5.75241">
        <ele>1235</ele>
        <time>2026-05-13T12:29:35Z</time>
      </trkpt>
      <trkpt lat="45.89784" lon="5.75242">
        <ele>1235</ele>
        <time>2026-05-13T12:29:36Z</time>
      </trkpt>
      <trkpt lat="45.89787" lon="5.75243">
        <ele>1235</ele>
        <time>2026-05-13T12:29:37Z</time>
      </trkpt>
      <trkpt lat="45.89789" lon="5.75245">
        <ele>1235</ele>
        <time>2026-05-13T12:29:38Z</time>
      </trkpt>
      <trkpt lat="45.89792" lon="5.75246">
        <ele>1235.2</ele>
        <time>2026-05-13T12:29:39Z</time>
      </trkpt>
      <trkpt lat="45.89795" lon="5.75248">
        <ele>1235.4</ele>
        <time>2026-05-13T12:29:40Z</time>
      </trkpt>
      <trkpt lat="45.89798" lon="5.7525">
        <ele>1235.4</ele>
        <time>2026-05-13T12:29:41Z</time>
      </trkpt>
      <trkpt lat="45.89801" lon="5.75252">
        <ele>1235.4</ele>
        <time>2026-05-13T12:29:42Z</time>
      </trkpt>
      <trkpt lat="45.89804" lon="5.75253">
        <ele>1235.4</ele>
        <time>2026-05-13T12:29:43Z</time>
      </trkpt>
      <trkpt lat="45.89807" lon="5.75255">
        <ele>1235.8</ele>
        <time>2026-05-13T12:29:44Z</time>
      </trkpt>
      <trkpt lat="45.89809" lon="5.75257">
        <ele>1235.8</ele>
        <time>2026-05-13T12:29:45Z</time>
      </trkpt>
      <trkpt lat="45.89812" lon="5.75259">
        <ele>1235.8</ele>
        <time>2026-05-13T12:29:46Z</time>
      </trkpt>
      <trkpt lat="45.89815" lon="5.75261">
        <ele>1235.8</ele>
        <time>2026-05-13T12:29:47Z</time>
      </trkpt>
      <trkpt lat="45.89817" lon="5.75263">
        <ele>1235.8</ele>
        <time>2026-05-13T12:29:48Z</time>
      </trkpt>
      <trkpt lat="45.8982" lon="5.75264">
        <ele>1236</ele>
        <time>2026-05-13T12:29:49Z</time>
      </trkpt>
      <trkpt lat="45.89822" lon="5.75266">
        <ele>1236</ele>
        <time>2026-05-13T12:29:50Z</time>
      </trkpt>
      <trkpt lat="45.89824" lon="5.75267">
        <ele>1236</ele>
        <time>2026-05-13T12:29:51Z</time>
      </trkpt>
      <trkpt lat="45.89826" lon="5.75269">
        <ele>1236</ele>
        <time>2026-05-13T12:29:52Z</time>
      </trkpt>
      <trkpt lat="45.89828" lon="5.75272">
        <ele>1236</ele>
        <time>2026-05-13T12:29:53Z</time>
      </trkpt>
      <trkpt lat="45.89831" lon="5.75274">
        <ele>1236</ele>
        <time>2026-05-13T12:29:54Z</time>
      </trkpt>
      <trkpt lat="45.89834" lon="5.75276">
        <ele>1236</ele>
        <time>2026-05-13T12:29:55Z</time>
      </trkpt>
      <trkpt lat="45.89836" lon="5.75278">
        <ele>1236</ele>
        <time>2026-05-13T12:29:56Z</time>
      </trkpt>
      <trkpt lat="45.89839" lon="5.7528">
        <ele>1236</ele>
        <time>2026-05-13T12:29:57Z</time>
      </trkpt>
      <trkpt lat="45.89844" lon="5.75283">
        <ele>1236.2</ele>
        <time>2026-05-13T12:29:58Z</time>
      </trkpt>
      <trkpt lat="45.89844" lon="5.75283">
        <ele>1236.2</ele>
        <time>2026-05-13T12:29:59Z</time>
      </trkpt>
      <trkpt lat="45.89844" lon="5.75283">
        <ele>1236.6</ele>
        <time>2026-05-13T12:30:00Z</time>
      </trkpt>
      <trkpt lat="45.89855" lon="5.75288">
        <ele>1236.6</ele>
        <time>2026-05-13T12:30:01Z</time>
      </trkpt>
      <trkpt lat="45.89856" lon="5.7529">
        <ele>1236.6</ele>
        <time>2026-05-13T12:30:02Z</time>
      </trkpt>
      <trkpt lat="45.89859" lon="5.75292">
        <ele>1236.4</ele>
        <time>2026-05-13T12:30:03Z</time>
      </trkpt>
      <trkpt lat="45.89861" lon="5.75294">
        <ele>1236.4</ele>
        <time>2026-05-13T12:30:04Z</time>
      </trkpt>
      <trkpt lat="45.89864" lon="5.75299">
        <ele>1236.4</ele>
        <time>2026-05-13T12:30:05Z</time>
      </trkpt>
      <trkpt lat="45.89867" lon="5.75301">
        <ele>1236.4</ele>
        <time>2026-05-13T12:30:06Z</time>
      </trkpt>
      <trkpt lat="45.8987" lon="5.75302">
        <ele>1236.4</ele>
        <time>2026-05-13T12:30:07Z</time>
      </trkpt>
      <trkpt lat="45.89872" lon="5.75305">
        <ele>1236.4</ele>
        <time>2026-05-13T12:30:08Z</time>
      </trkpt>
      <trkpt lat="45.89875" lon="5.75308">
        <ele>1236.4</ele>
        <time>2026-05-13T12:30:09Z</time>
      </trkpt>
      <trkpt lat="45.89878" lon="5.7531">
        <ele>1236.4</ele>
        <time>2026-05-13T12:30:10Z</time>
      </trkpt>
      <trkpt lat="45.8988" lon="5.75312">
        <ele>1236.8</ele>
        <time>2026-05-13T12:30:11Z</time>
      </trkpt>
      <trkpt lat="45.89883" lon="5.75314">
        <ele>1236.8</ele>
        <time>2026-05-13T12:30:12Z</time>
      </trkpt>
      <trkpt lat="45.89886" lon="5.75316">
        <ele>1236.8</ele>
        <time>2026-05-13T12:30:13Z</time>
      </trkpt>
      <trkpt lat="45.89888" lon="5.75319">
        <ele>1236.8</ele>
        <time>2026-05-13T12:30:14Z</time>
      </trkpt>
      <trkpt lat="45.89891" lon="5.75321">
        <ele>1236.8</ele>
        <time>2026-05-13T12:30:15Z</time>
      </trkpt>
      <trkpt lat="45.89893" lon="5.75323">
        <ele>1236.8</ele>
        <time>2026-05-13T12:30:16Z</time>
      </trkpt>
      <trkpt lat="45.89896" lon="5.75325">
        <ele>1236.8</ele>
        <time>2026-05-13T12:30:17Z</time>
      </trkpt>
      <trkpt lat="45.89898" lon="5.75328">
        <ele>1237.2</ele>
        <time>2026-05-13T12:30:18Z</time>
      </trkpt>
      <trkpt lat="45.89901" lon="5.7533">
        <ele>1237.2</ele>
        <time>2026-05-13T12:30:19Z</time>
      </trkpt>
      <trkpt lat="45.89903" lon="5.75331">
        <ele>1237.4</ele>
        <time>2026-05-13T12:30:20Z</time>
      </trkpt>
      <trkpt lat="45.89905" lon="5.75332">
        <ele>1237.4</ele>
        <time>2026-05-13T12:30:21Z</time>
      </trkpt>
      <trkpt lat="45.89908" lon="5.75334">
        <ele>1237.4</ele>
        <time>2026-05-13T12:30:22Z</time>
      </trkpt>
      <trkpt lat="45.89911" lon="5.75336">
        <ele>1237.4</ele>
        <time>2026-05-13T12:30:23Z</time>
      </trkpt>
      <trkpt lat="45.89913" lon="5.75338">
        <ele>1237.8</ele>
        <time>2026-05-13T12:30:24Z</time>
      </trkpt>
      <trkpt lat="45.89915" lon="5.75339">
        <ele>1237.8</ele>
        <time>2026-05-13T12:30:25Z</time>
      </trkpt>
      <trkpt lat="45.89917" lon="5.7534">
        <ele>1238.2</ele>
        <time>2026-05-13T12:30:26Z</time>
      </trkpt>
      <trkpt lat="45.89917" lon="5.7534">
        <ele>1238.2</ele>
        <time>2026-05-13T12:30:27Z</time>
      </trkpt>
      <trkpt lat="45.89919" lon="5.75341">
        <ele>1238.2</ele>
        <time>2026-05-13T12:30:28Z</time>
      </trkpt>
      <trkpt lat="45.89921" lon="5.75342">
        <ele>1238.4</ele>
        <time>2026-05-13T12:30:29Z</time>
      </trkpt>
      <trkpt lat="45.89923" lon="5.75343">
        <ele>1238.4</ele>
        <time>2026-05-13T12:30:30Z</time>
      </trkpt>
      <trkpt lat="45.89925" lon="5.75344">
        <ele>1238.6</ele>
        <time>2026-05-13T12:30:31Z</time>
      </trkpt>
      <trkpt lat="45.89927" lon="5.75345">
        <ele>1239</ele>
        <time>2026-05-13T12:30:32Z</time>
      </trkpt>
      <trkpt lat="45.89929" lon="5.75346">
        <ele>1239</ele>
        <time>2026-05-13T12:30:33Z</time>
      </trkpt>
      <trkpt lat="45.89931" lon="5.75347">
        <ele>1239.2</ele>
        <time>2026-05-13T12:30:34Z</time>
      </trkpt>
      <trkpt lat="45.89933" lon="5.75348">
        <ele>1239.6</ele>
        <time>2026-05-13T12:30:35Z</time>
      </trkpt>
      <trkpt lat="45.89934" lon="5.7535">
        <ele>1239.8</ele>
        <time>2026-05-13T12:30:36Z</time>
      </trkpt>
      <trkpt lat="45.89935" lon="5.75351">
        <ele>1239.8</ele>
        <time>2026-05-13T12:30:37Z</time>
      </trkpt>
      <trkpt lat="45.89936" lon="5.75351">
        <ele>1240</ele>
        <time>2026-05-13T12:30:38Z</time>
      </trkpt>
      <trkpt lat="45.89938" lon="5.75353">
        <ele>1240</ele>
        <time>2026-05-13T12:30:39Z</time>
      </trkpt>
      <trkpt lat="45.89939" lon="5.75355">
        <ele>1240.4</ele>
        <time>2026-05-13T12:30:40Z</time>
      </trkpt>
      <trkpt lat="45.8994" lon="5.75357">
        <ele>1240.4</ele>
        <time>2026-05-13T12:30:41Z</time>
      </trkpt>
      <trkpt lat="45.89942" lon="5.75359">
        <ele>1240.4</ele>
        <time>2026-05-13T12:30:42Z</time>
      </trkpt>
      <trkpt lat="45.89943" lon="5.7536">
        <ele>1240.6</ele>
        <time>2026-05-13T12:30:43Z</time>
      </trkpt>
      <trkpt lat="45.89945" lon="5.75362">
        <ele>1241</ele>
        <time>2026-05-13T12:30:44Z</time>
      </trkpt>
      <trkpt lat="45.89947" lon="5.75363">
        <ele>1241</ele>
        <time>2026-05-13T12:30:45Z</time>
      </trkpt>
      <trkpt lat="45.89948" lon="5.75365">
        <ele>1241.2</ele>
        <time>2026-05-13T12:30:46Z</time>
      </trkpt>
      <trkpt lat="45.89949" lon="5.75366">
        <ele>1241.6</ele>
        <time>2026-05-13T12:30:47Z</time>
      </trkpt>
      <trkpt lat="45.89951" lon="5.75368">
        <ele>1241.8</ele>
        <time>2026-05-13T12:30:48Z</time>
      </trkpt>
      <trkpt lat="45.89952" lon="5.7537">
        <ele>1242.2</ele>
        <time>2026-05-13T12:30:49Z</time>
      </trkpt>
      <trkpt lat="45.89954" lon="5.75371">
        <ele>1242.4</ele>
        <time>2026-05-13T12:30:50Z</time>
      </trkpt>
      <trkpt lat="45.89956" lon="5.75372">
        <ele>1242.4</ele>
        <time>2026-05-13T12:30:51Z</time>
      </trkpt>
      <trkpt lat="45.89957" lon="5.75373">
        <ele>1242.6</ele>
        <time>2026-05-13T12:30:52Z</time>
      </trkpt>
      <trkpt lat="45.89959" lon="5.75374">
        <ele>1242.6</ele>
        <time>2026-05-13T12:30:53Z</time>
      </trkpt>
      <trkpt lat="45.8996" lon="5.75375">
        <ele>1242.8</ele>
        <time>2026-05-13T12:30:54Z</time>
      </trkpt>
      <trkpt lat="45.89962" lon="5.75376">
        <ele>1242.8</ele>
        <time>2026-05-13T12:30:55Z</time>
      </trkpt>
      <trkpt lat="45.89963" lon="5.75377">
        <ele>1242.8</ele>
        <time>2026-05-13T12:30:56Z</time>
      </trkpt>
      <trkpt lat="45.89965" lon="5.75378">
        <ele>1243.2</ele>
        <time>2026-05-13T12:30:57Z</time>
      </trkpt>
      <trkpt lat="45.89967" lon="5.75379">
        <ele>1243.2</ele>
        <time>2026-05-13T12:30:58Z</time>
      </trkpt>
      <trkpt lat="45.89968" lon="5.7538">
        <ele>1243.4</ele>
        <time>2026-05-13T12:30:59Z</time>
      </trkpt>
      <trkpt lat="45.89969" lon="5.75381">
        <ele>1243.4</ele>
        <time>2026-05-13T12:31:00Z</time>
      </trkpt>
      <trkpt lat="45.8997" lon="5.75383">
        <ele>1243.4</ele>
        <time>2026-05-13T12:31:01Z</time>
      </trkpt>
      <trkpt lat="45.89972" lon="5.75385">
        <ele>1243.4</ele>
        <time>2026-05-13T12:31:02Z</time>
      </trkpt>
      <trkpt lat="45.89973" lon="5.75386">
        <ele>1243.8</ele>
        <time>2026-05-13T12:31:03Z</time>
      </trkpt>
      <trkpt lat="45.89975" lon="5.75388">
        <ele>1244</ele>
        <time>2026-05-13T12:31:04Z</time>
      </trkpt>
      <trkpt lat="45.89976" lon="5.75389">
        <ele>1244.2</ele>
        <time>2026-05-13T12:31:05Z</time>
      </trkpt>
      <trkpt lat="45.89977" lon="5.7539">
        <ele>1244.2</ele>
        <time>2026-05-13T12:31:06Z</time>
      </trkpt>
      <trkpt lat="45.89979" lon="5.7539">
        <ele>1244.2</ele>
        <time>2026-05-13T12:31:07Z</time>
      </trkpt>
      <trkpt lat="45.8998" lon="5.75392">
        <ele>1244.6</ele>
        <time>2026-05-13T12:31:08Z</time>
      </trkpt>
      <trkpt lat="45.89981" lon="5.75393">
        <ele>1244.6</ele>
        <time>2026-05-13T12:31:09Z</time>
      </trkpt>
      <trkpt lat="45.89982" lon="5.75395">
        <ele>1245</ele>
        <time>2026-05-13T12:31:10Z</time>
      </trkpt>
      <trkpt lat="45.89984" lon="5.75396">
        <ele>1245</ele>
        <time>2026-05-13T12:31:11Z</time>
      </trkpt>
      <trkpt lat="45.89985" lon="5.75397">
        <ele>1245.2</ele>
        <time>2026-05-13T12:31:12Z</time>
      </trkpt>
      <trkpt lat="45.89985" lon="5.75398">
        <ele>1245.2</ele>
        <time>2026-05-13T12:31:13Z</time>
      </trkpt>
      <trkpt lat="45.89986" lon="5.75399">
        <ele>1245.4</ele>
        <time>2026-05-13T12:31:14Z</time>
      </trkpt>
      <trkpt lat="45.89987" lon="5.75401">
        <ele>1245.4</ele>
        <time>2026-05-13T12:31:15Z</time>
      </trkpt>
      <trkpt lat="45.89989" lon="5.75402">
        <ele>1245.8</ele>
        <time>2026-05-13T12:31:16Z</time>
      </trkpt>
      <trkpt lat="45.8999" lon="5.75403">
        <ele>1245.8</ele>
        <time>2026-05-13T12:31:17Z</time>
      </trkpt>
      <trkpt lat="45.89992" lon="5.75404">
        <ele>1246</ele>
        <time>2026-05-13T12:31:18Z</time>
      </trkpt>
      <trkpt lat="45.89993" lon="5.75406">
        <ele>1246</ele>
        <time>2026-05-13T12:31:19Z</time>
      </trkpt>
      <trkpt lat="45.89994" lon="5.75407">
        <ele>1246.4</ele>
        <time>2026-05-13T12:31:20Z</time>
      </trkpt>
      <trkpt lat="45.89995" lon="5.75409">
        <ele>1246.4</ele>
        <time>2026-05-13T12:31:21Z</time>
      </trkpt>
      <trkpt lat="45.89996" lon="5.7541">
        <ele>1246.8</ele>
        <time>2026-05-13T12:31:22Z</time>
      </trkpt>
      <trkpt lat="45.89997" lon="5.75411">
        <ele>1246.8</ele>
        <time>2026-05-13T12:31:23Z</time>
      </trkpt>
      <trkpt lat="45.89998" lon="5.75411">
        <ele>1246.8</ele>
        <time>2026-05-13T12:31:24Z</time>
      </trkpt>
      <trkpt lat="45.9" lon="5.75413">
        <ele>1247</ele>
        <time>2026-05-13T12:31:25Z</time>
      </trkpt>
      <trkpt lat="45.90001" lon="5.75414">
        <ele>1247</ele>
        <time>2026-05-13T12:31:26Z</time>
      </trkpt>
      <trkpt lat="45.90003" lon="5.75416">
        <ele>1247.4</ele>
        <time>2026-05-13T12:31:27Z</time>
      </trkpt>
      <trkpt lat="45.90004" lon="5.75417">
        <ele>1247.4</ele>
        <time>2026-05-13T12:31:28Z</time>
      </trkpt>
      <trkpt lat="45.90006" lon="5.75419">
        <ele>1247.6</ele>
        <time>2026-05-13T12:31:29Z</time>
      </trkpt>
      <trkpt lat="45.90007" lon="5.7542">
        <ele>1247.6</ele>
        <time>2026-05-13T12:31:30Z</time>
      </trkpt>
      <trkpt lat="45.90009" lon="5.7542">
        <ele>1248</ele>
        <time>2026-05-13T12:31:31Z</time>
      </trkpt>
      <trkpt lat="45.90011" lon="5.7542">
        <ele>1248</ele>
        <time>2026-05-13T12:31:32Z</time>
      </trkpt>
      <trkpt lat="45.90012" lon="5.7542">
        <ele>1248.4</ele>
        <time>2026-05-13T12:31:33Z</time>
      </trkpt>
      <trkpt lat="45.90013" lon="5.7542">
        <ele>1248.6</ele>
        <time>2026-05-13T12:31:34Z</time>
      </trkpt>
      <trkpt lat="45.90015" lon="5.75421">
        <ele>1248.6</ele>
        <time>2026-05-13T12:31:35Z</time>
      </trkpt>
      <trkpt lat="45.90016" lon="5.75422">
        <ele>1248.6</ele>
        <time>2026-05-13T12:31:36Z</time>
      </trkpt>
      <trkpt lat="45.90017" lon="5.75423">
        <ele>1248.8</ele>
        <time>2026-05-13T12:31:37Z</time>
      </trkpt>
      <trkpt lat="45.90018" lon="5.75424">
        <ele>1249.2</ele>
        <time>2026-05-13T12:31:38Z</time>
      </trkpt>
      <trkpt lat="45.90019" lon="5.75426">
        <ele>1249.2</ele>
        <time>2026-05-13T12:31:39Z</time>
      </trkpt>
      <trkpt lat="45.90021" lon="5.75426">
        <ele>1249.6</ele>
        <time>2026-05-13T12:31:40Z</time>
      </trkpt>
      <trkpt lat="45.90023" lon="5.75428">
        <ele>1249.6</ele>
        <time>2026-05-13T12:31:41Z</time>
      </trkpt>
      <trkpt lat="45.90024" lon="5.75429">
        <ele>1249.8</ele>
        <time>2026-05-13T12:31:42Z</time>
      </trkpt>
      <trkpt lat="45.90025" lon="5.7543">
        <ele>1250.2</ele>
        <time>2026-05-13T12:31:43Z</time>
      </trkpt>
      <trkpt lat="45.90026" lon="5.75431">
        <ele>1250.2</ele>
        <time>2026-05-13T12:31:44Z</time>
      </trkpt>
      <trkpt lat="45.90028" lon="5.75432">
        <ele>1250.6</ele>
        <time>2026-05-13T12:31:45Z</time>
      </trkpt>
      <trkpt lat="45.90029" lon="5.75432">
        <ele>1250.6</ele>
        <time>2026-05-13T12:31:46Z</time>
      </trkpt>
      <trkpt lat="45.90031" lon="5.75433">
        <ele>1251</ele>
        <time>2026-05-13T12:31:47Z</time>
      </trkpt>
      <trkpt lat="45.90032" lon="5.75434">
        <ele>1251</ele>
        <time>2026-05-13T12:31:48Z</time>
      </trkpt>
      <trkpt lat="45.90033" lon="5.75435">
        <ele>1251.2</ele>
        <time>2026-05-13T12:31:49Z</time>
      </trkpt>
      <trkpt lat="45.90034" lon="5.75437">
        <ele>1251.6</ele>
        <time>2026-05-13T12:31:50Z</time>
      </trkpt>
      <trkpt lat="45.90035" lon="5.75438">
        <ele>1251.6</ele>
        <time>2026-05-13T12:31:51Z</time>
      </trkpt>
      <trkpt lat="45.90036" lon="5.7544">
        <ele>1251.8</ele>
        <time>2026-05-13T12:31:52Z</time>
      </trkpt>
      <trkpt lat="45.90037" lon="5.75442">
        <ele>1252</ele>
        <time>2026-05-13T12:31:53Z</time>
      </trkpt>
      <trkpt lat="45.90038" lon="5.75443">
        <ele>1252</ele>
        <time>2026-05-13T12:31:54Z</time>
      </trkpt>
      <trkpt lat="45.90039" lon="5.75444">
        <ele>1252.4</ele>
        <time>2026-05-13T12:31:55Z</time>
      </trkpt>
      <trkpt lat="45.9004" lon="5.75444">
        <ele>1252.6</ele>
        <time>2026-05-13T12:31:56Z</time>
      </trkpt>
      <trkpt lat="45.90041" lon="5.75446">
        <ele>1252.6</ele>
        <time>2026-05-13T12:31:57Z</time>
      </trkpt>
      <trkpt lat="45.90042" lon="5.75447">
        <ele>1253</ele>
        <time>2026-05-13T12:31:58Z</time>
      </trkpt>
      <trkpt lat="45.90044" lon="5.7545">
        <ele>1253</ele>
        <time>2026-05-13T12:31:59Z</time>
      </trkpt>
      <trkpt lat="45.90044" lon="5.75451">
        <ele>1253</ele>
        <time>2026-05-13T12:32:00Z</time>
      </trkpt>
      <trkpt lat="45.90045" lon="5.75452">
        <ele>1253.2</ele>
        <time>2026-05-13T12:32:01Z</time>
      </trkpt>
      <trkpt lat="45.90046" lon="5.75453">
        <ele>1253.2</ele>
        <time>2026-05-13T12:32:02Z</time>
      </trkpt>
      <trkpt lat="45.90047" lon="5.75454">
        <ele>1253.4</ele>
        <time>2026-05-13T12:32:03Z</time>
      </trkpt>
      <trkpt lat="45.90048" lon="5.75456">
        <ele>1253.4</ele>
        <time>2026-05-13T12:32:04Z</time>
      </trkpt>
      <trkpt lat="45.90049" lon="5.75457">
        <ele>1254</ele>
        <time>2026-05-13T12:32:05Z</time>
      </trkpt>
      <trkpt lat="45.90051" lon="5.75457">
        <ele>1254.2</ele>
        <time>2026-05-13T12:32:06Z</time>
      </trkpt>
      <trkpt lat="45.90052" lon="5.75459">
        <ele>1254.2</ele>
        <time>2026-05-13T12:32:07Z</time>
      </trkpt>
      <trkpt lat="45.90053" lon="5.7546">
        <ele>1254.4</ele>
        <time>2026-05-13T12:32:08Z</time>
      </trkpt>
      <trkpt lat="45.90054" lon="5.75461">
        <ele>1254.8</ele>
        <time>2026-05-13T12:32:09Z</time>
      </trkpt>
      <trkpt lat="45.90054" lon="5.75463">
        <ele>1255</ele>
        <time>2026-05-13T12:32:10Z</time>
      </trkpt>
      <trkpt lat="45.90055" lon="5.75465">
        <ele>1255.2</ele>
        <time>2026-05-13T12:32:11Z</time>
      </trkpt>
      <trkpt lat="45.90056" lon="5.75467">
        <ele>1255.2</ele>
        <time>2026-05-13T12:32:12Z</time>
      </trkpt>
      <trkpt lat="45.90057" lon="5.75468">
        <ele>1255.6</ele>
        <time>2026-05-13T12:32:13Z</time>
      </trkpt>
      <trkpt lat="45.90057" lon="5.75469">
        <ele>1255.8</ele>
        <time>2026-05-13T12:32:14Z</time>
      </trkpt>
      <trkpt lat="45.90058" lon="5.75471">
        <ele>1255.8</ele>
        <time>2026-05-13T12:32:15Z</time>
      </trkpt>
      <trkpt lat="45.90058" lon="5.75473">
        <ele>1256.2</ele>
        <time>2026-05-13T12:32:16Z</time>
      </trkpt>
      <trkpt lat="45.90058" lon="5.75475">
        <ele>1256.2</ele>
        <time>2026-05-13T12:32:17Z</time>
      </trkpt>
      <trkpt lat="45.90058" lon="5.75477">
        <ele>1256.6</ele>
        <time>2026-05-13T12:32:18Z</time>
      </trkpt>
      <trkpt lat="45.90059" lon="5.75479">
        <ele>1256.6</ele>
        <time>2026-05-13T12:32:19Z</time>
      </trkpt>
      <trkpt lat="45.90059" lon="5.75481">
        <ele>1256.6</ele>
        <time>2026-05-13T12:32:20Z</time>
      </trkpt>
      <trkpt lat="45.90059" lon="5.75483">
        <ele>1256.6</ele>
        <time>2026-05-13T12:32:21Z</time>
      </trkpt>
      <trkpt lat="45.90059" lon="5.75485">
        <ele>1256.8</ele>
        <time>2026-05-13T12:32:22Z</time>
      </trkpt>
      <trkpt lat="45.90059" lon="5.75487">
        <ele>1257.2</ele>
        <time>2026-05-13T12:32:23Z</time>
      </trkpt>
      <trkpt lat="45.9006" lon="5.75489">
        <ele>1257.2</ele>
        <time>2026-05-13T12:32:24Z</time>
      </trkpt>
      <trkpt lat="45.9006" lon="5.7549">
        <ele>1257.2</ele>
        <time>2026-05-13T12:32:25Z</time>
      </trkpt>
      <trkpt lat="45.90061" lon="5.75491">
        <ele>1257.6</ele>
        <time>2026-05-13T12:32:26Z</time>
      </trkpt>
      <trkpt lat="45.90062" lon="5.75492">
        <ele>1257.6</ele>
        <time>2026-05-13T12:32:27Z</time>
      </trkpt>
      <trkpt lat="45.90062" lon="5.75494">
        <ele>1257.8</ele>
        <time>2026-05-13T12:32:28Z</time>
      </trkpt>
      <trkpt lat="45.90063" lon="5.75496">
        <ele>1257.8</ele>
        <time>2026-05-13T12:32:29Z</time>
      </trkpt>
      <trkpt lat="45.90063" lon="5.75498">
        <ele>1258</ele>
        <time>2026-05-13T12:32:30Z</time>
      </trkpt>
      <trkpt lat="45.90064" lon="5.755">
        <ele>1258</ele>
        <time>2026-05-13T12:32:31Z</time>
      </trkpt>
      <trkpt lat="45.90065" lon="5.75502">
        <ele>1258</ele>
        <time>2026-05-13T12:32:32Z</time>
      </trkpt>
      <trkpt lat="45.90066" lon="5.75504">
        <ele>1258.2</ele>
        <time>2026-05-13T12:32:33Z</time>
      </trkpt>
      <trkpt lat="45.90067" lon="5.75505">
        <ele>1258.2</ele>
        <time>2026-05-13T12:32:34Z</time>
      </trkpt>
      <trkpt lat="45.90067" lon="5.75507">
        <ele>1258.6</ele>
        <time>2026-05-13T12:32:35Z</time>
      </trkpt>
      <trkpt lat="45.90067" lon="5.7551">
        <ele>1258.6</ele>
        <time>2026-05-13T12:32:36Z</time>
      </trkpt>
      <trkpt lat="45.90066" lon="5.75512">
        <ele>1258.6</ele>
        <time>2026-05-13T12:32:37Z</time>
      </trkpt>
      <trkpt lat="45.90066" lon="5.75514">
        <ele>1258.6</ele>
        <time>2026-05-13T12:32:38Z</time>
      </trkpt>
      <trkpt lat="45.90066" lon="5.75515">
        <ele>1258.6</ele>
        <time>2026-05-13T12:32:39Z</time>
      </trkpt>
      <trkpt lat="45.90066" lon="5.75517">
        <ele>1259</ele>
        <time>2026-05-13T12:32:40Z</time>
      </trkpt>
      <trkpt lat="45.90066" lon="5.75519">
        <ele>1259.2</ele>
        <time>2026-05-13T12:32:41Z</time>
      </trkpt>
      <trkpt lat="45.90066" lon="5.7552">
        <ele>1259.2</ele>
        <time>2026-05-13T12:32:42Z</time>
      </trkpt>
      <trkpt lat="45.90066" lon="5.75521">
        <ele>1259.6</ele>
        <time>2026-05-13T12:32:43Z</time>
      </trkpt>
      <trkpt lat="45.90066" lon="5.75523">
        <ele>1259.6</ele>
        <time>2026-05-13T12:32:44Z</time>
      </trkpt>
      <trkpt lat="45.90066" lon="5.75524">
        <ele>1260.2</ele>
        <time>2026-05-13T12:32:45Z</time>
      </trkpt>
      <trkpt lat="45.90066" lon="5.75526">
        <ele>1260.4</ele>
        <time>2026-05-13T12:32:46Z</time>
      </trkpt>
      <trkpt lat="45.90065" lon="5.75527">
        <ele>1260.8</ele>
        <time>2026-05-13T12:32:47Z</time>
      </trkpt>
      <trkpt lat="45.90065" lon="5.75529">
        <ele>1261</ele>
        <time>2026-05-13T12:32:48Z</time>
      </trkpt>
      <trkpt lat="45.90064" lon="5.7553">
        <ele>1261</ele>
        <time>2026-05-13T12:32:49Z</time>
      </trkpt>
      <trkpt lat="45.90063" lon="5.75532">
        <ele>1261.2</ele>
        <time>2026-05-13T12:32:50Z</time>
      </trkpt>
      <trkpt lat="45.90062" lon="5.75534">
        <ele>1261.2</ele>
        <time>2026-05-13T12:32:51Z</time>
      </trkpt>
      <trkpt lat="45.90061" lon="5.75535">
        <ele>1261.2</ele>
        <time>2026-05-13T12:32:52Z</time>
      </trkpt>
      <trkpt lat="45.90061" lon="5.75537">
        <ele>1261.4</ele>
        <time>2026-05-13T12:32:53Z</time>
      </trkpt>
      <trkpt lat="45.9006" lon="5.75539">
        <ele>1261.4</ele>
        <time>2026-05-13T12:32:54Z</time>
      </trkpt>
      <trkpt lat="45.90059" lon="5.75541">
        <ele>1262</ele>
        <time>2026-05-13T12:32:55Z</time>
      </trkpt>
      <trkpt lat="45.90058" lon="5.75542">
        <ele>1262</ele>
        <time>2026-05-13T12:32:56Z</time>
      </trkpt>
      <trkpt lat="45.90058" lon="5.75544">
        <ele>1262.4</ele>
        <time>2026-05-13T12:32:57Z</time>
      </trkpt>
      <trkpt lat="45.90057" lon="5.75546">
        <ele>1262.8</ele>
        <time>2026-05-13T12:32:58Z</time>
      </trkpt>
      <trkpt lat="45.90056" lon="5.75549">
        <ele>1262.8</ele>
        <time>2026-05-13T12:32:59Z</time>
      </trkpt>
      <trkpt lat="45.90056" lon="5.7555">
        <ele>1263</ele>
        <time>2026-05-13T12:33:00Z</time>
      </trkpt>
      <trkpt lat="45.90054" lon="5.75551">
        <ele>1263</ele>
        <time>2026-05-13T12:33:01Z</time>
      </trkpt>
      <trkpt lat="45.90053" lon="5.75551">
        <ele>1263.2</ele>
        <time>2026-05-13T12:33:02Z</time>
      </trkpt>
      <trkpt lat="45.90052" lon="5.75552">
        <ele>1263.2</ele>
        <time>2026-05-13T12:33:03Z</time>
      </trkpt>
      <trkpt lat="45.90051" lon="5.75555">
        <ele>1263.2</ele>
        <time>2026-05-13T12:33:04Z</time>
      </trkpt>
      <trkpt lat="45.90051" lon="5.75558">
        <ele>1263.2</ele>
        <time>2026-05-13T12:33:05Z</time>
      </trkpt>
      <trkpt lat="45.9005" lon="5.7556">
        <ele>1263.2</ele>
        <time>2026-05-13T12:33:06Z</time>
      </trkpt>
      <trkpt lat="45.90049" lon="5.75562">
        <ele>1263.6</ele>
        <time>2026-05-13T12:33:07Z</time>
      </trkpt>
      <trkpt lat="45.90048" lon="5.75563">
        <ele>1263.6</ele>
        <time>2026-05-13T12:33:08Z</time>
      </trkpt>
      <trkpt lat="45.90047" lon="5.75564">
        <ele>1263.6</ele>
        <time>2026-05-13T12:33:09Z</time>
      </trkpt>
      <trkpt lat="45.90047" lon="5.75565">
        <ele>1263.8</ele>
        <time>2026-05-13T12:33:10Z</time>
      </trkpt>
      <trkpt lat="45.90046" lon="5.75567">
        <ele>1264.2</ele>
        <time>2026-05-13T12:33:11Z</time>
      </trkpt>
      <trkpt lat="45.90045" lon="5.75568">
        <ele>1264.4</ele>
        <time>2026-05-13T12:33:12Z</time>
      </trkpt>
      <trkpt lat="45.90044" lon="5.75569">
        <ele>1264.6</ele>
        <time>2026-05-13T12:33:13Z</time>
      </trkpt>
      <trkpt lat="45.90044" lon="5.75571">
        <ele>1264.8</ele>
        <time>2026-05-13T12:33:14Z</time>
      </trkpt>
      <trkpt lat="45.90043" lon="5.75572">
        <ele>1264.8</ele>
        <time>2026-05-13T12:33:15Z</time>
      </trkpt>
      <trkpt lat="45.90042" lon="5.75573">
        <ele>1265.2</ele>
        <time>2026-05-13T12:33:16Z</time>
      </trkpt>
      <trkpt lat="45.90042" lon="5.75574">
        <ele>1265.2</ele>
        <time>2026-05-13T12:33:17Z</time>
      </trkpt>
      <trkpt lat="45.90041" lon="5.75576">
        <ele>1265.6</ele>
        <time>2026-05-13T12:33:18Z</time>
      </trkpt>
      <trkpt lat="45.90041" lon="5.75577">
        <ele>1265.6</ele>
        <time>2026-05-13T12:33:19Z</time>
      </trkpt>
      <trkpt lat="45.9004" lon="5.75579">
        <ele>1266</ele>
        <time>2026-05-13T12:33:20Z</time>
      </trkpt>
      <trkpt lat="45.90039" lon="5.7558">
        <ele>1266</ele>
        <time>2026-05-13T12:33:21Z</time>
      </trkpt>
      <trkpt lat="45.90038" lon="5.75581">
        <ele>1266.4</ele>
        <time>2026-05-13T12:33:22Z</time>
      </trkpt>
      <trkpt lat="45.90037" lon="5.75582">
        <ele>1266.4</ele>
        <time>2026-05-13T12:33:23Z</time>
      </trkpt>
      <trkpt lat="45.90036" lon="5.75582">
        <ele>1266.8</ele>
        <time>2026-05-13T12:33:24Z</time>
      </trkpt>
      <trkpt lat="45.90035" lon="5.75584">
        <ele>1266.8</ele>
        <time>2026-05-13T12:33:25Z</time>
      </trkpt>
      <trkpt lat="45.90034" lon="5.75585">
        <ele>1266.8</ele>
        <time>2026-05-13T12:33:26Z</time>
      </trkpt>
      <trkpt lat="45.90033" lon="5.75587">
        <ele>1266.8</ele>
        <time>2026-05-13T12:33:27Z</time>
      </trkpt>
      <trkpt lat="45.90033" lon="5.75587">
        <ele>1267</ele>
        <time>2026-05-13T12:33:28Z</time>
      </trkpt>
      <trkpt lat="45.90032" lon="5.75588">
        <ele>1267</ele>
        <time>2026-05-13T12:33:29Z</time>
      </trkpt>
      <trkpt lat="45.90031" lon="5.7559">
        <ele>1267.2</ele>
        <time>2026-05-13T12:33:30Z</time>
      </trkpt>
      <trkpt lat="45.9003" lon="5.75592">
        <ele>1267.2</ele>
        <time>2026-05-13T12:33:31Z</time>
      </trkpt>
      <trkpt lat="45.90029" lon="5.75593">
        <ele>1267.6</ele>
        <time>2026-05-13T12:33:32Z</time>
      </trkpt>
      <trkpt lat="45.90028" lon="5.75594">
        <ele>1267.6</ele>
        <time>2026-05-13T12:33:33Z</time>
      </trkpt>
      <trkpt lat="45.90027" lon="5.75596">
        <ele>1267.8</ele>
        <time>2026-05-13T12:33:34Z</time>
      </trkpt>
      <trkpt lat="45.90026" lon="5.75597">
        <ele>1267.8</ele>
        <time>2026-05-13T12:33:35Z</time>
      </trkpt>
      <trkpt lat="45.90025" lon="5.75598">
        <ele>1268.2</ele>
        <time>2026-05-13T12:33:36Z</time>
      </trkpt>
      <trkpt lat="45.90024" lon="5.756">
        <ele>1268.4</ele>
        <time>2026-05-13T12:33:37Z</time>
      </trkpt>
      <trkpt lat="45.90023" lon="5.75602">
        <ele>1268.4</ele>
        <time>2026-05-13T12:33:38Z</time>
      </trkpt>
      <trkpt lat="45.90022" lon="5.75604">
        <ele>1268.8</ele>
        <time>2026-05-13T12:33:39Z</time>
      </trkpt>
      <trkpt lat="45.90021" lon="5.75605">
        <ele>1268.8</ele>
        <time>2026-05-13T12:33:40Z</time>
      </trkpt>
      <trkpt lat="45.9002" lon="5.75606">
        <ele>1268.8</ele>
        <time>2026-05-13T12:33:41Z</time>
      </trkpt>
      <trkpt lat="45.90019" lon="5.75606">
        <ele>1268.8</ele>
        <time>2026-05-13T12:33:42Z</time>
      </trkpt>
      <trkpt lat="45.90017" lon="5.75607">
        <ele>1268.8</ele>
        <time>2026-05-13T12:33:43Z</time>
      </trkpt>
      <trkpt lat="45.90015" lon="5.75607">
        <ele>1268.8</ele>
        <time>2026-05-13T12:33:44Z</time>
      </trkpt>
      <trkpt lat="45.90014" lon="5.75608">
        <ele>1269.2</ele>
        <time>2026-05-13T12:33:45Z</time>
      </trkpt>
      <trkpt lat="45.90012" lon="5.75609">
        <ele>1269.4</ele>
        <time>2026-05-13T12:33:46Z</time>
      </trkpt>
      <trkpt lat="45.90011" lon="5.7561">
        <ele>1269.4</ele>
        <time>2026-05-13T12:33:47Z</time>
      </trkpt>
      <trkpt lat="45.9001" lon="5.75611">
        <ele>1269.8</ele>
        <time>2026-05-13T12:33:48Z</time>
      </trkpt>
      <trkpt lat="45.90009" lon="5.75612">
        <ele>1269.8</ele>
        <time>2026-05-13T12:33:49Z</time>
      </trkpt>
      <trkpt lat="45.90007" lon="5.75612">
        <ele>1270</ele>
        <time>2026-05-13T12:33:50Z</time>
      </trkpt>
      <trkpt lat="45.90006" lon="5.75612">
        <ele>1270</ele>
        <time>2026-05-13T12:33:51Z</time>
      </trkpt>
      <trkpt lat="45.90005" lon="5.75611">
        <ele>1270</ele>
        <time>2026-05-13T12:33:52Z</time>
      </trkpt>
      <trkpt lat="45.90003" lon="5.75611">
        <ele>1270</ele>
        <time>2026-05-13T12:33:53Z</time>
      </trkpt>
      <trkpt lat="45.90002" lon="5.75612">
        <ele>1270.2</ele>
        <time>2026-05-13T12:33:54Z</time>
      </trkpt>
      <trkpt lat="45.90001" lon="5.75612">
        <ele>1270.2</ele>
        <time>2026-05-13T12:33:55Z</time>
      </trkpt>
      <trkpt lat="45.89999" lon="5.75612">
        <ele>1270.4</ele>
        <time>2026-05-13T12:33:56Z</time>
      </trkpt>
      <trkpt lat="45.89998" lon="5.75612">
        <ele>1270.4</ele>
        <time>2026-05-13T12:33:57Z</time>
      </trkpt>
      <trkpt lat="45.89996" lon="5.75613">
        <ele>1270.8</ele>
        <time>2026-05-13T12:33:58Z</time>
      </trkpt>
      <trkpt lat="45.89995" lon="5.75613">
        <ele>1271</ele>
        <time>2026-05-13T12:33:59Z</time>
      </trkpt>
      <trkpt lat="45.89994" lon="5.75614">
        <ele>1271</ele>
        <time>2026-05-13T12:34:00Z</time>
      </trkpt>
      <trkpt lat="45.89992" lon="5.75615">
        <ele>1271.2</ele>
        <time>2026-05-13T12:34:01Z</time>
      </trkpt>
      <trkpt lat="45.89991" lon="5.75615">
        <ele>1271.2</ele>
        <time>2026-05-13T12:34:02Z</time>
      </trkpt>
      <trkpt lat="45.8999" lon="5.75615">
        <ele>1271.4</ele>
        <time>2026-05-13T12:34:03Z</time>
      </trkpt>
      <trkpt lat="45.89988" lon="5.75616">
        <ele>1271.4</ele>
        <time>2026-05-13T12:34:04Z</time>
      </trkpt>
      <trkpt lat="45.89987" lon="5.75616">
        <ele>1271.4</ele>
        <time>2026-05-13T12:34:05Z</time>
      </trkpt>
      <trkpt lat="45.89986" lon="5.75618">
        <ele>1271.4</ele>
        <time>2026-05-13T12:34:06Z</time>
      </trkpt>
      <trkpt lat="45.89985" lon="5.75618">
        <ele>1271.8</ele>
        <time>2026-05-13T12:34:07Z</time>
      </trkpt>
      <trkpt lat="45.89984" lon="5.75619">
        <ele>1271.8</ele>
        <time>2026-05-13T12:34:08Z</time>
      </trkpt>
      <trkpt lat="45.89983" lon="5.7562">
        <ele>1272.2</ele>
        <time>2026-05-13T12:34:09Z</time>
      </trkpt>
      <trkpt lat="45.89982" lon="5.75621">
        <ele>1272.2</ele>
        <time>2026-05-13T12:34:10Z</time>
      </trkpt>
      <trkpt lat="45.89981" lon="5.75622">
        <ele>1272.4</ele>
        <time>2026-05-13T12:34:11Z</time>
      </trkpt>
      <trkpt lat="45.8998" lon="5.75623">
        <ele>1272.4</ele>
        <time>2026-05-13T12:34:12Z</time>
      </trkpt>
      <trkpt lat="45.8998" lon="5.75623">
        <ele>1272.6</ele>
        <time>2026-05-13T12:34:13Z</time>
      </trkpt>
      <trkpt lat="45.89979" lon="5.75624">
        <ele>1272.6</ele>
        <time>2026-05-13T12:34:14Z</time>
      </trkpt>
      <trkpt lat="45.89977" lon="5.75625">
        <ele>1272.8</ele>
        <time>2026-05-13T12:34:15Z</time>
      </trkpt>
      <trkpt lat="45.89976" lon="5.75625">
        <ele>1272.8</ele>
        <time>2026-05-13T12:34:16Z</time>
      </trkpt>
      <trkpt lat="45.89975" lon="5.75626">
        <ele>1272.8</ele>
        <time>2026-05-13T12:34:17Z</time>
      </trkpt>
      <trkpt lat="45.89973" lon="5.75627">
        <ele>1273</ele>
        <time>2026-05-13T12:34:18Z</time>
      </trkpt>
      <trkpt lat="45.89972" lon="5.75627">
        <ele>1273.2</ele>
        <time>2026-05-13T12:34:19Z</time>
      </trkpt>
      <trkpt lat="45.89971" lon="5.75628">
        <ele>1273.2</ele>
        <time>2026-05-13T12:34:20Z</time>
      </trkpt>
      <trkpt lat="45.8997" lon="5.75629">
        <ele>1273.2</ele>
        <time>2026-05-13T12:34:21Z</time>
      </trkpt>
      <trkpt lat="45.89969" lon="5.75631">
        <ele>1273.6</ele>
        <time>2026-05-13T12:34:22Z</time>
      </trkpt>
      <trkpt lat="45.89968" lon="5.75632">
        <ele>1273.6</ele>
        <time>2026-05-13T12:34:23Z</time>
      </trkpt>
      <trkpt lat="45.89967" lon="5.75633">
        <ele>1273.8</ele>
        <time>2026-05-13T12:34:24Z</time>
      </trkpt>
      <trkpt lat="45.89966" lon="5.75634">
        <ele>1274.2</ele>
        <time>2026-05-13T12:34:25Z</time>
      </trkpt>
      <trkpt lat="45.89964" lon="5.75634">
        <ele>1274.2</ele>
        <time>2026-05-13T12:34:26Z</time>
      </trkpt>
      <trkpt lat="45.89963" lon="5.75633">
        <ele>1274.4</ele>
        <time>2026-05-13T12:34:27Z</time>
      </trkpt>
      <trkpt lat="45.89962" lon="5.75634">
        <ele>1274.4</ele>
        <time>2026-05-13T12:34:28Z</time>
      </trkpt>
      <trkpt lat="45.89961" lon="5.75635">
        <ele>1274.6</ele>
        <time>2026-05-13T12:34:29Z</time>
      </trkpt>
      <trkpt lat="45.8996" lon="5.75636">
        <ele>1274.6</ele>
        <time>2026-05-13T12:34:30Z</time>
      </trkpt>
      <trkpt lat="45.89959" lon="5.75637">
        <ele>1274.8</ele>
        <time>2026-05-13T12:34:31Z</time>
      </trkpt>
      <trkpt lat="45.89958" lon="5.75638">
        <ele>1274.8</ele>
        <time>2026-05-13T12:34:32Z</time>
      </trkpt>
      <trkpt lat="45.89957" lon="5.75639">
        <ele>1275.2</ele>
        <time>2026-05-13T12:34:33Z</time>
      </trkpt>
      <trkpt lat="45.89955" lon="5.7564">
        <ele>1275.2</ele>
        <time>2026-05-13T12:34:34Z</time>
      </trkpt>
      <trkpt lat="45.89954" lon="5.75641">
        <ele>1275.4</ele>
        <time>2026-05-13T12:34:35Z</time>
      </trkpt>
      <trkpt lat="45.89953" lon="5.75642">
        <ele>1275.4</ele>
        <time>2026-05-13T12:34:36Z</time>
      </trkpt>
      <trkpt lat="45.89952" lon="5.75644">
        <ele>1275.8</ele>
        <time>2026-05-13T12:34:37Z</time>
      </trkpt>
      <trkpt lat="45.8995" lon="5.75645">
        <ele>1275.8</ele>
        <time>2026-05-13T12:34:38Z</time>
      </trkpt>
      <trkpt lat="45.89949" lon="5.75645">
        <ele>1276</ele>
        <time>2026-05-13T12:34:39Z</time>
      </trkpt>
      <trkpt lat="45.89948" lon="5.75646">
        <ele>1276.2</ele>
        <time>2026-05-13T12:34:40Z</time>
      </trkpt>
      <trkpt lat="45.89946" lon="5.75647">
        <ele>1276.2</ele>
        <time>2026-05-13T12:34:41Z</time>
      </trkpt>
      <trkpt lat="45.89945" lon="5.75648">
        <ele>1276.6</ele>
        <time>2026-05-13T12:34:42Z</time>
      </trkpt>
      <trkpt lat="45.89944" lon="5.7565">
        <ele>1276.6</ele>
        <time>2026-05-13T12:34:43Z</time>
      </trkpt>
      <trkpt lat="45.89943" lon="5.75651">
        <ele>1276.6</ele>
        <time>2026-05-13T12:34:44Z</time>
      </trkpt>
      <trkpt lat="45.89942" lon="5.75652">
        <ele>1277</ele>
        <time>2026-05-13T12:34:45Z</time>
      </trkpt>
      <trkpt lat="45.89941" lon="5.75653">
        <ele>1277</ele>
        <time>2026-05-13T12:34:46Z</time>
      </trkpt>
      <trkpt lat="45.89939" lon="5.75654">
        <ele>1277.4</ele>
        <time>2026-05-13T12:34:47Z</time>
      </trkpt>
      <trkpt lat="45.89938" lon="5.75654">
        <ele>1277.8</ele>
        <time>2026-05-13T12:34:48Z</time>
      </trkpt>
      <trkpt lat="45.89937" lon="5.75655">
        <ele>1277.8</ele>
        <time>2026-05-13T12:34:49Z</time>
      </trkpt>
      <trkpt lat="45.89936" lon="5.75656">
        <ele>1277.8</ele>
        <time>2026-05-13T12:34:50Z</time>
      </trkpt>
      <trkpt lat="45.89934" lon="5.75657">
        <ele>1277.8</ele>
        <time>2026-05-13T12:34:51Z</time>
      </trkpt>
      <trkpt lat="45.89933" lon="5.75658">
        <ele>1278.2</ele>
        <time>2026-05-13T12:34:52Z</time>
      </trkpt>
      <trkpt lat="45.89932" lon="5.75658">
        <ele>1278.2</ele>
        <time>2026-05-13T12:34:53Z</time>
      </trkpt>
      <trkpt lat="45.8993" lon="5.75659">
        <ele>1278.6</ele>
        <time>2026-05-13T12:34:54Z</time>
      </trkpt>
      <trkpt lat="45.89929" lon="5.7566">
        <ele>1278.6</ele>
        <time>2026-05-13T12:34:55Z</time>
      </trkpt>
      <trkpt lat="45.89927" lon="5.7566">
        <ele>1278.6</ele>
        <time>2026-05-13T12:34:56Z</time>
      </trkpt>
      <trkpt lat="45.89926" lon="5.75661">
        <ele>1278.8</ele>
        <time>2026-05-13T12:34:57Z</time>
      </trkpt>
      <trkpt lat="45.89925" lon="5.75661">
        <ele>1278.8</ele>
        <time>2026-05-13T12:34:58Z</time>
      </trkpt>
      <trkpt lat="45.89923" lon="5.75662">
        <ele>1279.2</ele>
        <time>2026-05-13T12:34:59Z</time>
      </trkpt>
      <trkpt lat="45.89922" lon="5.75662">
        <ele>1279.2</ele>
        <time>2026-05-13T12:35:00Z</time>
      </trkpt>
      <trkpt lat="45.89921" lon="5.75663">
        <ele>1279.2</ele>
        <time>2026-05-13T12:35:01Z</time>
      </trkpt>
      <trkpt lat="45.89919" lon="5.75664">
        <ele>1279.6</ele>
        <time>2026-05-13T12:35:02Z</time>
      </trkpt>
      <trkpt lat="45.89918" lon="5.75665">
        <ele>1279.6</ele>
        <time>2026-05-13T12:35:03Z</time>
      </trkpt>
      <trkpt lat="45.89917" lon="5.75666">
        <ele>1279.8</ele>
        <time>2026-05-13T12:35:04Z</time>
      </trkpt>
      <trkpt lat="45.89915" lon="5.75667">
        <ele>1279.8</ele>
        <time>2026-05-13T12:35:05Z</time>
      </trkpt>
      <trkpt lat="45.89914" lon="5.75667">
        <ele>1280.2</ele>
        <time>2026-05-13T12:35:06Z</time>
      </trkpt>
      <trkpt lat="45.89913" lon="5.75668">
        <ele>1280.2</ele>
        <time>2026-05-13T12:35:07Z</time>
      </trkpt>
      <trkpt lat="45.89912" lon="5.75668">
        <ele>1280.4</ele>
        <time>2026-05-13T12:35:08Z</time>
      </trkpt>
      <trkpt lat="45.89911" lon="5.75668">
        <ele>1280.4</ele>
        <time>2026-05-13T12:35:09Z</time>
      </trkpt>
      <trkpt lat="45.89909" lon="5.75669">
        <ele>1280.6</ele>
        <time>2026-05-13T12:35:10Z</time>
      </trkpt>
      <trkpt lat="45.89908" lon="5.7567">
        <ele>1281</ele>
        <time>2026-05-13T12:35:11Z</time>
      </trkpt>
      <trkpt lat="45.89907" lon="5.75671">
        <ele>1281</ele>
        <time>2026-05-13T12:35:12Z</time>
      </trkpt>
      <trkpt lat="45.89906" lon="5.75672">
        <ele>1281</ele>
        <time>2026-05-13T12:35:13Z</time>
      </trkpt>
      <trkpt lat="45.89904" lon="5.75672">
        <ele>1281.2</ele>
        <time>2026-05-13T12:35:14Z</time>
      </trkpt>
      <trkpt lat="45.89903" lon="5.75672">
        <ele>1281.2</ele>
        <time>2026-05-13T12:35:15Z</time>
      </trkpt>
      <trkpt lat="45.89902" lon="5.75672">
        <ele>1281.6</ele>
        <time>2026-05-13T12:35:16Z</time>
      </trkpt>
      <trkpt lat="45.899" lon="5.75674">
        <ele>1281.6</ele>
        <time>2026-05-13T12:35:17Z</time>
      </trkpt>
      <trkpt lat="45.89899" lon="5.75675">
        <ele>1281.8</ele>
        <time>2026-05-13T12:35:18Z</time>
      </trkpt>
      <trkpt lat="45.89898" lon="5.75676">
        <ele>1281.8</ele>
        <time>2026-05-13T12:35:19Z</time>
      </trkpt>
      <trkpt lat="45.89897" lon="5.75677">
        <ele>1281.8</ele>
        <time>2026-05-13T12:35:20Z</time>
      </trkpt>
      <trkpt lat="45.89896" lon="5.75678">
        <ele>1282.2</ele>
        <time>2026-05-13T12:35:21Z</time>
      </trkpt>
      <trkpt lat="45.89895" lon="5.75679">
        <ele>1282.2</ele>
        <time>2026-05-13T12:35:22Z</time>
      </trkpt>
      <trkpt lat="45.89894" lon="5.7568">
        <ele>1282.2</ele>
        <time>2026-05-13T12:35:23Z</time>
      </trkpt>
      <trkpt lat="45.89893" lon="5.75681">
        <ele>1282.6</ele>
        <time>2026-05-13T12:35:24Z</time>
      </trkpt>
      <trkpt lat="45.89891" lon="5.75682">
        <ele>1282.6</ele>
        <time>2026-05-13T12:35:25Z</time>
      </trkpt>
      <trkpt lat="45.8989" lon="5.75683">
        <ele>1282.8</ele>
        <time>2026-05-13T12:35:26Z</time>
      </trkpt>
      <trkpt lat="45.89889" lon="5.75684">
        <ele>1283</ele>
        <time>2026-05-13T12:35:27Z</time>
      </trkpt>
      <trkpt lat="45.89888" lon="5.75685">
        <ele>1283.4</ele>
        <time>2026-05-13T12:35:28Z</time>
      </trkpt>
      <trkpt lat="45.89886" lon="5.75686">
        <ele>1283.6</ele>
        <time>2026-05-13T12:35:29Z</time>
      </trkpt>
      <trkpt lat="45.89885" lon="5.75688">
        <ele>1283.6</ele>
        <time>2026-05-13T12:35:30Z</time>
      </trkpt>
      <trkpt lat="45.89884" lon="5.7569">
        <ele>1283.8</ele>
        <time>2026-05-13T12:35:31Z</time>
      </trkpt>
      <trkpt lat="45.89883" lon="5.75691">
        <ele>1284</ele>
        <time>2026-05-13T12:35:32Z</time>
      </trkpt>
      <trkpt lat="45.89882" lon="5.75692">
        <ele>1284.4</ele>
        <time>2026-05-13T12:35:33Z</time>
      </trkpt>
      <trkpt lat="45.8988" lon="5.75692">
        <ele>1284.6</ele>
        <time>2026-05-13T12:35:34Z</time>
      </trkpt>
      <trkpt lat="45.89878" lon="5.75693">
        <ele>1284.6</ele>
        <time>2026-05-13T12:35:35Z</time>
      </trkpt>
      <trkpt lat="45.89877" lon="5.75694">
        <ele>1284.8</ele>
        <time>2026-05-13T12:35:36Z</time>
      </trkpt>
      <trkpt lat="45.89875" lon="5.75695">
        <ele>1284.8</ele>
        <time>2026-05-13T12:35:37Z</time>
      </trkpt>
      <trkpt lat="45.89875" lon="5.75698">
        <ele>1284.8</ele>
        <time>2026-05-13T12:35:38Z</time>
      </trkpt>
      <trkpt lat="45.89874" lon="5.75701">
        <ele>1285.2</ele>
        <time>2026-05-13T12:35:39Z</time>
      </trkpt>
      <trkpt lat="45.89875" lon="5.75703">
        <ele>1285.6</ele>
        <time>2026-05-13T12:35:40Z</time>
      </trkpt>
      <trkpt lat="45.89876" lon="5.75704">
        <ele>1285.8</ele>
        <time>2026-05-13T12:35:41Z</time>
      </trkpt>
      <trkpt lat="45.89877" lon="5.75706">
        <ele>1285.8</ele>
        <time>2026-05-13T12:35:42Z</time>
      </trkpt>
      <trkpt lat="45.89877" lon="5.75707">
        <ele>1285.8</ele>
        <time>2026-05-13T12:35:43Z</time>
      </trkpt>
      <trkpt lat="45.89878" lon="5.75708">
        <ele>1285.8</ele>
        <time>2026-05-13T12:35:44Z</time>
      </trkpt>
      <trkpt lat="45.8988" lon="5.75709">
        <ele>1286</ele>
        <time>2026-05-13T12:35:45Z</time>
      </trkpt>
      <trkpt lat="45.89881" lon="5.75709">
        <ele>1286</ele>
        <time>2026-05-13T12:35:46Z</time>
      </trkpt>
      <trkpt lat="45.89883" lon="5.7571">
        <ele>1286.2</ele>
        <time>2026-05-13T12:35:47Z</time>
      </trkpt>
      <trkpt lat="45.89886" lon="5.7571">
        <ele>1286.2</ele>
        <time>2026-05-13T12:35:48Z</time>
      </trkpt>
      <trkpt lat="45.89887" lon="5.7571">
        <ele>1286.2</ele>
        <time>2026-05-13T12:35:49Z</time>
      </trkpt>
      <trkpt lat="45.89889" lon="5.7571">
        <ele>1286.4</ele>
        <time>2026-05-13T12:35:50Z</time>
      </trkpt>
      <trkpt lat="45.8989" lon="5.7571">
        <ele>1286.8</ele>
        <time>2026-05-13T12:35:51Z</time>
      </trkpt>
      <trkpt lat="45.89891" lon="5.75709">
        <ele>1286.8</ele>
        <time>2026-05-13T12:35:52Z</time>
      </trkpt>
      <trkpt lat="45.89893" lon="5.75708">
        <ele>1286.8</ele>
        <time>2026-05-13T12:35:53Z</time>
      </trkpt>
      <trkpt lat="45.89894" lon="5.75707">
        <ele>1286.8</ele>
        <time>2026-05-13T12:35:54Z</time>
      </trkpt>
      <trkpt lat="45.89895" lon="5.75707">
        <ele>1286.8</ele>
        <time>2026-05-13T12:35:55Z</time>
      </trkpt>
      <trkpt lat="45.89896" lon="5.75707">
        <ele>1286.8</ele>
        <time>2026-05-13T12:35:56Z</time>
      </trkpt>
      <trkpt lat="45.89897" lon="5.75706">
        <ele>1286.8</ele>
        <time>2026-05-13T12:35:57Z</time>
      </trkpt>
      <trkpt lat="45.89899" lon="5.75705">
        <ele>1287.2</ele>
        <time>2026-05-13T12:35:58Z</time>
      </trkpt>
      <trkpt lat="45.899" lon="5.75704">
        <ele>1287.2</ele>
        <time>2026-05-13T12:35:59Z</time>
      </trkpt>
      <trkpt lat="45.89901" lon="5.75704">
        <ele>1287.4</ele>
        <time>2026-05-13T12:36:00Z</time>
      </trkpt>
      <trkpt lat="45.89903" lon="5.75703">
        <ele>1287.4</ele>
        <time>2026-05-13T12:36:01Z</time>
      </trkpt>
      <trkpt lat="45.89904" lon="5.75702">
        <ele>1287.8</ele>
        <time>2026-05-13T12:36:02Z</time>
      </trkpt>
      <trkpt lat="45.89905" lon="5.75701">
        <ele>1288</ele>
        <time>2026-05-13T12:36:03Z</time>
      </trkpt>
      <trkpt lat="45.89906" lon="5.757">
        <ele>1288</ele>
        <time>2026-05-13T12:36:04Z</time>
      </trkpt>
      <trkpt lat="45.89908" lon="5.757">
        <ele>1288.2</ele>
        <time>2026-05-13T12:36:05Z</time>
      </trkpt>
      <trkpt lat="45.89909" lon="5.757">
        <ele>1288.2</ele>
        <time>2026-05-13T12:36:06Z</time>
      </trkpt>
      <trkpt lat="45.89911" lon="5.757">
        <ele>1288.4</ele>
        <time>2026-05-13T12:36:07Z</time>
      </trkpt>
      <trkpt lat="45.89912" lon="5.75699">
        <ele>1288.4</ele>
        <time>2026-05-13T12:36:08Z</time>
      </trkpt>
      <trkpt lat="45.89913" lon="5.75698">
        <ele>1288.4</ele>
        <time>2026-05-13T12:36:09Z</time>
      </trkpt>
      <trkpt lat="45.89914" lon="5.75698">
        <ele>1288.8</ele>
        <time>2026-05-13T12:36:10Z</time>
      </trkpt>
      <trkpt lat="45.89915" lon="5.75697">
        <ele>1288.8</ele>
        <time>2026-05-13T12:36:11Z</time>
      </trkpt>
      <trkpt lat="45.89916" lon="5.75696">
        <ele>1289</ele>
        <time>2026-05-13T12:36:12Z</time>
      </trkpt>
      <trkpt lat="45.89917" lon="5.75696">
        <ele>1289</ele>
        <time>2026-05-13T12:36:13Z</time>
      </trkpt>
      <trkpt lat="45.89918" lon="5.75695">
        <ele>1289.4</ele>
        <time>2026-05-13T12:36:14Z</time>
      </trkpt>
      <trkpt lat="45.89919" lon="5.75695">
        <ele>1289.6</ele>
        <time>2026-05-13T12:36:15Z</time>
      </trkpt>
      <trkpt lat="45.89921" lon="5.75696">
        <ele>1289.6</ele>
        <time>2026-05-13T12:36:16Z</time>
      </trkpt>
      <trkpt lat="45.89922" lon="5.75696">
        <ele>1290</ele>
        <time>2026-05-13T12:36:17Z</time>
      </trkpt>
      <trkpt lat="45.89923" lon="5.75697">
        <ele>1290.4</ele>
        <time>2026-05-13T12:36:18Z</time>
      </trkpt>
      <trkpt lat="45.89924" lon="5.75696">
        <ele>1290.6</ele>
        <time>2026-05-13T12:36:19Z</time>
      </trkpt>
      <trkpt lat="45.89926" lon="5.75696">
        <ele>1290.6</ele>
        <time>2026-05-13T12:36:20Z</time>
      </trkpt>
      <trkpt lat="45.89927" lon="5.75696">
        <ele>1290.8</ele>
        <time>2026-05-13T12:36:21Z</time>
      </trkpt>
      <trkpt lat="45.89928" lon="5.75695">
        <ele>1291</ele>
        <time>2026-05-13T12:36:22Z</time>
      </trkpt>
      <trkpt lat="45.89929" lon="5.75695">
        <ele>1291.4</ele>
        <time>2026-05-13T12:36:23Z</time>
      </trkpt>
      <trkpt lat="45.8993" lon="5.75695">
        <ele>1291.4</ele>
        <time>2026-05-13T12:36:24Z</time>
      </trkpt>
      <trkpt lat="45.89931" lon="5.75695">
        <ele>1291.6</ele>
        <time>2026-05-13T12:36:25Z</time>
      </trkpt>
      <trkpt lat="45.89933" lon="5.75694">
        <ele>1291.8</ele>
        <time>2026-05-13T12:36:26Z</time>
      </trkpt>
      <trkpt lat="45.89934" lon="5.75694">
        <ele>1292</ele>
        <time>2026-05-13T12:36:27Z</time>
      </trkpt>
      <trkpt lat="45.89935" lon="5.75693">
        <ele>1292</ele>
        <time>2026-05-13T12:36:28Z</time>
      </trkpt>
      <trkpt lat="45.89936" lon="5.75692">
        <ele>1292.4</ele>
        <time>2026-05-13T12:36:29Z</time>
      </trkpt>
      <trkpt lat="45.89938" lon="5.75692">
        <ele>1292.4</ele>
        <time>2026-05-13T12:36:30Z</time>
      </trkpt>
      <trkpt lat="45.89939" lon="5.75692">
        <ele>1292.6</ele>
        <time>2026-05-13T12:36:31Z</time>
      </trkpt>
      <trkpt lat="45.89941" lon="5.75693">
        <ele>1292.6</ele>
        <time>2026-05-13T12:36:32Z</time>
      </trkpt>
      <trkpt lat="45.89942" lon="5.75693">
        <ele>1293</ele>
        <time>2026-05-13T12:36:33Z</time>
      </trkpt>
      <trkpt lat="45.89944" lon="5.75692">
        <ele>1293</ele>
        <time>2026-05-13T12:36:34Z</time>
      </trkpt>
      <trkpt lat="45.89945" lon="5.75691">
        <ele>1293.4</ele>
        <time>2026-05-13T12:36:35Z</time>
      </trkpt>
      <trkpt lat="45.89946" lon="5.75691">
        <ele>1293.6</ele>
        <time>2026-05-13T12:36:36Z</time>
      </trkpt>
      <trkpt lat="45.89947" lon="5.7569">
        <ele>1293.8</ele>
        <time>2026-05-13T12:36:37Z</time>
      </trkpt>
      <trkpt lat="45.89948" lon="5.75691">
        <ele>1293.8</ele>
        <time>2026-05-13T12:36:38Z</time>
      </trkpt>
      <trkpt lat="45.89949" lon="5.7569">
        <ele>1294.2</ele>
        <time>2026-05-13T12:36:39Z</time>
      </trkpt>
      <trkpt lat="45.8995" lon="5.75689">
        <ele>1294.2</ele>
        <time>2026-05-13T12:36:40Z</time>
      </trkpt>
      <trkpt lat="45.8995" lon="5.75689">
        <ele>1294.2</ele>
        <time>2026-05-13T12:36:41Z</time>
      </trkpt>
      <trkpt lat="45.89951" lon="5.75689">
        <ele>1294.2</ele>
        <time>2026-05-13T12:36:42Z</time>
      </trkpt>
      <trkpt lat="45.89952" lon="5.75689">
        <ele>1294.6</ele>
        <time>2026-05-13T12:36:43Z</time>
      </trkpt>
      <trkpt lat="45.89953" lon="5.75688">
        <ele>1294.6</ele>
        <time>2026-05-13T12:36:44Z</time>
      </trkpt>
      <trkpt lat="45.89954" lon="5.75688">
        <ele>1295</ele>
        <time>2026-05-13T12:36:45Z</time>
      </trkpt>
      <trkpt lat="45.89955" lon="5.75688">
        <ele>1295.2</ele>
        <time>2026-05-13T12:36:46Z</time>
      </trkpt>
      <trkpt lat="45.89956" lon="5.75688">
        <ele>1295.6</ele>
        <time>2026-05-13T12:36:47Z</time>
      </trkpt>
      <trkpt lat="45.89958" lon="5.75688">
        <ele>1295.6</ele>
        <time>2026-05-13T12:36:48Z</time>
      </trkpt>
      <trkpt lat="45.89959" lon="5.75687">
        <ele>1296</ele>
        <time>2026-05-13T12:36:49Z</time>
      </trkpt>
      <trkpt lat="45.8996" lon="5.75686">
        <ele>1296</ele>
        <time>2026-05-13T12:36:50Z</time>
      </trkpt>
      <trkpt lat="45.89961" lon="5.75685">
        <ele>1296.2</ele>
        <time>2026-05-13T12:36:51Z</time>
      </trkpt>
      <trkpt lat="45.89962" lon="5.75685">
        <ele>1296.2</ele>
        <time>2026-05-13T12:36:52Z</time>
      </trkpt>
      <trkpt lat="45.89964" lon="5.75684">
        <ele>1296.2</ele>
        <time>2026-05-13T12:36:53Z</time>
      </trkpt>
      <trkpt lat="45.89965" lon="5.75684">
        <ele>1296.4</ele>
        <time>2026-05-13T12:36:54Z</time>
      </trkpt>
      <trkpt lat="45.89966" lon="5.75684">
        <ele>1296.4</ele>
        <time>2026-05-13T12:36:55Z</time>
      </trkpt>
      <trkpt lat="45.89967" lon="5.75684">
        <ele>1296.8</ele>
        <time>2026-05-13T12:36:56Z</time>
      </trkpt>
      <trkpt lat="45.89969" lon="5.75683">
        <ele>1296.8</ele>
        <time>2026-05-13T12:36:57Z</time>
      </trkpt>
      <trkpt lat="45.89969" lon="5.75682">
        <ele>1297</ele>
        <time>2026-05-13T12:36:58Z</time>
      </trkpt>
      <trkpt lat="45.8997" lon="5.75682">
        <ele>1297.2</ele>
        <time>2026-05-13T12:36:59Z</time>
      </trkpt>
      <trkpt lat="45.89971" lon="5.75683">
        <ele>1297.2</ele>
        <time>2026-05-13T12:37:00Z</time>
      </trkpt>
      <trkpt lat="45.89971" lon="5.75684">
        <ele>1297.2</ele>
        <time>2026-05-13T12:37:01Z</time>
      </trkpt>
      <trkpt lat="45.89972" lon="5.75684">
        <ele>1297.6</ele>
        <time>2026-05-13T12:37:02Z</time>
      </trkpt>
      <trkpt lat="45.89973" lon="5.75684">
        <ele>1297.6</ele>
        <time>2026-05-13T12:37:03Z</time>
      </trkpt>
      <trkpt lat="45.89974" lon="5.75684">
        <ele>1297.8</ele>
        <time>2026-05-13T12:37:04Z</time>
      </trkpt>
      <trkpt lat="45.89975" lon="5.75684">
        <ele>1297.8</ele>
        <time>2026-05-13T12:37:05Z</time>
      </trkpt>
      <trkpt lat="45.89976" lon="5.75684">
        <ele>1298</ele>
        <time>2026-05-13T12:37:06Z</time>
      </trkpt>
      <trkpt lat="45.89977" lon="5.75683">
        <ele>1298</ele>
        <time>2026-05-13T12:37:07Z</time>
      </trkpt>
      <trkpt lat="45.89978" lon="5.75683">
        <ele>1298.4</ele>
        <time>2026-05-13T12:37:08Z</time>
      </trkpt>
      <trkpt lat="45.89979" lon="5.75683">
        <ele>1298.4</ele>
        <time>2026-05-13T12:37:09Z</time>
      </trkpt>
      <trkpt lat="45.8998" lon="5.75683">
        <ele>1298.6</ele>
        <time>2026-05-13T12:37:10Z</time>
      </trkpt>
      <trkpt lat="45.89982" lon="5.75683">
        <ele>1298.8</ele>
        <time>2026-05-13T12:37:11Z</time>
      </trkpt>
      <trkpt lat="45.89983" lon="5.75683">
        <ele>1298.8</ele>
        <time>2026-05-13T12:37:12Z</time>
      </trkpt>
      <trkpt lat="45.89984" lon="5.75683">
        <ele>1299.2</ele>
        <time>2026-05-13T12:37:13Z</time>
      </trkpt>
      <trkpt lat="45.89985" lon="5.75682">
        <ele>1299.2</ele>
        <time>2026-05-13T12:37:14Z</time>
      </trkpt>
      <trkpt lat="45.89988" lon="5.75681">
        <ele>1299.2</ele>
        <time>2026-05-13T12:37:15Z</time>
      </trkpt>
      <trkpt lat="45.89989" lon="5.75681">
        <ele>1299.4</ele>
        <time>2026-05-13T12:37:16Z</time>
      </trkpt>
      <trkpt lat="45.8999" lon="5.7568">
        <ele>1299.6</ele>
        <time>2026-05-13T12:37:17Z</time>
      </trkpt>
      <trkpt lat="45.89992" lon="5.75679">
        <ele>1299.6</ele>
        <time>2026-05-13T12:37:18Z</time>
      </trkpt>
      <trkpt lat="45.89993" lon="5.75679">
        <ele>1300</ele>
        <time>2026-05-13T12:37:19Z</time>
      </trkpt>
      <trkpt lat="45.89995" lon="5.75679">
        <ele>1300</ele>
        <time>2026-05-13T12:37:20Z</time>
      </trkpt>
      <trkpt lat="45.89996" lon="5.75679">
        <ele>1300</ele>
        <time>2026-05-13T12:37:21Z</time>
      </trkpt>
      <trkpt lat="45.89997" lon="5.7568">
        <ele>1300.4</ele>
        <time>2026-05-13T12:37:22Z</time>
      </trkpt>
      <trkpt lat="45.89999" lon="5.7568">
        <ele>1300.4</ele>
        <time>2026-05-13T12:37:23Z</time>
      </trkpt>
      <trkpt lat="45.9" lon="5.7568">
        <ele>1300.8</ele>
        <time>2026-05-13T12:37:24Z</time>
      </trkpt>
      <trkpt lat="45.90002" lon="5.7568">
        <ele>1300.8</ele>
        <time>2026-05-13T12:37:25Z</time>
      </trkpt>
      <trkpt lat="45.90003" lon="5.7568">
        <ele>1301.2</ele>
        <time>2026-05-13T12:37:26Z</time>
      </trkpt>
      <trkpt lat="45.90004" lon="5.7568">
        <ele>1301.4</ele>
        <time>2026-05-13T12:37:27Z</time>
      </trkpt>
      <trkpt lat="45.90006" lon="5.7568">
        <ele>1301.4</ele>
        <time>2026-05-13T12:37:28Z</time>
      </trkpt>
      <trkpt lat="45.90007" lon="5.75681">
        <ele>1301.8</ele>
        <time>2026-05-13T12:37:29Z</time>
      </trkpt>
      <trkpt lat="45.90009" lon="5.75681">
        <ele>1301.8</ele>
        <time>2026-05-13T12:37:30Z</time>
      </trkpt>
      <trkpt lat="45.9001" lon="5.75681">
        <ele>1302.2</ele>
        <time>2026-05-13T12:37:31Z</time>
      </trkpt>
      <trkpt lat="45.90012" lon="5.7568">
        <ele>1302.4</ele>
        <time>2026-05-13T12:37:32Z</time>
      </trkpt>
      <trkpt lat="45.90013" lon="5.7568">
        <ele>1302.6</ele>
        <time>2026-05-13T12:37:33Z</time>
      </trkpt>
      <trkpt lat="45.90014" lon="5.7568">
        <ele>1303</ele>
        <time>2026-05-13T12:37:34Z</time>
      </trkpt>
      <trkpt lat="45.90015" lon="5.7568">
        <ele>1303.2</ele>
        <time>2026-05-13T12:37:35Z</time>
      </trkpt>
      <trkpt lat="45.90016" lon="5.7568">
        <ele>1303.2</ele>
        <time>2026-05-13T12:37:36Z</time>
      </trkpt>
      <trkpt lat="45.90018" lon="5.7568">
        <ele>1303.6</ele>
        <time>2026-05-13T12:37:37Z</time>
      </trkpt>
      <trkpt lat="45.90019" lon="5.7568">
        <ele>1303.6</ele>
        <time>2026-05-13T12:37:38Z</time>
      </trkpt>
      <trkpt lat="45.9002" lon="5.7568">
        <ele>1303.8</ele>
        <time>2026-05-13T12:37:39Z</time>
      </trkpt>
      <trkpt lat="45.90022" lon="5.7568">
        <ele>1303.8</ele>
        <time>2026-05-13T12:37:40Z</time>
      </trkpt>
      <trkpt lat="45.90024" lon="5.7568">
        <ele>1303.8</ele>
        <time>2026-05-13T12:37:41Z</time>
      </trkpt>
      <trkpt lat="45.90026" lon="5.75681">
        <ele>1304.2</ele>
        <time>2026-05-13T12:37:42Z</time>
      </trkpt>
      <trkpt lat="45.90027" lon="5.75681">
        <ele>1304.2</ele>
        <time>2026-05-13T12:37:43Z</time>
      </trkpt>
      <trkpt lat="45.90028" lon="5.75682">
        <ele>1304.6</ele>
        <time>2026-05-13T12:37:44Z</time>
      </trkpt>
      <trkpt lat="45.9003" lon="5.75683">
        <ele>1304.8</ele>
        <time>2026-05-13T12:37:45Z</time>
      </trkpt>
      <trkpt lat="45.90031" lon="5.75684">
        <ele>1304.8</ele>
        <time>2026-05-13T12:37:46Z</time>
      </trkpt>
      <trkpt lat="45.90033" lon="5.75684">
        <ele>1304.8</ele>
        <time>2026-05-13T12:37:47Z</time>
      </trkpt>
      <trkpt lat="45.90035" lon="5.75685">
        <ele>1304.8</ele>
        <time>2026-05-13T12:37:48Z</time>
      </trkpt>
      <trkpt lat="45.90036" lon="5.75685">
        <ele>1304.8</ele>
        <time>2026-05-13T12:37:49Z</time>
      </trkpt>
      <trkpt lat="45.90038" lon="5.75684">
        <ele>1305</ele>
        <time>2026-05-13T12:37:50Z</time>
      </trkpt>
      <trkpt lat="45.90039" lon="5.75683">
        <ele>1305</ele>
        <time>2026-05-13T12:37:51Z</time>
      </trkpt>
      <trkpt lat="45.90039" lon="5.75682">
        <ele>1305</ele>
        <time>2026-05-13T12:37:52Z</time>
      </trkpt>
      <trkpt lat="45.9004" lon="5.75682">
        <ele>1305.4</ele>
        <time>2026-05-13T12:37:53Z</time>
      </trkpt>
      <trkpt lat="45.90042" lon="5.75682">
        <ele>1305.6</ele>
        <time>2026-05-13T12:37:54Z</time>
      </trkpt>
      <trkpt lat="45.90043" lon="5.75682">
        <ele>1305.6</ele>
        <time>2026-05-13T12:37:55Z</time>
      </trkpt>
      <trkpt lat="45.90044" lon="5.75683">
        <ele>1305.6</ele>
        <time>2026-05-13T12:37:56Z</time>
      </trkpt>
      <trkpt lat="45.90045" lon="5.75683">
        <ele>1306</ele>
        <time>2026-05-13T12:37:57Z</time>
      </trkpt>
      <trkpt lat="45.90046" lon="5.75683">
        <ele>1306</ele>
        <time>2026-05-13T12:37:58Z</time>
      </trkpt>
      <trkpt lat="45.90047" lon="5.75683">
        <ele>1306.4</ele>
        <time>2026-05-13T12:37:59Z</time>
      </trkpt>
      <trkpt lat="45.90048" lon="5.75682">
        <ele>1306.8</ele>
        <time>2026-05-13T12:38:00Z</time>
      </trkpt>
      <trkpt lat="45.90049" lon="5.75682">
        <ele>1306.8</ele>
        <time>2026-05-13T12:38:01Z</time>
      </trkpt>
      <trkpt lat="45.9005" lon="5.75681">
        <ele>1306.8</ele>
        <time>2026-05-13T12:38:02Z</time>
      </trkpt>
      <trkpt lat="45.90052" lon="5.75681">
        <ele>1307</ele>
        <time>2026-05-13T12:38:03Z</time>
      </trkpt>
      <trkpt lat="45.90053" lon="5.7568">
        <ele>1307</ele>
        <time>2026-05-13T12:38:04Z</time>
      </trkpt>
      <trkpt lat="45.90053" lon="5.7568">
        <ele>1307.4</ele>
        <time>2026-05-13T12:38:05Z</time>
      </trkpt>
      <trkpt lat="45.90054" lon="5.7568">
        <ele>1307.4</ele>
        <time>2026-05-13T12:38:06Z</time>
      </trkpt>
      <trkpt lat="45.90056" lon="5.75679">
        <ele>1307.4</ele>
        <time>2026-05-13T12:38:07Z</time>
      </trkpt>
      <trkpt lat="45.90057" lon="5.75679">
        <ele>1307.4</ele>
        <time>2026-05-13T12:38:08Z</time>
      </trkpt>
      <trkpt lat="45.90058" lon="5.75678">
        <ele>1307.6</ele>
        <time>2026-05-13T12:38:09Z</time>
      </trkpt>
      <trkpt lat="45.90059" lon="5.75678">
        <ele>1307.6</ele>
        <time>2026-05-13T12:38:10Z</time>
      </trkpt>
      <trkpt lat="45.9006" lon="5.75678">
        <ele>1307.8</ele>
        <time>2026-05-13T12:38:11Z</time>
      </trkpt>
      <trkpt lat="45.90062" lon="5.75678">
        <ele>1307.8</ele>
        <time>2026-05-13T12:38:12Z</time>
      </trkpt>
      <trkpt lat="45.90063" lon="5.75678">
        <ele>1308.2</ele>
        <time>2026-05-13T12:38:13Z</time>
      </trkpt>
      <trkpt lat="45.90063" lon="5.75678">
        <ele>1308.2</ele>
        <time>2026-05-13T12:38:14Z</time>
      </trkpt>
      <trkpt lat="45.90064" lon="5.75677">
        <ele>1308.6</ele>
        <time>2026-05-13T12:38:15Z</time>
      </trkpt>
      <trkpt lat="45.90065" lon="5.75675">
        <ele>1308.6</ele>
        <time>2026-05-13T12:38:16Z</time>
      </trkpt>
      <trkpt lat="45.90065" lon="5.75674">
        <ele>1308.8</ele>
        <time>2026-05-13T12:38:17Z</time>
      </trkpt>
      <trkpt lat="45.90066" lon="5.75673">
        <ele>1308.8</ele>
        <time>2026-05-13T12:38:18Z</time>
      </trkpt>
      <trkpt lat="45.90067" lon="5.75672">
        <ele>1309.2</ele>
        <time>2026-05-13T12:38:19Z</time>
      </trkpt>
      <trkpt lat="45.90068" lon="5.75672">
        <ele>1309.4</ele>
        <time>2026-05-13T12:38:20Z</time>
      </trkpt>
      <trkpt lat="45.90069" lon="5.75672">
        <ele>1309.4</ele>
        <time>2026-05-13T12:38:21Z</time>
      </trkpt>
      <trkpt lat="45.9007" lon="5.75672">
        <ele>1309.8</ele>
        <time>2026-05-13T12:38:22Z</time>
      </trkpt>
      <trkpt lat="45.90071" lon="5.75673">
        <ele>1310</ele>
        <time>2026-05-13T12:38:23Z</time>
      </trkpt>
      <trkpt lat="45.90072" lon="5.75673">
        <ele>1310.2</ele>
        <time>2026-05-13T12:38:24Z</time>
      </trkpt>
      <trkpt lat="45.90074" lon="5.75673">
        <ele>1310.4</ele>
        <time>2026-05-13T12:38:25Z</time>
      </trkpt>
      <trkpt lat="45.90075" lon="5.75673">
        <ele>1310.4</ele>
        <time>2026-05-13T12:38:26Z</time>
      </trkpt>
      <trkpt lat="45.90076" lon="5.75673">
        <ele>1310.8</ele>
        <time>2026-05-13T12:38:27Z</time>
      </trkpt>
      <trkpt lat="45.90077" lon="5.75673">
        <ele>1310.8</ele>
        <time>2026-05-13T12:38:28Z</time>
      </trkpt>
      <trkpt lat="45.90079" lon="5.75673">
        <ele>1311.2</ele>
        <time>2026-05-13T12:38:29Z</time>
      </trkpt>
      <trkpt lat="45.9008" lon="5.75673">
        <ele>1311.4</ele>
        <time>2026-05-13T12:38:30Z</time>
      </trkpt>
      <trkpt lat="45.90081" lon="5.75673">
        <ele>1311.8</ele>
        <time>2026-05-13T12:38:31Z</time>
      </trkpt>
      <trkpt lat="45.90082" lon="5.75672">
        <ele>1311.8</ele>
        <time>2026-05-13T12:38:32Z</time>
      </trkpt>
      <trkpt lat="45.90083" lon="5.75672">
        <ele>1312.2</ele>
        <time>2026-05-13T12:38:33Z</time>
      </trkpt>
      <trkpt lat="45.90084" lon="5.75672">
        <ele>1312.2</ele>
        <time>2026-05-13T12:38:34Z</time>
      </trkpt>
      <trkpt lat="45.90085" lon="5.75672">
        <ele>1312.6</ele>
        <time>2026-05-13T12:38:35Z</time>
      </trkpt>
      <trkpt lat="45.90086" lon="5.75672">
        <ele>1312.6</ele>
        <time>2026-05-13T12:38:36Z</time>
      </trkpt>
      <trkpt lat="45.90087" lon="5.75672">
        <ele>1312.6</ele>
        <time>2026-05-13T12:38:37Z</time>
      </trkpt>
      <trkpt lat="45.90088" lon="5.75672">
        <ele>1312.6</ele>
        <time>2026-05-13T12:38:38Z</time>
      </trkpt>
      <trkpt lat="45.90089" lon="5.75671">
        <ele>1312.8</ele>
        <time>2026-05-13T12:38:39Z</time>
      </trkpt>
      <trkpt lat="45.9009" lon="5.75671">
        <ele>1312.8</ele>
        <time>2026-05-13T12:38:40Z</time>
      </trkpt>
      <trkpt lat="45.90092" lon="5.75671">
        <ele>1313</ele>
        <time>2026-05-13T12:38:41Z</time>
      </trkpt>
      <trkpt lat="45.90092" lon="5.75671">
        <ele>1313</ele>
        <time>2026-05-13T12:38:42Z</time>
      </trkpt>
      <trkpt lat="45.90093" lon="5.75671">
        <ele>1313.4</ele>
        <time>2026-05-13T12:38:43Z</time>
      </trkpt>
      <trkpt lat="45.90094" lon="5.75671">
        <ele>1313.4</ele>
        <time>2026-05-13T12:38:44Z</time>
      </trkpt>
      <trkpt lat="45.90095" lon="5.7567">
        <ele>1313.6</ele>
        <time>2026-05-13T12:38:45Z</time>
      </trkpt>
      <trkpt lat="45.90096" lon="5.75669">
        <ele>1313.6</ele>
        <time>2026-05-13T12:38:46Z</time>
      </trkpt>
      <trkpt lat="45.90097" lon="5.75668">
        <ele>1314</ele>
        <time>2026-05-13T12:38:47Z</time>
      </trkpt>
      <trkpt lat="45.90098" lon="5.75668">
        <ele>1314</ele>
        <time>2026-05-13T12:38:48Z</time>
      </trkpt>
      <trkpt lat="45.901" lon="5.75667">
        <ele>1314.2</ele>
        <time>2026-05-13T12:38:49Z</time>
      </trkpt>
      <trkpt lat="45.90101" lon="5.75667">
        <ele>1314.2</ele>
        <time>2026-05-13T12:38:50Z</time>
      </trkpt>
      <trkpt lat="45.90102" lon="5.75668">
        <ele>1314.6</ele>
        <time>2026-05-13T12:38:51Z</time>
      </trkpt>
      <trkpt lat="45.90103" lon="5.75668">
        <ele>1314.6</ele>
        <time>2026-05-13T12:38:52Z</time>
      </trkpt>
      <trkpt lat="45.90104" lon="5.75669">
        <ele>1314.8</ele>
        <time>2026-05-13T12:38:53Z</time>
      </trkpt>
      <trkpt lat="45.90106" lon="5.7567">
        <ele>1314.8</ele>
        <time>2026-05-13T12:38:54Z</time>
      </trkpt>
      <trkpt lat="45.90107" lon="5.75671">
        <ele>1315</ele>
        <time>2026-05-13T12:38:55Z</time>
      </trkpt>
      <trkpt lat="45.90109" lon="5.75671">
        <ele>1315.4</ele>
        <time>2026-05-13T12:38:56Z</time>
      </trkpt>
      <trkpt lat="45.9011" lon="5.75671">
        <ele>1315.6</ele>
        <time>2026-05-13T12:38:57Z</time>
      </trkpt>
      <trkpt lat="45.90111" lon="5.75671">
        <ele>1315.6</ele>
        <time>2026-05-13T12:38:58Z</time>
      </trkpt>
      <trkpt lat="45.90112" lon="5.7567">
        <ele>1315.8</ele>
        <time>2026-05-13T12:38:59Z</time>
      </trkpt>
      <trkpt lat="45.90113" lon="5.7567">
        <ele>1316</ele>
        <time>2026-05-13T12:39:00Z</time>
      </trkpt>
      <trkpt lat="45.90115" lon="5.75669">
        <ele>1316.2</ele>
        <time>2026-05-13T12:39:01Z</time>
      </trkpt>
      <trkpt lat="45.90116" lon="5.75668">
        <ele>1316.2</ele>
        <time>2026-05-13T12:39:02Z</time>
      </trkpt>
      <trkpt lat="45.90117" lon="5.75667">
        <ele>1316.6</ele>
        <time>2026-05-13T12:39:03Z</time>
      </trkpt>
      <trkpt lat="45.90119" lon="5.75666">
        <ele>1316.6</ele>
        <time>2026-05-13T12:39:04Z</time>
      </trkpt>
      <trkpt lat="45.9012" lon="5.75665">
        <ele>1316.8</ele>
        <time>2026-05-13T12:39:05Z</time>
      </trkpt>
      <trkpt lat="45.90121" lon="5.75665">
        <ele>1317</ele>
        <time>2026-05-13T12:39:06Z</time>
      </trkpt>
      <trkpt lat="45.90122" lon="5.75664">
        <ele>1317</ele>
        <time>2026-05-13T12:39:07Z</time>
      </trkpt>
      <trkpt lat="45.90124" lon="5.75664">
        <ele>1317.4</ele>
        <time>2026-05-13T12:39:08Z</time>
      </trkpt>
      <trkpt lat="45.90125" lon="5.75664">
        <ele>1317.6</ele>
        <time>2026-05-13T12:39:09Z</time>
      </trkpt>
      <trkpt lat="45.90127" lon="5.75664">
        <ele>1317.8</ele>
        <time>2026-05-13T12:39:10Z</time>
      </trkpt>
      <trkpt lat="45.90128" lon="5.75664">
        <ele>1317.8</ele>
        <time>2026-05-13T12:39:11Z</time>
      </trkpt>
      <trkpt lat="45.90129" lon="5.75663">
        <ele>1318.2</ele>
        <time>2026-05-13T12:39:12Z</time>
      </trkpt>
      <trkpt lat="45.9013" lon="5.75663">
        <ele>1318.2</ele>
        <time>2026-05-13T12:39:13Z</time>
      </trkpt>
      <trkpt lat="45.90131" lon="5.75662">
        <ele>1318.6</ele>
        <time>2026-05-13T12:39:14Z</time>
      </trkpt>
      <trkpt lat="45.90133" lon="5.75662">
        <ele>1318.8</ele>
        <time>2026-05-13T12:39:15Z</time>
      </trkpt>
      <trkpt lat="45.90134" lon="5.75662">
        <ele>1319</ele>
        <time>2026-05-13T12:39:16Z</time>
      </trkpt>
      <trkpt lat="45.90135" lon="5.75661">
        <ele>1319</ele>
        <time>2026-05-13T12:39:17Z</time>
      </trkpt>
      <trkpt lat="45.90136" lon="5.7566">
        <ele>1319.4</ele>
        <time>2026-05-13T12:39:18Z</time>
      </trkpt>
      <trkpt lat="45.90137" lon="5.7566">
        <ele>1319.4</ele>
        <time>2026-05-13T12:39:19Z</time>
      </trkpt>
      <trkpt lat="45.90138" lon="5.7566">
        <ele>1319.6</ele>
        <time>2026-05-13T12:39:20Z</time>
      </trkpt>
      <trkpt lat="45.90139" lon="5.75658">
        <ele>1319.6</ele>
        <time>2026-05-13T12:39:21Z</time>
      </trkpt>
      <trkpt lat="45.9014" lon="5.75657">
        <ele>1319.8</ele>
        <time>2026-05-13T12:39:22Z</time>
      </trkpt>
      <trkpt lat="45.90141" lon="5.75656">
        <ele>1320.2</ele>
        <time>2026-05-13T12:39:23Z</time>
      </trkpt>
      <trkpt lat="45.90141" lon="5.75655">
        <ele>1320.4</ele>
        <time>2026-05-13T12:39:24Z</time>
      </trkpt>
      <trkpt lat="45.90143" lon="5.75655">
        <ele>1320.4</ele>
        <time>2026-05-13T12:39:25Z</time>
      </trkpt>
      <trkpt lat="45.90144" lon="5.75655">
        <ele>1320.6</ele>
        <time>2026-05-13T12:39:26Z</time>
      </trkpt>
      <trkpt lat="45.90145" lon="5.75655">
        <ele>1320.6</ele>
        <time>2026-05-13T12:39:27Z</time>
      </trkpt>
      <trkpt lat="45.90147" lon="5.75654">
        <ele>1320.8</ele>
        <time>2026-05-13T12:39:28Z</time>
      </trkpt>
      <trkpt lat="45.90148" lon="5.75654">
        <ele>1321.2</ele>
        <time>2026-05-13T12:39:29Z</time>
      </trkpt>
      <trkpt lat="45.9015" lon="5.75654">
        <ele>1321.4</ele>
        <time>2026-05-13T12:39:30Z</time>
      </trkpt>
      <trkpt lat="45.90151" lon="5.75654">
        <ele>1321.4</ele>
        <time>2026-05-13T12:39:31Z</time>
      </trkpt>
      <trkpt lat="45.90153" lon="5.75654">
        <ele>1321.4</ele>
        <time>2026-05-13T12:39:32Z</time>
      </trkpt>
      <trkpt lat="45.90154" lon="5.75654">
        <ele>1321.8</ele>
        <time>2026-05-13T12:39:33Z</time>
      </trkpt>
      <trkpt lat="45.90155" lon="5.75653">
        <ele>1321.8</ele>
        <time>2026-05-13T12:39:34Z</time>
      </trkpt>
      <trkpt lat="45.90156" lon="5.75653">
        <ele>1321.8</ele>
        <time>2026-05-13T12:39:35Z</time>
      </trkpt>
      <trkpt lat="45.90158" lon="5.75653">
        <ele>1322.2</ele>
        <time>2026-05-13T12:39:36Z</time>
      </trkpt>
      <trkpt lat="45.90158" lon="5.75652">
        <ele>1322.2</ele>
        <time>2026-05-13T12:39:37Z</time>
      </trkpt>
      <trkpt lat="45.90159" lon="5.75652">
        <ele>1322.2</ele>
        <time>2026-05-13T12:39:38Z</time>
      </trkpt>
      <trkpt lat="45.9016" lon="5.75651">
        <ele>1322.6</ele>
        <time>2026-05-13T12:39:39Z</time>
      </trkpt>
      <trkpt lat="45.9016" lon="5.7565">
        <ele>1322.6</ele>
        <time>2026-05-13T12:39:40Z</time>
      </trkpt>
      <trkpt lat="45.90163" lon="5.75648">
        <ele>1323</ele>
        <time>2026-05-13T12:39:41Z</time>
      </trkpt>
      <trkpt lat="45.90164" lon="5.75648">
        <ele>1323</ele>
        <time>2026-05-13T12:39:42Z</time>
      </trkpt>
      <trkpt lat="45.90166" lon="5.75648">
        <ele>1323.4</ele>
        <time>2026-05-13T12:39:43Z</time>
      </trkpt>
      <trkpt lat="45.90167" lon="5.75648">
        <ele>1323.4</ele>
        <time>2026-05-13T12:39:44Z</time>
      </trkpt>
      <trkpt lat="45.90168" lon="5.75648">
        <ele>1323.6</ele>
        <time>2026-05-13T12:39:45Z</time>
      </trkpt>
      <trkpt lat="45.9017" lon="5.75647">
        <ele>1323.6</ele>
        <time>2026-05-13T12:39:46Z</time>
      </trkpt>
      <trkpt lat="45.90171" lon="5.75647">
        <ele>1323.6</ele>
        <time>2026-05-13T12:39:47Z</time>
      </trkpt>
      <trkpt lat="45.90173" lon="5.75646">
        <ele>1323.8</ele>
        <time>2026-05-13T12:39:48Z</time>
      </trkpt>
      <trkpt lat="45.90174" lon="5.75646">
        <ele>1323.8</ele>
        <time>2026-05-13T12:39:49Z</time>
      </trkpt>
      <trkpt lat="45.90176" lon="5.75645">
        <ele>1324</ele>
        <time>2026-05-13T12:39:50Z</time>
      </trkpt>
      <trkpt lat="45.90178" lon="5.75644">
        <ele>1324</ele>
        <time>2026-05-13T12:39:51Z</time>
      </trkpt>
      <trkpt lat="45.90179" lon="5.75643">
        <ele>1324.4</ele>
        <time>2026-05-13T12:39:52Z</time>
      </trkpt>
      <trkpt lat="45.90179" lon="5.75643">
        <ele>1324.6</ele>
        <time>2026-05-13T12:39:53Z</time>
      </trkpt>
      <trkpt lat="45.90181" lon="5.75643">
        <ele>1324.6</ele>
        <time>2026-05-13T12:39:54Z</time>
      </trkpt>
      <trkpt lat="45.90182" lon="5.75643">
        <ele>1324.6</ele>
        <time>2026-05-13T12:39:55Z</time>
      </trkpt>
      <trkpt lat="45.90183" lon="5.75643">
        <ele>1325</ele>
        <time>2026-05-13T12:39:56Z</time>
      </trkpt>
      <trkpt lat="45.90184" lon="5.75643">
        <ele>1325.2</ele>
        <time>2026-05-13T12:39:57Z</time>
      </trkpt>
      <trkpt lat="45.90185" lon="5.75643">
        <ele>1325.2</ele>
        <time>2026-05-13T12:39:58Z</time>
      </trkpt>
      <trkpt lat="45.90186" lon="5.75643">
        <ele>1325.4</ele>
        <time>2026-05-13T12:39:59Z</time>
      </trkpt>
      <trkpt lat="45.90187" lon="5.75642">
        <ele>1325.4</ele>
        <time>2026-05-13T12:40:00Z</time>
      </trkpt>
      <trkpt lat="45.90188" lon="5.75642">
        <ele>1325.8</ele>
        <time>2026-05-13T12:40:01Z</time>
      </trkpt>
      <trkpt lat="45.90189" lon="5.75641">
        <ele>1325.8</ele>
        <time>2026-05-13T12:40:02Z</time>
      </trkpt>
      <trkpt lat="45.9019" lon="5.75641">
        <ele>1326</ele>
        <time>2026-05-13T12:40:03Z</time>
      </trkpt>
      <trkpt lat="45.90191" lon="5.7564">
        <ele>1326</ele>
        <time>2026-05-13T12:40:04Z</time>
      </trkpt>
      <trkpt lat="45.90192" lon="5.7564">
        <ele>1326.2</ele>
        <time>2026-05-13T12:40:05Z</time>
      </trkpt>
      <trkpt lat="45.90192" lon="5.75639">
        <ele>1326.2</ele>
        <time>2026-05-13T12:40:06Z</time>
      </trkpt>
      <trkpt lat="45.90193" lon="5.75639">
        <ele>1326.6</ele>
        <time>2026-05-13T12:40:07Z</time>
      </trkpt>
      <trkpt lat="45.90195" lon="5.75639">
        <ele>1326.6</ele>
        <time>2026-05-13T12:40:08Z</time>
      </trkpt>
      <trkpt lat="45.90196" lon="5.75638">
        <ele>1327</ele>
        <time>2026-05-13T12:40:09Z</time>
      </trkpt>
      <trkpt lat="45.90197" lon="5.75638">
        <ele>1327</ele>
        <time>2026-05-13T12:40:10Z</time>
      </trkpt>
      <trkpt lat="45.90198" lon="5.75637">
        <ele>1327.4</ele>
        <time>2026-05-13T12:40:11Z</time>
      </trkpt>
      <trkpt lat="45.902" lon="5.75637">
        <ele>1327.4</ele>
        <time>2026-05-13T12:40:12Z</time>
      </trkpt>
      <trkpt lat="45.90201" lon="5.75636">
        <ele>1327.4</ele>
        <time>2026-05-13T12:40:13Z</time>
      </trkpt>
      <trkpt lat="45.90202" lon="5.75636">
        <ele>1327.6</ele>
        <time>2026-05-13T12:40:14Z</time>
      </trkpt>
      <trkpt lat="45.90203" lon="5.75636">
        <ele>1327.6</ele>
        <time>2026-05-13T12:40:15Z</time>
      </trkpt>
      <trkpt lat="45.90204" lon="5.75636">
        <ele>1328</ele>
        <time>2026-05-13T12:40:16Z</time>
      </trkpt>
      <trkpt lat="45.90205" lon="5.75636">
        <ele>1328</ele>
        <time>2026-05-13T12:40:17Z</time>
      </trkpt>
      <trkpt lat="45.90206" lon="5.75636">
        <ele>1328.2</ele>
        <time>2026-05-13T12:40:18Z</time>
      </trkpt>
      <trkpt lat="45.90207" lon="5.75635">
        <ele>1328.2</ele>
        <time>2026-05-13T12:40:19Z</time>
      </trkpt>
      <trkpt lat="45.90209" lon="5.75635">
        <ele>1328.4</ele>
        <time>2026-05-13T12:40:20Z</time>
      </trkpt>
      <trkpt lat="45.9021" lon="5.75635">
        <ele>1328.4</ele>
        <time>2026-05-13T12:40:21Z</time>
      </trkpt>
      <trkpt lat="45.90211" lon="5.75635">
        <ele>1328.6</ele>
        <time>2026-05-13T12:40:22Z</time>
      </trkpt>
      <trkpt lat="45.90212" lon="5.75634">
        <ele>1329</ele>
        <time>2026-05-13T12:40:23Z</time>
      </trkpt>
      <trkpt lat="45.90214" lon="5.75634">
        <ele>1329</ele>
        <time>2026-05-13T12:40:24Z</time>
      </trkpt>
      <trkpt lat="45.90215" lon="5.75633">
        <ele>1329</ele>
        <time>2026-05-13T12:40:25Z</time>
      </trkpt>
      <trkpt lat="45.90216" lon="5.75633">
        <ele>1329.4</ele>
        <time>2026-05-13T12:40:26Z</time>
      </trkpt>
      <trkpt lat="45.90218" lon="5.75633">
        <ele>1329.4</ele>
        <time>2026-05-13T12:40:27Z</time>
      </trkpt>
      <trkpt lat="45.90219" lon="5.75632">
        <ele>1329.6</ele>
        <time>2026-05-13T12:40:28Z</time>
      </trkpt>
      <trkpt lat="45.9022" lon="5.75631">
        <ele>1329.6</ele>
        <time>2026-05-13T12:40:29Z</time>
      </trkpt>
      <trkpt lat="45.90221" lon="5.75631">
        <ele>1329.8</ele>
        <time>2026-05-13T12:40:30Z</time>
      </trkpt>
      <trkpt lat="45.90222" lon="5.75631">
        <ele>1329.8</ele>
        <time>2026-05-13T12:40:31Z</time>
      </trkpt>
      <trkpt lat="45.90223" lon="5.7563">
        <ele>1330</ele>
        <time>2026-05-13T12:40:32Z</time>
      </trkpt>
      <trkpt lat="45.90224" lon="5.7563">
        <ele>1330</ele>
        <time>2026-05-13T12:40:33Z</time>
      </trkpt>
      <trkpt lat="45.90226" lon="5.7563">
        <ele>1330.2</ele>
        <time>2026-05-13T12:40:34Z</time>
      </trkpt>
      <trkpt lat="45.90227" lon="5.7563">
        <ele>1330.2</ele>
        <time>2026-05-13T12:40:35Z</time>
      </trkpt>
      <trkpt lat="45.90228" lon="5.75629">
        <ele>1330.2</ele>
        <time>2026-05-13T12:40:36Z</time>
      </trkpt>
      <trkpt lat="45.90229" lon="5.75629">
        <ele>1330.6</ele>
        <time>2026-05-13T12:40:37Z</time>
      </trkpt>
      <trkpt lat="45.9023" lon="5.75628">
        <ele>1330.6</ele>
        <time>2026-05-13T12:40:38Z</time>
      </trkpt>
      <trkpt lat="45.90231" lon="5.75627">
        <ele>1330.8</ele>
        <time>2026-05-13T12:40:39Z</time>
      </trkpt>
      <trkpt lat="45.90233" lon="5.75627">
        <ele>1330.8</ele>
        <time>2026-05-13T12:40:40Z</time>
      </trkpt>
      <trkpt lat="45.90234" lon="5.75627">
        <ele>1330.8</ele>
        <time>2026-05-13T12:40:41Z</time>
      </trkpt>
      <trkpt lat="45.90235" lon="5.75627">
        <ele>1331</ele>
        <time>2026-05-13T12:40:42Z</time>
      </trkpt>
      <trkpt lat="45.90236" lon="5.75627">
        <ele>1331</ele>
        <time>2026-05-13T12:40:43Z</time>
      </trkpt>
      <trkpt lat="45.90237" lon="5.75626">
        <ele>1331</ele>
        <time>2026-05-13T12:40:44Z</time>
      </trkpt>
      <trkpt lat="45.90238" lon="5.75626">
        <ele>1331.6</ele>
        <time>2026-05-13T12:40:45Z</time>
      </trkpt>
      <trkpt lat="45.90239" lon="5.75626">
        <ele>1331.6</ele>
        <time>2026-05-13T12:40:46Z</time>
      </trkpt>
      <trkpt lat="45.9024" lon="5.75625">
        <ele>1331.8</ele>
        <time>2026-05-13T12:40:47Z</time>
      </trkpt>
      <trkpt lat="45.90242" lon="5.75625">
        <ele>1331.8</ele>
        <time>2026-05-13T12:40:48Z</time>
      </trkpt>
      <trkpt lat="45.90243" lon="5.75625">
        <ele>1332</ele>
        <time>2026-05-13T12:40:49Z</time>
      </trkpt>
      <trkpt lat="45.90244" lon="5.75625">
        <ele>1332</ele>
        <time>2026-05-13T12:40:50Z</time>
      </trkpt>
      <trkpt lat="45.90245" lon="5.75624">
        <ele>1332.4</ele>
        <time>2026-05-13T12:40:51Z</time>
      </trkpt>
      <trkpt lat="45.90246" lon="5.75624">
        <ele>1332.4</ele>
        <time>2026-05-13T12:40:52Z</time>
      </trkpt>
      <trkpt lat="45.90247" lon="5.75624">
        <ele>1332.4</ele>
        <time>2026-05-13T12:40:53Z</time>
      </trkpt>
      <trkpt lat="45.90249" lon="5.75624">
        <ele>1332.4</ele>
        <time>2026-05-13T12:40:54Z</time>
      </trkpt>
      <trkpt lat="45.9025" lon="5.75624">
        <ele>1332.6</ele>
        <time>2026-05-13T12:40:55Z</time>
      </trkpt>
      <trkpt lat="45.90251" lon="5.75623">
        <ele>1332.6</ele>
        <time>2026-05-13T12:40:56Z</time>
      </trkpt>
      <trkpt lat="45.90253" lon="5.75623">
        <ele>1333</ele>
        <time>2026-05-13T12:40:57Z</time>
      </trkpt>
      <trkpt lat="45.90254" lon="5.75623">
        <ele>1333</ele>
        <time>2026-05-13T12:40:58Z</time>
      </trkpt>
      <trkpt lat="45.90255" lon="5.75623">
        <ele>1333.2</ele>
        <time>2026-05-13T12:40:59Z</time>
      </trkpt>
      <trkpt lat="45.90257" lon="5.75623">
        <ele>1333.2</ele>
        <time>2026-05-13T12:41:00Z</time>
      </trkpt>
      <trkpt lat="45.90258" lon="5.75622">
        <ele>1333.6</ele>
        <time>2026-05-13T12:41:01Z</time>
      </trkpt>
      <trkpt lat="45.90259" lon="5.75621">
        <ele>1333.6</ele>
        <time>2026-05-13T12:41:02Z</time>
      </trkpt>
      <trkpt lat="45.9026" lon="5.75621">
        <ele>1333.6</ele>
        <time>2026-05-13T12:41:03Z</time>
      </trkpt>
      <trkpt lat="45.90261" lon="5.75621">
        <ele>1334</ele>
        <time>2026-05-13T12:41:04Z</time>
      </trkpt>
      <trkpt lat="45.90262" lon="5.7562">
        <ele>1334</ele>
        <time>2026-05-13T12:41:05Z</time>
      </trkpt>
      <trkpt lat="45.90263" lon="5.7562">
        <ele>1334.2</ele>
        <time>2026-05-13T12:41:06Z</time>
      </trkpt>
      <trkpt lat="45.90265" lon="5.7562">
        <ele>1334.2</ele>
        <time>2026-05-13T12:41:07Z</time>
      </trkpt>
      <trkpt lat="45.90266" lon="5.7562">
        <ele>1334.6</ele>
        <time>2026-05-13T12:41:08Z</time>
      </trkpt>
      <trkpt lat="45.90267" lon="5.75619">
        <ele>1334.6</ele>
        <time>2026-05-13T12:41:09Z</time>
      </trkpt>
      <trkpt lat="45.90268" lon="5.75619">
        <ele>1334.6</ele>
        <time>2026-05-13T12:41:10Z</time>
      </trkpt>
      <trkpt lat="45.90269" lon="5.75619">
        <ele>1334.6</ele>
        <time>2026-05-13T12:41:11Z</time>
      </trkpt>
      <trkpt lat="45.9027" lon="5.75618">
        <ele>1335.2</ele>
        <time>2026-05-13T12:41:12Z</time>
      </trkpt>
      <trkpt lat="45.90271" lon="5.75618">
        <ele>1335.4</ele>
        <time>2026-05-13T12:41:13Z</time>
      </trkpt>
      <trkpt lat="45.90272" lon="5.75618">
        <ele>1335.8</ele>
        <time>2026-05-13T12:41:14Z</time>
      </trkpt>
      <trkpt lat="45.90273" lon="5.75617">
        <ele>1336</ele>
        <time>2026-05-13T12:41:15Z</time>
      </trkpt>
      <trkpt lat="45.90274" lon="5.75617">
        <ele>1336</ele>
        <time>2026-05-13T12:41:16Z</time>
      </trkpt>
      <trkpt lat="45.90276" lon="5.75616">
        <ele>1336</ele>
        <time>2026-05-13T12:41:17Z</time>
      </trkpt>
      <trkpt lat="45.90277" lon="5.75616">
        <ele>1336</ele>
        <time>2026-05-13T12:41:18Z</time>
      </trkpt>
      <trkpt lat="45.90278" lon="5.75615">
        <ele>1336.4</ele>
        <time>2026-05-13T12:41:19Z</time>
      </trkpt>
      <trkpt lat="45.90279" lon="5.75615">
        <ele>1336.4</ele>
        <time>2026-05-13T12:41:20Z</time>
      </trkpt>
      <trkpt lat="45.9028" lon="5.75614">
        <ele>1336.4</ele>
        <time>2026-05-13T12:41:21Z</time>
      </trkpt>
      <trkpt lat="45.90281" lon="5.75613">
        <ele>1336.4</ele>
        <time>2026-05-13T12:41:22Z</time>
      </trkpt>
      <trkpt lat="45.90282" lon="5.75613">
        <ele>1336.6</ele>
        <time>2026-05-13T12:41:23Z</time>
      </trkpt>
      <trkpt lat="45.90284" lon="5.75612">
        <ele>1336.6</ele>
        <time>2026-05-13T12:41:24Z</time>
      </trkpt>
      <trkpt lat="45.90285" lon="5.75612">
        <ele>1336.6</ele>
        <time>2026-05-13T12:41:25Z</time>
      </trkpt>
      <trkpt lat="45.90286" lon="5.75612">
        <ele>1336.8</ele>
        <time>2026-05-13T12:41:26Z</time>
      </trkpt>
      <trkpt lat="45.90287" lon="5.75613">
        <ele>1336.8</ele>
        <time>2026-05-13T12:41:27Z</time>
      </trkpt>
      <trkpt lat="45.90288" lon="5.75613">
        <ele>1337</ele>
        <time>2026-05-13T12:41:28Z</time>
      </trkpt>
      <trkpt lat="45.90289" lon="5.75612">
        <ele>1337.4</ele>
        <time>2026-05-13T12:41:29Z</time>
      </trkpt>
      <trkpt lat="45.9029" lon="5.75611">
        <ele>1337.4</ele>
        <time>2026-05-13T12:41:30Z</time>
      </trkpt>
      <trkpt lat="45.90292" lon="5.75611">
        <ele>1337.4</ele>
        <time>2026-05-13T12:41:31Z</time>
      </trkpt>
      <trkpt lat="45.90293" lon="5.75611">
        <ele>1337.4</ele>
        <time>2026-05-13T12:41:32Z</time>
      </trkpt>
      <trkpt lat="45.90294" lon="5.75611">
        <ele>1337.6</ele>
        <time>2026-05-13T12:41:33Z</time>
      </trkpt>
      <trkpt lat="45.90295" lon="5.75611">
        <ele>1337.6</ele>
        <time>2026-05-13T12:41:34Z</time>
      </trkpt>
      <trkpt lat="45.90296" lon="5.7561">
        <ele>1337.6</ele>
        <time>2026-05-13T12:41:35Z</time>
      </trkpt>
      <trkpt lat="45.90297" lon="5.7561">
        <ele>1337.6</ele>
        <time>2026-05-13T12:41:36Z</time>
      </trkpt>
      <trkpt lat="45.90298" lon="5.75609">
        <ele>1338.2</ele>
        <time>2026-05-13T12:41:37Z</time>
      </trkpt>
      <trkpt lat="45.903" lon="5.75609">
        <ele>1338.2</ele>
        <time>2026-05-13T12:41:38Z</time>
      </trkpt>
      <trkpt lat="45.90301" lon="5.75608">
        <ele>1338.4</ele>
        <time>2026-05-13T12:41:39Z</time>
      </trkpt>
      <trkpt lat="45.90302" lon="5.75608">
        <ele>1338.4</ele>
        <time>2026-05-13T12:41:40Z</time>
      </trkpt>
      <trkpt lat="45.90303" lon="5.75609">
        <ele>1338.6</ele>
        <time>2026-05-13T12:41:41Z</time>
      </trkpt>
      <trkpt lat="45.90304" lon="5.75609">
        <ele>1338.8</ele>
        <time>2026-05-13T12:41:42Z</time>
      </trkpt>
      <trkpt lat="45.90305" lon="5.75609">
        <ele>1338.8</ele>
        <time>2026-05-13T12:41:43Z</time>
      </trkpt>
      <trkpt lat="45.90306" lon="5.75608">
        <ele>1339.2</ele>
        <time>2026-05-13T12:41:44Z</time>
      </trkpt>
      <trkpt lat="45.90307" lon="5.75608">
        <ele>1339.2</ele>
        <time>2026-05-13T12:41:45Z</time>
      </trkpt>
      <trkpt lat="45.90308" lon="5.75608">
        <ele>1339.2</ele>
        <time>2026-05-13T12:41:46Z</time>
      </trkpt>
      <trkpt lat="45.90309" lon="5.75608">
        <ele>1339.2</ele>
        <time>2026-05-13T12:41:47Z</time>
      </trkpt>
      <trkpt lat="45.9031" lon="5.75607">
        <ele>1339.4</ele>
        <time>2026-05-13T12:41:48Z</time>
      </trkpt>
      <trkpt lat="45.90311" lon="5.75607">
        <ele>1339.6</ele>
        <time>2026-05-13T12:41:49Z</time>
      </trkpt>
      <trkpt lat="45.90312" lon="5.75607">
        <ele>1339.6</ele>
        <time>2026-05-13T12:41:50Z</time>
      </trkpt>
      <trkpt lat="45.90314" lon="5.75607">
        <ele>1339.6</ele>
        <time>2026-05-13T12:41:51Z</time>
      </trkpt>
      <trkpt lat="45.90315" lon="5.75607">
        <ele>1340</ele>
        <time>2026-05-13T12:41:52Z</time>
      </trkpt>
      <trkpt lat="45.90315" lon="5.75607">
        <ele>1340</ele>
        <time>2026-05-13T12:41:53Z</time>
      </trkpt>
      <trkpt lat="45.90317" lon="5.75606">
        <ele>1340.2</ele>
        <time>2026-05-13T12:41:54Z</time>
      </trkpt>
      <trkpt lat="45.90318" lon="5.75606">
        <ele>1340.2</ele>
        <time>2026-05-13T12:41:55Z</time>
      </trkpt>
      <trkpt lat="45.90319" lon="5.75606">
        <ele>1340.2</ele>
        <time>2026-05-13T12:41:56Z</time>
      </trkpt>
      <trkpt lat="45.9032" lon="5.75606">
        <ele>1340.2</ele>
        <time>2026-05-13T12:41:57Z</time>
      </trkpt>
      <trkpt lat="45.90321" lon="5.75606">
        <ele>1340.6</ele>
        <time>2026-05-13T12:41:58Z</time>
      </trkpt>
      <trkpt lat="45.90322" lon="5.75605">
        <ele>1340.6</ele>
        <time>2026-05-13T12:41:59Z</time>
      </trkpt>
      <trkpt lat="45.90324" lon="5.75605">
        <ele>1340.6</ele>
        <time>2026-05-13T12:42:00Z</time>
      </trkpt>
      <trkpt lat="45.90325" lon="5.75605">
        <ele>1340.8</ele>
        <time>2026-05-13T12:42:01Z</time>
      </trkpt>
      <trkpt lat="45.90326" lon="5.75605">
        <ele>1340.8</ele>
        <time>2026-05-13T12:42:02Z</time>
      </trkpt>
      <trkpt lat="45.90326" lon="5.75605">
        <ele>1340.8</ele>
        <time>2026-05-13T12:42:03Z</time>
      </trkpt>
      <trkpt lat="45.90328" lon="5.75605">
        <ele>1341.2</ele>
        <time>2026-05-13T12:42:04Z</time>
      </trkpt>
      <trkpt lat="45.90329" lon="5.75605">
        <ele>1341.2</ele>
        <time>2026-05-13T12:42:05Z</time>
      </trkpt>
      <trkpt lat="45.90331" lon="5.75604">
        <ele>1341.2</ele>
        <time>2026-05-13T12:42:06Z</time>
      </trkpt>
      <trkpt lat="45.90332" lon="5.75604">
        <ele>1341.2</ele>
        <time>2026-05-13T12:42:07Z</time>
      </trkpt>
      <trkpt lat="45.90333" lon="5.75604">
        <ele>1341.2</ele>
        <time>2026-05-13T12:42:08Z</time>
      </trkpt>
      <trkpt lat="45.90334" lon="5.75605">
        <ele>1341.4</ele>
        <time>2026-05-13T12:42:09Z</time>
      </trkpt>
      <trkpt lat="45.90335" lon="5.75605">
        <ele>1341.4</ele>
        <time>2026-05-13T12:42:10Z</time>
      </trkpt>
      <trkpt lat="45.90336" lon="5.75604">
        <ele>1341.8</ele>
        <time>2026-05-13T12:42:11Z</time>
      </trkpt>
      <trkpt lat="45.90337" lon="5.75604">
        <ele>1341.8</ele>
        <time>2026-05-13T12:42:12Z</time>
      </trkpt>
      <trkpt lat="45.90338" lon="5.75605">
        <ele>1342</ele>
        <time>2026-05-13T12:42:13Z</time>
      </trkpt>
      <trkpt lat="45.90339" lon="5.75605">
        <ele>1342</ele>
        <time>2026-05-13T12:42:14Z</time>
      </trkpt>
      <trkpt lat="45.90341" lon="5.75605">
        <ele>1342.6</ele>
        <time>2026-05-13T12:42:15Z</time>
      </trkpt>
      <trkpt lat="45.90342" lon="5.75605">
        <ele>1342.6</ele>
        <time>2026-05-13T12:42:16Z</time>
      </trkpt>
      <trkpt lat="45.90343" lon="5.75605">
        <ele>1342.8</ele>
        <time>2026-05-13T12:42:17Z</time>
      </trkpt>
      <trkpt lat="45.90344" lon="5.75605">
        <ele>1342.8</ele>
        <time>2026-05-13T12:42:18Z</time>
      </trkpt>
      <trkpt lat="45.90345" lon="5.75605">
        <ele>1343</ele>
        <time>2026-05-13T12:42:19Z</time>
      </trkpt>
      <trkpt lat="45.90346" lon="5.75605">
        <ele>1343</ele>
        <time>2026-05-13T12:42:20Z</time>
      </trkpt>
      <trkpt lat="45.90347" lon="5.75605">
        <ele>1343.4</ele>
        <time>2026-05-13T12:42:21Z</time>
      </trkpt>
      <trkpt lat="45.90349" lon="5.75606">
        <ele>1343.4</ele>
        <time>2026-05-13T12:42:22Z</time>
      </trkpt>
      <trkpt lat="45.9035" lon="5.75606">
        <ele>1343.6</ele>
        <time>2026-05-13T12:42:23Z</time>
      </trkpt>
      <trkpt lat="45.90351" lon="5.75606">
        <ele>1343.6</ele>
        <time>2026-05-13T12:42:24Z</time>
      </trkpt>
      <trkpt lat="45.90353" lon="5.75606">
        <ele>1344</ele>
        <time>2026-05-13T12:42:25Z</time>
      </trkpt>
      <trkpt lat="45.90354" lon="5.75606">
        <ele>1344</ele>
        <time>2026-05-13T12:42:26Z</time>
      </trkpt>
      <trkpt lat="45.90355" lon="5.75606">
        <ele>1344.2</ele>
        <time>2026-05-13T12:42:27Z</time>
      </trkpt>
      <trkpt lat="45.90356" lon="5.75605">
        <ele>1344.4</ele>
        <time>2026-05-13T12:42:28Z</time>
      </trkpt>
      <trkpt lat="45.90357" lon="5.75606">
        <ele>1344.4</ele>
        <time>2026-05-13T12:42:29Z</time>
      </trkpt>
      <trkpt lat="45.90358" lon="5.75606">
        <ele>1344.8</ele>
        <time>2026-05-13T12:42:30Z</time>
      </trkpt>
      <trkpt lat="45.90359" lon="5.75607">
        <ele>1344.8</ele>
        <time>2026-05-13T12:42:31Z</time>
      </trkpt>
      <trkpt lat="45.90361" lon="5.75607">
        <ele>1344.8</ele>
        <time>2026-05-13T12:42:32Z</time>
      </trkpt>
      <trkpt lat="45.90362" lon="5.75607">
        <ele>1345.2</ele>
        <time>2026-05-13T12:42:33Z</time>
      </trkpt>
      <trkpt lat="45.90363" lon="5.75607">
        <ele>1345.2</ele>
        <time>2026-05-13T12:42:34Z</time>
      </trkpt>
      <trkpt lat="45.90365" lon="5.75607">
        <ele>1345.2</ele>
        <time>2026-05-13T12:42:35Z</time>
      </trkpt>
      <trkpt lat="45.90366" lon="5.75607">
        <ele>1345.4</ele>
        <time>2026-05-13T12:42:36Z</time>
      </trkpt>
      <trkpt lat="45.90367" lon="5.75607">
        <ele>1345.4</ele>
        <time>2026-05-13T12:42:37Z</time>
      </trkpt>
      <trkpt lat="45.90368" lon="5.75607">
        <ele>1345.6</ele>
        <time>2026-05-13T12:42:38Z</time>
      </trkpt>
      <trkpt lat="45.90369" lon="5.75607">
        <ele>1345.6</ele>
        <time>2026-05-13T12:42:39Z</time>
      </trkpt>
      <trkpt lat="45.9037" lon="5.75607">
        <ele>1345.8</ele>
        <time>2026-05-13T12:42:40Z</time>
      </trkpt>
      <trkpt lat="45.90371" lon="5.75607">
        <ele>1345.8</ele>
        <time>2026-05-13T12:42:41Z</time>
      </trkpt>
      <trkpt lat="45.90372" lon="5.75608">
        <ele>1346.2</ele>
        <time>2026-05-13T12:42:42Z</time>
      </trkpt>
      <trkpt lat="45.90373" lon="5.75608">
        <ele>1346.2</ele>
        <time>2026-05-13T12:42:43Z</time>
      </trkpt>
      <trkpt lat="45.90374" lon="5.75608">
        <ele>1346.2</ele>
        <time>2026-05-13T12:42:44Z</time>
      </trkpt>
      <trkpt lat="45.90375" lon="5.75609">
        <ele>1346.2</ele>
        <time>2026-05-13T12:42:45Z</time>
      </trkpt>
      <trkpt lat="45.90376" lon="5.75609">
        <ele>1346.4</ele>
        <time>2026-05-13T12:42:46Z</time>
      </trkpt>
      <trkpt lat="45.90378" lon="5.75609">
        <ele>1346.4</ele>
        <time>2026-05-13T12:42:47Z</time>
      </trkpt>
      <trkpt lat="45.90379" lon="5.75609">
        <ele>1346.8</ele>
        <time>2026-05-13T12:42:48Z</time>
      </trkpt>
      <trkpt lat="45.9038" lon="5.75609">
        <ele>1347</ele>
        <time>2026-05-13T12:42:49Z</time>
      </trkpt>
      <trkpt lat="45.90381" lon="5.75608">
        <ele>1347</ele>
        <time>2026-05-13T12:42:50Z</time>
      </trkpt>
      <trkpt lat="45.90382" lon="5.75608">
        <ele>1347.4</ele>
        <time>2026-05-13T12:42:51Z</time>
      </trkpt>
      <trkpt lat="45.90383" lon="5.75608">
        <ele>1347.6</ele>
        <time>2026-05-13T12:42:52Z</time>
      </trkpt>
      <trkpt lat="45.90384" lon="5.75608">
        <ele>1347.6</ele>
        <time>2026-05-13T12:42:53Z</time>
      </trkpt>
      <trkpt lat="45.90385" lon="5.75608">
        <ele>1348</ele>
        <time>2026-05-13T12:42:54Z</time>
      </trkpt>
      <trkpt lat="45.90386" lon="5.75608">
        <ele>1348.2</ele>
        <time>2026-05-13T12:42:55Z</time>
      </trkpt>
      <trkpt lat="45.90387" lon="5.75608">
        <ele>1348.2</ele>
        <time>2026-05-13T12:42:56Z</time>
      </trkpt>
      <trkpt lat="45.90389" lon="5.75608">
        <ele>1348.4</ele>
        <time>2026-05-13T12:42:57Z</time>
      </trkpt>
      <trkpt lat="45.9039" lon="5.75608">
        <ele>1348.4</ele>
        <time>2026-05-13T12:42:58Z</time>
      </trkpt>
      <trkpt lat="45.9039" lon="5.75608">
        <ele>1348.4</ele>
        <time>2026-05-13T12:42:59Z</time>
      </trkpt>
      <trkpt lat="45.9039" lon="5.75608">
        <ele>1348.4</ele>
        <time>2026-05-13T12:43:00Z</time>
      </trkpt>
      <trkpt lat="45.90395" lon="5.75609">
        <ele>1348.8</ele>
        <time>2026-05-13T12:43:02Z</time>
      </trkpt>
      <trkpt lat="45.90396" lon="5.75608">
        <ele>1348.8</ele>
        <time>2026-05-13T12:43:03Z</time>
      </trkpt>
      <trkpt lat="45.90397" lon="5.75607">
        <ele>1349.4</ele>
        <time>2026-05-13T12:43:04Z</time>
      </trkpt>
      <trkpt lat="45.90398" lon="5.75607">
        <ele>1349.4</ele>
        <time>2026-05-13T12:43:05Z</time>
      </trkpt>
      <trkpt lat="45.904" lon="5.75608">
        <ele>1349.6</ele>
        <time>2026-05-13T12:43:06Z</time>
      </trkpt>
      <trkpt lat="45.90401" lon="5.75608">
        <ele>1349.6</ele>
        <time>2026-05-13T12:43:07Z</time>
      </trkpt>
      <trkpt lat="45.90402" lon="5.75609">
        <ele>1349.6</ele>
        <time>2026-05-13T12:43:08Z</time>
      </trkpt>
      <trkpt lat="45.90403" lon="5.7561">
        <ele>1349.8</ele>
        <time>2026-05-13T12:43:09Z</time>
      </trkpt>
      <trkpt lat="45.90404" lon="5.7561">
        <ele>1349.8</ele>
        <time>2026-05-13T12:43:10Z</time>
      </trkpt>
      <trkpt lat="45.90405" lon="5.7561">
        <ele>1349.8</ele>
        <time>2026-05-13T12:43:11Z</time>
      </trkpt>
      <trkpt lat="45.90406" lon="5.75609">
        <ele>1350.2</ele>
        <time>2026-05-13T12:43:12Z</time>
      </trkpt>
      <trkpt lat="45.90407" lon="5.75609">
        <ele>1350.2</ele>
        <time>2026-05-13T12:43:13Z</time>
      </trkpt>
      <trkpt lat="45.90408" lon="5.7561">
        <ele>1350.6</ele>
        <time>2026-05-13T12:43:14Z</time>
      </trkpt>
      <trkpt lat="45.90409" lon="5.75611">
        <ele>1350.6</ele>
        <time>2026-05-13T12:43:15Z</time>
      </trkpt>
      <trkpt lat="45.90411" lon="5.75612">
        <ele>1350.8</ele>
        <time>2026-05-13T12:43:16Z</time>
      </trkpt>
      <trkpt lat="45.90412" lon="5.75612">
        <ele>1350.8</ele>
        <time>2026-05-13T12:43:17Z</time>
      </trkpt>
      <trkpt lat="45.90413" lon="5.75613">
        <ele>1350.8</ele>
        <time>2026-05-13T12:43:18Z</time>
      </trkpt>
      <trkpt lat="45.90414" lon="5.75614">
        <ele>1350.8</ele>
        <time>2026-05-13T12:43:19Z</time>
      </trkpt>
      <trkpt lat="45.90416" lon="5.75614">
        <ele>1350.8</ele>
        <time>2026-05-13T12:43:20Z</time>
      </trkpt>
      <trkpt lat="45.90417" lon="5.75614">
        <ele>1351.2</ele>
        <time>2026-05-13T12:43:21Z</time>
      </trkpt>
      <trkpt lat="45.90418" lon="5.75614">
        <ele>1351.4</ele>
        <time>2026-05-13T12:43:22Z</time>
      </trkpt>
      <trkpt lat="45.9042" lon="5.75614">
        <ele>1351.6</ele>
        <time>2026-05-13T12:43:23Z</time>
      </trkpt>
      <trkpt lat="45.90421" lon="5.75614">
        <ele>1351.6</ele>
        <time>2026-05-13T12:43:24Z</time>
      </trkpt>
      <trkpt lat="45.90422" lon="5.75614">
        <ele>1352</ele>
        <time>2026-05-13T12:43:25Z</time>
      </trkpt>
      <trkpt lat="45.90423" lon="5.75615">
        <ele>1352</ele>
        <time>2026-05-13T12:43:26Z</time>
      </trkpt>
      <trkpt lat="45.90425" lon="5.75615">
        <ele>1352</ele>
        <time>2026-05-13T12:43:27Z</time>
      </trkpt>
      <trkpt lat="45.90426" lon="5.75615">
        <ele>1352.4</ele>
        <time>2026-05-13T12:43:28Z</time>
      </trkpt>
      <trkpt lat="45.90427" lon="5.75616">
        <ele>1352.4</ele>
        <time>2026-05-13T12:43:29Z</time>
      </trkpt>
      <trkpt lat="45.90428" lon="5.75616">
        <ele>1352.6</ele>
        <time>2026-05-13T12:43:30Z</time>
      </trkpt>
      <trkpt lat="45.90429" lon="5.75616">
        <ele>1352.6</ele>
        <time>2026-05-13T12:43:31Z</time>
      </trkpt>
      <trkpt lat="45.9043" lon="5.75617">
        <ele>1353</ele>
        <time>2026-05-13T12:43:32Z</time>
      </trkpt>
      <trkpt lat="45.90431" lon="5.75617">
        <ele>1353</ele>
        <time>2026-05-13T12:43:33Z</time>
      </trkpt>
      <trkpt lat="45.90432" lon="5.75617">
        <ele>1353.2</ele>
        <time>2026-05-13T12:43:34Z</time>
      </trkpt>
      <trkpt lat="45.90433" lon="5.75617">
        <ele>1353.2</ele>
        <time>2026-05-13T12:43:35Z</time>
      </trkpt>
      <trkpt lat="45.90435" lon="5.75617">
        <ele>1353.4</ele>
        <time>2026-05-13T12:43:36Z</time>
      </trkpt>
      <trkpt lat="45.90436" lon="5.75617">
        <ele>1353.6</ele>
        <time>2026-05-13T12:43:37Z</time>
      </trkpt>
      <trkpt lat="45.90438" lon="5.75617">
        <ele>1353.6</ele>
        <time>2026-05-13T12:43:38Z</time>
      </trkpt>
      <trkpt lat="45.90439" lon="5.75617">
        <ele>1353.8</ele>
        <time>2026-05-13T12:43:39Z</time>
      </trkpt>
      <trkpt lat="45.90441" lon="5.75617">
        <ele>1353.8</ele>
        <time>2026-05-13T12:43:40Z</time>
      </trkpt>
      <trkpt lat="45.90442" lon="5.75617">
        <ele>1353.8</ele>
        <time>2026-05-13T12:43:41Z</time>
      </trkpt>
      <trkpt lat="45.90443" lon="5.75617">
        <ele>1353.8</ele>
        <time>2026-05-13T12:43:42Z</time>
      </trkpt>
      <trkpt lat="45.90444" lon="5.75617">
        <ele>1354.2</ele>
        <time>2026-05-13T12:43:43Z</time>
      </trkpt>
      <trkpt lat="45.90445" lon="5.75618">
        <ele>1354.2</ele>
        <time>2026-05-13T12:43:44Z</time>
      </trkpt>
      <trkpt lat="45.90446" lon="5.75618">
        <ele>1354.6</ele>
        <time>2026-05-13T12:43:45Z</time>
      </trkpt>
      <trkpt lat="45.90447" lon="5.75619">
        <ele>1354.6</ele>
        <time>2026-05-13T12:43:46Z</time>
      </trkpt>
      <trkpt lat="45.90448" lon="5.7562">
        <ele>1354.8</ele>
        <time>2026-05-13T12:43:47Z</time>
      </trkpt>
      <trkpt lat="45.9045" lon="5.7562">
        <ele>1354.8</ele>
        <time>2026-05-13T12:43:48Z</time>
      </trkpt>
      <trkpt lat="45.90451" lon="5.75621">
        <ele>1354.8</ele>
        <time>2026-05-13T12:43:49Z</time>
      </trkpt>
      <trkpt lat="45.90452" lon="5.75621">
        <ele>1355.2</ele>
        <time>2026-05-13T12:43:50Z</time>
      </trkpt>
      <trkpt lat="45.90453" lon="5.75621">
        <ele>1355.2</ele>
        <time>2026-05-13T12:43:51Z</time>
      </trkpt>
      <trkpt lat="45.90454" lon="5.75621">
        <ele>1355.2</ele>
        <time>2026-05-13T12:43:52Z</time>
      </trkpt>
      <trkpt lat="45.90456" lon="5.75622">
        <ele>1355.4</ele>
        <time>2026-05-13T12:43:53Z</time>
      </trkpt>
      <trkpt lat="45.90457" lon="5.75622">
        <ele>1355.4</ele>
        <time>2026-05-13T12:43:54Z</time>
      </trkpt>
      <trkpt lat="45.90458" lon="5.75622">
        <ele>1355.8</ele>
        <time>2026-05-13T12:43:55Z</time>
      </trkpt>
      <trkpt lat="45.90459" lon="5.75622">
        <ele>1355.8</ele>
        <time>2026-05-13T12:43:56Z</time>
      </trkpt>
      <trkpt lat="45.90461" lon="5.75622">
        <ele>1356.2</ele>
        <time>2026-05-13T12:43:57Z</time>
      </trkpt>
      <trkpt lat="45.90462" lon="5.75623">
        <ele>1356.4</ele>
        <time>2026-05-13T12:43:58Z</time>
      </trkpt>
      <trkpt lat="45.90463" lon="5.75623">
        <ele>1356.4</ele>
        <time>2026-05-13T12:43:59Z</time>
      </trkpt>
      <trkpt lat="45.90464" lon="5.75624">
        <ele>1356.4</ele>
        <time>2026-05-13T12:44:00Z</time>
      </trkpt>
      <trkpt lat="45.90464" lon="5.75624">
        <ele>1356.8</ele>
        <time>2026-05-13T12:44:01Z</time>
      </trkpt>
      <trkpt lat="45.90464" lon="5.75624">
        <ele>1357</ele>
        <time>2026-05-13T12:44:02Z</time>
      </trkpt>
      <trkpt lat="45.90466" lon="5.75623">
        <ele>1357.2</ele>
        <time>2026-05-13T12:44:03Z</time>
      </trkpt>
      <trkpt lat="45.90468" lon="5.75623">
        <ele>1357.2</ele>
        <time>2026-05-13T12:44:04Z</time>
      </trkpt>
      <trkpt lat="45.90469" lon="5.75624">
        <ele>1357.6</ele>
        <time>2026-05-13T12:44:05Z</time>
      </trkpt>
      <trkpt lat="45.9047" lon="5.75625">
        <ele>1357.6</ele>
        <time>2026-05-13T12:44:06Z</time>
      </trkpt>
      <trkpt lat="45.90472" lon="5.75625">
        <ele>1357.6</ele>
        <time>2026-05-13T12:44:07Z</time>
      </trkpt>
      <trkpt lat="45.90473" lon="5.75625">
        <ele>1358</ele>
        <time>2026-05-13T12:44:08Z</time>
      </trkpt>
      <trkpt lat="45.90474" lon="5.75626">
        <ele>1358.2</ele>
        <time>2026-05-13T12:44:09Z</time>
      </trkpt>
      <trkpt lat="45.90475" lon="5.75626">
        <ele>1358.4</ele>
        <time>2026-05-13T12:44:10Z</time>
      </trkpt>
      <trkpt lat="45.90476" lon="5.75627">
        <ele>1358.8</ele>
        <time>2026-05-13T12:44:11Z</time>
      </trkpt>
      <trkpt lat="45.90478" lon="5.75627">
        <ele>1359</ele>
        <time>2026-05-13T12:44:12Z</time>
      </trkpt>
      <trkpt lat="45.90479" lon="5.75628">
        <ele>1359</ele>
        <time>2026-05-13T12:44:13Z</time>
      </trkpt>
      <trkpt lat="45.9048" lon="5.75628">
        <ele>1359.2</ele>
        <time>2026-05-13T12:44:14Z</time>
      </trkpt>
      <trkpt lat="45.90481" lon="5.75628">
        <ele>1359.2</ele>
        <time>2026-05-13T12:44:15Z</time>
      </trkpt>
      <trkpt lat="45.90482" lon="5.75629">
        <ele>1359.4</ele>
        <time>2026-05-13T12:44:16Z</time>
      </trkpt>
      <trkpt lat="45.90484" lon="5.75629">
        <ele>1359.4</ele>
        <time>2026-05-13T12:44:17Z</time>
      </trkpt>
      <trkpt lat="45.90485" lon="5.75629">
        <ele>1359.8</ele>
        <time>2026-05-13T12:44:18Z</time>
      </trkpt>
      <trkpt lat="45.90486" lon="5.7563">
        <ele>1360</ele>
        <time>2026-05-13T12:44:19Z</time>
      </trkpt>
      <trkpt lat="45.90487" lon="5.7563">
        <ele>1360</ele>
        <time>2026-05-13T12:44:20Z</time>
      </trkpt>
      <trkpt lat="45.90488" lon="5.7563">
        <ele>1360.2</ele>
        <time>2026-05-13T12:44:21Z</time>
      </trkpt>
      <trkpt lat="45.90489" lon="5.75631">
        <ele>1360.2</ele>
        <time>2026-05-13T12:44:22Z</time>
      </trkpt>
      <trkpt lat="45.9049" lon="5.75632">
        <ele>1360.2</ele>
        <time>2026-05-13T12:44:23Z</time>
      </trkpt>
      <trkpt lat="45.90491" lon="5.75632">
        <ele>1360.6</ele>
        <time>2026-05-13T12:44:24Z</time>
      </trkpt>
      <trkpt lat="45.90493" lon="5.75633">
        <ele>1360.6</ele>
        <time>2026-05-13T12:44:25Z</time>
      </trkpt>
      <trkpt lat="45.90495" lon="5.75635">
        <ele>1360.6</ele>
        <time>2026-05-13T12:44:26Z</time>
      </trkpt>
      <trkpt lat="45.90496" lon="5.75635">
        <ele>1360.8</ele>
        <time>2026-05-13T12:44:27Z</time>
      </trkpt>
      <trkpt lat="45.90497" lon="5.75636">
        <ele>1360.8</ele>
        <time>2026-05-13T12:44:28Z</time>
      </trkpt>
      <trkpt lat="45.90498" lon="5.75637">
        <ele>1360.8</ele>
        <time>2026-05-13T12:44:29Z</time>
      </trkpt>
      <trkpt lat="45.905" lon="5.75637">
        <ele>1360.8</ele>
        <time>2026-05-13T12:44:30Z</time>
      </trkpt>
      <trkpt lat="45.90501" lon="5.75637">
        <ele>1361</ele>
        <time>2026-05-13T12:44:31Z</time>
      </trkpt>
      <trkpt lat="45.90502" lon="5.75637">
        <ele>1361.4</ele>
        <time>2026-05-13T12:44:32Z</time>
      </trkpt>
      <trkpt lat="45.90503" lon="5.75638">
        <ele>1361.4</ele>
        <time>2026-05-13T12:44:33Z</time>
      </trkpt>
      <trkpt lat="45.90504" lon="5.75638">
        <ele>1361.8</ele>
        <time>2026-05-13T12:44:34Z</time>
      </trkpt>
      <trkpt lat="45.90505" lon="5.75638">
        <ele>1361.8</ele>
        <time>2026-05-13T12:44:35Z</time>
      </trkpt>
      <trkpt lat="45.90506" lon="5.75639">
        <ele>1362.2</ele>
        <time>2026-05-13T12:44:36Z</time>
      </trkpt>
      <trkpt lat="45.90507" lon="5.75639">
        <ele>1362.4</ele>
        <time>2026-05-13T12:44:37Z</time>
      </trkpt>
      <trkpt lat="45.90508" lon="5.7564">
        <ele>1362.4</ele>
        <time>2026-05-13T12:44:38Z</time>
      </trkpt>
      <trkpt lat="45.90509" lon="5.7564">
        <ele>1362.4</ele>
        <time>2026-05-13T12:44:39Z</time>
      </trkpt>
      <trkpt lat="45.9051" lon="5.75641">
        <ele>1362.6</ele>
        <time>2026-05-13T12:44:40Z</time>
      </trkpt>
      <trkpt lat="45.90512" lon="5.75641">
        <ele>1362.8</ele>
        <time>2026-05-13T12:44:41Z</time>
      </trkpt>
      <trkpt lat="45.90513" lon="5.75641">
        <ele>1362.8</ele>
        <time>2026-05-13T12:44:42Z</time>
      </trkpt>
      <trkpt lat="45.90514" lon="5.75642">
        <ele>1363.2</ele>
        <time>2026-05-13T12:44:43Z</time>
      </trkpt>
      <trkpt lat="45.90515" lon="5.75643">
        <ele>1363.2</ele>
        <time>2026-05-13T12:44:44Z</time>
      </trkpt>
      <trkpt lat="45.90516" lon="5.75643">
        <ele>1363.4</ele>
        <time>2026-05-13T12:44:45Z</time>
      </trkpt>
      <trkpt lat="45.90517" lon="5.75644">
        <ele>1363.4</ele>
        <time>2026-05-13T12:44:46Z</time>
      </trkpt>
      <trkpt lat="45.90518" lon="5.75644">
        <ele>1363.4</ele>
        <time>2026-05-13T12:44:47Z</time>
      </trkpt>
      <trkpt lat="45.90519" lon="5.75644">
        <ele>1363.6</ele>
        <time>2026-05-13T12:44:48Z</time>
      </trkpt>
      <trkpt lat="45.9052" lon="5.75644">
        <ele>1363.6</ele>
        <time>2026-05-13T12:44:49Z</time>
      </trkpt>
      <trkpt lat="45.90521" lon="5.75644">
        <ele>1364</ele>
        <time>2026-05-13T12:44:50Z</time>
      </trkpt>
      <trkpt lat="45.90522" lon="5.75645">
        <ele>1364</ele>
        <time>2026-05-13T12:44:51Z</time>
      </trkpt>
      <trkpt lat="45.90524" lon="5.75645">
        <ele>1364.2</ele>
        <time>2026-05-13T12:44:52Z</time>
      </trkpt>
      <trkpt lat="45.90525" lon="5.75647">
        <ele>1364.2</ele>
        <time>2026-05-13T12:44:53Z</time>
      </trkpt>
      <trkpt lat="45.90527" lon="5.75647">
        <ele>1364.6</ele>
        <time>2026-05-13T12:44:54Z</time>
      </trkpt>
      <trkpt lat="45.90528" lon="5.75648">
        <ele>1364.6</ele>
        <time>2026-05-13T12:44:55Z</time>
      </trkpt>
      <trkpt lat="45.90529" lon="5.75648">
        <ele>1364.8</ele>
        <time>2026-05-13T12:44:56Z</time>
      </trkpt>
      <trkpt lat="45.90531" lon="5.75648">
        <ele>1364.8</ele>
        <time>2026-05-13T12:44:57Z</time>
      </trkpt>
      <trkpt lat="45.90532" lon="5.75649">
        <ele>1365.2</ele>
        <time>2026-05-13T12:44:58Z</time>
      </trkpt>
      <trkpt lat="45.90533" lon="5.75649">
        <ele>1365.2</ele>
        <time>2026-05-13T12:44:59Z</time>
      </trkpt>
      <trkpt lat="45.90535" lon="5.7565">
        <ele>1365.6</ele>
        <time>2026-05-13T12:45:00Z</time>
      </trkpt>
      <trkpt lat="45.90536" lon="5.7565">
        <ele>1365.6</ele>
        <time>2026-05-13T12:45:01Z</time>
      </trkpt>
      <trkpt lat="45.90537" lon="5.75651">
        <ele>1365.8</ele>
        <time>2026-05-13T12:45:02Z</time>
      </trkpt>
      <trkpt lat="45.90539" lon="5.75652">
        <ele>1365.8</ele>
        <time>2026-05-13T12:45:03Z</time>
      </trkpt>
      <trkpt lat="45.9054" lon="5.75652">
        <ele>1365.8</ele>
        <time>2026-05-13T12:45:04Z</time>
      </trkpt>
      <trkpt lat="45.90541" lon="5.75653">
        <ele>1366.2</ele>
        <time>2026-05-13T12:45:05Z</time>
      </trkpt>
      <trkpt lat="45.90542" lon="5.75653">
        <ele>1366.2</ele>
        <time>2026-05-13T12:45:06Z</time>
      </trkpt>
      <trkpt lat="45.90544" lon="5.75654">
        <ele>1366.4</ele>
        <time>2026-05-13T12:45:07Z</time>
      </trkpt>
      <trkpt lat="45.90545" lon="5.75654">
        <ele>1366.6</ele>
        <time>2026-05-13T12:45:08Z</time>
      </trkpt>
      <trkpt lat="45.90546" lon="5.75654">
        <ele>1366.6</ele>
        <time>2026-05-13T12:45:09Z</time>
      </trkpt>
      <trkpt lat="45.90547" lon="5.75654">
        <ele>1367</ele>
        <time>2026-05-13T12:45:10Z</time>
      </trkpt>
      <trkpt lat="45.90548" lon="5.75654">
        <ele>1367</ele>
        <time>2026-05-13T12:45:11Z</time>
      </trkpt>
      <trkpt lat="45.9055" lon="5.75655">
        <ele>1367.4</ele>
        <time>2026-05-13T12:45:12Z</time>
      </trkpt>
      <trkpt lat="45.90551" lon="5.75655">
        <ele>1367.4</ele>
        <time>2026-05-13T12:45:13Z</time>
      </trkpt>
      <trkpt lat="45.90552" lon="5.75656">
        <ele>1367.6</ele>
        <time>2026-05-13T12:45:14Z</time>
      </trkpt>
      <trkpt lat="45.90553" lon="5.75656">
        <ele>1367.6</ele>
        <time>2026-05-13T12:45:15Z</time>
      </trkpt>
      <trkpt lat="45.90554" lon="5.75657">
        <ele>1367.8</ele>
        <time>2026-05-13T12:45:16Z</time>
      </trkpt>
      <trkpt lat="45.90555" lon="5.75658">
        <ele>1367.8</ele>
        <time>2026-05-13T12:45:17Z</time>
      </trkpt>
      <trkpt lat="45.90556" lon="5.75659">
        <ele>1368.2</ele>
        <time>2026-05-13T12:45:18Z</time>
      </trkpt>
      <trkpt lat="45.90557" lon="5.7566">
        <ele>1368.2</ele>
        <time>2026-05-13T12:45:19Z</time>
      </trkpt>
      <trkpt lat="45.90558" lon="5.75661">
        <ele>1368.2</ele>
        <time>2026-05-13T12:45:20Z</time>
      </trkpt>
      <trkpt lat="45.90559" lon="5.75661">
        <ele>1368.4</ele>
        <time>2026-05-13T12:45:21Z</time>
      </trkpt>
      <trkpt lat="45.90561" lon="5.75661">
        <ele>1368.4</ele>
        <time>2026-05-13T12:45:22Z</time>
      </trkpt>
      <trkpt lat="45.90562" lon="5.75661">
        <ele>1368.4</ele>
        <time>2026-05-13T12:45:23Z</time>
      </trkpt>
      <trkpt lat="45.90563" lon="5.75662">
        <ele>1368.8</ele>
        <time>2026-05-13T12:45:24Z</time>
      </trkpt>
      <trkpt lat="45.90564" lon="5.75662">
        <ele>1369</ele>
        <time>2026-05-13T12:45:25Z</time>
      </trkpt>
      <trkpt lat="45.90565" lon="5.75663">
        <ele>1369.2</ele>
        <time>2026-05-13T12:45:26Z</time>
      </trkpt>
      <trkpt lat="45.90566" lon="5.75663">
        <ele>1369.2</ele>
        <time>2026-05-13T12:45:27Z</time>
      </trkpt>
      <trkpt lat="45.90568" lon="5.75662">
        <ele>1369.6</ele>
        <time>2026-05-13T12:45:28Z</time>
      </trkpt>
      <trkpt lat="45.90569" lon="5.75662">
        <ele>1369.6</ele>
        <time>2026-05-13T12:45:29Z</time>
      </trkpt>
      <trkpt lat="45.9057" lon="5.75662">
        <ele>1369.6</ele>
        <time>2026-05-13T12:45:30Z</time>
      </trkpt>
      <trkpt lat="45.90571" lon="5.75663">
        <ele>1370</ele>
        <time>2026-05-13T12:45:31Z</time>
      </trkpt>
      <trkpt lat="45.90572" lon="5.75664">
        <ele>1370</ele>
        <time>2026-05-13T12:45:32Z</time>
      </trkpt>
      <trkpt lat="45.90573" lon="5.75665">
        <ele>1370</ele>
        <time>2026-05-13T12:45:33Z</time>
      </trkpt>
      <trkpt lat="45.90574" lon="5.75666">
        <ele>1370.4</ele>
        <time>2026-05-13T12:45:34Z</time>
      </trkpt>
      <trkpt lat="45.90575" lon="5.75666">
        <ele>1370.4</ele>
        <time>2026-05-13T12:45:35Z</time>
      </trkpt>
      <trkpt lat="45.90576" lon="5.75666">
        <ele>1370.4</ele>
        <time>2026-05-13T12:45:36Z</time>
      </trkpt>
      <trkpt lat="45.90577" lon="5.75666">
        <ele>1370.6</ele>
        <time>2026-05-13T12:45:37Z</time>
      </trkpt>
      <trkpt lat="45.90578" lon="5.75666">
        <ele>1370.6</ele>
        <time>2026-05-13T12:45:38Z</time>
      </trkpt>
      <trkpt lat="45.90579" lon="5.75666">
        <ele>1370.6</ele>
        <time>2026-05-13T12:45:39Z</time>
      </trkpt>
      <trkpt lat="45.90581" lon="5.75667">
        <ele>1370.8</ele>
        <time>2026-05-13T12:45:40Z</time>
      </trkpt>
      <trkpt lat="45.90582" lon="5.75668">
        <ele>1370.8</ele>
        <time>2026-05-13T12:45:41Z</time>
      </trkpt>
      <trkpt lat="45.90583" lon="5.75668">
        <ele>1371.2</ele>
        <time>2026-05-13T12:45:42Z</time>
      </trkpt>
      <trkpt lat="45.90584" lon="5.75668">
        <ele>1371.4</ele>
        <time>2026-05-13T12:45:43Z</time>
      </trkpt>
      <trkpt lat="45.90586" lon="5.75668">
        <ele>1371.6</ele>
        <time>2026-05-13T12:45:44Z</time>
      </trkpt>
      <trkpt lat="45.90587" lon="5.75669">
        <ele>1371.6</ele>
        <time>2026-05-13T12:45:45Z</time>
      </trkpt>
      <trkpt lat="45.90588" lon="5.7567">
        <ele>1371.8</ele>
        <time>2026-05-13T12:45:46Z</time>
      </trkpt>
      <trkpt lat="45.90589" lon="5.7567">
        <ele>1371.8</ele>
        <time>2026-05-13T12:45:47Z</time>
      </trkpt>
      <trkpt lat="45.9059" lon="5.75671">
        <ele>1372.2</ele>
        <time>2026-05-13T12:45:48Z</time>
      </trkpt>
      <trkpt lat="45.90592" lon="5.75672">
        <ele>1372.2</ele>
        <time>2026-05-13T12:45:49Z</time>
      </trkpt>
      <trkpt lat="45.90593" lon="5.75673">
        <ele>1372.4</ele>
        <time>2026-05-13T12:45:50Z</time>
      </trkpt>
      <trkpt lat="45.90594" lon="5.75673">
        <ele>1372.4</ele>
        <time>2026-05-13T12:45:51Z</time>
      </trkpt>
      <trkpt lat="45.90595" lon="5.75673">
        <ele>1372.6</ele>
        <time>2026-05-13T12:45:52Z</time>
      </trkpt>
      <trkpt lat="45.90596" lon="5.75674">
        <ele>1372.6</ele>
        <time>2026-05-13T12:45:53Z</time>
      </trkpt>
      <trkpt lat="45.90598" lon="5.75674">
        <ele>1373</ele>
        <time>2026-05-13T12:45:54Z</time>
      </trkpt>
      <trkpt lat="45.90599" lon="5.75675">
        <ele>1373</ele>
        <time>2026-05-13T12:45:55Z</time>
      </trkpt>
      <trkpt lat="45.906" lon="5.75676">
        <ele>1373</ele>
        <time>2026-05-13T12:45:56Z</time>
      </trkpt>
      <trkpt lat="45.90601" lon="5.75676">
        <ele>1373</ele>
        <time>2026-05-13T12:45:57Z</time>
      </trkpt>
      <trkpt lat="45.90602" lon="5.75676">
        <ele>1373</ele>
        <time>2026-05-13T12:45:58Z</time>
      </trkpt>
      <trkpt lat="45.90603" lon="5.75677">
        <ele>1373</ele>
        <time>2026-05-13T12:45:59Z</time>
      </trkpt>
      <trkpt lat="45.90605" lon="5.75677">
        <ele>1373.4</ele>
        <time>2026-05-13T12:46:00Z</time>
      </trkpt>
      <trkpt lat="45.90606" lon="5.75677">
        <ele>1373.4</ele>
        <time>2026-05-13T12:46:01Z</time>
      </trkpt>
      <trkpt lat="45.90607" lon="5.75678">
        <ele>1373.6</ele>
        <time>2026-05-13T12:46:02Z</time>
      </trkpt>
      <trkpt lat="45.90608" lon="5.75678">
        <ele>1373.6</ele>
        <time>2026-05-13T12:46:03Z</time>
      </trkpt>
      <trkpt lat="45.90609" lon="5.75678">
        <ele>1373.8</ele>
        <time>2026-05-13T12:46:04Z</time>
      </trkpt>
      <trkpt lat="45.90611" lon="5.75678">
        <ele>1373.8</ele>
        <time>2026-05-13T12:46:05Z</time>
      </trkpt>
      <trkpt lat="45.90612" lon="5.75679">
        <ele>1374.2</ele>
        <time>2026-05-13T12:46:06Z</time>
      </trkpt>
      <trkpt lat="45.90613" lon="5.75679">
        <ele>1374.2</ele>
        <time>2026-05-13T12:46:07Z</time>
      </trkpt>
      <trkpt lat="45.90614" lon="5.7568">
        <ele>1374.2</ele>
        <time>2026-05-13T12:46:08Z</time>
      </trkpt>
      <trkpt lat="45.90615" lon="5.7568">
        <ele>1374.2</ele>
        <time>2026-05-13T12:46:09Z</time>
      </trkpt>
      <trkpt lat="45.90616" lon="5.7568">
        <ele>1374.2</ele>
        <time>2026-05-13T12:46:10Z</time>
      </trkpt>
      <trkpt lat="45.90617" lon="5.75681">
        <ele>1374.6</ele>
        <time>2026-05-13T12:46:11Z</time>
      </trkpt>
      <trkpt lat="45.90618" lon="5.75681">
        <ele>1374.6</ele>
        <time>2026-05-13T12:46:12Z</time>
      </trkpt>
      <trkpt lat="45.90619" lon="5.75681">
        <ele>1374.6</ele>
        <time>2026-05-13T12:46:13Z</time>
      </trkpt>
      <trkpt lat="45.9062" lon="5.75682">
        <ele>1374.8</ele>
        <time>2026-05-13T12:46:14Z</time>
      </trkpt>
      <trkpt lat="45.90622" lon="5.75682">
        <ele>1374.8</ele>
        <time>2026-05-13T12:46:15Z</time>
      </trkpt>
      <trkpt lat="45.90623" lon="5.75682">
        <ele>1375.2</ele>
        <time>2026-05-13T12:46:16Z</time>
      </trkpt>
      <trkpt lat="45.90624" lon="5.75682">
        <ele>1375.2</ele>
        <time>2026-05-13T12:46:17Z</time>
      </trkpt>
      <trkpt lat="45.90625" lon="5.75682">
        <ele>1375.4</ele>
        <time>2026-05-13T12:46:18Z</time>
      </trkpt>
      <trkpt lat="45.90626" lon="5.75683">
        <ele>1375.4</ele>
        <time>2026-05-13T12:46:19Z</time>
      </trkpt>
      <trkpt lat="45.90627" lon="5.75683">
        <ele>1375.4</ele>
        <time>2026-05-13T12:46:20Z</time>
      </trkpt>
      <trkpt lat="45.90627" lon="5.75683">
        <ele>1375.6</ele>
        <time>2026-05-13T12:46:21Z</time>
      </trkpt>
      <trkpt lat="45.90628" lon="5.75684">
        <ele>1375.6</ele>
        <time>2026-05-13T12:46:22Z</time>
      </trkpt>
      <trkpt lat="45.90629" lon="5.75684">
        <ele>1375.6</ele>
        <time>2026-05-13T12:46:23Z</time>
      </trkpt>
      <trkpt lat="45.9063" lon="5.75685">
        <ele>1375.6</ele>
        <time>2026-05-13T12:46:24Z</time>
      </trkpt>
      <trkpt lat="45.90631" lon="5.75686">
        <ele>1376</ele>
        <time>2026-05-13T12:46:25Z</time>
      </trkpt>
      <trkpt lat="45.90632" lon="5.75686">
        <ele>1376</ele>
        <time>2026-05-13T12:46:26Z</time>
      </trkpt>
      <trkpt lat="45.90633" lon="5.75687">
        <ele>1376</ele>
        <time>2026-05-13T12:46:27Z</time>
      </trkpt>
      <trkpt lat="45.90634" lon="5.75687">
        <ele>1376.2</ele>
        <time>2026-05-13T12:46:28Z</time>
      </trkpt>
      <trkpt lat="45.90636" lon="5.75687">
        <ele>1376.2</ele>
        <time>2026-05-13T12:46:29Z</time>
      </trkpt>
      <trkpt lat="45.90637" lon="5.75688">
        <ele>1376.8</ele>
        <time>2026-05-13T12:46:30Z</time>
      </trkpt>
      <trkpt lat="45.90638" lon="5.75689">
        <ele>1376.8</ele>
        <time>2026-05-13T12:46:31Z</time>
      </trkpt>
      <trkpt lat="45.90639" lon="5.75689">
        <ele>1377</ele>
        <time>2026-05-13T12:46:32Z</time>
      </trkpt>
      <trkpt lat="45.9064" lon="5.75691">
        <ele>1377</ele>
        <time>2026-05-13T12:46:33Z</time>
      </trkpt>
      <trkpt lat="45.90642" lon="5.75691">
        <ele>1377.2</ele>
        <time>2026-05-13T12:46:34Z</time>
      </trkpt>
      <trkpt lat="45.90643" lon="5.75692">
        <ele>1377.2</ele>
        <time>2026-05-13T12:46:35Z</time>
      </trkpt>
      <trkpt lat="45.90644" lon="5.75692">
        <ele>1377.4</ele>
        <time>2026-05-13T12:46:36Z</time>
      </trkpt>
      <trkpt lat="45.90645" lon="5.75692">
        <ele>1377.4</ele>
        <time>2026-05-13T12:46:37Z</time>
      </trkpt>
      <trkpt lat="45.90647" lon="5.75693">
        <ele>1377.8</ele>
        <time>2026-05-13T12:46:38Z</time>
      </trkpt>
      <trkpt lat="45.90648" lon="5.75693">
        <ele>1377.8</ele>
        <time>2026-05-13T12:46:39Z</time>
      </trkpt>
      <trkpt lat="45.90649" lon="5.75693">
        <ele>1378</ele>
        <time>2026-05-13T12:46:40Z</time>
      </trkpt>
      <trkpt lat="45.90651" lon="5.75694">
        <ele>1378</ele>
        <time>2026-05-13T12:46:41Z</time>
      </trkpt>
      <trkpt lat="45.90652" lon="5.75694">
        <ele>1378.2</ele>
        <time>2026-05-13T12:46:42Z</time>
      </trkpt>
      <trkpt lat="45.90653" lon="5.75694">
        <ele>1378.2</ele>
        <time>2026-05-13T12:46:43Z</time>
      </trkpt>
      <trkpt lat="45.90654" lon="5.75695">
        <ele>1378.2</ele>
        <time>2026-05-13T12:46:44Z</time>
      </trkpt>
      <trkpt lat="45.90655" lon="5.75695">
        <ele>1378.4</ele>
        <time>2026-05-13T12:46:45Z</time>
      </trkpt>
      <trkpt lat="45.90657" lon="5.75696">
        <ele>1378.4</ele>
        <time>2026-05-13T12:46:46Z</time>
      </trkpt>
      <trkpt lat="45.90658" lon="5.75696">
        <ele>1378.8</ele>
        <time>2026-05-13T12:46:47Z</time>
      </trkpt>
      <trkpt lat="45.90659" lon="5.75696">
        <ele>1378.8</ele>
        <time>2026-05-13T12:46:48Z</time>
      </trkpt>
      <trkpt lat="45.9066" lon="5.75696">
        <ele>1379</ele>
        <time>2026-05-13T12:46:49Z</time>
      </trkpt>
      <trkpt lat="45.90661" lon="5.75697">
        <ele>1379</ele>
        <time>2026-05-13T12:46:50Z</time>
      </trkpt>
      <trkpt lat="45.90662" lon="5.75697">
        <ele>1379.2</ele>
        <time>2026-05-13T12:46:51Z</time>
      </trkpt>
      <trkpt lat="45.90663" lon="5.75698">
        <ele>1379.2</ele>
        <time>2026-05-13T12:46:52Z</time>
      </trkpt>
      <trkpt lat="45.90665" lon="5.75698">
        <ele>1379.2</ele>
        <time>2026-05-13T12:46:53Z</time>
      </trkpt>
      <trkpt lat="45.90666" lon="5.75699">
        <ele>1379.6</ele>
        <time>2026-05-13T12:46:54Z</time>
      </trkpt>
      <trkpt lat="45.90667" lon="5.757">
        <ele>1379.6</ele>
        <time>2026-05-13T12:46:55Z</time>
      </trkpt>
      <trkpt lat="45.90668" lon="5.757">
        <ele>1379.6</ele>
        <time>2026-05-13T12:46:56Z</time>
      </trkpt>
      <trkpt lat="45.90669" lon="5.757">
        <ele>1379.6</ele>
        <time>2026-05-13T12:46:57Z</time>
      </trkpt>
      <trkpt lat="45.90671" lon="5.757">
        <ele>1379.8</ele>
        <time>2026-05-13T12:46:58Z</time>
      </trkpt>
      <trkpt lat="45.90672" lon="5.757">
        <ele>1379.8</ele>
        <time>2026-05-13T12:46:59Z</time>
      </trkpt>
      <trkpt lat="45.90673" lon="5.75701">
        <ele>1379.8</ele>
        <time>2026-05-13T12:47:00Z</time>
      </trkpt>
      <trkpt lat="45.90675" lon="5.75701">
        <ele>1380.2</ele>
        <time>2026-05-13T12:47:01Z</time>
      </trkpt>
      <trkpt lat="45.90676" lon="5.75701">
        <ele>1380.2</ele>
        <time>2026-05-13T12:47:02Z</time>
      </trkpt>
      <trkpt lat="45.90677" lon="5.75701">
        <ele>1380.4</ele>
        <time>2026-05-13T12:47:03Z</time>
      </trkpt>
      <trkpt lat="45.90678" lon="5.75701">
        <ele>1380.4</ele>
        <time>2026-05-13T12:47:04Z</time>
      </trkpt>
      <trkpt lat="45.9068" lon="5.75702">
        <ele>1380.6</ele>
        <time>2026-05-13T12:47:05Z</time>
      </trkpt>
      <trkpt lat="45.90681" lon="5.75702">
        <ele>1380.6</ele>
        <time>2026-05-13T12:47:06Z</time>
      </trkpt>
      <trkpt lat="45.90682" lon="5.75703">
        <ele>1381</ele>
        <time>2026-05-13T12:47:07Z</time>
      </trkpt>
      <trkpt lat="45.90683" lon="5.75704">
        <ele>1381</ele>
        <time>2026-05-13T12:47:08Z</time>
      </trkpt>
      <trkpt lat="45.90684" lon="5.75704">
        <ele>1381.2</ele>
        <time>2026-05-13T12:47:09Z</time>
      </trkpt>
      <trkpt lat="45.90686" lon="5.75705">
        <ele>1381.2</ele>
        <time>2026-05-13T12:47:10Z</time>
      </trkpt>
      <trkpt lat="45.90687" lon="5.75706">
        <ele>1381.2</ele>
        <time>2026-05-13T12:47:11Z</time>
      </trkpt>
      <trkpt lat="45.90688" lon="5.75707">
        <ele>1381.4</ele>
        <time>2026-05-13T12:47:12Z</time>
      </trkpt>
      <trkpt lat="45.90689" lon="5.75708">
        <ele>1381.6</ele>
        <time>2026-05-13T12:47:13Z</time>
      </trkpt>
      <trkpt lat="45.90691" lon="5.75708">
        <ele>1381.6</ele>
        <time>2026-05-13T12:47:14Z</time>
      </trkpt>
      <trkpt lat="45.90692" lon="5.75709">
        <ele>1381.6</ele>
        <time>2026-05-13T12:47:15Z</time>
      </trkpt>
      <trkpt lat="45.90693" lon="5.75709">
        <ele>1382</ele>
        <time>2026-05-13T12:47:16Z</time>
      </trkpt>
      <trkpt lat="45.90694" lon="5.7571">
        <ele>1382</ele>
        <time>2026-05-13T12:47:17Z</time>
      </trkpt>
      <trkpt lat="45.90695" lon="5.7571">
        <ele>1382</ele>
        <time>2026-05-13T12:47:18Z</time>
      </trkpt>
      <trkpt lat="45.90697" lon="5.75711">
        <ele>1382</ele>
        <time>2026-05-13T12:47:19Z</time>
      </trkpt>
      <trkpt lat="45.90698" lon="5.75711">
        <ele>1382.4</ele>
        <time>2026-05-13T12:47:20Z</time>
      </trkpt>
      <trkpt lat="45.90699" lon="5.75712">
        <ele>1382.4</ele>
        <time>2026-05-13T12:47:21Z</time>
      </trkpt>
      <trkpt lat="45.907" lon="5.75712">
        <ele>1382.6</ele>
        <time>2026-05-13T12:47:22Z</time>
      </trkpt>
      <trkpt lat="45.90701" lon="5.75712">
        <ele>1382.6</ele>
        <time>2026-05-13T12:47:23Z</time>
      </trkpt>
      <trkpt lat="45.90702" lon="5.75713">
        <ele>1382.8</ele>
        <time>2026-05-13T12:47:24Z</time>
      </trkpt>
      <trkpt lat="45.90704" lon="5.75713">
        <ele>1382.8</ele>
        <time>2026-05-13T12:47:25Z</time>
      </trkpt>
      <trkpt lat="45.90705" lon="5.75714">
        <ele>1383.2</ele>
        <time>2026-05-13T12:47:26Z</time>
      </trkpt>
      <trkpt lat="45.90706" lon="5.75714">
        <ele>1383.2</ele>
        <time>2026-05-13T12:47:27Z</time>
      </trkpt>
      <trkpt lat="45.90707" lon="5.75714">
        <ele>1383.4</ele>
        <time>2026-05-13T12:47:28Z</time>
      </trkpt>
      <trkpt lat="45.90709" lon="5.75714">
        <ele>1383.4</ele>
        <time>2026-05-13T12:47:29Z</time>
      </trkpt>
      <trkpt lat="45.9071" lon="5.75714">
        <ele>1383.8</ele>
        <time>2026-05-13T12:47:30Z</time>
      </trkpt>
      <trkpt lat="45.90711" lon="5.75714">
        <ele>1383.8</ele>
        <time>2026-05-13T12:47:31Z</time>
      </trkpt>
      <trkpt lat="45.90712" lon="5.75715">
        <ele>1384</ele>
        <time>2026-05-13T12:47:32Z</time>
      </trkpt>
      <trkpt lat="45.90713" lon="5.75716">
        <ele>1384</ele>
        <time>2026-05-13T12:47:33Z</time>
      </trkpt>
      <trkpt lat="45.90715" lon="5.75717">
        <ele>1384.2</ele>
        <time>2026-05-13T12:47:34Z</time>
      </trkpt>
      <trkpt lat="45.90716" lon="5.75717">
        <ele>1384.2</ele>
        <time>2026-05-13T12:47:35Z</time>
      </trkpt>
      <trkpt lat="45.90717" lon="5.75718">
        <ele>1384.4</ele>
        <time>2026-05-13T12:47:36Z</time>
      </trkpt>
      <trkpt lat="45.90719" lon="5.75718">
        <ele>1384.4</ele>
        <time>2026-05-13T12:47:37Z</time>
      </trkpt>
      <trkpt lat="45.9072" lon="5.75719">
        <ele>1384.8</ele>
        <time>2026-05-13T12:47:38Z</time>
      </trkpt>
      <trkpt lat="45.90721" lon="5.75719">
        <ele>1384.8</ele>
        <time>2026-05-13T12:47:39Z</time>
      </trkpt>
      <trkpt lat="45.90722" lon="5.7572">
        <ele>1384.8</ele>
        <time>2026-05-13T12:47:40Z</time>
      </trkpt>
      <trkpt lat="45.90723" lon="5.75721">
        <ele>1384.8</ele>
        <time>2026-05-13T12:47:41Z</time>
      </trkpt>
      <trkpt lat="45.90725" lon="5.75721">
        <ele>1385.2</ele>
        <time>2026-05-13T12:47:42Z</time>
      </trkpt>
      <trkpt lat="45.90726" lon="5.75721">
        <ele>1385.2</ele>
        <time>2026-05-13T12:47:43Z</time>
      </trkpt>
      <trkpt lat="45.90728" lon="5.75722">
        <ele>1385.2</ele>
        <time>2026-05-13T12:47:44Z</time>
      </trkpt>
      <trkpt lat="45.90729" lon="5.75722">
        <ele>1385.2</ele>
        <time>2026-05-13T12:47:45Z</time>
      </trkpt>
      <trkpt lat="45.9073" lon="5.75722">
        <ele>1385.2</ele>
        <time>2026-05-13T12:47:46Z</time>
      </trkpt>
      <trkpt lat="45.90731" lon="5.75722">
        <ele>1385.4</ele>
        <time>2026-05-13T12:47:47Z</time>
      </trkpt>
      <trkpt lat="45.90734" lon="5.75723">
        <ele>1385.4</ele>
        <time>2026-05-13T12:47:48Z</time>
      </trkpt>
      <trkpt lat="45.90735" lon="5.75724">
        <ele>1385.4</ele>
        <time>2026-05-13T12:47:49Z</time>
      </trkpt>
      <trkpt lat="45.90736" lon="5.75725">
        <ele>1385.8</ele>
        <time>2026-05-13T12:47:50Z</time>
      </trkpt>
      <trkpt lat="45.90737" lon="5.75725">
        <ele>1385.8</ele>
        <time>2026-05-13T12:47:51Z</time>
      </trkpt>
      <trkpt lat="45.90738" lon="5.75725">
        <ele>1386</ele>
        <time>2026-05-13T12:47:52Z</time>
      </trkpt>
      <trkpt lat="45.90739" lon="5.75726">
        <ele>1386</ele>
        <time>2026-05-13T12:47:53Z</time>
      </trkpt>
      <trkpt lat="45.9074" lon="5.75726">
        <ele>1386.2</ele>
        <time>2026-05-13T12:47:54Z</time>
      </trkpt>
      <trkpt lat="45.90741" lon="5.75726">
        <ele>1386.2</ele>
        <time>2026-05-13T12:47:55Z</time>
      </trkpt>
      <trkpt lat="45.90742" lon="5.75726">
        <ele>1386.2</ele>
        <time>2026-05-13T12:47:56Z</time>
      </trkpt>
      <trkpt lat="45.90744" lon="5.75727">
        <ele>1386.2</ele>
        <time>2026-05-13T12:47:57Z</time>
      </trkpt>
      <trkpt lat="45.90745" lon="5.75728">
        <ele>1386.4</ele>
        <time>2026-05-13T12:47:58Z</time>
      </trkpt>
      <trkpt lat="45.90747" lon="5.75729">
        <ele>1386.4</ele>
        <time>2026-05-13T12:47:59Z</time>
      </trkpt>
      <trkpt lat="45.90748" lon="5.75729">
        <ele>1386.4</ele>
        <time>2026-05-13T12:48:00Z</time>
      </trkpt>
      <trkpt lat="45.90749" lon="5.75729">
        <ele>1386.8</ele>
        <time>2026-05-13T12:48:01Z</time>
      </trkpt>
      <trkpt lat="45.9075" lon="5.7573">
        <ele>1387</ele>
        <time>2026-05-13T12:48:02Z</time>
      </trkpt>
      <trkpt lat="45.90752" lon="5.75731">
        <ele>1387</ele>
        <time>2026-05-13T12:48:03Z</time>
      </trkpt>
      <trkpt lat="45.90753" lon="5.75731">
        <ele>1387</ele>
        <time>2026-05-13T12:48:04Z</time>
      </trkpt>
      <trkpt lat="45.90754" lon="5.75732">
        <ele>1387.2</ele>
        <time>2026-05-13T12:48:05Z</time>
      </trkpt>
      <trkpt lat="45.90756" lon="5.75733">
        <ele>1387.2</ele>
        <time>2026-05-13T12:48:06Z</time>
      </trkpt>
      <trkpt lat="45.90757" lon="5.75734">
        <ele>1387.2</ele>
        <time>2026-05-13T12:48:07Z</time>
      </trkpt>
      <trkpt lat="45.90758" lon="5.75735">
        <ele>1387.6</ele>
        <time>2026-05-13T12:48:08Z</time>
      </trkpt>
      <trkpt lat="45.90759" lon="5.75736">
        <ele>1387.6</ele>
        <time>2026-05-13T12:48:09Z</time>
      </trkpt>
      <trkpt lat="45.9076" lon="5.75737">
        <ele>1387.6</ele>
        <time>2026-05-13T12:48:10Z</time>
      </trkpt>
      <trkpt lat="45.90761" lon="5.75737">
        <ele>1387.6</ele>
        <time>2026-05-13T12:48:11Z</time>
      </trkpt>
      <trkpt lat="45.90763" lon="5.75737">
        <ele>1387.8</ele>
        <time>2026-05-13T12:48:12Z</time>
      </trkpt>
      <trkpt lat="45.90764" lon="5.75738">
        <ele>1387.8</ele>
        <time>2026-05-13T12:48:13Z</time>
      </trkpt>
      <trkpt lat="45.90765" lon="5.75738">
        <ele>1387.8</ele>
        <time>2026-05-13T12:48:14Z</time>
      </trkpt>
      <trkpt lat="45.90766" lon="5.75738">
        <ele>1388.2</ele>
        <time>2026-05-13T12:48:15Z</time>
      </trkpt>
      <trkpt lat="45.90768" lon="5.75738">
        <ele>1388.2</ele>
        <time>2026-05-13T12:48:16Z</time>
      </trkpt>
      <trkpt lat="45.90769" lon="5.75739">
        <ele>1388.4</ele>
        <time>2026-05-13T12:48:17Z</time>
      </trkpt>
      <trkpt lat="45.90771" lon="5.75739">
        <ele>1388.4</ele>
        <time>2026-05-13T12:48:18Z</time>
      </trkpt>
      <trkpt lat="45.90772" lon="5.75739">
        <ele>1388.4</ele>
        <time>2026-05-13T12:48:19Z</time>
      </trkpt>
      <trkpt lat="45.90773" lon="5.75739">
        <ele>1388.4</ele>
        <time>2026-05-13T12:48:20Z</time>
      </trkpt>
      <trkpt lat="45.90775" lon="5.75739">
        <ele>1389</ele>
        <time>2026-05-13T12:48:21Z</time>
      </trkpt>
      <trkpt lat="45.90776" lon="5.75739">
        <ele>1389</ele>
        <time>2026-05-13T12:48:22Z</time>
      </trkpt>
      <trkpt lat="45.90777" lon="5.75739">
        <ele>1389</ele>
        <time>2026-05-13T12:48:23Z</time>
      </trkpt>
      <trkpt lat="45.90778" lon="5.7574">
        <ele>1389.2</ele>
        <time>2026-05-13T12:48:24Z</time>
      </trkpt>
      <trkpt lat="45.9078" lon="5.75741">
        <ele>1389.2</ele>
        <time>2026-05-13T12:48:25Z</time>
      </trkpt>
      <trkpt lat="45.90782" lon="5.75741">
        <ele>1389.2</ele>
        <time>2026-05-13T12:48:26Z</time>
      </trkpt>
      <trkpt lat="45.90783" lon="5.75742">
        <ele>1389.2</ele>
        <time>2026-05-13T12:48:27Z</time>
      </trkpt>
      <trkpt lat="45.90784" lon="5.75742">
        <ele>1389.4</ele>
        <time>2026-05-13T12:48:28Z</time>
      </trkpt>
      <trkpt lat="45.90786" lon="5.75742">
        <ele>1389.4</ele>
        <time>2026-05-13T12:48:29Z</time>
      </trkpt>
      <trkpt lat="45.90787" lon="5.75742">
        <ele>1389.6</ele>
        <time>2026-05-13T12:48:30Z</time>
      </trkpt>
      <trkpt lat="45.90789" lon="5.75743">
        <ele>1389.6</ele>
        <time>2026-05-13T12:48:31Z</time>
      </trkpt>
      <trkpt lat="45.9079" lon="5.75743">
        <ele>1390</ele>
        <time>2026-05-13T12:48:32Z</time>
      </trkpt>
      <trkpt lat="45.90791" lon="5.75744">
        <ele>1390</ele>
        <time>2026-05-13T12:48:33Z</time>
      </trkpt>
      <trkpt lat="45.90793" lon="5.75744">
        <ele>1390</ele>
        <time>2026-05-13T12:48:34Z</time>
      </trkpt>
      <trkpt lat="45.90794" lon="5.75745">
        <ele>1390.2</ele>
        <time>2026-05-13T12:48:35Z</time>
      </trkpt>
      <trkpt lat="45.90795" lon="5.75745">
        <ele>1390.2</ele>
        <time>2026-05-13T12:48:36Z</time>
      </trkpt>
      <trkpt lat="45.90796" lon="5.75746">
        <ele>1390.2</ele>
        <time>2026-05-13T12:48:37Z</time>
      </trkpt>
      <trkpt lat="45.90798" lon="5.75746">
        <ele>1390.2</ele>
        <time>2026-05-13T12:48:38Z</time>
      </trkpt>
      <trkpt lat="45.90799" lon="5.75746">
        <ele>1390.2</ele>
        <time>2026-05-13T12:48:39Z</time>
      </trkpt>
      <trkpt lat="45.908" lon="5.75747">
        <ele>1390.6</ele>
        <time>2026-05-13T12:48:40Z</time>
      </trkpt>
      <trkpt lat="45.90801" lon="5.75748">
        <ele>1390.6</ele>
        <time>2026-05-13T12:48:41Z</time>
      </trkpt>
      <trkpt lat="45.90802" lon="5.75749">
        <ele>1390.8</ele>
        <time>2026-05-13T12:48:42Z</time>
      </trkpt>
      <trkpt lat="45.90803" lon="5.7575">
        <ele>1390.8</ele>
        <time>2026-05-13T12:48:43Z</time>
      </trkpt>
      <trkpt lat="45.90804" lon="5.7575">
        <ele>1391</ele>
        <time>2026-05-13T12:48:44Z</time>
      </trkpt>
      <trkpt lat="45.90806" lon="5.7575">
        <ele>1391</ele>
        <time>2026-05-13T12:48:45Z</time>
      </trkpt>
      <trkpt lat="45.90807" lon="5.7575">
        <ele>1391.4</ele>
        <time>2026-05-13T12:48:46Z</time>
      </trkpt>
      <trkpt lat="45.90808" lon="5.7575">
        <ele>1391.4</ele>
        <time>2026-05-13T12:48:47Z</time>
      </trkpt>
      <trkpt lat="45.90809" lon="5.75751">
        <ele>1391.8</ele>
        <time>2026-05-13T12:48:48Z</time>
      </trkpt>
      <trkpt lat="45.9081" lon="5.75753">
        <ele>1391.8</ele>
        <time>2026-05-13T12:48:49Z</time>
      </trkpt>
      <trkpt lat="45.90811" lon="5.75754">
        <ele>1392</ele>
        <time>2026-05-13T12:48:50Z</time>
      </trkpt>
      <trkpt lat="45.90812" lon="5.75755">
        <ele>1392</ele>
        <time>2026-05-13T12:48:51Z</time>
      </trkpt>
      <trkpt lat="45.90813" lon="5.75756">
        <ele>1392.2</ele>
        <time>2026-05-13T12:48:52Z</time>
      </trkpt>
      <trkpt lat="45.90815" lon="5.75757">
        <ele>1392.2</ele>
        <time>2026-05-13T12:48:53Z</time>
      </trkpt>
      <trkpt lat="45.90816" lon="5.75758">
        <ele>1392.2</ele>
        <time>2026-05-13T12:48:54Z</time>
      </trkpt>
      <trkpt lat="45.90817" lon="5.75759">
        <ele>1392.2</ele>
        <time>2026-05-13T12:48:55Z</time>
      </trkpt>
      <trkpt lat="45.90819" lon="5.7576">
        <ele>1392.2</ele>
        <time>2026-05-13T12:48:56Z</time>
      </trkpt>
      <trkpt lat="45.9082" lon="5.75761">
        <ele>1392.6</ele>
        <time>2026-05-13T12:48:57Z</time>
      </trkpt>
      <trkpt lat="45.90821" lon="5.75762">
        <ele>1392.6</ele>
        <time>2026-05-13T12:48:58Z</time>
      </trkpt>
      <trkpt lat="45.90822" lon="5.75763">
        <ele>1392.6</ele>
        <time>2026-05-13T12:48:59Z</time>
      </trkpt>
      <trkpt lat="45.90824" lon="5.75764">
        <ele>1392.6</ele>
        <time>2026-05-13T12:49:00Z</time>
      </trkpt>
      <trkpt lat="45.90825" lon="5.75765">
        <ele>1392.8</ele>
        <time>2026-05-13T12:49:01Z</time>
      </trkpt>
      <trkpt lat="45.90826" lon="5.75766">
        <ele>1392.8</ele>
        <time>2026-05-13T12:49:02Z</time>
      </trkpt>
      <trkpt lat="45.90827" lon="5.75768">
        <ele>1392.8</ele>
        <time>2026-05-13T12:49:03Z</time>
      </trkpt>
      <trkpt lat="45.90828" lon="5.75769">
        <ele>1392.8</ele>
        <time>2026-05-13T12:49:04Z</time>
      </trkpt>
      <trkpt lat="45.90829" lon="5.75771">
        <ele>1393</ele>
        <time>2026-05-13T12:49:05Z</time>
      </trkpt>
      <trkpt lat="45.90831" lon="5.75772">
        <ele>1393</ele>
        <time>2026-05-13T12:49:06Z</time>
      </trkpt>
      <trkpt lat="45.90832" lon="5.75773">
        <ele>1393.2</ele>
        <time>2026-05-13T12:49:07Z</time>
      </trkpt>
      <trkpt lat="45.90834" lon="5.75774">
        <ele>1393.2</ele>
        <time>2026-05-13T12:49:08Z</time>
      </trkpt>
      <trkpt lat="45.90835" lon="5.75775">
        <ele>1393.2</ele>
        <time>2026-05-13T12:49:09Z</time>
      </trkpt>
      <trkpt lat="45.90836" lon="5.75776">
        <ele>1393.6</ele>
        <time>2026-05-13T12:49:10Z</time>
      </trkpt>
      <trkpt lat="45.90837" lon="5.75777">
        <ele>1393.6</ele>
        <time>2026-05-13T12:49:11Z</time>
      </trkpt>
      <trkpt lat="45.90838" lon="5.75778">
        <ele>1393.6</ele>
        <time>2026-05-13T12:49:12Z</time>
      </trkpt>
      <trkpt lat="45.90839" lon="5.75779">
        <ele>1393.6</ele>
        <time>2026-05-13T12:49:13Z</time>
      </trkpt>
      <trkpt lat="45.90839" lon="5.7578">
        <ele>1393.6</ele>
        <time>2026-05-13T12:49:14Z</time>
      </trkpt>
      <trkpt lat="45.9084" lon="5.75781">
        <ele>1393.8</ele>
        <time>2026-05-13T12:49:15Z</time>
      </trkpt>
      <trkpt lat="45.90841" lon="5.75783">
        <ele>1393.8</ele>
        <time>2026-05-13T12:49:16Z</time>
      </trkpt>
      <trkpt lat="45.90842" lon="5.75784">
        <ele>1393.8</ele>
        <time>2026-05-13T12:49:17Z</time>
      </trkpt>
      <trkpt lat="45.90843" lon="5.75786">
        <ele>1394</ele>
        <time>2026-05-13T12:49:18Z</time>
      </trkpt>
      <trkpt lat="45.90844" lon="5.75787">
        <ele>1394</ele>
        <time>2026-05-13T12:49:19Z</time>
      </trkpt>
      <trkpt lat="45.90845" lon="5.75788">
        <ele>1394.4</ele>
        <time>2026-05-13T12:49:20Z</time>
      </trkpt>
      <trkpt lat="45.90846" lon="5.75789">
        <ele>1394.4</ele>
        <time>2026-05-13T12:49:21Z</time>
      </trkpt>
      <trkpt lat="45.90847" lon="5.75791">
        <ele>1394.6</ele>
        <time>2026-05-13T12:49:22Z</time>
      </trkpt>
      <trkpt lat="45.90848" lon="5.75792">
        <ele>1395</ele>
        <time>2026-05-13T12:49:23Z</time>
      </trkpt>
      <trkpt lat="45.90848" lon="5.75793">
        <ele>1395.2</ele>
        <time>2026-05-13T12:49:24Z</time>
      </trkpt>
      <trkpt lat="45.90849" lon="5.75795">
        <ele>1395.4</ele>
        <time>2026-05-13T12:49:25Z</time>
      </trkpt>
      <trkpt lat="45.9085" lon="5.75797">
        <ele>1395.4</ele>
        <time>2026-05-13T12:49:26Z</time>
      </trkpt>
      <trkpt lat="45.9085" lon="5.75798">
        <ele>1395.8</ele>
        <time>2026-05-13T12:49:27Z</time>
      </trkpt>
      <trkpt lat="45.90851" lon="5.758">
        <ele>1396</ele>
        <time>2026-05-13T12:49:28Z</time>
      </trkpt>
      <trkpt lat="45.90852" lon="5.75802">
        <ele>1396</ele>
        <time>2026-05-13T12:49:29Z</time>
      </trkpt>
      <trkpt lat="45.90853" lon="5.75803">
        <ele>1396.4</ele>
        <time>2026-05-13T12:49:30Z</time>
      </trkpt>
      <trkpt lat="45.90853" lon="5.75805">
        <ele>1396.4</ele>
        <time>2026-05-13T12:49:31Z</time>
      </trkpt>
      <trkpt lat="45.90854" lon="5.75806">
        <ele>1396.4</ele>
        <time>2026-05-13T12:49:32Z</time>
      </trkpt>
      <trkpt lat="45.90855" lon="5.75807">
        <ele>1396.6</ele>
        <time>2026-05-13T12:49:33Z</time>
      </trkpt>
      <trkpt lat="45.90856" lon="5.75809">
        <ele>1396.8</ele>
        <time>2026-05-13T12:49:34Z</time>
      </trkpt>
      <trkpt lat="45.90857" lon="5.7581">
        <ele>1397</ele>
        <time>2026-05-13T12:49:35Z</time>
      </trkpt>
      <trkpt lat="45.90857" lon="5.75812">
        <ele>1397</ele>
        <time>2026-05-13T12:49:36Z</time>
      </trkpt>
      <trkpt lat="45.90858" lon="5.75813">
        <ele>1397.4</ele>
        <time>2026-05-13T12:49:37Z</time>
      </trkpt>
      <trkpt lat="45.90859" lon="5.75815">
        <ele>1397.4</ele>
        <time>2026-05-13T12:49:38Z</time>
      </trkpt>
      <trkpt lat="45.9086" lon="5.75816">
        <ele>1397.4</ele>
        <time>2026-05-13T12:49:39Z</time>
      </trkpt>
      <trkpt lat="45.90861" lon="5.75818">
        <ele>1397.4</ele>
        <time>2026-05-13T12:49:40Z</time>
      </trkpt>
      <trkpt lat="45.90861" lon="5.75819">
        <ele>1397.6</ele>
        <time>2026-05-13T12:49:41Z</time>
      </trkpt>
      <trkpt lat="45.90862" lon="5.7582">
        <ele>1397.6</ele>
        <time>2026-05-13T12:49:42Z</time>
      </trkpt>
      <trkpt lat="45.90863" lon="5.75822">
        <ele>1398</ele>
        <time>2026-05-13T12:49:43Z</time>
      </trkpt>
      <trkpt lat="45.90863" lon="5.75824">
        <ele>1398</ele>
        <time>2026-05-13T12:49:44Z</time>
      </trkpt>
      <trkpt lat="45.90863" lon="5.75826">
        <ele>1398.2</ele>
        <time>2026-05-13T12:49:45Z</time>
      </trkpt>
      <trkpt lat="45.90863" lon="5.75827">
        <ele>1398.2</ele>
        <time>2026-05-13T12:49:46Z</time>
      </trkpt>
      <trkpt lat="45.90864" lon="5.75827">
        <ele>1398.2</ele>
        <time>2026-05-13T12:49:47Z</time>
      </trkpt>
      <trkpt lat="45.90865" lon="5.75828">
        <ele>1398.2</ele>
        <time>2026-05-13T12:49:48Z</time>
      </trkpt>
      <trkpt lat="45.90867" lon="5.75829">
        <ele>1398.4</ele>
        <time>2026-05-13T12:49:49Z</time>
      </trkpt>
      <trkpt lat="45.90868" lon="5.7583">
        <ele>1398.4</ele>
        <time>2026-05-13T12:49:50Z</time>
      </trkpt>
      <trkpt lat="45.90869" lon="5.75831">
        <ele>1398.6</ele>
        <time>2026-05-13T12:49:51Z</time>
      </trkpt>
      <trkpt lat="45.9087" lon="5.75832">
        <ele>1398.6</ele>
        <time>2026-05-13T12:49:52Z</time>
      </trkpt>
      <trkpt lat="45.90871" lon="5.75833">
        <ele>1399</ele>
        <time>2026-05-13T12:49:53Z</time>
      </trkpt>
      <trkpt lat="45.90871" lon="5.75835">
        <ele>1399</ele>
        <time>2026-05-13T12:49:54Z</time>
      </trkpt>
      <trkpt lat="45.90872" lon="5.75836">
        <ele>1399</ele>
        <time>2026-05-13T12:49:55Z</time>
      </trkpt>
      <trkpt lat="45.90872" lon="5.75838">
        <ele>1399</ele>
        <time>2026-05-13T12:49:56Z</time>
      </trkpt>
      <trkpt lat="45.90873" lon="5.75839">
        <ele>1399</ele>
        <time>2026-05-13T12:49:57Z</time>
      </trkpt>
      <trkpt lat="45.90873" lon="5.75841">
        <ele>1399.2</ele>
        <time>2026-05-13T12:49:58Z</time>
      </trkpt>
      <trkpt lat="45.90874" lon="5.75842">
        <ele>1399.4</ele>
        <time>2026-05-13T12:49:59Z</time>
      </trkpt>
      <trkpt lat="45.90874" lon="5.75844">
        <ele>1399.8</ele>
        <time>2026-05-13T12:50:00Z</time>
      </trkpt>
      <trkpt lat="45.90874" lon="5.75844">
        <ele>1400</ele>
        <time>2026-05-13T12:50:01Z</time>
      </trkpt>
      <trkpt lat="45.90875" lon="5.75845">
        <ele>1400</ele>
        <time>2026-05-13T12:50:02Z</time>
      </trkpt>
      <trkpt lat="45.90875" lon="5.75846">
        <ele>1400.2</ele>
        <time>2026-05-13T12:50:03Z</time>
      </trkpt>
      <trkpt lat="45.90876" lon="5.75848">
        <ele>1400.2</ele>
        <time>2026-05-13T12:50:04Z</time>
      </trkpt>
      <trkpt lat="45.90877" lon="5.75849">
        <ele>1400.2</ele>
        <time>2026-05-13T12:50:05Z</time>
      </trkpt>
      <trkpt lat="45.90878" lon="5.7585">
        <ele>1400.2</ele>
        <time>2026-05-13T12:50:06Z</time>
      </trkpt>
      <trkpt lat="45.90879" lon="5.75851">
        <ele>1400.4</ele>
        <time>2026-05-13T12:50:07Z</time>
      </trkpt>
      <trkpt lat="45.9088" lon="5.75852">
        <ele>1400.4</ele>
        <time>2026-05-13T12:50:08Z</time>
      </trkpt>
      <trkpt lat="45.90881" lon="5.75853">
        <ele>1400.8</ele>
        <time>2026-05-13T12:50:09Z</time>
      </trkpt>
      <trkpt lat="45.90881" lon="5.75854">
        <ele>1401</ele>
        <time>2026-05-13T12:50:10Z</time>
      </trkpt>
      <trkpt lat="45.90882" lon="5.75856">
        <ele>1401</ele>
        <time>2026-05-13T12:50:11Z</time>
      </trkpt>
      <trkpt lat="45.90882" lon="5.75858">
        <ele>1401.4</ele>
        <time>2026-05-13T12:50:12Z</time>
      </trkpt>
      <trkpt lat="45.90883" lon="5.75859">
        <ele>1401.4</ele>
        <time>2026-05-13T12:50:13Z</time>
      </trkpt>
      <trkpt lat="45.90883" lon="5.7586">
        <ele>1401.4</ele>
        <time>2026-05-13T12:50:14Z</time>
      </trkpt>
      <trkpt lat="45.90883" lon="5.75862">
        <ele>1401.6</ele>
        <time>2026-05-13T12:50:15Z</time>
      </trkpt>
      <trkpt lat="45.90884" lon="5.75863">
        <ele>1401.6</ele>
        <time>2026-05-13T12:50:16Z</time>
      </trkpt>
      <trkpt lat="45.90884" lon="5.75864">
        <ele>1401.8</ele>
        <time>2026-05-13T12:50:17Z</time>
      </trkpt>
      <trkpt lat="45.90885" lon="5.75865">
        <ele>1402</ele>
        <time>2026-05-13T12:50:18Z</time>
      </trkpt>
      <trkpt lat="45.90886" lon="5.75866">
        <ele>1402</ele>
        <time>2026-05-13T12:50:19Z</time>
      </trkpt>
      <trkpt lat="45.90887" lon="5.75867">
        <ele>1402.4</ele>
        <time>2026-05-13T12:50:20Z</time>
      </trkpt>
      <trkpt lat="45.90888" lon="5.75869">
        <ele>1402.6</ele>
        <time>2026-05-13T12:50:21Z</time>
      </trkpt>
      <trkpt lat="45.90889" lon="5.7587">
        <ele>1402.6</ele>
        <time>2026-05-13T12:50:22Z</time>
      </trkpt>
      <trkpt lat="45.90889" lon="5.75871">
        <ele>1402.6</ele>
        <time>2026-05-13T12:50:23Z</time>
      </trkpt>
      <trkpt lat="45.9089" lon="5.75873">
        <ele>1403</ele>
        <time>2026-05-13T12:50:24Z</time>
      </trkpt>
      <trkpt lat="45.9089" lon="5.75874">
        <ele>1403</ele>
        <time>2026-05-13T12:50:25Z</time>
      </trkpt>
      <trkpt lat="45.90891" lon="5.75875">
        <ele>1403.2</ele>
        <time>2026-05-13T12:50:26Z</time>
      </trkpt>
      <trkpt lat="45.90892" lon="5.75876">
        <ele>1403.2</ele>
        <time>2026-05-13T12:50:27Z</time>
      </trkpt>
      <trkpt lat="45.90893" lon="5.75877">
        <ele>1403.4</ele>
        <time>2026-05-13T12:50:28Z</time>
      </trkpt>
      <trkpt lat="45.90893" lon="5.75879">
        <ele>1403.4</ele>
        <time>2026-05-13T12:50:29Z</time>
      </trkpt>
      <trkpt lat="45.90894" lon="5.7588">
        <ele>1403.8</ele>
        <time>2026-05-13T12:50:30Z</time>
      </trkpt>
      <trkpt lat="45.90895" lon="5.75881">
        <ele>1403.8</ele>
        <time>2026-05-13T12:50:31Z</time>
      </trkpt>
      <trkpt lat="45.90896" lon="5.75883">
        <ele>1404</ele>
        <time>2026-05-13T12:50:32Z</time>
      </trkpt>
      <trkpt lat="45.90896" lon="5.75884">
        <ele>1404</ele>
        <time>2026-05-13T12:50:33Z</time>
      </trkpt>
      <trkpt lat="45.90897" lon="5.75886">
        <ele>1404.4</ele>
        <time>2026-05-13T12:50:34Z</time>
      </trkpt>
      <trkpt lat="45.90898" lon="5.75887">
        <ele>1404.4</ele>
        <time>2026-05-13T12:50:35Z</time>
      </trkpt>
      <trkpt lat="45.90899" lon="5.75888">
        <ele>1404.6</ele>
        <time>2026-05-13T12:50:36Z</time>
      </trkpt>
      <trkpt lat="45.90899" lon="5.7589">
        <ele>1404.6</ele>
        <time>2026-05-13T12:50:37Z</time>
      </trkpt>
      <trkpt lat="45.909" lon="5.75891">
        <ele>1405</ele>
        <time>2026-05-13T12:50:38Z</time>
      </trkpt>
      <trkpt lat="45.909" lon="5.75893">
        <ele>1405.2</ele>
        <time>2026-05-13T12:50:39Z</time>
      </trkpt>
      <trkpt lat="45.90901" lon="5.75894">
        <ele>1405.2</ele>
        <time>2026-05-13T12:50:40Z</time>
      </trkpt>
      <trkpt lat="45.90902" lon="5.75895">
        <ele>1405.4</ele>
        <time>2026-05-13T12:50:41Z</time>
      </trkpt>
      <trkpt lat="45.90903" lon="5.75896">
        <ele>1405.4</ele>
        <time>2026-05-13T12:50:42Z</time>
      </trkpt>
      <trkpt lat="45.90904" lon="5.75897">
        <ele>1405.8</ele>
        <time>2026-05-13T12:50:43Z</time>
      </trkpt>
      <trkpt lat="45.90905" lon="5.75899">
        <ele>1406</ele>
        <time>2026-05-13T12:50:44Z</time>
      </trkpt>
      <trkpt lat="45.90905" lon="5.759">
        <ele>1406</ele>
        <time>2026-05-13T12:50:45Z</time>
      </trkpt>
      <trkpt lat="45.90906" lon="5.75901">
        <ele>1406</ele>
        <time>2026-05-13T12:50:46Z</time>
      </trkpt>
      <trkpt lat="45.90906" lon="5.75902">
        <ele>1406</ele>
        <time>2026-05-13T12:50:47Z</time>
      </trkpt>
      <trkpt lat="45.90907" lon="5.75903">
        <ele>1406</ele>
        <time>2026-05-13T12:50:48Z</time>
      </trkpt>
      <trkpt lat="45.90908" lon="5.75905">
        <ele>1406</ele>
        <time>2026-05-13T12:50:49Z</time>
      </trkpt>
      <trkpt lat="45.90909" lon="5.75905">
        <ele>1406.4</ele>
        <time>2026-05-13T12:50:50Z</time>
      </trkpt>
      <trkpt lat="45.90909" lon="5.75906">
        <ele>1406.4</ele>
        <time>2026-05-13T12:50:51Z</time>
      </trkpt>
      <trkpt lat="45.9091" lon="5.75908">
        <ele>1406.4</ele>
        <time>2026-05-13T12:50:52Z</time>
      </trkpt>
      <trkpt lat="45.9091" lon="5.75909">
        <ele>1406.8</ele>
        <time>2026-05-13T12:50:53Z</time>
      </trkpt>
      <trkpt lat="45.90911" lon="5.7591">
        <ele>1406.8</ele>
        <time>2026-05-13T12:50:54Z</time>
      </trkpt>
      <trkpt lat="45.90911" lon="5.75912">
        <ele>1407</ele>
        <time>2026-05-13T12:50:55Z</time>
      </trkpt>
      <trkpt lat="45.90912" lon="5.75913">
        <ele>1407</ele>
        <time>2026-05-13T12:50:56Z</time>
      </trkpt>
      <trkpt lat="45.90912" lon="5.75914">
        <ele>1407.2</ele>
        <time>2026-05-13T12:50:57Z</time>
      </trkpt>
      <trkpt lat="45.90913" lon="5.75916">
        <ele>1407.2</ele>
        <time>2026-05-13T12:50:58Z</time>
      </trkpt>
      <trkpt lat="45.90914" lon="5.75917">
        <ele>1407.4</ele>
        <time>2026-05-13T12:50:59Z</time>
      </trkpt>
      <trkpt lat="45.90915" lon="5.75918">
        <ele>1407.4</ele>
        <time>2026-05-13T12:51:00Z</time>
      </trkpt>
      <trkpt lat="45.90916" lon="5.75919">
        <ele>1407.8</ele>
        <time>2026-05-13T12:51:01Z</time>
      </trkpt>
      <trkpt lat="45.90916" lon="5.75921">
        <ele>1407.8</ele>
        <time>2026-05-13T12:51:02Z</time>
      </trkpt>
      <trkpt lat="45.90916" lon="5.75922">
        <ele>1407.8</ele>
        <time>2026-05-13T12:51:03Z</time>
      </trkpt>
      <trkpt lat="45.90917" lon="5.75924">
        <ele>1408</ele>
        <time>2026-05-13T12:51:04Z</time>
      </trkpt>
      <trkpt lat="45.90918" lon="5.75925">
        <ele>1408</ele>
        <time>2026-05-13T12:51:05Z</time>
      </trkpt>
      <trkpt lat="45.90918" lon="5.75926">
        <ele>1408.4</ele>
        <time>2026-05-13T12:51:06Z</time>
      </trkpt>
      <trkpt lat="45.90919" lon="5.75927">
        <ele>1408.4</ele>
        <time>2026-05-13T12:51:07Z</time>
      </trkpt>
      <trkpt lat="45.9092" lon="5.75928">
        <ele>1408.6</ele>
        <time>2026-05-13T12:51:08Z</time>
      </trkpt>
      <trkpt lat="45.90921" lon="5.75929">
        <ele>1408.6</ele>
        <time>2026-05-13T12:51:09Z</time>
      </trkpt>
      <trkpt lat="45.90922" lon="5.7593">
        <ele>1409</ele>
        <time>2026-05-13T12:51:10Z</time>
      </trkpt>
      <trkpt lat="45.90923" lon="5.75931">
        <ele>1409</ele>
        <time>2026-05-13T12:51:11Z</time>
      </trkpt>
      <trkpt lat="45.90923" lon="5.75932">
        <ele>1409.2</ele>
        <time>2026-05-13T12:51:12Z</time>
      </trkpt>
      <trkpt lat="45.90924" lon="5.75934">
        <ele>1409.4</ele>
        <time>2026-05-13T12:51:13Z</time>
      </trkpt>
      <trkpt lat="45.90925" lon="5.75935">
        <ele>1409.4</ele>
        <time>2026-05-13T12:51:14Z</time>
      </trkpt>
      <trkpt lat="45.90926" lon="5.75936">
        <ele>1409.4</ele>
        <time>2026-05-13T12:51:15Z</time>
      </trkpt>
      <trkpt lat="45.90926" lon="5.75937">
        <ele>1409.6</ele>
        <time>2026-05-13T12:51:16Z</time>
      </trkpt>
      <trkpt lat="45.90927" lon="5.75938">
        <ele>1409.6</ele>
        <time>2026-05-13T12:51:17Z</time>
      </trkpt>
      <trkpt lat="45.90927" lon="5.7594">
        <ele>1410</ele>
        <time>2026-05-13T12:51:18Z</time>
      </trkpt>
      <trkpt lat="45.90928" lon="5.75941">
        <ele>1410</ele>
        <time>2026-05-13T12:51:19Z</time>
      </trkpt>
      <trkpt lat="45.90929" lon="5.75942">
        <ele>1410.2</ele>
        <time>2026-05-13T12:51:20Z</time>
      </trkpt>
      <trkpt lat="45.90929" lon="5.75944">
        <ele>1410.2</ele>
        <time>2026-05-13T12:51:21Z</time>
      </trkpt>
      <trkpt lat="45.9093" lon="5.75945">
        <ele>1410.4</ele>
        <time>2026-05-13T12:51:22Z</time>
      </trkpt>
      <trkpt lat="45.90931" lon="5.75946">
        <ele>1410.4</ele>
        <time>2026-05-13T12:51:23Z</time>
      </trkpt>
      <trkpt lat="45.90931" lon="5.75947">
        <ele>1410.4</ele>
        <time>2026-05-13T12:51:24Z</time>
      </trkpt>
      <trkpt lat="45.90932" lon="5.75948">
        <ele>1411</ele>
        <time>2026-05-13T12:51:25Z</time>
      </trkpt>
      <trkpt lat="45.90933" lon="5.7595">
        <ele>1411.2</ele>
        <time>2026-05-13T12:51:26Z</time>
      </trkpt>
      <trkpt lat="45.90933" lon="5.75951">
        <ele>1411.2</ele>
        <time>2026-05-13T12:51:27Z</time>
      </trkpt>
      <trkpt lat="45.90934" lon="5.75952">
        <ele>1411.2</ele>
        <time>2026-05-13T12:51:28Z</time>
      </trkpt>
      <trkpt lat="45.90935" lon="5.75953">
        <ele>1411.4</ele>
        <time>2026-05-13T12:51:29Z</time>
      </trkpt>
      <trkpt lat="45.90936" lon="5.75956">
        <ele>1411.8</ele>
        <time>2026-05-13T12:51:30Z</time>
      </trkpt>
      <trkpt lat="45.90937" lon="5.75957">
        <ele>1411.8</ele>
        <time>2026-05-13T12:51:31Z</time>
      </trkpt>
      <trkpt lat="45.90938" lon="5.75958">
        <ele>1411.8</ele>
        <time>2026-05-13T12:51:32Z</time>
      </trkpt>
      <trkpt lat="45.90939" lon="5.75959">
        <ele>1412</ele>
        <time>2026-05-13T12:51:33Z</time>
      </trkpt>
      <trkpt lat="45.9094" lon="5.7596">
        <ele>1412</ele>
        <time>2026-05-13T12:51:34Z</time>
      </trkpt>
      <trkpt lat="45.90941" lon="5.75961">
        <ele>1412</ele>
        <time>2026-05-13T12:51:35Z</time>
      </trkpt>
      <trkpt lat="45.90942" lon="5.75962">
        <ele>1412</ele>
        <time>2026-05-13T12:51:36Z</time>
      </trkpt>
      <trkpt lat="45.90942" lon="5.75963">
        <ele>1412.4</ele>
        <time>2026-05-13T12:51:37Z</time>
      </trkpt>
      <trkpt lat="45.90944" lon="5.75965">
        <ele>1412.4</ele>
        <time>2026-05-13T12:51:38Z</time>
      </trkpt>
      <trkpt lat="45.90945" lon="5.75965">
        <ele>1412.4</ele>
        <time>2026-05-13T12:51:39Z</time>
      </trkpt>
      <trkpt lat="45.90946" lon="5.75966">
        <ele>1412.4</ele>
        <time>2026-05-13T12:51:40Z</time>
      </trkpt>
      <trkpt lat="45.90947" lon="5.75967">
        <ele>1412.6</ele>
        <time>2026-05-13T12:51:41Z</time>
      </trkpt>
      <trkpt lat="45.90948" lon="5.75968">
        <ele>1412.6</ele>
        <time>2026-05-13T12:51:42Z</time>
      </trkpt>
      <trkpt lat="45.90948" lon="5.7597">
        <ele>1413</ele>
        <time>2026-05-13T12:51:43Z</time>
      </trkpt>
      <trkpt lat="45.90949" lon="5.75971">
        <ele>1413</ele>
        <time>2026-05-13T12:51:44Z</time>
      </trkpt>
      <trkpt lat="45.9095" lon="5.75972">
        <ele>1413.4</ele>
        <time>2026-05-13T12:51:45Z</time>
      </trkpt>
      <trkpt lat="45.90951" lon="5.75972">
        <ele>1413.4</ele>
        <time>2026-05-13T12:51:46Z</time>
      </trkpt>
      <trkpt lat="45.90953" lon="5.75972">
        <ele>1413.6</ele>
        <time>2026-05-13T12:51:47Z</time>
      </trkpt>
      <trkpt lat="45.90954" lon="5.75972">
        <ele>1413.6</ele>
        <time>2026-05-13T12:51:48Z</time>
      </trkpt>
      <trkpt lat="45.90955" lon="5.75973">
        <ele>1413.8</ele>
        <time>2026-05-13T12:51:49Z</time>
      </trkpt>
      <trkpt lat="45.90956" lon="5.75974">
        <ele>1413.8</ele>
        <time>2026-05-13T12:51:50Z</time>
      </trkpt>
      <trkpt lat="45.90957" lon="5.75975">
        <ele>1414.2</ele>
        <time>2026-05-13T12:51:51Z</time>
      </trkpt>
      <trkpt lat="45.90958" lon="5.75976">
        <ele>1414.2</ele>
        <time>2026-05-13T12:51:52Z</time>
      </trkpt>
      <trkpt lat="45.90959" lon="5.75977">
        <ele>1414.2</ele>
        <time>2026-05-13T12:51:53Z</time>
      </trkpt>
      <trkpt lat="45.90961" lon="5.75977">
        <ele>1414.4</ele>
        <time>2026-05-13T12:51:54Z</time>
      </trkpt>
      <trkpt lat="45.90962" lon="5.75978">
        <ele>1414.4</ele>
        <time>2026-05-13T12:51:55Z</time>
      </trkpt>
      <trkpt lat="45.90963" lon="5.75978">
        <ele>1414.4</ele>
        <time>2026-05-13T12:51:56Z</time>
      </trkpt>
      <trkpt lat="45.90964" lon="5.75979">
        <ele>1414.6</ele>
        <time>2026-05-13T12:51:57Z</time>
      </trkpt>
      <trkpt lat="45.90965" lon="5.7598">
        <ele>1414.6</ele>
        <time>2026-05-13T12:51:58Z</time>
      </trkpt>
      <trkpt lat="45.90966" lon="5.7598">
        <ele>1414.6</ele>
        <time>2026-05-13T12:51:59Z</time>
      </trkpt>
      <trkpt lat="45.90967" lon="5.75981">
        <ele>1414.8</ele>
        <time>2026-05-13T12:52:00Z</time>
      </trkpt>
      <trkpt lat="45.90968" lon="5.75982">
        <ele>1414.8</ele>
        <time>2026-05-13T12:52:01Z</time>
      </trkpt>
      <trkpt lat="45.90969" lon="5.75982">
        <ele>1414.8</ele>
        <time>2026-05-13T12:52:02Z</time>
      </trkpt>
      <trkpt lat="45.9097" lon="5.75983">
        <ele>1415</ele>
        <time>2026-05-13T12:52:03Z</time>
      </trkpt>
      <trkpt lat="45.90971" lon="5.75983">
        <ele>1415</ele>
        <time>2026-05-13T12:52:04Z</time>
      </trkpt>
      <trkpt lat="45.90972" lon="5.75984">
        <ele>1415</ele>
        <time>2026-05-13T12:52:05Z</time>
      </trkpt>
      <trkpt lat="45.90974" lon="5.75984">
        <ele>1415.4</ele>
        <time>2026-05-13T12:52:06Z</time>
      </trkpt>
      <trkpt lat="45.90975" lon="5.75985">
        <ele>1415.4</ele>
        <time>2026-05-13T12:52:07Z</time>
      </trkpt>
      <trkpt lat="45.90977" lon="5.75985">
        <ele>1415.4</ele>
        <time>2026-05-13T12:52:08Z</time>
      </trkpt>
      <trkpt lat="45.90978" lon="5.75987">
        <ele>1415.8</ele>
        <time>2026-05-13T12:52:09Z</time>
      </trkpt>
      <trkpt lat="45.90979" lon="5.75988">
        <ele>1415.8</ele>
        <time>2026-05-13T12:52:10Z</time>
      </trkpt>
      <trkpt lat="45.9098" lon="5.75989">
        <ele>1415.8</ele>
        <time>2026-05-13T12:52:11Z</time>
      </trkpt>
      <trkpt lat="45.90981" lon="5.75991">
        <ele>1416</ele>
        <time>2026-05-13T12:52:12Z</time>
      </trkpt>
      <trkpt lat="45.90982" lon="5.75992">
        <ele>1416</ele>
        <time>2026-05-13T12:52:13Z</time>
      </trkpt>
      <trkpt lat="45.90983" lon="5.75994">
        <ele>1416</ele>
        <time>2026-05-13T12:52:14Z</time>
      </trkpt>
      <trkpt lat="45.90984" lon="5.75995">
        <ele>1416.2</ele>
        <time>2026-05-13T12:52:15Z</time>
      </trkpt>
      <trkpt lat="45.90985" lon="5.75997">
        <ele>1416.6</ele>
        <time>2026-05-13T12:52:16Z</time>
      </trkpt>
      <trkpt lat="45.90985" lon="5.75999">
        <ele>1416.8</ele>
        <time>2026-05-13T12:52:17Z</time>
      </trkpt>
      <trkpt lat="45.90986" lon="5.76001">
        <ele>1416.8</ele>
        <time>2026-05-13T12:52:18Z</time>
      </trkpt>
      <trkpt lat="45.90986" lon="5.76003">
        <ele>1417</ele>
        <time>2026-05-13T12:52:19Z</time>
      </trkpt>
      <trkpt lat="45.90987" lon="5.76005">
        <ele>1417</ele>
        <time>2026-05-13T12:52:20Z</time>
      </trkpt>
      <trkpt lat="45.90987" lon="5.76007">
        <ele>1417.2</ele>
        <time>2026-05-13T12:52:21Z</time>
      </trkpt>
      <trkpt lat="45.90986" lon="5.76009">
        <ele>1417.2</ele>
        <time>2026-05-13T12:52:22Z</time>
      </trkpt>
      <trkpt lat="45.90986" lon="5.76011">
        <ele>1417.6</ele>
        <time>2026-05-13T12:52:23Z</time>
      </trkpt>
      <trkpt lat="45.90985" lon="5.76013">
        <ele>1417.6</ele>
        <time>2026-05-13T12:52:24Z</time>
      </trkpt>
      <trkpt lat="45.90985" lon="5.76014">
        <ele>1418</ele>
        <time>2026-05-13T12:52:25Z</time>
      </trkpt>
      <trkpt lat="45.90985" lon="5.76015">
        <ele>1418</ele>
        <time>2026-05-13T12:52:26Z</time>
      </trkpt>
      <trkpt lat="45.90984" lon="5.76017">
        <ele>1418</ele>
        <time>2026-05-13T12:52:27Z</time>
      </trkpt>
      <trkpt lat="45.90983" lon="5.76018">
        <ele>1418.4</ele>
        <time>2026-05-13T12:52:28Z</time>
      </trkpt>
      <trkpt lat="45.90982" lon="5.76019">
        <ele>1418.8</ele>
        <time>2026-05-13T12:52:29Z</time>
      </trkpt>
      <trkpt lat="45.90981" lon="5.7602">
        <ele>1418.8</ele>
        <time>2026-05-13T12:52:30Z</time>
      </trkpt>
      <trkpt lat="45.9098" lon="5.7602">
        <ele>1418.8</ele>
        <time>2026-05-13T12:52:31Z</time>
      </trkpt>
      <trkpt lat="45.90979" lon="5.76021">
        <ele>1418.8</ele>
        <time>2026-05-13T12:52:32Z</time>
      </trkpt>
      <trkpt lat="45.90977" lon="5.76021">
        <ele>1419</ele>
        <time>2026-05-13T12:52:33Z</time>
      </trkpt>
      <trkpt lat="45.90976" lon="5.76022">
        <ele>1419</ele>
        <time>2026-05-13T12:52:34Z</time>
      </trkpt>
      <trkpt lat="45.90975" lon="5.76022">
        <ele>1419</ele>
        <time>2026-05-13T12:52:35Z</time>
      </trkpt>
      <trkpt lat="45.90974" lon="5.76022">
        <ele>1419.2</ele>
        <time>2026-05-13T12:52:36Z</time>
      </trkpt>
      <trkpt lat="45.90973" lon="5.76021">
        <ele>1419.2</ele>
        <time>2026-05-13T12:52:37Z</time>
      </trkpt>
      <trkpt lat="45.90971" lon="5.7602">
        <ele>1419.6</ele>
        <time>2026-05-13T12:52:38Z</time>
      </trkpt>
      <trkpt lat="45.9097" lon="5.7602">
        <ele>1419.6</ele>
        <time>2026-05-13T12:52:39Z</time>
      </trkpt>
      <trkpt lat="45.90969" lon="5.7602">
        <ele>1419.6</ele>
        <time>2026-05-13T12:52:40Z</time>
      </trkpt>
      <trkpt lat="45.90967" lon="5.7602">
        <ele>1420</ele>
        <time>2026-05-13T12:52:41Z</time>
      </trkpt>
      <trkpt lat="45.90966" lon="5.76019">
        <ele>1420</ele>
        <time>2026-05-13T12:52:42Z</time>
      </trkpt>
      <trkpt lat="45.90965" lon="5.76019">
        <ele>1420.4</ele>
        <time>2026-05-13T12:52:43Z</time>
      </trkpt>
      <trkpt lat="45.90964" lon="5.76018">
        <ele>1420.4</ele>
        <time>2026-05-13T12:52:44Z</time>
      </trkpt>
      <trkpt lat="45.90963" lon="5.76018">
        <ele>1420.6</ele>
        <time>2026-05-13T12:52:45Z</time>
      </trkpt>
      <trkpt lat="45.90962" lon="5.76018">
        <ele>1421</ele>
        <time>2026-05-13T12:52:46Z</time>
      </trkpt>
      <trkpt lat="45.90961" lon="5.76017">
        <ele>1421.2</ele>
        <time>2026-05-13T12:52:47Z</time>
      </trkpt>
      <trkpt lat="45.9096" lon="5.76017">
        <ele>1421.2</ele>
        <time>2026-05-13T12:52:48Z</time>
      </trkpt>
      <trkpt lat="45.90959" lon="5.76016">
        <ele>1421.6</ele>
        <time>2026-05-13T12:52:49Z</time>
      </trkpt>
      <trkpt lat="45.90958" lon="5.76015">
        <ele>1421.6</ele>
        <time>2026-05-13T12:52:50Z</time>
      </trkpt>
      <trkpt lat="45.90957" lon="5.76015">
        <ele>1421.8</ele>
        <time>2026-05-13T12:52:51Z</time>
      </trkpt>
      <trkpt lat="45.90956" lon="5.76014">
        <ele>1421.8</ele>
        <time>2026-05-13T12:52:52Z</time>
      </trkpt>
      <trkpt lat="45.90955" lon="5.76014">
        <ele>1421.8</ele>
        <time>2026-05-13T12:52:53Z</time>
      </trkpt>
      <trkpt lat="45.90954" lon="5.76014">
        <ele>1421.8</ele>
        <time>2026-05-13T12:52:54Z</time>
      </trkpt>
      <trkpt lat="45.90953" lon="5.76013">
        <ele>1422.2</ele>
        <time>2026-05-13T12:52:55Z</time>
      </trkpt>
      <trkpt lat="45.90952" lon="5.76013">
        <ele>1422.2</ele>
        <time>2026-05-13T12:52:56Z</time>
      </trkpt>
      <trkpt lat="45.90951" lon="5.76013">
        <ele>1422.4</ele>
        <time>2026-05-13T12:52:57Z</time>
      </trkpt>
      <trkpt lat="45.9095" lon="5.76013">
        <ele>1422.6</ele>
        <time>2026-05-13T12:52:58Z</time>
      </trkpt>
      <trkpt lat="45.90949" lon="5.76013">
        <ele>1422.6</ele>
        <time>2026-05-13T12:52:59Z</time>
      </trkpt>
      <trkpt lat="45.90948" lon="5.76012">
        <ele>1423</ele>
        <time>2026-05-13T12:53:00Z</time>
      </trkpt>
      <trkpt lat="45.90947" lon="5.76012">
        <ele>1423.2</ele>
        <time>2026-05-13T12:53:01Z</time>
      </trkpt>
      <trkpt lat="45.90946" lon="5.76011">
        <ele>1423.2</ele>
        <time>2026-05-13T12:53:02Z</time>
      </trkpt>
      <trkpt lat="45.90945" lon="5.76012">
        <ele>1423.4</ele>
        <time>2026-05-13T12:53:03Z</time>
      </trkpt>
      <trkpt lat="45.90943" lon="5.76012">
        <ele>1423.6</ele>
        <time>2026-05-13T12:53:04Z</time>
      </trkpt>
      <trkpt lat="45.90942" lon="5.76012">
        <ele>1423.8</ele>
        <time>2026-05-13T12:53:05Z</time>
      </trkpt>
      <trkpt lat="45.90941" lon="5.76012">
        <ele>1423.8</ele>
        <time>2026-05-13T12:53:06Z</time>
      </trkpt>
      <trkpt lat="45.9094" lon="5.76012">
        <ele>1424.2</ele>
        <time>2026-05-13T12:53:07Z</time>
      </trkpt>
      <trkpt lat="45.90939" lon="5.76011">
        <ele>1424.2</ele>
        <time>2026-05-13T12:53:08Z</time>
      </trkpt>
      <trkpt lat="45.90938" lon="5.7601">
        <ele>1424.2</ele>
        <time>2026-05-13T12:53:09Z</time>
      </trkpt>
      <trkpt lat="45.90937" lon="5.7601">
        <ele>1424.4</ele>
        <time>2026-05-13T12:53:10Z</time>
      </trkpt>
      <trkpt lat="45.90936" lon="5.76009">
        <ele>1424.4</ele>
        <time>2026-05-13T12:53:11Z</time>
      </trkpt>
      <trkpt lat="45.90935" lon="5.76009">
        <ele>1424.4</ele>
        <time>2026-05-13T12:53:12Z</time>
      </trkpt>
      <trkpt lat="45.90934" lon="5.76009">
        <ele>1424.8</ele>
        <time>2026-05-13T12:53:13Z</time>
      </trkpt>
      <trkpt lat="45.90933" lon="5.76008">
        <ele>1425</ele>
        <time>2026-05-13T12:53:14Z</time>
      </trkpt>
      <trkpt lat="45.90932" lon="5.76007">
        <ele>1425.2</ele>
        <time>2026-05-13T12:53:15Z</time>
      </trkpt>
      <trkpt lat="45.90931" lon="5.76007">
        <ele>1425.4</ele>
        <time>2026-05-13T12:53:16Z</time>
      </trkpt>
      <trkpt lat="45.90929" lon="5.76006">
        <ele>1425.4</ele>
        <time>2026-05-13T12:53:17Z</time>
      </trkpt>
      <trkpt lat="45.90928" lon="5.76005">
        <ele>1425.6</ele>
        <time>2026-05-13T12:53:18Z</time>
      </trkpt>
      <trkpt lat="45.90927" lon="5.76005">
        <ele>1425.6</ele>
        <time>2026-05-13T12:53:19Z</time>
      </trkpt>
      <trkpt lat="45.90926" lon="5.76005">
        <ele>1425.8</ele>
        <time>2026-05-13T12:53:20Z</time>
      </trkpt>
      <trkpt lat="45.90925" lon="5.76005">
        <ele>1425.8</ele>
        <time>2026-05-13T12:53:21Z</time>
      </trkpt>
      <trkpt lat="45.90924" lon="5.76004">
        <ele>1426.2</ele>
        <time>2026-05-13T12:53:22Z</time>
      </trkpt>
      <trkpt lat="45.90923" lon="5.76004">
        <ele>1426.2</ele>
        <time>2026-05-13T12:53:23Z</time>
      </trkpt>
      <trkpt lat="45.90923" lon="5.76004">
        <ele>1426.4</ele>
        <time>2026-05-13T12:53:24Z</time>
      </trkpt>
      <trkpt lat="45.90921" lon="5.76003">
        <ele>1426.4</ele>
        <time>2026-05-13T12:53:25Z</time>
      </trkpt>
      <trkpt lat="45.90921" lon="5.76003">
        <ele>1426.4</ele>
        <time>2026-05-13T12:53:26Z</time>
      </trkpt>
      <trkpt lat="45.9092" lon="5.76003">
        <ele>1426.4</ele>
        <time>2026-05-13T12:53:27Z</time>
      </trkpt>
      <trkpt lat="45.90919" lon="5.76002">
        <ele>1426.6</ele>
        <time>2026-05-13T12:53:28Z</time>
      </trkpt>
      <trkpt lat="45.90918" lon="5.76001">
        <ele>1426.6</ele>
        <time>2026-05-13T12:53:29Z</time>
      </trkpt>
      <trkpt lat="45.90917" lon="5.76001">
        <ele>1426.8</ele>
        <time>2026-05-13T12:53:30Z</time>
      </trkpt>
      <trkpt lat="45.90916" lon="5.76">
        <ele>1426.8</ele>
        <time>2026-05-13T12:53:31Z</time>
      </trkpt>
      <trkpt lat="45.90915" lon="5.75999">
        <ele>1426.8</ele>
        <time>2026-05-13T12:53:32Z</time>
      </trkpt>
      <trkpt lat="45.90914" lon="5.75999">
        <ele>1427.2</ele>
        <time>2026-05-13T12:53:33Z</time>
      </trkpt>
      <trkpt lat="45.90913" lon="5.75999">
        <ele>1427.2</ele>
        <time>2026-05-13T12:53:34Z</time>
      </trkpt>
      <trkpt lat="45.90912" lon="5.75999">
        <ele>1427.4</ele>
        <time>2026-05-13T12:53:35Z</time>
      </trkpt>
      <trkpt lat="45.90911" lon="5.75999">
        <ele>1427.4</ele>
        <time>2026-05-13T12:53:36Z</time>
      </trkpt>
      <trkpt lat="45.9091" lon="5.75998">
        <ele>1427.4</ele>
        <time>2026-05-13T12:53:37Z</time>
      </trkpt>
      <trkpt lat="45.90909" lon="5.75998">
        <ele>1427.8</ele>
        <time>2026-05-13T12:53:38Z</time>
      </trkpt>
      <trkpt lat="45.90908" lon="5.75998">
        <ele>1427.8</ele>
        <time>2026-05-13T12:53:39Z</time>
      </trkpt>
      <trkpt lat="45.90907" lon="5.75997">
        <ele>1428</ele>
        <time>2026-05-13T12:53:40Z</time>
      </trkpt>
      <trkpt lat="45.90906" lon="5.75997">
        <ele>1428.2</ele>
        <time>2026-05-13T12:53:41Z</time>
      </trkpt>
      <trkpt lat="45.90905" lon="5.75996">
        <ele>1428.2</ele>
        <time>2026-05-13T12:53:42Z</time>
      </trkpt>
      <trkpt lat="45.90904" lon="5.75995">
        <ele>1428.4</ele>
        <time>2026-05-13T12:53:43Z</time>
      </trkpt>
      <trkpt lat="45.90903" lon="5.75995">
        <ele>1428.6</ele>
        <time>2026-05-13T12:53:44Z</time>
      </trkpt>
      <trkpt lat="45.90902" lon="5.75994">
        <ele>1428.6</ele>
        <time>2026-05-13T12:53:45Z</time>
      </trkpt>
      <trkpt lat="45.90901" lon="5.75995">
        <ele>1428.6</ele>
        <time>2026-05-13T12:53:46Z</time>
      </trkpt>
      <trkpt lat="45.909" lon="5.75995">
        <ele>1429</ele>
        <time>2026-05-13T12:53:47Z</time>
      </trkpt>
      <trkpt lat="45.90899" lon="5.75995">
        <ele>1429</ele>
        <time>2026-05-13T12:53:48Z</time>
      </trkpt>
      <trkpt lat="45.90898" lon="5.75994">
        <ele>1429</ele>
        <time>2026-05-13T12:53:49Z</time>
      </trkpt>
      <trkpt lat="45.90897" lon="5.75994">
        <ele>1429</ele>
        <time>2026-05-13T12:53:50Z</time>
      </trkpt>
      <trkpt lat="45.90896" lon="5.75993">
        <ele>1429.4</ele>
        <time>2026-05-13T12:53:51Z</time>
      </trkpt>
      <trkpt lat="45.90895" lon="5.75993">
        <ele>1429.4</ele>
        <time>2026-05-13T12:53:52Z</time>
      </trkpt>
      <trkpt lat="45.90894" lon="5.75992">
        <ele>1429.6</ele>
        <time>2026-05-13T12:53:53Z</time>
      </trkpt>
      <trkpt lat="45.90894" lon="5.75992">
        <ele>1429.8</ele>
        <time>2026-05-13T12:53:54Z</time>
      </trkpt>
      <trkpt lat="45.90893" lon="5.75992">
        <ele>1429.8</ele>
        <time>2026-05-13T12:53:55Z</time>
      </trkpt>
      <trkpt lat="45.90892" lon="5.75992">
        <ele>1430.2</ele>
        <time>2026-05-13T12:53:56Z</time>
      </trkpt>
      <trkpt lat="45.90891" lon="5.75992">
        <ele>1430.2</ele>
        <time>2026-05-13T12:53:57Z</time>
      </trkpt>
      <trkpt lat="45.9089" lon="5.75992">
        <ele>1430.4</ele>
        <time>2026-05-13T12:53:58Z</time>
      </trkpt>
      <trkpt lat="45.90889" lon="5.75992">
        <ele>1430.4</ele>
        <time>2026-05-13T12:53:59Z</time>
      </trkpt>
      <trkpt lat="45.90888" lon="5.75992">
        <ele>1430.4</ele>
        <time>2026-05-13T12:54:00Z</time>
      </trkpt>
      <trkpt lat="45.90887" lon="5.75992">
        <ele>1430.6</ele>
        <time>2026-05-13T12:54:01Z</time>
      </trkpt>
      <trkpt lat="45.90886" lon="5.75992">
        <ele>1430.6</ele>
        <time>2026-05-13T12:54:02Z</time>
      </trkpt>
      <trkpt lat="45.90885" lon="5.75991">
        <ele>1430.6</ele>
        <time>2026-05-13T12:54:03Z</time>
      </trkpt>
      <trkpt lat="45.90884" lon="5.75991">
        <ele>1431</ele>
        <time>2026-05-13T12:54:04Z</time>
      </trkpt>
      <trkpt lat="45.90884" lon="5.7599">
        <ele>1431.2</ele>
        <time>2026-05-13T12:54:05Z</time>
      </trkpt>
      <trkpt lat="45.90882" lon="5.7599">
        <ele>1431.2</ele>
        <time>2026-05-13T12:54:06Z</time>
      </trkpt>
      <trkpt lat="45.90881" lon="5.7599">
        <ele>1431.4</ele>
        <time>2026-05-13T12:54:07Z</time>
      </trkpt>
      <trkpt lat="45.9088" lon="5.7599">
        <ele>1431.4</ele>
        <time>2026-05-13T12:54:08Z</time>
      </trkpt>
      <trkpt lat="45.90879" lon="5.7599">
        <ele>1431.8</ele>
        <time>2026-05-13T12:54:09Z</time>
      </trkpt>
      <trkpt lat="45.90878" lon="5.7599">
        <ele>1431.8</ele>
        <time>2026-05-13T12:54:10Z</time>
      </trkpt>
      <trkpt lat="45.90877" lon="5.7599">
        <ele>1432.2</ele>
        <time>2026-05-13T12:54:11Z</time>
      </trkpt>
      <trkpt lat="45.90876" lon="5.75989">
        <ele>1432.2</ele>
        <time>2026-05-13T12:54:12Z</time>
      </trkpt>
      <trkpt lat="45.90875" lon="5.75988">
        <ele>1432.6</ele>
        <time>2026-05-13T12:54:13Z</time>
      </trkpt>
      <trkpt lat="45.90874" lon="5.75988">
        <ele>1432.6</ele>
        <time>2026-05-13T12:54:14Z</time>
      </trkpt>
      <trkpt lat="45.90873" lon="5.75988">
        <ele>1432.6</ele>
        <time>2026-05-13T12:54:15Z</time>
      </trkpt>
      <trkpt lat="45.90873" lon="5.75987">
        <ele>1432.8</ele>
        <time>2026-05-13T12:54:16Z</time>
      </trkpt>
      <trkpt lat="45.90872" lon="5.75986">
        <ele>1433</ele>
        <time>2026-05-13T12:54:17Z</time>
      </trkpt>
      <trkpt lat="45.90871" lon="5.75986">
        <ele>1433</ele>
        <time>2026-05-13T12:54:18Z</time>
      </trkpt>
      <trkpt lat="45.9087" lon="5.75986">
        <ele>1433.2</ele>
        <time>2026-05-13T12:54:19Z</time>
      </trkpt>
      <trkpt lat="45.90869" lon="5.75986">
        <ele>1433.2</ele>
        <time>2026-05-13T12:54:20Z</time>
      </trkpt>
      <trkpt lat="45.90868" lon="5.75986">
        <ele>1433.6</ele>
        <time>2026-05-13T12:54:21Z</time>
      </trkpt>
      <trkpt lat="45.90867" lon="5.75986">
        <ele>1433.6</ele>
        <time>2026-05-13T12:54:22Z</time>
      </trkpt>
      <trkpt lat="45.90866" lon="5.75986">
        <ele>1433.8</ele>
        <time>2026-05-13T12:54:23Z</time>
      </trkpt>
      <trkpt lat="45.90865" lon="5.75986">
        <ele>1433.8</ele>
        <time>2026-05-13T12:54:24Z</time>
      </trkpt>
      <trkpt lat="45.90865" lon="5.75986">
        <ele>1433.8</ele>
        <time>2026-05-13T12:54:25Z</time>
      </trkpt>
      <trkpt lat="45.90864" lon="5.75985">
        <ele>1434.2</ele>
        <time>2026-05-13T12:54:26Z</time>
      </trkpt>
      <trkpt lat="45.90863" lon="5.75985">
        <ele>1434.2</ele>
        <time>2026-05-13T12:54:27Z</time>
      </trkpt>
      <trkpt lat="45.90862" lon="5.75985">
        <ele>1434.2</ele>
        <time>2026-05-13T12:54:28Z</time>
      </trkpt>
      <trkpt lat="45.90861" lon="5.75984">
        <ele>1434.6</ele>
        <time>2026-05-13T12:54:29Z</time>
      </trkpt>
      <trkpt lat="45.9086" lon="5.75984">
        <ele>1434.6</ele>
        <time>2026-05-13T12:54:30Z</time>
      </trkpt>
      <trkpt lat="45.90859" lon="5.75984">
        <ele>1434.8</ele>
        <time>2026-05-13T12:54:31Z</time>
      </trkpt>
      <trkpt lat="45.90858" lon="5.75983">
        <ele>1434.8</ele>
        <time>2026-05-13T12:54:32Z</time>
      </trkpt>
      <trkpt lat="45.90856" lon="5.75983">
        <ele>1435</ele>
        <time>2026-05-13T12:54:33Z</time>
      </trkpt>
      <trkpt lat="45.90855" lon="5.75983">
        <ele>1435</ele>
        <time>2026-05-13T12:54:34Z</time>
      </trkpt>
      <trkpt lat="45.90854" lon="5.75983">
        <ele>1435</ele>
        <time>2026-05-13T12:54:35Z</time>
      </trkpt>
      <trkpt lat="45.90853" lon="5.75983">
        <ele>1435.6</ele>
        <time>2026-05-13T12:54:36Z</time>
      </trkpt>
      <trkpt lat="45.90852" lon="5.75983">
        <ele>1435.8</ele>
        <time>2026-05-13T12:54:37Z</time>
      </trkpt>
      <trkpt lat="45.9085" lon="5.75982">
        <ele>1435.8</ele>
        <time>2026-05-13T12:54:38Z</time>
      </trkpt>
      <trkpt lat="45.90849" lon="5.75982">
        <ele>1435.8</ele>
        <time>2026-05-13T12:54:39Z</time>
      </trkpt>
      <trkpt lat="45.90848" lon="5.75982">
        <ele>1436.2</ele>
        <time>2026-05-13T12:54:40Z</time>
      </trkpt>
      <trkpt lat="45.90847" lon="5.75982">
        <ele>1436.4</ele>
        <time>2026-05-13T12:54:41Z</time>
      </trkpt>
      <trkpt lat="45.90846" lon="5.75981">
        <ele>1436.4</ele>
        <time>2026-05-13T12:54:42Z</time>
      </trkpt>
      <trkpt lat="45.90845" lon="5.7598">
        <ele>1436.6</ele>
        <time>2026-05-13T12:54:43Z</time>
      </trkpt>
      <trkpt lat="45.90844" lon="5.7598">
        <ele>1436.6</ele>
        <time>2026-05-13T12:54:44Z</time>
      </trkpt>
      <trkpt lat="45.90843" lon="5.75979">
        <ele>1437</ele>
        <time>2026-05-13T12:54:45Z</time>
      </trkpt>
      <trkpt lat="45.90842" lon="5.75979">
        <ele>1437</ele>
        <time>2026-05-13T12:54:46Z</time>
      </trkpt>
      <trkpt lat="45.90841" lon="5.75979">
        <ele>1437</ele>
        <time>2026-05-13T12:54:47Z</time>
      </trkpt>
      <trkpt lat="45.9084" lon="5.75979">
        <ele>1437.2</ele>
        <time>2026-05-13T12:54:48Z</time>
      </trkpt>
      <trkpt lat="45.90838" lon="5.7598">
        <ele>1437.2</ele>
        <time>2026-05-13T12:54:49Z</time>
      </trkpt>
      <trkpt lat="45.90837" lon="5.7598">
        <ele>1437.4</ele>
        <time>2026-05-13T12:54:50Z</time>
      </trkpt>
      <trkpt lat="45.90836" lon="5.7598">
        <ele>1437.4</ele>
        <time>2026-05-13T12:54:51Z</time>
      </trkpt>
      <trkpt lat="45.90835" lon="5.7598">
        <ele>1438</ele>
        <time>2026-05-13T12:54:52Z</time>
      </trkpt>
      <trkpt lat="45.90834" lon="5.75979">
        <ele>1438</ele>
        <time>2026-05-13T12:54:53Z</time>
      </trkpt>
      <trkpt lat="45.90833" lon="5.75979">
        <ele>1438.2</ele>
        <time>2026-05-13T12:54:54Z</time>
      </trkpt>
      <trkpt lat="45.90832" lon="5.75978">
        <ele>1438.2</ele>
        <time>2026-05-13T12:54:55Z</time>
      </trkpt>
      <trkpt lat="45.90831" lon="5.75978">
        <ele>1438.4</ele>
        <time>2026-05-13T12:54:56Z</time>
      </trkpt>
      <trkpt lat="45.9083" lon="5.75977">
        <ele>1438.6</ele>
        <time>2026-05-13T12:54:57Z</time>
      </trkpt>
      <trkpt lat="45.90829" lon="5.75977">
        <ele>1438.6</ele>
        <time>2026-05-13T12:54:58Z</time>
      </trkpt>
      <trkpt lat="45.90827" lon="5.75976">
        <ele>1438.8</ele>
        <time>2026-05-13T12:54:59Z</time>
      </trkpt>
      <trkpt lat="45.90826" lon="5.75976">
        <ele>1439</ele>
        <time>2026-05-13T12:55:00Z</time>
      </trkpt>
      <trkpt lat="45.90824" lon="5.75976">
        <ele>1439</ele>
        <time>2026-05-13T12:55:01Z</time>
      </trkpt>
      <trkpt lat="45.90823" lon="5.75976">
        <ele>1439</ele>
        <time>2026-05-13T12:55:02Z</time>
      </trkpt>
      <trkpt lat="45.90822" lon="5.75976">
        <ele>1439.4</ele>
        <time>2026-05-13T12:55:03Z</time>
      </trkpt>
      <trkpt lat="45.90821" lon="5.75975">
        <ele>1439.4</ele>
        <time>2026-05-13T12:55:04Z</time>
      </trkpt>
      <trkpt lat="45.9082" lon="5.75975">
        <ele>1439.4</ele>
        <time>2026-05-13T12:55:05Z</time>
      </trkpt>
      <trkpt lat="45.90819" lon="5.75975">
        <ele>1439.6</ele>
        <time>2026-05-13T12:55:06Z</time>
      </trkpt>
      <trkpt lat="45.90818" lon="5.75976">
        <ele>1439.6</ele>
        <time>2026-05-13T12:55:07Z</time>
      </trkpt>
      <trkpt lat="45.90817" lon="5.75976">
        <ele>1439.8</ele>
        <time>2026-05-13T12:55:08Z</time>
      </trkpt>
      <trkpt lat="45.90816" lon="5.75976">
        <ele>1440</ele>
        <time>2026-05-13T12:55:09Z</time>
      </trkpt>
      <trkpt lat="45.90815" lon="5.75976">
        <ele>1440</ele>
        <time>2026-05-13T12:55:10Z</time>
      </trkpt>
      <trkpt lat="45.90813" lon="5.75976">
        <ele>1440.4</ele>
        <time>2026-05-13T12:55:11Z</time>
      </trkpt>
      <trkpt lat="45.90812" lon="5.75976">
        <ele>1440.4</ele>
        <time>2026-05-13T12:55:12Z</time>
      </trkpt>
      <trkpt lat="45.90811" lon="5.75975">
        <ele>1440.8</ele>
        <time>2026-05-13T12:55:13Z</time>
      </trkpt>
      <trkpt lat="45.90811" lon="5.75975">
        <ele>1441</ele>
        <time>2026-05-13T12:55:14Z</time>
      </trkpt>
      <trkpt lat="45.90811" lon="5.75975">
        <ele>1441.4</ele>
        <time>2026-05-13T12:55:15Z</time>
      </trkpt>
      <trkpt lat="45.90807" lon="5.75975">
        <ele>1441.6</ele>
        <time>2026-05-13T12:55:18Z</time>
      </trkpt>
      <trkpt lat="45.90805" lon="5.75973">
        <ele>1441.6</ele>
        <time>2026-05-13T12:55:19Z</time>
      </trkpt>
      <trkpt lat="45.90804" lon="5.75973">
        <ele>1441.6</ele>
        <time>2026-05-13T12:55:20Z</time>
      </trkpt>
      <trkpt lat="45.90803" lon="5.75973">
        <ele>1441.8</ele>
        <time>2026-05-13T12:55:21Z</time>
      </trkpt>
      <trkpt lat="45.90802" lon="5.75973">
        <ele>1442.2</ele>
        <time>2026-05-13T12:55:22Z</time>
      </trkpt>
      <trkpt lat="45.90801" lon="5.75973">
        <ele>1442.2</ele>
        <time>2026-05-13T12:55:23Z</time>
      </trkpt>
      <trkpt lat="45.908" lon="5.75973">
        <ele>1442.2</ele>
        <time>2026-05-13T12:55:24Z</time>
      </trkpt>
      <trkpt lat="45.90799" lon="5.75973">
        <ele>1442.4</ele>
        <time>2026-05-13T12:55:25Z</time>
      </trkpt>
      <trkpt lat="45.90798" lon="5.75973">
        <ele>1443.2</ele>
        <time>2026-05-13T12:55:26Z</time>
      </trkpt>
      <trkpt lat="45.90796" lon="5.75972">
        <ele>1443.2</ele>
        <time>2026-05-13T12:55:27Z</time>
      </trkpt>
      <trkpt lat="45.90795" lon="5.75972">
        <ele>1443.2</ele>
        <time>2026-05-13T12:55:28Z</time>
      </trkpt>
      <trkpt lat="45.90795" lon="5.75972">
        <ele>1443.2</ele>
        <time>2026-05-13T12:55:29Z</time>
      </trkpt>
      <trkpt lat="45.90794" lon="5.75972">
        <ele>1443.4</ele>
        <time>2026-05-13T12:55:30Z</time>
      </trkpt>
      <trkpt lat="45.90792" lon="5.75972">
        <ele>1443.4</ele>
        <time>2026-05-13T12:55:31Z</time>
      </trkpt>
      <trkpt lat="45.90791" lon="5.75972">
        <ele>1443.8</ele>
        <time>2026-05-13T12:55:32Z</time>
      </trkpt>
      <trkpt lat="45.9079" lon="5.75972">
        <ele>1443.8</ele>
        <time>2026-05-13T12:55:33Z</time>
      </trkpt>
      <trkpt lat="45.90789" lon="5.75973">
        <ele>1444</ele>
        <time>2026-05-13T12:55:34Z</time>
      </trkpt>
      <trkpt lat="45.90788" lon="5.75973">
        <ele>1444</ele>
        <time>2026-05-13T12:55:35Z</time>
      </trkpt>
      <trkpt lat="45.90787" lon="5.75973">
        <ele>1444</ele>
        <time>2026-05-13T12:55:36Z</time>
      </trkpt>
      <trkpt lat="45.90786" lon="5.75973">
        <ele>1444</ele>
        <time>2026-05-13T12:55:37Z</time>
      </trkpt>
      <trkpt lat="45.90785" lon="5.75972">
        <ele>1444.2</ele>
        <time>2026-05-13T12:55:38Z</time>
      </trkpt>
      <trkpt lat="45.90784" lon="5.75972">
        <ele>1444.4</ele>
        <time>2026-05-13T12:55:39Z</time>
      </trkpt>
      <trkpt lat="45.90783" lon="5.75971">
        <ele>1444.4</ele>
        <time>2026-05-13T12:55:40Z</time>
      </trkpt>
      <trkpt lat="45.90782" lon="5.75971">
        <ele>1444.6</ele>
        <time>2026-05-13T12:55:41Z</time>
      </trkpt>
      <trkpt lat="45.90781" lon="5.75971">
        <ele>1444.6</ele>
        <time>2026-05-13T12:55:42Z</time>
      </trkpt>
      <trkpt lat="45.9078" lon="5.75972">
        <ele>1444.6</ele>
        <time>2026-05-13T12:55:43Z</time>
      </trkpt>
      <trkpt lat="45.90779" lon="5.75971">
        <ele>1444.6</ele>
        <time>2026-05-13T12:55:44Z</time>
      </trkpt>
      <trkpt lat="45.90778" lon="5.75971">
        <ele>1444.6</ele>
        <time>2026-05-13T12:55:45Z</time>
      </trkpt>
      <trkpt lat="45.90777" lon="5.7597">
        <ele>1445</ele>
        <time>2026-05-13T12:55:46Z</time>
      </trkpt>
      <trkpt lat="45.90776" lon="5.75971">
        <ele>1445</ele>
        <time>2026-05-13T12:55:47Z</time>
      </trkpt>
      <trkpt lat="45.90775" lon="5.75971">
        <ele>1445</ele>
        <time>2026-05-13T12:55:48Z</time>
      </trkpt>
      <trkpt lat="45.90775" lon="5.75971">
        <ele>1445.4</ele>
        <time>2026-05-13T12:55:49Z</time>
      </trkpt>
      <trkpt lat="45.90775" lon="5.75971">
        <ele>1445.6</ele>
        <time>2026-05-13T12:55:50Z</time>
      </trkpt>
      <trkpt lat="45.90771" lon="5.7597">
        <ele>1446</ele>
        <time>2026-05-13T12:55:51Z</time>
      </trkpt>
      <trkpt lat="45.9077" lon="5.7597">
        <ele>1446</ele>
        <time>2026-05-13T12:55:52Z</time>
      </trkpt>
      <trkpt lat="45.90769" lon="5.7597">
        <ele>1446.2</ele>
        <time>2026-05-13T12:55:53Z</time>
      </trkpt>
      <trkpt lat="45.90768" lon="5.7597">
        <ele>1446.2</ele>
        <time>2026-05-13T12:55:54Z</time>
      </trkpt>
      <trkpt lat="45.90767" lon="5.7597">
        <ele>1446.4</ele>
        <time>2026-05-13T12:55:55Z</time>
      </trkpt>
      <trkpt lat="45.90766" lon="5.7597">
        <ele>1446.4</ele>
        <time>2026-05-13T12:55:56Z</time>
      </trkpt>
      <trkpt lat="45.90765" lon="5.7597">
        <ele>1446.8</ele>
        <time>2026-05-13T12:55:57Z</time>
      </trkpt>
      <trkpt lat="45.90764" lon="5.7597">
        <ele>1447.2</ele>
        <time>2026-05-13T12:55:58Z</time>
      </trkpt>
      <trkpt lat="45.90763" lon="5.7597">
        <ele>1447.2</ele>
        <time>2026-05-13T12:55:59Z</time>
      </trkpt>
      <trkpt lat="45.90762" lon="5.7597">
        <ele>1447.4</ele>
        <time>2026-05-13T12:56:00Z</time>
      </trkpt>
      <trkpt lat="45.90761" lon="5.7597">
        <ele>1447.4</ele>
        <time>2026-05-13T12:56:01Z</time>
      </trkpt>
      <trkpt lat="45.9076" lon="5.75969">
        <ele>1447.8</ele>
        <time>2026-05-13T12:56:02Z</time>
      </trkpt>
      <trkpt lat="45.90758" lon="5.75969">
        <ele>1447.8</ele>
        <time>2026-05-13T12:56:03Z</time>
      </trkpt>
      <trkpt lat="45.90757" lon="5.75969">
        <ele>1447.8</ele>
        <time>2026-05-13T12:56:04Z</time>
      </trkpt>
      <trkpt lat="45.90756" lon="5.75968">
        <ele>1447.8</ele>
        <time>2026-05-13T12:56:05Z</time>
      </trkpt>
      <trkpt lat="45.90755" lon="5.75968">
        <ele>1448.2</ele>
        <time>2026-05-13T12:56:06Z</time>
      </trkpt>
      <trkpt lat="45.90754" lon="5.75968">
        <ele>1448.2</ele>
        <time>2026-05-13T12:56:07Z</time>
      </trkpt>
      <trkpt lat="45.90754" lon="5.75968">
        <ele>1448.2</ele>
        <time>2026-05-13T12:56:08Z</time>
      </trkpt>
      <trkpt lat="45.90752" lon="5.75969">
        <ele>1448.2</ele>
        <time>2026-05-13T12:56:09Z</time>
      </trkpt>
      <trkpt lat="45.90751" lon="5.75969">
        <ele>1448.4</ele>
        <time>2026-05-13T12:56:10Z</time>
      </trkpt>
      <trkpt lat="45.90751" lon="5.75969">
        <ele>1448.4</ele>
        <time>2026-05-13T12:56:11Z</time>
      </trkpt>
      <trkpt lat="45.9075" lon="5.75969">
        <ele>1448.8</ele>
        <time>2026-05-13T12:56:12Z</time>
      </trkpt>
      <trkpt lat="45.90749" lon="5.75969">
        <ele>1448.8</ele>
        <time>2026-05-13T12:56:13Z</time>
      </trkpt>
      <trkpt lat="45.90748" lon="5.75969">
        <ele>1449</ele>
        <time>2026-05-13T12:56:14Z</time>
      </trkpt>
      <trkpt lat="45.90746" lon="5.75969">
        <ele>1449</ele>
        <time>2026-05-13T12:56:15Z</time>
      </trkpt>
      <trkpt lat="45.90745" lon="5.75969">
        <ele>1449.4</ele>
        <time>2026-05-13T12:56:16Z</time>
      </trkpt>
      <trkpt lat="45.90744" lon="5.75968">
        <ele>1449.8</ele>
        <time>2026-05-13T12:56:17Z</time>
      </trkpt>
      <trkpt lat="45.90744" lon="5.75968">
        <ele>1449.8</ele>
        <time>2026-05-13T12:56:18Z</time>
      </trkpt>
      <trkpt lat="45.90742" lon="5.75968">
        <ele>1450</ele>
        <time>2026-05-13T12:56:19Z</time>
      </trkpt>
      <trkpt lat="45.90741" lon="5.75969">
        <ele>1450.4</ele>
        <time>2026-05-13T12:56:20Z</time>
      </trkpt>
      <trkpt lat="45.9074" lon="5.75969">
        <ele>1450.6</ele>
        <time>2026-05-13T12:56:21Z</time>
      </trkpt>
      <trkpt lat="45.90739" lon="5.75969">
        <ele>1450.8</ele>
        <time>2026-05-13T12:56:22Z</time>
      </trkpt>
      <trkpt lat="45.90738" lon="5.75969">
        <ele>1450.8</ele>
        <time>2026-05-13T12:56:23Z</time>
      </trkpt>
      <trkpt lat="45.90737" lon="5.7597">
        <ele>1451.2</ele>
        <time>2026-05-13T12:56:24Z</time>
      </trkpt>
      <trkpt lat="45.90736" lon="5.75969">
        <ele>1451.2</ele>
        <time>2026-05-13T12:56:25Z</time>
      </trkpt>
      <trkpt lat="45.90734" lon="5.75969">
        <ele>1451.2</ele>
        <time>2026-05-13T12:56:26Z</time>
      </trkpt>
      <trkpt lat="45.90733" lon="5.75969">
        <ele>1451.2</ele>
        <time>2026-05-13T12:56:27Z</time>
      </trkpt>
      <trkpt lat="45.90732" lon="5.75969">
        <ele>1451.2</ele>
        <time>2026-05-13T12:56:28Z</time>
      </trkpt>
      <trkpt lat="45.90731" lon="5.75969">
        <ele>1451.4</ele>
        <time>2026-05-13T12:56:29Z</time>
      </trkpt>
      <trkpt lat="45.9073" lon="5.75969">
        <ele>1451.4</ele>
        <time>2026-05-13T12:56:30Z</time>
      </trkpt>
      <trkpt lat="45.90729" lon="5.75969">
        <ele>1451.6</ele>
        <time>2026-05-13T12:56:31Z</time>
      </trkpt>
      <trkpt lat="45.90728" lon="5.75969">
        <ele>1451.6</ele>
        <time>2026-05-13T12:56:32Z</time>
      </trkpt>
      <trkpt lat="45.90727" lon="5.75969">
        <ele>1451.6</ele>
        <time>2026-05-13T12:56:33Z</time>
      </trkpt>
      <trkpt lat="45.90726" lon="5.75969">
        <ele>1451.8</ele>
        <time>2026-05-13T12:56:34Z</time>
      </trkpt>
      <trkpt lat="45.90725" lon="5.7597">
        <ele>1451.8</ele>
        <time>2026-05-13T12:56:35Z</time>
      </trkpt>
      <trkpt lat="45.90724" lon="5.7597">
        <ele>1451.8</ele>
        <time>2026-05-13T12:56:36Z</time>
      </trkpt>
      <trkpt lat="45.90723" lon="5.7597">
        <ele>1451.8</ele>
        <time>2026-05-13T12:56:37Z</time>
      </trkpt>
      <trkpt lat="45.90722" lon="5.7597">
        <ele>1451.8</ele>
        <time>2026-05-13T12:56:38Z</time>
      </trkpt>
      <trkpt lat="45.9072" lon="5.7597">
        <ele>1452.4</ele>
        <time>2026-05-13T12:56:39Z</time>
      </trkpt>
      <trkpt lat="45.90719" lon="5.7597">
        <ele>1452.8</ele>
        <time>2026-05-13T12:56:40Z</time>
      </trkpt>
      <trkpt lat="45.90718" lon="5.7597">
        <ele>1452.8</ele>
        <time>2026-05-13T12:56:41Z</time>
      </trkpt>
      <trkpt lat="45.90717" lon="5.7597">
        <ele>1453</ele>
        <time>2026-05-13T12:56:42Z</time>
      </trkpt>
      <trkpt lat="45.90715" lon="5.7597">
        <ele>1453.2</ele>
        <time>2026-05-13T12:56:43Z</time>
      </trkpt>
      <trkpt lat="45.90714" lon="5.7597">
        <ele>1453.2</ele>
        <time>2026-05-13T12:56:44Z</time>
      </trkpt>
      <trkpt lat="45.90713" lon="5.7597">
        <ele>1453.6</ele>
        <time>2026-05-13T12:56:45Z</time>
      </trkpt>
      <trkpt lat="45.90712" lon="5.7597">
        <ele>1453.6</ele>
        <time>2026-05-13T12:56:46Z</time>
      </trkpt>
      <trkpt lat="45.90711" lon="5.7597">
        <ele>1453.6</ele>
        <time>2026-05-13T12:56:47Z</time>
      </trkpt>
      <trkpt lat="45.9071" lon="5.7597">
        <ele>1453.8</ele>
        <time>2026-05-13T12:56:48Z</time>
      </trkpt>
      <trkpt lat="45.90709" lon="5.75971">
        <ele>1454</ele>
        <time>2026-05-13T12:56:49Z</time>
      </trkpt>
      <trkpt lat="45.90708" lon="5.75971">
        <ele>1454.4</ele>
        <time>2026-05-13T12:56:50Z</time>
      </trkpt>
      <trkpt lat="45.90707" lon="5.75971">
        <ele>1454.6</ele>
        <time>2026-05-13T12:56:51Z</time>
      </trkpt>
      <trkpt lat="45.90706" lon="5.75971">
        <ele>1454.6</ele>
        <time>2026-05-13T12:56:52Z</time>
      </trkpt>
      <trkpt lat="45.90705" lon="5.75971">
        <ele>1454.8</ele>
        <time>2026-05-13T12:56:53Z</time>
      </trkpt>
      <trkpt lat="45.90704" lon="5.75972">
        <ele>1454.8</ele>
        <time>2026-05-13T12:56:54Z</time>
      </trkpt>
      <trkpt lat="45.90703" lon="5.75972">
        <ele>1455.2</ele>
        <time>2026-05-13T12:56:55Z</time>
      </trkpt>
      <trkpt lat="45.90702" lon="5.75972">
        <ele>1455.4</ele>
        <time>2026-05-13T12:56:56Z</time>
      </trkpt>
      <trkpt lat="45.907" lon="5.75972">
        <ele>1455.4</ele>
        <time>2026-05-13T12:56:57Z</time>
      </trkpt>
      <trkpt lat="45.90699" lon="5.75972">
        <ele>1455.4</ele>
        <time>2026-05-13T12:56:58Z</time>
      </trkpt>
      <trkpt lat="45.90698" lon="5.75972">
        <ele>1455.8</ele>
        <time>2026-05-13T12:56:59Z</time>
      </trkpt>
      <trkpt lat="45.90696" lon="5.75973">
        <ele>1455.8</ele>
        <time>2026-05-13T12:57:00Z</time>
      </trkpt>
      <trkpt lat="45.90695" lon="5.75973">
        <ele>1455.8</ele>
        <time>2026-05-13T12:57:01Z</time>
      </trkpt>
      <trkpt lat="45.90695" lon="5.75974">
        <ele>1455.8</ele>
        <time>2026-05-13T12:57:02Z</time>
      </trkpt>
      <trkpt lat="45.90693" lon="5.75974">
        <ele>1456</ele>
        <time>2026-05-13T12:57:03Z</time>
      </trkpt>
      <trkpt lat="45.90692" lon="5.75974">
        <ele>1456</ele>
        <time>2026-05-13T12:57:04Z</time>
      </trkpt>
      <trkpt lat="45.90691" lon="5.75974">
        <ele>1456</ele>
        <time>2026-05-13T12:57:05Z</time>
      </trkpt>
      <trkpt lat="45.9069" lon="5.75974">
        <ele>1456.4</ele>
        <time>2026-05-13T12:57:06Z</time>
      </trkpt>
      <trkpt lat="45.90689" lon="5.75974">
        <ele>1456.6</ele>
        <time>2026-05-13T12:57:07Z</time>
      </trkpt>
      <trkpt lat="45.90688" lon="5.75974">
        <ele>1456.8</ele>
        <time>2026-05-13T12:57:08Z</time>
      </trkpt>
      <trkpt lat="45.90687" lon="5.75974">
        <ele>1456.8</ele>
        <time>2026-05-13T12:57:09Z</time>
      </trkpt>
      <trkpt lat="45.90686" lon="5.75974">
        <ele>1457</ele>
        <time>2026-05-13T12:57:10Z</time>
      </trkpt>
      <trkpt lat="45.90684" lon="5.75974">
        <ele>1457</ele>
        <time>2026-05-13T12:57:11Z</time>
      </trkpt>
      <trkpt lat="45.90683" lon="5.75974">
        <ele>1457</ele>
        <time>2026-05-13T12:57:12Z</time>
      </trkpt>
      <trkpt lat="45.90683" lon="5.75974">
        <ele>1457.4</ele>
        <time>2026-05-13T12:57:13Z</time>
      </trkpt>
      <trkpt lat="45.90682" lon="5.75975">
        <ele>1457.4</ele>
        <time>2026-05-13T12:57:14Z</time>
      </trkpt>
      <trkpt lat="45.90681" lon="5.75975">
        <ele>1457.4</ele>
        <time>2026-05-13T12:57:15Z</time>
      </trkpt>
      <trkpt lat="45.9068" lon="5.75975">
        <ele>1457.6</ele>
        <time>2026-05-13T12:57:16Z</time>
      </trkpt>
      <trkpt lat="45.90678" lon="5.75974">
        <ele>1457.6</ele>
        <time>2026-05-13T12:57:17Z</time>
      </trkpt>
      <trkpt lat="45.90677" lon="5.75974">
        <ele>1457.8</ele>
        <time>2026-05-13T12:57:18Z</time>
      </trkpt>
      <trkpt lat="45.90676" lon="5.75974">
        <ele>1457.8</ele>
        <time>2026-05-13T12:57:19Z</time>
      </trkpt>
      <trkpt lat="45.90675" lon="5.75975">
        <ele>1458.2</ele>
        <time>2026-05-13T12:57:20Z</time>
      </trkpt>
      <trkpt lat="45.90674" lon="5.75975">
        <ele>1458.2</ele>
        <time>2026-05-13T12:57:21Z</time>
      </trkpt>
      <trkpt lat="45.90673" lon="5.75975">
        <ele>1458.4</ele>
        <time>2026-05-13T12:57:22Z</time>
      </trkpt>
      <trkpt lat="45.90673" lon="5.75975">
        <ele>1458.4</ele>
        <time>2026-05-13T12:57:23Z</time>
      </trkpt>
      <trkpt lat="45.90672" lon="5.75975">
        <ele>1458.4</ele>
        <time>2026-05-13T12:57:24Z</time>
      </trkpt>
      <trkpt lat="45.90671" lon="5.75975">
        <ele>1458.4</ele>
        <time>2026-05-13T12:57:25Z</time>
      </trkpt>
      <trkpt lat="45.9067" lon="5.75975">
        <ele>1458.8</ele>
        <time>2026-05-13T12:57:26Z</time>
      </trkpt>
      <trkpt lat="45.90668" lon="5.75976">
        <ele>1458.8</ele>
        <time>2026-05-13T12:57:27Z</time>
      </trkpt>
      <trkpt lat="45.90668" lon="5.75977">
        <ele>1458.8</ele>
        <time>2026-05-13T12:57:28Z</time>
      </trkpt>
      <trkpt lat="45.90666" lon="5.75977">
        <ele>1458.8</ele>
        <time>2026-05-13T12:57:29Z</time>
      </trkpt>
      <trkpt lat="45.90665" lon="5.75977">
        <ele>1459</ele>
        <time>2026-05-13T12:57:30Z</time>
      </trkpt>
      <trkpt lat="45.90664" lon="5.75977">
        <ele>1459</ele>
        <time>2026-05-13T12:57:31Z</time>
      </trkpt>
      <trkpt lat="45.90663" lon="5.75978">
        <ele>1459</ele>
        <time>2026-05-13T12:57:32Z</time>
      </trkpt>
      <trkpt lat="45.90662" lon="5.75978">
        <ele>1459</ele>
        <time>2026-05-13T12:57:33Z</time>
      </trkpt>
      <trkpt lat="45.90661" lon="5.75979">
        <ele>1459.4</ele>
        <time>2026-05-13T12:57:34Z</time>
      </trkpt>
      <trkpt lat="45.9066" lon="5.75979">
        <ele>1459.4</ele>
        <time>2026-05-13T12:57:35Z</time>
      </trkpt>
      <trkpt lat="45.90659" lon="5.75979">
        <ele>1459.4</ele>
        <time>2026-05-13T12:57:36Z</time>
      </trkpt>
      <trkpt lat="45.90658" lon="5.75979">
        <ele>1459.6</ele>
        <time>2026-05-13T12:57:37Z</time>
      </trkpt>
      <trkpt lat="45.90657" lon="5.75979">
        <ele>1459.8</ele>
        <time>2026-05-13T12:57:38Z</time>
      </trkpt>
      <trkpt lat="45.90656" lon="5.75979">
        <ele>1459.8</ele>
        <time>2026-05-13T12:57:39Z</time>
      </trkpt>
      <trkpt lat="45.90655" lon="5.75979">
        <ele>1460</ele>
        <time>2026-05-13T12:57:40Z</time>
      </trkpt>
      <trkpt lat="45.90654" lon="5.75979">
        <ele>1460</ele>
        <time>2026-05-13T12:57:41Z</time>
      </trkpt>
      <trkpt lat="45.90652" lon="5.75979">
        <ele>1460.4</ele>
        <time>2026-05-13T12:57:42Z</time>
      </trkpt>
      <trkpt lat="45.90651" lon="5.75979">
        <ele>1460.6</ele>
        <time>2026-05-13T12:57:43Z</time>
      </trkpt>
      <trkpt lat="45.9065" lon="5.75979">
        <ele>1460.6</ele>
        <time>2026-05-13T12:57:44Z</time>
      </trkpt>
      <trkpt lat="45.90649" lon="5.75979">
        <ele>1461.2</ele>
        <time>2026-05-13T12:57:45Z</time>
      </trkpt>
      <trkpt lat="45.90648" lon="5.7598">
        <ele>1461.2</ele>
        <time>2026-05-13T12:57:46Z</time>
      </trkpt>
      <trkpt lat="45.90647" lon="5.7598">
        <ele>1461.6</ele>
        <time>2026-05-13T12:57:47Z</time>
      </trkpt>
      <trkpt lat="45.90646" lon="5.7598">
        <ele>1461.6</ele>
        <time>2026-05-13T12:57:48Z</time>
      </trkpt>
      <trkpt lat="45.90645" lon="5.7598">
        <ele>1461.8</ele>
        <time>2026-05-13T12:57:49Z</time>
      </trkpt>
      <trkpt lat="45.90644" lon="5.7598">
        <ele>1461.8</ele>
        <time>2026-05-13T12:57:50Z</time>
      </trkpt>
      <trkpt lat="45.90643" lon="5.75981">
        <ele>1462.2</ele>
        <time>2026-05-13T12:57:51Z</time>
      </trkpt>
      <trkpt lat="45.90641" lon="5.75981">
        <ele>1462.2</ele>
        <time>2026-05-13T12:57:52Z</time>
      </trkpt>
      <trkpt lat="45.9064" lon="5.75981">
        <ele>1462.2</ele>
        <time>2026-05-13T12:57:53Z</time>
      </trkpt>
      <trkpt lat="45.90639" lon="5.75981">
        <ele>1462.2</ele>
        <time>2026-05-13T12:57:54Z</time>
      </trkpt>
      <trkpt lat="45.90637" lon="5.75981">
        <ele>1462.4</ele>
        <time>2026-05-13T12:57:55Z</time>
      </trkpt>
      <trkpt lat="45.90636" lon="5.75982">
        <ele>1462.4</ele>
        <time>2026-05-13T12:57:56Z</time>
      </trkpt>
      <trkpt lat="45.90635" lon="5.75982">
        <ele>1462.4</ele>
        <time>2026-05-13T12:57:57Z</time>
      </trkpt>
      <trkpt lat="45.90634" lon="5.75982">
        <ele>1462.4</ele>
        <time>2026-05-13T12:57:58Z</time>
      </trkpt>
      <trkpt lat="45.90633" lon="5.75982">
        <ele>1462.8</ele>
        <time>2026-05-13T12:57:59Z</time>
      </trkpt>
      <trkpt lat="45.90632" lon="5.75982">
        <ele>1462.8</ele>
        <time>2026-05-13T12:58:00Z</time>
      </trkpt>
      <trkpt lat="45.90631" lon="5.75982">
        <ele>1462.8</ele>
        <time>2026-05-13T12:58:01Z</time>
      </trkpt>
      <trkpt lat="45.90629" lon="5.75982">
        <ele>1463.2</ele>
        <time>2026-05-13T12:58:02Z</time>
      </trkpt>
      <trkpt lat="45.90628" lon="5.75982">
        <ele>1463.2</ele>
        <time>2026-05-13T12:58:03Z</time>
      </trkpt>
      <trkpt lat="45.90627" lon="5.75982">
        <ele>1463.4</ele>
        <time>2026-05-13T12:58:04Z</time>
      </trkpt>
      <trkpt lat="45.90626" lon="5.75982">
        <ele>1463.4</ele>
        <time>2026-05-13T12:58:05Z</time>
      </trkpt>
      <trkpt lat="45.90625" lon="5.75983">
        <ele>1463.4</ele>
        <time>2026-05-13T12:58:06Z</time>
      </trkpt>
      <trkpt lat="45.90624" lon="5.75983">
        <ele>1463.4</ele>
        <time>2026-05-13T12:58:07Z</time>
      </trkpt>
      <trkpt lat="45.90622" lon="5.75983">
        <ele>1463.8</ele>
        <time>2026-05-13T12:58:08Z</time>
      </trkpt>
      <trkpt lat="45.90621" lon="5.75983">
        <ele>1463.8</ele>
        <time>2026-05-13T12:58:09Z</time>
      </trkpt>
      <trkpt lat="45.9062" lon="5.75983">
        <ele>1463.8</ele>
        <time>2026-05-13T12:58:10Z</time>
      </trkpt>
      <trkpt lat="45.90619" lon="5.75983">
        <ele>1464</ele>
        <time>2026-05-13T12:58:11Z</time>
      </trkpt>
      <trkpt lat="45.90618" lon="5.75984">
        <ele>1464.2</ele>
        <time>2026-05-13T12:58:12Z</time>
      </trkpt>
      <trkpt lat="45.90617" lon="5.75984">
        <ele>1464.4</ele>
        <time>2026-05-13T12:58:13Z</time>
      </trkpt>
      <trkpt lat="45.90616" lon="5.75985">
        <ele>1464.8</ele>
        <time>2026-05-13T12:58:14Z</time>
      </trkpt>
      <trkpt lat="45.90615" lon="5.75985">
        <ele>1464.8</ele>
        <time>2026-05-13T12:58:15Z</time>
      </trkpt>
      <trkpt lat="45.90614" lon="5.75986">
        <ele>1464.8</ele>
        <time>2026-05-13T12:58:16Z</time>
      </trkpt>
      <trkpt lat="45.90613" lon="5.75986">
        <ele>1465.2</ele>
        <time>2026-05-13T12:58:17Z</time>
      </trkpt>
      <trkpt lat="45.90612" lon="5.75986">
        <ele>1465.2</ele>
        <time>2026-05-13T12:58:18Z</time>
      </trkpt>
      <trkpt lat="45.90611" lon="5.75986">
        <ele>1465.6</ele>
        <time>2026-05-13T12:58:19Z</time>
      </trkpt>
      <trkpt lat="45.9061" lon="5.75985">
        <ele>1465.6</ele>
        <time>2026-05-13T12:58:20Z</time>
      </trkpt>
      <trkpt lat="45.90609" lon="5.75985">
        <ele>1465.6</ele>
        <time>2026-05-13T12:58:21Z</time>
      </trkpt>
      <trkpt lat="45.90608" lon="5.75986">
        <ele>1465.6</ele>
        <time>2026-05-13T12:58:22Z</time>
      </trkpt>
      <trkpt lat="45.90607" lon="5.75986">
        <ele>1465.8</ele>
        <time>2026-05-13T12:58:23Z</time>
      </trkpt>
      <trkpt lat="45.90606" lon="5.75986">
        <ele>1465.8</ele>
        <time>2026-05-13T12:58:24Z</time>
      </trkpt>
      <trkpt lat="45.90605" lon="5.75986">
        <ele>1465.8</ele>
        <time>2026-05-13T12:58:25Z</time>
      </trkpt>
      <trkpt lat="45.90604" lon="5.75986">
        <ele>1466.2</ele>
        <time>2026-05-13T12:58:26Z</time>
      </trkpt>
      <trkpt lat="45.90603" lon="5.75986">
        <ele>1466.2</ele>
        <time>2026-05-13T12:58:27Z</time>
      </trkpt>
      <trkpt lat="45.90602" lon="5.75985">
        <ele>1466.4</ele>
        <time>2026-05-13T12:58:28Z</time>
      </trkpt>
      <trkpt lat="45.90601" lon="5.75985">
        <ele>1466.4</ele>
        <time>2026-05-13T12:58:29Z</time>
      </trkpt>
      <trkpt lat="45.906" lon="5.75986">
        <ele>1466.6</ele>
        <time>2026-05-13T12:58:30Z</time>
      </trkpt>
      <trkpt lat="45.90599" lon="5.75987">
        <ele>1466.6</ele>
        <time>2026-05-13T12:58:31Z</time>
      </trkpt>
      <trkpt lat="45.90598" lon="5.75987">
        <ele>1466.6</ele>
        <time>2026-05-13T12:58:32Z</time>
      </trkpt>
      <trkpt lat="45.90597" lon="5.75988">
        <ele>1466.6</ele>
        <time>2026-05-13T12:58:33Z</time>
      </trkpt>
      <trkpt lat="45.90596" lon="5.75988">
        <ele>1466.8</ele>
        <time>2026-05-13T12:58:34Z</time>
      </trkpt>
      <trkpt lat="45.90595" lon="5.75988">
        <ele>1466.8</ele>
        <time>2026-05-13T12:58:35Z</time>
      </trkpt>
      <trkpt lat="45.90594" lon="5.75988">
        <ele>1467.2</ele>
        <time>2026-05-13T12:58:36Z</time>
      </trkpt>
      <trkpt lat="45.90593" lon="5.75988">
        <ele>1467.2</ele>
        <time>2026-05-13T12:58:37Z</time>
      </trkpt>
      <trkpt lat="45.90592" lon="5.75988">
        <ele>1467.6</ele>
        <time>2026-05-13T12:58:38Z</time>
      </trkpt>
      <trkpt lat="45.90591" lon="5.75988">
        <ele>1467.6</ele>
        <time>2026-05-13T12:58:39Z</time>
      </trkpt>
      <trkpt lat="45.9059" lon="5.75989">
        <ele>1467.6</ele>
        <time>2026-05-13T12:58:40Z</time>
      </trkpt>
      <trkpt lat="45.90589" lon="5.75989">
        <ele>1467.6</ele>
        <time>2026-05-13T12:58:41Z</time>
      </trkpt>
      <trkpt lat="45.90588" lon="5.75988">
        <ele>1468</ele>
        <time>2026-05-13T12:58:42Z</time>
      </trkpt>
      <trkpt lat="45.90587" lon="5.75988">
        <ele>1468</ele>
        <time>2026-05-13T12:58:43Z</time>
      </trkpt>
      <trkpt lat="45.90586" lon="5.75988">
        <ele>1468</ele>
        <time>2026-05-13T12:58:44Z</time>
      </trkpt>
      <trkpt lat="45.90585" lon="5.75988">
        <ele>1468.2</ele>
        <time>2026-05-13T12:58:45Z</time>
      </trkpt>
      <trkpt lat="45.90584" lon="5.75988">
        <ele>1468.2</ele>
        <time>2026-05-13T12:58:46Z</time>
      </trkpt>
      <trkpt lat="45.90583" lon="5.75988">
        <ele>1468.4</ele>
        <time>2026-05-13T12:58:47Z</time>
      </trkpt>
      <trkpt lat="45.90582" lon="5.75988">
        <ele>1468.4</ele>
        <time>2026-05-13T12:58:48Z</time>
      </trkpt>
      <trkpt lat="45.90581" lon="5.75989">
        <ele>1468.6</ele>
        <time>2026-05-13T12:58:49Z</time>
      </trkpt>
      <trkpt lat="45.9058" lon="5.75989">
        <ele>1468.6</ele>
        <time>2026-05-13T12:58:50Z</time>
      </trkpt>
      <trkpt lat="45.90579" lon="5.75989">
        <ele>1468.8</ele>
        <time>2026-05-13T12:58:51Z</time>
      </trkpt>
      <trkpt lat="45.90578" lon="5.75989">
        <ele>1468.8</ele>
        <time>2026-05-13T12:58:52Z</time>
      </trkpt>
      <trkpt lat="45.90576" lon="5.75989">
        <ele>1469</ele>
        <time>2026-05-13T12:58:53Z</time>
      </trkpt>
      <trkpt lat="45.90574" lon="5.75989">
        <ele>1469</ele>
        <time>2026-05-13T12:58:54Z</time>
      </trkpt>
      <trkpt lat="45.90573" lon="5.75989">
        <ele>1469.4</ele>
        <time>2026-05-13T12:58:55Z</time>
      </trkpt>
      <trkpt lat="45.90572" lon="5.7599">
        <ele>1469.6</ele>
        <time>2026-05-13T12:58:56Z</time>
      </trkpt>
      <trkpt lat="45.90571" lon="5.7599">
        <ele>1469.8</ele>
        <time>2026-05-13T12:58:57Z</time>
      </trkpt>
      <trkpt lat="45.9057" lon="5.75989">
        <ele>1470</ele>
        <time>2026-05-13T12:58:58Z</time>
      </trkpt>
      <trkpt lat="45.90569" lon="5.7599">
        <ele>1470</ele>
        <time>2026-05-13T12:58:59Z</time>
      </trkpt>
      <trkpt lat="45.90569" lon="5.7599">
        <ele>1470.4</ele>
        <time>2026-05-13T12:59:00Z</time>
      </trkpt>
      <trkpt lat="45.90568" lon="5.7599">
        <ele>1470.4</ele>
        <time>2026-05-13T12:59:01Z</time>
      </trkpt>
      <trkpt lat="45.90568" lon="5.75991">
        <ele>1470.8</ele>
        <time>2026-05-13T12:59:02Z</time>
      </trkpt>
      <trkpt lat="45.90566" lon="5.75991">
        <ele>1470.8</ele>
        <time>2026-05-13T12:59:03Z</time>
      </trkpt>
      <trkpt lat="45.90565" lon="5.75991">
        <ele>1471</ele>
        <time>2026-05-13T12:59:04Z</time>
      </trkpt>
      <trkpt lat="45.90564" lon="5.75991">
        <ele>1471</ele>
        <time>2026-05-13T12:59:05Z</time>
      </trkpt>
      <trkpt lat="45.90563" lon="5.75991">
        <ele>1471.4</ele>
        <time>2026-05-13T12:59:06Z</time>
      </trkpt>
      <trkpt lat="45.90562" lon="5.75992">
        <ele>1471.6</ele>
        <time>2026-05-13T12:59:07Z</time>
      </trkpt>
      <trkpt lat="45.90562" lon="5.75992">
        <ele>1471.6</ele>
        <time>2026-05-13T12:59:08Z</time>
      </trkpt>
      <trkpt lat="45.90561" lon="5.75992">
        <ele>1472</ele>
        <time>2026-05-13T12:59:09Z</time>
      </trkpt>
      <trkpt lat="45.9056" lon="5.75992">
        <ele>1472</ele>
        <time>2026-05-13T12:59:10Z</time>
      </trkpt>
      <trkpt lat="45.90559" lon="5.75992">
        <ele>1472.4</ele>
        <time>2026-05-13T12:59:11Z</time>
      </trkpt>
      <trkpt lat="45.90558" lon="5.75992">
        <ele>1472.4</ele>
        <time>2026-05-13T12:59:12Z</time>
      </trkpt>
      <trkpt lat="45.90556" lon="5.75991">
        <ele>1472.4</ele>
        <time>2026-05-13T12:59:13Z</time>
      </trkpt>
      <trkpt lat="45.90555" lon="5.75991">
        <ele>1472.8</ele>
        <time>2026-05-13T12:59:14Z</time>
      </trkpt>
      <trkpt lat="45.90555" lon="5.75992">
        <ele>1472.8</ele>
        <time>2026-05-13T12:59:15Z</time>
      </trkpt>
      <trkpt lat="45.90554" lon="5.75992">
        <ele>1472.8</ele>
        <time>2026-05-13T12:59:16Z</time>
      </trkpt>
      <trkpt lat="45.90553" lon="5.75993">
        <ele>1472.8</ele>
        <time>2026-05-13T12:59:17Z</time>
      </trkpt>
      <trkpt lat="45.90552" lon="5.75993">
        <ele>1473</ele>
        <time>2026-05-13T12:59:18Z</time>
      </trkpt>
      <trkpt lat="45.90551" lon="5.75994">
        <ele>1473</ele>
        <time>2026-05-13T12:59:19Z</time>
      </trkpt>
      <trkpt lat="45.9055" lon="5.75994">
        <ele>1473.2</ele>
        <time>2026-05-13T12:59:20Z</time>
      </trkpt>
      <trkpt lat="45.90549" lon="5.75995">
        <ele>1473.2</ele>
        <time>2026-05-13T12:59:21Z</time>
      </trkpt>
      <trkpt lat="45.90548" lon="5.75995">
        <ele>1473.6</ele>
        <time>2026-05-13T12:59:22Z</time>
      </trkpt>
      <trkpt lat="45.90547" lon="5.75995">
        <ele>1473.6</ele>
        <time>2026-05-13T12:59:23Z</time>
      </trkpt>
      <trkpt lat="45.90547" lon="5.75995">
        <ele>1474</ele>
        <time>2026-05-13T12:59:24Z</time>
      </trkpt>
      <trkpt lat="45.90546" lon="5.75995">
        <ele>1474</ele>
        <time>2026-05-13T12:59:25Z</time>
      </trkpt>
      <trkpt lat="45.90545" lon="5.75995">
        <ele>1474</ele>
        <time>2026-05-13T12:59:26Z</time>
      </trkpt>
      <trkpt lat="45.90544" lon="5.75995">
        <ele>1474.4</ele>
        <time>2026-05-13T12:59:27Z</time>
      </trkpt>
      <trkpt lat="45.90543" lon="5.75995">
        <ele>1474.4</ele>
        <time>2026-05-13T12:59:28Z</time>
      </trkpt>
      <trkpt lat="45.90542" lon="5.75995">
        <ele>1474.4</ele>
        <time>2026-05-13T12:59:29Z</time>
      </trkpt>
      <trkpt lat="45.90541" lon="5.75995">
        <ele>1474.4</ele>
        <time>2026-05-13T12:59:30Z</time>
      </trkpt>
      <trkpt lat="45.9054" lon="5.75996">
        <ele>1474.6</ele>
        <time>2026-05-13T12:59:31Z</time>
      </trkpt>
      <trkpt lat="45.90539" lon="5.75996">
        <ele>1474.6</ele>
        <time>2026-05-13T12:59:32Z</time>
      </trkpt>
      <trkpt lat="45.90537" lon="5.75996">
        <ele>1474.6</ele>
        <time>2026-05-13T12:59:33Z</time>
      </trkpt>
      <trkpt lat="45.90536" lon="5.75997">
        <ele>1474</ele>
        <time>2026-05-13T12:59:34Z</time>
      </trkpt>
      <trkpt lat="45.90535" lon="5.75997">
        <ele>1474.4</ele>
        <time>2026-05-13T12:59:35Z</time>
      </trkpt>
      <trkpt lat="45.90534" lon="5.75998">
        <ele>1474.8</ele>
        <time>2026-05-13T12:59:36Z</time>
      </trkpt>
      <trkpt lat="45.90533" lon="5.75999">
        <ele>1474.8</ele>
        <time>2026-05-13T12:59:37Z</time>
      </trkpt>
      <trkpt lat="45.90532" lon="5.75999">
        <ele>1475.2</ele>
        <time>2026-05-13T12:59:38Z</time>
      </trkpt>
      <trkpt lat="45.90531" lon="5.76">
        <ele>1475.2</ele>
        <time>2026-05-13T12:59:39Z</time>
      </trkpt>
      <trkpt lat="45.90529" lon="5.76">
        <ele>1475.6</ele>
        <time>2026-05-13T12:59:40Z</time>
      </trkpt>
      <trkpt lat="45.90529" lon="5.76">
        <ele>1475.8</ele>
        <time>2026-05-13T12:59:41Z</time>
      </trkpt>
      <trkpt lat="45.90527" lon="5.76">
        <ele>1475.8</ele>
        <time>2026-05-13T12:59:42Z</time>
      </trkpt>
      <trkpt lat="45.90526" lon="5.76">
        <ele>1476</ele>
        <time>2026-05-13T12:59:43Z</time>
      </trkpt>
      <trkpt lat="45.90525" lon="5.76">
        <ele>1476</ele>
        <time>2026-05-13T12:59:44Z</time>
      </trkpt>
      <trkpt lat="45.90524" lon="5.76">
        <ele>1476.2</ele>
        <time>2026-05-13T12:59:45Z</time>
      </trkpt>
      <trkpt lat="45.90524" lon="5.76">
        <ele>1476.2</ele>
        <time>2026-05-13T12:59:46Z</time>
      </trkpt>
      <trkpt lat="45.90522" lon="5.76001">
        <ele>1476.2</ele>
        <time>2026-05-13T12:59:47Z</time>
      </trkpt>
      <trkpt lat="45.90521" lon="5.76001">
        <ele>1476.2</ele>
        <time>2026-05-13T12:59:48Z</time>
      </trkpt>
      <trkpt lat="45.9052" lon="5.76001">
        <ele>1476.2</ele>
        <time>2026-05-13T12:59:49Z</time>
      </trkpt>
      <trkpt lat="45.90519" lon="5.76001">
        <ele>1476.4</ele>
        <time>2026-05-13T12:59:50Z</time>
      </trkpt>
      <trkpt lat="45.90519" lon="5.76001">
        <ele>1476.4</ele>
        <time>2026-05-13T12:59:51Z</time>
      </trkpt>
      <trkpt lat="45.90518" lon="5.76002">
        <ele>1476.8</ele>
        <time>2026-05-13T12:59:52Z</time>
      </trkpt>
      <trkpt lat="45.90517" lon="5.76001">
        <ele>1476.8</ele>
        <time>2026-05-13T12:59:53Z</time>
      </trkpt>
      <trkpt lat="45.90516" lon="5.76001">
        <ele>1477</ele>
        <time>2026-05-13T12:59:54Z</time>
      </trkpt>
      <trkpt lat="45.90515" lon="5.76001">
        <ele>1477</ele>
        <time>2026-05-13T12:59:55Z</time>
      </trkpt>
      <trkpt lat="45.90514" lon="5.76001">
        <ele>1477.4</ele>
        <time>2026-05-13T12:59:56Z</time>
      </trkpt>
      <trkpt lat="45.90513" lon="5.76001">
        <ele>1477.4</ele>
        <time>2026-05-13T12:59:57Z</time>
      </trkpt>
      <trkpt lat="45.90512" lon="5.76001">
        <ele>1477.4</ele>
        <time>2026-05-13T12:59:58Z</time>
      </trkpt>
      <trkpt lat="45.90511" lon="5.76001">
        <ele>1477.6</ele>
        <time>2026-05-13T12:59:59Z</time>
      </trkpt>
      <trkpt lat="45.9051" lon="5.76001">
        <ele>1477.6</ele>
        <time>2026-05-13T13:00:00Z</time>
      </trkpt>
      <trkpt lat="45.90509" lon="5.76001">
        <ele>1477.6</ele>
        <time>2026-05-13T13:00:01Z</time>
      </trkpt>
      <trkpt lat="45.90508" lon="5.76002">
        <ele>1478</ele>
        <time>2026-05-13T13:00:02Z</time>
      </trkpt>
      <trkpt lat="45.90508" lon="5.76002">
        <ele>1478.2</ele>
        <time>2026-05-13T13:00:03Z</time>
      </trkpt>
      <trkpt lat="45.90507" lon="5.76002">
        <ele>1478.4</ele>
        <time>2026-05-13T13:00:04Z</time>
      </trkpt>
      <trkpt lat="45.90506" lon="5.76002">
        <ele>1478.4</ele>
        <time>2026-05-13T13:00:05Z</time>
      </trkpt>
      <trkpt lat="45.90505" lon="5.76002">
        <ele>1478.4</ele>
        <time>2026-05-13T13:00:06Z</time>
      </trkpt>
      <trkpt lat="45.90504" lon="5.76003">
        <ele>1478.8</ele>
        <time>2026-05-13T13:00:07Z</time>
      </trkpt>
      <trkpt lat="45.90503" lon="5.76003">
        <ele>1479</ele>
        <time>2026-05-13T13:00:08Z</time>
      </trkpt>
      <trkpt lat="45.90502" lon="5.76004">
        <ele>1479.2</ele>
        <time>2026-05-13T13:00:09Z</time>
      </trkpt>
      <trkpt lat="45.90501" lon="5.76004">
        <ele>1479.2</ele>
        <time>2026-05-13T13:00:10Z</time>
      </trkpt>
      <trkpt lat="45.905" lon="5.76004">
        <ele>1479.6</ele>
        <time>2026-05-13T13:00:11Z</time>
      </trkpt>
      <trkpt lat="45.90499" lon="5.76004">
        <ele>1479.6</ele>
        <time>2026-05-13T13:00:12Z</time>
      </trkpt>
      <trkpt lat="45.90498" lon="5.76004">
        <ele>1479.6</ele>
        <time>2026-05-13T13:00:13Z</time>
      </trkpt>
      <trkpt lat="45.90497" lon="5.76005">
        <ele>1479.8</ele>
        <time>2026-05-13T13:00:14Z</time>
      </trkpt>
      <trkpt lat="45.90495" lon="5.76005">
        <ele>1480</ele>
        <time>2026-05-13T13:00:15Z</time>
      </trkpt>
      <trkpt lat="45.90494" lon="5.76006">
        <ele>1480.2</ele>
        <time>2026-05-13T13:00:16Z</time>
      </trkpt>
      <trkpt lat="45.90493" lon="5.76005">
        <ele>1480.2</ele>
        <time>2026-05-13T13:00:17Z</time>
      </trkpt>
      <trkpt lat="45.90492" lon="5.76005">
        <ele>1480.6</ele>
        <time>2026-05-13T13:00:18Z</time>
      </trkpt>
      <trkpt lat="45.90491" lon="5.76005">
        <ele>1480.6</ele>
        <time>2026-05-13T13:00:19Z</time>
      </trkpt>
      <trkpt lat="45.9049" lon="5.76005">
        <ele>1480.6</ele>
        <time>2026-05-13T13:00:20Z</time>
      </trkpt>
      <trkpt lat="45.9049" lon="5.76006">
        <ele>1481</ele>
        <time>2026-05-13T13:00:21Z</time>
      </trkpt>
      <trkpt lat="45.90489" lon="5.76006">
        <ele>1481</ele>
        <time>2026-05-13T13:00:22Z</time>
      </trkpt>
      <trkpt lat="45.90488" lon="5.76006">
        <ele>1481.2</ele>
        <time>2026-05-13T13:00:23Z</time>
      </trkpt>
      <trkpt lat="45.90487" lon="5.76006">
        <ele>1481.2</ele>
        <time>2026-05-13T13:00:24Z</time>
      </trkpt>
      <trkpt lat="45.90486" lon="5.76006">
        <ele>1481.2</ele>
        <time>2026-05-13T13:00:25Z</time>
      </trkpt>
      <trkpt lat="45.90485" lon="5.76007">
        <ele>1481.2</ele>
        <time>2026-05-13T13:00:26Z</time>
      </trkpt>
      <trkpt lat="45.90484" lon="5.76007">
        <ele>1481.4</ele>
        <time>2026-05-13T13:00:27Z</time>
      </trkpt>
      <trkpt lat="45.90483" lon="5.76008">
        <ele>1481.4</ele>
        <time>2026-05-13T13:00:28Z</time>
      </trkpt>
      <trkpt lat="45.90482" lon="5.76009">
        <ele>1481.8</ele>
        <time>2026-05-13T13:00:29Z</time>
      </trkpt>
      <trkpt lat="45.90481" lon="5.76009">
        <ele>1482.2</ele>
        <time>2026-05-13T13:00:30Z</time>
      </trkpt>
      <trkpt lat="45.9048" lon="5.76009">
        <ele>1482.2</ele>
        <time>2026-05-13T13:00:31Z</time>
      </trkpt>
      <trkpt lat="45.90478" lon="5.76009">
        <ele>1482.4</ele>
        <time>2026-05-13T13:00:32Z</time>
      </trkpt>
      <trkpt lat="45.90477" lon="5.76009">
        <ele>1482.4</ele>
        <time>2026-05-13T13:00:33Z</time>
      </trkpt>
      <trkpt lat="45.90476" lon="5.76008">
        <ele>1482.6</ele>
        <time>2026-05-13T13:00:34Z</time>
      </trkpt>
      <trkpt lat="45.90475" lon="5.76008">
        <ele>1482.6</ele>
        <time>2026-05-13T13:00:35Z</time>
      </trkpt>
      <trkpt lat="45.90474" lon="5.76008">
        <ele>1482.6</ele>
        <time>2026-05-13T13:00:36Z</time>
      </trkpt>
      <trkpt lat="45.90473" lon="5.76009">
        <ele>1483</ele>
        <time>2026-05-13T13:00:37Z</time>
      </trkpt>
      <trkpt lat="45.90472" lon="5.76009">
        <ele>1483</ele>
        <time>2026-05-13T13:00:38Z</time>
      </trkpt>
      <trkpt lat="45.90471" lon="5.7601">
        <ele>1483</ele>
        <time>2026-05-13T13:00:39Z</time>
      </trkpt>
      <trkpt lat="45.9047" lon="5.7601">
        <ele>1483.4</ele>
        <time>2026-05-13T13:00:40Z</time>
      </trkpt>
      <trkpt lat="45.90469" lon="5.7601">
        <ele>1483.6</ele>
        <time>2026-05-13T13:00:41Z</time>
      </trkpt>
      <trkpt lat="45.90468" lon="5.7601">
        <ele>1483.6</ele>
        <time>2026-05-13T13:00:42Z</time>
      </trkpt>
      <trkpt lat="45.90467" lon="5.7601">
        <ele>1484</ele>
        <time>2026-05-13T13:00:43Z</time>
      </trkpt>
      <trkpt lat="45.90466" lon="5.7601">
        <ele>1484</ele>
        <time>2026-05-13T13:00:44Z</time>
      </trkpt>
      <trkpt lat="45.90465" lon="5.7601">
        <ele>1484.2</ele>
        <time>2026-05-13T13:00:45Z</time>
      </trkpt>
      <trkpt lat="45.90463" lon="5.76011">
        <ele>1484.2</ele>
        <time>2026-05-13T13:00:46Z</time>
      </trkpt>
      <trkpt lat="45.90462" lon="5.76011">
        <ele>1484.2</ele>
        <time>2026-05-13T13:00:47Z</time>
      </trkpt>
      <trkpt lat="45.90461" lon="5.76012">
        <ele>1484.6</ele>
        <time>2026-05-13T13:00:48Z</time>
      </trkpt>
      <trkpt lat="45.9046" lon="5.76012">
        <ele>1484.6</ele>
        <time>2026-05-13T13:00:49Z</time>
      </trkpt>
      <trkpt lat="45.90459" lon="5.76012">
        <ele>1484.6</ele>
        <time>2026-05-13T13:00:50Z</time>
      </trkpt>
      <trkpt lat="45.90458" lon="5.76012">
        <ele>1484.8</ele>
        <time>2026-05-13T13:00:51Z</time>
      </trkpt>
      <trkpt lat="45.90457" lon="5.76013">
        <ele>1485</ele>
        <time>2026-05-13T13:00:52Z</time>
      </trkpt>
      <trkpt lat="45.90456" lon="5.76013">
        <ele>1485</ele>
        <time>2026-05-13T13:00:53Z</time>
      </trkpt>
      <trkpt lat="45.90455" lon="5.76013">
        <ele>1485.4</ele>
        <time>2026-05-13T13:00:54Z</time>
      </trkpt>
      <trkpt lat="45.90454" lon="5.76012">
        <ele>1485.4</ele>
        <time>2026-05-13T13:00:55Z</time>
      </trkpt>
      <trkpt lat="45.90453" lon="5.76012">
        <ele>1485.8</ele>
        <time>2026-05-13T13:00:56Z</time>
      </trkpt>
      <trkpt lat="45.90452" lon="5.76012">
        <ele>1486</ele>
        <time>2026-05-13T13:00:57Z</time>
      </trkpt>
      <trkpt lat="45.90451" lon="5.76013">
        <ele>1486.4</ele>
        <time>2026-05-13T13:00:58Z</time>
      </trkpt>
      <trkpt lat="45.9045" lon="5.76013">
        <ele>1486.4</ele>
        <time>2026-05-13T13:00:59Z</time>
      </trkpt>
      <trkpt lat="45.9045" lon="5.76013">
        <ele>1486.4</ele>
        <time>2026-05-13T13:01:00Z</time>
      </trkpt>
      <trkpt lat="45.90448" lon="5.76013">
        <ele>1486.6</ele>
        <time>2026-05-13T13:01:01Z</time>
      </trkpt>
      <trkpt lat="45.90447" lon="5.76013">
        <ele>1486.6</ele>
        <time>2026-05-13T13:01:02Z</time>
      </trkpt>
      <trkpt lat="45.90446" lon="5.76013">
        <ele>1487</ele>
        <time>2026-05-13T13:01:03Z</time>
      </trkpt>
      <trkpt lat="45.90445" lon="5.76014">
        <ele>1487.2</ele>
        <time>2026-05-13T13:01:04Z</time>
      </trkpt>
      <trkpt lat="45.90444" lon="5.76014">
        <ele>1487.2</ele>
        <time>2026-05-13T13:01:05Z</time>
      </trkpt>
      <trkpt lat="45.90443" lon="5.76015">
        <ele>1487.4</ele>
        <time>2026-05-13T13:01:06Z</time>
      </trkpt>
      <trkpt lat="45.90442" lon="5.76015">
        <ele>1487.4</ele>
        <time>2026-05-13T13:01:07Z</time>
      </trkpt>
      <trkpt lat="45.90441" lon="5.76016">
        <ele>1487.8</ele>
        <time>2026-05-13T13:01:08Z</time>
      </trkpt>
      <trkpt lat="45.9044" lon="5.76016">
        <ele>1487.8</ele>
        <time>2026-05-13T13:01:09Z</time>
      </trkpt>
      <trkpt lat="45.90439" lon="5.76016">
        <ele>1488</ele>
        <time>2026-05-13T13:01:10Z</time>
      </trkpt>
      <trkpt lat="45.90438" lon="5.76017">
        <ele>1488</ele>
        <time>2026-05-13T13:01:11Z</time>
      </trkpt>
      <trkpt lat="45.90437" lon="5.76017">
        <ele>1488</ele>
        <time>2026-05-13T13:01:12Z</time>
      </trkpt>
      <trkpt lat="45.90436" lon="5.76018">
        <ele>1488.4</ele>
        <time>2026-05-13T13:01:13Z</time>
      </trkpt>
      <trkpt lat="45.90435" lon="5.76018">
        <ele>1488.4</ele>
        <time>2026-05-13T13:01:14Z</time>
      </trkpt>
      <trkpt lat="45.90434" lon="5.76018">
        <ele>1488.4</ele>
        <time>2026-05-13T13:01:15Z</time>
      </trkpt>
      <trkpt lat="45.90433" lon="5.76018">
        <ele>1488.6</ele>
        <time>2026-05-13T13:01:16Z</time>
      </trkpt>
      <trkpt lat="45.90432" lon="5.76018">
        <ele>1488.6</ele>
        <time>2026-05-13T13:01:17Z</time>
      </trkpt>
      <trkpt lat="45.90431" lon="5.76018">
        <ele>1489</ele>
        <time>2026-05-13T13:01:18Z</time>
      </trkpt>
      <trkpt lat="45.9043" lon="5.76018">
        <ele>1489</ele>
        <time>2026-05-13T13:01:19Z</time>
      </trkpt>
      <trkpt lat="45.90429" lon="5.76018">
        <ele>1489.2</ele>
        <time>2026-05-13T13:01:20Z</time>
      </trkpt>
      <trkpt lat="45.90428" lon="5.76018">
        <ele>1489.2</ele>
        <time>2026-05-13T13:01:21Z</time>
      </trkpt>
      <trkpt lat="45.90426" lon="5.76018">
        <ele>1489.6</ele>
        <time>2026-05-13T13:01:22Z</time>
      </trkpt>
      <trkpt lat="45.90425" lon="5.76018">
        <ele>1490</ele>
        <time>2026-05-13T13:01:23Z</time>
      </trkpt>
      <trkpt lat="45.90424" lon="5.76019">
        <ele>1490</ele>
        <time>2026-05-13T13:01:24Z</time>
      </trkpt>
      <trkpt lat="45.90423" lon="5.76019">
        <ele>1490</ele>
        <time>2026-05-13T13:01:25Z</time>
      </trkpt>
      <trkpt lat="45.90422" lon="5.76019">
        <ele>1490</ele>
        <time>2026-05-13T13:01:26Z</time>
      </trkpt>
      <trkpt lat="45.90421" lon="5.76019">
        <ele>1490</ele>
        <time>2026-05-13T13:01:27Z</time>
      </trkpt>
      <trkpt lat="45.9042" lon="5.76019">
        <ele>1490.2</ele>
        <time>2026-05-13T13:01:28Z</time>
      </trkpt>
      <trkpt lat="45.90419" lon="5.7602">
        <ele>1490.2</ele>
        <time>2026-05-13T13:01:29Z</time>
      </trkpt>
      <trkpt lat="45.90418" lon="5.7602">
        <ele>1490.4</ele>
        <time>2026-05-13T13:01:30Z</time>
      </trkpt>
      <trkpt lat="45.90418" lon="5.7602">
        <ele>1490.4</ele>
        <time>2026-05-13T13:01:31Z</time>
      </trkpt>
      <trkpt lat="45.90417" lon="5.7602">
        <ele>1490.6</ele>
        <time>2026-05-13T13:01:32Z</time>
      </trkpt>
      <trkpt lat="45.90415" lon="5.76021">
        <ele>1490.6</ele>
        <time>2026-05-13T13:01:33Z</time>
      </trkpt>
      <trkpt lat="45.90415" lon="5.76021">
        <ele>1490.6</ele>
        <time>2026-05-13T13:01:34Z</time>
      </trkpt>
      <trkpt lat="45.90414" lon="5.76022">
        <ele>1490.6</ele>
        <time>2026-05-13T13:01:35Z</time>
      </trkpt>
      <trkpt lat="45.90413" lon="5.76022">
        <ele>1491</ele>
        <time>2026-05-13T13:01:36Z</time>
      </trkpt>
      <trkpt lat="45.90412" lon="5.76022">
        <ele>1491</ele>
        <time>2026-05-13T13:01:37Z</time>
      </trkpt>
      <trkpt lat="45.90411" lon="5.76023">
        <ele>1491.6</ele>
        <time>2026-05-13T13:01:38Z</time>
      </trkpt>
      <trkpt lat="45.9041" lon="5.76023">
        <ele>1491.6</ele>
        <time>2026-05-13T13:01:39Z</time>
      </trkpt>
      <trkpt lat="45.90409" lon="5.76024">
        <ele>1491.6</ele>
        <time>2026-05-13T13:01:40Z</time>
      </trkpt>
      <trkpt lat="45.90408" lon="5.76024">
        <ele>1491.6</ele>
        <time>2026-05-13T13:01:41Z</time>
      </trkpt>
      <trkpt lat="45.90407" lon="5.76024">
        <ele>1491.6</ele>
        <time>2026-05-13T13:01:42Z</time>
      </trkpt>
      <trkpt lat="45.90406" lon="5.76024">
        <ele>1491.8</ele>
        <time>2026-05-13T13:01:43Z</time>
      </trkpt>
      <trkpt lat="45.90405" lon="5.76025">
        <ele>1491.8</ele>
        <time>2026-05-13T13:01:44Z</time>
      </trkpt>
      <trkpt lat="45.90404" lon="5.76025">
        <ele>1492.2</ele>
        <time>2026-05-13T13:01:45Z</time>
      </trkpt>
      <trkpt lat="45.90403" lon="5.76025">
        <ele>1492.2</ele>
        <time>2026-05-13T13:01:46Z</time>
      </trkpt>
      <trkpt lat="45.90402" lon="5.76025">
        <ele>1492.4</ele>
        <time>2026-05-13T13:01:47Z</time>
      </trkpt>
      <trkpt lat="45.90401" lon="5.76025">
        <ele>1492.4</ele>
        <time>2026-05-13T13:01:48Z</time>
      </trkpt>
      <trkpt lat="45.904" lon="5.76025">
        <ele>1492.4</ele>
        <time>2026-05-13T13:01:49Z</time>
      </trkpt>
      <trkpt lat="45.90398" lon="5.76025">
        <ele>1492.8</ele>
        <time>2026-05-13T13:01:50Z</time>
      </trkpt>
      <trkpt lat="45.90397" lon="5.76025">
        <ele>1493</ele>
        <time>2026-05-13T13:01:51Z</time>
      </trkpt>
      <trkpt lat="45.90396" lon="5.76025">
        <ele>1493</ele>
        <time>2026-05-13T13:01:52Z</time>
      </trkpt>
      <trkpt lat="45.90395" lon="5.76025">
        <ele>1493.4</ele>
        <time>2026-05-13T13:01:53Z</time>
      </trkpt>
      <trkpt lat="45.90394" lon="5.76026">
        <ele>1493.4</ele>
        <time>2026-05-13T13:01:54Z</time>
      </trkpt>
      <trkpt lat="45.90393" lon="5.76026">
        <ele>1493.8</ele>
        <time>2026-05-13T13:01:55Z</time>
      </trkpt>
      <trkpt lat="45.90392" lon="5.76026">
        <ele>1493.8</ele>
        <time>2026-05-13T13:01:56Z</time>
      </trkpt>
      <trkpt lat="45.90391" lon="5.76026">
        <ele>1493.8</ele>
        <time>2026-05-13T13:01:57Z</time>
      </trkpt>
      <trkpt lat="45.9039" lon="5.76026">
        <ele>1494.2</ele>
        <time>2026-05-13T13:01:58Z</time>
      </trkpt>
      <trkpt lat="45.90389" lon="5.76026">
        <ele>1494.2</ele>
        <time>2026-05-13T13:01:59Z</time>
      </trkpt>
      <trkpt lat="45.90388" lon="5.76026">
        <ele>1494.2</ele>
        <time>2026-05-13T13:02:00Z</time>
      </trkpt>
      <trkpt lat="45.90387" lon="5.76026">
        <ele>1494.4</ele>
        <time>2026-05-13T13:02:01Z</time>
      </trkpt>
      <trkpt lat="45.90386" lon="5.76027">
        <ele>1494.4</ele>
        <time>2026-05-13T13:02:02Z</time>
      </trkpt>
      <trkpt lat="45.90385" lon="5.76027">
        <ele>1494.8</ele>
        <time>2026-05-13T13:02:03Z</time>
      </trkpt>
      <trkpt lat="45.90383" lon="5.76028">
        <ele>1495.2</ele>
        <time>2026-05-13T13:02:04Z</time>
      </trkpt>
      <trkpt lat="45.90382" lon="5.76028">
        <ele>1495.4</ele>
        <time>2026-05-13T13:02:05Z</time>
      </trkpt>
      <trkpt lat="45.90381" lon="5.76029">
        <ele>1495.8</ele>
        <time>2026-05-13T13:02:06Z</time>
      </trkpt>
      <trkpt lat="45.9038" lon="5.76029">
        <ele>1496.2</ele>
        <time>2026-05-13T13:02:07Z</time>
      </trkpt>
      <trkpt lat="45.90379" lon="5.76029">
        <ele>1496.6</ele>
        <time>2026-05-13T13:02:08Z</time>
      </trkpt>
      <trkpt lat="45.90378" lon="5.76029">
        <ele>1496.6</ele>
        <time>2026-05-13T13:02:09Z</time>
      </trkpt>
      <trkpt lat="45.90377" lon="5.76029">
        <ele>1496.8</ele>
        <time>2026-05-13T13:02:10Z</time>
      </trkpt>
      <trkpt lat="45.90376" lon="5.7603">
        <ele>1497.2</ele>
        <time>2026-05-13T13:02:11Z</time>
      </trkpt>
      <trkpt lat="45.90375" lon="5.7603">
        <ele>1497.2</ele>
        <time>2026-05-13T13:02:12Z</time>
      </trkpt>
      <trkpt lat="45.90374" lon="5.7603">
        <ele>1497.4</ele>
        <time>2026-05-13T13:02:13Z</time>
      </trkpt>
      <trkpt lat="45.90373" lon="5.7603">
        <ele>1497.4</ele>
        <time>2026-05-13T13:02:14Z</time>
      </trkpt>
      <trkpt lat="45.90372" lon="5.7603">
        <ele>1497.4</ele>
        <time>2026-05-13T13:02:15Z</time>
      </trkpt>
      <trkpt lat="45.90371" lon="5.76031">
        <ele>1497.4</ele>
        <time>2026-05-13T13:02:16Z</time>
      </trkpt>
      <trkpt lat="45.9037" lon="5.76031">
        <ele>1497.4</ele>
        <time>2026-05-13T13:02:17Z</time>
      </trkpt>
      <trkpt lat="45.90369" lon="5.76031">
        <ele>1497.6</ele>
        <time>2026-05-13T13:02:18Z</time>
      </trkpt>
      <trkpt lat="45.90368" lon="5.76032">
        <ele>1497.6</ele>
        <time>2026-05-13T13:02:19Z</time>
      </trkpt>
      <trkpt lat="45.90367" lon="5.76033">
        <ele>1497.6</ele>
        <time>2026-05-13T13:02:20Z</time>
      </trkpt>
      <trkpt lat="45.90366" lon="5.76033">
        <ele>1497.6</ele>
        <time>2026-05-13T13:02:21Z</time>
      </trkpt>
      <trkpt lat="45.90365" lon="5.76033">
        <ele>1498</ele>
        <time>2026-05-13T13:02:22Z</time>
      </trkpt>
      <trkpt lat="45.90364" lon="5.76034">
        <ele>1498</ele>
        <time>2026-05-13T13:02:23Z</time>
      </trkpt>
      <trkpt lat="45.90364" lon="5.76035">
        <ele>1498</ele>
        <time>2026-05-13T13:02:24Z</time>
      </trkpt>
      <trkpt lat="45.90363" lon="5.76035">
        <ele>1498.4</ele>
        <time>2026-05-13T13:02:25Z</time>
      </trkpt>
      <trkpt lat="45.90362" lon="5.76036">
        <ele>1498.4</ele>
        <time>2026-05-13T13:02:26Z</time>
      </trkpt>
      <trkpt lat="45.90361" lon="5.76037">
        <ele>1498.8</ele>
        <time>2026-05-13T13:02:27Z</time>
      </trkpt>
      <trkpt lat="45.9036" lon="5.76038">
        <ele>1498.8</ele>
        <time>2026-05-13T13:02:28Z</time>
      </trkpt>
      <trkpt lat="45.90359" lon="5.76038">
        <ele>1499</ele>
        <time>2026-05-13T13:02:29Z</time>
      </trkpt>
      <trkpt lat="45.90358" lon="5.76039">
        <ele>1499.2</ele>
        <time>2026-05-13T13:02:30Z</time>
      </trkpt>
      <trkpt lat="45.90357" lon="5.7604">
        <ele>1499.6</ele>
        <time>2026-05-13T13:02:31Z</time>
      </trkpt>
      <trkpt lat="45.90356" lon="5.76041">
        <ele>1500</ele>
        <time>2026-05-13T13:02:32Z</time>
      </trkpt>
      <trkpt lat="45.90355" lon="5.76042">
        <ele>1500</ele>
        <time>2026-05-13T13:02:33Z</time>
      </trkpt>
      <trkpt lat="45.90354" lon="5.76045">
        <ele>1499.6</ele>
        <time>2026-05-13T13:02:34Z</time>
      </trkpt>
      <trkpt lat="45.90353" lon="5.76046">
        <ele>1499.6</ele>
        <time>2026-05-13T13:02:35Z</time>
      </trkpt>
      <trkpt lat="45.90352" lon="5.76047">
        <ele>1499.6</ele>
        <time>2026-05-13T13:02:36Z</time>
      </trkpt>
      <trkpt lat="45.90351" lon="5.76049">
        <ele>1499.6</ele>
        <time>2026-05-13T13:02:37Z</time>
      </trkpt>
      <trkpt lat="45.9035" lon="5.7605">
        <ele>1499.6</ele>
        <time>2026-05-13T13:02:38Z</time>
      </trkpt>
      <trkpt lat="45.9035" lon="5.76051">
        <ele>1500</ele>
        <time>2026-05-13T13:02:39Z</time>
      </trkpt>
      <trkpt lat="45.90349" lon="5.76053">
        <ele>1500</ele>
        <time>2026-05-13T13:02:40Z</time>
      </trkpt>
      <trkpt lat="45.90349" lon="5.76055">
        <ele>1500.2</ele>
        <time>2026-05-13T13:02:41Z</time>
      </trkpt>
      <trkpt lat="45.90348" lon="5.76057">
        <ele>1500.2</ele>
        <time>2026-05-13T13:02:42Z</time>
      </trkpt>
      <trkpt lat="45.90348" lon="5.76059">
        <ele>1500.6</ele>
        <time>2026-05-13T13:02:43Z</time>
      </trkpt>
      <trkpt lat="45.90348" lon="5.76061">
        <ele>1500.6</ele>
        <time>2026-05-13T13:02:44Z</time>
      </trkpt>
      <trkpt lat="45.90348" lon="5.76063">
        <ele>1501</ele>
        <time>2026-05-13T13:02:45Z</time>
      </trkpt>
      <trkpt lat="45.90348" lon="5.76064">
        <ele>1501</ele>
        <time>2026-05-13T13:02:46Z</time>
      </trkpt>
      <trkpt lat="45.90348" lon="5.76066">
        <ele>1501</ele>
        <time>2026-05-13T13:02:47Z</time>
      </trkpt>
      <trkpt lat="45.90347" lon="5.76067">
        <ele>1501</ele>
        <time>2026-05-13T13:02:48Z</time>
      </trkpt>
      <trkpt lat="45.90347" lon="5.76069">
        <ele>1501.2</ele>
        <time>2026-05-13T13:02:49Z</time>
      </trkpt>
      <trkpt lat="45.90346" lon="5.7607">
        <ele>1501.2</ele>
        <time>2026-05-13T13:02:50Z</time>
      </trkpt>
      <trkpt lat="45.90346" lon="5.76071">
        <ele>1501.2</ele>
        <time>2026-05-13T13:02:51Z</time>
      </trkpt>
      <trkpt lat="45.90346" lon="5.76073">
        <ele>1501.6</ele>
        <time>2026-05-13T13:02:52Z</time>
      </trkpt>
      <trkpt lat="45.90346" lon="5.76075">
        <ele>1501.8</ele>
        <time>2026-05-13T13:02:53Z</time>
      </trkpt>
      <trkpt lat="45.90346" lon="5.76077">
        <ele>1501.8</ele>
        <time>2026-05-13T13:02:54Z</time>
      </trkpt>
      <trkpt lat="45.90346" lon="5.76079">
        <ele>1502.2</ele>
        <time>2026-05-13T13:02:55Z</time>
      </trkpt>
      <trkpt lat="45.90345" lon="5.7608">
        <ele>1502.2</ele>
        <time>2026-05-13T13:02:56Z</time>
      </trkpt>
      <trkpt lat="45.90345" lon="5.76082">
        <ele>1502.2</ele>
        <time>2026-05-13T13:02:57Z</time>
      </trkpt>
      <trkpt lat="45.90345" lon="5.76084">
        <ele>1502.4</ele>
        <time>2026-05-13T13:02:58Z</time>
      </trkpt>
      <trkpt lat="45.90346" lon="5.76085">
        <ele>1502.4</ele>
        <time>2026-05-13T13:02:59Z</time>
      </trkpt>
      <trkpt lat="45.90346" lon="5.76087">
        <ele>1502.4</ele>
        <time>2026-05-13T13:03:00Z</time>
      </trkpt>
      <trkpt lat="45.90346" lon="5.76088">
        <ele>1502.8</ele>
        <time>2026-05-13T13:03:01Z</time>
      </trkpt>
      <trkpt lat="45.90346" lon="5.7609">
        <ele>1502.8</ele>
        <time>2026-05-13T13:03:02Z</time>
      </trkpt>
      <trkpt lat="45.90346" lon="5.76092">
        <ele>1503</ele>
        <time>2026-05-13T13:03:03Z</time>
      </trkpt>
      <trkpt lat="45.90346" lon="5.76093">
        <ele>1503.4</ele>
        <time>2026-05-13T13:03:04Z</time>
      </trkpt>
      <trkpt lat="45.90346" lon="5.76095">
        <ele>1503.4</ele>
        <time>2026-05-13T13:03:05Z</time>
      </trkpt>
      <trkpt lat="45.90346" lon="5.76097">
        <ele>1503.4</ele>
        <time>2026-05-13T13:03:06Z</time>
      </trkpt>
      <trkpt lat="45.90345" lon="5.76098">
        <ele>1503.4</ele>
        <time>2026-05-13T13:03:07Z</time>
      </trkpt>
      <trkpt lat="45.90345" lon="5.761">
        <ele>1503.4</ele>
        <time>2026-05-13T13:03:08Z</time>
      </trkpt>
      <trkpt lat="45.90345" lon="5.76102">
        <ele>1503.4</ele>
        <time>2026-05-13T13:03:09Z</time>
      </trkpt>
      <trkpt lat="45.90345" lon="5.76103">
        <ele>1503.8</ele>
        <time>2026-05-13T13:03:10Z</time>
      </trkpt>
      <trkpt lat="45.90345" lon="5.76104">
        <ele>1504</ele>
        <time>2026-05-13T13:03:11Z</time>
      </trkpt>
      <trkpt lat="45.90345" lon="5.76105">
        <ele>1504</ele>
        <time>2026-05-13T13:03:12Z</time>
      </trkpt>
      <trkpt lat="45.90345" lon="5.76107">
        <ele>1504.4</ele>
        <time>2026-05-13T13:03:13Z</time>
      </trkpt>
      <trkpt lat="45.90346" lon="5.76109">
        <ele>1504.4</ele>
        <time>2026-05-13T13:03:14Z</time>
      </trkpt>
      <trkpt lat="45.90346" lon="5.7611">
        <ele>1504.8</ele>
        <time>2026-05-13T13:03:15Z</time>
      </trkpt>
      <trkpt lat="45.90346" lon="5.76112">
        <ele>1504.8</ele>
        <time>2026-05-13T13:03:16Z</time>
      </trkpt>
      <trkpt lat="45.90345" lon="5.76114">
        <ele>1504.8</ele>
        <time>2026-05-13T13:03:17Z</time>
      </trkpt>
      <trkpt lat="45.90345" lon="5.76115">
        <ele>1505</ele>
        <time>2026-05-13T13:03:18Z</time>
      </trkpt>
      <trkpt lat="45.90345" lon="5.76117">
        <ele>1505.2</ele>
        <time>2026-05-13T13:03:19Z</time>
      </trkpt>
      <trkpt lat="45.90345" lon="5.76118">
        <ele>1505.4</ele>
        <time>2026-05-13T13:03:20Z</time>
      </trkpt>
      <trkpt lat="45.90345" lon="5.7612">
        <ele>1505.8</ele>
        <time>2026-05-13T13:03:21Z</time>
      </trkpt>
      <trkpt lat="45.90345" lon="5.76121">
        <ele>1506.2</ele>
        <time>2026-05-13T13:03:22Z</time>
      </trkpt>
      <trkpt lat="45.90345" lon="5.76123">
        <ele>1506.2</ele>
        <time>2026-05-13T13:03:23Z</time>
      </trkpt>
      <trkpt lat="45.90345" lon="5.76125">
        <ele>1506.4</ele>
        <time>2026-05-13T13:03:24Z</time>
      </trkpt>
      <trkpt lat="45.90345" lon="5.76127">
        <ele>1506.4</ele>
        <time>2026-05-13T13:03:25Z</time>
      </trkpt>
      <trkpt lat="45.90345" lon="5.76129">
        <ele>1506.4</ele>
        <time>2026-05-13T13:03:26Z</time>
      </trkpt>
      <trkpt lat="45.90345" lon="5.76131">
        <ele>1506.4</ele>
        <time>2026-05-13T13:03:27Z</time>
      </trkpt>
      <trkpt lat="45.90344" lon="5.76132">
        <ele>1506.6</ele>
        <time>2026-05-13T13:03:28Z</time>
      </trkpt>
      <trkpt lat="45.90344" lon="5.76134">
        <ele>1506.6</ele>
        <time>2026-05-13T13:03:29Z</time>
      </trkpt>
      <trkpt lat="45.90344" lon="5.76136">
        <ele>1507</ele>
        <time>2026-05-13T13:03:30Z</time>
      </trkpt>
      <trkpt lat="45.90344" lon="5.76138">
        <ele>1507</ele>
        <time>2026-05-13T13:03:31Z</time>
      </trkpt>
      <trkpt lat="45.90344" lon="5.7614">
        <ele>1507.2</ele>
        <time>2026-05-13T13:03:32Z</time>
      </trkpt>
      <trkpt lat="45.90344" lon="5.76142">
        <ele>1507.2</ele>
        <time>2026-05-13T13:03:33Z</time>
      </trkpt>
      <trkpt lat="45.90343" lon="5.76144">
        <ele>1507.6</ele>
        <time>2026-05-13T13:03:34Z</time>
      </trkpt>
      <trkpt lat="45.90343" lon="5.76146">
        <ele>1507.6</ele>
        <time>2026-05-13T13:03:35Z</time>
      </trkpt>
      <trkpt lat="45.90343" lon="5.76147">
        <ele>1507.6</ele>
        <time>2026-05-13T13:03:36Z</time>
      </trkpt>
      <trkpt lat="45.90343" lon="5.76149">
        <ele>1507.8</ele>
        <time>2026-05-13T13:03:37Z</time>
      </trkpt>
      <trkpt lat="45.90342" lon="5.7615">
        <ele>1508</ele>
        <time>2026-05-13T13:03:38Z</time>
      </trkpt>
      <trkpt lat="45.90341" lon="5.76152">
        <ele>1508.4</ele>
        <time>2026-05-13T13:03:39Z</time>
      </trkpt>
      <trkpt lat="45.90341" lon="5.76153">
        <ele>1508.4</ele>
        <time>2026-05-13T13:03:40Z</time>
      </trkpt>
      <trkpt lat="45.90342" lon="5.76155">
        <ele>1508.6</ele>
        <time>2026-05-13T13:03:41Z</time>
      </trkpt>
      <trkpt lat="45.90342" lon="5.76157">
        <ele>1508.6</ele>
        <time>2026-05-13T13:03:42Z</time>
      </trkpt>
      <trkpt lat="45.90343" lon="5.76159">
        <ele>1508.6</ele>
        <time>2026-05-13T13:03:43Z</time>
      </trkpt>
      <trkpt lat="45.90343" lon="5.76161">
        <ele>1508.8</ele>
        <time>2026-05-13T13:03:44Z</time>
      </trkpt>
      <trkpt lat="45.90343" lon="5.76163">
        <ele>1508.8</ele>
        <time>2026-05-13T13:03:45Z</time>
      </trkpt>
      <trkpt lat="45.90342" lon="5.76164">
        <ele>1509</ele>
        <time>2026-05-13T13:03:46Z</time>
      </trkpt>
      <trkpt lat="45.90341" lon="5.76166">
        <ele>1509</ele>
        <time>2026-05-13T13:03:47Z</time>
      </trkpt>
      <trkpt lat="45.9034" lon="5.76167">
        <ele>1509</ele>
        <time>2026-05-13T13:03:48Z</time>
      </trkpt>
      <trkpt lat="45.90339" lon="5.76167">
        <ele>1509</ele>
        <time>2026-05-13T13:03:49Z</time>
      </trkpt>
      <trkpt lat="45.90338" lon="5.76168">
        <ele>1509</ele>
        <time>2026-05-13T13:03:50Z</time>
      </trkpt>
      <trkpt lat="45.90337" lon="5.76168">
        <ele>1509</ele>
        <time>2026-05-13T13:03:51Z</time>
      </trkpt>
      <trkpt lat="45.90337" lon="5.76168">
        <ele>1509</ele>
        <time>2026-05-13T13:03:52Z</time>
      </trkpt>
      <trkpt lat="45.90337" lon="5.76168">
        <ele>1509</ele>
        <time>2026-05-13T13:03:53Z</time>
      </trkpt>
      <trkpt lat="45.90335" lon="5.76168">
        <ele>1509.2</ele>
        <time>2026-05-13T13:04:05Z</time>
      </trkpt>
      <trkpt lat="45.90335" lon="5.76168">
        <ele>1509.2</ele>
        <time>2026-05-13T13:04:06Z</time>
      </trkpt>
      <trkpt lat="45.90334" lon="5.76168">
        <ele>1509.2</ele>
        <time>2026-05-13T13:04:07Z</time>
      </trkpt>
      <trkpt lat="45.90334" lon="5.76168">
        <ele>1509.6</ele>
        <time>2026-05-13T13:04:08Z</time>
      </trkpt>
      <trkpt lat="45.90333" lon="5.76169">
        <ele>1510</ele>
        <time>2026-05-13T13:04:21Z</time>
      </trkpt>
      <trkpt lat="45.90333" lon="5.76169">
        <ele>1509.6</ele>
        <time>2026-05-13T13:04:22Z</time>
      </trkpt>
      <trkpt lat="45.90332" lon="5.76169">
        <ele>1509.6</ele>
        <time>2026-05-13T13:04:23Z</time>
      </trkpt>
      <trkpt lat="45.90334" lon="5.76168">
        <ele>1508.4</ele>
        <time>2026-05-13T13:06:34Z</time>
      </trkpt>
      <trkpt lat="45.90334" lon="5.76168">
        <ele>1508.4</ele>
        <time>2026-05-13T13:06:35Z</time>
      </trkpt>
      <trkpt lat="45.90334" lon="5.76168">
        <ele>1508.4</ele>
        <time>2026-05-13T13:06:36Z</time>
      </trkpt>
      <trkpt lat="45.90337" lon="5.76173">
        <ele>1508.2</ele>
        <time>2026-05-13T13:06:39Z</time>
      </trkpt>
      <trkpt lat="45.90338" lon="5.76175">
        <ele>1508.2</ele>
        <time>2026-05-13T13:06:40Z</time>
      </trkpt>
      <trkpt lat="45.90339" lon="5.76177">
        <ele>1508.2</ele>
        <time>2026-05-13T13:06:41Z</time>
      </trkpt>
      <trkpt lat="45.90341" lon="5.76179">
        <ele>1508.2</ele>
        <time>2026-05-13T13:06:42Z</time>
      </trkpt>
      <trkpt lat="45.90343" lon="5.76181">
        <ele>1508.2</ele>
        <time>2026-05-13T13:06:43Z</time>
      </trkpt>
      <trkpt lat="45.90344" lon="5.76183">
        <ele>1508.2</ele>
        <time>2026-05-13T13:06:44Z</time>
      </trkpt>
      <trkpt lat="45.90346" lon="5.76185">
        <ele>1508.2</ele>
        <time>2026-05-13T13:06:45Z</time>
      </trkpt>
      <trkpt lat="45.90347" lon="5.76188">
        <ele>1508</ele>
        <time>2026-05-13T13:06:46Z</time>
      </trkpt>
      <trkpt lat="45.90349" lon="5.76191">
        <ele>1508</ele>
        <time>2026-05-13T13:06:47Z</time>
      </trkpt>
      <trkpt lat="45.9035" lon="5.76194">
        <ele>1508</ele>
        <time>2026-05-13T13:06:48Z</time>
      </trkpt>
      <trkpt lat="45.90352" lon="5.76198">
        <ele>1508</ele>
        <time>2026-05-13T13:06:49Z</time>
      </trkpt>
      <trkpt lat="45.90354" lon="5.76201">
        <ele>1508</ele>
        <time>2026-05-13T13:06:50Z</time>
      </trkpt>
      <trkpt lat="45.90356" lon="5.76205">
        <ele>1508</ele>
        <time>2026-05-13T13:06:51Z</time>
      </trkpt>
      <trkpt lat="45.90358" lon="5.76208">
        <ele>1507.6</ele>
        <time>2026-05-13T13:06:52Z</time>
      </trkpt>
      <trkpt lat="45.90361" lon="5.76211">
        <ele>1507.6</ele>
        <time>2026-05-13T13:06:53Z</time>
      </trkpt>
      <trkpt lat="45.90363" lon="5.76214">
        <ele>1507.4</ele>
        <time>2026-05-13T13:06:54Z</time>
      </trkpt>
      <trkpt lat="45.90365" lon="5.76217">
        <ele>1507.2</ele>
        <time>2026-05-13T13:06:55Z</time>
      </trkpt>
      <trkpt lat="45.90368" lon="5.76222">
        <ele>1507.2</ele>
        <time>2026-05-13T13:06:56Z</time>
      </trkpt>
      <trkpt lat="45.9037" lon="5.76224">
        <ele>1506.8</ele>
        <time>2026-05-13T13:06:57Z</time>
      </trkpt>
      <trkpt lat="45.90371" lon="5.76226">
        <ele>1506.8</ele>
        <time>2026-05-13T13:06:58Z</time>
      </trkpt>
      <trkpt lat="45.90373" lon="5.76228">
        <ele>1506.4</ele>
        <time>2026-05-13T13:06:59Z</time>
      </trkpt>
      <trkpt lat="45.90374" lon="5.76229">
        <ele>1506.4</ele>
        <time>2026-05-13T13:07:00Z</time>
      </trkpt>
      <trkpt lat="45.90374" lon="5.76229">
        <ele>1506.4</ele>
        <time>2026-05-13T13:07:01Z</time>
      </trkpt>
      <trkpt lat="45.90375" lon="5.7623">
        <ele>1506.4</ele>
        <time>2026-05-13T13:07:02Z</time>
      </trkpt>
      <trkpt lat="45.90375" lon="5.7623">
        <ele>1506.4</ele>
        <time>2026-05-13T13:07:03Z</time>
      </trkpt>
      <trkpt lat="45.90375" lon="5.76234">
        <ele>1506.8</ele>
        <time>2026-05-13T13:07:17Z</time>
      </trkpt>
      <trkpt lat="45.90376" lon="5.76235">
        <ele>1506.4</ele>
        <time>2026-05-13T13:07:18Z</time>
      </trkpt>
      <trkpt lat="45.90376" lon="5.76236">
        <ele>1506.4</ele>
        <time>2026-05-13T13:07:19Z</time>
      </trkpt>
      <trkpt lat="45.90377" lon="5.76236">
        <ele>1506.4</ele>
        <time>2026-05-13T13:07:20Z</time>
      </trkpt>
      <trkpt lat="45.90378" lon="5.76236">
        <ele>1506.4</ele>
        <time>2026-05-13T13:07:21Z</time>
      </trkpt>
      <trkpt lat="45.90378" lon="5.76235">
        <ele>1506.4</ele>
        <time>2026-05-13T13:07:22Z</time>
      </trkpt>
      <trkpt lat="45.90378" lon="5.76234">
        <ele>1506.2</ele>
        <time>2026-05-13T13:07:23Z</time>
      </trkpt>
      <trkpt lat="45.90378" lon="5.76235">
        <ele>1506</ele>
        <time>2026-05-13T13:07:39Z</time>
      </trkpt>
      <trkpt lat="45.90378" lon="5.76235">
        <ele>1506</ele>
        <time>2026-05-13T13:07:40Z</time>
      </trkpt>
      <trkpt lat="45.90378" lon="5.76235">
        <ele>1506</ele>
        <time>2026-05-13T13:07:41Z</time>
      </trkpt>
      <trkpt lat="45.90379" lon="5.76234">
        <ele>1506.6</ele>
        <time>2026-05-13T13:10:28Z</time>
      </trkpt>
      <trkpt lat="45.90379" lon="5.76233">
        <ele>1506.2</ele>
        <time>2026-05-13T13:10:33Z</time>
      </trkpt>
      <trkpt lat="45.90379" lon="5.76233">
        <ele>1506.2</ele>
        <time>2026-05-13T13:10:34Z</time>
      </trkpt>
      <trkpt lat="45.90379" lon="5.76233">
        <ele>1506.2</ele>
        <time>2026-05-13T13:10:35Z</time>
      </trkpt>
      <trkpt lat="45.90377" lon="5.76233">
        <ele>1506.8</ele>
        <time>2026-05-13T13:34:55Z</time>
      </trkpt>
      <trkpt lat="45.90377" lon="5.76232">
        <ele>1506.8</ele>
        <time>2026-05-13T13:34:56Z</time>
      </trkpt>
      <trkpt lat="45.90377" lon="5.76232">
        <ele>1506.4</ele>
        <time>2026-05-13T13:34:57Z</time>
      </trkpt>
      <trkpt lat="45.90376" lon="5.7623">
        <ele>1506.2</ele>
        <time>2026-05-13T13:34:59Z</time>
      </trkpt>
      <trkpt lat="45.90377" lon="5.76237">
        <ele>1507</ele>
        <time>2026-05-13T14:05:50Z</time>
      </trkpt>
      <trkpt lat="45.90377" lon="5.76237">
        <ele>1507</ele>
        <time>2026-05-13T14:05:51Z</time>
      </trkpt>
      <trkpt lat="45.90377" lon="5.76237">
        <ele>1507</ele>
        <time>2026-05-13T14:05:52Z</time>
      </trkpt>
      <trkpt lat="45.90377" lon="5.7624">
        <ele>1507.4</ele>
        <time>2026-05-13T14:05:54Z</time>
      </trkpt>
      <trkpt lat="45.90376" lon="5.7624">
        <ele>1507.4</ele>
        <time>2026-05-13T14:05:55Z</time>
      </trkpt>
      <trkpt lat="45.90376" lon="5.7624">
        <ele>1507.4</ele>
        <time>2026-05-13T14:05:56Z</time>
      </trkpt>
      <trkpt lat="45.90376" lon="5.76241">
        <ele>1507.4</ele>
        <time>2026-05-13T14:05:57Z</time>
      </trkpt>
      <trkpt lat="45.90376" lon="5.76241">
        <ele>1507.4</ele>
        <time>2026-05-13T14:05:58Z</time>
      </trkpt>
      <trkpt lat="45.90376" lon="5.76241">
        <ele>1507.4</ele>
        <time>2026-05-13T14:05:59Z</time>
      </trkpt>
      <trkpt lat="45.90376" lon="5.76241">
        <ele>1507.4</ele>
        <time>2026-05-13T14:06:00Z</time>
      </trkpt>
      <trkpt lat="45.90375" lon="5.76242">
        <ele>1507.4</ele>
        <time>2026-05-13T14:06:01Z</time>
      </trkpt>
      <trkpt lat="45.90374" lon="5.76244">
        <ele>1507.4</ele>
        <time>2026-05-13T14:06:02Z</time>
      </trkpt>
      <trkpt lat="45.90373" lon="5.76247">
        <ele>1506.8</ele>
        <time>2026-05-13T14:06:03Z</time>
      </trkpt>
      <trkpt lat="45.90371" lon="5.7625">
        <ele>1506.4</ele>
        <time>2026-05-13T14:06:04Z</time>
      </trkpt>
      <trkpt lat="45.90369" lon="5.76254">
        <ele>1506</ele>
        <time>2026-05-13T14:06:05Z</time>
      </trkpt>
      <trkpt lat="45.90368" lon="5.76256">
        <ele>1505.8</ele>
        <time>2026-05-13T14:06:06Z</time>
      </trkpt>
      <trkpt lat="45.90366" lon="5.76258">
        <ele>1505.4</ele>
        <time>2026-05-13T14:06:07Z</time>
      </trkpt>
      <trkpt lat="45.90365" lon="5.76261">
        <ele>1505</ele>
        <time>2026-05-13T14:06:08Z</time>
      </trkpt>
      <trkpt lat="45.90364" lon="5.76263">
        <ele>1505</ele>
        <time>2026-05-13T14:06:09Z</time>
      </trkpt>
      <trkpt lat="45.90364" lon="5.76263">
        <ele>1504.8</ele>
        <time>2026-05-13T14:06:10Z</time>
      </trkpt>
      <trkpt lat="45.90362" lon="5.76267">
        <ele>1504.8</ele>
        <time>2026-05-13T14:06:11Z</time>
      </trkpt>
      <trkpt lat="45.90361" lon="5.76268">
        <ele>1504.8</ele>
        <time>2026-05-13T14:06:12Z</time>
      </trkpt>
      <trkpt lat="45.90361" lon="5.76269">
        <ele>1504.8</ele>
        <time>2026-05-13T14:06:13Z</time>
      </trkpt>
      <trkpt lat="45.90361" lon="5.76269">
        <ele>1504.8</ele>
        <time>2026-05-13T14:06:14Z</time>
      </trkpt>
      <trkpt lat="45.90361" lon="5.76269">
        <ele>1504.8</ele>
        <time>2026-05-13T14:06:15Z</time>
      </trkpt>
      <trkpt lat="45.90361" lon="5.76269">
        <ele>1504.8</ele>
        <time>2026-05-13T14:06:16Z</time>
      </trkpt>
      <trkpt lat="45.90363" lon="5.76271">
        <ele>1505</ele>
        <time>2026-05-13T14:06:22Z</time>
      </trkpt>
      <trkpt lat="45.90363" lon="5.76271">
        <ele>1505.2</ele>
        <time>2026-05-13T14:06:23Z</time>
      </trkpt>
      <trkpt lat="45.90363" lon="5.76271">
        <ele>1505.2</ele>
        <time>2026-05-13T14:06:24Z</time>
      </trkpt>
      <trkpt lat="45.90363" lon="5.76269">
        <ele>1505.4</ele>
        <time>2026-05-13T14:08:43Z</time>
      </trkpt>
      <trkpt lat="45.90362" lon="5.76268">
        <ele>1505.2</ele>
        <time>2026-05-13T14:08:44Z</time>
      </trkpt>
      <trkpt lat="45.90362" lon="5.76268">
        <ele>1505</ele>
        <time>2026-05-13T14:08:45Z</time>
      </trkpt>
      <trkpt lat="45.90363" lon="5.76268">
        <ele>1505</ele>
        <time>2026-05-13T14:08:46Z</time>
      </trkpt>
      <trkpt lat="45.90362" lon="5.76269">
        <ele>1505</ele>
        <time>2026-05-13T14:10:07Z</time>
      </trkpt>
      <trkpt lat="45.90362" lon="5.76269">
        <ele>1504.6</ele>
        <time>2026-05-13T14:10:08Z</time>
      </trkpt>
      <trkpt lat="45.90362" lon="5.7627">
        <ele>1504.6</ele>
        <time>2026-05-13T14:10:09Z</time>
      </trkpt>
      <trkpt lat="45.90362" lon="5.7627">
        <ele>1504.4</ele>
        <time>2026-05-13T14:10:10Z</time>
      </trkpt>
      <trkpt lat="45.9036" lon="5.7627">
        <ele>1504.4</ele>
        <time>2026-05-13T14:10:16Z</time>
      </trkpt>
      <trkpt lat="45.9036" lon="5.7627">
        <ele>1504.4</ele>
        <time>2026-05-13T14:10:17Z</time>
      </trkpt>
      <trkpt lat="45.90359" lon="5.7627">
        <ele>1504.4</ele>
        <time>2026-05-13T14:10:18Z</time>
      </trkpt>
      <trkpt lat="45.90358" lon="5.76269">
        <ele>1504.4</ele>
        <time>2026-05-13T14:10:19Z</time>
      </trkpt>
      <trkpt lat="45.90357" lon="5.76268">
        <ele>1504.4</ele>
        <time>2026-05-13T14:10:20Z</time>
      </trkpt>
      <trkpt lat="45.90357" lon="5.76268">
        <ele>1504.4</ele>
        <time>2026-05-13T14:10:21Z</time>
      </trkpt>
      <trkpt lat="45.90357" lon="5.76269">
        <ele>1504.2</ele>
        <time>2026-05-13T14:10:22Z</time>
      </trkpt>
      <trkpt lat="45.90356" lon="5.7627">
        <ele>1504.2</ele>
        <time>2026-05-13T14:10:23Z</time>
      </trkpt>
      <trkpt lat="45.90356" lon="5.7627">
        <ele>1504.2</ele>
        <time>2026-05-13T14:10:24Z</time>
      </trkpt>
      <trkpt lat="45.90356" lon="5.76271">
        <ele>1503.8</ele>
        <time>2026-05-13T14:10:25Z</time>
      </trkpt>
      <trkpt lat="45.90354" lon="5.76272">
        <ele>1503.8</ele>
        <time>2026-05-13T14:10:26Z</time>
      </trkpt>
      <trkpt lat="45.90353" lon="5.76274">
        <ele>1503.8</ele>
        <time>2026-05-13T14:10:27Z</time>
      </trkpt>
      <trkpt lat="45.90351" lon="5.76277">
        <ele>1504</ele>
        <time>2026-05-13T14:10:28Z</time>
      </trkpt>
      <trkpt lat="45.90349" lon="5.76281">
        <ele>1504</ele>
        <time>2026-05-13T14:10:29Z</time>
      </trkpt>
      <trkpt lat="45.90347" lon="5.76284">
        <ele>1504</ele>
        <time>2026-05-13T14:10:30Z</time>
      </trkpt>
      <trkpt lat="45.90345" lon="5.76288">
        <ele>1503.6</ele>
        <time>2026-05-13T14:10:31Z</time>
      </trkpt>
      <trkpt lat="45.90344" lon="5.76291">
        <ele>1503.8</ele>
        <time>2026-05-13T14:10:32Z</time>
      </trkpt>
      <trkpt lat="45.90342" lon="5.76295">
        <ele>1503.4</ele>
        <time>2026-05-13T14:10:33Z</time>
      </trkpt>
      <trkpt lat="45.9034" lon="5.76297">
        <ele>1503</ele>
        <time>2026-05-13T14:10:34Z</time>
      </trkpt>
      <trkpt lat="45.90339" lon="5.76299">
        <ele>1502.4</ele>
        <time>2026-05-13T14:10:35Z</time>
      </trkpt>
      <trkpt lat="45.90337" lon="5.763">
        <ele>1502.2</ele>
        <time>2026-05-13T14:10:36Z</time>
      </trkpt>
      <trkpt lat="45.90334" lon="5.76301">
        <ele>1501.8</ele>
        <time>2026-05-13T14:10:37Z</time>
      </trkpt>
      <trkpt lat="45.90331" lon="5.76301">
        <ele>1501.2</ele>
        <time>2026-05-13T14:10:38Z</time>
      </trkpt>
      <trkpt lat="45.90328" lon="5.763">
        <ele>1501</ele>
        <time>2026-05-13T14:10:39Z</time>
      </trkpt>
      <trkpt lat="45.90325" lon="5.76298">
        <ele>1500.6</ele>
        <time>2026-05-13T14:10:40Z</time>
      </trkpt>
      <trkpt lat="45.90322" lon="5.76296">
        <ele>1500.4</ele>
        <time>2026-05-13T14:10:41Z</time>
      </trkpt>
      <trkpt lat="45.90319" lon="5.76294">
        <ele>1499.4</ele>
        <time>2026-05-13T14:10:42Z</time>
      </trkpt>
      <trkpt lat="45.90315" lon="5.76293">
        <ele>1499.6</ele>
        <time>2026-05-13T14:10:43Z</time>
      </trkpt>
      <trkpt lat="45.90311" lon="5.76291">
        <ele>1499</ele>
        <time>2026-05-13T14:10:44Z</time>
      </trkpt>
      <trkpt lat="45.90307" lon="5.76289">
        <ele>1498.4</ele>
        <time>2026-05-13T14:10:45Z</time>
      </trkpt>
      <trkpt lat="45.90302" lon="5.76289">
        <ele>1497.8</ele>
        <time>2026-05-13T14:10:46Z</time>
      </trkpt>
      <trkpt lat="45.90296" lon="5.76289">
        <ele>1497.2</ele>
        <time>2026-05-13T14:10:47Z</time>
      </trkpt>
      <trkpt lat="45.9029" lon="5.76289">
        <ele>1496.8</ele>
        <time>2026-05-13T14:10:48Z</time>
      </trkpt>
      <trkpt lat="45.90284" lon="5.76289">
        <ele>1496</ele>
        <time>2026-05-13T14:10:49Z</time>
      </trkpt>
      <trkpt lat="45.90277" lon="5.7629">
        <ele>1495.2</ele>
        <time>2026-05-13T14:10:50Z</time>
      </trkpt>
      <trkpt lat="45.90271" lon="5.7629">
        <ele>1494.6</ele>
        <time>2026-05-13T14:10:51Z</time>
      </trkpt>
      <trkpt lat="45.90265" lon="5.76291">
        <ele>1493.6</ele>
        <time>2026-05-13T14:10:52Z</time>
      </trkpt>
      <trkpt lat="45.9026" lon="5.76292">
        <ele>1493.2</ele>
        <time>2026-05-13T14:10:53Z</time>
      </trkpt>
      <trkpt lat="45.90255" lon="5.76293">
        <ele>1492.8</ele>
        <time>2026-05-13T14:10:54Z</time>
      </trkpt>
      <trkpt lat="45.9025" lon="5.76294">
        <ele>1492.6</ele>
        <time>2026-05-13T14:10:55Z</time>
      </trkpt>
      <trkpt lat="45.90245" lon="5.76295">
        <ele>1492</ele>
        <time>2026-05-13T14:10:56Z</time>
      </trkpt>
      <trkpt lat="45.9024" lon="5.76295">
        <ele>1491.6</ele>
        <time>2026-05-13T14:10:57Z</time>
      </trkpt>
      <trkpt lat="45.90234" lon="5.76295">
        <ele>1491</ele>
        <time>2026-05-13T14:10:58Z</time>
      </trkpt>
      <trkpt lat="45.9023" lon="5.76296">
        <ele>1490.4</ele>
        <time>2026-05-13T14:10:59Z</time>
      </trkpt>
      <trkpt lat="45.90225" lon="5.76297">
        <ele>1489.4</ele>
        <time>2026-05-13T14:11:00Z</time>
      </trkpt>
      <trkpt lat="45.9022" lon="5.76299">
        <ele>1489</ele>
        <time>2026-05-13T14:11:01Z</time>
      </trkpt>
      <trkpt lat="45.90216" lon="5.763">
        <ele>1488.4</ele>
        <time>2026-05-13T14:11:02Z</time>
      </trkpt>
      <trkpt lat="45.90214" lon="5.76302">
        <ele>1488</ele>
        <time>2026-05-13T14:11:03Z</time>
      </trkpt>
      <trkpt lat="45.90212" lon="5.76304">
        <ele>1487.6</ele>
        <time>2026-05-13T14:11:04Z</time>
      </trkpt>
      <trkpt lat="45.9021" lon="5.76305">
        <ele>1487</ele>
        <time>2026-05-13T14:11:05Z</time>
      </trkpt>
      <trkpt lat="45.90208" lon="5.76307">
        <ele>1486.6</ele>
        <time>2026-05-13T14:11:06Z</time>
      </trkpt>
      <trkpt lat="45.90207" lon="5.7631">
        <ele>1486.6</ele>
        <time>2026-05-13T14:11:07Z</time>
      </trkpt>
      <trkpt lat="45.90206" lon="5.76312">
        <ele>1486.2</ele>
        <time>2026-05-13T14:11:08Z</time>
      </trkpt>
      <trkpt lat="45.90205" lon="5.76315">
        <ele>1486</ele>
        <time>2026-05-13T14:11:09Z</time>
      </trkpt>
      <trkpt lat="45.90204" lon="5.76316">
        <ele>1485.8</ele>
        <time>2026-05-13T14:11:10Z</time>
      </trkpt>
      <trkpt lat="45.90204" lon="5.76317">
        <ele>1485.8</ele>
        <time>2026-05-13T14:11:11Z</time>
      </trkpt>
      <trkpt lat="45.90204" lon="5.76317">
        <ele>1485.8</ele>
        <time>2026-05-13T14:11:12Z</time>
      </trkpt>
      <trkpt lat="45.90205" lon="5.76314">
        <ele>1484.8</ele>
        <time>2026-05-13T14:11:58Z</time>
      </trkpt>
      <trkpt lat="45.90203" lon="5.76314">
        <ele>1484.8</ele>
        <time>2026-05-13T14:11:59Z</time>
      </trkpt>
      <trkpt lat="45.90203" lon="5.76314">
        <ele>1485</ele>
        <time>2026-05-13T14:12:00Z</time>
      </trkpt>
      <trkpt lat="45.90203" lon="5.76314">
        <ele>1485</ele>
        <time>2026-05-13T14:12:01Z</time>
      </trkpt>
      <trkpt lat="45.90202" lon="5.76314">
        <ele>1485</ele>
        <time>2026-05-13T14:12:07Z</time>
      </trkpt>
      <trkpt lat="45.902" lon="5.76313">
        <ele>1485</ele>
        <time>2026-05-13T14:12:08Z</time>
      </trkpt>
      <trkpt lat="45.90199" lon="5.76311">
        <ele>1484.8</ele>
        <time>2026-05-13T14:12:09Z</time>
      </trkpt>
      <trkpt lat="45.90197" lon="5.76309">
        <ele>1484.6</ele>
        <time>2026-05-13T14:12:10Z</time>
      </trkpt>
      <trkpt lat="45.90195" lon="5.76308">
        <ele>1484.6</ele>
        <time>2026-05-13T14:12:11Z</time>
      </trkpt>
      <trkpt lat="45.90193" lon="5.76306">
        <ele>1483.8</ele>
        <time>2026-05-13T14:12:12Z</time>
      </trkpt>
      <trkpt lat="45.9019" lon="5.76305">
        <ele>1483.2</ele>
        <time>2026-05-13T14:12:13Z</time>
      </trkpt>
      <trkpt lat="45.90187" lon="5.76304">
        <ele>1482.6</ele>
        <time>2026-05-13T14:12:14Z</time>
      </trkpt>
      <trkpt lat="45.90182" lon="5.76303">
        <ele>1482.4</ele>
        <time>2026-05-13T14:12:15Z</time>
      </trkpt>
      <trkpt lat="45.90178" lon="5.76303">
        <ele>1481.8</ele>
        <time>2026-05-13T14:12:16Z</time>
      </trkpt>
      <trkpt lat="45.90173" lon="5.76305">
        <ele>1481.4</ele>
        <time>2026-05-13T14:12:17Z</time>
      </trkpt>
      <trkpt lat="45.90167" lon="5.76303">
        <ele>1480.8</ele>
        <time>2026-05-13T14:12:18Z</time>
      </trkpt>
      <trkpt lat="45.90161" lon="5.76303">
        <ele>1480.4</ele>
        <time>2026-05-13T14:12:19Z</time>
      </trkpt>
      <trkpt lat="45.90155" lon="5.76303">
        <ele>1479.8</ele>
        <time>2026-05-13T14:12:20Z</time>
      </trkpt>
      <trkpt lat="45.9015" lon="5.76304">
        <ele>1479.4</ele>
        <time>2026-05-13T14:12:21Z</time>
      </trkpt>
      <trkpt lat="45.90144" lon="5.76305">
        <ele>1479.2</ele>
        <time>2026-05-13T14:12:22Z</time>
      </trkpt>
      <trkpt lat="45.90139" lon="5.76305">
        <ele>1478.6</ele>
        <time>2026-05-13T14:12:23Z</time>
      </trkpt>
      <trkpt lat="45.90133" lon="5.76306">
        <ele>1478</ele>
        <time>2026-05-13T14:12:24Z</time>
      </trkpt>
      <trkpt lat="45.90127" lon="5.76308">
        <ele>1477.6</ele>
        <time>2026-05-13T14:12:25Z</time>
      </trkpt>
      <trkpt lat="45.90122" lon="5.76309">
        <ele>1477.6</ele>
        <time>2026-05-13T14:12:26Z</time>
      </trkpt>
      <trkpt lat="45.90118" lon="5.76309">
        <ele>1477</ele>
        <time>2026-05-13T14:12:27Z</time>
      </trkpt>
      <trkpt lat="45.90114" lon="5.7631">
        <ele>1476.4</ele>
        <time>2026-05-13T14:12:28Z</time>
      </trkpt>
      <trkpt lat="45.90111" lon="5.7631">
        <ele>1476.2</ele>
        <time>2026-05-13T14:12:29Z</time>
      </trkpt>
      <trkpt lat="45.90108" lon="5.76311">
        <ele>1475.8</ele>
        <time>2026-05-13T14:12:30Z</time>
      </trkpt>
      <trkpt lat="45.90105" lon="5.7631">
        <ele>1475.4</ele>
        <time>2026-05-13T14:12:31Z</time>
      </trkpt>
      <trkpt lat="45.90101" lon="5.76311">
        <ele>1475.2</ele>
        <time>2026-05-13T14:12:32Z</time>
      </trkpt>
      <trkpt lat="45.90098" lon="5.76312">
        <ele>1475.2</ele>
        <time>2026-05-13T14:12:33Z</time>
      </trkpt>
      <trkpt lat="45.90095" lon="5.76312">
        <ele>1474.6</ele>
        <time>2026-05-13T14:12:34Z</time>
      </trkpt>
      <trkpt lat="45.90092" lon="5.76313">
        <ele>1474.4</ele>
        <time>2026-05-13T14:12:35Z</time>
      </trkpt>
      <trkpt lat="45.90089" lon="5.76314">
        <ele>1473.8</ele>
        <time>2026-05-13T14:12:36Z</time>
      </trkpt>
      <trkpt lat="45.90086" lon="5.76314">
        <ele>1473.4</ele>
        <time>2026-05-13T14:12:37Z</time>
      </trkpt>
      <trkpt lat="45.90082" lon="5.76314">
        <ele>1472.8</ele>
        <time>2026-05-13T14:12:38Z</time>
      </trkpt>
      <trkpt lat="45.90079" lon="5.76315">
        <ele>1472.4</ele>
        <time>2026-05-13T14:12:39Z</time>
      </trkpt>
      <trkpt lat="45.90074" lon="5.76316">
        <ele>1472</ele>
        <time>2026-05-13T14:12:40Z</time>
      </trkpt>
      <trkpt lat="45.90069" lon="5.76317">
        <ele>1471.4</ele>
        <time>2026-05-13T14:12:41Z</time>
      </trkpt>
      <trkpt lat="45.90063" lon="5.76318">
        <ele>1470.4</ele>
        <time>2026-05-13T14:12:42Z</time>
      </trkpt>
      <trkpt lat="45.90057" lon="5.7632">
        <ele>1469.8</ele>
        <time>2026-05-13T14:12:43Z</time>
      </trkpt>
      <trkpt lat="45.90042" lon="5.76327">
        <ele>1469.2</ele>
        <time>2026-05-13T14:12:44Z</time>
      </trkpt>
      <trkpt lat="45.90034" lon="5.76332">
        <ele>1468</ele>
        <time>2026-05-13T14:12:45Z</time>
      </trkpt>
      <trkpt lat="45.90025" lon="5.76336">
        <ele>1466.8</ele>
        <time>2026-05-13T14:12:46Z</time>
      </trkpt>
      <trkpt lat="45.90016" lon="5.7634">
        <ele>1465.4</ele>
        <time>2026-05-13T14:12:47Z</time>
      </trkpt>
      <trkpt lat="45.90007" lon="5.76344">
        <ele>1464.4</ele>
        <time>2026-05-13T14:12:48Z</time>
      </trkpt>
      <trkpt lat="45.89997" lon="5.76345">
        <ele>1463.2</ele>
        <time>2026-05-13T14:12:49Z</time>
      </trkpt>
      <trkpt lat="45.89987" lon="5.76346">
        <ele>1462</ele>
        <time>2026-05-13T14:12:50Z</time>
      </trkpt>
      <trkpt lat="45.89978" lon="5.76349">
        <ele>1461</ele>
        <time>2026-05-13T14:12:51Z</time>
      </trkpt>
      <trkpt lat="45.89969" lon="5.76349">
        <ele>1460</ele>
        <time>2026-05-13T14:12:52Z</time>
      </trkpt>
      <trkpt lat="45.89959" lon="5.76348">
        <ele>1459.2</ele>
        <time>2026-05-13T14:12:53Z</time>
      </trkpt>
      <trkpt lat="45.89949" lon="5.76345">
        <ele>1458.2</ele>
        <time>2026-05-13T14:12:54Z</time>
      </trkpt>
      <trkpt lat="45.8994" lon="5.76341">
        <ele>1457</ele>
        <time>2026-05-13T14:12:55Z</time>
      </trkpt>
      <trkpt lat="45.89931" lon="5.76337">
        <ele>1456</ele>
        <time>2026-05-13T14:12:56Z</time>
      </trkpt>
      <trkpt lat="45.89922" lon="5.76331">
        <ele>1454.8</ele>
        <time>2026-05-13T14:12:57Z</time>
      </trkpt>
      <trkpt lat="45.89913" lon="5.76324">
        <ele>1453.6</ele>
        <time>2026-05-13T14:12:58Z</time>
      </trkpt>
      <trkpt lat="45.89904" lon="5.76318">
        <ele>1452</ele>
        <time>2026-05-13T14:12:59Z</time>
      </trkpt>
      <trkpt lat="45.89895" lon="5.76311">
        <ele>1451.6</ele>
        <time>2026-05-13T14:13:00Z</time>
      </trkpt>
      <trkpt lat="45.89885" lon="5.76305">
        <ele>1450.8</ele>
        <time>2026-05-13T14:13:01Z</time>
      </trkpt>
      <trkpt lat="45.89876" lon="5.76299">
        <ele>1450</ele>
        <time>2026-05-13T14:13:02Z</time>
      </trkpt>
      <trkpt lat="45.89866" lon="5.76293">
        <ele>1449.4</ele>
        <time>2026-05-13T14:13:03Z</time>
      </trkpt>
      <trkpt lat="45.89856" lon="5.76287">
        <ele>1448.6</ele>
        <time>2026-05-13T14:13:04Z</time>
      </trkpt>
      <trkpt lat="45.89846" lon="5.76282">
        <ele>1448</ele>
        <time>2026-05-13T14:13:05Z</time>
      </trkpt>
      <trkpt lat="45.89836" lon="5.76278">
        <ele>1447.4</ele>
        <time>2026-05-13T14:13:06Z</time>
      </trkpt>
      <trkpt lat="45.89826" lon="5.76274">
        <ele>1446.6</ele>
        <time>2026-05-13T14:13:07Z</time>
      </trkpt>
      <trkpt lat="45.89817" lon="5.76271">
        <ele>1446</ele>
        <time>2026-05-13T14:13:08Z</time>
      </trkpt>
      <trkpt lat="45.89809" lon="5.76268">
        <ele>1445.2</ele>
        <time>2026-05-13T14:13:09Z</time>
      </trkpt>
      <trkpt lat="45.89801" lon="5.76264">
        <ele>1444.6</ele>
        <time>2026-05-13T14:13:10Z</time>
      </trkpt>
      <trkpt lat="45.89793" lon="5.76261">
        <ele>1443.8</ele>
        <time>2026-05-13T14:13:11Z</time>
      </trkpt>
      <trkpt lat="45.89785" lon="5.76258">
        <ele>1443.2</ele>
        <time>2026-05-13T14:13:12Z</time>
      </trkpt>
      <trkpt lat="45.89777" lon="5.76255">
        <ele>1442.8</ele>
        <time>2026-05-13T14:13:13Z</time>
      </trkpt>
      <trkpt lat="45.89768" lon="5.76253">
        <ele>1441.8</ele>
        <time>2026-05-13T14:13:14Z</time>
      </trkpt>
      <trkpt lat="45.89761" lon="5.76249">
        <ele>1441.4</ele>
        <time>2026-05-13T14:13:15Z</time>
      </trkpt>
      <trkpt lat="45.89753" lon="5.76245">
        <ele>1440.6</ele>
        <time>2026-05-13T14:13:16Z</time>
      </trkpt>
      <trkpt lat="45.89745" lon="5.76242">
        <ele>1440.4</ele>
        <time>2026-05-13T14:13:17Z</time>
      </trkpt>
      <trkpt lat="45.89738" lon="5.76237">
        <ele>1439.8</ele>
        <time>2026-05-13T14:13:18Z</time>
      </trkpt>
      <trkpt lat="45.89729" lon="5.76233">
        <ele>1439.2</ele>
        <time>2026-05-13T14:13:19Z</time>
      </trkpt>
      <trkpt lat="45.89721" lon="5.76229">
        <ele>1438.8</ele>
        <time>2026-05-13T14:13:20Z</time>
      </trkpt>
      <trkpt lat="45.89712" lon="5.76225">
        <ele>1438</ele>
        <time>2026-05-13T14:13:21Z</time>
      </trkpt>
      <trkpt lat="45.89703" lon="5.76222">
        <ele>1438</ele>
        <time>2026-05-13T14:13:22Z</time>
      </trkpt>
      <trkpt lat="45.89694" lon="5.76218">
        <ele>1437.2</ele>
        <time>2026-05-13T14:13:23Z</time>
      </trkpt>
      <trkpt lat="45.89686" lon="5.76215">
        <ele>1436.2</ele>
        <time>2026-05-13T14:13:24Z</time>
      </trkpt>
      <trkpt lat="45.89677" lon="5.76211">
        <ele>1435.2</ele>
        <time>2026-05-13T14:13:25Z</time>
      </trkpt>
      <trkpt lat="45.89668" lon="5.76207">
        <ele>1434.4</ele>
        <time>2026-05-13T14:13:26Z</time>
      </trkpt>
      <trkpt lat="45.89658" lon="5.76205">
        <ele>1433.2</ele>
        <time>2026-05-13T14:13:27Z</time>
      </trkpt>
      <trkpt lat="45.89649" lon="5.76202">
        <ele>1432.2</ele>
        <time>2026-05-13T14:13:28Z</time>
      </trkpt>
      <trkpt lat="45.8964" lon="5.76199">
        <ele>1432</ele>
        <time>2026-05-13T14:13:29Z</time>
      </trkpt>
      <trkpt lat="45.8963" lon="5.76196">
        <ele>1431.2</ele>
        <time>2026-05-13T14:13:30Z</time>
      </trkpt>
      <trkpt lat="45.89619" lon="5.76194">
        <ele>1430.2</ele>
        <time>2026-05-13T14:13:31Z</time>
      </trkpt>
      <trkpt lat="45.89608" lon="5.76191">
        <ele>1429</ele>
        <time>2026-05-13T14:13:32Z</time>
      </trkpt>
      <trkpt lat="45.89598" lon="5.76189">
        <ele>1427.8</ele>
        <time>2026-05-13T14:13:33Z</time>
      </trkpt>
      <trkpt lat="45.89586" lon="5.76189">
        <ele>1427</ele>
        <time>2026-05-13T14:13:34Z</time>
      </trkpt>
      <trkpt lat="45.89575" lon="5.7619">
        <ele>1426.4</ele>
        <time>2026-05-13T14:13:35Z</time>
      </trkpt>
      <trkpt lat="45.89564" lon="5.7619">
        <ele>1425.8</ele>
        <time>2026-05-13T14:13:36Z</time>
      </trkpt>
      <trkpt lat="45.89555" lon="5.7619">
        <ele>1425.2</ele>
        <time>2026-05-13T14:13:37Z</time>
      </trkpt>
      <trkpt lat="45.89545" lon="5.76188">
        <ele>1425.2</ele>
        <time>2026-05-13T14:13:38Z</time>
      </trkpt>
      <trkpt lat="45.89536" lon="5.76188">
        <ele>1424.8</ele>
        <time>2026-05-13T14:13:39Z</time>
      </trkpt>
      <trkpt lat="45.89526" lon="5.76187">
        <ele>1424.4</ele>
        <time>2026-05-13T14:13:40Z</time>
      </trkpt>
      <trkpt lat="45.89518" lon="5.76186">
        <ele>1424.4</ele>
        <time>2026-05-13T14:13:41Z</time>
      </trkpt>
      <trkpt lat="45.89509" lon="5.76186">
        <ele>1424</ele>
        <time>2026-05-13T14:13:42Z</time>
      </trkpt>
      <trkpt lat="45.895" lon="5.76185">
        <ele>1424</ele>
        <time>2026-05-13T14:13:43Z</time>
      </trkpt>
      <trkpt lat="45.89491" lon="5.76184">
        <ele>1423.8</ele>
        <time>2026-05-13T14:13:44Z</time>
      </trkpt>
      <trkpt lat="45.89483" lon="5.76183">
        <ele>1423.8</ele>
        <time>2026-05-13T14:13:45Z</time>
      </trkpt>
      <trkpt lat="45.89475" lon="5.76181">
        <ele>1423.8</ele>
        <time>2026-05-13T14:13:46Z</time>
      </trkpt>
      <trkpt lat="45.89467" lon="5.76179">
        <ele>1423.8</ele>
        <time>2026-05-13T14:13:47Z</time>
      </trkpt>
      <trkpt lat="45.89459" lon="5.76177">
        <ele>1423.8</ele>
        <time>2026-05-13T14:13:48Z</time>
      </trkpt>
      <trkpt lat="45.89452" lon="5.76176">
        <ele>1423.4</ele>
        <time>2026-05-13T14:13:49Z</time>
      </trkpt>
      <trkpt lat="45.89444" lon="5.76174">
        <ele>1423.4</ele>
        <time>2026-05-13T14:13:50Z</time>
      </trkpt>
      <trkpt lat="45.89436" lon="5.76173">
        <ele>1423.4</ele>
        <time>2026-05-13T14:13:51Z</time>
      </trkpt>
      <trkpt lat="45.89428" lon="5.76171">
        <ele>1423.4</ele>
        <time>2026-05-13T14:13:52Z</time>
      </trkpt>
      <trkpt lat="45.89421" lon="5.76169">
        <ele>1423.4</ele>
        <time>2026-05-13T14:13:53Z</time>
      </trkpt>
      <trkpt lat="45.89412" lon="5.76166">
        <ele>1423.4</ele>
        <time>2026-05-13T14:13:54Z</time>
      </trkpt>
      <trkpt lat="45.89405" lon="5.76164">
        <ele>1423.4</ele>
        <time>2026-05-13T14:13:55Z</time>
      </trkpt>
      <trkpt lat="45.89398" lon="5.76162">
        <ele>1423.2</ele>
        <time>2026-05-13T14:13:56Z</time>
      </trkpt>
      <trkpt lat="45.89391" lon="5.7616">
        <ele>1422.8</ele>
        <time>2026-05-13T14:13:57Z</time>
      </trkpt>
      <trkpt lat="45.89384" lon="5.76158">
        <ele>1422.8</ele>
        <time>2026-05-13T14:13:58Z</time>
      </trkpt>
      <trkpt lat="45.89377" lon="5.76156">
        <ele>1422.8</ele>
        <time>2026-05-13T14:13:59Z</time>
      </trkpt>
      <trkpt lat="45.8937" lon="5.76154">
        <ele>1422.4</ele>
        <time>2026-05-13T14:14:00Z</time>
      </trkpt>
      <trkpt lat="45.89364" lon="5.76153">
        <ele>1422</ele>
        <time>2026-05-13T14:14:01Z</time>
      </trkpt>
      <trkpt lat="45.89357" lon="5.76151">
        <ele>1421.8</ele>
        <time>2026-05-13T14:14:02Z</time>
      </trkpt>
      <trkpt lat="45.89351" lon="5.7615">
        <ele>1421.8</ele>
        <time>2026-05-13T14:14:03Z</time>
      </trkpt>
      <trkpt lat="45.89345" lon="5.76148">
        <ele>1421.8</ele>
        <time>2026-05-13T14:14:04Z</time>
      </trkpt>
      <trkpt lat="45.89338" lon="5.76146">
        <ele>1421.8</ele>
        <time>2026-05-13T14:14:05Z</time>
      </trkpt>
      <trkpt lat="45.89332" lon="5.76144">
        <ele>1421.8</ele>
        <time>2026-05-13T14:14:06Z</time>
      </trkpt>
      <trkpt lat="45.89326" lon="5.76143">
        <ele>1421.8</ele>
        <time>2026-05-13T14:14:07Z</time>
      </trkpt>
      <trkpt lat="45.8932" lon="5.76141">
        <ele>1421.8</ele>
        <time>2026-05-13T14:14:08Z</time>
      </trkpt>
      <trkpt lat="45.89315" lon="5.7614">
        <ele>1422</ele>
        <time>2026-05-13T14:14:09Z</time>
      </trkpt>
      <trkpt lat="45.8931" lon="5.76138">
        <ele>1422</ele>
        <time>2026-05-13T14:14:10Z</time>
      </trkpt>
      <trkpt lat="45.89304" lon="5.76137">
        <ele>1422</ele>
        <time>2026-05-13T14:14:11Z</time>
      </trkpt>
      <trkpt lat="45.893" lon="5.76135">
        <ele>1422</ele>
        <time>2026-05-13T14:14:12Z</time>
      </trkpt>
      <trkpt lat="45.89297" lon="5.76134">
        <ele>1422</ele>
        <time>2026-05-13T14:14:13Z</time>
      </trkpt>
      <trkpt lat="45.89293" lon="5.76133">
        <ele>1422</ele>
        <time>2026-05-13T14:14:14Z</time>
      </trkpt>
      <trkpt lat="45.8929" lon="5.76133">
        <ele>1422</ele>
        <time>2026-05-13T14:14:15Z</time>
      </trkpt>
      <trkpt lat="45.89286" lon="5.76132">
        <ele>1422</ele>
        <time>2026-05-13T14:14:16Z</time>
      </trkpt>
      <trkpt lat="45.89282" lon="5.76131">
        <ele>1422</ele>
        <time>2026-05-13T14:14:17Z</time>
      </trkpt>
      <trkpt lat="45.89277" lon="5.76131">
        <ele>1421.8</ele>
        <time>2026-05-13T14:14:18Z</time>
      </trkpt>
      <trkpt lat="45.89274" lon="5.76131">
        <ele>1421.8</ele>
        <time>2026-05-13T14:14:19Z</time>
      </trkpt>
      <trkpt lat="45.8927" lon="5.7613">
        <ele>1421.6</ele>
        <time>2026-05-13T14:14:20Z</time>
      </trkpt>
      <trkpt lat="45.89266" lon="5.76129">
        <ele>1421.4</ele>
        <time>2026-05-13T14:14:21Z</time>
      </trkpt>
      <trkpt lat="45.89261" lon="5.76128">
        <ele>1421.4</ele>
        <time>2026-05-13T14:14:22Z</time>
      </trkpt>
      <trkpt lat="45.89257" lon="5.76128">
        <ele>1421</ele>
        <time>2026-05-13T14:14:23Z</time>
      </trkpt>
      <trkpt lat="45.89253" lon="5.76128">
        <ele>1420.8</ele>
        <time>2026-05-13T14:14:24Z</time>
      </trkpt>
      <trkpt lat="45.89248" lon="5.76128">
        <ele>1420.8</ele>
        <time>2026-05-13T14:14:25Z</time>
      </trkpt>
      <trkpt lat="45.89244" lon="5.76127">
        <ele>1420.8</ele>
        <time>2026-05-13T14:14:26Z</time>
      </trkpt>
      <trkpt lat="45.8924" lon="5.76127">
        <ele>1420.6</ele>
        <time>2026-05-13T14:14:27Z</time>
      </trkpt>
      <trkpt lat="45.89236" lon="5.76126">
        <ele>1420.2</ele>
        <time>2026-05-13T14:14:28Z</time>
      </trkpt>
      <trkpt lat="45.89232" lon="5.76125">
        <ele>1420</ele>
        <time>2026-05-13T14:14:29Z</time>
      </trkpt>
      <trkpt lat="45.89228" lon="5.76125">
        <ele>1419.6</ele>
        <time>2026-05-13T14:14:30Z</time>
      </trkpt>
      <trkpt lat="45.89223" lon="5.76125">
        <ele>1419.6</ele>
        <time>2026-05-13T14:14:31Z</time>
      </trkpt>
      <trkpt lat="45.89219" lon="5.76123">
        <ele>1419</ele>
        <time>2026-05-13T14:14:32Z</time>
      </trkpt>
      <trkpt lat="45.89214" lon="5.76122">
        <ele>1418.8</ele>
        <time>2026-05-13T14:14:33Z</time>
      </trkpt>
      <trkpt lat="45.89209" lon="5.76121">
        <ele>1418.2</ele>
        <time>2026-05-13T14:14:34Z</time>
      </trkpt>
      <trkpt lat="45.89204" lon="5.7612">
        <ele>1417.8</ele>
        <time>2026-05-13T14:14:35Z</time>
      </trkpt>
      <trkpt lat="45.89198" lon="5.7612">
        <ele>1417.2</ele>
        <time>2026-05-13T14:14:36Z</time>
      </trkpt>
      <trkpt lat="45.89192" lon="5.76119">
        <ele>1416.4</ele>
        <time>2026-05-13T14:14:37Z</time>
      </trkpt>
      <trkpt lat="45.89186" lon="5.76118">
        <ele>1415.8</ele>
        <time>2026-05-13T14:14:38Z</time>
      </trkpt>
      <trkpt lat="45.89179" lon="5.76118">
        <ele>1415.2</ele>
        <time>2026-05-13T14:14:39Z</time>
      </trkpt>
      <trkpt lat="45.89173" lon="5.76117">
        <ele>1414.6</ele>
        <time>2026-05-13T14:14:40Z</time>
      </trkpt>
      <trkpt lat="45.89168" lon="5.76118">
        <ele>1414.2</ele>
        <time>2026-05-13T14:14:41Z</time>
      </trkpt>
      <trkpt lat="45.89161" lon="5.76117">
        <ele>1413.8</ele>
        <time>2026-05-13T14:14:42Z</time>
      </trkpt>
      <trkpt lat="45.89156" lon="5.76116">
        <ele>1413</ele>
        <time>2026-05-13T14:14:43Z</time>
      </trkpt>
      <trkpt lat="45.8915" lon="5.76115">
        <ele>1412.4</ele>
        <time>2026-05-13T14:14:44Z</time>
      </trkpt>
      <trkpt lat="45.89144" lon="5.76115">
        <ele>1412</ele>
        <time>2026-05-13T14:14:45Z</time>
      </trkpt>
      <trkpt lat="45.89137" lon="5.76115">
        <ele>1411.4</ele>
        <time>2026-05-13T14:14:46Z</time>
      </trkpt>
      <trkpt lat="45.89131" lon="5.76116">
        <ele>1410.8</ele>
        <time>2026-05-13T14:14:47Z</time>
      </trkpt>
      <trkpt lat="45.89124" lon="5.76115">
        <ele>1410.2</ele>
        <time>2026-05-13T14:14:48Z</time>
      </trkpt>
      <trkpt lat="45.89118" lon="5.76114">
        <ele>1409.6</ele>
        <time>2026-05-13T14:14:49Z</time>
      </trkpt>
      <trkpt lat="45.89113" lon="5.76113">
        <ele>1409</ele>
        <time>2026-05-13T14:14:50Z</time>
      </trkpt>
      <trkpt lat="45.89106" lon="5.76112">
        <ele>1408.2</ele>
        <time>2026-05-13T14:14:51Z</time>
      </trkpt>
      <trkpt lat="45.89097" lon="5.76111">
        <ele>1407.4</ele>
        <time>2026-05-13T14:14:52Z</time>
      </trkpt>
      <trkpt lat="45.89089" lon="5.7611">
        <ele>1406.8</ele>
        <time>2026-05-13T14:14:53Z</time>
      </trkpt>
      <trkpt lat="45.89089" lon="5.7611">
        <ele>1406</ele>
        <time>2026-05-13T14:14:54Z</time>
      </trkpt>
      <trkpt lat="45.89082" lon="5.76111">
        <ele>1405.2</ele>
        <time>2026-05-13T14:14:55Z</time>
      </trkpt>
      <trkpt lat="45.89075" lon="5.7611">
        <ele>1404.6</ele>
        <time>2026-05-13T14:14:56Z</time>
      </trkpt>
      <trkpt lat="45.89067" lon="5.7611">
        <ele>1404.2</ele>
        <time>2026-05-13T14:14:57Z</time>
      </trkpt>
      <trkpt lat="45.8906" lon="5.7611">
        <ele>1403.2</ele>
        <time>2026-05-13T14:14:58Z</time>
      </trkpt>
      <trkpt lat="45.89053" lon="5.7611">
        <ele>1403</ele>
        <time>2026-05-13T14:14:59Z</time>
      </trkpt>
      <trkpt lat="45.89044" lon="5.7611">
        <ele>1402.6</ele>
        <time>2026-05-13T14:15:00Z</time>
      </trkpt>
      <trkpt lat="45.89035" lon="5.7611">
        <ele>1402</ele>
        <time>2026-05-13T14:15:01Z</time>
      </trkpt>
      <trkpt lat="45.89027" lon="5.7611">
        <ele>1401</ele>
        <time>2026-05-13T14:15:02Z</time>
      </trkpt>
      <trkpt lat="45.89018" lon="5.76108">
        <ele>1400.4</ele>
        <time>2026-05-13T14:15:03Z</time>
      </trkpt>
      <trkpt lat="45.89009" lon="5.76107">
        <ele>1399.8</ele>
        <time>2026-05-13T14:15:04Z</time>
      </trkpt>
      <trkpt lat="45.89" lon="5.76106">
        <ele>1399.2</ele>
        <time>2026-05-13T14:15:05Z</time>
      </trkpt>
      <trkpt lat="45.88992" lon="5.76105">
        <ele>1398.6</ele>
        <time>2026-05-13T14:15:06Z</time>
      </trkpt>
      <trkpt lat="45.88984" lon="5.76105">
        <ele>1398</ele>
        <time>2026-05-13T14:15:07Z</time>
      </trkpt>
      <trkpt lat="45.88975" lon="5.76105">
        <ele>1397.2</ele>
        <time>2026-05-13T14:15:08Z</time>
      </trkpt>
      <trkpt lat="45.88965" lon="5.76104">
        <ele>1396.6</ele>
        <time>2026-05-13T14:15:09Z</time>
      </trkpt>
      <trkpt lat="45.88956" lon="5.76104">
        <ele>1395.8</ele>
        <time>2026-05-13T14:15:10Z</time>
      </trkpt>
      <trkpt lat="45.88946" lon="5.76104">
        <ele>1394.8</ele>
        <time>2026-05-13T14:15:11Z</time>
      </trkpt>
      <trkpt lat="45.88936" lon="5.76103">
        <ele>1394.2</ele>
        <time>2026-05-13T14:15:12Z</time>
      </trkpt>
      <trkpt lat="45.88926" lon="5.76103">
        <ele>1393.6</ele>
        <time>2026-05-13T14:15:13Z</time>
      </trkpt>
      <trkpt lat="45.88916" lon="5.76102">
        <ele>1392.6</ele>
        <time>2026-05-13T14:15:14Z</time>
      </trkpt>
      <trkpt lat="45.88905" lon="5.76102">
        <ele>1391.6</ele>
        <time>2026-05-13T14:15:15Z</time>
      </trkpt>
      <trkpt lat="45.88894" lon="5.76101">
        <ele>1390.6</ele>
        <time>2026-05-13T14:15:16Z</time>
      </trkpt>
      <trkpt lat="45.88883" lon="5.761">
        <ele>1389.8</ele>
        <time>2026-05-13T14:15:17Z</time>
      </trkpt>
      <trkpt lat="45.88871" lon="5.761">
        <ele>1388.8</ele>
        <time>2026-05-13T14:15:18Z</time>
      </trkpt>
      <trkpt lat="45.8886" lon="5.761">
        <ele>1387.8</ele>
        <time>2026-05-13T14:15:19Z</time>
      </trkpt>
      <trkpt lat="45.88848" lon="5.76098">
        <ele>1386.6</ele>
        <time>2026-05-13T14:15:20Z</time>
      </trkpt>
      <trkpt lat="45.88836" lon="5.76098">
        <ele>1385.2</ele>
        <time>2026-05-13T14:15:21Z</time>
      </trkpt>
      <trkpt lat="45.88824" lon="5.76095">
        <ele>1384</ele>
        <time>2026-05-13T14:15:22Z</time>
      </trkpt>
      <trkpt lat="45.88813" lon="5.76092">
        <ele>1382.8</ele>
        <time>2026-05-13T14:15:23Z</time>
      </trkpt>
      <trkpt lat="45.88801" lon="5.76091">
        <ele>1381.6</ele>
        <time>2026-05-13T14:15:24Z</time>
      </trkpt>
      <trkpt lat="45.8879" lon="5.76089">
        <ele>1381</ele>
        <time>2026-05-13T14:15:25Z</time>
      </trkpt>
      <trkpt lat="45.88778" lon="5.76089">
        <ele>1380.4</ele>
        <time>2026-05-13T14:15:26Z</time>
      </trkpt>
      <trkpt lat="45.88768" lon="5.76086">
        <ele>1380</ele>
        <time>2026-05-13T14:15:27Z</time>
      </trkpt>
      <trkpt lat="45.88758" lon="5.76084">
        <ele>1380</ele>
        <time>2026-05-13T14:15:28Z</time>
      </trkpt>
      <trkpt lat="45.88748" lon="5.76083">
        <ele>1379.6</ele>
        <time>2026-05-13T14:15:29Z</time>
      </trkpt>
      <trkpt lat="45.88738" lon="5.7608">
        <ele>1379.6</ele>
        <time>2026-05-13T14:15:30Z</time>
      </trkpt>
      <trkpt lat="45.88728" lon="5.76079">
        <ele>1379.6</ele>
        <time>2026-05-13T14:15:31Z</time>
      </trkpt>
      <trkpt lat="45.88719" lon="5.76076">
        <ele>1379.6</ele>
        <time>2026-05-13T14:15:32Z</time>
      </trkpt>
      <trkpt lat="45.8871" lon="5.76075">
        <ele>1379.2</ele>
        <time>2026-05-13T14:15:33Z</time>
      </trkpt>
      <trkpt lat="45.88701" lon="5.76073">
        <ele>1379.2</ele>
        <time>2026-05-13T14:15:34Z</time>
      </trkpt>
      <trkpt lat="45.88692" lon="5.76071">
        <ele>1378.8</ele>
        <time>2026-05-13T14:15:35Z</time>
      </trkpt>
      <trkpt lat="45.88684" lon="5.7607">
        <ele>1378.2</ele>
        <time>2026-05-13T14:15:36Z</time>
      </trkpt>
      <trkpt lat="45.88676" lon="5.76068">
        <ele>1377.6</ele>
        <time>2026-05-13T14:15:37Z</time>
      </trkpt>
      <trkpt lat="45.88668" lon="5.76067">
        <ele>1377.4</ele>
        <time>2026-05-13T14:15:38Z</time>
      </trkpt>
      <trkpt lat="45.88661" lon="5.76065">
        <ele>1377.4</ele>
        <time>2026-05-13T14:15:39Z</time>
      </trkpt>
      <trkpt lat="45.88654" lon="5.76064">
        <ele>1377.8</ele>
        <time>2026-05-13T14:15:40Z</time>
      </trkpt>
      <trkpt lat="45.88647" lon="5.76063">
        <ele>1378.2</ele>
        <time>2026-05-13T14:15:41Z</time>
      </trkpt>
      <trkpt lat="45.88641" lon="5.76062">
        <ele>1378.2</ele>
        <time>2026-05-13T14:15:42Z</time>
      </trkpt>
      <trkpt lat="45.88634" lon="5.76061">
        <ele>1378.2</ele>
        <time>2026-05-13T14:15:43Z</time>
      </trkpt>
      <trkpt lat="45.88627" lon="5.7606">
        <ele>1378.2</ele>
        <time>2026-05-13T14:15:44Z</time>
      </trkpt>
      <trkpt lat="45.8862" lon="5.76059">
        <ele>1377.8</ele>
        <time>2026-05-13T14:15:45Z</time>
      </trkpt>
      <trkpt lat="45.88613" lon="5.76057">
        <ele>1377.6</ele>
        <time>2026-05-13T14:15:46Z</time>
      </trkpt>
      <trkpt lat="45.88606" lon="5.76056">
        <ele>1377.6</ele>
        <time>2026-05-13T14:15:47Z</time>
      </trkpt>
      <trkpt lat="45.886" lon="5.76056">
        <ele>1377.2</ele>
        <time>2026-05-13T14:15:48Z</time>
      </trkpt>
      <trkpt lat="45.88593" lon="5.76055">
        <ele>1377.2</ele>
        <time>2026-05-13T14:15:49Z</time>
      </trkpt>
      <trkpt lat="45.88586" lon="5.76055">
        <ele>1377.2</ele>
        <time>2026-05-13T14:15:50Z</time>
      </trkpt>
      <trkpt lat="45.88579" lon="5.76054">
        <ele>1377.2</ele>
        <time>2026-05-13T14:15:51Z</time>
      </trkpt>
      <trkpt lat="45.88572" lon="5.76054">
        <ele>1377.2</ele>
        <time>2026-05-13T14:15:52Z</time>
      </trkpt>
      <trkpt lat="45.88565" lon="5.76054">
        <ele>1376.6</ele>
        <time>2026-05-13T14:15:53Z</time>
      </trkpt>
      <trkpt lat="45.88558" lon="5.76053">
        <ele>1376.6</ele>
        <time>2026-05-13T14:15:54Z</time>
      </trkpt>
      <trkpt lat="45.88551" lon="5.76053">
        <ele>1376.2</ele>
        <time>2026-05-13T14:15:55Z</time>
      </trkpt>
      <trkpt lat="45.88544" lon="5.76053">
        <ele>1376.2</ele>
        <time>2026-05-13T14:15:56Z</time>
      </trkpt>
      <trkpt lat="45.88537" lon="5.76053">
        <ele>1376.2</ele>
        <time>2026-05-13T14:15:57Z</time>
      </trkpt>
      <trkpt lat="45.88531" lon="5.76053">
        <ele>1376.2</ele>
        <time>2026-05-13T14:15:58Z</time>
      </trkpt>
      <trkpt lat="45.88523" lon="5.76053">
        <ele>1376.2</ele>
        <time>2026-05-13T14:15:59Z</time>
      </trkpt>
      <trkpt lat="45.88517" lon="5.76054">
        <ele>1375.6</ele>
        <time>2026-05-13T14:16:00Z</time>
      </trkpt>
      <trkpt lat="45.8851" lon="5.76055">
        <ele>1375.4</ele>
        <time>2026-05-13T14:16:01Z</time>
      </trkpt>
      <trkpt lat="45.88503" lon="5.76056">
        <ele>1375.4</ele>
        <time>2026-05-13T14:16:02Z</time>
      </trkpt>
      <trkpt lat="45.88496" lon="5.76058">
        <ele>1375.4</ele>
        <time>2026-05-13T14:16:03Z</time>
      </trkpt>
      <trkpt lat="45.88489" lon="5.76059">
        <ele>1375</ele>
        <time>2026-05-13T14:16:04Z</time>
      </trkpt>
      <trkpt lat="45.88482" lon="5.76063">
        <ele>1374.8</ele>
        <time>2026-05-13T14:16:05Z</time>
      </trkpt>
      <trkpt lat="45.88474" lon="5.76064">
        <ele>1374</ele>
        <time>2026-05-13T14:16:06Z</time>
      </trkpt>
      <trkpt lat="45.88466" lon="5.76067">
        <ele>1373.8</ele>
        <time>2026-05-13T14:16:07Z</time>
      </trkpt>
      <trkpt lat="45.88458" lon="5.7607">
        <ele>1373</ele>
        <time>2026-05-13T14:16:08Z</time>
      </trkpt>
      <trkpt lat="45.8845" lon="5.76074">
        <ele>1372.2</ele>
        <time>2026-05-13T14:16:09Z</time>
      </trkpt>
      <trkpt lat="45.88441" lon="5.76078">
        <ele>1371.2</ele>
        <time>2026-05-13T14:16:10Z</time>
      </trkpt>
      <trkpt lat="45.88432" lon="5.76082">
        <ele>1370.6</ele>
        <time>2026-05-13T14:16:11Z</time>
      </trkpt>
      <trkpt lat="45.88423" lon="5.76087">
        <ele>1369.8</ele>
        <time>2026-05-13T14:16:12Z</time>
      </trkpt>
      <trkpt lat="45.88415" lon="5.76091">
        <ele>1369</ele>
        <time>2026-05-13T14:16:13Z</time>
      </trkpt>
      <trkpt lat="45.88407" lon="5.76095">
        <ele>1368.2</ele>
        <time>2026-05-13T14:16:14Z</time>
      </trkpt>
      <trkpt lat="45.88399" lon="5.76099">
        <ele>1367.2</ele>
        <time>2026-05-13T14:16:15Z</time>
      </trkpt>
      <trkpt lat="45.88391" lon="5.76104">
        <ele>1366.4</ele>
        <time>2026-05-13T14:16:16Z</time>
      </trkpt>
      <trkpt lat="45.88384" lon="5.76108">
        <ele>1365.6</ele>
        <time>2026-05-13T14:16:17Z</time>
      </trkpt>
      <trkpt lat="45.88377" lon="5.76112">
        <ele>1364.6</ele>
        <time>2026-05-13T14:16:18Z</time>
      </trkpt>
      <trkpt lat="45.88363" lon="5.76121">
        <ele>1363.6</ele>
        <time>2026-05-13T14:16:19Z</time>
      </trkpt>
      <trkpt lat="45.88356" lon="5.76125">
        <ele>1362.6</ele>
        <time>2026-05-13T14:16:20Z</time>
      </trkpt>
      <trkpt lat="45.88349" lon="5.76129">
        <ele>1361.4</ele>
        <time>2026-05-13T14:16:21Z</time>
      </trkpt>
      <trkpt lat="45.88342" lon="5.76133">
        <ele>1360.6</ele>
        <time>2026-05-13T14:16:22Z</time>
      </trkpt>
      <trkpt lat="45.88334" lon="5.76137">
        <ele>1359.8</ele>
        <time>2026-05-13T14:16:23Z</time>
      </trkpt>
      <trkpt lat="45.88327" lon="5.76142">
        <ele>1358.8</ele>
        <time>2026-05-13T14:16:24Z</time>
      </trkpt>
      <trkpt lat="45.88319" lon="5.76147">
        <ele>1358</ele>
        <time>2026-05-13T14:16:25Z</time>
      </trkpt>
      <trkpt lat="45.88311" lon="5.76151">
        <ele>1357.2</ele>
        <time>2026-05-13T14:16:26Z</time>
      </trkpt>
      <trkpt lat="45.88303" lon="5.76156">
        <ele>1356.6</ele>
        <time>2026-05-13T14:16:27Z</time>
      </trkpt>
      <trkpt lat="45.88294" lon="5.7616">
        <ele>1356</ele>
        <time>2026-05-13T14:16:28Z</time>
      </trkpt>
      <trkpt lat="45.88285" lon="5.76165">
        <ele>1355.2</ele>
        <time>2026-05-13T14:16:29Z</time>
      </trkpt>
      <trkpt lat="45.88277" lon="5.76169">
        <ele>1354.4</ele>
        <time>2026-05-13T14:16:30Z</time>
      </trkpt>
      <trkpt lat="45.8827" lon="5.76173">
        <ele>1353.4</ele>
        <time>2026-05-13T14:16:31Z</time>
      </trkpt>
      <trkpt lat="45.88263" lon="5.76177">
        <ele>1352.8</ele>
        <time>2026-05-13T14:16:32Z</time>
      </trkpt>
      <trkpt lat="45.88257" lon="5.7618">
        <ele>1352</ele>
        <time>2026-05-13T14:16:33Z</time>
      </trkpt>
      <trkpt lat="45.8825" lon="5.76183">
        <ele>1351.4</ele>
        <time>2026-05-13T14:16:34Z</time>
      </trkpt>
      <trkpt lat="45.88244" lon="5.76186">
        <ele>1350.8</ele>
        <time>2026-05-13T14:16:35Z</time>
      </trkpt>
      <trkpt lat="45.88238" lon="5.76188">
        <ele>1350.2</ele>
        <time>2026-05-13T14:16:36Z</time>
      </trkpt>
      <trkpt lat="45.88231" lon="5.7619">
        <ele>1349.6</ele>
        <time>2026-05-13T14:16:37Z</time>
      </trkpt>
      <trkpt lat="45.88225" lon="5.76192">
        <ele>1348.8</ele>
        <time>2026-05-13T14:16:38Z</time>
      </trkpt>
      <trkpt lat="45.88218" lon="5.76196">
        <ele>1348.6</ele>
        <time>2026-05-13T14:16:39Z</time>
      </trkpt>
      <trkpt lat="45.88213" lon="5.76203">
        <ele>1347.8</ele>
        <time>2026-05-13T14:16:40Z</time>
      </trkpt>
      <trkpt lat="45.88209" lon="5.76212">
        <ele>1347</ele>
        <time>2026-05-13T14:16:41Z</time>
      </trkpt>
      <trkpt lat="45.88206" lon="5.76222">
        <ele>1346.4</ele>
        <time>2026-05-13T14:16:42Z</time>
      </trkpt>
      <trkpt lat="45.88205" lon="5.76233">
        <ele>1346</ele>
        <time>2026-05-13T14:16:43Z</time>
      </trkpt>
      <trkpt lat="45.88206" lon="5.76244">
        <ele>1345.6</ele>
        <time>2026-05-13T14:16:44Z</time>
      </trkpt>
      <trkpt lat="45.88209" lon="5.76254">
        <ele>1345.6</ele>
        <time>2026-05-13T14:16:45Z</time>
      </trkpt>
      <trkpt lat="45.88216" lon="5.76262">
        <ele>1344.8</ele>
        <time>2026-05-13T14:16:46Z</time>
      </trkpt>
      <trkpt lat="45.88223" lon="5.76268">
        <ele>1344.4</ele>
        <time>2026-05-13T14:16:47Z</time>
      </trkpt>
      <trkpt lat="45.8823" lon="5.7627">
        <ele>1344</ele>
        <time>2026-05-13T14:16:48Z</time>
      </trkpt>
      <trkpt lat="45.88238" lon="5.7627">
        <ele>1343.4</ele>
        <time>2026-05-13T14:16:49Z</time>
      </trkpt>
      <trkpt lat="45.88247" lon="5.76271">
        <ele>1342.6</ele>
        <time>2026-05-13T14:16:50Z</time>
      </trkpt>
      <trkpt lat="45.88256" lon="5.7627">
        <ele>1342.2</ele>
        <time>2026-05-13T14:16:51Z</time>
      </trkpt>
      <trkpt lat="45.88265" lon="5.76271">
        <ele>1341.8</ele>
        <time>2026-05-13T14:16:52Z</time>
      </trkpt>
      <trkpt lat="45.88274" lon="5.76272">
        <ele>1341</ele>
        <time>2026-05-13T14:16:53Z</time>
      </trkpt>
      <trkpt lat="45.88284" lon="5.76275">
        <ele>1340</ele>
        <time>2026-05-13T14:16:54Z</time>
      </trkpt>
      <trkpt lat="45.88292" lon="5.76278">
        <ele>1339</ele>
        <time>2026-05-13T14:16:55Z</time>
      </trkpt>
      <trkpt lat="45.88299" lon="5.76282">
        <ele>1338.4</ele>
        <time>2026-05-13T14:16:56Z</time>
      </trkpt>
      <trkpt lat="45.88306" lon="5.76289">
        <ele>1338.4</ele>
        <time>2026-05-13T14:16:57Z</time>
      </trkpt>
      <trkpt lat="45.88312" lon="5.76299">
        <ele>1337.6</ele>
        <time>2026-05-13T14:16:58Z</time>
      </trkpt>
      <trkpt lat="45.88317" lon="5.7631">
        <ele>1336</ele>
        <time>2026-05-13T14:16:59Z</time>
      </trkpt>
      <trkpt lat="45.88321" lon="5.76322">
        <ele>1334.8</ele>
        <time>2026-05-13T14:17:00Z</time>
      </trkpt>
      <trkpt lat="45.88324" lon="5.76336">
        <ele>1333.6</ele>
        <time>2026-05-13T14:17:01Z</time>
      </trkpt>
      <trkpt lat="45.88327" lon="5.76351">
        <ele>1332.4</ele>
        <time>2026-05-13T14:17:02Z</time>
      </trkpt>
      <trkpt lat="45.8833" lon="5.76367">
        <ele>1331</ele>
        <time>2026-05-13T14:17:03Z</time>
      </trkpt>
      <trkpt lat="45.88333" lon="5.76383">
        <ele>1329.4</ele>
        <time>2026-05-13T14:17:04Z</time>
      </trkpt>
      <trkpt lat="45.88335" lon="5.76398">
        <ele>1327.8</ele>
        <time>2026-05-13T14:17:05Z</time>
      </trkpt>
      <trkpt lat="45.88339" lon="5.76414">
        <ele>1326</ele>
        <time>2026-05-13T14:17:06Z</time>
      </trkpt>
      <trkpt lat="45.88342" lon="5.7643">
        <ele>1324.6</ele>
        <time>2026-05-13T14:17:07Z</time>
      </trkpt>
      <trkpt lat="45.88345" lon="5.76447">
        <ele>1323.4</ele>
        <time>2026-05-13T14:17:08Z</time>
      </trkpt>
      <trkpt lat="45.88349" lon="5.76464">
        <ele>1321.8</ele>
        <time>2026-05-13T14:17:09Z</time>
      </trkpt>
      <trkpt lat="45.88352" lon="5.76482">
        <ele>1320.4</ele>
        <time>2026-05-13T14:17:10Z</time>
      </trkpt>
      <trkpt lat="45.88355" lon="5.76499">
        <ele>1318.6</ele>
        <time>2026-05-13T14:17:11Z</time>
      </trkpt>
      <trkpt lat="45.88358" lon="5.76516">
        <ele>1316.6</ele>
        <time>2026-05-13T14:17:12Z</time>
      </trkpt>
      <trkpt lat="45.8836" lon="5.76533">
        <ele>1316.2</ele>
        <time>2026-05-13T14:17:13Z</time>
      </trkpt>
      <trkpt lat="45.88362" lon="5.76551">
        <ele>1314.6</ele>
        <time>2026-05-13T14:17:14Z</time>
      </trkpt>
      <trkpt lat="45.88363" lon="5.76568">
        <ele>1312.6</ele>
        <time>2026-05-13T14:17:15Z</time>
      </trkpt>
      <trkpt lat="45.88365" lon="5.76584">
        <ele>1311.6</ele>
        <time>2026-05-13T14:17:16Z</time>
      </trkpt>
      <trkpt lat="45.88366" lon="5.76599">
        <ele>1310.6</ele>
        <time>2026-05-13T14:17:17Z</time>
      </trkpt>
      <trkpt lat="45.88368" lon="5.76613">
        <ele>1310</ele>
        <time>2026-05-13T14:17:18Z</time>
      </trkpt>
      <trkpt lat="45.88369" lon="5.76627">
        <ele>1309.4</ele>
        <time>2026-05-13T14:17:19Z</time>
      </trkpt>
      <trkpt lat="45.88371" lon="5.76642">
        <ele>1308.6</ele>
        <time>2026-05-13T14:17:20Z</time>
      </trkpt>
      <trkpt lat="45.88374" lon="5.76655">
        <ele>1307.6</ele>
        <time>2026-05-13T14:17:21Z</time>
      </trkpt>
      <trkpt lat="45.88377" lon="5.76669">
        <ele>1306.8</ele>
        <time>2026-05-13T14:17:22Z</time>
      </trkpt>
      <trkpt lat="45.88381" lon="5.76682">
        <ele>1306.2</ele>
        <time>2026-05-13T14:17:23Z</time>
      </trkpt>
      <trkpt lat="45.8839" lon="5.76691">
        <ele>1305.4</ele>
        <time>2026-05-13T14:17:24Z</time>
      </trkpt>
      <trkpt lat="45.88398" lon="5.76699">
        <ele>1304.6</ele>
        <time>2026-05-13T14:17:25Z</time>
      </trkpt>
      <trkpt lat="45.88401" lon="5.76714">
        <ele>1303.8</ele>
        <time>2026-05-13T14:17:26Z</time>
      </trkpt>
      <trkpt lat="45.88406" lon="5.76726">
        <ele>1302.6</ele>
        <time>2026-05-13T14:17:27Z</time>
      </trkpt>
      <trkpt lat="45.8841" lon="5.76739">
        <ele>1302</ele>
        <time>2026-05-13T14:17:28Z</time>
      </trkpt>
      <trkpt lat="45.88413" lon="5.76752">
        <ele>1301.2</ele>
        <time>2026-05-13T14:17:29Z</time>
      </trkpt>
      <trkpt lat="45.88412" lon="5.76767">
        <ele>1300.2</ele>
        <time>2026-05-13T14:17:30Z</time>
      </trkpt>
      <trkpt lat="45.8841" lon="5.76782">
        <ele>1299.4</ele>
        <time>2026-05-13T14:17:31Z</time>
      </trkpt>
      <trkpt lat="45.88409" lon="5.76797">
        <ele>1298.6</ele>
        <time>2026-05-13T14:17:32Z</time>
      </trkpt>
      <trkpt lat="45.88405" lon="5.76809">
        <ele>1297.6</ele>
        <time>2026-05-13T14:17:33Z</time>
      </trkpt>
      <trkpt lat="45.88401" lon="5.76822">
        <ele>1296.6</ele>
        <time>2026-05-13T14:17:34Z</time>
      </trkpt>
      <trkpt lat="45.88395" lon="5.76834">
        <ele>1296.2</ele>
        <time>2026-05-13T14:17:35Z</time>
      </trkpt>
      <trkpt lat="45.88391" lon="5.76845">
        <ele>1294.6</ele>
        <time>2026-05-13T14:17:36Z</time>
      </trkpt>
      <trkpt lat="45.88386" lon="5.76855">
        <ele>1294.2</ele>
        <time>2026-05-13T14:17:37Z</time>
      </trkpt>
      <trkpt lat="45.88381" lon="5.76865">
        <ele>1293.8</ele>
        <time>2026-05-13T14:17:38Z</time>
      </trkpt>
      <trkpt lat="45.88378" lon="5.76875">
        <ele>1294</ele>
        <time>2026-05-13T14:17:39Z</time>
      </trkpt>
      <trkpt lat="45.88378" lon="5.76888">
        <ele>1293.4</ele>
        <time>2026-05-13T14:17:40Z</time>
      </trkpt>
      <trkpt lat="45.88377" lon="5.76901">
        <ele>1293</ele>
        <time>2026-05-13T14:17:41Z</time>
      </trkpt>
      <trkpt lat="45.8838" lon="5.76913">
        <ele>1292.6</ele>
        <time>2026-05-13T14:17:42Z</time>
      </trkpt>
      <trkpt lat="45.88383" lon="5.76923">
        <ele>1292.2</ele>
        <time>2026-05-13T14:17:43Z</time>
      </trkpt>
      <trkpt lat="45.88387" lon="5.76933">
        <ele>1292.2</ele>
        <time>2026-05-13T14:17:44Z</time>
      </trkpt>
      <trkpt lat="45.88387" lon="5.76933">
        <ele>1291.6</ele>
        <time>2026-05-13T14:17:45Z</time>
      </trkpt>
      <trkpt lat="45.88387" lon="5.76933">
        <ele>1291.6</ele>
        <time>2026-05-13T14:17:46Z</time>
      </trkpt>
      <trkpt lat="45.88404" lon="5.76968">
        <ele>1291</ele>
        <time>2026-05-13T14:17:49Z</time>
      </trkpt>
      <trkpt lat="45.88407" lon="5.76977">
        <ele>1291.2</ele>
        <time>2026-05-13T14:17:50Z</time>
      </trkpt>
      <trkpt lat="45.8841" lon="5.76985">
        <ele>1290.8</ele>
        <time>2026-05-13T14:17:51Z</time>
      </trkpt>
      <trkpt lat="45.88413" lon="5.76994">
        <ele>1291.2</ele>
        <time>2026-05-13T14:17:52Z</time>
      </trkpt>
      <trkpt lat="45.88413" lon="5.77004">
        <ele>1290.8</ele>
        <time>2026-05-13T14:17:53Z</time>
      </trkpt>
      <trkpt lat="45.88413" lon="5.77015">
        <ele>1290.8</ele>
        <time>2026-05-13T14:17:54Z</time>
      </trkpt>
      <trkpt lat="45.88413" lon="5.77024">
        <ele>1290.6</ele>
        <time>2026-05-13T14:17:55Z</time>
      </trkpt>
      <trkpt lat="45.88414" lon="5.77036">
        <ele>1290.2</ele>
        <time>2026-05-13T14:17:56Z</time>
      </trkpt>
      <trkpt lat="45.88412" lon="5.77045">
        <ele>1290.2</ele>
        <time>2026-05-13T14:17:57Z</time>
      </trkpt>
      <trkpt lat="45.8841" lon="5.77055">
        <ele>1289.8</ele>
        <time>2026-05-13T14:17:58Z</time>
      </trkpt>
      <trkpt lat="45.88408" lon="5.77066">
        <ele>1289.4</ele>
        <time>2026-05-13T14:17:59Z</time>
      </trkpt>
      <trkpt lat="45.88404" lon="5.77075">
        <ele>1289</ele>
        <time>2026-05-13T14:18:00Z</time>
      </trkpt>
      <trkpt lat="45.88402" lon="5.77086">
        <ele>1288.6</ele>
        <time>2026-05-13T14:18:01Z</time>
      </trkpt>
      <trkpt lat="45.88398" lon="5.77097">
        <ele>1288.6</ele>
        <time>2026-05-13T14:18:02Z</time>
      </trkpt>
      <trkpt lat="45.88396" lon="5.77109">
        <ele>1287.8</ele>
        <time>2026-05-13T14:18:03Z</time>
      </trkpt>
      <trkpt lat="45.88393" lon="5.77119">
        <ele>1287.6</ele>
        <time>2026-05-13T14:18:04Z</time>
      </trkpt>
      <trkpt lat="45.88389" lon="5.77131">
        <ele>1286.8</ele>
        <time>2026-05-13T14:18:05Z</time>
      </trkpt>
      <trkpt lat="45.88388" lon="5.77141">
        <ele>1286.6</ele>
        <time>2026-05-13T14:18:06Z</time>
      </trkpt>
      <trkpt lat="45.88383" lon="5.77151">
        <ele>1286.6</ele>
        <time>2026-05-13T14:18:07Z</time>
      </trkpt>
      <trkpt lat="45.88378" lon="5.7716">
        <ele>1286.2</ele>
        <time>2026-05-13T14:18:08Z</time>
      </trkpt>
      <trkpt lat="45.88375" lon="5.77168">
        <ele>1285.6</ele>
        <time>2026-05-13T14:18:09Z</time>
      </trkpt>
      <trkpt lat="45.88371" lon="5.77177">
        <ele>1285.4</ele>
        <time>2026-05-13T14:18:10Z</time>
      </trkpt>
      <trkpt lat="45.8837" lon="5.77184">
        <ele>1285.2</ele>
        <time>2026-05-13T14:18:11Z</time>
      </trkpt>
      <trkpt lat="45.88371" lon="5.77187">
        <ele>1284.8</ele>
        <time>2026-05-13T14:18:12Z</time>
      </trkpt>
      <trkpt lat="45.88369" lon="5.77192">
        <ele>1284.6</ele>
        <time>2026-05-13T14:18:13Z</time>
      </trkpt>
      <trkpt lat="45.88367" lon="5.77198">
        <ele>1284.4</ele>
        <time>2026-05-13T14:18:14Z</time>
      </trkpt>
      <trkpt lat="45.88367" lon="5.77204">
        <ele>1284</ele>
        <time>2026-05-13T14:18:15Z</time>
      </trkpt>
      <trkpt lat="45.88367" lon="5.77209">
        <ele>1283.4</ele>
        <time>2026-05-13T14:18:16Z</time>
      </trkpt>
      <trkpt lat="45.88368" lon="5.77212">
        <ele>1283.4</ele>
        <time>2026-05-13T14:18:17Z</time>
      </trkpt>
      <trkpt lat="45.8837" lon="5.77215">
        <ele>1283.2</ele>
        <time>2026-05-13T14:18:18Z</time>
      </trkpt>
      <trkpt lat="45.88371" lon="5.77216">
        <ele>1282.8</ele>
        <time>2026-05-13T14:18:19Z</time>
      </trkpt>
      <trkpt lat="45.88377" lon="5.77217">
        <ele>1282.2</ele>
        <time>2026-05-13T14:18:20Z</time>
      </trkpt>
      <trkpt lat="45.8838" lon="5.77215">
        <ele>1282.6</ele>
        <time>2026-05-13T14:18:21Z</time>
      </trkpt>
      <trkpt lat="45.88382" lon="5.77211">
        <ele>1282.6</ele>
        <time>2026-05-13T14:18:22Z</time>
      </trkpt>
      <trkpt lat="45.88385" lon="5.77207">
        <ele>1282</ele>
        <time>2026-05-13T14:18:23Z</time>
      </trkpt>
      <trkpt lat="45.88388" lon="5.77207">
        <ele>1281.6</ele>
        <time>2026-05-13T14:18:24Z</time>
      </trkpt>
      <trkpt lat="45.88391" lon="5.77206">
        <ele>1281.4</ele>
        <time>2026-05-13T14:18:25Z</time>
      </trkpt>
      <trkpt lat="45.88395" lon="5.77205">
        <ele>1281</ele>
        <time>2026-05-13T14:18:26Z</time>
      </trkpt>
      <trkpt lat="45.88399" lon="5.77204">
        <ele>1281</ele>
        <time>2026-05-13T14:18:27Z</time>
      </trkpt>
      <trkpt lat="45.88403" lon="5.77202">
        <ele>1281</ele>
        <time>2026-05-13T14:18:28Z</time>
      </trkpt>
      <trkpt lat="45.88406" lon="5.77201">
        <ele>1281</ele>
        <time>2026-05-13T14:18:29Z</time>
      </trkpt>
      <trkpt lat="45.8841" lon="5.77199">
        <ele>1280.4</ele>
        <time>2026-05-13T14:18:30Z</time>
      </trkpt>
      <trkpt lat="45.88414" lon="5.77197">
        <ele>1280.2</ele>
        <time>2026-05-13T14:18:31Z</time>
      </trkpt>
      <trkpt lat="45.88419" lon="5.77195">
        <ele>1280</ele>
        <time>2026-05-13T14:18:32Z</time>
      </trkpt>
      <trkpt lat="45.88419" lon="5.77195">
        <ele>1280</ele>
        <time>2026-05-13T14:18:33Z</time>
      </trkpt>
      <trkpt lat="45.88419" lon="5.77195">
        <ele>1280</ele>
        <time>2026-05-13T14:18:34Z</time>
      </trkpt>
      <trkpt lat="45.88426" lon="5.77192">
        <ele>1280.2</ele>
        <time>2026-05-13T14:18:35Z</time>
      </trkpt>
      <trkpt lat="45.88431" lon="5.77189">
        <ele>1279.6</ele>
        <time>2026-05-13T14:18:36Z</time>
      </trkpt>
      <trkpt lat="45.88437" lon="5.77189">
        <ele>1279.4</ele>
        <time>2026-05-13T14:18:37Z</time>
      </trkpt>
      <trkpt lat="45.88442" lon="5.77187">
        <ele>1279.8</ele>
        <time>2026-05-13T14:18:38Z</time>
      </trkpt>
      <trkpt lat="45.88446" lon="5.77187">
        <ele>1279.6</ele>
        <time>2026-05-13T14:18:39Z</time>
      </trkpt>
      <trkpt lat="45.8845" lon="5.77186">
        <ele>1279.2</ele>
        <time>2026-05-13T14:18:40Z</time>
      </trkpt>
      <trkpt lat="45.88455" lon="5.77188">
        <ele>1279.2</ele>
        <time>2026-05-13T14:18:41Z</time>
      </trkpt>
      <trkpt lat="45.88459" lon="5.77187">
        <ele>1279.2</ele>
        <time>2026-05-13T14:18:42Z</time>
      </trkpt>
      <trkpt lat="45.88463" lon="5.77188">
        <ele>1279.2</ele>
        <time>2026-05-13T14:18:43Z</time>
      </trkpt>
      <trkpt lat="45.88468" lon="5.77188">
        <ele>1279.2</ele>
        <time>2026-05-13T14:18:44Z</time>
      </trkpt>
      <trkpt lat="45.88471" lon="5.77189">
        <ele>1279.4</ele>
        <time>2026-05-13T14:18:45Z</time>
      </trkpt>
      <trkpt lat="45.88474" lon="5.7719">
        <ele>1279.6</ele>
        <time>2026-05-13T14:18:46Z</time>
      </trkpt>
      <trkpt lat="45.88478" lon="5.7719">
        <ele>1279.6</ele>
        <time>2026-05-13T14:18:47Z</time>
      </trkpt>
      <trkpt lat="45.88479" lon="5.7719">
        <ele>1280.2</ele>
        <time>2026-05-13T14:18:48Z</time>
      </trkpt>
      <trkpt lat="45.88482" lon="5.77189">
        <ele>1280.6</ele>
        <time>2026-05-13T14:18:49Z</time>
      </trkpt>
      <trkpt lat="45.88484" lon="5.77188">
        <ele>1280.6</ele>
        <time>2026-05-13T14:18:50Z</time>
      </trkpt>
      <trkpt lat="45.88486" lon="5.77187">
        <ele>1281.2</ele>
        <time>2026-05-13T14:18:51Z</time>
      </trkpt>
      <trkpt lat="45.88489" lon="5.77186">
        <ele>1281.2</ele>
        <time>2026-05-13T14:18:52Z</time>
      </trkpt>
      <trkpt lat="45.88492" lon="5.77184">
        <ele>1281.6</ele>
        <time>2026-05-13T14:18:53Z</time>
      </trkpt>
      <trkpt lat="45.88494" lon="5.77183">
        <ele>1281.8</ele>
        <time>2026-05-13T14:18:54Z</time>
      </trkpt>
      <trkpt lat="45.88496" lon="5.77183">
        <ele>1281.8</ele>
        <time>2026-05-13T14:18:55Z</time>
      </trkpt>
      <trkpt lat="45.88498" lon="5.77183">
        <ele>1282.4</ele>
        <time>2026-05-13T14:18:56Z</time>
      </trkpt>
      <trkpt lat="45.885" lon="5.77183">
        <ele>1282.6</ele>
        <time>2026-05-13T14:18:57Z</time>
      </trkpt>
      <trkpt lat="45.88502" lon="5.77184">
        <ele>1282.6</ele>
        <time>2026-05-13T14:18:58Z</time>
      </trkpt>
      <trkpt lat="45.88503" lon="5.77184">
        <ele>1282.6</ele>
        <time>2026-05-13T14:18:59Z</time>
      </trkpt>
      <trkpt lat="45.88505" lon="5.77185">
        <ele>1282.6</ele>
        <time>2026-05-13T14:19:00Z</time>
      </trkpt>
      <trkpt lat="45.88508" lon="5.77185">
        <ele>1282.6</ele>
        <time>2026-05-13T14:19:01Z</time>
      </trkpt>
      <trkpt lat="45.8851" lon="5.77186">
        <ele>1282.6</ele>
        <time>2026-05-13T14:19:02Z</time>
      </trkpt>
      <trkpt lat="45.88512" lon="5.77185">
        <ele>1282.6</ele>
        <time>2026-05-13T14:19:03Z</time>
      </trkpt>
      <trkpt lat="45.88515" lon="5.77185">
        <ele>1282.4</ele>
        <time>2026-05-13T14:19:04Z</time>
      </trkpt>
      <trkpt lat="45.88517" lon="5.77185">
        <ele>1282.2</ele>
        <time>2026-05-13T14:19:05Z</time>
      </trkpt>
      <trkpt lat="45.8852" lon="5.77185">
        <ele>1282.2</ele>
        <time>2026-05-13T14:19:06Z</time>
      </trkpt>
      <trkpt lat="45.88522" lon="5.77186">
        <ele>1282.2</ele>
        <time>2026-05-13T14:19:07Z</time>
      </trkpt>
      <trkpt lat="45.88525" lon="5.77186">
        <ele>1281.6</ele>
        <time>2026-05-13T14:19:08Z</time>
      </trkpt>
      <trkpt lat="45.88528" lon="5.77187">
        <ele>1281.6</ele>
        <time>2026-05-13T14:19:09Z</time>
      </trkpt>
      <trkpt lat="45.88531" lon="5.77188">
        <ele>1281</ele>
        <time>2026-05-13T14:19:10Z</time>
      </trkpt>
      <trkpt lat="45.88535" lon="5.7719">
        <ele>1280.6</ele>
        <time>2026-05-13T14:19:11Z</time>
      </trkpt>
      <trkpt lat="45.88538" lon="5.77191">
        <ele>1280.4</ele>
        <time>2026-05-13T14:19:12Z</time>
      </trkpt>
      <trkpt lat="45.88542" lon="5.77191">
        <ele>1280</ele>
        <time>2026-05-13T14:19:13Z</time>
      </trkpt>
      <trkpt lat="45.88545" lon="5.77192">
        <ele>1280</ele>
        <time>2026-05-13T14:19:14Z</time>
      </trkpt>
      <trkpt lat="45.88547" lon="5.77192">
        <ele>1280</ele>
        <time>2026-05-13T14:19:15Z</time>
      </trkpt>
      <trkpt lat="45.8855" lon="5.77192">
        <ele>1279.6</ele>
        <time>2026-05-13T14:19:16Z</time>
      </trkpt>
      <trkpt lat="45.88552" lon="5.77192">
        <ele>1279.2</ele>
        <time>2026-05-13T14:19:17Z</time>
      </trkpt>
      <trkpt lat="45.88554" lon="5.77191">
        <ele>1278.8</ele>
        <time>2026-05-13T14:19:18Z</time>
      </trkpt>
      <trkpt lat="45.88556" lon="5.77191">
        <ele>1278.6</ele>
        <time>2026-05-13T14:19:19Z</time>
      </trkpt>
      <trkpt lat="45.88559" lon="5.77191">
        <ele>1278.6</ele>
        <time>2026-05-13T14:19:20Z</time>
      </trkpt>
      <trkpt lat="45.88561" lon="5.77191">
        <ele>1278</ele>
        <time>2026-05-13T14:19:21Z</time>
      </trkpt>
      <trkpt lat="45.88563" lon="5.7719">
        <ele>1277.8</ele>
        <time>2026-05-13T14:19:22Z</time>
      </trkpt>
      <trkpt lat="45.88565" lon="5.7719">
        <ele>1277</ele>
        <time>2026-05-13T14:19:23Z</time>
      </trkpt>
      <trkpt lat="45.88567" lon="5.77189">
        <ele>1276.8</ele>
        <time>2026-05-13T14:19:24Z</time>
      </trkpt>
      <trkpt lat="45.88569" lon="5.77189">
        <ele>1276.2</ele>
        <time>2026-05-13T14:19:25Z</time>
      </trkpt>
      <trkpt lat="45.88572" lon="5.77189">
        <ele>1275.6</ele>
        <time>2026-05-13T14:19:26Z</time>
      </trkpt>
      <trkpt lat="45.88575" lon="5.77189">
        <ele>1275.6</ele>
        <time>2026-05-13T14:19:27Z</time>
      </trkpt>
      <trkpt lat="45.88582" lon="5.77189">
        <ele>1276</ele>
        <time>2026-05-13T14:19:28Z</time>
      </trkpt>
      <trkpt lat="45.88584" lon="5.77188">
        <ele>1275.6</ele>
        <time>2026-05-13T14:19:29Z</time>
      </trkpt>
      <trkpt lat="45.88587" lon="5.77188">
        <ele>1275.6</ele>
        <time>2026-05-13T14:19:30Z</time>
      </trkpt>
      <trkpt lat="45.88591" lon="5.77187">
        <ele>1274.4</ele>
        <time>2026-05-13T14:19:31Z</time>
      </trkpt>
      <trkpt lat="45.88595" lon="5.77186">
        <ele>1273.6</ele>
        <time>2026-05-13T14:19:32Z</time>
      </trkpt>
      <trkpt lat="45.88599" lon="5.77184">
        <ele>1273.4</ele>
        <time>2026-05-13T14:19:33Z</time>
      </trkpt>
      <trkpt lat="45.88605" lon="5.77183">
        <ele>1273</ele>
        <time>2026-05-13T14:19:34Z</time>
      </trkpt>
      <trkpt lat="45.88609" lon="5.77181">
        <ele>1271.6</ele>
        <time>2026-05-13T14:19:35Z</time>
      </trkpt>
      <trkpt lat="45.88613" lon="5.77178">
        <ele>1271</ele>
        <time>2026-05-13T14:19:36Z</time>
      </trkpt>
      <trkpt lat="45.88617" lon="5.77177">
        <ele>1270.6</ele>
        <time>2026-05-13T14:19:37Z</time>
      </trkpt>
      <trkpt lat="45.88622" lon="5.77177">
        <ele>1270.2</ele>
        <time>2026-05-13T14:19:38Z</time>
      </trkpt>
      <trkpt lat="45.88627" lon="5.77176">
        <ele>1270.2</ele>
        <time>2026-05-13T14:19:39Z</time>
      </trkpt>
      <trkpt lat="45.88632" lon="5.77175">
        <ele>1268.4</ele>
        <time>2026-05-13T14:19:40Z</time>
      </trkpt>
      <trkpt lat="45.88637" lon="5.77174">
        <ele>1267.2</ele>
        <time>2026-05-13T14:19:41Z</time>
      </trkpt>
      <trkpt lat="45.88643" lon="5.77174">
        <ele>1267.4</ele>
        <time>2026-05-13T14:19:42Z</time>
      </trkpt>
      <trkpt lat="45.88646" lon="5.77173">
        <ele>1267.6</ele>
        <time>2026-05-13T14:19:43Z</time>
      </trkpt>
      <trkpt lat="45.88648" lon="5.77174">
        <ele>1267.6</ele>
        <time>2026-05-13T14:19:44Z</time>
      </trkpt>
      <trkpt lat="45.8865" lon="5.77173">
        <ele>1268</ele>
        <time>2026-05-13T14:19:45Z</time>
      </trkpt>
      <trkpt lat="45.88652" lon="5.77173">
        <ele>1268</ele>
        <time>2026-05-13T14:19:46Z</time>
      </trkpt>
      <trkpt lat="45.88654" lon="5.77173">
        <ele>1268</ele>
        <time>2026-05-13T14:19:47Z</time>
      </trkpt>
      <trkpt lat="45.88655" lon="5.77172">
        <ele>1268.2</ele>
        <time>2026-05-13T14:19:48Z</time>
      </trkpt>
      <trkpt lat="45.88655" lon="5.77172">
        <ele>1268.2</ele>
        <time>2026-05-13T14:19:49Z</time>
      </trkpt>
      <trkpt lat="45.88655" lon="5.77172">
        <ele>1268.4</ele>
        <time>2026-05-13T14:19:50Z</time>
      </trkpt>
      <trkpt lat="45.88654" lon="5.77171">
        <ele>1268.4</ele>
        <time>2026-05-13T14:19:51Z</time>
      </trkpt>
      <trkpt lat="45.88656" lon="5.77168">
        <ele>1269</ele>
        <time>2026-05-13T14:23:13Z</time>
      </trkpt>
      <trkpt lat="45.88658" lon="5.77167">
        <ele>1269</ele>
        <time>2026-05-13T14:23:14Z</time>
      </trkpt>
      <trkpt lat="45.8866" lon="5.77167">
        <ele>1269</ele>
        <time>2026-05-13T14:23:15Z</time>
      </trkpt>
      <trkpt lat="45.88662" lon="5.77167">
        <ele>1268.8</ele>
        <time>2026-05-13T14:23:16Z</time>
      </trkpt>
      <trkpt lat="45.88664" lon="5.77167">
        <ele>1268.8</ele>
        <time>2026-05-13T14:23:17Z</time>
      </trkpt>
      <trkpt lat="45.88667" lon="5.77167">
        <ele>1268.6</ele>
        <time>2026-05-13T14:23:18Z</time>
      </trkpt>
      <trkpt lat="45.8867" lon="5.77167">
        <ele>1268.2</ele>
        <time>2026-05-13T14:23:19Z</time>
      </trkpt>
      <trkpt lat="45.88673" lon="5.77167">
        <ele>1268</ele>
        <time>2026-05-13T14:23:20Z</time>
      </trkpt>
      <trkpt lat="45.88675" lon="5.77166">
        <ele>1268</ele>
        <time>2026-05-13T14:23:21Z</time>
      </trkpt>
      <trkpt lat="45.88678" lon="5.77166">
        <ele>1268</ele>
        <time>2026-05-13T14:23:22Z</time>
      </trkpt>
      <trkpt lat="45.88681" lon="5.77165">
        <ele>1267.6</ele>
        <time>2026-05-13T14:23:23Z</time>
      </trkpt>
      <trkpt lat="45.88684" lon="5.77165">
        <ele>1267.4</ele>
        <time>2026-05-13T14:23:24Z</time>
      </trkpt>
      <trkpt lat="45.88687" lon="5.77165">
        <ele>1267.2</ele>
        <time>2026-05-13T14:23:25Z</time>
      </trkpt>
      <trkpt lat="45.8869" lon="5.77164">
        <ele>1267.2</ele>
        <time>2026-05-13T14:23:26Z</time>
      </trkpt>
      <trkpt lat="45.88694" lon="5.77164">
        <ele>1267.2</ele>
        <time>2026-05-13T14:23:27Z</time>
      </trkpt>
      <trkpt lat="45.88698" lon="5.77163">
        <ele>1266.8</ele>
        <time>2026-05-13T14:23:28Z</time>
      </trkpt>
      <trkpt lat="45.88702" lon="5.77163">
        <ele>1266.4</ele>
        <time>2026-05-13T14:23:29Z</time>
      </trkpt>
      <trkpt lat="45.88705" lon="5.77163">
        <ele>1266.4</ele>
        <time>2026-05-13T14:23:30Z</time>
      </trkpt>
      <trkpt lat="45.88708" lon="5.77164">
        <ele>1266.4</ele>
        <time>2026-05-13T14:23:31Z</time>
      </trkpt>
      <trkpt lat="45.8871" lon="5.77164">
        <ele>1266.4</ele>
        <time>2026-05-13T14:23:32Z</time>
      </trkpt>
      <trkpt lat="45.88712" lon="5.77164">
        <ele>1266.4</ele>
        <time>2026-05-13T14:23:33Z</time>
      </trkpt>
      <trkpt lat="45.88713" lon="5.77163">
        <ele>1266.2</ele>
        <time>2026-05-13T14:23:34Z</time>
      </trkpt>
      <trkpt lat="45.88714" lon="5.77163">
        <ele>1266.2</ele>
        <time>2026-05-13T14:23:35Z</time>
      </trkpt>
      <trkpt lat="45.88716" lon="5.77162">
        <ele>1265.6</ele>
        <time>2026-05-13T14:23:36Z</time>
      </trkpt>
      <trkpt lat="45.88719" lon="5.77162">
        <ele>1265.6</ele>
        <time>2026-05-13T14:23:37Z</time>
      </trkpt>
      <trkpt lat="45.88722" lon="5.77161">
        <ele>1265.2</ele>
        <time>2026-05-13T14:23:38Z</time>
      </trkpt>
      <trkpt lat="45.88724" lon="5.77161">
        <ele>1264.6</ele>
        <time>2026-05-13T14:23:39Z</time>
      </trkpt>
      <trkpt lat="45.88727" lon="5.77159">
        <ele>1264.4</ele>
        <time>2026-05-13T14:23:40Z</time>
      </trkpt>
      <trkpt lat="45.88729" lon="5.77158">
        <ele>1264.2</ele>
        <time>2026-05-13T14:23:41Z</time>
      </trkpt>
      <trkpt lat="45.88732" lon="5.77156">
        <ele>1264.2</ele>
        <time>2026-05-13T14:23:42Z</time>
      </trkpt>
      <trkpt lat="45.88734" lon="5.77155">
        <ele>1263.8</ele>
        <time>2026-05-13T14:23:43Z</time>
      </trkpt>
      <trkpt lat="45.88736" lon="5.77154">
        <ele>1263.6</ele>
        <time>2026-05-13T14:23:44Z</time>
      </trkpt>
      <trkpt lat="45.88738" lon="5.77153">
        <ele>1263.6</ele>
        <time>2026-05-13T14:23:45Z</time>
      </trkpt>
      <trkpt lat="45.88741" lon="5.77153">
        <ele>1263.4</ele>
        <time>2026-05-13T14:23:46Z</time>
      </trkpt>
      <trkpt lat="45.88744" lon="5.77154">
        <ele>1263.2</ele>
        <time>2026-05-13T14:23:47Z</time>
      </trkpt>
      <trkpt lat="45.88746" lon="5.77155">
        <ele>1262.4</ele>
        <time>2026-05-13T14:23:48Z</time>
      </trkpt>
      <trkpt lat="45.8875" lon="5.77156">
        <ele>1262.4</ele>
        <time>2026-05-13T14:23:49Z</time>
      </trkpt>
      <trkpt lat="45.88753" lon="5.77157">
        <ele>1262.2</ele>
        <time>2026-05-13T14:23:50Z</time>
      </trkpt>
      <trkpt lat="45.88756" lon="5.77157">
        <ele>1261.6</ele>
        <time>2026-05-13T14:23:51Z</time>
      </trkpt>
      <trkpt lat="45.8876" lon="5.77157">
        <ele>1261.4</ele>
        <time>2026-05-13T14:23:52Z</time>
      </trkpt>
      <trkpt lat="45.88763" lon="5.77157">
        <ele>1261.2</ele>
        <time>2026-05-13T14:23:53Z</time>
      </trkpt>
      <trkpt lat="45.88765" lon="5.77157">
        <ele>1261.2</ele>
        <time>2026-05-13T14:23:54Z</time>
      </trkpt>
      <trkpt lat="45.88768" lon="5.77158">
        <ele>1261.2</ele>
        <time>2026-05-13T14:23:55Z</time>
      </trkpt>
      <trkpt lat="45.88769" lon="5.77159">
        <ele>1261.2</ele>
        <time>2026-05-13T14:23:56Z</time>
      </trkpt>
      <trkpt lat="45.88769" lon="5.77159">
        <ele>1261.2</ele>
        <time>2026-05-13T14:23:57Z</time>
      </trkpt>
      <trkpt lat="45.8877" lon="5.77159">
        <ele>1261.2</ele>
        <time>2026-05-13T14:23:58Z</time>
      </trkpt>
      <trkpt lat="45.8877" lon="5.7716">
        <ele>1261.2</ele>
        <time>2026-05-13T14:23:59Z</time>
      </trkpt>
      <trkpt lat="45.88771" lon="5.7716">
        <ele>1261.2</ele>
        <time>2026-05-13T14:24:00Z</time>
      </trkpt>
      <trkpt lat="45.88771" lon="5.7716">
        <ele>1261.2</ele>
        <time>2026-05-13T14:24:01Z</time>
      </trkpt>
      <trkpt lat="45.88772" lon="5.7716">
        <ele>1261.2</ele>
        <time>2026-05-13T14:24:02Z</time>
      </trkpt>
      <trkpt lat="45.88773" lon="5.7716">
        <ele>1261.2</ele>
        <time>2026-05-13T14:24:03Z</time>
      </trkpt>
      <trkpt lat="45.88773" lon="5.7716">
        <ele>1261.2</ele>
        <time>2026-05-13T14:24:04Z</time>
      </trkpt>
      <trkpt lat="45.88774" lon="5.7716">
        <ele>1261.2</ele>
        <time>2026-05-13T14:24:05Z</time>
      </trkpt>
      <trkpt lat="45.88774" lon="5.77159">
        <ele>1261.2</ele>
        <time>2026-05-13T14:24:06Z</time>
      </trkpt>
      <trkpt lat="45.88774" lon="5.77159">
        <ele>1261.2</ele>
        <time>2026-05-13T14:24:07Z</time>
      </trkpt>
      <trkpt lat="45.88774" lon="5.77158">
        <ele>1261.2</ele>
        <time>2026-05-13T14:24:08Z</time>
      </trkpt>
      <trkpt lat="45.88775" lon="5.77158">
        <ele>1261.2</ele>
        <time>2026-05-13T14:24:09Z</time>
      </trkpt>
      <trkpt lat="45.88775" lon="5.77158">
        <ele>1261.2</ele>
        <time>2026-05-13T14:24:10Z</time>
      </trkpt>
      <trkpt lat="45.88775" lon="5.77158">
        <ele>1261.2</ele>
        <time>2026-05-13T14:24:11Z</time>
      </trkpt>
      <trkpt lat="45.88775" lon="5.77159">
        <ele>1261.2</ele>
        <time>2026-05-13T14:24:12Z</time>
      </trkpt>
      <trkpt lat="45.88774" lon="5.7716">
        <ele>1261.2</ele>
        <time>2026-05-13T14:24:13Z</time>
      </trkpt>
      <trkpt lat="45.88774" lon="5.77159">
        <ele>1261.2</ele>
        <time>2026-05-13T14:24:14Z</time>
      </trkpt>
      <trkpt lat="45.88774" lon="5.77159">
        <ele>1261.2</ele>
        <time>2026-05-13T14:24:15Z</time>
      </trkpt>
      <trkpt lat="45.88773" lon="5.77158">
        <ele>1261.8</ele>
        <time>2026-05-13T14:24:22Z</time>
      </trkpt>
      <trkpt lat="45.88773" lon="5.77158">
        <ele>1261.8</ele>
        <time>2026-05-13T14:24:23Z</time>
      </trkpt>
      <trkpt lat="45.88776" lon="5.77156">
        <ele>1261.4</ele>
        <time>2026-05-13T14:24:27Z</time>
      </trkpt>
      <trkpt lat="45.88778" lon="5.77156">
        <ele>1261.4</ele>
        <time>2026-05-13T14:24:28Z</time>
      </trkpt>
      <trkpt lat="45.88781" lon="5.77156">
        <ele>1261.4</ele>
        <time>2026-05-13T14:24:29Z</time>
      </trkpt>
      <trkpt lat="45.88783" lon="5.77156">
        <ele>1261.4</ele>
        <time>2026-05-13T14:24:30Z</time>
      </trkpt>
      <trkpt lat="45.88784" lon="5.77157">
        <ele>1261</ele>
        <time>2026-05-13T14:24:31Z</time>
      </trkpt>
      <trkpt lat="45.88785" lon="5.77158">
        <ele>1261</ele>
        <time>2026-05-13T14:24:32Z</time>
      </trkpt>
      <trkpt lat="45.88787" lon="5.77159">
        <ele>1261</ele>
        <time>2026-05-13T14:24:33Z</time>
      </trkpt>
      <trkpt lat="45.88788" lon="5.77159">
        <ele>1261</ele>
        <time>2026-05-13T14:24:34Z</time>
      </trkpt>
      <trkpt lat="45.8879" lon="5.77159">
        <ele>1261.4</ele>
        <time>2026-05-13T14:24:35Z</time>
      </trkpt>
      <trkpt lat="45.88792" lon="5.77159">
        <ele>1261.4</ele>
        <time>2026-05-13T14:24:36Z</time>
      </trkpt>
      <trkpt lat="45.88795" lon="5.7716">
        <ele>1261.4</ele>
        <time>2026-05-13T14:24:37Z</time>
      </trkpt>
      <trkpt lat="45.88797" lon="5.7716">
        <ele>1261.4</ele>
        <time>2026-05-13T14:24:38Z</time>
      </trkpt>
      <trkpt lat="45.888" lon="5.7716">
        <ele>1261.4</ele>
        <time>2026-05-13T14:24:39Z</time>
      </trkpt>
      <trkpt lat="45.88803" lon="5.7716">
        <ele>1261</ele>
        <time>2026-05-13T14:24:40Z</time>
      </trkpt>
      <trkpt lat="45.88805" lon="5.7716">
        <ele>1261</ele>
        <time>2026-05-13T14:24:41Z</time>
      </trkpt>
      <trkpt lat="45.88808" lon="5.7716">
        <ele>1260.8</ele>
        <time>2026-05-13T14:24:42Z</time>
      </trkpt>
      <trkpt lat="45.88812" lon="5.77161">
        <ele>1260.2</ele>
        <time>2026-05-13T14:24:43Z</time>
      </trkpt>
      <trkpt lat="45.88816" lon="5.77162">
        <ele>1260.2</ele>
        <time>2026-05-13T14:24:44Z</time>
      </trkpt>
      <trkpt lat="45.88819" lon="5.77163">
        <ele>1259.8</ele>
        <time>2026-05-13T14:24:45Z</time>
      </trkpt>
      <trkpt lat="45.88823" lon="5.77164">
        <ele>1259.8</ele>
        <time>2026-05-13T14:24:46Z</time>
      </trkpt>
      <trkpt lat="45.88826" lon="5.77165">
        <ele>1259.6</ele>
        <time>2026-05-13T14:24:47Z</time>
      </trkpt>
      <trkpt lat="45.8883" lon="5.77167">
        <ele>1259.6</ele>
        <time>2026-05-13T14:24:48Z</time>
      </trkpt>
      <trkpt lat="45.88833" lon="5.77168">
        <ele>1259.6</ele>
        <time>2026-05-13T14:24:49Z</time>
      </trkpt>
      <trkpt lat="45.88836" lon="5.77168">
        <ele>1259.8</ele>
        <time>2026-05-13T14:24:50Z</time>
      </trkpt>
      <trkpt lat="45.88839" lon="5.77169">
        <ele>1260</ele>
        <time>2026-05-13T14:24:51Z</time>
      </trkpt>
      <trkpt lat="45.88843" lon="5.77171">
        <ele>1259.8</ele>
        <time>2026-05-13T14:24:52Z</time>
      </trkpt>
      <trkpt lat="45.88845" lon="5.77172">
        <ele>1260</ele>
        <time>2026-05-13T14:24:53Z</time>
      </trkpt>
      <trkpt lat="45.88846" lon="5.77172">
        <ele>1260</ele>
        <time>2026-05-13T14:24:54Z</time>
      </trkpt>
      <trkpt lat="45.88849" lon="5.77173">
        <ele>1260.4</ele>
        <time>2026-05-13T14:24:55Z</time>
      </trkpt>
      <trkpt lat="45.88852" lon="5.77174">
        <ele>1260.4</ele>
        <time>2026-05-13T14:24:56Z</time>
      </trkpt>
      <trkpt lat="45.88854" lon="5.77175">
        <ele>1260.4</ele>
        <time>2026-05-13T14:24:57Z</time>
      </trkpt>
      <trkpt lat="45.88857" lon="5.77175">
        <ele>1260.8</ele>
        <time>2026-05-13T14:24:58Z</time>
      </trkpt>
      <trkpt lat="45.88859" lon="5.77176">
        <ele>1260.8</ele>
        <time>2026-05-13T14:24:59Z</time>
      </trkpt>
      <trkpt lat="45.88861" lon="5.77176">
        <ele>1260.8</ele>
        <time>2026-05-13T14:25:00Z</time>
      </trkpt>
      <trkpt lat="45.88864" lon="5.77177">
        <ele>1260.8</ele>
        <time>2026-05-13T14:25:01Z</time>
      </trkpt>
      <trkpt lat="45.88866" lon="5.77178">
        <ele>1261.2</ele>
        <time>2026-05-13T14:25:02Z</time>
      </trkpt>
      <trkpt lat="45.88869" lon="5.77179">
        <ele>1261.2</ele>
        <time>2026-05-13T14:25:03Z</time>
      </trkpt>
      <trkpt lat="45.88871" lon="5.7718">
        <ele>1261.2</ele>
        <time>2026-05-13T14:25:04Z</time>
      </trkpt>
      <trkpt lat="45.88874" lon="5.7718">
        <ele>1261.2</ele>
        <time>2026-05-13T14:25:05Z</time>
      </trkpt>
      <trkpt lat="45.88876" lon="5.7718">
        <ele>1261.2</ele>
        <time>2026-05-13T14:25:06Z</time>
      </trkpt>
      <trkpt lat="45.88878" lon="5.77181">
        <ele>1261.2</ele>
        <time>2026-05-13T14:25:07Z</time>
      </trkpt>
      <trkpt lat="45.8888" lon="5.77182">
        <ele>1261.6</ele>
        <time>2026-05-13T14:25:08Z</time>
      </trkpt>
      <trkpt lat="45.88882" lon="5.77183">
        <ele>1262</ele>
        <time>2026-05-13T14:25:09Z</time>
      </trkpt>
      <trkpt lat="45.88885" lon="5.77183">
        <ele>1262</ele>
        <time>2026-05-13T14:25:10Z</time>
      </trkpt>
      <trkpt lat="45.88887" lon="5.77184">
        <ele>1262.4</ele>
        <time>2026-05-13T14:25:11Z</time>
      </trkpt>
      <trkpt lat="45.88889" lon="5.77185">
        <ele>1262.6</ele>
        <time>2026-05-13T14:25:12Z</time>
      </trkpt>
      <trkpt lat="45.88892" lon="5.77186">
        <ele>1262.8</ele>
        <time>2026-05-13T14:25:13Z</time>
      </trkpt>
      <trkpt lat="45.88894" lon="5.77188">
        <ele>1263</ele>
        <time>2026-05-13T14:25:14Z</time>
      </trkpt>
      <trkpt lat="45.88897" lon="5.7719">
        <ele>1263</ele>
        <time>2026-05-13T14:25:15Z</time>
      </trkpt>
      <trkpt lat="45.88899" lon="5.77192">
        <ele>1263</ele>
        <time>2026-05-13T14:25:16Z</time>
      </trkpt>
      <trkpt lat="45.88902" lon="5.77193">
        <ele>1263</ele>
        <time>2026-05-13T14:25:17Z</time>
      </trkpt>
      <trkpt lat="45.88904" lon="5.77194">
        <ele>1263</ele>
        <time>2026-05-13T14:25:18Z</time>
      </trkpt>
      <trkpt lat="45.88907" lon="5.77194">
        <ele>1263.4</ele>
        <time>2026-05-13T14:25:19Z</time>
      </trkpt>
      <trkpt lat="45.8891" lon="5.77195">
        <ele>1263.4</ele>
        <time>2026-05-13T14:25:20Z</time>
      </trkpt>
      <trkpt lat="45.88912" lon="5.77196">
        <ele>1263.4</ele>
        <time>2026-05-13T14:25:21Z</time>
      </trkpt>
      <trkpt lat="45.88914" lon="5.77197">
        <ele>1263.4</ele>
        <time>2026-05-13T14:25:22Z</time>
      </trkpt>
      <trkpt lat="45.88916" lon="5.77198">
        <ele>1263.4</ele>
        <time>2026-05-13T14:25:23Z</time>
      </trkpt>
      <trkpt lat="45.88919" lon="5.77198">
        <ele>1263.4</ele>
        <time>2026-05-13T14:25:24Z</time>
      </trkpt>
      <trkpt lat="45.88921" lon="5.77199">
        <ele>1263.4</ele>
        <time>2026-05-13T14:25:25Z</time>
      </trkpt>
      <trkpt lat="45.88924" lon="5.772">
        <ele>1263.4</ele>
        <time>2026-05-13T14:25:26Z</time>
      </trkpt>
      <trkpt lat="45.88927" lon="5.772">
        <ele>1263.4</ele>
        <time>2026-05-13T14:25:27Z</time>
      </trkpt>
      <trkpt lat="45.88929" lon="5.77201">
        <ele>1263.4</ele>
        <time>2026-05-13T14:25:28Z</time>
      </trkpt>
      <trkpt lat="45.88931" lon="5.77201">
        <ele>1263.4</ele>
        <time>2026-05-13T14:25:29Z</time>
      </trkpt>
      <trkpt lat="45.88932" lon="5.77201">
        <ele>1263.4</ele>
        <time>2026-05-13T14:25:30Z</time>
      </trkpt>
      <trkpt lat="45.88934" lon="5.77201">
        <ele>1263.6</ele>
        <time>2026-05-13T14:25:31Z</time>
      </trkpt>
      <trkpt lat="45.88937" lon="5.77202">
        <ele>1263.6</ele>
        <time>2026-05-13T14:25:32Z</time>
      </trkpt>
      <trkpt lat="45.8894" lon="5.77203">
        <ele>1263.6</ele>
        <time>2026-05-13T14:25:33Z</time>
      </trkpt>
      <trkpt lat="45.88943" lon="5.77204">
        <ele>1263.6</ele>
        <time>2026-05-13T14:25:34Z</time>
      </trkpt>
      <trkpt lat="45.88946" lon="5.77206">
        <ele>1263.6</ele>
        <time>2026-05-13T14:25:35Z</time>
      </trkpt>
      <trkpt lat="45.88949" lon="5.77207">
        <ele>1263</ele>
        <time>2026-05-13T14:25:36Z</time>
      </trkpt>
      <trkpt lat="45.88952" lon="5.77208">
        <ele>1263</ele>
        <time>2026-05-13T14:25:37Z</time>
      </trkpt>
      <trkpt lat="45.88955" lon="5.77209">
        <ele>1263</ele>
        <time>2026-05-13T14:25:38Z</time>
      </trkpt>
      <trkpt lat="45.88957" lon="5.7721">
        <ele>1261.8</ele>
        <time>2026-05-13T14:25:39Z</time>
      </trkpt>
      <trkpt lat="45.8896" lon="5.77211">
        <ele>1261.8</ele>
        <time>2026-05-13T14:25:40Z</time>
      </trkpt>
      <trkpt lat="45.88962" lon="5.77213">
        <ele>1261.6</ele>
        <time>2026-05-13T14:25:41Z</time>
      </trkpt>
      <trkpt lat="45.88964" lon="5.77215">
        <ele>1261.6</ele>
        <time>2026-05-13T14:25:42Z</time>
      </trkpt>
      <trkpt lat="45.88966" lon="5.77217">
        <ele>1261.2</ele>
        <time>2026-05-13T14:25:43Z</time>
      </trkpt>
      <trkpt lat="45.88969" lon="5.77219">
        <ele>1260.8</ele>
        <time>2026-05-13T14:25:44Z</time>
      </trkpt>
      <trkpt lat="45.88972" lon="5.7722">
        <ele>1260.8</ele>
        <time>2026-05-13T14:25:45Z</time>
      </trkpt>
      <trkpt lat="45.88977" lon="5.77224">
        <ele>1260.2</ele>
        <time>2026-05-13T14:25:46Z</time>
      </trkpt>
      <trkpt lat="45.8898" lon="5.77227">
        <ele>1259.8</ele>
        <time>2026-05-13T14:25:47Z</time>
      </trkpt>
      <trkpt lat="45.88984" lon="5.77229">
        <ele>1259.8</ele>
        <time>2026-05-13T14:25:48Z</time>
      </trkpt>
      <trkpt lat="45.88988" lon="5.77229">
        <ele>1259.8</ele>
        <time>2026-05-13T14:25:49Z</time>
      </trkpt>
      <trkpt lat="45.88991" lon="5.7723">
        <ele>1259.6</ele>
        <time>2026-05-13T14:25:50Z</time>
      </trkpt>
      <trkpt lat="45.88994" lon="5.77228">
        <ele>1259.2</ele>
        <time>2026-05-13T14:25:51Z</time>
      </trkpt>
      <trkpt lat="45.88996" lon="5.77227">
        <ele>1259.2</ele>
        <time>2026-05-13T14:25:52Z</time>
      </trkpt>
      <trkpt lat="45.88998" lon="5.77226">
        <ele>1259.6</ele>
        <time>2026-05-13T14:25:53Z</time>
      </trkpt>
      <trkpt lat="45.89" lon="5.77226">
        <ele>1259.6</ele>
        <time>2026-05-13T14:25:54Z</time>
      </trkpt>
      <trkpt lat="45.89001" lon="5.77224">
        <ele>1259.6</ele>
        <time>2026-05-13T14:25:55Z</time>
      </trkpt>
      <trkpt lat="45.89002" lon="5.77223">
        <ele>1259.6</ele>
        <time>2026-05-13T14:25:56Z</time>
      </trkpt>
      <trkpt lat="45.89004" lon="5.77224">
        <ele>1260.2</ele>
        <time>2026-05-13T14:25:57Z</time>
      </trkpt>
      <trkpt lat="45.89006" lon="5.77225">
        <ele>1260.4</ele>
        <time>2026-05-13T14:25:58Z</time>
      </trkpt>
      <trkpt lat="45.89008" lon="5.77226">
        <ele>1260.6</ele>
        <time>2026-05-13T14:25:59Z</time>
      </trkpt>
      <trkpt lat="45.8901" lon="5.77226">
        <ele>1260.2</ele>
        <time>2026-05-13T14:26:00Z</time>
      </trkpt>
      <trkpt lat="45.89012" lon="5.77227">
        <ele>1260.6</ele>
        <time>2026-05-13T14:26:01Z</time>
      </trkpt>
      <trkpt lat="45.89014" lon="5.77228">
        <ele>1261</ele>
        <time>2026-05-13T14:26:02Z</time>
      </trkpt>
      <trkpt lat="45.89016" lon="5.77229">
        <ele>1261</ele>
        <time>2026-05-13T14:26:03Z</time>
      </trkpt>
      <trkpt lat="45.89019" lon="5.7723">
        <ele>1261.4</ele>
        <time>2026-05-13T14:26:04Z</time>
      </trkpt>
      <trkpt lat="45.89021" lon="5.77231">
        <ele>1261.4</ele>
        <time>2026-05-13T14:26:05Z</time>
      </trkpt>
      <trkpt lat="45.89023" lon="5.77232">
        <ele>1261.4</ele>
        <time>2026-05-13T14:26:06Z</time>
      </trkpt>
      <trkpt lat="45.89025" lon="5.77233">
        <ele>1261.4</ele>
        <time>2026-05-13T14:26:07Z</time>
      </trkpt>
      <trkpt lat="45.89028" lon="5.77234">
        <ele>1261.6</ele>
        <time>2026-05-13T14:26:08Z</time>
      </trkpt>
      <trkpt lat="45.8903" lon="5.77235">
        <ele>1261.8</ele>
        <time>2026-05-13T14:26:09Z</time>
      </trkpt>
      <trkpt lat="45.89032" lon="5.77236">
        <ele>1261.8</ele>
        <time>2026-05-13T14:26:10Z</time>
      </trkpt>
      <trkpt lat="45.89034" lon="5.77238">
        <ele>1262.2</ele>
        <time>2026-05-13T14:26:11Z</time>
      </trkpt>
      <trkpt lat="45.89036" lon="5.77239">
        <ele>1262.2</ele>
        <time>2026-05-13T14:26:12Z</time>
      </trkpt>
      <trkpt lat="45.89038" lon="5.77241">
        <ele>1262.4</ele>
        <time>2026-05-13T14:26:13Z</time>
      </trkpt>
      <trkpt lat="45.89038" lon="5.77241">
        <ele>1262.4</ele>
        <time>2026-05-13T14:26:14Z</time>
      </trkpt>
      <trkpt lat="45.89041" lon="5.77242">
        <ele>1262.4</ele>
        <time>2026-05-13T14:26:15Z</time>
      </trkpt>
      <trkpt lat="45.89043" lon="5.77243">
        <ele>1262.4</ele>
        <time>2026-05-13T14:26:16Z</time>
      </trkpt>
      <trkpt lat="45.89045" lon="5.77245">
        <ele>1262.4</ele>
        <time>2026-05-13T14:26:17Z</time>
      </trkpt>
      <trkpt lat="45.89047" lon="5.77246">
        <ele>1262.2</ele>
        <time>2026-05-13T14:26:18Z</time>
      </trkpt>
      <trkpt lat="45.8905" lon="5.77247">
        <ele>1262.2</ele>
        <time>2026-05-13T14:26:19Z</time>
      </trkpt>
      <trkpt lat="45.89052" lon="5.77249">
        <ele>1262.2</ele>
        <time>2026-05-13T14:26:20Z</time>
      </trkpt>
      <trkpt lat="45.89053" lon="5.7725">
        <ele>1262.2</ele>
        <time>2026-05-13T14:26:21Z</time>
      </trkpt>
      <trkpt lat="45.89056" lon="5.77251">
        <ele>1262.2</ele>
        <time>2026-05-13T14:26:22Z</time>
      </trkpt>
      <trkpt lat="45.89058" lon="5.77252">
        <ele>1262.2</ele>
        <time>2026-05-13T14:26:23Z</time>
      </trkpt>
      <trkpt lat="45.89059" lon="5.77253">
        <ele>1262.2</ele>
        <time>2026-05-13T14:26:24Z</time>
      </trkpt>
      <trkpt lat="45.89061" lon="5.77255">
        <ele>1262.2</ele>
        <time>2026-05-13T14:26:25Z</time>
      </trkpt>
      <trkpt lat="45.89062" lon="5.77256">
        <ele>1262.2</ele>
        <time>2026-05-13T14:26:26Z</time>
      </trkpt>
      <trkpt lat="45.89064" lon="5.77257">
        <ele>1262.4</ele>
        <time>2026-05-13T14:26:27Z</time>
      </trkpt>
      <trkpt lat="45.89066" lon="5.77258">
        <ele>1262.4</ele>
        <time>2026-05-13T14:26:28Z</time>
      </trkpt>
      <trkpt lat="45.89068" lon="5.77258">
        <ele>1262.4</ele>
        <time>2026-05-13T14:26:29Z</time>
      </trkpt>
      <trkpt lat="45.89069" lon="5.77259">
        <ele>1262.4</ele>
        <time>2026-05-13T14:26:30Z</time>
      </trkpt>
      <trkpt lat="45.89072" lon="5.7726">
        <ele>1262.4</ele>
        <time>2026-05-13T14:26:31Z</time>
      </trkpt>
      <trkpt lat="45.89073" lon="5.77261">
        <ele>1262.2</ele>
        <time>2026-05-13T14:26:32Z</time>
      </trkpt>
      <trkpt lat="45.89074" lon="5.77262">
        <ele>1262.2</ele>
        <time>2026-05-13T14:26:33Z</time>
      </trkpt>
      <trkpt lat="45.89076" lon="5.77263">
        <ele>1262.2</ele>
        <time>2026-05-13T14:26:34Z</time>
      </trkpt>
      <trkpt lat="45.89079" lon="5.77266">
        <ele>1262.2</ele>
        <time>2026-05-13T14:26:35Z</time>
      </trkpt>
      <trkpt lat="45.89081" lon="5.77268">
        <ele>1262.2</ele>
        <time>2026-05-13T14:26:36Z</time>
      </trkpt>
      <trkpt lat="45.89083" lon="5.7727">
        <ele>1262.2</ele>
        <time>2026-05-13T14:26:37Z</time>
      </trkpt>
      <trkpt lat="45.89086" lon="5.77272">
        <ele>1262.2</ele>
        <time>2026-05-13T14:26:38Z</time>
      </trkpt>
      <trkpt lat="45.89088" lon="5.77274">
        <ele>1262.2</ele>
        <time>2026-05-13T14:26:39Z</time>
      </trkpt>
      <trkpt lat="45.8909" lon="5.77275">
        <ele>1262.2</ele>
        <time>2026-05-13T14:26:40Z</time>
      </trkpt>
      <trkpt lat="45.89092" lon="5.77275">
        <ele>1262.2</ele>
        <time>2026-05-13T14:26:41Z</time>
      </trkpt>
      <trkpt lat="45.89095" lon="5.77276">
        <ele>1262.2</ele>
        <time>2026-05-13T14:26:42Z</time>
      </trkpt>
      <trkpt lat="45.89098" lon="5.77277">
        <ele>1262.2</ele>
        <time>2026-05-13T14:26:43Z</time>
      </trkpt>
      <trkpt lat="45.89101" lon="5.77278">
        <ele>1262.2</ele>
        <time>2026-05-13T14:26:44Z</time>
      </trkpt>
      <trkpt lat="45.89103" lon="5.77279">
        <ele>1262.2</ele>
        <time>2026-05-13T14:26:45Z</time>
      </trkpt>
      <trkpt lat="45.89105" lon="5.77279">
        <ele>1262.2</ele>
        <time>2026-05-13T14:26:46Z</time>
      </trkpt>
      <trkpt lat="45.89107" lon="5.7728">
        <ele>1262.2</ele>
        <time>2026-05-13T14:26:47Z</time>
      </trkpt>
      <trkpt lat="45.89108" lon="5.7728">
        <ele>1262.2</ele>
        <time>2026-05-13T14:26:48Z</time>
      </trkpt>
      <trkpt lat="45.8911" lon="5.7728">
        <ele>1262</ele>
        <time>2026-05-13T14:26:49Z</time>
      </trkpt>
      <trkpt lat="45.89113" lon="5.7728">
        <ele>1262</ele>
        <time>2026-05-13T14:26:50Z</time>
      </trkpt>
      <trkpt lat="45.89116" lon="5.7728">
        <ele>1262</ele>
        <time>2026-05-13T14:26:51Z</time>
      </trkpt>
      <trkpt lat="45.89118" lon="5.77281">
        <ele>1262</ele>
        <time>2026-05-13T14:26:52Z</time>
      </trkpt>
      <trkpt lat="45.89121" lon="5.77282">
        <ele>1262</ele>
        <time>2026-05-13T14:26:53Z</time>
      </trkpt>
      <trkpt lat="45.89124" lon="5.77283">
        <ele>1262.4</ele>
        <time>2026-05-13T14:26:54Z</time>
      </trkpt>
      <trkpt lat="45.89127" lon="5.77284">
        <ele>1262.4</ele>
        <time>2026-05-13T14:26:55Z</time>
      </trkpt>
      <trkpt lat="45.8913" lon="5.77286">
        <ele>1262.2</ele>
        <time>2026-05-13T14:26:56Z</time>
      </trkpt>
      <trkpt lat="45.89133" lon="5.77288">
        <ele>1262.2</ele>
        <time>2026-05-13T14:26:57Z</time>
      </trkpt>
      <trkpt lat="45.89135" lon="5.77291">
        <ele>1262</ele>
        <time>2026-05-13T14:26:58Z</time>
      </trkpt>
      <trkpt lat="45.89138" lon="5.77293">
        <ele>1262</ele>
        <time>2026-05-13T14:26:59Z</time>
      </trkpt>
      <trkpt lat="45.8914" lon="5.77295">
        <ele>1261.8</ele>
        <time>2026-05-13T14:27:00Z</time>
      </trkpt>
      <trkpt lat="45.89143" lon="5.77297">
        <ele>1261.8</ele>
        <time>2026-05-13T14:27:01Z</time>
      </trkpt>
      <trkpt lat="45.89146" lon="5.77298">
        <ele>1261.8</ele>
        <time>2026-05-13T14:27:02Z</time>
      </trkpt>
      <trkpt lat="45.89149" lon="5.77301">
        <ele>1261.8</ele>
        <time>2026-05-13T14:27:03Z</time>
      </trkpt>
      <trkpt lat="45.89153" lon="5.77303">
        <ele>1261.6</ele>
        <time>2026-05-13T14:27:04Z</time>
      </trkpt>
      <trkpt lat="45.89156" lon="5.77305">
        <ele>1261.2</ele>
        <time>2026-05-13T14:27:05Z</time>
      </trkpt>
      <trkpt lat="45.89159" lon="5.77307">
        <ele>1261.2</ele>
        <time>2026-05-13T14:27:06Z</time>
      </trkpt>
      <trkpt lat="45.89162" lon="5.77308">
        <ele>1261.2</ele>
        <time>2026-05-13T14:27:07Z</time>
      </trkpt>
      <trkpt lat="45.89165" lon="5.7731">
        <ele>1261.2</ele>
        <time>2026-05-13T14:27:08Z</time>
      </trkpt>
      <trkpt lat="45.89169" lon="5.77312">
        <ele>1261.2</ele>
        <time>2026-05-13T14:27:09Z</time>
      </trkpt>
      <trkpt lat="45.89173" lon="5.77314">
        <ele>1261.2</ele>
        <time>2026-05-13T14:27:10Z</time>
      </trkpt>
      <trkpt lat="45.89176" lon="5.77315">
        <ele>1261</ele>
        <time>2026-05-13T14:27:11Z</time>
      </trkpt>
      <trkpt lat="45.8918" lon="5.77316">
        <ele>1261</ele>
        <time>2026-05-13T14:27:12Z</time>
      </trkpt>
      <trkpt lat="45.89184" lon="5.77318">
        <ele>1261</ele>
        <time>2026-05-13T14:27:13Z</time>
      </trkpt>
      <trkpt lat="45.89188" lon="5.7732">
        <ele>1260.8</ele>
        <time>2026-05-13T14:27:14Z</time>
      </trkpt>
      <trkpt lat="45.89193" lon="5.77322">
        <ele>1260.8</ele>
        <time>2026-05-13T14:27:15Z</time>
      </trkpt>
      <trkpt lat="45.89197" lon="5.77324">
        <ele>1260.8</ele>
        <time>2026-05-13T14:27:16Z</time>
      </trkpt>
      <trkpt lat="45.89201" lon="5.77326">
        <ele>1260.4</ele>
        <time>2026-05-13T14:27:17Z</time>
      </trkpt>
      <trkpt lat="45.89206" lon="5.77327">
        <ele>1260.4</ele>
        <time>2026-05-13T14:27:18Z</time>
      </trkpt>
      <trkpt lat="45.8921" lon="5.77329">
        <ele>1260</ele>
        <time>2026-05-13T14:27:19Z</time>
      </trkpt>
      <trkpt lat="45.89215" lon="5.77326">
        <ele>1259.8</ele>
        <time>2026-05-13T14:27:20Z</time>
      </trkpt>
      <trkpt lat="45.8922" lon="5.77328">
        <ele>1259.4</ele>
        <time>2026-05-13T14:27:21Z</time>
      </trkpt>
      <trkpt lat="45.89225" lon="5.77327">
        <ele>1258.2</ele>
        <time>2026-05-13T14:27:22Z</time>
      </trkpt>
      <trkpt lat="45.89228" lon="5.77327">
        <ele>1258.2</ele>
        <time>2026-05-13T14:27:23Z</time>
      </trkpt>
      <trkpt lat="45.89232" lon="5.77329">
        <ele>1258.2</ele>
        <time>2026-05-13T14:27:24Z</time>
      </trkpt>
      <trkpt lat="45.89236" lon="5.7733">
        <ele>1258.6</ele>
        <time>2026-05-13T14:27:25Z</time>
      </trkpt>
      <trkpt lat="45.89239" lon="5.7733">
        <ele>1258.4</ele>
        <time>2026-05-13T14:27:26Z</time>
      </trkpt>
      <trkpt lat="45.89243" lon="5.7733">
        <ele>1257.8</ele>
        <time>2026-05-13T14:27:27Z</time>
      </trkpt>
      <trkpt lat="45.89246" lon="5.7733">
        <ele>1257.8</ele>
        <time>2026-05-13T14:27:28Z</time>
      </trkpt>
      <trkpt lat="45.89249" lon="5.77329">
        <ele>1257.8</ele>
        <time>2026-05-13T14:27:29Z</time>
      </trkpt>
      <trkpt lat="45.89253" lon="5.77331">
        <ele>1257</ele>
        <time>2026-05-13T14:27:30Z</time>
      </trkpt>
      <trkpt lat="45.89257" lon="5.77333">
        <ele>1256.6</ele>
        <time>2026-05-13T14:27:31Z</time>
      </trkpt>
      <trkpt lat="45.89261" lon="5.77333">
        <ele>1256.6</ele>
        <time>2026-05-13T14:27:32Z</time>
      </trkpt>
      <trkpt lat="45.89264" lon="5.77335">
        <ele>1256.2</ele>
        <time>2026-05-13T14:27:33Z</time>
      </trkpt>
      <trkpt lat="45.89269" lon="5.77337">
        <ele>1255.4</ele>
        <time>2026-05-13T14:27:34Z</time>
      </trkpt>
      <trkpt lat="45.89273" lon="5.77338">
        <ele>1255.8</ele>
        <time>2026-05-13T14:27:35Z</time>
      </trkpt>
      <trkpt lat="45.89278" lon="5.77339">
        <ele>1255</ele>
        <time>2026-05-13T14:27:36Z</time>
      </trkpt>
      <trkpt lat="45.89283" lon="5.77341">
        <ele>1254.4</ele>
        <time>2026-05-13T14:27:37Z</time>
      </trkpt>
      <trkpt lat="45.89287" lon="5.7734">
        <ele>1254</ele>
        <time>2026-05-13T14:27:38Z</time>
      </trkpt>
      <trkpt lat="45.89291" lon="5.77338">
        <ele>1254</ele>
        <time>2026-05-13T14:27:39Z</time>
      </trkpt>
      <trkpt lat="45.89296" lon="5.77341">
        <ele>1253.4</ele>
        <time>2026-05-13T14:27:40Z</time>
      </trkpt>
      <trkpt lat="45.89304" lon="5.77339">
        <ele>1253</ele>
        <time>2026-05-13T14:27:41Z</time>
      </trkpt>
      <trkpt lat="45.89308" lon="5.77339">
        <ele>1252.6</ele>
        <time>2026-05-13T14:27:42Z</time>
      </trkpt>
      <trkpt lat="45.89312" lon="5.77339">
        <ele>1252.4</ele>
        <time>2026-05-13T14:27:43Z</time>
      </trkpt>
      <trkpt lat="45.89316" lon="5.77339">
        <ele>1252</ele>
        <time>2026-05-13T14:27:44Z</time>
      </trkpt>
      <trkpt lat="45.8932" lon="5.77339">
        <ele>1251.6</ele>
        <time>2026-05-13T14:27:45Z</time>
      </trkpt>
      <trkpt lat="45.89324" lon="5.77339">
        <ele>1250.6</ele>
        <time>2026-05-13T14:27:46Z</time>
      </trkpt>
      <trkpt lat="45.89329" lon="5.77338">
        <ele>1250.4</ele>
        <time>2026-05-13T14:27:47Z</time>
      </trkpt>
      <trkpt lat="45.89332" lon="5.77338">
        <ele>1249.6</ele>
        <time>2026-05-13T14:27:48Z</time>
      </trkpt>
      <trkpt lat="45.89336" lon="5.77337">
        <ele>1248.6</ele>
        <time>2026-05-13T14:27:49Z</time>
      </trkpt>
      <trkpt lat="45.89339" lon="5.77336">
        <ele>1248</ele>
        <time>2026-05-13T14:27:50Z</time>
      </trkpt>
      <trkpt lat="45.89343" lon="5.77335">
        <ele>1247.6</ele>
        <time>2026-05-13T14:27:51Z</time>
      </trkpt>
      <trkpt lat="45.89347" lon="5.77334">
        <ele>1247.6</ele>
        <time>2026-05-13T14:27:52Z</time>
      </trkpt>
      <trkpt lat="45.8935" lon="5.77334">
        <ele>1247.6</ele>
        <time>2026-05-13T14:27:53Z</time>
      </trkpt>
      <trkpt lat="45.89352" lon="5.77335">
        <ele>1247.6</ele>
        <time>2026-05-13T14:27:54Z</time>
      </trkpt>
      <trkpt lat="45.89356" lon="5.77334">
        <ele>1247.2</ele>
        <time>2026-05-13T14:27:55Z</time>
      </trkpt>
      <trkpt lat="45.8936" lon="5.77334">
        <ele>1246.4</ele>
        <time>2026-05-13T14:27:56Z</time>
      </trkpt>
      <trkpt lat="45.89364" lon="5.77333">
        <ele>1245.8</ele>
        <time>2026-05-13T14:27:57Z</time>
      </trkpt>
      <trkpt lat="45.89368" lon="5.77338">
        <ele>1244.4</ele>
        <time>2026-05-13T14:27:58Z</time>
      </trkpt>
      <trkpt lat="45.89374" lon="5.77341">
        <ele>1243.6</ele>
        <time>2026-05-13T14:27:59Z</time>
      </trkpt>
      <trkpt lat="45.89379" lon="5.77345">
        <ele>1243.2</ele>
        <time>2026-05-13T14:28:00Z</time>
      </trkpt>
      <trkpt lat="45.89384" lon="5.77347">
        <ele>1243.2</ele>
        <time>2026-05-13T14:28:01Z</time>
      </trkpt>
      <trkpt lat="45.89389" lon="5.77349">
        <ele>1242.4</ele>
        <time>2026-05-13T14:28:02Z</time>
      </trkpt>
      <trkpt lat="45.89394" lon="5.77351">
        <ele>1242.4</ele>
        <time>2026-05-13T14:28:03Z</time>
      </trkpt>
      <trkpt lat="45.89398" lon="5.77351">
        <ele>1241.4</ele>
        <time>2026-05-13T14:28:04Z</time>
      </trkpt>
      <trkpt lat="45.89403" lon="5.77354">
        <ele>1240.8</ele>
        <time>2026-05-13T14:28:05Z</time>
      </trkpt>
      <trkpt lat="45.89408" lon="5.77356">
        <ele>1239.8</ele>
        <time>2026-05-13T14:28:06Z</time>
      </trkpt>
      <trkpt lat="45.89413" lon="5.77358">
        <ele>1239.4</ele>
        <time>2026-05-13T14:28:07Z</time>
      </trkpt>
      <trkpt lat="45.89419" lon="5.7736">
        <ele>1239.4</ele>
        <time>2026-05-13T14:28:08Z</time>
      </trkpt>
      <trkpt lat="45.89424" lon="5.77363">
        <ele>1239.2</ele>
        <time>2026-05-13T14:28:09Z</time>
      </trkpt>
      <trkpt lat="45.89428" lon="5.77364">
        <ele>1238.8</ele>
        <time>2026-05-13T14:28:10Z</time>
      </trkpt>
      <trkpt lat="45.89432" lon="5.77367">
        <ele>1238</ele>
        <time>2026-05-13T14:28:11Z</time>
      </trkpt>
      <trkpt lat="45.89435" lon="5.77368">
        <ele>1237.4</ele>
        <time>2026-05-13T14:28:12Z</time>
      </trkpt>
      <trkpt lat="45.89439" lon="5.7737">
        <ele>1236.8</ele>
        <time>2026-05-13T14:28:13Z</time>
      </trkpt>
      <trkpt lat="45.89444" lon="5.77372">
        <ele>1236</ele>
        <time>2026-05-13T14:28:14Z</time>
      </trkpt>
      <trkpt lat="45.89448" lon="5.77374">
        <ele>1236</ele>
        <time>2026-05-13T14:28:15Z</time>
      </trkpt>
      <trkpt lat="45.89453" lon="5.77376">
        <ele>1235.4</ele>
        <time>2026-05-13T14:28:16Z</time>
      </trkpt>
      <trkpt lat="45.89458" lon="5.7738">
        <ele>1234.8</ele>
        <time>2026-05-13T14:28:17Z</time>
      </trkpt>
      <trkpt lat="45.89463" lon="5.77383">
        <ele>1233.4</ele>
        <time>2026-05-13T14:28:18Z</time>
      </trkpt>
      <trkpt lat="45.89469" lon="5.77386">
        <ele>1234</ele>
        <time>2026-05-13T14:28:19Z</time>
      </trkpt>
      <trkpt lat="45.89475" lon="5.77387">
        <ele>1233.8</ele>
        <time>2026-05-13T14:28:20Z</time>
      </trkpt>
      <trkpt lat="45.8948" lon="5.77387">
        <ele>1233.6</ele>
        <time>2026-05-13T14:28:21Z</time>
      </trkpt>
      <trkpt lat="45.89484" lon="5.77392">
        <ele>1233.2</ele>
        <time>2026-05-13T14:28:22Z</time>
      </trkpt>
      <trkpt lat="45.8949" lon="5.77396">
        <ele>1233.2</ele>
        <time>2026-05-13T14:28:23Z</time>
      </trkpt>
      <trkpt lat="45.89494" lon="5.774">
        <ele>1232.6</ele>
        <time>2026-05-13T14:28:24Z</time>
      </trkpt>
      <trkpt lat="45.89499" lon="5.77402">
        <ele>1232.6</ele>
        <time>2026-05-13T14:28:25Z</time>
      </trkpt>
      <trkpt lat="45.89504" lon="5.77405">
        <ele>1232.4</ele>
        <time>2026-05-13T14:28:26Z</time>
      </trkpt>
      <trkpt lat="45.89509" lon="5.77407">
        <ele>1232.4</ele>
        <time>2026-05-13T14:28:27Z</time>
      </trkpt>
      <trkpt lat="45.89514" lon="5.7741">
        <ele>1232</ele>
        <time>2026-05-13T14:28:28Z</time>
      </trkpt>
      <trkpt lat="45.89519" lon="5.77413">
        <ele>1230.6</ele>
        <time>2026-05-13T14:28:29Z</time>
      </trkpt>
      <trkpt lat="45.89524" lon="5.77416">
        <ele>1230</ele>
        <time>2026-05-13T14:28:30Z</time>
      </trkpt>
      <trkpt lat="45.89529" lon="5.77417">
        <ele>1229.6</ele>
        <time>2026-05-13T14:28:31Z</time>
      </trkpt>
      <trkpt lat="45.89534" lon="5.7742">
        <ele>1229</ele>
        <time>2026-05-13T14:28:32Z</time>
      </trkpt>
      <trkpt lat="45.89539" lon="5.77421">
        <ele>1229</ele>
        <time>2026-05-13T14:28:33Z</time>
      </trkpt>
      <trkpt lat="45.89543" lon="5.77422">
        <ele>1229</ele>
        <time>2026-05-13T14:28:34Z</time>
      </trkpt>
      <trkpt lat="45.89547" lon="5.77423">
        <ele>1229</ele>
        <time>2026-05-13T14:28:35Z</time>
      </trkpt>
      <trkpt lat="45.89551" lon="5.77424">
        <ele>1228.2</ele>
        <time>2026-05-13T14:28:36Z</time>
      </trkpt>
      <trkpt lat="45.89555" lon="5.77425">
        <ele>1228.2</ele>
        <time>2026-05-13T14:28:37Z</time>
      </trkpt>
      <trkpt lat="45.89557" lon="5.77422">
        <ele>1228.2</ele>
        <time>2026-05-13T14:28:38Z</time>
      </trkpt>
      <trkpt lat="45.89559" lon="5.77423">
        <ele>1228.2</ele>
        <time>2026-05-13T14:28:39Z</time>
      </trkpt>
      <trkpt lat="45.8956" lon="5.77423">
        <ele>1228.2</ele>
        <time>2026-05-13T14:28:40Z</time>
      </trkpt>
      <trkpt lat="45.89561" lon="5.77424">
        <ele>1227.8</ele>
        <time>2026-05-13T14:28:41Z</time>
      </trkpt>
      <trkpt lat="45.8956" lon="5.77422">
        <ele>1227.8</ele>
        <time>2026-05-13T14:28:42Z</time>
      </trkpt>
      <trkpt lat="45.8956" lon="5.77423">
        <ele>1227.8</ele>
        <time>2026-05-13T14:28:43Z</time>
      </trkpt>
      <trkpt lat="45.89558" lon="5.77422">
        <ele>1227.2</ele>
        <time>2026-05-13T14:28:55Z</time>
      </trkpt>
      <trkpt lat="45.8956" lon="5.77423">
        <ele>1227.2</ele>
        <time>2026-05-13T14:28:56Z</time>
      </trkpt>
      <trkpt lat="45.89561" lon="5.77424">
        <ele>1227.2</ele>
        <time>2026-05-13T14:28:57Z</time>
      </trkpt>
      <trkpt lat="45.89563" lon="5.77424">
        <ele>1227.2</ele>
        <time>2026-05-13T14:28:58Z</time>
      </trkpt>
      <trkpt lat="45.89565" lon="5.77424">
        <ele>1227.2</ele>
        <time>2026-05-13T14:28:59Z</time>
      </trkpt>
      <trkpt lat="45.89567" lon="5.77424">
        <ele>1226.8</ele>
        <time>2026-05-13T14:29:00Z</time>
      </trkpt>
      <trkpt lat="45.89568" lon="5.77424">
        <ele>1226.8</ele>
        <time>2026-05-13T14:29:01Z</time>
      </trkpt>
      <trkpt lat="45.89571" lon="5.77425">
        <ele>1226.8</ele>
        <time>2026-05-13T14:29:02Z</time>
      </trkpt>
      <trkpt lat="45.89574" lon="5.77426">
        <ele>1226.6</ele>
        <time>2026-05-13T14:29:03Z</time>
      </trkpt>
      <trkpt lat="45.89576" lon="5.77426">
        <ele>1226.6</ele>
        <time>2026-05-13T14:29:04Z</time>
      </trkpt>
      <trkpt lat="45.89577" lon="5.77426">
        <ele>1226.6</ele>
        <time>2026-05-13T14:29:05Z</time>
      </trkpt>
      <trkpt lat="45.89578" lon="5.77426">
        <ele>1226.4</ele>
        <time>2026-05-13T14:29:06Z</time>
      </trkpt>
      <trkpt lat="45.8958" lon="5.77426">
        <ele>1225.8</ele>
        <time>2026-05-13T14:29:07Z</time>
      </trkpt>
      <trkpt lat="45.89583" lon="5.77426">
        <ele>1225.2</ele>
        <time>2026-05-13T14:29:08Z</time>
      </trkpt>
      <trkpt lat="45.89587" lon="5.77426">
        <ele>1224.8</ele>
        <time>2026-05-13T14:29:09Z</time>
      </trkpt>
      <trkpt lat="45.89591" lon="5.77426">
        <ele>1224.6</ele>
        <time>2026-05-13T14:29:10Z</time>
      </trkpt>
      <trkpt lat="45.89595" lon="5.77426">
        <ele>1224.6</ele>
        <time>2026-05-13T14:29:11Z</time>
      </trkpt>
      <trkpt lat="45.89602" lon="5.77429">
        <ele>1223.8</ele>
        <time>2026-05-13T14:29:12Z</time>
      </trkpt>
      <trkpt lat="45.89608" lon="5.77432">
        <ele>1223.4</ele>
        <time>2026-05-13T14:29:13Z</time>
      </trkpt>
      <trkpt lat="45.89615" lon="5.77434">
        <ele>1223.4</ele>
        <time>2026-05-13T14:29:14Z</time>
      </trkpt>
      <trkpt lat="45.89618" lon="5.77433">
        <ele>1223.4</ele>
        <time>2026-05-13T14:29:15Z</time>
      </trkpt>
      <trkpt lat="45.89622" lon="5.77433">
        <ele>1223.2</ele>
        <time>2026-05-13T14:29:16Z</time>
      </trkpt>
      <trkpt lat="45.89626" lon="5.77433">
        <ele>1223.2</ele>
        <time>2026-05-13T14:29:17Z</time>
      </trkpt>
      <trkpt lat="45.89629" lon="5.77434">
        <ele>1223.2</ele>
        <time>2026-05-13T14:29:18Z</time>
      </trkpt>
      <trkpt lat="45.89632" lon="5.77435">
        <ele>1223.2</ele>
        <time>2026-05-13T14:29:19Z</time>
      </trkpt>
      <trkpt lat="45.89633" lon="5.77434">
        <ele>1223.4</ele>
        <time>2026-05-13T14:29:20Z</time>
      </trkpt>
      <trkpt lat="45.89634" lon="5.77435">
        <ele>1223.6</ele>
        <time>2026-05-13T14:29:21Z</time>
      </trkpt>
      <trkpt lat="45.89635" lon="5.77434">
        <ele>1223.6</ele>
        <time>2026-05-13T14:29:22Z</time>
      </trkpt>
      <trkpt lat="45.89635" lon="5.77433">
        <ele>1223.6</ele>
        <time>2026-05-13T14:29:23Z</time>
      </trkpt>
      <trkpt lat="45.89635" lon="5.77433">
        <ele>1223.6</ele>
        <time>2026-05-13T14:29:24Z</time>
      </trkpt>
      <trkpt lat="45.89636" lon="5.77434">
        <ele>1223.4</ele>
        <time>2026-05-13T14:29:28Z</time>
      </trkpt>
      <trkpt lat="45.89637" lon="5.77434">
        <ele>1223.2</ele>
        <time>2026-05-13T14:29:29Z</time>
      </trkpt>
      <trkpt lat="45.89639" lon="5.77433">
        <ele>1223.2</ele>
        <time>2026-05-13T14:29:30Z</time>
      </trkpt>
      <trkpt lat="45.89641" lon="5.77433">
        <ele>1223.2</ele>
        <time>2026-05-13T14:29:31Z</time>
      </trkpt>
      <trkpt lat="45.89644" lon="5.77433">
        <ele>1223.2</ele>
        <time>2026-05-13T14:29:32Z</time>
      </trkpt>
      <trkpt lat="45.89647" lon="5.77434">
        <ele>1223.2</ele>
        <time>2026-05-13T14:29:33Z</time>
      </trkpt>
      <trkpt lat="45.89649" lon="5.77434">
        <ele>1222.4</ele>
        <time>2026-05-13T14:29:34Z</time>
      </trkpt>
      <trkpt lat="45.89653" lon="5.77434">
        <ele>1222.4</ele>
        <time>2026-05-13T14:29:35Z</time>
      </trkpt>
      <trkpt lat="45.89657" lon="5.77434">
        <ele>1222.2</ele>
        <time>2026-05-13T14:29:36Z</time>
      </trkpt>
      <trkpt lat="45.8966" lon="5.77433">
        <ele>1222.2</ele>
        <time>2026-05-13T14:29:37Z</time>
      </trkpt>
      <trkpt lat="45.89664" lon="5.77432">
        <ele>1222.4</ele>
        <time>2026-05-13T14:29:38Z</time>
      </trkpt>
      <trkpt lat="45.89667" lon="5.77432">
        <ele>1222.4</ele>
        <time>2026-05-13T14:29:39Z</time>
      </trkpt>
      <trkpt lat="45.89671" lon="5.77432">
        <ele>1222.4</ele>
        <time>2026-05-13T14:29:40Z</time>
      </trkpt>
      <trkpt lat="45.89674" lon="5.77432">
        <ele>1222.4</ele>
        <time>2026-05-13T14:29:41Z</time>
      </trkpt>
      <trkpt lat="45.89677" lon="5.77432">
        <ele>1222.4</ele>
        <time>2026-05-13T14:29:42Z</time>
      </trkpt>
      <trkpt lat="45.8968" lon="5.77431">
        <ele>1222.4</ele>
        <time>2026-05-13T14:29:43Z</time>
      </trkpt>
      <trkpt lat="45.89682" lon="5.7743">
        <ele>1222.4</ele>
        <time>2026-05-13T14:29:44Z</time>
      </trkpt>
      <trkpt lat="45.89685" lon="5.77429">
        <ele>1222.4</ele>
        <time>2026-05-13T14:29:45Z</time>
      </trkpt>
      <trkpt lat="45.89689" lon="5.77428">
        <ele>1222.2</ele>
        <time>2026-05-13T14:29:46Z</time>
      </trkpt>
      <trkpt lat="45.89694" lon="5.77427">
        <ele>1222.2</ele>
        <time>2026-05-13T14:29:47Z</time>
      </trkpt>
      <trkpt lat="45.89697" lon="5.77427">
        <ele>1221.8</ele>
        <time>2026-05-13T14:29:48Z</time>
      </trkpt>
      <trkpt lat="45.89704" lon="5.77426">
        <ele>1221.8</ele>
        <time>2026-05-13T14:29:49Z</time>
      </trkpt>
      <trkpt lat="45.89707" lon="5.77426">
        <ele>1221.8</ele>
        <time>2026-05-13T14:29:50Z</time>
      </trkpt>
      <trkpt lat="45.8971" lon="5.77425">
        <ele>1221.4</ele>
        <time>2026-05-13T14:29:51Z</time>
      </trkpt>
      <trkpt lat="45.89714" lon="5.77425">
        <ele>1221.4</ele>
        <time>2026-05-13T14:29:52Z</time>
      </trkpt>
      <trkpt lat="45.89719" lon="5.77426">
        <ele>1221.4</ele>
        <time>2026-05-13T14:29:53Z</time>
      </trkpt>
      <trkpt lat="45.89722" lon="5.77426">
        <ele>1221.4</ele>
        <time>2026-05-13T14:29:54Z</time>
      </trkpt>
      <trkpt lat="45.89727" lon="5.77428">
        <ele>1221.2</ele>
        <time>2026-05-13T14:29:55Z</time>
      </trkpt>
      <trkpt lat="45.8973" lon="5.77429">
        <ele>1221.2</ele>
        <time>2026-05-13T14:29:56Z</time>
      </trkpt>
      <trkpt lat="45.89733" lon="5.77429">
        <ele>1221.2</ele>
        <time>2026-05-13T14:29:57Z</time>
      </trkpt>
      <trkpt lat="45.89736" lon="5.77429">
        <ele>1221.2</ele>
        <time>2026-05-13T14:29:58Z</time>
      </trkpt>
      <trkpt lat="45.89738" lon="5.7743">
        <ele>1221.2</ele>
        <time>2026-05-13T14:29:59Z</time>
      </trkpt>
      <trkpt lat="45.89741" lon="5.77431">
        <ele>1221</ele>
        <time>2026-05-13T14:30:00Z</time>
      </trkpt>
      <trkpt lat="45.89744" lon="5.77431">
        <ele>1221.6</ele>
        <time>2026-05-13T14:30:01Z</time>
      </trkpt>
      <trkpt lat="45.89744" lon="5.77431">
        <ele>1221.6</ele>
        <time>2026-05-13T14:30:02Z</time>
      </trkpt>
      <trkpt lat="45.8975" lon="5.77433">
        <ele>1222</ele>
        <time>2026-05-13T14:30:03Z</time>
      </trkpt>
      <trkpt lat="45.89752" lon="5.77433">
        <ele>1222</ele>
        <time>2026-05-13T14:30:04Z</time>
      </trkpt>
      <trkpt lat="45.89754" lon="5.77434">
        <ele>1222.6</ele>
        <time>2026-05-13T14:30:05Z</time>
      </trkpt>
      <trkpt lat="45.89756" lon="5.77434">
        <ele>1222.6</ele>
        <time>2026-05-13T14:30:06Z</time>
      </trkpt>
      <trkpt lat="45.89758" lon="5.77435">
        <ele>1222.8</ele>
        <time>2026-05-13T14:30:07Z</time>
      </trkpt>
      <trkpt lat="45.89761" lon="5.77435">
        <ele>1223.2</ele>
        <time>2026-05-13T14:30:08Z</time>
      </trkpt>
      <trkpt lat="45.89762" lon="5.77435">
        <ele>1223.4</ele>
        <time>2026-05-13T14:30:09Z</time>
      </trkpt>
      <trkpt lat="45.89764" lon="5.77435">
        <ele>1223.8</ele>
        <time>2026-05-13T14:30:10Z</time>
      </trkpt>
      <trkpt lat="45.89766" lon="5.77435">
        <ele>1224</ele>
        <time>2026-05-13T14:30:11Z</time>
      </trkpt>
      <trkpt lat="45.89767" lon="5.77436">
        <ele>1224</ele>
        <time>2026-05-13T14:30:12Z</time>
      </trkpt>
      <trkpt lat="45.89769" lon="5.77437">
        <ele>1224.2</ele>
        <time>2026-05-13T14:30:13Z</time>
      </trkpt>
      <trkpt lat="45.89771" lon="5.77437">
        <ele>1224.2</ele>
        <time>2026-05-13T14:30:14Z</time>
      </trkpt>
      <trkpt lat="45.89774" lon="5.77438">
        <ele>1224.2</ele>
        <time>2026-05-13T14:30:15Z</time>
      </trkpt>
      <trkpt lat="45.89776" lon="5.77438">
        <ele>1224.4</ele>
        <time>2026-05-13T14:30:16Z</time>
      </trkpt>
      <trkpt lat="45.89778" lon="5.77439">
        <ele>1224.8</ele>
        <time>2026-05-13T14:30:17Z</time>
      </trkpt>
      <trkpt lat="45.89779" lon="5.77439">
        <ele>1224.8</ele>
        <time>2026-05-13T14:30:18Z</time>
      </trkpt>
      <trkpt lat="45.89781" lon="5.7744">
        <ele>1225</ele>
        <time>2026-05-13T14:30:19Z</time>
      </trkpt>
      <trkpt lat="45.89782" lon="5.77441">
        <ele>1225</ele>
        <time>2026-05-13T14:30:20Z</time>
      </trkpt>
      <trkpt lat="45.89784" lon="5.77442">
        <ele>1225</ele>
        <time>2026-05-13T14:30:21Z</time>
      </trkpt>
      <trkpt lat="45.89784" lon="5.77442">
        <ele>1225</ele>
        <time>2026-05-13T14:30:22Z</time>
      </trkpt>
      <trkpt lat="45.89785" lon="5.77442">
        <ele>1225.4</ele>
        <time>2026-05-13T14:30:23Z</time>
      </trkpt>
      <trkpt lat="45.89787" lon="5.77442">
        <ele>1225.6</ele>
        <time>2026-05-13T14:30:24Z</time>
      </trkpt>
      <trkpt lat="45.89788" lon="5.77442">
        <ele>1225.6</ele>
        <time>2026-05-13T14:30:25Z</time>
      </trkpt>
      <trkpt lat="45.8979" lon="5.77442">
        <ele>1225.6</ele>
        <time>2026-05-13T14:30:26Z</time>
      </trkpt>
      <trkpt lat="45.89792" lon="5.77443">
        <ele>1226</ele>
        <time>2026-05-13T14:30:27Z</time>
      </trkpt>
      <trkpt lat="45.89793" lon="5.77444">
        <ele>1226</ele>
        <time>2026-05-13T14:30:28Z</time>
      </trkpt>
      <trkpt lat="45.89794" lon="5.77445">
        <ele>1226</ele>
        <time>2026-05-13T14:30:29Z</time>
      </trkpt>
      <trkpt lat="45.89795" lon="5.77446">
        <ele>1226</ele>
        <time>2026-05-13T14:30:30Z</time>
      </trkpt>
      <trkpt lat="45.89797" lon="5.77446">
        <ele>1226.4</ele>
        <time>2026-05-13T14:30:31Z</time>
      </trkpt>
      <trkpt lat="45.89798" lon="5.77446">
        <ele>1226.8</ele>
        <time>2026-05-13T14:30:32Z</time>
      </trkpt>
      <trkpt lat="45.89799" lon="5.77446">
        <ele>1227</ele>
        <time>2026-05-13T14:30:33Z</time>
      </trkpt>
      <trkpt lat="45.89801" lon="5.77447">
        <ele>1227.2</ele>
        <time>2026-05-13T14:30:34Z</time>
      </trkpt>
      <trkpt lat="45.89802" lon="5.77448">
        <ele>1227.4</ele>
        <time>2026-05-13T14:30:35Z</time>
      </trkpt>
      <trkpt lat="45.89804" lon="5.77448">
        <ele>1227.4</ele>
        <time>2026-05-13T14:30:36Z</time>
      </trkpt>
      <trkpt lat="45.89805" lon="5.77449">
        <ele>1227.4</ele>
        <time>2026-05-13T14:30:37Z</time>
      </trkpt>
      <trkpt lat="45.89806" lon="5.7745">
        <ele>1228</ele>
        <time>2026-05-13T14:30:38Z</time>
      </trkpt>
      <trkpt lat="45.89806" lon="5.7745">
        <ele>1227.8</ele>
        <time>2026-05-13T14:30:39Z</time>
      </trkpt>
      <trkpt lat="45.89807" lon="5.77451">
        <ele>1228</ele>
        <time>2026-05-13T14:30:40Z</time>
      </trkpt>
      <trkpt lat="45.89809" lon="5.77451">
        <ele>1228.4</ele>
        <time>2026-05-13T14:30:41Z</time>
      </trkpt>
      <trkpt lat="45.8981" lon="5.77452">
        <ele>1228.4</ele>
        <time>2026-05-13T14:30:42Z</time>
      </trkpt>
      <trkpt lat="45.8981" lon="5.77452">
        <ele>1228.6</ele>
        <time>2026-05-13T14:30:43Z</time>
      </trkpt>
      <trkpt lat="45.8981" lon="5.77452">
        <ele>1228.6</ele>
        <time>2026-05-13T14:30:44Z</time>
      </trkpt>
      <trkpt lat="45.89811" lon="5.77453">
        <ele>1229.2</ele>
        <time>2026-05-13T14:30:45Z</time>
      </trkpt>
      <trkpt lat="45.89812" lon="5.77454">
        <ele>1229.4</ele>
        <time>2026-05-13T14:30:46Z</time>
      </trkpt>
      <trkpt lat="45.89814" lon="5.77455">
        <ele>1229.6</ele>
        <time>2026-05-13T14:30:47Z</time>
      </trkpt>
      <trkpt lat="45.89815" lon="5.77456">
        <ele>1229.6</ele>
        <time>2026-05-13T14:30:48Z</time>
      </trkpt>
      <trkpt lat="45.89817" lon="5.77456">
        <ele>1229.6</ele>
        <time>2026-05-13T14:30:49Z</time>
      </trkpt>
      <trkpt lat="45.89818" lon="5.77457">
        <ele>1229.8</ele>
        <time>2026-05-13T14:30:50Z</time>
      </trkpt>
      <trkpt lat="45.89819" lon="5.77457">
        <ele>1230.2</ele>
        <time>2026-05-13T14:30:51Z</time>
      </trkpt>
      <trkpt lat="45.8982" lon="5.77457">
        <ele>1230.2</ele>
        <time>2026-05-13T14:30:52Z</time>
      </trkpt>
      <trkpt lat="45.89822" lon="5.77458">
        <ele>1230.4</ele>
        <time>2026-05-13T14:30:53Z</time>
      </trkpt>
      <trkpt lat="45.89824" lon="5.77459">
        <ele>1230.8</ele>
        <time>2026-05-13T14:30:54Z</time>
      </trkpt>
      <trkpt lat="45.89825" lon="5.7746">
        <ele>1230.8</ele>
        <time>2026-05-13T14:30:55Z</time>
      </trkpt>
      <trkpt lat="45.89827" lon="5.77461">
        <ele>1231</ele>
        <time>2026-05-13T14:30:56Z</time>
      </trkpt>
      <trkpt lat="45.89828" lon="5.77462">
        <ele>1231</ele>
        <time>2026-05-13T14:30:57Z</time>
      </trkpt>
      <trkpt lat="45.89828" lon="5.77462">
        <ele>1231.2</ele>
        <time>2026-05-13T14:30:58Z</time>
      </trkpt>
      <trkpt lat="45.8983" lon="5.77463">
        <ele>1231.2</ele>
        <time>2026-05-13T14:30:59Z</time>
      </trkpt>
      <trkpt lat="45.89831" lon="5.77463">
        <ele>1231.6</ele>
        <time>2026-05-13T14:31:00Z</time>
      </trkpt>
      <trkpt lat="45.89832" lon="5.77464">
        <ele>1232</ele>
        <time>2026-05-13T14:31:01Z</time>
      </trkpt>
      <trkpt lat="45.89833" lon="5.77465">
        <ele>1232.2</ele>
        <time>2026-05-13T14:31:02Z</time>
      </trkpt>
      <trkpt lat="45.89834" lon="5.77466">
        <ele>1232.6</ele>
        <time>2026-05-13T14:31:03Z</time>
      </trkpt>
      <trkpt lat="45.89836" lon="5.77467">
        <ele>1232.8</ele>
        <time>2026-05-13T14:31:04Z</time>
      </trkpt>
      <trkpt lat="45.89838" lon="5.77469">
        <ele>1233</ele>
        <time>2026-05-13T14:31:05Z</time>
      </trkpt>
      <trkpt lat="45.89839" lon="5.7747">
        <ele>1233</ele>
        <time>2026-05-13T14:31:06Z</time>
      </trkpt>
      <trkpt lat="45.8984" lon="5.77472">
        <ele>1233.2</ele>
        <time>2026-05-13T14:31:07Z</time>
      </trkpt>
      <trkpt lat="45.89841" lon="5.77473">
        <ele>1233.2</ele>
        <time>2026-05-13T14:31:08Z</time>
      </trkpt>
      <trkpt lat="45.89842" lon="5.77475">
        <ele>1233.2</ele>
        <time>2026-05-13T14:31:09Z</time>
      </trkpt>
      <trkpt lat="45.89842" lon="5.77476">
        <ele>1233.2</ele>
        <time>2026-05-13T14:31:10Z</time>
      </trkpt>
      <trkpt lat="45.89843" lon="5.77476">
        <ele>1233.6</ele>
        <time>2026-05-13T14:31:11Z</time>
      </trkpt>
      <trkpt lat="45.89844" lon="5.77478">
        <ele>1233.8</ele>
        <time>2026-05-13T14:31:12Z</time>
      </trkpt>
      <trkpt lat="45.89845" lon="5.77478">
        <ele>1234.2</ele>
        <time>2026-05-13T14:31:13Z</time>
      </trkpt>
      <trkpt lat="45.89846" lon="5.7748">
        <ele>1234.4</ele>
        <time>2026-05-13T14:31:14Z</time>
      </trkpt>
      <trkpt lat="45.89848" lon="5.77482">
        <ele>1234.4</ele>
        <time>2026-05-13T14:31:15Z</time>
      </trkpt>
      <trkpt lat="45.89849" lon="5.77483">
        <ele>1234.8</ele>
        <time>2026-05-13T14:31:16Z</time>
      </trkpt>
      <trkpt lat="45.8985" lon="5.77484">
        <ele>1234.8</ele>
        <time>2026-05-13T14:31:17Z</time>
      </trkpt>
      <trkpt lat="45.89851" lon="5.77486">
        <ele>1235</ele>
        <time>2026-05-13T14:31:18Z</time>
      </trkpt>
      <trkpt lat="45.89852" lon="5.77488">
        <ele>1235</ele>
        <time>2026-05-13T14:31:19Z</time>
      </trkpt>
      <trkpt lat="45.89853" lon="5.7749">
        <ele>1235</ele>
        <time>2026-05-13T14:31:20Z</time>
      </trkpt>
      <trkpt lat="45.89854" lon="5.7749">
        <ele>1235.4</ele>
        <time>2026-05-13T14:31:21Z</time>
      </trkpt>
      <trkpt lat="45.89855" lon="5.77491">
        <ele>1235.4</ele>
        <time>2026-05-13T14:31:22Z</time>
      </trkpt>
      <trkpt lat="45.89857" lon="5.77492">
        <ele>1235.4</ele>
        <time>2026-05-13T14:31:23Z</time>
      </trkpt>
      <trkpt lat="45.89859" lon="5.77493">
        <ele>1235.6</ele>
        <time>2026-05-13T14:31:24Z</time>
      </trkpt>
      <trkpt lat="45.89861" lon="5.77495">
        <ele>1235.6</ele>
        <time>2026-05-13T14:31:25Z</time>
      </trkpt>
      <trkpt lat="45.89863" lon="5.77497">
        <ele>1235.6</ele>
        <time>2026-05-13T14:31:26Z</time>
      </trkpt>
      <trkpt lat="45.89864" lon="5.775">
        <ele>1235.6</ele>
        <time>2026-05-13T14:31:27Z</time>
      </trkpt>
      <trkpt lat="45.89866" lon="5.77502">
        <ele>1235.8</ele>
        <time>2026-05-13T14:31:28Z</time>
      </trkpt>
      <trkpt lat="45.89868" lon="5.77504">
        <ele>1235.8</ele>
        <time>2026-05-13T14:31:29Z</time>
      </trkpt>
      <trkpt lat="45.8987" lon="5.77506">
        <ele>1235.8</ele>
        <time>2026-05-13T14:31:30Z</time>
      </trkpt>
      <trkpt lat="45.89872" lon="5.77507">
        <ele>1235.8</ele>
        <time>2026-05-13T14:31:31Z</time>
      </trkpt>
      <trkpt lat="45.89875" lon="5.77508">
        <ele>1235.8</ele>
        <time>2026-05-13T14:31:32Z</time>
      </trkpt>
      <trkpt lat="45.89877" lon="5.77509">
        <ele>1235.8</ele>
        <time>2026-05-13T14:31:33Z</time>
      </trkpt>
      <trkpt lat="45.8988" lon="5.7751">
        <ele>1235.8</ele>
        <time>2026-05-13T14:31:34Z</time>
      </trkpt>
      <trkpt lat="45.89883" lon="5.77512">
        <ele>1235.8</ele>
        <time>2026-05-13T14:31:35Z</time>
      </trkpt>
      <trkpt lat="45.89885" lon="5.77513">
        <ele>1235.8</ele>
        <time>2026-05-13T14:31:36Z</time>
      </trkpt>
      <trkpt lat="45.89888" lon="5.77514">
        <ele>1235.4</ele>
        <time>2026-05-13T14:31:37Z</time>
      </trkpt>
      <trkpt lat="45.8989" lon="5.77515">
        <ele>1235.8</ele>
        <time>2026-05-13T14:31:38Z</time>
      </trkpt>
      <trkpt lat="45.89892" lon="5.77517">
        <ele>1235.8</ele>
        <time>2026-05-13T14:31:39Z</time>
      </trkpt>
      <trkpt lat="45.89894" lon="5.77518">
        <ele>1235.6</ele>
        <time>2026-05-13T14:31:40Z</time>
      </trkpt>
      <trkpt lat="45.89896" lon="5.77519">
        <ele>1235.4</ele>
        <time>2026-05-13T14:31:41Z</time>
      </trkpt>
      <trkpt lat="45.89899" lon="5.7752">
        <ele>1235.4</ele>
        <time>2026-05-13T14:31:42Z</time>
      </trkpt>
      <trkpt lat="45.89901" lon="5.77521">
        <ele>1235</ele>
        <time>2026-05-13T14:31:43Z</time>
      </trkpt>
      <trkpt lat="45.89903" lon="5.77523">
        <ele>1235</ele>
        <time>2026-05-13T14:31:44Z</time>
      </trkpt>
      <trkpt lat="45.89906" lon="5.77524">
        <ele>1235</ele>
        <time>2026-05-13T14:31:45Z</time>
      </trkpt>
      <trkpt lat="45.89909" lon="5.77525">
        <ele>1234.6</ele>
        <time>2026-05-13T14:31:46Z</time>
      </trkpt>
      <trkpt lat="45.89911" lon="5.77526">
        <ele>1234.6</ele>
        <time>2026-05-13T14:31:47Z</time>
      </trkpt>
      <trkpt lat="45.89913" lon="5.77528">
        <ele>1234.6</ele>
        <time>2026-05-13T14:31:48Z</time>
      </trkpt>
      <trkpt lat="45.89916" lon="5.77529">
        <ele>1234.6</ele>
        <time>2026-05-13T14:31:49Z</time>
      </trkpt>
      <trkpt lat="45.89919" lon="5.77531">
        <ele>1234.6</ele>
        <time>2026-05-13T14:31:50Z</time>
      </trkpt>
      <trkpt lat="45.89922" lon="5.77532">
        <ele>1234.6</ele>
        <time>2026-05-13T14:31:51Z</time>
      </trkpt>
      <trkpt lat="45.89925" lon="5.77534">
        <ele>1234.6</ele>
        <time>2026-05-13T14:31:52Z</time>
      </trkpt>
      <trkpt lat="45.89929" lon="5.77536">
        <ele>1234.6</ele>
        <time>2026-05-13T14:31:53Z</time>
      </trkpt>
      <trkpt lat="45.89933" lon="5.77537">
        <ele>1234.6</ele>
        <time>2026-05-13T14:31:54Z</time>
      </trkpt>
      <trkpt lat="45.89936" lon="5.77539">
        <ele>1234.2</ele>
        <time>2026-05-13T14:31:55Z</time>
      </trkpt>
      <trkpt lat="45.89939" lon="5.7754">
        <ele>1233.8</ele>
        <time>2026-05-13T14:31:56Z</time>
      </trkpt>
      <trkpt lat="45.89942" lon="5.7754">
        <ele>1233.6</ele>
        <time>2026-05-13T14:31:57Z</time>
      </trkpt>
      <trkpt lat="45.89945" lon="5.77541">
        <ele>1233.6</ele>
        <time>2026-05-13T14:31:58Z</time>
      </trkpt>
      <trkpt lat="45.89948" lon="5.77542">
        <ele>1233.4</ele>
        <time>2026-05-13T14:31:59Z</time>
      </trkpt>
      <trkpt lat="45.89951" lon="5.77542">
        <ele>1233.4</ele>
        <time>2026-05-13T14:32:00Z</time>
      </trkpt>
      <trkpt lat="45.89955" lon="5.77543">
        <ele>1233.6</ele>
        <time>2026-05-13T14:32:01Z</time>
      </trkpt>
      <trkpt lat="45.89959" lon="5.77545">
        <ele>1233.4</ele>
        <time>2026-05-13T14:32:02Z</time>
      </trkpt>
      <trkpt lat="45.89963" lon="5.77546">
        <ele>1233.2</ele>
        <time>2026-05-13T14:32:03Z</time>
      </trkpt>
      <trkpt lat="45.89969" lon="5.77547">
        <ele>1232.6</ele>
        <time>2026-05-13T14:32:04Z</time>
      </trkpt>
      <trkpt lat="45.89974" lon="5.77548">
        <ele>1232.6</ele>
        <time>2026-05-13T14:32:05Z</time>
      </trkpt>
      <trkpt lat="45.89979" lon="5.77548">
        <ele>1232.6</ele>
        <time>2026-05-13T14:32:06Z</time>
      </trkpt>
      <trkpt lat="45.89985" lon="5.7755">
        <ele>1232.2</ele>
        <time>2026-05-13T14:32:07Z</time>
      </trkpt>
      <trkpt lat="45.89991" lon="5.77552">
        <ele>1232.2</ele>
        <time>2026-05-13T14:32:08Z</time>
      </trkpt>
      <trkpt lat="45.89993" lon="5.77549">
        <ele>1230.4</ele>
        <time>2026-05-13T14:32:09Z</time>
      </trkpt>
      <trkpt lat="45.89997" lon="5.77548">
        <ele>1229.6</ele>
        <time>2026-05-13T14:32:10Z</time>
      </trkpt>
      <trkpt lat="45.90003" lon="5.77549">
        <ele>1229</ele>
        <time>2026-05-13T14:32:11Z</time>
      </trkpt>
      <trkpt lat="45.90017" lon="5.77556">
        <ele>1228.6</ele>
        <time>2026-05-13T14:32:12Z</time>
      </trkpt>
      <trkpt lat="45.90021" lon="5.77557">
        <ele>1228</ele>
        <time>2026-05-13T14:32:13Z</time>
      </trkpt>
      <trkpt lat="45.90029" lon="5.77559">
        <ele>1227.6</ele>
        <time>2026-05-13T14:32:14Z</time>
      </trkpt>
      <trkpt lat="45.90036" lon="5.77562">
        <ele>1227.2</ele>
        <time>2026-05-13T14:32:15Z</time>
      </trkpt>
      <trkpt lat="45.90041" lon="5.77564">
        <ele>1227.2</ele>
        <time>2026-05-13T14:32:16Z</time>
      </trkpt>
      <trkpt lat="45.90047" lon="5.77566">
        <ele>1226.8</ele>
        <time>2026-05-13T14:32:17Z</time>
      </trkpt>
      <trkpt lat="45.90054" lon="5.77567">
        <ele>1226.6</ele>
        <time>2026-05-13T14:32:18Z</time>
      </trkpt>
      <trkpt lat="45.90059" lon="5.7757">
        <ele>1226.2</ele>
        <time>2026-05-13T14:32:19Z</time>
      </trkpt>
      <trkpt lat="45.90066" lon="5.77573">
        <ele>1226.2</ele>
        <time>2026-05-13T14:32:20Z</time>
      </trkpt>
      <trkpt lat="45.9007" lon="5.77573">
        <ele>1226.2</ele>
        <time>2026-05-13T14:32:21Z</time>
      </trkpt>
      <trkpt lat="45.90076" lon="5.77576">
        <ele>1225.8</ele>
        <time>2026-05-13T14:32:22Z</time>
      </trkpt>
      <trkpt lat="45.9008" lon="5.77577">
        <ele>1224.8</ele>
        <time>2026-05-13T14:32:23Z</time>
      </trkpt>
      <trkpt lat="45.90085" lon="5.77578">
        <ele>1225.4</ele>
        <time>2026-05-13T14:32:24Z</time>
      </trkpt>
      <trkpt lat="45.9009" lon="5.77579">
        <ele>1225.8</ele>
        <time>2026-05-13T14:32:25Z</time>
      </trkpt>
      <trkpt lat="45.90092" lon="5.77581">
        <ele>1226.2</ele>
        <time>2026-05-13T14:32:26Z</time>
      </trkpt>
      <trkpt lat="45.90095" lon="5.77582">
        <ele>1226</ele>
        <time>2026-05-13T14:32:27Z</time>
      </trkpt>
      <trkpt lat="45.90099" lon="5.77584">
        <ele>1226</ele>
        <time>2026-05-13T14:32:28Z</time>
      </trkpt>
      <trkpt lat="45.90104" lon="5.77583">
        <ele>1225.6</ele>
        <time>2026-05-13T14:32:29Z</time>
      </trkpt>
      <trkpt lat="45.90108" lon="5.77584">
        <ele>1225.4</ele>
        <time>2026-05-13T14:32:30Z</time>
      </trkpt>
      <trkpt lat="45.90114" lon="5.77585">
        <ele>1225.4</ele>
        <time>2026-05-13T14:32:31Z</time>
      </trkpt>
      <trkpt lat="45.90118" lon="5.77584">
        <ele>1225.4</ele>
        <time>2026-05-13T14:32:32Z</time>
      </trkpt>
      <trkpt lat="45.90124" lon="5.77583">
        <ele>1224.8</ele>
        <time>2026-05-13T14:32:33Z</time>
      </trkpt>
      <trkpt lat="45.90128" lon="5.77584">
        <ele>1224.6</ele>
        <time>2026-05-13T14:32:34Z</time>
      </trkpt>
      <trkpt lat="45.90134" lon="5.77586">
        <ele>1224.2</ele>
        <time>2026-05-13T14:32:35Z</time>
      </trkpt>
      <trkpt lat="45.90141" lon="5.77586">
        <ele>1223.6</ele>
        <time>2026-05-13T14:32:36Z</time>
      </trkpt>
      <trkpt lat="45.90148" lon="5.77586">
        <ele>1222.2</ele>
        <time>2026-05-13T14:32:37Z</time>
      </trkpt>
      <trkpt lat="45.90156" lon="5.77588">
        <ele>1222.2</ele>
        <time>2026-05-13T14:32:38Z</time>
      </trkpt>
      <trkpt lat="45.90164" lon="5.77589">
        <ele>1221</ele>
        <time>2026-05-13T14:32:39Z</time>
      </trkpt>
      <trkpt lat="45.90173" lon="5.7759">
        <ele>1219.8</ele>
        <time>2026-05-13T14:32:40Z</time>
      </trkpt>
      <trkpt lat="45.9018" lon="5.77591">
        <ele>1219.2</ele>
        <time>2026-05-13T14:32:41Z</time>
      </trkpt>
      <trkpt lat="45.90188" lon="5.7759">
        <ele>1218.6</ele>
        <time>2026-05-13T14:32:42Z</time>
      </trkpt>
      <trkpt lat="45.90196" lon="5.77593">
        <ele>1218.2</ele>
        <time>2026-05-13T14:32:43Z</time>
      </trkpt>
      <trkpt lat="45.90202" lon="5.77594">
        <ele>1217.8</ele>
        <time>2026-05-13T14:32:44Z</time>
      </trkpt>
      <trkpt lat="45.9021" lon="5.77595">
        <ele>1217.2</ele>
        <time>2026-05-13T14:32:45Z</time>
      </trkpt>
      <trkpt lat="45.90216" lon="5.77596">
        <ele>1217.8</ele>
        <time>2026-05-13T14:32:46Z</time>
      </trkpt>
      <trkpt lat="45.90223" lon="5.77596">
        <ele>1217.4</ele>
        <time>2026-05-13T14:32:47Z</time>
      </trkpt>
      <trkpt lat="45.9023" lon="5.77598">
        <ele>1217.4</ele>
        <time>2026-05-13T14:32:48Z</time>
      </trkpt>
      <trkpt lat="45.90237" lon="5.776">
        <ele>1218.4</ele>
        <time>2026-05-13T14:32:49Z</time>
      </trkpt>
      <trkpt lat="45.90243" lon="5.776">
        <ele>1219.4</ele>
        <time>2026-05-13T14:32:50Z</time>
      </trkpt>
      <trkpt lat="45.90248" lon="5.77601">
        <ele>1218.8</ele>
        <time>2026-05-13T14:32:51Z</time>
      </trkpt>
      <trkpt lat="45.90252" lon="5.77602">
        <ele>1219.2</ele>
        <time>2026-05-13T14:32:52Z</time>
      </trkpt>
      <trkpt lat="45.90258" lon="5.77603">
        <ele>1218.6</ele>
        <time>2026-05-13T14:32:53Z</time>
      </trkpt>
      <trkpt lat="45.90263" lon="5.77603">
        <ele>1218.4</ele>
        <time>2026-05-13T14:32:54Z</time>
      </trkpt>
      <trkpt lat="45.90268" lon="5.77606">
        <ele>1218.2</ele>
        <time>2026-05-13T14:32:55Z</time>
      </trkpt>
      <trkpt lat="45.90273" lon="5.77606">
        <ele>1218.2</ele>
        <time>2026-05-13T14:32:56Z</time>
      </trkpt>
      <trkpt lat="45.90279" lon="5.77609">
        <ele>1218.4</ele>
        <time>2026-05-13T14:32:57Z</time>
      </trkpt>
      <trkpt lat="45.90286" lon="5.77612">
        <ele>1218.4</ele>
        <time>2026-05-13T14:32:58Z</time>
      </trkpt>
      <trkpt lat="45.90291" lon="5.77613">
        <ele>1219</ele>
        <time>2026-05-13T14:32:59Z</time>
      </trkpt>
      <trkpt lat="45.90297" lon="5.77616">
        <ele>1219</ele>
        <time>2026-05-13T14:33:00Z</time>
      </trkpt>
      <trkpt lat="45.90299" lon="5.77615">
        <ele>1219</ele>
        <time>2026-05-13T14:33:01Z</time>
      </trkpt>
      <trkpt lat="45.90303" lon="5.77616">
        <ele>1219.4</ele>
        <time>2026-05-13T14:33:02Z</time>
      </trkpt>
      <trkpt lat="45.90305" lon="5.77614">
        <ele>1219.8</ele>
        <time>2026-05-13T14:33:03Z</time>
      </trkpt>
      <trkpt lat="45.90309" lon="5.77614">
        <ele>1219.8</ele>
        <time>2026-05-13T14:33:04Z</time>
      </trkpt>
      <trkpt lat="45.90309" lon="5.77613">
        <ele>1219.8</ele>
        <time>2026-05-13T14:33:05Z</time>
      </trkpt>
      <trkpt lat="45.90313" lon="5.77613">
        <ele>1219.8</ele>
        <time>2026-05-13T14:33:06Z</time>
      </trkpt>
      <trkpt lat="45.90316" lon="5.77614">
        <ele>1220</ele>
        <time>2026-05-13T14:33:07Z</time>
      </trkpt>
      <trkpt lat="45.90317" lon="5.77614">
        <ele>1220</ele>
        <time>2026-05-13T14:33:08Z</time>
      </trkpt>
      <trkpt lat="45.90322" lon="5.77615">
        <ele>1220</ele>
        <time>2026-05-13T14:33:09Z</time>
      </trkpt>
      <trkpt lat="45.90324" lon="5.77616">
        <ele>1220.4</ele>
        <time>2026-05-13T14:33:10Z</time>
      </trkpt>
      <trkpt lat="45.90326" lon="5.77615">
        <ele>1220.4</ele>
        <time>2026-05-13T14:33:11Z</time>
      </trkpt>
      <trkpt lat="45.90328" lon="5.77615">
        <ele>1220.4</ele>
        <time>2026-05-13T14:33:12Z</time>
      </trkpt>
      <trkpt lat="45.9033" lon="5.77615">
        <ele>1220.4</ele>
        <time>2026-05-13T14:33:13Z</time>
      </trkpt>
      <trkpt lat="45.90332" lon="5.77615">
        <ele>1220.6</ele>
        <time>2026-05-13T14:33:14Z</time>
      </trkpt>
      <trkpt lat="45.90334" lon="5.77615">
        <ele>1220.6</ele>
        <time>2026-05-13T14:33:15Z</time>
      </trkpt>
      <trkpt lat="45.90335" lon="5.77615">
        <ele>1220.6</ele>
        <time>2026-05-13T14:33:16Z</time>
      </trkpt>
      <trkpt lat="45.90337" lon="5.77614">
        <ele>1220.6</ele>
        <time>2026-05-13T14:33:17Z</time>
      </trkpt>
      <trkpt lat="45.90339" lon="5.77614">
        <ele>1220.8</ele>
        <time>2026-05-13T14:33:18Z</time>
      </trkpt>
      <trkpt lat="45.90341" lon="5.77613">
        <ele>1220.8</ele>
        <time>2026-05-13T14:33:19Z</time>
      </trkpt>
      <trkpt lat="45.90344" lon="5.77612">
        <ele>1220.8</ele>
        <time>2026-05-13T14:33:20Z</time>
      </trkpt>
      <trkpt lat="45.90346" lon="5.77611">
        <ele>1220.8</ele>
        <time>2026-05-13T14:33:21Z</time>
      </trkpt>
      <trkpt lat="45.90349" lon="5.7761">
        <ele>1220.8</ele>
        <time>2026-05-13T14:33:22Z</time>
      </trkpt>
      <trkpt lat="45.90352" lon="5.77609">
        <ele>1220.6</ele>
        <time>2026-05-13T14:33:23Z</time>
      </trkpt>
      <trkpt lat="45.90356" lon="5.77608">
        <ele>1220.6</ele>
        <time>2026-05-13T14:33:24Z</time>
      </trkpt>
      <trkpt lat="45.90361" lon="5.77608">
        <ele>1220.6</ele>
        <time>2026-05-13T14:33:25Z</time>
      </trkpt>
      <trkpt lat="45.90366" lon="5.77608">
        <ele>1220.4</ele>
        <time>2026-05-13T14:33:26Z</time>
      </trkpt>
      <trkpt lat="45.9037" lon="5.77609">
        <ele>1220.4</ele>
        <time>2026-05-13T14:33:27Z</time>
      </trkpt>
      <trkpt lat="45.90373" lon="5.7761">
        <ele>1220.4</ele>
        <time>2026-05-13T14:33:28Z</time>
      </trkpt>
      <trkpt lat="45.90381" lon="5.77613">
        <ele>1220</ele>
        <time>2026-05-13T14:33:29Z</time>
      </trkpt>
      <trkpt lat="45.90385" lon="5.77614">
        <ele>1220</ele>
        <time>2026-05-13T14:33:30Z</time>
      </trkpt>
      <trkpt lat="45.90388" lon="5.77614">
        <ele>1220</ele>
        <time>2026-05-13T14:33:31Z</time>
      </trkpt>
      <trkpt lat="45.90389" lon="5.77616">
        <ele>1220</ele>
        <time>2026-05-13T14:33:32Z</time>
      </trkpt>
      <trkpt lat="45.9039" lon="5.77613">
        <ele>1220</ele>
        <time>2026-05-13T14:33:33Z</time>
      </trkpt>
      <trkpt lat="45.90393" lon="5.77612">
        <ele>1220</ele>
        <time>2026-05-13T14:33:34Z</time>
      </trkpt>
      <trkpt lat="45.90397" lon="5.77612">
        <ele>1219.8</ele>
        <time>2026-05-13T14:33:35Z</time>
      </trkpt>
      <trkpt lat="45.904" lon="5.77612">
        <ele>1219.4</ele>
        <time>2026-05-13T14:33:36Z</time>
      </trkpt>
      <trkpt lat="45.90402" lon="5.77613">
        <ele>1219</ele>
        <time>2026-05-13T14:33:37Z</time>
      </trkpt>
      <trkpt lat="45.90406" lon="5.77613">
        <ele>1219</ele>
        <time>2026-05-13T14:33:38Z</time>
      </trkpt>
      <trkpt lat="45.90408" lon="5.77615">
        <ele>1218.8</ele>
        <time>2026-05-13T14:33:39Z</time>
      </trkpt>
      <trkpt lat="45.90411" lon="5.77615">
        <ele>1218.8</ele>
        <time>2026-05-13T14:33:40Z</time>
      </trkpt>
      <trkpt lat="45.90415" lon="5.77614">
        <ele>1218.8</ele>
        <time>2026-05-13T14:33:41Z</time>
      </trkpt>
      <trkpt lat="45.90417" lon="5.77613">
        <ele>1218.6</ele>
        <time>2026-05-13T14:33:42Z</time>
      </trkpt>
      <trkpt lat="45.90419" lon="5.77612">
        <ele>1218.2</ele>
        <time>2026-05-13T14:33:43Z</time>
      </trkpt>
      <trkpt lat="45.9042" lon="5.7761">
        <ele>1218.2</ele>
        <time>2026-05-13T14:33:44Z</time>
      </trkpt>
      <trkpt lat="45.90421" lon="5.77608">
        <ele>1218.2</ele>
        <time>2026-05-13T14:33:45Z</time>
      </trkpt>
      <trkpt lat="45.9042" lon="5.77607">
        <ele>1218.2</ele>
        <time>2026-05-13T14:33:46Z</time>
      </trkpt>
      <trkpt lat="45.9042" lon="5.77606">
        <ele>1218.2</ele>
        <time>2026-05-13T14:33:47Z</time>
      </trkpt>
      <trkpt lat="45.9042" lon="5.77598">
        <ele>1217.6</ele>
        <time>2026-05-13T14:40:18Z</time>
      </trkpt>
      <trkpt lat="45.9042" lon="5.77598">
        <ele>1217.6</ele>
        <time>2026-05-13T14:40:19Z</time>
      </trkpt>
      <trkpt lat="45.9042" lon="5.77598">
        <ele>1217.6</ele>
        <time>2026-05-13T14:40:20Z</time>
      </trkpt>
      <trkpt lat="45.90424" lon="5.77602">
        <ele>1217.6</ele>
        <time>2026-05-13T14:40:22Z</time>
      </trkpt>
      <trkpt lat="45.90425" lon="5.77602">
        <ele>1217.6</ele>
        <time>2026-05-13T14:40:23Z</time>
      </trkpt>
      <trkpt lat="45.90427" lon="5.77602">
        <ele>1217.6</ele>
        <time>2026-05-13T14:40:24Z</time>
      </trkpt>
      <trkpt lat="45.90428" lon="5.77602">
        <ele>1217.2</ele>
        <time>2026-05-13T14:40:25Z</time>
      </trkpt>
      <trkpt lat="45.9043" lon="5.77602">
        <ele>1217.2</ele>
        <time>2026-05-13T14:40:26Z</time>
      </trkpt>
      <trkpt lat="45.90431" lon="5.77601">
        <ele>1217.2</ele>
        <time>2026-05-13T14:40:27Z</time>
      </trkpt>
      <trkpt lat="45.90434" lon="5.77601">
        <ele>1217</ele>
        <time>2026-05-13T14:40:28Z</time>
      </trkpt>
      <trkpt lat="45.90436" lon="5.776">
        <ele>1217</ele>
        <time>2026-05-13T14:40:29Z</time>
      </trkpt>
      <trkpt lat="45.90438" lon="5.776">
        <ele>1217.2</ele>
        <time>2026-05-13T14:40:30Z</time>
      </trkpt>
      <trkpt lat="45.9044" lon="5.776">
        <ele>1217.2</ele>
        <time>2026-05-13T14:40:31Z</time>
      </trkpt>
      <trkpt lat="45.90444" lon="5.77601">
        <ele>1217</ele>
        <time>2026-05-13T14:40:32Z</time>
      </trkpt>
      <trkpt lat="45.90447" lon="5.77602">
        <ele>1217</ele>
        <time>2026-05-13T14:40:33Z</time>
      </trkpt>
      <trkpt lat="45.90449" lon="5.77603">
        <ele>1216.6</ele>
        <time>2026-05-13T14:40:34Z</time>
      </trkpt>
      <trkpt lat="45.90453" lon="5.77604">
        <ele>1216.6</ele>
        <time>2026-05-13T14:40:35Z</time>
      </trkpt>
      <trkpt lat="45.90456" lon="5.77604">
        <ele>1216.6</ele>
        <time>2026-05-13T14:40:36Z</time>
      </trkpt>
      <trkpt lat="45.90458" lon="5.77604">
        <ele>1216</ele>
        <time>2026-05-13T14:40:37Z</time>
      </trkpt>
      <trkpt lat="45.90461" lon="5.77605">
        <ele>1216</ele>
        <time>2026-05-13T14:40:38Z</time>
      </trkpt>
      <trkpt lat="45.90464" lon="5.77606">
        <ele>1216</ele>
        <time>2026-05-13T14:40:39Z</time>
      </trkpt>
      <trkpt lat="45.90466" lon="5.77606">
        <ele>1216</ele>
        <time>2026-05-13T14:40:40Z</time>
      </trkpt>
      <trkpt lat="45.90467" lon="5.77607">
        <ele>1216</ele>
        <time>2026-05-13T14:40:41Z</time>
      </trkpt>
      <trkpt lat="45.90469" lon="5.77609">
        <ele>1216</ele>
        <time>2026-05-13T14:40:42Z</time>
      </trkpt>
      <trkpt lat="45.90471" lon="5.7761">
        <ele>1216</ele>
        <time>2026-05-13T14:40:43Z</time>
      </trkpt>
      <trkpt lat="45.90473" lon="5.77611">
        <ele>1216</ele>
        <time>2026-05-13T14:40:44Z</time>
      </trkpt>
      <trkpt lat="45.90475" lon="5.77611">
        <ele>1216</ele>
        <time>2026-05-13T14:40:45Z</time>
      </trkpt>
      <trkpt lat="45.90476" lon="5.77611">
        <ele>1216.4</ele>
        <time>2026-05-13T14:40:46Z</time>
      </trkpt>
      <trkpt lat="45.90476" lon="5.77609">
        <ele>1216.4</ele>
        <time>2026-05-13T14:40:47Z</time>
      </trkpt>
      <trkpt lat="45.90476" lon="5.77607">
        <ele>1216.4</ele>
        <time>2026-05-13T14:40:48Z</time>
      </trkpt>
      <trkpt lat="45.90475" lon="5.77605">
        <ele>1216.4</ele>
        <time>2026-05-13T14:40:49Z</time>
      </trkpt>
      <trkpt lat="45.90474" lon="5.77604">
        <ele>1216.6</ele>
        <time>2026-05-13T14:40:50Z</time>
      </trkpt>
      <trkpt lat="45.90475" lon="5.77603">
        <ele>1216.6</ele>
        <time>2026-05-13T14:40:51Z</time>
      </trkpt>
      <trkpt lat="45.90476" lon="5.77602">
        <ele>1216.6</ele>
        <time>2026-05-13T14:40:52Z</time>
      </trkpt>
      <trkpt lat="45.90477" lon="5.77603">
        <ele>1216.6</ele>
        <time>2026-05-13T14:40:53Z</time>
      </trkpt>
      <trkpt lat="45.90479" lon="5.77605">
        <ele>1216.6</ele>
        <time>2026-05-13T14:40:54Z</time>
      </trkpt>
      <trkpt lat="45.90479" lon="5.77606">
        <ele>1216.6</ele>
        <time>2026-05-13T14:40:55Z</time>
      </trkpt>
      <trkpt lat="45.90479" lon="5.77607">
        <ele>1216.6</ele>
        <time>2026-05-13T14:40:56Z</time>
      </trkpt>
      <trkpt lat="45.90482" lon="5.77609">
        <ele>1217</ele>
        <time>2026-05-13T14:41:28Z</time>
      </trkpt>
      <trkpt lat="45.90484" lon="5.77609">
        <ele>1216.6</ele>
        <time>2026-05-13T14:41:29Z</time>
      </trkpt>
      <trkpt lat="45.90486" lon="5.77608">
        <ele>1216.6</ele>
        <time>2026-05-13T14:41:30Z</time>
      </trkpt>
      <trkpt lat="45.90489" lon="5.77608">
        <ele>1216.6</ele>
        <time>2026-05-13T14:41:31Z</time>
      </trkpt>
      <trkpt lat="45.90492" lon="5.77608">
        <ele>1216.2</ele>
        <time>2026-05-13T14:41:32Z</time>
      </trkpt>
      <trkpt lat="45.90496" lon="5.77608">
        <ele>1215.6</ele>
        <time>2026-05-13T14:41:33Z</time>
      </trkpt>
      <trkpt lat="45.90498" lon="5.77607">
        <ele>1214.8</ele>
        <time>2026-05-13T14:41:34Z</time>
      </trkpt>
      <trkpt lat="45.90501" lon="5.77605">
        <ele>1214.4</ele>
        <time>2026-05-13T14:41:35Z</time>
      </trkpt>
      <trkpt lat="45.90509" lon="5.77602">
        <ele>1214.4</ele>
        <time>2026-05-13T14:41:36Z</time>
      </trkpt>
      <trkpt lat="45.90512" lon="5.776">
        <ele>1214.4</ele>
        <time>2026-05-13T14:41:37Z</time>
      </trkpt>
      <trkpt lat="45.90518" lon="5.77599">
        <ele>1214.2</ele>
        <time>2026-05-13T14:41:38Z</time>
      </trkpt>
      <trkpt lat="45.90524" lon="5.77597">
        <ele>1214.8</ele>
        <time>2026-05-13T14:41:39Z</time>
      </trkpt>
      <trkpt lat="45.90531" lon="5.77596">
        <ele>1214.8</ele>
        <time>2026-05-13T14:41:40Z</time>
      </trkpt>
      <trkpt lat="45.90536" lon="5.77598">
        <ele>1214.8</ele>
        <time>2026-05-13T14:41:41Z</time>
      </trkpt>
      <trkpt lat="45.90541" lon="5.77595">
        <ele>1214</ele>
        <time>2026-05-13T14:41:42Z</time>
      </trkpt>
      <trkpt lat="45.90547" lon="5.77593">
        <ele>1214</ele>
        <time>2026-05-13T14:41:43Z</time>
      </trkpt>
      <trkpt lat="45.90551" lon="5.77589">
        <ele>1213.4</ele>
        <time>2026-05-13T14:41:44Z</time>
      </trkpt>
      <trkpt lat="45.90556" lon="5.77588">
        <ele>1212.8</ele>
        <time>2026-05-13T14:41:45Z</time>
      </trkpt>
      <trkpt lat="45.90558" lon="5.77586">
        <ele>1212.2</ele>
        <time>2026-05-13T14:41:46Z</time>
      </trkpt>
      <trkpt lat="45.90564" lon="5.77583">
        <ele>1212.8</ele>
        <time>2026-05-13T14:41:47Z</time>
      </trkpt>
      <trkpt lat="45.90567" lon="5.77582">
        <ele>1211.6</ele>
        <time>2026-05-13T14:41:48Z</time>
      </trkpt>
      <trkpt lat="45.90571" lon="5.77582">
        <ele>1211.2</ele>
        <time>2026-05-13T14:41:49Z</time>
      </trkpt>
      <trkpt lat="45.90575" lon="5.77575">
        <ele>1209.6</ele>
        <time>2026-05-13T14:41:50Z</time>
      </trkpt>
      <trkpt lat="45.90583" lon="5.7758">
        <ele>1209</ele>
        <time>2026-05-13T14:41:51Z</time>
      </trkpt>
      <trkpt lat="45.9059" lon="5.7758">
        <ele>1208.6</ele>
        <time>2026-05-13T14:41:52Z</time>
      </trkpt>
      <trkpt lat="45.90595" lon="5.77577">
        <ele>1208.4</ele>
        <time>2026-05-13T14:41:53Z</time>
      </trkpt>
      <trkpt lat="45.906" lon="5.77578">
        <ele>1207.8</ele>
        <time>2026-05-13T14:41:54Z</time>
      </trkpt>
      <trkpt lat="45.90604" lon="5.77577">
        <ele>1204.6</ele>
        <time>2026-05-13T14:41:55Z</time>
      </trkpt>
      <trkpt lat="45.90609" lon="5.7758">
        <ele>1206.2</ele>
        <time>2026-05-13T14:41:56Z</time>
      </trkpt>
      <trkpt lat="45.90615" lon="5.77581">
        <ele>1207</ele>
        <time>2026-05-13T14:41:57Z</time>
      </trkpt>
      <trkpt lat="45.90618" lon="5.77579">
        <ele>1207</ele>
        <time>2026-05-13T14:41:58Z</time>
      </trkpt>
      <trkpt lat="45.90618" lon="5.77574">
        <ele>1206.8</ele>
        <time>2026-05-13T14:41:59Z</time>
      </trkpt>
      <trkpt lat="45.90623" lon="5.77575">
        <ele>1206.8</ele>
        <time>2026-05-13T14:42:00Z</time>
      </trkpt>
      <trkpt lat="45.90626" lon="5.77574">
        <ele>1206.4</ele>
        <time>2026-05-13T14:42:01Z</time>
      </trkpt>
      <trkpt lat="45.9063" lon="5.77572">
        <ele>1206.4</ele>
        <time>2026-05-13T14:42:02Z</time>
      </trkpt>
      <trkpt lat="45.90633" lon="5.77567">
        <ele>1206</ele>
        <time>2026-05-13T14:42:03Z</time>
      </trkpt>
      <trkpt lat="45.90636" lon="5.77568">
        <ele>1206</ele>
        <time>2026-05-13T14:42:04Z</time>
      </trkpt>
      <trkpt lat="45.90635" lon="5.77559">
        <ele>1206</ele>
        <time>2026-05-13T14:42:05Z</time>
      </trkpt>
      <trkpt lat="45.90635" lon="5.77554">
        <ele>1205.2</ele>
        <time>2026-05-13T14:42:06Z</time>
      </trkpt>
      <trkpt lat="45.90638" lon="5.77549">
        <ele>1204.6</ele>
        <time>2026-05-13T14:42:07Z</time>
      </trkpt>
      <trkpt lat="45.90639" lon="5.77546">
        <ele>1204</ele>
        <time>2026-05-13T14:42:08Z</time>
      </trkpt>
      <trkpt lat="45.9064" lon="5.77542">
        <ele>1203.6</ele>
        <time>2026-05-13T14:42:09Z</time>
      </trkpt>
      <trkpt lat="45.9064" lon="5.77537">
        <ele>1203.4</ele>
        <time>2026-05-13T14:42:10Z</time>
      </trkpt>
      <trkpt lat="45.90638" lon="5.77533">
        <ele>1203.4</ele>
        <time>2026-05-13T14:42:11Z</time>
      </trkpt>
      <trkpt lat="45.90636" lon="5.7753">
        <ele>1203.2</ele>
        <time>2026-05-13T14:42:12Z</time>
      </trkpt>
      <trkpt lat="45.90634" lon="5.7753">
        <ele>1203.2</ele>
        <time>2026-05-13T14:42:13Z</time>
      </trkpt>
      <trkpt lat="45.90632" lon="5.7753">
        <ele>1203.2</ele>
        <time>2026-05-13T14:42:14Z</time>
      </trkpt>
      <trkpt lat="45.9063" lon="5.7753">
        <ele>1203.4</ele>
        <time>2026-05-13T14:42:15Z</time>
      </trkpt>
      <trkpt lat="45.90628" lon="5.7753">
        <ele>1203.4</ele>
        <time>2026-05-13T14:42:16Z</time>
      </trkpt>
      <trkpt lat="45.90626" lon="5.77529">
        <ele>1203.4</ele>
        <time>2026-05-13T14:42:17Z</time>
      </trkpt>
      <trkpt lat="45.90624" lon="5.77528">
        <ele>1204</ele>
        <time>2026-05-13T14:42:18Z</time>
      </trkpt>
      <trkpt lat="45.90623" lon="5.77528">
        <ele>1204</ele>
        <time>2026-05-13T14:42:19Z</time>
      </trkpt>
      <trkpt lat="45.90621" lon="5.77528">
        <ele>1204</ele>
        <time>2026-05-13T14:42:20Z</time>
      </trkpt>
      <trkpt lat="45.90618" lon="5.77527">
        <ele>1204.6</ele>
        <time>2026-05-13T14:42:21Z</time>
      </trkpt>
      <trkpt lat="45.90617" lon="5.77527">
        <ele>1204.6</ele>
        <time>2026-05-13T14:42:22Z</time>
      </trkpt>
      <trkpt lat="45.90615" lon="5.77526">
        <ele>1205</ele>
        <time>2026-05-13T14:42:23Z</time>
      </trkpt>
      <trkpt lat="45.90613" lon="5.77525">
        <ele>1205.4</ele>
        <time>2026-05-13T14:42:24Z</time>
      </trkpt>
      <trkpt lat="45.90611" lon="5.77524">
        <ele>1205.4</ele>
        <time>2026-05-13T14:42:25Z</time>
      </trkpt>
      <trkpt lat="45.90609" lon="5.77523">
        <ele>1205.8</ele>
        <time>2026-05-13T14:42:26Z</time>
      </trkpt>
      <trkpt lat="45.90608" lon="5.77522">
        <ele>1205.8</ele>
        <time>2026-05-13T14:42:27Z</time>
      </trkpt>
      <trkpt lat="45.90606" lon="5.77522">
        <ele>1206.2</ele>
        <time>2026-05-13T14:42:28Z</time>
      </trkpt>
      <trkpt lat="45.90603" lon="5.77521">
        <ele>1206.2</ele>
        <time>2026-05-13T14:42:29Z</time>
      </trkpt>
      <trkpt lat="45.90602" lon="5.7752">
        <ele>1206.4</ele>
        <time>2026-05-13T14:42:30Z</time>
      </trkpt>
      <trkpt lat="45.90601" lon="5.77519">
        <ele>1206.6</ele>
        <time>2026-05-13T14:42:31Z</time>
      </trkpt>
      <trkpt lat="45.90598" lon="5.77519">
        <ele>1206.8</ele>
        <time>2026-05-13T14:42:32Z</time>
      </trkpt>
      <trkpt lat="45.90596" lon="5.77518">
        <ele>1207.2</ele>
        <time>2026-05-13T14:42:33Z</time>
      </trkpt>
      <trkpt lat="45.90594" lon="5.77517">
        <ele>1207.4</ele>
        <time>2026-05-13T14:42:34Z</time>
      </trkpt>
      <trkpt lat="45.90593" lon="5.77517">
        <ele>1207.4</ele>
        <time>2026-05-13T14:42:35Z</time>
      </trkpt>
      <trkpt lat="45.9059" lon="5.77515">
        <ele>1207.6</ele>
        <time>2026-05-13T14:42:36Z</time>
      </trkpt>
      <trkpt lat="45.90588" lon="5.77514">
        <ele>1207.6</ele>
        <time>2026-05-13T14:42:37Z</time>
      </trkpt>
      <trkpt lat="45.90587" lon="5.77514">
        <ele>1208</ele>
        <time>2026-05-13T14:42:38Z</time>
      </trkpt>
      <trkpt lat="45.90586" lon="5.77513">
        <ele>1208</ele>
        <time>2026-05-13T14:42:39Z</time>
      </trkpt>
      <trkpt lat="45.90584" lon="5.77512">
        <ele>1208</ele>
        <time>2026-05-13T14:42:40Z</time>
      </trkpt>
      <trkpt lat="45.90582" lon="5.77511">
        <ele>1208.4</ele>
        <time>2026-05-13T14:42:41Z</time>
      </trkpt>
      <trkpt lat="45.90581" lon="5.7751">
        <ele>1208.6</ele>
        <time>2026-05-13T14:42:42Z</time>
      </trkpt>
      <trkpt lat="45.9058" lon="5.7751">
        <ele>1208.6</ele>
        <time>2026-05-13T14:42:43Z</time>
      </trkpt>
      <trkpt lat="45.90578" lon="5.7751">
        <ele>1208.8</ele>
        <time>2026-05-13T14:42:44Z</time>
      </trkpt>
      <trkpt lat="45.90576" lon="5.7751">
        <ele>1208.8</ele>
        <time>2026-05-13T14:42:45Z</time>
      </trkpt>
      <trkpt lat="45.90575" lon="5.7751">
        <ele>1209.2</ele>
        <time>2026-05-13T14:42:46Z</time>
      </trkpt>
      <trkpt lat="45.90573" lon="5.77508">
        <ele>1209.2</ele>
        <time>2026-05-13T14:42:47Z</time>
      </trkpt>
      <trkpt lat="45.90572" lon="5.77506">
        <ele>1209.2</ele>
        <time>2026-05-13T14:42:48Z</time>
      </trkpt>
      <trkpt lat="45.90571" lon="5.77505">
        <ele>1209.4</ele>
        <time>2026-05-13T14:42:49Z</time>
      </trkpt>
      <trkpt lat="45.90569" lon="5.77503">
        <ele>1209.4</ele>
        <time>2026-05-13T14:42:50Z</time>
      </trkpt>
      <trkpt lat="45.90568" lon="5.77502">
        <ele>1209.8</ele>
        <time>2026-05-13T14:42:51Z</time>
      </trkpt>
      <trkpt lat="45.90566" lon="5.77501">
        <ele>1209.8</ele>
        <time>2026-05-13T14:42:52Z</time>
      </trkpt>
      <trkpt lat="45.90565" lon="5.77501">
        <ele>1210</ele>
        <time>2026-05-13T14:42:53Z</time>
      </trkpt>
      <trkpt lat="45.90563" lon="5.77501">
        <ele>1210</ele>
        <time>2026-05-13T14:42:54Z</time>
      </trkpt>
      <trkpt lat="45.90562" lon="5.77501">
        <ele>1210.2</ele>
        <time>2026-05-13T14:42:55Z</time>
      </trkpt>
      <trkpt lat="45.9056" lon="5.775">
        <ele>1210.2</ele>
        <time>2026-05-13T14:42:56Z</time>
      </trkpt>
      <trkpt lat="45.90559" lon="5.775">
        <ele>1210.2</ele>
        <time>2026-05-13T14:42:57Z</time>
      </trkpt>
      <trkpt lat="45.90558" lon="5.775">
        <ele>1210.4</ele>
        <time>2026-05-13T14:42:58Z</time>
      </trkpt>
      <trkpt lat="45.90557" lon="5.775">
        <ele>1210.4</ele>
        <time>2026-05-13T14:42:59Z</time>
      </trkpt>
      <trkpt lat="45.90556" lon="5.77499">
        <ele>1210.8</ele>
        <time>2026-05-13T14:43:00Z</time>
      </trkpt>
      <trkpt lat="45.90555" lon="5.77497">
        <ele>1210.8</ele>
        <time>2026-05-13T14:43:01Z</time>
      </trkpt>
      <trkpt lat="45.90553" lon="5.77496">
        <ele>1210.8</ele>
        <time>2026-05-13T14:43:02Z</time>
      </trkpt>
      <trkpt lat="45.90552" lon="5.77495">
        <ele>1211</ele>
        <time>2026-05-13T14:43:03Z</time>
      </trkpt>
      <trkpt lat="45.9055" lon="5.77493">
        <ele>1211</ele>
        <time>2026-05-13T14:43:04Z</time>
      </trkpt>
      <trkpt lat="45.90549" lon="5.77492">
        <ele>1211.2</ele>
        <time>2026-05-13T14:43:05Z</time>
      </trkpt>
      <trkpt lat="45.90548" lon="5.77491">
        <ele>1211.2</ele>
        <time>2026-05-13T14:43:06Z</time>
      </trkpt>
      <trkpt lat="45.90546" lon="5.7749">
        <ele>1211.2</ele>
        <time>2026-05-13T14:43:07Z</time>
      </trkpt>
      <trkpt lat="45.90545" lon="5.77489">
        <ele>1211.6</ele>
        <time>2026-05-13T14:43:08Z</time>
      </trkpt>
      <trkpt lat="45.90543" lon="5.77488">
        <ele>1211.6</ele>
        <time>2026-05-13T14:43:09Z</time>
      </trkpt>
      <trkpt lat="45.90541" lon="5.77487">
        <ele>1211.6</ele>
        <time>2026-05-13T14:43:10Z</time>
      </trkpt>
      <trkpt lat="45.9054" lon="5.77486">
        <ele>1212</ele>
        <time>2026-05-13T14:43:11Z</time>
      </trkpt>
      <trkpt lat="45.90538" lon="5.77486">
        <ele>1212.2</ele>
        <time>2026-05-13T14:43:12Z</time>
      </trkpt>
      <trkpt lat="45.90536" lon="5.77485">
        <ele>1212.2</ele>
        <time>2026-05-13T14:43:13Z</time>
      </trkpt>
      <trkpt lat="45.90535" lon="5.77485">
        <ele>1212.4</ele>
        <time>2026-05-13T14:43:14Z</time>
      </trkpt>
      <trkpt lat="45.90534" lon="5.77485">
        <ele>1212.4</ele>
        <time>2026-05-13T14:43:15Z</time>
      </trkpt>
      <trkpt lat="45.90533" lon="5.77485">
        <ele>1212.4</ele>
        <time>2026-05-13T14:43:16Z</time>
      </trkpt>
      <trkpt lat="45.90532" lon="5.77484">
        <ele>1212.8</ele>
        <time>2026-05-13T14:43:17Z</time>
      </trkpt>
      <trkpt lat="45.90531" lon="5.77483">
        <ele>1212.8</ele>
        <time>2026-05-13T14:43:18Z</time>
      </trkpt>
      <trkpt lat="45.90529" lon="5.77481">
        <ele>1212.8</ele>
        <time>2026-05-13T14:43:19Z</time>
      </trkpt>
      <trkpt lat="45.90527" lon="5.7748">
        <ele>1213.2</ele>
        <time>2026-05-13T14:43:20Z</time>
      </trkpt>
      <trkpt lat="45.90526" lon="5.77479">
        <ele>1213.4</ele>
        <time>2026-05-13T14:43:21Z</time>
      </trkpt>
      <trkpt lat="45.90525" lon="5.77479">
        <ele>1213.4</ele>
        <time>2026-05-13T14:43:22Z</time>
      </trkpt>
      <trkpt lat="45.90524" lon="5.77479">
        <ele>1213.8</ele>
        <time>2026-05-13T14:43:23Z</time>
      </trkpt>
      <trkpt lat="45.90524" lon="5.77479">
        <ele>1214</ele>
        <time>2026-05-13T14:43:24Z</time>
      </trkpt>
      <trkpt lat="45.90523" lon="5.77479">
        <ele>1214</ele>
        <time>2026-05-13T14:43:25Z</time>
      </trkpt>
      <trkpt lat="45.90521" lon="5.77478">
        <ele>1214.4</ele>
        <time>2026-05-13T14:43:26Z</time>
      </trkpt>
      <trkpt lat="45.9052" lon="5.77477">
        <ele>1214.4</ele>
        <time>2026-05-13T14:43:27Z</time>
      </trkpt>
      <trkpt lat="45.90518" lon="5.77476">
        <ele>1214.4</ele>
        <time>2026-05-13T14:43:28Z</time>
      </trkpt>
      <trkpt lat="45.90516" lon="5.77475">
        <ele>1214.8</ele>
        <time>2026-05-13T14:43:29Z</time>
      </trkpt>
      <trkpt lat="45.90516" lon="5.77475">
        <ele>1215</ele>
        <time>2026-05-13T14:43:30Z</time>
      </trkpt>
      <trkpt lat="45.90514" lon="5.77474">
        <ele>1215</ele>
        <time>2026-05-13T14:43:31Z</time>
      </trkpt>
      <trkpt lat="45.90512" lon="5.77473">
        <ele>1215.4</ele>
        <time>2026-05-13T14:43:32Z</time>
      </trkpt>
      <trkpt lat="45.90511" lon="5.77473">
        <ele>1215.8</ele>
        <time>2026-05-13T14:43:33Z</time>
      </trkpt>
      <trkpt lat="45.90509" lon="5.77472">
        <ele>1215.8</ele>
        <time>2026-05-13T14:43:34Z</time>
      </trkpt>
      <trkpt lat="45.90507" lon="5.77471">
        <ele>1215.8</ele>
        <time>2026-05-13T14:43:35Z</time>
      </trkpt>
      <trkpt lat="45.90506" lon="5.7747">
        <ele>1216</ele>
        <time>2026-05-13T14:43:36Z</time>
      </trkpt>
      <trkpt lat="45.90504" lon="5.77468">
        <ele>1216</ele>
        <time>2026-05-13T14:43:37Z</time>
      </trkpt>
      <trkpt lat="45.90503" lon="5.77467">
        <ele>1216.4</ele>
        <time>2026-05-13T14:43:38Z</time>
      </trkpt>
      <trkpt lat="45.90502" lon="5.77466">
        <ele>1216.4</ele>
        <time>2026-05-13T14:43:39Z</time>
      </trkpt>
      <trkpt lat="45.90501" lon="5.77466">
        <ele>1216.6</ele>
        <time>2026-05-13T14:43:40Z</time>
      </trkpt>
      <trkpt lat="45.905" lon="5.77466">
        <ele>1216.6</ele>
        <time>2026-05-13T14:43:41Z</time>
      </trkpt>
      <trkpt lat="45.905" lon="5.77466">
        <ele>1216.6</ele>
        <time>2026-05-13T14:43:42Z</time>
      </trkpt>
      <trkpt lat="45.905" lon="5.77465">
        <ele>1217.2</ele>
        <time>2026-05-13T14:43:43Z</time>
      </trkpt>
      <trkpt lat="45.905" lon="5.77464">
        <ele>1217.4</ele>
        <time>2026-05-13T14:43:44Z</time>
      </trkpt>
      <trkpt lat="45.90499" lon="5.77463">
        <ele>1217.4</ele>
        <time>2026-05-13T14:43:45Z</time>
      </trkpt>
      <trkpt lat="45.90499" lon="5.77463">
        <ele>1217.6</ele>
        <time>2026-05-13T14:43:46Z</time>
      </trkpt>
      <trkpt lat="45.90497" lon="5.77463">
        <ele>1217.6</ele>
        <time>2026-05-13T14:43:47Z</time>
      </trkpt>
      <trkpt lat="45.90495" lon="5.77464">
        <ele>1218</ele>
        <time>2026-05-13T14:43:48Z</time>
      </trkpt>
      <trkpt lat="45.90493" lon="5.77463">
        <ele>1218</ele>
        <time>2026-05-13T14:43:49Z</time>
      </trkpt>
      <trkpt lat="45.9049" lon="5.77462">
        <ele>1218.2</ele>
        <time>2026-05-13T14:43:50Z</time>
      </trkpt>
      <trkpt lat="45.90488" lon="5.7746">
        <ele>1218.4</ele>
        <time>2026-05-13T14:43:51Z</time>
      </trkpt>
      <trkpt lat="45.90486" lon="5.7746">
        <ele>1218.4</ele>
        <time>2026-05-13T14:43:52Z</time>
      </trkpt>
      <trkpt lat="45.90485" lon="5.77459">
        <ele>1218.8</ele>
        <time>2026-05-13T14:43:53Z</time>
      </trkpt>
      <trkpt lat="45.90483" lon="5.77458">
        <ele>1219</ele>
        <time>2026-05-13T14:43:54Z</time>
      </trkpt>
      <trkpt lat="45.90482" lon="5.77459">
        <ele>1219</ele>
        <time>2026-05-13T14:43:55Z</time>
      </trkpt>
      <trkpt lat="45.9048" lon="5.77459">
        <ele>1219.2</ele>
        <time>2026-05-13T14:43:56Z</time>
      </trkpt>
      <trkpt lat="45.90479" lon="5.77459">
        <ele>1219.2</ele>
        <time>2026-05-13T14:43:57Z</time>
      </trkpt>
      <trkpt lat="45.90477" lon="5.77459">
        <ele>1219.6</ele>
        <time>2026-05-13T14:43:58Z</time>
      </trkpt>
      <trkpt lat="45.90475" lon="5.77459">
        <ele>1219.8</ele>
        <time>2026-05-13T14:43:59Z</time>
      </trkpt>
      <trkpt lat="45.90474" lon="5.77459">
        <ele>1220</ele>
        <time>2026-05-13T14:44:00Z</time>
      </trkpt>
      <trkpt lat="45.90472" lon="5.77458">
        <ele>1220</ele>
        <time>2026-05-13T14:44:01Z</time>
      </trkpt>
      <trkpt lat="45.90471" lon="5.77458">
        <ele>1220.4</ele>
        <time>2026-05-13T14:44:02Z</time>
      </trkpt>
      <trkpt lat="45.9047" lon="5.77458">
        <ele>1220.4</ele>
        <time>2026-05-13T14:44:03Z</time>
      </trkpt>
      <trkpt lat="45.90468" lon="5.77458">
        <ele>1220.6</ele>
        <time>2026-05-13T14:44:04Z</time>
      </trkpt>
      <trkpt lat="45.90467" lon="5.77458">
        <ele>1221</ele>
        <time>2026-05-13T14:44:05Z</time>
      </trkpt>
      <trkpt lat="45.90465" lon="5.77459">
        <ele>1221</ele>
        <time>2026-05-13T14:44:06Z</time>
      </trkpt>
      <trkpt lat="45.90464" lon="5.77459">
        <ele>1221.2</ele>
        <time>2026-05-13T14:44:07Z</time>
      </trkpt>
      <trkpt lat="45.90462" lon="5.77459">
        <ele>1221.2</ele>
        <time>2026-05-13T14:44:08Z</time>
      </trkpt>
      <trkpt lat="45.90461" lon="5.77459">
        <ele>1221.6</ele>
        <time>2026-05-13T14:44:09Z</time>
      </trkpt>
      <trkpt lat="45.9046" lon="5.77459">
        <ele>1221.6</ele>
        <time>2026-05-13T14:44:10Z</time>
      </trkpt>
      <trkpt lat="45.90459" lon="5.77459">
        <ele>1221.8</ele>
        <time>2026-05-13T14:44:11Z</time>
      </trkpt>
      <trkpt lat="45.90457" lon="5.77459">
        <ele>1221.8</ele>
        <time>2026-05-13T14:44:12Z</time>
      </trkpt>
      <trkpt lat="45.90456" lon="5.77458">
        <ele>1222.2</ele>
        <time>2026-05-13T14:44:13Z</time>
      </trkpt>
      <trkpt lat="45.90454" lon="5.77458">
        <ele>1222.2</ele>
        <time>2026-05-13T14:44:14Z</time>
      </trkpt>
      <trkpt lat="45.90453" lon="5.77457">
        <ele>1222.6</ele>
        <time>2026-05-13T14:44:15Z</time>
      </trkpt>
      <trkpt lat="45.90452" lon="5.77456">
        <ele>1222.8</ele>
        <time>2026-05-13T14:44:16Z</time>
      </trkpt>
      <trkpt lat="45.90451" lon="5.77456">
        <ele>1222.8</ele>
        <time>2026-05-13T14:44:17Z</time>
      </trkpt>
      <trkpt lat="45.9045" lon="5.77457">
        <ele>1222.8</ele>
        <time>2026-05-13T14:44:18Z</time>
      </trkpt>
      <trkpt lat="45.90449" lon="5.77458">
        <ele>1223.2</ele>
        <time>2026-05-13T14:44:19Z</time>
      </trkpt>
      <trkpt lat="45.90448" lon="5.77459">
        <ele>1223.2</ele>
        <time>2026-05-13T14:44:20Z</time>
      </trkpt>
      <trkpt lat="45.90447" lon="5.77459">
        <ele>1223.4</ele>
        <time>2026-05-13T14:44:21Z</time>
      </trkpt>
      <trkpt lat="45.90446" lon="5.77459">
        <ele>1223.4</ele>
        <time>2026-05-13T14:44:22Z</time>
      </trkpt>
      <trkpt lat="45.90444" lon="5.77459">
        <ele>1223.8</ele>
        <time>2026-05-13T14:44:23Z</time>
      </trkpt>
      <trkpt lat="45.90443" lon="5.7746">
        <ele>1224.2</ele>
        <time>2026-05-13T14:44:24Z</time>
      </trkpt>
      <trkpt lat="45.90442" lon="5.77461">
        <ele>1224.2</ele>
        <time>2026-05-13T14:44:25Z</time>
      </trkpt>
      <trkpt lat="45.90441" lon="5.77461">
        <ele>1224.4</ele>
        <time>2026-05-13T14:44:26Z</time>
      </trkpt>
      <trkpt lat="45.9044" lon="5.77462">
        <ele>1224.4</ele>
        <time>2026-05-13T14:44:27Z</time>
      </trkpt>
      <trkpt lat="45.90438" lon="5.77462">
        <ele>1224.6</ele>
        <time>2026-05-13T14:44:28Z</time>
      </trkpt>
      <trkpt lat="45.90437" lon="5.77463">
        <ele>1224.6</ele>
        <time>2026-05-13T14:44:29Z</time>
      </trkpt>
      <trkpt lat="45.90435" lon="5.77464">
        <ele>1224.6</ele>
        <time>2026-05-13T14:44:30Z</time>
      </trkpt>
      <trkpt lat="45.90434" lon="5.77464">
        <ele>1224.6</ele>
        <time>2026-05-13T14:44:31Z</time>
      </trkpt>
      <trkpt lat="45.90433" lon="5.77465">
        <ele>1224.8</ele>
        <time>2026-05-13T14:44:32Z</time>
      </trkpt>
      <trkpt lat="45.90431" lon="5.77465">
        <ele>1224.8</ele>
        <time>2026-05-13T14:44:33Z</time>
      </trkpt>
      <trkpt lat="45.9043" lon="5.77466">
        <ele>1224.8</ele>
        <time>2026-05-13T14:44:34Z</time>
      </trkpt>
      <trkpt lat="45.90429" lon="5.77466">
        <ele>1224.8</ele>
        <time>2026-05-13T14:44:35Z</time>
      </trkpt>
      <trkpt lat="45.90427" lon="5.77468">
        <ele>1225.2</ele>
        <time>2026-05-13T14:44:36Z</time>
      </trkpt>
      <trkpt lat="45.90426" lon="5.77469">
        <ele>1225.2</ele>
        <time>2026-05-13T14:44:37Z</time>
      </trkpt>
      <trkpt lat="45.90425" lon="5.7747">
        <ele>1225.2</ele>
        <time>2026-05-13T14:44:38Z</time>
      </trkpt>
      <trkpt lat="45.90424" lon="5.77472">
        <ele>1225.6</ele>
        <time>2026-05-13T14:44:39Z</time>
      </trkpt>
      <trkpt lat="45.90423" lon="5.77473">
        <ele>1225.6</ele>
        <time>2026-05-13T14:44:40Z</time>
      </trkpt>
      <trkpt lat="45.90421" lon="5.77474">
        <ele>1226</ele>
        <time>2026-05-13T14:44:41Z</time>
      </trkpt>
      <trkpt lat="45.9042" lon="5.77474">
        <ele>1226</ele>
        <time>2026-05-13T14:44:42Z</time>
      </trkpt>
      <trkpt lat="45.90418" lon="5.77475">
        <ele>1226.2</ele>
        <time>2026-05-13T14:44:43Z</time>
      </trkpt>
      <trkpt lat="45.90417" lon="5.77476">
        <ele>1226.2</ele>
        <time>2026-05-13T14:44:44Z</time>
      </trkpt>
      <trkpt lat="45.90415" lon="5.77476">
        <ele>1226.6</ele>
        <time>2026-05-13T14:44:45Z</time>
      </trkpt>
      <trkpt lat="45.90414" lon="5.77477">
        <ele>1226.8</ele>
        <time>2026-05-13T14:44:46Z</time>
      </trkpt>
      <trkpt lat="45.90413" lon="5.77477">
        <ele>1226.8</ele>
        <time>2026-05-13T14:44:47Z</time>
      </trkpt>
      <trkpt lat="45.90413" lon="5.77478">
        <ele>1226.8</ele>
        <time>2026-05-13T14:44:48Z</time>
      </trkpt>
      <trkpt lat="45.90412" lon="5.7748">
        <ele>1227</ele>
        <time>2026-05-13T14:44:49Z</time>
      </trkpt>
      <trkpt lat="45.90411" lon="5.77481">
        <ele>1227.2</ele>
        <time>2026-05-13T14:44:50Z</time>
      </trkpt>
      <trkpt lat="45.90409" lon="5.77482">
        <ele>1227.4</ele>
        <time>2026-05-13T14:44:51Z</time>
      </trkpt>
      <trkpt lat="45.90407" lon="5.77483">
        <ele>1227.6</ele>
        <time>2026-05-13T14:44:52Z</time>
      </trkpt>
      <trkpt lat="45.90406" lon="5.77485">
        <ele>1227.8</ele>
        <time>2026-05-13T14:44:53Z</time>
      </trkpt>
      <trkpt lat="45.90405" lon="5.77486">
        <ele>1228</ele>
        <time>2026-05-13T14:44:54Z</time>
      </trkpt>
      <trkpt lat="45.90405" lon="5.77487">
        <ele>1228</ele>
        <time>2026-05-13T14:44:55Z</time>
      </trkpt>
      <trkpt lat="45.90404" lon="5.77488">
        <ele>1228.6</ele>
        <time>2026-05-13T14:44:56Z</time>
      </trkpt>
      <trkpt lat="45.90403" lon="5.7749">
        <ele>1228.6</ele>
        <time>2026-05-13T14:44:57Z</time>
      </trkpt>
      <trkpt lat="45.90402" lon="5.77491">
        <ele>1228.8</ele>
        <time>2026-05-13T14:44:58Z</time>
      </trkpt>
      <trkpt lat="45.904" lon="5.77494">
        <ele>1228.8</ele>
        <time>2026-05-13T14:44:59Z</time>
      </trkpt>
      <trkpt lat="45.90399" lon="5.77495">
        <ele>1229.4</ele>
        <time>2026-05-13T14:45:00Z</time>
      </trkpt>
      <trkpt lat="45.90398" lon="5.77497">
        <ele>1229.6</ele>
        <time>2026-05-13T14:45:01Z</time>
      </trkpt>
      <trkpt lat="45.90397" lon="5.77498">
        <ele>1229.8</ele>
        <time>2026-05-13T14:45:02Z</time>
      </trkpt>
      <trkpt lat="45.90396" lon="5.775">
        <ele>1229.8</ele>
        <time>2026-05-13T14:45:03Z</time>
      </trkpt>
      <trkpt lat="45.90395" lon="5.77502">
        <ele>1230.2</ele>
        <time>2026-05-13T14:45:04Z</time>
      </trkpt>
      <trkpt lat="45.90394" lon="5.77503">
        <ele>1230.4</ele>
        <time>2026-05-13T14:45:05Z</time>
      </trkpt>
      <trkpt lat="45.90393" lon="5.77504">
        <ele>1230.4</ele>
        <time>2026-05-13T14:45:06Z</time>
      </trkpt>
      <trkpt lat="45.90392" lon="5.77505">
        <ele>1230.6</ele>
        <time>2026-05-13T14:45:07Z</time>
      </trkpt>
      <trkpt lat="45.90391" lon="5.77506">
        <ele>1230.6</ele>
        <time>2026-05-13T14:45:08Z</time>
      </trkpt>
      <trkpt lat="45.9039" lon="5.77507">
        <ele>1231</ele>
        <time>2026-05-13T14:45:09Z</time>
      </trkpt>
      <trkpt lat="45.90389" lon="5.77508">
        <ele>1231</ele>
        <time>2026-05-13T14:45:10Z</time>
      </trkpt>
      <trkpt lat="45.90388" lon="5.7751">
        <ele>1231.4</ele>
        <time>2026-05-13T14:45:11Z</time>
      </trkpt>
      <trkpt lat="45.90388" lon="5.77512">
        <ele>1231.4</ele>
        <time>2026-05-13T14:45:12Z</time>
      </trkpt>
      <trkpt lat="45.90387" lon="5.77512">
        <ele>1231.8</ele>
        <time>2026-05-13T14:45:13Z</time>
      </trkpt>
      <trkpt lat="45.90386" lon="5.77513">
        <ele>1232</ele>
        <time>2026-05-13T14:45:14Z</time>
      </trkpt>
      <trkpt lat="45.90385" lon="5.77514">
        <ele>1232</ele>
        <time>2026-05-13T14:45:15Z</time>
      </trkpt>
      <trkpt lat="45.90384" lon="5.77515">
        <ele>1232.2</ele>
        <time>2026-05-13T14:45:16Z</time>
      </trkpt>
      <trkpt lat="45.90383" lon="5.77516">
        <ele>1232.6</ele>
        <time>2026-05-13T14:45:17Z</time>
      </trkpt>
      <trkpt lat="45.90382" lon="5.77516">
        <ele>1232.6</ele>
        <time>2026-05-13T14:45:18Z</time>
      </trkpt>
      <trkpt lat="45.90381" lon="5.77517">
        <ele>1232.6</ele>
        <time>2026-05-13T14:45:19Z</time>
      </trkpt>
      <trkpt lat="45.9038" lon="5.77518">
        <ele>1232.8</ele>
        <time>2026-05-13T14:45:20Z</time>
      </trkpt>
      <trkpt lat="45.90379" lon="5.77519">
        <ele>1232.8</ele>
        <time>2026-05-13T14:45:21Z</time>
      </trkpt>
      <trkpt lat="45.90378" lon="5.7752">
        <ele>1233</ele>
        <time>2026-05-13T14:45:22Z</time>
      </trkpt>
      <trkpt lat="45.90376" lon="5.7752">
        <ele>1233</ele>
        <time>2026-05-13T14:45:23Z</time>
      </trkpt>
      <trkpt lat="45.90375" lon="5.77521">
        <ele>1233.2</ele>
        <time>2026-05-13T14:45:24Z</time>
      </trkpt>
      <trkpt lat="45.90374" lon="5.77521">
        <ele>1233.6</ele>
        <time>2026-05-13T14:45:25Z</time>
      </trkpt>
      <trkpt lat="45.90372" lon="5.77522">
        <ele>1233.6</ele>
        <time>2026-05-13T14:45:26Z</time>
      </trkpt>
      <trkpt lat="45.90371" lon="5.77523">
        <ele>1233.6</ele>
        <time>2026-05-13T14:45:27Z</time>
      </trkpt>
      <trkpt lat="45.90371" lon="5.77523">
        <ele>1233.8</ele>
        <time>2026-05-13T14:45:28Z</time>
      </trkpt>
      <trkpt lat="45.9037" lon="5.77524">
        <ele>1233.8</ele>
        <time>2026-05-13T14:45:29Z</time>
      </trkpt>
      <trkpt lat="45.90369" lon="5.77525">
        <ele>1234.2</ele>
        <time>2026-05-13T14:45:30Z</time>
      </trkpt>
      <trkpt lat="45.90368" lon="5.77526">
        <ele>1234.2</ele>
        <time>2026-05-13T14:45:31Z</time>
      </trkpt>
      <trkpt lat="45.90368" lon="5.77527">
        <ele>1234.6</ele>
        <time>2026-05-13T14:45:32Z</time>
      </trkpt>
      <trkpt lat="45.90367" lon="5.77528">
        <ele>1234.8</ele>
        <time>2026-05-13T14:45:33Z</time>
      </trkpt>
      <trkpt lat="45.90366" lon="5.7753">
        <ele>1235</ele>
        <time>2026-05-13T14:45:34Z</time>
      </trkpt>
      <trkpt lat="45.90365" lon="5.77531">
        <ele>1235</ele>
        <time>2026-05-13T14:45:35Z</time>
      </trkpt>
      <trkpt lat="45.90364" lon="5.77532">
        <ele>1235.4</ele>
        <time>2026-05-13T14:45:36Z</time>
      </trkpt>
      <trkpt lat="45.90363" lon="5.77533">
        <ele>1235.4</ele>
        <time>2026-05-13T14:45:37Z</time>
      </trkpt>
      <trkpt lat="45.90362" lon="5.77533">
        <ele>1235.4</ele>
        <time>2026-05-13T14:45:38Z</time>
      </trkpt>
      <trkpt lat="45.90361" lon="5.77534">
        <ele>1235.8</ele>
        <time>2026-05-13T14:45:39Z</time>
      </trkpt>
      <trkpt lat="45.9036" lon="5.77534">
        <ele>1235.8</ele>
        <time>2026-05-13T14:45:40Z</time>
      </trkpt>
      <trkpt lat="45.90358" lon="5.77535">
        <ele>1236</ele>
        <time>2026-05-13T14:45:41Z</time>
      </trkpt>
      <trkpt lat="45.90356" lon="5.77536">
        <ele>1236</ele>
        <time>2026-05-13T14:45:42Z</time>
      </trkpt>
      <trkpt lat="45.90355" lon="5.77536">
        <ele>1236.4</ele>
        <time>2026-05-13T14:45:43Z</time>
      </trkpt>
      <trkpt lat="45.90353" lon="5.77536">
        <ele>1236.4</ele>
        <time>2026-05-13T14:45:44Z</time>
      </trkpt>
      <trkpt lat="45.90352" lon="5.77536">
        <ele>1236.8</ele>
        <time>2026-05-13T14:45:45Z</time>
      </trkpt>
      <trkpt lat="45.9035" lon="5.77537">
        <ele>1236.8</ele>
        <time>2026-05-13T14:45:46Z</time>
      </trkpt>
      <trkpt lat="45.90349" lon="5.77537">
        <ele>1236.8</ele>
        <time>2026-05-13T14:45:47Z</time>
      </trkpt>
      <trkpt lat="45.90347" lon="5.77537">
        <ele>1237.2</ele>
        <time>2026-05-13T14:45:48Z</time>
      </trkpt>
      <trkpt lat="45.90346" lon="5.77537">
        <ele>1237.4</ele>
        <time>2026-05-13T14:45:49Z</time>
      </trkpt>
      <trkpt lat="45.90344" lon="5.77536">
        <ele>1237.4</ele>
        <time>2026-05-13T14:45:50Z</time>
      </trkpt>
      <trkpt lat="45.90343" lon="5.77535">
        <ele>1237.4</ele>
        <time>2026-05-13T14:45:51Z</time>
      </trkpt>
      <trkpt lat="45.90341" lon="5.77534">
        <ele>1237.6</ele>
        <time>2026-05-13T14:45:52Z</time>
      </trkpt>
      <trkpt lat="45.90339" lon="5.77532">
        <ele>1237.6</ele>
        <time>2026-05-13T14:45:53Z</time>
      </trkpt>
      <trkpt lat="45.90338" lon="5.7753">
        <ele>1237.8</ele>
        <time>2026-05-13T14:45:54Z</time>
      </trkpt>
      <trkpt lat="45.90337" lon="5.77529">
        <ele>1237.8</ele>
        <time>2026-05-13T14:45:55Z</time>
      </trkpt>
      <trkpt lat="45.90335" lon="5.77528">
        <ele>1238</ele>
        <time>2026-05-13T14:45:56Z</time>
      </trkpt>
      <trkpt lat="45.90334" lon="5.77527">
        <ele>1238.2</ele>
        <time>2026-05-13T14:45:57Z</time>
      </trkpt>
      <trkpt lat="45.90333" lon="5.77526">
        <ele>1238.2</ele>
        <time>2026-05-13T14:45:58Z</time>
      </trkpt>
      <trkpt lat="45.90332" lon="5.77525">
        <ele>1238.6</ele>
        <time>2026-05-13T14:45:59Z</time>
      </trkpt>
      <trkpt lat="45.90331" lon="5.77523">
        <ele>1238.6</ele>
        <time>2026-05-13T14:46:00Z</time>
      </trkpt>
      <trkpt lat="45.9033" lon="5.77522">
        <ele>1239</ele>
        <time>2026-05-13T14:46:01Z</time>
      </trkpt>
      <trkpt lat="45.90329" lon="5.7752">
        <ele>1239</ele>
        <time>2026-05-13T14:46:02Z</time>
      </trkpt>
      <trkpt lat="45.90328" lon="5.77518">
        <ele>1239.2</ele>
        <time>2026-05-13T14:46:03Z</time>
      </trkpt>
      <trkpt lat="45.90327" lon="5.77516">
        <ele>1239.4</ele>
        <time>2026-05-13T14:46:04Z</time>
      </trkpt>
      <trkpt lat="45.90327" lon="5.77513">
        <ele>1239.4</ele>
        <time>2026-05-13T14:46:05Z</time>
      </trkpt>
      <trkpt lat="45.90327" lon="5.77511">
        <ele>1239.4</ele>
        <time>2026-05-13T14:46:06Z</time>
      </trkpt>
      <trkpt lat="45.90327" lon="5.77509">
        <ele>1239.4</ele>
        <time>2026-05-13T14:46:07Z</time>
      </trkpt>
      <trkpt lat="45.90327" lon="5.77508">
        <ele>1239.4</ele>
        <time>2026-05-13T14:46:08Z</time>
      </trkpt>
      <trkpt lat="45.90327" lon="5.77506">
        <ele>1239.4</ele>
        <time>2026-05-13T14:46:09Z</time>
      </trkpt>
      <trkpt lat="45.90327" lon="5.77504">
        <ele>1239.8</ele>
        <time>2026-05-13T14:46:10Z</time>
      </trkpt>
      <trkpt lat="45.90327" lon="5.77502">
        <ele>1239.8</ele>
        <time>2026-05-13T14:46:11Z</time>
      </trkpt>
      <trkpt lat="45.90327" lon="5.775">
        <ele>1240</ele>
        <time>2026-05-13T14:46:12Z</time>
      </trkpt>
      <trkpt lat="45.90327" lon="5.77499">
        <ele>1240</ele>
        <time>2026-05-13T14:46:13Z</time>
      </trkpt>
      <trkpt lat="45.90328" lon="5.77497">
        <ele>1240</ele>
        <time>2026-05-13T14:46:14Z</time>
      </trkpt>
      <trkpt lat="45.90328" lon="5.77495">
        <ele>1240</ele>
        <time>2026-05-13T14:46:15Z</time>
      </trkpt>
      <trkpt lat="45.90328" lon="5.77493">
        <ele>1240</ele>
        <time>2026-05-13T14:46:16Z</time>
      </trkpt>
      <trkpt lat="45.90329" lon="5.77491">
        <ele>1240.2</ele>
        <time>2026-05-13T14:46:17Z</time>
      </trkpt>
      <trkpt lat="45.9033" lon="5.77488">
        <ele>1240.2</ele>
        <time>2026-05-13T14:46:18Z</time>
      </trkpt>
      <trkpt lat="45.9033" lon="5.77486">
        <ele>1240.2</ele>
        <time>2026-05-13T14:46:19Z</time>
      </trkpt>
      <trkpt lat="45.90331" lon="5.77483">
        <ele>1240.2</ele>
        <time>2026-05-13T14:46:20Z</time>
      </trkpt>
      <trkpt lat="45.90332" lon="5.77481">
        <ele>1240.2</ele>
        <time>2026-05-13T14:46:21Z</time>
      </trkpt>
      <trkpt lat="45.90333" lon="5.77478">
        <ele>1240.2</ele>
        <time>2026-05-13T14:46:22Z</time>
      </trkpt>
      <trkpt lat="45.90333" lon="5.77476">
        <ele>1240.6</ele>
        <time>2026-05-13T14:46:23Z</time>
      </trkpt>
      <trkpt lat="45.90334" lon="5.77474">
        <ele>1240.6</ele>
        <time>2026-05-13T14:46:24Z</time>
      </trkpt>
      <trkpt lat="45.90334" lon="5.77471">
        <ele>1240.6</ele>
        <time>2026-05-13T14:46:25Z</time>
      </trkpt>
      <trkpt lat="45.90334" lon="5.77469">
        <ele>1240.8</ele>
        <time>2026-05-13T14:46:26Z</time>
      </trkpt>
      <trkpt lat="45.90335" lon="5.77467">
        <ele>1240.8</ele>
        <time>2026-05-13T14:46:27Z</time>
      </trkpt>
      <trkpt lat="45.90336" lon="5.77464">
        <ele>1240.8</ele>
        <time>2026-05-13T14:46:28Z</time>
      </trkpt>
      <trkpt lat="45.90338" lon="5.77462">
        <ele>1241</ele>
        <time>2026-05-13T14:46:29Z</time>
      </trkpt>
      <trkpt lat="45.90339" lon="5.7746">
        <ele>1241</ele>
        <time>2026-05-13T14:46:30Z</time>
      </trkpt>
      <trkpt lat="45.9034" lon="5.77459">
        <ele>1241.4</ele>
        <time>2026-05-13T14:46:31Z</time>
      </trkpt>
      <trkpt lat="45.90342" lon="5.77457">
        <ele>1241.4</ele>
        <time>2026-05-13T14:46:32Z</time>
      </trkpt>
      <trkpt lat="45.90343" lon="5.77455">
        <ele>1241.4</ele>
        <time>2026-05-13T14:46:33Z</time>
      </trkpt>
      <trkpt lat="45.90343" lon="5.77453">
        <ele>1241.4</ele>
        <time>2026-05-13T14:46:34Z</time>
      </trkpt>
      <trkpt lat="45.90344" lon="5.77451">
        <ele>1241.4</ele>
        <time>2026-05-13T14:46:35Z</time>
      </trkpt>
      <trkpt lat="45.90344" lon="5.77448">
        <ele>1241.6</ele>
        <time>2026-05-13T14:46:36Z</time>
      </trkpt>
      <trkpt lat="45.90345" lon="5.77446">
        <ele>1242</ele>
        <time>2026-05-13T14:46:37Z</time>
      </trkpt>
      <trkpt lat="45.90346" lon="5.77445">
        <ele>1242</ele>
        <time>2026-05-13T14:46:38Z</time>
      </trkpt>
      <trkpt lat="45.90347" lon="5.77443">
        <ele>1242</ele>
        <time>2026-05-13T14:46:39Z</time>
      </trkpt>
      <trkpt lat="45.90348" lon="5.77441">
        <ele>1242</ele>
        <time>2026-05-13T14:46:40Z</time>
      </trkpt>
      <trkpt lat="45.90349" lon="5.77439">
        <ele>1242</ele>
        <time>2026-05-13T14:46:41Z</time>
      </trkpt>
      <trkpt lat="45.9035" lon="5.77437">
        <ele>1242.2</ele>
        <time>2026-05-13T14:46:42Z</time>
      </trkpt>
      <trkpt lat="45.90351" lon="5.77435">
        <ele>1242.2</ele>
        <time>2026-05-13T14:46:43Z</time>
      </trkpt>
      <trkpt lat="45.90352" lon="5.77433">
        <ele>1242.2</ele>
        <time>2026-05-13T14:46:44Z</time>
      </trkpt>
      <trkpt lat="45.90352" lon="5.77433">
        <ele>1242.6</ele>
        <time>2026-05-13T14:46:45Z</time>
      </trkpt>
      <trkpt lat="45.90354" lon="5.77432">
        <ele>1243</ele>
        <time>2026-05-13T14:46:46Z</time>
      </trkpt>
      <trkpt lat="45.90354" lon="5.77431">
        <ele>1243.2</ele>
        <time>2026-05-13T14:46:47Z</time>
      </trkpt>
      <trkpt lat="45.90355" lon="5.77429">
        <ele>1243.2</ele>
        <time>2026-05-13T14:46:48Z</time>
      </trkpt>
      <trkpt lat="45.90357" lon="5.77427">
        <ele>1243.6</ele>
        <time>2026-05-13T14:46:49Z</time>
      </trkpt>
      <trkpt lat="45.90358" lon="5.77425">
        <ele>1243.6</ele>
        <time>2026-05-13T14:46:50Z</time>
      </trkpt>
      <trkpt lat="45.90359" lon="5.77423">
        <ele>1244.2</ele>
        <time>2026-05-13T14:46:51Z</time>
      </trkpt>
      <trkpt lat="45.90359" lon="5.77421">
        <ele>1244.2</ele>
        <time>2026-05-13T14:46:52Z</time>
      </trkpt>
      <trkpt lat="45.9036" lon="5.77419">
        <ele>1244.4</ele>
        <time>2026-05-13T14:46:53Z</time>
      </trkpt>
      <trkpt lat="45.90361" lon="5.77417">
        <ele>1244.4</ele>
        <time>2026-05-13T14:46:54Z</time>
      </trkpt>
      <trkpt lat="45.90362" lon="5.77415">
        <ele>1244.6</ele>
        <time>2026-05-13T14:46:55Z</time>
      </trkpt>
      <trkpt lat="45.90363" lon="5.77413">
        <ele>1245</ele>
        <time>2026-05-13T14:46:56Z</time>
      </trkpt>
      <trkpt lat="45.90364" lon="5.77411">
        <ele>1245.2</ele>
        <time>2026-05-13T14:46:57Z</time>
      </trkpt>
      <trkpt lat="45.90364" lon="5.77409">
        <ele>1245.2</ele>
        <time>2026-05-13T14:46:58Z</time>
      </trkpt>
      <trkpt lat="45.90365" lon="5.77408">
        <ele>1245.2</ele>
        <time>2026-05-13T14:46:59Z</time>
      </trkpt>
      <trkpt lat="45.90367" lon="5.77407">
        <ele>1245.8</ele>
        <time>2026-05-13T14:47:00Z</time>
      </trkpt>
      <trkpt lat="45.90368" lon="5.77406">
        <ele>1245.8</ele>
        <time>2026-05-13T14:47:01Z</time>
      </trkpt>
      <trkpt lat="45.90369" lon="5.77405">
        <ele>1246</ele>
        <time>2026-05-13T14:47:02Z</time>
      </trkpt>
      <trkpt lat="45.9037" lon="5.77404">
        <ele>1246</ele>
        <time>2026-05-13T14:47:03Z</time>
      </trkpt>
      <trkpt lat="45.90371" lon="5.77403">
        <ele>1246.4</ele>
        <time>2026-05-13T14:47:04Z</time>
      </trkpt>
      <trkpt lat="45.90372" lon="5.77402">
        <ele>1246.4</ele>
        <time>2026-05-13T14:47:05Z</time>
      </trkpt>
      <trkpt lat="45.90373" lon="5.774">
        <ele>1246.6</ele>
        <time>2026-05-13T14:47:06Z</time>
      </trkpt>
      <trkpt lat="45.90375" lon="5.77398">
        <ele>1246.6</ele>
        <time>2026-05-13T14:47:07Z</time>
      </trkpt>
      <trkpt lat="45.90376" lon="5.77397">
        <ele>1246.6</ele>
        <time>2026-05-13T14:47:08Z</time>
      </trkpt>
      <trkpt lat="45.90378" lon="5.77395">
        <ele>1246.6</ele>
        <time>2026-05-13T14:47:09Z</time>
      </trkpt>
      <trkpt lat="45.90379" lon="5.77394">
        <ele>1246.6</ele>
        <time>2026-05-13T14:47:10Z</time>
      </trkpt>
      <trkpt lat="45.90381" lon="5.77392">
        <ele>1246.8</ele>
        <time>2026-05-13T14:47:11Z</time>
      </trkpt>
      <trkpt lat="45.90382" lon="5.77391">
        <ele>1246.8</ele>
        <time>2026-05-13T14:47:12Z</time>
      </trkpt>
      <trkpt lat="45.90384" lon="5.77389">
        <ele>1247.2</ele>
        <time>2026-05-13T14:47:13Z</time>
      </trkpt>
      <trkpt lat="45.90384" lon="5.77387">
        <ele>1247.2</ele>
        <time>2026-05-13T14:47:14Z</time>
      </trkpt>
      <trkpt lat="45.90385" lon="5.77385">
        <ele>1247.4</ele>
        <time>2026-05-13T14:47:15Z</time>
      </trkpt>
      <trkpt lat="45.90386" lon="5.77383">
        <ele>1247.4</ele>
        <time>2026-05-13T14:47:16Z</time>
      </trkpt>
      <trkpt lat="45.90386" lon="5.7738">
        <ele>1247.6</ele>
        <time>2026-05-13T14:47:17Z</time>
      </trkpt>
      <trkpt lat="45.90387" lon="5.77379">
        <ele>1247.6</ele>
        <time>2026-05-13T14:47:18Z</time>
      </trkpt>
      <trkpt lat="45.90388" lon="5.77377">
        <ele>1247.8</ele>
        <time>2026-05-13T14:47:19Z</time>
      </trkpt>
      <trkpt lat="45.90389" lon="5.77375">
        <ele>1248</ele>
        <time>2026-05-13T14:47:20Z</time>
      </trkpt>
      <trkpt lat="45.9039" lon="5.77373">
        <ele>1248.4</ele>
        <time>2026-05-13T14:47:21Z</time>
      </trkpt>
      <trkpt lat="45.9039" lon="5.77371">
        <ele>1248.8</ele>
        <time>2026-05-13T14:47:22Z</time>
      </trkpt>
      <trkpt lat="45.90391" lon="5.77369">
        <ele>1248.8</ele>
        <time>2026-05-13T14:47:23Z</time>
      </trkpt>
      <trkpt lat="45.90391" lon="5.77367">
        <ele>1248.8</ele>
        <time>2026-05-13T14:47:24Z</time>
      </trkpt>
      <trkpt lat="45.90392" lon="5.77366">
        <ele>1249</ele>
        <time>2026-05-13T14:47:25Z</time>
      </trkpt>
      <trkpt lat="45.90393" lon="5.77364">
        <ele>1249</ele>
        <time>2026-05-13T14:47:26Z</time>
      </trkpt>
      <trkpt lat="45.90394" lon="5.77361">
        <ele>1249</ele>
        <time>2026-05-13T14:47:27Z</time>
      </trkpt>
      <trkpt lat="45.90395" lon="5.77358">
        <ele>1249.4</ele>
        <time>2026-05-13T14:47:28Z</time>
      </trkpt>
      <trkpt lat="45.90395" lon="5.77356">
        <ele>1249.6</ele>
        <time>2026-05-13T14:47:29Z</time>
      </trkpt>
      <trkpt lat="45.90395" lon="5.77354">
        <ele>1249.6</ele>
        <time>2026-05-13T14:47:30Z</time>
      </trkpt>
      <trkpt lat="45.90396" lon="5.77352">
        <ele>1249.6</ele>
        <time>2026-05-13T14:47:31Z</time>
      </trkpt>
      <trkpt lat="45.90396" lon="5.7735">
        <ele>1249.6</ele>
        <time>2026-05-13T14:47:32Z</time>
      </trkpt>
      <trkpt lat="45.90397" lon="5.77348">
        <ele>1249.8</ele>
        <time>2026-05-13T14:47:33Z</time>
      </trkpt>
      <trkpt lat="45.90397" lon="5.77346">
        <ele>1249.8</ele>
        <time>2026-05-13T14:47:34Z</time>
      </trkpt>
      <trkpt lat="45.90398" lon="5.77344">
        <ele>1250</ele>
        <time>2026-05-13T14:47:35Z</time>
      </trkpt>
      <trkpt lat="45.90399" lon="5.77342">
        <ele>1250</ele>
        <time>2026-05-13T14:47:36Z</time>
      </trkpt>
      <trkpt lat="45.904" lon="5.7734">
        <ele>1250</ele>
        <time>2026-05-13T14:47:37Z</time>
      </trkpt>
      <trkpt lat="45.90402" lon="5.77338">
        <ele>1250.4</ele>
        <time>2026-05-13T14:47:38Z</time>
      </trkpt>
      <trkpt lat="45.90404" lon="5.77337">
        <ele>1250.4</ele>
        <time>2026-05-13T14:47:39Z</time>
      </trkpt>
      <trkpt lat="45.90405" lon="5.77337">
        <ele>1250.4</ele>
        <time>2026-05-13T14:47:40Z</time>
      </trkpt>
      <trkpt lat="45.90407" lon="5.77336">
        <ele>1250.6</ele>
        <time>2026-05-13T14:47:41Z</time>
      </trkpt>
      <trkpt lat="45.90408" lon="5.77337">
        <ele>1250.6</ele>
        <time>2026-05-13T14:47:42Z</time>
      </trkpt>
      <trkpt lat="45.90409" lon="5.77337">
        <ele>1250.6</ele>
        <time>2026-05-13T14:47:43Z</time>
      </trkpt>
      <trkpt lat="45.90411" lon="5.77337">
        <ele>1251</ele>
        <time>2026-05-13T14:47:44Z</time>
      </trkpt>
      <trkpt lat="45.90412" lon="5.77336">
        <ele>1251.4</ele>
        <time>2026-05-13T14:47:45Z</time>
      </trkpt>
      <trkpt lat="45.90413" lon="5.77336">
        <ele>1251.4</ele>
        <time>2026-05-13T14:47:46Z</time>
      </trkpt>
      <trkpt lat="45.90415" lon="5.77336">
        <ele>1251.6</ele>
        <time>2026-05-13T14:47:47Z</time>
      </trkpt>
      <trkpt lat="45.90417" lon="5.77336">
        <ele>1251.6</ele>
        <time>2026-05-13T14:47:48Z</time>
      </trkpt>
      <trkpt lat="45.90419" lon="5.77337">
        <ele>1251.6</ele>
        <time>2026-05-13T14:47:49Z</time>
      </trkpt>
      <trkpt lat="45.90421" lon="5.77337">
        <ele>1252.2</ele>
        <time>2026-05-13T14:47:50Z</time>
      </trkpt>
      <trkpt lat="45.90423" lon="5.77337">
        <ele>1252.2</ele>
        <time>2026-05-13T14:47:51Z</time>
      </trkpt>
      <trkpt lat="45.90425" lon="5.77337">
        <ele>1252.2</ele>
        <time>2026-05-13T14:47:52Z</time>
      </trkpt>
      <trkpt lat="45.90426" lon="5.77337">
        <ele>1252.2</ele>
        <time>2026-05-13T14:47:53Z</time>
      </trkpt>
      <trkpt lat="45.90428" lon="5.77336">
        <ele>1252.6</ele>
        <time>2026-05-13T14:47:54Z</time>
      </trkpt>
      <trkpt lat="45.90429" lon="5.77335">
        <ele>1252.6</ele>
        <time>2026-05-13T14:47:55Z</time>
      </trkpt>
      <trkpt lat="45.90431" lon="5.77335">
        <ele>1252.8</ele>
        <time>2026-05-13T14:47:56Z</time>
      </trkpt>
      <trkpt lat="45.90433" lon="5.77334">
        <ele>1252.8</ele>
        <time>2026-05-13T14:47:57Z</time>
      </trkpt>
      <trkpt lat="45.90435" lon="5.77334">
        <ele>1253</ele>
        <time>2026-05-13T14:47:58Z</time>
      </trkpt>
      <trkpt lat="45.90436" lon="5.77333">
        <ele>1253.2</ele>
        <time>2026-05-13T14:47:59Z</time>
      </trkpt>
      <trkpt lat="45.90437" lon="5.77332">
        <ele>1253.6</ele>
        <time>2026-05-13T14:48:00Z</time>
      </trkpt>
      <trkpt lat="45.90438" lon="5.77331">
        <ele>1253.6</ele>
        <time>2026-05-13T14:48:01Z</time>
      </trkpt>
      <trkpt lat="45.90439" lon="5.77331">
        <ele>1253.6</ele>
        <time>2026-05-13T14:48:02Z</time>
      </trkpt>
      <trkpt lat="45.90441" lon="5.77331">
        <ele>1253.6</ele>
        <time>2026-05-13T14:48:03Z</time>
      </trkpt>
      <trkpt lat="45.90443" lon="5.7733">
        <ele>1253.6</ele>
        <time>2026-05-13T14:48:04Z</time>
      </trkpt>
      <trkpt lat="45.90445" lon="5.77332">
        <ele>1253.8</ele>
        <time>2026-05-13T14:48:05Z</time>
      </trkpt>
      <trkpt lat="45.90447" lon="5.77332">
        <ele>1253.8</ele>
        <time>2026-05-13T14:48:06Z</time>
      </trkpt>
      <trkpt lat="45.90448" lon="5.77332">
        <ele>1253.8</ele>
        <time>2026-05-13T14:48:07Z</time>
      </trkpt>
      <trkpt lat="45.90449" lon="5.77332">
        <ele>1253.8</ele>
        <time>2026-05-13T14:48:08Z</time>
      </trkpt>
      <trkpt lat="45.90451" lon="5.77331">
        <ele>1253.8</ele>
        <time>2026-05-13T14:48:09Z</time>
      </trkpt>
      <trkpt lat="45.90453" lon="5.77329">
        <ele>1253.8</ele>
        <time>2026-05-13T14:48:10Z</time>
      </trkpt>
      <trkpt lat="45.90454" lon="5.77327">
        <ele>1253.8</ele>
        <time>2026-05-13T14:48:11Z</time>
      </trkpt>
      <trkpt lat="45.90456" lon="5.77326">
        <ele>1253.8</ele>
        <time>2026-05-13T14:48:12Z</time>
      </trkpt>
      <trkpt lat="45.90457" lon="5.77325">
        <ele>1253.8</ele>
        <time>2026-05-13T14:48:13Z</time>
      </trkpt>
      <trkpt lat="45.90458" lon="5.77324">
        <ele>1254</ele>
        <time>2026-05-13T14:48:14Z</time>
      </trkpt>
      <trkpt lat="45.90461" lon="5.77322">
        <ele>1254</ele>
        <time>2026-05-13T14:48:15Z</time>
      </trkpt>
      <trkpt lat="45.90463" lon="5.77322">
        <ele>1254</ele>
        <time>2026-05-13T14:48:16Z</time>
      </trkpt>
      <trkpt lat="45.90465" lon="5.77322">
        <ele>1254.4</ele>
        <time>2026-05-13T14:48:17Z</time>
      </trkpt>
      <trkpt lat="45.90467" lon="5.77322">
        <ele>1254.6</ele>
        <time>2026-05-13T14:48:18Z</time>
      </trkpt>
      <trkpt lat="45.90469" lon="5.77322">
        <ele>1254.6</ele>
        <time>2026-05-13T14:48:19Z</time>
      </trkpt>
      <trkpt lat="45.90471" lon="5.77322">
        <ele>1254.8</ele>
        <time>2026-05-13T14:48:20Z</time>
      </trkpt>
      <trkpt lat="45.90474" lon="5.77322">
        <ele>1254.8</ele>
        <time>2026-05-13T14:48:21Z</time>
      </trkpt>
      <trkpt lat="45.90476" lon="5.77323">
        <ele>1254.8</ele>
        <time>2026-05-13T14:48:22Z</time>
      </trkpt>
      <trkpt lat="45.90478" lon="5.77324">
        <ele>1254.8</ele>
        <time>2026-05-13T14:48:23Z</time>
      </trkpt>
      <trkpt lat="45.90479" lon="5.77324">
        <ele>1255.2</ele>
        <time>2026-05-13T14:48:24Z</time>
      </trkpt>
      <trkpt lat="45.9048" lon="5.77322">
        <ele>1255.2</ele>
        <time>2026-05-13T14:48:25Z</time>
      </trkpt>
      <trkpt lat="45.90482" lon="5.77321">
        <ele>1255.2</ele>
        <time>2026-05-13T14:48:26Z</time>
      </trkpt>
      <trkpt lat="45.90487" lon="5.77324">
        <ele>1255.2</ele>
        <time>2026-05-13T14:48:27Z</time>
      </trkpt>
      <trkpt lat="45.90487" lon="5.77322">
        <ele>1255.2</ele>
        <time>2026-05-13T14:48:28Z</time>
      </trkpt>
      <trkpt lat="45.9049" lon="5.77321">
        <ele>1255.4</ele>
        <time>2026-05-13T14:48:29Z</time>
      </trkpt>
      <trkpt lat="45.90492" lon="5.77322">
        <ele>1255.4</ele>
        <time>2026-05-13T14:48:30Z</time>
      </trkpt>
      <trkpt lat="45.90493" lon="5.7732">
        <ele>1255.4</ele>
        <time>2026-05-13T14:48:31Z</time>
      </trkpt>
      <trkpt lat="45.90495" lon="5.77322">
        <ele>1255.4</ele>
        <time>2026-05-13T14:48:32Z</time>
      </trkpt>
      <trkpt lat="45.90497" lon="5.77322">
        <ele>1255.6</ele>
        <time>2026-05-13T14:48:33Z</time>
      </trkpt>
      <trkpt lat="45.90499" lon="5.77323">
        <ele>1255.6</ele>
        <time>2026-05-13T14:48:34Z</time>
      </trkpt>
      <trkpt lat="45.90501" lon="5.77323">
        <ele>1255.6</ele>
        <time>2026-05-13T14:48:35Z</time>
      </trkpt>
      <trkpt lat="45.90503" lon="5.77321">
        <ele>1255.8</ele>
        <time>2026-05-13T14:48:36Z</time>
      </trkpt>
      <trkpt lat="45.90504" lon="5.7732">
        <ele>1255.8</ele>
        <time>2026-05-13T14:48:37Z</time>
      </trkpt>
      <trkpt lat="45.90506" lon="5.77321">
        <ele>1256.2</ele>
        <time>2026-05-13T14:48:38Z</time>
      </trkpt>
      <trkpt lat="45.90509" lon="5.77321">
        <ele>1256.2</ele>
        <time>2026-05-13T14:48:39Z</time>
      </trkpt>
      <trkpt lat="45.90511" lon="5.77321">
        <ele>1256.2</ele>
        <time>2026-05-13T14:48:40Z</time>
      </trkpt>
      <trkpt lat="45.90513" lon="5.7732">
        <ele>1256.4</ele>
        <time>2026-05-13T14:48:41Z</time>
      </trkpt>
      <trkpt lat="45.90515" lon="5.7732">
        <ele>1256</ele>
        <time>2026-05-13T14:48:42Z</time>
      </trkpt>
      <trkpt lat="45.90517" lon="5.7732">
        <ele>1256</ele>
        <time>2026-05-13T14:48:43Z</time>
      </trkpt>
      <trkpt lat="45.9052" lon="5.77319">
        <ele>1256.2</ele>
        <time>2026-05-13T14:48:44Z</time>
      </trkpt>
      <trkpt lat="45.90522" lon="5.77319">
        <ele>1256.2</ele>
        <time>2026-05-13T14:48:45Z</time>
      </trkpt>
      <trkpt lat="45.90524" lon="5.77318">
        <ele>1256.6</ele>
        <time>2026-05-13T14:48:46Z</time>
      </trkpt>
      <trkpt lat="45.90527" lon="5.77318">
        <ele>1256.6</ele>
        <time>2026-05-13T14:48:47Z</time>
      </trkpt>
      <trkpt lat="45.90529" lon="5.77317">
        <ele>1256.8</ele>
        <time>2026-05-13T14:48:48Z</time>
      </trkpt>
      <trkpt lat="45.9053" lon="5.77316">
        <ele>1256.8</ele>
        <time>2026-05-13T14:48:49Z</time>
      </trkpt>
      <trkpt lat="45.90533" lon="5.77315">
        <ele>1257.2</ele>
        <time>2026-05-13T14:48:50Z</time>
      </trkpt>
      <trkpt lat="45.90535" lon="5.77314">
        <ele>1257.2</ele>
        <time>2026-05-13T14:48:51Z</time>
      </trkpt>
      <trkpt lat="45.90536" lon="5.77313">
        <ele>1257.4</ele>
        <time>2026-05-13T14:48:52Z</time>
      </trkpt>
      <trkpt lat="45.90538" lon="5.77312">
        <ele>1257.4</ele>
        <time>2026-05-13T14:48:53Z</time>
      </trkpt>
      <trkpt lat="45.9054" lon="5.77311">
        <ele>1257.8</ele>
        <time>2026-05-13T14:48:54Z</time>
      </trkpt>
      <trkpt lat="45.90542" lon="5.7731">
        <ele>1257.8</ele>
        <time>2026-05-13T14:48:55Z</time>
      </trkpt>
      <trkpt lat="45.90544" lon="5.77309">
        <ele>1257.8</ele>
        <time>2026-05-13T14:48:56Z</time>
      </trkpt>
      <trkpt lat="45.90546" lon="5.77307">
        <ele>1257.8</ele>
        <time>2026-05-13T14:48:57Z</time>
      </trkpt>
      <trkpt lat="45.90548" lon="5.77306">
        <ele>1258.2</ele>
        <time>2026-05-13T14:48:58Z</time>
      </trkpt>
      <trkpt lat="45.90551" lon="5.77306">
        <ele>1258.2</ele>
        <time>2026-05-13T14:48:59Z</time>
      </trkpt>
      <trkpt lat="45.90553" lon="5.77305">
        <ele>1258.4</ele>
        <time>2026-05-13T14:49:00Z</time>
      </trkpt>
      <trkpt lat="45.90555" lon="5.77304">
        <ele>1258.4</ele>
        <time>2026-05-13T14:49:01Z</time>
      </trkpt>
      <trkpt lat="45.90557" lon="5.77303">
        <ele>1258.4</ele>
        <time>2026-05-13T14:49:02Z</time>
      </trkpt>
      <trkpt lat="45.90559" lon="5.77301">
        <ele>1258.8</ele>
        <time>2026-05-13T14:49:03Z</time>
      </trkpt>
      <trkpt lat="45.90561" lon="5.773">
        <ele>1258.8</ele>
        <time>2026-05-13T14:49:04Z</time>
      </trkpt>
      <trkpt lat="45.90563" lon="5.77299">
        <ele>1258.6</ele>
        <time>2026-05-13T14:49:05Z</time>
      </trkpt>
      <trkpt lat="45.90565" lon="5.77298">
        <ele>1258.6</ele>
        <time>2026-05-13T14:49:06Z</time>
      </trkpt>
      <trkpt lat="45.90567" lon="5.77297">
        <ele>1258.8</ele>
        <time>2026-05-13T14:49:07Z</time>
      </trkpt>
      <trkpt lat="45.9057" lon="5.77296">
        <ele>1258.8</ele>
        <time>2026-05-13T14:49:08Z</time>
      </trkpt>
      <trkpt lat="45.90572" lon="5.77296">
        <ele>1259</ele>
        <time>2026-05-13T14:49:09Z</time>
      </trkpt>
      <trkpt lat="45.90575" lon="5.77295">
        <ele>1259</ele>
        <time>2026-05-13T14:49:10Z</time>
      </trkpt>
      <trkpt lat="45.90577" lon="5.77295">
        <ele>1259</ele>
        <time>2026-05-13T14:49:11Z</time>
      </trkpt>
      <trkpt lat="45.90579" lon="5.77294">
        <ele>1259</ele>
        <time>2026-05-13T14:49:12Z</time>
      </trkpt>
      <trkpt lat="45.90581" lon="5.77293">
        <ele>1259.4</ele>
        <time>2026-05-13T14:49:13Z</time>
      </trkpt>
      <trkpt lat="45.90583" lon="5.77292">
        <ele>1259.4</ele>
        <time>2026-05-13T14:49:14Z</time>
      </trkpt>
      <trkpt lat="45.90584" lon="5.77291">
        <ele>1259.4</ele>
        <time>2026-05-13T14:49:15Z</time>
      </trkpt>
      <trkpt lat="45.90586" lon="5.7729">
        <ele>1259.4</ele>
        <time>2026-05-13T14:49:16Z</time>
      </trkpt>
      <trkpt lat="45.90587" lon="5.77289">
        <ele>1259.6</ele>
        <time>2026-05-13T14:49:17Z</time>
      </trkpt>
      <trkpt lat="45.90589" lon="5.77289">
        <ele>1259.8</ele>
        <time>2026-05-13T14:49:18Z</time>
      </trkpt>
      <trkpt lat="45.90591" lon="5.77288">
        <ele>1260</ele>
        <time>2026-05-13T14:49:19Z</time>
      </trkpt>
      <trkpt lat="45.90593" lon="5.77288">
        <ele>1260</ele>
        <time>2026-05-13T14:49:20Z</time>
      </trkpt>
      <trkpt lat="45.90595" lon="5.77288">
        <ele>1260</ele>
        <time>2026-05-13T14:49:21Z</time>
      </trkpt>
      <trkpt lat="45.90597" lon="5.77287">
        <ele>1260.4</ele>
        <time>2026-05-13T14:49:22Z</time>
      </trkpt>
      <trkpt lat="45.90599" lon="5.77287">
        <ele>1260.4</ele>
        <time>2026-05-13T14:49:23Z</time>
      </trkpt>
      <trkpt lat="45.90601" lon="5.77288">
        <ele>1260.8</ele>
        <time>2026-05-13T14:49:24Z</time>
      </trkpt>
      <trkpt lat="45.90604" lon="5.77289">
        <ele>1261</ele>
        <time>2026-05-13T14:49:25Z</time>
      </trkpt>
      <trkpt lat="45.90606" lon="5.77289">
        <ele>1261</ele>
        <time>2026-05-13T14:49:26Z</time>
      </trkpt>
      <trkpt lat="45.90607" lon="5.77289">
        <ele>1261</ele>
        <time>2026-05-13T14:49:27Z</time>
      </trkpt>
      <trkpt lat="45.90608" lon="5.77289">
        <ele>1261.4</ele>
        <time>2026-05-13T14:49:28Z</time>
      </trkpt>
      <trkpt lat="45.9061" lon="5.7729">
        <ele>1261.4</ele>
        <time>2026-05-13T14:49:29Z</time>
      </trkpt>
      <trkpt lat="45.90613" lon="5.7729">
        <ele>1261.8</ele>
        <time>2026-05-13T14:49:30Z</time>
      </trkpt>
      <trkpt lat="45.90615" lon="5.7729">
        <ele>1261.8</ele>
        <time>2026-05-13T14:49:31Z</time>
      </trkpt>
      <trkpt lat="45.90617" lon="5.7729">
        <ele>1261.8</ele>
        <time>2026-05-13T14:49:32Z</time>
      </trkpt>
      <trkpt lat="45.90619" lon="5.7729">
        <ele>1262</ele>
        <time>2026-05-13T14:49:33Z</time>
      </trkpt>
      <trkpt lat="45.90621" lon="5.7729">
        <ele>1262</ele>
        <time>2026-05-13T14:49:34Z</time>
      </trkpt>
      <trkpt lat="45.90624" lon="5.7729">
        <ele>1262.2</ele>
        <time>2026-05-13T14:49:35Z</time>
      </trkpt>
      <trkpt lat="45.90626" lon="5.7729">
        <ele>1262.2</ele>
        <time>2026-05-13T14:49:36Z</time>
      </trkpt>
      <trkpt lat="45.90628" lon="5.77289">
        <ele>1262.6</ele>
        <time>2026-05-13T14:49:37Z</time>
      </trkpt>
      <trkpt lat="45.90629" lon="5.77289">
        <ele>1262.6</ele>
        <time>2026-05-13T14:49:38Z</time>
      </trkpt>
      <trkpt lat="45.90631" lon="5.77289">
        <ele>1262.6</ele>
        <time>2026-05-13T14:49:39Z</time>
      </trkpt>
      <trkpt lat="45.90632" lon="5.77288">
        <ele>1263</ele>
        <time>2026-05-13T14:49:40Z</time>
      </trkpt>
      <trkpt lat="45.90634" lon="5.77289">
        <ele>1263</ele>
        <time>2026-05-13T14:49:41Z</time>
      </trkpt>
      <trkpt lat="45.90636" lon="5.77289">
        <ele>1263</ele>
        <time>2026-05-13T14:49:42Z</time>
      </trkpt>
      <trkpt lat="45.90638" lon="5.77289">
        <ele>1263</ele>
        <time>2026-05-13T14:49:43Z</time>
      </trkpt>
      <trkpt lat="45.90639" lon="5.77289">
        <ele>1263.2</ele>
        <time>2026-05-13T14:49:44Z</time>
      </trkpt>
      <trkpt lat="45.90641" lon="5.7729">
        <ele>1263.2</ele>
        <time>2026-05-13T14:49:45Z</time>
      </trkpt>
      <trkpt lat="45.90643" lon="5.7729">
        <ele>1263.6</ele>
        <time>2026-05-13T14:49:46Z</time>
      </trkpt>
      <trkpt lat="45.90644" lon="5.7729">
        <ele>1263.6</ele>
        <time>2026-05-13T14:49:47Z</time>
      </trkpt>
      <trkpt lat="45.90646" lon="5.7729">
        <ele>1263.8</ele>
        <time>2026-05-13T14:49:48Z</time>
      </trkpt>
      <trkpt lat="45.90648" lon="5.7729">
        <ele>1263.8</ele>
        <time>2026-05-13T14:49:49Z</time>
      </trkpt>
      <trkpt lat="45.90649" lon="5.7729">
        <ele>1264</ele>
        <time>2026-05-13T14:49:50Z</time>
      </trkpt>
      <trkpt lat="45.90651" lon="5.77289">
        <ele>1264</ele>
        <time>2026-05-13T14:49:51Z</time>
      </trkpt>
      <trkpt lat="45.90653" lon="5.77289">
        <ele>1264.4</ele>
        <time>2026-05-13T14:49:52Z</time>
      </trkpt>
      <trkpt lat="45.90654" lon="5.77288">
        <ele>1264.4</ele>
        <time>2026-05-13T14:49:53Z</time>
      </trkpt>
      <trkpt lat="45.90657" lon="5.77287">
        <ele>1264.4</ele>
        <time>2026-05-13T14:49:54Z</time>
      </trkpt>
      <trkpt lat="45.90658" lon="5.77287">
        <ele>1264.6</ele>
        <time>2026-05-13T14:49:55Z</time>
      </trkpt>
      <trkpt lat="45.9066" lon="5.77286">
        <ele>1264.6</ele>
        <time>2026-05-13T14:49:56Z</time>
      </trkpt>
      <trkpt lat="45.90662" lon="5.77286">
        <ele>1264.6</ele>
        <time>2026-05-13T14:49:57Z</time>
      </trkpt>
      <trkpt lat="45.90664" lon="5.77285">
        <ele>1265</ele>
        <time>2026-05-13T14:49:58Z</time>
      </trkpt>
      <trkpt lat="45.90666" lon="5.77284">
        <ele>1265</ele>
        <time>2026-05-13T14:49:59Z</time>
      </trkpt>
      <trkpt lat="45.90666" lon="5.77284">
        <ele>1265.2</ele>
        <time>2026-05-13T14:50:00Z</time>
      </trkpt>
      <trkpt lat="45.90668" lon="5.77284">
        <ele>1265.2</ele>
        <time>2026-05-13T14:50:01Z</time>
      </trkpt>
      <trkpt lat="45.9067" lon="5.77283">
        <ele>1265.4</ele>
        <time>2026-05-13T14:50:02Z</time>
      </trkpt>
      <trkpt lat="45.90672" lon="5.77282">
        <ele>1265.4</ele>
        <time>2026-05-13T14:50:03Z</time>
      </trkpt>
      <trkpt lat="45.90674" lon="5.7728">
        <ele>1265.4</ele>
        <time>2026-05-13T14:50:04Z</time>
      </trkpt>
      <trkpt lat="45.90676" lon="5.77279">
        <ele>1265.4</ele>
        <time>2026-05-13T14:50:05Z</time>
      </trkpt>
      <trkpt lat="45.90678" lon="5.77278">
        <ele>1265.4</ele>
        <time>2026-05-13T14:50:06Z</time>
      </trkpt>
      <trkpt lat="45.9068" lon="5.77277">
        <ele>1265.8</ele>
        <time>2026-05-13T14:50:07Z</time>
      </trkpt>
      <trkpt lat="45.90682" lon="5.77275">
        <ele>1265.8</ele>
        <time>2026-05-13T14:50:08Z</time>
      </trkpt>
      <trkpt lat="45.90684" lon="5.77274">
        <ele>1265.8</ele>
        <time>2026-05-13T14:50:09Z</time>
      </trkpt>
      <trkpt lat="45.90685" lon="5.77272">
        <ele>1265.8</ele>
        <time>2026-05-13T14:50:10Z</time>
      </trkpt>
      <trkpt lat="45.90687" lon="5.7727">
        <ele>1265.8</ele>
        <time>2026-05-13T14:50:11Z</time>
      </trkpt>
      <trkpt lat="45.90689" lon="5.77268">
        <ele>1265.4</ele>
        <time>2026-05-13T14:50:12Z</time>
      </trkpt>
      <trkpt lat="45.90691" lon="5.77266">
        <ele>1265.4</ele>
        <time>2026-05-13T14:50:13Z</time>
      </trkpt>
      <trkpt lat="45.90693" lon="5.77265">
        <ele>1265.4</ele>
        <time>2026-05-13T14:50:14Z</time>
      </trkpt>
      <trkpt lat="45.90694" lon="5.77263">
        <ele>1265.4</ele>
        <time>2026-05-13T14:50:15Z</time>
      </trkpt>
      <trkpt lat="45.90696" lon="5.77262">
        <ele>1265.8</ele>
        <time>2026-05-13T14:50:16Z</time>
      </trkpt>
      <trkpt lat="45.90697" lon="5.7726">
        <ele>1265.8</ele>
        <time>2026-05-13T14:50:17Z</time>
      </trkpt>
      <trkpt lat="45.90699" lon="5.77258">
        <ele>1265.8</ele>
        <time>2026-05-13T14:50:18Z</time>
      </trkpt>
      <trkpt lat="45.90701" lon="5.77257">
        <ele>1266</ele>
        <time>2026-05-13T14:50:19Z</time>
      </trkpt>
      <trkpt lat="45.90702" lon="5.77256">
        <ele>1266.4</ele>
        <time>2026-05-13T14:50:20Z</time>
      </trkpt>
      <trkpt lat="45.90704" lon="5.77255">
        <ele>1266.8</ele>
        <time>2026-05-13T14:50:21Z</time>
      </trkpt>
      <trkpt lat="45.90706" lon="5.77256">
        <ele>1266.8</ele>
        <time>2026-05-13T14:50:22Z</time>
      </trkpt>
      <trkpt lat="45.90709" lon="5.77257">
        <ele>1267.2</ele>
        <time>2026-05-13T14:50:23Z</time>
      </trkpt>
      <trkpt lat="45.90712" lon="5.77257">
        <ele>1267.2</ele>
        <time>2026-05-13T14:50:24Z</time>
      </trkpt>
      <trkpt lat="45.90713" lon="5.77258">
        <ele>1267.6</ele>
        <time>2026-05-13T14:50:25Z</time>
      </trkpt>
      <trkpt lat="45.90715" lon="5.77257">
        <ele>1267.6</ele>
        <time>2026-05-13T14:50:26Z</time>
      </trkpt>
      <trkpt lat="45.90716" lon="5.77256">
        <ele>1268</ele>
        <time>2026-05-13T14:50:27Z</time>
      </trkpt>
      <trkpt lat="45.90717" lon="5.77254">
        <ele>1268.2</ele>
        <time>2026-05-13T14:50:28Z</time>
      </trkpt>
      <trkpt lat="45.90718" lon="5.77251">
        <ele>1268.2</ele>
        <time>2026-05-13T14:50:29Z</time>
      </trkpt>
      <trkpt lat="45.90718" lon="5.77248">
        <ele>1268.2</ele>
        <time>2026-05-13T14:50:30Z</time>
      </trkpt>
      <trkpt lat="45.90719" lon="5.77245">
        <ele>1268.4</ele>
        <time>2026-05-13T14:50:31Z</time>
      </trkpt>
      <trkpt lat="45.9072" lon="5.77242">
        <ele>1268.6</ele>
        <time>2026-05-13T14:50:32Z</time>
      </trkpt>
      <trkpt lat="45.9072" lon="5.77239">
        <ele>1268.8</ele>
        <time>2026-05-13T14:50:33Z</time>
      </trkpt>
      <trkpt lat="45.90721" lon="5.77236">
        <ele>1268.8</ele>
        <time>2026-05-13T14:50:34Z</time>
      </trkpt>
      <trkpt lat="45.90721" lon="5.77233">
        <ele>1269.2</ele>
        <time>2026-05-13T14:50:35Z</time>
      </trkpt>
      <trkpt lat="45.90722" lon="5.7723">
        <ele>1269.4</ele>
        <time>2026-05-13T14:50:36Z</time>
      </trkpt>
      <trkpt lat="45.90722" lon="5.77227">
        <ele>1269.8</ele>
        <time>2026-05-13T14:50:37Z</time>
      </trkpt>
      <trkpt lat="45.90722" lon="5.77224">
        <ele>1269.8</ele>
        <time>2026-05-13T14:50:38Z</time>
      </trkpt>
      <trkpt lat="45.90722" lon="5.77221">
        <ele>1269.8</ele>
        <time>2026-05-13T14:50:39Z</time>
      </trkpt>
      <trkpt lat="45.90723" lon="5.77218">
        <ele>1269.8</ele>
        <time>2026-05-13T14:50:40Z</time>
      </trkpt>
      <trkpt lat="45.90723" lon="5.77216">
        <ele>1270.2</ele>
        <time>2026-05-13T14:50:41Z</time>
      </trkpt>
      <trkpt lat="45.90724" lon="5.77214">
        <ele>1270.2</ele>
        <time>2026-05-13T14:50:42Z</time>
      </trkpt>
      <trkpt lat="45.90725" lon="5.77211">
        <ele>1270.6</ele>
        <time>2026-05-13T14:50:43Z</time>
      </trkpt>
      <trkpt lat="45.90725" lon="5.77209">
        <ele>1270.6</ele>
        <time>2026-05-13T14:50:44Z</time>
      </trkpt>
      <trkpt lat="45.90726" lon="5.77207">
        <ele>1270.6</ele>
        <time>2026-05-13T14:50:45Z</time>
      </trkpt>
      <trkpt lat="45.90726" lon="5.77205">
        <ele>1271</ele>
        <time>2026-05-13T14:50:46Z</time>
      </trkpt>
      <trkpt lat="45.90727" lon="5.77203">
        <ele>1271</ele>
        <time>2026-05-13T14:50:47Z</time>
      </trkpt>
      <trkpt lat="45.90727" lon="5.77203">
        <ele>1271</ele>
        <time>2026-05-13T14:50:48Z</time>
      </trkpt>
      <trkpt lat="45.90728" lon="5.77195">
        <ele>1271.8</ele>
        <time>2026-05-13T14:50:51Z</time>
      </trkpt>
      <trkpt lat="45.90727" lon="5.77192">
        <ele>1271.8</ele>
        <time>2026-05-13T14:50:52Z</time>
      </trkpt>
      <trkpt lat="45.90726" lon="5.77189">
        <ele>1272.2</ele>
        <time>2026-05-13T14:50:53Z</time>
      </trkpt>
      <trkpt lat="45.90725" lon="5.77187">
        <ele>1272.2</ele>
        <time>2026-05-13T14:50:54Z</time>
      </trkpt>
      <trkpt lat="45.90724" lon="5.77185">
        <ele>1272.6</ele>
        <time>2026-05-13T14:50:55Z</time>
      </trkpt>
      <trkpt lat="45.90723" lon="5.77182">
        <ele>1272.8</ele>
        <time>2026-05-13T14:50:56Z</time>
      </trkpt>
      <trkpt lat="45.90722" lon="5.7718">
        <ele>1272.8</ele>
        <time>2026-05-13T14:50:57Z</time>
      </trkpt>
      <trkpt lat="45.90721" lon="5.77178">
        <ele>1273</ele>
        <time>2026-05-13T14:50:58Z</time>
      </trkpt>
      <trkpt lat="45.90721" lon="5.77177">
        <ele>1273</ele>
        <time>2026-05-13T14:50:59Z</time>
      </trkpt>
      <trkpt lat="45.9072" lon="5.77175">
        <ele>1273.4</ele>
        <time>2026-05-13T14:51:00Z</time>
      </trkpt>
      <trkpt lat="45.90719" lon="5.77173">
        <ele>1273.8</ele>
        <time>2026-05-13T14:51:01Z</time>
      </trkpt>
      <trkpt lat="45.90718" lon="5.77173">
        <ele>1273.8</ele>
        <time>2026-05-13T14:51:02Z</time>
      </trkpt>
      <trkpt lat="45.90716" lon="5.77173">
        <ele>1273.8</ele>
        <time>2026-05-13T14:51:03Z</time>
      </trkpt>
      <trkpt lat="45.90715" lon="5.7717">
        <ele>1274</ele>
        <time>2026-05-13T14:51:04Z</time>
      </trkpt>
      <trkpt lat="45.90713" lon="5.77168">
        <ele>1274</ele>
        <time>2026-05-13T14:51:05Z</time>
      </trkpt>
      <trkpt lat="45.90712" lon="5.77167">
        <ele>1274.4</ele>
        <time>2026-05-13T14:51:06Z</time>
      </trkpt>
      <trkpt lat="45.90711" lon="5.77166">
        <ele>1274.4</ele>
        <time>2026-05-13T14:51:07Z</time>
      </trkpt>
      <trkpt lat="45.9071" lon="5.77164">
        <ele>1274.4</ele>
        <time>2026-05-13T14:51:08Z</time>
      </trkpt>
      <trkpt lat="45.90709" lon="5.77163">
        <ele>1274.8</ele>
        <time>2026-05-13T14:51:09Z</time>
      </trkpt>
      <trkpt lat="45.90708" lon="5.77161">
        <ele>1275</ele>
        <time>2026-05-13T14:51:10Z</time>
      </trkpt>
      <trkpt lat="45.90707" lon="5.77158">
        <ele>1275</ele>
        <time>2026-05-13T14:51:11Z</time>
      </trkpt>
      <trkpt lat="45.90706" lon="5.77156">
        <ele>1275.2</ele>
        <time>2026-05-13T14:51:12Z</time>
      </trkpt>
      <trkpt lat="45.90705" lon="5.77154">
        <ele>1275.2</ele>
        <time>2026-05-13T14:51:13Z</time>
      </trkpt>
      <trkpt lat="45.90704" lon="5.77151">
        <ele>1275.2</ele>
        <time>2026-05-13T14:51:14Z</time>
      </trkpt>
      <trkpt lat="45.90702" lon="5.77149">
        <ele>1275.2</ele>
        <time>2026-05-13T14:51:15Z</time>
      </trkpt>
      <trkpt lat="45.90701" lon="5.77147">
        <ele>1275.2</ele>
        <time>2026-05-13T14:51:16Z</time>
      </trkpt>
      <trkpt lat="45.907" lon="5.77145">
        <ele>1275.6</ele>
        <time>2026-05-13T14:51:17Z</time>
      </trkpt>
      <trkpt lat="45.90698" lon="5.77143">
        <ele>1275.2</ele>
        <time>2026-05-13T14:51:18Z</time>
      </trkpt>
      <trkpt lat="45.90698" lon="5.77143">
        <ele>1275.6</ele>
        <time>2026-05-13T14:51:19Z</time>
      </trkpt>
      <trkpt lat="45.90695" lon="5.77139">
        <ele>1275.6</ele>
        <time>2026-05-13T14:51:20Z</time>
      </trkpt>
      <trkpt lat="45.90695" lon="5.77137">
        <ele>1275.6</ele>
        <time>2026-05-13T14:51:21Z</time>
      </trkpt>
      <trkpt lat="45.90694" lon="5.77135">
        <ele>1275.6</ele>
        <time>2026-05-13T14:51:22Z</time>
      </trkpt>
      <trkpt lat="45.90693" lon="5.77132">
        <ele>1275.8</ele>
        <time>2026-05-13T14:51:23Z</time>
      </trkpt>
      <trkpt lat="45.90692" lon="5.77129">
        <ele>1275.8</ele>
        <time>2026-05-13T14:51:24Z</time>
      </trkpt>
      <trkpt lat="45.90691" lon="5.77126">
        <ele>1275.8</ele>
        <time>2026-05-13T14:51:25Z</time>
      </trkpt>
      <trkpt lat="45.9069" lon="5.77124">
        <ele>1275.8</ele>
        <time>2026-05-13T14:51:26Z</time>
      </trkpt>
      <trkpt lat="45.90689" lon="5.77121">
        <ele>1275.8</ele>
        <time>2026-05-13T14:51:27Z</time>
      </trkpt>
      <trkpt lat="45.90689" lon="5.77118">
        <ele>1276</ele>
        <time>2026-05-13T14:51:28Z</time>
      </trkpt>
      <trkpt lat="45.90689" lon="5.77115">
        <ele>1276</ele>
        <time>2026-05-13T14:51:29Z</time>
      </trkpt>
      <trkpt lat="45.9069" lon="5.77112">
        <ele>1276.4</ele>
        <time>2026-05-13T14:51:30Z</time>
      </trkpt>
      <trkpt lat="45.9069" lon="5.77109">
        <ele>1276.4</ele>
        <time>2026-05-13T14:51:31Z</time>
      </trkpt>
      <trkpt lat="45.9069" lon="5.77105">
        <ele>1276.4</ele>
        <time>2026-05-13T14:51:32Z</time>
      </trkpt>
      <trkpt lat="45.9069" lon="5.77102">
        <ele>1276.4</ele>
        <time>2026-05-13T14:51:33Z</time>
      </trkpt>
      <trkpt lat="45.90691" lon="5.77098">
        <ele>1276.4</ele>
        <time>2026-05-13T14:51:34Z</time>
      </trkpt>
      <trkpt lat="45.90692" lon="5.77093">
        <ele>1276.4</ele>
        <time>2026-05-13T14:51:35Z</time>
      </trkpt>
      <trkpt lat="45.90693" lon="5.77089">
        <ele>1276</ele>
        <time>2026-05-13T14:51:36Z</time>
      </trkpt>
      <trkpt lat="45.90695" lon="5.77085">
        <ele>1276</ele>
        <time>2026-05-13T14:51:37Z</time>
      </trkpt>
      <trkpt lat="45.90698" lon="5.77081">
        <ele>1276</ele>
        <time>2026-05-13T14:51:38Z</time>
      </trkpt>
      <trkpt lat="45.90702" lon="5.77076">
        <ele>1276</ele>
        <time>2026-05-13T14:51:39Z</time>
      </trkpt>
      <trkpt lat="45.90705" lon="5.77075">
        <ele>1276</ele>
        <time>2026-05-13T14:51:40Z</time>
      </trkpt>
      <trkpt lat="45.90709" lon="5.77074">
        <ele>1276</ele>
        <time>2026-05-13T14:51:41Z</time>
      </trkpt>
      <trkpt lat="45.90711" lon="5.77074">
        <ele>1276</ele>
        <time>2026-05-13T14:51:42Z</time>
      </trkpt>
      <trkpt lat="45.90714" lon="5.77074">
        <ele>1275.6</ele>
        <time>2026-05-13T14:51:43Z</time>
      </trkpt>
      <trkpt lat="45.90717" lon="5.77072">
        <ele>1275.6</ele>
        <time>2026-05-13T14:51:44Z</time>
      </trkpt>
      <trkpt lat="45.90719" lon="5.7707">
        <ele>1275.6</ele>
        <time>2026-05-13T14:51:45Z</time>
      </trkpt>
      <trkpt lat="45.90721" lon="5.77068">
        <ele>1275.6</ele>
        <time>2026-05-13T14:51:46Z</time>
      </trkpt>
      <trkpt lat="45.90723" lon="5.77067">
        <ele>1275.6</ele>
        <time>2026-05-13T14:51:47Z</time>
      </trkpt>
      <trkpt lat="45.90726" lon="5.77068">
        <ele>1275.6</ele>
        <time>2026-05-13T14:51:48Z</time>
      </trkpt>
      <trkpt lat="45.9073" lon="5.7707">
        <ele>1275.8</ele>
        <time>2026-05-13T14:51:49Z</time>
      </trkpt>
      <trkpt lat="45.90733" lon="5.77072">
        <ele>1275.8</ele>
        <time>2026-05-13T14:51:50Z</time>
      </trkpt>
      <trkpt lat="45.90736" lon="5.77074">
        <ele>1276.6</ele>
        <time>2026-05-13T14:51:51Z</time>
      </trkpt>
      <trkpt lat="45.90738" lon="5.77076">
        <ele>1276.6</ele>
        <time>2026-05-13T14:51:52Z</time>
      </trkpt>
      <trkpt lat="45.9074" lon="5.77078">
        <ele>1276.6</ele>
        <time>2026-05-13T14:51:53Z</time>
      </trkpt>
      <trkpt lat="45.90743" lon="5.7708">
        <ele>1276.8</ele>
        <time>2026-05-13T14:51:54Z</time>
      </trkpt>
      <trkpt lat="45.90745" lon="5.77082">
        <ele>1276.8</ele>
        <time>2026-05-13T14:51:55Z</time>
      </trkpt>
      <trkpt lat="45.90747" lon="5.77084">
        <ele>1276.8</ele>
        <time>2026-05-13T14:51:56Z</time>
      </trkpt>
      <trkpt lat="45.9075" lon="5.77086">
        <ele>1276.8</ele>
        <time>2026-05-13T14:51:57Z</time>
      </trkpt>
      <trkpt lat="45.90751" lon="5.77088">
        <ele>1276.8</ele>
        <time>2026-05-13T14:51:58Z</time>
      </trkpt>
      <trkpt lat="45.90753" lon="5.7709">
        <ele>1276.8</ele>
        <time>2026-05-13T14:51:59Z</time>
      </trkpt>
      <trkpt lat="45.90756" lon="5.77092">
        <ele>1276.8</ele>
        <time>2026-05-13T14:52:00Z</time>
      </trkpt>
      <trkpt lat="45.90758" lon="5.77095">
        <ele>1276.8</ele>
        <time>2026-05-13T14:52:01Z</time>
      </trkpt>
      <trkpt lat="45.9076" lon="5.77096">
        <ele>1276.4</ele>
        <time>2026-05-13T14:52:02Z</time>
      </trkpt>
      <trkpt lat="45.90763" lon="5.77098">
        <ele>1276.4</ele>
        <time>2026-05-13T14:52:03Z</time>
      </trkpt>
      <trkpt lat="45.90769" lon="5.771">
        <ele>1276.4</ele>
        <time>2026-05-13T14:52:04Z</time>
      </trkpt>
      <trkpt lat="45.90772" lon="5.77102">
        <ele>1276.6</ele>
        <time>2026-05-13T14:52:05Z</time>
      </trkpt>
      <trkpt lat="45.90778" lon="5.77104">
        <ele>1276</ele>
        <time>2026-05-13T14:52:06Z</time>
      </trkpt>
      <trkpt lat="45.90782" lon="5.77105">
        <ele>1275.8</ele>
        <time>2026-05-13T14:52:07Z</time>
      </trkpt>
      <trkpt lat="45.90787" lon="5.77107">
        <ele>1275.2</ele>
        <time>2026-05-13T14:52:08Z</time>
      </trkpt>
      <trkpt lat="45.90794" lon="5.7711">
        <ele>1275.2</ele>
        <time>2026-05-13T14:52:09Z</time>
      </trkpt>
      <trkpt lat="45.908" lon="5.77115">
        <ele>1274.8</ele>
        <time>2026-05-13T14:52:10Z</time>
      </trkpt>
      <trkpt lat="45.90806" lon="5.7712">
        <ele>1274.4</ele>
        <time>2026-05-13T14:52:11Z</time>
      </trkpt>
      <trkpt lat="45.9081" lon="5.77123">
        <ele>1274.2</ele>
        <time>2026-05-13T14:52:12Z</time>
      </trkpt>
      <trkpt lat="45.90816" lon="5.77127">
        <ele>1273.8</ele>
        <time>2026-05-13T14:52:13Z</time>
      </trkpt>
      <trkpt lat="45.90822" lon="5.77131">
        <ele>1273.8</ele>
        <time>2026-05-13T14:52:14Z</time>
      </trkpt>
      <trkpt lat="45.90827" lon="5.77133">
        <ele>1273.6</ele>
        <time>2026-05-13T14:52:15Z</time>
      </trkpt>
      <trkpt lat="45.90832" lon="5.77136">
        <ele>1274.2</ele>
        <time>2026-05-13T14:52:16Z</time>
      </trkpt>
      <trkpt lat="45.90837" lon="5.7714">
        <ele>1273.6</ele>
        <time>2026-05-13T14:52:17Z</time>
      </trkpt>
      <trkpt lat="45.90842" lon="5.77141">
        <ele>1273.4</ele>
        <time>2026-05-13T14:52:18Z</time>
      </trkpt>
      <trkpt lat="45.90847" lon="5.77144">
        <ele>1273.6</ele>
        <time>2026-05-13T14:52:19Z</time>
      </trkpt>
      <trkpt lat="45.90852" lon="5.77146">
        <ele>1273.6</ele>
        <time>2026-05-13T14:52:20Z</time>
      </trkpt>
      <trkpt lat="45.90857" lon="5.77147">
        <ele>1273.2</ele>
        <time>2026-05-13T14:52:21Z</time>
      </trkpt>
      <trkpt lat="45.9086" lon="5.7715">
        <ele>1273.2</ele>
        <time>2026-05-13T14:52:22Z</time>
      </trkpt>
      <trkpt lat="45.90865" lon="5.77151">
        <ele>1273.8</ele>
        <time>2026-05-13T14:52:23Z</time>
      </trkpt>
      <trkpt lat="45.90867" lon="5.7715">
        <ele>1273.8</ele>
        <time>2026-05-13T14:52:24Z</time>
      </trkpt>
      <trkpt lat="45.90869" lon="5.7715">
        <ele>1273.8</ele>
        <time>2026-05-13T14:52:25Z</time>
      </trkpt>
      <trkpt lat="45.90872" lon="5.7715">
        <ele>1274.4</ele>
        <time>2026-05-13T14:52:26Z</time>
      </trkpt>
      <trkpt lat="45.90874" lon="5.77153">
        <ele>1274.4</ele>
        <time>2026-05-13T14:52:27Z</time>
      </trkpt>
      <trkpt lat="45.90875" lon="5.77153">
        <ele>1275</ele>
        <time>2026-05-13T14:52:28Z</time>
      </trkpt>
      <trkpt lat="45.90878" lon="5.77154">
        <ele>1274.6</ele>
        <time>2026-05-13T14:52:29Z</time>
      </trkpt>
      <trkpt lat="45.9088" lon="5.77155">
        <ele>1274.6</ele>
        <time>2026-05-13T14:52:30Z</time>
      </trkpt>
      <trkpt lat="45.90883" lon="5.77156">
        <ele>1275.2</ele>
        <time>2026-05-13T14:52:31Z</time>
      </trkpt>
      <trkpt lat="45.90887" lon="5.77156">
        <ele>1275.2</ele>
        <time>2026-05-13T14:52:32Z</time>
      </trkpt>
      <trkpt lat="45.90891" lon="5.77157">
        <ele>1276</ele>
        <time>2026-05-13T14:52:33Z</time>
      </trkpt>
      <trkpt lat="45.90894" lon="5.77158">
        <ele>1276.2</ele>
        <time>2026-05-13T14:52:34Z</time>
      </trkpt>
      <trkpt lat="45.90898" lon="5.7716">
        <ele>1276.2</ele>
        <time>2026-05-13T14:52:35Z</time>
      </trkpt>
      <trkpt lat="45.909" lon="5.77161">
        <ele>1276.4</ele>
        <time>2026-05-13T14:52:36Z</time>
      </trkpt>
      <trkpt lat="45.90902" lon="5.77162">
        <ele>1276.8</ele>
        <time>2026-05-13T14:52:37Z</time>
      </trkpt>
      <trkpt lat="45.90905" lon="5.77162">
        <ele>1276.6</ele>
        <time>2026-05-13T14:52:38Z</time>
      </trkpt>
      <trkpt lat="45.90908" lon="5.77161">
        <ele>1277.2</ele>
        <time>2026-05-13T14:52:39Z</time>
      </trkpt>
      <trkpt lat="45.90911" lon="5.77161">
        <ele>1276.4</ele>
        <time>2026-05-13T14:52:40Z</time>
      </trkpt>
      <trkpt lat="45.90915" lon="5.77162">
        <ele>1276.8</ele>
        <time>2026-05-13T14:52:41Z</time>
      </trkpt>
      <trkpt lat="45.90918" lon="5.77162">
        <ele>1276.6</ele>
        <time>2026-05-13T14:52:42Z</time>
      </trkpt>
      <trkpt lat="45.90922" lon="5.77162">
        <ele>1276.4</ele>
        <time>2026-05-13T14:52:43Z</time>
      </trkpt>
      <trkpt lat="45.90929" lon="5.77166">
        <ele>1276</ele>
        <time>2026-05-13T14:52:44Z</time>
      </trkpt>
      <trkpt lat="45.90933" lon="5.77167">
        <ele>1276</ele>
        <time>2026-05-13T14:52:45Z</time>
      </trkpt>
      <trkpt lat="45.90937" lon="5.77169">
        <ele>1276.2</ele>
        <time>2026-05-13T14:52:46Z</time>
      </trkpt>
      <trkpt lat="45.9094" lon="5.7717">
        <ele>1276</ele>
        <time>2026-05-13T14:52:47Z</time>
      </trkpt>
      <trkpt lat="45.90943" lon="5.77171">
        <ele>1276.8</ele>
        <time>2026-05-13T14:52:48Z</time>
      </trkpt>
      <trkpt lat="45.90947" lon="5.77173">
        <ele>1277</ele>
        <time>2026-05-13T14:52:49Z</time>
      </trkpt>
      <trkpt lat="45.9095" lon="5.77173">
        <ele>1277</ele>
        <time>2026-05-13T14:52:50Z</time>
      </trkpt>
      <trkpt lat="45.90953" lon="5.77174">
        <ele>1277.4</ele>
        <time>2026-05-13T14:52:51Z</time>
      </trkpt>
      <trkpt lat="45.90956" lon="5.77174">
        <ele>1277.4</ele>
        <time>2026-05-13T14:52:52Z</time>
      </trkpt>
      <trkpt lat="45.90959" lon="5.77174">
        <ele>1277</ele>
        <time>2026-05-13T14:52:53Z</time>
      </trkpt>
      <trkpt lat="45.90963" lon="5.77175">
        <ele>1277.6</ele>
        <time>2026-05-13T14:52:54Z</time>
      </trkpt>
      <trkpt lat="45.90967" lon="5.77176">
        <ele>1277.6</ele>
        <time>2026-05-13T14:52:55Z</time>
      </trkpt>
      <trkpt lat="45.90969" lon="5.77176">
        <ele>1278</ele>
        <time>2026-05-13T14:52:56Z</time>
      </trkpt>
      <trkpt lat="45.90971" lon="5.77176">
        <ele>1278</ele>
        <time>2026-05-13T14:52:57Z</time>
      </trkpt>
      <trkpt lat="45.90974" lon="5.77177">
        <ele>1278.2</ele>
        <time>2026-05-13T14:52:58Z</time>
      </trkpt>
      <trkpt lat="45.90977" lon="5.77178">
        <ele>1278.6</ele>
        <time>2026-05-13T14:52:59Z</time>
      </trkpt>
      <trkpt lat="45.90979" lon="5.77179">
        <ele>1278.6</ele>
        <time>2026-05-13T14:53:00Z</time>
      </trkpt>
      <trkpt lat="45.90981" lon="5.7718">
        <ele>1279</ele>
        <time>2026-05-13T14:53:01Z</time>
      </trkpt>
      <trkpt lat="45.90983" lon="5.7718">
        <ele>1279.2</ele>
        <time>2026-05-13T14:53:02Z</time>
      </trkpt>
      <trkpt lat="45.90985" lon="5.77181">
        <ele>1279.2</ele>
        <time>2026-05-13T14:53:03Z</time>
      </trkpt>
      <trkpt lat="45.90987" lon="5.77181">
        <ele>1279.6</ele>
        <time>2026-05-13T14:53:04Z</time>
      </trkpt>
      <trkpt lat="45.90989" lon="5.77182">
        <ele>1280</ele>
        <time>2026-05-13T14:53:05Z</time>
      </trkpt>
      <trkpt lat="45.9099" lon="5.77182">
        <ele>1280</ele>
        <time>2026-05-13T14:53:06Z</time>
      </trkpt>
      <trkpt lat="45.90991" lon="5.77183">
        <ele>1280.4</ele>
        <time>2026-05-13T14:53:07Z</time>
      </trkpt>
      <trkpt lat="45.90993" lon="5.77183">
        <ele>1280.4</ele>
        <time>2026-05-13T14:53:08Z</time>
      </trkpt>
      <trkpt lat="45.90994" lon="5.77182">
        <ele>1280.4</ele>
        <time>2026-05-13T14:53:09Z</time>
      </trkpt>
      <trkpt lat="45.90996" lon="5.77182">
        <ele>1280.6</ele>
        <time>2026-05-13T14:53:10Z</time>
      </trkpt>
      <trkpt lat="45.90997" lon="5.77181">
        <ele>1280.6</ele>
        <time>2026-05-13T14:53:11Z</time>
      </trkpt>
      <trkpt lat="45.90999" lon="5.7718">
        <ele>1281</ele>
        <time>2026-05-13T14:53:12Z</time>
      </trkpt>
      <trkpt lat="45.91" lon="5.7718">
        <ele>1281</ele>
        <time>2026-05-13T14:53:13Z</time>
      </trkpt>
      <trkpt lat="45.91002" lon="5.7718">
        <ele>1281</ele>
        <time>2026-05-13T14:53:14Z</time>
      </trkpt>
      <trkpt lat="45.91003" lon="5.7718">
        <ele>1281.2</ele>
        <time>2026-05-13T14:53:15Z</time>
      </trkpt>
      <trkpt lat="45.91004" lon="5.7718">
        <ele>1281.6</ele>
        <time>2026-05-13T14:53:16Z</time>
      </trkpt>
      <trkpt lat="45.91006" lon="5.7718">
        <ele>1281.6</ele>
        <time>2026-05-13T14:53:17Z</time>
      </trkpt>
      <trkpt lat="45.91008" lon="5.7718">
        <ele>1281.8</ele>
        <time>2026-05-13T14:53:18Z</time>
      </trkpt>
      <trkpt lat="45.91009" lon="5.77181">
        <ele>1281.8</ele>
        <time>2026-05-13T14:53:19Z</time>
      </trkpt>
      <trkpt lat="45.9101" lon="5.77181">
        <ele>1282.2</ele>
        <time>2026-05-13T14:53:20Z</time>
      </trkpt>
      <trkpt lat="45.91012" lon="5.77181">
        <ele>1282.2</ele>
        <time>2026-05-13T14:53:21Z</time>
      </trkpt>
      <trkpt lat="45.91013" lon="5.77181">
        <ele>1282.2</ele>
        <time>2026-05-13T14:53:22Z</time>
      </trkpt>
      <trkpt lat="45.91015" lon="5.7718">
        <ele>1282.2</ele>
        <time>2026-05-13T14:53:23Z</time>
      </trkpt>
      <trkpt lat="45.91016" lon="5.7718">
        <ele>1282.4</ele>
        <time>2026-05-13T14:53:24Z</time>
      </trkpt>
      <trkpt lat="45.91016" lon="5.7718">
        <ele>1282.4</ele>
        <time>2026-05-13T14:53:25Z</time>
      </trkpt>
      <trkpt lat="45.91017" lon="5.7718">
        <ele>1282.4</ele>
        <time>2026-05-13T14:53:26Z</time>
      </trkpt>
      <trkpt lat="45.91019" lon="5.7718">
        <ele>1282.8</ele>
        <time>2026-05-13T14:53:27Z</time>
      </trkpt>
      <trkpt lat="45.9102" lon="5.77181">
        <ele>1283.2</ele>
        <time>2026-05-13T14:53:28Z</time>
      </trkpt>
      <trkpt lat="45.91021" lon="5.77181">
        <ele>1283.4</ele>
        <time>2026-05-13T14:53:29Z</time>
      </trkpt>
      <trkpt lat="45.91023" lon="5.77181">
        <ele>1283.4</ele>
        <time>2026-05-13T14:53:30Z</time>
      </trkpt>
      <trkpt lat="45.91024" lon="5.77181">
        <ele>1283.4</ele>
        <time>2026-05-13T14:53:31Z</time>
      </trkpt>
      <trkpt lat="45.91025" lon="5.77181">
        <ele>1283.6</ele>
        <time>2026-05-13T14:53:32Z</time>
      </trkpt>
      <trkpt lat="45.91027" lon="5.77182">
        <ele>1283.8</ele>
        <time>2026-05-13T14:53:33Z</time>
      </trkpt>
      <trkpt lat="45.91028" lon="5.77181">
        <ele>1284</ele>
        <time>2026-05-13T14:53:34Z</time>
      </trkpt>
      <trkpt lat="45.91029" lon="5.77181">
        <ele>1284.4</ele>
        <time>2026-05-13T14:53:35Z</time>
      </trkpt>
      <trkpt lat="45.9103" lon="5.77182">
        <ele>1284.4</ele>
        <time>2026-05-13T14:53:36Z</time>
      </trkpt>
      <trkpt lat="45.91031" lon="5.77183">
        <ele>1284.6</ele>
        <time>2026-05-13T14:53:37Z</time>
      </trkpt>
      <trkpt lat="45.91032" lon="5.77184">
        <ele>1285</ele>
        <time>2026-05-13T14:53:38Z</time>
      </trkpt>
      <trkpt lat="45.91033" lon="5.77184">
        <ele>1285.4</ele>
        <time>2026-05-13T14:53:39Z</time>
      </trkpt>
      <trkpt lat="45.91035" lon="5.77184">
        <ele>1285.4</ele>
        <time>2026-05-13T14:53:40Z</time>
      </trkpt>
      <trkpt lat="45.91036" lon="5.77184">
        <ele>1285.8</ele>
        <time>2026-05-13T14:53:41Z</time>
      </trkpt>
      <trkpt lat="45.91037" lon="5.77184">
        <ele>1285.8</ele>
        <time>2026-05-13T14:53:42Z</time>
      </trkpt>
      <trkpt lat="45.91038" lon="5.77184">
        <ele>1286.2</ele>
        <time>2026-05-13T14:53:43Z</time>
      </trkpt>
      <trkpt lat="45.9104" lon="5.77185">
        <ele>1286.2</ele>
        <time>2026-05-13T14:53:44Z</time>
      </trkpt>
      <trkpt lat="45.91041" lon="5.77185">
        <ele>1286.4</ele>
        <time>2026-05-13T14:53:45Z</time>
      </trkpt>
      <trkpt lat="45.91042" lon="5.77186">
        <ele>1286.4</ele>
        <time>2026-05-13T14:53:46Z</time>
      </trkpt>
      <trkpt lat="45.91044" lon="5.77186">
        <ele>1286.6</ele>
        <time>2026-05-13T14:53:47Z</time>
      </trkpt>
      <trkpt lat="45.91045" lon="5.77185">
        <ele>1286.6</ele>
        <time>2026-05-13T14:53:48Z</time>
      </trkpt>
      <trkpt lat="45.91046" lon="5.77184">
        <ele>1286.6</ele>
        <time>2026-05-13T14:53:49Z</time>
      </trkpt>
      <trkpt lat="45.91048" lon="5.77184">
        <ele>1286.6</ele>
        <time>2026-05-13T14:53:50Z</time>
      </trkpt>
      <trkpt lat="45.91049" lon="5.77183">
        <ele>1287</ele>
        <time>2026-05-13T14:53:51Z</time>
      </trkpt>
      <trkpt lat="45.9105" lon="5.77183">
        <ele>1287.2</ele>
        <time>2026-05-13T14:53:52Z</time>
      </trkpt>
      <trkpt lat="45.91052" lon="5.77182">
        <ele>1287.2</ele>
        <time>2026-05-13T14:53:53Z</time>
      </trkpt>
      <trkpt lat="45.91053" lon="5.77182">
        <ele>1287.2</ele>
        <time>2026-05-13T14:53:54Z</time>
      </trkpt>
      <trkpt lat="45.91055" lon="5.77181">
        <ele>1287.2</ele>
        <time>2026-05-13T14:53:55Z</time>
      </trkpt>
      <trkpt lat="45.91056" lon="5.77181">
        <ele>1287.4</ele>
        <time>2026-05-13T14:53:56Z</time>
      </trkpt>
      <trkpt lat="45.91058" lon="5.7718">
        <ele>1288</ele>
        <time>2026-05-13T14:53:57Z</time>
      </trkpt>
      <trkpt lat="45.91059" lon="5.7718">
        <ele>1288</ele>
        <time>2026-05-13T14:53:58Z</time>
      </trkpt>
      <trkpt lat="45.9106" lon="5.77179">
        <ele>1288</ele>
        <time>2026-05-13T14:53:59Z</time>
      </trkpt>
      <trkpt lat="45.91061" lon="5.77178">
        <ele>1288.4</ele>
        <time>2026-05-13T14:54:00Z</time>
      </trkpt>
      <trkpt lat="45.91063" lon="5.77177">
        <ele>1288.4</ele>
        <time>2026-05-13T14:54:01Z</time>
      </trkpt>
      <trkpt lat="45.91064" lon="5.77176">
        <ele>1288.4</ele>
        <time>2026-05-13T14:54:02Z</time>
      </trkpt>
      <trkpt lat="45.91066" lon="5.77175">
        <ele>1288.4</ele>
        <time>2026-05-13T14:54:03Z</time>
      </trkpt>
      <trkpt lat="45.91068" lon="5.77175">
        <ele>1288.8</ele>
        <time>2026-05-13T14:54:04Z</time>
      </trkpt>
      <trkpt lat="45.91069" lon="5.77174">
        <ele>1288.8</ele>
        <time>2026-05-13T14:54:05Z</time>
      </trkpt>
      <trkpt lat="45.91071" lon="5.77173">
        <ele>1288.8</ele>
        <time>2026-05-13T14:54:06Z</time>
      </trkpt>
      <trkpt lat="45.91072" lon="5.77171">
        <ele>1289</ele>
        <time>2026-05-13T14:54:07Z</time>
      </trkpt>
      <trkpt lat="45.91073" lon="5.7717">
        <ele>1289</ele>
        <time>2026-05-13T14:54:08Z</time>
      </trkpt>
      <trkpt lat="45.91074" lon="5.77169">
        <ele>1289.6</ele>
        <time>2026-05-13T14:54:09Z</time>
      </trkpt>
      <trkpt lat="45.91076" lon="5.77167">
        <ele>1289.6</ele>
        <time>2026-05-13T14:54:10Z</time>
      </trkpt>
      <trkpt lat="45.91077" lon="5.77166">
        <ele>1289.8</ele>
        <time>2026-05-13T14:54:11Z</time>
      </trkpt>
      <trkpt lat="45.91078" lon="5.77165">
        <ele>1289.8</ele>
        <time>2026-05-13T14:54:12Z</time>
      </trkpt>
      <trkpt lat="45.91079" lon="5.77164">
        <ele>1289.8</ele>
        <time>2026-05-13T14:54:13Z</time>
      </trkpt>
      <trkpt lat="45.91081" lon="5.77163">
        <ele>1290.2</ele>
        <time>2026-05-13T14:54:14Z</time>
      </trkpt>
      <trkpt lat="45.91083" lon="5.77162">
        <ele>1290.4</ele>
        <time>2026-05-13T14:54:15Z</time>
      </trkpt>
      <trkpt lat="45.91084" lon="5.77161">
        <ele>1290.6</ele>
        <time>2026-05-13T14:54:16Z</time>
      </trkpt>
      <trkpt lat="45.91085" lon="5.7716">
        <ele>1290.6</ele>
        <time>2026-05-13T14:54:17Z</time>
      </trkpt>
      <trkpt lat="45.91087" lon="5.77158">
        <ele>1291</ele>
        <time>2026-05-13T14:54:18Z</time>
      </trkpt>
      <trkpt lat="45.91088" lon="5.77156">
        <ele>1291</ele>
        <time>2026-05-13T14:54:19Z</time>
      </trkpt>
      <trkpt lat="45.91089" lon="5.77154">
        <ele>1291</ele>
        <time>2026-05-13T14:54:20Z</time>
      </trkpt>
      <trkpt lat="45.91091" lon="5.77153">
        <ele>1291</ele>
        <time>2026-05-13T14:54:21Z</time>
      </trkpt>
      <trkpt lat="45.91092" lon="5.77151">
        <ele>1291.4</ele>
        <time>2026-05-13T14:54:22Z</time>
      </trkpt>
      <trkpt lat="45.91094" lon="5.77149">
        <ele>1291.4</ele>
        <time>2026-05-13T14:54:23Z</time>
      </trkpt>
      <trkpt lat="45.91095" lon="5.77148">
        <ele>1291.4</ele>
        <time>2026-05-13T14:54:24Z</time>
      </trkpt>
      <trkpt lat="45.91097" lon="5.77147">
        <ele>1291.4</ele>
        <time>2026-05-13T14:54:25Z</time>
      </trkpt>
      <trkpt lat="45.91099" lon="5.77146">
        <ele>1291.4</ele>
        <time>2026-05-13T14:54:26Z</time>
      </trkpt>
      <trkpt lat="45.911" lon="5.77146">
        <ele>1291.4</ele>
        <time>2026-05-13T14:54:27Z</time>
      </trkpt>
      <trkpt lat="45.91101" lon="5.77144">
        <ele>1291.6</ele>
        <time>2026-05-13T14:54:28Z</time>
      </trkpt>
      <trkpt lat="45.91103" lon="5.77143">
        <ele>1291.6</ele>
        <time>2026-05-13T14:54:29Z</time>
      </trkpt>
      <trkpt lat="45.91104" lon="5.77143">
        <ele>1291.6</ele>
        <time>2026-05-13T14:54:30Z</time>
      </trkpt>
      <trkpt lat="45.91106" lon="5.77142">
        <ele>1292</ele>
        <time>2026-05-13T14:54:31Z</time>
      </trkpt>
      <trkpt lat="45.91107" lon="5.77142">
        <ele>1292</ele>
        <time>2026-05-13T14:54:32Z</time>
      </trkpt>
      <trkpt lat="45.91108" lon="5.77141">
        <ele>1292.2</ele>
        <time>2026-05-13T14:54:33Z</time>
      </trkpt>
      <trkpt lat="45.91109" lon="5.77139">
        <ele>1292.6</ele>
        <time>2026-05-13T14:54:34Z</time>
      </trkpt>
      <trkpt lat="45.91109" lon="5.77138">
        <ele>1293</ele>
        <time>2026-05-13T14:54:35Z</time>
      </trkpt>
      <trkpt lat="45.9111" lon="5.77136">
        <ele>1293</ele>
        <time>2026-05-13T14:54:36Z</time>
      </trkpt>
      <trkpt lat="45.91111" lon="5.77134">
        <ele>1293.2</ele>
        <time>2026-05-13T14:54:37Z</time>
      </trkpt>
      <trkpt lat="45.91112" lon="5.77133">
        <ele>1293.2</ele>
        <time>2026-05-13T14:54:38Z</time>
      </trkpt>
      <trkpt lat="45.91113" lon="5.77132">
        <ele>1293.2</ele>
        <time>2026-05-13T14:54:39Z</time>
      </trkpt>
      <trkpt lat="45.91114" lon="5.7713">
        <ele>1293.4</ele>
        <time>2026-05-13T14:54:40Z</time>
      </trkpt>
      <trkpt lat="45.91115" lon="5.77129">
        <ele>1293.4</ele>
        <time>2026-05-13T14:54:41Z</time>
      </trkpt>
      <trkpt lat="45.91116" lon="5.77127">
        <ele>1293.8</ele>
        <time>2026-05-13T14:54:42Z</time>
      </trkpt>
      <trkpt lat="45.91117" lon="5.77126">
        <ele>1293.8</ele>
        <time>2026-05-13T14:54:43Z</time>
      </trkpt>
      <trkpt lat="45.91118" lon="5.77125">
        <ele>1294</ele>
        <time>2026-05-13T14:54:44Z</time>
      </trkpt>
      <trkpt lat="45.91119" lon="5.77123">
        <ele>1294.2</ele>
        <time>2026-05-13T14:54:45Z</time>
      </trkpt>
      <trkpt lat="45.9112" lon="5.77122">
        <ele>1294.4</ele>
        <time>2026-05-13T14:54:46Z</time>
      </trkpt>
      <trkpt lat="45.91122" lon="5.77121">
        <ele>1294.4</ele>
        <time>2026-05-13T14:54:47Z</time>
      </trkpt>
      <trkpt lat="45.91124" lon="5.77118">
        <ele>1294.4</ele>
        <time>2026-05-13T14:54:48Z</time>
      </trkpt>
      <trkpt lat="45.91125" lon="5.77115">
        <ele>1294.8</ele>
        <time>2026-05-13T14:54:49Z</time>
      </trkpt>
      <trkpt lat="45.91125" lon="5.77113">
        <ele>1294.8</ele>
        <time>2026-05-13T14:54:50Z</time>
      </trkpt>
      <trkpt lat="45.91126" lon="5.77111">
        <ele>1295</ele>
        <time>2026-05-13T14:54:51Z</time>
      </trkpt>
      <trkpt lat="45.91127" lon="5.7711">
        <ele>1295</ele>
        <time>2026-05-13T14:54:52Z</time>
      </trkpt>
      <trkpt lat="45.91128" lon="5.77109">
        <ele>1295.2</ele>
        <time>2026-05-13T14:54:53Z</time>
      </trkpt>
      <trkpt lat="45.91129" lon="5.77107">
        <ele>1295.6</ele>
        <time>2026-05-13T14:54:54Z</time>
      </trkpt>
      <trkpt lat="45.9113" lon="5.77105">
        <ele>1295.6</ele>
        <time>2026-05-13T14:54:55Z</time>
      </trkpt>
      <trkpt lat="45.91132" lon="5.77104">
        <ele>1295.6</ele>
        <time>2026-05-13T14:54:56Z</time>
      </trkpt>
      <trkpt lat="45.91134" lon="5.77102">
        <ele>1295.6</ele>
        <time>2026-05-13T14:54:57Z</time>
      </trkpt>
      <trkpt lat="45.91135" lon="5.77101">
        <ele>1295.6</ele>
        <time>2026-05-13T14:54:58Z</time>
      </trkpt>
      <trkpt lat="45.91136" lon="5.771">
        <ele>1296</ele>
        <time>2026-05-13T14:54:59Z</time>
      </trkpt>
      <trkpt lat="45.91137" lon="5.77099">
        <ele>1296.2</ele>
        <time>2026-05-13T14:55:00Z</time>
      </trkpt>
      <trkpt lat="45.91139" lon="5.77097">
        <ele>1296.6</ele>
        <time>2026-05-13T14:55:01Z</time>
      </trkpt>
      <trkpt lat="45.9114" lon="5.77095">
        <ele>1296.8</ele>
        <time>2026-05-13T14:55:02Z</time>
      </trkpt>
      <trkpt lat="45.91141" lon="5.77093">
        <ele>1296.8</ele>
        <time>2026-05-13T14:55:03Z</time>
      </trkpt>
      <trkpt lat="45.91142" lon="5.77091">
        <ele>1297</ele>
        <time>2026-05-13T14:55:04Z</time>
      </trkpt>
      <trkpt lat="45.91143" lon="5.77089">
        <ele>1297</ele>
        <time>2026-05-13T14:55:05Z</time>
      </trkpt>
      <trkpt lat="45.91144" lon="5.77088">
        <ele>1297.4</ele>
        <time>2026-05-13T14:55:06Z</time>
      </trkpt>
      <trkpt lat="45.91145" lon="5.77087">
        <ele>1297.4</ele>
        <time>2026-05-13T14:55:07Z</time>
      </trkpt>
      <trkpt lat="45.91147" lon="5.77086">
        <ele>1297.6</ele>
        <time>2026-05-13T14:55:08Z</time>
      </trkpt>
      <trkpt lat="45.91148" lon="5.77084">
        <ele>1297.6</ele>
        <time>2026-05-13T14:55:09Z</time>
      </trkpt>
      <trkpt lat="45.91149" lon="5.77083">
        <ele>1297.8</ele>
        <time>2026-05-13T14:55:10Z</time>
      </trkpt>
      <trkpt lat="45.9115" lon="5.77082">
        <ele>1298</ele>
        <time>2026-05-13T14:55:11Z</time>
      </trkpt>
      <trkpt lat="45.91151" lon="5.77081">
        <ele>1298</ele>
        <time>2026-05-13T14:55:12Z</time>
      </trkpt>
      <trkpt lat="45.91151" lon="5.7708">
        <ele>1298.2</ele>
        <time>2026-05-13T14:55:13Z</time>
      </trkpt>
      <trkpt lat="45.91152" lon="5.77079">
        <ele>1298.2</ele>
        <time>2026-05-13T14:55:14Z</time>
      </trkpt>
      <trkpt lat="45.91152" lon="5.77077">
        <ele>1298.6</ele>
        <time>2026-05-13T14:55:15Z</time>
      </trkpt>
      <trkpt lat="45.91153" lon="5.77075">
        <ele>1298.6</ele>
        <time>2026-05-13T14:55:16Z</time>
      </trkpt>
      <trkpt lat="45.91153" lon="5.77074">
        <ele>1298.6</ele>
        <time>2026-05-13T14:55:17Z</time>
      </trkpt>
      <trkpt lat="45.91153" lon="5.77072">
        <ele>1298.8</ele>
        <time>2026-05-13T14:55:18Z</time>
      </trkpt>
      <trkpt lat="45.91154" lon="5.77069">
        <ele>1298.8</ele>
        <time>2026-05-13T14:55:19Z</time>
      </trkpt>
      <trkpt lat="45.91156" lon="5.77069">
        <ele>1299.2</ele>
        <time>2026-05-13T14:55:20Z</time>
      </trkpt>
      <trkpt lat="45.91158" lon="5.77069">
        <ele>1299.2</ele>
        <time>2026-05-13T14:55:21Z</time>
      </trkpt>
      <trkpt lat="45.9116" lon="5.77069">
        <ele>1299.2</ele>
        <time>2026-05-13T14:55:22Z</time>
      </trkpt>
      <trkpt lat="45.91161" lon="5.77069">
        <ele>1299.4</ele>
        <time>2026-05-13T14:55:23Z</time>
      </trkpt>
      <trkpt lat="45.91163" lon="5.77068">
        <ele>1299.4</ele>
        <time>2026-05-13T14:55:24Z</time>
      </trkpt>
      <trkpt lat="45.91164" lon="5.77068">
        <ele>1299.4</ele>
        <time>2026-05-13T14:55:25Z</time>
      </trkpt>
      <trkpt lat="45.91166" lon="5.77067">
        <ele>1299.8</ele>
        <time>2026-05-13T14:55:26Z</time>
      </trkpt>
      <trkpt lat="45.91167" lon="5.77067">
        <ele>1300</ele>
        <time>2026-05-13T14:55:27Z</time>
      </trkpt>
      <trkpt lat="45.91168" lon="5.77066">
        <ele>1300</ele>
        <time>2026-05-13T14:55:28Z</time>
      </trkpt>
      <trkpt lat="45.9117" lon="5.77065">
        <ele>1300</ele>
        <time>2026-05-13T14:55:29Z</time>
      </trkpt>
      <trkpt lat="45.91173" lon="5.77065">
        <ele>1300</ele>
        <time>2026-05-13T14:55:30Z</time>
      </trkpt>
      <trkpt lat="45.91175" lon="5.77065">
        <ele>1300.4</ele>
        <time>2026-05-13T14:55:31Z</time>
      </trkpt>
      <trkpt lat="45.91176" lon="5.77065">
        <ele>1300.4</ele>
        <time>2026-05-13T14:55:32Z</time>
      </trkpt>
      <trkpt lat="45.91177" lon="5.77065">
        <ele>1300.6</ele>
        <time>2026-05-13T14:55:33Z</time>
      </trkpt>
      <trkpt lat="45.91179" lon="5.77065">
        <ele>1300.6</ele>
        <time>2026-05-13T14:55:34Z</time>
      </trkpt>
      <trkpt lat="45.9118" lon="5.77065">
        <ele>1300.6</ele>
        <time>2026-05-13T14:55:35Z</time>
      </trkpt>
      <trkpt lat="45.91182" lon="5.77066">
        <ele>1301</ele>
        <time>2026-05-13T14:55:36Z</time>
      </trkpt>
      <trkpt lat="45.91183" lon="5.77067">
        <ele>1301</ele>
        <time>2026-05-13T14:55:37Z</time>
      </trkpt>
      <trkpt lat="45.91184" lon="5.77067">
        <ele>1301.2</ele>
        <time>2026-05-13T14:55:38Z</time>
      </trkpt>
      <trkpt lat="45.91185" lon="5.77068">
        <ele>1301.6</ele>
        <time>2026-05-13T14:55:39Z</time>
      </trkpt>
      <trkpt lat="45.91187" lon="5.77069">
        <ele>1301.6</ele>
        <time>2026-05-13T14:55:40Z</time>
      </trkpt>
      <trkpt lat="45.91189" lon="5.7707">
        <ele>1301.6</ele>
        <time>2026-05-13T14:55:41Z</time>
      </trkpt>
      <trkpt lat="45.91189" lon="5.7707">
        <ele>1301.8</ele>
        <time>2026-05-13T14:55:42Z</time>
      </trkpt>
      <trkpt lat="45.9119" lon="5.7707">
        <ele>1302</ele>
        <time>2026-05-13T14:55:43Z</time>
      </trkpt>
      <trkpt lat="45.91192" lon="5.77071">
        <ele>1302.4</ele>
        <time>2026-05-13T14:55:44Z</time>
      </trkpt>
      <trkpt lat="45.91193" lon="5.77072">
        <ele>1302.6</ele>
        <time>2026-05-13T14:55:45Z</time>
      </trkpt>
      <trkpt lat="45.91194" lon="5.77072">
        <ele>1302.6</ele>
        <time>2026-05-13T14:55:46Z</time>
      </trkpt>
      <trkpt lat="45.91195" lon="5.77072">
        <ele>1302.8</ele>
        <time>2026-05-13T14:55:47Z</time>
      </trkpt>
      <trkpt lat="45.91197" lon="5.77073">
        <ele>1302.8</ele>
        <time>2026-05-13T14:55:48Z</time>
      </trkpt>
      <trkpt lat="45.912" lon="5.77074">
        <ele>1302.8</ele>
        <time>2026-05-13T14:55:49Z</time>
      </trkpt>
      <trkpt lat="45.91201" lon="5.77075">
        <ele>1302.8</ele>
        <time>2026-05-13T14:55:50Z</time>
      </trkpt>
      <trkpt lat="45.91203" lon="5.77076">
        <ele>1302.8</ele>
        <time>2026-05-13T14:55:51Z</time>
      </trkpt>
      <trkpt lat="45.91205" lon="5.77078">
        <ele>1302.8</ele>
        <time>2026-05-13T14:55:52Z</time>
      </trkpt>
      <trkpt lat="45.91207" lon="5.77079">
        <ele>1303</ele>
        <time>2026-05-13T14:55:53Z</time>
      </trkpt>
      <trkpt lat="45.91209" lon="5.7708">
        <ele>1303.4</ele>
        <time>2026-05-13T14:55:54Z</time>
      </trkpt>
      <trkpt lat="45.91212" lon="5.77081">
        <ele>1303.6</ele>
        <time>2026-05-13T14:55:55Z</time>
      </trkpt>
      <trkpt lat="45.91213" lon="5.77082">
        <ele>1303.6</ele>
        <time>2026-05-13T14:55:56Z</time>
      </trkpt>
      <trkpt lat="45.91215" lon="5.77084">
        <ele>1303.6</ele>
        <time>2026-05-13T14:55:57Z</time>
      </trkpt>
      <trkpt lat="45.91217" lon="5.77084">
        <ele>1303.6</ele>
        <time>2026-05-13T14:55:58Z</time>
      </trkpt>
      <trkpt lat="45.91219" lon="5.77085">
        <ele>1303.6</ele>
        <time>2026-05-13T14:55:59Z</time>
      </trkpt>
      <trkpt lat="45.91221" lon="5.77086">
        <ele>1303.6</ele>
        <time>2026-05-13T14:56:00Z</time>
      </trkpt>
      <trkpt lat="45.91222" lon="5.77087">
        <ele>1303.8</ele>
        <time>2026-05-13T14:56:01Z</time>
      </trkpt>
      <trkpt lat="45.91224" lon="5.77087">
        <ele>1303.8</ele>
        <time>2026-05-13T14:56:02Z</time>
      </trkpt>
      <trkpt lat="45.91225" lon="5.77088">
        <ele>1304.2</ele>
        <time>2026-05-13T14:56:03Z</time>
      </trkpt>
      <trkpt lat="45.91227" lon="5.77089">
        <ele>1304.4</ele>
        <time>2026-05-13T14:56:04Z</time>
      </trkpt>
      <trkpt lat="45.91228" lon="5.77089">
        <ele>1304.8</ele>
        <time>2026-05-13T14:56:05Z</time>
      </trkpt>
      <trkpt lat="45.9123" lon="5.7709">
        <ele>1304.8</ele>
        <time>2026-05-13T14:56:06Z</time>
      </trkpt>
      <trkpt lat="45.91232" lon="5.7709">
        <ele>1304.8</ele>
        <time>2026-05-13T14:56:07Z</time>
      </trkpt>
      <trkpt lat="45.91234" lon="5.77091">
        <ele>1304.8</ele>
        <time>2026-05-13T14:56:08Z</time>
      </trkpt>
      <trkpt lat="45.91235" lon="5.77091">
        <ele>1305</ele>
        <time>2026-05-13T14:56:09Z</time>
      </trkpt>
      <trkpt lat="45.91237" lon="5.77092">
        <ele>1305</ele>
        <time>2026-05-13T14:56:10Z</time>
      </trkpt>
      <trkpt lat="45.91238" lon="5.77091">
        <ele>1305</ele>
        <time>2026-05-13T14:56:11Z</time>
      </trkpt>
      <trkpt lat="45.9124" lon="5.7709">
        <ele>1305</ele>
        <time>2026-05-13T14:56:12Z</time>
      </trkpt>
      <trkpt lat="45.91241" lon="5.7709">
        <ele>1305</ele>
        <time>2026-05-13T14:56:13Z</time>
      </trkpt>
      <trkpt lat="45.91243" lon="5.7709">
        <ele>1305</ele>
        <time>2026-05-13T14:56:14Z</time>
      </trkpt>
      <trkpt lat="45.91244" lon="5.77091">
        <ele>1305.4</ele>
        <time>2026-05-13T14:56:15Z</time>
      </trkpt>
      <trkpt lat="45.91245" lon="5.77092">
        <ele>1305.4</ele>
        <time>2026-05-13T14:56:16Z</time>
      </trkpt>
      <trkpt lat="45.91246" lon="5.77093">
        <ele>1305.4</ele>
        <time>2026-05-13T14:56:17Z</time>
      </trkpt>
      <trkpt lat="45.91247" lon="5.77093">
        <ele>1305.4</ele>
        <time>2026-05-13T14:56:18Z</time>
      </trkpt>
      <trkpt lat="45.91247" lon="5.77094">
        <ele>1305.4</ele>
        <time>2026-05-13T14:56:19Z</time>
      </trkpt>
      <trkpt lat="45.91247" lon="5.77094">
        <ele>1305.2</ele>
        <time>2026-05-13T14:56:20Z</time>
      </trkpt>
      <trkpt lat="45.91247" lon="5.77095">
        <ele>1305.2</ele>
        <time>2026-05-13T14:56:27Z</time>
      </trkpt>
      <trkpt lat="45.91248" lon="5.77095">
        <ele>1305.2</ele>
        <time>2026-05-13T14:56:28Z</time>
      </trkpt>
      <trkpt lat="45.91248" lon="5.77096">
        <ele>1305.2</ele>
        <time>2026-05-13T14:56:29Z</time>
      </trkpt>
      <trkpt lat="45.91249" lon="5.77099">
        <ele>1305.2</ele>
        <time>2026-05-13T14:56:38Z</time>
      </trkpt>
      <trkpt lat="45.91249" lon="5.77099">
        <ele>1305.2</ele>
        <time>2026-05-13T14:56:39Z</time>
      </trkpt>
      <trkpt lat="45.91249" lon="5.77101">
        <ele>1305.2</ele>
        <time>2026-05-13T14:56:40Z</time>
      </trkpt>
      <trkpt lat="45.91249" lon="5.77102">
        <ele>1305.2</ele>
        <time>2026-05-13T14:56:41Z</time>
      </trkpt>
      <trkpt lat="45.91249" lon="5.77102">
        <ele>1305.2</ele>
        <time>2026-05-13T14:56:42Z</time>
      </trkpt>
      <trkpt lat="45.91249" lon="5.77102">
        <ele>1305.2</ele>
        <time>2026-05-13T14:56:43Z</time>
      </trkpt>
      <trkpt lat="45.91247" lon="5.77096">
        <ele>1306.8</ele>
        <time>2026-05-13T15:04:25Z</time>
      </trkpt>
      <trkpt lat="45.91247" lon="5.77096">
        <ele>1306.6</ele>
        <time>2026-05-13T15:04:26Z</time>
      </trkpt>
      <trkpt lat="45.91247" lon="5.77096">
        <ele>1306.6</ele>
        <time>2026-05-13T15:04:27Z</time>
      </trkpt>
      <trkpt lat="45.91252" lon="5.77096">
        <ele>1306.4</ele>
        <time>2026-05-13T15:04:29Z</time>
      </trkpt>
      <trkpt lat="45.91253" lon="5.77096">
        <ele>1306.4</ele>
        <time>2026-05-13T15:04:30Z</time>
      </trkpt>
      <trkpt lat="45.91253" lon="5.77097">
        <ele>1306.4</ele>
        <time>2026-05-13T15:04:31Z</time>
      </trkpt>
      <trkpt lat="45.91254" lon="5.77097">
        <ele>1306.2</ele>
        <time>2026-05-13T15:04:32Z</time>
      </trkpt>
      <trkpt lat="45.91254" lon="5.77098">
        <ele>1306.2</ele>
        <time>2026-05-13T15:04:33Z</time>
      </trkpt>
      <trkpt lat="45.91254" lon="5.77099">
        <ele>1305.6</ele>
        <time>2026-05-13T15:05:42Z</time>
      </trkpt>
      <trkpt lat="45.91254" lon="5.771">
        <ele>1305.8</ele>
        <time>2026-05-13T15:05:43Z</time>
      </trkpt>
      <trkpt lat="45.91255" lon="5.771">
        <ele>1305.8</ele>
        <time>2026-05-13T15:05:44Z</time>
      </trkpt>
      <trkpt lat="45.91255" lon="5.77099">
        <ele>1305.8</ele>
        <time>2026-05-13T15:05:45Z</time>
      </trkpt>
      <trkpt lat="45.91256" lon="5.77101">
        <ele>1305.6</ele>
        <time>2026-05-13T15:06:52Z</time>
      </trkpt>
      <trkpt lat="45.91257" lon="5.77102">
        <ele>1305.6</ele>
        <time>2026-05-13T15:06:53Z</time>
      </trkpt>
      <trkpt lat="45.91258" lon="5.77103">
        <ele>1305.6</ele>
        <time>2026-05-13T15:06:54Z</time>
      </trkpt>
      <trkpt lat="45.9126" lon="5.77104">
        <ele>1305.6</ele>
        <time>2026-05-13T15:06:55Z</time>
      </trkpt>
      <trkpt lat="45.91261" lon="5.77104">
        <ele>1305.4</ele>
        <time>2026-05-13T15:06:56Z</time>
      </trkpt>
      <trkpt lat="45.91262" lon="5.77104">
        <ele>1305.4</ele>
        <time>2026-05-13T15:06:57Z</time>
      </trkpt>
      <trkpt lat="45.91263" lon="5.77104">
        <ele>1305.4</ele>
        <time>2026-05-13T15:06:58Z</time>
      </trkpt>
      <trkpt lat="45.91264" lon="5.77105">
        <ele>1305.2</ele>
        <time>2026-05-13T15:06:59Z</time>
      </trkpt>
      <trkpt lat="45.91265" lon="5.77105">
        <ele>1305.2</ele>
        <time>2026-05-13T15:07:00Z</time>
      </trkpt>
      <trkpt lat="45.91266" lon="5.77106">
        <ele>1305.2</ele>
        <time>2026-05-13T15:07:01Z</time>
      </trkpt>
      <trkpt lat="45.91266" lon="5.77107">
        <ele>1305</ele>
        <time>2026-05-13T15:07:02Z</time>
      </trkpt>
      <trkpt lat="45.91266" lon="5.77107">
        <ele>1305</ele>
        <time>2026-05-13T15:07:03Z</time>
      </trkpt>
      <trkpt lat="45.91267" lon="5.77108">
        <ele>1305</ele>
        <time>2026-05-13T15:07:04Z</time>
      </trkpt>
      <trkpt lat="45.91268" lon="5.77108">
        <ele>1305</ele>
        <time>2026-05-13T15:07:05Z</time>
      </trkpt>
      <trkpt lat="45.91269" lon="5.77108">
        <ele>1304.6</ele>
        <time>2026-05-13T15:07:06Z</time>
      </trkpt>
      <trkpt lat="45.9127" lon="5.77109">
        <ele>1304.6</ele>
        <time>2026-05-13T15:07:07Z</time>
      </trkpt>
      <trkpt lat="45.91272" lon="5.7711">
        <ele>1304.4</ele>
        <time>2026-05-13T15:07:08Z</time>
      </trkpt>
      <trkpt lat="45.91273" lon="5.77111">
        <ele>1304.2</ele>
        <time>2026-05-13T15:07:09Z</time>
      </trkpt>
      <trkpt lat="45.91274" lon="5.77111">
        <ele>1304.2</ele>
        <time>2026-05-13T15:07:10Z</time>
      </trkpt>
      <trkpt lat="45.91275" lon="5.77111">
        <ele>1304.2</ele>
        <time>2026-05-13T15:07:11Z</time>
      </trkpt>
      <trkpt lat="45.91275" lon="5.77111">
        <ele>1304.2</ele>
        <time>2026-05-13T15:07:12Z</time>
      </trkpt>
      <trkpt lat="45.91276" lon="5.77111">
        <ele>1304</ele>
        <time>2026-05-13T15:07:20Z</time>
      </trkpt>
      <trkpt lat="45.91278" lon="5.77112">
        <ele>1304</ele>
        <time>2026-05-13T15:07:21Z</time>
      </trkpt>
      <trkpt lat="45.9128" lon="5.77113">
        <ele>1304</ele>
        <time>2026-05-13T15:07:22Z</time>
      </trkpt>
      <trkpt lat="45.91282" lon="5.77114">
        <ele>1303.8</ele>
        <time>2026-05-13T15:07:23Z</time>
      </trkpt>
      <trkpt lat="45.91284" lon="5.77115">
        <ele>1303.6</ele>
        <time>2026-05-13T15:07:24Z</time>
      </trkpt>
      <trkpt lat="45.91287" lon="5.77117">
        <ele>1303.6</ele>
        <time>2026-05-13T15:07:25Z</time>
      </trkpt>
      <trkpt lat="45.91289" lon="5.77119">
        <ele>1303.6</ele>
        <time>2026-05-13T15:07:26Z</time>
      </trkpt>
      <trkpt lat="45.91292" lon="5.77121">
        <ele>1303.8</ele>
        <time>2026-05-13T15:07:27Z</time>
      </trkpt>
      <trkpt lat="45.91295" lon="5.77122">
        <ele>1303.8</ele>
        <time>2026-05-13T15:07:28Z</time>
      </trkpt>
      <trkpt lat="45.91298" lon="5.77124">
        <ele>1303.2</ele>
        <time>2026-05-13T15:07:29Z</time>
      </trkpt>
      <trkpt lat="45.91302" lon="5.77126">
        <ele>1303</ele>
        <time>2026-05-13T15:07:30Z</time>
      </trkpt>
      <trkpt lat="45.91305" lon="5.77128">
        <ele>1303.4</ele>
        <time>2026-05-13T15:07:31Z</time>
      </trkpt>
      <trkpt lat="45.91308" lon="5.7713">
        <ele>1303</ele>
        <time>2026-05-13T15:07:32Z</time>
      </trkpt>
      <trkpt lat="45.91312" lon="5.77131">
        <ele>1303</ele>
        <time>2026-05-13T15:07:33Z</time>
      </trkpt>
      <trkpt lat="45.91317" lon="5.77132">
        <ele>1303</ele>
        <time>2026-05-13T15:07:34Z</time>
      </trkpt>
      <trkpt lat="45.9132" lon="5.77131">
        <ele>1302.8</ele>
        <time>2026-05-13T15:07:35Z</time>
      </trkpt>
      <trkpt lat="45.91326" lon="5.77131">
        <ele>1302.8</ele>
        <time>2026-05-13T15:07:36Z</time>
      </trkpt>
      <trkpt lat="45.91331" lon="5.7713">
        <ele>1303</ele>
        <time>2026-05-13T15:07:37Z</time>
      </trkpt>
      <trkpt lat="45.91335" lon="5.77128">
        <ele>1302.6</ele>
        <time>2026-05-13T15:07:38Z</time>
      </trkpt>
      <trkpt lat="45.91339" lon="5.77125">
        <ele>1302.6</ele>
        <time>2026-05-13T15:07:39Z</time>
      </trkpt>
      <trkpt lat="45.91343" lon="5.77122">
        <ele>1302.4</ele>
        <time>2026-05-13T15:07:40Z</time>
      </trkpt>
      <trkpt lat="45.91348" lon="5.77121">
        <ele>1302.2</ele>
        <time>2026-05-13T15:07:41Z</time>
      </trkpt>
      <trkpt lat="45.91352" lon="5.7712">
        <ele>1302.4</ele>
        <time>2026-05-13T15:07:42Z</time>
      </trkpt>
      <trkpt lat="45.91357" lon="5.77122">
        <ele>1302</ele>
        <time>2026-05-13T15:07:43Z</time>
      </trkpt>
      <trkpt lat="45.91361" lon="5.77124">
        <ele>1301.8</ele>
        <time>2026-05-13T15:07:44Z</time>
      </trkpt>
      <trkpt lat="45.91362" lon="5.77126">
        <ele>1301.8</ele>
        <time>2026-05-13T15:07:45Z</time>
      </trkpt>
      <trkpt lat="45.91366" lon="5.77128">
        <ele>1300.8</ele>
        <time>2026-05-13T15:07:46Z</time>
      </trkpt>
      <trkpt lat="45.9137" lon="5.7713">
        <ele>1300.2</ele>
        <time>2026-05-13T15:07:47Z</time>
      </trkpt>
      <trkpt lat="45.91374" lon="5.77134">
        <ele>1299.8</ele>
        <time>2026-05-13T15:07:48Z</time>
      </trkpt>
      <trkpt lat="45.91379" lon="5.77136">
        <ele>1298.4</ele>
        <time>2026-05-13T15:07:49Z</time>
      </trkpt>
      <trkpt lat="45.91386" lon="5.77144">
        <ele>1297.6</ele>
        <time>2026-05-13T15:07:50Z</time>
      </trkpt>
      <trkpt lat="45.91392" lon="5.77147">
        <ele>1297</ele>
        <time>2026-05-13T15:07:51Z</time>
      </trkpt>
      <trkpt lat="45.91397" lon="5.77152">
        <ele>1297.6</ele>
        <time>2026-05-13T15:07:52Z</time>
      </trkpt>
      <trkpt lat="45.91406" lon="5.77161">
        <ele>1296.6</ele>
        <time>2026-05-13T15:07:53Z</time>
      </trkpt>
      <trkpt lat="45.91411" lon="5.77167">
        <ele>1296.2</ele>
        <time>2026-05-13T15:07:54Z</time>
      </trkpt>
      <trkpt lat="45.91416" lon="5.77172">
        <ele>1295.6</ele>
        <time>2026-05-13T15:07:55Z</time>
      </trkpt>
      <trkpt lat="45.9142" lon="5.77179">
        <ele>1295</ele>
        <time>2026-05-13T15:07:56Z</time>
      </trkpt>
      <trkpt lat="45.91423" lon="5.77186">
        <ele>1295</ele>
        <time>2026-05-13T15:07:57Z</time>
      </trkpt>
      <trkpt lat="45.91424" lon="5.77195">
        <ele>1294.8</ele>
        <time>2026-05-13T15:07:58Z</time>
      </trkpt>
      <trkpt lat="45.91429" lon="5.77205">
        <ele>1294</ele>
        <time>2026-05-13T15:07:59Z</time>
      </trkpt>
      <trkpt lat="45.9143" lon="5.77213">
        <ele>1293.4</ele>
        <time>2026-05-13T15:08:00Z</time>
      </trkpt>
      <trkpt lat="45.91434" lon="5.7722">
        <ele>1291.8</ele>
        <time>2026-05-13T15:08:01Z</time>
      </trkpt>
      <trkpt lat="45.91438" lon="5.77226">
        <ele>1292.2</ele>
        <time>2026-05-13T15:08:02Z</time>
      </trkpt>
      <trkpt lat="45.91443" lon="5.77234">
        <ele>1292</ele>
        <time>2026-05-13T15:08:03Z</time>
      </trkpt>
      <trkpt lat="45.91447" lon="5.77238">
        <ele>1291.4</ele>
        <time>2026-05-13T15:08:04Z</time>
      </trkpt>
      <trkpt lat="45.9145" lon="5.77239">
        <ele>1291</ele>
        <time>2026-05-13T15:08:05Z</time>
      </trkpt>
      <trkpt lat="45.91454" lon="5.77242">
        <ele>1291</ele>
        <time>2026-05-13T15:08:06Z</time>
      </trkpt>
      <trkpt lat="45.91457" lon="5.77242">
        <ele>1291</ele>
        <time>2026-05-13T15:08:07Z</time>
      </trkpt>
      <trkpt lat="45.91461" lon="5.77243">
        <ele>1291</ele>
        <time>2026-05-13T15:08:08Z</time>
      </trkpt>
      <trkpt lat="45.91465" lon="5.77242">
        <ele>1291</ele>
        <time>2026-05-13T15:08:09Z</time>
      </trkpt>
      <trkpt lat="45.91469" lon="5.77242">
        <ele>1291.4</ele>
        <time>2026-05-13T15:08:10Z</time>
      </trkpt>
      <trkpt lat="45.91473" lon="5.77241">
        <ele>1291.8</ele>
        <time>2026-05-13T15:08:11Z</time>
      </trkpt>
      <trkpt lat="45.91476" lon="5.7724">
        <ele>1291.8</ele>
        <time>2026-05-13T15:08:12Z</time>
      </trkpt>
      <trkpt lat="45.9148" lon="5.77239">
        <ele>1291.8</ele>
        <time>2026-05-13T15:08:13Z</time>
      </trkpt>
      <trkpt lat="45.91482" lon="5.77237">
        <ele>1291.8</ele>
        <time>2026-05-13T15:08:14Z</time>
      </trkpt>
      <trkpt lat="45.91485" lon="5.77237">
        <ele>1292.2</ele>
        <time>2026-05-13T15:08:15Z</time>
      </trkpt>
      <trkpt lat="45.91487" lon="5.77237">
        <ele>1292.2</ele>
        <time>2026-05-13T15:08:16Z</time>
      </trkpt>
      <trkpt lat="45.91489" lon="5.77236">
        <ele>1292.2</ele>
        <time>2026-05-13T15:08:17Z</time>
      </trkpt>
      <trkpt lat="45.9149" lon="5.77234">
        <ele>1292.8</ele>
        <time>2026-05-13T15:08:18Z</time>
      </trkpt>
      <trkpt lat="45.91491" lon="5.77232">
        <ele>1293.2</ele>
        <time>2026-05-13T15:08:19Z</time>
      </trkpt>
      <trkpt lat="45.91493" lon="5.77229">
        <ele>1293.2</ele>
        <time>2026-05-13T15:08:20Z</time>
      </trkpt>
      <trkpt lat="45.91494" lon="5.77227">
        <ele>1293.4</ele>
        <time>2026-05-13T15:08:21Z</time>
      </trkpt>
      <trkpt lat="45.91495" lon="5.77225">
        <ele>1293.8</ele>
        <time>2026-05-13T15:08:22Z</time>
      </trkpt>
      <trkpt lat="45.91497" lon="5.77223">
        <ele>1294.2</ele>
        <time>2026-05-13T15:08:23Z</time>
      </trkpt>
      <trkpt lat="45.91499" lon="5.77222">
        <ele>1294.2</ele>
        <time>2026-05-13T15:08:24Z</time>
      </trkpt>
      <trkpt lat="45.91501" lon="5.77221">
        <ele>1294.2</ele>
        <time>2026-05-13T15:08:25Z</time>
      </trkpt>
      <trkpt lat="45.91503" lon="5.7722">
        <ele>1294.6</ele>
        <time>2026-05-13T15:08:26Z</time>
      </trkpt>
      <trkpt lat="45.91504" lon="5.77219">
        <ele>1295</ele>
        <time>2026-05-13T15:08:27Z</time>
      </trkpt>
      <trkpt lat="45.91506" lon="5.77218">
        <ele>1295.2</ele>
        <time>2026-05-13T15:08:28Z</time>
      </trkpt>
      <trkpt lat="45.91508" lon="5.77216">
        <ele>1295.2</ele>
        <time>2026-05-13T15:08:29Z</time>
      </trkpt>
      <trkpt lat="45.91509" lon="5.77215">
        <ele>1295.6</ele>
        <time>2026-05-13T15:08:30Z</time>
      </trkpt>
      <trkpt lat="45.9151" lon="5.77214">
        <ele>1296</ele>
        <time>2026-05-13T15:08:31Z</time>
      </trkpt>
      <trkpt lat="45.91512" lon="5.77213">
        <ele>1296</ele>
        <time>2026-05-13T15:08:32Z</time>
      </trkpt>
      <trkpt lat="45.91514" lon="5.77212">
        <ele>1296.4</ele>
        <time>2026-05-13T15:08:33Z</time>
      </trkpt>
      <trkpt lat="45.91516" lon="5.77211">
        <ele>1296.4</ele>
        <time>2026-05-13T15:08:34Z</time>
      </trkpt>
      <trkpt lat="45.91517" lon="5.77211">
        <ele>1296.4</ele>
        <time>2026-05-13T15:08:35Z</time>
      </trkpt>
      <trkpt lat="45.91518" lon="5.7721">
        <ele>1296.6</ele>
        <time>2026-05-13T15:08:36Z</time>
      </trkpt>
      <trkpt lat="45.9152" lon="5.7721">
        <ele>1296.6</ele>
        <time>2026-05-13T15:08:37Z</time>
      </trkpt>
      <trkpt lat="45.91521" lon="5.7721">
        <ele>1297</ele>
        <time>2026-05-13T15:08:38Z</time>
      </trkpt>
      <trkpt lat="45.91523" lon="5.7721">
        <ele>1297</ele>
        <time>2026-05-13T15:08:39Z</time>
      </trkpt>
      <trkpt lat="45.91525" lon="5.77209">
        <ele>1297.4</ele>
        <time>2026-05-13T15:08:40Z</time>
      </trkpt>
      <trkpt lat="45.91526" lon="5.77207">
        <ele>1297.4</ele>
        <time>2026-05-13T15:08:41Z</time>
      </trkpt>
      <trkpt lat="45.91528" lon="5.77205">
        <ele>1297.8</ele>
        <time>2026-05-13T15:08:42Z</time>
      </trkpt>
      <trkpt lat="45.91529" lon="5.77203">
        <ele>1297.8</ele>
        <time>2026-05-13T15:08:43Z</time>
      </trkpt>
      <trkpt lat="45.91531" lon="5.77202">
        <ele>1298.4</ele>
        <time>2026-05-13T15:08:44Z</time>
      </trkpt>
      <trkpt lat="45.91532" lon="5.77201">
        <ele>1298.4</ele>
        <time>2026-05-13T15:08:45Z</time>
      </trkpt>
      <trkpt lat="45.91533" lon="5.77199">
        <ele>1298.4</ele>
        <time>2026-05-13T15:08:46Z</time>
      </trkpt>
      <trkpt lat="45.91535" lon="5.77197">
        <ele>1298.4</ele>
        <time>2026-05-13T15:08:47Z</time>
      </trkpt>
      <trkpt lat="45.91536" lon="5.77195">
        <ele>1298.6</ele>
        <time>2026-05-13T15:08:48Z</time>
      </trkpt>
      <trkpt lat="45.91537" lon="5.77194">
        <ele>1298.6</ele>
        <time>2026-05-13T15:08:49Z</time>
      </trkpt>
      <trkpt lat="45.91538" lon="5.77192">
        <ele>1299</ele>
        <time>2026-05-13T15:08:50Z</time>
      </trkpt>
      <trkpt lat="45.91539" lon="5.7719">
        <ele>1299</ele>
        <time>2026-05-13T15:08:51Z</time>
      </trkpt>
      <trkpt lat="45.9154" lon="5.77188">
        <ele>1299.2</ele>
        <time>2026-05-13T15:08:52Z</time>
      </trkpt>
      <trkpt lat="45.9154" lon="5.77186">
        <ele>1299.6</ele>
        <time>2026-05-13T15:08:53Z</time>
      </trkpt>
      <trkpt lat="45.91541" lon="5.77183">
        <ele>1300</ele>
        <time>2026-05-13T15:08:54Z</time>
      </trkpt>
      <trkpt lat="45.91542" lon="5.77182">
        <ele>1300</ele>
        <time>2026-05-13T15:08:55Z</time>
      </trkpt>
      <trkpt lat="45.91543" lon="5.77179">
        <ele>1300.2</ele>
        <time>2026-05-13T15:08:56Z</time>
      </trkpt>
      <trkpt lat="45.91544" lon="5.77177">
        <ele>1300.2</ele>
        <time>2026-05-13T15:08:57Z</time>
      </trkpt>
      <trkpt lat="45.91545" lon="5.77175">
        <ele>1300.2</ele>
        <time>2026-05-13T15:08:58Z</time>
      </trkpt>
      <trkpt lat="45.91546" lon="5.77173">
        <ele>1300.4</ele>
        <time>2026-05-13T15:08:59Z</time>
      </trkpt>
      <trkpt lat="45.91547" lon="5.77171">
        <ele>1300.4</ele>
        <time>2026-05-13T15:09:00Z</time>
      </trkpt>
      <trkpt lat="45.91548" lon="5.77169">
        <ele>1300.8</ele>
        <time>2026-05-13T15:09:01Z</time>
      </trkpt>
      <trkpt lat="45.91549" lon="5.77167">
        <ele>1300.8</ele>
        <time>2026-05-13T15:09:02Z</time>
      </trkpt>
      <trkpt lat="45.91551" lon="5.77165">
        <ele>1301</ele>
        <time>2026-05-13T15:09:03Z</time>
      </trkpt>
      <trkpt lat="45.91552" lon="5.77163">
        <ele>1301</ele>
        <time>2026-05-13T15:09:04Z</time>
      </trkpt>
      <trkpt lat="45.91553" lon="5.77162">
        <ele>1301</ele>
        <time>2026-05-13T15:09:05Z</time>
      </trkpt>
      <trkpt lat="45.91554" lon="5.7716">
        <ele>1301</ele>
        <time>2026-05-13T15:09:06Z</time>
      </trkpt>
      <trkpt lat="45.91556" lon="5.77158">
        <ele>1301</ele>
        <time>2026-05-13T15:09:07Z</time>
      </trkpt>
      <trkpt lat="45.91557" lon="5.77155">
        <ele>1301.4</ele>
        <time>2026-05-13T15:09:08Z</time>
      </trkpt>
      <trkpt lat="45.91558" lon="5.77153">
        <ele>1301.4</ele>
        <time>2026-05-13T15:09:09Z</time>
      </trkpt>
      <trkpt lat="45.91558" lon="5.77153">
        <ele>1301.4</ele>
        <time>2026-05-13T15:09:10Z</time>
      </trkpt>
      <trkpt lat="45.91561" lon="5.77149">
        <ele>1301.6</ele>
        <time>2026-05-13T15:09:11Z</time>
      </trkpt>
      <trkpt lat="45.91562" lon="5.77146">
        <ele>1301.6</ele>
        <time>2026-05-13T15:09:12Z</time>
      </trkpt>
      <trkpt lat="45.91564" lon="5.77143">
        <ele>1301.6</ele>
        <time>2026-05-13T15:09:13Z</time>
      </trkpt>
      <trkpt lat="45.91565" lon="5.7714">
        <ele>1301.2</ele>
        <time>2026-05-13T15:09:14Z</time>
      </trkpt>
      <trkpt lat="45.91566" lon="5.77136">
        <ele>1301.2</ele>
        <time>2026-05-13T15:09:15Z</time>
      </trkpt>
      <trkpt lat="45.91567" lon="5.77132">
        <ele>1301.4</ele>
        <time>2026-05-13T15:09:16Z</time>
      </trkpt>
      <trkpt lat="45.91567" lon="5.77127">
        <ele>1301.4</ele>
        <time>2026-05-13T15:09:17Z</time>
      </trkpt>
      <trkpt lat="45.91568" lon="5.77122">
        <ele>1301.4</ele>
        <time>2026-05-13T15:09:18Z</time>
      </trkpt>
      <trkpt lat="45.91569" lon="5.77117">
        <ele>1301</ele>
        <time>2026-05-13T15:09:19Z</time>
      </trkpt>
      <trkpt lat="45.91572" lon="5.77113">
        <ele>1301</ele>
        <time>2026-05-13T15:09:20Z</time>
      </trkpt>
      <trkpt lat="45.91574" lon="5.77108">
        <ele>1300.6</ele>
        <time>2026-05-13T15:09:21Z</time>
      </trkpt>
      <trkpt lat="45.91577" lon="5.77104">
        <ele>1300.6</ele>
        <time>2026-05-13T15:09:22Z</time>
      </trkpt>
      <trkpt lat="45.91579" lon="5.77101">
        <ele>1300.6</ele>
        <time>2026-05-13T15:09:23Z</time>
      </trkpt>
      <trkpt lat="45.91582" lon="5.77097">
        <ele>1300.4</ele>
        <time>2026-05-13T15:09:24Z</time>
      </trkpt>
      <trkpt lat="45.91585" lon="5.77095">
        <ele>1300.6</ele>
        <time>2026-05-13T15:09:25Z</time>
      </trkpt>
      <trkpt lat="45.91588" lon="5.77092">
        <ele>1300.6</ele>
        <time>2026-05-13T15:09:26Z</time>
      </trkpt>
      <trkpt lat="45.91591" lon="5.7709">
        <ele>1300.4</ele>
        <time>2026-05-13T15:09:27Z</time>
      </trkpt>
      <trkpt lat="45.91595" lon="5.77089">
        <ele>1300.4</ele>
        <time>2026-05-13T15:09:28Z</time>
      </trkpt>
      <trkpt lat="45.91598" lon="5.77087">
        <ele>1300.4</ele>
        <time>2026-05-13T15:09:29Z</time>
      </trkpt>
      <trkpt lat="45.91601" lon="5.77085">
        <ele>1300.4</ele>
        <time>2026-05-13T15:09:30Z</time>
      </trkpt>
      <trkpt lat="45.91605" lon="5.77083">
        <ele>1300.4</ele>
        <time>2026-05-13T15:09:31Z</time>
      </trkpt>
      <trkpt lat="45.91608" lon="5.77081">
        <ele>1300</ele>
        <time>2026-05-13T15:09:32Z</time>
      </trkpt>
      <trkpt lat="45.9161" lon="5.7708">
        <ele>1300</ele>
        <time>2026-05-13T15:09:33Z</time>
      </trkpt>
      <trkpt lat="45.91613" lon="5.77077">
        <ele>1300</ele>
        <time>2026-05-13T15:09:34Z</time>
      </trkpt>
      <trkpt lat="45.91616" lon="5.77075">
        <ele>1300</ele>
        <time>2026-05-13T15:09:35Z</time>
      </trkpt>
      <trkpt lat="45.91619" lon="5.77073">
        <ele>1300</ele>
        <time>2026-05-13T15:09:36Z</time>
      </trkpt>
      <trkpt lat="45.91622" lon="5.77072">
        <ele>1300</ele>
        <time>2026-05-13T15:09:37Z</time>
      </trkpt>
      <trkpt lat="45.91625" lon="5.77071">
        <ele>1300</ele>
        <time>2026-05-13T15:09:38Z</time>
      </trkpt>
      <trkpt lat="45.91629" lon="5.77071">
        <ele>1300.4</ele>
        <time>2026-05-13T15:09:39Z</time>
      </trkpt>
      <trkpt lat="45.91634" lon="5.7707">
        <ele>1300.4</ele>
        <time>2026-05-13T15:09:40Z</time>
      </trkpt>
      <trkpt lat="45.91639" lon="5.77069">
        <ele>1300.4</ele>
        <time>2026-05-13T15:09:41Z</time>
      </trkpt>
      <trkpt lat="45.91642" lon="5.7707">
        <ele>1300.4</ele>
        <time>2026-05-13T15:09:42Z</time>
      </trkpt>
      <trkpt lat="45.91647" lon="5.77071">
        <ele>1300.4</ele>
        <time>2026-05-13T15:09:43Z</time>
      </trkpt>
      <trkpt lat="45.91649" lon="5.77071">
        <ele>1300.4</ele>
        <time>2026-05-13T15:09:44Z</time>
      </trkpt>
      <trkpt lat="45.91652" lon="5.77072">
        <ele>1300.8</ele>
        <time>2026-05-13T15:09:45Z</time>
      </trkpt>
      <trkpt lat="45.91654" lon="5.77075">
        <ele>1301.2</ele>
        <time>2026-05-13T15:09:46Z</time>
      </trkpt>
      <trkpt lat="45.91656" lon="5.77076">
        <ele>1301.2</ele>
        <time>2026-05-13T15:09:47Z</time>
      </trkpt>
      <trkpt lat="45.91659" lon="5.77078">
        <ele>1301.4</ele>
        <time>2026-05-13T15:09:48Z</time>
      </trkpt>
      <trkpt lat="45.91662" lon="5.77081">
        <ele>1301.4</ele>
        <time>2026-05-13T15:09:49Z</time>
      </trkpt>
      <trkpt lat="45.91663" lon="5.77082">
        <ele>1302</ele>
        <time>2026-05-13T15:09:50Z</time>
      </trkpt>
      <trkpt lat="45.91666" lon="5.77085">
        <ele>1302</ele>
        <time>2026-05-13T15:09:51Z</time>
      </trkpt>
      <trkpt lat="45.91669" lon="5.77088">
        <ele>1302</ele>
        <time>2026-05-13T15:09:52Z</time>
      </trkpt>
      <trkpt lat="45.91671" lon="5.77092">
        <ele>1302</ele>
        <time>2026-05-13T15:09:53Z</time>
      </trkpt>
      <trkpt lat="45.91674" lon="5.77096">
        <ele>1302</ele>
        <time>2026-05-13T15:09:54Z</time>
      </trkpt>
      <trkpt lat="45.91677" lon="5.77101">
        <ele>1301.6</ele>
        <time>2026-05-13T15:09:55Z</time>
      </trkpt>
      <trkpt lat="45.91678" lon="5.77105">
        <ele>1301.6</ele>
        <time>2026-05-13T15:09:56Z</time>
      </trkpt>
      <trkpt lat="45.9168" lon="5.7711">
        <ele>1302</ele>
        <time>2026-05-13T15:09:57Z</time>
      </trkpt>
      <trkpt lat="45.91682" lon="5.77116">
        <ele>1302</ele>
        <time>2026-05-13T15:09:58Z</time>
      </trkpt>
      <trkpt lat="45.91682" lon="5.7712">
        <ele>1302</ele>
        <time>2026-05-13T15:09:59Z</time>
      </trkpt>
      <trkpt lat="45.91683" lon="5.77125">
        <ele>1301.8</ele>
        <time>2026-05-13T15:10:00Z</time>
      </trkpt>
      <trkpt lat="45.91684" lon="5.77129">
        <ele>1301.8</ele>
        <time>2026-05-13T15:10:01Z</time>
      </trkpt>
      <trkpt lat="45.91685" lon="5.77133">
        <ele>1301.8</ele>
        <time>2026-05-13T15:10:02Z</time>
      </trkpt>
      <trkpt lat="45.91685" lon="5.77138">
        <ele>1302</ele>
        <time>2026-05-13T15:10:03Z</time>
      </trkpt>
      <trkpt lat="45.91686" lon="5.77143">
        <ele>1301.6</ele>
        <time>2026-05-13T15:10:04Z</time>
      </trkpt>
      <trkpt lat="45.91687" lon="5.77147">
        <ele>1301.8</ele>
        <time>2026-05-13T15:10:05Z</time>
      </trkpt>
      <trkpt lat="45.9169" lon="5.77152">
        <ele>1301.6</ele>
        <time>2026-05-13T15:10:06Z</time>
      </trkpt>
      <trkpt lat="45.91693" lon="5.77156">
        <ele>1301.6</ele>
        <time>2026-05-13T15:10:07Z</time>
      </trkpt>
      <trkpt lat="45.91696" lon="5.7716">
        <ele>1301.4</ele>
        <time>2026-05-13T15:10:08Z</time>
      </trkpt>
      <trkpt lat="45.91699" lon="5.77163">
        <ele>1301.2</ele>
        <time>2026-05-13T15:10:09Z</time>
      </trkpt>
      <trkpt lat="45.91703" lon="5.77165">
        <ele>1301</ele>
        <time>2026-05-13T15:10:10Z</time>
      </trkpt>
      <trkpt lat="45.91709" lon="5.77164">
        <ele>1301.4</ele>
        <time>2026-05-13T15:10:11Z</time>
      </trkpt>
      <trkpt lat="45.91714" lon="5.77164">
        <ele>1301.4</ele>
        <time>2026-05-13T15:10:12Z</time>
      </trkpt>
      <trkpt lat="45.91719" lon="5.77162">
        <ele>1301.2</ele>
        <time>2026-05-13T15:10:13Z</time>
      </trkpt>
      <trkpt lat="45.91725" lon="5.77161">
        <ele>1300.8</ele>
        <time>2026-05-13T15:10:14Z</time>
      </trkpt>
      <trkpt lat="45.9173" lon="5.7716">
        <ele>1300.2</ele>
        <time>2026-05-13T15:10:15Z</time>
      </trkpt>
      <trkpt lat="45.91735" lon="5.77159">
        <ele>1300</ele>
        <time>2026-05-13T15:10:16Z</time>
      </trkpt>
      <trkpt lat="45.91739" lon="5.77159">
        <ele>1300</ele>
        <time>2026-05-13T15:10:17Z</time>
      </trkpt>
      <trkpt lat="45.91743" lon="5.77158">
        <ele>1300.6</ele>
        <time>2026-05-13T15:10:18Z</time>
      </trkpt>
      <trkpt lat="45.91746" lon="5.77156">
        <ele>1301</ele>
        <time>2026-05-13T15:10:19Z</time>
      </trkpt>
      <trkpt lat="45.91749" lon="5.77153">
        <ele>1301.4</ele>
        <time>2026-05-13T15:10:20Z</time>
      </trkpt>
      <trkpt lat="45.91754" lon="5.77151">
        <ele>1301.4</ele>
        <time>2026-05-13T15:10:21Z</time>
      </trkpt>
      <trkpt lat="45.91757" lon="5.77147">
        <ele>1301.4</ele>
        <time>2026-05-13T15:10:22Z</time>
      </trkpt>
      <trkpt lat="45.91763" lon="5.77147">
        <ele>1300.8</ele>
        <time>2026-05-13T15:10:23Z</time>
      </trkpt>
      <trkpt lat="45.91767" lon="5.77146">
        <ele>1300.8</ele>
        <time>2026-05-13T15:10:24Z</time>
      </trkpt>
      <trkpt lat="45.91772" lon="5.77145">
        <ele>1301</ele>
        <time>2026-05-13T15:10:25Z</time>
      </trkpt>
      <trkpt lat="45.91777" lon="5.77143">
        <ele>1300.8</ele>
        <time>2026-05-13T15:10:26Z</time>
      </trkpt>
      <trkpt lat="45.91782" lon="5.7714">
        <ele>1300.4</ele>
        <time>2026-05-13T15:10:27Z</time>
      </trkpt>
      <trkpt lat="45.91787" lon="5.77141">
        <ele>1300</ele>
        <time>2026-05-13T15:10:28Z</time>
      </trkpt>
      <trkpt lat="45.91793" lon="5.77141">
        <ele>1299.4</ele>
        <time>2026-05-13T15:10:29Z</time>
      </trkpt>
      <trkpt lat="45.91799" lon="5.77143">
        <ele>1299.4</ele>
        <time>2026-05-13T15:10:30Z</time>
      </trkpt>
      <trkpt lat="45.91805" lon="5.77146">
        <ele>1298.4</ele>
        <time>2026-05-13T15:10:31Z</time>
      </trkpt>
      <trkpt lat="45.91811" lon="5.77151">
        <ele>1298.4</ele>
        <time>2026-05-13T15:10:32Z</time>
      </trkpt>
      <trkpt lat="45.91817" lon="5.77154">
        <ele>1297.6</ele>
        <time>2026-05-13T15:10:33Z</time>
      </trkpt>
      <trkpt lat="45.91822" lon="5.77158">
        <ele>1297.6</ele>
        <time>2026-05-13T15:10:34Z</time>
      </trkpt>
      <trkpt lat="45.91828" lon="5.77161">
        <ele>1297.8</ele>
        <time>2026-05-13T15:10:35Z</time>
      </trkpt>
      <trkpt lat="45.91833" lon="5.77164">
        <ele>1298</ele>
        <time>2026-05-13T15:10:36Z</time>
      </trkpt>
      <trkpt lat="45.91839" lon="5.77167">
        <ele>1297.2</ele>
        <time>2026-05-13T15:10:37Z</time>
      </trkpt>
      <trkpt lat="45.91844" lon="5.77171">
        <ele>1297.6</ele>
        <time>2026-05-13T15:10:38Z</time>
      </trkpt>
      <trkpt lat="45.91848" lon="5.77177">
        <ele>1297.6</ele>
        <time>2026-05-13T15:10:39Z</time>
      </trkpt>
      <trkpt lat="45.91852" lon="5.77182">
        <ele>1297.6</ele>
        <time>2026-05-13T15:10:40Z</time>
      </trkpt>
      <trkpt lat="45.91855" lon="5.7719">
        <ele>1297.6</ele>
        <time>2026-05-13T15:10:41Z</time>
      </trkpt>
      <trkpt lat="45.91857" lon="5.77198">
        <ele>1297.6</ele>
        <time>2026-05-13T15:10:42Z</time>
      </trkpt>
      <trkpt lat="45.91858" lon="5.77204">
        <ele>1297.6</ele>
        <time>2026-05-13T15:10:43Z</time>
      </trkpt>
      <trkpt lat="45.91863" lon="5.77213">
        <ele>1296.6</ele>
        <time>2026-05-13T15:10:44Z</time>
      </trkpt>
      <trkpt lat="45.91864" lon="5.77221">
        <ele>1296.6</ele>
        <time>2026-05-13T15:10:45Z</time>
      </trkpt>
      <trkpt lat="45.91867" lon="5.77223">
        <ele>1296.2</ele>
        <time>2026-05-13T15:10:46Z</time>
      </trkpt>
      <trkpt lat="45.9187" lon="5.77231">
        <ele>1295.8</ele>
        <time>2026-05-13T15:10:47Z</time>
      </trkpt>
      <trkpt lat="45.91875" lon="5.77243">
        <ele>1294.6</ele>
        <time>2026-05-13T15:10:48Z</time>
      </trkpt>
      <trkpt lat="45.9188" lon="5.77255">
        <ele>1294.6</ele>
        <time>2026-05-13T15:10:49Z</time>
      </trkpt>
      <trkpt lat="45.91883" lon="5.77266">
        <ele>1293</ele>
        <time>2026-05-13T15:10:50Z</time>
      </trkpt>
      <trkpt lat="45.91885" lon="5.77277">
        <ele>1292.6</ele>
        <time>2026-05-13T15:10:51Z</time>
      </trkpt>
      <trkpt lat="45.91887" lon="5.77285">
        <ele>1292.2</ele>
        <time>2026-05-13T15:10:52Z</time>
      </trkpt>
      <trkpt lat="45.91891" lon="5.77294">
        <ele>1291.6</ele>
        <time>2026-05-13T15:10:53Z</time>
      </trkpt>
      <trkpt lat="45.91896" lon="5.77303">
        <ele>1291.2</ele>
        <time>2026-05-13T15:10:54Z</time>
      </trkpt>
      <trkpt lat="45.91901" lon="5.77311">
        <ele>1291.2</ele>
        <time>2026-05-13T15:10:55Z</time>
      </trkpt>
      <trkpt lat="45.91906" lon="5.77317">
        <ele>1289.8</ele>
        <time>2026-05-13T15:10:56Z</time>
      </trkpt>
      <trkpt lat="45.91911" lon="5.77325">
        <ele>1289.4</ele>
        <time>2026-05-13T15:10:57Z</time>
      </trkpt>
      <trkpt lat="45.91914" lon="5.77334">
        <ele>1288.8</ele>
        <time>2026-05-13T15:10:58Z</time>
      </trkpt>
      <trkpt lat="45.91914" lon="5.77334">
        <ele>1288.8</ele>
        <time>2026-05-13T15:10:59Z</time>
      </trkpt>
      <trkpt lat="45.91917" lon="5.77345">
        <ele>1288.8</ele>
        <time>2026-05-13T15:11:00Z</time>
      </trkpt>
      <trkpt lat="45.91916" lon="5.77353">
        <ele>1288.8</ele>
        <time>2026-05-13T15:11:01Z</time>
      </trkpt>
      <trkpt lat="45.91915" lon="5.7736">
        <ele>1288.8</ele>
        <time>2026-05-13T15:11:02Z</time>
      </trkpt>
      <trkpt lat="45.91915" lon="5.77369">
        <ele>1289.2</ele>
        <time>2026-05-13T15:11:03Z</time>
      </trkpt>
      <trkpt lat="45.91915" lon="5.77377">
        <ele>1289.2</ele>
        <time>2026-05-13T15:11:04Z</time>
      </trkpt>
      <trkpt lat="45.91915" lon="5.77385">
        <ele>1289.6</ele>
        <time>2026-05-13T15:11:05Z</time>
      </trkpt>
      <trkpt lat="45.91918" lon="5.77394">
        <ele>1289.2</ele>
        <time>2026-05-13T15:11:06Z</time>
      </trkpt>
      <trkpt lat="45.91921" lon="5.77402">
        <ele>1288.2</ele>
        <time>2026-05-13T15:11:07Z</time>
      </trkpt>
      <trkpt lat="45.91923" lon="5.77412">
        <ele>1288</ele>
        <time>2026-05-13T15:11:08Z</time>
      </trkpt>
      <trkpt lat="45.91924" lon="5.77421">
        <ele>1288</ele>
        <time>2026-05-13T15:11:09Z</time>
      </trkpt>
      <trkpt lat="45.91924" lon="5.77429">
        <ele>1288</ele>
        <time>2026-05-13T15:11:10Z</time>
      </trkpt>
      <trkpt lat="45.91924" lon="5.77439">
        <ele>1288.2</ele>
        <time>2026-05-13T15:11:11Z</time>
      </trkpt>
      <trkpt lat="45.91923" lon="5.77446">
        <ele>1288.2</ele>
        <time>2026-05-13T15:11:12Z</time>
      </trkpt>
      <trkpt lat="45.91925" lon="5.7745">
        <ele>1288.2</ele>
        <time>2026-05-13T15:11:13Z</time>
      </trkpt>
      <trkpt lat="45.91925" lon="5.77459">
        <ele>1288.8</ele>
        <time>2026-05-13T15:11:14Z</time>
      </trkpt>
      <trkpt lat="45.91927" lon="5.77464">
        <ele>1289.2</ele>
        <time>2026-05-13T15:11:15Z</time>
      </trkpt>
      <trkpt lat="45.91931" lon="5.77468">
        <ele>1289.2</ele>
        <time>2026-05-13T15:11:16Z</time>
      </trkpt>
      <trkpt lat="45.91934" lon="5.77471">
        <ele>1289.6</ele>
        <time>2026-05-13T15:11:17Z</time>
      </trkpt>
      <trkpt lat="45.91937" lon="5.77473">
        <ele>1289.2</ele>
        <time>2026-05-13T15:11:18Z</time>
      </trkpt>
      <trkpt lat="45.91942" lon="5.77479">
        <ele>1289.2</ele>
        <time>2026-05-13T15:11:19Z</time>
      </trkpt>
      <trkpt lat="45.91946" lon="5.77483">
        <ele>1289.4</ele>
        <time>2026-05-13T15:11:20Z</time>
      </trkpt>
      <trkpt lat="45.91949" lon="5.77491">
        <ele>1289.4</ele>
        <time>2026-05-13T15:11:21Z</time>
      </trkpt>
      <trkpt lat="45.91951" lon="5.77496">
        <ele>1289.6</ele>
        <time>2026-05-13T15:11:22Z</time>
      </trkpt>
      <trkpt lat="45.91953" lon="5.775">
        <ele>1289.4</ele>
        <time>2026-05-13T15:11:23Z</time>
      </trkpt>
      <trkpt lat="45.91955" lon="5.77505">
        <ele>1289.4</ele>
        <time>2026-05-13T15:11:24Z</time>
      </trkpt>
      <trkpt lat="45.91956" lon="5.77509">
        <ele>1289.8</ele>
        <time>2026-05-13T15:11:25Z</time>
      </trkpt>
      <trkpt lat="45.91957" lon="5.77514">
        <ele>1289.4</ele>
        <time>2026-05-13T15:11:26Z</time>
      </trkpt>
      <trkpt lat="45.91959" lon="5.77517">
        <ele>1289.4</ele>
        <time>2026-05-13T15:11:27Z</time>
      </trkpt>
      <trkpt lat="45.91961" lon="5.77522">
        <ele>1289.8</ele>
        <time>2026-05-13T15:11:28Z</time>
      </trkpt>
      <trkpt lat="45.91964" lon="5.77524">
        <ele>1289.4</ele>
        <time>2026-05-13T15:11:29Z</time>
      </trkpt>
      <trkpt lat="45.91964" lon="5.77525">
        <ele>1288.6</ele>
        <time>2026-05-13T15:11:30Z</time>
      </trkpt>
      <trkpt lat="45.91967" lon="5.77532">
        <ele>1288.6</ele>
        <time>2026-05-13T15:11:31Z</time>
      </trkpt>
      <trkpt lat="45.91968" lon="5.77537">
        <ele>1289</ele>
        <time>2026-05-13T15:11:32Z</time>
      </trkpt>
      <trkpt lat="45.9197" lon="5.77543">
        <ele>1288.6</ele>
        <time>2026-05-13T15:11:33Z</time>
      </trkpt>
      <trkpt lat="45.91973" lon="5.77552">
        <ele>1288.4</ele>
        <time>2026-05-13T15:11:34Z</time>
      </trkpt>
      <trkpt lat="45.91976" lon="5.7756">
        <ele>1288.4</ele>
        <time>2026-05-13T15:11:35Z</time>
      </trkpt>
      <trkpt lat="45.91979" lon="5.77566">
        <ele>1288.4</ele>
        <time>2026-05-13T15:11:36Z</time>
      </trkpt>
      <trkpt lat="45.91981" lon="5.77569">
        <ele>1288.4</ele>
        <time>2026-05-13T15:11:37Z</time>
      </trkpt>
      <trkpt lat="45.91984" lon="5.77574">
        <ele>1288.4</ele>
        <time>2026-05-13T15:11:38Z</time>
      </trkpt>
      <trkpt lat="45.91989" lon="5.77577">
        <ele>1288.4</ele>
        <time>2026-05-13T15:11:39Z</time>
      </trkpt>
      <trkpt lat="45.91993" lon="5.7758">
        <ele>1287.8</ele>
        <time>2026-05-13T15:11:40Z</time>
      </trkpt>
      <trkpt lat="45.91998" lon="5.77583">
        <ele>1287.4</ele>
        <time>2026-05-13T15:11:41Z</time>
      </trkpt>
      <trkpt lat="45.92003" lon="5.77586">
        <ele>1287.6</ele>
        <time>2026-05-13T15:11:42Z</time>
      </trkpt>
      <trkpt lat="45.92006" lon="5.77589">
        <ele>1287.6</ele>
        <time>2026-05-13T15:11:43Z</time>
      </trkpt>
      <trkpt lat="45.92012" lon="5.77591">
        <ele>1287.2</ele>
        <time>2026-05-13T15:11:44Z</time>
      </trkpt>
      <trkpt lat="45.9202" lon="5.77594">
        <ele>1286.8</ele>
        <time>2026-05-13T15:11:45Z</time>
      </trkpt>
      <trkpt lat="45.92027" lon="5.77598">
        <ele>1286</ele>
        <time>2026-05-13T15:11:46Z</time>
      </trkpt>
      <trkpt lat="45.92034" lon="5.77599">
        <ele>1285.6</ele>
        <time>2026-05-13T15:11:47Z</time>
      </trkpt>
      <trkpt lat="45.92039" lon="5.77601">
        <ele>1285.6</ele>
        <time>2026-05-13T15:11:48Z</time>
      </trkpt>
      <trkpt lat="45.92046" lon="5.77602">
        <ele>1285.2</ele>
        <time>2026-05-13T15:11:49Z</time>
      </trkpt>
      <trkpt lat="45.92054" lon="5.77603">
        <ele>1285.6</ele>
        <time>2026-05-13T15:11:50Z</time>
      </trkpt>
      <trkpt lat="45.9206" lon="5.77599">
        <ele>1285.6</ele>
        <time>2026-05-13T15:11:51Z</time>
      </trkpt>
      <trkpt lat="45.92066" lon="5.77596">
        <ele>1285.6</ele>
        <time>2026-05-13T15:11:52Z</time>
      </trkpt>
      <trkpt lat="45.92071" lon="5.77592">
        <ele>1286.2</ele>
        <time>2026-05-13T15:11:53Z</time>
      </trkpt>
      <trkpt lat="45.92076" lon="5.77587">
        <ele>1285.6</ele>
        <time>2026-05-13T15:11:54Z</time>
      </trkpt>
      <trkpt lat="45.9208" lon="5.77583">
        <ele>1285.2</ele>
        <time>2026-05-13T15:11:55Z</time>
      </trkpt>
      <trkpt lat="45.92085" lon="5.77581">
        <ele>1284.6</ele>
        <time>2026-05-13T15:11:56Z</time>
      </trkpt>
      <trkpt lat="45.9209" lon="5.77585">
        <ele>1283.8</ele>
        <time>2026-05-13T15:11:57Z</time>
      </trkpt>
      <trkpt lat="45.92095" lon="5.77588">
        <ele>1283.2</ele>
        <time>2026-05-13T15:11:58Z</time>
      </trkpt>
      <trkpt lat="45.92101" lon="5.77593">
        <ele>1283</ele>
        <time>2026-05-13T15:11:59Z</time>
      </trkpt>
      <trkpt lat="45.92103" lon="5.77599">
        <ele>1283</ele>
        <time>2026-05-13T15:12:00Z</time>
      </trkpt>
      <trkpt lat="45.92109" lon="5.77601">
        <ele>1283</ele>
        <time>2026-05-13T15:12:01Z</time>
      </trkpt>
      <trkpt lat="45.92114" lon="5.77602">
        <ele>1283.2</ele>
        <time>2026-05-13T15:12:02Z</time>
      </trkpt>
      <trkpt lat="45.92119" lon="5.77601">
        <ele>1282.8</ele>
        <time>2026-05-13T15:12:03Z</time>
      </trkpt>
      <trkpt lat="45.92124" lon="5.776">
        <ele>1283.4</ele>
        <time>2026-05-13T15:12:04Z</time>
      </trkpt>
      <trkpt lat="45.92127" lon="5.77597">
        <ele>1283.8</ele>
        <time>2026-05-13T15:12:05Z</time>
      </trkpt>
      <trkpt lat="45.92132" lon="5.77596">
        <ele>1283.8</ele>
        <time>2026-05-13T15:12:06Z</time>
      </trkpt>
      <trkpt lat="45.92136" lon="5.77591">
        <ele>1283.8</ele>
        <time>2026-05-13T15:12:07Z</time>
      </trkpt>
      <trkpt lat="45.9214" lon="5.77587">
        <ele>1283.4</ele>
        <time>2026-05-13T15:12:08Z</time>
      </trkpt>
      <trkpt lat="45.92145" lon="5.77584">
        <ele>1283.4</ele>
        <time>2026-05-13T15:12:09Z</time>
      </trkpt>
      <trkpt lat="45.9215" lon="5.77581">
        <ele>1283.4</ele>
        <time>2026-05-13T15:12:10Z</time>
      </trkpt>
      <trkpt lat="45.92155" lon="5.77578">
        <ele>1283</ele>
        <time>2026-05-13T15:12:11Z</time>
      </trkpt>
      <trkpt lat="45.9216" lon="5.77575">
        <ele>1283</ele>
        <time>2026-05-13T15:12:12Z</time>
      </trkpt>
      <trkpt lat="45.92162" lon="5.77569">
        <ele>1283</ele>
        <time>2026-05-13T15:12:13Z</time>
      </trkpt>
      <trkpt lat="45.92165" lon="5.77565">
        <ele>1283</ele>
        <time>2026-05-13T15:12:14Z</time>
      </trkpt>
      <trkpt lat="45.92167" lon="5.77561">
        <ele>1282.6</ele>
        <time>2026-05-13T15:12:15Z</time>
      </trkpt>
      <trkpt lat="45.9217" lon="5.77556">
        <ele>1282.4</ele>
        <time>2026-05-13T15:12:16Z</time>
      </trkpt>
      <trkpt lat="45.92172" lon="5.77551">
        <ele>1282.6</ele>
        <time>2026-05-13T15:12:17Z</time>
      </trkpt>
      <trkpt lat="45.92174" lon="5.77546">
        <ele>1282.2</ele>
        <time>2026-05-13T15:12:18Z</time>
      </trkpt>
      <trkpt lat="45.92177" lon="5.77542">
        <ele>1282</ele>
        <time>2026-05-13T15:12:19Z</time>
      </trkpt>
      <trkpt lat="45.92182" lon="5.7754">
        <ele>1280.6</ele>
        <time>2026-05-13T15:12:20Z</time>
      </trkpt>
      <trkpt lat="45.92186" lon="5.77539">
        <ele>1280.2</ele>
        <time>2026-05-13T15:12:21Z</time>
      </trkpt>
      <trkpt lat="45.92194" lon="5.77541">
        <ele>1280.8</ele>
        <time>2026-05-13T15:12:22Z</time>
      </trkpt>
      <trkpt lat="45.922" lon="5.77539">
        <ele>1279.8</ele>
        <time>2026-05-13T15:12:23Z</time>
      </trkpt>
      <trkpt lat="45.92205" lon="5.77538">
        <ele>1279.4</ele>
        <time>2026-05-13T15:12:24Z</time>
      </trkpt>
      <trkpt lat="45.92212" lon="5.77535">
        <ele>1278.4</ele>
        <time>2026-05-13T15:12:25Z</time>
      </trkpt>
      <trkpt lat="45.92218" lon="5.77532">
        <ele>1278</ele>
        <time>2026-05-13T15:12:26Z</time>
      </trkpt>
      <trkpt lat="45.92225" lon="5.77531">
        <ele>1277.8</ele>
        <time>2026-05-13T15:12:27Z</time>
      </trkpt>
      <trkpt lat="45.9223" lon="5.77529">
        <ele>1277.8</ele>
        <time>2026-05-13T15:12:28Z</time>
      </trkpt>
      <trkpt lat="45.92236" lon="5.77528">
        <ele>1277</ele>
        <time>2026-05-13T15:12:29Z</time>
      </trkpt>
      <trkpt lat="45.92242" lon="5.77529">
        <ele>1276.6</ele>
        <time>2026-05-13T15:12:30Z</time>
      </trkpt>
      <trkpt lat="45.92247" lon="5.77531">
        <ele>1276.6</ele>
        <time>2026-05-13T15:12:31Z</time>
      </trkpt>
      <trkpt lat="45.92256" lon="5.77533">
        <ele>1276.8</ele>
        <time>2026-05-13T15:12:32Z</time>
      </trkpt>
      <trkpt lat="45.92261" lon="5.77535">
        <ele>1276.8</ele>
        <time>2026-05-13T15:12:33Z</time>
      </trkpt>
      <trkpt lat="45.92264" lon="5.77535">
        <ele>1276.8</ele>
        <time>2026-05-13T15:12:34Z</time>
      </trkpt>
      <trkpt lat="45.92268" lon="5.77536">
        <ele>1277.4</ele>
        <time>2026-05-13T15:12:35Z</time>
      </trkpt>
      <trkpt lat="45.92271" lon="5.77538">
        <ele>1277.4</ele>
        <time>2026-05-13T15:12:36Z</time>
      </trkpt>
      <trkpt lat="45.92274" lon="5.77542">
        <ele>1277.4</ele>
        <time>2026-05-13T15:12:37Z</time>
      </trkpt>
      <trkpt lat="45.92277" lon="5.77545">
        <ele>1277</ele>
        <time>2026-05-13T15:12:38Z</time>
      </trkpt>
      <trkpt lat="45.92281" lon="5.77548">
        <ele>1277</ele>
        <time>2026-05-13T15:12:39Z</time>
      </trkpt>
      <trkpt lat="45.92283" lon="5.7755">
        <ele>1277</ele>
        <time>2026-05-13T15:12:40Z</time>
      </trkpt>
      <trkpt lat="45.92286" lon="5.77554">
        <ele>1277.4</ele>
        <time>2026-05-13T15:12:41Z</time>
      </trkpt>
      <trkpt lat="45.9229" lon="5.77556">
        <ele>1277.4</ele>
        <time>2026-05-13T15:12:42Z</time>
      </trkpt>
      <trkpt lat="45.92293" lon="5.77557">
        <ele>1277.4</ele>
        <time>2026-05-13T15:12:43Z</time>
      </trkpt>
      <trkpt lat="45.92296" lon="5.77556">
        <ele>1277.4</ele>
        <time>2026-05-13T15:12:44Z</time>
      </trkpt>
      <trkpt lat="45.92298" lon="5.77556">
        <ele>1277.4</ele>
        <time>2026-05-13T15:12:45Z</time>
      </trkpt>
      <trkpt lat="45.92299" lon="5.77555">
        <ele>1277.4</ele>
        <time>2026-05-13T15:12:46Z</time>
      </trkpt>
      <trkpt lat="45.92299" lon="5.77555">
        <ele>1277.4</ele>
        <time>2026-05-13T15:12:47Z</time>
      </trkpt>
      <trkpt lat="45.923" lon="5.77555">
        <ele>1277.4</ele>
        <time>2026-05-13T15:12:48Z</time>
      </trkpt>
      <trkpt lat="45.92308" lon="5.77557">
        <ele>1276.2</ele>
        <time>2026-05-13T15:13:21Z</time>
      </trkpt>
      <trkpt lat="45.92311" lon="5.77557">
        <ele>1275.8</ele>
        <time>2026-05-13T15:13:22Z</time>
      </trkpt>
      <trkpt lat="45.92314" lon="5.77556">
        <ele>1274.6</ele>
        <time>2026-05-13T15:13:23Z</time>
      </trkpt>
      <trkpt lat="45.92318" lon="5.77555">
        <ele>1274.4</ele>
        <time>2026-05-13T15:13:24Z</time>
      </trkpt>
      <trkpt lat="45.92321" lon="5.77554">
        <ele>1274.4</ele>
        <time>2026-05-13T15:13:25Z</time>
      </trkpt>
      <trkpt lat="45.92325" lon="5.77554">
        <ele>1273.6</ele>
        <time>2026-05-13T15:13:26Z</time>
      </trkpt>
      <trkpt lat="45.92329" lon="5.77554">
        <ele>1273.4</ele>
        <time>2026-05-13T15:13:27Z</time>
      </trkpt>
      <trkpt lat="45.92336" lon="5.77555">
        <ele>1273.4</ele>
        <time>2026-05-13T15:13:28Z</time>
      </trkpt>
      <trkpt lat="45.92341" lon="5.77557">
        <ele>1272</ele>
        <time>2026-05-13T15:13:29Z</time>
      </trkpt>
      <trkpt lat="45.92347" lon="5.77559">
        <ele>1271.8</ele>
        <time>2026-05-13T15:13:30Z</time>
      </trkpt>
      <trkpt lat="45.92352" lon="5.77564">
        <ele>1271.4</ele>
        <time>2026-05-13T15:13:31Z</time>
      </trkpt>
      <trkpt lat="45.92356" lon="5.77565">
        <ele>1270.8</ele>
        <time>2026-05-13T15:13:32Z</time>
      </trkpt>
      <trkpt lat="45.92363" lon="5.77569">
        <ele>1270.2</ele>
        <time>2026-05-13T15:13:33Z</time>
      </trkpt>
      <trkpt lat="45.92367" lon="5.77576">
        <ele>1270.6</ele>
        <time>2026-05-13T15:13:34Z</time>
      </trkpt>
      <trkpt lat="45.9237" lon="5.77583">
        <ele>1270.6</ele>
        <time>2026-05-13T15:13:35Z</time>
      </trkpt>
      <trkpt lat="45.92374" lon="5.7759">
        <ele>1270.6</ele>
        <time>2026-05-13T15:13:36Z</time>
      </trkpt>
      <trkpt lat="45.92378" lon="5.77598">
        <ele>1270.6</ele>
        <time>2026-05-13T15:13:37Z</time>
      </trkpt>
      <trkpt lat="45.92383" lon="5.77604">
        <ele>1271</ele>
        <time>2026-05-13T15:13:38Z</time>
      </trkpt>
      <trkpt lat="45.92386" lon="5.77608">
        <ele>1271</ele>
        <time>2026-05-13T15:13:39Z</time>
      </trkpt>
      <trkpt lat="45.92388" lon="5.77612">
        <ele>1270.8</ele>
        <time>2026-05-13T15:13:40Z</time>
      </trkpt>
      <trkpt lat="45.92393" lon="5.77616">
        <ele>1270.8</ele>
        <time>2026-05-13T15:13:41Z</time>
      </trkpt>
      <trkpt lat="45.92398" lon="5.77617">
        <ele>1270.8</ele>
        <time>2026-05-13T15:13:42Z</time>
      </trkpt>
      <trkpt lat="45.92402" lon="5.77618">
        <ele>1270.2</ele>
        <time>2026-05-13T15:13:43Z</time>
      </trkpt>
      <trkpt lat="45.92405" lon="5.77619">
        <ele>1269.6</ele>
        <time>2026-05-13T15:13:44Z</time>
      </trkpt>
      <trkpt lat="45.92408" lon="5.77618">
        <ele>1269.2</ele>
        <time>2026-05-13T15:13:45Z</time>
      </trkpt>
      <trkpt lat="45.92413" lon="5.77618">
        <ele>1268.2</ele>
        <time>2026-05-13T15:13:46Z</time>
      </trkpt>
      <trkpt lat="45.92418" lon="5.77618">
        <ele>1268</ele>
        <time>2026-05-13T15:13:47Z</time>
      </trkpt>
      <trkpt lat="45.92422" lon="5.77618">
        <ele>1267.2</ele>
        <time>2026-05-13T15:13:48Z</time>
      </trkpt>
      <trkpt lat="45.92428" lon="5.77619">
        <ele>1267.2</ele>
        <time>2026-05-13T15:13:49Z</time>
      </trkpt>
      <trkpt lat="45.92433" lon="5.77622">
        <ele>1266.2</ele>
        <time>2026-05-13T15:13:50Z</time>
      </trkpt>
      <trkpt lat="45.92437" lon="5.77622">
        <ele>1265.2</ele>
        <time>2026-05-13T15:13:51Z</time>
      </trkpt>
      <trkpt lat="45.92442" lon="5.77625">
        <ele>1264</ele>
        <time>2026-05-13T15:13:52Z</time>
      </trkpt>
      <trkpt lat="45.92447" lon="5.77626">
        <ele>1263</ele>
        <time>2026-05-13T15:13:53Z</time>
      </trkpt>
      <trkpt lat="45.92452" lon="5.77632">
        <ele>1262.6</ele>
        <time>2026-05-13T15:13:54Z</time>
      </trkpt>
      <trkpt lat="45.92456" lon="5.77636">
        <ele>1261.8</ele>
        <time>2026-05-13T15:13:55Z</time>
      </trkpt>
      <trkpt lat="45.92461" lon="5.77644">
        <ele>1261</ele>
        <time>2026-05-13T15:13:56Z</time>
      </trkpt>
      <trkpt lat="45.92468" lon="5.77649">
        <ele>1260.2</ele>
        <time>2026-05-13T15:13:57Z</time>
      </trkpt>
      <trkpt lat="45.92474" lon="5.77655">
        <ele>1259</ele>
        <time>2026-05-13T15:13:58Z</time>
      </trkpt>
      <trkpt lat="45.9248" lon="5.77664">
        <ele>1258.6</ele>
        <time>2026-05-13T15:13:59Z</time>
      </trkpt>
      <trkpt lat="45.92485" lon="5.77668">
        <ele>1257.8</ele>
        <time>2026-05-13T15:14:00Z</time>
      </trkpt>
      <trkpt lat="45.92491" lon="5.77673">
        <ele>1257.2</ele>
        <time>2026-05-13T15:14:01Z</time>
      </trkpt>
      <trkpt lat="45.92496" lon="5.77678">
        <ele>1257.2</ele>
        <time>2026-05-13T15:14:02Z</time>
      </trkpt>
      <trkpt lat="45.92502" lon="5.77683">
        <ele>1256.8</ele>
        <time>2026-05-13T15:14:03Z</time>
      </trkpt>
      <trkpt lat="45.9251" lon="5.77684">
        <ele>1256.8</ele>
        <time>2026-05-13T15:14:04Z</time>
      </trkpt>
      <trkpt lat="45.92515" lon="5.77686">
        <ele>1256.4</ele>
        <time>2026-05-13T15:14:05Z</time>
      </trkpt>
      <trkpt lat="45.92521" lon="5.77688">
        <ele>1256</ele>
        <time>2026-05-13T15:14:06Z</time>
      </trkpt>
      <trkpt lat="45.92526" lon="5.77693">
        <ele>1256</ele>
        <time>2026-05-13T15:14:07Z</time>
      </trkpt>
      <trkpt lat="45.9253" lon="5.77697">
        <ele>1255.4</ele>
        <time>2026-05-13T15:14:08Z</time>
      </trkpt>
      <trkpt lat="45.92536" lon="5.77699">
        <ele>1255.4</ele>
        <time>2026-05-13T15:14:09Z</time>
      </trkpt>
      <trkpt lat="45.92541" lon="5.777">
        <ele>1254.6</ele>
        <time>2026-05-13T15:14:10Z</time>
      </trkpt>
      <trkpt lat="45.92544" lon="5.777">
        <ele>1254.2</ele>
        <time>2026-05-13T15:14:11Z</time>
      </trkpt>
      <trkpt lat="45.92548" lon="5.777">
        <ele>1253.6</ele>
        <time>2026-05-13T15:14:12Z</time>
      </trkpt>
      <trkpt lat="45.92552" lon="5.77699">
        <ele>1253.2</ele>
        <time>2026-05-13T15:14:13Z</time>
      </trkpt>
      <trkpt lat="45.92557" lon="5.77697">
        <ele>1253.6</ele>
        <time>2026-05-13T15:14:14Z</time>
      </trkpt>
      <trkpt lat="45.92565" lon="5.77696">
        <ele>1253.2</ele>
        <time>2026-05-13T15:14:15Z</time>
      </trkpt>
      <trkpt lat="45.92572" lon="5.77693">
        <ele>1252.6</ele>
        <time>2026-05-13T15:14:16Z</time>
      </trkpt>
      <trkpt lat="45.92578" lon="5.77691">
        <ele>1251.4</ele>
        <time>2026-05-13T15:14:17Z</time>
      </trkpt>
      <trkpt lat="45.92581" lon="5.77689">
        <ele>1251</ele>
        <time>2026-05-13T15:14:18Z</time>
      </trkpt>
      <trkpt lat="45.92584" lon="5.77689">
        <ele>1250.6</ele>
        <time>2026-05-13T15:14:19Z</time>
      </trkpt>
      <trkpt lat="45.92585" lon="5.77687">
        <ele>1250.6</ele>
        <time>2026-05-13T15:14:20Z</time>
      </trkpt>
      <trkpt lat="45.92585" lon="5.77687">
        <ele>1250.4</ele>
        <time>2026-05-13T15:14:21Z</time>
      </trkpt>
      <trkpt lat="45.92586" lon="5.77689">
        <ele>1250.4</ele>
        <time>2026-05-13T15:14:22Z</time>
      </trkpt>
      <trkpt lat="45.92586" lon="5.7769">
        <ele>1250.4</ele>
        <time>2026-05-13T15:14:23Z</time>
      </trkpt>
      <trkpt lat="45.92588" lon="5.77689">
        <ele>1249.4</ele>
        <time>2026-05-13T15:15:12Z</time>
      </trkpt>
      <trkpt lat="45.92589" lon="5.77689">
        <ele>1249.4</ele>
        <time>2026-05-13T15:15:13Z</time>
      </trkpt>
      <trkpt lat="45.9259" lon="5.77687">
        <ele>1249.4</ele>
        <time>2026-05-13T15:15:14Z</time>
      </trkpt>
      <trkpt lat="45.92591" lon="5.77687">
        <ele>1249.4</ele>
        <time>2026-05-13T15:15:15Z</time>
      </trkpt>
      <trkpt lat="45.92593" lon="5.77686">
        <ele>1249.4</ele>
        <time>2026-05-13T15:15:16Z</time>
      </trkpt>
      <trkpt lat="45.92595" lon="5.77685">
        <ele>1249.4</ele>
        <time>2026-05-13T15:15:17Z</time>
      </trkpt>
      <trkpt lat="45.92597" lon="5.77684">
        <ele>1249.4</ele>
        <time>2026-05-13T15:15:18Z</time>
      </trkpt>
      <trkpt lat="45.92599" lon="5.77684">
        <ele>1249.4</ele>
        <time>2026-05-13T15:15:19Z</time>
      </trkpt>
      <trkpt lat="45.92602" lon="5.77683">
        <ele>1249.4</ele>
        <time>2026-05-13T15:15:20Z</time>
      </trkpt>
      <trkpt lat="45.92605" lon="5.77683">
        <ele>1249.8</ele>
        <time>2026-05-13T15:15:21Z</time>
      </trkpt>
      <trkpt lat="45.92607" lon="5.77683">
        <ele>1249.8</ele>
        <time>2026-05-13T15:15:22Z</time>
      </trkpt>
      <trkpt lat="45.92608" lon="5.77683">
        <ele>1249.8</ele>
        <time>2026-05-13T15:15:23Z</time>
      </trkpt>
      <trkpt lat="45.92609" lon="5.77682">
        <ele>1249.8</ele>
        <time>2026-05-13T15:15:24Z</time>
      </trkpt>
      <trkpt lat="45.9261" lon="5.77682">
        <ele>1250.6</ele>
        <time>2026-05-13T15:15:25Z</time>
      </trkpt>
      <trkpt lat="45.92612" lon="5.77681">
        <ele>1250.6</ele>
        <time>2026-05-13T15:15:26Z</time>
      </trkpt>
      <trkpt lat="45.92614" lon="5.7768">
        <ele>1250</ele>
        <time>2026-05-13T15:15:27Z</time>
      </trkpt>
      <trkpt lat="45.92617" lon="5.77681">
        <ele>1250</ele>
        <time>2026-05-13T15:15:28Z</time>
      </trkpt>
      <trkpt lat="45.9262" lon="5.77681">
        <ele>1249.6</ele>
        <time>2026-05-13T15:15:29Z</time>
      </trkpt>
      <trkpt lat="45.92623" lon="5.77682">
        <ele>1249.2</ele>
        <time>2026-05-13T15:15:30Z</time>
      </trkpt>
      <trkpt lat="45.92629" lon="5.77689">
        <ele>1249.2</ele>
        <time>2026-05-13T15:15:31Z</time>
      </trkpt>
      <trkpt lat="45.92632" lon="5.7769">
        <ele>1249.2</ele>
        <time>2026-05-13T15:15:32Z</time>
      </trkpt>
      <trkpt lat="45.92635" lon="5.77691">
        <ele>1249.2</ele>
        <time>2026-05-13T15:15:33Z</time>
      </trkpt>
      <trkpt lat="45.92638" lon="5.7769">
        <ele>1249.2</ele>
        <time>2026-05-13T15:15:34Z</time>
      </trkpt>
      <trkpt lat="45.92642" lon="5.7769">
        <ele>1249.2</ele>
        <time>2026-05-13T15:15:35Z</time>
      </trkpt>
      <trkpt lat="45.92645" lon="5.77691">
        <ele>1249.2</ele>
        <time>2026-05-13T15:15:36Z</time>
      </trkpt>
      <trkpt lat="45.92648" lon="5.77692">
        <ele>1249.8</ele>
        <time>2026-05-13T15:15:37Z</time>
      </trkpt>
      <trkpt lat="45.92649" lon="5.77696">
        <ele>1249.8</ele>
        <time>2026-05-13T15:15:38Z</time>
      </trkpt>
      <trkpt lat="45.92652" lon="5.77697">
        <ele>1250</ele>
        <time>2026-05-13T15:15:39Z</time>
      </trkpt>
      <trkpt lat="45.92656" lon="5.77697">
        <ele>1249.8</ele>
        <time>2026-05-13T15:15:40Z</time>
      </trkpt>
      <trkpt lat="45.92657" lon="5.77699">
        <ele>1249.4</ele>
        <time>2026-05-13T15:15:41Z</time>
      </trkpt>
      <trkpt lat="45.9266" lon="5.77701">
        <ele>1248.8</ele>
        <time>2026-05-13T15:15:42Z</time>
      </trkpt>
      <trkpt lat="45.92663" lon="5.77703">
        <ele>1248.2</ele>
        <time>2026-05-13T15:15:43Z</time>
      </trkpt>
      <trkpt lat="45.92665" lon="5.77703">
        <ele>1248.2</ele>
        <time>2026-05-13T15:15:44Z</time>
      </trkpt>
      <trkpt lat="45.92669" lon="5.77701">
        <ele>1247.4</ele>
        <time>2026-05-13T15:15:45Z</time>
      </trkpt>
      <trkpt lat="45.92672" lon="5.77703">
        <ele>1246.8</ele>
        <time>2026-05-13T15:15:46Z</time>
      </trkpt>
      <trkpt lat="45.92676" lon="5.77707">
        <ele>1246.4</ele>
        <time>2026-05-13T15:15:47Z</time>
      </trkpt>
      <trkpt lat="45.92681" lon="5.77708">
        <ele>1246.4</ele>
        <time>2026-05-13T15:15:48Z</time>
      </trkpt>
      <trkpt lat="45.92685" lon="5.77709">
        <ele>1246.4</ele>
        <time>2026-05-13T15:15:49Z</time>
      </trkpt>
      <trkpt lat="45.92694" lon="5.77713">
        <ele>1246.4</ele>
        <time>2026-05-13T15:15:50Z</time>
      </trkpt>
      <trkpt lat="45.92696" lon="5.77716">
        <ele>1245.8</ele>
        <time>2026-05-13T15:15:51Z</time>
      </trkpt>
      <trkpt lat="45.92699" lon="5.77712">
        <ele>1245.8</ele>
        <time>2026-05-13T15:15:52Z</time>
      </trkpt>
      <trkpt lat="45.92699" lon="5.77712">
        <ele>1245.2</ele>
        <time>2026-05-13T15:15:53Z</time>
      </trkpt>
      <trkpt lat="45.92712" lon="5.77686">
        <ele>1244</ele>
        <time>2026-05-13T15:15:55Z</time>
      </trkpt>
      <trkpt lat="45.92716" lon="5.7768">
        <ele>1242.8</ele>
        <time>2026-05-13T15:15:56Z</time>
      </trkpt>
      <trkpt lat="45.9272" lon="5.77674">
        <ele>1241.6</ele>
        <time>2026-05-13T15:15:57Z</time>
      </trkpt>
      <trkpt lat="45.92724" lon="5.77668">
        <ele>1241.2</ele>
        <time>2026-05-13T15:15:58Z</time>
      </trkpt>
      <trkpt lat="45.92729" lon="5.77664">
        <ele>1241</ele>
        <time>2026-05-13T15:15:59Z</time>
      </trkpt>
      <trkpt lat="45.92734" lon="5.77661">
        <ele>1241</ele>
        <time>2026-05-13T15:16:00Z</time>
      </trkpt>
      <trkpt lat="45.92739" lon="5.77658">
        <ele>1240.8</ele>
        <time>2026-05-13T15:16:01Z</time>
      </trkpt>
      <trkpt lat="45.92745" lon="5.77655">
        <ele>1240.4</ele>
        <time>2026-05-13T15:16:02Z</time>
      </trkpt>
      <trkpt lat="45.9275" lon="5.77655">
        <ele>1240.2</ele>
        <time>2026-05-13T15:16:03Z</time>
      </trkpt>
      <trkpt lat="45.9275" lon="5.77655">
        <ele>1239.4</ele>
        <time>2026-05-13T15:16:04Z</time>
      </trkpt>
      <trkpt lat="45.92754" lon="5.77656">
        <ele>1239.8</ele>
        <time>2026-05-13T15:16:05Z</time>
      </trkpt>
      <trkpt lat="45.92759" lon="5.77658">
        <ele>1239.8</ele>
        <time>2026-05-13T15:16:06Z</time>
      </trkpt>
      <trkpt lat="45.92763" lon="5.7766">
        <ele>1240</ele>
        <time>2026-05-13T15:16:07Z</time>
      </trkpt>
      <trkpt lat="45.92767" lon="5.77662">
        <ele>1240.4</ele>
        <time>2026-05-13T15:16:08Z</time>
      </trkpt>
      <trkpt lat="45.9277" lon="5.77664">
        <ele>1240.4</ele>
        <time>2026-05-13T15:16:09Z</time>
      </trkpt>
      <trkpt lat="45.92774" lon="5.77667">
        <ele>1240.8</ele>
        <time>2026-05-13T15:16:10Z</time>
      </trkpt>
      <trkpt lat="45.92776" lon="5.7767">
        <ele>1241</ele>
        <time>2026-05-13T15:16:11Z</time>
      </trkpt>
      <trkpt lat="45.92778" lon="5.77674">
        <ele>1241</ele>
        <time>2026-05-13T15:16:12Z</time>
      </trkpt>
      <trkpt lat="45.9278" lon="5.77678">
        <ele>1241</ele>
        <time>2026-05-13T15:16:13Z</time>
      </trkpt>
      <trkpt lat="45.9278" lon="5.77682">
        <ele>1241</ele>
        <time>2026-05-13T15:16:14Z</time>
      </trkpt>
      <trkpt lat="45.92781" lon="5.77687">
        <ele>1241</ele>
        <time>2026-05-13T15:16:15Z</time>
      </trkpt>
      <trkpt lat="45.92782" lon="5.77691">
        <ele>1241.6</ele>
        <time>2026-05-13T15:16:16Z</time>
      </trkpt>
      <trkpt lat="45.92782" lon="5.77695">
        <ele>1242</ele>
        <time>2026-05-13T15:16:17Z</time>
      </trkpt>
      <trkpt lat="45.92781" lon="5.77698">
        <ele>1242.4</ele>
        <time>2026-05-13T15:16:18Z</time>
      </trkpt>
      <trkpt lat="45.92781" lon="5.77703">
        <ele>1242.4</ele>
        <time>2026-05-13T15:16:19Z</time>
      </trkpt>
      <trkpt lat="45.92781" lon="5.77706">
        <ele>1242.4</ele>
        <time>2026-05-13T15:16:20Z</time>
      </trkpt>
      <trkpt lat="45.92781" lon="5.7771">
        <ele>1242.4</ele>
        <time>2026-05-13T15:16:21Z</time>
      </trkpt>
      <trkpt lat="45.92781" lon="5.77713">
        <ele>1242.8</ele>
        <time>2026-05-13T15:16:22Z</time>
      </trkpt>
      <trkpt lat="45.92781" lon="5.77717">
        <ele>1243.2</ele>
        <time>2026-05-13T15:16:23Z</time>
      </trkpt>
      <trkpt lat="45.92781" lon="5.7772">
        <ele>1243.4</ele>
        <time>2026-05-13T15:16:24Z</time>
      </trkpt>
      <trkpt lat="45.92781" lon="5.77724">
        <ele>1243.6</ele>
        <time>2026-05-13T15:16:25Z</time>
      </trkpt>
      <trkpt lat="45.92781" lon="5.77727">
        <ele>1244</ele>
        <time>2026-05-13T15:16:26Z</time>
      </trkpt>
      <trkpt lat="45.92782" lon="5.77729">
        <ele>1244.2</ele>
        <time>2026-05-13T15:16:27Z</time>
      </trkpt>
      <trkpt lat="45.92783" lon="5.7773">
        <ele>1244.6</ele>
        <time>2026-05-13T15:16:28Z</time>
      </trkpt>
      <trkpt lat="45.92785" lon="5.77731">
        <ele>1244.8</ele>
        <time>2026-05-13T15:16:29Z</time>
      </trkpt>
      <trkpt lat="45.92786" lon="5.77731">
        <ele>1245.2</ele>
        <time>2026-05-13T15:16:30Z</time>
      </trkpt>
      <trkpt lat="45.92788" lon="5.7773">
        <ele>1245.2</ele>
        <time>2026-05-13T15:16:31Z</time>
      </trkpt>
      <trkpt lat="45.92789" lon="5.77729">
        <ele>1245.2</ele>
        <time>2026-05-13T15:16:32Z</time>
      </trkpt>
      <trkpt lat="45.92791" lon="5.77727">
        <ele>1245.6</ele>
        <time>2026-05-13T15:16:33Z</time>
      </trkpt>
      <trkpt lat="45.92792" lon="5.77724">
        <ele>1245.6</ele>
        <time>2026-05-13T15:16:34Z</time>
      </trkpt>
      <trkpt lat="45.92793" lon="5.77722">
        <ele>1245.6</ele>
        <time>2026-05-13T15:16:35Z</time>
      </trkpt>
      <trkpt lat="45.92795" lon="5.7772">
        <ele>1245.6</ele>
        <time>2026-05-13T15:16:36Z</time>
      </trkpt>
      <trkpt lat="45.92797" lon="5.77718">
        <ele>1245.6</ele>
        <time>2026-05-13T15:16:37Z</time>
      </trkpt>
      <trkpt lat="45.92798" lon="5.77716">
        <ele>1245.6</ele>
        <time>2026-05-13T15:16:38Z</time>
      </trkpt>
      <trkpt lat="45.92799" lon="5.77713">
        <ele>1245.6</ele>
        <time>2026-05-13T15:16:39Z</time>
      </trkpt>
      <trkpt lat="45.928" lon="5.77711">
        <ele>1245.6</ele>
        <time>2026-05-13T15:16:40Z</time>
      </trkpt>
      <trkpt lat="45.928" lon="5.77709">
        <ele>1245.6</ele>
        <time>2026-05-13T15:16:41Z</time>
      </trkpt>
      <trkpt lat="45.92801" lon="5.77707">
        <ele>1245.6</ele>
        <time>2026-05-13T15:16:42Z</time>
      </trkpt>
      <trkpt lat="45.92802" lon="5.77705">
        <ele>1245.6</ele>
        <time>2026-05-13T15:16:43Z</time>
      </trkpt>
      <trkpt lat="45.92804" lon="5.77702">
        <ele>1245.8</ele>
        <time>2026-05-13T15:16:44Z</time>
      </trkpt>
      <trkpt lat="45.92805" lon="5.77701">
        <ele>1245.8</ele>
        <time>2026-05-13T15:16:45Z</time>
      </trkpt>
      <trkpt lat="45.92807" lon="5.77698">
        <ele>1246.2</ele>
        <time>2026-05-13T15:16:46Z</time>
      </trkpt>
      <trkpt lat="45.92808" lon="5.77696">
        <ele>1246.2</ele>
        <time>2026-05-13T15:16:47Z</time>
      </trkpt>
      <trkpt lat="45.9281" lon="5.77694">
        <ele>1246.8</ele>
        <time>2026-05-13T15:16:48Z</time>
      </trkpt>
      <trkpt lat="45.92811" lon="5.77692">
        <ele>1247.2</ele>
        <time>2026-05-13T15:16:49Z</time>
      </trkpt>
      <trkpt lat="45.92813" lon="5.77691">
        <ele>1247.2</ele>
        <time>2026-05-13T15:16:50Z</time>
      </trkpt>
      <trkpt lat="45.92814" lon="5.77689">
        <ele>1247.2</ele>
        <time>2026-05-13T15:16:51Z</time>
      </trkpt>
      <trkpt lat="45.92815" lon="5.77688">
        <ele>1247.6</ele>
        <time>2026-05-13T15:16:52Z</time>
      </trkpt>
      <trkpt lat="45.92816" lon="5.77686">
        <ele>1247.8</ele>
        <time>2026-05-13T15:16:53Z</time>
      </trkpt>
      <trkpt lat="45.92817" lon="5.77685">
        <ele>1248.2</ele>
        <time>2026-05-13T15:16:54Z</time>
      </trkpt>
      <trkpt lat="45.92819" lon="5.77684">
        <ele>1248.2</ele>
        <time>2026-05-13T15:16:55Z</time>
      </trkpt>
      <trkpt lat="45.92821" lon="5.77683">
        <ele>1248.2</ele>
        <time>2026-05-13T15:16:56Z</time>
      </trkpt>
      <trkpt lat="45.92823" lon="5.77682">
        <ele>1248</ele>
        <time>2026-05-13T15:16:57Z</time>
      </trkpt>
      <trkpt lat="45.92824" lon="5.77681">
        <ele>1248</ele>
        <time>2026-05-13T15:16:58Z</time>
      </trkpt>
      <trkpt lat="45.92825" lon="5.7768">
        <ele>1248</ele>
        <time>2026-05-13T15:16:59Z</time>
      </trkpt>
      <trkpt lat="45.92826" lon="5.77679">
        <ele>1248</ele>
        <time>2026-05-13T15:17:00Z</time>
      </trkpt>
      <trkpt lat="45.92829" lon="5.77678">
        <ele>1247.6</ele>
        <time>2026-05-13T15:17:01Z</time>
      </trkpt>
      <trkpt lat="45.9283" lon="5.77676">
        <ele>1247.6</ele>
        <time>2026-05-13T15:17:02Z</time>
      </trkpt>
      <trkpt lat="45.92832" lon="5.77674">
        <ele>1247.6</ele>
        <time>2026-05-13T15:17:03Z</time>
      </trkpt>
      <trkpt lat="45.92834" lon="5.77671">
        <ele>1247.6</ele>
        <time>2026-05-13T15:17:04Z</time>
      </trkpt>
      <trkpt lat="45.92836" lon="5.77669">
        <ele>1248</ele>
        <time>2026-05-13T15:17:05Z</time>
      </trkpt>
      <trkpt lat="45.92838" lon="5.77667">
        <ele>1248</ele>
        <time>2026-05-13T15:17:06Z</time>
      </trkpt>
      <trkpt lat="45.9284" lon="5.77665">
        <ele>1248</ele>
        <time>2026-05-13T15:17:07Z</time>
      </trkpt>
      <trkpt lat="45.92843" lon="5.77663">
        <ele>1248</ele>
        <time>2026-05-13T15:17:08Z</time>
      </trkpt>
      <trkpt lat="45.92846" lon="5.77662">
        <ele>1247.8</ele>
        <time>2026-05-13T15:17:09Z</time>
      </trkpt>
      <trkpt lat="45.92849" lon="5.77662">
        <ele>1248.2</ele>
        <time>2026-05-13T15:17:10Z</time>
      </trkpt>
      <trkpt lat="45.92852" lon="5.77663">
        <ele>1248</ele>
        <time>2026-05-13T15:17:11Z</time>
      </trkpt>
      <trkpt lat="45.92856" lon="5.77665">
        <ele>1248</ele>
        <time>2026-05-13T15:17:12Z</time>
      </trkpt>
      <trkpt lat="45.92859" lon="5.77667">
        <ele>1247.4</ele>
        <time>2026-05-13T15:17:13Z</time>
      </trkpt>
      <trkpt lat="45.92863" lon="5.7767">
        <ele>1247.2</ele>
        <time>2026-05-13T15:17:14Z</time>
      </trkpt>
      <trkpt lat="45.92866" lon="5.77673">
        <ele>1246.6</ele>
        <time>2026-05-13T15:17:15Z</time>
      </trkpt>
      <trkpt lat="45.9287" lon="5.77675">
        <ele>1246.4</ele>
        <time>2026-05-13T15:17:16Z</time>
      </trkpt>
      <trkpt lat="45.92874" lon="5.77678">
        <ele>1246.4</ele>
        <time>2026-05-13T15:17:17Z</time>
      </trkpt>
      <trkpt lat="45.92879" lon="5.77681">
        <ele>1246</ele>
        <time>2026-05-13T15:17:18Z</time>
      </trkpt>
      <trkpt lat="45.92883" lon="5.77684">
        <ele>1245.8</ele>
        <time>2026-05-13T15:17:19Z</time>
      </trkpt>
      <trkpt lat="45.92887" lon="5.77687">
        <ele>1245.4</ele>
        <time>2026-05-13T15:17:20Z</time>
      </trkpt>
      <trkpt lat="45.92892" lon="5.7769">
        <ele>1245.4</ele>
        <time>2026-05-13T15:17:21Z</time>
      </trkpt>
      <trkpt lat="45.92896" lon="5.77692">
        <ele>1245.4</ele>
        <time>2026-05-13T15:17:22Z</time>
      </trkpt>
      <trkpt lat="45.92901" lon="5.77694">
        <ele>1245</ele>
        <time>2026-05-13T15:17:23Z</time>
      </trkpt>
      <trkpt lat="45.92901" lon="5.77694">
        <ele>1244.8</ele>
        <time>2026-05-13T15:17:24Z</time>
      </trkpt>
      <trkpt lat="45.92909" lon="5.77697">
        <ele>1244.8</ele>
        <time>2026-05-13T15:17:25Z</time>
      </trkpt>
      <trkpt lat="45.92914" lon="5.77699">
        <ele>1244</ele>
        <time>2026-05-13T15:17:26Z</time>
      </trkpt>
      <trkpt lat="45.92921" lon="5.77703">
        <ele>1244</ele>
        <time>2026-05-13T15:17:27Z</time>
      </trkpt>
      <trkpt lat="45.92925" lon="5.77705">
        <ele>1244</ele>
        <time>2026-05-13T15:17:28Z</time>
      </trkpt>
      <trkpt lat="45.92929" lon="5.77708">
        <ele>1244.6</ele>
        <time>2026-05-13T15:17:29Z</time>
      </trkpt>
      <trkpt lat="45.92934" lon="5.77711">
        <ele>1244</ele>
        <time>2026-05-13T15:17:30Z</time>
      </trkpt>
      <trkpt lat="45.92938" lon="5.77713">
        <ele>1243.8</ele>
        <time>2026-05-13T15:17:31Z</time>
      </trkpt>
      <trkpt lat="45.92943" lon="5.77717">
        <ele>1243.6</ele>
        <time>2026-05-13T15:17:32Z</time>
      </trkpt>
      <trkpt lat="45.92947" lon="5.7772">
        <ele>1243</ele>
        <time>2026-05-13T15:17:33Z</time>
      </trkpt>
      <trkpt lat="45.92951" lon="5.77723">
        <ele>1243</ele>
        <time>2026-05-13T15:17:34Z</time>
      </trkpt>
      <trkpt lat="45.92955" lon="5.77726">
        <ele>1242.6</ele>
        <time>2026-05-13T15:17:35Z</time>
      </trkpt>
      <trkpt lat="45.92958" lon="5.77729">
        <ele>1242.2</ele>
        <time>2026-05-13T15:17:36Z</time>
      </trkpt>
      <trkpt lat="45.92961" lon="5.77732">
        <ele>1242.2</ele>
        <time>2026-05-13T15:17:37Z</time>
      </trkpt>
      <trkpt lat="45.92963" lon="5.77736">
        <ele>1242.2</ele>
        <time>2026-05-13T15:17:38Z</time>
      </trkpt>
      <trkpt lat="45.92967" lon="5.77738">
        <ele>1242.6</ele>
        <time>2026-05-13T15:17:39Z</time>
      </trkpt>
      <trkpt lat="45.92969" lon="5.77741">
        <ele>1242.6</ele>
        <time>2026-05-13T15:17:40Z</time>
      </trkpt>
      <trkpt lat="45.92972" lon="5.77744">
        <ele>1242.6</ele>
        <time>2026-05-13T15:17:41Z</time>
      </trkpt>
      <trkpt lat="45.92975" lon="5.77746">
        <ele>1242.6</ele>
        <time>2026-05-13T15:17:42Z</time>
      </trkpt>
      <trkpt lat="45.92977" lon="5.77748">
        <ele>1242.2</ele>
        <time>2026-05-13T15:17:43Z</time>
      </trkpt>
      <trkpt lat="45.9298" lon="5.77749">
        <ele>1242.4</ele>
        <time>2026-05-13T15:17:44Z</time>
      </trkpt>
      <trkpt lat="45.92983" lon="5.77751">
        <ele>1242.6</ele>
        <time>2026-05-13T15:17:45Z</time>
      </trkpt>
      <trkpt lat="45.92986" lon="5.77753">
        <ele>1242.6</ele>
        <time>2026-05-13T15:17:46Z</time>
      </trkpt>
      <trkpt lat="45.92989" lon="5.77754">
        <ele>1242.6</ele>
        <time>2026-05-13T15:17:47Z</time>
      </trkpt>
      <trkpt lat="45.92994" lon="5.77755">
        <ele>1242.6</ele>
        <time>2026-05-13T15:17:48Z</time>
      </trkpt>
      <trkpt lat="45.92998" lon="5.77755">
        <ele>1242</ele>
        <time>2026-05-13T15:17:49Z</time>
      </trkpt>
      <trkpt lat="45.93002" lon="5.77754">
        <ele>1241.4</ele>
        <time>2026-05-13T15:17:50Z</time>
      </trkpt>
      <trkpt lat="45.93006" lon="5.77753">
        <ele>1241</ele>
        <time>2026-05-13T15:17:51Z</time>
      </trkpt>
      <trkpt lat="45.9301" lon="5.77752">
        <ele>1241</ele>
        <time>2026-05-13T15:17:52Z</time>
      </trkpt>
      <trkpt lat="45.93013" lon="5.7775">
        <ele>1241.4</ele>
        <time>2026-05-13T15:17:53Z</time>
      </trkpt>
      <trkpt lat="45.93016" lon="5.77747">
        <ele>1241.4</ele>
        <time>2026-05-13T15:17:54Z</time>
      </trkpt>
      <trkpt lat="45.93019" lon="5.77743">
        <ele>1241</ele>
        <time>2026-05-13T15:17:55Z</time>
      </trkpt>
      <trkpt lat="45.93021" lon="5.77739">
        <ele>1241.2</ele>
        <time>2026-05-13T15:17:56Z</time>
      </trkpt>
      <trkpt lat="45.93022" lon="5.77735">
        <ele>1241.4</ele>
        <time>2026-05-13T15:17:57Z</time>
      </trkpt>
      <trkpt lat="45.93022" lon="5.7773">
        <ele>1241.2</ele>
        <time>2026-05-13T15:17:58Z</time>
      </trkpt>
      <trkpt lat="45.93022" lon="5.77726">
        <ele>1241.2</ele>
        <time>2026-05-13T15:17:59Z</time>
      </trkpt>
      <trkpt lat="45.93021" lon="5.77723">
        <ele>1241.2</ele>
        <time>2026-05-13T15:18:00Z</time>
      </trkpt>
      <trkpt lat="45.93021" lon="5.77719">
        <ele>1241.4</ele>
        <time>2026-05-13T15:18:01Z</time>
      </trkpt>
      <trkpt lat="45.9302" lon="5.77715">
        <ele>1241.4</ele>
        <time>2026-05-13T15:18:02Z</time>
      </trkpt>
      <trkpt lat="45.9302" lon="5.77711">
        <ele>1241.6</ele>
        <time>2026-05-13T15:18:03Z</time>
      </trkpt>
      <trkpt lat="45.9302" lon="5.77707">
        <ele>1242.2</ele>
        <time>2026-05-13T15:18:04Z</time>
      </trkpt>
      <trkpt lat="45.93021" lon="5.77703">
        <ele>1242.2</ele>
        <time>2026-05-13T15:18:05Z</time>
      </trkpt>
      <trkpt lat="45.93021" lon="5.77698">
        <ele>1242.6</ele>
        <time>2026-05-13T15:18:06Z</time>
      </trkpt>
      <trkpt lat="45.93022" lon="5.77694">
        <ele>1243</ele>
        <time>2026-05-13T15:18:07Z</time>
      </trkpt>
      <trkpt lat="45.93023" lon="5.77689">
        <ele>1243</ele>
        <time>2026-05-13T15:18:08Z</time>
      </trkpt>
      <trkpt lat="45.93023" lon="5.77686">
        <ele>1243.4</ele>
        <time>2026-05-13T15:18:09Z</time>
      </trkpt>
      <trkpt lat="45.93024" lon="5.77682">
        <ele>1243.6</ele>
        <time>2026-05-13T15:18:10Z</time>
      </trkpt>
      <trkpt lat="45.93025" lon="5.77678">
        <ele>1243.6</ele>
        <time>2026-05-13T15:18:11Z</time>
      </trkpt>
      <trkpt lat="45.93025" lon="5.77675">
        <ele>1244.2</ele>
        <time>2026-05-13T15:18:12Z</time>
      </trkpt>
      <trkpt lat="45.93026" lon="5.77671">
        <ele>1244.4</ele>
        <time>2026-05-13T15:18:13Z</time>
      </trkpt>
      <trkpt lat="45.93027" lon="5.77667">
        <ele>1244.6</ele>
        <time>2026-05-13T15:18:14Z</time>
      </trkpt>
      <trkpt lat="45.93028" lon="5.77663">
        <ele>1244.6</ele>
        <time>2026-05-13T15:18:15Z</time>
      </trkpt>
      <trkpt lat="45.93029" lon="5.7766">
        <ele>1244.6</ele>
        <time>2026-05-13T15:18:16Z</time>
      </trkpt>
      <trkpt lat="45.9303" lon="5.77657">
        <ele>1245</ele>
        <time>2026-05-13T15:18:17Z</time>
      </trkpt>
      <trkpt lat="45.93031" lon="5.77653">
        <ele>1245.2</ele>
        <time>2026-05-13T15:18:18Z</time>
      </trkpt>
      <trkpt lat="45.93032" lon="5.77651">
        <ele>1245.2</ele>
        <time>2026-05-13T15:18:19Z</time>
      </trkpt>
      <trkpt lat="45.93032" lon="5.77648">
        <ele>1245.6</ele>
        <time>2026-05-13T15:18:20Z</time>
      </trkpt>
      <trkpt lat="45.93033" lon="5.77645">
        <ele>1245.6</ele>
        <time>2026-05-13T15:18:21Z</time>
      </trkpt>
      <trkpt lat="45.93034" lon="5.77642">
        <ele>1246</ele>
        <time>2026-05-13T15:18:22Z</time>
      </trkpt>
      <trkpt lat="45.93034" lon="5.7764">
        <ele>1246</ele>
        <time>2026-05-13T15:18:23Z</time>
      </trkpt>
      <trkpt lat="45.93035" lon="5.77637">
        <ele>1246</ele>
        <time>2026-05-13T15:18:24Z</time>
      </trkpt>
      <trkpt lat="45.93036" lon="5.77635">
        <ele>1246</ele>
        <time>2026-05-13T15:18:25Z</time>
      </trkpt>
      <trkpt lat="45.93037" lon="5.77632">
        <ele>1246.4</ele>
        <time>2026-05-13T15:18:26Z</time>
      </trkpt>
      <trkpt lat="45.93037" lon="5.7763">
        <ele>1246.6</ele>
        <time>2026-05-13T15:18:27Z</time>
      </trkpt>
      <trkpt lat="45.93038" lon="5.77628">
        <ele>1246.6</ele>
        <time>2026-05-13T15:18:28Z</time>
      </trkpt>
      <trkpt lat="45.93038" lon="5.77626">
        <ele>1246.6</ele>
        <time>2026-05-13T15:18:29Z</time>
      </trkpt>
      <trkpt lat="45.93039" lon="5.77624">
        <ele>1246.6</ele>
        <time>2026-05-13T15:18:30Z</time>
      </trkpt>
      <trkpt lat="45.93039" lon="5.77621">
        <ele>1247</ele>
        <time>2026-05-13T15:18:31Z</time>
      </trkpt>
      <trkpt lat="45.93039" lon="5.7762">
        <ele>1247.4</ele>
        <time>2026-05-13T15:18:32Z</time>
      </trkpt>
      <trkpt lat="45.93039" lon="5.77618">
        <ele>1247.8</ele>
        <time>2026-05-13T15:18:33Z</time>
      </trkpt>
      <trkpt lat="45.93039" lon="5.77615">
        <ele>1247.8</ele>
        <time>2026-05-13T15:18:34Z</time>
      </trkpt>
      <trkpt lat="45.9304" lon="5.77613">
        <ele>1247.8</ele>
        <time>2026-05-13T15:18:35Z</time>
      </trkpt>
      <trkpt lat="45.9304" lon="5.7761">
        <ele>1248</ele>
        <time>2026-05-13T15:18:36Z</time>
      </trkpt>
      <trkpt lat="45.9304" lon="5.77608">
        <ele>1248.2</ele>
        <time>2026-05-13T15:18:37Z</time>
      </trkpt>
      <trkpt lat="45.9304" lon="5.77605">
        <ele>1248.2</ele>
        <time>2026-05-13T15:18:38Z</time>
      </trkpt>
      <trkpt lat="45.9304" lon="5.77603">
        <ele>1248.6</ele>
        <time>2026-05-13T15:18:39Z</time>
      </trkpt>
      <trkpt lat="45.9304" lon="5.77601">
        <ele>1248.8</ele>
        <time>2026-05-13T15:18:40Z</time>
      </trkpt>
      <trkpt lat="45.9304" lon="5.77598">
        <ele>1248.8</ele>
        <time>2026-05-13T15:18:41Z</time>
      </trkpt>
      <trkpt lat="45.9304" lon="5.77596">
        <ele>1248.8</ele>
        <time>2026-05-13T15:18:42Z</time>
      </trkpt>
      <trkpt lat="45.93041" lon="5.77594">
        <ele>1249.2</ele>
        <time>2026-05-13T15:18:43Z</time>
      </trkpt>
      <trkpt lat="45.93041" lon="5.77592">
        <ele>1249.2</ele>
        <time>2026-05-13T15:18:44Z</time>
      </trkpt>
      <trkpt lat="45.93041" lon="5.77592">
        <ele>1249.2</ele>
        <time>2026-05-13T15:18:45Z</time>
      </trkpt>
      <trkpt lat="45.93041" lon="5.77589">
        <ele>1249.2</ele>
        <time>2026-05-13T15:18:46Z</time>
      </trkpt>
      <trkpt lat="45.93042" lon="5.77587">
        <ele>1249.2</ele>
        <time>2026-05-13T15:18:47Z</time>
      </trkpt>
      <trkpt lat="45.93043" lon="5.77584">
        <ele>1249.2</ele>
        <time>2026-05-13T15:18:48Z</time>
      </trkpt>
      <trkpt lat="45.93043" lon="5.77581">
        <ele>1249.4</ele>
        <time>2026-05-13T15:18:49Z</time>
      </trkpt>
      <trkpt lat="45.93044" lon="5.77578">
        <ele>1249.4</ele>
        <time>2026-05-13T15:18:50Z</time>
      </trkpt>
      <trkpt lat="45.93045" lon="5.77576">
        <ele>1249.4</ele>
        <time>2026-05-13T15:18:51Z</time>
      </trkpt>
      <trkpt lat="45.93046" lon="5.77573">
        <ele>1249.2</ele>
        <time>2026-05-13T15:18:52Z</time>
      </trkpt>
      <trkpt lat="45.93046" lon="5.7757">
        <ele>1249.2</ele>
        <time>2026-05-13T15:18:53Z</time>
      </trkpt>
      <trkpt lat="45.93047" lon="5.77567">
        <ele>1249.2</ele>
        <time>2026-05-13T15:18:54Z</time>
      </trkpt>
      <trkpt lat="45.93047" lon="5.77565">
        <ele>1249.6</ele>
        <time>2026-05-13T15:18:55Z</time>
      </trkpt>
      <trkpt lat="45.93048" lon="5.77562">
        <ele>1250</ele>
        <time>2026-05-13T15:18:56Z</time>
      </trkpt>
      <trkpt lat="45.93049" lon="5.7756">
        <ele>1250</ele>
        <time>2026-05-13T15:18:57Z</time>
      </trkpt>
      <trkpt lat="45.9305" lon="5.77558">
        <ele>1250</ele>
        <time>2026-05-13T15:18:58Z</time>
      </trkpt>
      <trkpt lat="45.93051" lon="5.77555">
        <ele>1250</ele>
        <time>2026-05-13T15:18:59Z</time>
      </trkpt>
      <trkpt lat="45.93052" lon="5.77553">
        <ele>1250</ele>
        <time>2026-05-13T15:19:00Z</time>
      </trkpt>
      <trkpt lat="45.93053" lon="5.77552">
        <ele>1250.2</ele>
        <time>2026-05-13T15:19:01Z</time>
      </trkpt>
      <trkpt lat="45.93055" lon="5.7755">
        <ele>1250.6</ele>
        <time>2026-05-13T15:19:02Z</time>
      </trkpt>
      <trkpt lat="45.93056" lon="5.77549">
        <ele>1250.6</ele>
        <time>2026-05-13T15:19:03Z</time>
      </trkpt>
      <trkpt lat="45.93057" lon="5.77548">
        <ele>1250.6</ele>
        <time>2026-05-13T15:19:04Z</time>
      </trkpt>
      <trkpt lat="45.93059" lon="5.77547">
        <ele>1250.6</ele>
        <time>2026-05-13T15:19:05Z</time>
      </trkpt>
      <trkpt lat="45.9306" lon="5.77546">
        <ele>1250.8</ele>
        <time>2026-05-13T15:19:06Z</time>
      </trkpt>
      <trkpt lat="45.93062" lon="5.77546">
        <ele>1250.8</ele>
        <time>2026-05-13T15:19:07Z</time>
      </trkpt>
      <trkpt lat="45.93063" lon="5.77546">
        <ele>1250.8</ele>
        <time>2026-05-13T15:19:08Z</time>
      </trkpt>
      <trkpt lat="45.93065" lon="5.77545">
        <ele>1251.2</ele>
        <time>2026-05-13T15:19:09Z</time>
      </trkpt>
      <trkpt lat="45.93067" lon="5.77544">
        <ele>1251.2</ele>
        <time>2026-05-13T15:19:10Z</time>
      </trkpt>
      <trkpt lat="45.93068" lon="5.77543">
        <ele>1251.2</ele>
        <time>2026-05-13T15:19:11Z</time>
      </trkpt>
      <trkpt lat="45.93069" lon="5.77542">
        <ele>1251.2</ele>
        <time>2026-05-13T15:19:12Z</time>
      </trkpt>
      <trkpt lat="45.9307" lon="5.77542">
        <ele>1251.6</ele>
        <time>2026-05-13T15:19:13Z</time>
      </trkpt>
      <trkpt lat="45.93071" lon="5.77541">
        <ele>1251.6</ele>
        <time>2026-05-13T15:19:14Z</time>
      </trkpt>
      <trkpt lat="45.93073" lon="5.77541">
        <ele>1251.8</ele>
        <time>2026-05-13T15:19:15Z</time>
      </trkpt>
      <trkpt lat="45.93074" lon="5.77541">
        <ele>1251.8</ele>
        <time>2026-05-13T15:19:16Z</time>
      </trkpt>
      <trkpt lat="45.93075" lon="5.77541">
        <ele>1252</ele>
        <time>2026-05-13T15:19:17Z</time>
      </trkpt>
      <trkpt lat="45.93077" lon="5.7754">
        <ele>1252.4</ele>
        <time>2026-05-13T15:19:18Z</time>
      </trkpt>
      <trkpt lat="45.93078" lon="5.7754">
        <ele>1252.6</ele>
        <time>2026-05-13T15:19:19Z</time>
      </trkpt>
      <trkpt lat="45.93079" lon="5.77539">
        <ele>1252.6</ele>
        <time>2026-05-13T15:19:20Z</time>
      </trkpt>
      <trkpt lat="45.9308" lon="5.77539">
        <ele>1253</ele>
        <time>2026-05-13T15:19:21Z</time>
      </trkpt>
      <trkpt lat="45.93082" lon="5.77539">
        <ele>1253</ele>
        <time>2026-05-13T15:19:22Z</time>
      </trkpt>
      <trkpt lat="45.93083" lon="5.77539">
        <ele>1253.6</ele>
        <time>2026-05-13T15:19:23Z</time>
      </trkpt>
      <trkpt lat="45.93084" lon="5.77538">
        <ele>1253.6</ele>
        <time>2026-05-13T15:19:24Z</time>
      </trkpt>
      <trkpt lat="45.93085" lon="5.77537">
        <ele>1254</ele>
        <time>2026-05-13T15:19:25Z</time>
      </trkpt>
      <trkpt lat="45.93086" lon="5.77536">
        <ele>1254</ele>
        <time>2026-05-13T15:19:26Z</time>
      </trkpt>
      <trkpt lat="45.93087" lon="5.77534">
        <ele>1254.2</ele>
        <time>2026-05-13T15:19:27Z</time>
      </trkpt>
      <trkpt lat="45.93088" lon="5.77534">
        <ele>1254.6</ele>
        <time>2026-05-13T15:19:28Z</time>
      </trkpt>
      <trkpt lat="45.93089" lon="5.77533">
        <ele>1254.6</ele>
        <time>2026-05-13T15:19:29Z</time>
      </trkpt>
      <trkpt lat="45.93091" lon="5.77532">
        <ele>1254.8</ele>
        <time>2026-05-13T15:19:30Z</time>
      </trkpt>
      <trkpt lat="45.93092" lon="5.77532">
        <ele>1255.2</ele>
        <time>2026-05-13T15:19:31Z</time>
      </trkpt>
      <trkpt lat="45.93093" lon="5.77531">
        <ele>1255.2</ele>
        <time>2026-05-13T15:19:32Z</time>
      </trkpt>
      <trkpt lat="45.93094" lon="5.7753">
        <ele>1255.6</ele>
        <time>2026-05-13T15:19:33Z</time>
      </trkpt>
      <trkpt lat="45.93095" lon="5.7753">
        <ele>1255.6</ele>
        <time>2026-05-13T15:19:34Z</time>
      </trkpt>
      <trkpt lat="45.93096" lon="5.77529">
        <ele>1255.8</ele>
        <time>2026-05-13T15:19:35Z</time>
      </trkpt>
      <trkpt lat="45.93097" lon="5.77527">
        <ele>1255.8</ele>
        <time>2026-05-13T15:19:36Z</time>
      </trkpt>
      <trkpt lat="45.93098" lon="5.77526">
        <ele>1255.8</ele>
        <time>2026-05-13T15:19:37Z</time>
      </trkpt>
      <trkpt lat="45.931" lon="5.77525">
        <ele>1255.8</ele>
        <time>2026-05-13T15:19:38Z</time>
      </trkpt>
      <trkpt lat="45.93101" lon="5.77524">
        <ele>1256.2</ele>
        <time>2026-05-13T15:19:39Z</time>
      </trkpt>
      <trkpt lat="45.93102" lon="5.77522">
        <ele>1256.2</ele>
        <time>2026-05-13T15:19:40Z</time>
      </trkpt>
      <trkpt lat="45.93103" lon="5.77521">
        <ele>1256.4</ele>
        <time>2026-05-13T15:19:41Z</time>
      </trkpt>
      <trkpt lat="45.93105" lon="5.7752">
        <ele>1256.4</ele>
        <time>2026-05-13T15:19:42Z</time>
      </trkpt>
      <trkpt lat="45.93106" lon="5.77519">
        <ele>1256.6</ele>
        <time>2026-05-13T15:19:43Z</time>
      </trkpt>
      <trkpt lat="45.93107" lon="5.77518">
        <ele>1256.8</ele>
        <time>2026-05-13T15:19:44Z</time>
      </trkpt>
      <trkpt lat="45.93108" lon="5.77517">
        <ele>1257</ele>
        <time>2026-05-13T15:19:45Z</time>
      </trkpt>
      <trkpt lat="45.93109" lon="5.77515">
        <ele>1257.2</ele>
        <time>2026-05-13T15:19:46Z</time>
      </trkpt>
      <trkpt lat="45.93111" lon="5.77514">
        <ele>1257.6</ele>
        <time>2026-05-13T15:19:47Z</time>
      </trkpt>
      <trkpt lat="45.93112" lon="5.77513">
        <ele>1257.6</ele>
        <time>2026-05-13T15:19:48Z</time>
      </trkpt>
      <trkpt lat="45.93114" lon="5.77511">
        <ele>1257.8</ele>
        <time>2026-05-13T15:19:49Z</time>
      </trkpt>
      <trkpt lat="45.93115" lon="5.7751">
        <ele>1257.8</ele>
        <time>2026-05-13T15:19:50Z</time>
      </trkpt>
      <trkpt lat="45.93117" lon="5.77509">
        <ele>1258</ele>
        <time>2026-05-13T15:19:51Z</time>
      </trkpt>
      <trkpt lat="45.93118" lon="5.77508">
        <ele>1258</ele>
        <time>2026-05-13T15:19:52Z</time>
      </trkpt>
      <trkpt lat="45.93119" lon="5.77507">
        <ele>1258.4</ele>
        <time>2026-05-13T15:19:53Z</time>
      </trkpt>
      <trkpt lat="45.93121" lon="5.77505">
        <ele>1258.4</ele>
        <time>2026-05-13T15:19:54Z</time>
      </trkpt>
      <trkpt lat="45.93122" lon="5.77504">
        <ele>1258.6</ele>
        <time>2026-05-13T15:19:55Z</time>
      </trkpt>
      <trkpt lat="45.93123" lon="5.77503">
        <ele>1258.6</ele>
        <time>2026-05-13T15:19:56Z</time>
      </trkpt>
      <trkpt lat="45.93124" lon="5.77502">
        <ele>1258.6</ele>
        <time>2026-05-13T15:19:57Z</time>
      </trkpt>
      <trkpt lat="45.93125" lon="5.77501">
        <ele>1258.8</ele>
        <time>2026-05-13T15:19:58Z</time>
      </trkpt>
      <trkpt lat="45.93127" lon="5.77499">
        <ele>1258.8</ele>
        <time>2026-05-13T15:19:59Z</time>
      </trkpt>
      <trkpt lat="45.93128" lon="5.77498">
        <ele>1258.8</ele>
        <time>2026-05-13T15:20:00Z</time>
      </trkpt>
      <trkpt lat="45.93129" lon="5.77497">
        <ele>1259.2</ele>
        <time>2026-05-13T15:20:01Z</time>
      </trkpt>
      <trkpt lat="45.93131" lon="5.77495">
        <ele>1259.2</ele>
        <time>2026-05-13T15:20:02Z</time>
      </trkpt>
      <trkpt lat="45.93132" lon="5.77494">
        <ele>1259.2</ele>
        <time>2026-05-13T15:20:03Z</time>
      </trkpt>
      <trkpt lat="45.93133" lon="5.77492">
        <ele>1259.8</ele>
        <time>2026-05-13T15:20:04Z</time>
      </trkpt>
      <trkpt lat="45.93134" lon="5.77491">
        <ele>1259.8</ele>
        <time>2026-05-13T15:20:05Z</time>
      </trkpt>
      <trkpt lat="45.93136" lon="5.77489">
        <ele>1260.2</ele>
        <time>2026-05-13T15:20:06Z</time>
      </trkpt>
      <trkpt lat="45.93137" lon="5.77488">
        <ele>1260.4</ele>
        <time>2026-05-13T15:20:07Z</time>
      </trkpt>
      <trkpt lat="45.93138" lon="5.77487">
        <ele>1260.6</ele>
        <time>2026-05-13T15:20:08Z</time>
      </trkpt>
      <trkpt lat="45.93139" lon="5.77485">
        <ele>1260.6</ele>
        <time>2026-05-13T15:20:09Z</time>
      </trkpt>
      <trkpt lat="45.9314" lon="5.77484">
        <ele>1260.8</ele>
        <time>2026-05-13T15:20:10Z</time>
      </trkpt>
      <trkpt lat="45.93141" lon="5.77483">
        <ele>1260.8</ele>
        <time>2026-05-13T15:20:11Z</time>
      </trkpt>
      <trkpt lat="45.93143" lon="5.77481">
        <ele>1260.8</ele>
        <time>2026-05-13T15:20:12Z</time>
      </trkpt>
      <trkpt lat="45.93144" lon="5.7748">
        <ele>1261.2</ele>
        <time>2026-05-13T15:20:13Z</time>
      </trkpt>
      <trkpt lat="45.93146" lon="5.77478">
        <ele>1261.4</ele>
        <time>2026-05-13T15:20:14Z</time>
      </trkpt>
      <trkpt lat="45.93147" lon="5.77477">
        <ele>1261.4</ele>
        <time>2026-05-13T15:20:15Z</time>
      </trkpt>
      <trkpt lat="45.93148" lon="5.77475">
        <ele>1261.4</ele>
        <time>2026-05-13T15:20:16Z</time>
      </trkpt>
      <trkpt lat="45.9315" lon="5.77473">
        <ele>1261.6</ele>
        <time>2026-05-13T15:20:17Z</time>
      </trkpt>
      <trkpt lat="45.93151" lon="5.77472">
        <ele>1261.6</ele>
        <time>2026-05-13T15:20:18Z</time>
      </trkpt>
      <trkpt lat="45.93154" lon="5.77469">
        <ele>1261.8</ele>
        <time>2026-05-13T15:20:19Z</time>
      </trkpt>
      <trkpt lat="45.93155" lon="5.77467">
        <ele>1261.8</ele>
        <time>2026-05-13T15:20:20Z</time>
      </trkpt>
      <trkpt lat="45.93156" lon="5.77466">
        <ele>1262</ele>
        <time>2026-05-13T15:20:21Z</time>
      </trkpt>
      <trkpt lat="45.93157" lon="5.77465">
        <ele>1262</ele>
        <time>2026-05-13T15:20:22Z</time>
      </trkpt>
      <trkpt lat="45.93158" lon="5.77464">
        <ele>1262.6</ele>
        <time>2026-05-13T15:20:23Z</time>
      </trkpt>
      <trkpt lat="45.93159" lon="5.77462">
        <ele>1262.6</ele>
        <time>2026-05-13T15:20:24Z</time>
      </trkpt>
      <trkpt lat="45.9316" lon="5.77461">
        <ele>1262.8</ele>
        <time>2026-05-13T15:20:25Z</time>
      </trkpt>
      <trkpt lat="45.93162" lon="5.77459">
        <ele>1262.8</ele>
        <time>2026-05-13T15:20:26Z</time>
      </trkpt>
      <trkpt lat="45.93163" lon="5.77457">
        <ele>1263</ele>
        <time>2026-05-13T15:20:27Z</time>
      </trkpt>
      <trkpt lat="45.93164" lon="5.77456">
        <ele>1263</ele>
        <time>2026-05-13T15:20:28Z</time>
      </trkpt>
      <trkpt lat="45.93165" lon="5.77455">
        <ele>1263.4</ele>
        <time>2026-05-13T15:20:29Z</time>
      </trkpt>
      <trkpt lat="45.93166" lon="5.77454">
        <ele>1263.6</ele>
        <time>2026-05-13T15:20:30Z</time>
      </trkpt>
      <trkpt lat="45.93167" lon="5.77452">
        <ele>1263.6</ele>
        <time>2026-05-13T15:20:31Z</time>
      </trkpt>
      <trkpt lat="45.93168" lon="5.77451">
        <ele>1263.8</ele>
        <time>2026-05-13T15:20:32Z</time>
      </trkpt>
      <trkpt lat="45.93169" lon="5.77449">
        <ele>1264</ele>
        <time>2026-05-13T15:20:33Z</time>
      </trkpt>
      <trkpt lat="45.9317" lon="5.77447">
        <ele>1264</ele>
        <time>2026-05-13T15:20:34Z</time>
      </trkpt>
      <trkpt lat="45.93171" lon="5.77446">
        <ele>1264</ele>
        <time>2026-05-13T15:20:35Z</time>
      </trkpt>
      <trkpt lat="45.93173" lon="5.77444">
        <ele>1264</ele>
        <time>2026-05-13T15:20:36Z</time>
      </trkpt>
      <trkpt lat="45.93174" lon="5.77442">
        <ele>1264.4</ele>
        <time>2026-05-13T15:20:37Z</time>
      </trkpt>
      <trkpt lat="45.93175" lon="5.7744">
        <ele>1264.6</ele>
        <time>2026-05-13T15:20:38Z</time>
      </trkpt>
      <trkpt lat="45.93176" lon="5.77438">
        <ele>1264.6</ele>
        <time>2026-05-13T15:20:39Z</time>
      </trkpt>
      <trkpt lat="45.93177" lon="5.77437">
        <ele>1264.6</ele>
        <time>2026-05-13T15:20:40Z</time>
      </trkpt>
      <trkpt lat="45.93178" lon="5.77435">
        <ele>1265</ele>
        <time>2026-05-13T15:20:41Z</time>
      </trkpt>
      <trkpt lat="45.93179" lon="5.77433">
        <ele>1265</ele>
        <time>2026-05-13T15:20:42Z</time>
      </trkpt>
      <trkpt lat="45.9318" lon="5.77432">
        <ele>1265.2</ele>
        <time>2026-05-13T15:20:43Z</time>
      </trkpt>
      <trkpt lat="45.93181" lon="5.7743">
        <ele>1265.4</ele>
        <time>2026-05-13T15:20:44Z</time>
      </trkpt>
      <trkpt lat="45.93183" lon="5.77429">
        <ele>1265.4</ele>
        <time>2026-05-13T15:20:45Z</time>
      </trkpt>
      <trkpt lat="45.93184" lon="5.77428">
        <ele>1265.4</ele>
        <time>2026-05-13T15:20:46Z</time>
      </trkpt>
      <trkpt lat="45.93185" lon="5.77426">
        <ele>1266</ele>
        <time>2026-05-13T15:20:47Z</time>
      </trkpt>
      <trkpt lat="45.93186" lon="5.77425">
        <ele>1266</ele>
        <time>2026-05-13T15:20:48Z</time>
      </trkpt>
      <trkpt lat="45.93187" lon="5.77423">
        <ele>1266</ele>
        <time>2026-05-13T15:20:49Z</time>
      </trkpt>
      <trkpt lat="45.93188" lon="5.77422">
        <ele>1266</ele>
        <time>2026-05-13T15:20:50Z</time>
      </trkpt>
      <trkpt lat="45.93189" lon="5.77421">
        <ele>1266.2</ele>
        <time>2026-05-13T15:20:51Z</time>
      </trkpt>
      <trkpt lat="45.9319" lon="5.77419">
        <ele>1266.2</ele>
        <time>2026-05-13T15:20:52Z</time>
      </trkpt>
      <trkpt lat="45.93191" lon="5.77418">
        <ele>1266.2</ele>
        <time>2026-05-13T15:20:53Z</time>
      </trkpt>
      <trkpt lat="45.93192" lon="5.77417">
        <ele>1266.4</ele>
        <time>2026-05-13T15:20:54Z</time>
      </trkpt>
      <trkpt lat="45.93193" lon="5.77415">
        <ele>1266.6</ele>
        <time>2026-05-13T15:20:55Z</time>
      </trkpt>
      <trkpt lat="45.93195" lon="5.77414">
        <ele>1266.6</ele>
        <time>2026-05-13T15:20:56Z</time>
      </trkpt>
      <trkpt lat="45.93196" lon="5.77412">
        <ele>1267</ele>
        <time>2026-05-13T15:20:57Z</time>
      </trkpt>
      <trkpt lat="45.93197" lon="5.77411">
        <ele>1267</ele>
        <time>2026-05-13T15:20:58Z</time>
      </trkpt>
      <trkpt lat="45.93198" lon="5.7741">
        <ele>1267</ele>
        <time>2026-05-13T15:20:59Z</time>
      </trkpt>
      <trkpt lat="45.93199" lon="5.77409">
        <ele>1267.2</ele>
        <time>2026-05-13T15:21:00Z</time>
      </trkpt>
      <trkpt lat="45.932" lon="5.77407">
        <ele>1267.2</ele>
        <time>2026-05-13T15:21:01Z</time>
      </trkpt>
      <trkpt lat="45.93201" lon="5.77406">
        <ele>1267.6</ele>
        <time>2026-05-13T15:21:02Z</time>
      </trkpt>
      <trkpt lat="45.93202" lon="5.77405">
        <ele>1267.6</ele>
        <time>2026-05-13T15:21:03Z</time>
      </trkpt>
      <trkpt lat="45.93203" lon="5.77404">
        <ele>1267.8</ele>
        <time>2026-05-13T15:21:04Z</time>
      </trkpt>
      <trkpt lat="45.93204" lon="5.77403">
        <ele>1267.8</ele>
        <time>2026-05-13T15:21:05Z</time>
      </trkpt>
      <trkpt lat="45.93206" lon="5.77401">
        <ele>1267.8</ele>
        <time>2026-05-13T15:21:06Z</time>
      </trkpt>
      <trkpt lat="45.93207" lon="5.774">
        <ele>1268.2</ele>
        <time>2026-05-13T15:21:07Z</time>
      </trkpt>
      <trkpt lat="45.93208" lon="5.77398">
        <ele>1268.2</ele>
        <time>2026-05-13T15:21:08Z</time>
      </trkpt>
      <trkpt lat="45.93209" lon="5.77397">
        <ele>1268.2</ele>
        <time>2026-05-13T15:21:09Z</time>
      </trkpt>
      <trkpt lat="45.93211" lon="5.77397">
        <ele>1268.8</ele>
        <time>2026-05-13T15:21:10Z</time>
      </trkpt>
      <trkpt lat="45.93212" lon="5.77396">
        <ele>1269</ele>
        <time>2026-05-13T15:21:11Z</time>
      </trkpt>
      <trkpt lat="45.93213" lon="5.77395">
        <ele>1269</ele>
        <time>2026-05-13T15:21:12Z</time>
      </trkpt>
      <trkpt lat="45.93215" lon="5.77394">
        <ele>1269.4</ele>
        <time>2026-05-13T15:21:13Z</time>
      </trkpt>
      <trkpt lat="45.93216" lon="5.77394">
        <ele>1269.4</ele>
        <time>2026-05-13T15:21:14Z</time>
      </trkpt>
      <trkpt lat="45.93218" lon="5.77393">
        <ele>1269.4</ele>
        <time>2026-05-13T15:21:15Z</time>
      </trkpt>
      <trkpt lat="45.9322" lon="5.77393">
        <ele>1269.6</ele>
        <time>2026-05-13T15:21:16Z</time>
      </trkpt>
      <trkpt lat="45.93222" lon="5.77394">
        <ele>1269.6</ele>
        <time>2026-05-13T15:21:17Z</time>
      </trkpt>
      <trkpt lat="45.93224" lon="5.77394">
        <ele>1270</ele>
        <time>2026-05-13T15:21:18Z</time>
      </trkpt>
      <trkpt lat="45.93226" lon="5.77394">
        <ele>1270.2</ele>
        <time>2026-05-13T15:21:19Z</time>
      </trkpt>
      <trkpt lat="45.93227" lon="5.77394">
        <ele>1270.2</ele>
        <time>2026-05-13T15:21:20Z</time>
      </trkpt>
      <trkpt lat="45.93228" lon="5.77394">
        <ele>1270.4</ele>
        <time>2026-05-13T15:21:21Z</time>
      </trkpt>
      <trkpt lat="45.93229" lon="5.77393">
        <ele>1270.6</ele>
        <time>2026-05-13T15:21:22Z</time>
      </trkpt>
      <trkpt lat="45.93231" lon="5.77393">
        <ele>1271</ele>
        <time>2026-05-13T15:21:23Z</time>
      </trkpt>
      <trkpt lat="45.93232" lon="5.77393">
        <ele>1271</ele>
        <time>2026-05-13T15:21:24Z</time>
      </trkpt>
      <trkpt lat="45.93234" lon="5.77393">
        <ele>1271</ele>
        <time>2026-05-13T15:21:25Z</time>
      </trkpt>
      <trkpt lat="45.93236" lon="5.77394">
        <ele>1271.2</ele>
        <time>2026-05-13T15:21:26Z</time>
      </trkpt>
      <trkpt lat="45.93237" lon="5.77394">
        <ele>1271.2</ele>
        <time>2026-05-13T15:21:27Z</time>
      </trkpt>
      <trkpt lat="45.93238" lon="5.77394">
        <ele>1271.6</ele>
        <time>2026-05-13T15:21:28Z</time>
      </trkpt>
      <trkpt lat="45.9324" lon="5.77394">
        <ele>1272</ele>
        <time>2026-05-13T15:21:29Z</time>
      </trkpt>
      <trkpt lat="45.93241" lon="5.77395">
        <ele>1272</ele>
        <time>2026-05-13T15:21:30Z</time>
      </trkpt>
      <trkpt lat="45.93242" lon="5.77395">
        <ele>1272.4</ele>
        <time>2026-05-13T15:21:31Z</time>
      </trkpt>
      <trkpt lat="45.93243" lon="5.77395">
        <ele>1272.4</ele>
        <time>2026-05-13T15:21:32Z</time>
      </trkpt>
      <trkpt lat="45.93245" lon="5.77396">
        <ele>1272.4</ele>
        <time>2026-05-13T15:21:33Z</time>
      </trkpt>
      <trkpt lat="45.93247" lon="5.77396">
        <ele>1272.8</ele>
        <time>2026-05-13T15:21:34Z</time>
      </trkpt>
      <trkpt lat="45.93248" lon="5.77397">
        <ele>1272.8</ele>
        <time>2026-05-13T15:21:35Z</time>
      </trkpt>
      <trkpt lat="45.9325" lon="5.77398">
        <ele>1272.8</ele>
        <time>2026-05-13T15:21:36Z</time>
      </trkpt>
      <trkpt lat="45.93252" lon="5.77398">
        <ele>1273</ele>
        <time>2026-05-13T15:21:37Z</time>
      </trkpt>
      <trkpt lat="45.93254" lon="5.77398">
        <ele>1273.2</ele>
        <time>2026-05-13T15:21:38Z</time>
      </trkpt>
      <trkpt lat="45.93255" lon="5.77399">
        <ele>1273.2</ele>
        <time>2026-05-13T15:21:39Z</time>
      </trkpt>
      <trkpt lat="45.93257" lon="5.774">
        <ele>1273.2</ele>
        <time>2026-05-13T15:21:40Z</time>
      </trkpt>
      <trkpt lat="45.93259" lon="5.774">
        <ele>1273.4</ele>
        <time>2026-05-13T15:21:41Z</time>
      </trkpt>
      <trkpt lat="45.93261" lon="5.774">
        <ele>1273.4</ele>
        <time>2026-05-13T15:21:42Z</time>
      </trkpt>
      <trkpt lat="45.93263" lon="5.774">
        <ele>1273.4</ele>
        <time>2026-05-13T15:21:43Z</time>
      </trkpt>
      <trkpt lat="45.93265" lon="5.774">
        <ele>1273.4</ele>
        <time>2026-05-13T15:21:44Z</time>
      </trkpt>
      <trkpt lat="45.93267" lon="5.774">
        <ele>1273.8</ele>
        <time>2026-05-13T15:21:45Z</time>
      </trkpt>
      <trkpt lat="45.93269" lon="5.774">
        <ele>1273.8</ele>
        <time>2026-05-13T15:21:46Z</time>
      </trkpt>
      <trkpt lat="45.93271" lon="5.77399">
        <ele>1274</ele>
        <time>2026-05-13T15:21:47Z</time>
      </trkpt>
      <trkpt lat="45.93273" lon="5.77399">
        <ele>1274</ele>
        <time>2026-05-13T15:21:48Z</time>
      </trkpt>
      <trkpt lat="45.93274" lon="5.77398">
        <ele>1274</ele>
        <time>2026-05-13T15:21:49Z</time>
      </trkpt>
      <trkpt lat="45.93276" lon="5.77398">
        <ele>1274</ele>
        <time>2026-05-13T15:21:50Z</time>
      </trkpt>
      <trkpt lat="45.93278" lon="5.77398">
        <ele>1274</ele>
        <time>2026-05-13T15:21:51Z</time>
      </trkpt>
      <trkpt lat="45.9328" lon="5.77397">
        <ele>1274</ele>
        <time>2026-05-13T15:21:52Z</time>
      </trkpt>
      <trkpt lat="45.93282" lon="5.77396">
        <ele>1274</ele>
        <time>2026-05-13T15:21:53Z</time>
      </trkpt>
      <trkpt lat="45.93284" lon="5.77395">
        <ele>1274</ele>
        <time>2026-05-13T15:21:54Z</time>
      </trkpt>
      <trkpt lat="45.93286" lon="5.77394">
        <ele>1274.2</ele>
        <time>2026-05-13T15:21:55Z</time>
      </trkpt>
      <trkpt lat="45.93287" lon="5.77392">
        <ele>1274.2</ele>
        <time>2026-05-13T15:21:56Z</time>
      </trkpt>
      <trkpt lat="45.93289" lon="5.77391">
        <ele>1274.2</ele>
        <time>2026-05-13T15:21:57Z</time>
      </trkpt>
      <trkpt lat="45.9329" lon="5.7739">
        <ele>1274.2</ele>
        <time>2026-05-13T15:21:58Z</time>
      </trkpt>
      <trkpt lat="45.93292" lon="5.77388">
        <ele>1274.2</ele>
        <time>2026-05-13T15:21:59Z</time>
      </trkpt>
      <trkpt lat="45.93293" lon="5.77387">
        <ele>1274.2</ele>
        <time>2026-05-13T15:22:00Z</time>
      </trkpt>
      <trkpt lat="45.93293" lon="5.77387">
        <ele>1274.2</ele>
        <time>2026-05-13T15:22:01Z</time>
      </trkpt>
      <trkpt lat="45.93295" lon="5.77385">
        <ele>1274.8</ele>
        <time>2026-05-13T15:22:02Z</time>
      </trkpt>
      <trkpt lat="45.93296" lon="5.77383">
        <ele>1274.8</ele>
        <time>2026-05-13T15:22:03Z</time>
      </trkpt>
      <trkpt lat="45.93298" lon="5.77381">
        <ele>1274.8</ele>
        <time>2026-05-13T15:22:04Z</time>
      </trkpt>
      <trkpt lat="45.93299" lon="5.77379">
        <ele>1275</ele>
        <time>2026-05-13T15:22:05Z</time>
      </trkpt>
      <trkpt lat="45.93301" lon="5.77377">
        <ele>1275</ele>
        <time>2026-05-13T15:22:06Z</time>
      </trkpt>
      <trkpt lat="45.93302" lon="5.77375">
        <ele>1275.2</ele>
        <time>2026-05-13T15:22:07Z</time>
      </trkpt>
      <trkpt lat="45.93303" lon="5.77374">
        <ele>1275.4</ele>
        <time>2026-05-13T15:22:08Z</time>
      </trkpt>
      <trkpt lat="45.93305" lon="5.77373">
        <ele>1275.4</ele>
        <time>2026-05-13T15:22:09Z</time>
      </trkpt>
      <trkpt lat="45.93306" lon="5.77371">
        <ele>1275.8</ele>
        <time>2026-05-13T15:22:10Z</time>
      </trkpt>
      <trkpt lat="45.93307" lon="5.7737">
        <ele>1275.8</ele>
        <time>2026-05-13T15:22:11Z</time>
      </trkpt>
      <trkpt lat="45.93308" lon="5.77369">
        <ele>1275.8</ele>
        <time>2026-05-13T15:22:12Z</time>
      </trkpt>
      <trkpt lat="45.93309" lon="5.77367">
        <ele>1276.2</ele>
        <time>2026-05-13T15:22:13Z</time>
      </trkpt>
      <trkpt lat="45.9331" lon="5.77366">
        <ele>1276.2</ele>
        <time>2026-05-13T15:22:14Z</time>
      </trkpt>
      <trkpt lat="45.93312" lon="5.77364">
        <ele>1276.2</ele>
        <time>2026-05-13T15:22:15Z</time>
      </trkpt>
      <trkpt lat="45.93313" lon="5.77362">
        <ele>1276.4</ele>
        <time>2026-05-13T15:22:16Z</time>
      </trkpt>
      <trkpt lat="45.93314" lon="5.77361">
        <ele>1276.4</ele>
        <time>2026-05-13T15:22:17Z</time>
      </trkpt>
      <trkpt lat="45.93315" lon="5.77359">
        <ele>1276.6</ele>
        <time>2026-05-13T15:22:18Z</time>
      </trkpt>
      <trkpt lat="45.93317" lon="5.77358">
        <ele>1276.8</ele>
        <time>2026-05-13T15:22:19Z</time>
      </trkpt>
      <trkpt lat="45.93318" lon="5.77357">
        <ele>1276.8</ele>
        <time>2026-05-13T15:22:20Z</time>
      </trkpt>
      <trkpt lat="45.9332" lon="5.77356">
        <ele>1277.2</ele>
        <time>2026-05-13T15:22:21Z</time>
      </trkpt>
      <trkpt lat="45.93321" lon="5.77355">
        <ele>1277.6</ele>
        <time>2026-05-13T15:22:22Z</time>
      </trkpt>
      <trkpt lat="45.93322" lon="5.77353">
        <ele>1277.6</ele>
        <time>2026-05-13T15:22:23Z</time>
      </trkpt>
      <trkpt lat="45.93323" lon="5.77352">
        <ele>1278</ele>
        <time>2026-05-13T15:22:24Z</time>
      </trkpt>
      <trkpt lat="45.93324" lon="5.77351">
        <ele>1278.2</ele>
        <time>2026-05-13T15:22:25Z</time>
      </trkpt>
      <trkpt lat="45.93325" lon="5.7735">
        <ele>1278.2</ele>
        <time>2026-05-13T15:22:26Z</time>
      </trkpt>
      <trkpt lat="45.93327" lon="5.7735">
        <ele>1278.6</ele>
        <time>2026-05-13T15:22:27Z</time>
      </trkpt>
      <trkpt lat="45.93328" lon="5.77349">
        <ele>1278.6</ele>
        <time>2026-05-13T15:22:28Z</time>
      </trkpt>
      <trkpt lat="45.93329" lon="5.77349">
        <ele>1279</ele>
        <time>2026-05-13T15:22:29Z</time>
      </trkpt>
      <trkpt lat="45.9333" lon="5.77349">
        <ele>1279.2</ele>
        <time>2026-05-13T15:22:30Z</time>
      </trkpt>
      <trkpt lat="45.93331" lon="5.77349">
        <ele>1279.2</ele>
        <time>2026-05-13T15:22:31Z</time>
      </trkpt>
      <trkpt lat="45.93332" lon="5.77348">
        <ele>1279.2</ele>
        <time>2026-05-13T15:22:32Z</time>
      </trkpt>
      <trkpt lat="45.93333" lon="5.77349">
        <ele>1279.8</ele>
        <time>2026-05-13T15:22:33Z</time>
      </trkpt>
      <trkpt lat="45.93335" lon="5.77349">
        <ele>1279.8</ele>
        <time>2026-05-13T15:22:34Z</time>
      </trkpt>
      <trkpt lat="45.93336" lon="5.7735">
        <ele>1280</ele>
        <time>2026-05-13T15:22:35Z</time>
      </trkpt>
      <trkpt lat="45.93337" lon="5.7735">
        <ele>1280.4</ele>
        <time>2026-05-13T15:22:36Z</time>
      </trkpt>
      <trkpt lat="45.93339" lon="5.7735">
        <ele>1280.6</ele>
        <time>2026-05-13T15:22:37Z</time>
      </trkpt>
      <trkpt lat="45.9334" lon="5.7735">
        <ele>1281</ele>
        <time>2026-05-13T15:22:38Z</time>
      </trkpt>
      <trkpt lat="45.93341" lon="5.7735">
        <ele>1281</ele>
        <time>2026-05-13T15:22:39Z</time>
      </trkpt>
      <trkpt lat="45.93342" lon="5.7735">
        <ele>1281</ele>
        <time>2026-05-13T15:22:40Z</time>
      </trkpt>
      <trkpt lat="45.93344" lon="5.7735">
        <ele>1281.2</ele>
        <time>2026-05-13T15:22:41Z</time>
      </trkpt>
      <trkpt lat="45.93345" lon="5.77351">
        <ele>1281.2</ele>
        <time>2026-05-13T15:22:42Z</time>
      </trkpt>
      <trkpt lat="45.93346" lon="5.77351">
        <ele>1281.8</ele>
        <time>2026-05-13T15:22:43Z</time>
      </trkpt>
      <trkpt lat="45.93347" lon="5.77351">
        <ele>1282</ele>
        <time>2026-05-13T15:22:44Z</time>
      </trkpt>
      <trkpt lat="45.93348" lon="5.77351">
        <ele>1282</ele>
        <time>2026-05-13T15:22:45Z</time>
      </trkpt>
      <trkpt lat="45.9335" lon="5.77351">
        <ele>1282.4</ele>
        <time>2026-05-13T15:22:46Z</time>
      </trkpt>
      <trkpt lat="45.93351" lon="5.77352">
        <ele>1282.4</ele>
        <time>2026-05-13T15:22:47Z</time>
      </trkpt>
      <trkpt lat="45.93352" lon="5.77352">
        <ele>1282.8</ele>
        <time>2026-05-13T15:22:48Z</time>
      </trkpt>
      <trkpt lat="45.93353" lon="5.77351">
        <ele>1282.8</ele>
        <time>2026-05-13T15:22:49Z</time>
      </trkpt>
      <trkpt lat="45.93354" lon="5.77351">
        <ele>1283.2</ele>
        <time>2026-05-13T15:22:50Z</time>
      </trkpt>
      <trkpt lat="45.93356" lon="5.77351">
        <ele>1283.2</ele>
        <time>2026-05-13T15:22:51Z</time>
      </trkpt>
      <trkpt lat="45.93357" lon="5.77351">
        <ele>1283.4</ele>
        <time>2026-05-13T15:22:52Z</time>
      </trkpt>
      <trkpt lat="45.93358" lon="5.77351">
        <ele>1283.8</ele>
        <time>2026-05-13T15:22:53Z</time>
      </trkpt>
      <trkpt lat="45.93359" lon="5.77351">
        <ele>1284.2</ele>
        <time>2026-05-13T15:22:54Z</time>
      </trkpt>
      <trkpt lat="45.9336" lon="5.7735">
        <ele>1284.4</ele>
        <time>2026-05-13T15:22:55Z</time>
      </trkpt>
      <trkpt lat="45.93361" lon="5.77349">
        <ele>1284.8</ele>
        <time>2026-05-13T15:22:56Z</time>
      </trkpt>
      <trkpt lat="45.93362" lon="5.77348">
        <ele>1284.8</ele>
        <time>2026-05-13T15:22:57Z</time>
      </trkpt>
      <trkpt lat="45.93363" lon="5.77346">
        <ele>1285</ele>
        <time>2026-05-13T15:22:58Z</time>
      </trkpt>
      <trkpt lat="45.93364" lon="5.77345">
        <ele>1285.2</ele>
        <time>2026-05-13T15:22:59Z</time>
      </trkpt>
      <trkpt lat="45.93364" lon="5.77344">
        <ele>1285.2</ele>
        <time>2026-05-13T15:23:00Z</time>
      </trkpt>
      <trkpt lat="45.93365" lon="5.77343">
        <ele>1285.2</ele>
        <time>2026-05-13T15:23:01Z</time>
      </trkpt>
      <trkpt lat="45.93366" lon="5.77342">
        <ele>1285.8</ele>
        <time>2026-05-13T15:23:02Z</time>
      </trkpt>
      <trkpt lat="45.93367" lon="5.77341">
        <ele>1286</ele>
        <time>2026-05-13T15:23:03Z</time>
      </trkpt>
      <trkpt lat="45.93367" lon="5.77339">
        <ele>1286</ele>
        <time>2026-05-13T15:23:04Z</time>
      </trkpt>
      <trkpt lat="45.93368" lon="5.77337">
        <ele>1286.4</ele>
        <time>2026-05-13T15:23:05Z</time>
      </trkpt>
      <trkpt lat="45.93368" lon="5.77336">
        <ele>1286.6</ele>
        <time>2026-05-13T15:23:06Z</time>
      </trkpt>
      <trkpt lat="45.93368" lon="5.77334">
        <ele>1287</ele>
        <time>2026-05-13T15:23:07Z</time>
      </trkpt>
      <trkpt lat="45.93369" lon="5.77332">
        <ele>1287</ele>
        <time>2026-05-13T15:23:08Z</time>
      </trkpt>
      <trkpt lat="45.93369" lon="5.77331">
        <ele>1287</ele>
        <time>2026-05-13T15:23:09Z</time>
      </trkpt>
      <trkpt lat="45.93369" lon="5.77329">
        <ele>1287.4</ele>
        <time>2026-05-13T15:23:10Z</time>
      </trkpt>
      <trkpt lat="45.9337" lon="5.77328">
        <ele>1287.4</ele>
        <time>2026-05-13T15:23:11Z</time>
      </trkpt>
      <trkpt lat="45.9337" lon="5.77326">
        <ele>1287.6</ele>
        <time>2026-05-13T15:23:12Z</time>
      </trkpt>
      <trkpt lat="45.93371" lon="5.77325">
        <ele>1287.6</ele>
        <time>2026-05-13T15:23:13Z</time>
      </trkpt>
      <trkpt lat="45.93371" lon="5.77324">
        <ele>1287.6</ele>
        <time>2026-05-13T15:23:14Z</time>
      </trkpt>
      <trkpt lat="45.93372" lon="5.77322">
        <ele>1287.8</ele>
        <time>2026-05-13T15:23:15Z</time>
      </trkpt>
      <trkpt lat="45.93372" lon="5.7732">
        <ele>1287.8</ele>
        <time>2026-05-13T15:23:16Z</time>
      </trkpt>
      <trkpt lat="45.93372" lon="5.77318">
        <ele>1288.2</ele>
        <time>2026-05-13T15:23:17Z</time>
      </trkpt>
      <trkpt lat="45.93372" lon="5.77315">
        <ele>1288.6</ele>
        <time>2026-05-13T15:23:18Z</time>
      </trkpt>
      <trkpt lat="45.93372" lon="5.77313">
        <ele>1288.6</ele>
        <time>2026-05-13T15:23:19Z</time>
      </trkpt>
      <trkpt lat="45.93372" lon="5.77311">
        <ele>1288.6</ele>
        <time>2026-05-13T15:23:20Z</time>
      </trkpt>
      <trkpt lat="45.93373" lon="5.7731">
        <ele>1288.6</ele>
        <time>2026-05-13T15:23:21Z</time>
      </trkpt>
      <trkpt lat="45.93373" lon="5.77308">
        <ele>1288.8</ele>
        <time>2026-05-13T15:23:22Z</time>
      </trkpt>
      <trkpt lat="45.93373" lon="5.77306">
        <ele>1288.8</ele>
        <time>2026-05-13T15:23:23Z</time>
      </trkpt>
      <trkpt lat="45.93374" lon="5.77304">
        <ele>1288.8</ele>
        <time>2026-05-13T15:23:24Z</time>
      </trkpt>
      <trkpt lat="45.93374" lon="5.77302">
        <ele>1289.2</ele>
        <time>2026-05-13T15:23:25Z</time>
      </trkpt>
      <trkpt lat="45.93375" lon="5.773">
        <ele>1289.2</ele>
        <time>2026-05-13T15:23:26Z</time>
      </trkpt>
      <trkpt lat="45.93375" lon="5.77298">
        <ele>1289.2</ele>
        <time>2026-05-13T15:23:27Z</time>
      </trkpt>
      <trkpt lat="45.93376" lon="5.77296">
        <ele>1289.4</ele>
        <time>2026-05-13T15:23:28Z</time>
      </trkpt>
      <trkpt lat="45.93377" lon="5.77294">
        <ele>1289.4</ele>
        <time>2026-05-13T15:23:29Z</time>
      </trkpt>
      <trkpt lat="45.93378" lon="5.77292">
        <ele>1289.8</ele>
        <time>2026-05-13T15:23:30Z</time>
      </trkpt>
      <trkpt lat="45.93378" lon="5.7729">
        <ele>1289.8</ele>
        <time>2026-05-13T15:23:31Z</time>
      </trkpt>
      <trkpt lat="45.93379" lon="5.77288">
        <ele>1289.8</ele>
        <time>2026-05-13T15:23:32Z</time>
      </trkpt>
      <trkpt lat="45.9338" lon="5.77286">
        <ele>1289.8</ele>
        <time>2026-05-13T15:23:33Z</time>
      </trkpt>
      <trkpt lat="45.93381" lon="5.77284">
        <ele>1289.8</ele>
        <time>2026-05-13T15:23:34Z</time>
      </trkpt>
      <trkpt lat="45.93382" lon="5.77282">
        <ele>1290</ele>
        <time>2026-05-13T15:23:35Z</time>
      </trkpt>
      <trkpt lat="45.93384" lon="5.77279">
        <ele>1290</ele>
        <time>2026-05-13T15:23:36Z</time>
      </trkpt>
      <trkpt lat="45.93385" lon="5.77277">
        <ele>1290</ele>
        <time>2026-05-13T15:23:37Z</time>
      </trkpt>
      <trkpt lat="45.93386" lon="5.77276">
        <ele>1290</ele>
        <time>2026-05-13T15:23:38Z</time>
      </trkpt>
      <trkpt lat="45.93387" lon="5.77274">
        <ele>1290</ele>
        <time>2026-05-13T15:23:39Z</time>
      </trkpt>
      <trkpt lat="45.93388" lon="5.77272">
        <ele>1290</ele>
        <time>2026-05-13T15:23:40Z</time>
      </trkpt>
      <trkpt lat="45.9339" lon="5.77271">
        <ele>1290.4</ele>
        <time>2026-05-13T15:23:41Z</time>
      </trkpt>
      <trkpt lat="45.93391" lon="5.77269">
        <ele>1290.4</ele>
        <time>2026-05-13T15:23:42Z</time>
      </trkpt>
      <trkpt lat="45.93393" lon="5.77268">
        <ele>1290.4</ele>
        <time>2026-05-13T15:23:43Z</time>
      </trkpt>
      <trkpt lat="45.93394" lon="5.77266">
        <ele>1290.4</ele>
        <time>2026-05-13T15:23:44Z</time>
      </trkpt>
      <trkpt lat="45.93395" lon="5.77265">
        <ele>1290.6</ele>
        <time>2026-05-13T15:23:45Z</time>
      </trkpt>
      <trkpt lat="45.93397" lon="5.77263">
        <ele>1290.6</ele>
        <time>2026-05-13T15:23:46Z</time>
      </trkpt>
      <trkpt lat="45.93398" lon="5.77262">
        <ele>1290.8</ele>
        <time>2026-05-13T15:23:47Z</time>
      </trkpt>
      <trkpt lat="45.93399" lon="5.7726">
        <ele>1290.8</ele>
        <time>2026-05-13T15:23:48Z</time>
      </trkpt>
      <trkpt lat="45.93401" lon="5.77259">
        <ele>1291.2</ele>
        <time>2026-05-13T15:23:49Z</time>
      </trkpt>
      <trkpt lat="45.93402" lon="5.77258">
        <ele>1291.2</ele>
        <time>2026-05-13T15:23:50Z</time>
      </trkpt>
      <trkpt lat="45.93403" lon="5.77256">
        <ele>1291.4</ele>
        <time>2026-05-13T15:23:51Z</time>
      </trkpt>
      <trkpt lat="45.93405" lon="5.77255">
        <ele>1291.4</ele>
        <time>2026-05-13T15:23:52Z</time>
      </trkpt>
      <trkpt lat="45.93406" lon="5.77253">
        <ele>1291.6</ele>
        <time>2026-05-13T15:23:53Z</time>
      </trkpt>
      <trkpt lat="45.93407" lon="5.77252">
        <ele>1291.6</ele>
        <time>2026-05-13T15:23:54Z</time>
      </trkpt>
      <trkpt lat="45.93408" lon="5.77251">
        <ele>1291.6</ele>
        <time>2026-05-13T15:23:55Z</time>
      </trkpt>
      <trkpt lat="45.9341" lon="5.77249">
        <ele>1291.6</ele>
        <time>2026-05-13T15:23:56Z</time>
      </trkpt>
      <trkpt lat="45.93411" lon="5.77248">
        <ele>1291.8</ele>
        <time>2026-05-13T15:23:57Z</time>
      </trkpt>
      <trkpt lat="45.93412" lon="5.77247">
        <ele>1291.8</ele>
        <time>2026-05-13T15:23:58Z</time>
      </trkpt>
      <trkpt lat="45.93413" lon="5.77245">
        <ele>1292.2</ele>
        <time>2026-05-13T15:23:59Z</time>
      </trkpt>
      <trkpt lat="45.93414" lon="5.77244">
        <ele>1292.2</ele>
        <time>2026-05-13T15:24:00Z</time>
      </trkpt>
      <trkpt lat="45.93415" lon="5.77243">
        <ele>1292.6</ele>
        <time>2026-05-13T15:24:01Z</time>
      </trkpt>
      <trkpt lat="45.93417" lon="5.77241">
        <ele>1292.6</ele>
        <time>2026-05-13T15:24:02Z</time>
      </trkpt>
      <trkpt lat="45.93418" lon="5.7724">
        <ele>1292.8</ele>
        <time>2026-05-13T15:24:03Z</time>
      </trkpt>
      <trkpt lat="45.9342" lon="5.77239">
        <ele>1293</ele>
        <time>2026-05-13T15:24:04Z</time>
      </trkpt>
      <trkpt lat="45.93421" lon="5.77238">
        <ele>1293.4</ele>
        <time>2026-05-13T15:24:05Z</time>
      </trkpt>
      <trkpt lat="45.93422" lon="5.77237">
        <ele>1293.8</ele>
        <time>2026-05-13T15:24:06Z</time>
      </trkpt>
      <trkpt lat="45.93424" lon="5.77236">
        <ele>1293.8</ele>
        <time>2026-05-13T15:24:07Z</time>
      </trkpt>
      <trkpt lat="45.93425" lon="5.77235">
        <ele>1294.2</ele>
        <time>2026-05-13T15:24:08Z</time>
      </trkpt>
      <trkpt lat="45.93426" lon="5.77234">
        <ele>1294.6</ele>
        <time>2026-05-13T15:24:09Z</time>
      </trkpt>
      <trkpt lat="45.93427" lon="5.77233">
        <ele>1294.6</ele>
        <time>2026-05-13T15:24:10Z</time>
      </trkpt>
      <trkpt lat="45.93429" lon="5.77232">
        <ele>1295</ele>
        <time>2026-05-13T15:24:11Z</time>
      </trkpt>
      <trkpt lat="45.9343" lon="5.77231">
        <ele>1295</ele>
        <time>2026-05-13T15:24:12Z</time>
      </trkpt>
      <trkpt lat="45.93431" lon="5.77229">
        <ele>1295</ele>
        <time>2026-05-13T15:24:13Z</time>
      </trkpt>
      <trkpt lat="45.93433" lon="5.77228">
        <ele>1295</ele>
        <time>2026-05-13T15:24:14Z</time>
      </trkpt>
      <trkpt lat="45.93435" lon="5.77227">
        <ele>1295.2</ele>
        <time>2026-05-13T15:24:15Z</time>
      </trkpt>
      <trkpt lat="45.93436" lon="5.77227">
        <ele>1295.6</ele>
        <time>2026-05-13T15:24:16Z</time>
      </trkpt>
      <trkpt lat="45.93438" lon="5.77226">
        <ele>1295.6</ele>
        <time>2026-05-13T15:24:17Z</time>
      </trkpt>
      <trkpt lat="45.93439" lon="5.77225">
        <ele>1295.6</ele>
        <time>2026-05-13T15:24:18Z</time>
      </trkpt>
      <trkpt lat="45.93441" lon="5.77224">
        <ele>1295.6</ele>
        <time>2026-05-13T15:24:19Z</time>
      </trkpt>
      <trkpt lat="45.93442" lon="5.77223">
        <ele>1295.8</ele>
        <time>2026-05-13T15:24:20Z</time>
      </trkpt>
      <trkpt lat="45.93444" lon="5.77223">
        <ele>1296.2</ele>
        <time>2026-05-13T15:24:21Z</time>
      </trkpt>
      <trkpt lat="45.93446" lon="5.77222">
        <ele>1296.2</ele>
        <time>2026-05-13T15:24:22Z</time>
      </trkpt>
      <trkpt lat="45.93447" lon="5.77221">
        <ele>1296.4</ele>
        <time>2026-05-13T15:24:23Z</time>
      </trkpt>
      <trkpt lat="45.93449" lon="5.77221">
        <ele>1296.4</ele>
        <time>2026-05-13T15:24:24Z</time>
      </trkpt>
      <trkpt lat="45.93451" lon="5.77221">
        <ele>1296.8</ele>
        <time>2026-05-13T15:24:25Z</time>
      </trkpt>
      <trkpt lat="45.93452" lon="5.77221">
        <ele>1296.8</ele>
        <time>2026-05-13T15:24:26Z</time>
      </trkpt>
      <trkpt lat="45.93454" lon="5.77221">
        <ele>1297.2</ele>
        <time>2026-05-13T15:24:27Z</time>
      </trkpt>
      <trkpt lat="45.93455" lon="5.77221">
        <ele>1297.2</ele>
        <time>2026-05-13T15:24:28Z</time>
      </trkpt>
      <trkpt lat="45.93457" lon="5.77221">
        <ele>1297.4</ele>
        <time>2026-05-13T15:24:29Z</time>
      </trkpt>
      <trkpt lat="45.93458" lon="5.77221">
        <ele>1297.6</ele>
        <time>2026-05-13T15:24:30Z</time>
      </trkpt>
      <trkpt lat="45.9346" lon="5.77221">
        <ele>1297.6</ele>
        <time>2026-05-13T15:24:31Z</time>
      </trkpt>
      <trkpt lat="45.93462" lon="5.77221">
        <ele>1297.6</ele>
        <time>2026-05-13T15:24:32Z</time>
      </trkpt>
      <trkpt lat="45.93464" lon="5.77221">
        <ele>1297.6</ele>
        <time>2026-05-13T15:24:33Z</time>
      </trkpt>
      <trkpt lat="45.93465" lon="5.77222">
        <ele>1298</ele>
        <time>2026-05-13T15:24:34Z</time>
      </trkpt>
      <trkpt lat="45.93467" lon="5.77222">
        <ele>1298.2</ele>
        <time>2026-05-13T15:24:35Z</time>
      </trkpt>
      <trkpt lat="45.93468" lon="5.77222">
        <ele>1298.2</ele>
        <time>2026-05-13T15:24:36Z</time>
      </trkpt>
      <trkpt lat="45.93469" lon="5.77222">
        <ele>1298.2</ele>
        <time>2026-05-13T15:24:37Z</time>
      </trkpt>
      <trkpt lat="45.93471" lon="5.77223">
        <ele>1298.2</ele>
        <time>2026-05-13T15:24:38Z</time>
      </trkpt>
      <trkpt lat="45.93473" lon="5.77223">
        <ele>1298.2</ele>
        <time>2026-05-13T15:24:39Z</time>
      </trkpt>
      <trkpt lat="45.93475" lon="5.77222">
        <ele>1298.2</ele>
        <time>2026-05-13T15:24:40Z</time>
      </trkpt>
      <trkpt lat="45.93478" lon="5.77221">
        <ele>1297.8</ele>
        <time>2026-05-13T15:24:41Z</time>
      </trkpt>
      <trkpt lat="45.93481" lon="5.77221">
        <ele>1297.8</ele>
        <time>2026-05-13T15:24:42Z</time>
      </trkpt>
      <trkpt lat="45.93483" lon="5.77221">
        <ele>1297.8</ele>
        <time>2026-05-13T15:24:43Z</time>
      </trkpt>
      <trkpt lat="45.93486" lon="5.77221">
        <ele>1297.8</ele>
        <time>2026-05-13T15:24:44Z</time>
      </trkpt>
      <trkpt lat="45.93488" lon="5.7722">
        <ele>1297.8</ele>
        <time>2026-05-13T15:24:45Z</time>
      </trkpt>
      <trkpt lat="45.9349" lon="5.7722">
        <ele>1297.8</ele>
        <time>2026-05-13T15:24:46Z</time>
      </trkpt>
      <trkpt lat="45.93492" lon="5.7722">
        <ele>1297.8</ele>
        <time>2026-05-13T15:24:47Z</time>
      </trkpt>
      <trkpt lat="45.93495" lon="5.77219">
        <ele>1297.6</ele>
        <time>2026-05-13T15:24:48Z</time>
      </trkpt>
      <trkpt lat="45.93497" lon="5.77219">
        <ele>1297.6</ele>
        <time>2026-05-13T15:24:49Z</time>
      </trkpt>
      <trkpt lat="45.93499" lon="5.77219">
        <ele>1297.6</ele>
        <time>2026-05-13T15:24:50Z</time>
      </trkpt>
      <trkpt lat="45.93501" lon="5.77219">
        <ele>1298</ele>
        <time>2026-05-13T15:24:51Z</time>
      </trkpt>
      <trkpt lat="45.93503" lon="5.77219">
        <ele>1298.2</ele>
        <time>2026-05-13T15:24:52Z</time>
      </trkpt>
      <trkpt lat="45.93505" lon="5.77219">
        <ele>1298.4</ele>
        <time>2026-05-13T15:24:53Z</time>
      </trkpt>
      <trkpt lat="45.93507" lon="5.77219">
        <ele>1298.4</ele>
        <time>2026-05-13T15:24:54Z</time>
      </trkpt>
      <trkpt lat="45.93509" lon="5.77219">
        <ele>1298.6</ele>
        <time>2026-05-13T15:24:55Z</time>
      </trkpt>
      <trkpt lat="45.93511" lon="5.77219">
        <ele>1298.6</ele>
        <time>2026-05-13T15:24:56Z</time>
      </trkpt>
      <trkpt lat="45.93513" lon="5.77219">
        <ele>1298.6</ele>
        <time>2026-05-13T15:24:57Z</time>
      </trkpt>
      <trkpt lat="45.93515" lon="5.7722">
        <ele>1299</ele>
        <time>2026-05-13T15:24:58Z</time>
      </trkpt>
      <trkpt lat="45.93517" lon="5.7722">
        <ele>1299.2</ele>
        <time>2026-05-13T15:24:59Z</time>
      </trkpt>
      <trkpt lat="45.93519" lon="5.77221">
        <ele>1299.6</ele>
        <time>2026-05-13T15:25:00Z</time>
      </trkpt>
      <trkpt lat="45.93521" lon="5.77221">
        <ele>1299.8</ele>
        <time>2026-05-13T15:25:01Z</time>
      </trkpt>
      <trkpt lat="45.93523" lon="5.77222">
        <ele>1300.2</ele>
        <time>2026-05-13T15:25:02Z</time>
      </trkpt>
      <trkpt lat="45.93525" lon="5.77223">
        <ele>1300.2</ele>
        <time>2026-05-13T15:25:03Z</time>
      </trkpt>
      <trkpt lat="45.93527" lon="5.77224">
        <ele>1300.2</ele>
        <time>2026-05-13T15:25:04Z</time>
      </trkpt>
      <trkpt lat="45.93528" lon="5.77225">
        <ele>1299.8</ele>
        <time>2026-05-13T15:25:05Z</time>
      </trkpt>
      <trkpt lat="45.93529" lon="5.77225">
        <ele>1299.8</ele>
        <time>2026-05-13T15:25:06Z</time>
      </trkpt>
      <trkpt lat="45.93531" lon="5.77225">
        <ele>1299.8</ele>
        <time>2026-05-13T15:25:07Z</time>
      </trkpt>
      <trkpt lat="45.93533" lon="5.77225">
        <ele>1300.2</ele>
        <time>2026-05-13T15:25:08Z</time>
      </trkpt>
      <trkpt lat="45.93535" lon="5.77225">
        <ele>1300.2</ele>
        <time>2026-05-13T15:25:09Z</time>
      </trkpt>
      <trkpt lat="45.93536" lon="5.77226">
        <ele>1300.2</ele>
        <time>2026-05-13T15:25:10Z</time>
      </trkpt>
      <trkpt lat="45.93537" lon="5.77227">
        <ele>1300.2</ele>
        <time>2026-05-13T15:25:11Z</time>
      </trkpt>
      <trkpt lat="45.93539" lon="5.77227">
        <ele>1300.2</ele>
        <time>2026-05-13T15:25:12Z</time>
      </trkpt>
      <trkpt lat="45.93541" lon="5.77227">
        <ele>1300.2</ele>
        <time>2026-05-13T15:25:13Z</time>
      </trkpt>
      <trkpt lat="45.93543" lon="5.77227">
        <ele>1300.4</ele>
        <time>2026-05-13T15:25:14Z</time>
      </trkpt>
      <trkpt lat="45.93545" lon="5.77227">
        <ele>1300.4</ele>
        <time>2026-05-13T15:25:15Z</time>
      </trkpt>
      <trkpt lat="45.93546" lon="5.77227">
        <ele>1300.4</ele>
        <time>2026-05-13T15:25:16Z</time>
      </trkpt>
      <trkpt lat="45.93548" lon="5.77228">
        <ele>1300.2</ele>
        <time>2026-05-13T15:25:17Z</time>
      </trkpt>
      <trkpt lat="45.93551" lon="5.77228">
        <ele>1300.2</ele>
        <time>2026-05-13T15:25:18Z</time>
      </trkpt>
      <trkpt lat="45.93551" lon="5.77228">
        <ele>1300.2</ele>
        <time>2026-05-13T15:25:19Z</time>
      </trkpt>
      <trkpt lat="45.93554" lon="5.77229">
        <ele>1299.8</ele>
        <time>2026-05-13T15:25:20Z</time>
      </trkpt>
      <trkpt lat="45.93556" lon="5.77229">
        <ele>1299.8</ele>
        <time>2026-05-13T15:25:21Z</time>
      </trkpt>
      <trkpt lat="45.93559" lon="5.77228">
        <ele>1299.8</ele>
        <time>2026-05-13T15:25:22Z</time>
      </trkpt>
      <trkpt lat="45.93562" lon="5.77228">
        <ele>1299.6</ele>
        <time>2026-05-13T15:25:23Z</time>
      </trkpt>
      <trkpt lat="45.93564" lon="5.77227">
        <ele>1299.6</ele>
        <time>2026-05-13T15:25:24Z</time>
      </trkpt>
      <trkpt lat="45.93566" lon="5.77227">
        <ele>1299.4</ele>
        <time>2026-05-13T15:25:25Z</time>
      </trkpt>
      <trkpt lat="45.93569" lon="5.77227">
        <ele>1299</ele>
        <time>2026-05-13T15:25:26Z</time>
      </trkpt>
      <trkpt lat="45.93571" lon="5.77227">
        <ele>1299</ele>
        <time>2026-05-13T15:25:27Z</time>
      </trkpt>
      <trkpt lat="45.93574" lon="5.77227">
        <ele>1299.6</ele>
        <time>2026-05-13T15:25:28Z</time>
      </trkpt>
      <trkpt lat="45.93576" lon="5.77227">
        <ele>1299.6</ele>
        <time>2026-05-13T15:25:29Z</time>
      </trkpt>
      <trkpt lat="45.93577" lon="5.77227">
        <ele>1299.6</ele>
        <time>2026-05-13T15:25:30Z</time>
      </trkpt>
      <trkpt lat="45.9358" lon="5.77227">
        <ele>1299.6</ele>
        <time>2026-05-13T15:25:31Z</time>
      </trkpt>
      <trkpt lat="45.93583" lon="5.77226">
        <ele>1298.8</ele>
        <time>2026-05-13T15:25:32Z</time>
      </trkpt>
      <trkpt lat="45.93587" lon="5.77226">
        <ele>1298.2</ele>
        <time>2026-05-13T15:25:33Z</time>
      </trkpt>
      <trkpt lat="45.93591" lon="5.77226">
        <ele>1298.2</ele>
        <time>2026-05-13T15:25:34Z</time>
      </trkpt>
      <trkpt lat="45.93595" lon="5.77228">
        <ele>1297.8</ele>
        <time>2026-05-13T15:25:35Z</time>
      </trkpt>
      <trkpt lat="45.93599" lon="5.7723">
        <ele>1297.8</ele>
        <time>2026-05-13T15:25:36Z</time>
      </trkpt>
      <trkpt lat="45.93602" lon="5.77232">
        <ele>1297.6</ele>
        <time>2026-05-13T15:25:37Z</time>
      </trkpt>
      <trkpt lat="45.93609" lon="5.77236">
        <ele>1297.6</ele>
        <time>2026-05-13T15:25:38Z</time>
      </trkpt>
      <trkpt lat="45.93613" lon="5.77236">
        <ele>1297</ele>
        <time>2026-05-13T15:25:39Z</time>
      </trkpt>
      <trkpt lat="45.93618" lon="5.77236">
        <ele>1297</ele>
        <time>2026-05-13T15:25:40Z</time>
      </trkpt>
      <trkpt lat="45.93622" lon="5.77236">
        <ele>1296.6</ele>
        <time>2026-05-13T15:25:41Z</time>
      </trkpt>
      <trkpt lat="45.93628" lon="5.77236">
        <ele>1296</ele>
        <time>2026-05-13T15:25:42Z</time>
      </trkpt>
      <trkpt lat="45.93633" lon="5.77237">
        <ele>1295.4</ele>
        <time>2026-05-13T15:25:43Z</time>
      </trkpt>
      <trkpt lat="45.9364" lon="5.77238">
        <ele>1295.2</ele>
        <time>2026-05-13T15:25:44Z</time>
      </trkpt>
      <trkpt lat="45.93647" lon="5.77238">
        <ele>1295.2</ele>
        <time>2026-05-13T15:25:45Z</time>
      </trkpt>
      <trkpt lat="45.93653" lon="5.77239">
        <ele>1295</ele>
        <time>2026-05-13T15:25:46Z</time>
      </trkpt>
      <trkpt lat="45.9366" lon="5.77241">
        <ele>1294.2</ele>
        <time>2026-05-13T15:25:47Z</time>
      </trkpt>
      <trkpt lat="45.93666" lon="5.77243">
        <ele>1293</ele>
        <time>2026-05-13T15:25:48Z</time>
      </trkpt>
      <trkpt lat="45.93673" lon="5.77245">
        <ele>1292</ele>
        <time>2026-05-13T15:25:49Z</time>
      </trkpt>
      <trkpt lat="45.93679" lon="5.77246">
        <ele>1292</ele>
        <time>2026-05-13T15:25:50Z</time>
      </trkpt>
      <trkpt lat="45.93687" lon="5.77249">
        <ele>1291.8</ele>
        <time>2026-05-13T15:25:51Z</time>
      </trkpt>
      <trkpt lat="45.93694" lon="5.77251">
        <ele>1290</ele>
        <time>2026-05-13T15:25:52Z</time>
      </trkpt>
      <trkpt lat="45.93702" lon="5.77253">
        <ele>1288.8</ele>
        <time>2026-05-13T15:25:53Z</time>
      </trkpt>
      <trkpt lat="45.9371" lon="5.77256">
        <ele>1288</ele>
        <time>2026-05-13T15:25:54Z</time>
      </trkpt>
      <trkpt lat="45.93718" lon="5.77258">
        <ele>1288</ele>
        <time>2026-05-13T15:25:55Z</time>
      </trkpt>
      <trkpt lat="45.93725" lon="5.7726">
        <ele>1288</ele>
        <time>2026-05-13T15:25:56Z</time>
      </trkpt>
      <trkpt lat="45.93732" lon="5.77262">
        <ele>1287</ele>
        <time>2026-05-13T15:25:57Z</time>
      </trkpt>
      <trkpt lat="45.9374" lon="5.77265">
        <ele>1285.2</ele>
        <time>2026-05-13T15:25:58Z</time>
      </trkpt>
      <trkpt lat="45.93748" lon="5.77268">
        <ele>1285.4</ele>
        <time>2026-05-13T15:25:59Z</time>
      </trkpt>
      <trkpt lat="45.93756" lon="5.77271">
        <ele>1285.4</ele>
        <time>2026-05-13T15:26:00Z</time>
      </trkpt>
      <trkpt lat="45.93764" lon="5.77275">
        <ele>1284.4</ele>
        <time>2026-05-13T15:26:01Z</time>
      </trkpt>
      <trkpt lat="45.93772" lon="5.77277">
        <ele>1283.2</ele>
        <time>2026-05-13T15:26:02Z</time>
      </trkpt>
      <trkpt lat="45.9378" lon="5.7728">
        <ele>1282.8</ele>
        <time>2026-05-13T15:26:03Z</time>
      </trkpt>
      <trkpt lat="45.93787" lon="5.77283">
        <ele>1282</ele>
        <time>2026-05-13T15:26:04Z</time>
      </trkpt>
      <trkpt lat="45.93795" lon="5.77285">
        <ele>1282.2</ele>
        <time>2026-05-13T15:26:05Z</time>
      </trkpt>
      <trkpt lat="45.93802" lon="5.77286">
        <ele>1282.2</ele>
        <time>2026-05-13T15:26:06Z</time>
      </trkpt>
      <trkpt lat="45.93807" lon="5.77288">
        <ele>1282.2</ele>
        <time>2026-05-13T15:26:07Z</time>
      </trkpt>
      <trkpt lat="45.93813" lon="5.77291">
        <ele>1282.6</ele>
        <time>2026-05-13T15:26:08Z</time>
      </trkpt>
      <trkpt lat="45.93813" lon="5.77291">
        <ele>1283.4</ele>
        <time>2026-05-13T15:26:09Z</time>
      </trkpt>
      <trkpt lat="45.93813" lon="5.77291">
        <ele>1283.4</ele>
        <time>2026-05-13T15:26:10Z</time>
      </trkpt>
      <trkpt lat="45.93835" lon="5.77296">
        <ele>1283.2</ele>
        <time>2026-05-13T15:26:11Z</time>
      </trkpt>
      <trkpt lat="45.93841" lon="5.77298">
        <ele>1282.8</ele>
        <time>2026-05-13T15:26:12Z</time>
      </trkpt>
      <trkpt lat="45.93846" lon="5.77299">
        <ele>1282.4</ele>
        <time>2026-05-13T15:26:13Z</time>
      </trkpt>
      <trkpt lat="45.93852" lon="5.77301">
        <ele>1281.2</ele>
        <time>2026-05-13T15:26:14Z</time>
      </trkpt>
      <trkpt lat="45.93857" lon="5.77303">
        <ele>1281.2</ele>
        <time>2026-05-13T15:26:15Z</time>
      </trkpt>
      <trkpt lat="45.93863" lon="5.77307">
        <ele>1278.8</ele>
        <time>2026-05-13T15:26:16Z</time>
      </trkpt>
      <trkpt lat="45.9387" lon="5.7731">
        <ele>1278.6</ele>
        <time>2026-05-13T15:26:17Z</time>
      </trkpt>
      <trkpt lat="45.93877" lon="5.77312">
        <ele>1278.6</ele>
        <time>2026-05-13T15:26:18Z</time>
      </trkpt>
      <trkpt lat="45.93884" lon="5.77314">
        <ele>1278.8</ele>
        <time>2026-05-13T15:26:19Z</time>
      </trkpt>
      <trkpt lat="45.93892" lon="5.77316">
        <ele>1278.4</ele>
        <time>2026-05-13T15:26:20Z</time>
      </trkpt>
      <trkpt lat="45.93899" lon="5.77319">
        <ele>1278</ele>
        <time>2026-05-13T15:26:21Z</time>
      </trkpt>
      <trkpt lat="45.93906" lon="5.77322">
        <ele>1277.4</ele>
        <time>2026-05-13T15:26:22Z</time>
      </trkpt>
      <trkpt lat="45.93913" lon="5.77327">
        <ele>1277</ele>
        <time>2026-05-13T15:26:23Z</time>
      </trkpt>
      <trkpt lat="45.9392" lon="5.7733">
        <ele>1277</ele>
        <time>2026-05-13T15:26:24Z</time>
      </trkpt>
      <trkpt lat="45.93926" lon="5.77336">
        <ele>1277</ele>
        <time>2026-05-13T15:26:25Z</time>
      </trkpt>
      <trkpt lat="45.93931" lon="5.77341">
        <ele>1277.6</ele>
        <time>2026-05-13T15:26:26Z</time>
      </trkpt>
      <trkpt lat="45.93937" lon="5.77345">
        <ele>1277.6</ele>
        <time>2026-05-13T15:26:27Z</time>
      </trkpt>
      <trkpt lat="45.93941" lon="5.77348">
        <ele>1278</ele>
        <time>2026-05-13T15:26:28Z</time>
      </trkpt>
      <trkpt lat="45.93947" lon="5.77349">
        <ele>1278.2</ele>
        <time>2026-05-13T15:26:29Z</time>
      </trkpt>
      <trkpt lat="45.93951" lon="5.7735">
        <ele>1277.6</ele>
        <time>2026-05-13T15:26:30Z</time>
      </trkpt>
      <trkpt lat="45.93955" lon="5.7735">
        <ele>1277.6</ele>
        <time>2026-05-13T15:26:31Z</time>
      </trkpt>
      <trkpt lat="45.93959" lon="5.7735">
        <ele>1278.2</ele>
        <time>2026-05-13T15:26:32Z</time>
      </trkpt>
      <trkpt lat="45.93962" lon="5.7735">
        <ele>1278.6</ele>
        <time>2026-05-13T15:26:33Z</time>
      </trkpt>
      <trkpt lat="45.93964" lon="5.77349">
        <ele>1279</ele>
        <time>2026-05-13T15:26:34Z</time>
      </trkpt>
      <trkpt lat="45.93966" lon="5.77348">
        <ele>1279.4</ele>
        <time>2026-05-13T15:26:35Z</time>
      </trkpt>
      <trkpt lat="45.93968" lon="5.77348">
        <ele>1279.8</ele>
        <time>2026-05-13T15:26:36Z</time>
      </trkpt>
      <trkpt lat="45.9397" lon="5.77347">
        <ele>1280</ele>
        <time>2026-05-13T15:26:37Z</time>
      </trkpt>
      <trkpt lat="45.93972" lon="5.77346">
        <ele>1280.8</ele>
        <time>2026-05-13T15:26:38Z</time>
      </trkpt>
      <trkpt lat="45.93975" lon="5.77347">
        <ele>1281</ele>
        <time>2026-05-13T15:26:39Z</time>
      </trkpt>
      <trkpt lat="45.93977" lon="5.77346">
        <ele>1281</ele>
        <time>2026-05-13T15:26:40Z</time>
      </trkpt>
      <trkpt lat="45.93979" lon="5.77347">
        <ele>1281.4</ele>
        <time>2026-05-13T15:26:41Z</time>
      </trkpt>
      <trkpt lat="45.93981" lon="5.77348">
        <ele>1281.4</ele>
        <time>2026-05-13T15:26:42Z</time>
      </trkpt>
      <trkpt lat="45.93983" lon="5.77348">
        <ele>1281.8</ele>
        <time>2026-05-13T15:26:43Z</time>
      </trkpt>
      <trkpt lat="45.93985" lon="5.77349">
        <ele>1281.8</ele>
        <time>2026-05-13T15:26:44Z</time>
      </trkpt>
      <trkpt lat="45.93987" lon="5.77351">
        <ele>1282</ele>
        <time>2026-05-13T15:26:45Z</time>
      </trkpt>
      <trkpt lat="45.93989" lon="5.77353">
        <ele>1282.4</ele>
        <time>2026-05-13T15:26:46Z</time>
      </trkpt>
      <trkpt lat="45.93992" lon="5.77355">
        <ele>1282.4</ele>
        <time>2026-05-13T15:26:47Z</time>
      </trkpt>
      <trkpt lat="45.93995" lon="5.77358">
        <ele>1282.4</ele>
        <time>2026-05-13T15:26:48Z</time>
      </trkpt>
      <trkpt lat="45.93996" lon="5.77359">
        <ele>1282.4</ele>
        <time>2026-05-13T15:26:49Z</time>
      </trkpt>
      <trkpt lat="45.93998" lon="5.77359">
        <ele>1282.4</ele>
        <time>2026-05-13T15:26:50Z</time>
      </trkpt>
      <trkpt lat="45.94" lon="5.7736">
        <ele>1282.6</ele>
        <time>2026-05-13T15:26:51Z</time>
      </trkpt>
      <trkpt lat="45.94002" lon="5.7736">
        <ele>1282.6</ele>
        <time>2026-05-13T15:26:52Z</time>
      </trkpt>
      <trkpt lat="45.94003" lon="5.7736">
        <ele>1282.4</ele>
        <time>2026-05-13T15:26:53Z</time>
      </trkpt>
      <trkpt lat="45.94006" lon="5.7736">
        <ele>1282.8</ele>
        <time>2026-05-13T15:26:54Z</time>
      </trkpt>
      <trkpt lat="45.94008" lon="5.77361">
        <ele>1283.2</ele>
        <time>2026-05-13T15:26:55Z</time>
      </trkpt>
      <trkpt lat="45.94009" lon="5.77362">
        <ele>1283.4</ele>
        <time>2026-05-13T15:26:56Z</time>
      </trkpt>
      <trkpt lat="45.94011" lon="5.77362">
        <ele>1283.4</ele>
        <time>2026-05-13T15:26:57Z</time>
      </trkpt>
      <trkpt lat="45.94012" lon="5.77362">
        <ele>1283.8</ele>
        <time>2026-05-13T15:26:58Z</time>
      </trkpt>
      <trkpt lat="45.94013" lon="5.77362">
        <ele>1284.2</ele>
        <time>2026-05-13T15:26:59Z</time>
      </trkpt>
      <trkpt lat="45.94015" lon="5.77362">
        <ele>1284.2</ele>
        <time>2026-05-13T15:27:00Z</time>
      </trkpt>
      <trkpt lat="45.94016" lon="5.77361">
        <ele>1284.6</ele>
        <time>2026-05-13T15:27:01Z</time>
      </trkpt>
      <trkpt lat="45.94018" lon="5.77361">
        <ele>1285</ele>
        <time>2026-05-13T15:27:02Z</time>
      </trkpt>
      <trkpt lat="45.94019" lon="5.77361">
        <ele>1285.4</ele>
        <time>2026-05-13T15:27:03Z</time>
      </trkpt>
      <trkpt lat="45.94021" lon="5.77361">
        <ele>1285.6</ele>
        <time>2026-05-13T15:27:04Z</time>
      </trkpt>
      <trkpt lat="45.94022" lon="5.77361">
        <ele>1285.8</ele>
        <time>2026-05-13T15:27:05Z</time>
      </trkpt>
      <trkpt lat="45.94024" lon="5.77362">
        <ele>1285.8</ele>
        <time>2026-05-13T15:27:06Z</time>
      </trkpt>
      <trkpt lat="45.94025" lon="5.77363">
        <ele>1286.2</ele>
        <time>2026-05-13T15:27:07Z</time>
      </trkpt>
      <trkpt lat="45.94026" lon="5.77363">
        <ele>1286.2</ele>
        <time>2026-05-13T15:27:08Z</time>
      </trkpt>
      <trkpt lat="45.94028" lon="5.77364">
        <ele>1286.6</ele>
        <time>2026-05-13T15:27:09Z</time>
      </trkpt>
      <trkpt lat="45.94029" lon="5.77363">
        <ele>1286.8</ele>
        <time>2026-05-13T15:27:10Z</time>
      </trkpt>
      <trkpt lat="45.94031" lon="5.77363">
        <ele>1287</ele>
        <time>2026-05-13T15:27:11Z</time>
      </trkpt>
      <trkpt lat="45.94033" lon="5.77363">
        <ele>1287</ele>
        <time>2026-05-13T15:27:12Z</time>
      </trkpt>
      <trkpt lat="45.94035" lon="5.77363">
        <ele>1287</ele>
        <time>2026-05-13T15:27:13Z</time>
      </trkpt>
      <trkpt lat="45.94037" lon="5.77363">
        <ele>1287</ele>
        <time>2026-05-13T15:27:14Z</time>
      </trkpt>
      <trkpt lat="45.94039" lon="5.77363">
        <ele>1287</ele>
        <time>2026-05-13T15:27:15Z</time>
      </trkpt>
      <trkpt lat="45.94041" lon="5.77362">
        <ele>1287</ele>
        <time>2026-05-13T15:27:16Z</time>
      </trkpt>
      <trkpt lat="45.94043" lon="5.77361">
        <ele>1286.8</ele>
        <time>2026-05-13T15:27:17Z</time>
      </trkpt>
      <trkpt lat="45.94045" lon="5.77361">
        <ele>1286.8</ele>
        <time>2026-05-13T15:27:18Z</time>
      </trkpt>
      <trkpt lat="45.94047" lon="5.7736">
        <ele>1286.8</ele>
        <time>2026-05-13T15:27:19Z</time>
      </trkpt>
      <trkpt lat="45.94049" lon="5.77359">
        <ele>1286.8</ele>
        <time>2026-05-13T15:27:20Z</time>
      </trkpt>
      <trkpt lat="45.94051" lon="5.77358">
        <ele>1286.8</ele>
        <time>2026-05-13T15:27:21Z</time>
      </trkpt>
      <trkpt lat="45.94052" lon="5.77357">
        <ele>1286.8</ele>
        <time>2026-05-13T15:27:22Z</time>
      </trkpt>
      <trkpt lat="45.94052" lon="5.77357">
        <ele>1286.8</ele>
        <time>2026-05-13T15:27:23Z</time>
      </trkpt>
      <trkpt lat="45.94054" lon="5.77355">
        <ele>1286.8</ele>
        <time>2026-05-13T15:27:24Z</time>
      </trkpt>
      <trkpt lat="45.94056" lon="5.77354">
        <ele>1286.4</ele>
        <time>2026-05-13T15:27:25Z</time>
      </trkpt>
      <trkpt lat="45.94058" lon="5.77352">
        <ele>1286.4</ele>
        <time>2026-05-13T15:27:26Z</time>
      </trkpt>
      <trkpt lat="45.9406" lon="5.77351">
        <ele>1286.4</ele>
        <time>2026-05-13T15:27:27Z</time>
      </trkpt>
      <trkpt lat="45.94062" lon="5.77351">
        <ele>1286.4</ele>
        <time>2026-05-13T15:27:28Z</time>
      </trkpt>
      <trkpt lat="45.94065" lon="5.7735">
        <ele>1286.4</ele>
        <time>2026-05-13T15:27:29Z</time>
      </trkpt>
      <trkpt lat="45.94067" lon="5.7735">
        <ele>1286.2</ele>
        <time>2026-05-13T15:27:30Z</time>
      </trkpt>
      <trkpt lat="45.9407" lon="5.77351">
        <ele>1286.2</ele>
        <time>2026-05-13T15:27:31Z</time>
      </trkpt>
      <trkpt lat="45.94072" lon="5.77351">
        <ele>1285.8</ele>
        <time>2026-05-13T15:27:32Z</time>
      </trkpt>
      <trkpt lat="45.94075" lon="5.77352">
        <ele>1285.8</ele>
        <time>2026-05-13T15:27:33Z</time>
      </trkpt>
      <trkpt lat="45.94078" lon="5.77352">
        <ele>1285.8</ele>
        <time>2026-05-13T15:27:34Z</time>
      </trkpt>
      <trkpt lat="45.9408" lon="5.77352">
        <ele>1285.8</ele>
        <time>2026-05-13T15:27:35Z</time>
      </trkpt>
      <trkpt lat="45.94082" lon="5.77352">
        <ele>1285.6</ele>
        <time>2026-05-13T15:27:36Z</time>
      </trkpt>
      <trkpt lat="45.94084" lon="5.77352">
        <ele>1285.6</ele>
        <time>2026-05-13T15:27:37Z</time>
      </trkpt>
      <trkpt lat="45.94084" lon="5.77352">
        <ele>1285.6</ele>
        <time>2026-05-13T15:27:38Z</time>
      </trkpt>
      <trkpt lat="45.94084" lon="5.77352">
        <ele>1285.6</ele>
        <time>2026-05-13T15:27:39Z</time>
      </trkpt>
      <trkpt lat="45.94092" lon="5.77354">
        <ele>1286.6</ele>
        <time>2026-05-13T15:30:15Z</time>
      </trkpt>
      <trkpt lat="45.94094" lon="5.77354">
        <ele>1286.6</ele>
        <time>2026-05-13T15:30:16Z</time>
      </trkpt>
      <trkpt lat="45.94096" lon="5.77353">
        <ele>1286</ele>
        <time>2026-05-13T15:30:17Z</time>
      </trkpt>
      <trkpt lat="45.94099" lon="5.77354">
        <ele>1286</ele>
        <time>2026-05-13T15:30:18Z</time>
      </trkpt>
      <trkpt lat="45.94103" lon="5.77356">
        <ele>1285.4</ele>
        <time>2026-05-13T15:30:19Z</time>
      </trkpt>
      <trkpt lat="45.94107" lon="5.77358">
        <ele>1285.2</ele>
        <time>2026-05-13T15:30:20Z</time>
      </trkpt>
      <trkpt lat="45.9411" lon="5.7736">
        <ele>1284.8</ele>
        <time>2026-05-13T15:30:21Z</time>
      </trkpt>
      <trkpt lat="45.94114" lon="5.77362">
        <ele>1284.6</ele>
        <time>2026-05-13T15:30:22Z</time>
      </trkpt>
      <trkpt lat="45.94117" lon="5.77364">
        <ele>1284.6</ele>
        <time>2026-05-13T15:30:23Z</time>
      </trkpt>
      <trkpt lat="45.94121" lon="5.77366">
        <ele>1284.6</ele>
        <time>2026-05-13T15:30:24Z</time>
      </trkpt>
      <trkpt lat="45.94124" lon="5.77368">
        <ele>1284.6</ele>
        <time>2026-05-13T15:30:25Z</time>
      </trkpt>
      <trkpt lat="45.94127" lon="5.7737">
        <ele>1284.6</ele>
        <time>2026-05-13T15:30:26Z</time>
      </trkpt>
      <trkpt lat="45.94128" lon="5.7737">
        <ele>1284.6</ele>
        <time>2026-05-13T15:30:27Z</time>
      </trkpt>
      <trkpt lat="45.9413" lon="5.7737">
        <ele>1284.6</ele>
        <time>2026-05-13T15:30:28Z</time>
      </trkpt>
      <trkpt lat="45.94131" lon="5.77369">
        <ele>1284.6</ele>
        <time>2026-05-13T15:30:29Z</time>
      </trkpt>
      <trkpt lat="45.94132" lon="5.77368">
        <ele>1284.6</ele>
        <time>2026-05-13T15:30:30Z</time>
      </trkpt>
      <trkpt lat="45.94134" lon="5.77368">
        <ele>1284.6</ele>
        <time>2026-05-13T15:30:31Z</time>
      </trkpt>
      <trkpt lat="45.94135" lon="5.77368">
        <ele>1284.6</ele>
        <time>2026-05-13T15:30:32Z</time>
      </trkpt>
      <trkpt lat="45.94137" lon="5.77367">
        <ele>1284.6</ele>
        <time>2026-05-13T15:30:33Z</time>
      </trkpt>
      <trkpt lat="45.94139" lon="5.77366">
        <ele>1284.6</ele>
        <time>2026-05-13T15:30:34Z</time>
      </trkpt>
      <trkpt lat="45.94142" lon="5.77365">
        <ele>1284.6</ele>
        <time>2026-05-13T15:30:35Z</time>
      </trkpt>
      <trkpt lat="45.94145" lon="5.77364">
        <ele>1284</ele>
        <time>2026-05-13T15:30:36Z</time>
      </trkpt>
      <trkpt lat="45.94149" lon="5.77363">
        <ele>1284</ele>
        <time>2026-05-13T15:30:37Z</time>
      </trkpt>
      <trkpt lat="45.94152" lon="5.77361">
        <ele>1283.8</ele>
        <time>2026-05-13T15:30:38Z</time>
      </trkpt>
      <trkpt lat="45.94154" lon="5.7736">
        <ele>1283.6</ele>
        <time>2026-05-13T15:30:39Z</time>
      </trkpt>
      <trkpt lat="45.94156" lon="5.77358">
        <ele>1283.4</ele>
        <time>2026-05-13T15:30:40Z</time>
      </trkpt>
      <trkpt lat="45.94159" lon="5.77358">
        <ele>1283</ele>
        <time>2026-05-13T15:30:41Z</time>
      </trkpt>
      <trkpt lat="45.94162" lon="5.77358">
        <ele>1282.6</ele>
        <time>2026-05-13T15:30:42Z</time>
      </trkpt>
      <trkpt lat="45.94166" lon="5.77359">
        <ele>1282.6</ele>
        <time>2026-05-13T15:30:43Z</time>
      </trkpt>
      <trkpt lat="45.94169" lon="5.77359">
        <ele>1282.6</ele>
        <time>2026-05-13T15:30:44Z</time>
      </trkpt>
      <trkpt lat="45.94172" lon="5.7736">
        <ele>1282.2</ele>
        <time>2026-05-13T15:30:45Z</time>
      </trkpt>
      <trkpt lat="45.94175" lon="5.7736">
        <ele>1282.2</ele>
        <time>2026-05-13T15:30:46Z</time>
      </trkpt>
      <trkpt lat="45.94178" lon="5.7736">
        <ele>1282.2</ele>
        <time>2026-05-13T15:30:47Z</time>
      </trkpt>
      <trkpt lat="45.94181" lon="5.7736">
        <ele>1282.2</ele>
        <time>2026-05-13T15:30:48Z</time>
      </trkpt>
      <trkpt lat="45.94184" lon="5.77358">
        <ele>1282.2</ele>
        <time>2026-05-13T15:30:49Z</time>
      </trkpt>
      <trkpt lat="45.94191" lon="5.77355">
        <ele>1282.2</ele>
        <time>2026-05-13T15:30:50Z</time>
      </trkpt>
      <trkpt lat="45.94194" lon="5.77352">
        <ele>1281.8</ele>
        <time>2026-05-13T15:30:51Z</time>
      </trkpt>
      <trkpt lat="45.94199" lon="5.77349">
        <ele>1281.6</ele>
        <time>2026-05-13T15:30:52Z</time>
      </trkpt>
      <trkpt lat="45.94203" lon="5.77347">
        <ele>1281.4</ele>
        <time>2026-05-13T15:30:53Z</time>
      </trkpt>
      <trkpt lat="45.94207" lon="5.77345">
        <ele>1281.2</ele>
        <time>2026-05-13T15:30:54Z</time>
      </trkpt>
      <trkpt lat="45.94211" lon="5.77341">
        <ele>1280.8</ele>
        <time>2026-05-13T15:30:55Z</time>
      </trkpt>
      <trkpt lat="45.94219" lon="5.77341">
        <ele>1279.8</ele>
        <time>2026-05-13T15:30:56Z</time>
      </trkpt>
      <trkpt lat="45.94225" lon="5.7734">
        <ele>1279</ele>
        <time>2026-05-13T15:30:57Z</time>
      </trkpt>
      <trkpt lat="45.94235" lon="5.7734">
        <ele>1278.4</ele>
        <time>2026-05-13T15:30:58Z</time>
      </trkpt>
      <trkpt lat="45.94242" lon="5.77338">
        <ele>1277</ele>
        <time>2026-05-13T15:30:59Z</time>
      </trkpt>
      <trkpt lat="45.94248" lon="5.77337">
        <ele>1277</ele>
        <time>2026-05-13T15:31:00Z</time>
      </trkpt>
      <trkpt lat="45.94256" lon="5.77338">
        <ele>1276.2</ele>
        <time>2026-05-13T15:31:01Z</time>
      </trkpt>
      <trkpt lat="45.94265" lon="5.77338">
        <ele>1275.6</ele>
        <time>2026-05-13T15:31:02Z</time>
      </trkpt>
      <trkpt lat="45.94272" lon="5.77337">
        <ele>1274.4</ele>
        <time>2026-05-13T15:31:03Z</time>
      </trkpt>
      <trkpt lat="45.94281" lon="5.77335">
        <ele>1274.6</ele>
        <time>2026-05-13T15:31:04Z</time>
      </trkpt>
      <trkpt lat="45.94288" lon="5.77336">
        <ele>1274</ele>
        <time>2026-05-13T15:31:05Z</time>
      </trkpt>
      <trkpt lat="45.94294" lon="5.77338">
        <ele>1273</ele>
        <time>2026-05-13T15:31:06Z</time>
      </trkpt>
      <trkpt lat="45.943" lon="5.77344">
        <ele>1273.2</ele>
        <time>2026-05-13T15:31:07Z</time>
      </trkpt>
      <trkpt lat="45.94307" lon="5.77353">
        <ele>1272.8</ele>
        <time>2026-05-13T15:31:08Z</time>
      </trkpt>
      <trkpt lat="45.94313" lon="5.77358">
        <ele>1272.8</ele>
        <time>2026-05-13T15:31:09Z</time>
      </trkpt>
      <trkpt lat="45.94317" lon="5.77364">
        <ele>1272.4</ele>
        <time>2026-05-13T15:31:10Z</time>
      </trkpt>
      <trkpt lat="45.94323" lon="5.77366">
        <ele>1272.4</ele>
        <time>2026-05-13T15:31:11Z</time>
      </trkpt>
      <trkpt lat="45.94328" lon="5.77368">
        <ele>1272</ele>
        <time>2026-05-13T15:31:12Z</time>
      </trkpt>
      <trkpt lat="45.94333" lon="5.7737">
        <ele>1271</ele>
        <time>2026-05-13T15:31:13Z</time>
      </trkpt>
      <trkpt lat="45.94339" lon="5.77367">
        <ele>1271.2</ele>
        <time>2026-05-13T15:31:14Z</time>
      </trkpt>
      <trkpt lat="45.94345" lon="5.77366">
        <ele>1271.6</ele>
        <time>2026-05-13T15:31:15Z</time>
      </trkpt>
      <trkpt lat="45.94352" lon="5.77365">
        <ele>1271.8</ele>
        <time>2026-05-13T15:31:16Z</time>
      </trkpt>
      <trkpt lat="45.94359" lon="5.77364">
        <ele>1271.4</ele>
        <time>2026-05-13T15:31:17Z</time>
      </trkpt>
      <trkpt lat="45.94365" lon="5.77362">
        <ele>1271.4</ele>
        <time>2026-05-13T15:31:18Z</time>
      </trkpt>
      <trkpt lat="45.94371" lon="5.77361">
        <ele>1271.4</ele>
        <time>2026-05-13T15:31:19Z</time>
      </trkpt>
      <trkpt lat="45.94376" lon="5.77359">
        <ele>1271.4</ele>
        <time>2026-05-13T15:31:20Z</time>
      </trkpt>
      <trkpt lat="45.94383" lon="5.77356">
        <ele>1271.2</ele>
        <time>2026-05-13T15:31:21Z</time>
      </trkpt>
      <trkpt lat="45.94388" lon="5.77352">
        <ele>1271.2</ele>
        <time>2026-05-13T15:31:22Z</time>
      </trkpt>
      <trkpt lat="45.94392" lon="5.77347">
        <ele>1271.2</ele>
        <time>2026-05-13T15:31:23Z</time>
      </trkpt>
      <trkpt lat="45.94394" lon="5.77339">
        <ele>1272</ele>
        <time>2026-05-13T15:31:24Z</time>
      </trkpt>
      <trkpt lat="45.94396" lon="5.7733">
        <ele>1272</ele>
        <time>2026-05-13T15:31:25Z</time>
      </trkpt>
      <trkpt lat="45.94398" lon="5.7732">
        <ele>1271</ele>
        <time>2026-05-13T15:31:26Z</time>
      </trkpt>
      <trkpt lat="45.944" lon="5.77312">
        <ele>1270.6</ele>
        <time>2026-05-13T15:31:27Z</time>
      </trkpt>
      <trkpt lat="45.94403" lon="5.77305">
        <ele>1270</ele>
        <time>2026-05-13T15:31:28Z</time>
      </trkpt>
      <trkpt lat="45.94408" lon="5.77299">
        <ele>1270</ele>
        <time>2026-05-13T15:31:29Z</time>
      </trkpt>
      <trkpt lat="45.94413" lon="5.77297">
        <ele>1269.6</ele>
        <time>2026-05-13T15:31:30Z</time>
      </trkpt>
      <trkpt lat="45.94418" lon="5.77296">
        <ele>1269.2</ele>
        <time>2026-05-13T15:31:31Z</time>
      </trkpt>
      <trkpt lat="45.94424" lon="5.77295">
        <ele>1268.6</ele>
        <time>2026-05-13T15:31:32Z</time>
      </trkpt>
      <trkpt lat="45.94431" lon="5.77296">
        <ele>1268.6</ele>
        <time>2026-05-13T15:31:33Z</time>
      </trkpt>
      <trkpt lat="45.94438" lon="5.77299">
        <ele>1267.2</ele>
        <time>2026-05-13T15:31:34Z</time>
      </trkpt>
      <trkpt lat="45.94445" lon="5.77305">
        <ele>1266.6</ele>
        <time>2026-05-13T15:31:35Z</time>
      </trkpt>
      <trkpt lat="45.94452" lon="5.77313">
        <ele>1266.2</ele>
        <time>2026-05-13T15:31:36Z</time>
      </trkpt>
      <trkpt lat="45.94458" lon="5.7732">
        <ele>1266.2</ele>
        <time>2026-05-13T15:31:37Z</time>
      </trkpt>
      <trkpt lat="45.94464" lon="5.77329">
        <ele>1265.2</ele>
        <time>2026-05-13T15:31:38Z</time>
      </trkpt>
      <trkpt lat="45.94469" lon="5.77338">
        <ele>1265</ele>
        <time>2026-05-13T15:31:39Z</time>
      </trkpt>
      <trkpt lat="45.94474" lon="5.77348">
        <ele>1264.2</ele>
        <time>2026-05-13T15:31:40Z</time>
      </trkpt>
      <trkpt lat="45.94477" lon="5.77356">
        <ele>1264.2</ele>
        <time>2026-05-13T15:31:41Z</time>
      </trkpt>
      <trkpt lat="45.94482" lon="5.77365">
        <ele>1264</ele>
        <time>2026-05-13T15:31:42Z</time>
      </trkpt>
      <trkpt lat="45.94486" lon="5.77373">
        <ele>1263.4</ele>
        <time>2026-05-13T15:31:43Z</time>
      </trkpt>
      <trkpt lat="45.9449" lon="5.7738">
        <ele>1263.4</ele>
        <time>2026-05-13T15:31:44Z</time>
      </trkpt>
      <trkpt lat="45.94494" lon="5.77388">
        <ele>1262.2</ele>
        <time>2026-05-13T15:31:45Z</time>
      </trkpt>
      <trkpt lat="45.94496" lon="5.77396">
        <ele>1262.2</ele>
        <time>2026-05-13T15:31:46Z</time>
      </trkpt>
      <trkpt lat="45.94497" lon="5.77403">
        <ele>1262.8</ele>
        <time>2026-05-13T15:31:47Z</time>
      </trkpt>
      <trkpt lat="45.94501" lon="5.77408">
        <ele>1263.4</ele>
        <time>2026-05-13T15:31:48Z</time>
      </trkpt>
      <trkpt lat="45.94508" lon="5.77414">
        <ele>1262.4</ele>
        <time>2026-05-13T15:31:49Z</time>
      </trkpt>
      <trkpt lat="45.94515" lon="5.77418">
        <ele>1262</ele>
        <time>2026-05-13T15:31:50Z</time>
      </trkpt>
      <trkpt lat="45.94522" lon="5.77422">
        <ele>1260.8</ele>
        <time>2026-05-13T15:31:51Z</time>
      </trkpt>
      <trkpt lat="45.94528" lon="5.77423">
        <ele>1260.8</ele>
        <time>2026-05-13T15:31:52Z</time>
      </trkpt>
      <trkpt lat="45.94532" lon="5.77422">
        <ele>1260.8</ele>
        <time>2026-05-13T15:31:53Z</time>
      </trkpt>
      <trkpt lat="45.94532" lon="5.77422">
        <ele>1259</ele>
        <time>2026-05-13T15:31:54Z</time>
      </trkpt>
      <trkpt lat="45.94539" lon="5.77423">
        <ele>1259</ele>
        <time>2026-05-13T15:31:55Z</time>
      </trkpt>
      <trkpt lat="45.94543" lon="5.77422">
        <ele>1258.4</ele>
        <time>2026-05-13T15:31:56Z</time>
      </trkpt>
      <trkpt lat="45.94548" lon="5.77419">
        <ele>1259.2</ele>
        <time>2026-05-13T15:31:57Z</time>
      </trkpt>
      <trkpt lat="45.94551" lon="5.77415">
        <ele>1260</ele>
        <time>2026-05-13T15:31:58Z</time>
      </trkpt>
      <trkpt lat="45.94555" lon="5.77413">
        <ele>1260.4</ele>
        <time>2026-05-13T15:31:59Z</time>
      </trkpt>
      <trkpt lat="45.94558" lon="5.7741">
        <ele>1260.8</ele>
        <time>2026-05-13T15:32:00Z</time>
      </trkpt>
      <trkpt lat="45.94561" lon="5.77407">
        <ele>1261</ele>
        <time>2026-05-13T15:32:01Z</time>
      </trkpt>
      <trkpt lat="45.94565" lon="5.77405">
        <ele>1261</ele>
        <time>2026-05-13T15:32:02Z</time>
      </trkpt>
      <trkpt lat="45.9457" lon="5.77404">
        <ele>1261.4</ele>
        <time>2026-05-13T15:32:03Z</time>
      </trkpt>
      <trkpt lat="45.94574" lon="5.77403">
        <ele>1261.4</ele>
        <time>2026-05-13T15:32:04Z</time>
      </trkpt>
      <trkpt lat="45.94577" lon="5.77403">
        <ele>1261.6</ele>
        <time>2026-05-13T15:32:05Z</time>
      </trkpt>
      <trkpt lat="45.94582" lon="5.77402">
        <ele>1260.4</ele>
        <time>2026-05-13T15:32:06Z</time>
      </trkpt>
      <trkpt lat="45.94586" lon="5.77403">
        <ele>1261.4</ele>
        <time>2026-05-13T15:32:07Z</time>
      </trkpt>
      <trkpt lat="45.94591" lon="5.77403">
        <ele>1261.6</ele>
        <time>2026-05-13T15:32:08Z</time>
      </trkpt>
      <trkpt lat="45.94596" lon="5.77403">
        <ele>1261.6</ele>
        <time>2026-05-13T15:32:09Z</time>
      </trkpt>
      <trkpt lat="45.94601" lon="5.77405">
        <ele>1261.2</ele>
        <time>2026-05-13T15:32:10Z</time>
      </trkpt>
      <trkpt lat="45.94605" lon="5.77406">
        <ele>1260.8</ele>
        <time>2026-05-13T15:32:11Z</time>
      </trkpt>
      <trkpt lat="45.9461" lon="5.77408">
        <ele>1260.8</ele>
        <time>2026-05-13T15:32:12Z</time>
      </trkpt>
      <trkpt lat="45.94615" lon="5.77411">
        <ele>1260.8</ele>
        <time>2026-05-13T15:32:13Z</time>
      </trkpt>
      <trkpt lat="45.9462" lon="5.77413">
        <ele>1260.8</ele>
        <time>2026-05-13T15:32:14Z</time>
      </trkpt>
      <trkpt lat="45.94625" lon="5.77414">
        <ele>1261</ele>
        <time>2026-05-13T15:32:15Z</time>
      </trkpt>
      <trkpt lat="45.9463" lon="5.77417">
        <ele>1261</ele>
        <time>2026-05-13T15:32:16Z</time>
      </trkpt>
      <trkpt lat="45.94635" lon="5.7742">
        <ele>1260.6</ele>
        <time>2026-05-13T15:32:17Z</time>
      </trkpt>
      <trkpt lat="45.9464" lon="5.77422">
        <ele>1260.2</ele>
        <time>2026-05-13T15:32:18Z</time>
      </trkpt>
      <trkpt lat="45.94645" lon="5.77425">
        <ele>1259.8</ele>
        <time>2026-05-13T15:32:19Z</time>
      </trkpt>
      <trkpt lat="45.9465" lon="5.77428">
        <ele>1260</ele>
        <time>2026-05-13T15:32:20Z</time>
      </trkpt>
      <trkpt lat="45.94655" lon="5.77429">
        <ele>1260</ele>
        <time>2026-05-13T15:32:21Z</time>
      </trkpt>
      <trkpt lat="45.9466" lon="5.77429">
        <ele>1259.8</ele>
        <time>2026-05-13T15:32:22Z</time>
      </trkpt>
      <trkpt lat="45.94665" lon="5.7743">
        <ele>1259.8</ele>
        <time>2026-05-13T15:32:23Z</time>
      </trkpt>
      <trkpt lat="45.9467" lon="5.77431">
        <ele>1259.8</ele>
        <time>2026-05-13T15:32:24Z</time>
      </trkpt>
      <trkpt lat="45.94676" lon="5.77433">
        <ele>1259.4</ele>
        <time>2026-05-13T15:32:25Z</time>
      </trkpt>
      <trkpt lat="45.9468" lon="5.77433">
        <ele>1259.4</ele>
        <time>2026-05-13T15:32:26Z</time>
      </trkpt>
      <trkpt lat="45.94685" lon="5.77434">
        <ele>1259.4</ele>
        <time>2026-05-13T15:32:27Z</time>
      </trkpt>
      <trkpt lat="45.94691" lon="5.77434">
        <ele>1259.4</ele>
        <time>2026-05-13T15:32:28Z</time>
      </trkpt>
      <trkpt lat="45.94695" lon="5.77435">
        <ele>1259.4</ele>
        <time>2026-05-13T15:32:29Z</time>
      </trkpt>
      <trkpt lat="45.947" lon="5.77437">
        <ele>1259.4</ele>
        <time>2026-05-13T15:32:30Z</time>
      </trkpt>
      <trkpt lat="45.94705" lon="5.77438">
        <ele>1259.2</ele>
        <time>2026-05-13T15:32:31Z</time>
      </trkpt>
      <trkpt lat="45.94709" lon="5.77441">
        <ele>1259.2</ele>
        <time>2026-05-13T15:32:32Z</time>
      </trkpt>
      <trkpt lat="45.94713" lon="5.77444">
        <ele>1259.6</ele>
        <time>2026-05-13T15:32:33Z</time>
      </trkpt>
      <trkpt lat="45.94717" lon="5.77446">
        <ele>1259.2</ele>
        <time>2026-05-13T15:32:34Z</time>
      </trkpt>
      <trkpt lat="45.94721" lon="5.7745">
        <ele>1259.2</ele>
        <time>2026-05-13T15:32:35Z</time>
      </trkpt>
      <trkpt lat="45.94725" lon="5.77453">
        <ele>1259.2</ele>
        <time>2026-05-13T15:32:36Z</time>
      </trkpt>
      <trkpt lat="45.94731" lon="5.77457">
        <ele>1258.4</ele>
        <time>2026-05-13T15:32:37Z</time>
      </trkpt>
      <trkpt lat="45.94736" lon="5.7746">
        <ele>1258.4</ele>
        <time>2026-05-13T15:32:38Z</time>
      </trkpt>
      <trkpt lat="45.94741" lon="5.77463">
        <ele>1257.4</ele>
        <time>2026-05-13T15:32:39Z</time>
      </trkpt>
      <trkpt lat="45.94746" lon="5.77465">
        <ele>1255.6</ele>
        <time>2026-05-13T15:32:40Z</time>
      </trkpt>
      <trkpt lat="45.94751" lon="5.77466">
        <ele>1256</ele>
        <time>2026-05-13T15:32:41Z</time>
      </trkpt>
      <trkpt lat="45.94756" lon="5.77467">
        <ele>1255.4</ele>
        <time>2026-05-13T15:32:42Z</time>
      </trkpt>
      <trkpt lat="45.94762" lon="5.77467">
        <ele>1254.8</ele>
        <time>2026-05-13T15:32:43Z</time>
      </trkpt>
      <trkpt lat="45.94768" lon="5.77468">
        <ele>1254.8</ele>
        <time>2026-05-13T15:32:44Z</time>
      </trkpt>
      <trkpt lat="45.94774" lon="5.77468">
        <ele>1254</ele>
        <time>2026-05-13T15:32:45Z</time>
      </trkpt>
      <trkpt lat="45.9478" lon="5.77468">
        <ele>1253.6</ele>
        <time>2026-05-13T15:32:46Z</time>
      </trkpt>
      <trkpt lat="45.94787" lon="5.77468">
        <ele>1253</ele>
        <time>2026-05-13T15:32:47Z</time>
      </trkpt>
      <trkpt lat="45.94793" lon="5.77467">
        <ele>1252</ele>
        <time>2026-05-13T15:32:48Z</time>
      </trkpt>
      <trkpt lat="45.94799" lon="5.77465">
        <ele>1251.6</ele>
        <time>2026-05-13T15:32:49Z</time>
      </trkpt>
      <trkpt lat="45.94804" lon="5.77463">
        <ele>1250.2</ele>
        <time>2026-05-13T15:32:50Z</time>
      </trkpt>
      <trkpt lat="45.9481" lon="5.77464">
        <ele>1249.4</ele>
        <time>2026-05-13T15:32:51Z</time>
      </trkpt>
      <trkpt lat="45.94814" lon="5.77465">
        <ele>1249.4</ele>
        <time>2026-05-13T15:32:52Z</time>
      </trkpt>
      <trkpt lat="45.94818" lon="5.77467">
        <ele>1249.4</ele>
        <time>2026-05-13T15:32:53Z</time>
      </trkpt>
      <trkpt lat="45.94821" lon="5.77474">
        <ele>1248.2</ele>
        <time>2026-05-13T15:32:54Z</time>
      </trkpt>
      <trkpt lat="45.94823" lon="5.77481">
        <ele>1247.2</ele>
        <time>2026-05-13T15:32:55Z</time>
      </trkpt>
      <trkpt lat="45.94825" lon="5.77488">
        <ele>1247.2</ele>
        <time>2026-05-13T15:32:56Z</time>
      </trkpt>
      <trkpt lat="45.94828" lon="5.77495">
        <ele>1247.2</ele>
        <time>2026-05-13T15:32:57Z</time>
      </trkpt>
      <trkpt lat="45.94831" lon="5.77503">
        <ele>1247</ele>
        <time>2026-05-13T15:32:58Z</time>
      </trkpt>
      <trkpt lat="45.94836" lon="5.77507">
        <ele>1246.2</ele>
        <time>2026-05-13T15:32:59Z</time>
      </trkpt>
      <trkpt lat="45.94841" lon="5.77508">
        <ele>1245.8</ele>
        <time>2026-05-13T15:33:00Z</time>
      </trkpt>
      <trkpt lat="45.94846" lon="5.7751">
        <ele>1245.2</ele>
        <time>2026-05-13T15:33:01Z</time>
      </trkpt>
      <trkpt lat="45.94852" lon="5.77509">
        <ele>1245.8</ele>
        <time>2026-05-13T15:33:02Z</time>
      </trkpt>
      <trkpt lat="45.94856" lon="5.77507">
        <ele>1245.8</ele>
        <time>2026-05-13T15:33:03Z</time>
      </trkpt>
      <trkpt lat="45.9486" lon="5.77505">
        <ele>1245.4</ele>
        <time>2026-05-13T15:33:04Z</time>
      </trkpt>
      <trkpt lat="45.94865" lon="5.77501">
        <ele>1245.4</ele>
        <time>2026-05-13T15:33:05Z</time>
      </trkpt>
      <trkpt lat="45.94869" lon="5.775">
        <ele>1246</ele>
        <time>2026-05-13T15:33:06Z</time>
      </trkpt>
      <trkpt lat="45.94873" lon="5.77496">
        <ele>1246</ele>
        <time>2026-05-13T15:33:07Z</time>
      </trkpt>
      <trkpt lat="45.94876" lon="5.77492">
        <ele>1246.2</ele>
        <time>2026-05-13T15:33:08Z</time>
      </trkpt>
      <trkpt lat="45.9488" lon="5.77488">
        <ele>1246</ele>
        <time>2026-05-13T15:33:09Z</time>
      </trkpt>
      <trkpt lat="45.94884" lon="5.77484">
        <ele>1245.4</ele>
        <time>2026-05-13T15:33:10Z</time>
      </trkpt>
      <trkpt lat="45.94887" lon="5.7748">
        <ele>1245.2</ele>
        <time>2026-05-13T15:33:11Z</time>
      </trkpt>
      <trkpt lat="45.94891" lon="5.77477">
        <ele>1245.2</ele>
        <time>2026-05-13T15:33:12Z</time>
      </trkpt>
      <trkpt lat="45.94895" lon="5.77473">
        <ele>1245.2</ele>
        <time>2026-05-13T15:33:13Z</time>
      </trkpt>
      <trkpt lat="45.94899" lon="5.7747">
        <ele>1245.4</ele>
        <time>2026-05-13T15:33:14Z</time>
      </trkpt>
      <trkpt lat="45.94902" lon="5.77467">
        <ele>1245</ele>
        <time>2026-05-13T15:33:15Z</time>
      </trkpt>
      <trkpt lat="45.94907" lon="5.77464">
        <ele>1245</ele>
        <time>2026-05-13T15:33:16Z</time>
      </trkpt>
      <trkpt lat="45.94909" lon="5.77462">
        <ele>1245.2</ele>
        <time>2026-05-13T15:33:17Z</time>
      </trkpt>
      <trkpt lat="45.94912" lon="5.77461">
        <ele>1245.2</ele>
        <time>2026-05-13T15:33:18Z</time>
      </trkpt>
      <trkpt lat="45.94915" lon="5.77461">
        <ele>1245.6</ele>
        <time>2026-05-13T15:33:19Z</time>
      </trkpt>
      <trkpt lat="45.94917" lon="5.77461">
        <ele>1246</ele>
        <time>2026-05-13T15:33:20Z</time>
      </trkpt>
      <trkpt lat="45.94919" lon="5.7746">
        <ele>1246.6</ele>
        <time>2026-05-13T15:33:21Z</time>
      </trkpt>
      <trkpt lat="45.94921" lon="5.77461">
        <ele>1247</ele>
        <time>2026-05-13T15:33:22Z</time>
      </trkpt>
      <trkpt lat="45.94923" lon="5.77462">
        <ele>1247.2</ele>
        <time>2026-05-13T15:33:23Z</time>
      </trkpt>
      <trkpt lat="45.94925" lon="5.77463">
        <ele>1247.6</ele>
        <time>2026-05-13T15:33:24Z</time>
      </trkpt>
      <trkpt lat="45.94927" lon="5.77463">
        <ele>1248</ele>
        <time>2026-05-13T15:33:25Z</time>
      </trkpt>
      <trkpt lat="45.94929" lon="5.77463">
        <ele>1248.4</ele>
        <time>2026-05-13T15:33:26Z</time>
      </trkpt>
      <trkpt lat="45.94931" lon="5.77463">
        <ele>1248.4</ele>
        <time>2026-05-13T15:33:27Z</time>
      </trkpt>
      <trkpt lat="45.94933" lon="5.77463">
        <ele>1248.6</ele>
        <time>2026-05-13T15:33:28Z</time>
      </trkpt>
      <trkpt lat="45.94934" lon="5.77464">
        <ele>1249.2</ele>
        <time>2026-05-13T15:33:29Z</time>
      </trkpt>
      <trkpt lat="45.94936" lon="5.77464">
        <ele>1249.2</ele>
        <time>2026-05-13T15:33:30Z</time>
      </trkpt>
      <trkpt lat="45.94938" lon="5.77463">
        <ele>1249.2</ele>
        <time>2026-05-13T15:33:31Z</time>
      </trkpt>
      <trkpt lat="45.9494" lon="5.77463">
        <ele>1249.6</ele>
        <time>2026-05-13T15:33:32Z</time>
      </trkpt>
      <trkpt lat="45.94944" lon="5.77461">
        <ele>1249.8</ele>
        <time>2026-05-13T15:33:33Z</time>
      </trkpt>
      <trkpt lat="45.94946" lon="5.77459">
        <ele>1250.2</ele>
        <time>2026-05-13T15:33:34Z</time>
      </trkpt>
      <trkpt lat="45.94948" lon="5.77458">
        <ele>1250.2</ele>
        <time>2026-05-13T15:33:35Z</time>
      </trkpt>
      <trkpt lat="45.9495" lon="5.77457">
        <ele>1249.6</ele>
        <time>2026-05-13T15:33:36Z</time>
      </trkpt>
      <trkpt lat="45.94952" lon="5.77456">
        <ele>1250</ele>
        <time>2026-05-13T15:33:37Z</time>
      </trkpt>
      <trkpt lat="45.94953" lon="5.77455">
        <ele>1250.2</ele>
        <time>2026-05-13T15:33:38Z</time>
      </trkpt>
      <trkpt lat="45.94955" lon="5.77454">
        <ele>1250.2</ele>
        <time>2026-05-13T15:33:39Z</time>
      </trkpt>
      <trkpt lat="45.94957" lon="5.77452">
        <ele>1250.8</ele>
        <time>2026-05-13T15:33:40Z</time>
      </trkpt>
      <trkpt lat="45.94958" lon="5.77451">
        <ele>1251</ele>
        <time>2026-05-13T15:33:41Z</time>
      </trkpt>
      <trkpt lat="45.9496" lon="5.7745">
        <ele>1251</ele>
        <time>2026-05-13T15:33:42Z</time>
      </trkpt>
      <trkpt lat="45.94961" lon="5.77449">
        <ele>1251.2</ele>
        <time>2026-05-13T15:33:43Z</time>
      </trkpt>
      <trkpt lat="45.94963" lon="5.77448">
        <ele>1251.2</ele>
        <time>2026-05-13T15:33:44Z</time>
      </trkpt>
      <trkpt lat="45.94964" lon="5.77447">
        <ele>1251.8</ele>
        <time>2026-05-13T15:33:45Z</time>
      </trkpt>
      <trkpt lat="45.94966" lon="5.77446">
        <ele>1251.8</ele>
        <time>2026-05-13T15:33:46Z</time>
      </trkpt>
      <trkpt lat="45.94968" lon="5.77446">
        <ele>1251.8</ele>
        <time>2026-05-13T15:33:47Z</time>
      </trkpt>
      <trkpt lat="45.94969" lon="5.77446">
        <ele>1252.2</ele>
        <time>2026-05-13T15:33:48Z</time>
      </trkpt>
      <trkpt lat="45.9497" lon="5.77445">
        <ele>1252.2</ele>
        <time>2026-05-13T15:33:49Z</time>
      </trkpt>
      <trkpt lat="45.94971" lon="5.77444">
        <ele>1252.2</ele>
        <time>2026-05-13T15:33:50Z</time>
      </trkpt>
      <trkpt lat="45.94973" lon="5.77444">
        <ele>1252.2</ele>
        <time>2026-05-13T15:33:51Z</time>
      </trkpt>
      <trkpt lat="45.94974" lon="5.77444">
        <ele>1252.2</ele>
        <time>2026-05-13T15:33:52Z</time>
      </trkpt>
      <trkpt lat="45.94977" lon="5.77444">
        <ele>1252.6</ele>
        <time>2026-05-13T15:33:53Z</time>
      </trkpt>
      <trkpt lat="45.94979" lon="5.77445">
        <ele>1252.6</ele>
        <time>2026-05-13T15:33:54Z</time>
      </trkpt>
      <trkpt lat="45.94982" lon="5.77446">
        <ele>1252.6</ele>
        <time>2026-05-13T15:33:55Z</time>
      </trkpt>
      <trkpt lat="45.94984" lon="5.77446">
        <ele>1252.6</ele>
        <time>2026-05-13T15:33:56Z</time>
      </trkpt>
      <trkpt lat="45.94987" lon="5.77446">
        <ele>1252.6</ele>
        <time>2026-05-13T15:33:57Z</time>
      </trkpt>
      <trkpt lat="45.94989" lon="5.77447">
        <ele>1252.6</ele>
        <time>2026-05-13T15:33:58Z</time>
      </trkpt>
      <trkpt lat="45.94992" lon="5.77447">
        <ele>1252.6</ele>
        <time>2026-05-13T15:33:59Z</time>
      </trkpt>
      <trkpt lat="45.94995" lon="5.77449">
        <ele>1253</ele>
        <time>2026-05-13T15:34:00Z</time>
      </trkpt>
      <trkpt lat="45.94998" lon="5.7745">
        <ele>1253</ele>
        <time>2026-05-13T15:34:01Z</time>
      </trkpt>
      <trkpt lat="45.95002" lon="5.77452">
        <ele>1252.6</ele>
        <time>2026-05-13T15:34:02Z</time>
      </trkpt>
      <trkpt lat="45.95005" lon="5.77454">
        <ele>1252</ele>
        <time>2026-05-13T15:34:03Z</time>
      </trkpt>
      <trkpt lat="45.95009" lon="5.77456">
        <ele>1251.6</ele>
        <time>2026-05-13T15:34:04Z</time>
      </trkpt>
      <trkpt lat="45.95013" lon="5.77458">
        <ele>1251.4</ele>
        <time>2026-05-13T15:34:05Z</time>
      </trkpt>
      <trkpt lat="45.95017" lon="5.7746">
        <ele>1251</ele>
        <time>2026-05-13T15:34:06Z</time>
      </trkpt>
      <trkpt lat="45.9502" lon="5.77462">
        <ele>1251.4</ele>
        <time>2026-05-13T15:34:07Z</time>
      </trkpt>
      <trkpt lat="45.95023" lon="5.77464">
        <ele>1251.8</ele>
        <time>2026-05-13T15:34:08Z</time>
      </trkpt>
      <trkpt lat="45.95026" lon="5.77466">
        <ele>1252.2</ele>
        <time>2026-05-13T15:34:09Z</time>
      </trkpt>
      <trkpt lat="45.95029" lon="5.77467">
        <ele>1252.2</ele>
        <time>2026-05-13T15:34:10Z</time>
      </trkpt>
      <trkpt lat="45.95031" lon="5.77469">
        <ele>1252.2</ele>
        <time>2026-05-13T15:34:11Z</time>
      </trkpt>
      <trkpt lat="45.95033" lon="5.77471">
        <ele>1252.6</ele>
        <time>2026-05-13T15:34:12Z</time>
      </trkpt>
      <trkpt lat="45.95035" lon="5.77472">
        <ele>1252.6</ele>
        <time>2026-05-13T15:34:13Z</time>
      </trkpt>
      <trkpt lat="45.95036" lon="5.77473">
        <ele>1252.8</ele>
        <time>2026-05-13T15:34:14Z</time>
      </trkpt>
      <trkpt lat="45.95038" lon="5.77474">
        <ele>1253.2</ele>
        <time>2026-05-13T15:34:15Z</time>
      </trkpt>
      <trkpt lat="45.95039" lon="5.77475">
        <ele>1253.2</ele>
        <time>2026-05-13T15:34:16Z</time>
      </trkpt>
      <trkpt lat="45.95041" lon="5.77476">
        <ele>1253.6</ele>
        <time>2026-05-13T15:34:17Z</time>
      </trkpt>
      <trkpt lat="45.95043" lon="5.77477">
        <ele>1253.6</ele>
        <time>2026-05-13T15:34:18Z</time>
      </trkpt>
      <trkpt lat="45.95045" lon="5.77478">
        <ele>1253.6</ele>
        <time>2026-05-13T15:34:19Z</time>
      </trkpt>
      <trkpt lat="45.95046" lon="5.77478">
        <ele>1254.2</ele>
        <time>2026-05-13T15:34:20Z</time>
      </trkpt>
      <trkpt lat="45.95048" lon="5.77479">
        <ele>1254.4</ele>
        <time>2026-05-13T15:34:21Z</time>
      </trkpt>
      <trkpt lat="45.9505" lon="5.7748">
        <ele>1254.4</ele>
        <time>2026-05-13T15:34:22Z</time>
      </trkpt>
      <trkpt lat="45.95052" lon="5.7748">
        <ele>1254.8</ele>
        <time>2026-05-13T15:34:23Z</time>
      </trkpt>
      <trkpt lat="45.95054" lon="5.7748">
        <ele>1255</ele>
        <time>2026-05-13T15:34:24Z</time>
      </trkpt>
      <trkpt lat="45.95056" lon="5.7748">
        <ele>1255</ele>
        <time>2026-05-13T15:34:25Z</time>
      </trkpt>
      <trkpt lat="45.95059" lon="5.77479">
        <ele>1255</ele>
        <time>2026-05-13T15:34:26Z</time>
      </trkpt>
      <trkpt lat="45.95061" lon="5.77478">
        <ele>1255</ele>
        <time>2026-05-13T15:34:27Z</time>
      </trkpt>
      <trkpt lat="45.95063" lon="5.77477">
        <ele>1255.6</ele>
        <time>2026-05-13T15:34:28Z</time>
      </trkpt>
      <trkpt lat="45.95064" lon="5.77476">
        <ele>1255.8</ele>
        <time>2026-05-13T15:34:29Z</time>
      </trkpt>
      <trkpt lat="45.95065" lon="5.77474">
        <ele>1255.8</ele>
        <time>2026-05-13T15:34:30Z</time>
      </trkpt>
      <trkpt lat="45.95067" lon="5.77473">
        <ele>1256.2</ele>
        <time>2026-05-13T15:34:31Z</time>
      </trkpt>
      <trkpt lat="45.95069" lon="5.77471">
        <ele>1256.2</ele>
        <time>2026-05-13T15:34:32Z</time>
      </trkpt>
      <trkpt lat="45.95071" lon="5.7747">
        <ele>1256.2</ele>
        <time>2026-05-13T15:34:33Z</time>
      </trkpt>
      <trkpt lat="45.95073" lon="5.77468">
        <ele>1256.2</ele>
        <time>2026-05-13T15:34:34Z</time>
      </trkpt>
      <trkpt lat="45.95075" lon="5.77467">
        <ele>1256.4</ele>
        <time>2026-05-13T15:34:35Z</time>
      </trkpt>
      <trkpt lat="45.95077" lon="5.77465">
        <ele>1256.4</ele>
        <time>2026-05-13T15:34:36Z</time>
      </trkpt>
      <trkpt lat="45.95079" lon="5.77464">
        <ele>1256.4</ele>
        <time>2026-05-13T15:34:37Z</time>
      </trkpt>
      <trkpt lat="45.95081" lon="5.77463">
        <ele>1256.4</ele>
        <time>2026-05-13T15:34:38Z</time>
      </trkpt>
      <trkpt lat="45.95083" lon="5.77461">
        <ele>1256.4</ele>
        <time>2026-05-13T15:34:39Z</time>
      </trkpt>
      <trkpt lat="45.95085" lon="5.7746">
        <ele>1256.6</ele>
        <time>2026-05-13T15:34:40Z</time>
      </trkpt>
      <trkpt lat="45.95087" lon="5.77459">
        <ele>1256.6</ele>
        <time>2026-05-13T15:34:41Z</time>
      </trkpt>
      <trkpt lat="45.95089" lon="5.77457">
        <ele>1256.6</ele>
        <time>2026-05-13T15:34:42Z</time>
      </trkpt>
      <trkpt lat="45.95091" lon="5.77457">
        <ele>1256.6</ele>
        <time>2026-05-13T15:34:43Z</time>
      </trkpt>
      <trkpt lat="45.95093" lon="5.77456">
        <ele>1257</ele>
        <time>2026-05-13T15:34:44Z</time>
      </trkpt>
      <trkpt lat="45.95095" lon="5.77455">
        <ele>1257</ele>
        <time>2026-05-13T15:34:45Z</time>
      </trkpt>
      <trkpt lat="45.95097" lon="5.77454">
        <ele>1257</ele>
        <time>2026-05-13T15:34:46Z</time>
      </trkpt>
      <trkpt lat="45.95099" lon="5.77454">
        <ele>1257</ele>
        <time>2026-05-13T15:34:47Z</time>
      </trkpt>
      <trkpt lat="45.95102" lon="5.77453">
        <ele>1257.4</ele>
        <time>2026-05-13T15:34:48Z</time>
      </trkpt>
      <trkpt lat="45.95104" lon="5.77453">
        <ele>1257.6</ele>
        <time>2026-05-13T15:34:49Z</time>
      </trkpt>
      <trkpt lat="45.95106" lon="5.77453">
        <ele>1257.6</ele>
        <time>2026-05-13T15:34:50Z</time>
      </trkpt>
      <trkpt lat="45.95108" lon="5.77454">
        <ele>1257.8</ele>
        <time>2026-05-13T15:34:51Z</time>
      </trkpt>
      <trkpt lat="45.95111" lon="5.77454">
        <ele>1257.8</ele>
        <time>2026-05-13T15:34:52Z</time>
      </trkpt>
      <trkpt lat="45.95113" lon="5.77454">
        <ele>1257.8</ele>
        <time>2026-05-13T15:34:53Z</time>
      </trkpt>
      <trkpt lat="45.95115" lon="5.77455">
        <ele>1257.8</ele>
        <time>2026-05-13T15:34:54Z</time>
      </trkpt>
      <trkpt lat="45.95118" lon="5.77455">
        <ele>1257.8</ele>
        <time>2026-05-13T15:34:55Z</time>
      </trkpt>
      <trkpt lat="45.9512" lon="5.77456">
        <ele>1257.8</ele>
        <time>2026-05-13T15:34:56Z</time>
      </trkpt>
      <trkpt lat="45.95123" lon="5.77456">
        <ele>1257.8</ele>
        <time>2026-05-13T15:34:57Z</time>
      </trkpt>
      <trkpt lat="45.95126" lon="5.77456">
        <ele>1257.8</ele>
        <time>2026-05-13T15:34:58Z</time>
      </trkpt>
      <trkpt lat="45.95128" lon="5.77456">
        <ele>1257.8</ele>
        <time>2026-05-13T15:34:59Z</time>
      </trkpt>
      <trkpt lat="45.95131" lon="5.77456">
        <ele>1257.8</ele>
        <time>2026-05-13T15:35:00Z</time>
      </trkpt>
      <trkpt lat="45.95134" lon="5.77457">
        <ele>1258.2</ele>
        <time>2026-05-13T15:35:01Z</time>
      </trkpt>
      <trkpt lat="45.95137" lon="5.77457">
        <ele>1258.2</ele>
        <time>2026-05-13T15:35:02Z</time>
      </trkpt>
      <trkpt lat="45.9514" lon="5.77458">
        <ele>1258.6</ele>
        <time>2026-05-13T15:35:03Z</time>
      </trkpt>
      <trkpt lat="45.95144" lon="5.77458">
        <ele>1258.8</ele>
        <time>2026-05-13T15:35:04Z</time>
      </trkpt>
      <trkpt lat="45.95148" lon="5.77458">
        <ele>1258.4</ele>
        <time>2026-05-13T15:35:05Z</time>
      </trkpt>
      <trkpt lat="45.95152" lon="5.77459">
        <ele>1257.8</ele>
        <time>2026-05-13T15:35:06Z</time>
      </trkpt>
      <trkpt lat="45.95156" lon="5.77458">
        <ele>1258</ele>
        <time>2026-05-13T15:35:07Z</time>
      </trkpt>
      <trkpt lat="45.95159" lon="5.77458">
        <ele>1258</ele>
        <time>2026-05-13T15:35:08Z</time>
      </trkpt>
      <trkpt lat="45.95163" lon="5.77457">
        <ele>1257.4</ele>
        <time>2026-05-13T15:35:09Z</time>
      </trkpt>
      <trkpt lat="45.95167" lon="5.77455">
        <ele>1257.4</ele>
        <time>2026-05-13T15:35:10Z</time>
      </trkpt>
      <trkpt lat="45.95171" lon="5.77455">
        <ele>1257</ele>
        <time>2026-05-13T15:35:11Z</time>
      </trkpt>
      <trkpt lat="45.95175" lon="5.77455">
        <ele>1255.8</ele>
        <time>2026-05-13T15:35:12Z</time>
      </trkpt>
      <trkpt lat="45.95178" lon="5.77455">
        <ele>1256.4</ele>
        <time>2026-05-13T15:35:13Z</time>
      </trkpt>
      <trkpt lat="45.95181" lon="5.77455">
        <ele>1256.8</ele>
        <time>2026-05-13T15:35:14Z</time>
      </trkpt>
      <trkpt lat="45.95184" lon="5.77457">
        <ele>1256.8</ele>
        <time>2026-05-13T15:35:15Z</time>
      </trkpt>
      <trkpt lat="45.95186" lon="5.77459">
        <ele>1256.8</ele>
        <time>2026-05-13T15:35:16Z</time>
      </trkpt>
      <trkpt lat="45.95188" lon="5.77464">
        <ele>1256.6</ele>
        <time>2026-05-13T15:35:17Z</time>
      </trkpt>
      <trkpt lat="45.95188" lon="5.7747">
        <ele>1256.6</ele>
        <time>2026-05-13T15:35:18Z</time>
      </trkpt>
      <trkpt lat="45.95188" lon="5.77476">
        <ele>1256.4</ele>
        <time>2026-05-13T15:35:19Z</time>
      </trkpt>
      <trkpt lat="45.95188" lon="5.77481">
        <ele>1256.4</ele>
        <time>2026-05-13T15:35:20Z</time>
      </trkpt>
      <trkpt lat="45.95188" lon="5.77487">
        <ele>1256.2</ele>
        <time>2026-05-13T15:35:21Z</time>
      </trkpt>
      <trkpt lat="45.95187" lon="5.77492">
        <ele>1256.2</ele>
        <time>2026-05-13T15:35:22Z</time>
      </trkpt>
      <trkpt lat="45.95187" lon="5.77497">
        <ele>1256.2</ele>
        <time>2026-05-13T15:35:23Z</time>
      </trkpt>
      <trkpt lat="45.95186" lon="5.775">
        <ele>1256.2</ele>
        <time>2026-05-13T15:35:24Z</time>
      </trkpt>
      <trkpt lat="45.95186" lon="5.77503">
        <ele>1256.2</ele>
        <time>2026-05-13T15:35:25Z</time>
      </trkpt>
      <trkpt lat="45.95186" lon="5.77506">
        <ele>1256.4</ele>
        <time>2026-05-13T15:35:26Z</time>
      </trkpt>
      <trkpt lat="45.95185" lon="5.77509">
        <ele>1256.4</ele>
        <time>2026-05-13T15:35:27Z</time>
      </trkpt>
      <trkpt lat="45.95185" lon="5.77509">
        <ele>1256.4</ele>
        <time>2026-05-13T15:35:28Z</time>
      </trkpt>
      <trkpt lat="45.95184" lon="5.77511">
        <ele>1256.6</ele>
        <time>2026-05-13T15:35:29Z</time>
      </trkpt>
      <trkpt lat="45.95184" lon="5.77513">
        <ele>1256.6</ele>
        <time>2026-05-13T15:35:30Z</time>
      </trkpt>
      <trkpt lat="45.95183" lon="5.77513">
        <ele>1256.6</ele>
        <time>2026-05-13T15:35:31Z</time>
      </trkpt>
      <trkpt lat="45.95183" lon="5.77513">
        <ele>1256.2</ele>
        <time>2026-05-13T15:35:32Z</time>
      </trkpt>
      <trkpt lat="45.95187" lon="5.77499">
        <ele>1257</ele>
        <time>2026-05-13T15:36:15Z</time>
      </trkpt>
      <trkpt lat="45.95188" lon="5.77495">
        <ele>1257</ele>
        <time>2026-05-13T15:36:16Z</time>
      </trkpt>
      <trkpt lat="45.95188" lon="5.77487">
        <ele>1256.8</ele>
        <time>2026-05-13T15:36:17Z</time>
      </trkpt>
      <trkpt lat="45.95188" lon="5.77482">
        <ele>1256.2</ele>
        <time>2026-05-13T15:36:18Z</time>
      </trkpt>
      <trkpt lat="45.95188" lon="5.77475">
        <ele>1256.2</ele>
        <time>2026-05-13T15:36:19Z</time>
      </trkpt>
      <trkpt lat="45.95188" lon="5.77468">
        <ele>1256.2</ele>
        <time>2026-05-13T15:36:20Z</time>
      </trkpt>
      <trkpt lat="45.95188" lon="5.77461">
        <ele>1256.2</ele>
        <time>2026-05-13T15:36:21Z</time>
      </trkpt>
      <trkpt lat="45.95188" lon="5.77455">
        <ele>1256.6</ele>
        <time>2026-05-13T15:36:22Z</time>
      </trkpt>
      <trkpt lat="45.95188" lon="5.77449">
        <ele>1256.6</ele>
        <time>2026-05-13T15:36:23Z</time>
      </trkpt>
      <trkpt lat="45.95188" lon="5.77443">
        <ele>1256.6</ele>
        <time>2026-05-13T15:36:24Z</time>
      </trkpt>
      <trkpt lat="45.95188" lon="5.77437">
        <ele>1256.8</ele>
        <time>2026-05-13T15:36:25Z</time>
      </trkpt>
      <trkpt lat="45.95188" lon="5.77431">
        <ele>1256.8</ele>
        <time>2026-05-13T15:36:26Z</time>
      </trkpt>
      <trkpt lat="45.95187" lon="5.77426">
        <ele>1257.6</ele>
        <time>2026-05-13T15:36:27Z</time>
      </trkpt>
      <trkpt lat="45.95186" lon="5.77421">
        <ele>1258</ele>
        <time>2026-05-13T15:36:28Z</time>
      </trkpt>
      <trkpt lat="45.95185" lon="5.77416">
        <ele>1258.6</ele>
        <time>2026-05-13T15:36:29Z</time>
      </trkpt>
      <trkpt lat="45.95183" lon="5.77411">
        <ele>1258.6</ele>
        <time>2026-05-13T15:36:30Z</time>
      </trkpt>
      <trkpt lat="45.95183" lon="5.77407">
        <ele>1258.8</ele>
        <time>2026-05-13T15:36:31Z</time>
      </trkpt>
      <trkpt lat="45.95185" lon="5.77404">
        <ele>1259.2</ele>
        <time>2026-05-13T15:36:32Z</time>
      </trkpt>
      <trkpt lat="45.95186" lon="5.77399">
        <ele>1259.2</ele>
        <time>2026-05-13T15:36:33Z</time>
      </trkpt>
      <trkpt lat="45.95187" lon="5.77396">
        <ele>1259.4</ele>
        <time>2026-05-13T15:36:34Z</time>
      </trkpt>
      <trkpt lat="45.95189" lon="5.77394">
        <ele>1259.8</ele>
        <time>2026-05-13T15:36:35Z</time>
      </trkpt>
      <trkpt lat="45.9519" lon="5.77392">
        <ele>1260.2</ele>
        <time>2026-05-13T15:36:36Z</time>
      </trkpt>
      <trkpt lat="45.95192" lon="5.7739">
        <ele>1260.4</ele>
        <time>2026-05-13T15:36:37Z</time>
      </trkpt>
      <trkpt lat="45.95194" lon="5.77389">
        <ele>1260.8</ele>
        <time>2026-05-13T15:36:38Z</time>
      </trkpt>
      <trkpt lat="45.95197" lon="5.77388">
        <ele>1260.8</ele>
        <time>2026-05-13T15:36:39Z</time>
      </trkpt>
      <trkpt lat="45.95199" lon="5.77387">
        <ele>1261.2</ele>
        <time>2026-05-13T15:36:40Z</time>
      </trkpt>
      <trkpt lat="45.95202" lon="5.77385">
        <ele>1261.4</ele>
        <time>2026-05-13T15:36:41Z</time>
      </trkpt>
      <trkpt lat="45.95206" lon="5.77385">
        <ele>1261.4</ele>
        <time>2026-05-13T15:36:42Z</time>
      </trkpt>
      <trkpt lat="45.9521" lon="5.77387">
        <ele>1261.4</ele>
        <time>2026-05-13T15:36:43Z</time>
      </trkpt>
      <trkpt lat="45.95214" lon="5.77393">
        <ele>1261.4</ele>
        <time>2026-05-13T15:36:44Z</time>
      </trkpt>
      <trkpt lat="45.95218" lon="5.77397">
        <ele>1261.2</ele>
        <time>2026-05-13T15:36:45Z</time>
      </trkpt>
      <trkpt lat="45.95222" lon="5.77402">
        <ele>1261.2</ele>
        <time>2026-05-13T15:36:46Z</time>
      </trkpt>
      <trkpt lat="45.95227" lon="5.77407">
        <ele>1260.8</ele>
        <time>2026-05-13T15:36:47Z</time>
      </trkpt>
      <trkpt lat="45.95232" lon="5.77413">
        <ele>1260.6</ele>
        <time>2026-05-13T15:36:48Z</time>
      </trkpt>
      <trkpt lat="45.95237" lon="5.77419">
        <ele>1260</ele>
        <time>2026-05-13T15:36:49Z</time>
      </trkpt>
      <trkpt lat="45.95242" lon="5.77426">
        <ele>1259.6</ele>
        <time>2026-05-13T15:36:50Z</time>
      </trkpt>
      <trkpt lat="45.95249" lon="5.77433">
        <ele>1258.6</ele>
        <time>2026-05-13T15:36:51Z</time>
      </trkpt>
      <trkpt lat="45.95254" lon="5.7744">
        <ele>1257.8</ele>
        <time>2026-05-13T15:36:52Z</time>
      </trkpt>
      <trkpt lat="45.95261" lon="5.7745">
        <ele>1257</ele>
        <time>2026-05-13T15:36:53Z</time>
      </trkpt>
      <trkpt lat="45.95267" lon="5.77459">
        <ele>1256.2</ele>
        <time>2026-05-13T15:36:54Z</time>
      </trkpt>
      <trkpt lat="45.95273" lon="5.77468">
        <ele>1255.4</ele>
        <time>2026-05-13T15:36:55Z</time>
      </trkpt>
      <trkpt lat="45.95281" lon="5.77478">
        <ele>1255</ele>
        <time>2026-05-13T15:36:56Z</time>
      </trkpt>
      <trkpt lat="45.95287" lon="5.77488">
        <ele>1254.2</ele>
        <time>2026-05-13T15:36:57Z</time>
      </trkpt>
      <trkpt lat="45.95294" lon="5.77497">
        <ele>1254</ele>
        <time>2026-05-13T15:36:58Z</time>
      </trkpt>
      <trkpt lat="45.95299" lon="5.77506">
        <ele>1253.6</ele>
        <time>2026-05-13T15:36:59Z</time>
      </trkpt>
      <trkpt lat="45.95304" lon="5.77512">
        <ele>1253.6</ele>
        <time>2026-05-13T15:37:00Z</time>
      </trkpt>
      <trkpt lat="45.95304" lon="5.77512">
        <ele>1253</ele>
        <time>2026-05-13T15:37:01Z</time>
      </trkpt>
      <trkpt lat="45.95304" lon="5.77512">
        <ele>1253</ele>
        <time>2026-05-13T15:37:02Z</time>
      </trkpt>
      <trkpt lat="45.9532" lon="5.77528">
        <ele>1253.6</ele>
        <time>2026-05-13T15:37:03Z</time>
      </trkpt>
      <trkpt lat="45.95326" lon="5.77532">
        <ele>1253.8</ele>
        <time>2026-05-13T15:37:04Z</time>
      </trkpt>
      <trkpt lat="45.95331" lon="5.77535">
        <ele>1253.8</ele>
        <time>2026-05-13T15:37:05Z</time>
      </trkpt>
      <trkpt lat="45.95336" lon="5.77538">
        <ele>1254</ele>
        <time>2026-05-13T15:37:06Z</time>
      </trkpt>
      <trkpt lat="45.95341" lon="5.77541">
        <ele>1254</ele>
        <time>2026-05-13T15:37:07Z</time>
      </trkpt>
      <trkpt lat="45.95344" lon="5.77543">
        <ele>1254</ele>
        <time>2026-05-13T15:37:08Z</time>
      </trkpt>
      <trkpt lat="45.95347" lon="5.77544">
        <ele>1254</ele>
        <time>2026-05-13T15:37:09Z</time>
      </trkpt>
      <trkpt lat="45.9535" lon="5.77546">
        <ele>1254</ele>
        <time>2026-05-13T15:37:10Z</time>
      </trkpt>
      <trkpt lat="45.95353" lon="5.77547">
        <ele>1254</ele>
        <time>2026-05-13T15:37:11Z</time>
      </trkpt>
      <trkpt lat="45.95356" lon="5.77549">
        <ele>1254</ele>
        <time>2026-05-13T15:37:12Z</time>
      </trkpt>
      <trkpt lat="45.95359" lon="5.7755">
        <ele>1253.8</ele>
        <time>2026-05-13T15:37:13Z</time>
      </trkpt>
      <trkpt lat="45.95361" lon="5.77552">
        <ele>1253.8</ele>
        <time>2026-05-13T15:37:14Z</time>
      </trkpt>
      <trkpt lat="45.95361" lon="5.77553">
        <ele>1253.6</ele>
        <time>2026-05-13T15:37:15Z</time>
      </trkpt>
      <trkpt lat="45.95362" lon="5.77555">
        <ele>1253.6</ele>
        <time>2026-05-13T15:37:16Z</time>
      </trkpt>
      <trkpt lat="45.95363" lon="5.77555">
        <ele>1253.2</ele>
        <time>2026-05-13T15:37:17Z</time>
      </trkpt>
      <trkpt lat="45.95363" lon="5.77556">
        <ele>1253.2</ele>
        <time>2026-05-13T15:37:18Z</time>
      </trkpt>
      <trkpt lat="45.95363" lon="5.77556">
        <ele>1253.2</ele>
        <time>2026-05-13T15:37:19Z</time>
      </trkpt>
      <trkpt lat="45.95363" lon="5.77556">
        <ele>1253</ele>
        <time>2026-05-13T15:37:20Z</time>
      </trkpt>
      <trkpt lat="45.95363" lon="5.77559">
        <ele>1253.2</ele>
        <time>2026-05-13T15:37:35Z</time>
      </trkpt>
      <trkpt lat="45.95363" lon="5.77559">
        <ele>1253.2</ele>
        <time>2026-05-13T15:37:36Z</time>
      </trkpt>
      <trkpt lat="45.95363" lon="5.77558">
        <ele>1253.2</ele>
        <time>2026-05-13T15:37:37Z</time>
      </trkpt>
      <trkpt lat="45.95364" lon="5.77557">
        <ele>1253.2</ele>
        <time>2026-05-13T15:37:38Z</time>
      </trkpt>
      <trkpt lat="45.95364" lon="5.77558">
        <ele>1253.6</ele>
        <time>2026-05-13T15:38:26Z</time>
      </trkpt>
      <trkpt lat="45.95365" lon="5.7756">
        <ele>1253.2</ele>
        <time>2026-05-13T15:38:27Z</time>
      </trkpt>
      <trkpt lat="45.95365" lon="5.77562">
        <ele>1253.2</ele>
        <time>2026-05-13T15:38:28Z</time>
      </trkpt>
      <trkpt lat="45.95366" lon="5.77564">
        <ele>1253.2</ele>
        <time>2026-05-13T15:38:29Z</time>
      </trkpt>
      <trkpt lat="45.95367" lon="5.77565">
        <ele>1252.6</ele>
        <time>2026-05-13T15:38:30Z</time>
      </trkpt>
      <trkpt lat="45.95368" lon="5.77566">
        <ele>1252.6</ele>
        <time>2026-05-13T15:38:31Z</time>
      </trkpt>
      <trkpt lat="45.95368" lon="5.77567">
        <ele>1252.6</ele>
        <time>2026-05-13T15:38:32Z</time>
      </trkpt>
      <trkpt lat="45.95368" lon="5.77567">
        <ele>1252.6</ele>
        <time>2026-05-13T15:38:33Z</time>
      </trkpt>
      <trkpt lat="45.95368" lon="5.77568">
        <ele>1252.4</ele>
        <time>2026-05-13T15:38:34Z</time>
      </trkpt>
      <trkpt lat="45.95368" lon="5.77568">
        <ele>1252.4</ele>
        <time>2026-05-13T15:38:35Z</time>
      </trkpt>
      <trkpt lat="45.95367" lon="5.77567">
        <ele>1252.4</ele>
        <time>2026-05-13T15:38:36Z</time>
      </trkpt>
      <trkpt lat="45.95368" lon="5.77566">
        <ele>1253</ele>
        <time>2026-05-13T15:39:22Z</time>
      </trkpt>
      <trkpt lat="45.95368" lon="5.77566">
        <ele>1252.8</ele>
        <time>2026-05-13T15:39:23Z</time>
      </trkpt>
      <trkpt lat="45.95369" lon="5.77567">
        <ele>1252.8</ele>
        <time>2026-05-13T15:39:24Z</time>
      </trkpt>
      <trkpt lat="45.95371" lon="5.77567">
        <ele>1252.6</ele>
        <time>2026-05-13T15:39:25Z</time>
      </trkpt>
      <trkpt lat="45.95373" lon="5.77566">
        <ele>1252.6</ele>
        <time>2026-05-13T15:39:26Z</time>
      </trkpt>
      <trkpt lat="45.95374" lon="5.77566">
        <ele>1252.6</ele>
        <time>2026-05-13T15:39:27Z</time>
      </trkpt>
      <trkpt lat="45.95376" lon="5.77565">
        <ele>1252.6</ele>
        <time>2026-05-13T15:39:28Z</time>
      </trkpt>
      <trkpt lat="45.95378" lon="5.77564">
        <ele>1252.6</ele>
        <time>2026-05-13T15:39:29Z</time>
      </trkpt>
      <trkpt lat="45.9538" lon="5.77563">
        <ele>1252.6</ele>
        <time>2026-05-13T15:39:30Z</time>
      </trkpt>
      <trkpt lat="45.95383" lon="5.77562">
        <ele>1252.6</ele>
        <time>2026-05-13T15:39:31Z</time>
      </trkpt>
      <trkpt lat="45.95385" lon="5.7756">
        <ele>1252.6</ele>
        <time>2026-05-13T15:39:32Z</time>
      </trkpt>
      <trkpt lat="45.95387" lon="5.77559">
        <ele>1252.8</ele>
        <time>2026-05-13T15:39:33Z</time>
      </trkpt>
      <trkpt lat="45.95389" lon="5.77558">
        <ele>1252.8</ele>
        <time>2026-05-13T15:39:34Z</time>
      </trkpt>
      <trkpt lat="45.95392" lon="5.77558">
        <ele>1252.8</ele>
        <time>2026-05-13T15:39:35Z</time>
      </trkpt>
      <trkpt lat="45.95395" lon="5.77557">
        <ele>1252.8</ele>
        <time>2026-05-13T15:39:36Z</time>
      </trkpt>
      <trkpt lat="45.95398" lon="5.77555">
        <ele>1252.8</ele>
        <time>2026-05-13T15:39:37Z</time>
      </trkpt>
      <trkpt lat="45.95401" lon="5.77554">
        <ele>1252.8</ele>
        <time>2026-05-13T15:39:38Z</time>
      </trkpt>
      <trkpt lat="45.95404" lon="5.77552">
        <ele>1252.8</ele>
        <time>2026-05-13T15:39:39Z</time>
      </trkpt>
      <trkpt lat="45.95406" lon="5.7755">
        <ele>1252.4</ele>
        <time>2026-05-13T15:39:40Z</time>
      </trkpt>
      <trkpt lat="45.95409" lon="5.77548">
        <ele>1252.4</ele>
        <time>2026-05-13T15:39:41Z</time>
      </trkpt>
      <trkpt lat="45.95412" lon="5.77545">
        <ele>1252.4</ele>
        <time>2026-05-13T15:39:42Z</time>
      </trkpt>
      <trkpt lat="45.95413" lon="5.77544">
        <ele>1252.4</ele>
        <time>2026-05-13T15:39:43Z</time>
      </trkpt>
      <trkpt lat="45.95416" lon="5.77542">
        <ele>1252.4</ele>
        <time>2026-05-13T15:39:44Z</time>
      </trkpt>
      <trkpt lat="45.95419" lon="5.77541">
        <ele>1252.4</ele>
        <time>2026-05-13T15:39:45Z</time>
      </trkpt>
      <trkpt lat="45.95421" lon="5.7754">
        <ele>1252.2</ele>
        <time>2026-05-13T15:39:46Z</time>
      </trkpt>
      <trkpt lat="45.95424" lon="5.7754">
        <ele>1252.2</ele>
        <time>2026-05-13T15:39:47Z</time>
      </trkpt>
      <trkpt lat="45.95427" lon="5.7754">
        <ele>1252.2</ele>
        <time>2026-05-13T15:39:48Z</time>
      </trkpt>
      <trkpt lat="45.95431" lon="5.7754">
        <ele>1252.2</ele>
        <time>2026-05-13T15:39:49Z</time>
      </trkpt>
      <trkpt lat="45.95434" lon="5.77541">
        <ele>1252</ele>
        <time>2026-05-13T15:39:50Z</time>
      </trkpt>
      <trkpt lat="45.95437" lon="5.77541">
        <ele>1252</ele>
        <time>2026-05-13T15:39:51Z</time>
      </trkpt>
      <trkpt lat="45.9544" lon="5.77542">
        <ele>1251.6</ele>
        <time>2026-05-13T15:39:52Z</time>
      </trkpt>
      <trkpt lat="45.95443" lon="5.77542">
        <ele>1251.6</ele>
        <time>2026-05-13T15:39:53Z</time>
      </trkpt>
      <trkpt lat="45.95446" lon="5.77543">
        <ele>1251.6</ele>
        <time>2026-05-13T15:39:54Z</time>
      </trkpt>
      <trkpt lat="45.9545" lon="5.77545">
        <ele>1251.6</ele>
        <time>2026-05-13T15:39:55Z</time>
      </trkpt>
      <trkpt lat="45.95453" lon="5.77546">
        <ele>1251.6</ele>
        <time>2026-05-13T15:39:56Z</time>
      </trkpt>
      <trkpt lat="45.95456" lon="5.77547">
        <ele>1251.6</ele>
        <time>2026-05-13T15:39:57Z</time>
      </trkpt>
      <trkpt lat="45.95459" lon="5.77548">
        <ele>1251.6</ele>
        <time>2026-05-13T15:39:58Z</time>
      </trkpt>
      <trkpt lat="45.95461" lon="5.7755">
        <ele>1251.6</ele>
        <time>2026-05-13T15:39:59Z</time>
      </trkpt>
      <trkpt lat="45.95464" lon="5.77551">
        <ele>1251.6</ele>
        <time>2026-05-13T15:40:00Z</time>
      </trkpt>
      <trkpt lat="45.95466" lon="5.77552">
        <ele>1251.6</ele>
        <time>2026-05-13T15:40:01Z</time>
      </trkpt>
      <trkpt lat="45.95469" lon="5.77553">
        <ele>1251.6</ele>
        <time>2026-05-13T15:40:02Z</time>
      </trkpt>
      <trkpt lat="45.95471" lon="5.77554">
        <ele>1252</ele>
        <time>2026-05-13T15:40:03Z</time>
      </trkpt>
      <trkpt lat="45.95474" lon="5.77555">
        <ele>1252.2</ele>
        <time>2026-05-13T15:40:04Z</time>
      </trkpt>
      <trkpt lat="45.95477" lon="5.77557">
        <ele>1252.2</ele>
        <time>2026-05-13T15:40:05Z</time>
      </trkpt>
      <trkpt lat="45.9548" lon="5.77557">
        <ele>1252</ele>
        <time>2026-05-13T15:40:06Z</time>
      </trkpt>
      <trkpt lat="45.95484" lon="5.77557">
        <ele>1252</ele>
        <time>2026-05-13T15:40:07Z</time>
      </trkpt>
      <trkpt lat="45.95487" lon="5.77557">
        <ele>1252.6</ele>
        <time>2026-05-13T15:40:08Z</time>
      </trkpt>
      <trkpt lat="45.95491" lon="5.77557">
        <ele>1253.4</ele>
        <time>2026-05-13T15:40:09Z</time>
      </trkpt>
      <trkpt lat="45.95494" lon="5.77556">
        <ele>1253.4</ele>
        <time>2026-05-13T15:40:10Z</time>
      </trkpt>
      <trkpt lat="45.95497" lon="5.77554">
        <ele>1253</ele>
        <time>2026-05-13T15:40:11Z</time>
      </trkpt>
      <trkpt lat="45.95501" lon="5.77553">
        <ele>1253</ele>
        <time>2026-05-13T15:40:12Z</time>
      </trkpt>
      <trkpt lat="45.95504" lon="5.77551">
        <ele>1253</ele>
        <time>2026-05-13T15:40:13Z</time>
      </trkpt>
      <trkpt lat="45.95507" lon="5.77549">
        <ele>1253</ele>
        <time>2026-05-13T15:40:14Z</time>
      </trkpt>
      <trkpt lat="45.9551" lon="5.77548">
        <ele>1253</ele>
        <time>2026-05-13T15:40:15Z</time>
      </trkpt>
      <trkpt lat="45.95512" lon="5.77546">
        <ele>1253.4</ele>
        <time>2026-05-13T15:40:16Z</time>
      </trkpt>
      <trkpt lat="45.95515" lon="5.77544">
        <ele>1253.4</ele>
        <time>2026-05-13T15:40:17Z</time>
      </trkpt>
      <trkpt lat="45.95518" lon="5.77543">
        <ele>1253.8</ele>
        <time>2026-05-13T15:40:18Z</time>
      </trkpt>
      <trkpt lat="45.9552" lon="5.77541">
        <ele>1253.8</ele>
        <time>2026-05-13T15:40:19Z</time>
      </trkpt>
      <trkpt lat="45.95522" lon="5.7754">
        <ele>1254.2</ele>
        <time>2026-05-13T15:40:20Z</time>
      </trkpt>
      <trkpt lat="45.95525" lon="5.77538">
        <ele>1254.2</ele>
        <time>2026-05-13T15:40:21Z</time>
      </trkpt>
      <trkpt lat="45.95527" lon="5.77537">
        <ele>1254.2</ele>
        <time>2026-05-13T15:40:22Z</time>
      </trkpt>
      <trkpt lat="45.9553" lon="5.77536">
        <ele>1254.2</ele>
        <time>2026-05-13T15:40:23Z</time>
      </trkpt>
      <trkpt lat="45.95532" lon="5.77534">
        <ele>1254.2</ele>
        <time>2026-05-13T15:40:24Z</time>
      </trkpt>
      <trkpt lat="45.95535" lon="5.77533">
        <ele>1254.4</ele>
        <time>2026-05-13T15:40:25Z</time>
      </trkpt>
      <trkpt lat="45.9554" lon="5.7753">
        <ele>1254.4</ele>
        <time>2026-05-13T15:40:26Z</time>
      </trkpt>
      <trkpt lat="45.95543" lon="5.77528">
        <ele>1254.8</ele>
        <time>2026-05-13T15:40:27Z</time>
      </trkpt>
      <trkpt lat="45.95545" lon="5.77527">
        <ele>1254.8</ele>
        <time>2026-05-13T15:40:28Z</time>
      </trkpt>
      <trkpt lat="45.95548" lon="5.77526">
        <ele>1255.2</ele>
        <time>2026-05-13T15:40:29Z</time>
      </trkpt>
      <trkpt lat="45.9555" lon="5.77524">
        <ele>1255.2</ele>
        <time>2026-05-13T15:40:30Z</time>
      </trkpt>
      <trkpt lat="45.95553" lon="5.77523">
        <ele>1255.4</ele>
        <time>2026-05-13T15:40:31Z</time>
      </trkpt>
      <trkpt lat="45.95555" lon="5.77523">
        <ele>1255.4</ele>
        <time>2026-05-13T15:40:32Z</time>
      </trkpt>
      <trkpt lat="45.95558" lon="5.77521">
        <ele>1255.4</ele>
        <time>2026-05-13T15:40:33Z</time>
      </trkpt>
      <trkpt lat="45.9556" lon="5.7752">
        <ele>1256</ele>
        <time>2026-05-13T15:40:34Z</time>
      </trkpt>
      <trkpt lat="45.95563" lon="5.77519">
        <ele>1256</ele>
        <time>2026-05-13T15:40:35Z</time>
      </trkpt>
      <trkpt lat="45.95566" lon="5.77518">
        <ele>1256</ele>
        <time>2026-05-13T15:40:36Z</time>
      </trkpt>
      <trkpt lat="45.95568" lon="5.77517">
        <ele>1256</ele>
        <time>2026-05-13T15:40:37Z</time>
      </trkpt>
      <trkpt lat="45.95571" lon="5.77516">
        <ele>1256</ele>
        <time>2026-05-13T15:40:38Z</time>
      </trkpt>
      <trkpt lat="45.95574" lon="5.77515">
        <ele>1256.4</ele>
        <time>2026-05-13T15:40:39Z</time>
      </trkpt>
      <trkpt lat="45.95577" lon="5.77513">
        <ele>1256.4</ele>
        <time>2026-05-13T15:40:40Z</time>
      </trkpt>
      <trkpt lat="45.9558" lon="5.77512">
        <ele>1256.4</ele>
        <time>2026-05-13T15:40:41Z</time>
      </trkpt>
      <trkpt lat="45.95583" lon="5.77511">
        <ele>1256.4</ele>
        <time>2026-05-13T15:40:42Z</time>
      </trkpt>
      <trkpt lat="45.95586" lon="5.7751">
        <ele>1256.4</ele>
        <time>2026-05-13T15:40:43Z</time>
      </trkpt>
      <trkpt lat="45.95589" lon="5.7751">
        <ele>1256.6</ele>
        <time>2026-05-13T15:40:44Z</time>
      </trkpt>
      <trkpt lat="45.95592" lon="5.77509">
        <ele>1256.8</ele>
        <time>2026-05-13T15:40:45Z</time>
      </trkpt>
      <trkpt lat="45.95595" lon="5.77508">
        <ele>1256.8</ele>
        <time>2026-05-13T15:40:46Z</time>
      </trkpt>
      <trkpt lat="45.95598" lon="5.77508">
        <ele>1256.8</ele>
        <time>2026-05-13T15:40:47Z</time>
      </trkpt>
      <trkpt lat="45.95601" lon="5.77507">
        <ele>1256.4</ele>
        <time>2026-05-13T15:40:48Z</time>
      </trkpt>
      <trkpt lat="45.95604" lon="5.77507">
        <ele>1256.8</ele>
        <time>2026-05-13T15:40:49Z</time>
      </trkpt>
      <trkpt lat="45.95606" lon="5.77506">
        <ele>1256.8</ele>
        <time>2026-05-13T15:40:50Z</time>
      </trkpt>
      <trkpt lat="45.95609" lon="5.77505">
        <ele>1256.8</ele>
        <time>2026-05-13T15:40:51Z</time>
      </trkpt>
      <trkpt lat="45.95612" lon="5.77505">
        <ele>1256.8</ele>
        <time>2026-05-13T15:40:52Z</time>
      </trkpt>
      <trkpt lat="45.95615" lon="5.77504">
        <ele>1257</ele>
        <time>2026-05-13T15:40:53Z</time>
      </trkpt>
      <trkpt lat="45.95618" lon="5.77504">
        <ele>1257</ele>
        <time>2026-05-13T15:40:54Z</time>
      </trkpt>
      <trkpt lat="45.95621" lon="5.77503">
        <ele>1257.6</ele>
        <time>2026-05-13T15:40:55Z</time>
      </trkpt>
      <trkpt lat="45.95624" lon="5.77503">
        <ele>1257.6</ele>
        <time>2026-05-13T15:40:56Z</time>
      </trkpt>
      <trkpt lat="45.95626" lon="5.77502">
        <ele>1257.6</ele>
        <time>2026-05-13T15:40:57Z</time>
      </trkpt>
      <trkpt lat="45.95629" lon="5.77502">
        <ele>1257.6</ele>
        <time>2026-05-13T15:40:58Z</time>
      </trkpt>
      <trkpt lat="45.95632" lon="5.77501">
        <ele>1258</ele>
        <time>2026-05-13T15:40:59Z</time>
      </trkpt>
      <trkpt lat="45.95635" lon="5.77501">
        <ele>1258</ele>
        <time>2026-05-13T15:41:00Z</time>
      </trkpt>
      <trkpt lat="45.95637" lon="5.775">
        <ele>1258</ele>
        <time>2026-05-13T15:41:01Z</time>
      </trkpt>
      <trkpt lat="45.95639" lon="5.775">
        <ele>1258</ele>
        <time>2026-05-13T15:41:02Z</time>
      </trkpt>
      <trkpt lat="45.9564" lon="5.775">
        <ele>1258</ele>
        <time>2026-05-13T15:41:03Z</time>
      </trkpt>
      <trkpt lat="45.9564" lon="5.775">
        <ele>1258</ele>
        <time>2026-05-13T15:41:04Z</time>
      </trkpt>
      <trkpt lat="45.9564" lon="5.775">
        <ele>1258</ele>
        <time>2026-05-13T15:41:05Z</time>
      </trkpt>
      <trkpt lat="45.95638" lon="5.77501">
        <ele>1258</ele>
        <time>2026-05-13T15:41:22Z</time>
      </trkpt>
      <trkpt lat="45.95637" lon="5.77501">
        <ele>1258</ele>
        <time>2026-05-13T15:41:23Z</time>
      </trkpt>
      <trkpt lat="45.95637" lon="5.77502">
        <ele>1258</ele>
        <time>2026-05-13T15:41:24Z</time>
      </trkpt>
      <trkpt lat="45.95636" lon="5.77503">
        <ele>1258</ele>
        <time>2026-05-13T15:41:25Z</time>
      </trkpt>
      <trkpt lat="45.95636" lon="5.77504">
        <ele>1258</ele>
        <time>2026-05-13T15:41:26Z</time>
      </trkpt>
      <trkpt lat="45.95636" lon="5.77504">
        <ele>1258</ele>
        <time>2026-05-13T15:41:27Z</time>
      </trkpt>
      <trkpt lat="45.95635" lon="5.77504">
        <ele>1258</ele>
        <time>2026-05-13T15:41:28Z</time>
      </trkpt>
      <trkpt lat="45.95635" lon="5.77504">
        <ele>1258</ele>
        <time>2026-05-13T15:41:29Z</time>
      </trkpt>
      <trkpt lat="45.95634" lon="5.77505">
        <ele>1258</ele>
        <time>2026-05-13T15:41:30Z</time>
      </trkpt>
      <trkpt lat="45.95634" lon="5.77505">
        <ele>1258</ele>
        <time>2026-05-13T15:41:31Z</time>
      </trkpt>
      <trkpt lat="45.95634" lon="5.77505">
        <ele>1258</ele>
        <time>2026-05-13T15:41:32Z</time>
      </trkpt>
      <trkpt lat="45.95634" lon="5.77505">
        <ele>1258.2</ele>
        <time>2026-05-13T15:41:33Z</time>
      </trkpt>
      <trkpt lat="45.95635" lon="5.77504">
        <ele>1258.2</ele>
        <time>2026-05-13T15:41:34Z</time>
      </trkpt>
      <trkpt lat="45.95636" lon="5.77504">
        <ele>1258.2</ele>
        <time>2026-05-13T15:41:35Z</time>
      </trkpt>
      <trkpt lat="45.95637" lon="5.77504">
        <ele>1258.2</ele>
        <time>2026-05-13T15:41:36Z</time>
      </trkpt>
      <trkpt lat="45.95638" lon="5.77505">
        <ele>1258.2</ele>
        <time>2026-05-13T15:41:37Z</time>
      </trkpt>
      <trkpt lat="45.95638" lon="5.77505">
        <ele>1258.2</ele>
        <time>2026-05-13T15:41:38Z</time>
      </trkpt>
      <trkpt lat="45.95639" lon="5.77505">
        <ele>1258.2</ele>
        <time>2026-05-13T15:41:39Z</time>
      </trkpt>
      <trkpt lat="45.9564" lon="5.77505">
        <ele>1258.4</ele>
        <time>2026-05-13T15:41:40Z</time>
      </trkpt>
      <trkpt lat="45.9564" lon="5.77505">
        <ele>1258.4</ele>
        <time>2026-05-13T15:41:41Z</time>
      </trkpt>
      <trkpt lat="45.95641" lon="5.77505">
        <ele>1258.4</ele>
        <time>2026-05-13T15:41:42Z</time>
      </trkpt>
      <trkpt lat="45.95641" lon="5.77505">
        <ele>1258.4</ele>
        <time>2026-05-13T15:41:43Z</time>
      </trkpt>
      <trkpt lat="45.9569" lon="5.77489">
        <ele>1255.6</ele>
        <time>2026-05-13T15:52:17Z</time>
      </trkpt>
      <trkpt lat="45.95692" lon="5.77488">
        <ele>1255.8</ele>
        <time>2026-05-13T15:52:18Z</time>
      </trkpt>
      <trkpt lat="45.95695" lon="5.77487">
        <ele>1255.8</ele>
        <time>2026-05-13T15:52:19Z</time>
      </trkpt>
      <trkpt lat="45.95697" lon="5.77486">
        <ele>1256.2</ele>
        <time>2026-05-13T15:52:20Z</time>
      </trkpt>
      <trkpt lat="45.95699" lon="5.77485">
        <ele>1255.8</ele>
        <time>2026-05-13T15:52:21Z</time>
      </trkpt>
      <trkpt lat="45.95702" lon="5.77483">
        <ele>1255</ele>
        <time>2026-05-13T15:52:22Z</time>
      </trkpt>
      <trkpt lat="45.95705" lon="5.77481">
        <ele>1255</ele>
        <time>2026-05-13T15:52:23Z</time>
      </trkpt>
      <trkpt lat="45.95707" lon="5.77477">
        <ele>1255</ele>
        <time>2026-05-13T15:52:24Z</time>
      </trkpt>
      <trkpt lat="45.95709" lon="5.77473">
        <ele>1255.8</ele>
        <time>2026-05-13T15:52:25Z</time>
      </trkpt>
      <trkpt lat="45.95713" lon="5.77462">
        <ele>1255.6</ele>
        <time>2026-05-13T15:52:26Z</time>
      </trkpt>
      <trkpt lat="45.95714" lon="5.77455">
        <ele>1255.6</ele>
        <time>2026-05-13T15:52:27Z</time>
      </trkpt>
      <trkpt lat="45.95715" lon="5.77449">
        <ele>1255</ele>
        <time>2026-05-13T15:52:28Z</time>
      </trkpt>
      <trkpt lat="45.95717" lon="5.77442">
        <ele>1254.6</ele>
        <time>2026-05-13T15:52:29Z</time>
      </trkpt>
      <trkpt lat="45.95716" lon="5.77434">
        <ele>1254.2</ele>
        <time>2026-05-13T15:52:30Z</time>
      </trkpt>
      <trkpt lat="45.95715" lon="5.77425">
        <ele>1253.8</ele>
        <time>2026-05-13T15:52:31Z</time>
      </trkpt>
      <trkpt lat="45.95715" lon="5.77417">
        <ele>1253</ele>
        <time>2026-05-13T15:52:32Z</time>
      </trkpt>
      <trkpt lat="45.95713" lon="5.77412">
        <ele>1252.2</ele>
        <time>2026-05-13T15:52:33Z</time>
      </trkpt>
      <trkpt lat="45.9571" lon="5.77403">
        <ele>1251.6</ele>
        <time>2026-05-13T15:52:34Z</time>
      </trkpt>
      <trkpt lat="45.95707" lon="5.77397">
        <ele>1250.2</ele>
        <time>2026-05-13T15:52:35Z</time>
      </trkpt>
      <trkpt lat="45.95703" lon="5.77391">
        <ele>1250.2</ele>
        <time>2026-05-13T15:52:36Z</time>
      </trkpt>
      <trkpt lat="45.957" lon="5.77383">
        <ele>1250.4</ele>
        <time>2026-05-13T15:52:37Z</time>
      </trkpt>
      <trkpt lat="45.95698" lon="5.77376">
        <ele>1250.2</ele>
        <time>2026-05-13T15:52:38Z</time>
      </trkpt>
      <trkpt lat="45.95696" lon="5.77366">
        <ele>1249.8</ele>
        <time>2026-05-13T15:52:39Z</time>
      </trkpt>
      <trkpt lat="45.95695" lon="5.77359">
        <ele>1249.8</ele>
        <time>2026-05-13T15:52:40Z</time>
      </trkpt>
      <trkpt lat="45.95693" lon="5.77353">
        <ele>1249.8</ele>
        <time>2026-05-13T15:52:41Z</time>
      </trkpt>
      <trkpt lat="45.95692" lon="5.77345">
        <ele>1249.6</ele>
        <time>2026-05-13T15:52:42Z</time>
      </trkpt>
      <trkpt lat="45.9569" lon="5.77339">
        <ele>1249.6</ele>
        <time>2026-05-13T15:52:43Z</time>
      </trkpt>
      <trkpt lat="45.95688" lon="5.77333">
        <ele>1249</ele>
        <time>2026-05-13T15:52:44Z</time>
      </trkpt>
      <trkpt lat="45.95686" lon="5.77326">
        <ele>1249.4</ele>
        <time>2026-05-13T15:52:45Z</time>
      </trkpt>
      <trkpt lat="45.95684" lon="5.77319">
        <ele>1248.8</ele>
        <time>2026-05-13T15:52:46Z</time>
      </trkpt>
      <trkpt lat="45.95684" lon="5.77312">
        <ele>1246.8</ele>
        <time>2026-05-13T15:52:47Z</time>
      </trkpt>
      <trkpt lat="45.95682" lon="5.77304">
        <ele>1247.2</ele>
        <time>2026-05-13T15:52:48Z</time>
      </trkpt>
      <trkpt lat="45.95682" lon="5.77297">
        <ele>1248.2</ele>
        <time>2026-05-13T15:52:49Z</time>
      </trkpt>
      <trkpt lat="45.95686" lon="5.77292">
        <ele>1247.8</ele>
        <time>2026-05-13T15:52:50Z</time>
      </trkpt>
      <trkpt lat="45.95689" lon="5.77286">
        <ele>1247.8</ele>
        <time>2026-05-13T15:52:51Z</time>
      </trkpt>
      <trkpt lat="45.95693" lon="5.77282">
        <ele>1247.8</ele>
        <time>2026-05-13T15:52:52Z</time>
      </trkpt>
      <trkpt lat="45.95697" lon="5.77279">
        <ele>1247.8</ele>
        <time>2026-05-13T15:52:53Z</time>
      </trkpt>
      <trkpt lat="45.95702" lon="5.77275">
        <ele>1247.6</ele>
        <time>2026-05-13T15:52:54Z</time>
      </trkpt>
      <trkpt lat="45.95707" lon="5.77272">
        <ele>1247.6</ele>
        <time>2026-05-13T15:52:55Z</time>
      </trkpt>
      <trkpt lat="45.95712" lon="5.77268">
        <ele>1247.6</ele>
        <time>2026-05-13T15:52:56Z</time>
      </trkpt>
      <trkpt lat="45.95716" lon="5.77263">
        <ele>1247.2</ele>
        <time>2026-05-13T15:52:57Z</time>
      </trkpt>
      <trkpt lat="45.9572" lon="5.77259">
        <ele>1246.8</ele>
        <time>2026-05-13T15:52:58Z</time>
      </trkpt>
      <trkpt lat="45.95725" lon="5.77254">
        <ele>1246.8</ele>
        <time>2026-05-13T15:52:59Z</time>
      </trkpt>
      <trkpt lat="45.95728" lon="5.77252">
        <ele>1246.4</ele>
        <time>2026-05-13T15:53:00Z</time>
      </trkpt>
      <trkpt lat="45.95734" lon="5.77246">
        <ele>1246.8</ele>
        <time>2026-05-13T15:53:01Z</time>
      </trkpt>
      <trkpt lat="45.95738" lon="5.77241">
        <ele>1246.8</ele>
        <time>2026-05-13T15:53:02Z</time>
      </trkpt>
      <trkpt lat="45.95743" lon="5.77237">
        <ele>1246.4</ele>
        <time>2026-05-13T15:53:03Z</time>
      </trkpt>
      <trkpt lat="45.95747" lon="5.77233">
        <ele>1246.4</ele>
        <time>2026-05-13T15:53:04Z</time>
      </trkpt>
      <trkpt lat="45.95751" lon="5.77226">
        <ele>1247.2</ele>
        <time>2026-05-13T15:53:05Z</time>
      </trkpt>
      <trkpt lat="45.95756" lon="5.77222">
        <ele>1246.8</ele>
        <time>2026-05-13T15:53:06Z</time>
      </trkpt>
      <trkpt lat="45.95761" lon="5.77217">
        <ele>1246.8</ele>
        <time>2026-05-13T15:53:07Z</time>
      </trkpt>
      <trkpt lat="45.95766" lon="5.77213">
        <ele>1246.8</ele>
        <time>2026-05-13T15:53:08Z</time>
      </trkpt>
      <trkpt lat="45.95771" lon="5.77209">
        <ele>1246.8</ele>
        <time>2026-05-13T15:53:09Z</time>
      </trkpt>
      <trkpt lat="45.95776" lon="5.77204">
        <ele>1246.8</ele>
        <time>2026-05-13T15:53:10Z</time>
      </trkpt>
      <trkpt lat="45.95781" lon="5.772">
        <ele>1246.8</ele>
        <time>2026-05-13T15:53:11Z</time>
      </trkpt>
      <trkpt lat="45.95786" lon="5.77197">
        <ele>1247</ele>
        <time>2026-05-13T15:53:12Z</time>
      </trkpt>
      <trkpt lat="45.9579" lon="5.77194">
        <ele>1247.6</ele>
        <time>2026-05-13T15:53:13Z</time>
      </trkpt>
      <trkpt lat="45.95794" lon="5.77192">
        <ele>1247.6</ele>
        <time>2026-05-13T15:53:14Z</time>
      </trkpt>
      <trkpt lat="45.95798" lon="5.7719">
        <ele>1247.6</ele>
        <time>2026-05-13T15:53:15Z</time>
      </trkpt>
      <trkpt lat="45.95802" lon="5.77189">
        <ele>1247.6</ele>
        <time>2026-05-13T15:53:16Z</time>
      </trkpt>
      <trkpt lat="45.95805" lon="5.77188">
        <ele>1248</ele>
        <time>2026-05-13T15:53:17Z</time>
      </trkpt>
      <trkpt lat="45.95808" lon="5.77185">
        <ele>1248</ele>
        <time>2026-05-13T15:53:18Z</time>
      </trkpt>
      <trkpt lat="45.9581" lon="5.77183">
        <ele>1248.4</ele>
        <time>2026-05-13T15:53:19Z</time>
      </trkpt>
      <trkpt lat="45.95813" lon="5.77179">
        <ele>1248.4</ele>
        <time>2026-05-13T15:53:20Z</time>
      </trkpt>
      <trkpt lat="45.95815" lon="5.77176">
        <ele>1248.8</ele>
        <time>2026-05-13T15:53:21Z</time>
      </trkpt>
      <trkpt lat="45.95817" lon="5.77175">
        <ele>1248.8</ele>
        <time>2026-05-13T15:53:22Z</time>
      </trkpt>
      <trkpt lat="45.9582" lon="5.77172">
        <ele>1248.8</ele>
        <time>2026-05-13T15:53:23Z</time>
      </trkpt>
      <trkpt lat="45.95823" lon="5.7717">
        <ele>1248.8</ele>
        <time>2026-05-13T15:53:24Z</time>
      </trkpt>
      <trkpt lat="45.95825" lon="5.77168">
        <ele>1248.8</ele>
        <time>2026-05-13T15:53:25Z</time>
      </trkpt>
      <trkpt lat="45.95827" lon="5.77165">
        <ele>1248.6</ele>
        <time>2026-05-13T15:53:26Z</time>
      </trkpt>
      <trkpt lat="45.9583" lon="5.77163">
        <ele>1248.8</ele>
        <time>2026-05-13T15:53:27Z</time>
      </trkpt>
      <trkpt lat="45.95832" lon="5.77161">
        <ele>1249</ele>
        <time>2026-05-13T15:53:28Z</time>
      </trkpt>
      <trkpt lat="45.95834" lon="5.77159">
        <ele>1249.2</ele>
        <time>2026-05-13T15:53:29Z</time>
      </trkpt>
      <trkpt lat="45.95836" lon="5.77158">
        <ele>1249.2</ele>
        <time>2026-05-13T15:53:30Z</time>
      </trkpt>
      <trkpt lat="45.95838" lon="5.77157">
        <ele>1249.6</ele>
        <time>2026-05-13T15:53:31Z</time>
      </trkpt>
      <trkpt lat="45.9584" lon="5.77155">
        <ele>1249.6</ele>
        <time>2026-05-13T15:53:32Z</time>
      </trkpt>
      <trkpt lat="45.95842" lon="5.77154">
        <ele>1249.6</ele>
        <time>2026-05-13T15:53:33Z</time>
      </trkpt>
      <trkpt lat="45.95844" lon="5.77153">
        <ele>1250</ele>
        <time>2026-05-13T15:53:34Z</time>
      </trkpt>
      <trkpt lat="45.95845" lon="5.77153">
        <ele>1250</ele>
        <time>2026-05-13T15:53:35Z</time>
      </trkpt>
      <trkpt lat="45.95847" lon="5.77153">
        <ele>1250.4</ele>
        <time>2026-05-13T15:53:36Z</time>
      </trkpt>
      <trkpt lat="45.95849" lon="5.77152">
        <ele>1250.6</ele>
        <time>2026-05-13T15:53:37Z</time>
      </trkpt>
      <trkpt lat="45.95851" lon="5.77151">
        <ele>1250.6</ele>
        <time>2026-05-13T15:53:38Z</time>
      </trkpt>
      <trkpt lat="45.95852" lon="5.77151">
        <ele>1251</ele>
        <time>2026-05-13T15:53:39Z</time>
      </trkpt>
      <trkpt lat="45.95854" lon="5.77151">
        <ele>1251.2</ele>
        <time>2026-05-13T15:53:40Z</time>
      </trkpt>
      <trkpt lat="45.95855" lon="5.77151">
        <ele>1251.2</ele>
        <time>2026-05-13T15:53:41Z</time>
      </trkpt>
      <trkpt lat="45.95857" lon="5.77151">
        <ele>1251.8</ele>
        <time>2026-05-13T15:53:42Z</time>
      </trkpt>
      <trkpt lat="45.95858" lon="5.77151">
        <ele>1252</ele>
        <time>2026-05-13T15:53:43Z</time>
      </trkpt>
      <trkpt lat="45.95859" lon="5.7715">
        <ele>1251.8</ele>
        <time>2026-05-13T15:53:44Z</time>
      </trkpt>
      <trkpt lat="45.95861" lon="5.77149">
        <ele>1251.8</ele>
        <time>2026-05-13T15:53:45Z</time>
      </trkpt>
      <trkpt lat="45.95863" lon="5.77149">
        <ele>1252</ele>
        <time>2026-05-13T15:53:46Z</time>
      </trkpt>
      <trkpt lat="45.95864" lon="5.77149">
        <ele>1252</ele>
        <time>2026-05-13T15:53:47Z</time>
      </trkpt>
      <trkpt lat="45.95865" lon="5.7715">
        <ele>1252.6</ele>
        <time>2026-05-13T15:53:48Z</time>
      </trkpt>
      <trkpt lat="45.95866" lon="5.7715">
        <ele>1253</ele>
        <time>2026-05-13T15:53:49Z</time>
      </trkpt>
      <trkpt lat="45.95867" lon="5.77149">
        <ele>1253</ele>
        <time>2026-05-13T15:53:50Z</time>
      </trkpt>
      <trkpt lat="45.95868" lon="5.77148">
        <ele>1253.2</ele>
        <time>2026-05-13T15:53:51Z</time>
      </trkpt>
      <trkpt lat="45.95869" lon="5.77147">
        <ele>1253.2</ele>
        <time>2026-05-13T15:53:52Z</time>
      </trkpt>
      <trkpt lat="45.95871" lon="5.77147">
        <ele>1253.6</ele>
        <time>2026-05-13T15:53:53Z</time>
      </trkpt>
      <trkpt lat="45.95873" lon="5.77146">
        <ele>1253.6</ele>
        <time>2026-05-13T15:53:54Z</time>
      </trkpt>
      <trkpt lat="45.95874" lon="5.77146">
        <ele>1254</ele>
        <time>2026-05-13T15:53:55Z</time>
      </trkpt>
      <trkpt lat="45.95876" lon="5.77145">
        <ele>1254</ele>
        <time>2026-05-13T15:53:56Z</time>
      </trkpt>
      <trkpt lat="45.95878" lon="5.77143">
        <ele>1254</ele>
        <time>2026-05-13T15:53:57Z</time>
      </trkpt>
      <trkpt lat="45.95881" lon="5.77141">
        <ele>1254.4</ele>
        <time>2026-05-13T15:53:58Z</time>
      </trkpt>
      <trkpt lat="45.95882" lon="5.77139">
        <ele>1254.4</ele>
        <time>2026-05-13T15:53:59Z</time>
      </trkpt>
      <trkpt lat="45.95884" lon="5.77138">
        <ele>1255</ele>
        <time>2026-05-13T15:54:00Z</time>
      </trkpt>
      <trkpt lat="45.95885" lon="5.77137">
        <ele>1255.2</ele>
        <time>2026-05-13T15:54:01Z</time>
      </trkpt>
      <trkpt lat="45.95887" lon="5.77137">
        <ele>1255.2</ele>
        <time>2026-05-13T15:54:02Z</time>
      </trkpt>
      <trkpt lat="45.95889" lon="5.77136">
        <ele>1255.8</ele>
        <time>2026-05-13T15:54:03Z</time>
      </trkpt>
      <trkpt lat="45.9589" lon="5.77135">
        <ele>1255.8</ele>
        <time>2026-05-13T15:54:04Z</time>
      </trkpt>
      <trkpt lat="45.95892" lon="5.77134">
        <ele>1255.8</ele>
        <time>2026-05-13T15:54:05Z</time>
      </trkpt>
      <trkpt lat="45.95892" lon="5.77133">
        <ele>1256</ele>
        <time>2026-05-13T15:54:06Z</time>
      </trkpt>
      <trkpt lat="45.95894" lon="5.77132">
        <ele>1256</ele>
        <time>2026-05-13T15:54:07Z</time>
      </trkpt>
      <trkpt lat="45.95895" lon="5.77131">
        <ele>1256</ele>
        <time>2026-05-13T15:54:08Z</time>
      </trkpt>
      <trkpt lat="45.95896" lon="5.7713">
        <ele>1256.4</ele>
        <time>2026-05-13T15:54:09Z</time>
      </trkpt>
      <trkpt lat="45.95897" lon="5.77129">
        <ele>1256.6</ele>
        <time>2026-05-13T15:54:10Z</time>
      </trkpt>
      <trkpt lat="45.95899" lon="5.77128">
        <ele>1256.6</ele>
        <time>2026-05-13T15:54:11Z</time>
      </trkpt>
      <trkpt lat="45.95899" lon="5.77128">
        <ele>1257</ele>
        <time>2026-05-13T15:54:12Z</time>
      </trkpt>
      <trkpt lat="45.95901" lon="5.77127">
        <ele>1257.2</ele>
        <time>2026-05-13T15:54:13Z</time>
      </trkpt>
      <trkpt lat="45.95902" lon="5.77125">
        <ele>1257.2</ele>
        <time>2026-05-13T15:54:14Z</time>
      </trkpt>
      <trkpt lat="45.95904" lon="5.77122">
        <ele>1257.2</ele>
        <time>2026-05-13T15:54:15Z</time>
      </trkpt>
      <trkpt lat="45.95905" lon="5.77121">
        <ele>1257.2</ele>
        <time>2026-05-13T15:54:16Z</time>
      </trkpt>
      <trkpt lat="45.95906" lon="5.77119">
        <ele>1257.6</ele>
        <time>2026-05-13T15:54:17Z</time>
      </trkpt>
      <trkpt lat="45.95908" lon="5.77117">
        <ele>1257.6</ele>
        <time>2026-05-13T15:54:18Z</time>
      </trkpt>
      <trkpt lat="45.9591" lon="5.77114">
        <ele>1257.6</ele>
        <time>2026-05-13T15:54:19Z</time>
      </trkpt>
      <trkpt lat="45.95912" lon="5.77112">
        <ele>1257.6</ele>
        <time>2026-05-13T15:54:20Z</time>
      </trkpt>
      <trkpt lat="45.95913" lon="5.7711">
        <ele>1257.6</ele>
        <time>2026-05-13T15:54:21Z</time>
      </trkpt>
      <trkpt lat="45.95914" lon="5.77107">
        <ele>1257.6</ele>
        <time>2026-05-13T15:54:22Z</time>
      </trkpt>
      <trkpt lat="45.95916" lon="5.77103">
        <ele>1257.6</ele>
        <time>2026-05-13T15:54:23Z</time>
      </trkpt>
      <trkpt lat="45.95917" lon="5.771">
        <ele>1257.6</ele>
        <time>2026-05-13T15:54:24Z</time>
      </trkpt>
      <trkpt lat="45.95919" lon="5.77097">
        <ele>1257.6</ele>
        <time>2026-05-13T15:54:25Z</time>
      </trkpt>
      <trkpt lat="45.95921" lon="5.77094">
        <ele>1257.6</ele>
        <time>2026-05-13T15:54:26Z</time>
      </trkpt>
      <trkpt lat="45.95923" lon="5.7709">
        <ele>1257.2</ele>
        <time>2026-05-13T15:54:27Z</time>
      </trkpt>
      <trkpt lat="45.95925" lon="5.77086">
        <ele>1257.2</ele>
        <time>2026-05-13T15:54:28Z</time>
      </trkpt>
      <trkpt lat="45.95927" lon="5.77083">
        <ele>1257.2</ele>
        <time>2026-05-13T15:54:29Z</time>
      </trkpt>
      <trkpt lat="45.95929" lon="5.7708">
        <ele>1257.2</ele>
        <time>2026-05-13T15:54:30Z</time>
      </trkpt>
      <trkpt lat="45.95931" lon="5.77076">
        <ele>1257.4</ele>
        <time>2026-05-13T15:54:31Z</time>
      </trkpt>
      <trkpt lat="45.95933" lon="5.77072">
        <ele>1257</ele>
        <time>2026-05-13T15:54:32Z</time>
      </trkpt>
      <trkpt lat="45.95934" lon="5.77069">
        <ele>1257</ele>
        <time>2026-05-13T15:54:33Z</time>
      </trkpt>
      <trkpt lat="45.95936" lon="5.77065">
        <ele>1257</ele>
        <time>2026-05-13T15:54:34Z</time>
      </trkpt>
      <trkpt lat="45.95938" lon="5.77062">
        <ele>1257</ele>
        <time>2026-05-13T15:54:35Z</time>
      </trkpt>
      <trkpt lat="45.95939" lon="5.77058">
        <ele>1257.6</ele>
        <time>2026-05-13T15:54:36Z</time>
      </trkpt>
      <trkpt lat="45.95941" lon="5.77054">
        <ele>1257.6</ele>
        <time>2026-05-13T15:54:37Z</time>
      </trkpt>
      <trkpt lat="45.95942" lon="5.77049">
        <ele>1257.6</ele>
        <time>2026-05-13T15:54:38Z</time>
      </trkpt>
      <trkpt lat="45.95942" lon="5.77044">
        <ele>1257.8</ele>
        <time>2026-05-13T15:54:39Z</time>
      </trkpt>
      <trkpt lat="45.95942" lon="5.77039">
        <ele>1257.8</ele>
        <time>2026-05-13T15:54:40Z</time>
      </trkpt>
      <trkpt lat="45.95942" lon="5.77034">
        <ele>1257.2</ele>
        <time>2026-05-13T15:54:41Z</time>
      </trkpt>
      <trkpt lat="45.95942" lon="5.7703">
        <ele>1257.6</ele>
        <time>2026-05-13T15:54:42Z</time>
      </trkpt>
      <trkpt lat="45.95943" lon="5.77025">
        <ele>1257.6</ele>
        <time>2026-05-13T15:54:43Z</time>
      </trkpt>
      <trkpt lat="45.95943" lon="5.7702">
        <ele>1257.6</ele>
        <time>2026-05-13T15:54:44Z</time>
      </trkpt>
      <trkpt lat="45.95944" lon="5.77016">
        <ele>1257.6</ele>
        <time>2026-05-13T15:54:45Z</time>
      </trkpt>
      <trkpt lat="45.95946" lon="5.77012">
        <ele>1257.6</ele>
        <time>2026-05-13T15:54:46Z</time>
      </trkpt>
      <trkpt lat="45.95948" lon="5.77008">
        <ele>1257.6</ele>
        <time>2026-05-13T15:54:47Z</time>
      </trkpt>
      <trkpt lat="45.9595" lon="5.77004">
        <ele>1257.6</ele>
        <time>2026-05-13T15:54:48Z</time>
      </trkpt>
      <trkpt lat="45.95952" lon="5.77">
        <ele>1257.6</ele>
        <time>2026-05-13T15:54:49Z</time>
      </trkpt>
      <trkpt lat="45.95953" lon="5.76995">
        <ele>1257.6</ele>
        <time>2026-05-13T15:54:50Z</time>
      </trkpt>
      <trkpt lat="45.95955" lon="5.76991">
        <ele>1257.6</ele>
        <time>2026-05-13T15:54:51Z</time>
      </trkpt>
      <trkpt lat="45.95956" lon="5.76986">
        <ele>1257.4</ele>
        <time>2026-05-13T15:54:52Z</time>
      </trkpt>
      <trkpt lat="45.95958" lon="5.76982">
        <ele>1257.4</ele>
        <time>2026-05-13T15:54:53Z</time>
      </trkpt>
      <trkpt lat="45.9596" lon="5.76978">
        <ele>1257.4</ele>
        <time>2026-05-13T15:54:54Z</time>
      </trkpt>
      <trkpt lat="45.95962" lon="5.76974">
        <ele>1257</ele>
        <time>2026-05-13T15:54:55Z</time>
      </trkpt>
      <trkpt lat="45.95964" lon="5.7697">
        <ele>1257</ele>
        <time>2026-05-13T15:54:56Z</time>
      </trkpt>
      <trkpt lat="45.95966" lon="5.76966">
        <ele>1257</ele>
        <time>2026-05-13T15:54:57Z</time>
      </trkpt>
      <trkpt lat="45.95968" lon="5.76962">
        <ele>1256.6</ele>
        <time>2026-05-13T15:54:58Z</time>
      </trkpt>
      <trkpt lat="45.9597" lon="5.76958">
        <ele>1256.6</ele>
        <time>2026-05-13T15:54:59Z</time>
      </trkpt>
      <trkpt lat="45.95972" lon="5.76954">
        <ele>1256.6</ele>
        <time>2026-05-13T15:55:00Z</time>
      </trkpt>
      <trkpt lat="45.95973" lon="5.76951">
        <ele>1256.6</ele>
        <time>2026-05-13T15:55:01Z</time>
      </trkpt>
      <trkpt lat="45.95974" lon="5.76948">
        <ele>1256.6</ele>
        <time>2026-05-13T15:55:02Z</time>
      </trkpt>
      <trkpt lat="45.95975" lon="5.76946">
        <ele>1256.6</ele>
        <time>2026-05-13T15:55:03Z</time>
      </trkpt>
      <trkpt lat="45.95976" lon="5.76943">
        <ele>1256.6</ele>
        <time>2026-05-13T15:55:04Z</time>
      </trkpt>
      <trkpt lat="45.95977" lon="5.7694">
        <ele>1256.2</ele>
        <time>2026-05-13T15:55:05Z</time>
      </trkpt>
      <trkpt lat="45.95979" lon="5.76937">
        <ele>1255.6</ele>
        <time>2026-05-13T15:55:06Z</time>
      </trkpt>
      <trkpt lat="45.95982" lon="5.76934">
        <ele>1255.8</ele>
        <time>2026-05-13T15:55:07Z</time>
      </trkpt>
      <trkpt lat="45.95985" lon="5.76931">
        <ele>1255.8</ele>
        <time>2026-05-13T15:55:08Z</time>
      </trkpt>
      <trkpt lat="45.95988" lon="5.76929">
        <ele>1255.8</ele>
        <time>2026-05-13T15:55:09Z</time>
      </trkpt>
      <trkpt lat="45.95992" lon="5.76926">
        <ele>1255.8</ele>
        <time>2026-05-13T15:55:10Z</time>
      </trkpt>
      <trkpt lat="45.95996" lon="5.76924">
        <ele>1255.8</ele>
        <time>2026-05-13T15:55:11Z</time>
      </trkpt>
      <trkpt lat="45.96" lon="5.76919">
        <ele>1255.2</ele>
        <time>2026-05-13T15:55:12Z</time>
      </trkpt>
      <trkpt lat="45.96002" lon="5.76914">
        <ele>1254.8</ele>
        <time>2026-05-13T15:55:13Z</time>
      </trkpt>
      <trkpt lat="45.96004" lon="5.76909">
        <ele>1254.6</ele>
        <time>2026-05-13T15:55:14Z</time>
      </trkpt>
      <trkpt lat="45.96007" lon="5.76903">
        <ele>1254.6</ele>
        <time>2026-05-13T15:55:15Z</time>
      </trkpt>
      <trkpt lat="45.9601" lon="5.76898">
        <ele>1254.6</ele>
        <time>2026-05-13T15:55:16Z</time>
      </trkpt>
      <trkpt lat="45.96013" lon="5.76893">
        <ele>1254.8</ele>
        <time>2026-05-13T15:55:17Z</time>
      </trkpt>
      <trkpt lat="45.96016" lon="5.76888">
        <ele>1254.6</ele>
        <time>2026-05-13T15:55:18Z</time>
      </trkpt>
      <trkpt lat="45.9602" lon="5.76883">
        <ele>1254.2</ele>
        <time>2026-05-13T15:55:19Z</time>
      </trkpt>
      <trkpt lat="45.96024" lon="5.76878">
        <ele>1254</ele>
        <time>2026-05-13T15:55:20Z</time>
      </trkpt>
      <trkpt lat="45.96028" lon="5.76873">
        <ele>1253.2</ele>
        <time>2026-05-13T15:55:21Z</time>
      </trkpt>
      <trkpt lat="45.96034" lon="5.76869">
        <ele>1253.2</ele>
        <time>2026-05-13T15:55:22Z</time>
      </trkpt>
      <trkpt lat="45.96038" lon="5.76864">
        <ele>1253.2</ele>
        <time>2026-05-13T15:55:23Z</time>
      </trkpt>
      <trkpt lat="45.96043" lon="5.7686">
        <ele>1252.8</ele>
        <time>2026-05-13T15:55:24Z</time>
      </trkpt>
      <trkpt lat="45.96048" lon="5.76855">
        <ele>1252.8</ele>
        <time>2026-05-13T15:55:25Z</time>
      </trkpt>
      <trkpt lat="45.96054" lon="5.76853">
        <ele>1252.8</ele>
        <time>2026-05-13T15:55:26Z</time>
      </trkpt>
      <trkpt lat="45.9606" lon="5.76853">
        <ele>1252.8</ele>
        <time>2026-05-13T15:55:27Z</time>
      </trkpt>
      <trkpt lat="45.96065" lon="5.76852">
        <ele>1252.8</ele>
        <time>2026-05-13T15:55:28Z</time>
      </trkpt>
      <trkpt lat="45.96071" lon="5.76852">
        <ele>1252.8</ele>
        <time>2026-05-13T15:55:29Z</time>
      </trkpt>
      <trkpt lat="45.96076" lon="5.76849">
        <ele>1252.6</ele>
        <time>2026-05-13T15:55:30Z</time>
      </trkpt>
      <trkpt lat="45.96079" lon="5.76842">
        <ele>1252.6</ele>
        <time>2026-05-13T15:55:31Z</time>
      </trkpt>
      <trkpt lat="45.96081" lon="5.76837">
        <ele>1252.8</ele>
        <time>2026-05-13T15:55:32Z</time>
      </trkpt>
      <trkpt lat="45.96083" lon="5.7683">
        <ele>1252.8</ele>
        <time>2026-05-13T15:55:33Z</time>
      </trkpt>
      <trkpt lat="45.96086" lon="5.76824">
        <ele>1252.8</ele>
        <time>2026-05-13T15:55:34Z</time>
      </trkpt>
      <trkpt lat="45.9609" lon="5.76817">
        <ele>1252.8</ele>
        <time>2026-05-13T15:55:35Z</time>
      </trkpt>
      <trkpt lat="45.96093" lon="5.76811">
        <ele>1252.8</ele>
        <time>2026-05-13T15:55:36Z</time>
      </trkpt>
      <trkpt lat="45.96096" lon="5.76804">
        <ele>1253.2</ele>
        <time>2026-05-13T15:55:37Z</time>
      </trkpt>
      <trkpt lat="45.961" lon="5.76798">
        <ele>1253</ele>
        <time>2026-05-13T15:55:38Z</time>
      </trkpt>
      <trkpt lat="45.96102" lon="5.7679">
        <ele>1253</ele>
        <time>2026-05-13T15:55:39Z</time>
      </trkpt>
      <trkpt lat="45.96106" lon="5.76784">
        <ele>1252.4</ele>
        <time>2026-05-13T15:55:40Z</time>
      </trkpt>
      <trkpt lat="45.9611" lon="5.76777">
        <ele>1252.4</ele>
        <time>2026-05-13T15:55:41Z</time>
      </trkpt>
      <trkpt lat="45.96115" lon="5.76771">
        <ele>1252.2</ele>
        <time>2026-05-13T15:55:42Z</time>
      </trkpt>
      <trkpt lat="45.96119" lon="5.76767">
        <ele>1251.6</ele>
        <time>2026-05-13T15:55:43Z</time>
      </trkpt>
      <trkpt lat="45.96125" lon="5.76764">
        <ele>1251.8</ele>
        <time>2026-05-13T15:55:44Z</time>
      </trkpt>
      <trkpt lat="45.96131" lon="5.76764">
        <ele>1251.4</ele>
        <time>2026-05-13T15:55:45Z</time>
      </trkpt>
      <trkpt lat="45.96136" lon="5.76765">
        <ele>1251</ele>
        <time>2026-05-13T15:55:46Z</time>
      </trkpt>
      <trkpt lat="45.96142" lon="5.76767">
        <ele>1251</ele>
        <time>2026-05-13T15:55:47Z</time>
      </trkpt>
      <trkpt lat="45.96148" lon="5.76768">
        <ele>1251</ele>
        <time>2026-05-13T15:55:48Z</time>
      </trkpt>
      <trkpt lat="45.96154" lon="5.76771">
        <ele>1250.8</ele>
        <time>2026-05-13T15:55:49Z</time>
      </trkpt>
      <trkpt lat="45.96165" lon="5.76776">
        <ele>1250.8</ele>
        <time>2026-05-13T15:55:50Z</time>
      </trkpt>
      <trkpt lat="45.96171" lon="5.76779">
        <ele>1250.2</ele>
        <time>2026-05-13T15:55:51Z</time>
      </trkpt>
      <trkpt lat="45.96178" lon="5.76782">
        <ele>1249.6</ele>
        <time>2026-05-13T15:55:52Z</time>
      </trkpt>
      <trkpt lat="45.96184" lon="5.76784">
        <ele>1249.4</ele>
        <time>2026-05-13T15:55:53Z</time>
      </trkpt>
      <trkpt lat="45.96191" lon="5.76784">
        <ele>1248.8</ele>
        <time>2026-05-13T15:55:54Z</time>
      </trkpt>
      <trkpt lat="45.96197" lon="5.76785">
        <ele>1248.4</ele>
        <time>2026-05-13T15:55:55Z</time>
      </trkpt>
      <trkpt lat="45.96203" lon="5.76787">
        <ele>1248.4</ele>
        <time>2026-05-13T15:55:56Z</time>
      </trkpt>
      <trkpt lat="45.9621" lon="5.76788">
        <ele>1248.8</ele>
        <time>2026-05-13T15:55:57Z</time>
      </trkpt>
      <trkpt lat="45.96217" lon="5.7679">
        <ele>1248.4</ele>
        <time>2026-05-13T15:55:58Z</time>
      </trkpt>
      <trkpt lat="45.96224" lon="5.76791">
        <ele>1247.2</ele>
        <time>2026-05-13T15:55:59Z</time>
      </trkpt>
      <trkpt lat="45.96231" lon="5.76793">
        <ele>1247.2</ele>
        <time>2026-05-13T15:56:00Z</time>
      </trkpt>
      <trkpt lat="45.96238" lon="5.76797">
        <ele>1247.4</ele>
        <time>2026-05-13T15:56:01Z</time>
      </trkpt>
      <trkpt lat="45.96244" lon="5.76799">
        <ele>1246.6</ele>
        <time>2026-05-13T15:56:02Z</time>
      </trkpt>
      <trkpt lat="45.96251" lon="5.76802">
        <ele>1246.6</ele>
        <time>2026-05-13T15:56:03Z</time>
      </trkpt>
      <trkpt lat="45.96258" lon="5.76804">
        <ele>1247.2</ele>
        <time>2026-05-13T15:56:04Z</time>
      </trkpt>
      <trkpt lat="45.96264" lon="5.76807">
        <ele>1247.2</ele>
        <time>2026-05-13T15:56:05Z</time>
      </trkpt>
      <trkpt lat="45.9627" lon="5.76811">
        <ele>1247.4</ele>
        <time>2026-05-13T15:56:06Z</time>
      </trkpt>
      <trkpt lat="45.96275" lon="5.76816">
        <ele>1244.2</ele>
        <time>2026-05-13T15:56:07Z</time>
      </trkpt>
      <trkpt lat="45.9628" lon="5.76823">
        <ele>1244</ele>
        <time>2026-05-13T15:56:08Z</time>
      </trkpt>
      <trkpt lat="45.96285" lon="5.7683">
        <ele>1243.4</ele>
        <time>2026-05-13T15:56:09Z</time>
      </trkpt>
      <trkpt lat="45.9629" lon="5.76838">
        <ele>1244.2</ele>
        <time>2026-05-13T15:56:10Z</time>
      </trkpt>
      <trkpt lat="45.96295" lon="5.76845">
        <ele>1243.2</ele>
        <time>2026-05-13T15:56:11Z</time>
      </trkpt>
      <trkpt lat="45.963" lon="5.76852">
        <ele>1241.6</ele>
        <time>2026-05-13T15:56:12Z</time>
      </trkpt>
      <trkpt lat="45.96305" lon="5.7686">
        <ele>1241</ele>
        <time>2026-05-13T15:56:13Z</time>
      </trkpt>
      <trkpt lat="45.9631" lon="5.76866">
        <ele>1240.6</ele>
        <time>2026-05-13T15:56:14Z</time>
      </trkpt>
      <trkpt lat="45.96315" lon="5.76872">
        <ele>1240.2</ele>
        <time>2026-05-13T15:56:15Z</time>
      </trkpt>
      <trkpt lat="45.96321" lon="5.76876">
        <ele>1240.2</ele>
        <time>2026-05-13T15:56:16Z</time>
      </trkpt>
      <trkpt lat="45.96328" lon="5.7688">
        <ele>1238.4</ele>
        <time>2026-05-13T15:56:17Z</time>
      </trkpt>
      <trkpt lat="45.96334" lon="5.76884">
        <ele>1237</ele>
        <time>2026-05-13T15:56:18Z</time>
      </trkpt>
      <trkpt lat="45.96342" lon="5.76886">
        <ele>1237</ele>
        <time>2026-05-13T15:56:19Z</time>
      </trkpt>
      <trkpt lat="45.96349" lon="5.76888">
        <ele>1236.8</ele>
        <time>2026-05-13T15:56:20Z</time>
      </trkpt>
      <trkpt lat="45.96356" lon="5.76891">
        <ele>1235.4</ele>
        <time>2026-05-13T15:56:21Z</time>
      </trkpt>
      <trkpt lat="45.96363" lon="5.76894">
        <ele>1235.8</ele>
        <time>2026-05-13T15:56:22Z</time>
      </trkpt>
      <trkpt lat="45.9637" lon="5.76896">
        <ele>1233.6</ele>
        <time>2026-05-13T15:56:23Z</time>
      </trkpt>
      <trkpt lat="45.96377" lon="5.76899">
        <ele>1233.6</ele>
        <time>2026-05-13T15:56:24Z</time>
      </trkpt>
      <trkpt lat="45.96384" lon="5.769">
        <ele>1234</ele>
        <time>2026-05-13T15:56:25Z</time>
      </trkpt>
      <trkpt lat="45.96391" lon="5.769">
        <ele>1231.4</ele>
        <time>2026-05-13T15:56:26Z</time>
      </trkpt>
      <trkpt lat="45.96398" lon="5.769">
        <ele>1230.4</ele>
        <time>2026-05-13T15:56:27Z</time>
      </trkpt>
      <trkpt lat="45.96405" lon="5.769">
        <ele>1229.4</ele>
        <time>2026-05-13T15:56:28Z</time>
      </trkpt>
      <trkpt lat="45.96411" lon="5.769">
        <ele>1229.8</ele>
        <time>2026-05-13T15:56:29Z</time>
      </trkpt>
      <trkpt lat="45.96417" lon="5.76902">
        <ele>1228.6</ele>
        <time>2026-05-13T15:56:30Z</time>
      </trkpt>
      <trkpt lat="45.96423" lon="5.76905">
        <ele>1228.6</ele>
        <time>2026-05-13T15:56:31Z</time>
      </trkpt>
      <trkpt lat="45.96428" lon="5.76911">
        <ele>1227.4</ele>
        <time>2026-05-13T15:56:32Z</time>
      </trkpt>
      <trkpt lat="45.96434" lon="5.76917">
        <ele>1226</ele>
        <time>2026-05-13T15:56:33Z</time>
      </trkpt>
      <trkpt lat="45.96439" lon="5.76923">
        <ele>1225</ele>
        <time>2026-05-13T15:56:34Z</time>
      </trkpt>
      <trkpt lat="45.96445" lon="5.76927">
        <ele>1224.2</ele>
        <time>2026-05-13T15:56:35Z</time>
      </trkpt>
      <trkpt lat="45.96451" lon="5.76929">
        <ele>1223.4</ele>
        <time>2026-05-13T15:56:36Z</time>
      </trkpt>
      <trkpt lat="45.96459" lon="5.76929">
        <ele>1224.2</ele>
        <time>2026-05-13T15:56:37Z</time>
      </trkpt>
      <trkpt lat="45.96465" lon="5.76929">
        <ele>1222.6</ele>
        <time>2026-05-13T15:56:38Z</time>
      </trkpt>
      <trkpt lat="45.9647" lon="5.76928">
        <ele>1222</ele>
        <time>2026-05-13T15:56:39Z</time>
      </trkpt>
      <trkpt lat="45.96476" lon="5.76929">
        <ele>1221.2</ele>
        <time>2026-05-13T15:56:40Z</time>
      </trkpt>
      <trkpt lat="45.96482" lon="5.76928">
        <ele>1221.6</ele>
        <time>2026-05-13T15:56:41Z</time>
      </trkpt>
      <trkpt lat="45.96487" lon="5.76926">
        <ele>1221</ele>
        <time>2026-05-13T15:56:42Z</time>
      </trkpt>
      <trkpt lat="45.96493" lon="5.76926">
        <ele>1221</ele>
        <time>2026-05-13T15:56:43Z</time>
      </trkpt>
      <trkpt lat="45.96499" lon="5.76925">
        <ele>1221</ele>
        <time>2026-05-13T15:56:44Z</time>
      </trkpt>
      <trkpt lat="45.96506" lon="5.76924">
        <ele>1221.6</ele>
        <time>2026-05-13T15:56:45Z</time>
      </trkpt>
      <trkpt lat="45.96512" lon="5.76924">
        <ele>1219.8</ele>
        <time>2026-05-13T15:56:46Z</time>
      </trkpt>
      <trkpt lat="45.96518" lon="5.76922">
        <ele>1218.4</ele>
        <time>2026-05-13T15:56:47Z</time>
      </trkpt>
      <trkpt lat="45.96526" lon="5.76923">
        <ele>1217.8</ele>
        <time>2026-05-13T15:56:48Z</time>
      </trkpt>
      <trkpt lat="45.96532" lon="5.76923">
        <ele>1216.4</ele>
        <time>2026-05-13T15:56:49Z</time>
      </trkpt>
      <trkpt lat="45.96538" lon="5.76922">
        <ele>1216.2</ele>
        <time>2026-05-13T15:56:50Z</time>
      </trkpt>
      <trkpt lat="45.96545" lon="5.76924">
        <ele>1216.2</ele>
        <time>2026-05-13T15:56:51Z</time>
      </trkpt>
      <trkpt lat="45.96548" lon="5.76922">
        <ele>1216.4</ele>
        <time>2026-05-13T15:56:52Z</time>
      </trkpt>
      <trkpt lat="45.96554" lon="5.76927">
        <ele>1216.4</ele>
        <time>2026-05-13T15:56:53Z</time>
      </trkpt>
      <trkpt lat="45.96559" lon="5.7693">
        <ele>1215.6</ele>
        <time>2026-05-13T15:56:54Z</time>
      </trkpt>
      <trkpt lat="45.96562" lon="5.76936">
        <ele>1214.2</ele>
        <time>2026-05-13T15:56:55Z</time>
      </trkpt>
      <trkpt lat="45.96567" lon="5.76942">
        <ele>1213.6</ele>
        <time>2026-05-13T15:56:56Z</time>
      </trkpt>
      <trkpt lat="45.96569" lon="5.76947">
        <ele>1212.8</ele>
        <time>2026-05-13T15:56:57Z</time>
      </trkpt>
      <trkpt lat="45.96573" lon="5.76953">
        <ele>1211.8</ele>
        <time>2026-05-13T15:56:58Z</time>
      </trkpt>
      <trkpt lat="45.96574" lon="5.7696">
        <ele>1211.8</ele>
        <time>2026-05-13T15:56:59Z</time>
      </trkpt>
      <trkpt lat="45.96575" lon="5.76965">
        <ele>1211.4</ele>
        <time>2026-05-13T15:57:00Z</time>
      </trkpt>
      <trkpt lat="45.96572" lon="5.76968">
        <ele>1211.4</ele>
        <time>2026-05-13T15:57:01Z</time>
      </trkpt>
      <trkpt lat="45.9657" lon="5.76974">
        <ele>1211.4</ele>
        <time>2026-05-13T15:57:02Z</time>
      </trkpt>
      <trkpt lat="45.96567" lon="5.76979">
        <ele>1211.2</ele>
        <time>2026-05-13T15:57:03Z</time>
      </trkpt>
      <trkpt lat="45.96562" lon="5.76988">
        <ele>1210.6</ele>
        <time>2026-05-13T15:57:04Z</time>
      </trkpt>
      <trkpt lat="45.96556" lon="5.76996">
        <ele>1209</ele>
        <time>2026-05-13T15:57:05Z</time>
      </trkpt>
      <trkpt lat="45.96552" lon="5.77005">
        <ele>1208.4</ele>
        <time>2026-05-13T15:57:06Z</time>
      </trkpt>
      <trkpt lat="45.96549" lon="5.77014">
        <ele>1208</ele>
        <time>2026-05-13T15:57:07Z</time>
      </trkpt>
      <trkpt lat="45.96547" lon="5.77021">
        <ele>1208</ele>
        <time>2026-05-13T15:57:08Z</time>
      </trkpt>
      <trkpt lat="45.96543" lon="5.77031">
        <ele>1208.4</ele>
        <time>2026-05-13T15:57:09Z</time>
      </trkpt>
      <trkpt lat="45.96545" lon="5.77039">
        <ele>1207.6</ele>
        <time>2026-05-13T15:57:10Z</time>
      </trkpt>
      <trkpt lat="45.96547" lon="5.77047">
        <ele>1207</ele>
        <time>2026-05-13T15:57:11Z</time>
      </trkpt>
      <trkpt lat="45.96551" lon="5.77054">
        <ele>1205.8</ele>
        <time>2026-05-13T15:57:12Z</time>
      </trkpt>
      <trkpt lat="45.96555" lon="5.77057">
        <ele>1205.6</ele>
        <time>2026-05-13T15:57:13Z</time>
      </trkpt>
      <trkpt lat="45.9656" lon="5.77058">
        <ele>1205.4</ele>
        <time>2026-05-13T15:57:14Z</time>
      </trkpt>
      <trkpt lat="45.96562" lon="5.7706">
        <ele>1205.4</ele>
        <time>2026-05-13T15:57:15Z</time>
      </trkpt>
      <trkpt lat="45.96565" lon="5.77061">
        <ele>1204.8</ele>
        <time>2026-05-13T15:57:16Z</time>
      </trkpt>
      <trkpt lat="45.96567" lon="5.77062">
        <ele>1204.8</ele>
        <time>2026-05-13T15:57:17Z</time>
      </trkpt>
      <trkpt lat="45.9657" lon="5.77062">
        <ele>1204.4</ele>
        <time>2026-05-13T15:57:18Z</time>
      </trkpt>
      <trkpt lat="45.96574" lon="5.77062">
        <ele>1204.4</ele>
        <time>2026-05-13T15:57:19Z</time>
      </trkpt>
      <trkpt lat="45.96577" lon="5.77063">
        <ele>1204</ele>
        <time>2026-05-13T15:57:20Z</time>
      </trkpt>
      <trkpt lat="45.96582" lon="5.77064">
        <ele>1203.6</ele>
        <time>2026-05-13T15:57:21Z</time>
      </trkpt>
      <trkpt lat="45.96586" lon="5.77068">
        <ele>1203.4</ele>
        <time>2026-05-13T15:57:22Z</time>
      </trkpt>
      <trkpt lat="45.9659" lon="5.77072">
        <ele>1203</ele>
        <time>2026-05-13T15:57:23Z</time>
      </trkpt>
      <trkpt lat="45.96594" lon="5.77077">
        <ele>1202</ele>
        <time>2026-05-13T15:57:24Z</time>
      </trkpt>
      <trkpt lat="45.96599" lon="5.77082">
        <ele>1200.8</ele>
        <time>2026-05-13T15:57:25Z</time>
      </trkpt>
      <trkpt lat="45.96604" lon="5.77088">
        <ele>1200.4</ele>
        <time>2026-05-13T15:57:26Z</time>
      </trkpt>
      <trkpt lat="45.96608" lon="5.77095">
        <ele>1199.6</ele>
        <time>2026-05-13T15:57:27Z</time>
      </trkpt>
      <trkpt lat="45.96613" lon="5.77104">
        <ele>1198.4</ele>
        <time>2026-05-13T15:57:28Z</time>
      </trkpt>
      <trkpt lat="45.96618" lon="5.7711">
        <ele>1198.4</ele>
        <time>2026-05-13T15:57:29Z</time>
      </trkpt>
      <trkpt lat="45.96622" lon="5.77116">
        <ele>1198.4</ele>
        <time>2026-05-13T15:57:30Z</time>
      </trkpt>
      <trkpt lat="45.96625" lon="5.77122">
        <ele>1198.8</ele>
        <time>2026-05-13T15:57:31Z</time>
      </trkpt>
      <trkpt lat="45.96628" lon="5.77127">
        <ele>1197.2</ele>
        <time>2026-05-13T15:57:32Z</time>
      </trkpt>
      <trkpt lat="45.96629" lon="5.77132">
        <ele>1197.2</ele>
        <time>2026-05-13T15:57:33Z</time>
      </trkpt>
      <trkpt lat="45.96631" lon="5.77135">
        <ele>1197.2</ele>
        <time>2026-05-13T15:57:34Z</time>
      </trkpt>
      <trkpt lat="45.96632" lon="5.77138">
        <ele>1197.2</ele>
        <time>2026-05-13T15:57:35Z</time>
      </trkpt>
      <trkpt lat="45.96633" lon="5.77141">
        <ele>1197.4</ele>
        <time>2026-05-13T15:57:36Z</time>
      </trkpt>
      <trkpt lat="45.96635" lon="5.77144">
        <ele>1197.4</ele>
        <time>2026-05-13T15:57:37Z</time>
      </trkpt>
      <trkpt lat="45.96636" lon="5.77146">
        <ele>1197.4</ele>
        <time>2026-05-13T15:57:38Z</time>
      </trkpt>
      <trkpt lat="45.96636" lon="5.77146">
        <ele>1197.4</ele>
        <time>2026-05-13T15:57:39Z</time>
      </trkpt>
      <trkpt lat="45.96638" lon="5.77148">
        <ele>1197.4</ele>
        <time>2026-05-13T15:57:40Z</time>
      </trkpt>
      <trkpt lat="45.9664" lon="5.7715">
        <ele>1197.4</ele>
        <time>2026-05-13T15:57:41Z</time>
      </trkpt>
      <trkpt lat="45.96641" lon="5.77152">
        <ele>1197</ele>
        <time>2026-05-13T15:57:42Z</time>
      </trkpt>
      <trkpt lat="45.96642" lon="5.77155">
        <ele>1196.8</ele>
        <time>2026-05-13T15:57:43Z</time>
      </trkpt>
      <trkpt lat="45.96644" lon="5.77158">
        <ele>1196</ele>
        <time>2026-05-13T15:57:44Z</time>
      </trkpt>
      <trkpt lat="45.96645" lon="5.77162">
        <ele>1195.6</ele>
        <time>2026-05-13T15:57:45Z</time>
      </trkpt>
      <trkpt lat="45.96647" lon="5.77165">
        <ele>1195</ele>
        <time>2026-05-13T15:57:46Z</time>
      </trkpt>
      <trkpt lat="45.9665" lon="5.77169">
        <ele>1195</ele>
        <time>2026-05-13T15:57:47Z</time>
      </trkpt>
      <trkpt lat="45.96652" lon="5.77173">
        <ele>1194.8</ele>
        <time>2026-05-13T15:57:48Z</time>
      </trkpt>
      <trkpt lat="45.96654" lon="5.77176">
        <ele>1194.8</ele>
        <time>2026-05-13T15:57:49Z</time>
      </trkpt>
      <trkpt lat="45.96656" lon="5.77179">
        <ele>1194.2</ele>
        <time>2026-05-13T15:57:50Z</time>
      </trkpt>
      <trkpt lat="45.96658" lon="5.77182">
        <ele>1193.8</ele>
        <time>2026-05-13T15:57:51Z</time>
      </trkpt>
      <trkpt lat="45.9666" lon="5.77186">
        <ele>1193.4</ele>
        <time>2026-05-13T15:57:52Z</time>
      </trkpt>
      <trkpt lat="45.96663" lon="5.7719">
        <ele>1193.4</ele>
        <time>2026-05-13T15:57:53Z</time>
      </trkpt>
      <trkpt lat="45.96667" lon="5.77193">
        <ele>1193</ele>
        <time>2026-05-13T15:57:54Z</time>
      </trkpt>
      <trkpt lat="45.96671" lon="5.77197">
        <ele>1192.4</ele>
        <time>2026-05-13T15:57:55Z</time>
      </trkpt>
      <trkpt lat="45.96675" lon="5.77201">
        <ele>1191.8</ele>
        <time>2026-05-13T15:57:56Z</time>
      </trkpt>
      <trkpt lat="45.96679" lon="5.77205">
        <ele>1191.2</ele>
        <time>2026-05-13T15:57:57Z</time>
      </trkpt>
      <trkpt lat="45.96682" lon="5.77209">
        <ele>1190.4</ele>
        <time>2026-05-13T15:57:58Z</time>
      </trkpt>
      <trkpt lat="45.96686" lon="5.77213">
        <ele>1189.8</ele>
        <time>2026-05-13T15:57:59Z</time>
      </trkpt>
      <trkpt lat="45.96689" lon="5.77218">
        <ele>1189.6</ele>
        <time>2026-05-13T15:58:00Z</time>
      </trkpt>
      <trkpt lat="45.96693" lon="5.77222">
        <ele>1189.2</ele>
        <time>2026-05-13T15:58:01Z</time>
      </trkpt>
      <trkpt lat="45.96695" lon="5.77226">
        <ele>1188.8</ele>
        <time>2026-05-13T15:58:02Z</time>
      </trkpt>
      <trkpt lat="45.96698" lon="5.77231">
        <ele>1188.8</ele>
        <time>2026-05-13T15:58:03Z</time>
      </trkpt>
      <trkpt lat="45.967" lon="5.77235">
        <ele>1188.6</ele>
        <time>2026-05-13T15:58:04Z</time>
      </trkpt>
      <trkpt lat="45.96702" lon="5.77239">
        <ele>1188</ele>
        <time>2026-05-13T15:58:05Z</time>
      </trkpt>
      <trkpt lat="45.96703" lon="5.77243">
        <ele>1187.6</ele>
        <time>2026-05-13T15:58:06Z</time>
      </trkpt>
      <trkpt lat="45.96705" lon="5.77248">
        <ele>1187.2</ele>
        <time>2026-05-13T15:58:07Z</time>
      </trkpt>
      <trkpt lat="45.96705" lon="5.77252">
        <ele>1187.6</ele>
        <time>2026-05-13T15:58:08Z</time>
      </trkpt>
      <trkpt lat="45.96706" lon="5.77257">
        <ele>1187</ele>
        <time>2026-05-13T15:58:09Z</time>
      </trkpt>
      <trkpt lat="45.96706" lon="5.77262">
        <ele>1186.6</ele>
        <time>2026-05-13T15:58:10Z</time>
      </trkpt>
      <trkpt lat="45.96707" lon="5.77266">
        <ele>1186.4</ele>
        <time>2026-05-13T15:58:11Z</time>
      </trkpt>
      <trkpt lat="45.96707" lon="5.7727">
        <ele>1186.4</ele>
        <time>2026-05-13T15:58:12Z</time>
      </trkpt>
      <trkpt lat="45.96708" lon="5.77275">
        <ele>1185.6</ele>
        <time>2026-05-13T15:58:13Z</time>
      </trkpt>
      <trkpt lat="45.96709" lon="5.77279">
        <ele>1185</ele>
        <time>2026-05-13T15:58:14Z</time>
      </trkpt>
      <trkpt lat="45.96709" lon="5.77284">
        <ele>1184.6</ele>
        <time>2026-05-13T15:58:15Z</time>
      </trkpt>
      <trkpt lat="45.9671" lon="5.77288">
        <ele>1184.2</ele>
        <time>2026-05-13T15:58:16Z</time>
      </trkpt>
      <trkpt lat="45.9671" lon="5.77292">
        <ele>1184.2</ele>
        <time>2026-05-13T15:58:17Z</time>
      </trkpt>
      <trkpt lat="45.9671" lon="5.77296">
        <ele>1184.2</ele>
        <time>2026-05-13T15:58:18Z</time>
      </trkpt>
      <trkpt lat="45.9671" lon="5.773">
        <ele>1183.6</ele>
        <time>2026-05-13T15:58:19Z</time>
      </trkpt>
      <trkpt lat="45.9671" lon="5.77305">
        <ele>1183.4</ele>
        <time>2026-05-13T15:58:20Z</time>
      </trkpt>
      <trkpt lat="45.9671" lon="5.7731">
        <ele>1183.2</ele>
        <time>2026-05-13T15:58:21Z</time>
      </trkpt>
      <trkpt lat="45.96709" lon="5.77313">
        <ele>1182.8</ele>
        <time>2026-05-13T15:58:22Z</time>
      </trkpt>
      <trkpt lat="45.96708" lon="5.77317">
        <ele>1182.6</ele>
        <time>2026-05-13T15:58:23Z</time>
      </trkpt>
      <trkpt lat="45.96707" lon="5.7732">
        <ele>1182.2</ele>
        <time>2026-05-13T15:58:24Z</time>
      </trkpt>
      <trkpt lat="45.96706" lon="5.77324">
        <ele>1182.2</ele>
        <time>2026-05-13T15:58:25Z</time>
      </trkpt>
      <trkpt lat="45.96704" lon="5.77327">
        <ele>1181.8</ele>
        <time>2026-05-13T15:58:26Z</time>
      </trkpt>
      <trkpt lat="45.96704" lon="5.77328">
        <ele>1182</ele>
        <time>2026-05-13T15:58:27Z</time>
      </trkpt>
      <trkpt lat="45.96703" lon="5.7733">
        <ele>1182</ele>
        <time>2026-05-13T15:58:28Z</time>
      </trkpt>
      <trkpt lat="45.96703" lon="5.7733">
        <ele>1181.8</ele>
        <time>2026-05-13T15:58:29Z</time>
      </trkpt>
      <trkpt lat="45.96703" lon="5.77329">
        <ele>1181.8</ele>
        <time>2026-05-13T15:58:30Z</time>
      </trkpt>
      <trkpt lat="45.96704" lon="5.77329">
        <ele>1180.8</ele>
        <time>2026-05-13T15:58:40Z</time>
      </trkpt>
      <trkpt lat="45.96704" lon="5.77329">
        <ele>1180.8</ele>
        <time>2026-05-13T15:58:41Z</time>
      </trkpt>
      <trkpt lat="45.96705" lon="5.77328">
        <ele>1181</ele>
        <time>2026-05-13T15:58:42Z</time>
      </trkpt>
      <trkpt lat="45.96705" lon="5.77327">
        <ele>1181</ele>
        <time>2026-05-13T15:58:43Z</time>
      </trkpt>
      <trkpt lat="45.96706" lon="5.77327">
        <ele>1181</ele>
        <time>2026-05-13T15:58:44Z</time>
      </trkpt>
      <trkpt lat="45.96706" lon="5.77327">
        <ele>1181</ele>
        <time>2026-05-13T15:58:45Z</time>
      </trkpt>
      <trkpt lat="45.96707" lon="5.77326">
        <ele>1181</ele>
        <time>2026-05-13T15:58:46Z</time>
      </trkpt>
      <trkpt lat="45.96707" lon="5.77325">
        <ele>1181.4</ele>
        <time>2026-05-13T15:58:47Z</time>
      </trkpt>
      <trkpt lat="45.96708" lon="5.77323">
        <ele>1181.4</ele>
        <time>2026-05-13T15:58:48Z</time>
      </trkpt>
      <trkpt lat="45.96709" lon="5.7732">
        <ele>1181.6</ele>
        <time>2026-05-13T15:58:49Z</time>
      </trkpt>
      <trkpt lat="45.96709" lon="5.77318">
        <ele>1181.6</ele>
        <time>2026-05-13T15:58:50Z</time>
      </trkpt>
      <trkpt lat="45.9671" lon="5.77315">
        <ele>1181.6</ele>
        <time>2026-05-13T15:58:51Z</time>
      </trkpt>
      <trkpt lat="45.9671" lon="5.77312">
        <ele>1181.6</ele>
        <time>2026-05-13T15:58:52Z</time>
      </trkpt>
      <trkpt lat="45.96711" lon="5.77309">
        <ele>1181.8</ele>
        <time>2026-05-13T15:58:53Z</time>
      </trkpt>
      <trkpt lat="45.96711" lon="5.77306">
        <ele>1182.2</ele>
        <time>2026-05-13T15:58:54Z</time>
      </trkpt>
      <trkpt lat="45.96712" lon="5.77304">
        <ele>1182.2</ele>
        <time>2026-05-13T15:58:55Z</time>
      </trkpt>
      <trkpt lat="45.96712" lon="5.77302">
        <ele>1182.2</ele>
        <time>2026-05-13T15:58:56Z</time>
      </trkpt>
      <trkpt lat="45.96713" lon="5.77301">
        <ele>1182.2</ele>
        <time>2026-05-13T15:58:57Z</time>
      </trkpt>
      <trkpt lat="45.96713" lon="5.773">
        <ele>1182.2</ele>
        <time>2026-05-13T15:58:58Z</time>
      </trkpt>
      <trkpt lat="45.96712" lon="5.77298">
        <ele>1182.2</ele>
        <time>2026-05-13T15:58:59Z</time>
      </trkpt>
      <trkpt lat="45.96712" lon="5.77296">
        <ele>1182.2</ele>
        <time>2026-05-13T15:59:00Z</time>
      </trkpt>
      <trkpt lat="45.96711" lon="5.77294">
        <ele>1182.2</ele>
        <time>2026-05-13T15:59:01Z</time>
      </trkpt>
      <trkpt lat="45.9671" lon="5.77292">
        <ele>1182.2</ele>
        <time>2026-05-13T15:59:02Z</time>
      </trkpt>
      <trkpt lat="45.9671" lon="5.7729">
        <ele>1182.6</ele>
        <time>2026-05-13T15:59:03Z</time>
      </trkpt>
      <trkpt lat="45.9671" lon="5.77287">
        <ele>1183</ele>
        <time>2026-05-13T15:59:04Z</time>
      </trkpt>
      <trkpt lat="45.9671" lon="5.77285">
        <ele>1183</ele>
        <time>2026-05-13T15:59:05Z</time>
      </trkpt>
      <trkpt lat="45.9671" lon="5.77283">
        <ele>1183.2</ele>
        <time>2026-05-13T15:59:06Z</time>
      </trkpt>
      <trkpt lat="45.9671" lon="5.7728">
        <ele>1183.2</ele>
        <time>2026-05-13T15:59:07Z</time>
      </trkpt>
      <trkpt lat="45.9671" lon="5.77278">
        <ele>1183.2</ele>
        <time>2026-05-13T15:59:08Z</time>
      </trkpt>
      <trkpt lat="45.9671" lon="5.77275">
        <ele>1183.6</ele>
        <time>2026-05-13T15:59:09Z</time>
      </trkpt>
      <trkpt lat="45.9671" lon="5.77273">
        <ele>1184</ele>
        <time>2026-05-13T15:59:10Z</time>
      </trkpt>
      <trkpt lat="45.9671" lon="5.77271">
        <ele>1184</ele>
        <time>2026-05-13T15:59:11Z</time>
      </trkpt>
      <trkpt lat="45.9671" lon="5.77268">
        <ele>1184.2</ele>
        <time>2026-05-13T15:59:12Z</time>
      </trkpt>
      <trkpt lat="45.9671" lon="5.77266">
        <ele>1184.2</ele>
        <time>2026-05-13T15:59:13Z</time>
      </trkpt>
      <trkpt lat="45.96709" lon="5.77262">
        <ele>1184.6</ele>
        <time>2026-05-13T15:59:14Z</time>
      </trkpt>
      <trkpt lat="45.96709" lon="5.77259">
        <ele>1184.8</ele>
        <time>2026-05-13T15:59:15Z</time>
      </trkpt>
      <trkpt lat="45.96708" lon="5.77257">
        <ele>1184.8</ele>
        <time>2026-05-13T15:59:16Z</time>
      </trkpt>
      <trkpt lat="45.96708" lon="5.77255">
        <ele>1184.8</ele>
        <time>2026-05-13T15:59:17Z</time>
      </trkpt>
      <trkpt lat="45.96708" lon="5.77253">
        <ele>1185</ele>
        <time>2026-05-13T15:59:18Z</time>
      </trkpt>
      <trkpt lat="45.96708" lon="5.77251">
        <ele>1185.4</ele>
        <time>2026-05-13T15:59:19Z</time>
      </trkpt>
      <trkpt lat="45.96708" lon="5.77249">
        <ele>1185.4</ele>
        <time>2026-05-13T15:59:20Z</time>
      </trkpt>
      <trkpt lat="45.96709" lon="5.77248">
        <ele>1185.4</ele>
        <time>2026-05-13T15:59:21Z</time>
      </trkpt>
      <trkpt lat="45.96711" lon="5.77247">
        <ele>1185.4</ele>
        <time>2026-05-13T15:59:22Z</time>
      </trkpt>
      <trkpt lat="45.96713" lon="5.77249">
        <ele>1185.4</ele>
        <time>2026-05-13T15:59:23Z</time>
      </trkpt>
      <trkpt lat="45.96715" lon="5.77251">
        <ele>1185.4</ele>
        <time>2026-05-13T15:59:24Z</time>
      </trkpt>
      <trkpt lat="45.96717" lon="5.77253">
        <ele>1185</ele>
        <time>2026-05-13T15:59:25Z</time>
      </trkpt>
      <trkpt lat="45.96719" lon="5.77255">
        <ele>1184.8</ele>
        <time>2026-05-13T15:59:26Z</time>
      </trkpt>
      <trkpt lat="45.96721" lon="5.77257">
        <ele>1184.4</ele>
        <time>2026-05-13T15:59:27Z</time>
      </trkpt>
      <trkpt lat="45.96723" lon="5.77259">
        <ele>1184</ele>
        <time>2026-05-13T15:59:28Z</time>
      </trkpt>
      <trkpt lat="45.96725" lon="5.77261">
        <ele>1183.4</ele>
        <time>2026-05-13T15:59:29Z</time>
      </trkpt>
      <trkpt lat="45.96728" lon="5.77263">
        <ele>1183</ele>
        <time>2026-05-13T15:59:30Z</time>
      </trkpt>
      <trkpt lat="45.96729" lon="5.77265">
        <ele>1182.4</ele>
        <time>2026-05-13T15:59:31Z</time>
      </trkpt>
      <trkpt lat="45.9673" lon="5.77265">
        <ele>1182</ele>
        <time>2026-05-13T15:59:32Z</time>
      </trkpt>
      <trkpt lat="45.96731" lon="5.77266">
        <ele>1181.6</ele>
        <time>2026-05-13T15:59:33Z</time>
      </trkpt>
      <trkpt lat="45.96732" lon="5.77265">
        <ele>1181.4</ele>
        <time>2026-05-13T15:59:34Z</time>
      </trkpt>
      <trkpt lat="45.96734" lon="5.77265">
        <ele>1181</ele>
        <time>2026-05-13T15:59:35Z</time>
      </trkpt>
      <trkpt lat="45.96735" lon="5.77263">
        <ele>1180.6</ele>
        <time>2026-05-13T15:59:36Z</time>
      </trkpt>
      <trkpt lat="45.96737" lon="5.77261">
        <ele>1180.4</ele>
        <time>2026-05-13T15:59:37Z</time>
      </trkpt>
      <trkpt lat="45.96739" lon="5.7726">
        <ele>1179.6</ele>
        <time>2026-05-13T15:59:38Z</time>
      </trkpt>
      <trkpt lat="45.9674" lon="5.77258">
        <ele>1179.2</ele>
        <time>2026-05-13T15:59:39Z</time>
      </trkpt>
      <trkpt lat="45.96742" lon="5.77256">
        <ele>1178.6</ele>
        <time>2026-05-13T15:59:40Z</time>
      </trkpt>
      <trkpt lat="45.96743" lon="5.77254">
        <ele>1178.4</ele>
        <time>2026-05-13T15:59:41Z</time>
      </trkpt>
      <trkpt lat="45.96745" lon="5.77253">
        <ele>1178</ele>
        <time>2026-05-13T15:59:42Z</time>
      </trkpt>
      <trkpt lat="45.96747" lon="5.77252">
        <ele>1176.8</ele>
        <time>2026-05-13T15:59:43Z</time>
      </trkpt>
      <trkpt lat="45.96749" lon="5.77251">
        <ele>1176.2</ele>
        <time>2026-05-13T15:59:44Z</time>
      </trkpt>
      <trkpt lat="45.9675" lon="5.77251">
        <ele>1175.6</ele>
        <time>2026-05-13T15:59:45Z</time>
      </trkpt>
      <trkpt lat="45.96752" lon="5.7725">
        <ele>1174.2</ele>
        <time>2026-05-13T15:59:46Z</time>
      </trkpt>
      <trkpt lat="45.96754" lon="5.7725">
        <ele>1174</ele>
        <time>2026-05-13T15:59:47Z</time>
      </trkpt>
      <trkpt lat="45.96757" lon="5.77249">
        <ele>1174</ele>
        <time>2026-05-13T15:59:48Z</time>
      </trkpt>
      <trkpt lat="45.96759" lon="5.77249">
        <ele>1173.4</ele>
        <time>2026-05-13T15:59:49Z</time>
      </trkpt>
      <trkpt lat="45.96761" lon="5.77248">
        <ele>1173.4</ele>
        <time>2026-05-13T15:59:50Z</time>
      </trkpt>
      <trkpt lat="45.96764" lon="5.77248">
        <ele>1172.6</ele>
        <time>2026-05-13T15:59:51Z</time>
      </trkpt>
      <trkpt lat="45.96767" lon="5.77248">
        <ele>1172</ele>
        <time>2026-05-13T15:59:52Z</time>
      </trkpt>
      <trkpt lat="45.96769" lon="5.77247">
        <ele>1171.6</ele>
        <time>2026-05-13T15:59:53Z</time>
      </trkpt>
      <trkpt lat="45.96771" lon="5.77246">
        <ele>1171.2</ele>
        <time>2026-05-13T15:59:54Z</time>
      </trkpt>
      <trkpt lat="45.96774" lon="5.77246">
        <ele>1170.8</ele>
        <time>2026-05-13T15:59:55Z</time>
      </trkpt>
      <trkpt lat="45.96777" lon="5.77246">
        <ele>1170.2</ele>
        <time>2026-05-13T15:59:56Z</time>
      </trkpt>
      <trkpt lat="45.96779" lon="5.77245">
        <ele>1169.6</ele>
        <time>2026-05-13T15:59:57Z</time>
      </trkpt>
      <trkpt lat="45.96782" lon="5.77244">
        <ele>1169.2</ele>
        <time>2026-05-13T15:59:58Z</time>
      </trkpt>
      <trkpt lat="45.96783" lon="5.77243">
        <ele>1168.8</ele>
        <time>2026-05-13T15:59:59Z</time>
      </trkpt>
      <trkpt lat="45.96785" lon="5.77241">
        <ele>1167.6</ele>
        <time>2026-05-13T16:00:00Z</time>
      </trkpt>
      <trkpt lat="45.96787" lon="5.77239">
        <ele>1167</ele>
        <time>2026-05-13T16:00:01Z</time>
      </trkpt>
      <trkpt lat="45.96789" lon="5.77238">
        <ele>1166.4</ele>
        <time>2026-05-13T16:00:02Z</time>
      </trkpt>
      <trkpt lat="45.96792" lon="5.77236">
        <ele>1165.6</ele>
        <time>2026-05-13T16:00:03Z</time>
      </trkpt>
      <trkpt lat="45.96794" lon="5.77235">
        <ele>1164.8</ele>
        <time>2026-05-13T16:00:04Z</time>
      </trkpt>
      <trkpt lat="45.96796" lon="5.77234">
        <ele>1164</ele>
        <time>2026-05-13T16:00:05Z</time>
      </trkpt>
      <trkpt lat="45.96799" lon="5.77233">
        <ele>1164</ele>
        <time>2026-05-13T16:00:06Z</time>
      </trkpt>
      <trkpt lat="45.96802" lon="5.77232">
        <ele>1163.4</ele>
        <time>2026-05-13T16:00:07Z</time>
      </trkpt>
      <trkpt lat="45.96805" lon="5.77233">
        <ele>1163.2</ele>
        <time>2026-05-13T16:00:08Z</time>
      </trkpt>
      <trkpt lat="45.96807" lon="5.77233">
        <ele>1162.8</ele>
        <time>2026-05-13T16:00:09Z</time>
      </trkpt>
      <trkpt lat="45.96809" lon="5.77234">
        <ele>1162.2</ele>
        <time>2026-05-13T16:00:10Z</time>
      </trkpt>
      <trkpt lat="45.96812" lon="5.77235">
        <ele>1161.8</ele>
        <time>2026-05-13T16:00:11Z</time>
      </trkpt>
      <trkpt lat="45.96815" lon="5.77236">
        <ele>1161.2</ele>
        <time>2026-05-13T16:00:12Z</time>
      </trkpt>
      <trkpt lat="45.96817" lon="5.77236">
        <ele>1160.4</ele>
        <time>2026-05-13T16:00:13Z</time>
      </trkpt>
      <trkpt lat="45.96819" lon="5.77238">
        <ele>1159.8</ele>
        <time>2026-05-13T16:00:14Z</time>
      </trkpt>
      <trkpt lat="45.96821" lon="5.77239">
        <ele>1159.8</ele>
        <time>2026-05-13T16:00:15Z</time>
      </trkpt>
      <trkpt lat="45.96823" lon="5.7724">
        <ele>1159.4</ele>
        <time>2026-05-13T16:00:16Z</time>
      </trkpt>
      <trkpt lat="45.96823" lon="5.77241">
        <ele>1159</ele>
        <time>2026-05-13T16:00:17Z</time>
      </trkpt>
      <trkpt lat="45.96824" lon="5.77243">
        <ele>1159</ele>
        <time>2026-05-13T16:00:18Z</time>
      </trkpt>
      <trkpt lat="45.96824" lon="5.77245">
        <ele>1158.6</ele>
        <time>2026-05-13T16:00:19Z</time>
      </trkpt>
      <trkpt lat="45.96825" lon="5.77247">
        <ele>1158.2</ele>
        <time>2026-05-13T16:00:20Z</time>
      </trkpt>
      <trkpt lat="45.96827" lon="5.77248">
        <ele>1157.6</ele>
        <time>2026-05-13T16:00:21Z</time>
      </trkpt>
      <trkpt lat="45.96827" lon="5.77249">
        <ele>1157.4</ele>
        <time>2026-05-13T16:00:22Z</time>
      </trkpt>
      <trkpt lat="45.96829" lon="5.7725">
        <ele>1157</ele>
        <time>2026-05-13T16:00:23Z</time>
      </trkpt>
      <trkpt lat="45.9683" lon="5.77252">
        <ele>1157</ele>
        <time>2026-05-13T16:00:24Z</time>
      </trkpt>
      <trkpt lat="45.96831" lon="5.77254">
        <ele>1156.4</ele>
        <time>2026-05-13T16:00:25Z</time>
      </trkpt>
      <trkpt lat="45.96833" lon="5.77256">
        <ele>1156.2</ele>
        <time>2026-05-13T16:00:26Z</time>
      </trkpt>
      <trkpt lat="45.96834" lon="5.77257">
        <ele>1155.4</ele>
        <time>2026-05-13T16:00:27Z</time>
      </trkpt>
      <trkpt lat="45.96836" lon="5.77259">
        <ele>1155</ele>
        <time>2026-05-13T16:00:28Z</time>
      </trkpt>
      <trkpt lat="45.96837" lon="5.77261">
        <ele>1154.4</ele>
        <time>2026-05-13T16:00:29Z</time>
      </trkpt>
      <trkpt lat="45.96838" lon="5.77263">
        <ele>1153.8</ele>
        <time>2026-05-13T16:00:30Z</time>
      </trkpt>
      <trkpt lat="45.96838" lon="5.77264">
        <ele>1153.2</ele>
        <time>2026-05-13T16:00:31Z</time>
      </trkpt>
      <trkpt lat="45.96839" lon="5.77265">
        <ele>1152.6</ele>
        <time>2026-05-13T16:00:32Z</time>
      </trkpt>
      <trkpt lat="45.9684" lon="5.77267">
        <ele>1152</ele>
        <time>2026-05-13T16:00:33Z</time>
      </trkpt>
      <trkpt lat="45.96842" lon="5.77269">
        <ele>1151.4</ele>
        <time>2026-05-13T16:00:34Z</time>
      </trkpt>
      <trkpt lat="45.96843" lon="5.77271">
        <ele>1150.8</ele>
        <time>2026-05-13T16:00:35Z</time>
      </trkpt>
      <trkpt lat="45.96844" lon="5.77272">
        <ele>1150</ele>
        <time>2026-05-13T16:00:36Z</time>
      </trkpt>
      <trkpt lat="45.96846" lon="5.77274">
        <ele>1149.2</ele>
        <time>2026-05-13T16:00:37Z</time>
      </trkpt>
      <trkpt lat="45.96848" lon="5.77275">
        <ele>1148.4</ele>
        <time>2026-05-13T16:00:38Z</time>
      </trkpt>
      <trkpt lat="45.96848" lon="5.77278">
        <ele>1147.6</ele>
        <time>2026-05-13T16:00:39Z</time>
      </trkpt>
      <trkpt lat="45.96849" lon="5.77282">
        <ele>1147.2</ele>
        <time>2026-05-13T16:00:40Z</time>
      </trkpt>
      <trkpt lat="45.9685" lon="5.77284">
        <ele>1146.6</ele>
        <time>2026-05-13T16:00:41Z</time>
      </trkpt>
      <trkpt lat="45.96852" lon="5.77286">
        <ele>1146.2</ele>
        <time>2026-05-13T16:00:42Z</time>
      </trkpt>
      <trkpt lat="45.96853" lon="5.77288">
        <ele>1145.6</ele>
        <time>2026-05-13T16:00:43Z</time>
      </trkpt>
      <trkpt lat="45.96855" lon="5.7729">
        <ele>1145</ele>
        <time>2026-05-13T16:00:44Z</time>
      </trkpt>
      <trkpt lat="45.96857" lon="5.77293">
        <ele>1144.4</ele>
        <time>2026-05-13T16:00:45Z</time>
      </trkpt>
      <trkpt lat="45.96859" lon="5.77296">
        <ele>1143.8</ele>
        <time>2026-05-13T16:00:46Z</time>
      </trkpt>
      <trkpt lat="45.9686" lon="5.77298">
        <ele>1143.2</ele>
        <time>2026-05-13T16:00:47Z</time>
      </trkpt>
      <trkpt lat="45.96862" lon="5.77301">
        <ele>1142.6</ele>
        <time>2026-05-13T16:00:48Z</time>
      </trkpt>
      <trkpt lat="45.96863" lon="5.77303">
        <ele>1142</ele>
        <time>2026-05-13T16:00:49Z</time>
      </trkpt>
      <trkpt lat="45.96865" lon="5.77305">
        <ele>1141.6</ele>
        <time>2026-05-13T16:00:50Z</time>
      </trkpt>
      <trkpt lat="45.96867" lon="5.77306">
        <ele>1141.2</ele>
        <time>2026-05-13T16:00:51Z</time>
      </trkpt>
      <trkpt lat="45.96868" lon="5.77307">
        <ele>1140.8</ele>
        <time>2026-05-13T16:00:52Z</time>
      </trkpt>
      <trkpt lat="45.96869" lon="5.77307">
        <ele>1140.8</ele>
        <time>2026-05-13T16:00:53Z</time>
      </trkpt>
      <trkpt lat="45.96871" lon="5.77307">
        <ele>1140.6</ele>
        <time>2026-05-13T16:00:54Z</time>
      </trkpt>
      <trkpt lat="45.9688" lon="5.77308">
        <ele>1138.4</ele>
        <time>2026-05-13T16:01:48Z</time>
      </trkpt>
      <trkpt lat="45.96881" lon="5.7731">
        <ele>1138.2</ele>
        <time>2026-05-13T16:01:49Z</time>
      </trkpt>
      <trkpt lat="45.96882" lon="5.77312">
        <ele>1138.2</ele>
        <time>2026-05-13T16:01:50Z</time>
      </trkpt>
      <trkpt lat="45.96883" lon="5.77314">
        <ele>1137.8</ele>
        <time>2026-05-13T16:01:51Z</time>
      </trkpt>
      <trkpt lat="45.96885" lon="5.77316">
        <ele>1137.4</ele>
        <time>2026-05-13T16:01:52Z</time>
      </trkpt>
      <trkpt lat="45.96887" lon="5.77317">
        <ele>1136.8</ele>
        <time>2026-05-13T16:01:53Z</time>
      </trkpt>
      <trkpt lat="45.96889" lon="5.77318">
        <ele>1136.4</ele>
        <time>2026-05-13T16:01:54Z</time>
      </trkpt>
      <trkpt lat="45.96891" lon="5.7732">
        <ele>1136</ele>
        <time>2026-05-13T16:01:55Z</time>
      </trkpt>
      <trkpt lat="45.96894" lon="5.77322">
        <ele>1135.8</ele>
        <time>2026-05-13T16:01:56Z</time>
      </trkpt>
      <trkpt lat="45.96896" lon="5.77322">
        <ele>1135.6</ele>
        <time>2026-05-13T16:01:57Z</time>
      </trkpt>
      <trkpt lat="45.96898" lon="5.77321">
        <ele>1135.4</ele>
        <time>2026-05-13T16:01:58Z</time>
      </trkpt>
      <trkpt lat="45.96901" lon="5.7732">
        <ele>1134.8</ele>
        <time>2026-05-13T16:01:59Z</time>
      </trkpt>
      <trkpt lat="45.96903" lon="5.77318">
        <ele>1134.2</ele>
        <time>2026-05-13T16:02:00Z</time>
      </trkpt>
      <trkpt lat="45.96905" lon="5.77317">
        <ele>1134</ele>
        <time>2026-05-13T16:02:01Z</time>
      </trkpt>
      <trkpt lat="45.96907" lon="5.77317">
        <ele>1134</ele>
        <time>2026-05-13T16:02:02Z</time>
      </trkpt>
      <trkpt lat="45.96909" lon="5.77318">
        <ele>1133.4</ele>
        <time>2026-05-13T16:02:03Z</time>
      </trkpt>
      <trkpt lat="45.96911" lon="5.77321">
        <ele>1133.4</ele>
        <time>2026-05-13T16:02:04Z</time>
      </trkpt>
      <trkpt lat="45.96913" lon="5.77324">
        <ele>1133</ele>
        <time>2026-05-13T16:02:05Z</time>
      </trkpt>
      <trkpt lat="45.96915" lon="5.77327">
        <ele>1132.8</ele>
        <time>2026-05-13T16:02:06Z</time>
      </trkpt>
      <trkpt lat="45.96918" lon="5.7733">
        <ele>1132.4</ele>
        <time>2026-05-13T16:02:07Z</time>
      </trkpt>
      <trkpt lat="45.9692" lon="5.77331">
        <ele>1132.2</ele>
        <time>2026-05-13T16:02:08Z</time>
      </trkpt>
      <trkpt lat="45.96923" lon="5.77333">
        <ele>1131.8</ele>
        <time>2026-05-13T16:02:09Z</time>
      </trkpt>
      <trkpt lat="45.96926" lon="5.77334">
        <ele>1131.2</ele>
        <time>2026-05-13T16:02:10Z</time>
      </trkpt>
      <trkpt lat="45.96929" lon="5.77335">
        <ele>1130.8</ele>
        <time>2026-05-13T16:02:11Z</time>
      </trkpt>
      <trkpt lat="45.96933" lon="5.77336">
        <ele>1130.6</ele>
        <time>2026-05-13T16:02:12Z</time>
      </trkpt>
      <trkpt lat="45.96936" lon="5.77336">
        <ele>1130.4</ele>
        <time>2026-05-13T16:02:13Z</time>
      </trkpt>
      <trkpt lat="45.96939" lon="5.77335">
        <ele>1130.4</ele>
        <time>2026-05-13T16:02:14Z</time>
      </trkpt>
      <trkpt lat="45.96943" lon="5.77334">
        <ele>1130</ele>
        <time>2026-05-13T16:02:15Z</time>
      </trkpt>
      <trkpt lat="45.96947" lon="5.7733">
        <ele>1129.6</ele>
        <time>2026-05-13T16:02:16Z</time>
      </trkpt>
      <trkpt lat="45.96949" lon="5.77326">
        <ele>1129.6</ele>
        <time>2026-05-13T16:02:17Z</time>
      </trkpt>
      <trkpt lat="45.9695" lon="5.77322">
        <ele>1129.6</ele>
        <time>2026-05-13T16:02:18Z</time>
      </trkpt>
      <trkpt lat="45.96952" lon="5.77319">
        <ele>1129.4</ele>
        <time>2026-05-13T16:02:19Z</time>
      </trkpt>
      <trkpt lat="45.96953" lon="5.77316">
        <ele>1129.4</ele>
        <time>2026-05-13T16:02:20Z</time>
      </trkpt>
      <trkpt lat="45.96954" lon="5.77313">
        <ele>1129</ele>
        <time>2026-05-13T16:02:21Z</time>
      </trkpt>
      <trkpt lat="45.96954" lon="5.7731">
        <ele>1129</ele>
        <time>2026-05-13T16:02:22Z</time>
      </trkpt>
      <trkpt lat="45.96955" lon="5.77308">
        <ele>1128.4</ele>
        <time>2026-05-13T16:02:23Z</time>
      </trkpt>
      <trkpt lat="45.96955" lon="5.77306">
        <ele>1128.4</ele>
        <time>2026-05-13T16:02:24Z</time>
      </trkpt>
      <trkpt lat="45.96955" lon="5.77306">
        <ele>1128.4</ele>
        <time>2026-05-13T16:02:25Z</time>
      </trkpt>
      <trkpt lat="45.96955" lon="5.77306">
        <ele>1128.2</ele>
        <time>2026-05-13T16:02:26Z</time>
      </trkpt>
      <trkpt lat="45.96959" lon="5.77297">
        <ele>1127.6</ele>
        <time>2026-05-13T16:02:28Z</time>
      </trkpt>
      <trkpt lat="45.9696" lon="5.77293">
        <ele>1127.6</ele>
        <time>2026-05-13T16:02:29Z</time>
      </trkpt>
      <trkpt lat="45.96961" lon="5.77291">
        <ele>1127.2</ele>
        <time>2026-05-13T16:02:30Z</time>
      </trkpt>
      <trkpt lat="45.96962" lon="5.77289">
        <ele>1127.2</ele>
        <time>2026-05-13T16:02:31Z</time>
      </trkpt>
      <trkpt lat="45.96964" lon="5.77288">
        <ele>1126.8</ele>
        <time>2026-05-13T16:02:32Z</time>
      </trkpt>
      <trkpt lat="45.96965" lon="5.77286">
        <ele>1126.6</ele>
        <time>2026-05-13T16:02:33Z</time>
      </trkpt>
      <trkpt lat="45.96966" lon="5.77285">
        <ele>1126.2</ele>
        <time>2026-05-13T16:02:34Z</time>
      </trkpt>
      <trkpt lat="45.96967" lon="5.77282">
        <ele>1126</ele>
        <time>2026-05-13T16:02:35Z</time>
      </trkpt>
      <trkpt lat="45.96968" lon="5.7728">
        <ele>1125.6</ele>
        <time>2026-05-13T16:02:36Z</time>
      </trkpt>
      <trkpt lat="45.9697" lon="5.77278">
        <ele>1125.2</ele>
        <time>2026-05-13T16:02:37Z</time>
      </trkpt>
      <trkpt lat="45.96971" lon="5.77277">
        <ele>1124.8</ele>
        <time>2026-05-13T16:02:38Z</time>
      </trkpt>
      <trkpt lat="45.96972" lon="5.77275">
        <ele>1124.2</ele>
        <time>2026-05-13T16:02:39Z</time>
      </trkpt>
      <trkpt lat="45.96972" lon="5.77272">
        <ele>1123.8</ele>
        <time>2026-05-13T16:02:40Z</time>
      </trkpt>
      <trkpt lat="45.96972" lon="5.77268">
        <ele>1123.4</ele>
        <time>2026-05-13T16:02:41Z</time>
      </trkpt>
      <trkpt lat="45.96971" lon="5.77264">
        <ele>1123</ele>
        <time>2026-05-13T16:02:42Z</time>
      </trkpt>
      <trkpt lat="45.9697" lon="5.7726">
        <ele>1122.2</ele>
        <time>2026-05-13T16:02:43Z</time>
      </trkpt>
      <trkpt lat="45.96969" lon="5.77256">
        <ele>1121.6</ele>
        <time>2026-05-13T16:02:44Z</time>
      </trkpt>
      <trkpt lat="45.96969" lon="5.77252">
        <ele>1121.2</ele>
        <time>2026-05-13T16:02:45Z</time>
      </trkpt>
      <trkpt lat="45.96969" lon="5.77249">
        <ele>1120.6</ele>
        <time>2026-05-13T16:02:46Z</time>
      </trkpt>
      <trkpt lat="45.96968" lon="5.77246">
        <ele>1120</ele>
        <time>2026-05-13T16:02:47Z</time>
      </trkpt>
      <trkpt lat="45.96967" lon="5.77244">
        <ele>1119.4</ele>
        <time>2026-05-13T16:02:48Z</time>
      </trkpt>
      <trkpt lat="45.96966" lon="5.77241">
        <ele>1118.8</ele>
        <time>2026-05-13T16:02:49Z</time>
      </trkpt>
      <trkpt lat="45.96964" lon="5.77238">
        <ele>1118</ele>
        <time>2026-05-13T16:02:50Z</time>
      </trkpt>
      <trkpt lat="45.96963" lon="5.77235">
        <ele>1117.6</ele>
        <time>2026-05-13T16:02:51Z</time>
      </trkpt>
      <trkpt lat="45.96962" lon="5.77232">
        <ele>1116.8</ele>
        <time>2026-05-13T16:02:52Z</time>
      </trkpt>
      <trkpt lat="45.9696" lon="5.77228">
        <ele>1116.2</ele>
        <time>2026-05-13T16:02:53Z</time>
      </trkpt>
      <trkpt lat="45.96958" lon="5.77225">
        <ele>1116</ele>
        <time>2026-05-13T16:02:54Z</time>
      </trkpt>
      <trkpt lat="45.96956" lon="5.7722">
        <ele>1115.4</ele>
        <time>2026-05-13T16:02:55Z</time>
      </trkpt>
      <trkpt lat="45.96953" lon="5.77217">
        <ele>1114.8</ele>
        <time>2026-05-13T16:02:56Z</time>
      </trkpt>
      <trkpt lat="45.96951" lon="5.77212">
        <ele>1113.8</ele>
        <time>2026-05-13T16:02:57Z</time>
      </trkpt>
      <trkpt lat="45.9695" lon="5.77204">
        <ele>1113.4</ele>
        <time>2026-05-13T16:02:58Z</time>
      </trkpt>
      <trkpt lat="45.96948" lon="5.77199">
        <ele>1113</ele>
        <time>2026-05-13T16:02:59Z</time>
      </trkpt>
      <trkpt lat="45.96949" lon="5.77197">
        <ele>1112.6</ele>
        <time>2026-05-13T16:03:00Z</time>
      </trkpt>
      <trkpt lat="45.96948" lon="5.77193">
        <ele>1112.2</ele>
        <time>2026-05-13T16:03:01Z</time>
      </trkpt>
      <trkpt lat="45.96948" lon="5.77189">
        <ele>1111.8</ele>
        <time>2026-05-13T16:03:02Z</time>
      </trkpt>
      <trkpt lat="45.96948" lon="5.77185">
        <ele>1111.2</ele>
        <time>2026-05-13T16:03:03Z</time>
      </trkpt>
      <trkpt lat="45.96947" lon="5.7718">
        <ele>1111.2</ele>
        <time>2026-05-13T16:03:04Z</time>
      </trkpt>
      <trkpt lat="45.96947" lon="5.77176">
        <ele>1111.2</ele>
        <time>2026-05-13T16:03:05Z</time>
      </trkpt>
      <trkpt lat="45.96946" lon="5.7717">
        <ele>1110.8</ele>
        <time>2026-05-13T16:03:06Z</time>
      </trkpt>
      <trkpt lat="45.96944" lon="5.77167">
        <ele>1110.8</ele>
        <time>2026-05-13T16:03:07Z</time>
      </trkpt>
      <trkpt lat="45.96943" lon="5.77161">
        <ele>1110.4</ele>
        <time>2026-05-13T16:03:08Z</time>
      </trkpt>
      <trkpt lat="45.96943" lon="5.77156">
        <ele>1110.2</ele>
        <time>2026-05-13T16:03:09Z</time>
      </trkpt>
      <trkpt lat="45.96942" lon="5.77151">
        <ele>1109.8</ele>
        <time>2026-05-13T16:03:10Z</time>
      </trkpt>
      <trkpt lat="45.96941" lon="5.77146">
        <ele>1109.8</ele>
        <time>2026-05-13T16:03:11Z</time>
      </trkpt>
      <trkpt lat="45.96941" lon="5.77141">
        <ele>1109.4</ele>
        <time>2026-05-13T16:03:12Z</time>
      </trkpt>
      <trkpt lat="45.9694" lon="5.77136">
        <ele>1109.4</ele>
        <time>2026-05-13T16:03:13Z</time>
      </trkpt>
      <trkpt lat="45.96939" lon="5.77131">
        <ele>1109.2</ele>
        <time>2026-05-13T16:03:14Z</time>
      </trkpt>
      <trkpt lat="45.96938" lon="5.77127">
        <ele>1109.2</ele>
        <time>2026-05-13T16:03:15Z</time>
      </trkpt>
      <trkpt lat="45.96938" lon="5.77123">
        <ele>1109.2</ele>
        <time>2026-05-13T16:03:16Z</time>
      </trkpt>
      <trkpt lat="45.96937" lon="5.7712">
        <ele>1109.2</ele>
        <time>2026-05-13T16:03:17Z</time>
      </trkpt>
      <trkpt lat="45.96936" lon="5.77117">
        <ele>1109.2</ele>
        <time>2026-05-13T16:03:18Z</time>
      </trkpt>
      <trkpt lat="45.96936" lon="5.77114">
        <ele>1109.2</ele>
        <time>2026-05-13T16:03:19Z</time>
      </trkpt>
      <trkpt lat="45.96935" lon="5.77111">
        <ele>1109.2</ele>
        <time>2026-05-13T16:03:20Z</time>
      </trkpt>
      <trkpt lat="45.96934" lon="5.77108">
        <ele>1109.2</ele>
        <time>2026-05-13T16:03:21Z</time>
      </trkpt>
      <trkpt lat="45.96932" lon="5.77104">
        <ele>1109.2</ele>
        <time>2026-05-13T16:03:22Z</time>
      </trkpt>
      <trkpt lat="45.96931" lon="5.771">
        <ele>1109.2</ele>
        <time>2026-05-13T16:03:23Z</time>
      </trkpt>
      <trkpt lat="45.9693" lon="5.77096">
        <ele>1109.2</ele>
        <time>2026-05-13T16:03:24Z</time>
      </trkpt>
      <trkpt lat="45.9693" lon="5.77091">
        <ele>1108.8</ele>
        <time>2026-05-13T16:03:25Z</time>
      </trkpt>
      <trkpt lat="45.96929" lon="5.77087">
        <ele>1108.8</ele>
        <time>2026-05-13T16:03:26Z</time>
      </trkpt>
      <trkpt lat="45.96928" lon="5.77084">
        <ele>1108.8</ele>
        <time>2026-05-13T16:03:27Z</time>
      </trkpt>
      <trkpt lat="45.96927" lon="5.77082">
        <ele>1109.2</ele>
        <time>2026-05-13T16:03:28Z</time>
      </trkpt>
      <trkpt lat="45.96925" lon="5.77078">
        <ele>1109.2</ele>
        <time>2026-05-13T16:03:29Z</time>
      </trkpt>
      <trkpt lat="45.96924" lon="5.77075">
        <ele>1109.2</ele>
        <time>2026-05-13T16:03:30Z</time>
      </trkpt>
      <trkpt lat="45.96923" lon="5.77071">
        <ele>1109.2</ele>
        <time>2026-05-13T16:03:31Z</time>
      </trkpt>
      <trkpt lat="45.96921" lon="5.77067">
        <ele>1109</ele>
        <time>2026-05-13T16:03:32Z</time>
      </trkpt>
      <trkpt lat="45.9692" lon="5.77064">
        <ele>1108.8</ele>
        <time>2026-05-13T16:03:33Z</time>
      </trkpt>
      <trkpt lat="45.96919" lon="5.77062">
        <ele>1108.8</ele>
        <time>2026-05-13T16:03:34Z</time>
      </trkpt>
      <trkpt lat="45.96918" lon="5.7706">
        <ele>1108.8</ele>
        <time>2026-05-13T16:03:35Z</time>
      </trkpt>
      <trkpt lat="45.96916" lon="5.77058">
        <ele>1108.2</ele>
        <time>2026-05-13T16:03:36Z</time>
      </trkpt>
      <trkpt lat="45.96915" lon="5.77056">
        <ele>1108.4</ele>
        <time>2026-05-13T16:03:37Z</time>
      </trkpt>
      <trkpt lat="45.96914" lon="5.77053">
        <ele>1108.4</ele>
        <time>2026-05-13T16:03:38Z</time>
      </trkpt>
      <trkpt lat="45.96912" lon="5.7705">
        <ele>1108.4</ele>
        <time>2026-05-13T16:03:39Z</time>
      </trkpt>
      <trkpt lat="45.96912" lon="5.77047">
        <ele>1108.4</ele>
        <time>2026-05-13T16:03:40Z</time>
      </trkpt>
      <trkpt lat="45.96912" lon="5.77045">
        <ele>1108.4</ele>
        <time>2026-05-13T16:03:41Z</time>
      </trkpt>
      <trkpt lat="45.96912" lon="5.77043">
        <ele>1108.4</ele>
        <time>2026-05-13T16:03:42Z</time>
      </trkpt>
      <trkpt lat="45.96912" lon="5.77041">
        <ele>1108.4</ele>
        <time>2026-05-13T16:03:43Z</time>
      </trkpt>
      <trkpt lat="45.96912" lon="5.77041">
        <ele>1108.4</ele>
        <time>2026-05-13T16:03:44Z</time>
      </trkpt>
      <trkpt lat="45.96911" lon="5.77039">
        <ele>1108.4</ele>
        <time>2026-05-13T16:03:45Z</time>
      </trkpt>
      <trkpt lat="45.96911" lon="5.77037">
        <ele>1108.4</ele>
        <time>2026-05-13T16:03:46Z</time>
      </trkpt>
      <trkpt lat="45.9691" lon="5.77034">
        <ele>1108.4</ele>
        <time>2026-05-13T16:03:47Z</time>
      </trkpt>
      <trkpt lat="45.96909" lon="5.77032">
        <ele>1108.4</ele>
        <time>2026-05-13T16:03:48Z</time>
      </trkpt>
      <trkpt lat="45.96909" lon="5.77029">
        <ele>1108.8</ele>
        <time>2026-05-13T16:03:49Z</time>
      </trkpt>
      <trkpt lat="45.96908" lon="5.77026">
        <ele>1108.8</ele>
        <time>2026-05-13T16:03:50Z</time>
      </trkpt>
      <trkpt lat="45.96907" lon="5.77023">
        <ele>1109.2</ele>
        <time>2026-05-13T16:03:51Z</time>
      </trkpt>
      <trkpt lat="45.96906" lon="5.7702">
        <ele>1109.2</ele>
        <time>2026-05-13T16:03:52Z</time>
      </trkpt>
      <trkpt lat="45.96905" lon="5.77016">
        <ele>1109.2</ele>
        <time>2026-05-13T16:03:53Z</time>
      </trkpt>
      <trkpt lat="45.96903" lon="5.77013">
        <ele>1109.2</ele>
        <time>2026-05-13T16:03:54Z</time>
      </trkpt>
      <trkpt lat="45.96902" lon="5.77011">
        <ele>1109.2</ele>
        <time>2026-05-13T16:03:55Z</time>
      </trkpt>
      <trkpt lat="45.969" lon="5.77008">
        <ele>1109.2</ele>
        <time>2026-05-13T16:03:56Z</time>
      </trkpt>
      <trkpt lat="45.96899" lon="5.77005">
        <ele>1108.8</ele>
        <time>2026-05-13T16:03:57Z</time>
      </trkpt>
      <trkpt lat="45.96898" lon="5.77002">
        <ele>1108.8</ele>
        <time>2026-05-13T16:03:58Z</time>
      </trkpt>
      <trkpt lat="45.96896" lon="5.77">
        <ele>1108.8</ele>
        <time>2026-05-13T16:03:59Z</time>
      </trkpt>
      <trkpt lat="45.96892" lon="5.76996">
        <ele>1108.8</ele>
        <time>2026-05-13T16:04:00Z</time>
      </trkpt>
      <trkpt lat="45.9689" lon="5.76993">
        <ele>1108.8</ele>
        <time>2026-05-13T16:04:01Z</time>
      </trkpt>
      <trkpt lat="45.96889" lon="5.76989">
        <ele>1109</ele>
        <time>2026-05-13T16:04:02Z</time>
      </trkpt>
      <trkpt lat="45.96888" lon="5.76986">
        <ele>1109.4</ele>
        <time>2026-05-13T16:04:03Z</time>
      </trkpt>
      <trkpt lat="45.96886" lon="5.76982">
        <ele>1109.4</ele>
        <time>2026-05-13T16:04:04Z</time>
      </trkpt>
      <trkpt lat="45.96886" lon="5.76981">
        <ele>1109.6</ele>
        <time>2026-05-13T16:04:05Z</time>
      </trkpt>
      <trkpt lat="45.96885" lon="5.76979">
        <ele>1109.6</ele>
        <time>2026-05-13T16:04:06Z</time>
      </trkpt>
      <trkpt lat="45.96884" lon="5.76977">
        <ele>1109.6</ele>
        <time>2026-05-13T16:04:07Z</time>
      </trkpt>
      <trkpt lat="45.96882" lon="5.76975">
        <ele>1109.8</ele>
        <time>2026-05-13T16:04:08Z</time>
      </trkpt>
      <trkpt lat="45.96881" lon="5.76973">
        <ele>1109.8</ele>
        <time>2026-05-13T16:04:09Z</time>
      </trkpt>
      <trkpt lat="45.9688" lon="5.76971">
        <ele>1109.8</ele>
        <time>2026-05-13T16:04:10Z</time>
      </trkpt>
      <trkpt lat="45.96878" lon="5.76968">
        <ele>1109.8</ele>
        <time>2026-05-13T16:04:11Z</time>
      </trkpt>
      <trkpt lat="45.96877" lon="5.76966">
        <ele>1109.8</ele>
        <time>2026-05-13T16:04:12Z</time>
      </trkpt>
      <trkpt lat="45.96876" lon="5.76963">
        <ele>1110</ele>
        <time>2026-05-13T16:04:13Z</time>
      </trkpt>
      <trkpt lat="45.96875" lon="5.76962">
        <ele>1110.4</ele>
        <time>2026-05-13T16:04:14Z</time>
      </trkpt>
      <trkpt lat="45.96874" lon="5.7696">
        <ele>1110.4</ele>
        <time>2026-05-13T16:04:15Z</time>
      </trkpt>
      <trkpt lat="45.96874" lon="5.76958">
        <ele>1110.4</ele>
        <time>2026-05-13T16:04:16Z</time>
      </trkpt>
      <trkpt lat="45.96874" lon="5.76958">
        <ele>1110.4</ele>
        <time>2026-05-13T16:04:17Z</time>
      </trkpt>
      <trkpt lat="45.96871" lon="5.76951">
        <ele>1110.4</ele>
        <time>2026-05-13T16:04:18Z</time>
      </trkpt>
      <trkpt lat="45.9687" lon="5.76948">
        <ele>1110.4</ele>
        <time>2026-05-13T16:04:19Z</time>
      </trkpt>
      <trkpt lat="45.9687" lon="5.76946">
        <ele>1110.2</ele>
        <time>2026-05-13T16:04:20Z</time>
      </trkpt>
      <trkpt lat="45.9687" lon="5.76944">
        <ele>1110.4</ele>
        <time>2026-05-13T16:04:21Z</time>
      </trkpt>
      <trkpt lat="45.96871" lon="5.76941">
        <ele>1109.2</ele>
        <time>2026-05-13T16:04:22Z</time>
      </trkpt>
      <trkpt lat="45.9687" lon="5.76939">
        <ele>1109.4</ele>
        <time>2026-05-13T16:04:23Z</time>
      </trkpt>
      <trkpt lat="45.9687" lon="5.76939">
        <ele>1109.6</ele>
        <time>2026-05-13T16:04:24Z</time>
      </trkpt>
      <trkpt lat="45.9687" lon="5.76937">
        <ele>1110.6</ele>
        <time>2026-05-13T16:04:25Z</time>
      </trkpt>
      <trkpt lat="45.96868" lon="5.76937">
        <ele>1110.6</ele>
        <time>2026-05-13T16:04:26Z</time>
      </trkpt>
      <trkpt lat="45.96866" lon="5.76936">
        <ele>1110.6</ele>
        <time>2026-05-13T16:04:27Z</time>
      </trkpt>
      <trkpt lat="45.96863" lon="5.76934">
        <ele>1110.6</ele>
        <time>2026-05-13T16:04:28Z</time>
      </trkpt>
      <trkpt lat="45.96861" lon="5.76933">
        <ele>1110.6</ele>
        <time>2026-05-13T16:04:29Z</time>
      </trkpt>
      <trkpt lat="45.96859" lon="5.76931">
        <ele>1110.6</ele>
        <time>2026-05-13T16:04:30Z</time>
      </trkpt>
      <trkpt lat="45.96857" lon="5.76928">
        <ele>1110.6</ele>
        <time>2026-05-13T16:04:31Z</time>
      </trkpt>
      <trkpt lat="45.96855" lon="5.76925">
        <ele>1110.6</ele>
        <time>2026-05-13T16:04:32Z</time>
      </trkpt>
      <trkpt lat="45.96853" lon="5.76922">
        <ele>1110.2</ele>
        <time>2026-05-13T16:04:33Z</time>
      </trkpt>
      <trkpt lat="45.96851" lon="5.76918">
        <ele>1110.4</ele>
        <time>2026-05-13T16:04:34Z</time>
      </trkpt>
      <trkpt lat="45.9685" lon="5.76914">
        <ele>1110.4</ele>
        <time>2026-05-13T16:04:35Z</time>
      </trkpt>
      <trkpt lat="45.96849" lon="5.7691">
        <ele>1110.4</ele>
        <time>2026-05-13T16:04:36Z</time>
      </trkpt>
      <trkpt lat="45.96848" lon="5.76907">
        <ele>1110.4</ele>
        <time>2026-05-13T16:04:37Z</time>
      </trkpt>
      <trkpt lat="45.96846" lon="5.76904">
        <ele>1110</ele>
        <time>2026-05-13T16:04:38Z</time>
      </trkpt>
      <trkpt lat="45.96844" lon="5.76902">
        <ele>1110</ele>
        <time>2026-05-13T16:04:39Z</time>
      </trkpt>
      <trkpt lat="45.96842" lon="5.76899">
        <ele>1110</ele>
        <time>2026-05-13T16:04:40Z</time>
      </trkpt>
      <trkpt lat="45.96841" lon="5.76896">
        <ele>1110</ele>
        <time>2026-05-13T16:04:41Z</time>
      </trkpt>
      <trkpt lat="45.9684" lon="5.76892">
        <ele>1110</ele>
        <time>2026-05-13T16:04:42Z</time>
      </trkpt>
      <trkpt lat="45.96839" lon="5.7689">
        <ele>1110</ele>
        <time>2026-05-13T16:04:43Z</time>
      </trkpt>
      <trkpt lat="45.96838" lon="5.76888">
        <ele>1110</ele>
        <time>2026-05-13T16:04:44Z</time>
      </trkpt>
      <trkpt lat="45.96837" lon="5.76886">
        <ele>1110</ele>
        <time>2026-05-13T16:04:45Z</time>
      </trkpt>
      <trkpt lat="45.96835" lon="5.76883">
        <ele>1110.4</ele>
        <time>2026-05-13T16:04:46Z</time>
      </trkpt>
      <trkpt lat="45.96834" lon="5.76879">
        <ele>1110.4</ele>
        <time>2026-05-13T16:04:47Z</time>
      </trkpt>
      <trkpt lat="45.96832" lon="5.76876">
        <ele>1110.4</ele>
        <time>2026-05-13T16:04:48Z</time>
      </trkpt>
      <trkpt lat="45.9683" lon="5.76873">
        <ele>1110.2</ele>
        <time>2026-05-13T16:04:49Z</time>
      </trkpt>
      <trkpt lat="45.96829" lon="5.76869">
        <ele>1110.2</ele>
        <time>2026-05-13T16:04:50Z</time>
      </trkpt>
      <trkpt lat="45.96827" lon="5.76866">
        <ele>1110.2</ele>
        <time>2026-05-13T16:04:51Z</time>
      </trkpt>
      <trkpt lat="45.96825" lon="5.76861">
        <ele>1110.2</ele>
        <time>2026-05-13T16:04:52Z</time>
      </trkpt>
      <trkpt lat="45.96823" lon="5.76858">
        <ele>1110.2</ele>
        <time>2026-05-13T16:04:53Z</time>
      </trkpt>
      <trkpt lat="45.96821" lon="5.76854">
        <ele>1109.6</ele>
        <time>2026-05-13T16:04:54Z</time>
      </trkpt>
      <trkpt lat="45.96819" lon="5.76851">
        <ele>1109.6</ele>
        <time>2026-05-13T16:04:55Z</time>
      </trkpt>
      <trkpt lat="45.96817" lon="5.76849">
        <ele>1109.6</ele>
        <time>2026-05-13T16:04:56Z</time>
      </trkpt>
      <trkpt lat="45.96815" lon="5.76845">
        <ele>1109.6</ele>
        <time>2026-05-13T16:04:57Z</time>
      </trkpt>
      <trkpt lat="45.96814" lon="5.76842">
        <ele>1109.6</ele>
        <time>2026-05-13T16:04:58Z</time>
      </trkpt>
      <trkpt lat="45.96812" lon="5.7684">
        <ele>1109.6</ele>
        <time>2026-05-13T16:04:59Z</time>
      </trkpt>
      <trkpt lat="45.96811" lon="5.76838">
        <ele>1110</ele>
        <time>2026-05-13T16:05:00Z</time>
      </trkpt>
      <trkpt lat="45.9681" lon="5.76838">
        <ele>1110</ele>
        <time>2026-05-13T16:05:01Z</time>
      </trkpt>
      <trkpt lat="45.96809" lon="5.76838">
        <ele>1109.4</ele>
        <time>2026-05-13T16:05:02Z</time>
      </trkpt>
      <trkpt lat="45.96807" lon="5.76836">
        <ele>1109.8</ele>
        <time>2026-05-13T16:05:03Z</time>
      </trkpt>
      <trkpt lat="45.96804" lon="5.76833">
        <ele>1109.6</ele>
        <time>2026-05-13T16:05:04Z</time>
      </trkpt>
      <trkpt lat="45.96803" lon="5.76829">
        <ele>1109.4</ele>
        <time>2026-05-13T16:05:05Z</time>
      </trkpt>
      <trkpt lat="45.96802" lon="5.76826">
        <ele>1109.4</ele>
        <time>2026-05-13T16:05:06Z</time>
      </trkpt>
      <trkpt lat="45.96801" lon="5.76822">
        <ele>1109.4</ele>
        <time>2026-05-13T16:05:07Z</time>
      </trkpt>
      <trkpt lat="45.968" lon="5.76817">
        <ele>1109</ele>
        <time>2026-05-13T16:05:08Z</time>
      </trkpt>
      <trkpt lat="45.96798" lon="5.76813">
        <ele>1109</ele>
        <time>2026-05-13T16:05:09Z</time>
      </trkpt>
      <trkpt lat="45.96797" lon="5.76811">
        <ele>1108.4</ele>
        <time>2026-05-13T16:05:10Z</time>
      </trkpt>
      <trkpt lat="45.96796" lon="5.76807">
        <ele>1108.4</ele>
        <time>2026-05-13T16:05:11Z</time>
      </trkpt>
      <trkpt lat="45.96794" lon="5.76804">
        <ele>1108.4</ele>
        <time>2026-05-13T16:05:12Z</time>
      </trkpt>
      <trkpt lat="45.96793" lon="5.76801">
        <ele>1108.4</ele>
        <time>2026-05-13T16:05:13Z</time>
      </trkpt>
      <trkpt lat="45.96792" lon="5.76798">
        <ele>1108.8</ele>
        <time>2026-05-13T16:05:14Z</time>
      </trkpt>
      <trkpt lat="45.96791" lon="5.76794">
        <ele>1108.8</ele>
        <time>2026-05-13T16:05:15Z</time>
      </trkpt>
      <trkpt lat="45.9679" lon="5.7679">
        <ele>1108.8</ele>
        <time>2026-05-13T16:05:16Z</time>
      </trkpt>
      <trkpt lat="45.96789" lon="5.76785">
        <ele>1109.4</ele>
        <time>2026-05-13T16:05:17Z</time>
      </trkpt>
      <trkpt lat="45.96787" lon="5.76781">
        <ele>1109.4</ele>
        <time>2026-05-13T16:05:18Z</time>
      </trkpt>
      <trkpt lat="45.96785" lon="5.76777">
        <ele>1109.2</ele>
        <time>2026-05-13T16:05:19Z</time>
      </trkpt>
      <trkpt lat="45.96784" lon="5.76775">
        <ele>1108.8</ele>
        <time>2026-05-13T16:05:20Z</time>
      </trkpt>
      <trkpt lat="45.96783" lon="5.76773">
        <ele>1108.8</ele>
        <time>2026-05-13T16:05:21Z</time>
      </trkpt>
      <trkpt lat="45.96782" lon="5.76771">
        <ele>1108.8</ele>
        <time>2026-05-13T16:05:22Z</time>
      </trkpt>
      <trkpt lat="45.9678" lon="5.76769">
        <ele>1108.6</ele>
        <time>2026-05-13T16:05:23Z</time>
      </trkpt>
      <trkpt lat="45.96778" lon="5.76767">
        <ele>1108.6</ele>
        <time>2026-05-13T16:05:24Z</time>
      </trkpt>
      <trkpt lat="45.96776" lon="5.76765">
        <ele>1108.6</ele>
        <time>2026-05-13T16:05:25Z</time>
      </trkpt>
      <trkpt lat="45.96775" lon="5.76763">
        <ele>1108.6</ele>
        <time>2026-05-13T16:05:26Z</time>
      </trkpt>
      <trkpt lat="45.96773" lon="5.76762">
        <ele>1108.4</ele>
        <time>2026-05-13T16:05:27Z</time>
      </trkpt>
      <trkpt lat="45.96771" lon="5.76761">
        <ele>1108.4</ele>
        <time>2026-05-13T16:05:28Z</time>
      </trkpt>
      <trkpt lat="45.96769" lon="5.76761">
        <ele>1108.4</ele>
        <time>2026-05-13T16:05:29Z</time>
      </trkpt>
      <trkpt lat="45.96768" lon="5.7676">
        <ele>1108.4</ele>
        <time>2026-05-13T16:05:30Z</time>
      </trkpt>
      <trkpt lat="45.96766" lon="5.7676">
        <ele>1108.4</ele>
        <time>2026-05-13T16:05:31Z</time>
      </trkpt>
      <trkpt lat="45.96766" lon="5.76758">
        <ele>1108.4</ele>
        <time>2026-05-13T16:05:32Z</time>
      </trkpt>
      <trkpt lat="45.96764" lon="5.76756">
        <ele>1108.6</ele>
        <time>2026-05-13T16:05:33Z</time>
      </trkpt>
      <trkpt lat="45.96763" lon="5.76754">
        <ele>1108.6</ele>
        <time>2026-05-13T16:05:34Z</time>
      </trkpt>
      <trkpt lat="45.96762" lon="5.76753">
        <ele>1108.6</ele>
        <time>2026-05-13T16:05:35Z</time>
      </trkpt>
      <trkpt lat="45.96761" lon="5.76751">
        <ele>1109</ele>
        <time>2026-05-13T16:05:36Z</time>
      </trkpt>
      <trkpt lat="45.96759" lon="5.7675">
        <ele>1109.2</ele>
        <time>2026-05-13T16:05:37Z</time>
      </trkpt>
      <trkpt lat="45.96757" lon="5.7675">
        <ele>1109.2</ele>
        <time>2026-05-13T16:05:38Z</time>
      </trkpt>
      <trkpt lat="45.96755" lon="5.7675">
        <ele>1109.4</ele>
        <time>2026-05-13T16:05:39Z</time>
      </trkpt>
      <trkpt lat="45.96754" lon="5.7675">
        <ele>1108.6</ele>
        <time>2026-05-13T16:05:40Z</time>
      </trkpt>
      <trkpt lat="45.96752" lon="5.76748">
        <ele>1109</ele>
        <time>2026-05-13T16:05:41Z</time>
      </trkpt>
      <trkpt lat="45.96751" lon="5.76747">
        <ele>1109</ele>
        <time>2026-05-13T16:05:42Z</time>
      </trkpt>
      <trkpt lat="45.96749" lon="5.76746">
        <ele>1109.4</ele>
        <time>2026-05-13T16:05:43Z</time>
      </trkpt>
      <trkpt lat="45.96747" lon="5.76745">
        <ele>1109.8</ele>
        <time>2026-05-13T16:05:44Z</time>
      </trkpt>
      <trkpt lat="45.96745" lon="5.76744">
        <ele>1109.2</ele>
        <time>2026-05-13T16:05:45Z</time>
      </trkpt>
      <trkpt lat="45.96743" lon="5.76743">
        <ele>1109.6</ele>
        <time>2026-05-13T16:05:46Z</time>
      </trkpt>
      <trkpt lat="45.96743" lon="5.76743">
        <ele>1110.2</ele>
        <time>2026-05-13T16:05:47Z</time>
      </trkpt>
      <trkpt lat="45.96741" lon="5.76742">
        <ele>1110.2</ele>
        <time>2026-05-13T16:05:48Z</time>
      </trkpt>
      <trkpt lat="45.9674" lon="5.7674">
        <ele>1110.8</ele>
        <time>2026-05-13T16:05:49Z</time>
      </trkpt>
      <trkpt lat="45.96737" lon="5.76737">
        <ele>1110.8</ele>
        <time>2026-05-13T16:05:50Z</time>
      </trkpt>
      <trkpt lat="45.96737" lon="5.76736">
        <ele>1111</ele>
        <time>2026-05-13T16:05:51Z</time>
      </trkpt>
      <trkpt lat="45.96735" lon="5.76734">
        <ele>1111.2</ele>
        <time>2026-05-13T16:05:52Z</time>
      </trkpt>
      <trkpt lat="45.96735" lon="5.76732">
        <ele>1111.2</ele>
        <time>2026-05-13T16:05:53Z</time>
      </trkpt>
      <trkpt lat="45.96734" lon="5.76731">
        <ele>1111.6</ele>
        <time>2026-05-13T16:05:54Z</time>
      </trkpt>
      <trkpt lat="45.96733" lon="5.76729">
        <ele>1111.6</ele>
        <time>2026-05-13T16:05:55Z</time>
      </trkpt>
      <trkpt lat="45.96732" lon="5.76726">
        <ele>1112</ele>
        <time>2026-05-13T16:05:56Z</time>
      </trkpt>
      <trkpt lat="45.96731" lon="5.76724">
        <ele>1112</ele>
        <time>2026-05-13T16:05:57Z</time>
      </trkpt>
      <trkpt lat="45.9673" lon="5.76722">
        <ele>1112</ele>
        <time>2026-05-13T16:05:58Z</time>
      </trkpt>
      <trkpt lat="45.96729" lon="5.76721">
        <ele>1112.6</ele>
        <time>2026-05-13T16:05:59Z</time>
      </trkpt>
      <trkpt lat="45.96727" lon="5.76719">
        <ele>1112.8</ele>
        <time>2026-05-13T16:06:00Z</time>
      </trkpt>
      <trkpt lat="45.96726" lon="5.76718">
        <ele>1113</ele>
        <time>2026-05-13T16:06:01Z</time>
      </trkpt>
      <trkpt lat="45.96723" lon="5.76718">
        <ele>1113</ele>
        <time>2026-05-13T16:06:02Z</time>
      </trkpt>
      <trkpt lat="45.9672" lon="5.76718">
        <ele>1113</ele>
        <time>2026-05-13T16:06:03Z</time>
      </trkpt>
      <trkpt lat="45.96719" lon="5.76718">
        <ele>1113.6</ele>
        <time>2026-05-13T16:06:04Z</time>
      </trkpt>
      <trkpt lat="45.96717" lon="5.76717">
        <ele>1113.8</ele>
        <time>2026-05-13T16:06:05Z</time>
      </trkpt>
      <trkpt lat="45.96715" lon="5.76716">
        <ele>1113.8</ele>
        <time>2026-05-13T16:06:06Z</time>
      </trkpt>
      <trkpt lat="45.96714" lon="5.76715">
        <ele>1113.8</ele>
        <time>2026-05-13T16:06:07Z</time>
      </trkpt>
      <trkpt lat="45.96713" lon="5.76714">
        <ele>1114.2</ele>
        <time>2026-05-13T16:06:08Z</time>
      </trkpt>
      <trkpt lat="45.96711" lon="5.76712">
        <ele>1114.2</ele>
        <time>2026-05-13T16:06:09Z</time>
      </trkpt>
      <trkpt lat="45.9671" lon="5.7671">
        <ele>1114.2</ele>
        <time>2026-05-13T16:06:10Z</time>
      </trkpt>
      <trkpt lat="45.96708" lon="5.76709">
        <ele>1114.2</ele>
        <time>2026-05-13T16:06:11Z</time>
      </trkpt>
      <trkpt lat="45.96707" lon="5.76708">
        <ele>1114.6</ele>
        <time>2026-05-13T16:06:12Z</time>
      </trkpt>
      <trkpt lat="45.96705" lon="5.76708">
        <ele>1114.6</ele>
        <time>2026-05-13T16:06:13Z</time>
      </trkpt>
      <trkpt lat="45.96703" lon="5.76707">
        <ele>1114.6</ele>
        <time>2026-05-13T16:06:14Z</time>
      </trkpt>
      <trkpt lat="45.96702" lon="5.76705">
        <ele>1114.6</ele>
        <time>2026-05-13T16:06:15Z</time>
      </trkpt>
      <trkpt lat="45.96702" lon="5.76703">
        <ele>1115</ele>
        <time>2026-05-13T16:06:16Z</time>
      </trkpt>
      <trkpt lat="45.96701" lon="5.76701">
        <ele>1115.2</ele>
        <time>2026-05-13T16:06:17Z</time>
      </trkpt>
      <trkpt lat="45.967" lon="5.76699">
        <ele>1115.2</ele>
        <time>2026-05-13T16:06:18Z</time>
      </trkpt>
      <trkpt lat="45.96699" lon="5.76698">
        <ele>1115.4</ele>
        <time>2026-05-13T16:06:19Z</time>
      </trkpt>
      <trkpt lat="45.96698" lon="5.76697">
        <ele>1115.8</ele>
        <time>2026-05-13T16:06:20Z</time>
      </trkpt>
      <trkpt lat="45.96696" lon="5.76695">
        <ele>1115.8</ele>
        <time>2026-05-13T16:06:21Z</time>
      </trkpt>
      <trkpt lat="45.96694" lon="5.76694">
        <ele>1116</ele>
        <time>2026-05-13T16:06:22Z</time>
      </trkpt>
      <trkpt lat="45.96693" lon="5.76693">
        <ele>1116</ele>
        <time>2026-05-13T16:06:23Z</time>
      </trkpt>
      <trkpt lat="45.96692" lon="5.76692">
        <ele>1116.2</ele>
        <time>2026-05-13T16:06:24Z</time>
      </trkpt>
      <trkpt lat="45.96691" lon="5.7669">
        <ele>1116.4</ele>
        <time>2026-05-13T16:06:25Z</time>
      </trkpt>
      <trkpt lat="45.9669" lon="5.76689">
        <ele>1116.4</ele>
        <time>2026-05-13T16:06:26Z</time>
      </trkpt>
      <trkpt lat="45.96689" lon="5.76687">
        <ele>1116.8</ele>
        <time>2026-05-13T16:06:27Z</time>
      </trkpt>
      <trkpt lat="45.96688" lon="5.76686">
        <ele>1116.8</ele>
        <time>2026-05-13T16:06:28Z</time>
      </trkpt>
      <trkpt lat="45.96686" lon="5.76684">
        <ele>1116.8</ele>
        <time>2026-05-13T16:06:29Z</time>
      </trkpt>
      <trkpt lat="45.96685" lon="5.76683">
        <ele>1117.2</ele>
        <time>2026-05-13T16:06:30Z</time>
      </trkpt>
      <trkpt lat="45.96684" lon="5.76681">
        <ele>1117.4</ele>
        <time>2026-05-13T16:06:31Z</time>
      </trkpt>
      <trkpt lat="45.96683" lon="5.7668">
        <ele>1117.4</ele>
        <time>2026-05-13T16:06:32Z</time>
      </trkpt>
      <trkpt lat="45.96681" lon="5.76679">
        <ele>1117.4</ele>
        <time>2026-05-13T16:06:33Z</time>
      </trkpt>
      <trkpt lat="45.9668" lon="5.76678">
        <ele>1117.8</ele>
        <time>2026-05-13T16:06:34Z</time>
      </trkpt>
      <trkpt lat="45.96679" lon="5.76677">
        <ele>1118</ele>
        <time>2026-05-13T16:06:35Z</time>
      </trkpt>
      <trkpt lat="45.96678" lon="5.76675">
        <ele>1118</ele>
        <time>2026-05-13T16:06:36Z</time>
      </trkpt>
      <trkpt lat="45.96677" lon="5.76674">
        <ele>1118.4</ele>
        <time>2026-05-13T16:06:37Z</time>
      </trkpt>
      <trkpt lat="45.96676" lon="5.76673">
        <ele>1117.6</ele>
        <time>2026-05-13T16:06:38Z</time>
      </trkpt>
      <trkpt lat="45.96675" lon="5.76672">
        <ele>1118.4</ele>
        <time>2026-05-13T16:06:39Z</time>
      </trkpt>
      <trkpt lat="45.96675" lon="5.7667">
        <ele>1118.4</ele>
        <time>2026-05-13T16:06:40Z</time>
      </trkpt>
      <trkpt lat="45.96674" lon="5.76667">
        <ele>1118.4</ele>
        <time>2026-05-13T16:06:41Z</time>
      </trkpt>
      <trkpt lat="45.96675" lon="5.76664">
        <ele>1118.4</ele>
        <time>2026-05-13T16:06:42Z</time>
      </trkpt>
      <trkpt lat="45.96676" lon="5.76661">
        <ele>1118.6</ele>
        <time>2026-05-13T16:06:43Z</time>
      </trkpt>
      <trkpt lat="45.96677" lon="5.76656">
        <ele>1118.6</ele>
        <time>2026-05-13T16:06:44Z</time>
      </trkpt>
      <trkpt lat="45.96677" lon="5.76653">
        <ele>1119</ele>
        <time>2026-05-13T16:06:45Z</time>
      </trkpt>
      <trkpt lat="45.96677" lon="5.76651">
        <ele>1119</ele>
        <time>2026-05-13T16:06:46Z</time>
      </trkpt>
      <trkpt lat="45.96676" lon="5.76649">
        <ele>1119</ele>
        <time>2026-05-13T16:06:47Z</time>
      </trkpt>
      <trkpt lat="45.96676" lon="5.76648">
        <ele>1119.4</ele>
        <time>2026-05-13T16:06:48Z</time>
      </trkpt>
      <trkpt lat="45.96675" lon="5.76647">
        <ele>1119.4</ele>
        <time>2026-05-13T16:06:49Z</time>
      </trkpt>
      <trkpt lat="45.96674" lon="5.76646">
        <ele>1120</ele>
        <time>2026-05-13T16:06:50Z</time>
      </trkpt>
      <trkpt lat="45.96674" lon="5.76645">
        <ele>1120.2</ele>
        <time>2026-05-13T16:06:51Z</time>
      </trkpt>
      <trkpt lat="45.96673" lon="5.76644">
        <ele>1120.2</ele>
        <time>2026-05-13T16:06:52Z</time>
      </trkpt>
      <trkpt lat="45.96671" lon="5.76643">
        <ele>1120.6</ele>
        <time>2026-05-13T16:06:53Z</time>
      </trkpt>
      <trkpt lat="45.96669" lon="5.76643">
        <ele>1120.6</ele>
        <time>2026-05-13T16:06:54Z</time>
      </trkpt>
      <trkpt lat="45.96668" lon="5.76642">
        <ele>1121</ele>
        <time>2026-05-13T16:06:55Z</time>
      </trkpt>
      <trkpt lat="45.96666" lon="5.76642">
        <ele>1121</ele>
        <time>2026-05-13T16:06:56Z</time>
      </trkpt>
      <trkpt lat="45.96665" lon="5.76641">
        <ele>1121.2</ele>
        <time>2026-05-13T16:06:57Z</time>
      </trkpt>
      <trkpt lat="45.96664" lon="5.76641">
        <ele>1121.2</ele>
        <time>2026-05-13T16:06:58Z</time>
      </trkpt>
      <trkpt lat="45.96662" lon="5.76641">
        <ele>1121.6</ele>
        <time>2026-05-13T16:06:59Z</time>
      </trkpt>
      <trkpt lat="45.9666" lon="5.76641">
        <ele>1121.8</ele>
        <time>2026-05-13T16:07:00Z</time>
      </trkpt>
      <trkpt lat="45.96659" lon="5.7664">
        <ele>1121.8</ele>
        <time>2026-05-13T16:07:01Z</time>
      </trkpt>
      <trkpt lat="45.96658" lon="5.76639">
        <ele>1121.8</ele>
        <time>2026-05-13T16:07:02Z</time>
      </trkpt>
      <trkpt lat="45.96657" lon="5.76638">
        <ele>1122</ele>
        <time>2026-05-13T16:07:03Z</time>
      </trkpt>
      <trkpt lat="45.96657" lon="5.76636">
        <ele>1122.4</ele>
        <time>2026-05-13T16:07:04Z</time>
      </trkpt>
      <trkpt lat="45.96657" lon="5.76634">
        <ele>1122.4</ele>
        <time>2026-05-13T16:07:05Z</time>
      </trkpt>
      <trkpt lat="45.96656" lon="5.76632">
        <ele>1122.6</ele>
        <time>2026-05-13T16:07:06Z</time>
      </trkpt>
      <trkpt lat="45.96656" lon="5.7663">
        <ele>1122.6</ele>
        <time>2026-05-13T16:07:07Z</time>
      </trkpt>
      <trkpt lat="45.96656" lon="5.76628">
        <ele>1122.6</ele>
        <time>2026-05-13T16:07:08Z</time>
      </trkpt>
      <trkpt lat="45.96655" lon="5.76626">
        <ele>1122.6</ele>
        <time>2026-05-13T16:07:09Z</time>
      </trkpt>
      <trkpt lat="45.96654" lon="5.76625">
        <ele>1123</ele>
        <time>2026-05-13T16:07:10Z</time>
      </trkpt>
      <trkpt lat="45.96653" lon="5.76624">
        <ele>1123</ele>
        <time>2026-05-13T16:07:11Z</time>
      </trkpt>
      <trkpt lat="45.96652" lon="5.76624">
        <ele>1123.4</ele>
        <time>2026-05-13T16:07:12Z</time>
      </trkpt>
      <trkpt lat="45.96651" lon="5.76623">
        <ele>1123.4</ele>
        <time>2026-05-13T16:07:13Z</time>
      </trkpt>
      <trkpt lat="45.96651" lon="5.76621">
        <ele>1123.6</ele>
        <time>2026-05-13T16:07:14Z</time>
      </trkpt>
      <trkpt lat="45.96651" lon="5.7662">
        <ele>1124</ele>
        <time>2026-05-13T16:07:15Z</time>
      </trkpt>
      <trkpt lat="45.9665" lon="5.76618">
        <ele>1124</ele>
        <time>2026-05-13T16:07:16Z</time>
      </trkpt>
      <trkpt lat="45.9665" lon="5.76617">
        <ele>1124.2</ele>
        <time>2026-05-13T16:07:17Z</time>
      </trkpt>
      <trkpt lat="45.9665" lon="5.76617">
        <ele>1124.2</ele>
        <time>2026-05-13T16:07:18Z</time>
      </trkpt>
      <trkpt lat="45.9665" lon="5.76616">
        <ele>1124.2</ele>
        <time>2026-05-13T16:07:19Z</time>
      </trkpt>
      <trkpt lat="45.96649" lon="5.76614">
        <ele>1124.6</ele>
        <time>2026-05-13T16:07:20Z</time>
      </trkpt>
      <trkpt lat="45.96649" lon="5.76613">
        <ele>1125</ele>
        <time>2026-05-13T16:07:21Z</time>
      </trkpt>
      <trkpt lat="45.96647" lon="5.76612">
        <ele>1125</ele>
        <time>2026-05-13T16:07:22Z</time>
      </trkpt>
      <trkpt lat="45.96645" lon="5.76612">
        <ele>1125.2</ele>
        <time>2026-05-13T16:07:23Z</time>
      </trkpt>
      <trkpt lat="45.96644" lon="5.76612">
        <ele>1125.6</ele>
        <time>2026-05-13T16:07:24Z</time>
      </trkpt>
      <trkpt lat="45.96642" lon="5.76611">
        <ele>1125.8</ele>
        <time>2026-05-13T16:07:25Z</time>
      </trkpt>
      <trkpt lat="45.96641" lon="5.7661">
        <ele>1126</ele>
        <time>2026-05-13T16:07:26Z</time>
      </trkpt>
      <trkpt lat="45.96641" lon="5.76608">
        <ele>1126</ele>
        <time>2026-05-13T16:07:27Z</time>
      </trkpt>
      <trkpt lat="45.96641" lon="5.76606">
        <ele>1126.6</ele>
        <time>2026-05-13T16:07:28Z</time>
      </trkpt>
      <trkpt lat="45.96642" lon="5.76604">
        <ele>1126.6</ele>
        <time>2026-05-13T16:07:29Z</time>
      </trkpt>
      <trkpt lat="45.96642" lon="5.76602">
        <ele>1126.6</ele>
        <time>2026-05-13T16:07:30Z</time>
      </trkpt>
      <trkpt lat="45.96642" lon="5.766">
        <ele>1126.8</ele>
        <time>2026-05-13T16:07:31Z</time>
      </trkpt>
      <trkpt lat="45.96642" lon="5.76598">
        <ele>1126.8</ele>
        <time>2026-05-13T16:07:32Z</time>
      </trkpt>
      <trkpt lat="45.96641" lon="5.76597">
        <ele>1127.2</ele>
        <time>2026-05-13T16:07:33Z</time>
      </trkpt>
      <trkpt lat="45.9664" lon="5.76596">
        <ele>1127.4</ele>
        <time>2026-05-13T16:07:34Z</time>
      </trkpt>
      <trkpt lat="45.96639" lon="5.76595">
        <ele>1127.4</ele>
        <time>2026-05-13T16:07:35Z</time>
      </trkpt>
      <trkpt lat="45.96638" lon="5.76595">
        <ele>1127.8</ele>
        <time>2026-05-13T16:07:36Z</time>
      </trkpt>
      <trkpt lat="45.96637" lon="5.76594">
        <ele>1127.8</ele>
        <time>2026-05-13T16:07:37Z</time>
      </trkpt>
      <trkpt lat="45.96637" lon="5.76594">
        <ele>1128</ele>
        <time>2026-05-13T16:07:38Z</time>
      </trkpt>
      <trkpt lat="45.96636" lon="5.76593">
        <ele>1128</ele>
        <time>2026-05-13T16:07:39Z</time>
      </trkpt>
      <trkpt lat="45.96635" lon="5.76592">
        <ele>1128.4</ele>
        <time>2026-05-13T16:07:40Z</time>
      </trkpt>
      <trkpt lat="45.96635" lon="5.76591">
        <ele>1128.6</ele>
        <time>2026-05-13T16:07:41Z</time>
      </trkpt>
      <trkpt lat="45.96634" lon="5.7659">
        <ele>1128.6</ele>
        <time>2026-05-13T16:07:42Z</time>
      </trkpt>
      <trkpt lat="45.96634" lon="5.76589">
        <ele>1129</ele>
        <time>2026-05-13T16:07:43Z</time>
      </trkpt>
      <trkpt lat="45.96634" lon="5.76587">
        <ele>1129</ele>
        <time>2026-05-13T16:07:44Z</time>
      </trkpt>
      <trkpt lat="45.96634" lon="5.76585">
        <ele>1129</ele>
        <time>2026-05-13T16:07:45Z</time>
      </trkpt>
      <trkpt lat="45.96634" lon="5.76582">
        <ele>1129</ele>
        <time>2026-05-13T16:07:46Z</time>
      </trkpt>
      <trkpt lat="45.96634" lon="5.76581">
        <ele>1129</ele>
        <time>2026-05-13T16:07:47Z</time>
      </trkpt>
      <trkpt lat="45.96634" lon="5.76579">
        <ele>1129</ele>
        <time>2026-05-13T16:07:48Z</time>
      </trkpt>
      <trkpt lat="45.96634" lon="5.76578">
        <ele>1129.4</ele>
        <time>2026-05-13T16:07:49Z</time>
      </trkpt>
      <trkpt lat="45.96633" lon="5.76576">
        <ele>1129.4</ele>
        <time>2026-05-13T16:07:50Z</time>
      </trkpt>
      <trkpt lat="45.96633" lon="5.76574">
        <ele>1129.6</ele>
        <time>2026-05-13T16:07:51Z</time>
      </trkpt>
      <trkpt lat="45.96633" lon="5.76572">
        <ele>1129.6</ele>
        <time>2026-05-13T16:07:52Z</time>
      </trkpt>
      <trkpt lat="45.96634" lon="5.7657">
        <ele>1129.8</ele>
        <time>2026-05-13T16:07:53Z</time>
      </trkpt>
      <trkpt lat="45.96634" lon="5.76568">
        <ele>1130</ele>
        <time>2026-05-13T16:07:54Z</time>
      </trkpt>
      <trkpt lat="45.96635" lon="5.76567">
        <ele>1130</ele>
        <time>2026-05-13T16:07:55Z</time>
      </trkpt>
      <trkpt lat="45.96635" lon="5.76566">
        <ele>1130.6</ele>
        <time>2026-05-13T16:07:56Z</time>
      </trkpt>
      <trkpt lat="45.96635" lon="5.76565">
        <ele>1130.6</ele>
        <time>2026-05-13T16:07:57Z</time>
      </trkpt>
      <trkpt lat="45.96636" lon="5.76565">
        <ele>1130.6</ele>
        <time>2026-05-13T16:07:58Z</time>
      </trkpt>
      <trkpt lat="45.96636" lon="5.76563">
        <ele>1130.6</ele>
        <time>2026-05-13T16:07:59Z</time>
      </trkpt>
      <trkpt lat="45.96635" lon="5.76561">
        <ele>1131</ele>
        <time>2026-05-13T16:08:00Z</time>
      </trkpt>
      <trkpt lat="45.96635" lon="5.7656">
        <ele>1131</ele>
        <time>2026-05-13T16:08:01Z</time>
      </trkpt>
      <trkpt lat="45.96635" lon="5.76559">
        <ele>1131.2</ele>
        <time>2026-05-13T16:08:02Z</time>
      </trkpt>
      <trkpt lat="45.96634" lon="5.76558">
        <ele>1131.6</ele>
        <time>2026-05-13T16:08:03Z</time>
      </trkpt>
      <trkpt lat="45.96634" lon="5.76556">
        <ele>1131.6</ele>
        <time>2026-05-13T16:08:04Z</time>
      </trkpt>
      <trkpt lat="45.96633" lon="5.76555">
        <ele>1131.8</ele>
        <time>2026-05-13T16:08:05Z</time>
      </trkpt>
      <trkpt lat="45.96633" lon="5.76554">
        <ele>1131.8</ele>
        <time>2026-05-13T16:08:06Z</time>
      </trkpt>
      <trkpt lat="45.96633" lon="5.76554">
        <ele>1132.2</ele>
        <time>2026-05-13T16:08:07Z</time>
      </trkpt>
      <trkpt lat="45.96632" lon="5.76553">
        <ele>1132.6</ele>
        <time>2026-05-13T16:08:08Z</time>
      </trkpt>
      <trkpt lat="45.96632" lon="5.76552">
        <ele>1132.8</ele>
        <time>2026-05-13T16:08:09Z</time>
      </trkpt>
      <trkpt lat="45.96632" lon="5.76549">
        <ele>1132.8</ele>
        <time>2026-05-13T16:08:10Z</time>
      </trkpt>
      <trkpt lat="45.96632" lon="5.76547">
        <ele>1132.8</ele>
        <time>2026-05-13T16:08:11Z</time>
      </trkpt>
      <trkpt lat="45.96632" lon="5.76545">
        <ele>1133</ele>
        <time>2026-05-13T16:08:12Z</time>
      </trkpt>
      <trkpt lat="45.96632" lon="5.76544">
        <ele>1133.2</ele>
        <time>2026-05-13T16:08:13Z</time>
      </trkpt>
      <trkpt lat="45.96631" lon="5.76543">
        <ele>1133.6</ele>
        <time>2026-05-13T16:08:14Z</time>
      </trkpt>
      <trkpt lat="45.96631" lon="5.76542">
        <ele>1133.8</ele>
        <time>2026-05-13T16:08:15Z</time>
      </trkpt>
      <trkpt lat="45.96631" lon="5.7654">
        <ele>1133.8</ele>
        <time>2026-05-13T16:08:16Z</time>
      </trkpt>
      <trkpt lat="45.96631" lon="5.76538">
        <ele>1134.2</ele>
        <time>2026-05-13T16:08:17Z</time>
      </trkpt>
      <trkpt lat="45.96632" lon="5.76535">
        <ele>1134.2</ele>
        <time>2026-05-13T16:08:18Z</time>
      </trkpt>
      <trkpt lat="45.96632" lon="5.76534">
        <ele>1134.4</ele>
        <time>2026-05-13T16:08:19Z</time>
      </trkpt>
      <trkpt lat="45.96632" lon="5.76532">
        <ele>1134.8</ele>
        <time>2026-05-13T16:08:20Z</time>
      </trkpt>
      <trkpt lat="45.96632" lon="5.7653">
        <ele>1134.8</ele>
        <time>2026-05-13T16:08:21Z</time>
      </trkpt>
      <trkpt lat="45.96633" lon="5.76528">
        <ele>1135.2</ele>
        <time>2026-05-13T16:08:22Z</time>
      </trkpt>
      <trkpt lat="45.96633" lon="5.76526">
        <ele>1135.2</ele>
        <time>2026-05-13T16:08:23Z</time>
      </trkpt>
      <trkpt lat="45.96633" lon="5.76524">
        <ele>1135.4</ele>
        <time>2026-05-13T16:08:24Z</time>
      </trkpt>
      <trkpt lat="45.96633" lon="5.76522">
        <ele>1135.4</ele>
        <time>2026-05-13T16:08:25Z</time>
      </trkpt>
      <trkpt lat="45.96633" lon="5.7652">
        <ele>1135.4</ele>
        <time>2026-05-13T16:08:26Z</time>
      </trkpt>
      <trkpt lat="45.96633" lon="5.76519">
        <ele>1135.8</ele>
        <time>2026-05-13T16:08:27Z</time>
      </trkpt>
      <trkpt lat="45.96633" lon="5.76516">
        <ele>1135.8</ele>
        <time>2026-05-13T16:08:28Z</time>
      </trkpt>
      <trkpt lat="45.96634" lon="5.76514">
        <ele>1136</ele>
        <time>2026-05-13T16:08:29Z</time>
      </trkpt>
      <trkpt lat="45.96634" lon="5.76512">
        <ele>1136.2</ele>
        <time>2026-05-13T16:08:30Z</time>
      </trkpt>
      <trkpt lat="45.96635" lon="5.76509">
        <ele>1136.2</ele>
        <time>2026-05-13T16:08:31Z</time>
      </trkpt>
      <trkpt lat="45.96636" lon="5.76506">
        <ele>1136.6</ele>
        <time>2026-05-13T16:08:32Z</time>
      </trkpt>
      <trkpt lat="45.96637" lon="5.76504">
        <ele>1136.6</ele>
        <time>2026-05-13T16:08:33Z</time>
      </trkpt>
      <trkpt lat="45.96638" lon="5.76501">
        <ele>1137</ele>
        <time>2026-05-13T16:08:34Z</time>
      </trkpt>
      <trkpt lat="45.96637" lon="5.76499">
        <ele>1137.2</ele>
        <time>2026-05-13T16:08:35Z</time>
      </trkpt>
      <trkpt lat="45.96636" lon="5.76497">
        <ele>1137.4</ele>
        <time>2026-05-13T16:08:36Z</time>
      </trkpt>
      <trkpt lat="45.96634" lon="5.76496">
        <ele>1137.8</ele>
        <time>2026-05-13T16:08:37Z</time>
      </trkpt>
      <trkpt lat="45.96633" lon="5.76495">
        <ele>1137.8</ele>
        <time>2026-05-13T16:08:38Z</time>
      </trkpt>
      <trkpt lat="45.96632" lon="5.76494">
        <ele>1137.8</ele>
        <time>2026-05-13T16:08:39Z</time>
      </trkpt>
      <trkpt lat="45.9663" lon="5.76494">
        <ele>1137.8</ele>
        <time>2026-05-13T16:08:40Z</time>
      </trkpt>
      <trkpt lat="45.9663" lon="5.76493">
        <ele>1138</ele>
        <time>2026-05-13T16:08:41Z</time>
      </trkpt>
      <trkpt lat="45.96629" lon="5.76493">
        <ele>1138</ele>
        <time>2026-05-13T16:08:42Z</time>
      </trkpt>
      <trkpt lat="45.96628" lon="5.76493">
        <ele>1138.4</ele>
        <time>2026-05-13T16:08:43Z</time>
      </trkpt>
      <trkpt lat="45.96628" lon="5.76492">
        <ele>1138.4</ele>
        <time>2026-05-13T16:08:44Z</time>
      </trkpt>
      <trkpt lat="45.96627" lon="5.7649">
        <ele>1138.8</ele>
        <time>2026-05-13T16:08:45Z</time>
      </trkpt>
      <trkpt lat="45.96626" lon="5.76488">
        <ele>1138.8</ele>
        <time>2026-05-13T16:08:46Z</time>
      </trkpt>
      <trkpt lat="45.96625" lon="5.76487">
        <ele>1139</ele>
        <time>2026-05-13T16:08:47Z</time>
      </trkpt>
      <trkpt lat="45.96625" lon="5.76486">
        <ele>1139</ele>
        <time>2026-05-13T16:08:48Z</time>
      </trkpt>
      <trkpt lat="45.96625" lon="5.76483">
        <ele>1139</ele>
        <time>2026-05-13T16:08:49Z</time>
      </trkpt>
      <trkpt lat="45.96626" lon="5.7648">
        <ele>1139</ele>
        <time>2026-05-13T16:08:50Z</time>
      </trkpt>
      <trkpt lat="45.96626" lon="5.76478">
        <ele>1139.2</ele>
        <time>2026-05-13T16:08:51Z</time>
      </trkpt>
      <trkpt lat="45.96626" lon="5.76476">
        <ele>1139.6</ele>
        <time>2026-05-13T16:08:52Z</time>
      </trkpt>
      <trkpt lat="45.96625" lon="5.76474">
        <ele>1139.6</ele>
        <time>2026-05-13T16:08:53Z</time>
      </trkpt>
      <trkpt lat="45.96624" lon="5.76473">
        <ele>1139.8</ele>
        <time>2026-05-13T16:08:54Z</time>
      </trkpt>
      <trkpt lat="45.96624" lon="5.76472">
        <ele>1140.2</ele>
        <time>2026-05-13T16:08:55Z</time>
      </trkpt>
      <trkpt lat="45.96624" lon="5.76471">
        <ele>1140.2</ele>
        <time>2026-05-13T16:08:56Z</time>
      </trkpt>
      <trkpt lat="45.96623" lon="5.76469">
        <ele>1140.2</ele>
        <time>2026-05-13T16:08:57Z</time>
      </trkpt>
      <trkpt lat="45.96623" lon="5.76467">
        <ele>1140.2</ele>
        <time>2026-05-13T16:08:58Z</time>
      </trkpt>
      <trkpt lat="45.96623" lon="5.76465">
        <ele>1140.4</ele>
        <time>2026-05-13T16:08:59Z</time>
      </trkpt>
      <trkpt lat="45.96623" lon="5.76463">
        <ele>1140.6</ele>
        <time>2026-05-13T16:09:00Z</time>
      </trkpt>
      <trkpt lat="45.96623" lon="5.76461">
        <ele>1140.6</ele>
        <time>2026-05-13T16:09:01Z</time>
      </trkpt>
      <trkpt lat="45.96622" lon="5.76459">
        <ele>1141</ele>
        <time>2026-05-13T16:09:02Z</time>
      </trkpt>
      <trkpt lat="45.96622" lon="5.76457">
        <ele>1141</ele>
        <time>2026-05-13T16:09:03Z</time>
      </trkpt>
      <trkpt lat="45.96621" lon="5.76455">
        <ele>1141</ele>
        <time>2026-05-13T16:09:04Z</time>
      </trkpt>
      <trkpt lat="45.9662" lon="5.76454">
        <ele>1141.4</ele>
        <time>2026-05-13T16:09:05Z</time>
      </trkpt>
      <trkpt lat="45.96619" lon="5.76453">
        <ele>1141.6</ele>
        <time>2026-05-13T16:09:06Z</time>
      </trkpt>
      <trkpt lat="45.96619" lon="5.7645">
        <ele>1142</ele>
        <time>2026-05-13T16:09:07Z</time>
      </trkpt>
      <trkpt lat="45.96619" lon="5.76448">
        <ele>1142</ele>
        <time>2026-05-13T16:09:08Z</time>
      </trkpt>
      <trkpt lat="45.96619" lon="5.76445">
        <ele>1142</ele>
        <time>2026-05-13T16:09:09Z</time>
      </trkpt>
      <trkpt lat="45.96619" lon="5.76443">
        <ele>1142.4</ele>
        <time>2026-05-13T16:09:10Z</time>
      </trkpt>
      <trkpt lat="45.9662" lon="5.76441">
        <ele>1142.4</ele>
        <time>2026-05-13T16:09:11Z</time>
      </trkpt>
      <trkpt lat="45.96621" lon="5.76439">
        <ele>1142.4</ele>
        <time>2026-05-13T16:09:12Z</time>
      </trkpt>
      <trkpt lat="45.96622" lon="5.76436">
        <ele>1142.4</ele>
        <time>2026-05-13T16:09:13Z</time>
      </trkpt>
      <trkpt lat="45.96622" lon="5.76434">
        <ele>1143</ele>
        <time>2026-05-13T16:09:14Z</time>
      </trkpt>
      <trkpt lat="45.96621" lon="5.76432">
        <ele>1143</ele>
        <time>2026-05-13T16:09:15Z</time>
      </trkpt>
      <trkpt lat="45.96621" lon="5.7643">
        <ele>1143</ele>
        <time>2026-05-13T16:09:16Z</time>
      </trkpt>
      <trkpt lat="45.9662" lon="5.76428">
        <ele>1143</ele>
        <time>2026-05-13T16:09:17Z</time>
      </trkpt>
      <trkpt lat="45.96619" lon="5.76426">
        <ele>1143</ele>
        <time>2026-05-13T16:09:18Z</time>
      </trkpt>
      <trkpt lat="45.96618" lon="5.76426">
        <ele>1143.4</ele>
        <time>2026-05-13T16:09:19Z</time>
      </trkpt>
      <trkpt lat="45.96617" lon="5.76424">
        <ele>1143.6</ele>
        <time>2026-05-13T16:09:20Z</time>
      </trkpt>
      <trkpt lat="45.96617" lon="5.76422">
        <ele>1143.6</ele>
        <time>2026-05-13T16:09:21Z</time>
      </trkpt>
      <trkpt lat="45.96618" lon="5.7642">
        <ele>1144.2</ele>
        <time>2026-05-13T16:09:22Z</time>
      </trkpt>
      <trkpt lat="45.96618" lon="5.76417">
        <ele>1144.2</ele>
        <time>2026-05-13T16:09:23Z</time>
      </trkpt>
      <trkpt lat="45.96618" lon="5.76414">
        <ele>1144.4</ele>
        <time>2026-05-13T16:09:24Z</time>
      </trkpt>
      <trkpt lat="45.96618" lon="5.76411">
        <ele>1144.6</ele>
        <time>2026-05-13T16:09:25Z</time>
      </trkpt>
      <trkpt lat="45.96617" lon="5.7641">
        <ele>1144.6</ele>
        <time>2026-05-13T16:09:26Z</time>
      </trkpt>
      <trkpt lat="45.96617" lon="5.76409">
        <ele>1144.8</ele>
        <time>2026-05-13T16:09:27Z</time>
      </trkpt>
      <trkpt lat="45.96616" lon="5.76408">
        <ele>1145.2</ele>
        <time>2026-05-13T16:09:28Z</time>
      </trkpt>
      <trkpt lat="45.96616" lon="5.76406">
        <ele>1145.2</ele>
        <time>2026-05-13T16:09:29Z</time>
      </trkpt>
      <trkpt lat="45.96615" lon="5.76405">
        <ele>1145.2</ele>
        <time>2026-05-13T16:09:30Z</time>
      </trkpt>
      <trkpt lat="45.96613" lon="5.76404">
        <ele>1145.2</ele>
        <time>2026-05-13T16:09:31Z</time>
      </trkpt>
      <trkpt lat="45.96611" lon="5.76404">
        <ele>1145.2</ele>
        <time>2026-05-13T16:09:32Z</time>
      </trkpt>
      <trkpt lat="45.96609" lon="5.76403">
        <ele>1145.2</ele>
        <time>2026-05-13T16:09:33Z</time>
      </trkpt>
      <trkpt lat="45.96607" lon="5.76402">
        <ele>1145.2</ele>
        <time>2026-05-13T16:09:34Z</time>
      </trkpt>
      <trkpt lat="45.96607" lon="5.764">
        <ele>1145.4</ele>
        <time>2026-05-13T16:09:35Z</time>
      </trkpt>
      <trkpt lat="45.96607" lon="5.76398">
        <ele>1145.4</ele>
        <time>2026-05-13T16:09:36Z</time>
      </trkpt>
      <trkpt lat="45.96606" lon="5.76395">
        <ele>1145.4</ele>
        <time>2026-05-13T16:09:37Z</time>
      </trkpt>
      <trkpt lat="45.96606" lon="5.76393">
        <ele>1145.6</ele>
        <time>2026-05-13T16:09:38Z</time>
      </trkpt>
      <trkpt lat="45.96604" lon="5.76392">
        <ele>1145.6</ele>
        <time>2026-05-13T16:09:39Z</time>
      </trkpt>
      <trkpt lat="45.96603" lon="5.76391">
        <ele>1146</ele>
        <time>2026-05-13T16:09:40Z</time>
      </trkpt>
      <trkpt lat="45.96603" lon="5.76389">
        <ele>1146</ele>
        <time>2026-05-13T16:09:41Z</time>
      </trkpt>
      <trkpt lat="45.96602" lon="5.76386">
        <ele>1146.2</ele>
        <time>2026-05-13T16:09:42Z</time>
      </trkpt>
      <trkpt lat="45.96602" lon="5.76384">
        <ele>1146.2</ele>
        <time>2026-05-13T16:09:43Z</time>
      </trkpt>
      <trkpt lat="45.96601" lon="5.76383">
        <ele>1146.8</ele>
        <time>2026-05-13T16:09:44Z</time>
      </trkpt>
      <trkpt lat="45.96601" lon="5.7638">
        <ele>1146.8</ele>
        <time>2026-05-13T16:09:45Z</time>
      </trkpt>
      <trkpt lat="45.96601" lon="5.76377">
        <ele>1147</ele>
        <time>2026-05-13T16:09:46Z</time>
      </trkpt>
      <trkpt lat="45.96601" lon="5.76375">
        <ele>1147</ele>
        <time>2026-05-13T16:09:47Z</time>
      </trkpt>
      <trkpt lat="45.96601" lon="5.76373">
        <ele>1147.2</ele>
        <time>2026-05-13T16:09:48Z</time>
      </trkpt>
      <trkpt lat="45.96601" lon="5.7637">
        <ele>1147.2</ele>
        <time>2026-05-13T16:09:49Z</time>
      </trkpt>
      <trkpt lat="45.966" lon="5.76369">
        <ele>1147.2</ele>
        <time>2026-05-13T16:09:50Z</time>
      </trkpt>
      <trkpt lat="45.966" lon="5.76368">
        <ele>1147.2</ele>
        <time>2026-05-13T16:09:51Z</time>
      </trkpt>
      <trkpt lat="45.966" lon="5.76367">
        <ele>1147.2</ele>
        <time>2026-05-13T16:09:52Z</time>
      </trkpt>
      <trkpt lat="45.96599" lon="5.76365">
        <ele>1147.2</ele>
        <time>2026-05-13T16:09:53Z</time>
      </trkpt>
      <trkpt lat="45.96599" lon="5.76362">
        <ele>1147.6</ele>
        <time>2026-05-13T16:09:54Z</time>
      </trkpt>
      <trkpt lat="45.96599" lon="5.7636">
        <ele>1147.6</ele>
        <time>2026-05-13T16:09:55Z</time>
      </trkpt>
      <trkpt lat="45.966" lon="5.76358">
        <ele>1148</ele>
        <time>2026-05-13T16:09:56Z</time>
      </trkpt>
      <trkpt lat="45.96599" lon="5.76356">
        <ele>1148</ele>
        <time>2026-05-13T16:09:57Z</time>
      </trkpt>
      <trkpt lat="45.96599" lon="5.76355">
        <ele>1148.2</ele>
        <time>2026-05-13T16:09:58Z</time>
      </trkpt>
      <trkpt lat="45.96598" lon="5.76354">
        <ele>1148.2</ele>
        <time>2026-05-13T16:09:59Z</time>
      </trkpt>
      <trkpt lat="45.96597" lon="5.76353">
        <ele>1148.2</ele>
        <time>2026-05-13T16:10:00Z</time>
      </trkpt>
      <trkpt lat="45.96596" lon="5.76351">
        <ele>1148.6</ele>
        <time>2026-05-13T16:10:01Z</time>
      </trkpt>
      <trkpt lat="45.96596" lon="5.76349">
        <ele>1148.6</ele>
        <time>2026-05-13T16:10:02Z</time>
      </trkpt>
      <trkpt lat="45.96596" lon="5.76346">
        <ele>1149</ele>
        <time>2026-05-13T16:10:03Z</time>
      </trkpt>
      <trkpt lat="45.96595" lon="5.76343">
        <ele>1149</ele>
        <time>2026-05-13T16:10:04Z</time>
      </trkpt>
      <trkpt lat="45.96595" lon="5.76342">
        <ele>1149.2</ele>
        <time>2026-05-13T16:10:05Z</time>
      </trkpt>
      <trkpt lat="45.96594" lon="5.7634">
        <ele>1149.2</ele>
        <time>2026-05-13T16:10:06Z</time>
      </trkpt>
      <trkpt lat="45.96593" lon="5.76338">
        <ele>1149.6</ele>
        <time>2026-05-13T16:10:07Z</time>
      </trkpt>
      <trkpt lat="45.96592" lon="5.76337">
        <ele>1149.6</ele>
        <time>2026-05-13T16:10:08Z</time>
      </trkpt>
      <trkpt lat="45.96591" lon="5.76337">
        <ele>1150</ele>
        <time>2026-05-13T16:10:09Z</time>
      </trkpt>
      <trkpt lat="45.96589" lon="5.76335">
        <ele>1150</ele>
        <time>2026-05-13T16:10:10Z</time>
      </trkpt>
      <trkpt lat="45.96588" lon="5.76334">
        <ele>1150</ele>
        <time>2026-05-13T16:10:11Z</time>
      </trkpt>
      <trkpt lat="45.96586" lon="5.76333">
        <ele>1150.2</ele>
        <time>2026-05-13T16:10:12Z</time>
      </trkpt>
      <trkpt lat="45.96586" lon="5.76332">
        <ele>1150.2</ele>
        <time>2026-05-13T16:10:13Z</time>
      </trkpt>
      <trkpt lat="45.96585" lon="5.7633">
        <ele>1150.2</ele>
        <time>2026-05-13T16:10:14Z</time>
      </trkpt>
      <trkpt lat="45.96584" lon="5.76329">
        <ele>1150.6</ele>
        <time>2026-05-13T16:10:15Z</time>
      </trkpt>
      <trkpt lat="45.96584" lon="5.76328">
        <ele>1150.6</ele>
        <time>2026-05-13T16:10:16Z</time>
      </trkpt>
      <trkpt lat="45.96583" lon="5.76326">
        <ele>1150.6</ele>
        <time>2026-05-13T16:10:17Z</time>
      </trkpt>
      <trkpt lat="45.96583" lon="5.76325">
        <ele>1150.8</ele>
        <time>2026-05-13T16:10:18Z</time>
      </trkpt>
      <trkpt lat="45.96583" lon="5.76323">
        <ele>1150.8</ele>
        <time>2026-05-13T16:10:19Z</time>
      </trkpt>
      <trkpt lat="45.96581" lon="5.76323">
        <ele>1150.8</ele>
        <time>2026-05-13T16:10:20Z</time>
      </trkpt>
      <trkpt lat="45.9658" lon="5.76322">
        <ele>1151.2</ele>
        <time>2026-05-13T16:10:21Z</time>
      </trkpt>
      <trkpt lat="45.9658" lon="5.76321">
        <ele>1151.2</ele>
        <time>2026-05-13T16:10:22Z</time>
      </trkpt>
      <trkpt lat="45.96579" lon="5.7632">
        <ele>1151.2</ele>
        <time>2026-05-13T16:10:23Z</time>
      </trkpt>
      <trkpt lat="45.96579" lon="5.76318">
        <ele>1151.2</ele>
        <time>2026-05-13T16:10:24Z</time>
      </trkpt>
      <trkpt lat="45.96579" lon="5.76317">
        <ele>1151.4</ele>
        <time>2026-05-13T16:10:25Z</time>
      </trkpt>
      <trkpt lat="45.96579" lon="5.76316">
        <ele>1151.4</ele>
        <time>2026-05-13T16:10:26Z</time>
      </trkpt>
      <trkpt lat="45.96578" lon="5.76314">
        <ele>1151.8</ele>
        <time>2026-05-13T16:10:27Z</time>
      </trkpt>
      <trkpt lat="45.96577" lon="5.76313">
        <ele>1151.8</ele>
        <time>2026-05-13T16:10:28Z</time>
      </trkpt>
      <trkpt lat="45.96577" lon="5.76312">
        <ele>1152.2</ele>
        <time>2026-05-13T16:10:29Z</time>
      </trkpt>
      <trkpt lat="45.96576" lon="5.7631">
        <ele>1152.2</ele>
        <time>2026-05-13T16:10:30Z</time>
      </trkpt>
      <trkpt lat="45.96575" lon="5.76308">
        <ele>1152.2</ele>
        <time>2026-05-13T16:10:31Z</time>
      </trkpt>
      <trkpt lat="45.96574" lon="5.76306">
        <ele>1152.2</ele>
        <time>2026-05-13T16:10:32Z</time>
      </trkpt>
      <trkpt lat="45.96573" lon="5.76304">
        <ele>1152.4</ele>
        <time>2026-05-13T16:10:33Z</time>
      </trkpt>
      <trkpt lat="45.96572" lon="5.76303">
        <ele>1152.4</ele>
        <time>2026-05-13T16:10:34Z</time>
      </trkpt>
      <trkpt lat="45.96571" lon="5.76302">
        <ele>1152.6</ele>
        <time>2026-05-13T16:10:35Z</time>
      </trkpt>
      <trkpt lat="45.9657" lon="5.76302">
        <ele>1152.6</ele>
        <time>2026-05-13T16:10:36Z</time>
      </trkpt>
      <trkpt lat="45.96569" lon="5.76301">
        <ele>1152.8</ele>
        <time>2026-05-13T16:10:37Z</time>
      </trkpt>
      <trkpt lat="45.96568" lon="5.763">
        <ele>1152.8</ele>
        <time>2026-05-13T16:10:38Z</time>
      </trkpt>
      <trkpt lat="45.96567" lon="5.76299">
        <ele>1152.8</ele>
        <time>2026-05-13T16:10:39Z</time>
      </trkpt>
      <trkpt lat="45.96567" lon="5.76297">
        <ele>1153.2</ele>
        <time>2026-05-13T16:10:40Z</time>
      </trkpt>
      <trkpt lat="45.96566" lon="5.76296">
        <ele>1153.4</ele>
        <time>2026-05-13T16:10:41Z</time>
      </trkpt>
      <trkpt lat="45.96566" lon="5.76293">
        <ele>1153.4</ele>
        <time>2026-05-13T16:10:42Z</time>
      </trkpt>
      <trkpt lat="45.96566" lon="5.76291">
        <ele>1153.8</ele>
        <time>2026-05-13T16:10:43Z</time>
      </trkpt>
      <trkpt lat="45.96566" lon="5.76289">
        <ele>1154</ele>
        <time>2026-05-13T16:10:44Z</time>
      </trkpt>
      <trkpt lat="45.96566" lon="5.76286">
        <ele>1154.4</ele>
        <time>2026-05-13T16:10:45Z</time>
      </trkpt>
      <trkpt lat="45.96565" lon="5.76284">
        <ele>1154.4</ele>
        <time>2026-05-13T16:10:46Z</time>
      </trkpt>
      <trkpt lat="45.96565" lon="5.76282">
        <ele>1154.8</ele>
        <time>2026-05-13T16:10:47Z</time>
      </trkpt>
      <trkpt lat="45.96564" lon="5.76282">
        <ele>1155</ele>
        <time>2026-05-13T16:10:48Z</time>
      </trkpt>
      <trkpt lat="45.96564" lon="5.76282">
        <ele>1155.2</ele>
        <time>2026-05-13T16:10:49Z</time>
      </trkpt>
      <trkpt lat="45.96563" lon="5.7628">
        <ele>1155.4</ele>
        <time>2026-05-13T16:10:50Z</time>
      </trkpt>
      <trkpt lat="45.96562" lon="5.76278">
        <ele>1155.8</ele>
        <time>2026-05-13T16:10:51Z</time>
      </trkpt>
      <trkpt lat="45.96561" lon="5.76276">
        <ele>1155.8</ele>
        <time>2026-05-13T16:10:52Z</time>
      </trkpt>
      <trkpt lat="45.9656" lon="5.76274">
        <ele>1155.8</ele>
        <time>2026-05-13T16:10:53Z</time>
      </trkpt>
      <trkpt lat="45.9656" lon="5.76273">
        <ele>1155.8</ele>
        <time>2026-05-13T16:10:54Z</time>
      </trkpt>
      <trkpt lat="45.9656" lon="5.76272">
        <ele>1156</ele>
        <time>2026-05-13T16:10:55Z</time>
      </trkpt>
      <trkpt lat="45.9656" lon="5.7627">
        <ele>1156</ele>
        <time>2026-05-13T16:10:56Z</time>
      </trkpt>
      <trkpt lat="45.96558" lon="5.76268">
        <ele>1156.4</ele>
        <time>2026-05-13T16:10:57Z</time>
      </trkpt>
      <trkpt lat="45.96557" lon="5.76266">
        <ele>1156.6</ele>
        <time>2026-05-13T16:10:58Z</time>
      </trkpt>
      <trkpt lat="45.96556" lon="5.76264">
        <ele>1156.6</ele>
        <time>2026-05-13T16:10:59Z</time>
      </trkpt>
      <trkpt lat="45.96556" lon="5.76263">
        <ele>1157</ele>
        <time>2026-05-13T16:11:00Z</time>
      </trkpt>
      <trkpt lat="45.96556" lon="5.76261">
        <ele>1157</ele>
        <time>2026-05-13T16:11:01Z</time>
      </trkpt>
      <trkpt lat="45.96556" lon="5.76259">
        <ele>1157</ele>
        <time>2026-05-13T16:11:02Z</time>
      </trkpt>
      <trkpt lat="45.96557" lon="5.76257">
        <ele>1157.4</ele>
        <time>2026-05-13T16:11:03Z</time>
      </trkpt>
      <trkpt lat="45.96557" lon="5.76256">
        <ele>1157.4</ele>
        <time>2026-05-13T16:11:04Z</time>
      </trkpt>
      <trkpt lat="45.96557" lon="5.76254">
        <ele>1157.6</ele>
        <time>2026-05-13T16:11:05Z</time>
      </trkpt>
      <trkpt lat="45.96557" lon="5.76252">
        <ele>1157.6</ele>
        <time>2026-05-13T16:11:06Z</time>
      </trkpt>
      <trkpt lat="45.96557" lon="5.76249">
        <ele>1157.6</ele>
        <time>2026-05-13T16:11:07Z</time>
      </trkpt>
      <trkpt lat="45.96556" lon="5.76246">
        <ele>1158</ele>
        <time>2026-05-13T16:11:08Z</time>
      </trkpt>
      <trkpt lat="45.96556" lon="5.76244">
        <ele>1158</ele>
        <time>2026-05-13T16:11:09Z</time>
      </trkpt>
      <trkpt lat="45.96556" lon="5.76241">
        <ele>1158.2</ele>
        <time>2026-05-13T16:11:10Z</time>
      </trkpt>
      <trkpt lat="45.96557" lon="5.76239">
        <ele>1158.2</ele>
        <time>2026-05-13T16:11:11Z</time>
      </trkpt>
      <trkpt lat="45.96558" lon="5.76237">
        <ele>1158.6</ele>
        <time>2026-05-13T16:11:12Z</time>
      </trkpt>
      <trkpt lat="45.96559" lon="5.76234">
        <ele>1158.6</ele>
        <time>2026-05-13T16:11:13Z</time>
      </trkpt>
      <trkpt lat="45.9656" lon="5.76232">
        <ele>1158.8</ele>
        <time>2026-05-13T16:11:14Z</time>
      </trkpt>
      <trkpt lat="45.9656" lon="5.76229">
        <ele>1158.8</ele>
        <time>2026-05-13T16:11:15Z</time>
      </trkpt>
      <trkpt lat="45.9656" lon="5.76227">
        <ele>1159.2</ele>
        <time>2026-05-13T16:11:16Z</time>
      </trkpt>
      <trkpt lat="45.9656" lon="5.76225">
        <ele>1159.2</ele>
        <time>2026-05-13T16:11:17Z</time>
      </trkpt>
      <trkpt lat="45.96559" lon="5.76224">
        <ele>1159.4</ele>
        <time>2026-05-13T16:11:18Z</time>
      </trkpt>
      <trkpt lat="45.96558" lon="5.76223">
        <ele>1159.4</ele>
        <time>2026-05-13T16:11:19Z</time>
      </trkpt>
      <trkpt lat="45.96558" lon="5.76223">
        <ele>1159.4</ele>
        <time>2026-05-13T16:11:20Z</time>
      </trkpt>
      <trkpt lat="45.96558" lon="5.76221">
        <ele>1159.8</ele>
        <time>2026-05-13T16:11:21Z</time>
      </trkpt>
      <trkpt lat="45.96559" lon="5.76218">
        <ele>1159.4</ele>
        <time>2026-05-13T16:11:22Z</time>
      </trkpt>
      <trkpt lat="45.96559" lon="5.76216">
        <ele>1159.8</ele>
        <time>2026-05-13T16:11:23Z</time>
      </trkpt>
      <trkpt lat="45.9656" lon="5.76214">
        <ele>1159.8</ele>
        <time>2026-05-13T16:11:24Z</time>
      </trkpt>
      <trkpt lat="45.96561" lon="5.76212">
        <ele>1160.2</ele>
        <time>2026-05-13T16:11:25Z</time>
      </trkpt>
      <trkpt lat="45.96561" lon="5.7621">
        <ele>1160.2</ele>
        <time>2026-05-13T16:11:26Z</time>
      </trkpt>
      <trkpt lat="45.96561" lon="5.76208">
        <ele>1160.4</ele>
        <time>2026-05-13T16:11:27Z</time>
      </trkpt>
      <trkpt lat="45.96561" lon="5.76207">
        <ele>1160.4</ele>
        <time>2026-05-13T16:11:28Z</time>
      </trkpt>
      <trkpt lat="45.96561" lon="5.76205">
        <ele>1160.4</ele>
        <time>2026-05-13T16:11:29Z</time>
      </trkpt>
      <trkpt lat="45.9656" lon="5.76202">
        <ele>1160.6</ele>
        <time>2026-05-13T16:11:30Z</time>
      </trkpt>
      <trkpt lat="45.9656" lon="5.762">
        <ele>1160.6</ele>
        <time>2026-05-13T16:11:31Z</time>
      </trkpt>
      <trkpt lat="45.96561" lon="5.76198">
        <ele>1161</ele>
        <time>2026-05-13T16:11:32Z</time>
      </trkpt>
      <trkpt lat="45.96561" lon="5.76196">
        <ele>1161</ele>
        <time>2026-05-13T16:11:33Z</time>
      </trkpt>
      <trkpt lat="45.96561" lon="5.76194">
        <ele>1161.2</ele>
        <time>2026-05-13T16:11:34Z</time>
      </trkpt>
      <trkpt lat="45.9656" lon="5.76192">
        <ele>1161.2</ele>
        <time>2026-05-13T16:11:35Z</time>
      </trkpt>
      <trkpt lat="45.96559" lon="5.7619">
        <ele>1161.2</ele>
        <time>2026-05-13T16:11:36Z</time>
      </trkpt>
      <trkpt lat="45.96559" lon="5.76189">
        <ele>1161.4</ele>
        <time>2026-05-13T16:11:37Z</time>
      </trkpt>
      <trkpt lat="45.96558" lon="5.76188">
        <ele>1161.8</ele>
        <time>2026-05-13T16:11:38Z</time>
      </trkpt>
      <trkpt lat="45.96558" lon="5.76187">
        <ele>1161.8</ele>
        <time>2026-05-13T16:11:39Z</time>
      </trkpt>
      <trkpt lat="45.96558" lon="5.76185">
        <ele>1161.8</ele>
        <time>2026-05-13T16:11:40Z</time>
      </trkpt>
      <trkpt lat="45.96558" lon="5.76182">
        <ele>1161.8</ele>
        <time>2026-05-13T16:11:41Z</time>
      </trkpt>
      <trkpt lat="45.96559" lon="5.76179">
        <ele>1162</ele>
        <time>2026-05-13T16:11:42Z</time>
      </trkpt>
      <trkpt lat="45.9656" lon="5.76176">
        <ele>1162</ele>
        <time>2026-05-13T16:11:43Z</time>
      </trkpt>
      <trkpt lat="45.96562" lon="5.76173">
        <ele>1162.4</ele>
        <time>2026-05-13T16:11:44Z</time>
      </trkpt>
      <trkpt lat="45.96564" lon="5.7617">
        <ele>1162.4</ele>
        <time>2026-05-13T16:11:45Z</time>
      </trkpt>
      <trkpt lat="45.96566" lon="5.76167">
        <ele>1162.4</ele>
        <time>2026-05-13T16:11:46Z</time>
      </trkpt>
      <trkpt lat="45.96567" lon="5.76164">
        <ele>1162.4</ele>
        <time>2026-05-13T16:11:47Z</time>
      </trkpt>
      <trkpt lat="45.96568" lon="5.76162">
        <ele>1162.4</ele>
        <time>2026-05-13T16:11:48Z</time>
      </trkpt>
      <trkpt lat="45.96569" lon="5.76159">
        <ele>1162.4</ele>
        <time>2026-05-13T16:11:49Z</time>
      </trkpt>
      <trkpt lat="45.96569" lon="5.76156">
        <ele>1162.6</ele>
        <time>2026-05-13T16:11:50Z</time>
      </trkpt>
      <trkpt lat="45.9657" lon="5.76153">
        <ele>1162.6</ele>
        <time>2026-05-13T16:11:51Z</time>
      </trkpt>
      <trkpt lat="45.9657" lon="5.76151">
        <ele>1162.6</ele>
        <time>2026-05-13T16:11:52Z</time>
      </trkpt>
      <trkpt lat="45.96569" lon="5.76148">
        <ele>1162.6</ele>
        <time>2026-05-13T16:11:53Z</time>
      </trkpt>
      <trkpt lat="45.9657" lon="5.76146">
        <ele>1162.6</ele>
        <time>2026-05-13T16:11:54Z</time>
      </trkpt>
      <trkpt lat="45.9657" lon="5.76144">
        <ele>1163</ele>
        <time>2026-05-13T16:11:55Z</time>
      </trkpt>
      <trkpt lat="45.96571" lon="5.76141">
        <ele>1163</ele>
        <time>2026-05-13T16:11:56Z</time>
      </trkpt>
      <trkpt lat="45.96572" lon="5.76139">
        <ele>1163</ele>
        <time>2026-05-13T16:11:57Z</time>
      </trkpt>
      <trkpt lat="45.96573" lon="5.76138">
        <ele>1163.2</ele>
        <time>2026-05-13T16:11:58Z</time>
      </trkpt>
      <trkpt lat="45.96573" lon="5.76137">
        <ele>1163.2</ele>
        <time>2026-05-13T16:11:59Z</time>
      </trkpt>
      <trkpt lat="45.96573" lon="5.76136">
        <ele>1163.4</ele>
        <time>2026-05-13T16:12:00Z</time>
      </trkpt>
      <trkpt lat="45.96572" lon="5.76137">
        <ele>1163.4</ele>
        <time>2026-05-13T16:12:01Z</time>
      </trkpt>
      <trkpt lat="45.96572" lon="5.76132">
        <ele>1163</ele>
        <time>2026-05-13T16:13:39Z</time>
      </trkpt>
      <trkpt lat="45.96573" lon="5.7613">
        <ele>1163</ele>
        <time>2026-05-13T16:13:40Z</time>
      </trkpt>
      <trkpt lat="45.96574" lon="5.76127">
        <ele>1163</ele>
        <time>2026-05-13T16:13:41Z</time>
      </trkpt>
      <trkpt lat="45.96575" lon="5.76125">
        <ele>1163</ele>
        <time>2026-05-13T16:13:42Z</time>
      </trkpt>
      <trkpt lat="45.96576" lon="5.76123">
        <ele>1163</ele>
        <time>2026-05-13T16:13:43Z</time>
      </trkpt>
      <trkpt lat="45.96577" lon="5.7612">
        <ele>1163</ele>
        <time>2026-05-13T16:13:44Z</time>
      </trkpt>
      <trkpt lat="45.96578" lon="5.76118">
        <ele>1163</ele>
        <time>2026-05-13T16:13:45Z</time>
      </trkpt>
      <trkpt lat="45.96579" lon="5.76115">
        <ele>1163.2</ele>
        <time>2026-05-13T16:13:46Z</time>
      </trkpt>
      <trkpt lat="45.9658" lon="5.76113">
        <ele>1163.6</ele>
        <time>2026-05-13T16:13:47Z</time>
      </trkpt>
      <trkpt lat="45.96581" lon="5.7611">
        <ele>1163.8</ele>
        <time>2026-05-13T16:13:48Z</time>
      </trkpt>
      <trkpt lat="45.96582" lon="5.76108">
        <ele>1163.8</ele>
        <time>2026-05-13T16:13:49Z</time>
      </trkpt>
      <trkpt lat="45.96583" lon="5.76106">
        <ele>1164.2</ele>
        <time>2026-05-13T16:13:50Z</time>
      </trkpt>
      <trkpt lat="45.96584" lon="5.76103">
        <ele>1164.2</ele>
        <time>2026-05-13T16:13:51Z</time>
      </trkpt>
      <trkpt lat="45.96586" lon="5.76101">
        <ele>1164.2</ele>
        <time>2026-05-13T16:13:52Z</time>
      </trkpt>
      <trkpt lat="45.96586" lon="5.76099">
        <ele>1164.4</ele>
        <time>2026-05-13T16:13:53Z</time>
      </trkpt>
      <trkpt lat="45.96588" lon="5.76096">
        <ele>1164.4</ele>
        <time>2026-05-13T16:13:54Z</time>
      </trkpt>
      <trkpt lat="45.96589" lon="5.76094">
        <ele>1164.4</ele>
        <time>2026-05-13T16:13:55Z</time>
      </trkpt>
      <trkpt lat="45.9659" lon="5.76092">
        <ele>1164.4</ele>
        <time>2026-05-13T16:13:56Z</time>
      </trkpt>
      <trkpt lat="45.96592" lon="5.7609">
        <ele>1164.4</ele>
        <time>2026-05-13T16:13:57Z</time>
      </trkpt>
      <trkpt lat="45.96593" lon="5.76088">
        <ele>1164.6</ele>
        <time>2026-05-13T16:13:58Z</time>
      </trkpt>
      <trkpt lat="45.96594" lon="5.76086">
        <ele>1164.6</ele>
        <time>2026-05-13T16:13:59Z</time>
      </trkpt>
      <trkpt lat="45.96596" lon="5.76084">
        <ele>1164.6</ele>
        <time>2026-05-13T16:14:00Z</time>
      </trkpt>
      <trkpt lat="45.96597" lon="5.76082">
        <ele>1164.6</ele>
        <time>2026-05-13T16:14:01Z</time>
      </trkpt>
      <trkpt lat="45.96598" lon="5.76079">
        <ele>1164.6</ele>
        <time>2026-05-13T16:14:02Z</time>
      </trkpt>
      <trkpt lat="45.96599" lon="5.76077">
        <ele>1164.6</ele>
        <time>2026-05-13T16:14:03Z</time>
      </trkpt>
      <trkpt lat="45.966" lon="5.76074">
        <ele>1165</ele>
        <time>2026-05-13T16:14:04Z</time>
      </trkpt>
      <trkpt lat="45.96601" lon="5.76072">
        <ele>1165</ele>
        <time>2026-05-13T16:14:05Z</time>
      </trkpt>
      <trkpt lat="45.96602" lon="5.76071">
        <ele>1165</ele>
        <time>2026-05-13T16:14:06Z</time>
      </trkpt>
      <trkpt lat="45.96603" lon="5.76068">
        <ele>1165.2</ele>
        <time>2026-05-13T16:14:07Z</time>
      </trkpt>
      <trkpt lat="45.96604" lon="5.76066">
        <ele>1165.6</ele>
        <time>2026-05-13T16:14:08Z</time>
      </trkpt>
      <trkpt lat="45.96605" lon="5.76065">
        <ele>1165.6</ele>
        <time>2026-05-13T16:14:09Z</time>
      </trkpt>
      <trkpt lat="45.96606" lon="5.76062">
        <ele>1165.8</ele>
        <time>2026-05-13T16:14:10Z</time>
      </trkpt>
      <trkpt lat="45.96607" lon="5.76061">
        <ele>1165.8</ele>
        <time>2026-05-13T16:14:11Z</time>
      </trkpt>
      <trkpt lat="45.96608" lon="5.76059">
        <ele>1166.2</ele>
        <time>2026-05-13T16:14:12Z</time>
      </trkpt>
      <trkpt lat="45.96609" lon="5.76057">
        <ele>1166.2</ele>
        <time>2026-05-13T16:14:13Z</time>
      </trkpt>
      <trkpt lat="45.9661" lon="5.76055">
        <ele>1166.2</ele>
        <time>2026-05-13T16:14:14Z</time>
      </trkpt>
      <trkpt lat="45.96611" lon="5.76053">
        <ele>1166.2</ele>
        <time>2026-05-13T16:14:15Z</time>
      </trkpt>
      <trkpt lat="45.96613" lon="5.76051">
        <ele>1166.6</ele>
        <time>2026-05-13T16:14:16Z</time>
      </trkpt>
      <trkpt lat="45.96614" lon="5.7605">
        <ele>1166.8</ele>
        <time>2026-05-13T16:14:17Z</time>
      </trkpt>
      <trkpt lat="45.96615" lon="5.76048">
        <ele>1166.8</ele>
        <time>2026-05-13T16:14:18Z</time>
      </trkpt>
      <trkpt lat="45.96617" lon="5.76046">
        <ele>1166.8</ele>
        <time>2026-05-13T16:14:19Z</time>
      </trkpt>
      <trkpt lat="45.96618" lon="5.76045">
        <ele>1166.8</ele>
        <time>2026-05-13T16:14:20Z</time>
      </trkpt>
      <trkpt lat="45.96619" lon="5.76043">
        <ele>1166.8</ele>
        <time>2026-05-13T16:14:21Z</time>
      </trkpt>
      <trkpt lat="45.9662" lon="5.76041">
        <ele>1167</ele>
        <time>2026-05-13T16:14:22Z</time>
      </trkpt>
      <trkpt lat="45.96621" lon="5.7604">
        <ele>1167</ele>
        <time>2026-05-13T16:14:23Z</time>
      </trkpt>
      <trkpt lat="45.96623" lon="5.76038">
        <ele>1167</ele>
        <time>2026-05-13T16:14:24Z</time>
      </trkpt>
      <trkpt lat="45.96624" lon="5.76036">
        <ele>1167</ele>
        <time>2026-05-13T16:14:25Z</time>
      </trkpt>
      <trkpt lat="45.96625" lon="5.76034">
        <ele>1167.4</ele>
        <time>2026-05-13T16:14:26Z</time>
      </trkpt>
      <trkpt lat="45.96626" lon="5.76032">
        <ele>1167.8</ele>
        <time>2026-05-13T16:14:27Z</time>
      </trkpt>
      <trkpt lat="45.96627" lon="5.7603">
        <ele>1167.8</ele>
        <time>2026-05-13T16:14:28Z</time>
      </trkpt>
      <trkpt lat="45.96628" lon="5.76028">
        <ele>1167.8</ele>
        <time>2026-05-13T16:14:29Z</time>
      </trkpt>
      <trkpt lat="45.96629" lon="5.76026">
        <ele>1168.2</ele>
        <time>2026-05-13T16:14:30Z</time>
      </trkpt>
      <trkpt lat="45.9663" lon="5.76024">
        <ele>1168.4</ele>
        <time>2026-05-13T16:14:31Z</time>
      </trkpt>
      <trkpt lat="45.96631" lon="5.76022">
        <ele>1168.6</ele>
        <time>2026-05-13T16:14:32Z</time>
      </trkpt>
      <trkpt lat="45.96632" lon="5.7602">
        <ele>1168.6</ele>
        <time>2026-05-13T16:14:33Z</time>
      </trkpt>
      <trkpt lat="45.96633" lon="5.76018">
        <ele>1169</ele>
        <time>2026-05-13T16:14:34Z</time>
      </trkpt>
      <trkpt lat="45.96634" lon="5.76016">
        <ele>1169</ele>
        <time>2026-05-13T16:14:35Z</time>
      </trkpt>
      <trkpt lat="45.96634" lon="5.76015">
        <ele>1169.2</ele>
        <time>2026-05-13T16:14:36Z</time>
      </trkpt>
      <trkpt lat="45.96635" lon="5.76013">
        <ele>1169.2</ele>
        <time>2026-05-13T16:14:37Z</time>
      </trkpt>
      <trkpt lat="45.96637" lon="5.76011">
        <ele>1169.6</ele>
        <time>2026-05-13T16:14:38Z</time>
      </trkpt>
      <trkpt lat="45.96639" lon="5.76007">
        <ele>1169.6</ele>
        <time>2026-05-13T16:14:39Z</time>
      </trkpt>
      <trkpt lat="45.9664" lon="5.76005">
        <ele>1169.6</ele>
        <time>2026-05-13T16:14:40Z</time>
      </trkpt>
      <trkpt lat="45.96641" lon="5.76003">
        <ele>1169.6</ele>
        <time>2026-05-13T16:14:41Z</time>
      </trkpt>
      <trkpt lat="45.96642" lon="5.76001">
        <ele>1170</ele>
        <time>2026-05-13T16:14:42Z</time>
      </trkpt>
      <trkpt lat="45.96643" lon="5.75999">
        <ele>1170</ele>
        <time>2026-05-13T16:14:43Z</time>
      </trkpt>
      <trkpt lat="45.96644" lon="5.75997">
        <ele>1170</ele>
        <time>2026-05-13T16:14:44Z</time>
      </trkpt>
      <trkpt lat="45.96644" lon="5.75995">
        <ele>1170</ele>
        <time>2026-05-13T16:14:45Z</time>
      </trkpt>
      <trkpt lat="45.96646" lon="5.75993">
        <ele>1170</ele>
        <time>2026-05-13T16:14:46Z</time>
      </trkpt>
      <trkpt lat="45.96647" lon="5.75991">
        <ele>1170</ele>
        <time>2026-05-13T16:14:47Z</time>
      </trkpt>
      <trkpt lat="45.96647" lon="5.7599">
        <ele>1170.4</ele>
        <time>2026-05-13T16:14:48Z</time>
      </trkpt>
      <trkpt lat="45.96648" lon="5.75988">
        <ele>1170.8</ele>
        <time>2026-05-13T16:14:49Z</time>
      </trkpt>
      <trkpt lat="45.96649" lon="5.75986">
        <ele>1170.8</ele>
        <time>2026-05-13T16:14:50Z</time>
      </trkpt>
      <trkpt lat="45.9665" lon="5.75984">
        <ele>1170.8</ele>
        <time>2026-05-13T16:14:51Z</time>
      </trkpt>
      <trkpt lat="45.96651" lon="5.75983">
        <ele>1171</ele>
        <time>2026-05-13T16:14:52Z</time>
      </trkpt>
      <trkpt lat="45.96652" lon="5.75981">
        <ele>1171</ele>
        <time>2026-05-13T16:14:53Z</time>
      </trkpt>
      <trkpt lat="45.96653" lon="5.75979">
        <ele>1171.4</ele>
        <time>2026-05-13T16:14:54Z</time>
      </trkpt>
      <trkpt lat="45.96654" lon="5.75977">
        <ele>1171.4</ele>
        <time>2026-05-13T16:14:55Z</time>
      </trkpt>
      <trkpt lat="45.96655" lon="5.75975">
        <ele>1171.6</ele>
        <time>2026-05-13T16:14:56Z</time>
      </trkpt>
      <trkpt lat="45.96656" lon="5.75974">
        <ele>1171.6</ele>
        <time>2026-05-13T16:14:57Z</time>
      </trkpt>
      <trkpt lat="45.96658" lon="5.75972">
        <ele>1172</ele>
        <time>2026-05-13T16:14:58Z</time>
      </trkpt>
      <trkpt lat="45.96659" lon="5.75971">
        <ele>1172</ele>
        <time>2026-05-13T16:14:59Z</time>
      </trkpt>
      <trkpt lat="45.9666" lon="5.75969">
        <ele>1172.4</ele>
        <time>2026-05-13T16:15:00Z</time>
      </trkpt>
      <trkpt lat="45.96661" lon="5.75968">
        <ele>1172.4</ele>
        <time>2026-05-13T16:15:01Z</time>
      </trkpt>
      <trkpt lat="45.96663" lon="5.75966">
        <ele>1172.6</ele>
        <time>2026-05-13T16:15:02Z</time>
      </trkpt>
      <trkpt lat="45.96664" lon="5.75964">
        <ele>1172.6</ele>
        <time>2026-05-13T16:15:03Z</time>
      </trkpt>
      <trkpt lat="45.96666" lon="5.75962">
        <ele>1173</ele>
        <time>2026-05-13T16:15:04Z</time>
      </trkpt>
      <trkpt lat="45.96667" lon="5.75961">
        <ele>1173</ele>
        <time>2026-05-13T16:15:05Z</time>
      </trkpt>
      <trkpt lat="45.96668" lon="5.75959">
        <ele>1173</ele>
        <time>2026-05-13T16:15:06Z</time>
      </trkpt>
      <trkpt lat="45.9667" lon="5.75958">
        <ele>1173</ele>
        <time>2026-05-13T16:15:07Z</time>
      </trkpt>
      <trkpt lat="45.96671" lon="5.75956">
        <ele>1173</ele>
        <time>2026-05-13T16:15:08Z</time>
      </trkpt>
      <trkpt lat="45.96673" lon="5.75955">
        <ele>1173</ele>
        <time>2026-05-13T16:15:09Z</time>
      </trkpt>
      <trkpt lat="45.96674" lon="5.75953">
        <ele>1173</ele>
        <time>2026-05-13T16:15:10Z</time>
      </trkpt>
      <trkpt lat="45.96676" lon="5.75952">
        <ele>1173.2</ele>
        <time>2026-05-13T16:15:11Z</time>
      </trkpt>
      <trkpt lat="45.96677" lon="5.75951">
        <ele>1173</ele>
        <time>2026-05-13T16:15:12Z</time>
      </trkpt>
      <trkpt lat="45.96678" lon="5.7595">
        <ele>1173.6</ele>
        <time>2026-05-13T16:15:13Z</time>
      </trkpt>
      <trkpt lat="45.96679" lon="5.75949">
        <ele>1173.6</ele>
        <time>2026-05-13T16:15:14Z</time>
      </trkpt>
      <trkpt lat="45.96681" lon="5.75947">
        <ele>1173.8</ele>
        <time>2026-05-13T16:15:15Z</time>
      </trkpt>
      <trkpt lat="45.96683" lon="5.75946">
        <ele>1173.8</ele>
        <time>2026-05-13T16:15:16Z</time>
      </trkpt>
      <trkpt lat="45.96684" lon="5.75945">
        <ele>1173.8</ele>
        <time>2026-05-13T16:15:17Z</time>
      </trkpt>
      <trkpt lat="45.96686" lon="5.75943">
        <ele>1174.2</ele>
        <time>2026-05-13T16:15:18Z</time>
      </trkpt>
      <trkpt lat="45.96687" lon="5.75942">
        <ele>1174.2</ele>
        <time>2026-05-13T16:15:19Z</time>
      </trkpt>
      <trkpt lat="45.96689" lon="5.75941">
        <ele>1174.2</ele>
        <time>2026-05-13T16:15:20Z</time>
      </trkpt>
      <trkpt lat="45.9669" lon="5.7594">
        <ele>1174.2</ele>
        <time>2026-05-13T16:15:21Z</time>
      </trkpt>
      <trkpt lat="45.96692" lon="5.75938">
        <ele>1174.6</ele>
        <time>2026-05-13T16:15:22Z</time>
      </trkpt>
      <trkpt lat="45.96693" lon="5.75937">
        <ele>1174.8</ele>
        <time>2026-05-13T16:15:23Z</time>
      </trkpt>
      <trkpt lat="45.96694" lon="5.75936">
        <ele>1174.8</ele>
        <time>2026-05-13T16:15:24Z</time>
      </trkpt>
      <trkpt lat="45.96696" lon="5.75934">
        <ele>1174.8</ele>
        <time>2026-05-13T16:15:25Z</time>
      </trkpt>
      <trkpt lat="45.96697" lon="5.75933">
        <ele>1175.2</ele>
        <time>2026-05-13T16:15:26Z</time>
      </trkpt>
      <trkpt lat="45.96698" lon="5.75932">
        <ele>1175.6</ele>
        <time>2026-05-13T16:15:27Z</time>
      </trkpt>
      <trkpt lat="45.96699" lon="5.75931">
        <ele>1175.6</ele>
        <time>2026-05-13T16:15:28Z</time>
      </trkpt>
      <trkpt lat="45.96701" lon="5.7593">
        <ele>1176.2</ele>
        <time>2026-05-13T16:15:29Z</time>
      </trkpt>
      <trkpt lat="45.96702" lon="5.75928">
        <ele>1176.2</ele>
        <time>2026-05-13T16:15:30Z</time>
      </trkpt>
      <trkpt lat="45.96703" lon="5.75927">
        <ele>1176.2</ele>
        <time>2026-05-13T16:15:31Z</time>
      </trkpt>
      <trkpt lat="45.96705" lon="5.75926">
        <ele>1176.4</ele>
        <time>2026-05-13T16:15:32Z</time>
      </trkpt>
      <trkpt lat="45.96706" lon="5.75925">
        <ele>1176.4</ele>
        <time>2026-05-13T16:15:33Z</time>
      </trkpt>
      <trkpt lat="45.96708" lon="5.75924">
        <ele>1176.4</ele>
        <time>2026-05-13T16:15:34Z</time>
      </trkpt>
      <trkpt lat="45.9671" lon="5.75923">
        <ele>1176.4</ele>
        <time>2026-05-13T16:15:35Z</time>
      </trkpt>
      <trkpt lat="45.96711" lon="5.75922">
        <ele>1176.8</ele>
        <time>2026-05-13T16:15:36Z</time>
      </trkpt>
      <trkpt lat="45.96713" lon="5.75921">
        <ele>1176.8</ele>
        <time>2026-05-13T16:15:37Z</time>
      </trkpt>
      <trkpt lat="45.96714" lon="5.7592">
        <ele>1177.2</ele>
        <time>2026-05-13T16:15:38Z</time>
      </trkpt>
      <trkpt lat="45.96715" lon="5.75919">
        <ele>1177.2</ele>
        <time>2026-05-13T16:15:39Z</time>
      </trkpt>
      <trkpt lat="45.96717" lon="5.75918">
        <ele>1177.6</ele>
        <time>2026-05-13T16:15:40Z</time>
      </trkpt>
      <trkpt lat="45.96718" lon="5.75917">
        <ele>1177.6</ele>
        <time>2026-05-13T16:15:41Z</time>
      </trkpt>
      <trkpt lat="45.96719" lon="5.75917">
        <ele>1177.6</ele>
        <time>2026-05-13T16:15:42Z</time>
      </trkpt>
      <trkpt lat="45.96721" lon="5.75916">
        <ele>1177.8</ele>
        <time>2026-05-13T16:15:43Z</time>
      </trkpt>
      <trkpt lat="45.96723" lon="5.75915">
        <ele>1177.8</ele>
        <time>2026-05-13T16:15:44Z</time>
      </trkpt>
      <trkpt lat="45.96724" lon="5.75914">
        <ele>1177.8</ele>
        <time>2026-05-13T16:15:45Z</time>
      </trkpt>
      <trkpt lat="45.96725" lon="5.75913">
        <ele>1178</ele>
        <time>2026-05-13T16:15:46Z</time>
      </trkpt>
      <trkpt lat="45.96726" lon="5.75912">
        <ele>1178</ele>
        <time>2026-05-13T16:15:47Z</time>
      </trkpt>
      <trkpt lat="45.96727" lon="5.75911">
        <ele>1178.4</ele>
        <time>2026-05-13T16:15:48Z</time>
      </trkpt>
      <trkpt lat="45.96728" lon="5.7591">
        <ele>1178.4</ele>
        <time>2026-05-13T16:15:49Z</time>
      </trkpt>
      <trkpt lat="45.96729" lon="5.75909">
        <ele>1178.6</ele>
        <time>2026-05-13T16:15:50Z</time>
      </trkpt>
      <trkpt lat="45.9673" lon="5.75909">
        <ele>1178.6</ele>
        <time>2026-05-13T16:15:51Z</time>
      </trkpt>
      <trkpt lat="45.96732" lon="5.75907">
        <ele>1179.2</ele>
        <time>2026-05-13T16:15:52Z</time>
      </trkpt>
      <trkpt lat="45.96733" lon="5.75906">
        <ele>1179.2</ele>
        <time>2026-05-13T16:15:53Z</time>
      </trkpt>
      <trkpt lat="45.96734" lon="5.75905">
        <ele>1179.4</ele>
        <time>2026-05-13T16:15:54Z</time>
      </trkpt>
      <trkpt lat="45.96736" lon="5.75904">
        <ele>1179.4</ele>
        <time>2026-05-13T16:15:55Z</time>
      </trkpt>
      <trkpt lat="45.96737" lon="5.75904">
        <ele>1179.4</ele>
        <time>2026-05-13T16:15:56Z</time>
      </trkpt>
      <trkpt lat="45.96739" lon="5.75903">
        <ele>1179.4</ele>
        <time>2026-05-13T16:15:57Z</time>
      </trkpt>
      <trkpt lat="45.9674" lon="5.75902">
        <ele>1179.6</ele>
        <time>2026-05-13T16:15:58Z</time>
      </trkpt>
      <trkpt lat="45.96742" lon="5.75902">
        <ele>1180</ele>
        <time>2026-05-13T16:15:59Z</time>
      </trkpt>
      <trkpt lat="45.96743" lon="5.75901">
        <ele>1180</ele>
        <time>2026-05-13T16:16:00Z</time>
      </trkpt>
      <trkpt lat="45.96745" lon="5.759">
        <ele>1180</ele>
        <time>2026-05-13T16:16:01Z</time>
      </trkpt>
      <trkpt lat="45.96746" lon="5.75899">
        <ele>1180</ele>
        <time>2026-05-13T16:16:02Z</time>
      </trkpt>
      <trkpt lat="45.96748" lon="5.75899">
        <ele>1180</ele>
        <time>2026-05-13T16:16:03Z</time>
      </trkpt>
      <trkpt lat="45.96749" lon="5.75898">
        <ele>1180.2</ele>
        <time>2026-05-13T16:16:04Z</time>
      </trkpt>
      <trkpt lat="45.9675" lon="5.75898">
        <ele>1180.2</ele>
        <time>2026-05-13T16:16:05Z</time>
      </trkpt>
      <trkpt lat="45.96752" lon="5.75898">
        <ele>1180.4</ele>
        <time>2026-05-13T16:16:06Z</time>
      </trkpt>
      <trkpt lat="45.96753" lon="5.75897">
        <ele>1180.4</ele>
        <time>2026-05-13T16:16:07Z</time>
      </trkpt>
      <trkpt lat="45.96755" lon="5.75897">
        <ele>1180.8</ele>
        <time>2026-05-13T16:16:08Z</time>
      </trkpt>
      <trkpt lat="45.96756" lon="5.75897">
        <ele>1180.8</ele>
        <time>2026-05-13T16:16:09Z</time>
      </trkpt>
      <trkpt lat="45.96758" lon="5.75896">
        <ele>1181.2</ele>
        <time>2026-05-13T16:16:10Z</time>
      </trkpt>
      <trkpt lat="45.96759" lon="5.75896">
        <ele>1181.4</ele>
        <time>2026-05-13T16:16:11Z</time>
      </trkpt>
      <trkpt lat="45.96761" lon="5.75895">
        <ele>1181.4</ele>
        <time>2026-05-13T16:16:12Z</time>
      </trkpt>
      <trkpt lat="45.96762" lon="5.75895">
        <ele>1181.6</ele>
        <time>2026-05-13T16:16:13Z</time>
      </trkpt>
      <trkpt lat="45.96763" lon="5.75894">
        <ele>1181.6</ele>
        <time>2026-05-13T16:16:14Z</time>
      </trkpt>
      <trkpt lat="45.96765" lon="5.75894">
        <ele>1181.8</ele>
        <time>2026-05-13T16:16:15Z</time>
      </trkpt>
      <trkpt lat="45.96767" lon="5.75894">
        <ele>1182</ele>
        <time>2026-05-13T16:16:16Z</time>
      </trkpt>
      <trkpt lat="45.96768" lon="5.75894">
        <ele>1182</ele>
        <time>2026-05-13T16:16:17Z</time>
      </trkpt>
      <trkpt lat="45.9677" lon="5.75893">
        <ele>1182</ele>
        <time>2026-05-13T16:16:18Z</time>
      </trkpt>
      <trkpt lat="45.96772" lon="5.75894">
        <ele>1182.4</ele>
        <time>2026-05-13T16:16:19Z</time>
      </trkpt>
      <trkpt lat="45.96774" lon="5.75893">
        <ele>1182.6</ele>
        <time>2026-05-13T16:16:20Z</time>
      </trkpt>
      <trkpt lat="45.96776" lon="5.75893">
        <ele>1182.6</ele>
        <time>2026-05-13T16:16:21Z</time>
      </trkpt>
      <trkpt lat="45.96777" lon="5.75892">
        <ele>1183.2</ele>
        <time>2026-05-13T16:16:22Z</time>
      </trkpt>
      <trkpt lat="45.96778" lon="5.75891">
        <ele>1183.6</ele>
        <time>2026-05-13T16:16:23Z</time>
      </trkpt>
      <trkpt lat="45.96779" lon="5.75891">
        <ele>1183.6</ele>
        <time>2026-05-13T16:16:24Z</time>
      </trkpt>
      <trkpt lat="45.96781" lon="5.75891">
        <ele>1184</ele>
        <time>2026-05-13T16:16:25Z</time>
      </trkpt>
      <trkpt lat="45.96782" lon="5.7589">
        <ele>1184.4</ele>
        <time>2026-05-13T16:16:26Z</time>
      </trkpt>
      <trkpt lat="45.96783" lon="5.75889">
        <ele>1184.4</ele>
        <time>2026-05-13T16:16:27Z</time>
      </trkpt>
      <trkpt lat="45.96784" lon="5.75888">
        <ele>1184.6</ele>
        <time>2026-05-13T16:16:28Z</time>
      </trkpt>
      <trkpt lat="45.96785" lon="5.75887">
        <ele>1184.6</ele>
        <time>2026-05-13T16:16:29Z</time>
      </trkpt>
      <trkpt lat="45.96787" lon="5.75885">
        <ele>1185.2</ele>
        <time>2026-05-13T16:16:30Z</time>
      </trkpt>
      <trkpt lat="45.96787" lon="5.75884">
        <ele>1185.2</ele>
        <time>2026-05-13T16:16:31Z</time>
      </trkpt>
      <trkpt lat="45.96788" lon="5.75882">
        <ele>1185.4</ele>
        <time>2026-05-13T16:16:32Z</time>
      </trkpt>
      <trkpt lat="45.9679" lon="5.7588">
        <ele>1185.6</ele>
        <time>2026-05-13T16:16:33Z</time>
      </trkpt>
      <trkpt lat="45.96792" lon="5.75878">
        <ele>1185.6</ele>
        <time>2026-05-13T16:16:34Z</time>
      </trkpt>
      <trkpt lat="45.96793" lon="5.75877">
        <ele>1185.6</ele>
        <time>2026-05-13T16:16:35Z</time>
      </trkpt>
      <trkpt lat="45.96794" lon="5.75875">
        <ele>1186</ele>
        <time>2026-05-13T16:16:36Z</time>
      </trkpt>
      <trkpt lat="45.96796" lon="5.75873">
        <ele>1186</ele>
        <time>2026-05-13T16:16:37Z</time>
      </trkpt>
      <trkpt lat="45.96796" lon="5.75873">
        <ele>1186.4</ele>
        <time>2026-05-13T16:16:38Z</time>
      </trkpt>
      <trkpt lat="45.96797" lon="5.75872">
        <ele>1186.4</ele>
        <time>2026-05-13T16:16:39Z</time>
      </trkpt>
      <trkpt lat="45.96797" lon="5.75872">
        <ele>1186.8</ele>
        <time>2026-05-13T16:16:40Z</time>
      </trkpt>
      <trkpt lat="45.96798" lon="5.75872">
        <ele>1187.2</ele>
        <time>2026-05-13T16:16:41Z</time>
      </trkpt>
      <trkpt lat="45.96799" lon="5.75871">
        <ele>1187.2</ele>
        <time>2026-05-13T16:16:42Z</time>
      </trkpt>
      <trkpt lat="45.968" lon="5.7587">
        <ele>1187.2</ele>
        <time>2026-05-13T16:16:43Z</time>
      </trkpt>
      <trkpt lat="45.96801" lon="5.7587">
        <ele>1187.6</ele>
        <time>2026-05-13T16:16:44Z</time>
      </trkpt>
      <trkpt lat="45.96802" lon="5.75869">
        <ele>1187.6</ele>
        <time>2026-05-13T16:16:45Z</time>
      </trkpt>
      <trkpt lat="45.96803" lon="5.75868">
        <ele>1187.8</ele>
        <time>2026-05-13T16:16:46Z</time>
      </trkpt>
      <trkpt lat="45.96805" lon="5.75868">
        <ele>1188</ele>
        <time>2026-05-13T16:16:47Z</time>
      </trkpt>
      <trkpt lat="45.96806" lon="5.75867">
        <ele>1188.4</ele>
        <time>2026-05-13T16:16:48Z</time>
      </trkpt>
      <trkpt lat="45.96807" lon="5.75867">
        <ele>1188.4</ele>
        <time>2026-05-13T16:16:49Z</time>
      </trkpt>
      <trkpt lat="45.96809" lon="5.75865">
        <ele>1188.4</ele>
        <time>2026-05-13T16:16:50Z</time>
      </trkpt>
      <trkpt lat="45.9681" lon="5.75864">
        <ele>1188.8</ele>
        <time>2026-05-13T16:16:51Z</time>
      </trkpt>
      <trkpt lat="45.96811" lon="5.75864">
        <ele>1189</ele>
        <time>2026-05-13T16:16:52Z</time>
      </trkpt>
      <trkpt lat="45.96812" lon="5.75862">
        <ele>1189</ele>
        <time>2026-05-13T16:16:53Z</time>
      </trkpt>
      <trkpt lat="45.96814" lon="5.75862">
        <ele>1189.4</ele>
        <time>2026-05-13T16:16:54Z</time>
      </trkpt>
      <trkpt lat="45.96816" lon="5.75861">
        <ele>1189.4</ele>
        <time>2026-05-13T16:16:55Z</time>
      </trkpt>
      <trkpt lat="45.96818" lon="5.75859">
        <ele>1189.6</ele>
        <time>2026-05-13T16:16:56Z</time>
      </trkpt>
      <trkpt lat="45.96819" lon="5.75858">
        <ele>1190</ele>
        <time>2026-05-13T16:16:57Z</time>
      </trkpt>
      <trkpt lat="45.9682" lon="5.75857">
        <ele>1190</ele>
        <time>2026-05-13T16:16:58Z</time>
      </trkpt>
      <trkpt lat="45.96822" lon="5.75856">
        <ele>1190.2</ele>
        <time>2026-05-13T16:16:59Z</time>
      </trkpt>
      <trkpt lat="45.96823" lon="5.75855">
        <ele>1190.2</ele>
        <time>2026-05-13T16:17:00Z</time>
      </trkpt>
      <trkpt lat="45.96824" lon="5.75855">
        <ele>1190.8</ele>
        <time>2026-05-13T16:17:01Z</time>
      </trkpt>
      <trkpt lat="45.96826" lon="5.75855">
        <ele>1190.8</ele>
        <time>2026-05-13T16:17:02Z</time>
      </trkpt>
      <trkpt lat="45.96827" lon="5.75854">
        <ele>1190.8</ele>
        <time>2026-05-13T16:17:03Z</time>
      </trkpt>
      <trkpt lat="45.96828" lon="5.75854">
        <ele>1191</ele>
        <time>2026-05-13T16:17:04Z</time>
      </trkpt>
      <trkpt lat="45.9683" lon="5.75853">
        <ele>1191</ele>
        <time>2026-05-13T16:17:05Z</time>
      </trkpt>
      <trkpt lat="45.96832" lon="5.75852">
        <ele>1191.2</ele>
        <time>2026-05-13T16:17:06Z</time>
      </trkpt>
      <trkpt lat="45.96833" lon="5.75851">
        <ele>1191.2</ele>
        <time>2026-05-13T16:17:07Z</time>
      </trkpt>
      <trkpt lat="45.96835" lon="5.75851">
        <ele>1191.2</ele>
        <time>2026-05-13T16:17:08Z</time>
      </trkpt>
      <trkpt lat="45.96837" lon="5.7585">
        <ele>1191.2</ele>
        <time>2026-05-13T16:17:09Z</time>
      </trkpt>
      <trkpt lat="45.96839" lon="5.7585">
        <ele>1191.6</ele>
        <time>2026-05-13T16:17:10Z</time>
      </trkpt>
      <trkpt lat="45.9684" lon="5.75849">
        <ele>1191.6</ele>
        <time>2026-05-13T16:17:11Z</time>
      </trkpt>
      <trkpt lat="45.96842" lon="5.75849">
        <ele>1191.6</ele>
        <time>2026-05-13T16:17:12Z</time>
      </trkpt>
      <trkpt lat="45.96844" lon="5.75848">
        <ele>1192</ele>
        <time>2026-05-13T16:17:13Z</time>
      </trkpt>
      <trkpt lat="45.96846" lon="5.75847">
        <ele>1192</ele>
        <time>2026-05-13T16:17:14Z</time>
      </trkpt>
      <trkpt lat="45.96848" lon="5.75846">
        <ele>1192</ele>
        <time>2026-05-13T16:17:15Z</time>
      </trkpt>
      <trkpt lat="45.9685" lon="5.75846">
        <ele>1192</ele>
        <time>2026-05-13T16:17:16Z</time>
      </trkpt>
      <trkpt lat="45.96852" lon="5.75845">
        <ele>1192.2</ele>
        <time>2026-05-13T16:17:17Z</time>
      </trkpt>
      <trkpt lat="45.96854" lon="5.75845">
        <ele>1192.6</ele>
        <time>2026-05-13T16:17:18Z</time>
      </trkpt>
      <trkpt lat="45.96855" lon="5.75845">
        <ele>1192.8</ele>
        <time>2026-05-13T16:17:19Z</time>
      </trkpt>
      <trkpt lat="45.96857" lon="5.75844">
        <ele>1192.8</ele>
        <time>2026-05-13T16:17:20Z</time>
      </trkpt>
      <trkpt lat="45.96858" lon="5.75844">
        <ele>1193</ele>
        <time>2026-05-13T16:17:21Z</time>
      </trkpt>
      <trkpt lat="45.96859" lon="5.75844">
        <ele>1193.2</ele>
        <time>2026-05-13T16:17:22Z</time>
      </trkpt>
      <trkpt lat="45.96861" lon="5.75843">
        <ele>1193.6</ele>
        <time>2026-05-13T16:17:23Z</time>
      </trkpt>
      <trkpt lat="45.96862" lon="5.75843">
        <ele>1193.8</ele>
        <time>2026-05-13T16:17:24Z</time>
      </trkpt>
      <trkpt lat="45.96864" lon="5.75842">
        <ele>1194.2</ele>
        <time>2026-05-13T16:17:25Z</time>
      </trkpt>
      <trkpt lat="45.96865" lon="5.75842">
        <ele>1194.2</ele>
        <time>2026-05-13T16:17:26Z</time>
      </trkpt>
      <trkpt lat="45.96866" lon="5.75841">
        <ele>1194.4</ele>
        <time>2026-05-13T16:17:27Z</time>
      </trkpt>
      <trkpt lat="45.96868" lon="5.75841">
        <ele>1194.4</ele>
        <time>2026-05-13T16:17:28Z</time>
      </trkpt>
      <trkpt lat="45.96869" lon="5.75841">
        <ele>1194.4</ele>
        <time>2026-05-13T16:17:29Z</time>
      </trkpt>
      <trkpt lat="45.96871" lon="5.75841">
        <ele>1194.4</ele>
        <time>2026-05-13T16:17:30Z</time>
      </trkpt>
      <trkpt lat="45.96872" lon="5.7584">
        <ele>1194.6</ele>
        <time>2026-05-13T16:17:31Z</time>
      </trkpt>
      <trkpt lat="45.96874" lon="5.7584">
        <ele>1194.6</ele>
        <time>2026-05-13T16:17:32Z</time>
      </trkpt>
      <trkpt lat="45.96876" lon="5.75839">
        <ele>1194.6</ele>
        <time>2026-05-13T16:17:33Z</time>
      </trkpt>
      <trkpt lat="45.96878" lon="5.75839">
        <ele>1194.6</ele>
        <time>2026-05-13T16:17:34Z</time>
      </trkpt>
      <trkpt lat="45.96879" lon="5.75839">
        <ele>1194.6</ele>
        <time>2026-05-13T16:17:35Z</time>
      </trkpt>
      <trkpt lat="45.96881" lon="5.75838">
        <ele>1194.6</ele>
        <time>2026-05-13T16:17:36Z</time>
      </trkpt>
      <trkpt lat="45.96882" lon="5.75837">
        <ele>1195</ele>
        <time>2026-05-13T16:17:37Z</time>
      </trkpt>
      <trkpt lat="45.96883" lon="5.75836">
        <ele>1195</ele>
        <time>2026-05-13T16:17:38Z</time>
      </trkpt>
      <trkpt lat="45.96885" lon="5.75836">
        <ele>1195.2</ele>
        <time>2026-05-13T16:17:39Z</time>
      </trkpt>
      <trkpt lat="45.96886" lon="5.75835">
        <ele>1195.2</ele>
        <time>2026-05-13T16:17:40Z</time>
      </trkpt>
      <trkpt lat="45.96887" lon="5.75835">
        <ele>1195.2</ele>
        <time>2026-05-13T16:17:41Z</time>
      </trkpt>
      <trkpt lat="45.96889" lon="5.75835">
        <ele>1195.4</ele>
        <time>2026-05-13T16:17:42Z</time>
      </trkpt>
      <trkpt lat="45.9689" lon="5.75834">
        <ele>1195.4</ele>
        <time>2026-05-13T16:17:43Z</time>
      </trkpt>
      <trkpt lat="45.96892" lon="5.75833">
        <ele>1195.4</ele>
        <time>2026-05-13T16:17:44Z</time>
      </trkpt>
      <trkpt lat="45.96893" lon="5.75832">
        <ele>1195.4</ele>
        <time>2026-05-13T16:17:45Z</time>
      </trkpt>
      <trkpt lat="45.96895" lon="5.75831">
        <ele>1196</ele>
        <time>2026-05-13T16:17:46Z</time>
      </trkpt>
      <trkpt lat="45.96897" lon="5.7583">
        <ele>1196</ele>
        <time>2026-05-13T16:17:47Z</time>
      </trkpt>
      <trkpt lat="45.96898" lon="5.7583">
        <ele>1196</ele>
        <time>2026-05-13T16:17:48Z</time>
      </trkpt>
      <trkpt lat="45.969" lon="5.7583">
        <ele>1196</ele>
        <time>2026-05-13T16:17:49Z</time>
      </trkpt>
      <trkpt lat="45.96901" lon="5.7583">
        <ele>1196</ele>
        <time>2026-05-13T16:17:50Z</time>
      </trkpt>
      <trkpt lat="45.96903" lon="5.75829">
        <ele>1196</ele>
        <time>2026-05-13T16:17:51Z</time>
      </trkpt>
      <trkpt lat="45.96904" lon="5.7583">
        <ele>1196</ele>
        <time>2026-05-13T16:17:52Z</time>
      </trkpt>
      <trkpt lat="45.96906" lon="5.75831">
        <ele>1196.2</ele>
        <time>2026-05-13T16:17:53Z</time>
      </trkpt>
      <trkpt lat="45.96908" lon="5.75832">
        <ele>1196.2</ele>
        <time>2026-05-13T16:17:54Z</time>
      </trkpt>
      <trkpt lat="45.96909" lon="5.75832">
        <ele>1196.2</ele>
        <time>2026-05-13T16:17:55Z</time>
      </trkpt>
      <trkpt lat="45.96912" lon="5.75832">
        <ele>1195.8</ele>
        <time>2026-05-13T16:17:56Z</time>
      </trkpt>
      <trkpt lat="45.96914" lon="5.75831">
        <ele>1195.8</ele>
        <time>2026-05-13T16:17:57Z</time>
      </trkpt>
      <trkpt lat="45.96916" lon="5.7583">
        <ele>1195.8</ele>
        <time>2026-05-13T16:17:58Z</time>
      </trkpt>
      <trkpt lat="45.96918" lon="5.75829">
        <ele>1196.2</ele>
        <time>2026-05-13T16:17:59Z</time>
      </trkpt>
      <trkpt lat="45.96919" lon="5.75828">
        <ele>1196.2</ele>
        <time>2026-05-13T16:18:00Z</time>
      </trkpt>
      <trkpt lat="45.96921" lon="5.75826">
        <ele>1196.2</ele>
        <time>2026-05-13T16:18:01Z</time>
      </trkpt>
      <trkpt lat="45.96923" lon="5.75823">
        <ele>1196</ele>
        <time>2026-05-13T16:18:02Z</time>
      </trkpt>
      <trkpt lat="45.96925" lon="5.7582">
        <ele>1196</ele>
        <time>2026-05-13T16:18:03Z</time>
      </trkpt>
      <trkpt lat="45.96926" lon="5.75816">
        <ele>1196.2</ele>
        <time>2026-05-13T16:18:04Z</time>
      </trkpt>
      <trkpt lat="45.96927" lon="5.75814">
        <ele>1196.2</ele>
        <time>2026-05-13T16:18:05Z</time>
      </trkpt>
      <trkpt lat="45.96928" lon="5.75813">
        <ele>1196.2</ele>
        <time>2026-05-13T16:18:06Z</time>
      </trkpt>
      <trkpt lat="45.9693" lon="5.75812">
        <ele>1196.2</ele>
        <time>2026-05-13T16:18:07Z</time>
      </trkpt>
      <trkpt lat="45.96931" lon="5.75812">
        <ele>1196.2</ele>
        <time>2026-05-13T16:18:08Z</time>
      </trkpt>
      <trkpt lat="45.96932" lon="5.75812">
        <ele>1196.4</ele>
        <time>2026-05-13T16:18:09Z</time>
      </trkpt>
      <trkpt lat="45.96934" lon="5.75811">
        <ele>1196.4</ele>
        <time>2026-05-13T16:18:10Z</time>
      </trkpt>
      <trkpt lat="45.96935" lon="5.7581">
        <ele>1196.8</ele>
        <time>2026-05-13T16:18:11Z</time>
      </trkpt>
      <trkpt lat="45.96937" lon="5.75808">
        <ele>1196.8</ele>
        <time>2026-05-13T16:18:12Z</time>
      </trkpt>
      <trkpt lat="45.96938" lon="5.75806">
        <ele>1197</ele>
        <time>2026-05-13T16:18:13Z</time>
      </trkpt>
      <trkpt lat="45.96939" lon="5.75805">
        <ele>1197.4</ele>
        <time>2026-05-13T16:18:14Z</time>
      </trkpt>
      <trkpt lat="45.9694" lon="5.75804">
        <ele>1197.4</ele>
        <time>2026-05-13T16:18:15Z</time>
      </trkpt>
      <trkpt lat="45.96941" lon="5.75802">
        <ele>1197.8</ele>
        <time>2026-05-13T16:18:16Z</time>
      </trkpt>
      <trkpt lat="45.96942" lon="5.75801">
        <ele>1198.2</ele>
        <time>2026-05-13T16:18:17Z</time>
      </trkpt>
      <trkpt lat="45.96942" lon="5.75801">
        <ele>1198.6</ele>
        <time>2026-05-13T16:18:18Z</time>
      </trkpt>
      <trkpt lat="45.96943" lon="5.758">
        <ele>1198.8</ele>
        <time>2026-05-13T16:18:19Z</time>
      </trkpt>
      <trkpt lat="45.96944" lon="5.75798">
        <ele>1199.2</ele>
        <time>2026-05-13T16:18:20Z</time>
      </trkpt>
      <trkpt lat="45.96946" lon="5.75796">
        <ele>1199.4</ele>
        <time>2026-05-13T16:18:21Z</time>
      </trkpt>
      <trkpt lat="45.96947" lon="5.75794">
        <ele>1199.8</ele>
        <time>2026-05-13T16:18:22Z</time>
      </trkpt>
      <trkpt lat="45.96947" lon="5.75793">
        <ele>1200</ele>
        <time>2026-05-13T16:18:23Z</time>
      </trkpt>
      <trkpt lat="45.96949" lon="5.75791">
        <ele>1200.4</ele>
        <time>2026-05-13T16:18:24Z</time>
      </trkpt>
      <trkpt lat="45.96949" lon="5.7579">
        <ele>1200.6</ele>
        <time>2026-05-13T16:18:25Z</time>
      </trkpt>
      <trkpt lat="45.96949" lon="5.75789">
        <ele>1201</ele>
        <time>2026-05-13T16:18:26Z</time>
      </trkpt>
      <trkpt lat="45.9695" lon="5.75787">
        <ele>1201.4</ele>
        <time>2026-05-13T16:18:27Z</time>
      </trkpt>
      <trkpt lat="45.96951" lon="5.75786">
        <ele>1201.6</ele>
        <time>2026-05-13T16:18:28Z</time>
      </trkpt>
      <trkpt lat="45.96952" lon="5.75784">
        <ele>1201.6</ele>
        <time>2026-05-13T16:18:29Z</time>
      </trkpt>
      <trkpt lat="45.96953" lon="5.75782">
        <ele>1202.2</ele>
        <time>2026-05-13T16:18:30Z</time>
      </trkpt>
      <trkpt lat="45.96954" lon="5.7578">
        <ele>1202.4</ele>
        <time>2026-05-13T16:18:31Z</time>
      </trkpt>
      <trkpt lat="45.96955" lon="5.75779">
        <ele>1202.8</ele>
        <time>2026-05-13T16:18:32Z</time>
      </trkpt>
      <trkpt lat="45.96956" lon="5.75778">
        <ele>1203.2</ele>
        <time>2026-05-13T16:18:33Z</time>
      </trkpt>
      <trkpt lat="45.96957" lon="5.75777">
        <ele>1203.6</ele>
        <time>2026-05-13T16:18:34Z</time>
      </trkpt>
      <trkpt lat="45.96958" lon="5.75776">
        <ele>1203.8</ele>
        <time>2026-05-13T16:18:35Z</time>
      </trkpt>
      <trkpt lat="45.9696" lon="5.75774">
        <ele>1204</ele>
        <time>2026-05-13T16:18:36Z</time>
      </trkpt>
      <trkpt lat="45.96961" lon="5.75773">
        <ele>1204</ele>
        <time>2026-05-13T16:18:37Z</time>
      </trkpt>
      <trkpt lat="45.96962" lon="5.75771">
        <ele>1204.4</ele>
        <time>2026-05-13T16:18:38Z</time>
      </trkpt>
      <trkpt lat="45.96963" lon="5.75769">
        <ele>1204.4</ele>
        <time>2026-05-13T16:18:39Z</time>
      </trkpt>
      <trkpt lat="45.96964" lon="5.75767">
        <ele>1204.4</ele>
        <time>2026-05-13T16:18:40Z</time>
      </trkpt>
      <trkpt lat="45.96965" lon="5.75765">
        <ele>1204.4</ele>
        <time>2026-05-13T16:18:41Z</time>
      </trkpt>
      <trkpt lat="45.96966" lon="5.75764">
        <ele>1204.4</ele>
        <time>2026-05-13T16:18:42Z</time>
      </trkpt>
      <trkpt lat="45.96968" lon="5.75762">
        <ele>1204.8</ele>
        <time>2026-05-13T16:18:43Z</time>
      </trkpt>
      <trkpt lat="45.96969" lon="5.75759">
        <ele>1204.8</ele>
        <time>2026-05-13T16:18:44Z</time>
      </trkpt>
      <trkpt lat="45.9697" lon="5.75757">
        <ele>1205.2</ele>
        <time>2026-05-13T16:18:45Z</time>
      </trkpt>
      <trkpt lat="45.96971" lon="5.75756">
        <ele>1205.2</ele>
        <time>2026-05-13T16:18:46Z</time>
      </trkpt>
      <trkpt lat="45.96972" lon="5.75754">
        <ele>1205.2</ele>
        <time>2026-05-13T16:18:47Z</time>
      </trkpt>
      <trkpt lat="45.96973" lon="5.75752">
        <ele>1205.2</ele>
        <time>2026-05-13T16:18:48Z</time>
      </trkpt>
      <trkpt lat="45.96974" lon="5.7575">
        <ele>1205.6</ele>
        <time>2026-05-13T16:18:49Z</time>
      </trkpt>
      <trkpt lat="45.96975" lon="5.75748">
        <ele>1205.6</ele>
        <time>2026-05-13T16:18:50Z</time>
      </trkpt>
      <trkpt lat="45.96976" lon="5.75746">
        <ele>1205.6</ele>
        <time>2026-05-13T16:18:51Z</time>
      </trkpt>
      <trkpt lat="45.96977" lon="5.75744">
        <ele>1205.6</ele>
        <time>2026-05-13T16:18:52Z</time>
      </trkpt>
      <trkpt lat="45.96977" lon="5.75742">
        <ele>1205.6</ele>
        <time>2026-05-13T16:18:53Z</time>
      </trkpt>
      <trkpt lat="45.96977" lon="5.7574">
        <ele>1206</ele>
        <time>2026-05-13T16:18:54Z</time>
      </trkpt>
      <trkpt lat="45.96977" lon="5.75738">
        <ele>1206</ele>
        <time>2026-05-13T16:18:55Z</time>
      </trkpt>
      <trkpt lat="45.96978" lon="5.75736">
        <ele>1206.2</ele>
        <time>2026-05-13T16:18:56Z</time>
      </trkpt>
      <trkpt lat="45.96979" lon="5.75735">
        <ele>1206.2</ele>
        <time>2026-05-13T16:18:57Z</time>
      </trkpt>
      <trkpt lat="45.96978" lon="5.75733">
        <ele>1206.2</ele>
        <time>2026-05-13T16:18:58Z</time>
      </trkpt>
      <trkpt lat="45.96978" lon="5.75731">
        <ele>1206.6</ele>
        <time>2026-05-13T16:18:59Z</time>
      </trkpt>
      <trkpt lat="45.96978" lon="5.75729">
        <ele>1206.6</ele>
        <time>2026-05-13T16:19:00Z</time>
      </trkpt>
      <trkpt lat="45.96978" lon="5.75728">
        <ele>1206.6</ele>
        <time>2026-05-13T16:19:01Z</time>
      </trkpt>
      <trkpt lat="45.96978" lon="5.75726">
        <ele>1207</ele>
        <time>2026-05-13T16:19:02Z</time>
      </trkpt>
      <trkpt lat="45.96978" lon="5.75723">
        <ele>1206.4</ele>
        <time>2026-05-13T16:19:03Z</time>
      </trkpt>
      <trkpt lat="45.96978" lon="5.75721">
        <ele>1206.6</ele>
        <time>2026-05-13T16:19:04Z</time>
      </trkpt>
      <trkpt lat="45.96978" lon="5.75719">
        <ele>1206.6</ele>
        <time>2026-05-13T16:19:05Z</time>
      </trkpt>
      <trkpt lat="45.96978" lon="5.75716">
        <ele>1206.6</ele>
        <time>2026-05-13T16:19:06Z</time>
      </trkpt>
      <trkpt lat="45.96979" lon="5.75714">
        <ele>1206.6</ele>
        <time>2026-05-13T16:19:07Z</time>
      </trkpt>
      <trkpt lat="45.9698" lon="5.75711">
        <ele>1206.6</ele>
        <time>2026-05-13T16:19:08Z</time>
      </trkpt>
      <trkpt lat="45.96981" lon="5.75709">
        <ele>1206.6</ele>
        <time>2026-05-13T16:19:09Z</time>
      </trkpt>
      <trkpt lat="45.96982" lon="5.75706">
        <ele>1206.6</ele>
        <time>2026-05-13T16:19:10Z</time>
      </trkpt>
      <trkpt lat="45.96983" lon="5.75704">
        <ele>1206.4</ele>
        <time>2026-05-13T16:19:11Z</time>
      </trkpt>
      <trkpt lat="45.96983" lon="5.75702">
        <ele>1206.4</ele>
        <time>2026-05-13T16:19:12Z</time>
      </trkpt>
      <trkpt lat="45.96984" lon="5.75699">
        <ele>1206.4</ele>
        <time>2026-05-13T16:19:13Z</time>
      </trkpt>
      <trkpt lat="45.96984" lon="5.75697">
        <ele>1206.4</ele>
        <time>2026-05-13T16:19:14Z</time>
      </trkpt>
      <trkpt lat="45.96984" lon="5.75695">
        <ele>1206.4</ele>
        <time>2026-05-13T16:19:15Z</time>
      </trkpt>
      <trkpt lat="45.96984" lon="5.75692">
        <ele>1207</ele>
        <time>2026-05-13T16:19:16Z</time>
      </trkpt>
      <trkpt lat="45.96984" lon="5.75689">
        <ele>1207</ele>
        <time>2026-05-13T16:19:17Z</time>
      </trkpt>
      <trkpt lat="45.96985" lon="5.75687">
        <ele>1207</ele>
        <time>2026-05-13T16:19:18Z</time>
      </trkpt>
      <trkpt lat="45.96985" lon="5.75685">
        <ele>1207.2</ele>
        <time>2026-05-13T16:19:19Z</time>
      </trkpt>
      <trkpt lat="45.96985" lon="5.75683">
        <ele>1207.2</ele>
        <time>2026-05-13T16:19:20Z</time>
      </trkpt>
      <trkpt lat="45.96986" lon="5.75681">
        <ele>1207.6</ele>
        <time>2026-05-13T16:19:21Z</time>
      </trkpt>
      <trkpt lat="45.96986" lon="5.75679">
        <ele>1207.6</ele>
        <time>2026-05-13T16:19:22Z</time>
      </trkpt>
      <trkpt lat="45.96986" lon="5.75676">
        <ele>1207.6</ele>
        <time>2026-05-13T16:19:23Z</time>
      </trkpt>
      <trkpt lat="45.96986" lon="5.75672">
        <ele>1207.6</ele>
        <time>2026-05-13T16:19:24Z</time>
      </trkpt>
      <trkpt lat="45.96986" lon="5.7567">
        <ele>1207.8</ele>
        <time>2026-05-13T16:19:25Z</time>
      </trkpt>
      <trkpt lat="45.96986" lon="5.75668">
        <ele>1207.8</ele>
        <time>2026-05-13T16:19:26Z</time>
      </trkpt>
      <trkpt lat="45.96986" lon="5.75665">
        <ele>1207.8</ele>
        <time>2026-05-13T16:19:27Z</time>
      </trkpt>
      <trkpt lat="45.96986" lon="5.75662">
        <ele>1208.2</ele>
        <time>2026-05-13T16:19:28Z</time>
      </trkpt>
      <trkpt lat="45.96986" lon="5.7566">
        <ele>1208.2</ele>
        <time>2026-05-13T16:19:29Z</time>
      </trkpt>
      <trkpt lat="45.96986" lon="5.75658">
        <ele>1208.4</ele>
        <time>2026-05-13T16:19:30Z</time>
      </trkpt>
      <trkpt lat="45.96986" lon="5.75656">
        <ele>1208.4</ele>
        <time>2026-05-13T16:19:31Z</time>
      </trkpt>
      <trkpt lat="45.96986" lon="5.75654">
        <ele>1208.8</ele>
        <time>2026-05-13T16:19:32Z</time>
      </trkpt>
      <trkpt lat="45.96986" lon="5.75653">
        <ele>1208.8</ele>
        <time>2026-05-13T16:19:33Z</time>
      </trkpt>
      <trkpt lat="45.96986" lon="5.75652">
        <ele>1209</ele>
        <time>2026-05-13T16:19:34Z</time>
      </trkpt>
      <trkpt lat="45.96987" lon="5.75652">
        <ele>1209</ele>
        <time>2026-05-13T16:19:35Z</time>
      </trkpt>
      <trkpt lat="45.96987" lon="5.75652">
        <ele>1209</ele>
        <time>2026-05-13T16:19:36Z</time>
      </trkpt>
      <trkpt lat="45.96987" lon="5.75649">
        <ele>1209.8</ele>
        <time>2026-05-13T16:19:41Z</time>
      </trkpt>
      <trkpt lat="45.96987" lon="5.75647">
        <ele>1210</ele>
        <time>2026-05-13T16:19:42Z</time>
      </trkpt>
      <trkpt lat="45.96986" lon="5.75646">
        <ele>1210</ele>
        <time>2026-05-13T16:19:43Z</time>
      </trkpt>
      <trkpt lat="45.96986" lon="5.75645">
        <ele>1210.4</ele>
        <time>2026-05-13T16:19:44Z</time>
      </trkpt>
      <trkpt lat="45.96986" lon="5.75644">
        <ele>1210.4</ele>
        <time>2026-05-13T16:19:45Z</time>
      </trkpt>
      <trkpt lat="45.96985" lon="5.75643">
        <ele>1210.6</ele>
        <time>2026-05-13T16:19:46Z</time>
      </trkpt>
      <trkpt lat="45.96985" lon="5.75642">
        <ele>1210.6</ele>
        <time>2026-05-13T16:19:47Z</time>
      </trkpt>
      <trkpt lat="45.96984" lon="5.75641">
        <ele>1211</ele>
        <time>2026-05-13T16:19:48Z</time>
      </trkpt>
      <trkpt lat="45.96983" lon="5.7564">
        <ele>1211</ele>
        <time>2026-05-13T16:19:49Z</time>
      </trkpt>
      <trkpt lat="45.96983" lon="5.75638">
        <ele>1211.2</ele>
        <time>2026-05-13T16:19:50Z</time>
      </trkpt>
      <trkpt lat="45.96982" lon="5.75637">
        <ele>1211.4</ele>
        <time>2026-05-13T16:19:51Z</time>
      </trkpt>
      <trkpt lat="45.96982" lon="5.75636">
        <ele>1211.4</ele>
        <time>2026-05-13T16:19:52Z</time>
      </trkpt>
      <trkpt lat="45.96982" lon="5.75634">
        <ele>1211.6</ele>
        <time>2026-05-13T16:19:53Z</time>
      </trkpt>
      <trkpt lat="45.96983" lon="5.75633">
        <ele>1211.8</ele>
        <time>2026-05-13T16:19:54Z</time>
      </trkpt>
      <trkpt lat="45.96983" lon="5.75633">
        <ele>1211.8</ele>
        <time>2026-05-13T16:19:55Z</time>
      </trkpt>
      <trkpt lat="45.96983" lon="5.75631">
        <ele>1212.2</ele>
        <time>2026-05-13T16:19:56Z</time>
      </trkpt>
      <trkpt lat="45.96984" lon="5.7563">
        <ele>1212.2</ele>
        <time>2026-05-13T16:19:57Z</time>
      </trkpt>
      <trkpt lat="45.96984" lon="5.75629">
        <ele>1212.4</ele>
        <time>2026-05-13T16:19:58Z</time>
      </trkpt>
      <trkpt lat="45.96984" lon="5.75628">
        <ele>1212.4</ele>
        <time>2026-05-13T16:19:59Z</time>
      </trkpt>
      <trkpt lat="45.96984" lon="5.75627">
        <ele>1212.8</ele>
        <time>2026-05-13T16:20:00Z</time>
      </trkpt>
      <trkpt lat="45.96984" lon="5.75626">
        <ele>1212.8</ele>
        <time>2026-05-13T16:20:01Z</time>
      </trkpt>
      <trkpt lat="45.96985" lon="5.75625">
        <ele>1212.8</ele>
        <time>2026-05-13T16:20:02Z</time>
      </trkpt>
      <trkpt lat="45.96985" lon="5.75624">
        <ele>1213.2</ele>
        <time>2026-05-13T16:20:03Z</time>
      </trkpt>
      <trkpt lat="45.96985" lon="5.75622">
        <ele>1213.2</ele>
        <time>2026-05-13T16:20:04Z</time>
      </trkpt>
      <trkpt lat="45.96986" lon="5.75621">
        <ele>1213.2</ele>
        <time>2026-05-13T16:20:05Z</time>
      </trkpt>
      <trkpt lat="45.96986" lon="5.75619">
        <ele>1213.4</ele>
        <time>2026-05-13T16:20:06Z</time>
      </trkpt>
      <trkpt lat="45.96986" lon="5.75618">
        <ele>1213.4</ele>
        <time>2026-05-13T16:20:07Z</time>
      </trkpt>
      <trkpt lat="45.96986" lon="5.75617">
        <ele>1213.8</ele>
        <time>2026-05-13T16:20:08Z</time>
      </trkpt>
      <trkpt lat="45.96987" lon="5.75616">
        <ele>1214</ele>
        <time>2026-05-13T16:20:09Z</time>
      </trkpt>
      <trkpt lat="45.96988" lon="5.75615">
        <ele>1214.2</ele>
        <time>2026-05-13T16:20:10Z</time>
      </trkpt>
      <trkpt lat="45.96988" lon="5.75614">
        <ele>1214.2</ele>
        <time>2026-05-13T16:20:11Z</time>
      </trkpt>
      <trkpt lat="45.96989" lon="5.75613">
        <ele>1214.6</ele>
        <time>2026-05-13T16:20:12Z</time>
      </trkpt>
      <trkpt lat="45.9699" lon="5.75612">
        <ele>1214.8</ele>
        <time>2026-05-13T16:20:13Z</time>
      </trkpt>
      <trkpt lat="45.9699" lon="5.75611">
        <ele>1214.8</ele>
        <time>2026-05-13T16:20:14Z</time>
      </trkpt>
      <trkpt lat="45.96991" lon="5.75609">
        <ele>1214.8</ele>
        <time>2026-05-13T16:20:15Z</time>
      </trkpt>
      <trkpt lat="45.96991" lon="5.75607">
        <ele>1215</ele>
        <time>2026-05-13T16:20:16Z</time>
      </trkpt>
      <trkpt lat="45.96992" lon="5.75606">
        <ele>1215</ele>
        <time>2026-05-13T16:20:17Z</time>
      </trkpt>
      <trkpt lat="45.96992" lon="5.75604">
        <ele>1215.6</ele>
        <time>2026-05-13T16:20:18Z</time>
      </trkpt>
      <trkpt lat="45.96993" lon="5.75604">
        <ele>1215.6</ele>
        <time>2026-05-13T16:20:19Z</time>
      </trkpt>
      <trkpt lat="45.96994" lon="5.75603">
        <ele>1215.6</ele>
        <time>2026-05-13T16:20:20Z</time>
      </trkpt>
      <trkpt lat="45.96994" lon="5.75603">
        <ele>1216</ele>
        <time>2026-05-13T16:20:21Z</time>
      </trkpt>
      <trkpt lat="45.96994" lon="5.75602">
        <ele>1216</ele>
        <time>2026-05-13T16:20:22Z</time>
      </trkpt>
      <trkpt lat="45.96995" lon="5.756">
        <ele>1216.2</ele>
        <time>2026-05-13T16:20:23Z</time>
      </trkpt>
      <trkpt lat="45.96996" lon="5.75599">
        <ele>1216.2</ele>
        <time>2026-05-13T16:20:24Z</time>
      </trkpt>
      <trkpt lat="45.96996" lon="5.75598">
        <ele>1216.2</ele>
        <time>2026-05-13T16:20:25Z</time>
      </trkpt>
      <trkpt lat="45.96997" lon="5.75597">
        <ele>1216.6</ele>
        <time>2026-05-13T16:20:26Z</time>
      </trkpt>
      <trkpt lat="45.96998" lon="5.75596">
        <ele>1216.6</ele>
        <time>2026-05-13T16:20:27Z</time>
      </trkpt>
      <trkpt lat="45.96999" lon="5.75595">
        <ele>1216.8</ele>
        <time>2026-05-13T16:20:28Z</time>
      </trkpt>
      <trkpt lat="45.96999" lon="5.75593">
        <ele>1216.8</ele>
        <time>2026-05-13T16:20:29Z</time>
      </trkpt>
      <trkpt lat="45.96999" lon="5.75592">
        <ele>1216.8</ele>
        <time>2026-05-13T16:20:30Z</time>
      </trkpt>
      <trkpt lat="45.96999" lon="5.75592">
        <ele>1216.8</ele>
        <time>2026-05-13T16:20:31Z</time>
      </trkpt>
      <trkpt lat="45.97" lon="5.75591">
        <ele>1216.8</ele>
        <time>2026-05-13T16:20:32Z</time>
      </trkpt>
      <trkpt lat="45.97" lon="5.7559">
        <ele>1216.8</ele>
        <time>2026-05-13T16:20:33Z</time>
      </trkpt>
      <trkpt lat="45.97" lon="5.75587">
        <ele>1218.2</ele>
        <time>2026-05-13T16:29:49Z</time>
      </trkpt>
      <trkpt lat="45.97001" lon="5.75587">
        <ele>1218.2</ele>
        <time>2026-05-13T16:29:50Z</time>
      </trkpt>
      <trkpt lat="45.97001" lon="5.75586">
        <ele>1218.2</ele>
        <time>2026-05-13T16:29:51Z</time>
      </trkpt>
      <trkpt lat="45.97002" lon="5.75585">
        <ele>1218.2</ele>
        <time>2026-05-13T16:29:52Z</time>
      </trkpt>
      <trkpt lat="45.97003" lon="5.75584">
        <ele>1218.2</ele>
        <time>2026-05-13T16:29:53Z</time>
      </trkpt>
      <trkpt lat="45.97004" lon="5.75582">
        <ele>1217.8</ele>
        <time>2026-05-13T16:29:54Z</time>
      </trkpt>
      <trkpt lat="45.97005" lon="5.7558">
        <ele>1217.8</ele>
        <time>2026-05-13T16:29:55Z</time>
      </trkpt>
      <trkpt lat="45.97006" lon="5.75579">
        <ele>1217.8</ele>
        <time>2026-05-13T16:29:56Z</time>
      </trkpt>
      <trkpt lat="45.97008" lon="5.75577">
        <ele>1217.6</ele>
        <time>2026-05-13T16:29:57Z</time>
      </trkpt>
      <trkpt lat="45.97011" lon="5.75574">
        <ele>1217.6</ele>
        <time>2026-05-13T16:29:58Z</time>
      </trkpt>
      <trkpt lat="45.97011" lon="5.75573">
        <ele>1217.4</ele>
        <time>2026-05-13T16:29:59Z</time>
      </trkpt>
      <trkpt lat="45.97011" lon="5.75571">
        <ele>1217.4</ele>
        <time>2026-05-13T16:30:00Z</time>
      </trkpt>
      <trkpt lat="45.97011" lon="5.75571">
        <ele>1217.4</ele>
        <time>2026-05-13T16:30:01Z</time>
      </trkpt>
      <trkpt lat="45.97011" lon="5.75571">
        <ele>1217.4</ele>
        <time>2026-05-13T16:30:02Z</time>
      </trkpt>
      <trkpt lat="45.97012" lon="5.75568">
        <ele>1217.4</ele>
        <time>2026-05-13T16:30:03Z</time>
      </trkpt>
      <trkpt lat="45.97013" lon="5.75567">
        <ele>1217.4</ele>
        <time>2026-05-13T16:30:04Z</time>
      </trkpt>
      <trkpt lat="45.97014" lon="5.75565">
        <ele>1217.4</ele>
        <time>2026-05-13T16:30:05Z</time>
      </trkpt>
      <trkpt lat="45.97015" lon="5.75561">
        <ele>1217.4</ele>
        <time>2026-05-13T16:30:06Z</time>
      </trkpt>
      <trkpt lat="45.97015" lon="5.75559">
        <ele>1217.4</ele>
        <time>2026-05-13T16:30:07Z</time>
      </trkpt>
      <trkpt lat="45.97016" lon="5.75558">
        <ele>1217.4</ele>
        <time>2026-05-13T16:30:08Z</time>
      </trkpt>
      <trkpt lat="45.97016" lon="5.75556">
        <ele>1217</ele>
        <time>2026-05-13T16:30:09Z</time>
      </trkpt>
      <trkpt lat="45.97017" lon="5.75553">
        <ele>1217</ele>
        <time>2026-05-13T16:30:10Z</time>
      </trkpt>
      <trkpt lat="45.97017" lon="5.7555">
        <ele>1217</ele>
        <time>2026-05-13T16:30:11Z</time>
      </trkpt>
      <trkpt lat="45.97017" lon="5.75549">
        <ele>1217</ele>
        <time>2026-05-13T16:30:12Z</time>
      </trkpt>
      <trkpt lat="45.97017" lon="5.75547">
        <ele>1217</ele>
        <time>2026-05-13T16:30:13Z</time>
      </trkpt>
      <trkpt lat="45.97017" lon="5.75545">
        <ele>1217</ele>
        <time>2026-05-13T16:30:14Z</time>
      </trkpt>
      <trkpt lat="45.97018" lon="5.75543">
        <ele>1217</ele>
        <time>2026-05-13T16:30:15Z</time>
      </trkpt>
      <trkpt lat="45.97018" lon="5.75542">
        <ele>1217.2</ele>
        <time>2026-05-13T16:30:16Z</time>
      </trkpt>
      <trkpt lat="45.97019" lon="5.75541">
        <ele>1217.2</ele>
        <time>2026-05-13T16:30:17Z</time>
      </trkpt>
      <trkpt lat="45.97019" lon="5.75539">
        <ele>1217.2</ele>
        <time>2026-05-13T16:30:18Z</time>
      </trkpt>
      <trkpt lat="45.97021" lon="5.75537">
        <ele>1217.6</ele>
        <time>2026-05-13T16:30:19Z</time>
      </trkpt>
      <trkpt lat="45.97023" lon="5.75535">
        <ele>1217.6</ele>
        <time>2026-05-13T16:30:20Z</time>
      </trkpt>
      <trkpt lat="45.97024" lon="5.75534">
        <ele>1217.6</ele>
        <time>2026-05-13T16:30:21Z</time>
      </trkpt>
      <trkpt lat="45.97025" lon="5.75532">
        <ele>1217.6</ele>
        <time>2026-05-13T16:30:22Z</time>
      </trkpt>
      <trkpt lat="45.97027" lon="5.75531">
        <ele>1217.6</ele>
        <time>2026-05-13T16:30:23Z</time>
      </trkpt>
      <trkpt lat="45.97028" lon="5.7553">
        <ele>1217.6</ele>
        <time>2026-05-13T16:30:24Z</time>
      </trkpt>
      <trkpt lat="45.97029" lon="5.75529">
        <ele>1217.6</ele>
        <time>2026-05-13T16:30:25Z</time>
      </trkpt>
      <trkpt lat="45.9703" lon="5.75528">
        <ele>1217.6</ele>
        <time>2026-05-13T16:30:26Z</time>
      </trkpt>
      <trkpt lat="45.97031" lon="5.75526">
        <ele>1217.2</ele>
        <time>2026-05-13T16:30:27Z</time>
      </trkpt>
      <trkpt lat="45.97032" lon="5.75523">
        <ele>1217.2</ele>
        <time>2026-05-13T16:30:28Z</time>
      </trkpt>
      <trkpt lat="45.97033" lon="5.7552">
        <ele>1217.2</ele>
        <time>2026-05-13T16:30:29Z</time>
      </trkpt>
      <trkpt lat="45.97034" lon="5.75518">
        <ele>1217.2</ele>
        <time>2026-05-13T16:30:30Z</time>
      </trkpt>
      <trkpt lat="45.97035" lon="5.75515">
        <ele>1217.8</ele>
        <time>2026-05-13T16:30:31Z</time>
      </trkpt>
      <trkpt lat="45.97037" lon="5.75513">
        <ele>1217.8</ele>
        <time>2026-05-13T16:30:32Z</time>
      </trkpt>
      <trkpt lat="45.97038" lon="5.75511">
        <ele>1217.8</ele>
        <time>2026-05-13T16:30:33Z</time>
      </trkpt>
      <trkpt lat="45.97039" lon="5.75509">
        <ele>1217.8</ele>
        <time>2026-05-13T16:30:34Z</time>
      </trkpt>
      <trkpt lat="45.9704" lon="5.75507">
        <ele>1217.8</ele>
        <time>2026-05-13T16:30:35Z</time>
      </trkpt>
      <trkpt lat="45.97041" lon="5.75504">
        <ele>1218</ele>
        <time>2026-05-13T16:30:36Z</time>
      </trkpt>
      <trkpt lat="45.97041" lon="5.75502">
        <ele>1218</ele>
        <time>2026-05-13T16:30:37Z</time>
      </trkpt>
      <trkpt lat="45.97041" lon="5.75499">
        <ele>1218</ele>
        <time>2026-05-13T16:30:38Z</time>
      </trkpt>
      <trkpt lat="45.97041" lon="5.75496">
        <ele>1218</ele>
        <time>2026-05-13T16:30:39Z</time>
      </trkpt>
      <trkpt lat="45.97041" lon="5.75496">
        <ele>1218.2</ele>
        <time>2026-05-13T16:30:40Z</time>
      </trkpt>
      <trkpt lat="45.97041" lon="5.75495">
        <ele>1218.2</ele>
        <time>2026-05-13T16:30:41Z</time>
      </trkpt>
      <trkpt lat="45.97041" lon="5.75493">
        <ele>1218.4</ele>
        <time>2026-05-13T16:30:42Z</time>
      </trkpt>
      <trkpt lat="45.97041" lon="5.75492">
        <ele>1218.8</ele>
        <time>2026-05-13T16:30:43Z</time>
      </trkpt>
      <trkpt lat="45.97042" lon="5.7549">
        <ele>1218.8</ele>
        <time>2026-05-13T16:30:44Z</time>
      </trkpt>
      <trkpt lat="45.97042" lon="5.75489">
        <ele>1218.8</ele>
        <time>2026-05-13T16:30:45Z</time>
      </trkpt>
      <trkpt lat="45.97043" lon="5.75487">
        <ele>1219</ele>
        <time>2026-05-13T16:30:46Z</time>
      </trkpt>
      <trkpt lat="45.97043" lon="5.75487">
        <ele>1219.4</ele>
        <time>2026-05-13T16:30:47Z</time>
      </trkpt>
      <trkpt lat="45.97043" lon="5.75486">
        <ele>1219.4</ele>
        <time>2026-05-13T16:30:48Z</time>
      </trkpt>
      <trkpt lat="45.97044" lon="5.75486">
        <ele>1219.4</ele>
        <time>2026-05-13T16:30:49Z</time>
      </trkpt>
      <trkpt lat="45.97044" lon="5.75481">
        <ele>1219.2</ele>
        <time>2026-05-13T16:31:11Z</time>
      </trkpt>
      <trkpt lat="45.97045" lon="5.7548">
        <ele>1219.4</ele>
        <time>2026-05-13T16:31:12Z</time>
      </trkpt>
      <trkpt lat="45.97044" lon="5.75477">
        <ele>1219.4</ele>
        <time>2026-05-13T16:31:13Z</time>
      </trkpt>
      <trkpt lat="45.97045" lon="5.75474">
        <ele>1219</ele>
        <time>2026-05-13T16:31:14Z</time>
      </trkpt>
      <trkpt lat="45.97046" lon="5.75471">
        <ele>1219</ele>
        <time>2026-05-13T16:31:15Z</time>
      </trkpt>
      <trkpt lat="45.97048" lon="5.75468">
        <ele>1219</ele>
        <time>2026-05-13T16:31:16Z</time>
      </trkpt>
      <trkpt lat="45.97049" lon="5.75463">
        <ele>1218.8</ele>
        <time>2026-05-13T16:31:17Z</time>
      </trkpt>
      <trkpt lat="45.9705" lon="5.75459">
        <ele>1218.8</ele>
        <time>2026-05-13T16:31:18Z</time>
      </trkpt>
      <trkpt lat="45.97051" lon="5.75456">
        <ele>1218.6</ele>
        <time>2026-05-13T16:31:19Z</time>
      </trkpt>
      <trkpt lat="45.97052" lon="5.75453">
        <ele>1218.6</ele>
        <time>2026-05-13T16:31:20Z</time>
      </trkpt>
      <trkpt lat="45.97053" lon="5.7545">
        <ele>1218.6</ele>
        <time>2026-05-13T16:31:21Z</time>
      </trkpt>
      <trkpt lat="45.97055" lon="5.75445">
        <ele>1218.2</ele>
        <time>2026-05-13T16:31:22Z</time>
      </trkpt>
      <trkpt lat="45.97056" lon="5.75441">
        <ele>1218.2</ele>
        <time>2026-05-13T16:31:23Z</time>
      </trkpt>
      <trkpt lat="45.97058" lon="5.75436">
        <ele>1218.2</ele>
        <time>2026-05-13T16:31:24Z</time>
      </trkpt>
      <trkpt lat="45.97062" lon="5.75429">
        <ele>1217.8</ele>
        <time>2026-05-13T16:31:25Z</time>
      </trkpt>
      <trkpt lat="45.97064" lon="5.75425">
        <ele>1217.4</ele>
        <time>2026-05-13T16:31:26Z</time>
      </trkpt>
      <trkpt lat="45.97066" lon="5.75419">
        <ele>1216.6</ele>
        <time>2026-05-13T16:31:27Z</time>
      </trkpt>
      <trkpt lat="45.97068" lon="5.75418">
        <ele>1216.6</ele>
        <time>2026-05-13T16:31:28Z</time>
      </trkpt>
      <trkpt lat="45.97069" lon="5.75415">
        <ele>1216.6</ele>
        <time>2026-05-13T16:31:29Z</time>
      </trkpt>
      <trkpt lat="45.97072" lon="5.7541">
        <ele>1216.4</ele>
        <time>2026-05-13T16:31:30Z</time>
      </trkpt>
      <trkpt lat="45.97074" lon="5.75406">
        <ele>1216.2</ele>
        <time>2026-05-13T16:31:31Z</time>
      </trkpt>
      <trkpt lat="45.97077" lon="5.75402">
        <ele>1215.4</ele>
        <time>2026-05-13T16:31:32Z</time>
      </trkpt>
      <trkpt lat="45.97079" lon="5.75396">
        <ele>1215.2</ele>
        <time>2026-05-13T16:31:33Z</time>
      </trkpt>
      <trkpt lat="45.97081" lon="5.7539">
        <ele>1214.6</ele>
        <time>2026-05-13T16:31:34Z</time>
      </trkpt>
      <trkpt lat="45.97081" lon="5.75386">
        <ele>1214.2</ele>
        <time>2026-05-13T16:31:35Z</time>
      </trkpt>
      <trkpt lat="45.97084" lon="5.75381">
        <ele>1214.2</ele>
        <time>2026-05-13T16:31:36Z</time>
      </trkpt>
      <trkpt lat="45.97084" lon="5.75375">
        <ele>1214</ele>
        <time>2026-05-13T16:31:37Z</time>
      </trkpt>
      <trkpt lat="45.97085" lon="5.75373">
        <ele>1214</ele>
        <time>2026-05-13T16:31:38Z</time>
      </trkpt>
      <trkpt lat="45.97086" lon="5.7537">
        <ele>1214</ele>
        <time>2026-05-13T16:31:39Z</time>
      </trkpt>
      <trkpt lat="45.97088" lon="5.75365">
        <ele>1213.2</ele>
        <time>2026-05-13T16:31:40Z</time>
      </trkpt>
      <trkpt lat="45.97089" lon="5.75363">
        <ele>1213.2</ele>
        <time>2026-05-13T16:31:41Z</time>
      </trkpt>
      <trkpt lat="45.97089" lon="5.7536">
        <ele>1212.8</ele>
        <time>2026-05-13T16:31:42Z</time>
      </trkpt>
      <trkpt lat="45.97091" lon="5.75357">
        <ele>1213</ele>
        <time>2026-05-13T16:31:43Z</time>
      </trkpt>
      <trkpt lat="45.97093" lon="5.75355">
        <ele>1213</ele>
        <time>2026-05-13T16:31:44Z</time>
      </trkpt>
      <trkpt lat="45.97094" lon="5.75351">
        <ele>1213</ele>
        <time>2026-05-13T16:31:45Z</time>
      </trkpt>
      <trkpt lat="45.97095" lon="5.75348">
        <ele>1213</ele>
        <time>2026-05-13T16:31:46Z</time>
      </trkpt>
      <trkpt lat="45.97095" lon="5.75345">
        <ele>1213</ele>
        <time>2026-05-13T16:31:47Z</time>
      </trkpt>
      <trkpt lat="45.97096" lon="5.75342">
        <ele>1213</ele>
        <time>2026-05-13T16:31:48Z</time>
      </trkpt>
      <trkpt lat="45.97096" lon="5.75338">
        <ele>1213</ele>
        <time>2026-05-13T16:31:49Z</time>
      </trkpt>
      <trkpt lat="45.97097" lon="5.75334">
        <ele>1213</ele>
        <time>2026-05-13T16:31:50Z</time>
      </trkpt>
      <trkpt lat="45.97097" lon="5.75334">
        <ele>1212.8</ele>
        <time>2026-05-13T16:31:51Z</time>
      </trkpt>
      <trkpt lat="45.97097" lon="5.7533">
        <ele>1212.8</ele>
        <time>2026-05-13T16:31:52Z</time>
      </trkpt>
      <trkpt lat="45.97096" lon="5.75327">
        <ele>1212.6</ele>
        <time>2026-05-13T16:31:53Z</time>
      </trkpt>
      <trkpt lat="45.97096" lon="5.75324">
        <ele>1212.6</ele>
        <time>2026-05-13T16:31:54Z</time>
      </trkpt>
      <trkpt lat="45.97095" lon="5.75321">
        <ele>1212.6</ele>
        <time>2026-05-13T16:31:55Z</time>
      </trkpt>
      <trkpt lat="45.97095" lon="5.75318">
        <ele>1212.6</ele>
        <time>2026-05-13T16:31:56Z</time>
      </trkpt>
      <trkpt lat="45.97095" lon="5.75314">
        <ele>1212.4</ele>
        <time>2026-05-13T16:31:57Z</time>
      </trkpt>
      <trkpt lat="45.97095" lon="5.7531">
        <ele>1212.4</ele>
        <time>2026-05-13T16:31:58Z</time>
      </trkpt>
      <trkpt lat="45.97094" lon="5.75305">
        <ele>1212</ele>
        <time>2026-05-13T16:31:59Z</time>
      </trkpt>
      <trkpt lat="45.97092" lon="5.753">
        <ele>1212</ele>
        <time>2026-05-13T16:32:00Z</time>
      </trkpt>
      <trkpt lat="45.97091" lon="5.75295">
        <ele>1211.2</ele>
        <time>2026-05-13T16:32:01Z</time>
      </trkpt>
      <trkpt lat="45.97089" lon="5.7529">
        <ele>1211.6</ele>
        <time>2026-05-13T16:32:02Z</time>
      </trkpt>
      <trkpt lat="45.97087" lon="5.75284">
        <ele>1210.6</ele>
        <time>2026-05-13T16:32:03Z</time>
      </trkpt>
      <trkpt lat="45.97083" lon="5.75278">
        <ele>1210.4</ele>
        <time>2026-05-13T16:32:04Z</time>
      </trkpt>
      <trkpt lat="45.97079" lon="5.75272">
        <ele>1209.8</ele>
        <time>2026-05-13T16:32:05Z</time>
      </trkpt>
      <trkpt lat="45.97076" lon="5.75267">
        <ele>1208.8</ele>
        <time>2026-05-13T16:32:06Z</time>
      </trkpt>
      <trkpt lat="45.97073" lon="5.75261">
        <ele>1208.4</ele>
        <time>2026-05-13T16:32:07Z</time>
      </trkpt>
      <trkpt lat="45.97069" lon="5.75257">
        <ele>1208</ele>
        <time>2026-05-13T16:32:08Z</time>
      </trkpt>
      <trkpt lat="45.97066" lon="5.75252">
        <ele>1207.8</ele>
        <time>2026-05-13T16:32:09Z</time>
      </trkpt>
      <trkpt lat="45.97063" lon="5.75249">
        <ele>1207.4</ele>
        <time>2026-05-13T16:32:10Z</time>
      </trkpt>
      <trkpt lat="45.9706" lon="5.75244">
        <ele>1207.8</ele>
        <time>2026-05-13T16:32:11Z</time>
      </trkpt>
      <trkpt lat="45.97057" lon="5.7524">
        <ele>1207.4</ele>
        <time>2026-05-13T16:32:12Z</time>
      </trkpt>
      <trkpt lat="45.97055" lon="5.75235">
        <ele>1207.4</ele>
        <time>2026-05-13T16:32:13Z</time>
      </trkpt>
      <trkpt lat="45.97052" lon="5.75231">
        <ele>1207</ele>
        <time>2026-05-13T16:32:14Z</time>
      </trkpt>
      <trkpt lat="45.97049" lon="5.75226">
        <ele>1207</ele>
        <time>2026-05-13T16:32:15Z</time>
      </trkpt>
      <trkpt lat="45.97046" lon="5.75222">
        <ele>1206.6</ele>
        <time>2026-05-13T16:32:16Z</time>
      </trkpt>
      <trkpt lat="45.97043" lon="5.75217">
        <ele>1206.6</ele>
        <time>2026-05-13T16:32:17Z</time>
      </trkpt>
      <trkpt lat="45.9704" lon="5.75213">
        <ele>1206.4</ele>
        <time>2026-05-13T16:32:18Z</time>
      </trkpt>
      <trkpt lat="45.97036" lon="5.75208">
        <ele>1205.8</ele>
        <time>2026-05-13T16:32:19Z</time>
      </trkpt>
      <trkpt lat="45.97032" lon="5.75204">
        <ele>1205.8</ele>
        <time>2026-05-13T16:32:20Z</time>
      </trkpt>
      <trkpt lat="45.97028" lon="5.75199">
        <ele>1205.4</ele>
        <time>2026-05-13T16:32:21Z</time>
      </trkpt>
      <trkpt lat="45.97024" lon="5.75194">
        <ele>1205</ele>
        <time>2026-05-13T16:32:22Z</time>
      </trkpt>
      <trkpt lat="45.97021" lon="5.75189">
        <ele>1204.8</ele>
        <time>2026-05-13T16:32:23Z</time>
      </trkpt>
      <trkpt lat="45.97016" lon="5.75184">
        <ele>1204.6</ele>
        <time>2026-05-13T16:32:24Z</time>
      </trkpt>
      <trkpt lat="45.97011" lon="5.75181">
        <ele>1204.2</ele>
        <time>2026-05-13T16:32:25Z</time>
      </trkpt>
      <trkpt lat="45.97007" lon="5.75177">
        <ele>1204</ele>
        <time>2026-05-13T16:32:26Z</time>
      </trkpt>
      <trkpt lat="45.97004" lon="5.75173">
        <ele>1203.8</ele>
        <time>2026-05-13T16:32:27Z</time>
      </trkpt>
      <trkpt lat="45.97001" lon="5.7517">
        <ele>1203.8</ele>
        <time>2026-05-13T16:32:28Z</time>
      </trkpt>
      <trkpt lat="45.96999" lon="5.75166">
        <ele>1203.2</ele>
        <time>2026-05-13T16:32:29Z</time>
      </trkpt>
      <trkpt lat="45.96996" lon="5.75164">
        <ele>1203.2</ele>
        <time>2026-05-13T16:32:30Z</time>
      </trkpt>
      <trkpt lat="45.96993" lon="5.75161">
        <ele>1203.2</ele>
        <time>2026-05-13T16:32:31Z</time>
      </trkpt>
      <trkpt lat="45.9699" lon="5.75157">
        <ele>1202.8</ele>
        <time>2026-05-13T16:32:32Z</time>
      </trkpt>
      <trkpt lat="45.96986" lon="5.75154">
        <ele>1202.4</ele>
        <time>2026-05-13T16:32:33Z</time>
      </trkpt>
      <trkpt lat="45.96982" lon="5.75152">
        <ele>1202.2</ele>
        <time>2026-05-13T16:32:34Z</time>
      </trkpt>
      <trkpt lat="45.96979" lon="5.75147">
        <ele>1202</ele>
        <time>2026-05-13T16:32:35Z</time>
      </trkpt>
      <trkpt lat="45.96975" lon="5.75143">
        <ele>1202</ele>
        <time>2026-05-13T16:32:36Z</time>
      </trkpt>
      <trkpt lat="45.96971" lon="5.75138">
        <ele>1200.6</ele>
        <time>2026-05-13T16:32:37Z</time>
      </trkpt>
      <trkpt lat="45.96967" lon="5.75134">
        <ele>1200.6</ele>
        <time>2026-05-13T16:32:38Z</time>
      </trkpt>
      <trkpt lat="45.96964" lon="5.7513">
        <ele>1200.6</ele>
        <time>2026-05-13T16:32:39Z</time>
      </trkpt>
      <trkpt lat="45.96962" lon="5.75125">
        <ele>1200.6</ele>
        <time>2026-05-13T16:32:40Z</time>
      </trkpt>
      <trkpt lat="45.96963" lon="5.75124">
        <ele>1200.6</ele>
        <time>2026-05-13T16:32:41Z</time>
      </trkpt>
      <trkpt lat="45.96964" lon="5.75123">
        <ele>1201</ele>
        <time>2026-05-13T16:32:42Z</time>
      </trkpt>
      <trkpt lat="45.96967" lon="5.75124">
        <ele>1201</ele>
        <time>2026-05-13T16:32:43Z</time>
      </trkpt>
      <trkpt lat="45.9697" lon="5.75125">
        <ele>1201</ele>
        <time>2026-05-13T16:32:44Z</time>
      </trkpt>
      <trkpt lat="45.96973" lon="5.75126">
        <ele>1201</ele>
        <time>2026-05-13T16:32:45Z</time>
      </trkpt>
      <trkpt lat="45.96975" lon="5.75128">
        <ele>1201</ele>
        <time>2026-05-13T16:32:46Z</time>
      </trkpt>
      <trkpt lat="45.96978" lon="5.7513">
        <ele>1200.8</ele>
        <time>2026-05-13T16:32:47Z</time>
      </trkpt>
      <trkpt lat="45.96981" lon="5.75131">
        <ele>1200.8</ele>
        <time>2026-05-13T16:32:48Z</time>
      </trkpt>
      <trkpt lat="45.96985" lon="5.75132">
        <ele>1200.4</ele>
        <time>2026-05-13T16:32:49Z</time>
      </trkpt>
      <trkpt lat="45.96989" lon="5.75133">
        <ele>1200.4</ele>
        <time>2026-05-13T16:32:50Z</time>
      </trkpt>
      <trkpt lat="45.96993" lon="5.75133">
        <ele>1200.4</ele>
        <time>2026-05-13T16:32:51Z</time>
      </trkpt>
      <trkpt lat="45.96997" lon="5.75134">
        <ele>1200.4</ele>
        <time>2026-05-13T16:32:52Z</time>
      </trkpt>
      <trkpt lat="45.97" lon="5.75135">
        <ele>1200.4</ele>
        <time>2026-05-13T16:32:53Z</time>
      </trkpt>
      <trkpt lat="45.97004" lon="5.75136">
        <ele>1200.4</ele>
        <time>2026-05-13T16:32:54Z</time>
      </trkpt>
      <trkpt lat="45.97007" lon="5.75137">
        <ele>1200.4</ele>
        <time>2026-05-13T16:32:55Z</time>
      </trkpt>
      <trkpt lat="45.97011" lon="5.75138">
        <ele>1200.2</ele>
        <time>2026-05-13T16:32:56Z</time>
      </trkpt>
      <trkpt lat="45.97016" lon="5.75138">
        <ele>1200.2</ele>
        <time>2026-05-13T16:32:57Z</time>
      </trkpt>
      <trkpt lat="45.97021" lon="5.75139">
        <ele>1200.2</ele>
        <time>2026-05-13T16:32:58Z</time>
      </trkpt>
      <trkpt lat="45.97026" lon="5.75139">
        <ele>1200.4</ele>
        <time>2026-05-13T16:32:59Z</time>
      </trkpt>
      <trkpt lat="45.97031" lon="5.75139">
        <ele>1199.4</ele>
        <time>2026-05-13T16:33:00Z</time>
      </trkpt>
      <trkpt lat="45.97037" lon="5.75139">
        <ele>1198.6</ele>
        <time>2026-05-13T16:33:01Z</time>
      </trkpt>
      <trkpt lat="45.97043" lon="5.75139">
        <ele>1197.8</ele>
        <time>2026-05-13T16:33:02Z</time>
      </trkpt>
      <trkpt lat="45.97049" lon="5.75139">
        <ele>1197.8</ele>
        <time>2026-05-13T16:33:03Z</time>
      </trkpt>
      <trkpt lat="45.97055" lon="5.7514">
        <ele>1197.8</ele>
        <time>2026-05-13T16:33:04Z</time>
      </trkpt>
      <trkpt lat="45.97061" lon="5.75139">
        <ele>1197.8</ele>
        <time>2026-05-13T16:33:05Z</time>
      </trkpt>
      <trkpt lat="45.97067" lon="5.7514">
        <ele>1197.4</ele>
        <time>2026-05-13T16:33:06Z</time>
      </trkpt>
      <trkpt lat="45.97073" lon="5.75141">
        <ele>1197</ele>
        <time>2026-05-13T16:33:07Z</time>
      </trkpt>
      <trkpt lat="45.97079" lon="5.75141">
        <ele>1197.6</ele>
        <time>2026-05-13T16:33:08Z</time>
      </trkpt>
      <trkpt lat="45.97085" lon="5.75142">
        <ele>1197.6</ele>
        <time>2026-05-13T16:33:09Z</time>
      </trkpt>
      <trkpt lat="45.97091" lon="5.75142">
        <ele>1197.2</ele>
        <time>2026-05-13T16:33:10Z</time>
      </trkpt>
      <trkpt lat="45.97097" lon="5.75143">
        <ele>1196.8</ele>
        <time>2026-05-13T16:33:11Z</time>
      </trkpt>
      <trkpt lat="45.97103" lon="5.75144">
        <ele>1196.4</ele>
        <time>2026-05-13T16:33:12Z</time>
      </trkpt>
      <trkpt lat="45.9711" lon="5.75146">
        <ele>1196.4</ele>
        <time>2026-05-13T16:33:13Z</time>
      </trkpt>
      <trkpt lat="45.97116" lon="5.75146">
        <ele>1196.2</ele>
        <time>2026-05-13T16:33:14Z</time>
      </trkpt>
      <trkpt lat="45.97122" lon="5.75145">
        <ele>1195.6</ele>
        <time>2026-05-13T16:33:15Z</time>
      </trkpt>
      <trkpt lat="45.97128" lon="5.75144">
        <ele>1196</ele>
        <time>2026-05-13T16:33:16Z</time>
      </trkpt>
      <trkpt lat="45.97134" lon="5.75141">
        <ele>1195.8</ele>
        <time>2026-05-13T16:33:17Z</time>
      </trkpt>
      <trkpt lat="45.97139" lon="5.75137">
        <ele>1195.8</ele>
        <time>2026-05-13T16:33:18Z</time>
      </trkpt>
      <trkpt lat="45.97144" lon="5.75134">
        <ele>1195.8</ele>
        <time>2026-05-13T16:33:19Z</time>
      </trkpt>
      <trkpt lat="45.97149" lon="5.75129">
        <ele>1195.8</ele>
        <time>2026-05-13T16:33:20Z</time>
      </trkpt>
      <trkpt lat="45.97154" lon="5.75125">
        <ele>1195.2</ele>
        <time>2026-05-13T16:33:21Z</time>
      </trkpt>
      <trkpt lat="45.97159" lon="5.75122">
        <ele>1195.2</ele>
        <time>2026-05-13T16:33:22Z</time>
      </trkpt>
      <trkpt lat="45.97162" lon="5.75119">
        <ele>1195.2</ele>
        <time>2026-05-13T16:33:23Z</time>
      </trkpt>
      <trkpt lat="45.97166" lon="5.75117">
        <ele>1194.8</ele>
        <time>2026-05-13T16:33:24Z</time>
      </trkpt>
      <trkpt lat="45.97169" lon="5.75115">
        <ele>1194.6</ele>
        <time>2026-05-13T16:33:25Z</time>
      </trkpt>
      <trkpt lat="45.97172" lon="5.75113">
        <ele>1194</ele>
        <time>2026-05-13T16:33:26Z</time>
      </trkpt>
      <trkpt lat="45.97176" lon="5.75114">
        <ele>1193.6</ele>
        <time>2026-05-13T16:33:27Z</time>
      </trkpt>
      <trkpt lat="45.97178" lon="5.75111">
        <ele>1193</ele>
        <time>2026-05-13T16:33:28Z</time>
      </trkpt>
      <trkpt lat="45.97181" lon="5.7511">
        <ele>1192.6</ele>
        <time>2026-05-13T16:33:29Z</time>
      </trkpt>
      <trkpt lat="45.97184" lon="5.75108">
        <ele>1192</ele>
        <time>2026-05-13T16:33:30Z</time>
      </trkpt>
      <trkpt lat="45.97187" lon="5.75107">
        <ele>1191.8</ele>
        <time>2026-05-13T16:33:31Z</time>
      </trkpt>
      <trkpt lat="45.9719" lon="5.75106">
        <ele>1191</ele>
        <time>2026-05-13T16:33:32Z</time>
      </trkpt>
      <trkpt lat="45.97193" lon="5.75105">
        <ele>1190.4</ele>
        <time>2026-05-13T16:33:33Z</time>
      </trkpt>
      <trkpt lat="45.97196" lon="5.75104">
        <ele>1190</ele>
        <time>2026-05-13T16:33:34Z</time>
      </trkpt>
      <trkpt lat="45.97198" lon="5.75104">
        <ele>1189.2</ele>
        <time>2026-05-13T16:33:35Z</time>
      </trkpt>
      <trkpt lat="45.97201" lon="5.75105">
        <ele>1188.6</ele>
        <time>2026-05-13T16:33:36Z</time>
      </trkpt>
      <trkpt lat="45.97205" lon="5.75106">
        <ele>1188.2</ele>
        <time>2026-05-13T16:33:37Z</time>
      </trkpt>
      <trkpt lat="45.97209" lon="5.75106">
        <ele>1187.2</ele>
        <time>2026-05-13T16:33:38Z</time>
      </trkpt>
      <trkpt lat="45.97212" lon="5.75106">
        <ele>1186.8</ele>
        <time>2026-05-13T16:33:39Z</time>
      </trkpt>
      <trkpt lat="45.97214" lon="5.75106">
        <ele>1186.2</ele>
        <time>2026-05-13T16:33:40Z</time>
      </trkpt>
      <trkpt lat="45.97218" lon="5.75107">
        <ele>1185.8</ele>
        <time>2026-05-13T16:33:41Z</time>
      </trkpt>
      <trkpt lat="45.97223" lon="5.75109">
        <ele>1185</ele>
        <time>2026-05-13T16:33:42Z</time>
      </trkpt>
      <trkpt lat="45.97227" lon="5.7511">
        <ele>1184.2</ele>
        <time>2026-05-13T16:33:43Z</time>
      </trkpt>
      <trkpt lat="45.97231" lon="5.75112">
        <ele>1183.6</ele>
        <time>2026-05-13T16:33:44Z</time>
      </trkpt>
      <trkpt lat="45.97235" lon="5.75113">
        <ele>1183</ele>
        <time>2026-05-13T16:33:45Z</time>
      </trkpt>
      <trkpt lat="45.97239" lon="5.75113">
        <ele>1182.2</ele>
        <time>2026-05-13T16:33:46Z</time>
      </trkpt>
      <trkpt lat="45.97242" lon="5.75114">
        <ele>1182</ele>
        <time>2026-05-13T16:33:47Z</time>
      </trkpt>
      <trkpt lat="45.97245" lon="5.75115">
        <ele>1181.2</ele>
        <time>2026-05-13T16:33:48Z</time>
      </trkpt>
      <trkpt lat="45.97249" lon="5.75116">
        <ele>1180.8</ele>
        <time>2026-05-13T16:33:49Z</time>
      </trkpt>
      <trkpt lat="45.97252" lon="5.75118">
        <ele>1180.4</ele>
        <time>2026-05-13T16:33:50Z</time>
      </trkpt>
      <trkpt lat="45.97256" lon="5.75119">
        <ele>1179.8</ele>
        <time>2026-05-13T16:33:51Z</time>
      </trkpt>
      <trkpt lat="45.97259" lon="5.7512">
        <ele>1179.4</ele>
        <time>2026-05-13T16:33:52Z</time>
      </trkpt>
      <trkpt lat="45.97263" lon="5.75121">
        <ele>1179</ele>
        <time>2026-05-13T16:33:53Z</time>
      </trkpt>
      <trkpt lat="45.97266" lon="5.75123">
        <ele>1178.6</ele>
        <time>2026-05-13T16:33:54Z</time>
      </trkpt>
      <trkpt lat="45.97269" lon="5.75124">
        <ele>1178.4</ele>
        <time>2026-05-13T16:33:55Z</time>
      </trkpt>
      <trkpt lat="45.97274" lon="5.75129">
        <ele>1177.6</ele>
        <time>2026-05-13T16:33:56Z</time>
      </trkpt>
      <trkpt lat="45.97277" lon="5.75134">
        <ele>1177</ele>
        <time>2026-05-13T16:33:57Z</time>
      </trkpt>
      <trkpt lat="45.9728" lon="5.75137">
        <ele>1177</ele>
        <time>2026-05-13T16:33:58Z</time>
      </trkpt>
      <trkpt lat="45.97283" lon="5.75141">
        <ele>1176.4</ele>
        <time>2026-05-13T16:33:59Z</time>
      </trkpt>
      <trkpt lat="45.97286" lon="5.75142">
        <ele>1176.2</ele>
        <time>2026-05-13T16:34:00Z</time>
      </trkpt>
      <trkpt lat="45.97289" lon="5.75144">
        <ele>1176</ele>
        <time>2026-05-13T16:34:01Z</time>
      </trkpt>
      <trkpt lat="45.97291" lon="5.75145">
        <ele>1176</ele>
        <time>2026-05-13T16:34:02Z</time>
      </trkpt>
      <trkpt lat="45.97293" lon="5.75146">
        <ele>1176.2</ele>
        <time>2026-05-13T16:34:03Z</time>
      </trkpt>
      <trkpt lat="45.97294" lon="5.75147">
        <ele>1176.2</ele>
        <time>2026-05-13T16:34:04Z</time>
      </trkpt>
      <trkpt lat="45.97296" lon="5.75148">
        <ele>1176.2</ele>
        <time>2026-05-13T16:34:05Z</time>
      </trkpt>
      <trkpt lat="45.97298" lon="5.75149">
        <ele>1176.2</ele>
        <time>2026-05-13T16:34:06Z</time>
      </trkpt>
      <trkpt lat="45.97299" lon="5.75149">
        <ele>1176.2</ele>
        <time>2026-05-13T16:34:07Z</time>
      </trkpt>
      <trkpt lat="45.97301" lon="5.75151">
        <ele>1176.2</ele>
        <time>2026-05-13T16:34:08Z</time>
      </trkpt>
      <trkpt lat="45.97303" lon="5.75152">
        <ele>1176.6</ele>
        <time>2026-05-13T16:34:09Z</time>
      </trkpt>
      <trkpt lat="45.97305" lon="5.75153">
        <ele>1176.6</ele>
        <time>2026-05-13T16:34:10Z</time>
      </trkpt>
      <trkpt lat="45.97307" lon="5.75154">
        <ele>1177.2</ele>
        <time>2026-05-13T16:34:11Z</time>
      </trkpt>
      <trkpt lat="45.97309" lon="5.75155">
        <ele>1177.4</ele>
        <time>2026-05-13T16:34:12Z</time>
      </trkpt>
      <trkpt lat="45.97311" lon="5.75156">
        <ele>1177.4</ele>
        <time>2026-05-13T16:34:13Z</time>
      </trkpt>
      <trkpt lat="45.97313" lon="5.75157">
        <ele>1177.4</ele>
        <time>2026-05-13T16:34:14Z</time>
      </trkpt>
      <trkpt lat="45.97315" lon="5.75159">
        <ele>1177.4</ele>
        <time>2026-05-13T16:34:15Z</time>
      </trkpt>
      <trkpt lat="45.97316" lon="5.7516">
        <ele>1177.6</ele>
        <time>2026-05-13T16:34:16Z</time>
      </trkpt>
      <trkpt lat="45.97318" lon="5.75161">
        <ele>1177.6</ele>
        <time>2026-05-13T16:34:17Z</time>
      </trkpt>
      <trkpt lat="45.9732" lon="5.75162">
        <ele>1177.6</ele>
        <time>2026-05-13T16:34:18Z</time>
      </trkpt>
      <trkpt lat="45.97322" lon="5.75162">
        <ele>1177.6</ele>
        <time>2026-05-13T16:34:19Z</time>
      </trkpt>
      <trkpt lat="45.97323" lon="5.75163">
        <ele>1177.8</ele>
        <time>2026-05-13T16:34:20Z</time>
      </trkpt>
      <trkpt lat="45.97324" lon="5.75163">
        <ele>1177.8</ele>
        <time>2026-05-13T16:34:21Z</time>
      </trkpt>
      <trkpt lat="45.97325" lon="5.75162">
        <ele>1177.8</ele>
        <time>2026-05-13T16:34:22Z</time>
      </trkpt>
      <trkpt lat="45.97327" lon="5.75163">
        <ele>1178</ele>
        <time>2026-05-13T16:34:23Z</time>
      </trkpt>
      <trkpt lat="45.97328" lon="5.75163">
        <ele>1178</ele>
        <time>2026-05-13T16:34:24Z</time>
      </trkpt>
      <trkpt lat="45.97329" lon="5.75163">
        <ele>1178</ele>
        <time>2026-05-13T16:34:25Z</time>
      </trkpt>
      <trkpt lat="45.97331" lon="5.75164">
        <ele>1178</ele>
        <time>2026-05-13T16:34:26Z</time>
      </trkpt>
      <trkpt lat="45.97332" lon="5.75164">
        <ele>1178.2</ele>
        <time>2026-05-13T16:34:27Z</time>
      </trkpt>
      <trkpt lat="45.97334" lon="5.75164">
        <ele>1178.6</ele>
        <time>2026-05-13T16:34:28Z</time>
      </trkpt>
      <trkpt lat="45.97336" lon="5.75164">
        <ele>1178.8</ele>
        <time>2026-05-13T16:34:29Z</time>
      </trkpt>
      <trkpt lat="45.97337" lon="5.75164">
        <ele>1179.2</ele>
        <time>2026-05-13T16:34:30Z</time>
      </trkpt>
      <trkpt lat="45.97338" lon="5.75163">
        <ele>1179.2</ele>
        <time>2026-05-13T16:34:31Z</time>
      </trkpt>
      <trkpt lat="45.9734" lon="5.75163">
        <ele>1179.4</ele>
        <time>2026-05-13T16:34:32Z</time>
      </trkpt>
      <trkpt lat="45.97342" lon="5.75163">
        <ele>1179.4</ele>
        <time>2026-05-13T16:34:33Z</time>
      </trkpt>
      <trkpt lat="45.97344" lon="5.75163">
        <ele>1179.6</ele>
        <time>2026-05-13T16:34:34Z</time>
      </trkpt>
      <trkpt lat="45.97345" lon="5.75163">
        <ele>1179.6</ele>
        <time>2026-05-13T16:34:35Z</time>
      </trkpt>
      <trkpt lat="45.97347" lon="5.75163">
        <ele>1179.8</ele>
        <time>2026-05-13T16:34:36Z</time>
      </trkpt>
      <trkpt lat="45.97348" lon="5.75163">
        <ele>1179.8</ele>
        <time>2026-05-13T16:34:37Z</time>
      </trkpt>
      <trkpt lat="45.9735" lon="5.75163">
        <ele>1179.8</ele>
        <time>2026-05-13T16:34:38Z</time>
      </trkpt>
      <trkpt lat="45.97351" lon="5.75163">
        <ele>1179.8</ele>
        <time>2026-05-13T16:34:39Z</time>
      </trkpt>
      <trkpt lat="45.97353" lon="5.75163">
        <ele>1179.8</ele>
        <time>2026-05-13T16:34:40Z</time>
      </trkpt>
      <trkpt lat="45.97354" lon="5.75163">
        <ele>1180.2</ele>
        <time>2026-05-13T16:34:41Z</time>
      </trkpt>
      <trkpt lat="45.97356" lon="5.75163">
        <ele>1180.2</ele>
        <time>2026-05-13T16:34:42Z</time>
      </trkpt>
      <trkpt lat="45.97358" lon="5.75163">
        <ele>1180.2</ele>
        <time>2026-05-13T16:34:43Z</time>
      </trkpt>
      <trkpt lat="45.9736" lon="5.75163">
        <ele>1180.4</ele>
        <time>2026-05-13T16:34:44Z</time>
      </trkpt>
      <trkpt lat="45.97361" lon="5.75163">
        <ele>1180.4</ele>
        <time>2026-05-13T16:34:45Z</time>
      </trkpt>
      <trkpt lat="45.97363" lon="5.75163">
        <ele>1181</ele>
        <time>2026-05-13T16:34:46Z</time>
      </trkpt>
      <trkpt lat="45.97364" lon="5.75163">
        <ele>1181.2</ele>
        <time>2026-05-13T16:34:47Z</time>
      </trkpt>
      <trkpt lat="45.97366" lon="5.75162">
        <ele>1181.6</ele>
        <time>2026-05-13T16:34:48Z</time>
      </trkpt>
      <trkpt lat="45.97367" lon="5.75162">
        <ele>1181.6</ele>
        <time>2026-05-13T16:34:49Z</time>
      </trkpt>
      <trkpt lat="45.97368" lon="5.75162">
        <ele>1181.8</ele>
        <time>2026-05-13T16:34:50Z</time>
      </trkpt>
      <trkpt lat="45.9737" lon="5.75161">
        <ele>1181.8</ele>
        <time>2026-05-13T16:34:51Z</time>
      </trkpt>
      <trkpt lat="45.97371" lon="5.75161">
        <ele>1182.2</ele>
        <time>2026-05-13T16:34:52Z</time>
      </trkpt>
      <trkpt lat="45.97373" lon="5.7516">
        <ele>1182.2</ele>
        <time>2026-05-13T16:34:53Z</time>
      </trkpt>
      <trkpt lat="45.97374" lon="5.75159">
        <ele>1182.6</ele>
        <time>2026-05-13T16:34:54Z</time>
      </trkpt>
      <trkpt lat="45.97375" lon="5.75159">
        <ele>1182.8</ele>
        <time>2026-05-13T16:34:55Z</time>
      </trkpt>
      <trkpt lat="45.97376" lon="5.75159">
        <ele>1183</ele>
        <time>2026-05-13T16:34:56Z</time>
      </trkpt>
      <trkpt lat="45.97375" lon="5.75158">
        <ele>1183</ele>
        <time>2026-05-13T16:34:57Z</time>
      </trkpt>
      <trkpt lat="45.97375" lon="5.75158">
        <ele>1183</ele>
        <time>2026-05-13T16:34:58Z</time>
      </trkpt>
      <trkpt lat="45.97376" lon="5.75158">
        <ele>1183.2</ele>
        <time>2026-05-13T16:34:59Z</time>
      </trkpt>
      <trkpt lat="45.97376" lon="5.75158">
        <ele>1183.2</ele>
        <time>2026-05-13T16:35:00Z</time>
      </trkpt>
      <trkpt lat="45.97377" lon="5.75158">
        <ele>1183.2</ele>
        <time>2026-05-13T16:35:01Z</time>
      </trkpt>
      <trkpt lat="45.97378" lon="5.75158">
        <ele>1183.2</ele>
        <time>2026-05-13T16:35:02Z</time>
      </trkpt>
      <trkpt lat="45.97379" lon="5.75158">
        <ele>1183.6</ele>
        <time>2026-05-13T16:35:03Z</time>
      </trkpt>
      <trkpt lat="45.9738" lon="5.75157">
        <ele>1183.6</ele>
        <time>2026-05-13T16:35:04Z</time>
      </trkpt>
      <trkpt lat="45.97381" lon="5.75157">
        <ele>1183.6</ele>
        <time>2026-05-13T16:35:05Z</time>
      </trkpt>
      <trkpt lat="45.97382" lon="5.75157">
        <ele>1183.6</ele>
        <time>2026-05-13T16:35:06Z</time>
      </trkpt>
      <trkpt lat="45.97383" lon="5.75157">
        <ele>1183.6</ele>
        <time>2026-05-13T16:35:07Z</time>
      </trkpt>
      <trkpt lat="45.97384" lon="5.75156">
        <ele>1183.8</ele>
        <time>2026-05-13T16:35:08Z</time>
      </trkpt>
      <trkpt lat="45.97386" lon="5.75156">
        <ele>1183.8</ele>
        <time>2026-05-13T16:35:09Z</time>
      </trkpt>
      <trkpt lat="45.97387" lon="5.75155">
        <ele>1184</ele>
        <time>2026-05-13T16:35:10Z</time>
      </trkpt>
      <trkpt lat="45.97387" lon="5.75154">
        <ele>1184</ele>
        <time>2026-05-13T16:35:11Z</time>
      </trkpt>
      <trkpt lat="45.97388" lon="5.75153">
        <ele>1184</ele>
        <time>2026-05-13T16:35:12Z</time>
      </trkpt>
      <trkpt lat="45.97389" lon="5.75152">
        <ele>1184.6</ele>
        <time>2026-05-13T16:35:13Z</time>
      </trkpt>
      <trkpt lat="45.9739" lon="5.75152">
        <ele>1184.6</ele>
        <time>2026-05-13T16:35:14Z</time>
      </trkpt>
      <trkpt lat="45.97391" lon="5.75151">
        <ele>1184.6</ele>
        <time>2026-05-13T16:35:15Z</time>
      </trkpt>
      <trkpt lat="45.97391" lon="5.7515">
        <ele>1184.8</ele>
        <time>2026-05-13T16:35:16Z</time>
      </trkpt>
      <trkpt lat="45.97392" lon="5.75149">
        <ele>1185</ele>
        <time>2026-05-13T16:35:17Z</time>
      </trkpt>
      <trkpt lat="45.97393" lon="5.75148">
        <ele>1185</ele>
        <time>2026-05-13T16:35:18Z</time>
      </trkpt>
      <trkpt lat="45.97394" lon="5.75148">
        <ele>1185.4</ele>
        <time>2026-05-13T16:35:19Z</time>
      </trkpt>
      <trkpt lat="45.97395" lon="5.75147">
        <ele>1185.4</ele>
        <time>2026-05-13T16:35:20Z</time>
      </trkpt>
      <trkpt lat="45.97396" lon="5.75147">
        <ele>1185.4</ele>
        <time>2026-05-13T16:35:21Z</time>
      </trkpt>
      <trkpt lat="45.97396" lon="5.75147">
        <ele>1185.8</ele>
        <time>2026-05-13T16:35:22Z</time>
      </trkpt>
      <trkpt lat="45.97396" lon="5.75146">
        <ele>1185.8</ele>
        <time>2026-05-13T16:35:23Z</time>
      </trkpt>
      <trkpt lat="45.97397" lon="5.75145">
        <ele>1185.8</ele>
        <time>2026-05-13T16:35:24Z</time>
      </trkpt>
      <trkpt lat="45.97398" lon="5.75144">
        <ele>1185.8</ele>
        <time>2026-05-13T16:35:25Z</time>
      </trkpt>
      <trkpt lat="45.97399" lon="5.75143">
        <ele>1186</ele>
        <time>2026-05-13T16:35:26Z</time>
      </trkpt>
      <trkpt lat="45.97399" lon="5.75143">
        <ele>1186</ele>
        <time>2026-05-13T16:35:27Z</time>
      </trkpt>
      <trkpt lat="45.974" lon="5.75142">
        <ele>1186.4</ele>
        <time>2026-05-13T16:35:28Z</time>
      </trkpt>
      <trkpt lat="45.97401" lon="5.75141">
        <ele>1186.4</ele>
        <time>2026-05-13T16:35:29Z</time>
      </trkpt>
      <trkpt lat="45.97402" lon="5.75141">
        <ele>1186.8</ele>
        <time>2026-05-13T16:35:30Z</time>
      </trkpt>
      <trkpt lat="45.97403" lon="5.7514">
        <ele>1186.8</ele>
        <time>2026-05-13T16:35:31Z</time>
      </trkpt>
      <trkpt lat="45.97404" lon="5.7514">
        <ele>1187</ele>
        <time>2026-05-13T16:35:32Z</time>
      </trkpt>
      <trkpt lat="45.97404" lon="5.75138">
        <ele>1187</ele>
        <time>2026-05-13T16:35:33Z</time>
      </trkpt>
      <trkpt lat="45.97405" lon="5.75137">
        <ele>1187.2</ele>
        <time>2026-05-13T16:35:34Z</time>
      </trkpt>
      <trkpt lat="45.97406" lon="5.75136">
        <ele>1187.2</ele>
        <time>2026-05-13T16:35:35Z</time>
      </trkpt>
      <trkpt lat="45.97407" lon="5.75135">
        <ele>1187.4</ele>
        <time>2026-05-13T16:35:36Z</time>
      </trkpt>
      <trkpt lat="45.97407" lon="5.75135">
        <ele>1187.8</ele>
        <time>2026-05-13T16:35:37Z</time>
      </trkpt>
      <trkpt lat="45.97408" lon="5.75135">
        <ele>1187.8</ele>
        <time>2026-05-13T16:35:38Z</time>
      </trkpt>
      <trkpt lat="45.97408" lon="5.75134">
        <ele>1188</ele>
        <time>2026-05-13T16:35:39Z</time>
      </trkpt>
      <trkpt lat="45.97409" lon="5.75134">
        <ele>1188.4</ele>
        <time>2026-05-13T16:35:40Z</time>
      </trkpt>
      <trkpt lat="45.9741" lon="5.75134">
        <ele>1188.4</ele>
        <time>2026-05-13T16:35:41Z</time>
      </trkpt>
      <trkpt lat="45.97412" lon="5.75133">
        <ele>1188.4</ele>
        <time>2026-05-13T16:35:42Z</time>
      </trkpt>
      <trkpt lat="45.97413" lon="5.75132">
        <ele>1188.4</ele>
        <time>2026-05-13T16:35:43Z</time>
      </trkpt>
      <trkpt lat="45.97413" lon="5.75131">
        <ele>1188.4</ele>
        <time>2026-05-13T16:35:44Z</time>
      </trkpt>
      <trkpt lat="45.97414" lon="5.75129">
        <ele>1188.6</ele>
        <time>2026-05-13T16:35:45Z</time>
      </trkpt>
      <trkpt lat="45.97415" lon="5.75128">
        <ele>1188.6</ele>
        <time>2026-05-13T16:35:46Z</time>
      </trkpt>
      <trkpt lat="45.97416" lon="5.75127">
        <ele>1189</ele>
        <time>2026-05-13T16:35:47Z</time>
      </trkpt>
      <trkpt lat="45.97417" lon="5.75126">
        <ele>1189</ele>
        <time>2026-05-13T16:35:48Z</time>
      </trkpt>
      <trkpt lat="45.97418" lon="5.75125">
        <ele>1189</ele>
        <time>2026-05-13T16:35:49Z</time>
      </trkpt>
      <trkpt lat="45.97419" lon="5.75125">
        <ele>1189.2</ele>
        <time>2026-05-13T16:35:50Z</time>
      </trkpt>
      <trkpt lat="45.9742" lon="5.75123">
        <ele>1189.2</ele>
        <time>2026-05-13T16:35:51Z</time>
      </trkpt>
      <trkpt lat="45.97421" lon="5.75123">
        <ele>1189.2</ele>
        <time>2026-05-13T16:35:52Z</time>
      </trkpt>
      <trkpt lat="45.97422" lon="5.75121">
        <ele>1189.6</ele>
        <time>2026-05-13T16:35:53Z</time>
      </trkpt>
      <trkpt lat="45.97423" lon="5.7512">
        <ele>1189.6</ele>
        <time>2026-05-13T16:35:54Z</time>
      </trkpt>
      <trkpt lat="45.97424" lon="5.75119">
        <ele>1190</ele>
        <time>2026-05-13T16:35:55Z</time>
      </trkpt>
      <trkpt lat="45.97425" lon="5.75119">
        <ele>1190.2</ele>
        <time>2026-05-13T16:35:56Z</time>
      </trkpt>
      <trkpt lat="45.97426" lon="5.75118">
        <ele>1190.2</ele>
        <time>2026-05-13T16:35:57Z</time>
      </trkpt>
      <trkpt lat="45.97427" lon="5.75118">
        <ele>1190.6</ele>
        <time>2026-05-13T16:35:58Z</time>
      </trkpt>
      <trkpt lat="45.97428" lon="5.75117">
        <ele>1190.6</ele>
        <time>2026-05-13T16:35:59Z</time>
      </trkpt>
      <trkpt lat="45.97429" lon="5.75117">
        <ele>1190.6</ele>
        <time>2026-05-13T16:36:00Z</time>
      </trkpt>
      <trkpt lat="45.9743" lon="5.75117">
        <ele>1190.8</ele>
        <time>2026-05-13T16:36:01Z</time>
      </trkpt>
      <trkpt lat="45.9743" lon="5.75117">
        <ele>1190.8</ele>
        <time>2026-05-13T16:36:02Z</time>
      </trkpt>
      <trkpt lat="45.97431" lon="5.75116">
        <ele>1190.8</ele>
        <time>2026-05-13T16:36:05Z</time>
      </trkpt>
      <trkpt lat="45.97432" lon="5.75115">
        <ele>1190.8</ele>
        <time>2026-05-13T16:36:06Z</time>
      </trkpt>
      <trkpt lat="45.97433" lon="5.75115">
        <ele>1190.8</ele>
        <time>2026-05-13T16:36:07Z</time>
      </trkpt>
      <trkpt lat="45.97434" lon="5.75114">
        <ele>1190.8</ele>
        <time>2026-05-13T16:36:08Z</time>
      </trkpt>
      <trkpt lat="45.97435" lon="5.75114">
        <ele>1190.8</ele>
        <time>2026-05-13T16:36:09Z</time>
      </trkpt>
      <trkpt lat="45.97437" lon="5.75113">
        <ele>1191</ele>
        <time>2026-05-13T16:36:10Z</time>
      </trkpt>
      <trkpt lat="45.97438" lon="5.75113">
        <ele>1191</ele>
        <time>2026-05-13T16:36:11Z</time>
      </trkpt>
      <trkpt lat="45.97438" lon="5.75112">
        <ele>1191</ele>
        <time>2026-05-13T16:36:12Z</time>
      </trkpt>
      <trkpt lat="45.97439" lon="5.75111">
        <ele>1191</ele>
        <time>2026-05-13T16:36:13Z</time>
      </trkpt>
      <trkpt lat="45.9744" lon="5.7511">
        <ele>1191</ele>
        <time>2026-05-13T16:36:14Z</time>
      </trkpt>
      <trkpt lat="45.97442" lon="5.7511">
        <ele>1191</ele>
        <time>2026-05-13T16:36:15Z</time>
      </trkpt>
      <trkpt lat="45.97443" lon="5.75109">
        <ele>1191</ele>
        <time>2026-05-13T16:36:16Z</time>
      </trkpt>
      <trkpt lat="45.97444" lon="5.75109">
        <ele>1191</ele>
        <time>2026-05-13T16:36:17Z</time>
      </trkpt>
      <trkpt lat="45.97445" lon="5.7511">
        <ele>1191</ele>
        <time>2026-05-13T16:36:18Z</time>
      </trkpt>
      <trkpt lat="45.97444" lon="5.7511">
        <ele>1191</ele>
        <time>2026-05-13T16:36:19Z</time>
      </trkpt>
      <trkpt lat="45.97444" lon="5.7511">
        <ele>1190.4</ele>
        <time>2026-05-13T16:36:23Z</time>
      </trkpt>
      <trkpt lat="45.97445" lon="5.75109">
        <ele>1190.2</ele>
        <time>2026-05-13T16:36:24Z</time>
      </trkpt>
      <trkpt lat="45.97445" lon="5.75108">
        <ele>1190.2</ele>
        <time>2026-05-13T16:36:25Z</time>
      </trkpt>
      <trkpt lat="45.97452" lon="5.75109">
        <ele>1190</ele>
        <time>2026-05-13T16:37:56Z</time>
      </trkpt>
      <trkpt lat="45.97453" lon="5.75109">
        <ele>1190</ele>
        <time>2026-05-13T16:37:57Z</time>
      </trkpt>
      <trkpt lat="45.97454" lon="5.75108">
        <ele>1190</ele>
        <time>2026-05-13T16:37:58Z</time>
      </trkpt>
      <trkpt lat="45.97457" lon="5.75108">
        <ele>1190</ele>
        <time>2026-05-13T16:37:59Z</time>
      </trkpt>
      <trkpt lat="45.97461" lon="5.75107">
        <ele>1189</ele>
        <time>2026-05-13T16:38:00Z</time>
      </trkpt>
      <trkpt lat="45.97463" lon="5.75108">
        <ele>1189</ele>
        <time>2026-05-13T16:38:01Z</time>
      </trkpt>
      <trkpt lat="45.97466" lon="5.75108">
        <ele>1188.4</ele>
        <time>2026-05-13T16:38:02Z</time>
      </trkpt>
      <trkpt lat="45.9747" lon="5.75109">
        <ele>1188</ele>
        <time>2026-05-13T16:38:03Z</time>
      </trkpt>
      <trkpt lat="45.97474" lon="5.75109">
        <ele>1188</ele>
        <time>2026-05-13T16:38:04Z</time>
      </trkpt>
      <trkpt lat="45.97477" lon="5.75111">
        <ele>1187.6</ele>
        <time>2026-05-13T16:38:05Z</time>
      </trkpt>
      <trkpt lat="45.97481" lon="5.75112">
        <ele>1187.6</ele>
        <time>2026-05-13T16:38:06Z</time>
      </trkpt>
      <trkpt lat="45.97484" lon="5.75113">
        <ele>1187.2</ele>
        <time>2026-05-13T16:38:07Z</time>
      </trkpt>
      <trkpt lat="45.97487" lon="5.75114">
        <ele>1187</ele>
        <time>2026-05-13T16:38:08Z</time>
      </trkpt>
      <trkpt lat="45.9749" lon="5.75115">
        <ele>1187</ele>
        <time>2026-05-13T16:38:09Z</time>
      </trkpt>
      <trkpt lat="45.97494" lon="5.75115">
        <ele>1187</ele>
        <time>2026-05-13T16:38:10Z</time>
      </trkpt>
      <trkpt lat="45.97497" lon="5.75116">
        <ele>1186.4</ele>
        <time>2026-05-13T16:38:11Z</time>
      </trkpt>
      <trkpt lat="45.97499" lon="5.75117">
        <ele>1186.4</ele>
        <time>2026-05-13T16:38:12Z</time>
      </trkpt>
      <trkpt lat="45.97501" lon="5.75118">
        <ele>1186.2</ele>
        <time>2026-05-13T16:38:13Z</time>
      </trkpt>
      <trkpt lat="45.97509" lon="5.75116">
        <ele>1185.8</ele>
        <time>2026-05-13T16:38:14Z</time>
      </trkpt>
      <trkpt lat="45.97512" lon="5.75117">
        <ele>1185.4</ele>
        <time>2026-05-13T16:38:15Z</time>
      </trkpt>
      <trkpt lat="45.97515" lon="5.75117">
        <ele>1185.4</ele>
        <time>2026-05-13T16:38:16Z</time>
      </trkpt>
      <trkpt lat="45.97517" lon="5.75117">
        <ele>1185</ele>
        <time>2026-05-13T16:38:17Z</time>
      </trkpt>
      <trkpt lat="45.9752" lon="5.75116">
        <ele>1183.6</ele>
        <time>2026-05-13T16:38:18Z</time>
      </trkpt>
      <trkpt lat="45.97523" lon="5.75119">
        <ele>1183.6</ele>
        <time>2026-05-13T16:38:19Z</time>
      </trkpt>
      <trkpt lat="45.97527" lon="5.7512">
        <ele>1183.6</ele>
        <time>2026-05-13T16:38:20Z</time>
      </trkpt>
      <trkpt lat="45.9753" lon="5.75122">
        <ele>1183</ele>
        <time>2026-05-13T16:38:21Z</time>
      </trkpt>
      <trkpt lat="45.97533" lon="5.75123">
        <ele>1182.8</ele>
        <time>2026-05-13T16:38:22Z</time>
      </trkpt>
      <trkpt lat="45.97535" lon="5.75124">
        <ele>1182.8</ele>
        <time>2026-05-13T16:38:23Z</time>
      </trkpt>
      <trkpt lat="45.97537" lon="5.75126">
        <ele>1182.8</ele>
        <time>2026-05-13T16:38:24Z</time>
      </trkpt>
      <trkpt lat="45.97538" lon="5.75129">
        <ele>1182.8</ele>
        <time>2026-05-13T16:38:25Z</time>
      </trkpt>
      <trkpt lat="45.97539" lon="5.75131">
        <ele>1182.2</ele>
        <time>2026-05-13T16:38:26Z</time>
      </trkpt>
      <trkpt lat="45.9754" lon="5.75134">
        <ele>1182.2</ele>
        <time>2026-05-13T16:38:27Z</time>
      </trkpt>
      <trkpt lat="45.97541" lon="5.75136">
        <ele>1181.6</ele>
        <time>2026-05-13T16:38:28Z</time>
      </trkpt>
      <trkpt lat="45.97544" lon="5.75138">
        <ele>1181.2</ele>
        <time>2026-05-13T16:38:29Z</time>
      </trkpt>
      <trkpt lat="45.97547" lon="5.7514">
        <ele>1181</ele>
        <time>2026-05-13T16:38:30Z</time>
      </trkpt>
      <trkpt lat="45.97549" lon="5.75141">
        <ele>1181</ele>
        <time>2026-05-13T16:38:31Z</time>
      </trkpt>
      <trkpt lat="45.97551" lon="5.75141">
        <ele>1180.6</ele>
        <time>2026-05-13T16:38:32Z</time>
      </trkpt>
      <trkpt lat="45.97553" lon="5.75144">
        <ele>1180.6</ele>
        <time>2026-05-13T16:38:33Z</time>
      </trkpt>
      <trkpt lat="45.97555" lon="5.75147">
        <ele>1180</ele>
        <time>2026-05-13T16:38:34Z</time>
      </trkpt>
      <trkpt lat="45.97556" lon="5.75149">
        <ele>1179.6</ele>
        <time>2026-05-13T16:38:35Z</time>
      </trkpt>
      <trkpt lat="45.97561" lon="5.75154">
        <ele>1179.4</ele>
        <time>2026-05-13T16:38:36Z</time>
      </trkpt>
      <trkpt lat="45.97564" lon="5.75155">
        <ele>1179</ele>
        <time>2026-05-13T16:38:37Z</time>
      </trkpt>
      <trkpt lat="45.97566" lon="5.7516">
        <ele>1178.8</ele>
        <time>2026-05-13T16:38:38Z</time>
      </trkpt>
      <trkpt lat="45.97569" lon="5.75163">
        <ele>1177.2</ele>
        <time>2026-05-13T16:38:39Z</time>
      </trkpt>
      <trkpt lat="45.97572" lon="5.75166">
        <ele>1177.2</ele>
        <time>2026-05-13T16:38:40Z</time>
      </trkpt>
      <trkpt lat="45.97575" lon="5.75171">
        <ele>1176.6</ele>
        <time>2026-05-13T16:38:41Z</time>
      </trkpt>
      <trkpt lat="45.97578" lon="5.75173">
        <ele>1176.2</ele>
        <time>2026-05-13T16:38:42Z</time>
      </trkpt>
      <trkpt lat="45.97582" lon="5.75175">
        <ele>1176.2</ele>
        <time>2026-05-13T16:38:43Z</time>
      </trkpt>
      <trkpt lat="45.97585" lon="5.75177">
        <ele>1175.8</ele>
        <time>2026-05-13T16:38:44Z</time>
      </trkpt>
      <trkpt lat="45.97587" lon="5.75179">
        <ele>1175.2</ele>
        <time>2026-05-13T16:38:45Z</time>
      </trkpt>
      <trkpt lat="45.97591" lon="5.75179">
        <ele>1175</ele>
        <time>2026-05-13T16:38:46Z</time>
      </trkpt>
      <trkpt lat="45.97593" lon="5.75179">
        <ele>1174.6</ele>
        <time>2026-05-13T16:38:47Z</time>
      </trkpt>
      <trkpt lat="45.97594" lon="5.75179">
        <ele>1174.4</ele>
        <time>2026-05-13T16:38:48Z</time>
      </trkpt>
      <trkpt lat="45.97596" lon="5.7518">
        <ele>1174.2</ele>
        <time>2026-05-13T16:38:49Z</time>
      </trkpt>
      <trkpt lat="45.97599" lon="5.7518">
        <ele>1174.2</ele>
        <time>2026-05-13T16:38:50Z</time>
      </trkpt>
      <trkpt lat="45.97602" lon="5.7518">
        <ele>1173.4</ele>
        <time>2026-05-13T16:38:51Z</time>
      </trkpt>
      <trkpt lat="45.97604" lon="5.75179">
        <ele>1173</ele>
        <time>2026-05-13T16:38:52Z</time>
      </trkpt>
      <trkpt lat="45.97607" lon="5.75179">
        <ele>1172.8</ele>
        <time>2026-05-13T16:38:53Z</time>
      </trkpt>
      <trkpt lat="45.97608" lon="5.75179">
        <ele>1172.2</ele>
        <time>2026-05-13T16:38:54Z</time>
      </trkpt>
      <trkpt lat="45.97609" lon="5.75179">
        <ele>1172.2</ele>
        <time>2026-05-13T16:38:55Z</time>
      </trkpt>
      <trkpt lat="45.97611" lon="5.7518">
        <ele>1171.6</ele>
        <time>2026-05-13T16:38:56Z</time>
      </trkpt>
      <trkpt lat="45.97613" lon="5.7518">
        <ele>1171.2</ele>
        <time>2026-05-13T16:38:57Z</time>
      </trkpt>
      <trkpt lat="45.97614" lon="5.75181">
        <ele>1170.8</ele>
        <time>2026-05-13T16:38:58Z</time>
      </trkpt>
      <trkpt lat="45.97615" lon="5.75182">
        <ele>1170.4</ele>
        <time>2026-05-13T16:38:59Z</time>
      </trkpt>
      <trkpt lat="45.97616" lon="5.75182">
        <ele>1170</ele>
        <time>2026-05-13T16:39:00Z</time>
      </trkpt>
      <trkpt lat="45.97616" lon="5.75182">
        <ele>1169.6</ele>
        <time>2026-05-13T16:39:01Z</time>
      </trkpt>
      <trkpt lat="45.97617" lon="5.75181">
        <ele>1169.2</ele>
        <time>2026-05-13T16:39:02Z</time>
      </trkpt>
      <trkpt lat="45.97619" lon="5.75181">
        <ele>1168.4</ele>
        <time>2026-05-13T16:39:03Z</time>
      </trkpt>
      <trkpt lat="45.97621" lon="5.7518">
        <ele>1168</ele>
        <time>2026-05-13T16:39:04Z</time>
      </trkpt>
      <trkpt lat="45.97624" lon="5.75179">
        <ele>1168</ele>
        <time>2026-05-13T16:39:05Z</time>
      </trkpt>
      <trkpt lat="45.97624" lon="5.75179">
        <ele>1168</ele>
        <time>2026-05-13T16:39:06Z</time>
      </trkpt>
      <trkpt lat="45.97627" lon="5.75179">
        <ele>1167.4</ele>
        <time>2026-05-13T16:39:07Z</time>
      </trkpt>
      <trkpt lat="45.97629" lon="5.75179">
        <ele>1167.4</ele>
        <time>2026-05-13T16:39:08Z</time>
      </trkpt>
      <trkpt lat="45.97631" lon="5.7518">
        <ele>1167</ele>
        <time>2026-05-13T16:39:09Z</time>
      </trkpt>
      <trkpt lat="45.97634" lon="5.75181">
        <ele>1166.6</ele>
        <time>2026-05-13T16:39:10Z</time>
      </trkpt>
      <trkpt lat="45.97637" lon="5.75182">
        <ele>1166.4</ele>
        <time>2026-05-13T16:39:11Z</time>
      </trkpt>
      <trkpt lat="45.97639" lon="5.75183">
        <ele>1166.4</ele>
        <time>2026-05-13T16:39:12Z</time>
      </trkpt>
      <trkpt lat="45.97642" lon="5.75183">
        <ele>1166.4</ele>
        <time>2026-05-13T16:39:13Z</time>
      </trkpt>
      <trkpt lat="45.97645" lon="5.75185">
        <ele>1165.8</ele>
        <time>2026-05-13T16:39:14Z</time>
      </trkpt>
      <trkpt lat="45.97647" lon="5.75186">
        <ele>1165.4</ele>
        <time>2026-05-13T16:39:15Z</time>
      </trkpt>
      <trkpt lat="45.9765" lon="5.75187">
        <ele>1165.2</ele>
        <time>2026-05-13T16:39:16Z</time>
      </trkpt>
      <trkpt lat="45.97654" lon="5.75188">
        <ele>1165</ele>
        <time>2026-05-13T16:39:17Z</time>
      </trkpt>
      <trkpt lat="45.97657" lon="5.75189">
        <ele>1164.6</ele>
        <time>2026-05-13T16:39:18Z</time>
      </trkpt>
      <trkpt lat="45.97661" lon="5.75191">
        <ele>1164.2</ele>
        <time>2026-05-13T16:39:19Z</time>
      </trkpt>
      <trkpt lat="45.97665" lon="5.75194">
        <ele>1163.6</ele>
        <time>2026-05-13T16:39:20Z</time>
      </trkpt>
      <trkpt lat="45.97671" lon="5.75197">
        <ele>1163.2</ele>
        <time>2026-05-13T16:39:21Z</time>
      </trkpt>
      <trkpt lat="45.97673" lon="5.75198">
        <ele>1163</ele>
        <time>2026-05-13T16:39:22Z</time>
      </trkpt>
      <trkpt lat="45.97676" lon="5.75199">
        <ele>1160.4</ele>
        <time>2026-05-13T16:39:23Z</time>
      </trkpt>
      <trkpt lat="45.97679" lon="5.75201">
        <ele>1160.8</ele>
        <time>2026-05-13T16:39:24Z</time>
      </trkpt>
      <trkpt lat="45.97682" lon="5.75201">
        <ele>1160.8</ele>
        <time>2026-05-13T16:39:25Z</time>
      </trkpt>
      <trkpt lat="45.97685" lon="5.75205">
        <ele>1161</ele>
        <time>2026-05-13T16:39:26Z</time>
      </trkpt>
      <trkpt lat="45.9769" lon="5.75207">
        <ele>1161</ele>
        <time>2026-05-13T16:39:27Z</time>
      </trkpt>
      <trkpt lat="45.97692" lon="5.75208">
        <ele>1161</ele>
        <time>2026-05-13T16:39:28Z</time>
      </trkpt>
      <trkpt lat="45.97695" lon="5.7521">
        <ele>1160.6</ele>
        <time>2026-05-13T16:39:29Z</time>
      </trkpt>
      <trkpt lat="45.97699" lon="5.7521">
        <ele>1160.6</ele>
        <time>2026-05-13T16:39:30Z</time>
      </trkpt>
      <trkpt lat="45.97702" lon="5.75209">
        <ele>1160.4</ele>
        <time>2026-05-13T16:39:31Z</time>
      </trkpt>
      <trkpt lat="45.97705" lon="5.75209">
        <ele>1160</ele>
        <time>2026-05-13T16:39:32Z</time>
      </trkpt>
      <trkpt lat="45.97708" lon="5.75209">
        <ele>1159.8</ele>
        <time>2026-05-13T16:39:33Z</time>
      </trkpt>
      <trkpt lat="45.97711" lon="5.75209">
        <ele>1159.4</ele>
        <time>2026-05-13T16:39:34Z</time>
      </trkpt>
      <trkpt lat="45.97714" lon="5.75208">
        <ele>1159</ele>
        <time>2026-05-13T16:39:35Z</time>
      </trkpt>
      <trkpt lat="45.97717" lon="5.75206">
        <ele>1158.8</ele>
        <time>2026-05-13T16:39:36Z</time>
      </trkpt>
      <trkpt lat="45.97721" lon="5.75205">
        <ele>1158.4</ele>
        <time>2026-05-13T16:39:37Z</time>
      </trkpt>
      <trkpt lat="45.97724" lon="5.75204">
        <ele>1158.2</ele>
        <time>2026-05-13T16:39:38Z</time>
      </trkpt>
      <trkpt lat="45.97728" lon="5.75204">
        <ele>1157.8</ele>
        <time>2026-05-13T16:39:39Z</time>
      </trkpt>
      <trkpt lat="45.97732" lon="5.75204">
        <ele>1157.2</ele>
        <time>2026-05-13T16:39:40Z</time>
      </trkpt>
      <trkpt lat="45.97735" lon="5.75204">
        <ele>1157.2</ele>
        <time>2026-05-13T16:39:41Z</time>
      </trkpt>
      <trkpt lat="45.97738" lon="5.75203">
        <ele>1156.8</ele>
        <time>2026-05-13T16:39:42Z</time>
      </trkpt>
      <trkpt lat="45.97741" lon="5.75203">
        <ele>1156.4</ele>
        <time>2026-05-13T16:39:43Z</time>
      </trkpt>
      <trkpt lat="45.97744" lon="5.75202">
        <ele>1156</ele>
        <time>2026-05-13T16:39:44Z</time>
      </trkpt>
      <trkpt lat="45.97745" lon="5.75202">
        <ele>1155.6</ele>
        <time>2026-05-13T16:39:45Z</time>
      </trkpt>
      <trkpt lat="45.97748" lon="5.75201">
        <ele>1155.4</ele>
        <time>2026-05-13T16:39:46Z</time>
      </trkpt>
      <trkpt lat="45.9775" lon="5.75199">
        <ele>1155</ele>
        <time>2026-05-13T16:39:47Z</time>
      </trkpt>
      <trkpt lat="45.97752" lon="5.75198">
        <ele>1154.8</ele>
        <time>2026-05-13T16:39:48Z</time>
      </trkpt>
      <trkpt lat="45.97753" lon="5.75197">
        <ele>1154.8</ele>
        <time>2026-05-13T16:39:49Z</time>
      </trkpt>
      <trkpt lat="45.97755" lon="5.75197">
        <ele>1154.2</ele>
        <time>2026-05-13T16:39:50Z</time>
      </trkpt>
      <trkpt lat="45.97758" lon="5.75197">
        <ele>1153.6</ele>
        <time>2026-05-13T16:39:51Z</time>
      </trkpt>
      <trkpt lat="45.97762" lon="5.75196">
        <ele>1153.6</ele>
        <time>2026-05-13T16:39:52Z</time>
      </trkpt>
      <trkpt lat="45.97766" lon="5.75195">
        <ele>1153</ele>
        <time>2026-05-13T16:39:53Z</time>
      </trkpt>
      <trkpt lat="45.9777" lon="5.75195">
        <ele>1152.6</ele>
        <time>2026-05-13T16:39:54Z</time>
      </trkpt>
      <trkpt lat="45.97773" lon="5.75196">
        <ele>1152.4</ele>
        <time>2026-05-13T16:39:55Z</time>
      </trkpt>
      <trkpt lat="45.97774" lon="5.75196">
        <ele>1152</ele>
        <time>2026-05-13T16:39:56Z</time>
      </trkpt>
      <trkpt lat="45.97776" lon="5.75197">
        <ele>1151.8</ele>
        <time>2026-05-13T16:39:57Z</time>
      </trkpt>
      <trkpt lat="45.97778" lon="5.75198">
        <ele>1151.8</ele>
        <time>2026-05-13T16:39:58Z</time>
      </trkpt>
      <trkpt lat="45.9778" lon="5.75198">
        <ele>1151.4</ele>
        <time>2026-05-13T16:39:59Z</time>
      </trkpt>
      <trkpt lat="45.97781" lon="5.75199">
        <ele>1151.2</ele>
        <time>2026-05-13T16:40:00Z</time>
      </trkpt>
      <trkpt lat="45.97782" lon="5.75199">
        <ele>1151.2</ele>
        <time>2026-05-13T16:40:01Z</time>
      </trkpt>
      <trkpt lat="45.97783" lon="5.75199">
        <ele>1151</ele>
        <time>2026-05-13T16:40:02Z</time>
      </trkpt>
      <trkpt lat="45.97784" lon="5.752">
        <ele>1150.6</ele>
        <time>2026-05-13T16:40:03Z</time>
      </trkpt>
      <trkpt lat="45.97784" lon="5.752">
        <ele>1150.6</ele>
        <time>2026-05-13T16:40:04Z</time>
      </trkpt>
      <trkpt lat="45.97786" lon="5.752">
        <ele>1150.6</ele>
        <time>2026-05-13T16:40:05Z</time>
      </trkpt>
      <trkpt lat="45.97788" lon="5.752">
        <ele>1150.2</ele>
        <time>2026-05-13T16:40:06Z</time>
      </trkpt>
      <trkpt lat="45.97789" lon="5.75201">
        <ele>1150.2</ele>
        <time>2026-05-13T16:40:07Z</time>
      </trkpt>
      <trkpt lat="45.97789" lon="5.75201">
        <ele>1150</ele>
        <time>2026-05-13T16:40:08Z</time>
      </trkpt>
      <trkpt lat="45.9779" lon="5.75201">
        <ele>1149.8</ele>
        <time>2026-05-13T16:40:09Z</time>
      </trkpt>
      <trkpt lat="45.97792" lon="5.75201">
        <ele>1149.6</ele>
        <time>2026-05-13T16:40:10Z</time>
      </trkpt>
      <trkpt lat="45.97795" lon="5.752">
        <ele>1149.6</ele>
        <time>2026-05-13T16:40:11Z</time>
      </trkpt>
      <trkpt lat="45.97798" lon="5.752">
        <ele>1149.2</ele>
        <time>2026-05-13T16:40:12Z</time>
      </trkpt>
      <trkpt lat="45.97801" lon="5.75199">
        <ele>1149</ele>
        <time>2026-05-13T16:40:13Z</time>
      </trkpt>
      <trkpt lat="45.97804" lon="5.75198">
        <ele>1149</ele>
        <time>2026-05-13T16:40:14Z</time>
      </trkpt>
      <trkpt lat="45.97806" lon="5.75198">
        <ele>1148.6</ele>
        <time>2026-05-13T16:40:15Z</time>
      </trkpt>
      <trkpt lat="45.97809" lon="5.75198">
        <ele>1148.6</ele>
        <time>2026-05-13T16:40:16Z</time>
      </trkpt>
      <trkpt lat="45.97812" lon="5.75198">
        <ele>1148.2</ele>
        <time>2026-05-13T16:40:17Z</time>
      </trkpt>
      <trkpt lat="45.97816" lon="5.75198">
        <ele>1148.2</ele>
        <time>2026-05-13T16:40:18Z</time>
      </trkpt>
      <trkpt lat="45.97818" lon="5.75198">
        <ele>1148.2</ele>
        <time>2026-05-13T16:40:19Z</time>
      </trkpt>
      <trkpt lat="45.97822" lon="5.75197">
        <ele>1147.8</ele>
        <time>2026-05-13T16:40:20Z</time>
      </trkpt>
      <trkpt lat="45.97826" lon="5.75197">
        <ele>1147.6</ele>
        <time>2026-05-13T16:40:21Z</time>
      </trkpt>
      <trkpt lat="45.97829" lon="5.75197">
        <ele>1147.4</ele>
        <time>2026-05-13T16:40:22Z</time>
      </trkpt>
      <trkpt lat="45.97833" lon="5.75197">
        <ele>1147</ele>
        <time>2026-05-13T16:40:23Z</time>
      </trkpt>
      <trkpt lat="45.97836" lon="5.75196">
        <ele>1147</ele>
        <time>2026-05-13T16:40:24Z</time>
      </trkpt>
      <trkpt lat="45.97841" lon="5.75196">
        <ele>1147</ele>
        <time>2026-05-13T16:40:25Z</time>
      </trkpt>
      <trkpt lat="45.97845" lon="5.75196">
        <ele>1146.8</ele>
        <time>2026-05-13T16:40:26Z</time>
      </trkpt>
      <trkpt lat="45.97849" lon="5.75196">
        <ele>1146.8</ele>
        <time>2026-05-13T16:40:27Z</time>
      </trkpt>
      <trkpt lat="45.97853" lon="5.75195">
        <ele>1146.2</ele>
        <time>2026-05-13T16:40:28Z</time>
      </trkpt>
      <trkpt lat="45.97856" lon="5.75194">
        <ele>1147.2</ele>
        <time>2026-05-13T16:40:29Z</time>
      </trkpt>
      <trkpt lat="45.9786" lon="5.75193">
        <ele>1146.6</ele>
        <time>2026-05-13T16:40:30Z</time>
      </trkpt>
      <trkpt lat="45.97865" lon="5.75192">
        <ele>1146.4</ele>
        <time>2026-05-13T16:40:31Z</time>
      </trkpt>
      <trkpt lat="45.97869" lon="5.75192">
        <ele>1146</ele>
        <time>2026-05-13T16:40:32Z</time>
      </trkpt>
      <trkpt lat="45.97875" lon="5.75192">
        <ele>1145.6</ele>
        <time>2026-05-13T16:40:33Z</time>
      </trkpt>
      <trkpt lat="45.97881" lon="5.75193">
        <ele>1145</ele>
        <time>2026-05-13T16:40:34Z</time>
      </trkpt>
      <trkpt lat="45.97886" lon="5.75193">
        <ele>1144</ele>
        <time>2026-05-13T16:40:35Z</time>
      </trkpt>
      <trkpt lat="45.97891" lon="5.75194">
        <ele>1143.4</ele>
        <time>2026-05-13T16:40:36Z</time>
      </trkpt>
      <trkpt lat="45.97895" lon="5.75197">
        <ele>1143.8</ele>
        <time>2026-05-13T16:40:37Z</time>
      </trkpt>
      <trkpt lat="45.97904" lon="5.75201">
        <ele>1143.4</ele>
        <time>2026-05-13T16:40:38Z</time>
      </trkpt>
      <trkpt lat="45.97911" lon="5.75205">
        <ele>1143</ele>
        <time>2026-05-13T16:40:39Z</time>
      </trkpt>
      <trkpt lat="45.97918" lon="5.75205">
        <ele>1142.4</ele>
        <time>2026-05-13T16:40:40Z</time>
      </trkpt>
      <trkpt lat="45.97923" lon="5.75206">
        <ele>1141.8</ele>
        <time>2026-05-13T16:40:41Z</time>
      </trkpt>
      <trkpt lat="45.97927" lon="5.75208">
        <ele>1141.4</ele>
        <time>2026-05-13T16:40:42Z</time>
      </trkpt>
      <trkpt lat="45.97933" lon="5.75207">
        <ele>1141.4</ele>
        <time>2026-05-13T16:40:43Z</time>
      </trkpt>
      <trkpt lat="45.97938" lon="5.75207">
        <ele>1141.4</ele>
        <time>2026-05-13T16:40:44Z</time>
      </trkpt>
      <trkpt lat="45.97943" lon="5.75207">
        <ele>1141.4</ele>
        <time>2026-05-13T16:40:45Z</time>
      </trkpt>
      <trkpt lat="45.97947" lon="5.75206">
        <ele>1141.4</ele>
        <time>2026-05-13T16:40:46Z</time>
      </trkpt>
      <trkpt lat="45.97951" lon="5.75201">
        <ele>1141.4</ele>
        <time>2026-05-13T16:40:47Z</time>
      </trkpt>
      <trkpt lat="45.97955" lon="5.75199">
        <ele>1141.4</ele>
        <time>2026-05-13T16:40:48Z</time>
      </trkpt>
      <trkpt lat="45.97959" lon="5.75196">
        <ele>1142</ele>
        <time>2026-05-13T16:40:49Z</time>
      </trkpt>
      <trkpt lat="45.97963" lon="5.75194">
        <ele>1142.4</ele>
        <time>2026-05-13T16:40:50Z</time>
      </trkpt>
      <trkpt lat="45.97967" lon="5.75192">
        <ele>1142.4</ele>
        <time>2026-05-13T16:40:51Z</time>
      </trkpt>
      <trkpt lat="45.97972" lon="5.75191">
        <ele>1142</ele>
        <time>2026-05-13T16:40:52Z</time>
      </trkpt>
      <trkpt lat="45.97976" lon="5.75189">
        <ele>1141.8</ele>
        <time>2026-05-13T16:40:53Z</time>
      </trkpt>
      <trkpt lat="45.9798" lon="5.75187">
        <ele>1141.8</ele>
        <time>2026-05-13T16:40:54Z</time>
      </trkpt>
      <trkpt lat="45.97983" lon="5.75185">
        <ele>1141.4</ele>
        <time>2026-05-13T16:40:55Z</time>
      </trkpt>
      <trkpt lat="45.97987" lon="5.75184">
        <ele>1141</ele>
        <time>2026-05-13T16:40:56Z</time>
      </trkpt>
      <trkpt lat="45.97992" lon="5.75181">
        <ele>1141</ele>
        <time>2026-05-13T16:40:57Z</time>
      </trkpt>
      <trkpt lat="45.97995" lon="5.75179">
        <ele>1141</ele>
        <time>2026-05-13T16:40:58Z</time>
      </trkpt>
      <trkpt lat="45.98" lon="5.75176">
        <ele>1140.8</ele>
        <time>2026-05-13T16:40:59Z</time>
      </trkpt>
      <trkpt lat="45.98005" lon="5.75174">
        <ele>1140.6</ele>
        <time>2026-05-13T16:41:00Z</time>
      </trkpt>
      <trkpt lat="45.98007" lon="5.75173">
        <ele>1140.6</ele>
        <time>2026-05-13T16:41:01Z</time>
      </trkpt>
      <trkpt lat="45.9801" lon="5.75171">
        <ele>1140.6</ele>
        <time>2026-05-13T16:41:02Z</time>
      </trkpt>
      <trkpt lat="45.98012" lon="5.75168">
        <ele>1140.6</ele>
        <time>2026-05-13T16:41:03Z</time>
      </trkpt>
      <trkpt lat="45.98014" lon="5.75165">
        <ele>1140</ele>
        <time>2026-05-13T16:41:04Z</time>
      </trkpt>
      <trkpt lat="45.98018" lon="5.75162">
        <ele>1140</ele>
        <time>2026-05-13T16:41:05Z</time>
      </trkpt>
      <trkpt lat="45.98023" lon="5.75162">
        <ele>1139.8</ele>
        <time>2026-05-13T16:41:06Z</time>
      </trkpt>
      <trkpt lat="45.98027" lon="5.7516">
        <ele>1140</ele>
        <time>2026-05-13T16:41:07Z</time>
      </trkpt>
      <trkpt lat="45.9803" lon="5.75157">
        <ele>1140</ele>
        <time>2026-05-13T16:41:08Z</time>
      </trkpt>
      <trkpt lat="45.98034" lon="5.75156">
        <ele>1139.8</ele>
        <time>2026-05-13T16:41:09Z</time>
      </trkpt>
      <trkpt lat="45.9804" lon="5.75154">
        <ele>1139</ele>
        <time>2026-05-13T16:41:10Z</time>
      </trkpt>
      <trkpt lat="45.98044" lon="5.75155">
        <ele>1138.8</ele>
        <time>2026-05-13T16:41:11Z</time>
      </trkpt>
      <trkpt lat="45.98047" lon="5.75156">
        <ele>1137.8</ele>
        <time>2026-05-13T16:41:12Z</time>
      </trkpt>
      <trkpt lat="45.98049" lon="5.75155">
        <ele>1137.4</ele>
        <time>2026-05-13T16:41:13Z</time>
      </trkpt>
      <trkpt lat="45.9805" lon="5.75155">
        <ele>1137</ele>
        <time>2026-05-13T16:41:14Z</time>
      </trkpt>
      <trkpt lat="45.98053" lon="5.75155">
        <ele>1136.8</ele>
        <time>2026-05-13T16:41:15Z</time>
      </trkpt>
      <trkpt lat="45.98055" lon="5.75156">
        <ele>1136.8</ele>
        <time>2026-05-13T16:41:16Z</time>
      </trkpt>
      <trkpt lat="45.98058" lon="5.75156">
        <ele>1136.8</ele>
        <time>2026-05-13T16:41:17Z</time>
      </trkpt>
      <trkpt lat="45.98058" lon="5.75154">
        <ele>1136.4</ele>
        <time>2026-05-13T16:41:18Z</time>
      </trkpt>
      <trkpt lat="45.98061" lon="5.75152">
        <ele>1136.2</ele>
        <time>2026-05-13T16:41:19Z</time>
      </trkpt>
      <trkpt lat="45.98063" lon="5.75152">
        <ele>1136.2</ele>
        <time>2026-05-13T16:41:20Z</time>
      </trkpt>
      <trkpt lat="45.98065" lon="5.75151">
        <ele>1136.2</ele>
        <time>2026-05-13T16:41:21Z</time>
      </trkpt>
      <trkpt lat="45.98068" lon="5.75151">
        <ele>1136.2</ele>
        <time>2026-05-13T16:41:22Z</time>
      </trkpt>
      <trkpt lat="45.9807" lon="5.75151">
        <ele>1135.6</ele>
        <time>2026-05-13T16:41:23Z</time>
      </trkpt>
      <trkpt lat="45.98071" lon="5.75151">
        <ele>1135.6</ele>
        <time>2026-05-13T16:41:24Z</time>
      </trkpt>
      <trkpt lat="45.98073" lon="5.75152">
        <ele>1135.8</ele>
        <time>2026-05-13T16:41:25Z</time>
      </trkpt>
      <trkpt lat="45.98075" lon="5.75152">
        <ele>1135.4</ele>
        <time>2026-05-13T16:41:26Z</time>
      </trkpt>
      <trkpt lat="45.98079" lon="5.75152">
        <ele>1135</ele>
        <time>2026-05-13T16:41:27Z</time>
      </trkpt>
      <trkpt lat="45.98083" lon="5.75151">
        <ele>1134.8</ele>
        <time>2026-05-13T16:41:28Z</time>
      </trkpt>
      <trkpt lat="45.98087" lon="5.7515">
        <ele>1133.8</ele>
        <time>2026-05-13T16:41:29Z</time>
      </trkpt>
      <trkpt lat="45.98089" lon="5.7515">
        <ele>1133.8</ele>
        <time>2026-05-13T16:41:30Z</time>
      </trkpt>
      <trkpt lat="45.98092" lon="5.75149">
        <ele>1133.8</ele>
        <time>2026-05-13T16:41:31Z</time>
      </trkpt>
      <trkpt lat="45.98095" lon="5.75149">
        <ele>1133.8</ele>
        <time>2026-05-13T16:41:32Z</time>
      </trkpt>
      <trkpt lat="45.98099" lon="5.7515">
        <ele>1133.2</ele>
        <time>2026-05-13T16:41:33Z</time>
      </trkpt>
      <trkpt lat="45.98102" lon="5.75151">
        <ele>1132.8</ele>
        <time>2026-05-13T16:41:34Z</time>
      </trkpt>
      <trkpt lat="45.98105" lon="5.75151">
        <ele>1132.6</ele>
        <time>2026-05-13T16:41:35Z</time>
      </trkpt>
      <trkpt lat="45.98109" lon="5.7515">
        <ele>1132.2</ele>
        <time>2026-05-13T16:41:36Z</time>
      </trkpt>
      <trkpt lat="45.98112" lon="5.7515">
        <ele>1132</ele>
        <time>2026-05-13T16:41:37Z</time>
      </trkpt>
      <trkpt lat="45.98115" lon="5.7515">
        <ele>1132</ele>
        <time>2026-05-13T16:41:38Z</time>
      </trkpt>
      <trkpt lat="45.98118" lon="5.7515">
        <ele>1132</ele>
        <time>2026-05-13T16:41:39Z</time>
      </trkpt>
      <trkpt lat="45.98121" lon="5.75149">
        <ele>1131.4</ele>
        <time>2026-05-13T16:41:40Z</time>
      </trkpt>
      <trkpt lat="45.98123" lon="5.75149">
        <ele>1131</ele>
        <time>2026-05-13T16:41:41Z</time>
      </trkpt>
      <trkpt lat="45.98126" lon="5.75149">
        <ele>1130.6</ele>
        <time>2026-05-13T16:41:42Z</time>
      </trkpt>
      <trkpt lat="45.98127" lon="5.7515">
        <ele>1130.6</ele>
        <time>2026-05-13T16:41:43Z</time>
      </trkpt>
      <trkpt lat="45.98129" lon="5.7515">
        <ele>1130.6</ele>
        <time>2026-05-13T16:41:44Z</time>
      </trkpt>
      <trkpt lat="45.98131" lon="5.7515">
        <ele>1130.4</ele>
        <time>2026-05-13T16:41:45Z</time>
      </trkpt>
      <trkpt lat="45.98133" lon="5.75149">
        <ele>1130</ele>
        <time>2026-05-13T16:41:46Z</time>
      </trkpt>
      <trkpt lat="45.98137" lon="5.75149">
        <ele>1129.8</ele>
        <time>2026-05-13T16:41:47Z</time>
      </trkpt>
      <trkpt lat="45.98141" lon="5.75148">
        <ele>1129.4</ele>
        <time>2026-05-13T16:41:48Z</time>
      </trkpt>
      <trkpt lat="45.98145" lon="5.75147">
        <ele>1129.4</ele>
        <time>2026-05-13T16:41:49Z</time>
      </trkpt>
      <trkpt lat="45.9815" lon="5.75146">
        <ele>1128.8</ele>
        <time>2026-05-13T16:41:50Z</time>
      </trkpt>
      <trkpt lat="45.98154" lon="5.75145">
        <ele>1128.4</ele>
        <time>2026-05-13T16:41:51Z</time>
      </trkpt>
      <trkpt lat="45.98157" lon="5.75144">
        <ele>1128</ele>
        <time>2026-05-13T16:41:52Z</time>
      </trkpt>
      <trkpt lat="45.98161" lon="5.75144">
        <ele>1127.4</ele>
        <time>2026-05-13T16:41:53Z</time>
      </trkpt>
      <trkpt lat="45.98164" lon="5.75145">
        <ele>1127.4</ele>
        <time>2026-05-13T16:41:54Z</time>
      </trkpt>
      <trkpt lat="45.98168" lon="5.75145">
        <ele>1126.8</ele>
        <time>2026-05-13T16:41:55Z</time>
      </trkpt>
      <trkpt lat="45.98176" lon="5.75146">
        <ele>1126</ele>
        <time>2026-05-13T16:41:56Z</time>
      </trkpt>
      <trkpt lat="45.98183" lon="5.75145">
        <ele>1126</ele>
        <time>2026-05-13T16:41:57Z</time>
      </trkpt>
      <trkpt lat="45.98187" lon="5.75145">
        <ele>1125.4</ele>
        <time>2026-05-13T16:41:58Z</time>
      </trkpt>
      <trkpt lat="45.98191" lon="5.75144">
        <ele>1125.4</ele>
        <time>2026-05-13T16:41:59Z</time>
      </trkpt>
      <trkpt lat="45.98195" lon="5.75142">
        <ele>1125</ele>
        <time>2026-05-13T16:42:00Z</time>
      </trkpt>
      <trkpt lat="45.982" lon="5.75142">
        <ele>1124.4</ele>
        <time>2026-05-13T16:42:01Z</time>
      </trkpt>
      <trkpt lat="45.98203" lon="5.75143">
        <ele>1124.4</ele>
        <time>2026-05-13T16:42:02Z</time>
      </trkpt>
      <trkpt lat="45.98205" lon="5.75144">
        <ele>1123.8</ele>
        <time>2026-05-13T16:42:03Z</time>
      </trkpt>
      <trkpt lat="45.9821" lon="5.75144">
        <ele>1123.8</ele>
        <time>2026-05-13T16:42:04Z</time>
      </trkpt>
      <trkpt lat="45.98208" lon="5.75145">
        <ele>1123.4</ele>
        <time>2026-05-13T16:42:05Z</time>
      </trkpt>
      <trkpt lat="45.98214" lon="5.75146">
        <ele>1122.8</ele>
        <time>2026-05-13T16:42:06Z</time>
      </trkpt>
      <trkpt lat="45.98218" lon="5.75147">
        <ele>1122.6</ele>
        <time>2026-05-13T16:42:07Z</time>
      </trkpt>
      <trkpt lat="45.9822" lon="5.75149">
        <ele>1122.4</ele>
        <time>2026-05-13T16:42:08Z</time>
      </trkpt>
      <trkpt lat="45.98221" lon="5.7515">
        <ele>1122.4</ele>
        <time>2026-05-13T16:42:09Z</time>
      </trkpt>
      <trkpt lat="45.98223" lon="5.75151">
        <ele>1122.6</ele>
        <time>2026-05-13T16:42:10Z</time>
      </trkpt>
      <trkpt lat="45.98226" lon="5.75153">
        <ele>1122.2</ele>
        <time>2026-05-13T16:42:11Z</time>
      </trkpt>
      <trkpt lat="45.98228" lon="5.75154">
        <ele>1121.6</ele>
        <time>2026-05-13T16:42:12Z</time>
      </trkpt>
      <trkpt lat="45.98231" lon="5.75156">
        <ele>1121</ele>
        <time>2026-05-13T16:42:13Z</time>
      </trkpt>
      <trkpt lat="45.98235" lon="5.75158">
        <ele>1120.6</ele>
        <time>2026-05-13T16:42:14Z</time>
      </trkpt>
      <trkpt lat="45.9824" lon="5.75162">
        <ele>1119.8</ele>
        <time>2026-05-13T16:42:15Z</time>
      </trkpt>
      <trkpt lat="45.98243" lon="5.75164">
        <ele>1119.6</ele>
        <time>2026-05-13T16:42:16Z</time>
      </trkpt>
      <trkpt lat="45.98247" lon="5.75168">
        <ele>1119.6</ele>
        <time>2026-05-13T16:42:17Z</time>
      </trkpt>
      <trkpt lat="45.98249" lon="5.75169">
        <ele>1119</ele>
        <time>2026-05-13T16:42:18Z</time>
      </trkpt>
      <trkpt lat="45.98249" lon="5.75173">
        <ele>1118.8</ele>
        <time>2026-05-13T16:42:19Z</time>
      </trkpt>
      <trkpt lat="45.98252" lon="5.75174">
        <ele>1119.2</ele>
        <time>2026-05-13T16:42:20Z</time>
      </trkpt>
      <trkpt lat="45.98255" lon="5.75177">
        <ele>1118.8</ele>
        <time>2026-05-13T16:42:21Z</time>
      </trkpt>
      <trkpt lat="45.98258" lon="5.75177">
        <ele>1118.8</ele>
        <time>2026-05-13T16:42:22Z</time>
      </trkpt>
      <trkpt lat="45.98258" lon="5.75177">
        <ele>1118.8</ele>
        <time>2026-05-13T16:42:23Z</time>
      </trkpt>
      <trkpt lat="45.98261" lon="5.75179">
        <ele>1118.8</ele>
        <time>2026-05-13T16:42:24Z</time>
      </trkpt>
      <trkpt lat="45.98264" lon="5.75179">
        <ele>1118</ele>
        <time>2026-05-13T16:42:25Z</time>
      </trkpt>
      <trkpt lat="45.98268" lon="5.75182">
        <ele>1117.6</ele>
        <time>2026-05-13T16:42:26Z</time>
      </trkpt>
      <trkpt lat="45.98272" lon="5.75183">
        <ele>1116.8</ele>
        <time>2026-05-13T16:42:27Z</time>
      </trkpt>
      <trkpt lat="45.98276" lon="5.75185">
        <ele>1116.2</ele>
        <time>2026-05-13T16:42:28Z</time>
      </trkpt>
      <trkpt lat="45.98279" lon="5.75186">
        <ele>1116</ele>
        <time>2026-05-13T16:42:29Z</time>
      </trkpt>
      <trkpt lat="45.98279" lon="5.75188">
        <ele>1116</ele>
        <time>2026-05-13T16:42:30Z</time>
      </trkpt>
      <trkpt lat="45.98281" lon="5.75188">
        <ele>1116</ele>
        <time>2026-05-13T16:42:31Z</time>
      </trkpt>
      <trkpt lat="45.98283" lon="5.75189">
        <ele>1116</ele>
        <time>2026-05-13T16:42:32Z</time>
      </trkpt>
      <trkpt lat="45.98284" lon="5.7519">
        <ele>1115.6</ele>
        <time>2026-05-13T16:42:33Z</time>
      </trkpt>
      <trkpt lat="45.98287" lon="5.75189">
        <ele>1115.4</ele>
        <time>2026-05-13T16:42:34Z</time>
      </trkpt>
      <trkpt lat="45.9829" lon="5.75188">
        <ele>1114.6</ele>
        <time>2026-05-13T16:42:35Z</time>
      </trkpt>
      <trkpt lat="45.98293" lon="5.75186">
        <ele>1114.6</ele>
        <time>2026-05-13T16:42:36Z</time>
      </trkpt>
      <trkpt lat="45.98296" lon="5.75183">
        <ele>1114.6</ele>
        <time>2026-05-13T16:42:37Z</time>
      </trkpt>
      <trkpt lat="45.983" lon="5.75181">
        <ele>1115.4</ele>
        <time>2026-05-13T16:42:38Z</time>
      </trkpt>
      <trkpt lat="45.98303" lon="5.75179">
        <ele>1115.2</ele>
        <time>2026-05-13T16:42:39Z</time>
      </trkpt>
      <trkpt lat="45.98306" lon="5.75178">
        <ele>1114.4</ele>
        <time>2026-05-13T16:42:40Z</time>
      </trkpt>
      <trkpt lat="45.98309" lon="5.75178">
        <ele>1113.8</ele>
        <time>2026-05-13T16:42:41Z</time>
      </trkpt>
      <trkpt lat="45.98313" lon="5.75177">
        <ele>1112.8</ele>
        <time>2026-05-13T16:42:42Z</time>
      </trkpt>
      <trkpt lat="45.98317" lon="5.75175">
        <ele>1112.8</ele>
        <time>2026-05-13T16:42:43Z</time>
      </trkpt>
      <trkpt lat="45.9832" lon="5.75173">
        <ele>1112.2</ele>
        <time>2026-05-13T16:42:44Z</time>
      </trkpt>
      <trkpt lat="45.98325" lon="5.7517">
        <ele>1112.8</ele>
        <time>2026-05-13T16:42:45Z</time>
      </trkpt>
      <trkpt lat="45.98329" lon="5.75168">
        <ele>1112.4</ele>
        <time>2026-05-13T16:42:46Z</time>
      </trkpt>
      <trkpt lat="45.98334" lon="5.75165">
        <ele>1112.2</ele>
        <time>2026-05-13T16:42:47Z</time>
      </trkpt>
      <trkpt lat="45.98339" lon="5.75164">
        <ele>1111.6</ele>
        <time>2026-05-13T16:42:48Z</time>
      </trkpt>
      <trkpt lat="45.98344" lon="5.75164">
        <ele>1110.8</ele>
        <time>2026-05-13T16:42:49Z</time>
      </trkpt>
      <trkpt lat="45.98345" lon="5.75163">
        <ele>1110.8</ele>
        <time>2026-05-13T16:42:50Z</time>
      </trkpt>
      <trkpt lat="45.98348" lon="5.75159">
        <ele>1110.2</ele>
        <time>2026-05-13T16:42:51Z</time>
      </trkpt>
      <trkpt lat="45.98351" lon="5.75156">
        <ele>1110.2</ele>
        <time>2026-05-13T16:42:52Z</time>
      </trkpt>
      <trkpt lat="45.98354" lon="5.75156">
        <ele>1110</ele>
        <time>2026-05-13T16:42:53Z</time>
      </trkpt>
      <trkpt lat="45.98358" lon="5.75155">
        <ele>1109.6</ele>
        <time>2026-05-13T16:42:54Z</time>
      </trkpt>
      <trkpt lat="45.98362" lon="5.75156">
        <ele>1109</ele>
        <time>2026-05-13T16:42:55Z</time>
      </trkpt>
      <trkpt lat="45.98363" lon="5.75156">
        <ele>1108.4</ele>
        <time>2026-05-13T16:42:56Z</time>
      </trkpt>
      <trkpt lat="45.98368" lon="5.75157">
        <ele>1108</ele>
        <time>2026-05-13T16:42:57Z</time>
      </trkpt>
      <trkpt lat="45.98373" lon="5.75157">
        <ele>1107.8</ele>
        <time>2026-05-13T16:42:58Z</time>
      </trkpt>
      <trkpt lat="45.9838" lon="5.75156">
        <ele>1107.8</ele>
        <time>2026-05-13T16:42:59Z</time>
      </trkpt>
      <trkpt lat="45.98382" lon="5.75159">
        <ele>1107.8</ele>
        <time>2026-05-13T16:43:00Z</time>
      </trkpt>
      <trkpt lat="45.98388" lon="5.7516">
        <ele>1107.4</ele>
        <time>2026-05-13T16:43:01Z</time>
      </trkpt>
      <trkpt lat="45.98391" lon="5.7516">
        <ele>1106.8</ele>
        <time>2026-05-13T16:43:02Z</time>
      </trkpt>
      <trkpt lat="45.98396" lon="5.75162">
        <ele>1106.8</ele>
        <time>2026-05-13T16:43:03Z</time>
      </trkpt>
      <trkpt lat="45.98399" lon="5.75162">
        <ele>1105.8</ele>
        <time>2026-05-13T16:43:04Z</time>
      </trkpt>
      <trkpt lat="45.98404" lon="5.75166">
        <ele>1105.4</ele>
        <time>2026-05-13T16:43:05Z</time>
      </trkpt>
      <trkpt lat="45.98408" lon="5.75169">
        <ele>1105</ele>
        <time>2026-05-13T16:43:06Z</time>
      </trkpt>
      <trkpt lat="45.9841" lon="5.75172">
        <ele>1105.2</ele>
        <time>2026-05-13T16:43:07Z</time>
      </trkpt>
      <trkpt lat="45.98412" lon="5.75174">
        <ele>1105</ele>
        <time>2026-05-13T16:43:08Z</time>
      </trkpt>
      <trkpt lat="45.98415" lon="5.75174">
        <ele>1104.6</ele>
        <time>2026-05-13T16:43:09Z</time>
      </trkpt>
      <trkpt lat="45.98419" lon="5.75177">
        <ele>1104.6</ele>
        <time>2026-05-13T16:43:10Z</time>
      </trkpt>
      <trkpt lat="45.98423" lon="5.75177">
        <ele>1104.6</ele>
        <time>2026-05-13T16:43:11Z</time>
      </trkpt>
      <trkpt lat="45.98428" lon="5.75177">
        <ele>1104.6</ele>
        <time>2026-05-13T16:43:12Z</time>
      </trkpt>
      <trkpt lat="45.9843" lon="5.75177">
        <ele>1104</ele>
        <time>2026-05-13T16:43:13Z</time>
      </trkpt>
      <trkpt lat="45.98434" lon="5.7518">
        <ele>1104</ele>
        <time>2026-05-13T16:43:14Z</time>
      </trkpt>
      <trkpt lat="45.98437" lon="5.75181">
        <ele>1103.4</ele>
        <time>2026-05-13T16:43:15Z</time>
      </trkpt>
      <trkpt lat="45.98442" lon="5.75182">
        <ele>1102.8</ele>
        <time>2026-05-13T16:43:16Z</time>
      </trkpt>
      <trkpt lat="45.98447" lon="5.75183">
        <ele>1103.8</ele>
        <time>2026-05-13T16:43:17Z</time>
      </trkpt>
      <trkpt lat="45.98451" lon="5.75184">
        <ele>1103.8</ele>
        <time>2026-05-13T16:43:18Z</time>
      </trkpt>
      <trkpt lat="45.98453" lon="5.75188">
        <ele>1103.4</ele>
        <time>2026-05-13T16:43:19Z</time>
      </trkpt>
      <trkpt lat="45.98457" lon="5.75188">
        <ele>1103.4</ele>
        <time>2026-05-13T16:43:20Z</time>
      </trkpt>
      <trkpt lat="45.98459" lon="5.7519">
        <ele>1102.8</ele>
        <time>2026-05-13T16:43:21Z</time>
      </trkpt>
      <trkpt lat="45.98462" lon="5.75191">
        <ele>1102.6</ele>
        <time>2026-05-13T16:43:22Z</time>
      </trkpt>
      <trkpt lat="45.98464" lon="5.7519">
        <ele>1101.8</ele>
        <time>2026-05-13T16:43:23Z</time>
      </trkpt>
      <trkpt lat="45.98467" lon="5.7519">
        <ele>1101.6</ele>
        <time>2026-05-13T16:43:24Z</time>
      </trkpt>
      <trkpt lat="45.98472" lon="5.75191">
        <ele>1101.6</ele>
        <time>2026-05-13T16:43:25Z</time>
      </trkpt>
      <trkpt lat="45.98478" lon="5.75192">
        <ele>1101.6</ele>
        <time>2026-05-13T16:43:26Z</time>
      </trkpt>
      <trkpt lat="45.98482" lon="5.75194">
        <ele>1101.8</ele>
        <time>2026-05-13T16:43:27Z</time>
      </trkpt>
      <trkpt lat="45.98488" lon="5.75193">
        <ele>1101.4</ele>
        <time>2026-05-13T16:43:28Z</time>
      </trkpt>
      <trkpt lat="45.98492" lon="5.75193">
        <ele>1101.2</ele>
        <time>2026-05-13T16:43:29Z</time>
      </trkpt>
      <trkpt lat="45.98497" lon="5.75192">
        <ele>1100.8</ele>
        <time>2026-05-13T16:43:30Z</time>
      </trkpt>
      <trkpt lat="45.98501" lon="5.75192">
        <ele>1100</ele>
        <time>2026-05-13T16:43:31Z</time>
      </trkpt>
      <trkpt lat="45.98504" lon="5.75192">
        <ele>1100</ele>
        <time>2026-05-13T16:43:32Z</time>
      </trkpt>
      <trkpt lat="45.98508" lon="5.75191">
        <ele>1099.6</ele>
        <time>2026-05-13T16:43:33Z</time>
      </trkpt>
      <trkpt lat="45.98512" lon="5.75191">
        <ele>1099.6</ele>
        <time>2026-05-13T16:43:34Z</time>
      </trkpt>
      <trkpt lat="45.98515" lon="5.7519">
        <ele>1098.8</ele>
        <time>2026-05-13T16:43:35Z</time>
      </trkpt>
      <trkpt lat="45.98519" lon="5.75189">
        <ele>1098</ele>
        <time>2026-05-13T16:43:36Z</time>
      </trkpt>
      <trkpt lat="45.98523" lon="5.75188">
        <ele>1097.6</ele>
        <time>2026-05-13T16:43:37Z</time>
      </trkpt>
      <trkpt lat="45.98527" lon="5.75187">
        <ele>1097.6</ele>
        <time>2026-05-13T16:43:38Z</time>
      </trkpt>
      <trkpt lat="45.9853" lon="5.75186">
        <ele>1097.6</ele>
        <time>2026-05-13T16:43:39Z</time>
      </trkpt>
      <trkpt lat="45.98532" lon="5.75184">
        <ele>1096.8</ele>
        <time>2026-05-13T16:43:40Z</time>
      </trkpt>
      <trkpt lat="45.98535" lon="5.75182">
        <ele>1096</ele>
        <time>2026-05-13T16:43:41Z</time>
      </trkpt>
      <trkpt lat="45.98538" lon="5.7518">
        <ele>1096</ele>
        <time>2026-05-13T16:43:42Z</time>
      </trkpt>
      <trkpt lat="45.98541" lon="5.75178">
        <ele>1096</ele>
        <time>2026-05-13T16:43:43Z</time>
      </trkpt>
      <trkpt lat="45.98544" lon="5.75177">
        <ele>1095.6</ele>
        <time>2026-05-13T16:43:44Z</time>
      </trkpt>
      <trkpt lat="45.98548" lon="5.75175">
        <ele>1095.6</ele>
        <time>2026-05-13T16:43:45Z</time>
      </trkpt>
      <trkpt lat="45.98551" lon="5.75174">
        <ele>1095.6</ele>
        <time>2026-05-13T16:43:46Z</time>
      </trkpt>
      <trkpt lat="45.98554" lon="5.75172">
        <ele>1095</ele>
        <time>2026-05-13T16:43:47Z</time>
      </trkpt>
      <trkpt lat="45.98558" lon="5.7517">
        <ele>1094.4</ele>
        <time>2026-05-13T16:43:48Z</time>
      </trkpt>
      <trkpt lat="45.98562" lon="5.75169">
        <ele>1094.4</ele>
        <time>2026-05-13T16:43:49Z</time>
      </trkpt>
      <trkpt lat="45.98564" lon="5.75168">
        <ele>1094.8</ele>
        <time>2026-05-13T16:43:50Z</time>
      </trkpt>
      <trkpt lat="45.98567" lon="5.75168">
        <ele>1094</ele>
        <time>2026-05-13T16:43:51Z</time>
      </trkpt>
      <trkpt lat="45.98571" lon="5.75166">
        <ele>1093.2</ele>
        <time>2026-05-13T16:43:52Z</time>
      </trkpt>
      <trkpt lat="45.98573" lon="5.75164">
        <ele>1093.2</ele>
        <time>2026-05-13T16:43:53Z</time>
      </trkpt>
      <trkpt lat="45.98576" lon="5.75162">
        <ele>1093.2</ele>
        <time>2026-05-13T16:43:54Z</time>
      </trkpt>
      <trkpt lat="45.98578" lon="5.7516">
        <ele>1092.8</ele>
        <time>2026-05-13T16:43:55Z</time>
      </trkpt>
      <trkpt lat="45.98582" lon="5.75159">
        <ele>1092.4</ele>
        <time>2026-05-13T16:43:56Z</time>
      </trkpt>
      <trkpt lat="45.98586" lon="5.75158">
        <ele>1091.8</ele>
        <time>2026-05-13T16:43:57Z</time>
      </trkpt>
      <trkpt lat="45.98589" lon="5.75157">
        <ele>1090.4</ele>
        <time>2026-05-13T16:43:58Z</time>
      </trkpt>
      <trkpt lat="45.9859" lon="5.75157">
        <ele>1090.4</ele>
        <time>2026-05-13T16:43:59Z</time>
      </trkpt>
      <trkpt lat="45.98593" lon="5.75157">
        <ele>1090.4</ele>
        <time>2026-05-13T16:44:00Z</time>
      </trkpt>
      <trkpt lat="45.98597" lon="5.75156">
        <ele>1090.4</ele>
        <time>2026-05-13T16:44:01Z</time>
      </trkpt>
      <trkpt lat="45.98601" lon="5.75155">
        <ele>1090.4</ele>
        <time>2026-05-13T16:44:02Z</time>
      </trkpt>
      <trkpt lat="45.98604" lon="5.75154">
        <ele>1090.2</ele>
        <time>2026-05-13T16:44:03Z</time>
      </trkpt>
      <trkpt lat="45.98607" lon="5.75153">
        <ele>1089.4</ele>
        <time>2026-05-13T16:44:04Z</time>
      </trkpt>
      <trkpt lat="45.9861" lon="5.75152">
        <ele>1088.4</ele>
        <time>2026-05-13T16:44:05Z</time>
      </trkpt>
      <trkpt lat="45.98615" lon="5.75148">
        <ele>1088.2</ele>
        <time>2026-05-13T16:44:06Z</time>
      </trkpt>
      <trkpt lat="45.98618" lon="5.75147">
        <ele>1088</ele>
        <time>2026-05-13T16:44:07Z</time>
      </trkpt>
      <trkpt lat="45.98621" lon="5.75145">
        <ele>1088</ele>
        <time>2026-05-13T16:44:08Z</time>
      </trkpt>
      <trkpt lat="45.98626" lon="5.75144">
        <ele>1087.6</ele>
        <time>2026-05-13T16:44:09Z</time>
      </trkpt>
      <trkpt lat="45.98629" lon="5.75143">
        <ele>1087</ele>
        <time>2026-05-13T16:44:10Z</time>
      </trkpt>
      <trkpt lat="45.98631" lon="5.75142">
        <ele>1086.6</ele>
        <time>2026-05-13T16:44:11Z</time>
      </trkpt>
      <trkpt lat="45.98633" lon="5.7514">
        <ele>1086.4</ele>
        <time>2026-05-13T16:44:12Z</time>
      </trkpt>
      <trkpt lat="45.98635" lon="5.75138">
        <ele>1086</ele>
        <time>2026-05-13T16:44:13Z</time>
      </trkpt>
      <trkpt lat="45.98638" lon="5.75137">
        <ele>1085.8</ele>
        <time>2026-05-13T16:44:14Z</time>
      </trkpt>
      <trkpt lat="45.98641" lon="5.75136">
        <ele>1085.4</ele>
        <time>2026-05-13T16:44:15Z</time>
      </trkpt>
      <trkpt lat="45.98643" lon="5.75134">
        <ele>1085</ele>
        <time>2026-05-13T16:44:16Z</time>
      </trkpt>
      <trkpt lat="45.98646" lon="5.75133">
        <ele>1084.6</ele>
        <time>2026-05-13T16:44:17Z</time>
      </trkpt>
      <trkpt lat="45.9865" lon="5.75131">
        <ele>1084.2</ele>
        <time>2026-05-13T16:44:18Z</time>
      </trkpt>
      <trkpt lat="45.98653" lon="5.75129">
        <ele>1084.2</ele>
        <time>2026-05-13T16:44:19Z</time>
      </trkpt>
      <trkpt lat="45.98657" lon="5.75128">
        <ele>1083.6</ele>
        <time>2026-05-13T16:44:20Z</time>
      </trkpt>
      <trkpt lat="45.9866" lon="5.75126">
        <ele>1082.8</ele>
        <time>2026-05-13T16:44:21Z</time>
      </trkpt>
      <trkpt lat="45.98663" lon="5.75125">
        <ele>1082.6</ele>
        <time>2026-05-13T16:44:22Z</time>
      </trkpt>
      <trkpt lat="45.98666" lon="5.75124">
        <ele>1082.6</ele>
        <time>2026-05-13T16:44:23Z</time>
      </trkpt>
      <trkpt lat="45.98669" lon="5.75122">
        <ele>1082.2</ele>
        <time>2026-05-13T16:44:24Z</time>
      </trkpt>
      <trkpt lat="45.98672" lon="5.7512">
        <ele>1081.8</ele>
        <time>2026-05-13T16:44:25Z</time>
      </trkpt>
      <trkpt lat="45.98676" lon="5.75118">
        <ele>1081.2</ele>
        <time>2026-05-13T16:44:26Z</time>
      </trkpt>
      <trkpt lat="45.98678" lon="5.75117">
        <ele>1081.6</ele>
        <time>2026-05-13T16:44:27Z</time>
      </trkpt>
      <trkpt lat="45.9868" lon="5.75117">
        <ele>1081</ele>
        <time>2026-05-13T16:44:28Z</time>
      </trkpt>
      <trkpt lat="45.98683" lon="5.75116">
        <ele>1080.4</ele>
        <time>2026-05-13T16:44:29Z</time>
      </trkpt>
      <trkpt lat="45.98686" lon="5.75114">
        <ele>1080.2</ele>
        <time>2026-05-13T16:44:30Z</time>
      </trkpt>
      <trkpt lat="45.98687" lon="5.75114">
        <ele>1080</ele>
        <time>2026-05-13T16:44:31Z</time>
      </trkpt>
      <trkpt lat="45.98688" lon="5.75114">
        <ele>1080</ele>
        <time>2026-05-13T16:44:32Z</time>
      </trkpt>
      <trkpt lat="45.98691" lon="5.75114">
        <ele>1078.2</ele>
        <time>2026-05-13T16:44:33Z</time>
      </trkpt>
      <trkpt lat="45.98696" lon="5.75114">
        <ele>1078</ele>
        <time>2026-05-13T16:44:34Z</time>
      </trkpt>
      <trkpt lat="45.98699" lon="5.75113">
        <ele>1077.8</ele>
        <time>2026-05-13T16:44:35Z</time>
      </trkpt>
      <trkpt lat="45.98702" lon="5.75112">
        <ele>1077.4</ele>
        <time>2026-05-13T16:44:36Z</time>
      </trkpt>
      <trkpt lat="45.98705" lon="5.75111">
        <ele>1077.4</ele>
        <time>2026-05-13T16:44:37Z</time>
      </trkpt>
      <trkpt lat="45.98709" lon="5.7511">
        <ele>1076.8</ele>
        <time>2026-05-13T16:44:38Z</time>
      </trkpt>
      <trkpt lat="45.98712" lon="5.75109">
        <ele>1076.4</ele>
        <time>2026-05-13T16:44:39Z</time>
      </trkpt>
      <trkpt lat="45.98714" lon="5.75107">
        <ele>1076</ele>
        <time>2026-05-13T16:44:40Z</time>
      </trkpt>
      <trkpt lat="45.98717" lon="5.75105">
        <ele>1075.6</ele>
        <time>2026-05-13T16:44:41Z</time>
      </trkpt>
      <trkpt lat="45.98719" lon="5.75103">
        <ele>1075.2</ele>
        <time>2026-05-13T16:44:42Z</time>
      </trkpt>
      <trkpt lat="45.98722" lon="5.75101">
        <ele>1074.2</ele>
        <time>2026-05-13T16:44:43Z</time>
      </trkpt>
      <trkpt lat="45.98725" lon="5.75099">
        <ele>1074.2</ele>
        <time>2026-05-13T16:44:44Z</time>
      </trkpt>
      <trkpt lat="45.98729" lon="5.75098">
        <ele>1074.2</ele>
        <time>2026-05-13T16:44:45Z</time>
      </trkpt>
      <trkpt lat="45.98733" lon="5.75098">
        <ele>1074</ele>
        <time>2026-05-13T16:44:46Z</time>
      </trkpt>
      <trkpt lat="45.98738" lon="5.75097">
        <ele>1073.2</ele>
        <time>2026-05-13T16:44:47Z</time>
      </trkpt>
      <trkpt lat="45.98742" lon="5.75097">
        <ele>1072.8</ele>
        <time>2026-05-13T16:44:48Z</time>
      </trkpt>
      <trkpt lat="45.98744" lon="5.75097">
        <ele>1072.6</ele>
        <time>2026-05-13T16:44:49Z</time>
      </trkpt>
      <trkpt lat="45.98747" lon="5.75096">
        <ele>1071.4</ele>
        <time>2026-05-13T16:44:50Z</time>
      </trkpt>
      <trkpt lat="45.9875" lon="5.75094">
        <ele>1071</ele>
        <time>2026-05-13T16:44:51Z</time>
      </trkpt>
      <trkpt lat="45.98753" lon="5.75093">
        <ele>1070.8</ele>
        <time>2026-05-13T16:44:52Z</time>
      </trkpt>
      <trkpt lat="45.98757" lon="5.75091">
        <ele>1070.4</ele>
        <time>2026-05-13T16:44:53Z</time>
      </trkpt>
      <trkpt lat="45.9876" lon="5.75091">
        <ele>1070</ele>
        <time>2026-05-13T16:44:54Z</time>
      </trkpt>
      <trkpt lat="45.98763" lon="5.7509">
        <ele>1070</ele>
        <time>2026-05-13T16:44:55Z</time>
      </trkpt>
      <trkpt lat="45.98766" lon="5.75088">
        <ele>1070</ele>
        <time>2026-05-13T16:44:56Z</time>
      </trkpt>
      <trkpt lat="45.98769" lon="5.75086">
        <ele>1069.2</ele>
        <time>2026-05-13T16:44:57Z</time>
      </trkpt>
      <trkpt lat="45.98773" lon="5.75085">
        <ele>1069</ele>
        <time>2026-05-13T16:44:58Z</time>
      </trkpt>
      <trkpt lat="45.98776" lon="5.75084">
        <ele>1068.6</ele>
        <time>2026-05-13T16:44:59Z</time>
      </trkpt>
      <trkpt lat="45.98779" lon="5.75083">
        <ele>1068.4</ele>
        <time>2026-05-13T16:45:00Z</time>
      </trkpt>
      <trkpt lat="45.98779" lon="5.75083">
        <ele>1068.2</ele>
        <time>2026-05-13T16:45:01Z</time>
      </trkpt>
      <trkpt lat="45.98781" lon="5.75081">
        <ele>1068</ele>
        <time>2026-05-13T16:45:02Z</time>
      </trkpt>
      <trkpt lat="45.98782" lon="5.7508">
        <ele>1068</ele>
        <time>2026-05-13T16:45:03Z</time>
      </trkpt>
      <trkpt lat="45.98783" lon="5.75079">
        <ele>1067.4</ele>
        <time>2026-05-13T16:45:04Z</time>
      </trkpt>
      <trkpt lat="45.98784" lon="5.75078">
        <ele>1067.4</ele>
        <time>2026-05-13T16:45:05Z</time>
      </trkpt>
      <trkpt lat="45.98785" lon="5.75079">
        <ele>1067.4</ele>
        <time>2026-05-13T16:45:06Z</time>
      </trkpt>
      <trkpt lat="45.98787" lon="5.75072">
        <ele>1066.4</ele>
        <time>2026-05-13T16:46:34Z</time>
      </trkpt>
      <trkpt lat="45.98789" lon="5.7507">
        <ele>1066.4</ele>
        <time>2026-05-13T16:46:35Z</time>
      </trkpt>
      <trkpt lat="45.98789" lon="5.75069">
        <ele>1066.4</ele>
        <time>2026-05-13T16:46:36Z</time>
      </trkpt>
      <trkpt lat="45.98789" lon="5.75069">
        <ele>1066.4</ele>
        <time>2026-05-13T16:46:37Z</time>
      </trkpt>
      <trkpt lat="45.98789" lon="5.7507">
        <ele>1066.2</ele>
        <time>2026-05-13T16:46:38Z</time>
      </trkpt>
      <trkpt lat="45.98791" lon="5.75071">
        <ele>1065.8</ele>
        <time>2026-05-13T16:46:47Z</time>
      </trkpt>
      <trkpt lat="45.98792" lon="5.75072">
        <ele>1065.8</ele>
        <time>2026-05-13T16:46:48Z</time>
      </trkpt>
      <trkpt lat="45.98792" lon="5.75073">
        <ele>1065.8</ele>
        <time>2026-05-13T16:46:49Z</time>
      </trkpt>
      <trkpt lat="45.98793" lon="5.75074">
        <ele>1065.4</ele>
        <time>2026-05-13T16:46:50Z</time>
      </trkpt>
      <trkpt lat="45.98796" lon="5.75076">
        <ele>1065.4</ele>
        <time>2026-05-13T16:46:54Z</time>
      </trkpt>
      <trkpt lat="45.98799" lon="5.75074">
        <ele>1065.4</ele>
        <time>2026-05-13T16:46:55Z</time>
      </trkpt>
      <trkpt lat="45.98801" lon="5.75072">
        <ele>1065</ele>
        <time>2026-05-13T16:46:56Z</time>
      </trkpt>
      <trkpt lat="45.98803" lon="5.75069">
        <ele>1064.8</ele>
        <time>2026-05-13T16:46:57Z</time>
      </trkpt>
      <trkpt lat="45.98805" lon="5.75067">
        <ele>1064.4</ele>
        <time>2026-05-13T16:46:58Z</time>
      </trkpt>
      <trkpt lat="45.98808" lon="5.75066">
        <ele>1064.2</ele>
        <time>2026-05-13T16:46:59Z</time>
      </trkpt>
      <trkpt lat="45.98809" lon="5.75065">
        <ele>1063.8</ele>
        <time>2026-05-13T16:47:00Z</time>
      </trkpt>
      <trkpt lat="45.98811" lon="5.75064">
        <ele>1063.4</ele>
        <time>2026-05-13T16:47:01Z</time>
      </trkpt>
      <trkpt lat="45.98813" lon="5.75063">
        <ele>1063.4</ele>
        <time>2026-05-13T16:47:02Z</time>
      </trkpt>
      <trkpt lat="45.98816" lon="5.75061">
        <ele>1063</ele>
        <time>2026-05-13T16:47:03Z</time>
      </trkpt>
      <trkpt lat="45.98819" lon="5.7506">
        <ele>1062.8</ele>
        <time>2026-05-13T16:47:04Z</time>
      </trkpt>
      <trkpt lat="45.98821" lon="5.75058">
        <ele>1062.4</ele>
        <time>2026-05-13T16:47:05Z</time>
      </trkpt>
      <trkpt lat="45.98823" lon="5.75057">
        <ele>1062.4</ele>
        <time>2026-05-13T16:47:06Z</time>
      </trkpt>
      <trkpt lat="45.98825" lon="5.75056">
        <ele>1062</ele>
        <time>2026-05-13T16:47:07Z</time>
      </trkpt>
      <trkpt lat="45.98828" lon="5.75055">
        <ele>1061.6</ele>
        <time>2026-05-13T16:47:08Z</time>
      </trkpt>
      <trkpt lat="45.98831" lon="5.75054">
        <ele>1061.2</ele>
        <time>2026-05-13T16:47:09Z</time>
      </trkpt>
      <trkpt lat="45.98834" lon="5.75053">
        <ele>1061</ele>
        <time>2026-05-13T16:47:10Z</time>
      </trkpt>
      <trkpt lat="45.98837" lon="5.75052">
        <ele>1060.6</ele>
        <time>2026-05-13T16:47:11Z</time>
      </trkpt>
      <trkpt lat="45.9884" lon="5.75051">
        <ele>1060.2</ele>
        <time>2026-05-13T16:47:12Z</time>
      </trkpt>
      <trkpt lat="45.98843" lon="5.7505">
        <ele>1059.4</ele>
        <time>2026-05-13T16:47:13Z</time>
      </trkpt>
      <trkpt lat="45.98846" lon="5.75049">
        <ele>1059.4</ele>
        <time>2026-05-13T16:47:14Z</time>
      </trkpt>
      <trkpt lat="45.98848" lon="5.75048">
        <ele>1059.2</ele>
        <time>2026-05-13T16:47:15Z</time>
      </trkpt>
      <trkpt lat="45.98851" lon="5.75048">
        <ele>1058.8</ele>
        <time>2026-05-13T16:47:16Z</time>
      </trkpt>
      <trkpt lat="45.98854" lon="5.75046">
        <ele>1059.2</ele>
        <time>2026-05-13T16:47:17Z</time>
      </trkpt>
      <trkpt lat="45.98857" lon="5.75045">
        <ele>1058.6</ele>
        <time>2026-05-13T16:47:18Z</time>
      </trkpt>
      <trkpt lat="45.9886" lon="5.75044">
        <ele>1058.2</ele>
        <time>2026-05-13T16:47:19Z</time>
      </trkpt>
      <trkpt lat="45.98864" lon="5.75044">
        <ele>1057.8</ele>
        <time>2026-05-13T16:47:20Z</time>
      </trkpt>
      <trkpt lat="45.98867" lon="5.75044">
        <ele>1056.8</ele>
        <time>2026-05-13T16:47:21Z</time>
      </trkpt>
      <trkpt lat="45.9887" lon="5.75043">
        <ele>1056.8</ele>
        <time>2026-05-13T16:47:22Z</time>
      </trkpt>
      <trkpt lat="45.98873" lon="5.75042">
        <ele>1056.8</ele>
        <time>2026-05-13T16:47:23Z</time>
      </trkpt>
      <trkpt lat="45.98876" lon="5.75041">
        <ele>1056.4</ele>
        <time>2026-05-13T16:47:24Z</time>
      </trkpt>
      <trkpt lat="45.9888" lon="5.7504">
        <ele>1056</ele>
        <time>2026-05-13T16:47:25Z</time>
      </trkpt>
      <trkpt lat="45.98884" lon="5.75039">
        <ele>1056</ele>
        <time>2026-05-13T16:47:26Z</time>
      </trkpt>
      <trkpt lat="45.98886" lon="5.75038">
        <ele>1055.2</ele>
        <time>2026-05-13T16:47:27Z</time>
      </trkpt>
      <trkpt lat="45.9889" lon="5.75036">
        <ele>1055</ele>
        <time>2026-05-13T16:47:28Z</time>
      </trkpt>
      <trkpt lat="45.98893" lon="5.75034">
        <ele>1054.6</ele>
        <time>2026-05-13T16:47:29Z</time>
      </trkpt>
      <trkpt lat="45.98895" lon="5.75033">
        <ele>1053.8</ele>
        <time>2026-05-13T16:47:30Z</time>
      </trkpt>
      <trkpt lat="45.98897" lon="5.75032">
        <ele>1053</ele>
        <time>2026-05-13T16:47:31Z</time>
      </trkpt>
      <trkpt lat="45.98899" lon="5.75032">
        <ele>1052.4</ele>
        <time>2026-05-13T16:47:32Z</time>
      </trkpt>
      <trkpt lat="45.98901" lon="5.75031">
        <ele>1052.4</ele>
        <time>2026-05-13T16:47:33Z</time>
      </trkpt>
      <trkpt lat="45.98904" lon="5.75031">
        <ele>1052.4</ele>
        <time>2026-05-13T16:47:34Z</time>
      </trkpt>
      <trkpt lat="45.98907" lon="5.75029">
        <ele>1052.2</ele>
        <time>2026-05-13T16:47:35Z</time>
      </trkpt>
      <trkpt lat="45.9891" lon="5.75027">
        <ele>1051.8</ele>
        <time>2026-05-13T16:47:36Z</time>
      </trkpt>
      <trkpt lat="45.98913" lon="5.75026">
        <ele>1051.6</ele>
        <time>2026-05-13T16:47:37Z</time>
      </trkpt>
      <trkpt lat="45.98917" lon="5.75024">
        <ele>1051</ele>
        <time>2026-05-13T16:47:38Z</time>
      </trkpt>
      <trkpt lat="45.98921" lon="5.75022">
        <ele>1050.6</ele>
        <time>2026-05-13T16:47:39Z</time>
      </trkpt>
      <trkpt lat="45.98924" lon="5.75022">
        <ele>1050.2</ele>
        <time>2026-05-13T16:47:40Z</time>
      </trkpt>
      <trkpt lat="45.98926" lon="5.75021">
        <ele>1049.8</ele>
        <time>2026-05-13T16:47:41Z</time>
      </trkpt>
      <trkpt lat="45.98929" lon="5.75019">
        <ele>1049.8</ele>
        <time>2026-05-13T16:47:42Z</time>
      </trkpt>
      <trkpt lat="45.98932" lon="5.75018">
        <ele>1049.4</ele>
        <time>2026-05-13T16:47:43Z</time>
      </trkpt>
      <trkpt lat="45.98936" lon="5.75018">
        <ele>1049.4</ele>
        <time>2026-05-13T16:47:44Z</time>
      </trkpt>
      <trkpt lat="45.98939" lon="5.75018">
        <ele>1048.8</ele>
        <time>2026-05-13T16:47:45Z</time>
      </trkpt>
      <trkpt lat="45.98941" lon="5.75018">
        <ele>1048.8</ele>
        <time>2026-05-13T16:47:46Z</time>
      </trkpt>
      <trkpt lat="45.98945" lon="5.75018">
        <ele>1048.4</ele>
        <time>2026-05-13T16:47:47Z</time>
      </trkpt>
      <trkpt lat="45.98947" lon="5.75018">
        <ele>1048.4</ele>
        <time>2026-05-13T16:47:48Z</time>
      </trkpt>
      <trkpt lat="45.98948" lon="5.75017">
        <ele>1048.4</ele>
        <time>2026-05-13T16:47:49Z</time>
      </trkpt>
      <trkpt lat="45.98951" lon="5.75016">
        <ele>1047.4</ele>
        <time>2026-05-13T16:47:50Z</time>
      </trkpt>
      <trkpt lat="45.98954" lon="5.75015">
        <ele>1047.2</ele>
        <time>2026-05-13T16:47:51Z</time>
      </trkpt>
      <trkpt lat="45.98956" lon="5.75014">
        <ele>1046.6</ele>
        <time>2026-05-13T16:47:52Z</time>
      </trkpt>
      <trkpt lat="45.98957" lon="5.75013">
        <ele>1046.6</ele>
        <time>2026-05-13T16:47:53Z</time>
      </trkpt>
      <trkpt lat="45.9896" lon="5.75012">
        <ele>1045.8</ele>
        <time>2026-05-13T16:47:54Z</time>
      </trkpt>
      <trkpt lat="45.98964" lon="5.75011">
        <ele>1045.6</ele>
        <time>2026-05-13T16:47:55Z</time>
      </trkpt>
      <trkpt lat="45.98967" lon="5.75011">
        <ele>1045</ele>
        <time>2026-05-13T16:47:56Z</time>
      </trkpt>
      <trkpt lat="45.98969" lon="5.75011">
        <ele>1044.6</ele>
        <time>2026-05-13T16:47:57Z</time>
      </trkpt>
      <trkpt lat="45.98972" lon="5.75011">
        <ele>1044.6</ele>
        <time>2026-05-13T16:47:58Z</time>
      </trkpt>
      <trkpt lat="45.98976" lon="5.7501">
        <ele>1043.8</ele>
        <time>2026-05-13T16:47:59Z</time>
      </trkpt>
      <trkpt lat="45.98981" lon="5.75009">
        <ele>1043.2</ele>
        <time>2026-05-13T16:48:00Z</time>
      </trkpt>
      <trkpt lat="45.98984" lon="5.75008">
        <ele>1043.2</ele>
        <time>2026-05-13T16:48:01Z</time>
      </trkpt>
      <trkpt lat="45.98988" lon="5.75006">
        <ele>1042.8</ele>
        <time>2026-05-13T16:48:02Z</time>
      </trkpt>
      <trkpt lat="45.98992" lon="5.75004">
        <ele>1042.6</ele>
        <time>2026-05-13T16:48:03Z</time>
      </trkpt>
      <trkpt lat="45.98996" lon="5.75002">
        <ele>1042.2</ele>
        <time>2026-05-13T16:48:04Z</time>
      </trkpt>
      <trkpt lat="45.98999" lon="5.74999">
        <ele>1042.2</ele>
        <time>2026-05-13T16:48:05Z</time>
      </trkpt>
      <trkpt lat="45.99003" lon="5.74998">
        <ele>1041.6</ele>
        <time>2026-05-13T16:48:06Z</time>
      </trkpt>
      <trkpt lat="45.99007" lon="5.74997">
        <ele>1040.6</ele>
        <time>2026-05-13T16:48:07Z</time>
      </trkpt>
      <trkpt lat="45.99011" lon="5.74997">
        <ele>1040.6</ele>
        <time>2026-05-13T16:48:08Z</time>
      </trkpt>
      <trkpt lat="45.99014" lon="5.74996">
        <ele>1040.6</ele>
        <time>2026-05-13T16:48:09Z</time>
      </trkpt>
      <trkpt lat="45.99018" lon="5.74995">
        <ele>1040.6</ele>
        <time>2026-05-13T16:48:10Z</time>
      </trkpt>
      <trkpt lat="45.99021" lon="5.74993">
        <ele>1040.6</ele>
        <time>2026-05-13T16:48:11Z</time>
      </trkpt>
      <trkpt lat="45.99024" lon="5.74991">
        <ele>1040.2</ele>
        <time>2026-05-13T16:48:12Z</time>
      </trkpt>
      <trkpt lat="45.99027" lon="5.74989">
        <ele>1040</ele>
        <time>2026-05-13T16:48:13Z</time>
      </trkpt>
      <trkpt lat="45.99027" lon="5.74989">
        <ele>1040</ele>
        <time>2026-05-13T16:48:14Z</time>
      </trkpt>
      <trkpt lat="45.9903" lon="5.74986">
        <ele>1039.6</ele>
        <time>2026-05-13T16:48:15Z</time>
      </trkpt>
      <trkpt lat="45.99033" lon="5.74983">
        <ele>1039</ele>
        <time>2026-05-13T16:48:16Z</time>
      </trkpt>
      <trkpt lat="45.99041" lon="5.7498">
        <ele>1038.8</ele>
        <time>2026-05-13T16:48:17Z</time>
      </trkpt>
      <trkpt lat="45.99046" lon="5.74981">
        <ele>1038.2</ele>
        <time>2026-05-13T16:48:18Z</time>
      </trkpt>
      <trkpt lat="45.99047" lon="5.7498">
        <ele>1037.8</ele>
        <time>2026-05-13T16:48:19Z</time>
      </trkpt>
      <trkpt lat="45.9905" lon="5.7498">
        <ele>1037.8</ele>
        <time>2026-05-13T16:48:20Z</time>
      </trkpt>
      <trkpt lat="45.99054" lon="5.74978">
        <ele>1037.4</ele>
        <time>2026-05-13T16:48:21Z</time>
      </trkpt>
      <trkpt lat="45.99057" lon="5.74979">
        <ele>1037</ele>
        <time>2026-05-13T16:48:22Z</time>
      </trkpt>
      <trkpt lat="45.99064" lon="5.74979">
        <ele>1036.6</ele>
        <time>2026-05-13T16:48:23Z</time>
      </trkpt>
      <trkpt lat="45.99069" lon="5.74978">
        <ele>1036.2</ele>
        <time>2026-05-13T16:48:24Z</time>
      </trkpt>
      <trkpt lat="45.99072" lon="5.74978">
        <ele>1035.6</ele>
        <time>2026-05-13T16:48:25Z</time>
      </trkpt>
      <trkpt lat="45.99075" lon="5.7498">
        <ele>1035</ele>
        <time>2026-05-13T16:48:26Z</time>
      </trkpt>
      <trkpt lat="45.99077" lon="5.7498">
        <ele>1034.4</ele>
        <time>2026-05-13T16:48:27Z</time>
      </trkpt>
      <trkpt lat="45.99083" lon="5.74978">
        <ele>1034.4</ele>
        <time>2026-05-13T16:48:28Z</time>
      </trkpt>
      <trkpt lat="45.99088" lon="5.74977">
        <ele>1034.2</ele>
        <time>2026-05-13T16:48:29Z</time>
      </trkpt>
      <trkpt lat="45.99091" lon="5.74975">
        <ele>1033.4</ele>
        <time>2026-05-13T16:48:30Z</time>
      </trkpt>
      <trkpt lat="45.99094" lon="5.74973">
        <ele>1032.8</ele>
        <time>2026-05-13T16:48:31Z</time>
      </trkpt>
      <trkpt lat="45.99098" lon="5.74969">
        <ele>1032.6</ele>
        <time>2026-05-13T16:48:32Z</time>
      </trkpt>
      <trkpt lat="45.99102" lon="5.7497">
        <ele>1032</ele>
        <time>2026-05-13T16:48:33Z</time>
      </trkpt>
      <trkpt lat="45.99108" lon="5.74968">
        <ele>1031.4</ele>
        <time>2026-05-13T16:48:34Z</time>
      </trkpt>
      <trkpt lat="45.99112" lon="5.74967">
        <ele>1030.8</ele>
        <time>2026-05-13T16:48:35Z</time>
      </trkpt>
      <trkpt lat="45.99115" lon="5.74967">
        <ele>1030.2</ele>
        <time>2026-05-13T16:48:36Z</time>
      </trkpt>
      <trkpt lat="45.9912" lon="5.74965">
        <ele>1029.8</ele>
        <time>2026-05-13T16:48:37Z</time>
      </trkpt>
      <trkpt lat="45.99122" lon="5.74963">
        <ele>1029.8</ele>
        <time>2026-05-13T16:48:38Z</time>
      </trkpt>
      <trkpt lat="45.99125" lon="5.74963">
        <ele>1029.8</ele>
        <time>2026-05-13T16:48:39Z</time>
      </trkpt>
      <trkpt lat="45.99128" lon="5.74962">
        <ele>1029.8</ele>
        <time>2026-05-13T16:48:40Z</time>
      </trkpt>
      <trkpt lat="45.99133" lon="5.74964">
        <ele>1029.4</ele>
        <time>2026-05-13T16:48:41Z</time>
      </trkpt>
      <trkpt lat="45.99136" lon="5.74964">
        <ele>1029</ele>
        <time>2026-05-13T16:48:42Z</time>
      </trkpt>
      <trkpt lat="45.99138" lon="5.74963">
        <ele>1028.6</ele>
        <time>2026-05-13T16:48:43Z</time>
      </trkpt>
      <trkpt lat="45.99141" lon="5.74962">
        <ele>1028</ele>
        <time>2026-05-13T16:48:44Z</time>
      </trkpt>
      <trkpt lat="45.99143" lon="5.74962">
        <ele>1027.8</ele>
        <time>2026-05-13T16:48:45Z</time>
      </trkpt>
      <trkpt lat="45.99144" lon="5.74962">
        <ele>1027.6</ele>
        <time>2026-05-13T16:48:46Z</time>
      </trkpt>
      <trkpt lat="45.99145" lon="5.74962">
        <ele>1027.6</ele>
        <time>2026-05-13T16:48:47Z</time>
      </trkpt>
      <trkpt lat="45.99146" lon="5.74962">
        <ele>1027.2</ele>
        <time>2026-05-13T16:48:48Z</time>
      </trkpt>
      <trkpt lat="45.99147" lon="5.74962">
        <ele>1027.2</ele>
        <time>2026-05-13T16:48:49Z</time>
      </trkpt>
      <trkpt lat="45.99149" lon="5.74963">
        <ele>1027.2</ele>
        <time>2026-05-13T16:48:50Z</time>
      </trkpt>
      <trkpt lat="45.9915" lon="5.74963">
        <ele>1027</ele>
        <time>2026-05-13T16:48:51Z</time>
      </trkpt>
      <trkpt lat="45.99153" lon="5.74963">
        <ele>1026.6</ele>
        <time>2026-05-13T16:48:52Z</time>
      </trkpt>
      <trkpt lat="45.99156" lon="5.74963">
        <ele>1026.6</ele>
        <time>2026-05-13T16:48:53Z</time>
      </trkpt>
      <trkpt lat="45.99159" lon="5.74962">
        <ele>1026.4</ele>
        <time>2026-05-13T16:48:54Z</time>
      </trkpt>
      <trkpt lat="45.99162" lon="5.74961">
        <ele>1026</ele>
        <time>2026-05-13T16:48:55Z</time>
      </trkpt>
      <trkpt lat="45.99164" lon="5.74961">
        <ele>1025.8</ele>
        <time>2026-05-13T16:48:56Z</time>
      </trkpt>
      <trkpt lat="45.99166" lon="5.74961">
        <ele>1025.4</ele>
        <time>2026-05-13T16:48:57Z</time>
      </trkpt>
      <trkpt lat="45.99168" lon="5.74961">
        <ele>1025.4</ele>
        <time>2026-05-13T16:48:58Z</time>
      </trkpt>
      <trkpt lat="45.99171" lon="5.74961">
        <ele>1025</ele>
        <time>2026-05-13T16:48:59Z</time>
      </trkpt>
      <trkpt lat="45.99173" lon="5.74961">
        <ele>1024.8</ele>
        <time>2026-05-13T16:49:00Z</time>
      </trkpt>
      <trkpt lat="45.99175" lon="5.7496">
        <ele>1024.6</ele>
        <time>2026-05-13T16:49:01Z</time>
      </trkpt>
      <trkpt lat="45.99179" lon="5.74959">
        <ele>1024</ele>
        <time>2026-05-13T16:49:02Z</time>
      </trkpt>
      <trkpt lat="45.99183" lon="5.74957">
        <ele>1024</ele>
        <time>2026-05-13T16:49:03Z</time>
      </trkpt>
      <trkpt lat="45.99186" lon="5.74956">
        <ele>1023.4</ele>
        <time>2026-05-13T16:49:04Z</time>
      </trkpt>
      <trkpt lat="45.99188" lon="5.74954">
        <ele>1023</ele>
        <time>2026-05-13T16:49:05Z</time>
      </trkpt>
      <trkpt lat="45.99189" lon="5.74954">
        <ele>1022.8</ele>
        <time>2026-05-13T16:49:06Z</time>
      </trkpt>
      <trkpt lat="45.99191" lon="5.74953">
        <ele>1022.8</ele>
        <time>2026-05-13T16:49:07Z</time>
      </trkpt>
      <trkpt lat="45.99194" lon="5.74954">
        <ele>1022.4</ele>
        <time>2026-05-13T16:49:08Z</time>
      </trkpt>
      <trkpt lat="45.99197" lon="5.74954">
        <ele>1022.2</ele>
        <time>2026-05-13T16:49:09Z</time>
      </trkpt>
      <trkpt lat="45.99198" lon="5.74955">
        <ele>1021.8</ele>
        <time>2026-05-13T16:49:10Z</time>
      </trkpt>
      <trkpt lat="45.992" lon="5.74955">
        <ele>1021.6</ele>
        <time>2026-05-13T16:49:11Z</time>
      </trkpt>
      <trkpt lat="45.99201" lon="5.74955">
        <ele>1021.2</ele>
        <time>2026-05-13T16:49:12Z</time>
      </trkpt>
      <trkpt lat="45.99203" lon="5.74954">
        <ele>1020.8</ele>
        <time>2026-05-13T16:49:13Z</time>
      </trkpt>
      <trkpt lat="45.99205" lon="5.74954">
        <ele>1020.4</ele>
        <time>2026-05-13T16:49:14Z</time>
      </trkpt>
      <trkpt lat="45.99208" lon="5.74954">
        <ele>1020</ele>
        <time>2026-05-13T16:49:15Z</time>
      </trkpt>
      <trkpt lat="45.9921" lon="5.74956">
        <ele>1019.8</ele>
        <time>2026-05-13T16:49:16Z</time>
      </trkpt>
      <trkpt lat="45.99213" lon="5.74957">
        <ele>1019</ele>
        <time>2026-05-13T16:49:17Z</time>
      </trkpt>
      <trkpt lat="45.99216" lon="5.74959">
        <ele>1018.6</ele>
        <time>2026-05-13T16:49:18Z</time>
      </trkpt>
      <trkpt lat="45.99219" lon="5.74961">
        <ele>1018.4</ele>
        <time>2026-05-13T16:49:19Z</time>
      </trkpt>
      <trkpt lat="45.99222" lon="5.74963">
        <ele>1018</ele>
        <time>2026-05-13T16:49:20Z</time>
      </trkpt>
      <trkpt lat="45.99225" lon="5.74965">
        <ele>1017.6</ele>
        <time>2026-05-13T16:49:21Z</time>
      </trkpt>
      <trkpt lat="45.99227" lon="5.74968">
        <ele>1017.2</ele>
        <time>2026-05-13T16:49:22Z</time>
      </trkpt>
      <trkpt lat="45.99229" lon="5.7497">
        <ele>1016.4</ele>
        <time>2026-05-13T16:49:23Z</time>
      </trkpt>
      <trkpt lat="45.99235" lon="5.74974">
        <ele>1016.4</ele>
        <time>2026-05-13T16:49:24Z</time>
      </trkpt>
      <trkpt lat="45.99238" lon="5.74976">
        <ele>1015.6</ele>
        <time>2026-05-13T16:49:25Z</time>
      </trkpt>
      <trkpt lat="45.99242" lon="5.74976">
        <ele>1015.6</ele>
        <time>2026-05-13T16:49:26Z</time>
      </trkpt>
      <trkpt lat="45.99245" lon="5.74976">
        <ele>1015.2</ele>
        <time>2026-05-13T16:49:27Z</time>
      </trkpt>
      <trkpt lat="45.99249" lon="5.74977">
        <ele>1014.6</ele>
        <time>2026-05-13T16:49:28Z</time>
      </trkpt>
      <trkpt lat="45.99253" lon="5.74977">
        <ele>1014.2</ele>
        <time>2026-05-13T16:49:29Z</time>
      </trkpt>
      <trkpt lat="45.99256" lon="5.74974">
        <ele>1013.8</ele>
        <time>2026-05-13T16:49:30Z</time>
      </trkpt>
      <trkpt lat="45.9926" lon="5.74973">
        <ele>1012.8</ele>
        <time>2026-05-13T16:49:31Z</time>
      </trkpt>
      <trkpt lat="45.99264" lon="5.74969">
        <ele>1012.2</ele>
        <time>2026-05-13T16:49:32Z</time>
      </trkpt>
      <trkpt lat="45.99266" lon="5.74967">
        <ele>1012.2</ele>
        <time>2026-05-13T16:49:33Z</time>
      </trkpt>
      <trkpt lat="45.99269" lon="5.74964">
        <ele>1011.8</ele>
        <time>2026-05-13T16:49:34Z</time>
      </trkpt>
      <trkpt lat="45.99273" lon="5.74964">
        <ele>1011.2</ele>
        <time>2026-05-13T16:49:35Z</time>
      </trkpt>
      <trkpt lat="45.99276" lon="5.74961">
        <ele>1008</ele>
        <time>2026-05-13T16:49:36Z</time>
      </trkpt>
      <trkpt lat="45.99278" lon="5.7496">
        <ele>1007.8</ele>
        <time>2026-05-13T16:49:37Z</time>
      </trkpt>
      <trkpt lat="45.99285" lon="5.74958">
        <ele>1007.6</ele>
        <time>2026-05-13T16:49:38Z</time>
      </trkpt>
      <trkpt lat="45.99289" lon="5.74957">
        <ele>1007.2</ele>
        <time>2026-05-13T16:49:39Z</time>
      </trkpt>
      <trkpt lat="45.99291" lon="5.74955">
        <ele>1007.2</ele>
        <time>2026-05-13T16:49:40Z</time>
      </trkpt>
      <trkpt lat="45.99293" lon="5.74954">
        <ele>1007.2</ele>
        <time>2026-05-13T16:49:41Z</time>
      </trkpt>
      <trkpt lat="45.99296" lon="5.74951">
        <ele>1006.8</ele>
        <time>2026-05-13T16:49:42Z</time>
      </trkpt>
      <trkpt lat="45.99299" lon="5.74949">
        <ele>1006.2</ele>
        <time>2026-05-13T16:49:43Z</time>
      </trkpt>
      <trkpt lat="45.993" lon="5.74948">
        <ele>1006.2</ele>
        <time>2026-05-13T16:49:44Z</time>
      </trkpt>
      <trkpt lat="45.99302" lon="5.74948">
        <ele>1005.8</ele>
        <time>2026-05-13T16:49:45Z</time>
      </trkpt>
      <trkpt lat="45.99305" lon="5.74947">
        <ele>1005.6</ele>
        <time>2026-05-13T16:49:46Z</time>
      </trkpt>
      <trkpt lat="45.99308" lon="5.74947">
        <ele>1005</ele>
        <time>2026-05-13T16:49:47Z</time>
      </trkpt>
      <trkpt lat="45.99312" lon="5.74946">
        <ele>1004.2</ele>
        <time>2026-05-13T16:49:48Z</time>
      </trkpt>
      <trkpt lat="45.99316" lon="5.74946">
        <ele>1003</ele>
        <time>2026-05-13T16:49:49Z</time>
      </trkpt>
      <trkpt lat="45.99319" lon="5.74946">
        <ele>1003.2</ele>
        <time>2026-05-13T16:49:50Z</time>
      </trkpt>
      <trkpt lat="45.99322" lon="5.74947">
        <ele>1003.2</ele>
        <time>2026-05-13T16:49:51Z</time>
      </trkpt>
      <trkpt lat="45.99325" lon="5.74948">
        <ele>1003.2</ele>
        <time>2026-05-13T16:49:52Z</time>
      </trkpt>
      <trkpt lat="45.99329" lon="5.74948">
        <ele>1002.6</ele>
        <time>2026-05-13T16:49:53Z</time>
      </trkpt>
      <trkpt lat="45.99332" lon="5.74947">
        <ele>1002.6</ele>
        <time>2026-05-13T16:49:54Z</time>
      </trkpt>
      <trkpt lat="45.99335" lon="5.74946">
        <ele>1002.2</ele>
        <time>2026-05-13T16:49:55Z</time>
      </trkpt>
      <trkpt lat="45.99339" lon="5.74945">
        <ele>1001.4</ele>
        <time>2026-05-13T16:49:56Z</time>
      </trkpt>
      <trkpt lat="45.99343" lon="5.74943">
        <ele>1001</ele>
        <time>2026-05-13T16:49:57Z</time>
      </trkpt>
      <trkpt lat="45.99347" lon="5.74942">
        <ele>1000.2</ele>
        <time>2026-05-13T16:49:58Z</time>
      </trkpt>
      <trkpt lat="45.99355" lon="5.74944">
        <ele>999.2</ele>
        <time>2026-05-13T16:49:59Z</time>
      </trkpt>
      <trkpt lat="45.99357" lon="5.74942">
        <ele>998.6</ele>
        <time>2026-05-13T16:50:00Z</time>
      </trkpt>
      <trkpt lat="45.99362" lon="5.74941">
        <ele>997.8</ele>
        <time>2026-05-13T16:50:01Z</time>
      </trkpt>
      <trkpt lat="45.99366" lon="5.74942">
        <ele>997.6</ele>
        <time>2026-05-13T16:50:02Z</time>
      </trkpt>
      <trkpt lat="45.9937" lon="5.74942">
        <ele>997</ele>
        <time>2026-05-13T16:50:03Z</time>
      </trkpt>
      <trkpt lat="45.99374" lon="5.74943">
        <ele>996</ele>
        <time>2026-05-13T16:50:04Z</time>
      </trkpt>
      <trkpt lat="45.99378" lon="5.74944">
        <ele>995.4</ele>
        <time>2026-05-13T16:50:05Z</time>
      </trkpt>
      <trkpt lat="45.99381" lon="5.74946">
        <ele>994.8</ele>
        <time>2026-05-13T16:50:06Z</time>
      </trkpt>
      <trkpt lat="45.99384" lon="5.74948">
        <ele>994.6</ele>
        <time>2026-05-13T16:50:07Z</time>
      </trkpt>
      <trkpt lat="45.99386" lon="5.74951">
        <ele>994.2</ele>
        <time>2026-05-13T16:50:08Z</time>
      </trkpt>
      <trkpt lat="45.99389" lon="5.74951">
        <ele>994</ele>
        <time>2026-05-13T16:50:09Z</time>
      </trkpt>
      <trkpt lat="45.99389" lon="5.74953">
        <ele>993.8</ele>
        <time>2026-05-13T16:50:10Z</time>
      </trkpt>
      <trkpt lat="45.9939" lon="5.74954">
        <ele>993.8</ele>
        <time>2026-05-13T16:50:11Z</time>
      </trkpt>
      <trkpt lat="45.9939" lon="5.74956">
        <ele>993.6</ele>
        <time>2026-05-13T16:50:12Z</time>
      </trkpt>
      <trkpt lat="45.99391" lon="5.74958">
        <ele>993.2</ele>
        <time>2026-05-13T16:50:13Z</time>
      </trkpt>
      <trkpt lat="45.99391" lon="5.7496">
        <ele>993</ele>
        <time>2026-05-13T16:50:14Z</time>
      </trkpt>
      <trkpt lat="45.99393" lon="5.74961">
        <ele>993</ele>
        <time>2026-05-13T16:50:15Z</time>
      </trkpt>
      <trkpt lat="45.99395" lon="5.74962">
        <ele>992.6</ele>
        <time>2026-05-13T16:50:16Z</time>
      </trkpt>
      <trkpt lat="45.99397" lon="5.74965">
        <ele>992.4</ele>
        <time>2026-05-13T16:50:17Z</time>
      </trkpt>
      <trkpt lat="45.99399" lon="5.74968">
        <ele>992.4</ele>
        <time>2026-05-13T16:50:18Z</time>
      </trkpt>
      <trkpt lat="45.99401" lon="5.7497">
        <ele>992.8</ele>
        <time>2026-05-13T16:50:19Z</time>
      </trkpt>
      <trkpt lat="45.99404" lon="5.74973">
        <ele>992</ele>
        <time>2026-05-13T16:50:20Z</time>
      </trkpt>
      <trkpt lat="45.99406" lon="5.74975">
        <ele>991.6</ele>
        <time>2026-05-13T16:50:21Z</time>
      </trkpt>
      <trkpt lat="45.99408" lon="5.74977">
        <ele>991</ele>
        <time>2026-05-13T16:50:22Z</time>
      </trkpt>
      <trkpt lat="45.9941" lon="5.74978">
        <ele>990.6</ele>
        <time>2026-05-13T16:50:23Z</time>
      </trkpt>
      <trkpt lat="45.99411" lon="5.74979">
        <ele>990.4</ele>
        <time>2026-05-13T16:50:24Z</time>
      </trkpt>
      <trkpt lat="45.99413" lon="5.7498">
        <ele>990</ele>
        <time>2026-05-13T16:50:25Z</time>
      </trkpt>
      <trkpt lat="45.99416" lon="5.74981">
        <ele>989.6</ele>
        <time>2026-05-13T16:50:26Z</time>
      </trkpt>
      <trkpt lat="45.9942" lon="5.74982">
        <ele>989.4</ele>
        <time>2026-05-13T16:50:27Z</time>
      </trkpt>
      <trkpt lat="45.99423" lon="5.74984">
        <ele>988.8</ele>
        <time>2026-05-13T16:50:28Z</time>
      </trkpt>
      <trkpt lat="45.99426" lon="5.74985">
        <ele>987.6</ele>
        <time>2026-05-13T16:50:29Z</time>
      </trkpt>
      <trkpt lat="45.9943" lon="5.74986">
        <ele>987.6</ele>
        <time>2026-05-13T16:50:30Z</time>
      </trkpt>
      <trkpt lat="45.99432" lon="5.74986">
        <ele>987.4</ele>
        <time>2026-05-13T16:50:31Z</time>
      </trkpt>
      <trkpt lat="45.99435" lon="5.74986">
        <ele>987.4</ele>
        <time>2026-05-13T16:50:32Z</time>
      </trkpt>
      <trkpt lat="45.99437" lon="5.74983">
        <ele>986.8</ele>
        <time>2026-05-13T16:50:33Z</time>
      </trkpt>
      <trkpt lat="45.99439" lon="5.7498">
        <ele>986</ele>
        <time>2026-05-13T16:50:34Z</time>
      </trkpt>
      <trkpt lat="45.9944" lon="5.74975">
        <ele>986.2</ele>
        <time>2026-05-13T16:50:35Z</time>
      </trkpt>
      <trkpt lat="45.9944" lon="5.7497">
        <ele>985.2</ele>
        <time>2026-05-13T16:50:36Z</time>
      </trkpt>
      <trkpt lat="45.9944" lon="5.74966">
        <ele>984.8</ele>
        <time>2026-05-13T16:50:37Z</time>
      </trkpt>
      <trkpt lat="45.99439" lon="5.74962">
        <ele>984.2</ele>
        <time>2026-05-13T16:50:38Z</time>
      </trkpt>
      <trkpt lat="45.99439" lon="5.74958">
        <ele>984</ele>
        <time>2026-05-13T16:50:39Z</time>
      </trkpt>
      <trkpt lat="45.99438" lon="5.74953">
        <ele>983.8</ele>
        <time>2026-05-13T16:50:40Z</time>
      </trkpt>
      <trkpt lat="45.99438" lon="5.74948">
        <ele>983.4</ele>
        <time>2026-05-13T16:50:41Z</time>
      </trkpt>
      <trkpt lat="45.99439" lon="5.74944">
        <ele>983.4</ele>
        <time>2026-05-13T16:50:42Z</time>
      </trkpt>
      <trkpt lat="45.9944" lon="5.74942">
        <ele>982.8</ele>
        <time>2026-05-13T16:50:43Z</time>
      </trkpt>
      <trkpt lat="45.99442" lon="5.7494">
        <ele>984.6</ele>
        <time>2026-05-13T16:50:44Z</time>
      </trkpt>
      <trkpt lat="45.99444" lon="5.74939">
        <ele>984.2</ele>
        <time>2026-05-13T16:50:45Z</time>
      </trkpt>
      <trkpt lat="45.99446" lon="5.74939">
        <ele>984.2</ele>
        <time>2026-05-13T16:50:46Z</time>
      </trkpt>
      <trkpt lat="45.99448" lon="5.7494">
        <ele>984.2</ele>
        <time>2026-05-13T16:50:47Z</time>
      </trkpt>
      <trkpt lat="45.9945" lon="5.7494">
        <ele>983.2</ele>
        <time>2026-05-13T16:50:48Z</time>
      </trkpt>
      <trkpt lat="45.99452" lon="5.74941">
        <ele>983.2</ele>
        <time>2026-05-13T16:50:49Z</time>
      </trkpt>
      <trkpt lat="45.99454" lon="5.74941">
        <ele>982.8</ele>
        <time>2026-05-13T16:50:50Z</time>
      </trkpt>
      <trkpt lat="45.99456" lon="5.74941">
        <ele>982.4</ele>
        <time>2026-05-13T16:50:51Z</time>
      </trkpt>
      <trkpt lat="45.99458" lon="5.74941">
        <ele>982.4</ele>
        <time>2026-05-13T16:50:52Z</time>
      </trkpt>
      <trkpt lat="45.99461" lon="5.74942">
        <ele>982.4</ele>
        <time>2026-05-13T16:50:53Z</time>
      </trkpt>
      <trkpt lat="45.99464" lon="5.74943">
        <ele>982</ele>
        <time>2026-05-13T16:50:54Z</time>
      </trkpt>
      <trkpt lat="45.99467" lon="5.74943">
        <ele>982</ele>
        <time>2026-05-13T16:50:55Z</time>
      </trkpt>
      <trkpt lat="45.99469" lon="5.74942">
        <ele>982.2</ele>
        <time>2026-05-13T16:50:56Z</time>
      </trkpt>
      <trkpt lat="45.99472" lon="5.74941">
        <ele>982.2</ele>
        <time>2026-05-13T16:50:57Z</time>
      </trkpt>
      <trkpt lat="45.99475" lon="5.74939">
        <ele>982.2</ele>
        <time>2026-05-13T16:50:58Z</time>
      </trkpt>
      <trkpt lat="45.99478" lon="5.74939">
        <ele>981.8</ele>
        <time>2026-05-13T16:50:59Z</time>
      </trkpt>
      <trkpt lat="45.99481" lon="5.74939">
        <ele>981.8</ele>
        <time>2026-05-13T16:51:00Z</time>
      </trkpt>
      <trkpt lat="45.99483" lon="5.74941">
        <ele>981.8</ele>
        <time>2026-05-13T16:51:01Z</time>
      </trkpt>
      <trkpt lat="45.99486" lon="5.74944">
        <ele>981.8</ele>
        <time>2026-05-13T16:51:02Z</time>
      </trkpt>
      <trkpt lat="45.99487" lon="5.74947">
        <ele>982.2</ele>
        <time>2026-05-13T16:51:03Z</time>
      </trkpt>
      <trkpt lat="45.99488" lon="5.7495">
        <ele>982.2</ele>
        <time>2026-05-13T16:51:04Z</time>
      </trkpt>
      <trkpt lat="45.99489" lon="5.74952">
        <ele>982.2</ele>
        <time>2026-05-13T16:51:05Z</time>
      </trkpt>
      <trkpt lat="45.9949" lon="5.74956">
        <ele>982.2</ele>
        <time>2026-05-13T16:51:06Z</time>
      </trkpt>
      <trkpt lat="45.9949" lon="5.74959">
        <ele>982.4</ele>
        <time>2026-05-13T16:51:07Z</time>
      </trkpt>
      <trkpt lat="45.99491" lon="5.74962">
        <ele>982.4</ele>
        <time>2026-05-13T16:51:08Z</time>
      </trkpt>
      <trkpt lat="45.99492" lon="5.74965">
        <ele>982.4</ele>
        <time>2026-05-13T16:51:09Z</time>
      </trkpt>
      <trkpt lat="45.99492" lon="5.74968">
        <ele>982.4</ele>
        <time>2026-05-13T16:51:10Z</time>
      </trkpt>
      <trkpt lat="45.99493" lon="5.74971">
        <ele>982.6</ele>
        <time>2026-05-13T16:51:11Z</time>
      </trkpt>
      <trkpt lat="45.99493" lon="5.74974">
        <ele>982.6</ele>
        <time>2026-05-13T16:51:12Z</time>
      </trkpt>
      <trkpt lat="45.99494" lon="5.74978">
        <ele>982.6</ele>
        <time>2026-05-13T16:51:13Z</time>
      </trkpt>
      <trkpt lat="45.99495" lon="5.74981">
        <ele>982.6</ele>
        <time>2026-05-13T16:51:14Z</time>
      </trkpt>
      <trkpt lat="45.99496" lon="5.74984">
        <ele>982.6</ele>
        <time>2026-05-13T16:51:15Z</time>
      </trkpt>
      <trkpt lat="45.99496" lon="5.74986">
        <ele>982.8</ele>
        <time>2026-05-13T16:51:16Z</time>
      </trkpt>
      <trkpt lat="45.99497" lon="5.74989">
        <ele>982.6</ele>
        <time>2026-05-13T16:51:17Z</time>
      </trkpt>
      <trkpt lat="45.99498" lon="5.74991">
        <ele>982.6</ele>
        <time>2026-05-13T16:51:18Z</time>
      </trkpt>
      <trkpt lat="45.99499" lon="5.74994">
        <ele>982.6</ele>
        <time>2026-05-13T16:51:19Z</time>
      </trkpt>
      <trkpt lat="45.99499" lon="5.74994">
        <ele>982.6</ele>
        <time>2026-05-13T16:51:20Z</time>
      </trkpt>
      <trkpt lat="45.995" lon="5.74997">
        <ele>983.2</ele>
        <time>2026-05-13T16:51:21Z</time>
      </trkpt>
      <trkpt lat="45.99501" lon="5.75">
        <ele>983.2</ele>
        <time>2026-05-13T16:51:22Z</time>
      </trkpt>
      <trkpt lat="45.99501" lon="5.75004">
        <ele>983.2</ele>
        <time>2026-05-13T16:51:23Z</time>
      </trkpt>
      <trkpt lat="45.99502" lon="5.75007">
        <ele>983.4</ele>
        <time>2026-05-13T16:51:24Z</time>
      </trkpt>
      <trkpt lat="45.99502" lon="5.75011">
        <ele>983.4</ele>
        <time>2026-05-13T16:51:25Z</time>
      </trkpt>
      <trkpt lat="45.99503" lon="5.75014">
        <ele>983.4</ele>
        <time>2026-05-13T16:51:26Z</time>
      </trkpt>
      <trkpt lat="45.99503" lon="5.75017">
        <ele>983.6</ele>
        <time>2026-05-13T16:51:27Z</time>
      </trkpt>
      <trkpt lat="45.99504" lon="5.7502">
        <ele>983.6</ele>
        <time>2026-05-13T16:51:28Z</time>
      </trkpt>
      <trkpt lat="45.99504" lon="5.75023">
        <ele>983.6</ele>
        <time>2026-05-13T16:51:29Z</time>
      </trkpt>
      <trkpt lat="45.99504" lon="5.75026">
        <ele>983.6</ele>
        <time>2026-05-13T16:51:30Z</time>
      </trkpt>
      <trkpt lat="45.99504" lon="5.75029">
        <ele>983.6</ele>
        <time>2026-05-13T16:51:31Z</time>
      </trkpt>
      <trkpt lat="45.99504" lon="5.75033">
        <ele>983.6</ele>
        <time>2026-05-13T16:51:32Z</time>
      </trkpt>
      <trkpt lat="45.99504" lon="5.75036">
        <ele>983.6</ele>
        <time>2026-05-13T16:51:33Z</time>
      </trkpt>
      <trkpt lat="45.99504" lon="5.75039">
        <ele>983.8</ele>
        <time>2026-05-13T16:51:34Z</time>
      </trkpt>
      <trkpt lat="45.99504" lon="5.75042">
        <ele>983.8</ele>
        <time>2026-05-13T16:51:35Z</time>
      </trkpt>
      <trkpt lat="45.99504" lon="5.75045">
        <ele>983.8</ele>
        <time>2026-05-13T16:51:36Z</time>
      </trkpt>
      <trkpt lat="45.99504" lon="5.75048">
        <ele>984</ele>
        <time>2026-05-13T16:51:37Z</time>
      </trkpt>
      <trkpt lat="45.99505" lon="5.75051">
        <ele>984</ele>
        <time>2026-05-13T16:51:38Z</time>
      </trkpt>
      <trkpt lat="45.99505" lon="5.75054">
        <ele>984</ele>
        <time>2026-05-13T16:51:39Z</time>
      </trkpt>
      <trkpt lat="45.99505" lon="5.75058">
        <ele>984.2</ele>
        <time>2026-05-13T16:51:40Z</time>
      </trkpt>
      <trkpt lat="45.99505" lon="5.75061">
        <ele>984.2</ele>
        <time>2026-05-13T16:51:41Z</time>
      </trkpt>
      <trkpt lat="45.99506" lon="5.75064">
        <ele>984.2</ele>
        <time>2026-05-13T16:51:42Z</time>
      </trkpt>
      <trkpt lat="45.99506" lon="5.75066">
        <ele>984.2</ele>
        <time>2026-05-13T16:51:43Z</time>
      </trkpt>
      <trkpt lat="45.99506" lon="5.75069">
        <ele>984.6</ele>
        <time>2026-05-13T16:51:44Z</time>
      </trkpt>
      <trkpt lat="45.99506" lon="5.75071">
        <ele>984.6</ele>
        <time>2026-05-13T16:51:45Z</time>
      </trkpt>
      <trkpt lat="45.99506" lon="5.75074">
        <ele>984.6</ele>
        <time>2026-05-13T16:51:46Z</time>
      </trkpt>
      <trkpt lat="45.99506" lon="5.75077">
        <ele>984.6</ele>
        <time>2026-05-13T16:51:47Z</time>
      </trkpt>
      <trkpt lat="45.99506" lon="5.7508">
        <ele>984.8</ele>
        <time>2026-05-13T16:51:48Z</time>
      </trkpt>
      <trkpt lat="45.99506" lon="5.75082">
        <ele>984.8</ele>
        <time>2026-05-13T16:51:49Z</time>
      </trkpt>
      <trkpt lat="45.99506" lon="5.75085">
        <ele>985.2</ele>
        <time>2026-05-13T16:51:50Z</time>
      </trkpt>
      <trkpt lat="45.99506" lon="5.75088">
        <ele>985.4</ele>
        <time>2026-05-13T16:51:51Z</time>
      </trkpt>
      <trkpt lat="45.99506" lon="5.75091">
        <ele>985.6</ele>
        <time>2026-05-13T16:51:52Z</time>
      </trkpt>
      <trkpt lat="45.99506" lon="5.75095">
        <ele>985.6</ele>
        <time>2026-05-13T16:51:53Z</time>
      </trkpt>
      <trkpt lat="45.99506" lon="5.75098">
        <ele>985.6</ele>
        <time>2026-05-13T16:51:54Z</time>
      </trkpt>
      <trkpt lat="45.99506" lon="5.75101">
        <ele>985.6</ele>
        <time>2026-05-13T16:51:55Z</time>
      </trkpt>
      <trkpt lat="45.99505" lon="5.75104">
        <ele>985.8</ele>
        <time>2026-05-13T16:51:56Z</time>
      </trkpt>
      <trkpt lat="45.99505" lon="5.75107">
        <ele>985.8</ele>
        <time>2026-05-13T16:51:57Z</time>
      </trkpt>
      <trkpt lat="45.99504" lon="5.7511">
        <ele>985.8</ele>
        <time>2026-05-13T16:51:58Z</time>
      </trkpt>
      <trkpt lat="45.99504" lon="5.75113">
        <ele>985.8</ele>
        <time>2026-05-13T16:51:59Z</time>
      </trkpt>
      <trkpt lat="45.99504" lon="5.75116">
        <ele>985.8</ele>
        <time>2026-05-13T16:52:00Z</time>
      </trkpt>
      <trkpt lat="45.99504" lon="5.75119">
        <ele>985.8</ele>
        <time>2026-05-13T16:52:01Z</time>
      </trkpt>
      <trkpt lat="45.99504" lon="5.75122">
        <ele>986.2</ele>
        <time>2026-05-13T16:52:02Z</time>
      </trkpt>
      <trkpt lat="45.99503" lon="5.75124">
        <ele>986.2</ele>
        <time>2026-05-13T16:52:03Z</time>
      </trkpt>
      <trkpt lat="45.99503" lon="5.75128">
        <ele>986.4</ele>
        <time>2026-05-13T16:52:04Z</time>
      </trkpt>
      <trkpt lat="45.99502" lon="5.75131">
        <ele>986.4</ele>
        <time>2026-05-13T16:52:05Z</time>
      </trkpt>
      <trkpt lat="45.99502" lon="5.75134">
        <ele>986.4</ele>
        <time>2026-05-13T16:52:06Z</time>
      </trkpt>
      <trkpt lat="45.99501" lon="5.75137">
        <ele>986.4</ele>
        <time>2026-05-13T16:52:07Z</time>
      </trkpt>
      <trkpt lat="45.99501" lon="5.7514">
        <ele>986.8</ele>
        <time>2026-05-13T16:52:08Z</time>
      </trkpt>
      <trkpt lat="45.995" lon="5.75143">
        <ele>987</ele>
        <time>2026-05-13T16:52:09Z</time>
      </trkpt>
      <trkpt lat="45.99499" lon="5.75146">
        <ele>987</ele>
        <time>2026-05-13T16:52:10Z</time>
      </trkpt>
      <trkpt lat="45.99498" lon="5.75149">
        <ele>987</ele>
        <time>2026-05-13T16:52:11Z</time>
      </trkpt>
      <trkpt lat="45.99497" lon="5.75152">
        <ele>987.4</ele>
        <time>2026-05-13T16:52:12Z</time>
      </trkpt>
      <trkpt lat="45.99496" lon="5.75156">
        <ele>987.6</ele>
        <time>2026-05-13T16:52:13Z</time>
      </trkpt>
      <trkpt lat="45.99496" lon="5.75159">
        <ele>987.6</ele>
        <time>2026-05-13T16:52:14Z</time>
      </trkpt>
      <trkpt lat="45.99495" lon="5.75162">
        <ele>988</ele>
        <time>2026-05-13T16:52:15Z</time>
      </trkpt>
      <trkpt lat="45.99494" lon="5.75166">
        <ele>988</ele>
        <time>2026-05-13T16:52:16Z</time>
      </trkpt>
      <trkpt lat="45.99494" lon="5.75169">
        <ele>988</ele>
        <time>2026-05-13T16:52:17Z</time>
      </trkpt>
      <trkpt lat="45.99493" lon="5.75171">
        <ele>988</ele>
        <time>2026-05-13T16:52:18Z</time>
      </trkpt>
      <trkpt lat="45.99492" lon="5.75174">
        <ele>988</ele>
        <time>2026-05-13T16:52:19Z</time>
      </trkpt>
      <trkpt lat="45.99491" lon="5.75177">
        <ele>988</ele>
        <time>2026-05-13T16:52:20Z</time>
      </trkpt>
      <trkpt lat="45.9949" lon="5.7518">
        <ele>988</ele>
        <time>2026-05-13T16:52:21Z</time>
      </trkpt>
      <trkpt lat="45.9949" lon="5.75183">
        <ele>988</ele>
        <time>2026-05-13T16:52:22Z</time>
      </trkpt>
      <trkpt lat="45.99489" lon="5.75185">
        <ele>988</ele>
        <time>2026-05-13T16:52:23Z</time>
      </trkpt>
      <trkpt lat="45.99489" lon="5.75189">
        <ele>988</ele>
        <time>2026-05-13T16:52:24Z</time>
      </trkpt>
      <trkpt lat="45.99488" lon="5.75192">
        <ele>988.2</ele>
        <time>2026-05-13T16:52:25Z</time>
      </trkpt>
      <trkpt lat="45.99488" lon="5.75196">
        <ele>988.4</ele>
        <time>2026-05-13T16:52:26Z</time>
      </trkpt>
      <trkpt lat="45.99488" lon="5.75199">
        <ele>988.6</ele>
        <time>2026-05-13T16:52:27Z</time>
      </trkpt>
      <trkpt lat="45.99488" lon="5.75203">
        <ele>988.6</ele>
        <time>2026-05-13T16:52:28Z</time>
      </trkpt>
      <trkpt lat="45.99488" lon="5.75205">
        <ele>988.6</ele>
        <time>2026-05-13T16:52:29Z</time>
      </trkpt>
      <trkpt lat="45.99488" lon="5.75208">
        <ele>989</ele>
        <time>2026-05-13T16:52:30Z</time>
      </trkpt>
      <trkpt lat="45.99489" lon="5.75211">
        <ele>989</ele>
        <time>2026-05-13T16:52:31Z</time>
      </trkpt>
      <trkpt lat="45.99489" lon="5.75214">
        <ele>988.4</ele>
        <time>2026-05-13T16:52:32Z</time>
      </trkpt>
      <trkpt lat="45.99491" lon="5.75216">
        <ele>989</ele>
        <time>2026-05-13T16:52:33Z</time>
      </trkpt>
      <trkpt lat="45.99492" lon="5.75218">
        <ele>989</ele>
        <time>2026-05-13T16:52:34Z</time>
      </trkpt>
      <trkpt lat="45.99494" lon="5.75219">
        <ele>989</ele>
        <time>2026-05-13T16:52:35Z</time>
      </trkpt>
      <trkpt lat="45.99495" lon="5.75219">
        <ele>989</ele>
        <time>2026-05-13T16:52:36Z</time>
      </trkpt>
      <trkpt lat="45.99497" lon="5.75219">
        <ele>989</ele>
        <time>2026-05-13T16:52:37Z</time>
      </trkpt>
      <trkpt lat="45.99499" lon="5.75218">
        <ele>989</ele>
        <time>2026-05-13T16:52:38Z</time>
      </trkpt>
      <trkpt lat="45.99501" lon="5.75218">
        <ele>989</ele>
        <time>2026-05-13T16:52:39Z</time>
      </trkpt>
      <trkpt lat="45.99503" lon="5.75218">
        <ele>989</ele>
        <time>2026-05-13T16:52:40Z</time>
      </trkpt>
      <trkpt lat="45.99505" lon="5.75217">
        <ele>988.6</ele>
        <time>2026-05-13T16:52:41Z</time>
      </trkpt>
      <trkpt lat="45.99507" lon="5.75217">
        <ele>989</ele>
        <time>2026-05-13T16:52:42Z</time>
      </trkpt>
      <trkpt lat="45.99509" lon="5.75217">
        <ele>989</ele>
        <time>2026-05-13T16:52:43Z</time>
      </trkpt>
      <trkpt lat="45.99511" lon="5.75216">
        <ele>989</ele>
        <time>2026-05-13T16:52:44Z</time>
      </trkpt>
      <trkpt lat="45.99514" lon="5.75216">
        <ele>989</ele>
        <time>2026-05-13T16:52:45Z</time>
      </trkpt>
      <trkpt lat="45.99516" lon="5.75215">
        <ele>989</ele>
        <time>2026-05-13T16:52:46Z</time>
      </trkpt>
      <trkpt lat="45.99519" lon="5.75214">
        <ele>988.8</ele>
        <time>2026-05-13T16:52:47Z</time>
      </trkpt>
      <trkpt lat="45.99522" lon="5.75213">
        <ele>988.8</ele>
        <time>2026-05-13T16:52:48Z</time>
      </trkpt>
      <trkpt lat="45.99525" lon="5.75212">
        <ele>988.8</ele>
        <time>2026-05-13T16:52:49Z</time>
      </trkpt>
      <trkpt lat="45.99528" lon="5.75211">
        <ele>989</ele>
        <time>2026-05-13T16:52:50Z</time>
      </trkpt>
      <trkpt lat="45.99531" lon="5.75209">
        <ele>989</ele>
        <time>2026-05-13T16:52:51Z</time>
      </trkpt>
      <trkpt lat="45.99534" lon="5.75208">
        <ele>988.8</ele>
        <time>2026-05-13T16:52:52Z</time>
      </trkpt>
      <trkpt lat="45.99537" lon="5.75207">
        <ele>988.8</ele>
        <time>2026-05-13T16:52:53Z</time>
      </trkpt>
      <trkpt lat="45.9954" lon="5.75205">
        <ele>988.6</ele>
        <time>2026-05-13T16:52:54Z</time>
      </trkpt>
      <trkpt lat="45.99542" lon="5.75204">
        <ele>988.6</ele>
        <time>2026-05-13T16:52:55Z</time>
      </trkpt>
      <trkpt lat="45.99544" lon="5.75203">
        <ele>988.6</ele>
        <time>2026-05-13T16:52:56Z</time>
      </trkpt>
      <trkpt lat="45.9955" lon="5.75198">
        <ele>988.6</ele>
        <time>2026-05-13T16:52:57Z</time>
      </trkpt>
      <trkpt lat="45.99552" lon="5.75196">
        <ele>988.6</ele>
        <time>2026-05-13T16:52:58Z</time>
      </trkpt>
      <trkpt lat="45.99554" lon="5.75195">
        <ele>988.6</ele>
        <time>2026-05-13T16:52:59Z</time>
      </trkpt>
      <trkpt lat="45.99556" lon="5.75194">
        <ele>988.6</ele>
        <time>2026-05-13T16:53:00Z</time>
      </trkpt>
      <trkpt lat="45.9956" lon="5.75191">
        <ele>988.6</ele>
        <time>2026-05-13T16:53:01Z</time>
      </trkpt>
      <trkpt lat="45.99563" lon="5.75189">
        <ele>988.6</ele>
        <time>2026-05-13T16:53:02Z</time>
      </trkpt>
      <trkpt lat="45.99566" lon="5.75187">
        <ele>988.6</ele>
        <time>2026-05-13T16:53:03Z</time>
      </trkpt>
      <trkpt lat="45.99569" lon="5.75185">
        <ele>988.6</ele>
        <time>2026-05-13T16:53:04Z</time>
      </trkpt>
      <trkpt lat="45.99572" lon="5.75182">
        <ele>988.6</ele>
        <time>2026-05-13T16:53:05Z</time>
      </trkpt>
      <trkpt lat="45.99575" lon="5.75179">
        <ele>988.6</ele>
        <time>2026-05-13T16:53:06Z</time>
      </trkpt>
      <trkpt lat="45.99578" lon="5.75176">
        <ele>988.4</ele>
        <time>2026-05-13T16:53:07Z</time>
      </trkpt>
      <trkpt lat="45.99582" lon="5.75172">
        <ele>988.4</ele>
        <time>2026-05-13T16:53:08Z</time>
      </trkpt>
      <trkpt lat="45.99585" lon="5.75169">
        <ele>988</ele>
        <time>2026-05-13T16:53:09Z</time>
      </trkpt>
      <trkpt lat="45.99588" lon="5.75165">
        <ele>988</ele>
        <time>2026-05-13T16:53:10Z</time>
      </trkpt>
      <trkpt lat="45.99592" lon="5.75162">
        <ele>988</ele>
        <time>2026-05-13T16:53:11Z</time>
      </trkpt>
      <trkpt lat="45.99595" lon="5.7516">
        <ele>988</ele>
        <time>2026-05-13T16:53:12Z</time>
      </trkpt>
      <trkpt lat="45.99597" lon="5.75157">
        <ele>987.8</ele>
        <time>2026-05-13T16:53:13Z</time>
      </trkpt>
      <trkpt lat="45.99601" lon="5.75154">
        <ele>987.4</ele>
        <time>2026-05-13T16:53:14Z</time>
      </trkpt>
      <trkpt lat="45.99604" lon="5.7515">
        <ele>987.4</ele>
        <time>2026-05-13T16:53:15Z</time>
      </trkpt>
      <trkpt lat="45.99607" lon="5.75147">
        <ele>987.6</ele>
        <time>2026-05-13T16:53:16Z</time>
      </trkpt>
      <trkpt lat="45.9961" lon="5.75144">
        <ele>987.6</ele>
        <time>2026-05-13T16:53:17Z</time>
      </trkpt>
      <trkpt lat="45.99613" lon="5.7514">
        <ele>987.6</ele>
        <time>2026-05-13T16:53:18Z</time>
      </trkpt>
      <trkpt lat="45.99616" lon="5.75137">
        <ele>987.6</ele>
        <time>2026-05-13T16:53:19Z</time>
      </trkpt>
      <trkpt lat="45.99619" lon="5.75133">
        <ele>987.6</ele>
        <time>2026-05-13T16:53:20Z</time>
      </trkpt>
      <trkpt lat="45.99622" lon="5.7513">
        <ele>987.2</ele>
        <time>2026-05-13T16:53:21Z</time>
      </trkpt>
      <trkpt lat="45.99625" lon="5.75127">
        <ele>987.2</ele>
        <time>2026-05-13T16:53:22Z</time>
      </trkpt>
      <trkpt lat="45.99628" lon="5.75125">
        <ele>987.2</ele>
        <time>2026-05-13T16:53:23Z</time>
      </trkpt>
      <trkpt lat="45.99631" lon="5.75123">
        <ele>987</ele>
        <time>2026-05-13T16:53:24Z</time>
      </trkpt>
      <trkpt lat="45.99634" lon="5.75122">
        <ele>987</ele>
        <time>2026-05-13T16:53:25Z</time>
      </trkpt>
      <trkpt lat="45.99638" lon="5.75121">
        <ele>987.4</ele>
        <time>2026-05-13T16:53:26Z</time>
      </trkpt>
      <trkpt lat="45.99642" lon="5.75119">
        <ele>987.4</ele>
        <time>2026-05-13T16:53:27Z</time>
      </trkpt>
      <trkpt lat="45.99645" lon="5.75119">
        <ele>987.4</ele>
        <time>2026-05-13T16:53:28Z</time>
      </trkpt>
      <trkpt lat="45.99648" lon="5.75119">
        <ele>987.4</ele>
        <time>2026-05-13T16:53:29Z</time>
      </trkpt>
      <trkpt lat="45.99651" lon="5.75119">
        <ele>987.2</ele>
        <time>2026-05-13T16:53:30Z</time>
      </trkpt>
      <trkpt lat="45.99655" lon="5.75118">
        <ele>987.2</ele>
        <time>2026-05-13T16:53:31Z</time>
      </trkpt>
      <trkpt lat="45.99659" lon="5.75117">
        <ele>987.2</ele>
        <time>2026-05-13T16:53:32Z</time>
      </trkpt>
      <trkpt lat="45.99663" lon="5.75116">
        <ele>987.2</ele>
        <time>2026-05-13T16:53:33Z</time>
      </trkpt>
      <trkpt lat="45.99666" lon="5.75116">
        <ele>987.6</ele>
        <time>2026-05-13T16:53:34Z</time>
      </trkpt>
      <trkpt lat="45.9967" lon="5.75115">
        <ele>987.6</ele>
        <time>2026-05-13T16:53:35Z</time>
      </trkpt>
      <trkpt lat="45.99673" lon="5.75114">
        <ele>987.6</ele>
        <time>2026-05-13T16:53:36Z</time>
      </trkpt>
      <trkpt lat="45.99676" lon="5.75113">
        <ele>987.2</ele>
        <time>2026-05-13T16:53:37Z</time>
      </trkpt>
      <trkpt lat="45.9968" lon="5.75113">
        <ele>987.2</ele>
        <time>2026-05-13T16:53:38Z</time>
      </trkpt>
      <trkpt lat="45.99683" lon="5.75112">
        <ele>987.2</ele>
        <time>2026-05-13T16:53:39Z</time>
      </trkpt>
      <trkpt lat="45.99686" lon="5.75111">
        <ele>987</ele>
        <time>2026-05-13T16:53:40Z</time>
      </trkpt>
      <trkpt lat="45.99689" lon="5.7511">
        <ele>987</ele>
        <time>2026-05-13T16:53:41Z</time>
      </trkpt>
      <trkpt lat="45.99692" lon="5.75108">
        <ele>987</ele>
        <time>2026-05-13T16:53:42Z</time>
      </trkpt>
      <trkpt lat="45.99696" lon="5.75105">
        <ele>987</ele>
        <time>2026-05-13T16:53:43Z</time>
      </trkpt>
      <trkpt lat="45.997" lon="5.75103">
        <ele>987</ele>
        <time>2026-05-13T16:53:44Z</time>
      </trkpt>
      <trkpt lat="45.99703" lon="5.751">
        <ele>987</ele>
        <time>2026-05-13T16:53:45Z</time>
      </trkpt>
      <trkpt lat="45.99706" lon="5.75098">
        <ele>987</ele>
        <time>2026-05-13T16:53:46Z</time>
      </trkpt>
      <trkpt lat="45.9971" lon="5.75095">
        <ele>987</ele>
        <time>2026-05-13T16:53:47Z</time>
      </trkpt>
      <trkpt lat="45.99714" lon="5.75091">
        <ele>987.4</ele>
        <time>2026-05-13T16:53:48Z</time>
      </trkpt>
      <trkpt lat="45.99718" lon="5.75089">
        <ele>987.4</ele>
        <time>2026-05-13T16:53:49Z</time>
      </trkpt>
      <trkpt lat="45.99721" lon="5.75087">
        <ele>987.2</ele>
        <time>2026-05-13T16:53:50Z</time>
      </trkpt>
      <trkpt lat="45.99725" lon="5.75085">
        <ele>987.2</ele>
        <time>2026-05-13T16:53:51Z</time>
      </trkpt>
      <trkpt lat="45.99728" lon="5.75083">
        <ele>987.2</ele>
        <time>2026-05-13T16:53:52Z</time>
      </trkpt>
      <trkpt lat="45.99731" lon="5.75081">
        <ele>987.2</ele>
        <time>2026-05-13T16:53:53Z</time>
      </trkpt>
      <trkpt lat="45.99734" lon="5.75079">
        <ele>987.2</ele>
        <time>2026-05-13T16:53:54Z</time>
      </trkpt>
      <trkpt lat="45.99737" lon="5.75075">
        <ele>987.2</ele>
        <time>2026-05-13T16:53:55Z</time>
      </trkpt>
      <trkpt lat="45.99741" lon="5.75072">
        <ele>986.8</ele>
        <time>2026-05-13T16:53:56Z</time>
      </trkpt>
      <trkpt lat="45.99744" lon="5.75069">
        <ele>987.2</ele>
        <time>2026-05-13T16:53:57Z</time>
      </trkpt>
      <trkpt lat="45.99747" lon="5.75066">
        <ele>987.2</ele>
        <time>2026-05-13T16:53:58Z</time>
      </trkpt>
      <trkpt lat="45.9975" lon="5.75064">
        <ele>987.2</ele>
        <time>2026-05-13T16:53:59Z</time>
      </trkpt>
      <trkpt lat="45.99753" lon="5.75062">
        <ele>987</ele>
        <time>2026-05-13T16:54:00Z</time>
      </trkpt>
      <trkpt lat="45.99757" lon="5.75055">
        <ele>987</ele>
        <time>2026-05-13T16:54:01Z</time>
      </trkpt>
      <trkpt lat="45.99761" lon="5.75052">
        <ele>987</ele>
        <time>2026-05-13T16:54:02Z</time>
      </trkpt>
      <trkpt lat="45.99763" lon="5.7505">
        <ele>987</ele>
        <time>2026-05-13T16:54:03Z</time>
      </trkpt>
      <trkpt lat="45.99766" lon="5.75047">
        <ele>987</ele>
        <time>2026-05-13T16:54:04Z</time>
      </trkpt>
      <trkpt lat="45.9977" lon="5.75044">
        <ele>987</ele>
        <time>2026-05-13T16:54:05Z</time>
      </trkpt>
      <trkpt lat="45.99772" lon="5.75043">
        <ele>987</ele>
        <time>2026-05-13T16:54:06Z</time>
      </trkpt>
      <trkpt lat="45.99777" lon="5.75039">
        <ele>987</ele>
        <time>2026-05-13T16:54:07Z</time>
      </trkpt>
      <trkpt lat="45.9978" lon="5.75037">
        <ele>987</ele>
        <time>2026-05-13T16:54:08Z</time>
      </trkpt>
      <trkpt lat="45.99784" lon="5.75034">
        <ele>986.8</ele>
        <time>2026-05-13T16:54:09Z</time>
      </trkpt>
      <trkpt lat="45.99787" lon="5.75031">
        <ele>986.8</ele>
        <time>2026-05-13T16:54:10Z</time>
      </trkpt>
      <trkpt lat="45.99789" lon="5.75027">
        <ele>986.8</ele>
        <time>2026-05-13T16:54:11Z</time>
      </trkpt>
      <trkpt lat="45.99793" lon="5.75024">
        <ele>987.2</ele>
        <time>2026-05-13T16:54:12Z</time>
      </trkpt>
      <trkpt lat="45.99797" lon="5.75021">
        <ele>987.2</ele>
        <time>2026-05-13T16:54:13Z</time>
      </trkpt>
      <trkpt lat="45.99801" lon="5.75018">
        <ele>987.2</ele>
        <time>2026-05-13T16:54:14Z</time>
      </trkpt>
      <trkpt lat="45.99803" lon="5.75016">
        <ele>987</ele>
        <time>2026-05-13T16:54:15Z</time>
      </trkpt>
      <trkpt lat="45.99807" lon="5.75013">
        <ele>987</ele>
        <time>2026-05-13T16:54:16Z</time>
      </trkpt>
      <trkpt lat="45.9981" lon="5.75011">
        <ele>987</ele>
        <time>2026-05-13T16:54:17Z</time>
      </trkpt>
      <trkpt lat="45.99812" lon="5.75008">
        <ele>987.2</ele>
        <time>2026-05-13T16:54:18Z</time>
      </trkpt>
      <trkpt lat="45.99816" lon="5.75006">
        <ele>987.2</ele>
        <time>2026-05-13T16:54:19Z</time>
      </trkpt>
      <trkpt lat="45.9982" lon="5.75003">
        <ele>987.2</ele>
        <time>2026-05-13T16:54:20Z</time>
      </trkpt>
      <trkpt lat="45.9982" lon="5.75001">
        <ele>987.2</ele>
        <time>2026-05-13T16:54:21Z</time>
      </trkpt>
      <trkpt lat="45.99824" lon="5.74999">
        <ele>987.2</ele>
        <time>2026-05-13T16:54:22Z</time>
      </trkpt>
      <trkpt lat="45.99826" lon="5.74998">
        <ele>987.2</ele>
        <time>2026-05-13T16:54:23Z</time>
      </trkpt>
      <trkpt lat="45.99827" lon="5.74995">
        <ele>987</ele>
        <time>2026-05-13T16:54:24Z</time>
      </trkpt>
      <trkpt lat="45.9983" lon="5.74991">
        <ele>987</ele>
        <time>2026-05-13T16:54:25Z</time>
      </trkpt>
      <trkpt lat="45.99834" lon="5.74986">
        <ele>987</ele>
        <time>2026-05-13T16:54:26Z</time>
      </trkpt>
      <trkpt lat="45.99837" lon="5.74982">
        <ele>987.2</ele>
        <time>2026-05-13T16:54:27Z</time>
      </trkpt>
      <trkpt lat="45.99841" lon="5.74979">
        <ele>986.8</ele>
        <time>2026-05-13T16:54:28Z</time>
      </trkpt>
      <trkpt lat="45.99845" lon="5.74975">
        <ele>986.4</ele>
        <time>2026-05-13T16:54:29Z</time>
      </trkpt>
      <trkpt lat="45.99847" lon="5.74972">
        <ele>987</ele>
        <time>2026-05-13T16:54:30Z</time>
      </trkpt>
      <trkpt lat="45.9985" lon="5.74968">
        <ele>987</ele>
        <time>2026-05-13T16:54:31Z</time>
      </trkpt>
      <trkpt lat="45.99853" lon="5.74965">
        <ele>987</ele>
        <time>2026-05-13T16:54:32Z</time>
      </trkpt>
      <trkpt lat="45.99856" lon="5.74961">
        <ele>987.2</ele>
        <time>2026-05-13T16:54:33Z</time>
      </trkpt>
      <trkpt lat="45.99859" lon="5.74959">
        <ele>987.2</ele>
        <time>2026-05-13T16:54:34Z</time>
      </trkpt>
      <trkpt lat="45.99863" lon="5.74957">
        <ele>987.2</ele>
        <time>2026-05-13T16:54:35Z</time>
      </trkpt>
      <trkpt lat="45.99864" lon="5.74954">
        <ele>986.8</ele>
        <time>2026-05-13T16:54:36Z</time>
      </trkpt>
      <trkpt lat="45.99867" lon="5.74952">
        <ele>986.8</ele>
        <time>2026-05-13T16:54:37Z</time>
      </trkpt>
      <trkpt lat="45.9987" lon="5.74949">
        <ele>986.8</ele>
        <time>2026-05-13T16:54:38Z</time>
      </trkpt>
      <trkpt lat="45.99873" lon="5.74947">
        <ele>987</ele>
        <time>2026-05-13T16:54:39Z</time>
      </trkpt>
      <trkpt lat="45.99876" lon="5.74945">
        <ele>987</ele>
        <time>2026-05-13T16:54:40Z</time>
      </trkpt>
      <trkpt lat="45.99882" lon="5.74942">
        <ele>986.8</ele>
        <time>2026-05-13T16:54:41Z</time>
      </trkpt>
      <trkpt lat="45.99884" lon="5.74939">
        <ele>986.8</ele>
        <time>2026-05-13T16:54:42Z</time>
      </trkpt>
      <trkpt lat="45.99887" lon="5.74935">
        <ele>986.8</ele>
        <time>2026-05-13T16:54:43Z</time>
      </trkpt>
      <trkpt lat="45.99889" lon="5.74933">
        <ele>986.4</ele>
        <time>2026-05-13T16:54:44Z</time>
      </trkpt>
      <trkpt lat="45.99889" lon="5.74933">
        <ele>986.6</ele>
        <time>2026-05-13T16:54:45Z</time>
      </trkpt>
      <trkpt lat="45.99892" lon="5.7493">
        <ele>987</ele>
        <time>2026-05-13T16:54:46Z</time>
      </trkpt>
      <trkpt lat="45.99895" lon="5.74927">
        <ele>987</ele>
        <time>2026-05-13T16:54:47Z</time>
      </trkpt>
      <trkpt lat="45.99897" lon="5.74923">
        <ele>986.6</ele>
        <time>2026-05-13T16:54:48Z</time>
      </trkpt>
      <trkpt lat="45.99899" lon="5.7492">
        <ele>986.6</ele>
        <time>2026-05-13T16:54:49Z</time>
      </trkpt>
      <trkpt lat="45.99902" lon="5.74917">
        <ele>986.6</ele>
        <time>2026-05-13T16:54:50Z</time>
      </trkpt>
      <trkpt lat="45.99904" lon="5.74915">
        <ele>986.6</ele>
        <time>2026-05-13T16:54:51Z</time>
      </trkpt>
      <trkpt lat="45.99906" lon="5.74913">
        <ele>986.6</ele>
        <time>2026-05-13T16:54:52Z</time>
      </trkpt>
      <trkpt lat="45.99908" lon="5.74911">
        <ele>986.6</ele>
        <time>2026-05-13T16:54:53Z</time>
      </trkpt>
      <trkpt lat="45.99909" lon="5.74908">
        <ele>986.6</ele>
        <time>2026-05-13T16:54:54Z</time>
      </trkpt>
      <trkpt lat="45.9991" lon="5.74905">
        <ele>986.6</ele>
        <time>2026-05-13T16:54:55Z</time>
      </trkpt>
      <trkpt lat="45.99912" lon="5.74903">
        <ele>986.6</ele>
        <time>2026-05-13T16:54:56Z</time>
      </trkpt>
      <trkpt lat="45.99914" lon="5.749">
        <ele>986.2</ele>
        <time>2026-05-13T16:54:57Z</time>
      </trkpt>
      <trkpt lat="45.99917" lon="5.74898">
        <ele>986.2</ele>
        <time>2026-05-13T16:54:58Z</time>
      </trkpt>
      <trkpt lat="45.9992" lon="5.74896">
        <ele>986.2</ele>
        <time>2026-05-13T16:54:59Z</time>
      </trkpt>
      <trkpt lat="45.99923" lon="5.74894">
        <ele>986.6</ele>
        <time>2026-05-13T16:55:00Z</time>
      </trkpt>
      <trkpt lat="45.99925" lon="5.74892">
        <ele>986.2</ele>
        <time>2026-05-13T16:55:01Z</time>
      </trkpt>
      <trkpt lat="45.99928" lon="5.7489">
        <ele>986.4</ele>
        <time>2026-05-13T16:55:02Z</time>
      </trkpt>
      <trkpt lat="45.99931" lon="5.74889">
        <ele>986</ele>
        <time>2026-05-13T16:55:03Z</time>
      </trkpt>
      <trkpt lat="45.99935" lon="5.74888">
        <ele>986</ele>
        <time>2026-05-13T16:55:04Z</time>
      </trkpt>
      <trkpt lat="45.99938" lon="5.74888">
        <ele>986.4</ele>
        <time>2026-05-13T16:55:05Z</time>
      </trkpt>
      <trkpt lat="45.99941" lon="5.74889">
        <ele>986.4</ele>
        <time>2026-05-13T16:55:06Z</time>
      </trkpt>
      <trkpt lat="45.99945" lon="5.74888">
        <ele>986.4</ele>
        <time>2026-05-13T16:55:07Z</time>
      </trkpt>
      <trkpt lat="45.99948" lon="5.74887">
        <ele>986.4</ele>
        <time>2026-05-13T16:55:08Z</time>
      </trkpt>
      <trkpt lat="45.99951" lon="5.74886">
        <ele>986.6</ele>
        <time>2026-05-13T16:55:09Z</time>
      </trkpt>
      <trkpt lat="45.99954" lon="5.74885">
        <ele>986.6</ele>
        <time>2026-05-13T16:55:10Z</time>
      </trkpt>
      <trkpt lat="45.99958" lon="5.74882">
        <ele>986.6</ele>
        <time>2026-05-13T16:55:11Z</time>
      </trkpt>
      <trkpt lat="45.99961" lon="5.74879">
        <ele>986.8</ele>
        <time>2026-05-13T16:55:12Z</time>
      </trkpt>
      <trkpt lat="45.99964" lon="5.74876">
        <ele>986.4</ele>
        <time>2026-05-13T16:55:13Z</time>
      </trkpt>
      <trkpt lat="45.99967" lon="5.74872">
        <ele>986.4</ele>
        <time>2026-05-13T16:55:14Z</time>
      </trkpt>
      <trkpt lat="45.9997" lon="5.74868">
        <ele>986.4</ele>
        <time>2026-05-13T16:55:15Z</time>
      </trkpt>
      <trkpt lat="45.99972" lon="5.74864">
        <ele>986.4</ele>
        <time>2026-05-13T16:55:16Z</time>
      </trkpt>
      <trkpt lat="45.99975" lon="5.7486">
        <ele>986.4</ele>
        <time>2026-05-13T16:55:17Z</time>
      </trkpt>
      <trkpt lat="45.99978" lon="5.74855">
        <ele>986</ele>
        <time>2026-05-13T16:55:18Z</time>
      </trkpt>
      <trkpt lat="45.99981" lon="5.7485">
        <ele>986.4</ele>
        <time>2026-05-13T16:55:19Z</time>
      </trkpt>
      <trkpt lat="45.99984" lon="5.74846">
        <ele>986.4</ele>
        <time>2026-05-13T16:55:20Z</time>
      </trkpt>
      <trkpt lat="45.99985" lon="5.74842">
        <ele>986.2</ele>
        <time>2026-05-13T16:55:21Z</time>
      </trkpt>
      <trkpt lat="45.99987" lon="5.7484">
        <ele>986.2</ele>
        <time>2026-05-13T16:55:22Z</time>
      </trkpt>
      <trkpt lat="45.99991" lon="5.74836">
        <ele>986.4</ele>
        <time>2026-05-13T16:55:23Z</time>
      </trkpt>
      <trkpt lat="45.99993" lon="5.74833">
        <ele>986.2</ele>
        <time>2026-05-13T16:55:24Z</time>
      </trkpt>
      <trkpt lat="45.99997" lon="5.7483">
        <ele>986.4</ele>
        <time>2026-05-13T16:55:25Z</time>
      </trkpt>
      <trkpt lat="46" lon="5.74826">
        <ele>986.4</ele>
        <time>2026-05-13T16:55:26Z</time>
      </trkpt>
      <trkpt lat="46.00004" lon="5.74822">
        <ele>986.4</ele>
        <time>2026-05-13T16:55:27Z</time>
      </trkpt>
      <trkpt lat="46.00006" lon="5.74819">
        <ele>986.2</ele>
        <time>2026-05-13T16:55:28Z</time>
      </trkpt>
      <trkpt lat="46.00009" lon="5.74813">
        <ele>986.2</ele>
        <time>2026-05-13T16:55:29Z</time>
      </trkpt>
      <trkpt lat="46.00012" lon="5.7481">
        <ele>986.2</ele>
        <time>2026-05-13T16:55:30Z</time>
      </trkpt>
      <trkpt lat="46.00015" lon="5.74805">
        <ele>986.2</ele>
        <time>2026-05-13T16:55:31Z</time>
      </trkpt>
      <trkpt lat="46.00017" lon="5.74801">
        <ele>986.2</ele>
        <time>2026-05-13T16:55:32Z</time>
      </trkpt>
      <trkpt lat="46.0002" lon="5.74798">
        <ele>986.2</ele>
        <time>2026-05-13T16:55:33Z</time>
      </trkpt>
      <trkpt lat="46.00024" lon="5.74795">
        <ele>986.4</ele>
        <time>2026-05-13T16:55:34Z</time>
      </trkpt>
      <trkpt lat="46.00028" lon="5.74793">
        <ele>986.4</ele>
        <time>2026-05-13T16:55:35Z</time>
      </trkpt>
      <trkpt lat="46.00031" lon="5.7479">
        <ele>986.4</ele>
        <time>2026-05-13T16:55:36Z</time>
      </trkpt>
      <trkpt lat="46.00034" lon="5.74787">
        <ele>986.8</ele>
        <time>2026-05-13T16:55:37Z</time>
      </trkpt>
      <trkpt lat="46.00038" lon="5.74785">
        <ele>986.6</ele>
        <time>2026-05-13T16:55:38Z</time>
      </trkpt>
      <trkpt lat="46.00042" lon="5.74783">
        <ele>987</ele>
        <time>2026-05-13T16:55:39Z</time>
      </trkpt>
      <trkpt lat="46.00045" lon="5.74781">
        <ele>987</ele>
        <time>2026-05-13T16:55:40Z</time>
      </trkpt>
      <trkpt lat="46.00048" lon="5.74779">
        <ele>987</ele>
        <time>2026-05-13T16:55:41Z</time>
      </trkpt>
      <trkpt lat="46.00051" lon="5.74777">
        <ele>987</ele>
        <time>2026-05-13T16:55:42Z</time>
      </trkpt>
      <trkpt lat="46.00054" lon="5.74775">
        <ele>987</ele>
        <time>2026-05-13T16:55:43Z</time>
      </trkpt>
      <trkpt lat="46.00057" lon="5.74773">
        <ele>987</ele>
        <time>2026-05-13T16:55:44Z</time>
      </trkpt>
      <trkpt lat="46.0006" lon="5.74771">
        <ele>987.4</ele>
        <time>2026-05-13T16:55:45Z</time>
      </trkpt>
      <trkpt lat="46.00064" lon="5.7477">
        <ele>987.4</ele>
        <time>2026-05-13T16:55:46Z</time>
      </trkpt>
      <trkpt lat="46.00068" lon="5.74769">
        <ele>987.4</ele>
        <time>2026-05-13T16:55:47Z</time>
      </trkpt>
      <trkpt lat="46.00071" lon="5.74768">
        <ele>987.4</ele>
        <time>2026-05-13T16:55:48Z</time>
      </trkpt>
      <trkpt lat="46.00075" lon="5.74768">
        <ele>987.4</ele>
        <time>2026-05-13T16:55:49Z</time>
      </trkpt>
      <trkpt lat="46.00079" lon="5.74767">
        <ele>987.4</ele>
        <time>2026-05-13T16:55:50Z</time>
      </trkpt>
      <trkpt lat="46.00082" lon="5.74767">
        <ele>988</ele>
        <time>2026-05-13T16:55:51Z</time>
      </trkpt>
      <trkpt lat="46.00085" lon="5.74767">
        <ele>988</ele>
        <time>2026-05-13T16:55:52Z</time>
      </trkpt>
      <trkpt lat="46.00089" lon="5.74768">
        <ele>988</ele>
        <time>2026-05-13T16:55:53Z</time>
      </trkpt>
      <trkpt lat="46.00092" lon="5.74769">
        <ele>988</ele>
        <time>2026-05-13T16:55:54Z</time>
      </trkpt>
      <trkpt lat="46.00095" lon="5.74769">
        <ele>988</ele>
        <time>2026-05-13T16:55:55Z</time>
      </trkpt>
      <trkpt lat="46.00098" lon="5.74769">
        <ele>988</ele>
        <time>2026-05-13T16:55:56Z</time>
      </trkpt>
      <trkpt lat="46.00102" lon="5.74769">
        <ele>988</ele>
        <time>2026-05-13T16:55:57Z</time>
      </trkpt>
      <trkpt lat="46.00105" lon="5.74768">
        <ele>988.2</ele>
        <time>2026-05-13T16:55:58Z</time>
      </trkpt>
      <trkpt lat="46.00108" lon="5.74768">
        <ele>988.2</ele>
        <time>2026-05-13T16:55:59Z</time>
      </trkpt>
      <trkpt lat="46.00111" lon="5.74768">
        <ele>988.6</ele>
        <time>2026-05-13T16:56:00Z</time>
      </trkpt>
      <trkpt lat="46.00115" lon="5.74768">
        <ele>988.8</ele>
        <time>2026-05-13T16:56:01Z</time>
      </trkpt>
      <trkpt lat="46.00118" lon="5.74768">
        <ele>988.6</ele>
        <time>2026-05-13T16:56:02Z</time>
      </trkpt>
      <trkpt lat="46.00121" lon="5.74767">
        <ele>988.6</ele>
        <time>2026-05-13T16:56:03Z</time>
      </trkpt>
      <trkpt lat="46.00124" lon="5.74766">
        <ele>988.6</ele>
        <time>2026-05-13T16:56:04Z</time>
      </trkpt>
      <trkpt lat="46.00127" lon="5.74765">
        <ele>988.6</ele>
        <time>2026-05-13T16:56:05Z</time>
      </trkpt>
      <trkpt lat="46.0013" lon="5.74764">
        <ele>989</ele>
        <time>2026-05-13T16:56:06Z</time>
      </trkpt>
      <trkpt lat="46.00132" lon="5.74763">
        <ele>988.8</ele>
        <time>2026-05-13T16:56:07Z</time>
      </trkpt>
      <trkpt lat="46.00135" lon="5.74761">
        <ele>988.2</ele>
        <time>2026-05-13T16:56:08Z</time>
      </trkpt>
      <trkpt lat="46.00138" lon="5.7476">
        <ele>988.2</ele>
        <time>2026-05-13T16:56:09Z</time>
      </trkpt>
      <trkpt lat="46.0014" lon="5.74758">
        <ele>988.2</ele>
        <time>2026-05-13T16:56:10Z</time>
      </trkpt>
      <trkpt lat="46.00143" lon="5.74757">
        <ele>988.8</ele>
        <time>2026-05-13T16:56:11Z</time>
      </trkpt>
      <trkpt lat="46.00146" lon="5.74755">
        <ele>989</ele>
        <time>2026-05-13T16:56:12Z</time>
      </trkpt>
      <trkpt lat="46.00148" lon="5.74754">
        <ele>989.2</ele>
        <time>2026-05-13T16:56:13Z</time>
      </trkpt>
      <trkpt lat="46.00151" lon="5.74752">
        <ele>989.6</ele>
        <time>2026-05-13T16:56:14Z</time>
      </trkpt>
      <trkpt lat="46.00154" lon="5.7475">
        <ele>989.8</ele>
        <time>2026-05-13T16:56:15Z</time>
      </trkpt>
      <trkpt lat="46.00156" lon="5.74748">
        <ele>989.8</ele>
        <time>2026-05-13T16:56:16Z</time>
      </trkpt>
      <trkpt lat="46.00159" lon="5.74746">
        <ele>989.8</ele>
        <time>2026-05-13T16:56:17Z</time>
      </trkpt>
      <trkpt lat="46.00164" lon="5.74742">
        <ele>990.2</ele>
        <time>2026-05-13T16:56:18Z</time>
      </trkpt>
      <trkpt lat="46.00167" lon="5.7474">
        <ele>990.2</ele>
        <time>2026-05-13T16:56:19Z</time>
      </trkpt>
      <trkpt lat="46.00169" lon="5.74738">
        <ele>990.4</ele>
        <time>2026-05-13T16:56:20Z</time>
      </trkpt>
      <trkpt lat="46.00172" lon="5.74735">
        <ele>990.4</ele>
        <time>2026-05-13T16:56:21Z</time>
      </trkpt>
      <trkpt lat="46.00174" lon="5.74733">
        <ele>990.4</ele>
        <time>2026-05-13T16:56:22Z</time>
      </trkpt>
      <trkpt lat="46.00177" lon="5.7473">
        <ele>990.6</ele>
        <time>2026-05-13T16:56:23Z</time>
      </trkpt>
      <trkpt lat="46.00179" lon="5.74728">
        <ele>990.6</ele>
        <time>2026-05-13T16:56:24Z</time>
      </trkpt>
      <trkpt lat="46.00182" lon="5.74726">
        <ele>990.6</ele>
        <time>2026-05-13T16:56:25Z</time>
      </trkpt>
      <trkpt lat="46.00184" lon="5.74724">
        <ele>990</ele>
        <time>2026-05-13T16:56:26Z</time>
      </trkpt>
      <trkpt lat="46.00187" lon="5.74722">
        <ele>990.2</ele>
        <time>2026-05-13T16:56:27Z</time>
      </trkpt>
      <trkpt lat="46.00189" lon="5.74719">
        <ele>990.6</ele>
        <time>2026-05-13T16:56:28Z</time>
      </trkpt>
      <trkpt lat="46.00191" lon="5.74716">
        <ele>990.6</ele>
        <time>2026-05-13T16:56:29Z</time>
      </trkpt>
      <trkpt lat="46.00194" lon="5.74714">
        <ele>990.6</ele>
        <time>2026-05-13T16:56:30Z</time>
      </trkpt>
      <trkpt lat="46.00196" lon="5.74711">
        <ele>990.6</ele>
        <time>2026-05-13T16:56:31Z</time>
      </trkpt>
      <trkpt lat="46.00199" lon="5.74708">
        <ele>990.6</ele>
        <time>2026-05-13T16:56:32Z</time>
      </trkpt>
      <trkpt lat="46.00201" lon="5.74705">
        <ele>990.6</ele>
        <time>2026-05-13T16:56:33Z</time>
      </trkpt>
      <trkpt lat="46.00204" lon="5.74702">
        <ele>990.6</ele>
        <time>2026-05-13T16:56:34Z</time>
      </trkpt>
      <trkpt lat="46.00206" lon="5.74699">
        <ele>990.8</ele>
        <time>2026-05-13T16:56:35Z</time>
      </trkpt>
      <trkpt lat="46.00209" lon="5.74697">
        <ele>990.8</ele>
        <time>2026-05-13T16:56:36Z</time>
      </trkpt>
      <trkpt lat="46.00211" lon="5.74694">
        <ele>991.4</ele>
        <time>2026-05-13T16:56:37Z</time>
      </trkpt>
      <trkpt lat="46.00214" lon="5.74692">
        <ele>991.4</ele>
        <time>2026-05-13T16:56:38Z</time>
      </trkpt>
      <trkpt lat="46.00217" lon="5.7469">
        <ele>991.4</ele>
        <time>2026-05-13T16:56:39Z</time>
      </trkpt>
      <trkpt lat="46.00219" lon="5.74688">
        <ele>991.4</ele>
        <time>2026-05-13T16:56:40Z</time>
      </trkpt>
      <trkpt lat="46.00222" lon="5.74686">
        <ele>991.4</ele>
        <time>2026-05-13T16:56:41Z</time>
      </trkpt>
      <trkpt lat="46.00225" lon="5.74683">
        <ele>991.4</ele>
        <time>2026-05-13T16:56:42Z</time>
      </trkpt>
      <trkpt lat="46.00227" lon="5.74681">
        <ele>991.2</ele>
        <time>2026-05-13T16:56:43Z</time>
      </trkpt>
      <trkpt lat="46.0023" lon="5.74678">
        <ele>991.2</ele>
        <time>2026-05-13T16:56:44Z</time>
      </trkpt>
      <trkpt lat="46.00232" lon="5.74676">
        <ele>991.2</ele>
        <time>2026-05-13T16:56:45Z</time>
      </trkpt>
      <trkpt lat="46.00235" lon="5.74674">
        <ele>991.2</ele>
        <time>2026-05-13T16:56:46Z</time>
      </trkpt>
      <trkpt lat="46.00238" lon="5.74672">
        <ele>991.6</ele>
        <time>2026-05-13T16:56:47Z</time>
      </trkpt>
      <trkpt lat="46.00241" lon="5.7467">
        <ele>992</ele>
        <time>2026-05-13T16:56:48Z</time>
      </trkpt>
      <trkpt lat="46.00244" lon="5.74668">
        <ele>991.8</ele>
        <time>2026-05-13T16:56:49Z</time>
      </trkpt>
      <trkpt lat="46.00246" lon="5.74665">
        <ele>991.8</ele>
        <time>2026-05-13T16:56:50Z</time>
      </trkpt>
      <trkpt lat="46.00249" lon="5.74663">
        <ele>991.8</ele>
        <time>2026-05-13T16:56:51Z</time>
      </trkpt>
      <trkpt lat="46.00252" lon="5.7466">
        <ele>991.8</ele>
        <time>2026-05-13T16:56:52Z</time>
      </trkpt>
      <trkpt lat="46.00255" lon="5.74658">
        <ele>992</ele>
        <time>2026-05-13T16:56:53Z</time>
      </trkpt>
      <trkpt lat="46.00258" lon="5.74656">
        <ele>992</ele>
        <time>2026-05-13T16:56:54Z</time>
      </trkpt>
      <trkpt lat="46.00261" lon="5.74655">
        <ele>992.4</ele>
        <time>2026-05-13T16:56:55Z</time>
      </trkpt>
      <trkpt lat="46.00263" lon="5.74653">
        <ele>992.4</ele>
        <time>2026-05-13T16:56:56Z</time>
      </trkpt>
      <trkpt lat="46.00266" lon="5.74651">
        <ele>992.4</ele>
        <time>2026-05-13T16:56:57Z</time>
      </trkpt>
      <trkpt lat="46.00269" lon="5.74649">
        <ele>992.6</ele>
        <time>2026-05-13T16:56:58Z</time>
      </trkpt>
      <trkpt lat="46.00272" lon="5.74647">
        <ele>993</ele>
        <time>2026-05-13T16:56:59Z</time>
      </trkpt>
      <trkpt lat="46.00275" lon="5.74645">
        <ele>993.2</ele>
        <time>2026-05-13T16:57:00Z</time>
      </trkpt>
      <trkpt lat="46.00278" lon="5.74643">
        <ele>993.2</ele>
        <time>2026-05-13T16:57:01Z</time>
      </trkpt>
      <trkpt lat="46.00281" lon="5.74642">
        <ele>993.2</ele>
        <time>2026-05-13T16:57:02Z</time>
      </trkpt>
      <trkpt lat="46.00283" lon="5.74641">
        <ele>993.6</ele>
        <time>2026-05-13T16:57:03Z</time>
      </trkpt>
      <trkpt lat="46.00286" lon="5.74639">
        <ele>993.8</ele>
        <time>2026-05-13T16:57:04Z</time>
      </trkpt>
      <trkpt lat="46.00288" lon="5.74637">
        <ele>993.8</ele>
        <time>2026-05-13T16:57:05Z</time>
      </trkpt>
      <trkpt lat="46.0029" lon="5.74635">
        <ele>994.4</ele>
        <time>2026-05-13T16:57:06Z</time>
      </trkpt>
      <trkpt lat="46.00293" lon="5.74633">
        <ele>994.4</ele>
        <time>2026-05-13T16:57:07Z</time>
      </trkpt>
      <trkpt lat="46.00295" lon="5.74631">
        <ele>994.4</ele>
        <time>2026-05-13T16:57:08Z</time>
      </trkpt>
      <trkpt lat="46.00297" lon="5.74628">
        <ele>994.4</ele>
        <time>2026-05-13T16:57:09Z</time>
      </trkpt>
      <trkpt lat="46.003" lon="5.74626">
        <ele>994.4</ele>
        <time>2026-05-13T16:57:10Z</time>
      </trkpt>
      <trkpt lat="46.00302" lon="5.74623">
        <ele>994.2</ele>
        <time>2026-05-13T16:57:11Z</time>
      </trkpt>
      <trkpt lat="46.00304" lon="5.74621">
        <ele>994.2</ele>
        <time>2026-05-13T16:57:12Z</time>
      </trkpt>
      <trkpt lat="46.00306" lon="5.74618">
        <ele>994.2</ele>
        <time>2026-05-13T16:57:13Z</time>
      </trkpt>
      <trkpt lat="46.00308" lon="5.74615">
        <ele>994.2</ele>
        <time>2026-05-13T16:57:14Z</time>
      </trkpt>
      <trkpt lat="46.0031" lon="5.74612">
        <ele>993.8</ele>
        <time>2026-05-13T16:57:15Z</time>
      </trkpt>
      <trkpt lat="46.00312" lon="5.74609">
        <ele>994.4</ele>
        <time>2026-05-13T16:57:16Z</time>
      </trkpt>
      <trkpt lat="46.00314" lon="5.74606">
        <ele>994.4</ele>
        <time>2026-05-13T16:57:17Z</time>
      </trkpt>
      <trkpt lat="46.00316" lon="5.74603">
        <ele>994.2</ele>
        <time>2026-05-13T16:57:18Z</time>
      </trkpt>
      <trkpt lat="46.00318" lon="5.74601">
        <ele>994.4</ele>
        <time>2026-05-13T16:57:19Z</time>
      </trkpt>
      <trkpt lat="46.00321" lon="5.74598">
        <ele>994.8</ele>
        <time>2026-05-13T16:57:20Z</time>
      </trkpt>
      <trkpt lat="46.00323" lon="5.74596">
        <ele>995</ele>
        <time>2026-05-13T16:57:21Z</time>
      </trkpt>
      <trkpt lat="46.00325" lon="5.74594">
        <ele>995</ele>
        <time>2026-05-13T16:57:22Z</time>
      </trkpt>
      <trkpt lat="46.00327" lon="5.74591">
        <ele>994.6</ele>
        <time>2026-05-13T16:57:23Z</time>
      </trkpt>
      <trkpt lat="46.00329" lon="5.74589">
        <ele>994.6</ele>
        <time>2026-05-13T16:57:24Z</time>
      </trkpt>
      <trkpt lat="46.00331" lon="5.74586">
        <ele>995</ele>
        <time>2026-05-13T16:57:25Z</time>
      </trkpt>
      <trkpt lat="46.00334" lon="5.74584">
        <ele>995</ele>
        <time>2026-05-13T16:57:26Z</time>
      </trkpt>
      <trkpt lat="46.00336" lon="5.74581">
        <ele>995</ele>
        <time>2026-05-13T16:57:27Z</time>
      </trkpt>
      <trkpt lat="46.00339" lon="5.74579">
        <ele>994.8</ele>
        <time>2026-05-13T16:57:28Z</time>
      </trkpt>
      <trkpt lat="46.00341" lon="5.74576">
        <ele>995.2</ele>
        <time>2026-05-13T16:57:29Z</time>
      </trkpt>
      <trkpt lat="46.00344" lon="5.74574">
        <ele>995.2</ele>
        <time>2026-05-13T16:57:30Z</time>
      </trkpt>
      <trkpt lat="46.00347" lon="5.74573">
        <ele>995.4</ele>
        <time>2026-05-13T16:57:31Z</time>
      </trkpt>
      <trkpt lat="46.0035" lon="5.74571">
        <ele>995.4</ele>
        <time>2026-05-13T16:57:32Z</time>
      </trkpt>
      <trkpt lat="46.00353" lon="5.7457">
        <ele>995</ele>
        <time>2026-05-13T16:57:33Z</time>
      </trkpt>
      <trkpt lat="46.00356" lon="5.74568">
        <ele>995.4</ele>
        <time>2026-05-13T16:57:34Z</time>
      </trkpt>
      <trkpt lat="46.00359" lon="5.74567">
        <ele>995.4</ele>
        <time>2026-05-13T16:57:35Z</time>
      </trkpt>
      <trkpt lat="46.00361" lon="5.74566">
        <ele>995.6</ele>
        <time>2026-05-13T16:57:36Z</time>
      </trkpt>
      <trkpt lat="46.00364" lon="5.74565">
        <ele>995.6</ele>
        <time>2026-05-13T16:57:37Z</time>
      </trkpt>
      <trkpt lat="46.00367" lon="5.74564">
        <ele>995.6</ele>
        <time>2026-05-13T16:57:38Z</time>
      </trkpt>
      <trkpt lat="46.00369" lon="5.74564">
        <ele>995.6</ele>
        <time>2026-05-13T16:57:39Z</time>
      </trkpt>
      <trkpt lat="46.00372" lon="5.74564">
        <ele>996</ele>
        <time>2026-05-13T16:57:40Z</time>
      </trkpt>
      <trkpt lat="46.00375" lon="5.74563">
        <ele>996</ele>
        <time>2026-05-13T16:57:41Z</time>
      </trkpt>
      <trkpt lat="46.00378" lon="5.74563">
        <ele>996</ele>
        <time>2026-05-13T16:57:42Z</time>
      </trkpt>
      <trkpt lat="46.00378" lon="5.74563">
        <ele>996</ele>
        <time>2026-05-13T16:57:43Z</time>
      </trkpt>
      <trkpt lat="46.00378" lon="5.74563">
        <ele>995.8</ele>
        <time>2026-05-13T16:57:44Z</time>
      </trkpt>
      <trkpt lat="46.0039" lon="5.74566">
        <ele>995.8</ele>
        <time>2026-05-13T16:57:47Z</time>
      </trkpt>
      <trkpt lat="46.00393" lon="5.74566">
        <ele>996</ele>
        <time>2026-05-13T16:57:48Z</time>
      </trkpt>
      <trkpt lat="46.00395" lon="5.74567">
        <ele>996.2</ele>
        <time>2026-05-13T16:57:49Z</time>
      </trkpt>
      <trkpt lat="46.00398" lon="5.74568">
        <ele>996.2</ele>
        <time>2026-05-13T16:57:50Z</time>
      </trkpt>
      <trkpt lat="46.00401" lon="5.74569">
        <ele>996.6</ele>
        <time>2026-05-13T16:57:51Z</time>
      </trkpt>
      <trkpt lat="46.00404" lon="5.7457">
        <ele>996.6</ele>
        <time>2026-05-13T16:57:52Z</time>
      </trkpt>
      <trkpt lat="46.00407" lon="5.7457">
        <ele>996.6</ele>
        <time>2026-05-13T16:57:53Z</time>
      </trkpt>
      <trkpt lat="46.00409" lon="5.74571">
        <ele>996.8</ele>
        <time>2026-05-13T16:57:54Z</time>
      </trkpt>
      <trkpt lat="46.00412" lon="5.74571">
        <ele>996.8</ele>
        <time>2026-05-13T16:57:55Z</time>
      </trkpt>
      <trkpt lat="46.00415" lon="5.74572">
        <ele>996.8</ele>
        <time>2026-05-13T16:57:56Z</time>
      </trkpt>
      <trkpt lat="46.00418" lon="5.74572">
        <ele>996.8</ele>
        <time>2026-05-13T16:57:57Z</time>
      </trkpt>
      <trkpt lat="46.00421" lon="5.74572">
        <ele>996.8</ele>
        <time>2026-05-13T16:57:58Z</time>
      </trkpt>
      <trkpt lat="46.00424" lon="5.74572">
        <ele>996.8</ele>
        <time>2026-05-13T16:57:59Z</time>
      </trkpt>
      <trkpt lat="46.00427" lon="5.74571">
        <ele>997.2</ele>
        <time>2026-05-13T16:58:00Z</time>
      </trkpt>
      <trkpt lat="46.00429" lon="5.74571">
        <ele>997.2</ele>
        <time>2026-05-13T16:58:01Z</time>
      </trkpt>
      <trkpt lat="46.00432" lon="5.7457">
        <ele>997.2</ele>
        <time>2026-05-13T16:58:02Z</time>
      </trkpt>
      <trkpt lat="46.00435" lon="5.74569">
        <ele>997.2</ele>
        <time>2026-05-13T16:58:03Z</time>
      </trkpt>
      <trkpt lat="46.00438" lon="5.74568">
        <ele>997.2</ele>
        <time>2026-05-13T16:58:04Z</time>
      </trkpt>
      <trkpt lat="46.00441" lon="5.74567">
        <ele>997.2</ele>
        <time>2026-05-13T16:58:05Z</time>
      </trkpt>
      <trkpt lat="46.00443" lon="5.74566">
        <ele>997.6</ele>
        <time>2026-05-13T16:58:06Z</time>
      </trkpt>
      <trkpt lat="46.00446" lon="5.74565">
        <ele>997.6</ele>
        <time>2026-05-13T16:58:07Z</time>
      </trkpt>
      <trkpt lat="46.00449" lon="5.74564">
        <ele>997.6</ele>
        <time>2026-05-13T16:58:08Z</time>
      </trkpt>
      <trkpt lat="46.00452" lon="5.74563">
        <ele>997.6</ele>
        <time>2026-05-13T16:58:09Z</time>
      </trkpt>
      <trkpt lat="46.00455" lon="5.74562">
        <ele>997.8</ele>
        <time>2026-05-13T16:58:10Z</time>
      </trkpt>
      <trkpt lat="46.00457" lon="5.74561">
        <ele>997.8</ele>
        <time>2026-05-13T16:58:11Z</time>
      </trkpt>
      <trkpt lat="46.0046" lon="5.7456">
        <ele>997.8</ele>
        <time>2026-05-13T16:58:12Z</time>
      </trkpt>
      <trkpt lat="46.00462" lon="5.7456">
        <ele>997.8</ele>
        <time>2026-05-13T16:58:13Z</time>
      </trkpt>
      <trkpt lat="46.00465" lon="5.7456">
        <ele>997.8</ele>
        <time>2026-05-13T16:58:14Z</time>
      </trkpt>
      <trkpt lat="46.00468" lon="5.7456">
        <ele>997.4</ele>
        <time>2026-05-13T16:58:15Z</time>
      </trkpt>
      <trkpt lat="46.00471" lon="5.74561">
        <ele>997.4</ele>
        <time>2026-05-13T16:58:16Z</time>
      </trkpt>
      <trkpt lat="46.00473" lon="5.74562">
        <ele>997.8</ele>
        <time>2026-05-13T16:58:17Z</time>
      </trkpt>
      <trkpt lat="46.00476" lon="5.74564">
        <ele>997.8</ele>
        <time>2026-05-13T16:58:18Z</time>
      </trkpt>
      <trkpt lat="46.00478" lon="5.74566">
        <ele>997.8</ele>
        <time>2026-05-13T16:58:19Z</time>
      </trkpt>
      <trkpt lat="46.0048" lon="5.74569">
        <ele>997.6</ele>
        <time>2026-05-13T16:58:20Z</time>
      </trkpt>
      <trkpt lat="46.00482" lon="5.74572">
        <ele>997.6</ele>
        <time>2026-05-13T16:58:21Z</time>
      </trkpt>
      <trkpt lat="46.00484" lon="5.74575">
        <ele>997.6</ele>
        <time>2026-05-13T16:58:22Z</time>
      </trkpt>
      <trkpt lat="46.00486" lon="5.74578">
        <ele>997.6</ele>
        <time>2026-05-13T16:58:23Z</time>
      </trkpt>
      <trkpt lat="46.00488" lon="5.74581">
        <ele>997.6</ele>
        <time>2026-05-13T16:58:24Z</time>
      </trkpt>
      <trkpt lat="46.0049" lon="5.74584">
        <ele>997.6</ele>
        <time>2026-05-13T16:58:25Z</time>
      </trkpt>
      <trkpt lat="46.00491" lon="5.74586">
        <ele>997.8</ele>
        <time>2026-05-13T16:58:26Z</time>
      </trkpt>
      <trkpt lat="46.00493" lon="5.74588">
        <ele>997.8</ele>
        <time>2026-05-13T16:58:27Z</time>
      </trkpt>
      <trkpt lat="46.00497" lon="5.74592">
        <ele>997.8</ele>
        <time>2026-05-13T16:58:28Z</time>
      </trkpt>
      <trkpt lat="46.00498" lon="5.74593">
        <ele>997.8</ele>
        <time>2026-05-13T16:58:29Z</time>
      </trkpt>
      <trkpt lat="46.00499" lon="5.74594">
        <ele>998.2</ele>
        <time>2026-05-13T16:58:30Z</time>
      </trkpt>
      <trkpt lat="46.00501" lon="5.74595">
        <ele>998.2</ele>
        <time>2026-05-13T16:58:31Z</time>
      </trkpt>
      <trkpt lat="46.00503" lon="5.74596">
        <ele>998.2</ele>
        <time>2026-05-13T16:58:32Z</time>
      </trkpt>
      <trkpt lat="46.00504" lon="5.74596">
        <ele>998.2</ele>
        <time>2026-05-13T16:58:33Z</time>
      </trkpt>
      <trkpt lat="46.00506" lon="5.74596">
        <ele>998.2</ele>
        <time>2026-05-13T16:58:34Z</time>
      </trkpt>
      <trkpt lat="46.00508" lon="5.74597">
        <ele>998.2</ele>
        <time>2026-05-13T16:58:35Z</time>
      </trkpt>
      <trkpt lat="46.00509" lon="5.74599">
        <ele>998.4</ele>
        <time>2026-05-13T16:58:36Z</time>
      </trkpt>
      <trkpt lat="46.0051" lon="5.746">
        <ele>998.4</ele>
        <time>2026-05-13T16:58:37Z</time>
      </trkpt>
      <trkpt lat="46.00512" lon="5.74601">
        <ele>998.4</ele>
        <time>2026-05-13T16:58:38Z</time>
      </trkpt>
      <trkpt lat="46.00514" lon="5.74601">
        <ele>998.8</ele>
        <time>2026-05-13T16:58:39Z</time>
      </trkpt>
      <trkpt lat="46.00515" lon="5.74602">
        <ele>998.8</ele>
        <time>2026-05-13T16:58:40Z</time>
      </trkpt>
      <trkpt lat="46.00517" lon="5.74602">
        <ele>999</ele>
        <time>2026-05-13T16:58:41Z</time>
      </trkpt>
      <trkpt lat="46.00519" lon="5.74602">
        <ele>999</ele>
        <time>2026-05-13T16:58:42Z</time>
      </trkpt>
      <trkpt lat="46.00521" lon="5.74603">
        <ele>999</ele>
        <time>2026-05-13T16:58:43Z</time>
      </trkpt>
      <trkpt lat="46.00522" lon="5.74603">
        <ele>999</ele>
        <time>2026-05-13T16:58:44Z</time>
      </trkpt>
      <trkpt lat="46.00524" lon="5.74604">
        <ele>999.2</ele>
        <time>2026-05-13T16:58:45Z</time>
      </trkpt>
      <trkpt lat="46.00526" lon="5.74604">
        <ele>999.4</ele>
        <time>2026-05-13T16:58:46Z</time>
      </trkpt>
      <trkpt lat="46.00527" lon="5.74605">
        <ele>999.8</ele>
        <time>2026-05-13T16:58:47Z</time>
      </trkpt>
      <trkpt lat="46.00529" lon="5.74605">
        <ele>1000</ele>
        <time>2026-05-13T16:58:48Z</time>
      </trkpt>
      <trkpt lat="46.0053" lon="5.74604">
        <ele>1000.6</ele>
        <time>2026-05-13T16:58:49Z</time>
      </trkpt>
      <trkpt lat="46.0053" lon="5.74604">
        <ele>1000.6</ele>
        <time>2026-05-13T16:58:50Z</time>
      </trkpt>
      <trkpt lat="46.0053" lon="5.74604">
        <ele>1000.6</ele>
        <time>2026-05-13T16:58:51Z</time>
      </trkpt>
      <trkpt lat="46.0053" lon="5.74603">
        <ele>1000.6</ele>
        <time>2026-05-13T16:58:52Z</time>
      </trkpt>
      <trkpt lat="46.0053" lon="5.74601">
        <ele>1000.6</ele>
        <time>2026-05-13T16:59:50Z</time>
      </trkpt>
      <trkpt lat="46.0053" lon="5.74602">
        <ele>1000.6</ele>
        <time>2026-05-13T16:59:51Z</time>
      </trkpt>
      <trkpt lat="46.00531" lon="5.74603">
        <ele>1000.6</ele>
        <time>2026-05-13T16:59:52Z</time>
      </trkpt>
      <trkpt lat="46.00533" lon="5.74604">
        <ele>1000.4</ele>
        <time>2026-05-13T16:59:53Z</time>
      </trkpt>
      <trkpt lat="46.00535" lon="5.74603">
        <ele>1000.4</ele>
        <time>2026-05-13T16:59:54Z</time>
      </trkpt>
      <trkpt lat="46.00537" lon="5.74603">
        <ele>1000.8</ele>
        <time>2026-05-13T16:59:55Z</time>
      </trkpt>
      <trkpt lat="46.00538" lon="5.74604">
        <ele>1001</ele>
        <time>2026-05-13T16:59:56Z</time>
      </trkpt>
      <trkpt lat="46.0054" lon="5.74606">
        <ele>1001</ele>
        <time>2026-05-13T16:59:57Z</time>
      </trkpt>
      <trkpt lat="46.00542" lon="5.74608">
        <ele>1001.4</ele>
        <time>2026-05-13T16:59:58Z</time>
      </trkpt>
      <trkpt lat="46.00543" lon="5.7461">
        <ele>1001.4</ele>
        <time>2026-05-13T16:59:59Z</time>
      </trkpt>
      <trkpt lat="46.00545" lon="5.74611">
        <ele>1001.6</ele>
        <time>2026-05-13T17:00:00Z</time>
      </trkpt>
      <trkpt lat="46.00547" lon="5.74612">
        <ele>1001.8</ele>
        <time>2026-05-13T17:00:01Z</time>
      </trkpt>
      <trkpt lat="46.00548" lon="5.74613">
        <ele>1001.8</ele>
        <time>2026-05-13T17:00:02Z</time>
      </trkpt>
      <trkpt lat="46.0055" lon="5.74614">
        <ele>1001.8</ele>
        <time>2026-05-13T17:00:03Z</time>
      </trkpt>
      <trkpt lat="46.00552" lon="5.74616">
        <ele>1002</ele>
        <time>2026-05-13T17:00:04Z</time>
      </trkpt>
      <trkpt lat="46.00553" lon="5.74617">
        <ele>1002</ele>
        <time>2026-05-13T17:00:05Z</time>
      </trkpt>
      <trkpt lat="46.00555" lon="5.74618">
        <ele>1002.4</ele>
        <time>2026-05-13T17:00:06Z</time>
      </trkpt>
      <trkpt lat="46.00557" lon="5.74619">
        <ele>1002.4</ele>
        <time>2026-05-13T17:00:07Z</time>
      </trkpt>
      <trkpt lat="46.00558" lon="5.7462">
        <ele>1002.4</ele>
        <time>2026-05-13T17:00:08Z</time>
      </trkpt>
      <trkpt lat="46.0056" lon="5.74621">
        <ele>1002.6</ele>
        <time>2026-05-13T17:00:09Z</time>
      </trkpt>
      <trkpt lat="46.00562" lon="5.74622">
        <ele>1002.6</ele>
        <time>2026-05-13T17:00:10Z</time>
      </trkpt>
      <trkpt lat="46.00563" lon="5.74623">
        <ele>1002.6</ele>
        <time>2026-05-13T17:00:11Z</time>
      </trkpt>
      <trkpt lat="46.00565" lon="5.74624">
        <ele>1002.8</ele>
        <time>2026-05-13T17:00:12Z</time>
      </trkpt>
      <trkpt lat="46.00566" lon="5.74624">
        <ele>1003.2</ele>
        <time>2026-05-13T17:00:13Z</time>
      </trkpt>
      <trkpt lat="46.00568" lon="5.74626">
        <ele>1003.2</ele>
        <time>2026-05-13T17:00:14Z</time>
      </trkpt>
      <trkpt lat="46.00569" lon="5.74627">
        <ele>1003.2</ele>
        <time>2026-05-13T17:00:15Z</time>
      </trkpt>
      <trkpt lat="46.00571" lon="5.74629">
        <ele>1003.6</ele>
        <time>2026-05-13T17:00:16Z</time>
      </trkpt>
      <trkpt lat="46.00573" lon="5.7463">
        <ele>1003.6</ele>
        <time>2026-05-13T17:00:17Z</time>
      </trkpt>
      <trkpt lat="46.00574" lon="5.74631">
        <ele>1003.8</ele>
        <time>2026-05-13T17:00:18Z</time>
      </trkpt>
      <trkpt lat="46.00576" lon="5.74632">
        <ele>1003.8</ele>
        <time>2026-05-13T17:00:19Z</time>
      </trkpt>
      <trkpt lat="46.00577" lon="5.74633">
        <ele>1003.8</ele>
        <time>2026-05-13T17:00:20Z</time>
      </trkpt>
      <trkpt lat="46.00579" lon="5.74634">
        <ele>1003.8</ele>
        <time>2026-05-13T17:00:21Z</time>
      </trkpt>
      <trkpt lat="46.00581" lon="5.74635">
        <ele>1003.8</ele>
        <time>2026-05-13T17:00:22Z</time>
      </trkpt>
      <trkpt lat="46.00583" lon="5.74636">
        <ele>1004</ele>
        <time>2026-05-13T17:00:23Z</time>
      </trkpt>
      <trkpt lat="46.00584" lon="5.74638">
        <ele>1004</ele>
        <time>2026-05-13T17:00:24Z</time>
      </trkpt>
      <trkpt lat="46.00585" lon="5.74639">
        <ele>1004.4</ele>
        <time>2026-05-13T17:00:25Z</time>
      </trkpt>
      <trkpt lat="46.00586" lon="5.7464">
        <ele>1004.4</ele>
        <time>2026-05-13T17:00:26Z</time>
      </trkpt>
      <trkpt lat="46.00588" lon="5.7464">
        <ele>1004.4</ele>
        <time>2026-05-13T17:00:27Z</time>
      </trkpt>
      <trkpt lat="46.0059" lon="5.74641">
        <ele>1004.8</ele>
        <time>2026-05-13T17:00:28Z</time>
      </trkpt>
      <trkpt lat="46.00591" lon="5.74642">
        <ele>1005</ele>
        <time>2026-05-13T17:00:29Z</time>
      </trkpt>
      <trkpt lat="46.00593" lon="5.74643">
        <ele>1005</ele>
        <time>2026-05-13T17:00:30Z</time>
      </trkpt>
      <trkpt lat="46.00594" lon="5.74644">
        <ele>1005.2</ele>
        <time>2026-05-13T17:00:31Z</time>
      </trkpt>
      <trkpt lat="46.00596" lon="5.74644">
        <ele>1005.2</ele>
        <time>2026-05-13T17:00:32Z</time>
      </trkpt>
      <trkpt lat="46.00597" lon="5.74644">
        <ele>1005.2</ele>
        <time>2026-05-13T17:00:33Z</time>
      </trkpt>
      <trkpt lat="46.00599" lon="5.74645">
        <ele>1005.6</ele>
        <time>2026-05-13T17:00:34Z</time>
      </trkpt>
      <trkpt lat="46.006" lon="5.74645">
        <ele>1005.8</ele>
        <time>2026-05-13T17:00:35Z</time>
      </trkpt>
      <trkpt lat="46.00601" lon="5.74645">
        <ele>1005.8</ele>
        <time>2026-05-13T17:00:36Z</time>
      </trkpt>
      <trkpt lat="46.00602" lon="5.74644">
        <ele>1006.2</ele>
        <time>2026-05-13T17:00:37Z</time>
      </trkpt>
      <trkpt lat="46.00604" lon="5.74644">
        <ele>1006.2</ele>
        <time>2026-05-13T17:00:38Z</time>
      </trkpt>
      <trkpt lat="46.00605" lon="5.74644">
        <ele>1006.4</ele>
        <time>2026-05-13T17:00:39Z</time>
      </trkpt>
      <trkpt lat="46.00606" lon="5.74644">
        <ele>1006.4</ele>
        <time>2026-05-13T17:00:40Z</time>
      </trkpt>
      <trkpt lat="46.00606" lon="5.74642">
        <ele>1006.6</ele>
        <time>2026-05-13T17:00:41Z</time>
      </trkpt>
      <trkpt lat="46.00606" lon="5.74641">
        <ele>1006.6</ele>
        <time>2026-05-13T17:00:42Z</time>
      </trkpt>
      <trkpt lat="46.00606" lon="5.74639">
        <ele>1007.2</ele>
        <time>2026-05-13T17:01:20Z</time>
      </trkpt>
      <trkpt lat="46.00608" lon="5.7464">
        <ele>1007.2</ele>
        <time>2026-05-13T17:01:21Z</time>
      </trkpt>
      <trkpt lat="46.0061" lon="5.74642">
        <ele>1007.2</ele>
        <time>2026-05-13T17:01:22Z</time>
      </trkpt>
      <trkpt lat="46.00612" lon="5.74643">
        <ele>1007.2</ele>
        <time>2026-05-13T17:01:23Z</time>
      </trkpt>
      <trkpt lat="46.00614" lon="5.74643">
        <ele>1007.2</ele>
        <time>2026-05-13T17:01:24Z</time>
      </trkpt>
      <trkpt lat="46.00616" lon="5.74643">
        <ele>1007.4</ele>
        <time>2026-05-13T17:01:25Z</time>
      </trkpt>
      <trkpt lat="46.00618" lon="5.74643">
        <ele>1007.4</ele>
        <time>2026-05-13T17:01:26Z</time>
      </trkpt>
      <trkpt lat="46.00619" lon="5.74644">
        <ele>1007.8</ele>
        <time>2026-05-13T17:01:27Z</time>
      </trkpt>
      <trkpt lat="46.00621" lon="5.74644">
        <ele>1007.8</ele>
        <time>2026-05-13T17:01:28Z</time>
      </trkpt>
      <trkpt lat="46.00623" lon="5.74644">
        <ele>1008.2</ele>
        <time>2026-05-13T17:01:29Z</time>
      </trkpt>
      <trkpt lat="46.00625" lon="5.74645">
        <ele>1008.2</ele>
        <time>2026-05-13T17:01:30Z</time>
      </trkpt>
      <trkpt lat="46.00626" lon="5.74646">
        <ele>1008.4</ele>
        <time>2026-05-13T17:01:31Z</time>
      </trkpt>
      <trkpt lat="46.00627" lon="5.74646">
        <ele>1008.4</ele>
        <time>2026-05-13T17:01:32Z</time>
      </trkpt>
      <trkpt lat="46.00629" lon="5.74647">
        <ele>1008.8</ele>
        <time>2026-05-13T17:01:33Z</time>
      </trkpt>
      <trkpt lat="46.0063" lon="5.74646">
        <ele>1008.8</ele>
        <time>2026-05-13T17:01:34Z</time>
      </trkpt>
      <trkpt lat="46.00632" lon="5.74646">
        <ele>1009</ele>
        <time>2026-05-13T17:01:35Z</time>
      </trkpt>
      <trkpt lat="46.00634" lon="5.74645">
        <ele>1009.4</ele>
        <time>2026-05-13T17:01:36Z</time>
      </trkpt>
      <trkpt lat="46.00636" lon="5.74644">
        <ele>1009.8</ele>
        <time>2026-05-13T17:01:37Z</time>
      </trkpt>
      <trkpt lat="46.00638" lon="5.74642">
        <ele>1010</ele>
        <time>2026-05-13T17:01:38Z</time>
      </trkpt>
      <trkpt lat="46.00639" lon="5.7464">
        <ele>1010</ele>
        <time>2026-05-13T17:01:39Z</time>
      </trkpt>
      <trkpt lat="46.00641" lon="5.7464">
        <ele>1010.2</ele>
        <time>2026-05-13T17:01:40Z</time>
      </trkpt>
      <trkpt lat="46.00642" lon="5.74639">
        <ele>1010.2</ele>
        <time>2026-05-13T17:01:41Z</time>
      </trkpt>
      <trkpt lat="46.00644" lon="5.74638">
        <ele>1010.2</ele>
        <time>2026-05-13T17:01:42Z</time>
      </trkpt>
      <trkpt lat="46.00646" lon="5.74638">
        <ele>1010.8</ele>
        <time>2026-05-13T17:01:43Z</time>
      </trkpt>
      <trkpt lat="46.00647" lon="5.74637">
        <ele>1010.8</ele>
        <time>2026-05-13T17:01:44Z</time>
      </trkpt>
      <trkpt lat="46.00649" lon="5.74637">
        <ele>1011.2</ele>
        <time>2026-05-13T17:01:45Z</time>
      </trkpt>
      <trkpt lat="46.0065" lon="5.74637">
        <ele>1011.4</ele>
        <time>2026-05-13T17:01:46Z</time>
      </trkpt>
      <trkpt lat="46.00652" lon="5.74638">
        <ele>1011.4</ele>
        <time>2026-05-13T17:01:47Z</time>
      </trkpt>
      <trkpt lat="46.00655" lon="5.74638">
        <ele>1011.8</ele>
        <time>2026-05-13T17:01:48Z</time>
      </trkpt>
      <trkpt lat="46.00656" lon="5.74638">
        <ele>1011.8</ele>
        <time>2026-05-13T17:01:49Z</time>
      </trkpt>
      <trkpt lat="46.00657" lon="5.74638">
        <ele>1011.8</ele>
        <time>2026-05-13T17:01:50Z</time>
      </trkpt>
      <trkpt lat="46.00659" lon="5.74638">
        <ele>1012</ele>
        <time>2026-05-13T17:01:51Z</time>
      </trkpt>
      <trkpt lat="46.00661" lon="5.74638">
        <ele>1012</ele>
        <time>2026-05-13T17:01:52Z</time>
      </trkpt>
      <trkpt lat="46.00663" lon="5.74638">
        <ele>1012.2</ele>
        <time>2026-05-13T17:01:53Z</time>
      </trkpt>
      <trkpt lat="46.00664" lon="5.74638">
        <ele>1012.4</ele>
        <time>2026-05-13T17:01:54Z</time>
      </trkpt>
      <trkpt lat="46.00666" lon="5.74638">
        <ele>1012.6</ele>
        <time>2026-05-13T17:01:55Z</time>
      </trkpt>
      <trkpt lat="46.00668" lon="5.74638">
        <ele>1012.6</ele>
        <time>2026-05-13T17:01:56Z</time>
      </trkpt>
      <trkpt lat="46.0067" lon="5.74639">
        <ele>1013</ele>
        <time>2026-05-13T17:01:57Z</time>
      </trkpt>
      <trkpt lat="46.00671" lon="5.7464">
        <ele>1013</ele>
        <time>2026-05-13T17:01:58Z</time>
      </trkpt>
      <trkpt lat="46.00673" lon="5.74641">
        <ele>1013.4</ele>
        <time>2026-05-13T17:01:59Z</time>
      </trkpt>
      <trkpt lat="46.00674" lon="5.74642">
        <ele>1013.4</ele>
        <time>2026-05-13T17:02:00Z</time>
      </trkpt>
      <trkpt lat="46.00675" lon="5.74644">
        <ele>1013.8</ele>
        <time>2026-05-13T17:02:01Z</time>
      </trkpt>
      <trkpt lat="46.00677" lon="5.74648">
        <ele>1013.8</ele>
        <time>2026-05-13T17:02:02Z</time>
      </trkpt>
      <trkpt lat="46.00678" lon="5.7465">
        <ele>1014</ele>
        <time>2026-05-13T17:02:03Z</time>
      </trkpt>
      <trkpt lat="46.00679" lon="5.74652">
        <ele>1014</ele>
        <time>2026-05-13T17:02:04Z</time>
      </trkpt>
      <trkpt lat="46.0068" lon="5.74653">
        <ele>1014.4</ele>
        <time>2026-05-13T17:02:05Z</time>
      </trkpt>
      <trkpt lat="46.00682" lon="5.74654">
        <ele>1014.4</ele>
        <time>2026-05-13T17:02:06Z</time>
      </trkpt>
      <trkpt lat="46.00684" lon="5.74656">
        <ele>1014.4</ele>
        <time>2026-05-13T17:02:07Z</time>
      </trkpt>
      <trkpt lat="46.00685" lon="5.74658">
        <ele>1014.6</ele>
        <time>2026-05-13T17:02:08Z</time>
      </trkpt>
      <trkpt lat="46.00687" lon="5.74659">
        <ele>1014.8</ele>
        <time>2026-05-13T17:02:09Z</time>
      </trkpt>
      <trkpt lat="46.00688" lon="5.7466">
        <ele>1014.8</ele>
        <time>2026-05-13T17:02:10Z</time>
      </trkpt>
      <trkpt lat="46.0069" lon="5.74661">
        <ele>1015.2</ele>
        <time>2026-05-13T17:02:11Z</time>
      </trkpt>
      <trkpt lat="46.00691" lon="5.74662">
        <ele>1015.2</ele>
        <time>2026-05-13T17:02:12Z</time>
      </trkpt>
      <trkpt lat="46.00693" lon="5.74663">
        <ele>1015.6</ele>
        <time>2026-05-13T17:02:13Z</time>
      </trkpt>
      <trkpt lat="46.00694" lon="5.74665">
        <ele>1015.6</ele>
        <time>2026-05-13T17:02:14Z</time>
      </trkpt>
      <trkpt lat="46.00695" lon="5.74666">
        <ele>1015.8</ele>
        <time>2026-05-13T17:02:15Z</time>
      </trkpt>
      <trkpt lat="46.00696" lon="5.74667">
        <ele>1015.8</ele>
        <time>2026-05-13T17:02:16Z</time>
      </trkpt>
      <trkpt lat="46.00697" lon="5.74669">
        <ele>1016</ele>
        <time>2026-05-13T17:02:17Z</time>
      </trkpt>
      <trkpt lat="46.00697" lon="5.7467">
        <ele>1016</ele>
        <time>2026-05-13T17:02:18Z</time>
      </trkpt>
      <trkpt lat="46.00699" lon="5.7467">
        <ele>1016.4</ele>
        <time>2026-05-13T17:02:19Z</time>
      </trkpt>
      <trkpt lat="46.00701" lon="5.7467">
        <ele>1016.4</ele>
        <time>2026-05-13T17:02:20Z</time>
      </trkpt>
      <trkpt lat="46.00702" lon="5.7467">
        <ele>1016.6</ele>
        <time>2026-05-13T17:02:21Z</time>
      </trkpt>
      <trkpt lat="46.00704" lon="5.74671">
        <ele>1016.6</ele>
        <time>2026-05-13T17:02:22Z</time>
      </trkpt>
      <trkpt lat="46.00705" lon="5.74673">
        <ele>1016.6</ele>
        <time>2026-05-13T17:02:23Z</time>
      </trkpt>
      <trkpt lat="46.00707" lon="5.74674">
        <ele>1017</ele>
        <time>2026-05-13T17:02:24Z</time>
      </trkpt>
      <trkpt lat="46.00707" lon="5.74674">
        <ele>1017.2</ele>
        <time>2026-05-13T17:02:25Z</time>
      </trkpt>
      <trkpt lat="46.00708" lon="5.74675">
        <ele>1017.4</ele>
        <time>2026-05-13T17:02:26Z</time>
      </trkpt>
      <trkpt lat="46.00709" lon="5.74676">
        <ele>1017.4</ele>
        <time>2026-05-13T17:02:27Z</time>
      </trkpt>
      <trkpt lat="46.0071" lon="5.74677">
        <ele>1017.4</ele>
        <time>2026-05-13T17:02:28Z</time>
      </trkpt>
      <trkpt lat="46.00711" lon="5.74677">
        <ele>1017.4</ele>
        <time>2026-05-13T17:02:29Z</time>
      </trkpt>
      <trkpt lat="46.00713" lon="5.74677">
        <ele>1017.8</ele>
        <time>2026-05-13T17:02:30Z</time>
      </trkpt>
      <trkpt lat="46.00715" lon="5.74677">
        <ele>1017.8</ele>
        <time>2026-05-13T17:02:31Z</time>
      </trkpt>
      <trkpt lat="46.00716" lon="5.74677">
        <ele>1017.8</ele>
        <time>2026-05-13T17:02:32Z</time>
      </trkpt>
      <trkpt lat="46.00718" lon="5.74679">
        <ele>1018.2</ele>
        <time>2026-05-13T17:02:33Z</time>
      </trkpt>
      <trkpt lat="46.00719" lon="5.7468">
        <ele>1018.2</ele>
        <time>2026-05-13T17:02:34Z</time>
      </trkpt>
      <trkpt lat="46.0072" lon="5.74681">
        <ele>1018.4</ele>
        <time>2026-05-13T17:02:35Z</time>
      </trkpt>
      <trkpt lat="46.0072" lon="5.74682">
        <ele>1018.4</ele>
        <time>2026-05-13T17:02:36Z</time>
      </trkpt>
      <trkpt lat="46.0072" lon="5.74682">
        <ele>1018.4</ele>
        <time>2026-05-13T17:02:37Z</time>
      </trkpt>
      <trkpt lat="46.00721" lon="5.74684">
        <ele>1018.4</ele>
        <time>2026-05-13T17:02:38Z</time>
      </trkpt>
      <trkpt lat="46.00723" lon="5.74686">
        <ele>1018.4</ele>
        <time>2026-05-13T17:02:39Z</time>
      </trkpt>
      <trkpt lat="46.00724" lon="5.74686">
        <ele>1018.6</ele>
        <time>2026-05-13T17:02:40Z</time>
      </trkpt>
      <trkpt lat="46.00725" lon="5.74688">
        <ele>1018.6</ele>
        <time>2026-05-13T17:02:41Z</time>
      </trkpt>
      <trkpt lat="46.00726" lon="5.74689">
        <ele>1018.6</ele>
        <time>2026-05-13T17:02:42Z</time>
      </trkpt>
      <trkpt lat="46.00727" lon="5.7469">
        <ele>1018.6</ele>
        <time>2026-05-13T17:02:43Z</time>
      </trkpt>
      <trkpt lat="46.00729" lon="5.74692">
        <ele>1019</ele>
        <time>2026-05-13T17:02:44Z</time>
      </trkpt>
      <trkpt lat="46.0073" lon="5.74693">
        <ele>1019</ele>
        <time>2026-05-13T17:02:45Z</time>
      </trkpt>
      <trkpt lat="46.00731" lon="5.74694">
        <ele>1019.2</ele>
        <time>2026-05-13T17:02:46Z</time>
      </trkpt>
      <trkpt lat="46.00733" lon="5.74696">
        <ele>1019.4</ele>
        <time>2026-05-13T17:02:47Z</time>
      </trkpt>
      <trkpt lat="46.00734" lon="5.74698">
        <ele>1019.6</ele>
        <time>2026-05-13T17:02:48Z</time>
      </trkpt>
      <trkpt lat="46.00736" lon="5.747">
        <ele>1019.6</ele>
        <time>2026-05-13T17:02:49Z</time>
      </trkpt>
      <trkpt lat="46.00737" lon="5.74702">
        <ele>1020</ele>
        <time>2026-05-13T17:02:50Z</time>
      </trkpt>
      <trkpt lat="46.00738" lon="5.74703">
        <ele>1020</ele>
        <time>2026-05-13T17:02:51Z</time>
      </trkpt>
      <trkpt lat="46.00739" lon="5.74704">
        <ele>1020</ele>
        <time>2026-05-13T17:02:52Z</time>
      </trkpt>
      <trkpt lat="46.00741" lon="5.74704">
        <ele>1020.4</ele>
        <time>2026-05-13T17:02:53Z</time>
      </trkpt>
      <trkpt lat="46.00742" lon="5.74704">
        <ele>1020.4</ele>
        <time>2026-05-13T17:02:54Z</time>
      </trkpt>
      <trkpt lat="46.00743" lon="5.74704">
        <ele>1020.4</ele>
        <time>2026-05-13T17:02:55Z</time>
      </trkpt>
      <trkpt lat="46.00744" lon="5.74705">
        <ele>1020.6</ele>
        <time>2026-05-13T17:02:56Z</time>
      </trkpt>
      <trkpt lat="46.00745" lon="5.74706">
        <ele>1020.6</ele>
        <time>2026-05-13T17:02:57Z</time>
      </trkpt>
      <trkpt lat="46.00747" lon="5.74708">
        <ele>1020.6</ele>
        <time>2026-05-13T17:02:58Z</time>
      </trkpt>
      <trkpt lat="46.00748" lon="5.74709">
        <ele>1020.8</ele>
        <time>2026-05-13T17:02:59Z</time>
      </trkpt>
      <trkpt lat="46.0075" lon="5.7471">
        <ele>1020.8</ele>
        <time>2026-05-13T17:03:00Z</time>
      </trkpt>
      <trkpt lat="46.00751" lon="5.74711">
        <ele>1021.4</ele>
        <time>2026-05-13T17:03:01Z</time>
      </trkpt>
      <trkpt lat="46.00752" lon="5.74712">
        <ele>1021.6</ele>
        <time>2026-05-13T17:03:02Z</time>
      </trkpt>
      <trkpt lat="46.00753" lon="5.74713">
        <ele>1021.6</ele>
        <time>2026-05-13T17:03:03Z</time>
      </trkpt>
      <trkpt lat="46.00754" lon="5.74714">
        <ele>1021.6</ele>
        <time>2026-05-13T17:03:04Z</time>
      </trkpt>
      <trkpt lat="46.00756" lon="5.74715">
        <ele>1022</ele>
        <time>2026-05-13T17:03:05Z</time>
      </trkpt>
      <trkpt lat="46.00757" lon="5.74716">
        <ele>1022</ele>
        <time>2026-05-13T17:03:06Z</time>
      </trkpt>
      <trkpt lat="46.00758" lon="5.74717">
        <ele>1022</ele>
        <time>2026-05-13T17:03:07Z</time>
      </trkpt>
      <trkpt lat="46.00759" lon="5.74717">
        <ele>1022.2</ele>
        <time>2026-05-13T17:03:08Z</time>
      </trkpt>
      <trkpt lat="46.0076" lon="5.74718">
        <ele>1022.2</ele>
        <time>2026-05-13T17:03:09Z</time>
      </trkpt>
      <trkpt lat="46.0076" lon="5.74719">
        <ele>1022.2</ele>
        <time>2026-05-13T17:03:10Z</time>
      </trkpt>
      <trkpt lat="46.00761" lon="5.74721">
        <ele>1022.2</ele>
        <time>2026-05-13T17:03:11Z</time>
      </trkpt>
      <trkpt lat="46.00762" lon="5.74722">
        <ele>1022.6</ele>
        <time>2026-05-13T17:03:12Z</time>
      </trkpt>
      <trkpt lat="46.00763" lon="5.74723">
        <ele>1022.6</ele>
        <time>2026-05-13T17:03:13Z</time>
      </trkpt>
      <trkpt lat="46.00764" lon="5.74723">
        <ele>1022.8</ele>
        <time>2026-05-13T17:03:14Z</time>
      </trkpt>
      <trkpt lat="46.00765" lon="5.74724">
        <ele>1023.2</ele>
        <time>2026-05-13T17:03:15Z</time>
      </trkpt>
      <trkpt lat="46.00766" lon="5.74724">
        <ele>1023.4</ele>
        <time>2026-05-13T17:03:16Z</time>
      </trkpt>
      <trkpt lat="46.00768" lon="5.74724">
        <ele>1023.4</ele>
        <time>2026-05-13T17:03:17Z</time>
      </trkpt>
      <trkpt lat="46.00769" lon="5.74723">
        <ele>1023.4</ele>
        <time>2026-05-13T17:03:18Z</time>
      </trkpt>
      <trkpt lat="46.0077" lon="5.74723">
        <ele>1023.8</ele>
        <time>2026-05-13T17:03:19Z</time>
      </trkpt>
      <trkpt lat="46.00772" lon="5.74724">
        <ele>1023.8</ele>
        <time>2026-05-13T17:03:20Z</time>
      </trkpt>
      <trkpt lat="46.00773" lon="5.74724">
        <ele>1024</ele>
        <time>2026-05-13T17:03:21Z</time>
      </trkpt>
      <trkpt lat="46.00774" lon="5.74725">
        <ele>1024</ele>
        <time>2026-05-13T17:03:22Z</time>
      </trkpt>
      <trkpt lat="46.00775" lon="5.74725">
        <ele>1024.2</ele>
        <time>2026-05-13T17:03:23Z</time>
      </trkpt>
      <trkpt lat="46.00776" lon="5.74724">
        <ele>1024.2</ele>
        <time>2026-05-13T17:03:24Z</time>
      </trkpt>
      <trkpt lat="46.00776" lon="5.74723">
        <ele>1024.2</ele>
        <time>2026-05-13T17:03:25Z</time>
      </trkpt>
      <trkpt lat="46.00777" lon="5.74723">
        <ele>1024.6</ele>
        <time>2026-05-13T17:03:26Z</time>
      </trkpt>
      <trkpt lat="46.00778" lon="5.74723">
        <ele>1024.6</ele>
        <time>2026-05-13T17:03:27Z</time>
      </trkpt>
      <trkpt lat="46.00779" lon="5.74724">
        <ele>1024.6</ele>
        <time>2026-05-13T17:03:28Z</time>
      </trkpt>
      <trkpt lat="46.0078" lon="5.74724">
        <ele>1024.8</ele>
        <time>2026-05-13T17:03:29Z</time>
      </trkpt>
      <trkpt lat="46.00781" lon="5.74724">
        <ele>1024.8</ele>
        <time>2026-05-13T17:03:30Z</time>
      </trkpt>
      <trkpt lat="46.00783" lon="5.74724">
        <ele>1024.8</ele>
        <time>2026-05-13T17:03:31Z</time>
      </trkpt>
      <trkpt lat="46.00784" lon="5.74724">
        <ele>1025</ele>
        <time>2026-05-13T17:03:32Z</time>
      </trkpt>
      <trkpt lat="46.00785" lon="5.74724">
        <ele>1025</ele>
        <time>2026-05-13T17:03:33Z</time>
      </trkpt>
      <trkpt lat="46.00787" lon="5.74724">
        <ele>1025.2</ele>
        <time>2026-05-13T17:03:34Z</time>
      </trkpt>
      <trkpt lat="46.00788" lon="5.74724">
        <ele>1025.6</ele>
        <time>2026-05-13T17:03:35Z</time>
      </trkpt>
      <trkpt lat="46.00789" lon="5.74724">
        <ele>1025.6</ele>
        <time>2026-05-13T17:03:36Z</time>
      </trkpt>
      <trkpt lat="46.00791" lon="5.74725">
        <ele>1026</ele>
        <time>2026-05-13T17:03:37Z</time>
      </trkpt>
      <trkpt lat="46.00792" lon="5.74725">
        <ele>1026.2</ele>
        <time>2026-05-13T17:03:38Z</time>
      </trkpt>
      <trkpt lat="46.00793" lon="5.74725">
        <ele>1026.2</ele>
        <time>2026-05-13T17:03:39Z</time>
      </trkpt>
      <trkpt lat="46.00794" lon="5.74725">
        <ele>1026.2</ele>
        <time>2026-05-13T17:03:40Z</time>
      </trkpt>
      <trkpt lat="46.00796" lon="5.74725">
        <ele>1026.4</ele>
        <time>2026-05-13T17:03:41Z</time>
      </trkpt>
      <trkpt lat="46.00797" lon="5.74725">
        <ele>1026.4</ele>
        <time>2026-05-13T17:03:42Z</time>
      </trkpt>
      <trkpt lat="46.00799" lon="5.74725">
        <ele>1026.6</ele>
        <time>2026-05-13T17:03:43Z</time>
      </trkpt>
      <trkpt lat="46.008" lon="5.74725">
        <ele>1026.6</ele>
        <time>2026-05-13T17:03:44Z</time>
      </trkpt>
      <trkpt lat="46.00801" lon="5.74724">
        <ele>1026.8</ele>
        <time>2026-05-13T17:03:45Z</time>
      </trkpt>
      <trkpt lat="46.00801" lon="5.74722">
        <ele>1026.8</ele>
        <time>2026-05-13T17:03:46Z</time>
      </trkpt>
      <trkpt lat="46.00803" lon="5.74721">
        <ele>1026.8</ele>
        <time>2026-05-13T17:03:47Z</time>
      </trkpt>
      <trkpt lat="46.00804" lon="5.7472">
        <ele>1027.2</ele>
        <time>2026-05-13T17:03:48Z</time>
      </trkpt>
      <trkpt lat="46.00805" lon="5.74721">
        <ele>1027.2</ele>
        <time>2026-05-13T17:03:49Z</time>
      </trkpt>
      <trkpt lat="46.00807" lon="5.74722">
        <ele>1027.2</ele>
        <time>2026-05-13T17:03:50Z</time>
      </trkpt>
      <trkpt lat="46.00809" lon="5.74722">
        <ele>1027.4</ele>
        <time>2026-05-13T17:03:51Z</time>
      </trkpt>
      <trkpt lat="46.0081" lon="5.74723">
        <ele>1027.4</ele>
        <time>2026-05-13T17:03:52Z</time>
      </trkpt>
      <trkpt lat="46.00811" lon="5.74723">
        <ele>1027.4</ele>
        <time>2026-05-13T17:03:53Z</time>
      </trkpt>
      <trkpt lat="46.00813" lon="5.74723">
        <ele>1027.8</ele>
        <time>2026-05-13T17:03:54Z</time>
      </trkpt>
      <trkpt lat="46.00815" lon="5.74722">
        <ele>1027.8</ele>
        <time>2026-05-13T17:03:55Z</time>
      </trkpt>
      <trkpt lat="46.00816" lon="5.74721">
        <ele>1028</ele>
        <time>2026-05-13T17:03:56Z</time>
      </trkpt>
      <trkpt lat="46.00817" lon="5.7472">
        <ele>1028</ele>
        <time>2026-05-13T17:03:57Z</time>
      </trkpt>
      <trkpt lat="46.00819" lon="5.7472">
        <ele>1028.4</ele>
        <time>2026-05-13T17:03:58Z</time>
      </trkpt>
      <trkpt lat="46.00819" lon="5.7472">
        <ele>1028.8</ele>
        <time>2026-05-13T17:03:59Z</time>
      </trkpt>
      <trkpt lat="46.0082" lon="5.74719">
        <ele>1028.8</ele>
        <time>2026-05-13T17:04:00Z</time>
      </trkpt>
      <trkpt lat="46.00822" lon="5.7472">
        <ele>1029</ele>
        <time>2026-05-13T17:04:01Z</time>
      </trkpt>
      <trkpt lat="46.00824" lon="5.7472">
        <ele>1029</ele>
        <time>2026-05-13T17:04:02Z</time>
      </trkpt>
      <trkpt lat="46.00826" lon="5.74721">
        <ele>1029</ele>
        <time>2026-05-13T17:04:03Z</time>
      </trkpt>
      <trkpt lat="46.00827" lon="5.74722">
        <ele>1029.2</ele>
        <time>2026-05-13T17:04:04Z</time>
      </trkpt>
      <trkpt lat="46.00829" lon="5.74723">
        <ele>1029.2</ele>
        <time>2026-05-13T17:04:05Z</time>
      </trkpt>
      <trkpt lat="46.00831" lon="5.74723">
        <ele>1029.4</ele>
        <time>2026-05-13T17:04:06Z</time>
      </trkpt>
      <trkpt lat="46.00831" lon="5.74724">
        <ele>1029.8</ele>
        <time>2026-05-13T17:04:07Z</time>
      </trkpt>
      <trkpt lat="46.00833" lon="5.74724">
        <ele>1029.8</ele>
        <time>2026-05-13T17:04:08Z</time>
      </trkpt>
      <trkpt lat="46.00834" lon="5.74725">
        <ele>1029.8</ele>
        <time>2026-05-13T17:04:09Z</time>
      </trkpt>
      <trkpt lat="46.00836" lon="5.74726">
        <ele>1029.8</ele>
        <time>2026-05-13T17:04:10Z</time>
      </trkpt>
      <trkpt lat="46.00838" lon="5.74727">
        <ele>1030</ele>
        <time>2026-05-13T17:04:11Z</time>
      </trkpt>
      <trkpt lat="46.00839" lon="5.74727">
        <ele>1030</ele>
        <time>2026-05-13T17:04:12Z</time>
      </trkpt>
      <trkpt lat="46.00841" lon="5.74728">
        <ele>1030.4</ele>
        <time>2026-05-13T17:04:13Z</time>
      </trkpt>
      <trkpt lat="46.00842" lon="5.74728">
        <ele>1030.4</ele>
        <time>2026-05-13T17:04:14Z</time>
      </trkpt>
      <trkpt lat="46.00844" lon="5.74728">
        <ele>1030.4</ele>
        <time>2026-05-13T17:04:15Z</time>
      </trkpt>
      <trkpt lat="46.00846" lon="5.74728">
        <ele>1030.4</ele>
        <time>2026-05-13T17:04:16Z</time>
      </trkpt>
      <trkpt lat="46.00847" lon="5.74728">
        <ele>1030.6</ele>
        <time>2026-05-13T17:04:17Z</time>
      </trkpt>
      <trkpt lat="46.00848" lon="5.74728">
        <ele>1030.6</ele>
        <time>2026-05-13T17:04:18Z</time>
      </trkpt>
      <trkpt lat="46.00849" lon="5.74728">
        <ele>1030.6</ele>
        <time>2026-05-13T17:04:19Z</time>
      </trkpt>
      <trkpt lat="46.00851" lon="5.74728">
        <ele>1030.6</ele>
        <time>2026-05-13T17:04:20Z</time>
      </trkpt>
      <trkpt lat="46.00852" lon="5.74729">
        <ele>1031</ele>
        <time>2026-05-13T17:04:21Z</time>
      </trkpt>
      <trkpt lat="46.00853" lon="5.74729">
        <ele>1031</ele>
        <time>2026-05-13T17:04:22Z</time>
      </trkpt>
      <trkpt lat="46.00855" lon="5.7473">
        <ele>1031.4</ele>
        <time>2026-05-13T17:04:23Z</time>
      </trkpt>
      <trkpt lat="46.00857" lon="5.74731">
        <ele>1031.4</ele>
        <time>2026-05-13T17:04:24Z</time>
      </trkpt>
      <trkpt lat="46.00858" lon="5.74731">
        <ele>1031.8</ele>
        <time>2026-05-13T17:04:25Z</time>
      </trkpt>
      <trkpt lat="46.00859" lon="5.74731">
        <ele>1032</ele>
        <time>2026-05-13T17:04:26Z</time>
      </trkpt>
      <trkpt lat="46.00861" lon="5.74731">
        <ele>1032.2</ele>
        <time>2026-05-13T17:04:27Z</time>
      </trkpt>
      <trkpt lat="46.00863" lon="5.74732">
        <ele>1032.2</ele>
        <time>2026-05-13T17:04:28Z</time>
      </trkpt>
      <trkpt lat="46.00865" lon="5.74732">
        <ele>1032.6</ele>
        <time>2026-05-13T17:04:29Z</time>
      </trkpt>
      <trkpt lat="46.00866" lon="5.74732">
        <ele>1032.6</ele>
        <time>2026-05-13T17:04:30Z</time>
      </trkpt>
      <trkpt lat="46.00868" lon="5.74733">
        <ele>1032.8</ele>
        <time>2026-05-13T17:04:31Z</time>
      </trkpt>
      <trkpt lat="46.00869" lon="5.74733">
        <ele>1033</ele>
        <time>2026-05-13T17:04:32Z</time>
      </trkpt>
      <trkpt lat="46.0087" lon="5.74733">
        <ele>1033</ele>
        <time>2026-05-13T17:04:33Z</time>
      </trkpt>
      <trkpt lat="46.00871" lon="5.74733">
        <ele>1033</ele>
        <time>2026-05-13T17:04:34Z</time>
      </trkpt>
      <trkpt lat="46.00871" lon="5.74733">
        <ele>1033.4</ele>
        <time>2026-05-13T17:04:35Z</time>
      </trkpt>
      <trkpt lat="46.00872" lon="5.74732">
        <ele>1033.6</ele>
        <time>2026-05-13T17:04:36Z</time>
      </trkpt>
      <trkpt lat="46.00874" lon="5.74732">
        <ele>1033.6</ele>
        <time>2026-05-13T17:04:37Z</time>
      </trkpt>
      <trkpt lat="46.00875" lon="5.74731">
        <ele>1033.6</ele>
        <time>2026-05-13T17:04:38Z</time>
      </trkpt>
      <trkpt lat="46.00876" lon="5.7473">
        <ele>1033.6</ele>
        <time>2026-05-13T17:04:39Z</time>
      </trkpt>
      <trkpt lat="46.00877" lon="5.74729">
        <ele>1033.6</ele>
        <time>2026-05-13T17:04:40Z</time>
      </trkpt>
      <trkpt lat="46.00879" lon="5.74729">
        <ele>1033.8</ele>
        <time>2026-05-13T17:04:41Z</time>
      </trkpt>
      <trkpt lat="46.0088" lon="5.74727">
        <ele>1033.8</ele>
        <time>2026-05-13T17:04:42Z</time>
      </trkpt>
      <trkpt lat="46.00882" lon="5.74725">
        <ele>1033.8</ele>
        <time>2026-05-13T17:04:43Z</time>
      </trkpt>
      <trkpt lat="46.00883" lon="5.74724">
        <ele>1033.8</ele>
        <time>2026-05-13T17:04:44Z</time>
      </trkpt>
      <trkpt lat="46.00884" lon="5.74723">
        <ele>1034.2</ele>
        <time>2026-05-13T17:04:45Z</time>
      </trkpt>
      <trkpt lat="46.00885" lon="5.74721">
        <ele>1034.2</ele>
        <time>2026-05-13T17:04:46Z</time>
      </trkpt>
      <trkpt lat="46.00886" lon="5.74719">
        <ele>1034.2</ele>
        <time>2026-05-13T17:04:47Z</time>
      </trkpt>
      <trkpt lat="46.00887" lon="5.74718">
        <ele>1034.6</ele>
        <time>2026-05-13T17:04:48Z</time>
      </trkpt>
      <trkpt lat="46.00887" lon="5.74716">
        <ele>1034.6</ele>
        <time>2026-05-13T17:04:49Z</time>
      </trkpt>
      <trkpt lat="46.00888" lon="5.74715">
        <ele>1034.6</ele>
        <time>2026-05-13T17:04:50Z</time>
      </trkpt>
      <trkpt lat="46.0089" lon="5.74714">
        <ele>1035</ele>
        <time>2026-05-13T17:04:51Z</time>
      </trkpt>
      <trkpt lat="46.00891" lon="5.74713">
        <ele>1035</ele>
        <time>2026-05-13T17:04:52Z</time>
      </trkpt>
      <trkpt lat="46.00893" lon="5.74712">
        <ele>1035</ele>
        <time>2026-05-13T17:04:53Z</time>
      </trkpt>
      <trkpt lat="46.00894" lon="5.74711">
        <ele>1035.2</ele>
        <time>2026-05-13T17:04:54Z</time>
      </trkpt>
      <trkpt lat="46.00895" lon="5.7471">
        <ele>1035.2</ele>
        <time>2026-05-13T17:04:55Z</time>
      </trkpt>
      <trkpt lat="46.00896" lon="5.74709">
        <ele>1035.2</ele>
        <time>2026-05-13T17:04:56Z</time>
      </trkpt>
      <trkpt lat="46.00897" lon="5.74708">
        <ele>1035.4</ele>
        <time>2026-05-13T17:04:57Z</time>
      </trkpt>
      <trkpt lat="46.00898" lon="5.74707">
        <ele>1035.6</ele>
        <time>2026-05-13T17:04:58Z</time>
      </trkpt>
      <trkpt lat="46.00899" lon="5.74706">
        <ele>1035.6</ele>
        <time>2026-05-13T17:04:59Z</time>
      </trkpt>
      <trkpt lat="46.009" lon="5.74706">
        <ele>1035.8</ele>
        <time>2026-05-13T17:05:00Z</time>
      </trkpt>
      <trkpt lat="46.00902" lon="5.74705">
        <ele>1036.2</ele>
        <time>2026-05-13T17:05:01Z</time>
      </trkpt>
      <trkpt lat="46.00904" lon="5.74704">
        <ele>1036.2</ele>
        <time>2026-05-13T17:05:02Z</time>
      </trkpt>
      <trkpt lat="46.00905" lon="5.74703">
        <ele>1036.4</ele>
        <time>2026-05-13T17:05:03Z</time>
      </trkpt>
      <trkpt lat="46.00906" lon="5.74702">
        <ele>1036.4</ele>
        <time>2026-05-13T17:05:04Z</time>
      </trkpt>
      <trkpt lat="46.00907" lon="5.74701">
        <ele>1036.8</ele>
        <time>2026-05-13T17:05:05Z</time>
      </trkpt>
      <trkpt lat="46.00908" lon="5.747">
        <ele>1037.2</ele>
        <time>2026-05-13T17:05:06Z</time>
      </trkpt>
      <trkpt lat="46.0091" lon="5.747">
        <ele>1037.4</ele>
        <time>2026-05-13T17:05:07Z</time>
      </trkpt>
      <trkpt lat="46.00911" lon="5.747">
        <ele>1037.4</ele>
        <time>2026-05-13T17:05:08Z</time>
      </trkpt>
      <trkpt lat="46.00913" lon="5.747">
        <ele>1037.6</ele>
        <time>2026-05-13T17:05:09Z</time>
      </trkpt>
      <trkpt lat="46.00914" lon="5.74701">
        <ele>1038</ele>
        <time>2026-05-13T17:05:10Z</time>
      </trkpt>
      <trkpt lat="46.00916" lon="5.74701">
        <ele>1038</ele>
        <time>2026-05-13T17:05:11Z</time>
      </trkpt>
      <trkpt lat="46.00917" lon="5.74701">
        <ele>1038</ele>
        <time>2026-05-13T17:05:12Z</time>
      </trkpt>
      <trkpt lat="46.00918" lon="5.74702">
        <ele>1038.4</ele>
        <time>2026-05-13T17:05:13Z</time>
      </trkpt>
      <trkpt lat="46.0092" lon="5.74702">
        <ele>1038.6</ele>
        <time>2026-05-13T17:05:14Z</time>
      </trkpt>
      <trkpt lat="46.00922" lon="5.74702">
        <ele>1038.6</ele>
        <time>2026-05-13T17:05:15Z</time>
      </trkpt>
      <trkpt lat="46.00923" lon="5.74701">
        <ele>1039</ele>
        <time>2026-05-13T17:05:16Z</time>
      </trkpt>
      <trkpt lat="46.00923" lon="5.74701">
        <ele>1039.2</ele>
        <time>2026-05-13T17:05:17Z</time>
      </trkpt>
      <trkpt lat="46.00923" lon="5.74701">
        <ele>1039.4</ele>
        <time>2026-05-13T17:05:18Z</time>
      </trkpt>
      <trkpt lat="46.00924" lon="5.74702">
        <ele>1040</ele>
        <time>2026-05-13T17:05:19Z</time>
      </trkpt>
      <trkpt lat="46.00924" lon="5.74703">
        <ele>1040</ele>
        <time>2026-05-13T17:05:20Z</time>
      </trkpt>
      <trkpt lat="46.00925" lon="5.74704">
        <ele>1040.2</ele>
        <time>2026-05-13T17:05:21Z</time>
      </trkpt>
      <trkpt lat="46.00925" lon="5.74705">
        <ele>1040.2</ele>
        <time>2026-05-13T17:05:22Z</time>
      </trkpt>
      <trkpt lat="46.00926" lon="5.74705">
        <ele>1040.6</ele>
        <time>2026-05-13T17:05:23Z</time>
      </trkpt>
      <trkpt lat="46.00927" lon="5.74705">
        <ele>1040.8</ele>
        <time>2026-05-13T17:05:24Z</time>
      </trkpt>
      <trkpt lat="46.00929" lon="5.74705">
        <ele>1040.8</ele>
        <time>2026-05-13T17:05:25Z</time>
      </trkpt>
      <trkpt lat="46.0093" lon="5.74705">
        <ele>1040.8</ele>
        <time>2026-05-13T17:05:26Z</time>
      </trkpt>
      <trkpt lat="46.00931" lon="5.74705">
        <ele>1041.2</ele>
        <time>2026-05-13T17:05:27Z</time>
      </trkpt>
      <trkpt lat="46.00932" lon="5.74705">
        <ele>1041.2</ele>
        <time>2026-05-13T17:05:28Z</time>
      </trkpt>
      <trkpt lat="46.00934" lon="5.74705">
        <ele>1041.6</ele>
        <time>2026-05-13T17:05:29Z</time>
      </trkpt>
      <trkpt lat="46.00935" lon="5.74706">
        <ele>1041.6</ele>
        <time>2026-05-13T17:05:30Z</time>
      </trkpt>
      <trkpt lat="46.00936" lon="5.74707">
        <ele>1041.6</ele>
        <time>2026-05-13T17:05:31Z</time>
      </trkpt>
      <trkpt lat="46.00937" lon="5.74708">
        <ele>1042</ele>
        <time>2026-05-13T17:05:32Z</time>
      </trkpt>
      <trkpt lat="46.00938" lon="5.74709">
        <ele>1042</ele>
        <time>2026-05-13T17:05:33Z</time>
      </trkpt>
      <trkpt lat="46.0094" lon="5.7471">
        <ele>1042</ele>
        <time>2026-05-13T17:05:34Z</time>
      </trkpt>
      <trkpt lat="46.00941" lon="5.74712">
        <ele>1042.2</ele>
        <time>2026-05-13T17:05:35Z</time>
      </trkpt>
      <trkpt lat="46.00943" lon="5.74713">
        <ele>1042.2</ele>
        <time>2026-05-13T17:05:36Z</time>
      </trkpt>
      <trkpt lat="46.00944" lon="5.74714">
        <ele>1042.4</ele>
        <time>2026-05-13T17:05:37Z</time>
      </trkpt>
      <trkpt lat="46.00946" lon="5.74715">
        <ele>1042.4</ele>
        <time>2026-05-13T17:05:38Z</time>
      </trkpt>
      <trkpt lat="46.00948" lon="5.74716">
        <ele>1042.4</ele>
        <time>2026-05-13T17:05:39Z</time>
      </trkpt>
      <trkpt lat="46.00949" lon="5.74716">
        <ele>1042.6</ele>
        <time>2026-05-13T17:05:40Z</time>
      </trkpt>
      <trkpt lat="46.0095" lon="5.74717">
        <ele>1043</ele>
        <time>2026-05-13T17:05:41Z</time>
      </trkpt>
      <trkpt lat="46.00952" lon="5.74718">
        <ele>1043</ele>
        <time>2026-05-13T17:05:42Z</time>
      </trkpt>
      <trkpt lat="46.00953" lon="5.74719">
        <ele>1043</ele>
        <time>2026-05-13T17:05:43Z</time>
      </trkpt>
      <trkpt lat="46.00955" lon="5.7472">
        <ele>1042.6</ele>
        <time>2026-05-13T17:05:44Z</time>
      </trkpt>
      <trkpt lat="46.00956" lon="5.7472">
        <ele>1042.6</ele>
        <time>2026-05-13T17:05:45Z</time>
      </trkpt>
      <trkpt lat="46.00957" lon="5.7472">
        <ele>1043</ele>
        <time>2026-05-13T17:05:46Z</time>
      </trkpt>
      <trkpt lat="46.00959" lon="5.7472">
        <ele>1043</ele>
        <time>2026-05-13T17:05:47Z</time>
      </trkpt>
      <trkpt lat="46.0096" lon="5.74721">
        <ele>1043</ele>
        <time>2026-05-13T17:05:48Z</time>
      </trkpt>
      <trkpt lat="46.0096" lon="5.74721">
        <ele>1043</ele>
        <time>2026-05-13T17:05:49Z</time>
      </trkpt>
      <trkpt lat="46.00961" lon="5.74721">
        <ele>1042.6</ele>
        <time>2026-05-13T17:05:50Z</time>
      </trkpt>
      <trkpt lat="46.00962" lon="5.74721">
        <ele>1043</ele>
        <time>2026-05-13T17:05:51Z</time>
      </trkpt>
      <trkpt lat="46.00963" lon="5.74721">
        <ele>1043.2</ele>
        <time>2026-05-13T17:05:52Z</time>
      </trkpt>
      <trkpt lat="46.00964" lon="5.74721">
        <ele>1043.2</ele>
        <time>2026-05-13T17:05:53Z</time>
      </trkpt>
      <trkpt lat="46.00965" lon="5.74721">
        <ele>1043.4</ele>
        <time>2026-05-13T17:05:54Z</time>
      </trkpt>
      <trkpt lat="46.00967" lon="5.74721">
        <ele>1043.4</ele>
        <time>2026-05-13T17:05:55Z</time>
      </trkpt>
      <trkpt lat="46.00968" lon="5.7472">
        <ele>1043.4</ele>
        <time>2026-05-13T17:05:56Z</time>
      </trkpt>
      <trkpt lat="46.00969" lon="5.74719">
        <ele>1043.8</ele>
        <time>2026-05-13T17:05:57Z</time>
      </trkpt>
      <trkpt lat="46.0097" lon="5.74719">
        <ele>1043.8</ele>
        <time>2026-05-13T17:05:58Z</time>
      </trkpt>
      <trkpt lat="46.0097" lon="5.74719">
        <ele>1043.8</ele>
        <time>2026-05-13T17:05:59Z</time>
      </trkpt>
      <trkpt lat="46.00976" lon="5.74715">
        <ele>1044</ele>
        <time>2026-05-13T17:08:25Z</time>
      </trkpt>
      <trkpt lat="46.00977" lon="5.74714">
        <ele>1043.8</ele>
        <time>2026-05-13T17:08:26Z</time>
      </trkpt>
      <trkpt lat="46.0098" lon="5.74713">
        <ele>1043.8</ele>
        <time>2026-05-13T17:08:27Z</time>
      </trkpt>
      <trkpt lat="46.00984" lon="5.74713">
        <ele>1043.8</ele>
        <time>2026-05-13T17:08:28Z</time>
      </trkpt>
      <trkpt lat="46.00989" lon="5.74711">
        <ele>1043.2</ele>
        <time>2026-05-13T17:08:29Z</time>
      </trkpt>
      <trkpt lat="46.00992" lon="5.7471">
        <ele>1043.2</ele>
        <time>2026-05-13T17:08:30Z</time>
      </trkpt>
      <trkpt lat="46.00996" lon="5.74708">
        <ele>1043</ele>
        <time>2026-05-13T17:08:31Z</time>
      </trkpt>
      <trkpt lat="46.01001" lon="5.74703">
        <ele>1042.6</ele>
        <time>2026-05-13T17:08:32Z</time>
      </trkpt>
      <trkpt lat="46.01005" lon="5.74699">
        <ele>1042.6</ele>
        <time>2026-05-13T17:08:33Z</time>
      </trkpt>
      <trkpt lat="46.01007" lon="5.7469">
        <ele>1042.2</ele>
        <time>2026-05-13T17:08:34Z</time>
      </trkpt>
      <trkpt lat="46.0101" lon="5.74684">
        <ele>1041.8</ele>
        <time>2026-05-13T17:08:35Z</time>
      </trkpt>
      <trkpt lat="46.01013" lon="5.74675">
        <ele>1041.4</ele>
        <time>2026-05-13T17:08:36Z</time>
      </trkpt>
      <trkpt lat="46.01013" lon="5.74666">
        <ele>1041</ele>
        <time>2026-05-13T17:08:37Z</time>
      </trkpt>
      <trkpt lat="46.01016" lon="5.74658">
        <ele>1040.6</ele>
        <time>2026-05-13T17:08:38Z</time>
      </trkpt>
      <trkpt lat="46.01018" lon="5.74649">
        <ele>1040.6</ele>
        <time>2026-05-13T17:08:39Z</time>
      </trkpt>
      <trkpt lat="46.01019" lon="5.74641">
        <ele>1040.8</ele>
        <time>2026-05-13T17:08:40Z</time>
      </trkpt>
      <trkpt lat="46.01024" lon="5.74636">
        <ele>1040.2</ele>
        <time>2026-05-13T17:08:41Z</time>
      </trkpt>
      <trkpt lat="46.01028" lon="5.74636">
        <ele>1041.4</ele>
        <time>2026-05-13T17:08:42Z</time>
      </trkpt>
      <trkpt lat="46.0103" lon="5.74631">
        <ele>1041.4</ele>
        <time>2026-05-13T17:08:43Z</time>
      </trkpt>
      <trkpt lat="46.01033" lon="5.74627">
        <ele>1041.4</ele>
        <time>2026-05-13T17:08:44Z</time>
      </trkpt>
      <trkpt lat="46.01034" lon="5.74625">
        <ele>1041.4</ele>
        <time>2026-05-13T17:08:45Z</time>
      </trkpt>
      <trkpt lat="46.01039" lon="5.74626">
        <ele>1042.2</ele>
        <time>2026-05-13T17:08:46Z</time>
      </trkpt>
      <trkpt lat="46.01043" lon="5.74624">
        <ele>1042.2</ele>
        <time>2026-05-13T17:08:47Z</time>
      </trkpt>
      <trkpt lat="46.01042" lon="5.74624">
        <ele>1042.2</ele>
        <time>2026-05-13T17:08:48Z</time>
      </trkpt>
      <trkpt lat="46.01047" lon="5.74623">
        <ele>1042.4</ele>
        <time>2026-05-13T17:08:49Z</time>
      </trkpt>
      <trkpt lat="46.01047" lon="5.74619">
        <ele>1042.8</ele>
        <time>2026-05-13T17:08:50Z</time>
      </trkpt>
      <trkpt lat="46.0105" lon="5.74617">
        <ele>1042.8</ele>
        <time>2026-05-13T17:08:51Z</time>
      </trkpt>
      <trkpt lat="46.01052" lon="5.74617">
        <ele>1043.2</ele>
        <time>2026-05-13T17:08:52Z</time>
      </trkpt>
      <trkpt lat="46.01053" lon="5.74616">
        <ele>1043.2</ele>
        <time>2026-05-13T17:08:53Z</time>
      </trkpt>
      <trkpt lat="46.01055" lon="5.74615">
        <ele>1043.4</ele>
        <time>2026-05-13T17:08:54Z</time>
      </trkpt>
      <trkpt lat="46.01056" lon="5.74614">
        <ele>1043.8</ele>
        <time>2026-05-13T17:08:55Z</time>
      </trkpt>
      <trkpt lat="46.01057" lon="5.74613">
        <ele>1044.2</ele>
        <time>2026-05-13T17:08:56Z</time>
      </trkpt>
      <trkpt lat="46.01058" lon="5.74611">
        <ele>1044.4</ele>
        <time>2026-05-13T17:08:57Z</time>
      </trkpt>
      <trkpt lat="46.0106" lon="5.74608">
        <ele>1044.4</ele>
        <time>2026-05-13T17:08:58Z</time>
      </trkpt>
      <trkpt lat="46.01061" lon="5.74606">
        <ele>1044.4</ele>
        <time>2026-05-13T17:08:59Z</time>
      </trkpt>
      <trkpt lat="46.01063" lon="5.74605">
        <ele>1044.4</ele>
        <time>2026-05-13T17:09:00Z</time>
      </trkpt>
      <trkpt lat="46.01063" lon="5.74605">
        <ele>1044.4</ele>
        <time>2026-05-13T17:09:01Z</time>
      </trkpt>
      <trkpt lat="46.01063" lon="5.74605">
        <ele>1044.4</ele>
        <time>2026-05-13T17:09:02Z</time>
      </trkpt>
      <trkpt lat="46.01065" lon="5.74603">
        <ele>1044.8</ele>
        <time>2026-05-13T17:09:03Z</time>
      </trkpt>
      <trkpt lat="46.01067" lon="5.74598">
        <ele>1045</ele>
        <time>2026-05-13T17:09:04Z</time>
      </trkpt>
      <trkpt lat="46.01068" lon="5.74596">
        <ele>1045</ele>
        <time>2026-05-13T17:09:05Z</time>
      </trkpt>
      <trkpt lat="46.01069" lon="5.74594">
        <ele>1045.4</ele>
        <time>2026-05-13T17:09:06Z</time>
      </trkpt>
      <trkpt lat="46.0107" lon="5.74592">
        <ele>1045.8</ele>
        <time>2026-05-13T17:09:07Z</time>
      </trkpt>
      <trkpt lat="46.01071" lon="5.7459">
        <ele>1045.8</ele>
        <time>2026-05-13T17:09:08Z</time>
      </trkpt>
      <trkpt lat="46.01072" lon="5.74589">
        <ele>1046.2</ele>
        <time>2026-05-13T17:09:09Z</time>
      </trkpt>
      <trkpt lat="46.01072" lon="5.74587">
        <ele>1046.2</ele>
        <time>2026-05-13T17:09:10Z</time>
      </trkpt>
      <trkpt lat="46.01073" lon="5.74585">
        <ele>1046.6</ele>
        <time>2026-05-13T17:09:11Z</time>
      </trkpt>
      <trkpt lat="46.01074" lon="5.74584">
        <ele>1046.6</ele>
        <time>2026-05-13T17:09:12Z</time>
      </trkpt>
      <trkpt lat="46.01075" lon="5.74582">
        <ele>1046.8</ele>
        <time>2026-05-13T17:09:13Z</time>
      </trkpt>
      <trkpt lat="46.01076" lon="5.7458">
        <ele>1046.8</ele>
        <time>2026-05-13T17:09:14Z</time>
      </trkpt>
      <trkpt lat="46.01077" lon="5.74578">
        <ele>1046.8</ele>
        <time>2026-05-13T17:09:15Z</time>
      </trkpt>
      <trkpt lat="46.01078" lon="5.74577">
        <ele>1046.8</ele>
        <time>2026-05-13T17:09:16Z</time>
      </trkpt>
      <trkpt lat="46.01079" lon="5.74576">
        <ele>1047</ele>
        <time>2026-05-13T17:09:17Z</time>
      </trkpt>
      <trkpt lat="46.0108" lon="5.74574">
        <ele>1047</ele>
        <time>2026-05-13T17:09:18Z</time>
      </trkpt>
      <trkpt lat="46.01081" lon="5.74572">
        <ele>1047.2</ele>
        <time>2026-05-13T17:09:19Z</time>
      </trkpt>
      <trkpt lat="46.01082" lon="5.7457">
        <ele>1047.2</ele>
        <time>2026-05-13T17:09:20Z</time>
      </trkpt>
      <trkpt lat="46.01082" lon="5.74568">
        <ele>1047.6</ele>
        <time>2026-05-13T17:09:21Z</time>
      </trkpt>
      <trkpt lat="46.01082" lon="5.74566">
        <ele>1047.8</ele>
        <time>2026-05-13T17:09:22Z</time>
      </trkpt>
      <trkpt lat="46.01082" lon="5.74565">
        <ele>1047.8</ele>
        <time>2026-05-13T17:09:23Z</time>
      </trkpt>
      <trkpt lat="46.01083" lon="5.74562">
        <ele>1048.2</ele>
        <time>2026-05-13T17:09:24Z</time>
      </trkpt>
      <trkpt lat="46.01084" lon="5.7456">
        <ele>1048.2</ele>
        <time>2026-05-13T17:09:25Z</time>
      </trkpt>
      <trkpt lat="46.01085" lon="5.74559">
        <ele>1048.2</ele>
        <time>2026-05-13T17:09:26Z</time>
      </trkpt>
      <trkpt lat="46.01086" lon="5.74557">
        <ele>1048.6</ele>
        <time>2026-05-13T17:09:27Z</time>
      </trkpt>
      <trkpt lat="46.01088" lon="5.74554">
        <ele>1048.6</ele>
        <time>2026-05-13T17:09:28Z</time>
      </trkpt>
      <trkpt lat="46.01089" lon="5.74552">
        <ele>1048.8</ele>
        <time>2026-05-13T17:09:29Z</time>
      </trkpt>
      <trkpt lat="46.0109" lon="5.74551">
        <ele>1048.8</ele>
        <time>2026-05-13T17:09:30Z</time>
      </trkpt>
      <trkpt lat="46.01091" lon="5.7455">
        <ele>1049</ele>
        <time>2026-05-13T17:09:31Z</time>
      </trkpt>
      <trkpt lat="46.01092" lon="5.74548">
        <ele>1049</ele>
        <time>2026-05-13T17:09:32Z</time>
      </trkpt>
      <trkpt lat="46.01093" lon="5.74546">
        <ele>1049</ele>
        <time>2026-05-13T17:09:33Z</time>
      </trkpt>
      <trkpt lat="46.01094" lon="5.74544">
        <ele>1049</ele>
        <time>2026-05-13T17:09:34Z</time>
      </trkpt>
      <trkpt lat="46.01094" lon="5.74542">
        <ele>1049.4</ele>
        <time>2026-05-13T17:09:35Z</time>
      </trkpt>
      <trkpt lat="46.01095" lon="5.74541">
        <ele>1049.6</ele>
        <time>2026-05-13T17:09:36Z</time>
      </trkpt>
      <trkpt lat="46.01096" lon="5.7454">
        <ele>1049.6</ele>
        <time>2026-05-13T17:09:37Z</time>
      </trkpt>
      <trkpt lat="46.01097" lon="5.74538">
        <ele>1050</ele>
        <time>2026-05-13T17:09:38Z</time>
      </trkpt>
      <trkpt lat="46.01098" lon="5.74537">
        <ele>1050</ele>
        <time>2026-05-13T17:09:39Z</time>
      </trkpt>
      <trkpt lat="46.01099" lon="5.74537">
        <ele>1050</ele>
        <time>2026-05-13T17:09:40Z</time>
      </trkpt>
      <trkpt lat="46.011" lon="5.74537">
        <ele>1050</ele>
        <time>2026-05-13T17:09:41Z</time>
      </trkpt>
      <trkpt lat="46.01101" lon="5.74537">
        <ele>1050.2</ele>
        <time>2026-05-13T17:09:42Z</time>
      </trkpt>
      <trkpt lat="46.01102" lon="5.74537">
        <ele>1050.2</ele>
        <time>2026-05-13T17:09:43Z</time>
      </trkpt>
      <trkpt lat="46.01103" lon="5.74536">
        <ele>1050.4</ele>
        <time>2026-05-13T17:09:44Z</time>
      </trkpt>
      <trkpt lat="46.01105" lon="5.74535">
        <ele>1050.6</ele>
        <time>2026-05-13T17:09:45Z</time>
      </trkpt>
      <trkpt lat="46.01107" lon="5.74533">
        <ele>1050.6</ele>
        <time>2026-05-13T17:09:46Z</time>
      </trkpt>
      <trkpt lat="46.01109" lon="5.74531">
        <ele>1050.8</ele>
        <time>2026-05-13T17:09:47Z</time>
      </trkpt>
      <trkpt lat="46.0111" lon="5.74529">
        <ele>1050.8</ele>
        <time>2026-05-13T17:09:48Z</time>
      </trkpt>
      <trkpt lat="46.01111" lon="5.74528">
        <ele>1051.4</ele>
        <time>2026-05-13T17:09:49Z</time>
      </trkpt>
      <trkpt lat="46.01111" lon="5.74526">
        <ele>1051.4</ele>
        <time>2026-05-13T17:09:50Z</time>
      </trkpt>
      <trkpt lat="46.01112" lon="5.74523">
        <ele>1051.8</ele>
        <time>2026-05-13T17:09:51Z</time>
      </trkpt>
      <trkpt lat="46.01113" lon="5.74522">
        <ele>1051.8</ele>
        <time>2026-05-13T17:09:52Z</time>
      </trkpt>
      <trkpt lat="46.01113" lon="5.7452">
        <ele>1052</ele>
        <time>2026-05-13T17:09:53Z</time>
      </trkpt>
      <trkpt lat="46.01114" lon="5.7452">
        <ele>1052</ele>
        <time>2026-05-13T17:09:54Z</time>
      </trkpt>
      <trkpt lat="46.01114" lon="5.74518">
        <ele>1052</ele>
        <time>2026-05-13T17:09:55Z</time>
      </trkpt>
      <trkpt lat="46.01115" lon="5.74517">
        <ele>1052.2</ele>
        <time>2026-05-13T17:09:56Z</time>
      </trkpt>
      <trkpt lat="46.01116" lon="5.74515">
        <ele>1052.2</ele>
        <time>2026-05-13T17:09:57Z</time>
      </trkpt>
      <trkpt lat="46.01117" lon="5.74514">
        <ele>1052.8</ele>
        <time>2026-05-13T17:09:58Z</time>
      </trkpt>
      <trkpt lat="46.01119" lon="5.74512">
        <ele>1052.8</ele>
        <time>2026-05-13T17:09:59Z</time>
      </trkpt>
      <trkpt lat="46.01121" lon="5.7451">
        <ele>1053</ele>
        <time>2026-05-13T17:10:00Z</time>
      </trkpt>
      <trkpt lat="46.01122" lon="5.74509">
        <ele>1053</ele>
        <time>2026-05-13T17:10:01Z</time>
      </trkpt>
      <trkpt lat="46.01124" lon="5.74508">
        <ele>1053.4</ele>
        <time>2026-05-13T17:10:02Z</time>
      </trkpt>
      <trkpt lat="46.01125" lon="5.74508">
        <ele>1053.4</ele>
        <time>2026-05-13T17:10:03Z</time>
      </trkpt>
      <trkpt lat="46.01125" lon="5.74508">
        <ele>1053.8</ele>
        <time>2026-05-13T17:10:04Z</time>
      </trkpt>
      <trkpt lat="46.01126" lon="5.74508">
        <ele>1053.8</ele>
        <time>2026-05-13T17:10:05Z</time>
      </trkpt>
      <trkpt lat="46.01127" lon="5.74507">
        <ele>1054</ele>
        <time>2026-05-13T17:10:06Z</time>
      </trkpt>
      <trkpt lat="46.01129" lon="5.74508">
        <ele>1054</ele>
        <time>2026-05-13T17:10:07Z</time>
      </trkpt>
      <trkpt lat="46.0113" lon="5.74507">
        <ele>1054.4</ele>
        <time>2026-05-13T17:10:08Z</time>
      </trkpt>
      <trkpt lat="46.01131" lon="5.74506">
        <ele>1054.4</ele>
        <time>2026-05-13T17:10:09Z</time>
      </trkpt>
      <trkpt lat="46.01132" lon="5.74506">
        <ele>1054.4</ele>
        <time>2026-05-13T17:10:10Z</time>
      </trkpt>
      <trkpt lat="46.01132" lon="5.74506">
        <ele>1054.4</ele>
        <time>2026-05-13T17:10:11Z</time>
      </trkpt>
      <trkpt lat="46.01132" lon="5.74505">
        <ele>1054.8</ele>
        <time>2026-05-13T17:10:12Z</time>
      </trkpt>
      <trkpt lat="46.01134" lon="5.74505">
        <ele>1054.8</ele>
        <time>2026-05-13T17:10:13Z</time>
      </trkpt>
      <trkpt lat="46.01136" lon="5.74504">
        <ele>1055</ele>
        <time>2026-05-13T17:10:14Z</time>
      </trkpt>
      <trkpt lat="46.01138" lon="5.74504">
        <ele>1055</ele>
        <time>2026-05-13T17:10:15Z</time>
      </trkpt>
      <trkpt lat="46.0114" lon="5.74504">
        <ele>1055.4</ele>
        <time>2026-05-13T17:10:16Z</time>
      </trkpt>
      <trkpt lat="46.01141" lon="5.74504">
        <ele>1055.6</ele>
        <time>2026-05-13T17:10:17Z</time>
      </trkpt>
      <trkpt lat="46.01142" lon="5.74503">
        <ele>1055.6</ele>
        <time>2026-05-13T17:10:18Z</time>
      </trkpt>
      <trkpt lat="46.01143" lon="5.74503">
        <ele>1055.6</ele>
        <time>2026-05-13T17:10:19Z</time>
      </trkpt>
      <trkpt lat="46.01144" lon="5.74501">
        <ele>1056.2</ele>
        <time>2026-05-13T17:10:20Z</time>
      </trkpt>
      <trkpt lat="46.01145" lon="5.74499">
        <ele>1056.2</ele>
        <time>2026-05-13T17:10:21Z</time>
      </trkpt>
      <trkpt lat="46.01145" lon="5.74499">
        <ele>1056.2</ele>
        <time>2026-05-13T17:10:22Z</time>
      </trkpt>
      <trkpt lat="46.01147" lon="5.74499">
        <ele>1056.2</ele>
        <time>2026-05-13T17:10:23Z</time>
      </trkpt>
      <trkpt lat="46.01149" lon="5.74498">
        <ele>1056.4</ele>
        <time>2026-05-13T17:10:24Z</time>
      </trkpt>
      <trkpt lat="46.0115" lon="5.74498">
        <ele>1056.4</ele>
        <time>2026-05-13T17:10:25Z</time>
      </trkpt>
      <trkpt lat="46.01151" lon="5.74496">
        <ele>1056.4</ele>
        <time>2026-05-13T17:10:26Z</time>
      </trkpt>
      <trkpt lat="46.01152" lon="5.74495">
        <ele>1056.8</ele>
        <time>2026-05-13T17:10:27Z</time>
      </trkpt>
      <trkpt lat="46.01153" lon="5.74493">
        <ele>1056.8</ele>
        <time>2026-05-13T17:10:28Z</time>
      </trkpt>
      <trkpt lat="46.01154" lon="5.74492">
        <ele>1057.2</ele>
        <time>2026-05-13T17:10:29Z</time>
      </trkpt>
      <trkpt lat="46.01155" lon="5.74491">
        <ele>1057.2</ele>
        <time>2026-05-13T17:10:30Z</time>
      </trkpt>
      <trkpt lat="46.01157" lon="5.7449">
        <ele>1057.4</ele>
        <time>2026-05-13T17:10:31Z</time>
      </trkpt>
      <trkpt lat="46.01158" lon="5.74488">
        <ele>1057.4</ele>
        <time>2026-05-13T17:10:32Z</time>
      </trkpt>
      <trkpt lat="46.01159" lon="5.74487">
        <ele>1057.6</ele>
        <time>2026-05-13T17:10:33Z</time>
      </trkpt>
      <trkpt lat="46.01161" lon="5.74486">
        <ele>1058</ele>
        <time>2026-05-13T17:10:34Z</time>
      </trkpt>
      <trkpt lat="46.01163" lon="5.74485">
        <ele>1058.2</ele>
        <time>2026-05-13T17:10:35Z</time>
      </trkpt>
      <trkpt lat="46.01163" lon="5.74485">
        <ele>1058.2</ele>
        <time>2026-05-13T17:10:36Z</time>
      </trkpt>
      <trkpt lat="46.01164" lon="5.74484">
        <ele>1058.6</ele>
        <time>2026-05-13T17:10:37Z</time>
      </trkpt>
      <trkpt lat="46.01166" lon="5.74483">
        <ele>1058.6</ele>
        <time>2026-05-13T17:10:38Z</time>
      </trkpt>
      <trkpt lat="46.01167" lon="5.74481">
        <ele>1058.8</ele>
        <time>2026-05-13T17:10:39Z</time>
      </trkpt>
      <trkpt lat="46.01168" lon="5.7448">
        <ele>1058.8</ele>
        <time>2026-05-13T17:10:40Z</time>
      </trkpt>
      <trkpt lat="46.0117" lon="5.74479">
        <ele>1059.2</ele>
        <time>2026-05-13T17:10:41Z</time>
      </trkpt>
      <trkpt lat="46.01171" lon="5.74479">
        <ele>1059.2</ele>
        <time>2026-05-13T17:10:42Z</time>
      </trkpt>
      <trkpt lat="46.01172" lon="5.74478">
        <ele>1059.4</ele>
        <time>2026-05-13T17:10:43Z</time>
      </trkpt>
      <trkpt lat="46.01172" lon="5.74478">
        <ele>1059.4</ele>
        <time>2026-05-13T17:10:44Z</time>
      </trkpt>
      <trkpt lat="46.01174" lon="5.74477">
        <ele>1059.6</ele>
        <time>2026-05-13T17:10:45Z</time>
      </trkpt>
      <trkpt lat="46.01175" lon="5.74476">
        <ele>1059.8</ele>
        <time>2026-05-13T17:10:46Z</time>
      </trkpt>
      <trkpt lat="46.01176" lon="5.74474">
        <ele>1059.8</ele>
        <time>2026-05-13T17:10:47Z</time>
      </trkpt>
      <trkpt lat="46.01178" lon="5.74473">
        <ele>1060</ele>
        <time>2026-05-13T17:10:48Z</time>
      </trkpt>
      <trkpt lat="46.0118" lon="5.74472">
        <ele>1060</ele>
        <time>2026-05-13T17:10:49Z</time>
      </trkpt>
      <trkpt lat="46.01182" lon="5.74472">
        <ele>1060</ele>
        <time>2026-05-13T17:10:50Z</time>
      </trkpt>
      <trkpt lat="46.01184" lon="5.74472">
        <ele>1060.4</ele>
        <time>2026-05-13T17:10:51Z</time>
      </trkpt>
      <trkpt lat="46.01185" lon="5.74472">
        <ele>1060.4</ele>
        <time>2026-05-13T17:10:52Z</time>
      </trkpt>
      <trkpt lat="46.01187" lon="5.74471">
        <ele>1060.6</ele>
        <time>2026-05-13T17:10:53Z</time>
      </trkpt>
      <trkpt lat="46.01188" lon="5.7447">
        <ele>1060.6</ele>
        <time>2026-05-13T17:10:54Z</time>
      </trkpt>
      <trkpt lat="46.0119" lon="5.7447">
        <ele>1061</ele>
        <time>2026-05-13T17:10:55Z</time>
      </trkpt>
      <trkpt lat="46.01191" lon="5.74469">
        <ele>1061</ele>
        <time>2026-05-13T17:10:56Z</time>
      </trkpt>
      <trkpt lat="46.01192" lon="5.74468">
        <ele>1061.4</ele>
        <time>2026-05-13T17:10:57Z</time>
      </trkpt>
      <trkpt lat="46.01195" lon="5.74468">
        <ele>1061.4</ele>
        <time>2026-05-13T17:10:58Z</time>
      </trkpt>
      <trkpt lat="46.01197" lon="5.74468">
        <ele>1061.6</ele>
        <time>2026-05-13T17:10:59Z</time>
      </trkpt>
      <trkpt lat="46.01199" lon="5.74468">
        <ele>1061.6</ele>
        <time>2026-05-13T17:11:00Z</time>
      </trkpt>
      <trkpt lat="46.012" lon="5.74466">
        <ele>1061.8</ele>
        <time>2026-05-13T17:11:01Z</time>
      </trkpt>
      <trkpt lat="46.01201" lon="5.74465">
        <ele>1061.8</ele>
        <time>2026-05-13T17:11:02Z</time>
      </trkpt>
      <trkpt lat="46.01203" lon="5.74464">
        <ele>1061.8</ele>
        <time>2026-05-13T17:11:03Z</time>
      </trkpt>
      <trkpt lat="46.01205" lon="5.74463">
        <ele>1061.8</ele>
        <time>2026-05-13T17:11:04Z</time>
      </trkpt>
      <trkpt lat="46.01206" lon="5.74461">
        <ele>1061.8</ele>
        <time>2026-05-13T17:11:05Z</time>
      </trkpt>
      <trkpt lat="46.01207" lon="5.74461">
        <ele>1062</ele>
        <time>2026-05-13T17:11:06Z</time>
      </trkpt>
      <trkpt lat="46.01208" lon="5.7446">
        <ele>1062.4</ele>
        <time>2026-05-13T17:11:07Z</time>
      </trkpt>
      <trkpt lat="46.01209" lon="5.74458">
        <ele>1062.8</ele>
        <time>2026-05-13T17:11:08Z</time>
      </trkpt>
      <trkpt lat="46.01209" lon="5.74457">
        <ele>1062.8</ele>
        <time>2026-05-13T17:11:09Z</time>
      </trkpt>
      <trkpt lat="46.01209" lon="5.74457">
        <ele>1062.8</ele>
        <time>2026-05-13T17:11:10Z</time>
      </trkpt>
      <trkpt lat="46.0121" lon="5.74456">
        <ele>1062.8</ele>
        <time>2026-05-13T17:11:11Z</time>
      </trkpt>
      <trkpt lat="46.0121" lon="5.74454">
        <ele>1062.8</ele>
        <time>2026-05-13T17:11:12Z</time>
      </trkpt>
      <trkpt lat="46.01211" lon="5.74452">
        <ele>1063</ele>
        <time>2026-05-13T17:11:13Z</time>
      </trkpt>
      <trkpt lat="46.01212" lon="5.7445">
        <ele>1063</ele>
        <time>2026-05-13T17:11:14Z</time>
      </trkpt>
      <trkpt lat="46.01214" lon="5.74449">
        <ele>1063</ele>
        <time>2026-05-13T17:11:15Z</time>
      </trkpt>
      <trkpt lat="46.01215" lon="5.74449">
        <ele>1063.2</ele>
        <time>2026-05-13T17:11:16Z</time>
      </trkpt>
      <trkpt lat="46.01217" lon="5.74448">
        <ele>1063.4</ele>
        <time>2026-05-13T17:11:17Z</time>
      </trkpt>
      <trkpt lat="46.01218" lon="5.74448">
        <ele>1063.4</ele>
        <time>2026-05-13T17:11:18Z</time>
      </trkpt>
      <trkpt lat="46.01219" lon="5.74449">
        <ele>1063.8</ele>
        <time>2026-05-13T17:11:19Z</time>
      </trkpt>
      <trkpt lat="46.0122" lon="5.7445">
        <ele>1064</ele>
        <time>2026-05-13T17:11:20Z</time>
      </trkpt>
      <trkpt lat="46.01221" lon="5.74451">
        <ele>1064</ele>
        <time>2026-05-13T17:11:21Z</time>
      </trkpt>
      <trkpt lat="46.01222" lon="5.74453">
        <ele>1064.2</ele>
        <time>2026-05-13T17:11:22Z</time>
      </trkpt>
      <trkpt lat="46.01224" lon="5.74455">
        <ele>1064.2</ele>
        <time>2026-05-13T17:11:23Z</time>
      </trkpt>
      <trkpt lat="46.01225" lon="5.74457">
        <ele>1064.4</ele>
        <time>2026-05-13T17:11:24Z</time>
      </trkpt>
      <trkpt lat="46.01227" lon="5.74459">
        <ele>1064.4</ele>
        <time>2026-05-13T17:11:25Z</time>
      </trkpt>
      <trkpt lat="46.01228" lon="5.74459">
        <ele>1064.4</ele>
        <time>2026-05-13T17:11:26Z</time>
      </trkpt>
      <trkpt lat="46.01229" lon="5.7446">
        <ele>1064.8</ele>
        <time>2026-05-13T17:11:27Z</time>
      </trkpt>
      <trkpt lat="46.0123" lon="5.7446">
        <ele>1064.8</ele>
        <time>2026-05-13T17:11:28Z</time>
      </trkpt>
      <trkpt lat="46.01233" lon="5.7446">
        <ele>1064.8</ele>
        <time>2026-05-13T17:11:29Z</time>
      </trkpt>
      <trkpt lat="46.01234" lon="5.7446">
        <ele>1065.2</ele>
        <time>2026-05-13T17:11:30Z</time>
      </trkpt>
      <trkpt lat="46.01235" lon="5.74459">
        <ele>1065.2</ele>
        <time>2026-05-13T17:11:31Z</time>
      </trkpt>
      <trkpt lat="46.01237" lon="5.74459">
        <ele>1065.4</ele>
        <time>2026-05-13T17:11:32Z</time>
      </trkpt>
      <trkpt lat="46.01238" lon="5.74459">
        <ele>1065.4</ele>
        <time>2026-05-13T17:11:33Z</time>
      </trkpt>
      <trkpt lat="46.0124" lon="5.7446">
        <ele>1065.8</ele>
        <time>2026-05-13T17:11:34Z</time>
      </trkpt>
      <trkpt lat="46.01242" lon="5.74461">
        <ele>1065.8</ele>
        <time>2026-05-13T17:11:35Z</time>
      </trkpt>
      <trkpt lat="46.01243" lon="5.74462">
        <ele>1065.8</ele>
        <time>2026-05-13T17:11:36Z</time>
      </trkpt>
      <trkpt lat="46.01245" lon="5.74462">
        <ele>1065.8</ele>
        <time>2026-05-13T17:11:37Z</time>
      </trkpt>
      <trkpt lat="46.01247" lon="5.74463">
        <ele>1066</ele>
        <time>2026-05-13T17:11:38Z</time>
      </trkpt>
      <trkpt lat="46.01249" lon="5.74463">
        <ele>1066</ele>
        <time>2026-05-13T17:11:39Z</time>
      </trkpt>
      <trkpt lat="46.01251" lon="5.74463">
        <ele>1066</ele>
        <time>2026-05-13T17:11:40Z</time>
      </trkpt>
      <trkpt lat="46.01253" lon="5.74464">
        <ele>1066.4</ele>
        <time>2026-05-13T17:11:41Z</time>
      </trkpt>
      <trkpt lat="46.01255" lon="5.74464">
        <ele>1066.4</ele>
        <time>2026-05-13T17:11:42Z</time>
      </trkpt>
      <trkpt lat="46.01257" lon="5.74465">
        <ele>1066.8</ele>
        <time>2026-05-13T17:11:43Z</time>
      </trkpt>
      <trkpt lat="46.0126" lon="5.74464">
        <ele>1066.8</ele>
        <time>2026-05-13T17:11:44Z</time>
      </trkpt>
      <trkpt lat="46.01262" lon="5.74464">
        <ele>1067</ele>
        <time>2026-05-13T17:11:45Z</time>
      </trkpt>
      <trkpt lat="46.01265" lon="5.74463">
        <ele>1067</ele>
        <time>2026-05-13T17:11:46Z</time>
      </trkpt>
      <trkpt lat="46.01267" lon="5.74462">
        <ele>1067</ele>
        <time>2026-05-13T17:11:47Z</time>
      </trkpt>
      <trkpt lat="46.01269" lon="5.74462">
        <ele>1067.2</ele>
        <time>2026-05-13T17:11:48Z</time>
      </trkpt>
      <trkpt lat="46.01271" lon="5.74461">
        <ele>1067.4</ele>
        <time>2026-05-13T17:11:49Z</time>
      </trkpt>
      <trkpt lat="46.01272" lon="5.7446">
        <ele>1067.4</ele>
        <time>2026-05-13T17:11:50Z</time>
      </trkpt>
      <trkpt lat="46.01273" lon="5.74459">
        <ele>1067.6</ele>
        <time>2026-05-13T17:11:51Z</time>
      </trkpt>
      <trkpt lat="46.01275" lon="5.74459">
        <ele>1068</ele>
        <time>2026-05-13T17:11:52Z</time>
      </trkpt>
      <trkpt lat="46.01278" lon="5.74459">
        <ele>1068</ele>
        <time>2026-05-13T17:11:53Z</time>
      </trkpt>
      <trkpt lat="46.0128" lon="5.7446">
        <ele>1068.2</ele>
        <time>2026-05-13T17:11:54Z</time>
      </trkpt>
      <trkpt lat="46.01281" lon="5.7446">
        <ele>1068.2</ele>
        <time>2026-05-13T17:11:55Z</time>
      </trkpt>
      <trkpt lat="46.01282" lon="5.7446">
        <ele>1068.4</ele>
        <time>2026-05-13T17:11:56Z</time>
      </trkpt>
      <trkpt lat="46.01284" lon="5.7446">
        <ele>1068.6</ele>
        <time>2026-05-13T17:11:57Z</time>
      </trkpt>
      <trkpt lat="46.01287" lon="5.74459">
        <ele>1068.6</ele>
        <time>2026-05-13T17:11:58Z</time>
      </trkpt>
      <trkpt lat="46.01289" lon="5.74459">
        <ele>1068.6</ele>
        <time>2026-05-13T17:11:59Z</time>
      </trkpt>
      <trkpt lat="46.0129" lon="5.74458">
        <ele>1068.6</ele>
        <time>2026-05-13T17:12:00Z</time>
      </trkpt>
      <trkpt lat="46.0129" lon="5.74458">
        <ele>1069</ele>
        <time>2026-05-13T17:12:01Z</time>
      </trkpt>
      <trkpt lat="46.01291" lon="5.74459">
        <ele>1069.4</ele>
        <time>2026-05-13T17:12:02Z</time>
      </trkpt>
      <trkpt lat="46.01293" lon="5.74459">
        <ele>1069.8</ele>
        <time>2026-05-13T17:12:03Z</time>
      </trkpt>
      <trkpt lat="46.01294" lon="5.74459">
        <ele>1069.8</ele>
        <time>2026-05-13T17:12:04Z</time>
      </trkpt>
      <trkpt lat="46.01295" lon="5.74458">
        <ele>1070</ele>
        <time>2026-05-13T17:12:05Z</time>
      </trkpt>
      <trkpt lat="46.01296" lon="5.74458">
        <ele>1070.2</ele>
        <time>2026-05-13T17:12:06Z</time>
      </trkpt>
      <trkpt lat="46.01296" lon="5.74458">
        <ele>1070.2</ele>
        <time>2026-05-13T17:12:07Z</time>
      </trkpt>
      <trkpt lat="46.01297" lon="5.74458">
        <ele>1070.6</ele>
        <time>2026-05-13T17:12:08Z</time>
      </trkpt>
      <trkpt lat="46.01299" lon="5.74457">
        <ele>1070.8</ele>
        <time>2026-05-13T17:12:09Z</time>
      </trkpt>
      <trkpt lat="46.01301" lon="5.74456">
        <ele>1071</ele>
        <time>2026-05-13T17:12:10Z</time>
      </trkpt>
      <trkpt lat="46.01302" lon="5.74455">
        <ele>1071</ele>
        <time>2026-05-13T17:12:11Z</time>
      </trkpt>
      <trkpt lat="46.01303" lon="5.74456">
        <ele>1071.2</ele>
        <time>2026-05-13T17:12:12Z</time>
      </trkpt>
      <trkpt lat="46.01304" lon="5.74456">
        <ele>1071.4</ele>
        <time>2026-05-13T17:12:13Z</time>
      </trkpt>
      <trkpt lat="46.01304" lon="5.74457">
        <ele>1071.4</ele>
        <time>2026-05-13T17:12:14Z</time>
      </trkpt>
      <trkpt lat="46.01305" lon="5.74458">
        <ele>1071.8</ele>
        <time>2026-05-13T17:12:15Z</time>
      </trkpt>
      <trkpt lat="46.01306" lon="5.7446">
        <ele>1071.8</ele>
        <time>2026-05-13T17:12:16Z</time>
      </trkpt>
      <trkpt lat="46.01307" lon="5.74461">
        <ele>1071.8</ele>
        <time>2026-05-13T17:12:17Z</time>
      </trkpt>
      <trkpt lat="46.01308" lon="5.74461">
        <ele>1072.2</ele>
        <time>2026-05-13T17:12:18Z</time>
      </trkpt>
      <trkpt lat="46.0131" lon="5.74463">
        <ele>1072.2</ele>
        <time>2026-05-13T17:12:19Z</time>
      </trkpt>
      <trkpt lat="46.0131" lon="5.74464">
        <ele>1072.2</ele>
        <time>2026-05-13T17:12:20Z</time>
      </trkpt>
      <trkpt lat="46.0131" lon="5.74464">
        <ele>1072.2</ele>
        <time>2026-05-13T17:12:21Z</time>
      </trkpt>
      <trkpt lat="46.01312" lon="5.74464">
        <ele>1072.4</ele>
        <time>2026-05-13T17:12:22Z</time>
      </trkpt>
      <trkpt lat="46.01314" lon="5.74464">
        <ele>1072.4</ele>
        <time>2026-05-13T17:12:23Z</time>
      </trkpt>
      <trkpt lat="46.01317" lon="5.74464">
        <ele>1072.4</ele>
        <time>2026-05-13T17:12:24Z</time>
      </trkpt>
      <trkpt lat="46.01318" lon="5.74463">
        <ele>1072.6</ele>
        <time>2026-05-13T17:12:25Z</time>
      </trkpt>
      <trkpt lat="46.0132" lon="5.74463">
        <ele>1073</ele>
        <time>2026-05-13T17:12:26Z</time>
      </trkpt>
      <trkpt lat="46.01321" lon="5.74463">
        <ele>1073</ele>
        <time>2026-05-13T17:12:27Z</time>
      </trkpt>
      <trkpt lat="46.01323" lon="5.74463">
        <ele>1073.2</ele>
        <time>2026-05-13T17:12:28Z</time>
      </trkpt>
      <trkpt lat="46.01324" lon="5.74463">
        <ele>1073.2</ele>
        <time>2026-05-13T17:12:29Z</time>
      </trkpt>
      <trkpt lat="46.01325" lon="5.74463">
        <ele>1073.4</ele>
        <time>2026-05-13T17:12:30Z</time>
      </trkpt>
      <trkpt lat="46.01325" lon="5.74464">
        <ele>1073.4</ele>
        <time>2026-05-13T17:12:31Z</time>
      </trkpt>
      <trkpt lat="46.01326" lon="5.74465">
        <ele>1073.4</ele>
        <time>2026-05-13T17:12:32Z</time>
      </trkpt>
      <trkpt lat="46.01328" lon="5.74466">
        <ele>1074</ele>
        <time>2026-05-13T17:12:33Z</time>
      </trkpt>
      <trkpt lat="46.01329" lon="5.74466">
        <ele>1074.2</ele>
        <time>2026-05-13T17:12:34Z</time>
      </trkpt>
      <trkpt lat="46.01331" lon="5.74466">
        <ele>1074.2</ele>
        <time>2026-05-13T17:12:35Z</time>
      </trkpt>
      <trkpt lat="46.01332" lon="5.74464">
        <ele>1074.2</ele>
        <time>2026-05-13T17:12:36Z</time>
      </trkpt>
      <trkpt lat="46.01334" lon="5.74462">
        <ele>1074.4</ele>
        <time>2026-05-13T17:12:37Z</time>
      </trkpt>
      <trkpt lat="46.01335" lon="5.74461">
        <ele>1074.4</ele>
        <time>2026-05-13T17:12:38Z</time>
      </trkpt>
      <trkpt lat="46.01337" lon="5.7446">
        <ele>1074.6</ele>
        <time>2026-05-13T17:12:39Z</time>
      </trkpt>
      <trkpt lat="46.01339" lon="5.7446">
        <ele>1074.6</ele>
        <time>2026-05-13T17:12:40Z</time>
      </trkpt>
      <trkpt lat="46.01341" lon="5.7446">
        <ele>1075</ele>
        <time>2026-05-13T17:12:41Z</time>
      </trkpt>
      <trkpt lat="46.01342" lon="5.7446">
        <ele>1075</ele>
        <time>2026-05-13T17:12:42Z</time>
      </trkpt>
      <trkpt lat="46.01344" lon="5.74461">
        <ele>1075</ele>
        <time>2026-05-13T17:12:43Z</time>
      </trkpt>
      <trkpt lat="46.01346" lon="5.74461">
        <ele>1075.2</ele>
        <time>2026-05-13T17:12:44Z</time>
      </trkpt>
      <trkpt lat="46.01348" lon="5.7446">
        <ele>1075.2</ele>
        <time>2026-05-13T17:12:45Z</time>
      </trkpt>
      <trkpt lat="46.01349" lon="5.7446">
        <ele>1075.2</ele>
        <time>2026-05-13T17:12:46Z</time>
      </trkpt>
      <trkpt lat="46.01351" lon="5.74461">
        <ele>1075.6</ele>
        <time>2026-05-13T17:12:47Z</time>
      </trkpt>
      <trkpt lat="46.01353" lon="5.74463">
        <ele>1075.8</ele>
        <time>2026-05-13T17:12:48Z</time>
      </trkpt>
      <trkpt lat="46.01354" lon="5.74464">
        <ele>1075.8</ele>
        <time>2026-05-13T17:12:49Z</time>
      </trkpt>
      <trkpt lat="46.01355" lon="5.74465">
        <ele>1075.8</ele>
        <time>2026-05-13T17:12:50Z</time>
      </trkpt>
      <trkpt lat="46.01356" lon="5.74464">
        <ele>1075.8</ele>
        <time>2026-05-13T17:12:51Z</time>
      </trkpt>
      <trkpt lat="46.01357" lon="5.74464">
        <ele>1075.8</ele>
        <time>2026-05-13T17:12:52Z</time>
      </trkpt>
      <trkpt lat="46.01359" lon="5.74464">
        <ele>1076.2</ele>
        <time>2026-05-13T17:12:53Z</time>
      </trkpt>
      <trkpt lat="46.01361" lon="5.74463">
        <ele>1076.2</ele>
        <time>2026-05-13T17:12:54Z</time>
      </trkpt>
      <trkpt lat="46.01362" lon="5.74463">
        <ele>1076.2</ele>
        <time>2026-05-13T17:12:55Z</time>
      </trkpt>
      <trkpt lat="46.01364" lon="5.74462">
        <ele>1076.2</ele>
        <time>2026-05-13T17:12:56Z</time>
      </trkpt>
      <trkpt lat="46.01366" lon="5.74461">
        <ele>1076.6</ele>
        <time>2026-05-13T17:12:57Z</time>
      </trkpt>
      <trkpt lat="46.01367" lon="5.74461">
        <ele>1076.6</ele>
        <time>2026-05-13T17:12:58Z</time>
      </trkpt>
      <trkpt lat="46.01369" lon="5.7446">
        <ele>1076.6</ele>
        <time>2026-05-13T17:12:59Z</time>
      </trkpt>
      <trkpt lat="46.01371" lon="5.7446">
        <ele>1076.8</ele>
        <time>2026-05-13T17:13:00Z</time>
      </trkpt>
      <trkpt lat="46.01372" lon="5.7446">
        <ele>1076.8</ele>
        <time>2026-05-13T17:13:01Z</time>
      </trkpt>
      <trkpt lat="46.01374" lon="5.7446">
        <ele>1076.8</ele>
        <time>2026-05-13T17:13:02Z</time>
      </trkpt>
      <trkpt lat="46.01375" lon="5.7446">
        <ele>1077.2</ele>
        <time>2026-05-13T17:13:03Z</time>
      </trkpt>
      <trkpt lat="46.01376" lon="5.7446">
        <ele>1077.2</ele>
        <time>2026-05-13T17:13:04Z</time>
      </trkpt>
      <trkpt lat="46.01378" lon="5.74459">
        <ele>1077.6</ele>
        <time>2026-05-13T17:13:05Z</time>
      </trkpt>
      <trkpt lat="46.01381" lon="5.74458">
        <ele>1077.6</ele>
        <time>2026-05-13T17:13:06Z</time>
      </trkpt>
      <trkpt lat="46.01383" lon="5.74458">
        <ele>1077.6</ele>
        <time>2026-05-13T17:13:07Z</time>
      </trkpt>
      <trkpt lat="46.01384" lon="5.74458">
        <ele>1077.6</ele>
        <time>2026-05-13T17:13:08Z</time>
      </trkpt>
      <trkpt lat="46.01385" lon="5.74457">
        <ele>1078</ele>
        <time>2026-05-13T17:13:09Z</time>
      </trkpt>
      <trkpt lat="46.01386" lon="5.74456">
        <ele>1078</ele>
        <time>2026-05-13T17:13:10Z</time>
      </trkpt>
      <trkpt lat="46.01387" lon="5.74455">
        <ele>1078.2</ele>
        <time>2026-05-13T17:13:11Z</time>
      </trkpt>
      <trkpt lat="46.01388" lon="5.74454">
        <ele>1078.4</ele>
        <time>2026-05-13T17:13:12Z</time>
      </trkpt>
      <trkpt lat="46.01389" lon="5.74453">
        <ele>1078.4</ele>
        <time>2026-05-13T17:13:13Z</time>
      </trkpt>
      <trkpt lat="46.01391" lon="5.74451">
        <ele>1078.4</ele>
        <time>2026-05-13T17:13:14Z</time>
      </trkpt>
      <trkpt lat="46.01392" lon="5.7445">
        <ele>1078.6</ele>
        <time>2026-05-13T17:13:15Z</time>
      </trkpt>
      <trkpt lat="46.01393" lon="5.74449">
        <ele>1078.6</ele>
        <time>2026-05-13T17:13:16Z</time>
      </trkpt>
      <trkpt lat="46.01395" lon="5.74449">
        <ele>1079</ele>
        <time>2026-05-13T17:13:17Z</time>
      </trkpt>
      <trkpt lat="46.01396" lon="5.74448">
        <ele>1079</ele>
        <time>2026-05-13T17:13:18Z</time>
      </trkpt>
      <trkpt lat="46.01397" lon="5.74447">
        <ele>1079.2</ele>
        <time>2026-05-13T17:13:19Z</time>
      </trkpt>
      <trkpt lat="46.01398" lon="5.74446">
        <ele>1079.4</ele>
        <time>2026-05-13T17:13:20Z</time>
      </trkpt>
      <trkpt lat="46.01399" lon="5.74446">
        <ele>1079.4</ele>
        <time>2026-05-13T17:13:21Z</time>
      </trkpt>
      <trkpt lat="46.014" lon="5.74445">
        <ele>1079.8</ele>
        <time>2026-05-13T17:13:22Z</time>
      </trkpt>
      <trkpt lat="46.01401" lon="5.74443">
        <ele>1079.8</ele>
        <time>2026-05-13T17:13:23Z</time>
      </trkpt>
      <trkpt lat="46.01402" lon="5.74442">
        <ele>1079.8</ele>
        <time>2026-05-13T17:13:24Z</time>
      </trkpt>
      <trkpt lat="46.01403" lon="5.74441">
        <ele>1080.4</ele>
        <time>2026-05-13T17:13:25Z</time>
      </trkpt>
      <trkpt lat="46.01405" lon="5.7444">
        <ele>1080.4</ele>
        <time>2026-05-13T17:13:26Z</time>
      </trkpt>
      <trkpt lat="46.01407" lon="5.74439">
        <ele>1080.4</ele>
        <time>2026-05-13T17:13:27Z</time>
      </trkpt>
      <trkpt lat="46.01407" lon="5.74438">
        <ele>1080.6</ele>
        <time>2026-05-13T17:13:28Z</time>
      </trkpt>
      <trkpt lat="46.01409" lon="5.74437">
        <ele>1081</ele>
        <time>2026-05-13T17:13:29Z</time>
      </trkpt>
      <trkpt lat="46.0141" lon="5.74436">
        <ele>1081.2</ele>
        <time>2026-05-13T17:13:30Z</time>
      </trkpt>
      <trkpt lat="46.01412" lon="5.74434">
        <ele>1081.2</ele>
        <time>2026-05-13T17:13:31Z</time>
      </trkpt>
      <trkpt lat="46.01413" lon="5.74433">
        <ele>1081.6</ele>
        <time>2026-05-13T17:13:32Z</time>
      </trkpt>
      <trkpt lat="46.01414" lon="5.74432">
        <ele>1081.6</ele>
        <time>2026-05-13T17:13:33Z</time>
      </trkpt>
      <trkpt lat="46.01416" lon="5.7443">
        <ele>1081.6</ele>
        <time>2026-05-13T17:13:34Z</time>
      </trkpt>
      <trkpt lat="46.01417" lon="5.74429">
        <ele>1081.8</ele>
        <time>2026-05-13T17:13:35Z</time>
      </trkpt>
      <trkpt lat="46.01418" lon="5.74428">
        <ele>1082</ele>
        <time>2026-05-13T17:13:36Z</time>
      </trkpt>
      <trkpt lat="46.0142" lon="5.74426">
        <ele>1082</ele>
        <time>2026-05-13T17:13:37Z</time>
      </trkpt>
      <trkpt lat="46.0142" lon="5.74426">
        <ele>1082.2</ele>
        <time>2026-05-13T17:13:38Z</time>
      </trkpt>
      <trkpt lat="46.01422" lon="5.74425">
        <ele>1082.4</ele>
        <time>2026-05-13T17:13:39Z</time>
      </trkpt>
      <trkpt lat="46.01423" lon="5.74424">
        <ele>1082.4</ele>
        <time>2026-05-13T17:13:40Z</time>
      </trkpt>
      <trkpt lat="46.01424" lon="5.74423">
        <ele>1082.6</ele>
        <time>2026-05-13T17:13:41Z</time>
      </trkpt>
      <trkpt lat="46.01426" lon="5.74422">
        <ele>1082.6</ele>
        <time>2026-05-13T17:13:42Z</time>
      </trkpt>
      <trkpt lat="46.01428" lon="5.74421">
        <ele>1083</ele>
        <time>2026-05-13T17:13:43Z</time>
      </trkpt>
      <trkpt lat="46.01429" lon="5.7442">
        <ele>1083</ele>
        <time>2026-05-13T17:13:44Z</time>
      </trkpt>
      <trkpt lat="46.0143" lon="5.74419">
        <ele>1083</ele>
        <time>2026-05-13T17:13:45Z</time>
      </trkpt>
      <trkpt lat="46.01431" lon="5.74419">
        <ele>1083.4</ele>
        <time>2026-05-13T17:13:46Z</time>
      </trkpt>
      <trkpt lat="46.01431" lon="5.74418">
        <ele>1083.4</ele>
        <time>2026-05-13T17:13:47Z</time>
      </trkpt>
      <trkpt lat="46.01433" lon="5.74418">
        <ele>1083.6</ele>
        <time>2026-05-13T17:13:48Z</time>
      </trkpt>
      <trkpt lat="46.01434" lon="5.74417">
        <ele>1083.6</ele>
        <time>2026-05-13T17:13:49Z</time>
      </trkpt>
      <trkpt lat="46.01436" lon="5.74418">
        <ele>1083.8</ele>
        <time>2026-05-13T17:13:50Z</time>
      </trkpt>
      <trkpt lat="46.01437" lon="5.74418">
        <ele>1083.8</ele>
        <time>2026-05-13T17:13:51Z</time>
      </trkpt>
      <trkpt lat="46.01439" lon="5.74418">
        <ele>1083.8</ele>
        <time>2026-05-13T17:13:52Z</time>
      </trkpt>
      <trkpt lat="46.0144" lon="5.74419">
        <ele>1084.2</ele>
        <time>2026-05-13T17:13:53Z</time>
      </trkpt>
      <trkpt lat="46.01443" lon="5.7442">
        <ele>1084.2</ele>
        <time>2026-05-13T17:13:54Z</time>
      </trkpt>
      <trkpt lat="46.01446" lon="5.74421">
        <ele>1084.2</ele>
        <time>2026-05-13T17:13:55Z</time>
      </trkpt>
      <trkpt lat="46.01449" lon="5.74421">
        <ele>1084.2</ele>
        <time>2026-05-13T17:13:56Z</time>
      </trkpt>
      <trkpt lat="46.01451" lon="5.74422">
        <ele>1084.6</ele>
        <time>2026-05-13T17:13:57Z</time>
      </trkpt>
      <trkpt lat="46.01453" lon="5.74422">
        <ele>1084.6</ele>
        <time>2026-05-13T17:13:58Z</time>
      </trkpt>
      <trkpt lat="46.01455" lon="5.74423">
        <ele>1084.8</ele>
        <time>2026-05-13T17:13:59Z</time>
      </trkpt>
      <trkpt lat="46.01456" lon="5.74424">
        <ele>1085.2</ele>
        <time>2026-05-13T17:14:00Z</time>
      </trkpt>
      <trkpt lat="46.01458" lon="5.74424">
        <ele>1085.2</ele>
        <time>2026-05-13T17:14:01Z</time>
      </trkpt>
      <trkpt lat="46.0146" lon="5.74424">
        <ele>1085.4</ele>
        <time>2026-05-13T17:14:02Z</time>
      </trkpt>
      <trkpt lat="46.01462" lon="5.74424">
        <ele>1085.4</ele>
        <time>2026-05-13T17:14:03Z</time>
      </trkpt>
      <trkpt lat="46.01463" lon="5.74424">
        <ele>1085.4</ele>
        <time>2026-05-13T17:14:04Z</time>
      </trkpt>
      <trkpt lat="46.01465" lon="5.74424">
        <ele>1085.6</ele>
        <time>2026-05-13T17:14:05Z</time>
      </trkpt>
      <trkpt lat="46.01466" lon="5.74424">
        <ele>1086</ele>
        <time>2026-05-13T17:14:06Z</time>
      </trkpt>
      <trkpt lat="46.01467" lon="5.74424">
        <ele>1086</ele>
        <time>2026-05-13T17:14:07Z</time>
      </trkpt>
      <trkpt lat="46.01468" lon="5.74423">
        <ele>1086</ele>
        <time>2026-05-13T17:14:08Z</time>
      </trkpt>
      <trkpt lat="46.01468" lon="5.74423">
        <ele>1086.2</ele>
        <time>2026-05-13T17:14:09Z</time>
      </trkpt>
      <trkpt lat="46.01469" lon="5.74422">
        <ele>1086.6</ele>
        <time>2026-05-13T17:14:10Z</time>
      </trkpt>
      <trkpt lat="46.01469" lon="5.74422">
        <ele>1086.6</ele>
        <time>2026-05-13T17:14:11Z</time>
      </trkpt>
      <trkpt lat="46.0147" lon="5.74422">
        <ele>1087</ele>
        <time>2026-05-13T17:14:12Z</time>
      </trkpt>
      <trkpt lat="46.01472" lon="5.74421">
        <ele>1087</ele>
        <time>2026-05-13T17:14:13Z</time>
      </trkpt>
      <trkpt lat="46.01474" lon="5.74421">
        <ele>1087</ele>
        <time>2026-05-13T17:14:14Z</time>
      </trkpt>
      <trkpt lat="46.01476" lon="5.74421">
        <ele>1087.4</ele>
        <time>2026-05-13T17:14:15Z</time>
      </trkpt>
      <trkpt lat="46.01476" lon="5.7442">
        <ele>1087.4</ele>
        <time>2026-05-13T17:14:16Z</time>
      </trkpt>
      <trkpt lat="46.01477" lon="5.74421">
        <ele>1087.4</ele>
        <time>2026-05-13T17:14:17Z</time>
      </trkpt>
      <trkpt lat="46.01478" lon="5.74421">
        <ele>1087.8</ele>
        <time>2026-05-13T17:14:18Z</time>
      </trkpt>
      <trkpt lat="46.01479" lon="5.74421">
        <ele>1087.8</ele>
        <time>2026-05-13T17:14:19Z</time>
      </trkpt>
      <trkpt lat="46.0148" lon="5.74421">
        <ele>1088</ele>
        <time>2026-05-13T17:14:20Z</time>
      </trkpt>
      <trkpt lat="46.0148" lon="5.74421">
        <ele>1088.2</ele>
        <time>2026-05-13T17:14:21Z</time>
      </trkpt>
      <trkpt lat="46.01481" lon="5.74421">
        <ele>1088.2</ele>
        <time>2026-05-13T17:14:22Z</time>
      </trkpt>
      <trkpt lat="46.01484" lon="5.7442">
        <ele>1088.2</ele>
        <time>2026-05-13T17:14:23Z</time>
      </trkpt>
      <trkpt lat="46.01485" lon="5.74418">
        <ele>1088.6</ele>
        <time>2026-05-13T17:14:24Z</time>
      </trkpt>
      <trkpt lat="46.01487" lon="5.74417">
        <ele>1088.8</ele>
        <time>2026-05-13T17:14:25Z</time>
      </trkpt>
      <trkpt lat="46.01488" lon="5.74416">
        <ele>1088.8</ele>
        <time>2026-05-13T17:14:26Z</time>
      </trkpt>
      <trkpt lat="46.01488" lon="5.74416">
        <ele>1089.2</ele>
        <time>2026-05-13T17:14:27Z</time>
      </trkpt>
      <trkpt lat="46.0149" lon="5.74415">
        <ele>1089.4</ele>
        <time>2026-05-13T17:14:28Z</time>
      </trkpt>
      <trkpt lat="46.01492" lon="5.74413">
        <ele>1089.4</ele>
        <time>2026-05-13T17:14:29Z</time>
      </trkpt>
      <trkpt lat="46.01494" lon="5.74412">
        <ele>1089.8</ele>
        <time>2026-05-13T17:14:30Z</time>
      </trkpt>
      <trkpt lat="46.01496" lon="5.74411">
        <ele>1089.8</ele>
        <time>2026-05-13T17:14:31Z</time>
      </trkpt>
      <trkpt lat="46.01498" lon="5.74411">
        <ele>1090</ele>
        <time>2026-05-13T17:14:32Z</time>
      </trkpt>
      <trkpt lat="46.01499" lon="5.7441">
        <ele>1090</ele>
        <time>2026-05-13T17:14:33Z</time>
      </trkpt>
      <trkpt lat="46.01501" lon="5.74408">
        <ele>1090</ele>
        <time>2026-05-13T17:14:34Z</time>
      </trkpt>
      <trkpt lat="46.01502" lon="5.74408">
        <ele>1090</ele>
        <time>2026-05-13T17:14:35Z</time>
      </trkpt>
      <trkpt lat="46.01504" lon="5.74407">
        <ele>1090.2</ele>
        <time>2026-05-13T17:14:36Z</time>
      </trkpt>
      <trkpt lat="46.01506" lon="5.74406">
        <ele>1090.2</ele>
        <time>2026-05-13T17:14:37Z</time>
      </trkpt>
      <trkpt lat="46.01507" lon="5.74406">
        <ele>1090.4</ele>
        <time>2026-05-13T17:14:38Z</time>
      </trkpt>
      <trkpt lat="46.0151" lon="5.74406">
        <ele>1090.4</ele>
        <time>2026-05-13T17:14:39Z</time>
      </trkpt>
      <trkpt lat="46.01512" lon="5.74406">
        <ele>1091</ele>
        <time>2026-05-13T17:14:40Z</time>
      </trkpt>
      <trkpt lat="46.01513" lon="5.74405">
        <ele>1091.2</ele>
        <time>2026-05-13T17:14:41Z</time>
      </trkpt>
      <trkpt lat="46.01514" lon="5.74404">
        <ele>1091.6</ele>
        <time>2026-05-13T17:14:42Z</time>
      </trkpt>
      <trkpt lat="46.01516" lon="5.74404">
        <ele>1091.6</ele>
        <time>2026-05-13T17:14:43Z</time>
      </trkpt>
      <trkpt lat="46.01518" lon="5.74404">
        <ele>1092</ele>
        <time>2026-05-13T17:14:44Z</time>
      </trkpt>
      <trkpt lat="46.0152" lon="5.74405">
        <ele>1092.2</ele>
        <time>2026-05-13T17:14:45Z</time>
      </trkpt>
      <trkpt lat="46.01521" lon="5.74405">
        <ele>1092.2</ele>
        <time>2026-05-13T17:14:46Z</time>
      </trkpt>
      <trkpt lat="46.01522" lon="5.74405">
        <ele>1092.6</ele>
        <time>2026-05-13T17:14:47Z</time>
      </trkpt>
      <trkpt lat="46.01524" lon="5.74405">
        <ele>1092.8</ele>
        <time>2026-05-13T17:14:48Z</time>
      </trkpt>
      <trkpt lat="46.01525" lon="5.74405">
        <ele>1092.8</ele>
        <time>2026-05-13T17:14:49Z</time>
      </trkpt>
      <trkpt lat="46.01526" lon="5.74405">
        <ele>1093</ele>
        <time>2026-05-13T17:14:50Z</time>
      </trkpt>
      <trkpt lat="46.01527" lon="5.74405">
        <ele>1093</ele>
        <time>2026-05-13T17:14:51Z</time>
      </trkpt>
      <trkpt lat="46.01528" lon="5.74405">
        <ele>1093.4</ele>
        <time>2026-05-13T17:14:52Z</time>
      </trkpt>
      <trkpt lat="46.01529" lon="5.74405">
        <ele>1093.4</ele>
        <time>2026-05-13T17:14:53Z</time>
      </trkpt>
      <trkpt lat="46.0153" lon="5.74405">
        <ele>1093.6</ele>
        <time>2026-05-13T17:14:54Z</time>
      </trkpt>
      <trkpt lat="46.01532" lon="5.74405">
        <ele>1093.6</ele>
        <time>2026-05-13T17:14:55Z</time>
      </trkpt>
      <trkpt lat="46.01533" lon="5.74405">
        <ele>1093.6</ele>
        <time>2026-05-13T17:14:56Z</time>
      </trkpt>
      <trkpt lat="46.01535" lon="5.74405">
        <ele>1094</ele>
        <time>2026-05-13T17:14:57Z</time>
      </trkpt>
      <trkpt lat="46.01537" lon="5.74405">
        <ele>1094</ele>
        <time>2026-05-13T17:14:58Z</time>
      </trkpt>
      <trkpt lat="46.01538" lon="5.74405">
        <ele>1094</ele>
        <time>2026-05-13T17:14:59Z</time>
      </trkpt>
      <trkpt lat="46.01539" lon="5.74405">
        <ele>1094.2</ele>
        <time>2026-05-13T17:15:00Z</time>
      </trkpt>
      <trkpt lat="46.01539" lon="5.74404">
        <ele>1094.2</ele>
        <time>2026-05-13T17:15:01Z</time>
      </trkpt>
      <trkpt lat="46.0154" lon="5.74404">
        <ele>1094.2</ele>
        <time>2026-05-13T17:15:02Z</time>
      </trkpt>
      <trkpt lat="46.01542" lon="5.74403">
        <ele>1094.6</ele>
        <time>2026-05-13T17:15:03Z</time>
      </trkpt>
      <trkpt lat="46.01543" lon="5.74401">
        <ele>1094.6</ele>
        <time>2026-05-13T17:15:04Z</time>
      </trkpt>
      <trkpt lat="46.01546" lon="5.744">
        <ele>1094.8</ele>
        <time>2026-05-13T17:15:05Z</time>
      </trkpt>
      <trkpt lat="46.01548" lon="5.74398">
        <ele>1094.8</ele>
        <time>2026-05-13T17:15:06Z</time>
      </trkpt>
      <trkpt lat="46.01549" lon="5.74398">
        <ele>1094.8</ele>
        <time>2026-05-13T17:15:07Z</time>
      </trkpt>
      <trkpt lat="46.0155" lon="5.74397">
        <ele>1095</ele>
        <time>2026-05-13T17:15:08Z</time>
      </trkpt>
      <trkpt lat="46.01552" lon="5.74396">
        <ele>1095</ele>
        <time>2026-05-13T17:15:09Z</time>
      </trkpt>
      <trkpt lat="46.01553" lon="5.74395">
        <ele>1095</ele>
        <time>2026-05-13T17:15:10Z</time>
      </trkpt>
      <trkpt lat="46.01555" lon="5.74395">
        <ele>1095.4</ele>
        <time>2026-05-13T17:15:11Z</time>
      </trkpt>
      <trkpt lat="46.01556" lon="5.74394">
        <ele>1095.4</ele>
        <time>2026-05-13T17:15:12Z</time>
      </trkpt>
      <trkpt lat="46.01558" lon="5.74394">
        <ele>1095.8</ele>
        <time>2026-05-13T17:15:13Z</time>
      </trkpt>
      <trkpt lat="46.01559" lon="5.74393">
        <ele>1095.8</ele>
        <time>2026-05-13T17:15:14Z</time>
      </trkpt>
      <trkpt lat="46.0156" lon="5.74393">
        <ele>1095.8</ele>
        <time>2026-05-13T17:15:15Z</time>
      </trkpt>
      <trkpt lat="46.01562" lon="5.74392">
        <ele>1095.8</ele>
        <time>2026-05-13T17:15:16Z</time>
      </trkpt>
      <trkpt lat="46.01563" lon="5.74392">
        <ele>1096</ele>
        <time>2026-05-13T17:15:17Z</time>
      </trkpt>
      <trkpt lat="46.01564" lon="5.74392">
        <ele>1096</ele>
        <time>2026-05-13T17:15:18Z</time>
      </trkpt>
      <trkpt lat="46.01566" lon="5.74391">
        <ele>1096.2</ele>
        <time>2026-05-13T17:15:19Z</time>
      </trkpt>
      <trkpt lat="46.01567" lon="5.7439">
        <ele>1096.2</ele>
        <time>2026-05-13T17:15:20Z</time>
      </trkpt>
      <trkpt lat="46.01569" lon="5.74389">
        <ele>1096.2</ele>
        <time>2026-05-13T17:15:21Z</time>
      </trkpt>
      <trkpt lat="46.01571" lon="5.74387">
        <ele>1096.8</ele>
        <time>2026-05-13T17:15:22Z</time>
      </trkpt>
      <trkpt lat="46.01572" lon="5.74386">
        <ele>1096.8</ele>
        <time>2026-05-13T17:15:23Z</time>
      </trkpt>
      <trkpt lat="46.01574" lon="5.74385">
        <ele>1096.8</ele>
        <time>2026-05-13T17:15:24Z</time>
      </trkpt>
      <trkpt lat="46.01576" lon="5.74385">
        <ele>1096.8</ele>
        <time>2026-05-13T17:15:25Z</time>
      </trkpt>
      <trkpt lat="46.01578" lon="5.74384">
        <ele>1097</ele>
        <time>2026-05-13T17:15:26Z</time>
      </trkpt>
      <trkpt lat="46.01578" lon="5.74384">
        <ele>1097.4</ele>
        <time>2026-05-13T17:15:27Z</time>
      </trkpt>
      <trkpt lat="46.01579" lon="5.74384">
        <ele>1097.4</ele>
        <time>2026-05-13T17:15:28Z</time>
      </trkpt>
      <trkpt lat="46.0158" lon="5.74384">
        <ele>1097.8</ele>
        <time>2026-05-13T17:15:29Z</time>
      </trkpt>
      <trkpt lat="46.01582" lon="5.74383">
        <ele>1097.8</ele>
        <time>2026-05-13T17:15:30Z</time>
      </trkpt>
      <trkpt lat="46.01583" lon="5.74383">
        <ele>1098</ele>
        <time>2026-05-13T17:15:31Z</time>
      </trkpt>
      <trkpt lat="46.01584" lon="5.74383">
        <ele>1098</ele>
        <time>2026-05-13T17:15:32Z</time>
      </trkpt>
      <trkpt lat="46.01587" lon="5.74382">
        <ele>1098.4</ele>
        <time>2026-05-13T17:15:33Z</time>
      </trkpt>
      <trkpt lat="46.01589" lon="5.74381">
        <ele>1098.4</ele>
        <time>2026-05-13T17:15:34Z</time>
      </trkpt>
      <trkpt lat="46.0159" lon="5.74381">
        <ele>1098.6</ele>
        <time>2026-05-13T17:15:35Z</time>
      </trkpt>
      <trkpt lat="46.01592" lon="5.7438">
        <ele>1098.6</ele>
        <time>2026-05-13T17:15:36Z</time>
      </trkpt>
      <trkpt lat="46.01594" lon="5.74379">
        <ele>1098.6</ele>
        <time>2026-05-13T17:15:37Z</time>
      </trkpt>
      <trkpt lat="46.01596" lon="5.74378">
        <ele>1098.6</ele>
        <time>2026-05-13T17:15:38Z</time>
      </trkpt>
      <trkpt lat="46.01597" lon="5.74376">
        <ele>1098.6</ele>
        <time>2026-05-13T17:15:39Z</time>
      </trkpt>
      <trkpt lat="46.01598" lon="5.74374">
        <ele>1099</ele>
        <time>2026-05-13T17:15:40Z</time>
      </trkpt>
      <trkpt lat="46.016" lon="5.74372">
        <ele>1099</ele>
        <time>2026-05-13T17:15:41Z</time>
      </trkpt>
      <trkpt lat="46.01602" lon="5.74372">
        <ele>1099.2</ele>
        <time>2026-05-13T17:15:42Z</time>
      </trkpt>
      <trkpt lat="46.01604" lon="5.74371">
        <ele>1099.2</ele>
        <time>2026-05-13T17:15:43Z</time>
      </trkpt>
      <trkpt lat="46.01606" lon="5.74371">
        <ele>1099.6</ele>
        <time>2026-05-13T17:15:44Z</time>
      </trkpt>
      <trkpt lat="46.01607" lon="5.74372">
        <ele>1099.6</ele>
        <time>2026-05-13T17:15:45Z</time>
      </trkpt>
      <trkpt lat="46.01608" lon="5.74372">
        <ele>1099.6</ele>
        <time>2026-05-13T17:15:46Z</time>
      </trkpt>
      <trkpt lat="46.0161" lon="5.74372">
        <ele>1100</ele>
        <time>2026-05-13T17:15:47Z</time>
      </trkpt>
      <trkpt lat="46.01611" lon="5.74372">
        <ele>1100.2</ele>
        <time>2026-05-13T17:15:48Z</time>
      </trkpt>
      <trkpt lat="46.01612" lon="5.74372">
        <ele>1100.2</ele>
        <time>2026-05-13T17:15:49Z</time>
      </trkpt>
      <trkpt lat="46.01615" lon="5.74372">
        <ele>1100.6</ele>
        <time>2026-05-13T17:15:50Z</time>
      </trkpt>
      <trkpt lat="46.01617" lon="5.74371">
        <ele>1100.6</ele>
        <time>2026-05-13T17:15:51Z</time>
      </trkpt>
      <trkpt lat="46.01619" lon="5.7437">
        <ele>1100.6</ele>
        <time>2026-05-13T17:15:52Z</time>
      </trkpt>
      <trkpt lat="46.01622" lon="5.7437">
        <ele>1100.6</ele>
        <time>2026-05-13T17:15:53Z</time>
      </trkpt>
      <trkpt lat="46.01624" lon="5.74369">
        <ele>1100.8</ele>
        <time>2026-05-13T17:15:54Z</time>
      </trkpt>
      <trkpt lat="46.01625" lon="5.74368">
        <ele>1100.8</ele>
        <time>2026-05-13T17:15:55Z</time>
      </trkpt>
      <trkpt lat="46.01627" lon="5.74368">
        <ele>1101.2</ele>
        <time>2026-05-13T17:15:56Z</time>
      </trkpt>
      <trkpt lat="46.01629" lon="5.74368">
        <ele>1101.2</ele>
        <time>2026-05-13T17:15:57Z</time>
      </trkpt>
      <trkpt lat="46.01631" lon="5.74367">
        <ele>1101.2</ele>
        <time>2026-05-13T17:15:58Z</time>
      </trkpt>
      <trkpt lat="46.01633" lon="5.74366">
        <ele>1101.2</ele>
        <time>2026-05-13T17:15:59Z</time>
      </trkpt>
      <trkpt lat="46.01635" lon="5.74366">
        <ele>1101.6</ele>
        <time>2026-05-13T17:16:00Z</time>
      </trkpt>
      <trkpt lat="46.01637" lon="5.74365">
        <ele>1101.6</ele>
        <time>2026-05-13T17:16:01Z</time>
      </trkpt>
      <trkpt lat="46.01638" lon="5.74364">
        <ele>1101.6</ele>
        <time>2026-05-13T17:16:02Z</time>
      </trkpt>
      <trkpt lat="46.0164" lon="5.74364">
        <ele>1101.6</ele>
        <time>2026-05-13T17:16:03Z</time>
      </trkpt>
      <trkpt lat="46.01641" lon="5.74363">
        <ele>1101.6</ele>
        <time>2026-05-13T17:16:04Z</time>
      </trkpt>
      <trkpt lat="46.01643" lon="5.74363">
        <ele>1102</ele>
        <time>2026-05-13T17:16:05Z</time>
      </trkpt>
      <trkpt lat="46.01644" lon="5.74362">
        <ele>1102.2</ele>
        <time>2026-05-13T17:16:06Z</time>
      </trkpt>
      <trkpt lat="46.01646" lon="5.74362">
        <ele>1102.6</ele>
        <time>2026-05-13T17:16:07Z</time>
      </trkpt>
      <trkpt lat="46.01648" lon="5.74361">
        <ele>1102.8</ele>
        <time>2026-05-13T17:16:08Z</time>
      </trkpt>
      <trkpt lat="46.0165" lon="5.74361">
        <ele>1102.8</ele>
        <time>2026-05-13T17:16:09Z</time>
      </trkpt>
      <trkpt lat="46.01652" lon="5.7436">
        <ele>1102.8</ele>
        <time>2026-05-13T17:16:10Z</time>
      </trkpt>
      <trkpt lat="46.01654" lon="5.74359">
        <ele>1102.8</ele>
        <time>2026-05-13T17:16:11Z</time>
      </trkpt>
      <trkpt lat="46.01655" lon="5.74358">
        <ele>1102.8</ele>
        <time>2026-05-13T17:16:12Z</time>
      </trkpt>
      <trkpt lat="46.01656" lon="5.74358">
        <ele>1103</ele>
        <time>2026-05-13T17:16:13Z</time>
      </trkpt>
      <trkpt lat="46.01657" lon="5.74358">
        <ele>1103</ele>
        <time>2026-05-13T17:16:14Z</time>
      </trkpt>
      <trkpt lat="46.01657" lon="5.74357">
        <ele>1103.4</ele>
        <time>2026-05-13T17:16:15Z</time>
      </trkpt>
      <trkpt lat="46.01657" lon="5.74357">
        <ele>1103.4</ele>
        <time>2026-05-13T17:16:16Z</time>
      </trkpt>
      <trkpt lat="46.01654" lon="5.74356">
        <ele>1103.6</ele>
        <time>2026-05-13T17:17:02Z</time>
      </trkpt>
      <trkpt lat="46.01655" lon="5.74355">
        <ele>1103.6</ele>
        <time>2026-05-13T17:17:03Z</time>
      </trkpt>
      <trkpt lat="46.01657" lon="5.74355">
        <ele>1103.6</ele>
        <time>2026-05-13T17:17:04Z</time>
      </trkpt>
      <trkpt lat="46.01658" lon="5.74354">
        <ele>1103.6</ele>
        <time>2026-05-13T17:17:05Z</time>
      </trkpt>
      <trkpt lat="46.01659" lon="5.74354">
        <ele>1103.6</ele>
        <time>2026-05-13T17:17:06Z</time>
      </trkpt>
      <trkpt lat="46.01661" lon="5.74353">
        <ele>1103.6</ele>
        <time>2026-05-13T17:17:07Z</time>
      </trkpt>
      <trkpt lat="46.01662" lon="5.74353">
        <ele>1104</ele>
        <time>2026-05-13T17:17:08Z</time>
      </trkpt>
      <trkpt lat="46.01664" lon="5.74352">
        <ele>1104.4</ele>
        <time>2026-05-13T17:17:09Z</time>
      </trkpt>
      <trkpt lat="46.01666" lon="5.74351">
        <ele>1104.4</ele>
        <time>2026-05-13T17:17:10Z</time>
      </trkpt>
      <trkpt lat="46.01668" lon="5.7435">
        <ele>1104.8</ele>
        <time>2026-05-13T17:17:11Z</time>
      </trkpt>
      <trkpt lat="46.01669" lon="5.7435">
        <ele>1104.8</ele>
        <time>2026-05-13T17:17:12Z</time>
      </trkpt>
      <trkpt lat="46.01671" lon="5.74349">
        <ele>1104.8</ele>
        <time>2026-05-13T17:17:13Z</time>
      </trkpt>
      <trkpt lat="46.01673" lon="5.74348">
        <ele>1104.8</ele>
        <time>2026-05-13T17:17:14Z</time>
      </trkpt>
      <trkpt lat="46.01675" lon="5.74346">
        <ele>1105</ele>
        <time>2026-05-13T17:17:15Z</time>
      </trkpt>
      <trkpt lat="46.01677" lon="5.74345">
        <ele>1105.2</ele>
        <time>2026-05-13T17:17:16Z</time>
      </trkpt>
      <trkpt lat="46.01679" lon="5.74344">
        <ele>1105.6</ele>
        <time>2026-05-13T17:17:17Z</time>
      </trkpt>
      <trkpt lat="46.01681" lon="5.74343">
        <ele>1105.6</ele>
        <time>2026-05-13T17:17:18Z</time>
      </trkpt>
      <trkpt lat="46.01682" lon="5.74342">
        <ele>1105.8</ele>
        <time>2026-05-13T17:17:19Z</time>
      </trkpt>
      <trkpt lat="46.01683" lon="5.7434">
        <ele>1105.8</ele>
        <time>2026-05-13T17:17:20Z</time>
      </trkpt>
      <trkpt lat="46.01685" lon="5.74338">
        <ele>1105.8</ele>
        <time>2026-05-13T17:17:21Z</time>
      </trkpt>
      <trkpt lat="46.01687" lon="5.74336">
        <ele>1106.2</ele>
        <time>2026-05-13T17:17:22Z</time>
      </trkpt>
      <trkpt lat="46.01689" lon="5.74335">
        <ele>1106.2</ele>
        <time>2026-05-13T17:17:23Z</time>
      </trkpt>
      <trkpt lat="46.01691" lon="5.74333">
        <ele>1106.4</ele>
        <time>2026-05-13T17:17:24Z</time>
      </trkpt>
      <trkpt lat="46.01693" lon="5.74331">
        <ele>1106.6</ele>
        <time>2026-05-13T17:17:25Z</time>
      </trkpt>
      <trkpt lat="46.01695" lon="5.74329">
        <ele>1106.6</ele>
        <time>2026-05-13T17:17:26Z</time>
      </trkpt>
      <trkpt lat="46.01696" lon="5.74325">
        <ele>1106.6</ele>
        <time>2026-05-13T17:17:27Z</time>
      </trkpt>
      <trkpt lat="46.01697" lon="5.74321">
        <ele>1106.6</ele>
        <time>2026-05-13T17:17:28Z</time>
      </trkpt>
      <trkpt lat="46.01697" lon="5.74316">
        <ele>1106.6</ele>
        <time>2026-05-13T17:17:29Z</time>
      </trkpt>
      <trkpt lat="46.01697" lon="5.74312">
        <ele>1106.6</ele>
        <time>2026-05-13T17:17:30Z</time>
      </trkpt>
      <trkpt lat="46.01698" lon="5.74308">
        <ele>1106.6</ele>
        <time>2026-05-13T17:17:31Z</time>
      </trkpt>
      <trkpt lat="46.01699" lon="5.74306">
        <ele>1106.6</ele>
        <time>2026-05-13T17:17:32Z</time>
      </trkpt>
      <trkpt lat="46.01701" lon="5.74303">
        <ele>1106.6</ele>
        <time>2026-05-13T17:17:33Z</time>
      </trkpt>
      <trkpt lat="46.01702" lon="5.743">
        <ele>1106.6</ele>
        <time>2026-05-13T17:17:34Z</time>
      </trkpt>
      <trkpt lat="46.01703" lon="5.74296">
        <ele>1106.2</ele>
        <time>2026-05-13T17:17:35Z</time>
      </trkpt>
      <trkpt lat="46.01703" lon="5.74292">
        <ele>1106.2</ele>
        <time>2026-05-13T17:17:36Z</time>
      </trkpt>
      <trkpt lat="46.01704" lon="5.74287">
        <ele>1106.4</ele>
        <time>2026-05-13T17:17:37Z</time>
      </trkpt>
      <trkpt lat="46.01705" lon="5.74284">
        <ele>1106.4</ele>
        <time>2026-05-13T17:17:38Z</time>
      </trkpt>
      <trkpt lat="46.01706" lon="5.74281">
        <ele>1106.4</ele>
        <time>2026-05-13T17:17:39Z</time>
      </trkpt>
      <trkpt lat="46.01708" lon="5.74279">
        <ele>1106.4</ele>
        <time>2026-05-13T17:17:40Z</time>
      </trkpt>
      <trkpt lat="46.01709" lon="5.74275">
        <ele>1106.4</ele>
        <time>2026-05-13T17:17:41Z</time>
      </trkpt>
      <trkpt lat="46.01711" lon="5.74273">
        <ele>1106.4</ele>
        <time>2026-05-13T17:17:42Z</time>
      </trkpt>
      <trkpt lat="46.01713" lon="5.7427">
        <ele>1106.6</ele>
        <time>2026-05-13T17:17:43Z</time>
      </trkpt>
      <trkpt lat="46.01714" lon="5.74267">
        <ele>1106.6</ele>
        <time>2026-05-13T17:17:44Z</time>
      </trkpt>
      <trkpt lat="46.01716" lon="5.74264">
        <ele>1106.6</ele>
        <time>2026-05-13T17:17:45Z</time>
      </trkpt>
      <trkpt lat="46.01717" lon="5.74262">
        <ele>1106.6</ele>
        <time>2026-05-13T17:17:46Z</time>
      </trkpt>
      <trkpt lat="46.01719" lon="5.74259">
        <ele>1106.6</ele>
        <time>2026-05-13T17:17:47Z</time>
      </trkpt>
      <trkpt lat="46.01719" lon="5.74254">
        <ele>1106.6</ele>
        <time>2026-05-13T17:17:48Z</time>
      </trkpt>
      <trkpt lat="46.0172" lon="5.74249">
        <ele>1106.6</ele>
        <time>2026-05-13T17:17:49Z</time>
      </trkpt>
      <trkpt lat="46.0172" lon="5.74245">
        <ele>1106.6</ele>
        <time>2026-05-13T17:17:50Z</time>
      </trkpt>
      <trkpt lat="46.01721" lon="5.74242">
        <ele>1106.6</ele>
        <time>2026-05-13T17:17:51Z</time>
      </trkpt>
      <trkpt lat="46.01722" lon="5.74238">
        <ele>1106.6</ele>
        <time>2026-05-13T17:17:52Z</time>
      </trkpt>
      <trkpt lat="46.01724" lon="5.74235">
        <ele>1106.6</ele>
        <time>2026-05-13T17:17:53Z</time>
      </trkpt>
      <trkpt lat="46.01725" lon="5.74231">
        <ele>1106.6</ele>
        <time>2026-05-13T17:17:54Z</time>
      </trkpt>
      <trkpt lat="46.01726" lon="5.74228">
        <ele>1106.6</ele>
        <time>2026-05-13T17:17:55Z</time>
      </trkpt>
      <trkpt lat="46.01726" lon="5.74225">
        <ele>1106.6</ele>
        <time>2026-05-13T17:17:56Z</time>
      </trkpt>
      <trkpt lat="46.01727" lon="5.74222">
        <ele>1106.8</ele>
        <time>2026-05-13T17:17:57Z</time>
      </trkpt>
      <trkpt lat="46.01728" lon="5.74219">
        <ele>1106.8</ele>
        <time>2026-05-13T17:17:58Z</time>
      </trkpt>
      <trkpt lat="46.01729" lon="5.74216">
        <ele>1106.8</ele>
        <time>2026-05-13T17:17:59Z</time>
      </trkpt>
      <trkpt lat="46.01731" lon="5.74212">
        <ele>1106.8</ele>
        <time>2026-05-13T17:18:00Z</time>
      </trkpt>
      <trkpt lat="46.01733" lon="5.74209">
        <ele>1106.8</ele>
        <time>2026-05-13T17:18:01Z</time>
      </trkpt>
      <trkpt lat="46.01734" lon="5.74206">
        <ele>1106.8</ele>
        <time>2026-05-13T17:18:02Z</time>
      </trkpt>
      <trkpt lat="46.01736" lon="5.74203">
        <ele>1106.8</ele>
        <time>2026-05-13T17:18:03Z</time>
      </trkpt>
      <trkpt lat="46.01737" lon="5.742">
        <ele>1106.8</ele>
        <time>2026-05-13T17:18:04Z</time>
      </trkpt>
      <trkpt lat="46.01739" lon="5.74198">
        <ele>1106.8</ele>
        <time>2026-05-13T17:18:05Z</time>
      </trkpt>
      <trkpt lat="46.01741" lon="5.74195">
        <ele>1106.8</ele>
        <time>2026-05-13T17:18:06Z</time>
      </trkpt>
      <trkpt lat="46.01743" lon="5.74192">
        <ele>1106.8</ele>
        <time>2026-05-13T17:18:07Z</time>
      </trkpt>
      <trkpt lat="46.01745" lon="5.74189">
        <ele>1106.8</ele>
        <time>2026-05-13T17:18:08Z</time>
      </trkpt>
      <trkpt lat="46.01747" lon="5.74186">
        <ele>1107</ele>
        <time>2026-05-13T17:18:09Z</time>
      </trkpt>
      <trkpt lat="46.01749" lon="5.74184">
        <ele>1107</ele>
        <time>2026-05-13T17:18:10Z</time>
      </trkpt>
      <trkpt lat="46.0175" lon="5.74181">
        <ele>1107</ele>
        <time>2026-05-13T17:18:11Z</time>
      </trkpt>
      <trkpt lat="46.01752" lon="5.74179">
        <ele>1107</ele>
        <time>2026-05-13T17:18:12Z</time>
      </trkpt>
      <trkpt lat="46.01754" lon="5.74176">
        <ele>1107</ele>
        <time>2026-05-13T17:18:13Z</time>
      </trkpt>
      <trkpt lat="46.01756" lon="5.74174">
        <ele>1107.2</ele>
        <time>2026-05-13T17:18:14Z</time>
      </trkpt>
      <trkpt lat="46.01756" lon="5.74174">
        <ele>1107.2</ele>
        <time>2026-05-13T17:18:15Z</time>
      </trkpt>
      <trkpt lat="46.01764" lon="5.74166">
        <ele>1107.4</ele>
        <time>2026-05-13T17:18:17Z</time>
      </trkpt>
      <trkpt lat="46.01766" lon="5.74164">
        <ele>1107.4</ele>
        <time>2026-05-13T17:18:18Z</time>
      </trkpt>
      <trkpt lat="46.01768" lon="5.74162">
        <ele>1107.8</ele>
        <time>2026-05-13T17:18:19Z</time>
      </trkpt>
      <trkpt lat="46.01769" lon="5.74161">
        <ele>1107.8</ele>
        <time>2026-05-13T17:18:20Z</time>
      </trkpt>
      <trkpt lat="46.01771" lon="5.7416">
        <ele>1108</ele>
        <time>2026-05-13T17:18:21Z</time>
      </trkpt>
      <trkpt lat="46.01773" lon="5.74159">
        <ele>1108.4</ele>
        <time>2026-05-13T17:18:22Z</time>
      </trkpt>
      <trkpt lat="46.01775" lon="5.74159">
        <ele>1108.4</ele>
        <time>2026-05-13T17:18:23Z</time>
      </trkpt>
      <trkpt lat="46.01776" lon="5.74159">
        <ele>1108.4</ele>
        <time>2026-05-13T17:18:24Z</time>
      </trkpt>
      <trkpt lat="46.01777" lon="5.74158">
        <ele>1108.6</ele>
        <time>2026-05-13T17:18:25Z</time>
      </trkpt>
      <trkpt lat="46.01778" lon="5.74157">
        <ele>1108.6</ele>
        <time>2026-05-13T17:18:26Z</time>
      </trkpt>
      <trkpt lat="46.01779" lon="5.74157">
        <ele>1109</ele>
        <time>2026-05-13T17:18:27Z</time>
      </trkpt>
      <trkpt lat="46.0178" lon="5.74157">
        <ele>1109</ele>
        <time>2026-05-13T17:18:28Z</time>
      </trkpt>
      <trkpt lat="46.01781" lon="5.74156">
        <ele>1109.4</ele>
        <time>2026-05-13T17:18:29Z</time>
      </trkpt>
      <trkpt lat="46.01783" lon="5.74156">
        <ele>1109.8</ele>
        <time>2026-05-13T17:18:30Z</time>
      </trkpt>
      <trkpt lat="46.01784" lon="5.74155">
        <ele>1109.8</ele>
        <time>2026-05-13T17:18:31Z</time>
      </trkpt>
      <trkpt lat="46.01786" lon="5.74155">
        <ele>1110.2</ele>
        <time>2026-05-13T17:18:32Z</time>
      </trkpt>
      <trkpt lat="46.01787" lon="5.74156">
        <ele>1110.4</ele>
        <time>2026-05-13T17:18:33Z</time>
      </trkpt>
      <trkpt lat="46.01789" lon="5.74157">
        <ele>1110.4</ele>
        <time>2026-05-13T17:18:34Z</time>
      </trkpt>
      <trkpt lat="46.01791" lon="5.74158">
        <ele>1110.6</ele>
        <time>2026-05-13T17:18:35Z</time>
      </trkpt>
      <trkpt lat="46.01792" lon="5.74158">
        <ele>1110.6</ele>
        <time>2026-05-13T17:18:36Z</time>
      </trkpt>
      <trkpt lat="46.01795" lon="5.74157">
        <ele>1111</ele>
        <time>2026-05-13T17:18:37Z</time>
      </trkpt>
      <trkpt lat="46.01796" lon="5.74157">
        <ele>1111.4</ele>
        <time>2026-05-13T17:18:38Z</time>
      </trkpt>
      <trkpt lat="46.01798" lon="5.74157">
        <ele>1111.4</ele>
        <time>2026-05-13T17:18:39Z</time>
      </trkpt>
      <trkpt lat="46.01799" lon="5.74157">
        <ele>1111.8</ele>
        <time>2026-05-13T17:18:40Z</time>
      </trkpt>
      <trkpt lat="46.018" lon="5.74157">
        <ele>1111.8</ele>
        <time>2026-05-13T17:18:41Z</time>
      </trkpt>
      <trkpt lat="46.01802" lon="5.74158">
        <ele>1111.8</ele>
        <time>2026-05-13T17:18:42Z</time>
      </trkpt>
      <trkpt lat="46.01805" lon="5.74158">
        <ele>1111.8</ele>
        <time>2026-05-13T17:18:43Z</time>
      </trkpt>
      <trkpt lat="46.01807" lon="5.74158">
        <ele>1111.8</ele>
        <time>2026-05-13T17:18:44Z</time>
      </trkpt>
      <trkpt lat="46.0181" lon="5.74157">
        <ele>1112</ele>
        <time>2026-05-13T17:18:45Z</time>
      </trkpt>
      <trkpt lat="46.01812" lon="5.74157">
        <ele>1112</ele>
        <time>2026-05-13T17:18:46Z</time>
      </trkpt>
      <trkpt lat="46.01813" lon="5.74157">
        <ele>1112.4</ele>
        <time>2026-05-13T17:18:47Z</time>
      </trkpt>
      <trkpt lat="46.01815" lon="5.74158">
        <ele>1112.6</ele>
        <time>2026-05-13T17:18:48Z</time>
      </trkpt>
      <trkpt lat="46.01818" lon="5.74158">
        <ele>1112.6</ele>
        <time>2026-05-13T17:18:49Z</time>
      </trkpt>
      <trkpt lat="46.0182" lon="5.74158">
        <ele>1112.6</ele>
        <time>2026-05-13T17:18:50Z</time>
      </trkpt>
      <trkpt lat="46.01821" lon="5.74158">
        <ele>1112.8</ele>
        <time>2026-05-13T17:18:51Z</time>
      </trkpt>
      <trkpt lat="46.01822" lon="5.74158">
        <ele>1113.2</ele>
        <time>2026-05-13T17:18:52Z</time>
      </trkpt>
      <trkpt lat="46.01823" lon="5.74158">
        <ele>1113.4</ele>
        <time>2026-05-13T17:18:53Z</time>
      </trkpt>
      <trkpt lat="46.01825" lon="5.74158">
        <ele>1113.6</ele>
        <time>2026-05-13T17:18:54Z</time>
      </trkpt>
      <trkpt lat="46.01827" lon="5.74158">
        <ele>1113.6</ele>
        <time>2026-05-13T17:18:55Z</time>
      </trkpt>
      <trkpt lat="46.01828" lon="5.74158">
        <ele>1113.6</ele>
        <time>2026-05-13T17:18:56Z</time>
      </trkpt>
      <trkpt lat="46.01829" lon="5.74158">
        <ele>1114.2</ele>
        <time>2026-05-13T17:18:57Z</time>
      </trkpt>
      <trkpt lat="46.01829" lon="5.74158">
        <ele>1114.4</ele>
        <time>2026-05-13T17:18:58Z</time>
      </trkpt>
      <trkpt lat="46.0183" lon="5.74158">
        <ele>1114.6</ele>
        <time>2026-05-13T17:18:59Z</time>
      </trkpt>
      <trkpt lat="46.0183" lon="5.74158">
        <ele>1114.6</ele>
        <time>2026-05-13T17:19:00Z</time>
      </trkpt>
      <trkpt lat="46.01831" lon="5.74157">
        <ele>1115</ele>
        <time>2026-05-13T17:19:01Z</time>
      </trkpt>
      <trkpt lat="46.01832" lon="5.74156">
        <ele>1115</ele>
        <time>2026-05-13T17:19:02Z</time>
      </trkpt>
      <trkpt lat="46.01833" lon="5.74155">
        <ele>1115.4</ele>
        <time>2026-05-13T17:19:03Z</time>
      </trkpt>
      <trkpt lat="46.01835" lon="5.74155">
        <ele>1115.6</ele>
        <time>2026-05-13T17:19:04Z</time>
      </trkpt>
      <trkpt lat="46.01836" lon="5.74155">
        <ele>1116</ele>
        <time>2026-05-13T17:19:05Z</time>
      </trkpt>
      <trkpt lat="46.01837" lon="5.74154">
        <ele>1116</ele>
        <time>2026-05-13T17:19:06Z</time>
      </trkpt>
      <trkpt lat="46.01839" lon="5.74153">
        <ele>1116.4</ele>
        <time>2026-05-13T17:19:07Z</time>
      </trkpt>
      <trkpt lat="46.0184" lon="5.74153">
        <ele>1116.4</ele>
        <time>2026-05-13T17:19:08Z</time>
      </trkpt>
      <trkpt lat="46.01841" lon="5.74153">
        <ele>1116.6</ele>
        <time>2026-05-13T17:19:09Z</time>
      </trkpt>
      <trkpt lat="46.01842" lon="5.74152">
        <ele>1117</ele>
        <time>2026-05-13T17:19:10Z</time>
      </trkpt>
      <trkpt lat="46.01844" lon="5.74151">
        <ele>1117</ele>
        <time>2026-05-13T17:19:11Z</time>
      </trkpt>
      <trkpt lat="46.01846" lon="5.7415">
        <ele>1117</ele>
        <time>2026-05-13T17:19:12Z</time>
      </trkpt>
      <trkpt lat="46.01847" lon="5.7415">
        <ele>1117.2</ele>
        <time>2026-05-13T17:19:13Z</time>
      </trkpt>
      <trkpt lat="46.01849" lon="5.7415">
        <ele>1117.6</ele>
        <time>2026-05-13T17:19:14Z</time>
      </trkpt>
      <trkpt lat="46.0185" lon="5.74151">
        <ele>1117.6</ele>
        <time>2026-05-13T17:19:15Z</time>
      </trkpt>
      <trkpt lat="46.0185" lon="5.74151">
        <ele>1118</ele>
        <time>2026-05-13T17:19:16Z</time>
      </trkpt>
      <trkpt lat="46.01851" lon="5.7415">
        <ele>1118.2</ele>
        <time>2026-05-13T17:19:17Z</time>
      </trkpt>
      <trkpt lat="46.01853" lon="5.7415">
        <ele>1118.4</ele>
        <time>2026-05-13T17:19:18Z</time>
      </trkpt>
      <trkpt lat="46.01854" lon="5.74149">
        <ele>1118.6</ele>
        <time>2026-05-13T17:19:19Z</time>
      </trkpt>
      <trkpt lat="46.01857" lon="5.74148">
        <ele>1118.6</ele>
        <time>2026-05-13T17:19:20Z</time>
      </trkpt>
      <trkpt lat="46.01859" lon="5.74147">
        <ele>1118.8</ele>
        <time>2026-05-13T17:19:21Z</time>
      </trkpt>
      <trkpt lat="46.0186" lon="5.74147">
        <ele>1118.8</ele>
        <time>2026-05-13T17:19:22Z</time>
      </trkpt>
      <trkpt lat="46.01861" lon="5.74146">
        <ele>1119</ele>
        <time>2026-05-13T17:19:23Z</time>
      </trkpt>
      <trkpt lat="46.01863" lon="5.74145">
        <ele>1119</ele>
        <time>2026-05-13T17:19:24Z</time>
      </trkpt>
      <trkpt lat="46.01865" lon="5.74145">
        <ele>1119.2</ele>
        <time>2026-05-13T17:19:25Z</time>
      </trkpt>
      <trkpt lat="46.01867" lon="5.74144">
        <ele>1119.4</ele>
        <time>2026-05-13T17:19:26Z</time>
      </trkpt>
      <trkpt lat="46.01868" lon="5.74144">
        <ele>1119.4</ele>
        <time>2026-05-13T17:19:27Z</time>
      </trkpt>
      <trkpt lat="46.0187" lon="5.74144">
        <ele>1119.4</ele>
        <time>2026-05-13T17:19:28Z</time>
      </trkpt>
      <trkpt lat="46.01872" lon="5.74143">
        <ele>1120</ele>
        <time>2026-05-13T17:19:29Z</time>
      </trkpt>
      <trkpt lat="46.01873" lon="5.74143">
        <ele>1120</ele>
        <time>2026-05-13T17:19:30Z</time>
      </trkpt>
      <trkpt lat="46.01875" lon="5.74142">
        <ele>1120</ele>
        <time>2026-05-13T17:19:31Z</time>
      </trkpt>
      <trkpt lat="46.01877" lon="5.74141">
        <ele>1120.2</ele>
        <time>2026-05-13T17:19:32Z</time>
      </trkpt>
      <trkpt lat="46.01879" lon="5.7414">
        <ele>1120.4</ele>
        <time>2026-05-13T17:19:33Z</time>
      </trkpt>
      <trkpt lat="46.0188" lon="5.74139">
        <ele>1120.4</ele>
        <time>2026-05-13T17:19:34Z</time>
      </trkpt>
      <trkpt lat="46.01882" lon="5.74138">
        <ele>1120.8</ele>
        <time>2026-05-13T17:19:35Z</time>
      </trkpt>
      <trkpt lat="46.01883" lon="5.74137">
        <ele>1120.8</ele>
        <time>2026-05-13T17:19:36Z</time>
      </trkpt>
      <trkpt lat="46.01884" lon="5.74136">
        <ele>1120.8</ele>
        <time>2026-05-13T17:19:37Z</time>
      </trkpt>
      <trkpt lat="46.01886" lon="5.74135">
        <ele>1121</ele>
        <time>2026-05-13T17:19:38Z</time>
      </trkpt>
      <trkpt lat="46.01887" lon="5.74134">
        <ele>1121</ele>
        <time>2026-05-13T17:19:39Z</time>
      </trkpt>
      <trkpt lat="46.01889" lon="5.74133">
        <ele>1121</ele>
        <time>2026-05-13T17:19:40Z</time>
      </trkpt>
      <trkpt lat="46.0189" lon="5.74132">
        <ele>1121</ele>
        <time>2026-05-13T17:19:41Z</time>
      </trkpt>
      <trkpt lat="46.01891" lon="5.74132">
        <ele>1121</ele>
        <time>2026-05-13T17:19:42Z</time>
      </trkpt>
      <trkpt lat="46.01893" lon="5.74131">
        <ele>1121.4</ele>
        <time>2026-05-13T17:19:43Z</time>
      </trkpt>
      <trkpt lat="46.01894" lon="5.74131">
        <ele>1121.4</ele>
        <time>2026-05-13T17:19:44Z</time>
      </trkpt>
      <trkpt lat="46.01896" lon="5.74131">
        <ele>1121.8</ele>
        <time>2026-05-13T17:19:45Z</time>
      </trkpt>
      <trkpt lat="46.01897" lon="5.74131">
        <ele>1121.8</ele>
        <time>2026-05-13T17:19:46Z</time>
      </trkpt>
      <trkpt lat="46.01898" lon="5.7413">
        <ele>1121.8</ele>
        <time>2026-05-13T17:19:47Z</time>
      </trkpt>
      <trkpt lat="46.01899" lon="5.74129">
        <ele>1121.8</ele>
        <time>2026-05-13T17:19:48Z</time>
      </trkpt>
      <trkpt lat="46.01901" lon="5.74127">
        <ele>1121.8</ele>
        <time>2026-05-13T17:19:49Z</time>
      </trkpt>
      <trkpt lat="46.01903" lon="5.74125">
        <ele>1121.8</ele>
        <time>2026-05-13T17:19:50Z</time>
      </trkpt>
      <trkpt lat="46.01905" lon="5.74124">
        <ele>1121.8</ele>
        <time>2026-05-13T17:19:51Z</time>
      </trkpt>
      <trkpt lat="46.01906" lon="5.74123">
        <ele>1121.8</ele>
        <time>2026-05-13T17:19:52Z</time>
      </trkpt>
      <trkpt lat="46.01908" lon="5.74122">
        <ele>1122</ele>
        <time>2026-05-13T17:19:53Z</time>
      </trkpt>
      <trkpt lat="46.0191" lon="5.7412">
        <ele>1122</ele>
        <time>2026-05-13T17:19:54Z</time>
      </trkpt>
      <trkpt lat="46.0191" lon="5.74119">
        <ele>1122</ele>
        <time>2026-05-13T17:19:55Z</time>
      </trkpt>
      <trkpt lat="46.01912" lon="5.74118">
        <ele>1122.4</ele>
        <time>2026-05-13T17:19:56Z</time>
      </trkpt>
      <trkpt lat="46.01913" lon="5.74116">
        <ele>1122.4</ele>
        <time>2026-05-13T17:19:57Z</time>
      </trkpt>
      <trkpt lat="46.01915" lon="5.74115">
        <ele>1122.4</ele>
        <time>2026-05-13T17:19:58Z</time>
      </trkpt>
      <trkpt lat="46.01916" lon="5.74113">
        <ele>1122.4</ele>
        <time>2026-05-13T17:19:59Z</time>
      </trkpt>
      <trkpt lat="46.01917" lon="5.74112">
        <ele>1122.4</ele>
        <time>2026-05-13T17:20:00Z</time>
      </trkpt>
      <trkpt lat="46.01919" lon="5.7411">
        <ele>1122.4</ele>
        <time>2026-05-13T17:20:01Z</time>
      </trkpt>
      <trkpt lat="46.0192" lon="5.74108">
        <ele>1122.6</ele>
        <time>2026-05-13T17:20:02Z</time>
      </trkpt>
      <trkpt lat="46.01921" lon="5.74106">
        <ele>1122.6</ele>
        <time>2026-05-13T17:20:03Z</time>
      </trkpt>
      <trkpt lat="46.01922" lon="5.74104">
        <ele>1122.6</ele>
        <time>2026-05-13T17:20:04Z</time>
      </trkpt>
      <trkpt lat="46.01923" lon="5.74103">
        <ele>1122.6</ele>
        <time>2026-05-13T17:20:05Z</time>
      </trkpt>
      <trkpt lat="46.01924" lon="5.74102">
        <ele>1122.6</ele>
        <time>2026-05-13T17:20:06Z</time>
      </trkpt>
      <trkpt lat="46.01925" lon="5.74099">
        <ele>1122.6</ele>
        <time>2026-05-13T17:20:07Z</time>
      </trkpt>
      <trkpt lat="46.01927" lon="5.74097">
        <ele>1122.6</ele>
        <time>2026-05-13T17:20:08Z</time>
      </trkpt>
      <trkpt lat="46.01928" lon="5.74094">
        <ele>1122.6</ele>
        <time>2026-05-13T17:20:09Z</time>
      </trkpt>
      <trkpt lat="46.0193" lon="5.74092">
        <ele>1122.4</ele>
        <time>2026-05-13T17:20:10Z</time>
      </trkpt>
      <trkpt lat="46.01931" lon="5.74089">
        <ele>1122.4</ele>
        <time>2026-05-13T17:20:11Z</time>
      </trkpt>
      <trkpt lat="46.01933" lon="5.74087">
        <ele>1122.4</ele>
        <time>2026-05-13T17:20:12Z</time>
      </trkpt>
      <trkpt lat="46.01935" lon="5.74084">
        <ele>1122.6</ele>
        <time>2026-05-13T17:20:13Z</time>
      </trkpt>
      <trkpt lat="46.01936" lon="5.74082">
        <ele>1122.6</ele>
        <time>2026-05-13T17:20:14Z</time>
      </trkpt>
      <trkpt lat="46.01937" lon="5.7408">
        <ele>1122.6</ele>
        <time>2026-05-13T17:20:15Z</time>
      </trkpt>
      <trkpt lat="46.01938" lon="5.74078">
        <ele>1122.6</ele>
        <time>2026-05-13T17:20:16Z</time>
      </trkpt>
      <trkpt lat="46.01939" lon="5.74076">
        <ele>1123</ele>
        <time>2026-05-13T17:20:17Z</time>
      </trkpt>
      <trkpt lat="46.0194" lon="5.74075">
        <ele>1123</ele>
        <time>2026-05-13T17:20:18Z</time>
      </trkpt>
      <trkpt lat="46.01941" lon="5.74074">
        <ele>1123</ele>
        <time>2026-05-13T17:20:19Z</time>
      </trkpt>
      <trkpt lat="46.01942" lon="5.74072">
        <ele>1123</ele>
        <time>2026-05-13T17:20:20Z</time>
      </trkpt>
      <trkpt lat="46.01944" lon="5.74071">
        <ele>1123</ele>
        <time>2026-05-13T17:20:21Z</time>
      </trkpt>
      <trkpt lat="46.01945" lon="5.74069">
        <ele>1123</ele>
        <time>2026-05-13T17:20:22Z</time>
      </trkpt>
      <trkpt lat="46.01947" lon="5.74067">
        <ele>1123</ele>
        <time>2026-05-13T17:20:23Z</time>
      </trkpt>
      <trkpt lat="46.01949" lon="5.74065">
        <ele>1123.4</ele>
        <time>2026-05-13T17:20:24Z</time>
      </trkpt>
      <trkpt lat="46.01951" lon="5.74062">
        <ele>1123.4</ele>
        <time>2026-05-13T17:20:25Z</time>
      </trkpt>
      <trkpt lat="46.01952" lon="5.74061">
        <ele>1123.4</ele>
        <time>2026-05-13T17:20:26Z</time>
      </trkpt>
      <trkpt lat="46.01953" lon="5.74059">
        <ele>1123.6</ele>
        <time>2026-05-13T17:20:27Z</time>
      </trkpt>
      <trkpt lat="46.01954" lon="5.74057">
        <ele>1123.6</ele>
        <time>2026-05-13T17:20:28Z</time>
      </trkpt>
      <trkpt lat="46.01955" lon="5.74054">
        <ele>1123.6</ele>
        <time>2026-05-13T17:20:29Z</time>
      </trkpt>
      <trkpt lat="46.01956" lon="5.74052">
        <ele>1123.8</ele>
        <time>2026-05-13T17:20:30Z</time>
      </trkpt>
      <trkpt lat="46.01957" lon="5.74051">
        <ele>1123.8</ele>
        <time>2026-05-13T17:20:31Z</time>
      </trkpt>
      <trkpt lat="46.01957" lon="5.7405">
        <ele>1123.8</ele>
        <time>2026-05-13T17:20:32Z</time>
      </trkpt>
      <trkpt lat="46.01958" lon="5.74049">
        <ele>1123.8</ele>
        <time>2026-05-13T17:20:33Z</time>
      </trkpt>
      <trkpt lat="46.0196" lon="5.74047">
        <ele>1124.2</ele>
        <time>2026-05-13T17:20:34Z</time>
      </trkpt>
      <trkpt lat="46.01961" lon="5.74045">
        <ele>1124.2</ele>
        <time>2026-05-13T17:20:35Z</time>
      </trkpt>
      <trkpt lat="46.01963" lon="5.74043">
        <ele>1124.2</ele>
        <time>2026-05-13T17:20:36Z</time>
      </trkpt>
      <trkpt lat="46.01964" lon="5.7404">
        <ele>1124.4</ele>
        <time>2026-05-13T17:20:37Z</time>
      </trkpt>
      <trkpt lat="46.01966" lon="5.74038">
        <ele>1124.4</ele>
        <time>2026-05-13T17:20:38Z</time>
      </trkpt>
      <trkpt lat="46.01968" lon="5.74037">
        <ele>1124.4</ele>
        <time>2026-05-13T17:20:39Z</time>
      </trkpt>
      <trkpt lat="46.01971" lon="5.74033">
        <ele>1124.6</ele>
        <time>2026-05-13T17:20:40Z</time>
      </trkpt>
      <trkpt lat="46.01972" lon="5.74031">
        <ele>1124.6</ele>
        <time>2026-05-13T17:20:41Z</time>
      </trkpt>
      <trkpt lat="46.01974" lon="5.74029">
        <ele>1125</ele>
        <time>2026-05-13T17:20:42Z</time>
      </trkpt>
      <trkpt lat="46.01975" lon="5.74027">
        <ele>1125</ele>
        <time>2026-05-13T17:20:43Z</time>
      </trkpt>
      <trkpt lat="46.01977" lon="5.74025">
        <ele>1125</ele>
        <time>2026-05-13T17:20:44Z</time>
      </trkpt>
      <trkpt lat="46.01978" lon="5.74023">
        <ele>1125.2</ele>
        <time>2026-05-13T17:20:45Z</time>
      </trkpt>
      <trkpt lat="46.01979" lon="5.74021">
        <ele>1125.2</ele>
        <time>2026-05-13T17:20:46Z</time>
      </trkpt>
      <trkpt lat="46.0198" lon="5.74019">
        <ele>1125.2</ele>
        <time>2026-05-13T17:20:47Z</time>
      </trkpt>
      <trkpt lat="46.01982" lon="5.74017">
        <ele>1125.2</ele>
        <time>2026-05-13T17:20:48Z</time>
      </trkpt>
      <trkpt lat="46.01983" lon="5.74015">
        <ele>1125.4</ele>
        <time>2026-05-13T17:20:49Z</time>
      </trkpt>
      <trkpt lat="46.01984" lon="5.74013">
        <ele>1125.4</ele>
        <time>2026-05-13T17:20:50Z</time>
      </trkpt>
      <trkpt lat="46.01985" lon="5.74011">
        <ele>1125.8</ele>
        <time>2026-05-13T17:20:51Z</time>
      </trkpt>
      <trkpt lat="46.01986" lon="5.7401">
        <ele>1125.8</ele>
        <time>2026-05-13T17:20:52Z</time>
      </trkpt>
      <trkpt lat="46.01986" lon="5.74009">
        <ele>1125.8</ele>
        <time>2026-05-13T17:20:53Z</time>
      </trkpt>
      <trkpt lat="46.01988" lon="5.74007">
        <ele>1126</ele>
        <time>2026-05-13T17:20:54Z</time>
      </trkpt>
      <trkpt lat="46.0199" lon="5.74006">
        <ele>1126</ele>
        <time>2026-05-13T17:20:55Z</time>
      </trkpt>
      <trkpt lat="46.01992" lon="5.74004">
        <ele>1126.4</ele>
        <time>2026-05-13T17:20:56Z</time>
      </trkpt>
      <trkpt lat="46.01994" lon="5.74003">
        <ele>1126.4</ele>
        <time>2026-05-13T17:20:57Z</time>
      </trkpt>
      <trkpt lat="46.01996" lon="5.74002">
        <ele>1126.6</ele>
        <time>2026-05-13T17:20:58Z</time>
      </trkpt>
      <trkpt lat="46.01998" lon="5.74001">
        <ele>1126.6</ele>
        <time>2026-05-13T17:20:59Z</time>
      </trkpt>
      <trkpt lat="46.01999" lon="5.73999">
        <ele>1126.6</ele>
        <time>2026-05-13T17:21:00Z</time>
      </trkpt>
      <trkpt lat="46.02001" lon="5.73997">
        <ele>1126.6</ele>
        <time>2026-05-13T17:21:01Z</time>
      </trkpt>
      <trkpt lat="46.02002" lon="5.73995">
        <ele>1126.6</ele>
        <time>2026-05-13T17:21:02Z</time>
      </trkpt>
      <trkpt lat="46.02004" lon="5.73994">
        <ele>1127.2</ele>
        <time>2026-05-13T17:21:03Z</time>
      </trkpt>
      <trkpt lat="46.02005" lon="5.73992">
        <ele>1127.2</ele>
        <time>2026-05-13T17:21:04Z</time>
      </trkpt>
      <trkpt lat="46.02006" lon="5.7399">
        <ele>1127.2</ele>
        <time>2026-05-13T17:21:05Z</time>
      </trkpt>
      <trkpt lat="46.02008" lon="5.73988">
        <ele>1127.2</ele>
        <time>2026-05-13T17:21:06Z</time>
      </trkpt>
      <trkpt lat="46.0201" lon="5.73987">
        <ele>1127.2</ele>
        <time>2026-05-13T17:21:07Z</time>
      </trkpt>
      <trkpt lat="46.02011" lon="5.73985">
        <ele>1127.2</ele>
        <time>2026-05-13T17:21:08Z</time>
      </trkpt>
      <trkpt lat="46.02013" lon="5.73984">
        <ele>1127.4</ele>
        <time>2026-05-13T17:21:09Z</time>
      </trkpt>
      <trkpt lat="46.02016" lon="5.73982">
        <ele>1127.4</ele>
        <time>2026-05-13T17:21:10Z</time>
      </trkpt>
      <trkpt lat="46.02018" lon="5.73979">
        <ele>1127.4</ele>
        <time>2026-05-13T17:21:11Z</time>
      </trkpt>
      <trkpt lat="46.0202" lon="5.73978">
        <ele>1127.4</ele>
        <time>2026-05-13T17:21:12Z</time>
      </trkpt>
      <trkpt lat="46.02022" lon="5.73975">
        <ele>1127.6</ele>
        <time>2026-05-13T17:21:13Z</time>
      </trkpt>
      <trkpt lat="46.02024" lon="5.73973">
        <ele>1127.6</ele>
        <time>2026-05-13T17:21:14Z</time>
      </trkpt>
      <trkpt lat="46.02025" lon="5.73971">
        <ele>1127.8</ele>
        <time>2026-05-13T17:21:15Z</time>
      </trkpt>
      <trkpt lat="46.02027" lon="5.73969">
        <ele>1127.8</ele>
        <time>2026-05-13T17:21:16Z</time>
      </trkpt>
      <trkpt lat="46.02029" lon="5.73966">
        <ele>1127.8</ele>
        <time>2026-05-13T17:21:17Z</time>
      </trkpt>
      <trkpt lat="46.0203" lon="5.73963">
        <ele>1128.2</ele>
        <time>2026-05-13T17:21:18Z</time>
      </trkpt>
      <trkpt lat="46.02031" lon="5.73961">
        <ele>1128.2</ele>
        <time>2026-05-13T17:21:19Z</time>
      </trkpt>
      <trkpt lat="46.02032" lon="5.73958">
        <ele>1128.6</ele>
        <time>2026-05-13T17:21:20Z</time>
      </trkpt>
      <trkpt lat="46.02032" lon="5.73956">
        <ele>1128.8</ele>
        <time>2026-05-13T17:21:21Z</time>
      </trkpt>
      <trkpt lat="46.02033" lon="5.73954">
        <ele>1128.4</ele>
        <time>2026-05-13T17:21:22Z</time>
      </trkpt>
      <trkpt lat="46.02033" lon="5.73954">
        <ele>1128.4</ele>
        <time>2026-05-13T17:21:23Z</time>
      </trkpt>
      <trkpt lat="46.02033" lon="5.73954">
        <ele>1128.8</ele>
        <time>2026-05-13T17:21:24Z</time>
      </trkpt>
      <trkpt lat="46.02037" lon="5.73945">
        <ele>1129.2</ele>
        <time>2026-05-13T17:21:25Z</time>
      </trkpt>
      <trkpt lat="46.02038" lon="5.73943">
        <ele>1129</ele>
        <time>2026-05-13T17:21:26Z</time>
      </trkpt>
      <trkpt lat="46.02038" lon="5.73943">
        <ele>1129</ele>
        <time>2026-05-13T17:21:27Z</time>
      </trkpt>
      <trkpt lat="46.02039" lon="5.73941">
        <ele>1129</ele>
        <time>2026-05-13T17:21:28Z</time>
      </trkpt>
      <trkpt lat="46.0204" lon="5.73938">
        <ele>1129</ele>
        <time>2026-05-13T17:21:29Z</time>
      </trkpt>
      <trkpt lat="46.02041" lon="5.73936">
        <ele>1129</ele>
        <time>2026-05-13T17:21:30Z</time>
      </trkpt>
      <trkpt lat="46.02042" lon="5.73934">
        <ele>1129</ele>
        <time>2026-05-13T17:21:31Z</time>
      </trkpt>
      <trkpt lat="46.02044" lon="5.73931">
        <ele>1129</ele>
        <time>2026-05-13T17:21:32Z</time>
      </trkpt>
      <trkpt lat="46.02045" lon="5.73928">
        <ele>1129</ele>
        <time>2026-05-13T17:21:33Z</time>
      </trkpt>
      <trkpt lat="46.02046" lon="5.73925">
        <ele>1129.4</ele>
        <time>2026-05-13T17:21:34Z</time>
      </trkpt>
      <trkpt lat="46.02046" lon="5.73923">
        <ele>1129.4</ele>
        <time>2026-05-13T17:21:35Z</time>
      </trkpt>
      <trkpt lat="46.02047" lon="5.7392">
        <ele>1129.4</ele>
        <time>2026-05-13T17:21:36Z</time>
      </trkpt>
      <trkpt lat="46.02047" lon="5.73917">
        <ele>1129.4</ele>
        <time>2026-05-13T17:21:37Z</time>
      </trkpt>
      <trkpt lat="46.02046" lon="5.73914">
        <ele>1129.4</ele>
        <time>2026-05-13T17:21:38Z</time>
      </trkpt>
      <trkpt lat="46.02046" lon="5.73912">
        <ele>1129.4</ele>
        <time>2026-05-13T17:21:39Z</time>
      </trkpt>
      <trkpt lat="46.02047" lon="5.73909">
        <ele>1129.4</ele>
        <time>2026-05-13T17:21:40Z</time>
      </trkpt>
      <trkpt lat="46.02049" lon="5.73907">
        <ele>1129.4</ele>
        <time>2026-05-13T17:21:41Z</time>
      </trkpt>
      <trkpt lat="46.02051" lon="5.73906">
        <ele>1129.4</ele>
        <time>2026-05-13T17:21:42Z</time>
      </trkpt>
      <trkpt lat="46.02054" lon="5.73905">
        <ele>1129.4</ele>
        <time>2026-05-13T17:21:43Z</time>
      </trkpt>
      <trkpt lat="46.02056" lon="5.73905">
        <ele>1129.6</ele>
        <time>2026-05-13T17:21:44Z</time>
      </trkpt>
      <trkpt lat="46.02059" lon="5.73905">
        <ele>1129.6</ele>
        <time>2026-05-13T17:21:45Z</time>
      </trkpt>
      <trkpt lat="46.02061" lon="5.73902">
        <ele>1130</ele>
        <time>2026-05-13T17:21:46Z</time>
      </trkpt>
      <trkpt lat="46.02062" lon="5.73898">
        <ele>1130</ele>
        <time>2026-05-13T17:21:47Z</time>
      </trkpt>
      <trkpt lat="46.02063" lon="5.73895">
        <ele>1130</ele>
        <time>2026-05-13T17:21:48Z</time>
      </trkpt>
      <trkpt lat="46.02063" lon="5.73892">
        <ele>1130</ele>
        <time>2026-05-13T17:21:49Z</time>
      </trkpt>
      <trkpt lat="46.02063" lon="5.73887">
        <ele>1130</ele>
        <time>2026-05-13T17:21:50Z</time>
      </trkpt>
      <trkpt lat="46.02062" lon="5.73881">
        <ele>1130</ele>
        <time>2026-05-13T17:21:51Z</time>
      </trkpt>
      <trkpt lat="46.02061" lon="5.73876">
        <ele>1130</ele>
        <time>2026-05-13T17:21:52Z</time>
      </trkpt>
      <trkpt lat="46.0206" lon="5.73871">
        <ele>1130</ele>
        <time>2026-05-13T17:21:53Z</time>
      </trkpt>
      <trkpt lat="46.0206" lon="5.73866">
        <ele>1130</ele>
        <time>2026-05-13T17:21:54Z</time>
      </trkpt>
      <trkpt lat="46.0206" lon="5.73861">
        <ele>1130.4</ele>
        <time>2026-05-13T17:21:55Z</time>
      </trkpt>
      <trkpt lat="46.02059" lon="5.73857">
        <ele>1130.4</ele>
        <time>2026-05-13T17:21:56Z</time>
      </trkpt>
      <trkpt lat="46.02059" lon="5.73852">
        <ele>1130.4</ele>
        <time>2026-05-13T17:21:57Z</time>
      </trkpt>
      <trkpt lat="46.02058" lon="5.73847">
        <ele>1130.8</ele>
        <time>2026-05-13T17:21:58Z</time>
      </trkpt>
      <trkpt lat="46.02057" lon="5.73844">
        <ele>1130.8</ele>
        <time>2026-05-13T17:21:59Z</time>
      </trkpt>
      <trkpt lat="46.02057" lon="5.7384">
        <ele>1131.2</ele>
        <time>2026-05-13T17:22:00Z</time>
      </trkpt>
      <trkpt lat="46.02056" lon="5.73837">
        <ele>1131.2</ele>
        <time>2026-05-13T17:22:01Z</time>
      </trkpt>
      <trkpt lat="46.02057" lon="5.73834">
        <ele>1131.2</ele>
        <time>2026-05-13T17:22:02Z</time>
      </trkpt>
      <trkpt lat="46.02057" lon="5.7383">
        <ele>1131.2</ele>
        <time>2026-05-13T17:22:03Z</time>
      </trkpt>
      <trkpt lat="46.02057" lon="5.73826">
        <ele>1131.4</ele>
        <time>2026-05-13T17:22:04Z</time>
      </trkpt>
      <trkpt lat="46.02058" lon="5.73824">
        <ele>1131.4</ele>
        <time>2026-05-13T17:22:05Z</time>
      </trkpt>
      <trkpt lat="46.02058" lon="5.7382">
        <ele>1131.4</ele>
        <time>2026-05-13T17:22:06Z</time>
      </trkpt>
      <trkpt lat="46.02059" lon="5.73817">
        <ele>1132</ele>
        <time>2026-05-13T17:22:07Z</time>
      </trkpt>
      <trkpt lat="46.0206" lon="5.73814">
        <ele>1132.2</ele>
        <time>2026-05-13T17:22:08Z</time>
      </trkpt>
      <trkpt lat="46.0206" lon="5.73811">
        <ele>1132.4</ele>
        <time>2026-05-13T17:22:09Z</time>
      </trkpt>
      <trkpt lat="46.02061" lon="5.73808">
        <ele>1132.6</ele>
        <time>2026-05-13T17:22:10Z</time>
      </trkpt>
      <trkpt lat="46.02061" lon="5.73806">
        <ele>1132.6</ele>
        <time>2026-05-13T17:22:11Z</time>
      </trkpt>
      <trkpt lat="46.02061" lon="5.73804">
        <ele>1132.6</ele>
        <time>2026-05-13T17:22:12Z</time>
      </trkpt>
      <trkpt lat="46.02061" lon="5.73802">
        <ele>1132.6</ele>
        <time>2026-05-13T17:22:13Z</time>
      </trkpt>
      <trkpt lat="46.0206" lon="5.738">
        <ele>1133.2</ele>
        <time>2026-05-13T17:22:14Z</time>
      </trkpt>
      <trkpt lat="46.0206" lon="5.73797">
        <ele>1133.4</ele>
        <time>2026-05-13T17:22:15Z</time>
      </trkpt>
      <trkpt lat="46.02061" lon="5.73796">
        <ele>1133.6</ele>
        <time>2026-05-13T17:22:16Z</time>
      </trkpt>
      <trkpt lat="46.02061" lon="5.73794">
        <ele>1133.6</ele>
        <time>2026-05-13T17:22:17Z</time>
      </trkpt>
      <trkpt lat="46.02061" lon="5.73791">
        <ele>1133.6</ele>
        <time>2026-05-13T17:22:18Z</time>
      </trkpt>
      <trkpt lat="46.02062" lon="5.73789">
        <ele>1133.8</ele>
        <time>2026-05-13T17:22:19Z</time>
      </trkpt>
      <trkpt lat="46.02063" lon="5.73787">
        <ele>1133.8</ele>
        <time>2026-05-13T17:22:20Z</time>
      </trkpt>
      <trkpt lat="46.02064" lon="5.73785">
        <ele>1134.2</ele>
        <time>2026-05-13T17:22:21Z</time>
      </trkpt>
      <trkpt lat="46.02066" lon="5.73783">
        <ele>1134.2</ele>
        <time>2026-05-13T17:22:22Z</time>
      </trkpt>
      <trkpt lat="46.02067" lon="5.73781">
        <ele>1134.4</ele>
        <time>2026-05-13T17:22:23Z</time>
      </trkpt>
      <trkpt lat="46.02068" lon="5.7378">
        <ele>1134.4</ele>
        <time>2026-05-13T17:22:24Z</time>
      </trkpt>
      <trkpt lat="46.02069" lon="5.73778">
        <ele>1134.4</ele>
        <time>2026-05-13T17:22:25Z</time>
      </trkpt>
      <trkpt lat="46.0207" lon="5.73776">
        <ele>1134.8</ele>
        <time>2026-05-13T17:22:26Z</time>
      </trkpt>
      <trkpt lat="46.02071" lon="5.73774">
        <ele>1135.2</ele>
        <time>2026-05-13T17:22:27Z</time>
      </trkpt>
      <trkpt lat="46.02072" lon="5.73772">
        <ele>1135.2</ele>
        <time>2026-05-13T17:22:28Z</time>
      </trkpt>
      <trkpt lat="46.02073" lon="5.7377">
        <ele>1135.2</ele>
        <time>2026-05-13T17:22:29Z</time>
      </trkpt>
      <trkpt lat="46.02073" lon="5.73768">
        <ele>1135.4</ele>
        <time>2026-05-13T17:22:30Z</time>
      </trkpt>
      <trkpt lat="46.02074" lon="5.73766">
        <ele>1135.4</ele>
        <time>2026-05-13T17:22:31Z</time>
      </trkpt>
      <trkpt lat="46.02075" lon="5.73764">
        <ele>1135.4</ele>
        <time>2026-05-13T17:22:32Z</time>
      </trkpt>
      <trkpt lat="46.02076" lon="5.73762">
        <ele>1135.4</ele>
        <time>2026-05-13T17:22:33Z</time>
      </trkpt>
      <trkpt lat="46.02077" lon="5.73761">
        <ele>1135.8</ele>
        <time>2026-05-13T17:22:34Z</time>
      </trkpt>
      <trkpt lat="46.02078" lon="5.73759">
        <ele>1135.8</ele>
        <time>2026-05-13T17:22:35Z</time>
      </trkpt>
      <trkpt lat="46.02079" lon="5.73758">
        <ele>1136</ele>
        <time>2026-05-13T17:22:36Z</time>
      </trkpt>
      <trkpt lat="46.0208" lon="5.73757">
        <ele>1136</ele>
        <time>2026-05-13T17:22:37Z</time>
      </trkpt>
      <trkpt lat="46.02081" lon="5.73755">
        <ele>1136</ele>
        <time>2026-05-13T17:22:38Z</time>
      </trkpt>
      <trkpt lat="46.02082" lon="5.73754">
        <ele>1136</ele>
        <time>2026-05-13T17:22:39Z</time>
      </trkpt>
      <trkpt lat="46.02083" lon="5.73752">
        <ele>1136.2</ele>
        <time>2026-05-13T17:22:40Z</time>
      </trkpt>
      <trkpt lat="46.02084" lon="5.73751">
        <ele>1136.2</ele>
        <time>2026-05-13T17:22:41Z</time>
      </trkpt>
      <trkpt lat="46.02085" lon="5.73749">
        <ele>1136.6</ele>
        <time>2026-05-13T17:22:42Z</time>
      </trkpt>
      <trkpt lat="46.02085" lon="5.73747">
        <ele>1136.8</ele>
        <time>2026-05-13T17:22:43Z</time>
      </trkpt>
      <trkpt lat="46.02086" lon="5.73745">
        <ele>1136.8</ele>
        <time>2026-05-13T17:22:44Z</time>
      </trkpt>
      <trkpt lat="46.02086" lon="5.73743">
        <ele>1137.2</ele>
        <time>2026-05-13T17:22:45Z</time>
      </trkpt>
      <trkpt lat="46.02086" lon="5.73741">
        <ele>1137.6</ele>
        <time>2026-05-13T17:22:46Z</time>
      </trkpt>
      <trkpt lat="46.02087" lon="5.73739">
        <ele>1137.6</ele>
        <time>2026-05-13T17:22:47Z</time>
      </trkpt>
      <trkpt lat="46.02087" lon="5.73737">
        <ele>1137.8</ele>
        <time>2026-05-13T17:22:48Z</time>
      </trkpt>
      <trkpt lat="46.02088" lon="5.73736">
        <ele>1137.8</ele>
        <time>2026-05-13T17:22:49Z</time>
      </trkpt>
      <trkpt lat="46.02088" lon="5.73734">
        <ele>1137.8</ele>
        <time>2026-05-13T17:22:50Z</time>
      </trkpt>
      <trkpt lat="46.02089" lon="5.73732">
        <ele>1138.2</ele>
        <time>2026-05-13T17:22:51Z</time>
      </trkpt>
      <trkpt lat="46.02089" lon="5.7373">
        <ele>1138.2</ele>
        <time>2026-05-13T17:22:52Z</time>
      </trkpt>
      <trkpt lat="46.02089" lon="5.73728">
        <ele>1138.4</ele>
        <time>2026-05-13T17:22:53Z</time>
      </trkpt>
      <trkpt lat="46.0209" lon="5.73726">
        <ele>1138.4</ele>
        <time>2026-05-13T17:22:54Z</time>
      </trkpt>
      <trkpt lat="46.0209" lon="5.73724">
        <ele>1138.4</ele>
        <time>2026-05-13T17:22:55Z</time>
      </trkpt>
      <trkpt lat="46.02091" lon="5.73722">
        <ele>1138.4</ele>
        <time>2026-05-13T17:22:56Z</time>
      </trkpt>
      <trkpt lat="46.02091" lon="5.73721">
        <ele>1138.4</ele>
        <time>2026-05-13T17:22:57Z</time>
      </trkpt>
      <trkpt lat="46.02092" lon="5.73719">
        <ele>1138.4</ele>
        <time>2026-05-13T17:22:58Z</time>
      </trkpt>
      <trkpt lat="46.02093" lon="5.73717">
        <ele>1138.6</ele>
        <time>2026-05-13T17:22:59Z</time>
      </trkpt>
      <trkpt lat="46.02093" lon="5.73716">
        <ele>1139</ele>
        <time>2026-05-13T17:23:00Z</time>
      </trkpt>
      <trkpt lat="46.02094" lon="5.73714">
        <ele>1139.2</ele>
        <time>2026-05-13T17:23:01Z</time>
      </trkpt>
      <trkpt lat="46.02094" lon="5.73712">
        <ele>1139.6</ele>
        <time>2026-05-13T17:23:02Z</time>
      </trkpt>
      <trkpt lat="46.02094" lon="5.7371">
        <ele>1140</ele>
        <time>2026-05-13T17:23:03Z</time>
      </trkpt>
      <trkpt lat="46.02095" lon="5.73708">
        <ele>1140</ele>
        <time>2026-05-13T17:23:04Z</time>
      </trkpt>
      <trkpt lat="46.02095" lon="5.73706">
        <ele>1140.2</ele>
        <time>2026-05-13T17:23:05Z</time>
      </trkpt>
      <trkpt lat="46.02096" lon="5.73704">
        <ele>1140.2</ele>
        <time>2026-05-13T17:23:06Z</time>
      </trkpt>
      <trkpt lat="46.02096" lon="5.73702">
        <ele>1140.6</ele>
        <time>2026-05-13T17:23:07Z</time>
      </trkpt>
      <trkpt lat="46.02098" lon="5.73699">
        <ele>1140.6</ele>
        <time>2026-05-13T17:23:08Z</time>
      </trkpt>
      <trkpt lat="46.02099" lon="5.73697">
        <ele>1140.8</ele>
        <time>2026-05-13T17:23:09Z</time>
      </trkpt>
      <trkpt lat="46.02099" lon="5.73696">
        <ele>1140.8</ele>
        <time>2026-05-13T17:23:10Z</time>
      </trkpt>
      <trkpt lat="46.021" lon="5.73694">
        <ele>1141</ele>
        <time>2026-05-13T17:23:11Z</time>
      </trkpt>
      <trkpt lat="46.02101" lon="5.73693">
        <ele>1141.2</ele>
        <time>2026-05-13T17:23:12Z</time>
      </trkpt>
      <trkpt lat="46.02102" lon="5.73691">
        <ele>1141.2</ele>
        <time>2026-05-13T17:23:13Z</time>
      </trkpt>
      <trkpt lat="46.02103" lon="5.7369">
        <ele>1141.2</ele>
        <time>2026-05-13T17:23:14Z</time>
      </trkpt>
      <trkpt lat="46.02104" lon="5.73688">
        <ele>1141.6</ele>
        <time>2026-05-13T17:23:15Z</time>
      </trkpt>
      <trkpt lat="46.02104" lon="5.73686">
        <ele>1141.8</ele>
        <time>2026-05-13T17:23:16Z</time>
      </trkpt>
      <trkpt lat="46.02105" lon="5.73685">
        <ele>1142.2</ele>
        <time>2026-05-13T17:23:17Z</time>
      </trkpt>
      <trkpt lat="46.02105" lon="5.73684">
        <ele>1142.4</ele>
        <time>2026-05-13T17:23:18Z</time>
      </trkpt>
      <trkpt lat="46.02105" lon="5.73682">
        <ele>1142.6</ele>
        <time>2026-05-13T17:23:19Z</time>
      </trkpt>
      <trkpt lat="46.02105" lon="5.73681">
        <ele>1142.6</ele>
        <time>2026-05-13T17:23:20Z</time>
      </trkpt>
      <trkpt lat="46.02106" lon="5.7368">
        <ele>1143</ele>
        <time>2026-05-13T17:23:21Z</time>
      </trkpt>
      <trkpt lat="46.02106" lon="5.73679">
        <ele>1143.2</ele>
        <time>2026-05-13T17:23:22Z</time>
      </trkpt>
      <trkpt lat="46.02107" lon="5.73677">
        <ele>1143.2</ele>
        <time>2026-05-13T17:23:23Z</time>
      </trkpt>
      <trkpt lat="46.02107" lon="5.73675">
        <ele>1143.6</ele>
        <time>2026-05-13T17:23:24Z</time>
      </trkpt>
      <trkpt lat="46.02108" lon="5.73673">
        <ele>1143.6</ele>
        <time>2026-05-13T17:23:25Z</time>
      </trkpt>
      <trkpt lat="46.02109" lon="5.73671">
        <ele>1143.6</ele>
        <time>2026-05-13T17:23:26Z</time>
      </trkpt>
      <trkpt lat="46.0211" lon="5.73669">
        <ele>1144</ele>
        <time>2026-05-13T17:23:27Z</time>
      </trkpt>
      <trkpt lat="46.02111" lon="5.73668">
        <ele>1144</ele>
        <time>2026-05-13T17:23:28Z</time>
      </trkpt>
      <trkpt lat="46.02111" lon="5.73667">
        <ele>1144</ele>
        <time>2026-05-13T17:23:29Z</time>
      </trkpt>
      <trkpt lat="46.02112" lon="5.73665">
        <ele>1144</ele>
        <time>2026-05-13T17:23:30Z</time>
      </trkpt>
      <trkpt lat="46.02113" lon="5.73664">
        <ele>1144.4</ele>
        <time>2026-05-13T17:23:31Z</time>
      </trkpt>
      <trkpt lat="46.02114" lon="5.73662">
        <ele>1144.4</ele>
        <time>2026-05-13T17:23:32Z</time>
      </trkpt>
      <trkpt lat="46.02115" lon="5.73661">
        <ele>1144.6</ele>
        <time>2026-05-13T17:23:33Z</time>
      </trkpt>
      <trkpt lat="46.02116" lon="5.73659">
        <ele>1144.6</ele>
        <time>2026-05-13T17:23:34Z</time>
      </trkpt>
      <trkpt lat="46.02117" lon="5.73658">
        <ele>1144.6</ele>
        <time>2026-05-13T17:23:35Z</time>
      </trkpt>
      <trkpt lat="46.02117" lon="5.73657">
        <ele>1144.8</ele>
        <time>2026-05-13T17:23:36Z</time>
      </trkpt>
      <trkpt lat="46.02118" lon="5.73656">
        <ele>1144.8</ele>
        <time>2026-05-13T17:23:37Z</time>
      </trkpt>
      <trkpt lat="46.02118" lon="5.73655">
        <ele>1144.8</ele>
        <time>2026-05-13T17:23:38Z</time>
      </trkpt>
      <trkpt lat="46.02118" lon="5.73653">
        <ele>1144.8</ele>
        <time>2026-05-13T17:23:39Z</time>
      </trkpt>
      <trkpt lat="46.02119" lon="5.73652">
        <ele>1144.8</ele>
        <time>2026-05-13T17:23:40Z</time>
      </trkpt>
      <trkpt lat="46.02119" lon="5.73651">
        <ele>1145.2</ele>
        <time>2026-05-13T17:23:41Z</time>
      </trkpt>
      <trkpt lat="46.02119" lon="5.7365">
        <ele>1145.2</ele>
        <time>2026-05-13T17:23:42Z</time>
      </trkpt>
      <trkpt lat="46.0212" lon="5.73648">
        <ele>1145.4</ele>
        <time>2026-05-13T17:23:43Z</time>
      </trkpt>
      <trkpt lat="46.02121" lon="5.73647">
        <ele>1145.4</ele>
        <time>2026-05-13T17:23:44Z</time>
      </trkpt>
      <trkpt lat="46.02123" lon="5.73646">
        <ele>1145.8</ele>
        <time>2026-05-13T17:23:45Z</time>
      </trkpt>
      <trkpt lat="46.02124" lon="5.73645">
        <ele>1145.8</ele>
        <time>2026-05-13T17:23:46Z</time>
      </trkpt>
      <trkpt lat="46.02125" lon="5.73643">
        <ele>1146.2</ele>
        <time>2026-05-13T17:23:47Z</time>
      </trkpt>
      <trkpt lat="46.02126" lon="5.73641">
        <ele>1146.2</ele>
        <time>2026-05-13T17:23:48Z</time>
      </trkpt>
      <trkpt lat="46.02126" lon="5.73639">
        <ele>1146.2</ele>
        <time>2026-05-13T17:23:49Z</time>
      </trkpt>
      <trkpt lat="46.02127" lon="5.73637">
        <ele>1146.4</ele>
        <time>2026-05-13T17:23:50Z</time>
      </trkpt>
      <trkpt lat="46.02127" lon="5.73635">
        <ele>1146.4</ele>
        <time>2026-05-13T17:23:51Z</time>
      </trkpt>
      <trkpt lat="46.02128" lon="5.73633">
        <ele>1146.4</ele>
        <time>2026-05-13T17:23:52Z</time>
      </trkpt>
      <trkpt lat="46.02128" lon="5.73631">
        <ele>1146.8</ele>
        <time>2026-05-13T17:23:53Z</time>
      </trkpt>
      <trkpt lat="46.02129" lon="5.73629">
        <ele>1146.8</ele>
        <time>2026-05-13T17:23:54Z</time>
      </trkpt>
      <trkpt lat="46.02129" lon="5.73627">
        <ele>1146.8</ele>
        <time>2026-05-13T17:23:55Z</time>
      </trkpt>
      <trkpt lat="46.0213" lon="5.73625">
        <ele>1147</ele>
        <time>2026-05-13T17:23:56Z</time>
      </trkpt>
      <trkpt lat="46.02132" lon="5.73623">
        <ele>1147</ele>
        <time>2026-05-13T17:23:57Z</time>
      </trkpt>
      <trkpt lat="46.02133" lon="5.73622">
        <ele>1147</ele>
        <time>2026-05-13T17:23:58Z</time>
      </trkpt>
      <trkpt lat="46.02133" lon="5.73621">
        <ele>1147.4</ele>
        <time>2026-05-13T17:23:59Z</time>
      </trkpt>
      <trkpt lat="46.02134" lon="5.73619">
        <ele>1147.6</ele>
        <time>2026-05-13T17:24:00Z</time>
      </trkpt>
      <trkpt lat="46.02134" lon="5.73617">
        <ele>1147.6</ele>
        <time>2026-05-13T17:24:01Z</time>
      </trkpt>
      <trkpt lat="46.02135" lon="5.73615">
        <ele>1147.6</ele>
        <time>2026-05-13T17:24:02Z</time>
      </trkpt>
      <trkpt lat="46.02136" lon="5.73613">
        <ele>1147.8</ele>
        <time>2026-05-13T17:24:03Z</time>
      </trkpt>
      <trkpt lat="46.02136" lon="5.73611">
        <ele>1147.8</ele>
        <time>2026-05-13T17:24:04Z</time>
      </trkpt>
      <trkpt lat="46.02137" lon="5.73609">
        <ele>1147.8</ele>
        <time>2026-05-13T17:24:05Z</time>
      </trkpt>
      <trkpt lat="46.02138" lon="5.73607">
        <ele>1148.2</ele>
        <time>2026-05-13T17:24:06Z</time>
      </trkpt>
      <trkpt lat="46.02138" lon="5.73605">
        <ele>1148.4</ele>
        <time>2026-05-13T17:24:07Z</time>
      </trkpt>
      <trkpt lat="46.02138" lon="5.73602">
        <ele>1148.4</ele>
        <time>2026-05-13T17:24:08Z</time>
      </trkpt>
      <trkpt lat="46.02138" lon="5.73601">
        <ele>1148.4</ele>
        <time>2026-05-13T17:24:09Z</time>
      </trkpt>
      <trkpt lat="46.02138" lon="5.73599">
        <ele>1148.4</ele>
        <time>2026-05-13T17:24:10Z</time>
      </trkpt>
      <trkpt lat="46.02138" lon="5.73597">
        <ele>1148.8</ele>
        <time>2026-05-13T17:24:11Z</time>
      </trkpt>
      <trkpt lat="46.02138" lon="5.73595">
        <ele>1149</ele>
        <time>2026-05-13T17:24:12Z</time>
      </trkpt>
      <trkpt lat="46.02138" lon="5.73593">
        <ele>1149</ele>
        <time>2026-05-13T17:24:13Z</time>
      </trkpt>
      <trkpt lat="46.02139" lon="5.73591">
        <ele>1149</ele>
        <time>2026-05-13T17:24:14Z</time>
      </trkpt>
      <trkpt lat="46.02139" lon="5.73588">
        <ele>1149.6</ele>
        <time>2026-05-13T17:24:15Z</time>
      </trkpt>
      <trkpt lat="46.02138" lon="5.73585">
        <ele>1149.6</ele>
        <time>2026-05-13T17:24:16Z</time>
      </trkpt>
      <trkpt lat="46.02138" lon="5.73582">
        <ele>1149.8</ele>
        <time>2026-05-13T17:24:17Z</time>
      </trkpt>
      <trkpt lat="46.02138" lon="5.7358">
        <ele>1149.8</ele>
        <time>2026-05-13T17:24:18Z</time>
      </trkpt>
      <trkpt lat="46.02139" lon="5.73577">
        <ele>1149.8</ele>
        <time>2026-05-13T17:24:19Z</time>
      </trkpt>
      <trkpt lat="46.0214" lon="5.73573">
        <ele>1149.8</ele>
        <time>2026-05-13T17:24:20Z</time>
      </trkpt>
      <trkpt lat="46.02141" lon="5.7357">
        <ele>1149.8</ele>
        <time>2026-05-13T17:24:21Z</time>
      </trkpt>
      <trkpt lat="46.02141" lon="5.73567">
        <ele>1149.8</ele>
        <time>2026-05-13T17:24:22Z</time>
      </trkpt>
      <trkpt lat="46.02141" lon="5.73564">
        <ele>1150.2</ele>
        <time>2026-05-13T17:24:23Z</time>
      </trkpt>
      <trkpt lat="46.02142" lon="5.73561">
        <ele>1149.8</ele>
        <time>2026-05-13T17:24:24Z</time>
      </trkpt>
      <trkpt lat="46.02143" lon="5.73557">
        <ele>1149.8</ele>
        <time>2026-05-13T17:24:25Z</time>
      </trkpt>
      <trkpt lat="46.02144" lon="5.73554">
        <ele>1149.8</ele>
        <time>2026-05-13T17:24:26Z</time>
      </trkpt>
      <trkpt lat="46.02144" lon="5.7355">
        <ele>1150.2</ele>
        <time>2026-05-13T17:24:27Z</time>
      </trkpt>
      <trkpt lat="46.02145" lon="5.73545">
        <ele>1150.2</ele>
        <time>2026-05-13T17:24:28Z</time>
      </trkpt>
      <trkpt lat="46.02147" lon="5.73541">
        <ele>1150.2</ele>
        <time>2026-05-13T17:24:29Z</time>
      </trkpt>
      <trkpt lat="46.02149" lon="5.73538">
        <ele>1150.2</ele>
        <time>2026-05-13T17:24:30Z</time>
      </trkpt>
      <trkpt lat="46.02151" lon="5.73536">
        <ele>1150.6</ele>
        <time>2026-05-13T17:24:31Z</time>
      </trkpt>
      <trkpt lat="46.02153" lon="5.73535">
        <ele>1150.6</ele>
        <time>2026-05-13T17:24:32Z</time>
      </trkpt>
      <trkpt lat="46.02155" lon="5.73532">
        <ele>1150.6</ele>
        <time>2026-05-13T17:24:33Z</time>
      </trkpt>
      <trkpt lat="46.02156" lon="5.73529">
        <ele>1150.6</ele>
        <time>2026-05-13T17:24:34Z</time>
      </trkpt>
      <trkpt lat="46.02157" lon="5.73527">
        <ele>1150.6</ele>
        <time>2026-05-13T17:24:35Z</time>
      </trkpt>
      <trkpt lat="46.02157" lon="5.73525">
        <ele>1150.6</ele>
        <time>2026-05-13T17:24:36Z</time>
      </trkpt>
      <trkpt lat="46.02157" lon="5.73524">
        <ele>1150.6</ele>
        <time>2026-05-13T17:24:37Z</time>
      </trkpt>
      <trkpt lat="46.02156" lon="5.73521">
        <ele>1150.8</ele>
        <time>2026-05-13T17:24:38Z</time>
      </trkpt>
      <trkpt lat="46.02156" lon="5.73518">
        <ele>1150.8</ele>
        <time>2026-05-13T17:24:39Z</time>
      </trkpt>
      <trkpt lat="46.02156" lon="5.73516">
        <ele>1151.2</ele>
        <time>2026-05-13T17:24:40Z</time>
      </trkpt>
      <trkpt lat="46.02156" lon="5.73514">
        <ele>1151.2</ele>
        <time>2026-05-13T17:24:41Z</time>
      </trkpt>
      <trkpt lat="46.02156" lon="5.73512">
        <ele>1151.4</ele>
        <time>2026-05-13T17:24:42Z</time>
      </trkpt>
      <trkpt lat="46.02156" lon="5.7351">
        <ele>1151.4</ele>
        <time>2026-05-13T17:24:43Z</time>
      </trkpt>
      <trkpt lat="46.02155" lon="5.73507">
        <ele>1151.4</ele>
        <time>2026-05-13T17:24:44Z</time>
      </trkpt>
      <trkpt lat="46.02155" lon="5.73505">
        <ele>1151.4</ele>
        <time>2026-05-13T17:24:45Z</time>
      </trkpt>
      <trkpt lat="46.02155" lon="5.73503">
        <ele>1151.4</ele>
        <time>2026-05-13T17:24:46Z</time>
      </trkpt>
      <trkpt lat="46.02155" lon="5.73501">
        <ele>1151.4</ele>
        <time>2026-05-13T17:24:47Z</time>
      </trkpt>
      <trkpt lat="46.02155" lon="5.73499">
        <ele>1151.8</ele>
        <time>2026-05-13T17:24:48Z</time>
      </trkpt>
      <trkpt lat="46.02154" lon="5.73497">
        <ele>1151.8</ele>
        <time>2026-05-13T17:24:49Z</time>
      </trkpt>
      <trkpt lat="46.02154" lon="5.73494">
        <ele>1152</ele>
        <time>2026-05-13T17:24:50Z</time>
      </trkpt>
      <trkpt lat="46.02154" lon="5.73494">
        <ele>1152.2</ele>
        <time>2026-05-13T17:24:51Z</time>
      </trkpt>
      <trkpt lat="46.02154" lon="5.73492">
        <ele>1152.2</ele>
        <time>2026-05-13T17:24:52Z</time>
      </trkpt>
      <trkpt lat="46.02154" lon="5.7349">
        <ele>1152.4</ele>
        <time>2026-05-13T17:24:53Z</time>
      </trkpt>
      <trkpt lat="46.02154" lon="5.73488">
        <ele>1152.4</ele>
        <time>2026-05-13T17:24:54Z</time>
      </trkpt>
      <trkpt lat="46.02154" lon="5.73487">
        <ele>1152.4</ele>
        <time>2026-05-13T17:24:55Z</time>
      </trkpt>
      <trkpt lat="46.02154" lon="5.73485">
        <ele>1152.4</ele>
        <time>2026-05-13T17:24:56Z</time>
      </trkpt>
      <trkpt lat="46.02153" lon="5.73482">
        <ele>1153</ele>
        <time>2026-05-13T17:24:57Z</time>
      </trkpt>
      <trkpt lat="46.02152" lon="5.7348">
        <ele>1153.2</ele>
        <time>2026-05-13T17:24:58Z</time>
      </trkpt>
      <trkpt lat="46.02152" lon="5.73478">
        <ele>1153.2</ele>
        <time>2026-05-13T17:24:59Z</time>
      </trkpt>
      <trkpt lat="46.02152" lon="5.73476">
        <ele>1153.2</ele>
        <time>2026-05-13T17:25:00Z</time>
      </trkpt>
      <trkpt lat="46.02152" lon="5.73474">
        <ele>1153.4</ele>
        <time>2026-05-13T17:25:01Z</time>
      </trkpt>
      <trkpt lat="46.02153" lon="5.73471">
        <ele>1153.8</ele>
        <time>2026-05-13T17:25:02Z</time>
      </trkpt>
      <trkpt lat="46.02153" lon="5.73468">
        <ele>1153.8</ele>
        <time>2026-05-13T17:25:03Z</time>
      </trkpt>
      <trkpt lat="46.02153" lon="5.73465">
        <ele>1153.8</ele>
        <time>2026-05-13T17:25:04Z</time>
      </trkpt>
      <trkpt lat="46.02153" lon="5.73462">
        <ele>1154</ele>
        <time>2026-05-13T17:25:05Z</time>
      </trkpt>
      <trkpt lat="46.02152" lon="5.7346">
        <ele>1154</ele>
        <time>2026-05-13T17:25:06Z</time>
      </trkpt>
      <trkpt lat="46.02153" lon="5.73458">
        <ele>1154</ele>
        <time>2026-05-13T17:25:07Z</time>
      </trkpt>
      <trkpt lat="46.02153" lon="5.73456">
        <ele>1154</ele>
        <time>2026-05-13T17:25:08Z</time>
      </trkpt>
      <trkpt lat="46.02154" lon="5.73454">
        <ele>1154.2</ele>
        <time>2026-05-13T17:25:09Z</time>
      </trkpt>
      <trkpt lat="46.02154" lon="5.73452">
        <ele>1154.2</ele>
        <time>2026-05-13T17:25:10Z</time>
      </trkpt>
      <trkpt lat="46.02153" lon="5.73449">
        <ele>1154.6</ele>
        <time>2026-05-13T17:25:11Z</time>
      </trkpt>
      <trkpt lat="46.02153" lon="5.73448">
        <ele>1154.6</ele>
        <time>2026-05-13T17:25:12Z</time>
      </trkpt>
      <trkpt lat="46.02153" lon="5.73445">
        <ele>1155</ele>
        <time>2026-05-13T17:25:13Z</time>
      </trkpt>
      <trkpt lat="46.02153" lon="5.73443">
        <ele>1155</ele>
        <time>2026-05-13T17:25:14Z</time>
      </trkpt>
      <trkpt lat="46.02153" lon="5.73441">
        <ele>1155.2</ele>
        <time>2026-05-13T17:25:15Z</time>
      </trkpt>
      <trkpt lat="46.02154" lon="5.7344">
        <ele>1155.2</ele>
        <time>2026-05-13T17:25:16Z</time>
      </trkpt>
      <trkpt lat="46.02154" lon="5.73438">
        <ele>1155.2</ele>
        <time>2026-05-13T17:25:17Z</time>
      </trkpt>
      <trkpt lat="46.02155" lon="5.73436">
        <ele>1155.4</ele>
        <time>2026-05-13T17:25:18Z</time>
      </trkpt>
      <trkpt lat="46.02155" lon="5.73434">
        <ele>1155.6</ele>
        <time>2026-05-13T17:25:19Z</time>
      </trkpt>
      <trkpt lat="46.02155" lon="5.73432">
        <ele>1155.6</ele>
        <time>2026-05-13T17:25:20Z</time>
      </trkpt>
      <trkpt lat="46.02156" lon="5.7343">
        <ele>1156.2</ele>
        <time>2026-05-13T17:25:21Z</time>
      </trkpt>
      <trkpt lat="46.02157" lon="5.73429">
        <ele>1156.4</ele>
        <time>2026-05-13T17:25:22Z</time>
      </trkpt>
      <trkpt lat="46.02157" lon="5.73428">
        <ele>1156.6</ele>
        <time>2026-05-13T17:25:23Z</time>
      </trkpt>
      <trkpt lat="46.02158" lon="5.73427">
        <ele>1156.6</ele>
        <time>2026-05-13T17:25:24Z</time>
      </trkpt>
      <trkpt lat="46.02158" lon="5.73425">
        <ele>1157</ele>
        <time>2026-05-13T17:25:25Z</time>
      </trkpt>
      <trkpt lat="46.02157" lon="5.73423">
        <ele>1157</ele>
        <time>2026-05-13T17:25:26Z</time>
      </trkpt>
      <trkpt lat="46.02157" lon="5.73422">
        <ele>1157</ele>
        <time>2026-05-13T17:25:27Z</time>
      </trkpt>
      <trkpt lat="46.02157" lon="5.73421">
        <ele>1157.2</ele>
        <time>2026-05-13T17:25:28Z</time>
      </trkpt>
      <trkpt lat="46.02156" lon="5.73418">
        <ele>1157.4</ele>
        <time>2026-05-13T17:25:29Z</time>
      </trkpt>
      <trkpt lat="46.02155" lon="5.73416">
        <ele>1157.4</ele>
        <time>2026-05-13T17:25:30Z</time>
      </trkpt>
      <trkpt lat="46.02154" lon="5.73414">
        <ele>1157.4</ele>
        <time>2026-05-13T17:25:31Z</time>
      </trkpt>
      <trkpt lat="46.02153" lon="5.73412">
        <ele>1157.8</ele>
        <time>2026-05-13T17:25:32Z</time>
      </trkpt>
      <trkpt lat="46.02153" lon="5.7341">
        <ele>1157.8</ele>
        <time>2026-05-13T17:25:33Z</time>
      </trkpt>
      <trkpt lat="46.02153" lon="5.73409">
        <ele>1158.2</ele>
        <time>2026-05-13T17:25:34Z</time>
      </trkpt>
      <trkpt lat="46.02153" lon="5.73407">
        <ele>1158.2</ele>
        <time>2026-05-13T17:25:35Z</time>
      </trkpt>
      <trkpt lat="46.02154" lon="5.73405">
        <ele>1158.2</ele>
        <time>2026-05-13T17:25:36Z</time>
      </trkpt>
      <trkpt lat="46.02154" lon="5.73404">
        <ele>1158.4</ele>
        <time>2026-05-13T17:25:37Z</time>
      </trkpt>
      <trkpt lat="46.02154" lon="5.73402">
        <ele>1158.4</ele>
        <time>2026-05-13T17:25:38Z</time>
      </trkpt>
      <trkpt lat="46.02154" lon="5.734">
        <ele>1158.4</ele>
        <time>2026-05-13T17:25:39Z</time>
      </trkpt>
      <trkpt lat="46.02154" lon="5.73398">
        <ele>1158.8</ele>
        <time>2026-05-13T17:25:40Z</time>
      </trkpt>
      <trkpt lat="46.02156" lon="5.73396">
        <ele>1158.8</ele>
        <time>2026-05-13T17:25:41Z</time>
      </trkpt>
      <trkpt lat="46.02157" lon="5.73393">
        <ele>1158.8</ele>
        <time>2026-05-13T17:25:42Z</time>
      </trkpt>
      <trkpt lat="46.02158" lon="5.7339">
        <ele>1159</ele>
        <time>2026-05-13T17:25:43Z</time>
      </trkpt>
      <trkpt lat="46.02159" lon="5.73388">
        <ele>1159</ele>
        <time>2026-05-13T17:25:44Z</time>
      </trkpt>
      <trkpt lat="46.0216" lon="5.73386">
        <ele>1159</ele>
        <time>2026-05-13T17:25:45Z</time>
      </trkpt>
      <trkpt lat="46.02161" lon="5.73384">
        <ele>1159</ele>
        <time>2026-05-13T17:25:46Z</time>
      </trkpt>
      <trkpt lat="46.02161" lon="5.73383">
        <ele>1159</ele>
        <time>2026-05-13T17:25:47Z</time>
      </trkpt>
      <trkpt lat="46.02161" lon="5.73381">
        <ele>1159</ele>
        <time>2026-05-13T17:25:48Z</time>
      </trkpt>
      <trkpt lat="46.02162" lon="5.73378">
        <ele>1159</ele>
        <time>2026-05-13T17:25:49Z</time>
      </trkpt>
      <trkpt lat="46.02164" lon="5.73376">
        <ele>1159</ele>
        <time>2026-05-13T17:25:50Z</time>
      </trkpt>
      <trkpt lat="46.02165" lon="5.73373">
        <ele>1159</ele>
        <time>2026-05-13T17:25:51Z</time>
      </trkpt>
      <trkpt lat="46.02166" lon="5.73371">
        <ele>1159</ele>
        <time>2026-05-13T17:25:52Z</time>
      </trkpt>
      <trkpt lat="46.02166" lon="5.73369">
        <ele>1158.8</ele>
        <time>2026-05-13T17:25:53Z</time>
      </trkpt>
      <trkpt lat="46.02167" lon="5.73366">
        <ele>1158.8</ele>
        <time>2026-05-13T17:25:54Z</time>
      </trkpt>
      <trkpt lat="46.02168" lon="5.73363">
        <ele>1158.8</ele>
        <time>2026-05-13T17:25:55Z</time>
      </trkpt>
      <trkpt lat="46.02169" lon="5.7336">
        <ele>1158.4</ele>
        <time>2026-05-13T17:25:56Z</time>
      </trkpt>
      <trkpt lat="46.0217" lon="5.73356">
        <ele>1158.4</ele>
        <time>2026-05-13T17:25:57Z</time>
      </trkpt>
      <trkpt lat="46.02171" lon="5.73353">
        <ele>1158.4</ele>
        <time>2026-05-13T17:25:58Z</time>
      </trkpt>
      <trkpt lat="46.02172" lon="5.73349">
        <ele>1158.2</ele>
        <time>2026-05-13T17:25:59Z</time>
      </trkpt>
      <trkpt lat="46.02174" lon="5.73345">
        <ele>1157.8</ele>
        <time>2026-05-13T17:26:00Z</time>
      </trkpt>
      <trkpt lat="46.02176" lon="5.73341">
        <ele>1157.8</ele>
        <time>2026-05-13T17:26:01Z</time>
      </trkpt>
      <trkpt lat="46.02179" lon="5.73336">
        <ele>1157</ele>
        <time>2026-05-13T17:26:02Z</time>
      </trkpt>
      <trkpt lat="46.02182" lon="5.73331">
        <ele>1156.6</ele>
        <time>2026-05-13T17:26:03Z</time>
      </trkpt>
      <trkpt lat="46.02186" lon="5.73325">
        <ele>1156.2</ele>
        <time>2026-05-13T17:26:04Z</time>
      </trkpt>
      <trkpt lat="46.0219" lon="5.7332">
        <ele>1156</ele>
        <time>2026-05-13T17:26:05Z</time>
      </trkpt>
      <trkpt lat="46.02195" lon="5.73314">
        <ele>1155.6</ele>
        <time>2026-05-13T17:26:06Z</time>
      </trkpt>
      <trkpt lat="46.02198" lon="5.73308">
        <ele>1155.4</ele>
        <time>2026-05-13T17:26:07Z</time>
      </trkpt>
      <trkpt lat="46.02203" lon="5.73304">
        <ele>1155.4</ele>
        <time>2026-05-13T17:26:08Z</time>
      </trkpt>
      <trkpt lat="46.02208" lon="5.73299">
        <ele>1155</ele>
        <time>2026-05-13T17:26:09Z</time>
      </trkpt>
      <trkpt lat="46.02212" lon="5.73294">
        <ele>1155.2</ele>
        <time>2026-05-13T17:26:10Z</time>
      </trkpt>
      <trkpt lat="46.02215" lon="5.73287">
        <ele>1154.8</ele>
        <time>2026-05-13T17:26:11Z</time>
      </trkpt>
      <trkpt lat="46.02218" lon="5.73281">
        <ele>1154.4</ele>
        <time>2026-05-13T17:26:12Z</time>
      </trkpt>
      <trkpt lat="46.02222" lon="5.73274">
        <ele>1154</ele>
        <time>2026-05-13T17:26:13Z</time>
      </trkpt>
      <trkpt lat="46.02226" lon="5.73269">
        <ele>1153.6</ele>
        <time>2026-05-13T17:26:14Z</time>
      </trkpt>
      <trkpt lat="46.02231" lon="5.73264">
        <ele>1153.2</ele>
        <time>2026-05-13T17:26:15Z</time>
      </trkpt>
      <trkpt lat="46.02236" lon="5.73258">
        <ele>1153</ele>
        <time>2026-05-13T17:26:16Z</time>
      </trkpt>
      <trkpt lat="46.0224" lon="5.73252">
        <ele>1152.8</ele>
        <time>2026-05-13T17:26:17Z</time>
      </trkpt>
      <trkpt lat="46.02246" lon="5.73246">
        <ele>1151.6</ele>
        <time>2026-05-13T17:26:18Z</time>
      </trkpt>
      <trkpt lat="46.02248" lon="5.73238">
        <ele>1151.6</ele>
        <time>2026-05-13T17:26:19Z</time>
      </trkpt>
      <trkpt lat="46.02253" lon="5.73233">
        <ele>1151.6</ele>
        <time>2026-05-13T17:26:20Z</time>
      </trkpt>
      <trkpt lat="46.02257" lon="5.73228">
        <ele>1152</ele>
        <time>2026-05-13T17:26:21Z</time>
      </trkpt>
      <trkpt lat="46.02262" lon="5.73223">
        <ele>1152.2</ele>
        <time>2026-05-13T17:26:22Z</time>
      </trkpt>
      <trkpt lat="46.02267" lon="5.73218">
        <ele>1152</ele>
        <time>2026-05-13T17:26:23Z</time>
      </trkpt>
      <trkpt lat="46.0227" lon="5.73215">
        <ele>1152.2</ele>
        <time>2026-05-13T17:26:24Z</time>
      </trkpt>
      <trkpt lat="46.02275" lon="5.73211">
        <ele>1152.6</ele>
        <time>2026-05-13T17:26:25Z</time>
      </trkpt>
      <trkpt lat="46.02279" lon="5.73209">
        <ele>1153</ele>
        <time>2026-05-13T17:26:26Z</time>
      </trkpt>
      <trkpt lat="46.02281" lon="5.73207">
        <ele>1153.6</ele>
        <time>2026-05-13T17:26:27Z</time>
      </trkpt>
      <trkpt lat="46.02285" lon="5.73206">
        <ele>1153.8</ele>
        <time>2026-05-13T17:26:28Z</time>
      </trkpt>
      <trkpt lat="46.02294" lon="5.73203">
        <ele>1153.8</ele>
        <time>2026-05-13T17:26:29Z</time>
      </trkpt>
      <trkpt lat="46.02297" lon="5.73201">
        <ele>1153.8</ele>
        <time>2026-05-13T17:26:30Z</time>
      </trkpt>
      <trkpt lat="46.023" lon="5.732">
        <ele>1154.6</ele>
        <time>2026-05-13T17:26:31Z</time>
      </trkpt>
      <trkpt lat="46.02304" lon="5.73196">
        <ele>1154.8</ele>
        <time>2026-05-13T17:26:32Z</time>
      </trkpt>
      <trkpt lat="46.02307" lon="5.73193">
        <ele>1154.8</ele>
        <time>2026-05-13T17:26:33Z</time>
      </trkpt>
      <trkpt lat="46.0231" lon="5.7319">
        <ele>1155.2</ele>
        <time>2026-05-13T17:26:34Z</time>
      </trkpt>
      <trkpt lat="46.02314" lon="5.73188">
        <ele>1155.2</ele>
        <time>2026-05-13T17:26:35Z</time>
      </trkpt>
      <trkpt lat="46.02313" lon="5.73185">
        <ele>1155.2</ele>
        <time>2026-05-13T17:26:36Z</time>
      </trkpt>
      <trkpt lat="46.02316" lon="5.73182">
        <ele>1155.4</ele>
        <time>2026-05-13T17:26:37Z</time>
      </trkpt>
      <trkpt lat="46.02318" lon="5.73179">
        <ele>1155.4</ele>
        <time>2026-05-13T17:26:38Z</time>
      </trkpt>
      <trkpt lat="46.0232" lon="5.73177">
        <ele>1155.6</ele>
        <time>2026-05-13T17:26:39Z</time>
      </trkpt>
      <trkpt lat="46.02323" lon="5.73174">
        <ele>1155.6</ele>
        <time>2026-05-13T17:26:40Z</time>
      </trkpt>
      <trkpt lat="46.02326" lon="5.73172">
        <ele>1155.8</ele>
        <time>2026-05-13T17:26:41Z</time>
      </trkpt>
      <trkpt lat="46.02329" lon="5.7317">
        <ele>1155.8</ele>
        <time>2026-05-13T17:26:42Z</time>
      </trkpt>
      <trkpt lat="46.02332" lon="5.73168">
        <ele>1155.8</ele>
        <time>2026-05-13T17:26:43Z</time>
      </trkpt>
      <trkpt lat="46.02335" lon="5.73167">
        <ele>1155.8</ele>
        <time>2026-05-13T17:26:44Z</time>
      </trkpt>
      <trkpt lat="46.02339" lon="5.73166">
        <ele>1155.8</ele>
        <time>2026-05-13T17:26:45Z</time>
      </trkpt>
      <trkpt lat="46.02343" lon="5.73166">
        <ele>1155.8</ele>
        <time>2026-05-13T17:26:46Z</time>
      </trkpt>
      <trkpt lat="46.02347" lon="5.73166">
        <ele>1155.8</ele>
        <time>2026-05-13T17:26:47Z</time>
      </trkpt>
      <trkpt lat="46.02351" lon="5.73166">
        <ele>1155.6</ele>
        <time>2026-05-13T17:26:48Z</time>
      </trkpt>
      <trkpt lat="46.02355" lon="5.73166">
        <ele>1155.6</ele>
        <time>2026-05-13T17:26:49Z</time>
      </trkpt>
      <trkpt lat="46.02359" lon="5.73166">
        <ele>1155.6</ele>
        <time>2026-05-13T17:26:50Z</time>
      </trkpt>
      <trkpt lat="46.02363" lon="5.73167">
        <ele>1155.6</ele>
        <time>2026-05-13T17:26:51Z</time>
      </trkpt>
      <trkpt lat="46.02367" lon="5.73167">
        <ele>1155.6</ele>
        <time>2026-05-13T17:26:52Z</time>
      </trkpt>
      <trkpt lat="46.02371" lon="5.73168">
        <ele>1155.4</ele>
        <time>2026-05-13T17:26:53Z</time>
      </trkpt>
      <trkpt lat="46.02375" lon="5.73169">
        <ele>1155.4</ele>
        <time>2026-05-13T17:26:54Z</time>
      </trkpt>
      <trkpt lat="46.02379" lon="5.7317">
        <ele>1155.4</ele>
        <time>2026-05-13T17:26:55Z</time>
      </trkpt>
      <trkpt lat="46.02383" lon="5.7317">
        <ele>1155.4</ele>
        <time>2026-05-13T17:26:56Z</time>
      </trkpt>
      <trkpt lat="46.02387" lon="5.7317">
        <ele>1154.8</ele>
        <time>2026-05-13T17:26:57Z</time>
      </trkpt>
      <trkpt lat="46.0239" lon="5.73169">
        <ele>1154.8</ele>
        <time>2026-05-13T17:26:58Z</time>
      </trkpt>
      <trkpt lat="46.02394" lon="5.73168">
        <ele>1154.8</ele>
        <time>2026-05-13T17:26:59Z</time>
      </trkpt>
      <trkpt lat="46.02396" lon="5.73167">
        <ele>1154.8</ele>
        <time>2026-05-13T17:27:00Z</time>
      </trkpt>
      <trkpt lat="46.02399" lon="5.73166">
        <ele>1154.8</ele>
        <time>2026-05-13T17:27:01Z</time>
      </trkpt>
      <trkpt lat="46.02402" lon="5.73165">
        <ele>1154.8</ele>
        <time>2026-05-13T17:27:02Z</time>
      </trkpt>
      <trkpt lat="46.02405" lon="5.73165">
        <ele>1154.8</ele>
        <time>2026-05-13T17:27:03Z</time>
      </trkpt>
      <trkpt lat="46.02408" lon="5.73164">
        <ele>1154.8</ele>
        <time>2026-05-13T17:27:04Z</time>
      </trkpt>
      <trkpt lat="46.02411" lon="5.73163">
        <ele>1155.2</ele>
        <time>2026-05-13T17:27:05Z</time>
      </trkpt>
      <trkpt lat="46.02413" lon="5.73162">
        <ele>1155.2</ele>
        <time>2026-05-13T17:27:06Z</time>
      </trkpt>
      <trkpt lat="46.02415" lon="5.73161">
        <ele>1155.2</ele>
        <time>2026-05-13T17:27:07Z</time>
      </trkpt>
      <trkpt lat="46.02418" lon="5.7316">
        <ele>1155.2</ele>
        <time>2026-05-13T17:27:08Z</time>
      </trkpt>
      <trkpt lat="46.0242" lon="5.73159">
        <ele>1155.2</ele>
        <time>2026-05-13T17:27:09Z</time>
      </trkpt>
      <trkpt lat="46.02423" lon="5.73158">
        <ele>1155.2</ele>
        <time>2026-05-13T17:27:10Z</time>
      </trkpt>
      <trkpt lat="46.02425" lon="5.73156">
        <ele>1155.2</ele>
        <time>2026-05-13T17:27:11Z</time>
      </trkpt>
      <trkpt lat="46.02428" lon="5.73155">
        <ele>1155.2</ele>
        <time>2026-05-13T17:27:12Z</time>
      </trkpt>
      <trkpt lat="46.02431" lon="5.73153">
        <ele>1155.2</ele>
        <time>2026-05-13T17:27:13Z</time>
      </trkpt>
      <trkpt lat="46.02434" lon="5.73152">
        <ele>1155.2</ele>
        <time>2026-05-13T17:27:14Z</time>
      </trkpt>
      <trkpt lat="46.02437" lon="5.73151">
        <ele>1155.2</ele>
        <time>2026-05-13T17:27:15Z</time>
      </trkpt>
      <trkpt lat="46.02441" lon="5.7315">
        <ele>1155.2</ele>
        <time>2026-05-13T17:27:16Z</time>
      </trkpt>
      <trkpt lat="46.02444" lon="5.73151">
        <ele>1155.2</ele>
        <time>2026-05-13T17:27:17Z</time>
      </trkpt>
      <trkpt lat="46.02448" lon="5.73152">
        <ele>1155.2</ele>
        <time>2026-05-13T17:27:18Z</time>
      </trkpt>
      <trkpt lat="46.02452" lon="5.73153">
        <ele>1155.4</ele>
        <time>2026-05-13T17:27:19Z</time>
      </trkpt>
      <trkpt lat="46.02456" lon="5.73153">
        <ele>1155.4</ele>
        <time>2026-05-13T17:27:20Z</time>
      </trkpt>
      <trkpt lat="46.02459" lon="5.73153">
        <ele>1155.2</ele>
        <time>2026-05-13T17:27:21Z</time>
      </trkpt>
      <trkpt lat="46.02463" lon="5.73153">
        <ele>1155.8</ele>
        <time>2026-05-13T17:27:22Z</time>
      </trkpt>
      <trkpt lat="46.02465" lon="5.73152">
        <ele>1155.8</ele>
        <time>2026-05-13T17:27:23Z</time>
      </trkpt>
      <trkpt lat="46.02468" lon="5.73152">
        <ele>1156</ele>
        <time>2026-05-13T17:27:24Z</time>
      </trkpt>
      <trkpt lat="46.02471" lon="5.73151">
        <ele>1156</ele>
        <time>2026-05-13T17:27:25Z</time>
      </trkpt>
      <trkpt lat="46.02473" lon="5.73151">
        <ele>1156.4</ele>
        <time>2026-05-13T17:27:26Z</time>
      </trkpt>
      <trkpt lat="46.02476" lon="5.7315">
        <ele>1156.4</ele>
        <time>2026-05-13T17:27:27Z</time>
      </trkpt>
      <trkpt lat="46.02479" lon="5.73148">
        <ele>1156.6</ele>
        <time>2026-05-13T17:27:28Z</time>
      </trkpt>
      <trkpt lat="46.02481" lon="5.73146">
        <ele>1156.6</ele>
        <time>2026-05-13T17:27:29Z</time>
      </trkpt>
      <trkpt lat="46.02484" lon="5.73145">
        <ele>1156.6</ele>
        <time>2026-05-13T17:27:30Z</time>
      </trkpt>
      <trkpt lat="46.02487" lon="5.73143">
        <ele>1156.6</ele>
        <time>2026-05-13T17:27:31Z</time>
      </trkpt>
      <trkpt lat="46.02489" lon="5.7314">
        <ele>1156.8</ele>
        <time>2026-05-13T17:27:32Z</time>
      </trkpt>
      <trkpt lat="46.02492" lon="5.73138">
        <ele>1156.8</ele>
        <time>2026-05-13T17:27:33Z</time>
      </trkpt>
      <trkpt lat="46.02494" lon="5.73136">
        <ele>1156.8</ele>
        <time>2026-05-13T17:27:34Z</time>
      </trkpt>
      <trkpt lat="46.02497" lon="5.73134">
        <ele>1156.8</ele>
        <time>2026-05-13T17:27:35Z</time>
      </trkpt>
      <trkpt lat="46.025" lon="5.73132">
        <ele>1156.8</ele>
        <time>2026-05-13T17:27:36Z</time>
      </trkpt>
      <trkpt lat="46.02503" lon="5.7313">
        <ele>1156.8</ele>
        <time>2026-05-13T17:27:37Z</time>
      </trkpt>
      <trkpt lat="46.02506" lon="5.73128">
        <ele>1156.8</ele>
        <time>2026-05-13T17:27:38Z</time>
      </trkpt>
      <trkpt lat="46.02509" lon="5.73126">
        <ele>1156.6</ele>
        <time>2026-05-13T17:27:39Z</time>
      </trkpt>
      <trkpt lat="46.02512" lon="5.73123">
        <ele>1157</ele>
        <time>2026-05-13T17:27:40Z</time>
      </trkpt>
      <trkpt lat="46.02514" lon="5.73122">
        <ele>1156.2</ele>
        <time>2026-05-13T17:27:41Z</time>
      </trkpt>
      <trkpt lat="46.02517" lon="5.73121">
        <ele>1156.2</ele>
        <time>2026-05-13T17:27:42Z</time>
      </trkpt>
      <trkpt lat="46.0252" lon="5.73119">
        <ele>1156.2</ele>
        <time>2026-05-13T17:27:43Z</time>
      </trkpt>
      <trkpt lat="46.02523" lon="5.73117">
        <ele>1156.4</ele>
        <time>2026-05-13T17:27:44Z</time>
      </trkpt>
      <trkpt lat="46.02525" lon="5.73116">
        <ele>1156.4</ele>
        <time>2026-05-13T17:27:45Z</time>
      </trkpt>
      <trkpt lat="46.02528" lon="5.73114">
        <ele>1156.4</ele>
        <time>2026-05-13T17:27:46Z</time>
      </trkpt>
      <trkpt lat="46.02531" lon="5.73112">
        <ele>1156.6</ele>
        <time>2026-05-13T17:27:47Z</time>
      </trkpt>
      <trkpt lat="46.02533" lon="5.73111">
        <ele>1156.6</ele>
        <time>2026-05-13T17:27:48Z</time>
      </trkpt>
      <trkpt lat="46.02535" lon="5.73109">
        <ele>1156.6</ele>
        <time>2026-05-13T17:27:49Z</time>
      </trkpt>
      <trkpt lat="46.02537" lon="5.73108">
        <ele>1157</ele>
        <time>2026-05-13T17:27:50Z</time>
      </trkpt>
      <trkpt lat="46.02539" lon="5.73106">
        <ele>1157</ele>
        <time>2026-05-13T17:27:51Z</time>
      </trkpt>
      <trkpt lat="46.02541" lon="5.73105">
        <ele>1157.4</ele>
        <time>2026-05-13T17:27:52Z</time>
      </trkpt>
      <trkpt lat="46.02543" lon="5.73104">
        <ele>1157.4</ele>
        <time>2026-05-13T17:27:53Z</time>
      </trkpt>
      <trkpt lat="46.02544" lon="5.73102">
        <ele>1157.4</ele>
        <time>2026-05-13T17:27:54Z</time>
      </trkpt>
      <trkpt lat="46.02545" lon="5.73101">
        <ele>1157.4</ele>
        <time>2026-05-13T17:27:55Z</time>
      </trkpt>
      <trkpt lat="46.02547" lon="5.73099">
        <ele>1157.6</ele>
        <time>2026-05-13T17:27:56Z</time>
      </trkpt>
      <trkpt lat="46.02548" lon="5.73096">
        <ele>1158</ele>
        <time>2026-05-13T17:27:57Z</time>
      </trkpt>
      <trkpt lat="46.02548" lon="5.73092">
        <ele>1158</ele>
        <time>2026-05-13T17:27:58Z</time>
      </trkpt>
      <trkpt lat="46.02548" lon="5.73088">
        <ele>1158.2</ele>
        <time>2026-05-13T17:27:59Z</time>
      </trkpt>
      <trkpt lat="46.02548" lon="5.73084">
        <ele>1158.2</ele>
        <time>2026-05-13T17:28:00Z</time>
      </trkpt>
      <trkpt lat="46.02548" lon="5.73081">
        <ele>1156.6</ele>
        <time>2026-05-13T17:28:01Z</time>
      </trkpt>
      <trkpt lat="46.02548" lon="5.73079">
        <ele>1157.4</ele>
        <time>2026-05-13T17:28:02Z</time>
      </trkpt>
      <trkpt lat="46.02548" lon="5.73076">
        <ele>1157.4</ele>
        <time>2026-05-13T17:28:03Z</time>
      </trkpt>
      <trkpt lat="46.02547" lon="5.73073">
        <ele>1157.8</ele>
        <time>2026-05-13T17:28:04Z</time>
      </trkpt>
      <trkpt lat="46.02547" lon="5.7307">
        <ele>1158</ele>
        <time>2026-05-13T17:28:05Z</time>
      </trkpt>
      <trkpt lat="46.02547" lon="5.73067">
        <ele>1158</ele>
        <time>2026-05-13T17:28:06Z</time>
      </trkpt>
      <trkpt lat="46.02546" lon="5.73063">
        <ele>1158</ele>
        <time>2026-05-13T17:28:07Z</time>
      </trkpt>
      <trkpt lat="46.02546" lon="5.7306">
        <ele>1158</ele>
        <time>2026-05-13T17:28:08Z</time>
      </trkpt>
      <trkpt lat="46.02546" lon="5.73058">
        <ele>1158</ele>
        <time>2026-05-13T17:28:09Z</time>
      </trkpt>
      <trkpt lat="46.02547" lon="5.73056">
        <ele>1158</ele>
        <time>2026-05-13T17:28:10Z</time>
      </trkpt>
      <trkpt lat="46.02549" lon="5.73055">
        <ele>1158</ele>
        <time>2026-05-13T17:28:11Z</time>
      </trkpt>
      <trkpt lat="46.02549" lon="5.73053">
        <ele>1158</ele>
        <time>2026-05-13T17:28:12Z</time>
      </trkpt>
      <trkpt lat="46.0255" lon="5.73053">
        <ele>1158.4</ele>
        <time>2026-05-13T17:28:13Z</time>
      </trkpt>
      <trkpt lat="46.0255" lon="5.73052">
        <ele>1158.4</ele>
        <time>2026-05-13T17:28:14Z</time>
      </trkpt>
      <trkpt lat="46.02551" lon="5.73051">
        <ele>1158.4</ele>
        <time>2026-05-13T17:28:15Z</time>
      </trkpt>
      <trkpt lat="46.02552" lon="5.73049">
        <ele>1158.6</ele>
        <time>2026-05-13T17:28:16Z</time>
      </trkpt>
      <trkpt lat="46.02553" lon="5.73046">
        <ele>1158.6</ele>
        <time>2026-05-13T17:28:17Z</time>
      </trkpt>
      <trkpt lat="46.02553" lon="5.73045">
        <ele>1158.6</ele>
        <time>2026-05-13T17:28:18Z</time>
      </trkpt>
      <trkpt lat="46.02553" lon="5.73045">
        <ele>1158.6</ele>
        <time>2026-05-13T17:28:19Z</time>
      </trkpt>
      <trkpt lat="46.02553" lon="5.73045">
        <ele>1158.6</ele>
        <time>2026-05-13T17:28:20Z</time>
      </trkpt>
      <trkpt lat="46.02554" lon="5.73042">
        <ele>1158.6</ele>
        <time>2026-05-13T17:28:49Z</time>
      </trkpt>
      <trkpt lat="46.02555" lon="5.7304">
        <ele>1158.6</ele>
        <time>2026-05-13T17:28:50Z</time>
      </trkpt>
      <trkpt lat="46.02555" lon="5.73038">
        <ele>1158.6</ele>
        <time>2026-05-13T17:28:51Z</time>
      </trkpt>
      <trkpt lat="46.02556" lon="5.73037">
        <ele>1158.6</ele>
        <time>2026-05-13T17:28:52Z</time>
      </trkpt>
      <trkpt lat="46.02556" lon="5.73035">
        <ele>1158.6</ele>
        <time>2026-05-13T17:28:53Z</time>
      </trkpt>
      <trkpt lat="46.02557" lon="5.73034">
        <ele>1158.6</ele>
        <time>2026-05-13T17:28:54Z</time>
      </trkpt>
      <trkpt lat="46.02559" lon="5.73032">
        <ele>1158.6</ele>
        <time>2026-05-13T17:28:55Z</time>
      </trkpt>
      <trkpt lat="46.02559" lon="5.7303">
        <ele>1158.6</ele>
        <time>2026-05-13T17:28:56Z</time>
      </trkpt>
      <trkpt lat="46.0256" lon="5.73029">
        <ele>1158.6</ele>
        <time>2026-05-13T17:28:57Z</time>
      </trkpt>
      <trkpt lat="46.0256" lon="5.73027">
        <ele>1158.8</ele>
        <time>2026-05-13T17:28:58Z</time>
      </trkpt>
      <trkpt lat="46.02559" lon="5.73025">
        <ele>1158.8</ele>
        <time>2026-05-13T17:28:59Z</time>
      </trkpt>
      <trkpt lat="46.02559" lon="5.73023">
        <ele>1158.8</ele>
        <time>2026-05-13T17:29:00Z</time>
      </trkpt>
      <trkpt lat="46.0256" lon="5.73022">
        <ele>1159</ele>
        <time>2026-05-13T17:29:01Z</time>
      </trkpt>
      <trkpt lat="46.0256" lon="5.7302">
        <ele>1159</ele>
        <time>2026-05-13T17:29:02Z</time>
      </trkpt>
      <trkpt lat="46.0256" lon="5.73018">
        <ele>1159.4</ele>
        <time>2026-05-13T17:29:03Z</time>
      </trkpt>
      <trkpt lat="46.0256" lon="5.73016">
        <ele>1159.6</ele>
        <time>2026-05-13T17:29:04Z</time>
      </trkpt>
      <trkpt lat="46.0256" lon="5.73013">
        <ele>1159.8</ele>
        <time>2026-05-13T17:29:05Z</time>
      </trkpt>
      <trkpt lat="46.0256" lon="5.73011">
        <ele>1159.8</ele>
        <time>2026-05-13T17:29:06Z</time>
      </trkpt>
      <trkpt lat="46.02561" lon="5.7301">
        <ele>1160</ele>
        <time>2026-05-13T17:29:07Z</time>
      </trkpt>
      <trkpt lat="46.02561" lon="5.73008">
        <ele>1160</ele>
        <time>2026-05-13T17:29:08Z</time>
      </trkpt>
      <trkpt lat="46.02561" lon="5.73007">
        <ele>1160</ele>
        <time>2026-05-13T17:29:09Z</time>
      </trkpt>
      <trkpt lat="46.02561" lon="5.73004">
        <ele>1160</ele>
        <time>2026-05-13T17:29:10Z</time>
      </trkpt>
      <trkpt lat="46.0256" lon="5.73002">
        <ele>1160.4</ele>
        <time>2026-05-13T17:29:11Z</time>
      </trkpt>
      <trkpt lat="46.0256" lon="5.72999">
        <ele>1160.6</ele>
        <time>2026-05-13T17:29:12Z</time>
      </trkpt>
      <trkpt lat="46.0256" lon="5.72997">
        <ele>1160.6</ele>
        <time>2026-05-13T17:29:13Z</time>
      </trkpt>
      <trkpt lat="46.0256" lon="5.72995">
        <ele>1160.6</ele>
        <time>2026-05-13T17:29:14Z</time>
      </trkpt>
      <trkpt lat="46.0256" lon="5.72993">
        <ele>1160.6</ele>
        <time>2026-05-13T17:29:15Z</time>
      </trkpt>
      <trkpt lat="46.02559" lon="5.72993">
        <ele>1161.2</ele>
        <time>2026-05-13T17:29:16Z</time>
      </trkpt>
      <trkpt lat="46.02559" lon="5.72993">
        <ele>1161.4</ele>
        <time>2026-05-13T17:29:17Z</time>
      </trkpt>
      <trkpt lat="46.02559" lon="5.72992">
        <ele>1161.6</ele>
        <time>2026-05-13T17:29:18Z</time>
      </trkpt>
      <trkpt lat="46.02557" lon="5.72991">
        <ele>1161</ele>
        <time>2026-05-13T17:29:19Z</time>
      </trkpt>
      <trkpt lat="46.02556" lon="5.7299">
        <ele>1161.6</ele>
        <time>2026-05-13T17:29:20Z</time>
      </trkpt>
      <trkpt lat="46.02556" lon="5.72989">
        <ele>1161.8</ele>
        <time>2026-05-13T17:29:21Z</time>
      </trkpt>
      <trkpt lat="46.02556" lon="5.72989">
        <ele>1162.2</ele>
        <time>2026-05-13T17:29:22Z</time>
      </trkpt>
      <trkpt lat="46.02555" lon="5.7299">
        <ele>1162.2</ele>
        <time>2026-05-13T17:29:23Z</time>
      </trkpt>
      <trkpt lat="46.02555" lon="5.72991">
        <ele>1162.4</ele>
        <time>2026-05-13T17:29:24Z</time>
      </trkpt>
      <trkpt lat="46.02556" lon="5.72991">
        <ele>1162.4</ele>
        <time>2026-05-13T17:29:25Z</time>
      </trkpt>
      <trkpt lat="46.02556" lon="5.72991">
        <ele>1162.8</ele>
        <time>2026-05-13T17:29:26Z</time>
      </trkpt>
      <trkpt lat="46.02556" lon="5.72991">
        <ele>1162.8</ele>
        <time>2026-05-13T17:29:27Z</time>
      </trkpt>
      <trkpt lat="46.02559" lon="5.72986">
        <ele>1163.2</ele>
        <time>2026-05-13T17:29:29Z</time>
      </trkpt>
      <trkpt lat="46.02559" lon="5.72984">
        <ele>1163.6</ele>
        <time>2026-05-13T17:29:30Z</time>
      </trkpt>
      <trkpt lat="46.02559" lon="5.72982">
        <ele>1163.8</ele>
        <time>2026-05-13T17:29:31Z</time>
      </trkpt>
      <trkpt lat="46.02559" lon="5.72981">
        <ele>1163.8</ele>
        <time>2026-05-13T17:29:32Z</time>
      </trkpt>
      <trkpt lat="46.0256" lon="5.7298">
        <ele>1163.8</ele>
        <time>2026-05-13T17:29:33Z</time>
      </trkpt>
      <trkpt lat="46.02561" lon="5.72979">
        <ele>1164.2</ele>
        <time>2026-05-13T17:29:34Z</time>
      </trkpt>
      <trkpt lat="46.02562" lon="5.72978">
        <ele>1164.2</ele>
        <time>2026-05-13T17:29:35Z</time>
      </trkpt>
      <trkpt lat="46.02563" lon="5.72977">
        <ele>1164.6</ele>
        <time>2026-05-13T17:29:36Z</time>
      </trkpt>
      <trkpt lat="46.02564" lon="5.72976">
        <ele>1164.6</ele>
        <time>2026-05-13T17:29:37Z</time>
      </trkpt>
      <trkpt lat="46.02565" lon="5.72975">
        <ele>1164.6</ele>
        <time>2026-05-13T17:29:38Z</time>
      </trkpt>
      <trkpt lat="46.02566" lon="5.72974">
        <ele>1165</ele>
        <time>2026-05-13T17:29:39Z</time>
      </trkpt>
      <trkpt lat="46.02567" lon="5.72973">
        <ele>1165</ele>
        <time>2026-05-13T17:29:40Z</time>
      </trkpt>
      <trkpt lat="46.02567" lon="5.72972">
        <ele>1165</ele>
        <time>2026-05-13T17:29:41Z</time>
      </trkpt>
      <trkpt lat="46.02568" lon="5.72971">
        <ele>1165.2</ele>
        <time>2026-05-13T17:29:42Z</time>
      </trkpt>
      <trkpt lat="46.02569" lon="5.7297">
        <ele>1165.2</ele>
        <time>2026-05-13T17:29:43Z</time>
      </trkpt>
      <trkpt lat="46.02569" lon="5.72968">
        <ele>1165.4</ele>
        <time>2026-05-13T17:29:44Z</time>
      </trkpt>
      <trkpt lat="46.02569" lon="5.72967">
        <ele>1165.8</ele>
        <time>2026-05-13T17:29:45Z</time>
      </trkpt>
      <trkpt lat="46.02569" lon="5.72966">
        <ele>1166</ele>
        <time>2026-05-13T17:29:46Z</time>
      </trkpt>
      <trkpt lat="46.02569" lon="5.72965">
        <ele>1166</ele>
        <time>2026-05-13T17:29:47Z</time>
      </trkpt>
      <trkpt lat="46.02569" lon="5.72964">
        <ele>1166.2</ele>
        <time>2026-05-13T17:29:48Z</time>
      </trkpt>
      <trkpt lat="46.02568" lon="5.72962">
        <ele>1166.2</ele>
        <time>2026-05-13T17:29:49Z</time>
      </trkpt>
      <trkpt lat="46.02568" lon="5.72961">
        <ele>1166.6</ele>
        <time>2026-05-13T17:29:50Z</time>
      </trkpt>
      <trkpt lat="46.02568" lon="5.72959">
        <ele>1166.6</ele>
        <time>2026-05-13T17:29:51Z</time>
      </trkpt>
      <trkpt lat="46.02568" lon="5.72958">
        <ele>1166.6</ele>
        <time>2026-05-13T17:29:52Z</time>
      </trkpt>
      <trkpt lat="46.02569" lon="5.72956">
        <ele>1166.8</ele>
        <time>2026-05-13T17:29:53Z</time>
      </trkpt>
      <trkpt lat="46.02569" lon="5.72954">
        <ele>1166.8</ele>
        <time>2026-05-13T17:29:54Z</time>
      </trkpt>
      <trkpt lat="46.0257" lon="5.72952">
        <ele>1166.8</ele>
        <time>2026-05-13T17:29:55Z</time>
      </trkpt>
      <trkpt lat="46.0257" lon="5.7295">
        <ele>1167</ele>
        <time>2026-05-13T17:29:56Z</time>
      </trkpt>
      <trkpt lat="46.0257" lon="5.72948">
        <ele>1167</ele>
        <time>2026-05-13T17:29:57Z</time>
      </trkpt>
      <trkpt lat="46.0257" lon="5.72947">
        <ele>1167</ele>
        <time>2026-05-13T17:29:58Z</time>
      </trkpt>
      <trkpt lat="46.0257" lon="5.72945">
        <ele>1167</ele>
        <time>2026-05-13T17:29:59Z</time>
      </trkpt>
      <trkpt lat="46.0257" lon="5.72944">
        <ele>1167</ele>
        <time>2026-05-13T17:30:00Z</time>
      </trkpt>
      <trkpt lat="46.0257" lon="5.72942">
        <ele>1167</ele>
        <time>2026-05-13T17:30:01Z</time>
      </trkpt>
      <trkpt lat="46.0257" lon="5.7294">
        <ele>1167</ele>
        <time>2026-05-13T17:30:02Z</time>
      </trkpt>
      <trkpt lat="46.0257" lon="5.72939">
        <ele>1167.4</ele>
        <time>2026-05-13T17:30:03Z</time>
      </trkpt>
      <trkpt lat="46.0257" lon="5.72938">
        <ele>1167.4</ele>
        <time>2026-05-13T17:30:04Z</time>
      </trkpt>
      <trkpt lat="46.0257" lon="5.72936">
        <ele>1167.4</ele>
        <time>2026-05-13T17:30:05Z</time>
      </trkpt>
      <trkpt lat="46.0257" lon="5.72935">
        <ele>1168</ele>
        <time>2026-05-13T17:30:06Z</time>
      </trkpt>
      <trkpt lat="46.02571" lon="5.72934">
        <ele>1168.2</ele>
        <time>2026-05-13T17:30:07Z</time>
      </trkpt>
      <trkpt lat="46.02571" lon="5.72933">
        <ele>1168.2</ele>
        <time>2026-05-13T17:30:08Z</time>
      </trkpt>
      <trkpt lat="46.02571" lon="5.72933">
        <ele>1168.2</ele>
        <time>2026-05-13T17:30:09Z</time>
      </trkpt>
      <trkpt lat="46.02571" lon="5.72932">
        <ele>1168.4</ele>
        <time>2026-05-13T17:30:10Z</time>
      </trkpt>
      <trkpt lat="46.02571" lon="5.72931">
        <ele>1168.4</ele>
        <time>2026-05-13T17:30:11Z</time>
      </trkpt>
      <trkpt lat="46.02572" lon="5.7293">
        <ele>1168.4</ele>
        <time>2026-05-13T17:30:12Z</time>
      </trkpt>
      <trkpt lat="46.02572" lon="5.72929">
        <ele>1168.6</ele>
        <time>2026-05-13T17:30:13Z</time>
      </trkpt>
      <trkpt lat="46.02572" lon="5.72928">
        <ele>1168.6</ele>
        <time>2026-05-13T17:30:14Z</time>
      </trkpt>
      <trkpt lat="46.02572" lon="5.72928">
        <ele>1168.6</ele>
        <time>2026-05-13T17:30:15Z</time>
      </trkpt>
      <trkpt lat="46.02572" lon="5.72926">
        <ele>1168.6</ele>
        <time>2026-05-13T17:30:16Z</time>
      </trkpt>
      <trkpt lat="46.02573" lon="5.72924">
        <ele>1168.6</ele>
        <time>2026-05-13T17:30:17Z</time>
      </trkpt>
      <trkpt lat="46.02573" lon="5.72923">
        <ele>1168.6</ele>
        <time>2026-05-13T17:30:18Z</time>
      </trkpt>
      <trkpt lat="46.02574" lon="5.72921">
        <ele>1168.6</ele>
        <time>2026-05-13T17:30:19Z</time>
      </trkpt>
      <trkpt lat="46.02574" lon="5.72919">
        <ele>1168.6</ele>
        <time>2026-05-13T17:30:20Z</time>
      </trkpt>
      <trkpt lat="46.02574" lon="5.72918">
        <ele>1168.4</ele>
        <time>2026-05-13T17:30:21Z</time>
      </trkpt>
      <trkpt lat="46.02574" lon="5.72916">
        <ele>1168.4</ele>
        <time>2026-05-13T17:30:22Z</time>
      </trkpt>
      <trkpt lat="46.02574" lon="5.72916">
        <ele>1167.6</ele>
        <time>2026-05-13T17:30:23Z</time>
      </trkpt>
      <trkpt lat="46.02572" lon="5.72915">
        <ele>1167.6</ele>
        <time>2026-05-13T17:30:24Z</time>
      </trkpt>
      <trkpt lat="46.02572" lon="5.72915">
        <ele>1167.6</ele>
        <time>2026-05-13T17:30:25Z</time>
      </trkpt>
      <trkpt lat="46.02571" lon="5.72913">
        <ele>1167.8</ele>
        <time>2026-05-13T17:30:31Z</time>
      </trkpt>
      <trkpt lat="46.02572" lon="5.72911">
        <ele>1167.8</ele>
        <time>2026-05-13T17:30:32Z</time>
      </trkpt>
      <trkpt lat="46.02573" lon="5.7291">
        <ele>1167.8</ele>
        <time>2026-05-13T17:30:33Z</time>
      </trkpt>
      <trkpt lat="46.02574" lon="5.72909">
        <ele>1167.8</ele>
        <time>2026-05-13T17:30:34Z</time>
      </trkpt>
      <trkpt lat="46.02576" lon="5.72907">
        <ele>1167.4</ele>
        <time>2026-05-13T17:30:35Z</time>
      </trkpt>
      <trkpt lat="46.02577" lon="5.72905">
        <ele>1167.4</ele>
        <time>2026-05-13T17:30:36Z</time>
      </trkpt>
      <trkpt lat="46.02579" lon="5.72901">
        <ele>1166.8</ele>
        <time>2026-05-13T17:30:37Z</time>
      </trkpt>
      <trkpt lat="46.0258" lon="5.72896">
        <ele>1166.4</ele>
        <time>2026-05-13T17:30:38Z</time>
      </trkpt>
      <trkpt lat="46.02583" lon="5.72892">
        <ele>1166.8</ele>
        <time>2026-05-13T17:30:39Z</time>
      </trkpt>
      <trkpt lat="46.02586" lon="5.72888">
        <ele>1166.2</ele>
        <time>2026-05-13T17:30:40Z</time>
      </trkpt>
      <trkpt lat="46.02589" lon="5.72885">
        <ele>1164.8</ele>
        <time>2026-05-13T17:30:41Z</time>
      </trkpt>
      <trkpt lat="46.02592" lon="5.72882">
        <ele>1164.4</ele>
        <time>2026-05-13T17:30:42Z</time>
      </trkpt>
      <trkpt lat="46.02597" lon="5.72875">
        <ele>1164.8</ele>
        <time>2026-05-13T17:30:43Z</time>
      </trkpt>
      <trkpt lat="46.026" lon="5.72871">
        <ele>1163.8</ele>
        <time>2026-05-13T17:30:44Z</time>
      </trkpt>
      <trkpt lat="46.02603" lon="5.72866">
        <ele>1163.4</ele>
        <time>2026-05-13T17:30:45Z</time>
      </trkpt>
      <trkpt lat="46.02606" lon="5.72867">
        <ele>1163.2</ele>
        <time>2026-05-13T17:30:46Z</time>
      </trkpt>
      <trkpt lat="46.02609" lon="5.72865">
        <ele>1163.2</ele>
        <time>2026-05-13T17:30:47Z</time>
      </trkpt>
      <trkpt lat="46.0261" lon="5.72862">
        <ele>1162.8</ele>
        <time>2026-05-13T17:30:48Z</time>
      </trkpt>
      <trkpt lat="46.02615" lon="5.72858">
        <ele>1162.6</ele>
        <time>2026-05-13T17:30:49Z</time>
      </trkpt>
      <trkpt lat="46.02618" lon="5.72855">
        <ele>1162.2</ele>
        <time>2026-05-13T17:30:50Z</time>
      </trkpt>
      <trkpt lat="46.0262" lon="5.72853">
        <ele>1161.8</ele>
        <time>2026-05-13T17:30:51Z</time>
      </trkpt>
      <trkpt lat="46.02623" lon="5.72851">
        <ele>1161.2</ele>
        <time>2026-05-13T17:30:52Z</time>
      </trkpt>
      <trkpt lat="46.02626" lon="5.72848">
        <ele>1161</ele>
        <time>2026-05-13T17:30:53Z</time>
      </trkpt>
      <trkpt lat="46.02631" lon="5.72847">
        <ele>1161</ele>
        <time>2026-05-13T17:30:54Z</time>
      </trkpt>
      <trkpt lat="46.02633" lon="5.72844">
        <ele>1160.6</ele>
        <time>2026-05-13T17:30:55Z</time>
      </trkpt>
      <trkpt lat="46.02635" lon="5.72841">
        <ele>1160.6</ele>
        <time>2026-05-13T17:30:56Z</time>
      </trkpt>
      <trkpt lat="46.02638" lon="5.7284">
        <ele>1160.2</ele>
        <time>2026-05-13T17:30:57Z</time>
      </trkpt>
      <trkpt lat="46.0264" lon="5.72837">
        <ele>1160.2</ele>
        <time>2026-05-13T17:30:58Z</time>
      </trkpt>
      <trkpt lat="46.02642" lon="5.72835">
        <ele>1160</ele>
        <time>2026-05-13T17:30:59Z</time>
      </trkpt>
      <trkpt lat="46.02645" lon="5.72833">
        <ele>1160</ele>
        <time>2026-05-13T17:31:00Z</time>
      </trkpt>
      <trkpt lat="46.02646" lon="5.72832">
        <ele>1159.8</ele>
        <time>2026-05-13T17:31:01Z</time>
      </trkpt>
      <trkpt lat="46.02648" lon="5.7283">
        <ele>1159.6</ele>
        <time>2026-05-13T17:31:02Z</time>
      </trkpt>
      <trkpt lat="46.0265" lon="5.72828">
        <ele>1159.6</ele>
        <time>2026-05-13T17:31:03Z</time>
      </trkpt>
      <trkpt lat="46.02653" lon="5.72826">
        <ele>1159.2</ele>
        <time>2026-05-13T17:31:04Z</time>
      </trkpt>
      <trkpt lat="46.02655" lon="5.72824">
        <ele>1159</ele>
        <time>2026-05-13T17:31:05Z</time>
      </trkpt>
      <trkpt lat="46.02657" lon="5.72822">
        <ele>1158.4</ele>
        <time>2026-05-13T17:31:06Z</time>
      </trkpt>
      <trkpt lat="46.0266" lon="5.7282">
        <ele>1158.4</ele>
        <time>2026-05-13T17:31:07Z</time>
      </trkpt>
      <trkpt lat="46.02663" lon="5.72817">
        <ele>1158</ele>
        <time>2026-05-13T17:31:08Z</time>
      </trkpt>
      <trkpt lat="46.02673" lon="5.72812">
        <ele>1157.6</ele>
        <time>2026-05-13T17:31:09Z</time>
      </trkpt>
      <trkpt lat="46.02678" lon="5.7281">
        <ele>1157.4</ele>
        <time>2026-05-13T17:31:10Z</time>
      </trkpt>
      <trkpt lat="46.02682" lon="5.72808">
        <ele>1156.8</ele>
        <time>2026-05-13T17:31:11Z</time>
      </trkpt>
      <trkpt lat="46.02687" lon="5.72804">
        <ele>1156.4</ele>
        <time>2026-05-13T17:31:12Z</time>
      </trkpt>
      <trkpt lat="46.02692" lon="5.72799">
        <ele>1155.8</ele>
        <time>2026-05-13T17:31:13Z</time>
      </trkpt>
      <trkpt lat="46.02697" lon="5.72794">
        <ele>1155.8</ele>
        <time>2026-05-13T17:31:14Z</time>
      </trkpt>
      <trkpt lat="46.02703" lon="5.72788">
        <ele>1155</ele>
        <time>2026-05-13T17:31:15Z</time>
      </trkpt>
      <trkpt lat="46.02708" lon="5.72783">
        <ele>1155</ele>
        <time>2026-05-13T17:31:16Z</time>
      </trkpt>
      <trkpt lat="46.02714" lon="5.72779">
        <ele>1153.6</ele>
        <time>2026-05-13T17:31:17Z</time>
      </trkpt>
      <trkpt lat="46.02719" lon="5.72775">
        <ele>1153.6</ele>
        <time>2026-05-13T17:31:18Z</time>
      </trkpt>
      <trkpt lat="46.02724" lon="5.7277">
        <ele>1154</ele>
        <time>2026-05-13T17:31:19Z</time>
      </trkpt>
      <trkpt lat="46.02729" lon="5.72767">
        <ele>1154</ele>
        <time>2026-05-13T17:31:20Z</time>
      </trkpt>
      <trkpt lat="46.02733" lon="5.72764">
        <ele>1154</ele>
        <time>2026-05-13T17:31:21Z</time>
      </trkpt>
      <trkpt lat="46.02737" lon="5.72761">
        <ele>1153.6</ele>
        <time>2026-05-13T17:31:22Z</time>
      </trkpt>
      <trkpt lat="46.02742" lon="5.72759">
        <ele>1153.6</ele>
        <time>2026-05-13T17:31:23Z</time>
      </trkpt>
      <trkpt lat="46.02747" lon="5.72755">
        <ele>1153</ele>
        <time>2026-05-13T17:31:24Z</time>
      </trkpt>
      <trkpt lat="46.02751" lon="5.72752">
        <ele>1152.2</ele>
        <time>2026-05-13T17:31:25Z</time>
      </trkpt>
      <trkpt lat="46.02754" lon="5.7275">
        <ele>1151.8</ele>
        <time>2026-05-13T17:31:26Z</time>
      </trkpt>
      <trkpt lat="46.02758" lon="5.72748">
        <ele>1151.8</ele>
        <time>2026-05-13T17:31:27Z</time>
      </trkpt>
      <trkpt lat="46.02762" lon="5.72747">
        <ele>1152.2</ele>
        <time>2026-05-13T17:31:28Z</time>
      </trkpt>
      <trkpt lat="46.02766" lon="5.72744">
        <ele>1152.2</ele>
        <time>2026-05-13T17:31:29Z</time>
      </trkpt>
      <trkpt lat="46.0277" lon="5.72743">
        <ele>1152.2</ele>
        <time>2026-05-13T17:31:30Z</time>
      </trkpt>
      <trkpt lat="46.02774" lon="5.72742">
        <ele>1152</ele>
        <time>2026-05-13T17:31:31Z</time>
      </trkpt>
      <trkpt lat="46.02778" lon="5.72742">
        <ele>1151.6</ele>
        <time>2026-05-13T17:31:32Z</time>
      </trkpt>
      <trkpt lat="46.02781" lon="5.7274">
        <ele>1151.2</ele>
        <time>2026-05-13T17:31:33Z</time>
      </trkpt>
      <trkpt lat="46.02784" lon="5.72739">
        <ele>1151.2</ele>
        <time>2026-05-13T17:31:34Z</time>
      </trkpt>
      <trkpt lat="46.02789" lon="5.72737">
        <ele>1150.8</ele>
        <time>2026-05-13T17:31:35Z</time>
      </trkpt>
      <trkpt lat="46.02792" lon="5.72735">
        <ele>1150.4</ele>
        <time>2026-05-13T17:31:36Z</time>
      </trkpt>
      <trkpt lat="46.02796" lon="5.72733">
        <ele>1150.8</ele>
        <time>2026-05-13T17:31:37Z</time>
      </trkpt>
      <trkpt lat="46.02801" lon="5.72731">
        <ele>1150.8</ele>
        <time>2026-05-13T17:31:38Z</time>
      </trkpt>
      <trkpt lat="46.02805" lon="5.72728">
        <ele>1150.8</ele>
        <time>2026-05-13T17:31:39Z</time>
      </trkpt>
      <trkpt lat="46.02808" lon="5.72727">
        <ele>1150.4</ele>
        <time>2026-05-13T17:31:40Z</time>
      </trkpt>
      <trkpt lat="46.02812" lon="5.72726">
        <ele>1151</ele>
        <time>2026-05-13T17:31:41Z</time>
      </trkpt>
      <trkpt lat="46.02816" lon="5.72723">
        <ele>1151</ele>
        <time>2026-05-13T17:31:42Z</time>
      </trkpt>
      <trkpt lat="46.0282" lon="5.72722">
        <ele>1150.8</ele>
        <time>2026-05-13T17:31:43Z</time>
      </trkpt>
      <trkpt lat="46.02824" lon="5.7272">
        <ele>1150.8</ele>
        <time>2026-05-13T17:31:44Z</time>
      </trkpt>
      <trkpt lat="46.02828" lon="5.72718">
        <ele>1150.4</ele>
        <time>2026-05-13T17:31:45Z</time>
      </trkpt>
      <trkpt lat="46.02831" lon="5.72715">
        <ele>1150.4</ele>
        <time>2026-05-13T17:31:46Z</time>
      </trkpt>
      <trkpt lat="46.02835" lon="5.72713">
        <ele>1150.4</ele>
        <time>2026-05-13T17:31:47Z</time>
      </trkpt>
      <trkpt lat="46.02838" lon="5.72711">
        <ele>1150.4</ele>
        <time>2026-05-13T17:31:48Z</time>
      </trkpt>
      <trkpt lat="46.02841" lon="5.72708">
        <ele>1150.8</ele>
        <time>2026-05-13T17:31:49Z</time>
      </trkpt>
      <trkpt lat="46.02845" lon="5.72705">
        <ele>1150.8</ele>
        <time>2026-05-13T17:31:50Z</time>
      </trkpt>
      <trkpt lat="46.02848" lon="5.72702">
        <ele>1150.8</ele>
        <time>2026-05-13T17:31:51Z</time>
      </trkpt>
      <trkpt lat="46.02851" lon="5.72699">
        <ele>1150.6</ele>
        <time>2026-05-13T17:31:52Z</time>
      </trkpt>
      <trkpt lat="46.02853" lon="5.72697">
        <ele>1150.6</ele>
        <time>2026-05-13T17:31:53Z</time>
      </trkpt>
      <trkpt lat="46.02855" lon="5.72695">
        <ele>1150.2</ele>
        <time>2026-05-13T17:31:54Z</time>
      </trkpt>
      <trkpt lat="46.02858" lon="5.72693">
        <ele>1150.6</ele>
        <time>2026-05-13T17:31:55Z</time>
      </trkpt>
      <trkpt lat="46.0286" lon="5.7269">
        <ele>1150.6</ele>
        <time>2026-05-13T17:31:56Z</time>
      </trkpt>
      <trkpt lat="46.02863" lon="5.72687">
        <ele>1150.6</ele>
        <time>2026-05-13T17:31:57Z</time>
      </trkpt>
      <trkpt lat="46.02866" lon="5.72685">
        <ele>1150.6</ele>
        <time>2026-05-13T17:31:58Z</time>
      </trkpt>
      <trkpt lat="46.02869" lon="5.72683">
        <ele>1150.2</ele>
        <time>2026-05-13T17:31:59Z</time>
      </trkpt>
      <trkpt lat="46.02872" lon="5.7268">
        <ele>1150.2</ele>
        <time>2026-05-13T17:32:00Z</time>
      </trkpt>
      <trkpt lat="46.02874" lon="5.72678">
        <ele>1150.6</ele>
        <time>2026-05-13T17:32:01Z</time>
      </trkpt>
      <trkpt lat="46.02876" lon="5.72676">
        <ele>1151</ele>
        <time>2026-05-13T17:32:02Z</time>
      </trkpt>
      <trkpt lat="46.02878" lon="5.72674">
        <ele>1151</ele>
        <time>2026-05-13T17:32:03Z</time>
      </trkpt>
      <trkpt lat="46.0288" lon="5.72673">
        <ele>1151</ele>
        <time>2026-05-13T17:32:04Z</time>
      </trkpt>
      <trkpt lat="46.02882" lon="5.72671">
        <ele>1151</ele>
        <time>2026-05-13T17:32:05Z</time>
      </trkpt>
      <trkpt lat="46.02884" lon="5.72669">
        <ele>1151</ele>
        <time>2026-05-13T17:32:06Z</time>
      </trkpt>
      <trkpt lat="46.02886" lon="5.72667">
        <ele>1151</ele>
        <time>2026-05-13T17:32:07Z</time>
      </trkpt>
      <trkpt lat="46.02888" lon="5.72666">
        <ele>1150.8</ele>
        <time>2026-05-13T17:32:08Z</time>
      </trkpt>
      <trkpt lat="46.0289" lon="5.72664">
        <ele>1150.8</ele>
        <time>2026-05-13T17:32:09Z</time>
      </trkpt>
      <trkpt lat="46.02892" lon="5.72662">
        <ele>1150.8</ele>
        <time>2026-05-13T17:32:10Z</time>
      </trkpt>
      <trkpt lat="46.02894" lon="5.72659">
        <ele>1151</ele>
        <time>2026-05-13T17:32:11Z</time>
      </trkpt>
      <trkpt lat="46.02896" lon="5.72657">
        <ele>1151</ele>
        <time>2026-05-13T17:32:12Z</time>
      </trkpt>
      <trkpt lat="46.02897" lon="5.72654">
        <ele>1151.4</ele>
        <time>2026-05-13T17:32:13Z</time>
      </trkpt>
      <trkpt lat="46.02898" lon="5.72652">
        <ele>1151.4</ele>
        <time>2026-05-13T17:32:14Z</time>
      </trkpt>
      <trkpt lat="46.02898" lon="5.72649">
        <ele>1151.8</ele>
        <time>2026-05-13T17:32:15Z</time>
      </trkpt>
      <trkpt lat="46.02899" lon="5.72647">
        <ele>1151.8</ele>
        <time>2026-05-13T17:32:16Z</time>
      </trkpt>
      <trkpt lat="46.02899" lon="5.72645">
        <ele>1152</ele>
        <time>2026-05-13T17:32:17Z</time>
      </trkpt>
      <trkpt lat="46.029" lon="5.72643">
        <ele>1152</ele>
        <time>2026-05-13T17:32:18Z</time>
      </trkpt>
      <trkpt lat="46.029" lon="5.7264">
        <ele>1152</ele>
        <time>2026-05-13T17:32:19Z</time>
      </trkpt>
      <trkpt lat="46.02901" lon="5.72638">
        <ele>1152</ele>
        <time>2026-05-13T17:32:20Z</time>
      </trkpt>
      <trkpt lat="46.02902" lon="5.72634">
        <ele>1152.2</ele>
        <time>2026-05-13T17:32:21Z</time>
      </trkpt>
      <trkpt lat="46.02903" lon="5.72631">
        <ele>1152.2</ele>
        <time>2026-05-13T17:32:22Z</time>
      </trkpt>
      <trkpt lat="46.02903" lon="5.72629">
        <ele>1152.4</ele>
        <time>2026-05-13T17:32:23Z</time>
      </trkpt>
      <trkpt lat="46.02904" lon="5.72627">
        <ele>1152.4</ele>
        <time>2026-05-13T17:32:24Z</time>
      </trkpt>
      <trkpt lat="46.02905" lon="5.72624">
        <ele>1152.8</ele>
        <time>2026-05-13T17:32:25Z</time>
      </trkpt>
      <trkpt lat="46.02906" lon="5.72622">
        <ele>1152.8</ele>
        <time>2026-05-13T17:32:26Z</time>
      </trkpt>
      <trkpt lat="46.02907" lon="5.7262">
        <ele>1152.8</ele>
        <time>2026-05-13T17:32:27Z</time>
      </trkpt>
      <trkpt lat="46.02907" lon="5.72618">
        <ele>1152.8</ele>
        <time>2026-05-13T17:32:28Z</time>
      </trkpt>
      <trkpt lat="46.02908" lon="5.72615">
        <ele>1153</ele>
        <time>2026-05-13T17:32:29Z</time>
      </trkpt>
      <trkpt lat="46.02909" lon="5.72613">
        <ele>1153</ele>
        <time>2026-05-13T17:32:30Z</time>
      </trkpt>
      <trkpt lat="46.0291" lon="5.72611">
        <ele>1153.2</ele>
        <time>2026-05-13T17:32:31Z</time>
      </trkpt>
      <trkpt lat="46.02911" lon="5.72609">
        <ele>1153.2</ele>
        <time>2026-05-13T17:32:32Z</time>
      </trkpt>
      <trkpt lat="46.02912" lon="5.72607">
        <ele>1153.2</ele>
        <time>2026-05-13T17:32:33Z</time>
      </trkpt>
      <trkpt lat="46.02913" lon="5.72605">
        <ele>1153.2</ele>
        <time>2026-05-13T17:32:34Z</time>
      </trkpt>
      <trkpt lat="46.02914" lon="5.72603">
        <ele>1153.2</ele>
        <time>2026-05-13T17:32:35Z</time>
      </trkpt>
      <trkpt lat="46.02916" lon="5.72601">
        <ele>1153.2</ele>
        <time>2026-05-13T17:32:36Z</time>
      </trkpt>
      <trkpt lat="46.02917" lon="5.726">
        <ele>1153.2</ele>
        <time>2026-05-13T17:32:37Z</time>
      </trkpt>
      <trkpt lat="46.02918" lon="5.72598">
        <ele>1153.2</ele>
        <time>2026-05-13T17:32:38Z</time>
      </trkpt>
      <trkpt lat="46.02919" lon="5.72596">
        <ele>1153.4</ele>
        <time>2026-05-13T17:32:39Z</time>
      </trkpt>
      <trkpt lat="46.0292" lon="5.72594">
        <ele>1153.4</ele>
        <time>2026-05-13T17:32:40Z</time>
      </trkpt>
      <trkpt lat="46.02922" lon="5.72593">
        <ele>1153.8</ele>
        <time>2026-05-13T17:32:41Z</time>
      </trkpt>
      <trkpt lat="46.02923" lon="5.72591">
        <ele>1153.8</ele>
        <time>2026-05-13T17:32:42Z</time>
      </trkpt>
      <trkpt lat="46.02924" lon="5.72589">
        <ele>1154</ele>
        <time>2026-05-13T17:32:43Z</time>
      </trkpt>
      <trkpt lat="46.02925" lon="5.72587">
        <ele>1154.2</ele>
        <time>2026-05-13T17:32:44Z</time>
      </trkpt>
      <trkpt lat="46.02926" lon="5.72586">
        <ele>1154.2</ele>
        <time>2026-05-13T17:32:45Z</time>
      </trkpt>
      <trkpt lat="46.02927" lon="5.72585">
        <ele>1154.2</ele>
        <time>2026-05-13T17:32:46Z</time>
      </trkpt>
      <trkpt lat="46.02928" lon="5.72583">
        <ele>1154.2</ele>
        <time>2026-05-13T17:32:47Z</time>
      </trkpt>
      <trkpt lat="46.0293" lon="5.72582">
        <ele>1154.2</ele>
        <time>2026-05-13T17:32:48Z</time>
      </trkpt>
      <trkpt lat="46.02931" lon="5.72581">
        <ele>1154.2</ele>
        <time>2026-05-13T17:32:49Z</time>
      </trkpt>
      <trkpt lat="46.02932" lon="5.7258">
        <ele>1154.4</ele>
        <time>2026-05-13T17:32:50Z</time>
      </trkpt>
      <trkpt lat="46.02933" lon="5.72578">
        <ele>1154.4</ele>
        <time>2026-05-13T17:32:51Z</time>
      </trkpt>
      <trkpt lat="46.02934" lon="5.72577">
        <ele>1154.4</ele>
        <time>2026-05-13T17:32:52Z</time>
      </trkpt>
      <trkpt lat="46.02935" lon="5.72575">
        <ele>1154.8</ele>
        <time>2026-05-13T17:32:53Z</time>
      </trkpt>
      <trkpt lat="46.02936" lon="5.72574">
        <ele>1155</ele>
        <time>2026-05-13T17:32:54Z</time>
      </trkpt>
      <trkpt lat="46.02937" lon="5.72572">
        <ele>1155</ele>
        <time>2026-05-13T17:32:55Z</time>
      </trkpt>
      <trkpt lat="46.02938" lon="5.72571">
        <ele>1155.4</ele>
        <time>2026-05-13T17:32:56Z</time>
      </trkpt>
      <trkpt lat="46.02939" lon="5.72569">
        <ele>1155.4</ele>
        <time>2026-05-13T17:32:57Z</time>
      </trkpt>
      <trkpt lat="46.02939" lon="5.72567">
        <ele>1155.8</ele>
        <time>2026-05-13T17:32:58Z</time>
      </trkpt>
      <trkpt lat="46.0294" lon="5.72565">
        <ele>1155.8</ele>
        <time>2026-05-13T17:32:59Z</time>
      </trkpt>
      <trkpt lat="46.0294" lon="5.72565">
        <ele>1156</ele>
        <time>2026-05-13T17:33:00Z</time>
      </trkpt>
      <trkpt lat="46.02942" lon="5.72563">
        <ele>1156</ele>
        <time>2026-05-13T17:33:01Z</time>
      </trkpt>
      <trkpt lat="46.02943" lon="5.72562">
        <ele>1156</ele>
        <time>2026-05-13T17:33:02Z</time>
      </trkpt>
      <trkpt lat="46.02943" lon="5.7256">
        <ele>1156</ele>
        <time>2026-05-13T17:33:03Z</time>
      </trkpt>
      <trkpt lat="46.02944" lon="5.72558">
        <ele>1156</ele>
        <time>2026-05-13T17:33:04Z</time>
      </trkpt>
      <trkpt lat="46.02946" lon="5.72557">
        <ele>1156</ele>
        <time>2026-05-13T17:33:05Z</time>
      </trkpt>
      <trkpt lat="46.02947" lon="5.72555">
        <ele>1156</ele>
        <time>2026-05-13T17:33:06Z</time>
      </trkpt>
      <trkpt lat="46.02948" lon="5.72554">
        <ele>1156</ele>
        <time>2026-05-13T17:33:07Z</time>
      </trkpt>
      <trkpt lat="46.02949" lon="5.72553">
        <ele>1156.4</ele>
        <time>2026-05-13T17:33:08Z</time>
      </trkpt>
      <trkpt lat="46.0295" lon="5.72551">
        <ele>1156.4</ele>
        <time>2026-05-13T17:33:09Z</time>
      </trkpt>
      <trkpt lat="46.02951" lon="5.7255">
        <ele>1156.6</ele>
        <time>2026-05-13T17:33:10Z</time>
      </trkpt>
      <trkpt lat="46.02952" lon="5.72548">
        <ele>1156.6</ele>
        <time>2026-05-13T17:33:11Z</time>
      </trkpt>
      <trkpt lat="46.02953" lon="5.72547">
        <ele>1156.6</ele>
        <time>2026-05-13T17:33:12Z</time>
      </trkpt>
      <trkpt lat="46.02954" lon="5.72546">
        <ele>1157</ele>
        <time>2026-05-13T17:33:13Z</time>
      </trkpt>
      <trkpt lat="46.02955" lon="5.72545">
        <ele>1157</ele>
        <time>2026-05-13T17:33:14Z</time>
      </trkpt>
      <trkpt lat="46.02956" lon="5.72545">
        <ele>1157.2</ele>
        <time>2026-05-13T17:33:15Z</time>
      </trkpt>
      <trkpt lat="46.02957" lon="5.72544">
        <ele>1157.2</ele>
        <time>2026-05-13T17:33:16Z</time>
      </trkpt>
      <trkpt lat="46.02958" lon="5.72542">
        <ele>1157.2</ele>
        <time>2026-05-13T17:33:17Z</time>
      </trkpt>
      <trkpt lat="46.02959" lon="5.72541">
        <ele>1157.6</ele>
        <time>2026-05-13T17:33:18Z</time>
      </trkpt>
      <trkpt lat="46.0296" lon="5.7254">
        <ele>1157.6</ele>
        <time>2026-05-13T17:33:19Z</time>
      </trkpt>
      <trkpt lat="46.02961" lon="5.7254">
        <ele>1157.8</ele>
        <time>2026-05-13T17:33:20Z</time>
      </trkpt>
      <trkpt lat="46.02962" lon="5.72538">
        <ele>1157.8</ele>
        <time>2026-05-13T17:33:21Z</time>
      </trkpt>
      <trkpt lat="46.02963" lon="5.72537">
        <ele>1158.2</ele>
        <time>2026-05-13T17:33:22Z</time>
      </trkpt>
      <trkpt lat="46.02965" lon="5.72535">
        <ele>1158.4</ele>
        <time>2026-05-13T17:33:23Z</time>
      </trkpt>
      <trkpt lat="46.02966" lon="5.72534">
        <ele>1158.4</ele>
        <time>2026-05-13T17:33:24Z</time>
      </trkpt>
      <trkpt lat="46.02967" lon="5.72533">
        <ele>1158.4</ele>
        <time>2026-05-13T17:33:25Z</time>
      </trkpt>
      <trkpt lat="46.02968" lon="5.72532">
        <ele>1158.8</ele>
        <time>2026-05-13T17:33:26Z</time>
      </trkpt>
      <trkpt lat="46.0297" lon="5.72531">
        <ele>1158.8</ele>
        <time>2026-05-13T17:33:27Z</time>
      </trkpt>
      <trkpt lat="46.02972" lon="5.72529">
        <ele>1159</ele>
        <time>2026-05-13T17:33:28Z</time>
      </trkpt>
      <trkpt lat="46.02973" lon="5.72528">
        <ele>1159</ele>
        <time>2026-05-13T17:33:29Z</time>
      </trkpt>
      <trkpt lat="46.02974" lon="5.72527">
        <ele>1159.2</ele>
        <time>2026-05-13T17:33:30Z</time>
      </trkpt>
      <trkpt lat="46.02975" lon="5.72527">
        <ele>1159.2</ele>
        <time>2026-05-13T17:33:31Z</time>
      </trkpt>
      <trkpt lat="46.02977" lon="5.72526">
        <ele>1159.6</ele>
        <time>2026-05-13T17:33:32Z</time>
      </trkpt>
      <trkpt lat="46.02978" lon="5.72526">
        <ele>1159.6</ele>
        <time>2026-05-13T17:33:33Z</time>
      </trkpt>
      <trkpt lat="46.02979" lon="5.72525">
        <ele>1159.6</ele>
        <time>2026-05-13T17:33:34Z</time>
      </trkpt>
      <trkpt lat="46.0298" lon="5.72524">
        <ele>1159.6</ele>
        <time>2026-05-13T17:33:35Z</time>
      </trkpt>
      <trkpt lat="46.02981" lon="5.72522">
        <ele>1159.8</ele>
        <time>2026-05-13T17:33:36Z</time>
      </trkpt>
      <trkpt lat="46.02983" lon="5.72521">
        <ele>1159.8</ele>
        <time>2026-05-13T17:33:37Z</time>
      </trkpt>
      <trkpt lat="46.02984" lon="5.7252">
        <ele>1160.2</ele>
        <time>2026-05-13T17:33:38Z</time>
      </trkpt>
      <trkpt lat="46.02985" lon="5.72519">
        <ele>1160.2</ele>
        <time>2026-05-13T17:33:39Z</time>
      </trkpt>
      <trkpt lat="46.02986" lon="5.72518">
        <ele>1160.2</ele>
        <time>2026-05-13T17:33:40Z</time>
      </trkpt>
      <trkpt lat="46.02987" lon="5.72517">
        <ele>1160.4</ele>
        <time>2026-05-13T17:33:41Z</time>
      </trkpt>
      <trkpt lat="46.02988" lon="5.72516">
        <ele>1160.4</ele>
        <time>2026-05-13T17:33:42Z</time>
      </trkpt>
      <trkpt lat="46.0299" lon="5.72516">
        <ele>1160.6</ele>
        <time>2026-05-13T17:33:43Z</time>
      </trkpt>
      <trkpt lat="46.02991" lon="5.72515">
        <ele>1160.6</ele>
        <time>2026-05-13T17:33:44Z</time>
      </trkpt>
      <trkpt lat="46.02992" lon="5.72514">
        <ele>1160.6</ele>
        <time>2026-05-13T17:33:45Z</time>
      </trkpt>
      <trkpt lat="46.02994" lon="5.72513">
        <ele>1161</ele>
        <time>2026-05-13T17:33:46Z</time>
      </trkpt>
      <trkpt lat="46.02995" lon="5.72512">
        <ele>1161</ele>
        <time>2026-05-13T17:33:47Z</time>
      </trkpt>
      <trkpt lat="46.02997" lon="5.7251">
        <ele>1161</ele>
        <time>2026-05-13T17:33:48Z</time>
      </trkpt>
      <trkpt lat="46.02998" lon="5.72509">
        <ele>1161</ele>
        <time>2026-05-13T17:33:49Z</time>
      </trkpt>
      <trkpt lat="46.03" lon="5.72508">
        <ele>1161.2</ele>
        <time>2026-05-13T17:33:50Z</time>
      </trkpt>
      <trkpt lat="46.03001" lon="5.72507">
        <ele>1161.2</ele>
        <time>2026-05-13T17:33:51Z</time>
      </trkpt>
      <trkpt lat="46.03002" lon="5.72506">
        <ele>1161.2</ele>
        <time>2026-05-13T17:33:52Z</time>
      </trkpt>
      <trkpt lat="46.03003" lon="5.72505">
        <ele>1161.2</ele>
        <time>2026-05-13T17:33:53Z</time>
      </trkpt>
      <trkpt lat="46.03005" lon="5.72504">
        <ele>1161.2</ele>
        <time>2026-05-13T17:33:54Z</time>
      </trkpt>
      <trkpt lat="46.03007" lon="5.72502">
        <ele>1161.2</ele>
        <time>2026-05-13T17:33:55Z</time>
      </trkpt>
      <trkpt lat="46.03008" lon="5.72501">
        <ele>1161.2</ele>
        <time>2026-05-13T17:33:56Z</time>
      </trkpt>
      <trkpt lat="46.0301" lon="5.725">
        <ele>1161.2</ele>
        <time>2026-05-13T17:33:57Z</time>
      </trkpt>
      <trkpt lat="46.03011" lon="5.72499">
        <ele>1161.2</ele>
        <time>2026-05-13T17:33:58Z</time>
      </trkpt>
      <trkpt lat="46.03013" lon="5.72498">
        <ele>1161.4</ele>
        <time>2026-05-13T17:33:59Z</time>
      </trkpt>
      <trkpt lat="46.03014" lon="5.72496">
        <ele>1161.4</ele>
        <time>2026-05-13T17:34:00Z</time>
      </trkpt>
      <trkpt lat="46.03016" lon="5.72495">
        <ele>1161.4</ele>
        <time>2026-05-13T17:34:01Z</time>
      </trkpt>
      <trkpt lat="46.03017" lon="5.72494">
        <ele>1161.4</ele>
        <time>2026-05-13T17:34:02Z</time>
      </trkpt>
      <trkpt lat="46.03018" lon="5.72493">
        <ele>1161.6</ele>
        <time>2026-05-13T17:34:03Z</time>
      </trkpt>
      <trkpt lat="46.03019" lon="5.72491">
        <ele>1161.6</ele>
        <time>2026-05-13T17:34:04Z</time>
      </trkpt>
      <trkpt lat="46.0302" lon="5.7249">
        <ele>1161.8</ele>
        <time>2026-05-13T17:34:05Z</time>
      </trkpt>
      <trkpt lat="46.03021" lon="5.72489">
        <ele>1162.2</ele>
        <time>2026-05-13T17:34:06Z</time>
      </trkpt>
      <trkpt lat="46.03022" lon="5.72487">
        <ele>1162.2</ele>
        <time>2026-05-13T17:34:07Z</time>
      </trkpt>
      <trkpt lat="46.03024" lon="5.72486">
        <ele>1162.2</ele>
        <time>2026-05-13T17:34:08Z</time>
      </trkpt>
      <trkpt lat="46.03025" lon="5.72485">
        <ele>1162.2</ele>
        <time>2026-05-13T17:34:09Z</time>
      </trkpt>
      <trkpt lat="46.03027" lon="5.72484">
        <ele>1162.2</ele>
        <time>2026-05-13T17:34:10Z</time>
      </trkpt>
      <trkpt lat="46.03028" lon="5.72483">
        <ele>1162.2</ele>
        <time>2026-05-13T17:34:11Z</time>
      </trkpt>
      <trkpt lat="46.0303" lon="5.72482">
        <ele>1162.2</ele>
        <time>2026-05-13T17:34:12Z</time>
      </trkpt>
      <trkpt lat="46.03032" lon="5.72481">
        <ele>1162.4</ele>
        <time>2026-05-13T17:34:13Z</time>
      </trkpt>
      <trkpt lat="46.03033" lon="5.7248">
        <ele>1162.2</ele>
        <time>2026-05-13T17:34:14Z</time>
      </trkpt>
      <trkpt lat="46.03036" lon="5.72479">
        <ele>1162</ele>
        <time>2026-05-13T17:34:15Z</time>
      </trkpt>
      <trkpt lat="46.03038" lon="5.72477">
        <ele>1162</ele>
        <time>2026-05-13T17:34:16Z</time>
      </trkpt>
      <trkpt lat="46.0304" lon="5.72475">
        <ele>1162</ele>
        <time>2026-05-13T17:34:17Z</time>
      </trkpt>
      <trkpt lat="46.03042" lon="5.72473">
        <ele>1162</ele>
        <time>2026-05-13T17:34:18Z</time>
      </trkpt>
      <trkpt lat="46.03045" lon="5.72471">
        <ele>1162</ele>
        <time>2026-05-13T17:34:19Z</time>
      </trkpt>
      <trkpt lat="46.03047" lon="5.72469">
        <ele>1162</ele>
        <time>2026-05-13T17:34:20Z</time>
      </trkpt>
      <trkpt lat="46.03049" lon="5.72467">
        <ele>1162</ele>
        <time>2026-05-13T17:34:21Z</time>
      </trkpt>
      <trkpt lat="46.03051" lon="5.72465">
        <ele>1162</ele>
        <time>2026-05-13T17:34:22Z</time>
      </trkpt>
      <trkpt lat="46.03052" lon="5.72463">
        <ele>1162</ele>
        <time>2026-05-13T17:34:23Z</time>
      </trkpt>
      <trkpt lat="46.03054" lon="5.72461">
        <ele>1162</ele>
        <time>2026-05-13T17:34:24Z</time>
      </trkpt>
      <trkpt lat="46.03056" lon="5.72459">
        <ele>1162</ele>
        <time>2026-05-13T17:34:25Z</time>
      </trkpt>
      <trkpt lat="46.03058" lon="5.72457">
        <ele>1162.2</ele>
        <time>2026-05-13T17:34:26Z</time>
      </trkpt>
      <trkpt lat="46.0306" lon="5.72454">
        <ele>1162.2</ele>
        <time>2026-05-13T17:34:27Z</time>
      </trkpt>
      <trkpt lat="46.03062" lon="5.72452">
        <ele>1162.2</ele>
        <time>2026-05-13T17:34:28Z</time>
      </trkpt>
      <trkpt lat="46.03064" lon="5.7245">
        <ele>1162.2</ele>
        <time>2026-05-13T17:34:29Z</time>
      </trkpt>
      <trkpt lat="46.03066" lon="5.72448">
        <ele>1162.2</ele>
        <time>2026-05-13T17:34:30Z</time>
      </trkpt>
      <trkpt lat="46.03068" lon="5.72445">
        <ele>1162.2</ele>
        <time>2026-05-13T17:34:31Z</time>
      </trkpt>
      <trkpt lat="46.0307" lon="5.72443">
        <ele>1162.2</ele>
        <time>2026-05-13T17:34:32Z</time>
      </trkpt>
      <trkpt lat="46.03072" lon="5.72442">
        <ele>1162.2</ele>
        <time>2026-05-13T17:34:33Z</time>
      </trkpt>
      <trkpt lat="46.03074" lon="5.7244">
        <ele>1162.2</ele>
        <time>2026-05-13T17:34:34Z</time>
      </trkpt>
      <trkpt lat="46.03076" lon="5.72438">
        <ele>1162.2</ele>
        <time>2026-05-13T17:34:35Z</time>
      </trkpt>
      <trkpt lat="46.03079" lon="5.72437">
        <ele>1162.2</ele>
        <time>2026-05-13T17:34:36Z</time>
      </trkpt>
      <trkpt lat="46.03081" lon="5.72435">
        <ele>1162.2</ele>
        <time>2026-05-13T17:34:37Z</time>
      </trkpt>
      <trkpt lat="46.03084" lon="5.72433">
        <ele>1162.2</ele>
        <time>2026-05-13T17:34:38Z</time>
      </trkpt>
      <trkpt lat="46.03086" lon="5.72432">
        <ele>1162</ele>
        <time>2026-05-13T17:34:39Z</time>
      </trkpt>
      <trkpt lat="46.03088" lon="5.72431">
        <ele>1162</ele>
        <time>2026-05-13T17:34:40Z</time>
      </trkpt>
      <trkpt lat="46.03091" lon="5.7243">
        <ele>1162</ele>
        <time>2026-05-13T17:34:41Z</time>
      </trkpt>
      <trkpt lat="46.03095" lon="5.72428">
        <ele>1162</ele>
        <time>2026-05-13T17:34:42Z</time>
      </trkpt>
      <trkpt lat="46.03097" lon="5.72427">
        <ele>1162</ele>
        <time>2026-05-13T17:34:43Z</time>
      </trkpt>
      <trkpt lat="46.031" lon="5.72426">
        <ele>1162.2</ele>
        <time>2026-05-13T17:34:44Z</time>
      </trkpt>
      <trkpt lat="46.03102" lon="5.72425">
        <ele>1162.2</ele>
        <time>2026-05-13T17:34:45Z</time>
      </trkpt>
      <trkpt lat="46.03104" lon="5.72423">
        <ele>1162.2</ele>
        <time>2026-05-13T17:34:46Z</time>
      </trkpt>
      <trkpt lat="46.03105" lon="5.72422">
        <ele>1162.4</ele>
        <time>2026-05-13T17:34:47Z</time>
      </trkpt>
      <trkpt lat="46.03107" lon="5.72421">
        <ele>1162.4</ele>
        <time>2026-05-13T17:34:48Z</time>
      </trkpt>
      <trkpt lat="46.03109" lon="5.72419">
        <ele>1162.4</ele>
        <time>2026-05-13T17:34:49Z</time>
      </trkpt>
      <trkpt lat="46.03112" lon="5.72419">
        <ele>1162.8</ele>
        <time>2026-05-13T17:34:50Z</time>
      </trkpt>
      <trkpt lat="46.03114" lon="5.72418">
        <ele>1162.8</ele>
        <time>2026-05-13T17:34:51Z</time>
      </trkpt>
      <trkpt lat="46.03116" lon="5.72417">
        <ele>1162.8</ele>
        <time>2026-05-13T17:34:52Z</time>
      </trkpt>
      <trkpt lat="46.03118" lon="5.72417">
        <ele>1162.8</ele>
        <time>2026-05-13T17:34:53Z</time>
      </trkpt>
      <trkpt lat="46.0312" lon="5.72416">
        <ele>1163</ele>
        <time>2026-05-13T17:34:54Z</time>
      </trkpt>
      <trkpt lat="46.03121" lon="5.72415">
        <ele>1163</ele>
        <time>2026-05-13T17:34:55Z</time>
      </trkpt>
      <trkpt lat="46.03123" lon="5.72415">
        <ele>1163</ele>
        <time>2026-05-13T17:34:56Z</time>
      </trkpt>
      <trkpt lat="46.03124" lon="5.72414">
        <ele>1163.4</ele>
        <time>2026-05-13T17:34:57Z</time>
      </trkpt>
      <trkpt lat="46.03126" lon="5.72413">
        <ele>1163.4</ele>
        <time>2026-05-13T17:34:58Z</time>
      </trkpt>
      <trkpt lat="46.03128" lon="5.72412">
        <ele>1163.4</ele>
        <time>2026-05-13T17:34:59Z</time>
      </trkpt>
      <trkpt lat="46.0313" lon="5.72411">
        <ele>1163.4</ele>
        <time>2026-05-13T17:35:00Z</time>
      </trkpt>
      <trkpt lat="46.03133" lon="5.72411">
        <ele>1163.2</ele>
        <time>2026-05-13T17:35:01Z</time>
      </trkpt>
      <trkpt lat="46.03135" lon="5.72409">
        <ele>1163.2</ele>
        <time>2026-05-13T17:35:02Z</time>
      </trkpt>
      <trkpt lat="46.03137" lon="5.72408">
        <ele>1163.2</ele>
        <time>2026-05-13T17:35:03Z</time>
      </trkpt>
      <trkpt lat="46.03139" lon="5.72407">
        <ele>1163.4</ele>
        <time>2026-05-13T17:35:04Z</time>
      </trkpt>
      <trkpt lat="46.03142" lon="5.72407">
        <ele>1163.4</ele>
        <time>2026-05-13T17:35:05Z</time>
      </trkpt>
      <trkpt lat="46.03144" lon="5.72406">
        <ele>1163.4</ele>
        <time>2026-05-13T17:35:06Z</time>
      </trkpt>
      <trkpt lat="46.03146" lon="5.72405">
        <ele>1163.4</ele>
        <time>2026-05-13T17:35:07Z</time>
      </trkpt>
      <trkpt lat="46.03149" lon="5.72404">
        <ele>1163.4</ele>
        <time>2026-05-13T17:35:08Z</time>
      </trkpt>
      <trkpt lat="46.03151" lon="5.72404">
        <ele>1163.4</ele>
        <time>2026-05-13T17:35:09Z</time>
      </trkpt>
      <trkpt lat="46.03153" lon="5.72403">
        <ele>1163.4</ele>
        <time>2026-05-13T17:35:10Z</time>
      </trkpt>
      <trkpt lat="46.03155" lon="5.72401">
        <ele>1163.4</ele>
        <time>2026-05-13T17:35:11Z</time>
      </trkpt>
      <trkpt lat="46.03157" lon="5.724">
        <ele>1163.4</ele>
        <time>2026-05-13T17:35:12Z</time>
      </trkpt>
      <trkpt lat="46.03159" lon="5.72398">
        <ele>1163.8</ele>
        <time>2026-05-13T17:35:13Z</time>
      </trkpt>
      <trkpt lat="46.03162" lon="5.72397">
        <ele>1163.8</ele>
        <time>2026-05-13T17:35:14Z</time>
      </trkpt>
      <trkpt lat="46.03164" lon="5.72396">
        <ele>1163.8</ele>
        <time>2026-05-13T17:35:15Z</time>
      </trkpt>
      <trkpt lat="46.03166" lon="5.72395">
        <ele>1163.8</ele>
        <time>2026-05-13T17:35:16Z</time>
      </trkpt>
      <trkpt lat="46.03167" lon="5.72394">
        <ele>1163.8</ele>
        <time>2026-05-13T17:35:17Z</time>
      </trkpt>
      <trkpt lat="46.03169" lon="5.72393">
        <ele>1163.8</ele>
        <time>2026-05-13T17:35:18Z</time>
      </trkpt>
      <trkpt lat="46.03171" lon="5.72392">
        <ele>1163.8</ele>
        <time>2026-05-13T17:35:19Z</time>
      </trkpt>
      <trkpt lat="46.03175" lon="5.72391">
        <ele>1163.8</ele>
        <time>2026-05-13T17:35:20Z</time>
      </trkpt>
      <trkpt lat="46.03177" lon="5.7239">
        <ele>1163.8</ele>
        <time>2026-05-13T17:35:21Z</time>
      </trkpt>
      <trkpt lat="46.0318" lon="5.72389">
        <ele>1163.8</ele>
        <time>2026-05-13T17:35:22Z</time>
      </trkpt>
      <trkpt lat="46.03181" lon="5.72389">
        <ele>1163.8</ele>
        <time>2026-05-13T17:35:23Z</time>
      </trkpt>
      <trkpt lat="46.03183" lon="5.72388">
        <ele>1163.8</ele>
        <time>2026-05-13T17:35:24Z</time>
      </trkpt>
      <trkpt lat="46.03185" lon="5.72387">
        <ele>1163.8</ele>
        <time>2026-05-13T17:35:25Z</time>
      </trkpt>
      <trkpt lat="46.03188" lon="5.72387">
        <ele>1164</ele>
        <time>2026-05-13T17:35:26Z</time>
      </trkpt>
      <trkpt lat="46.03189" lon="5.72387">
        <ele>1164</ele>
        <time>2026-05-13T17:35:27Z</time>
      </trkpt>
      <trkpt lat="46.03191" lon="5.72386">
        <ele>1164.4</ele>
        <time>2026-05-13T17:35:28Z</time>
      </trkpt>
      <trkpt lat="46.03193" lon="5.72385">
        <ele>1164.4</ele>
        <time>2026-05-13T17:35:29Z</time>
      </trkpt>
      <trkpt lat="46.03195" lon="5.72384">
        <ele>1164.4</ele>
        <time>2026-05-13T17:35:30Z</time>
      </trkpt>
      <trkpt lat="46.03196" lon="5.72383">
        <ele>1164.4</ele>
        <time>2026-05-13T17:35:31Z</time>
      </trkpt>
      <trkpt lat="46.03198" lon="5.72382">
        <ele>1164.6</ele>
        <time>2026-05-13T17:35:32Z</time>
      </trkpt>
      <trkpt lat="46.03199" lon="5.72381">
        <ele>1164.6</ele>
        <time>2026-05-13T17:35:33Z</time>
      </trkpt>
      <trkpt lat="46.032" lon="5.72381">
        <ele>1164.6</ele>
        <time>2026-05-13T17:35:34Z</time>
      </trkpt>
      <trkpt lat="46.032" lon="5.72381">
        <ele>1164.6</ele>
        <time>2026-05-13T17:35:35Z</time>
      </trkpt>
      <trkpt lat="46.03199" lon="5.72381">
        <ele>1164.6</ele>
        <time>2026-05-13T17:35:36Z</time>
      </trkpt>
      <trkpt lat="46.03198" lon="5.72378">
        <ele>1164.4</ele>
        <time>2026-05-13T17:36:04Z</time>
      </trkpt>
      <trkpt lat="46.03198" lon="5.72379">
        <ele>1164.4</ele>
        <time>2026-05-13T17:36:05Z</time>
      </trkpt>
      <trkpt lat="46.03198" lon="5.72379">
        <ele>1164.4</ele>
        <time>2026-05-13T17:36:06Z</time>
      </trkpt>
      <trkpt lat="46.032" lon="5.72378">
        <ele>1165.2</ele>
        <time>2026-05-13T17:37:11Z</time>
      </trkpt>
      <trkpt lat="46.03202" lon="5.72378">
        <ele>1165.2</ele>
        <time>2026-05-13T17:37:12Z</time>
      </trkpt>
      <trkpt lat="46.03204" lon="5.72378">
        <ele>1165.2</ele>
        <time>2026-05-13T17:37:13Z</time>
      </trkpt>
      <trkpt lat="46.03206" lon="5.72377">
        <ele>1165.2</ele>
        <time>2026-05-13T17:37:14Z</time>
      </trkpt>
      <trkpt lat="46.03208" lon="5.72377">
        <ele>1165.2</ele>
        <time>2026-05-13T17:37:15Z</time>
      </trkpt>
      <trkpt lat="46.0321" lon="5.72378">
        <ele>1164.6</ele>
        <time>2026-05-13T17:37:16Z</time>
      </trkpt>
      <trkpt lat="46.03212" lon="5.72379">
        <ele>1164.6</ele>
        <time>2026-05-13T17:37:17Z</time>
      </trkpt>
      <trkpt lat="46.03214" lon="5.7238">
        <ele>1164.6</ele>
        <time>2026-05-13T17:37:18Z</time>
      </trkpt>
      <trkpt lat="46.03216" lon="5.7238">
        <ele>1164.6</ele>
        <time>2026-05-13T17:37:19Z</time>
      </trkpt>
      <trkpt lat="46.03219" lon="5.7238">
        <ele>1164.8</ele>
        <time>2026-05-13T17:37:20Z</time>
      </trkpt>
      <trkpt lat="46.03221" lon="5.7238">
        <ele>1164.8</ele>
        <time>2026-05-13T17:37:21Z</time>
      </trkpt>
      <trkpt lat="46.03223" lon="5.72379">
        <ele>1164.8</ele>
        <time>2026-05-13T17:37:22Z</time>
      </trkpt>
      <trkpt lat="46.03225" lon="5.72379">
        <ele>1165</ele>
        <time>2026-05-13T17:37:23Z</time>
      </trkpt>
      <trkpt lat="46.03227" lon="5.72378">
        <ele>1165</ele>
        <time>2026-05-13T17:37:24Z</time>
      </trkpt>
      <trkpt lat="46.0323" lon="5.72378">
        <ele>1165.4</ele>
        <time>2026-05-13T17:37:25Z</time>
      </trkpt>
      <trkpt lat="46.03232" lon="5.72378">
        <ele>1165.4</ele>
        <time>2026-05-13T17:37:26Z</time>
      </trkpt>
      <trkpt lat="46.03234" lon="5.72377">
        <ele>1165.4</ele>
        <time>2026-05-13T17:37:27Z</time>
      </trkpt>
      <trkpt lat="46.03236" lon="5.72377">
        <ele>1165.4</ele>
        <time>2026-05-13T17:37:28Z</time>
      </trkpt>
      <trkpt lat="46.03238" lon="5.72377">
        <ele>1165.4</ele>
        <time>2026-05-13T17:37:29Z</time>
      </trkpt>
      <trkpt lat="46.0324" lon="5.72376">
        <ele>1165.4</ele>
        <time>2026-05-13T17:37:30Z</time>
      </trkpt>
      <trkpt lat="46.03242" lon="5.72376">
        <ele>1165.6</ele>
        <time>2026-05-13T17:37:31Z</time>
      </trkpt>
      <trkpt lat="46.03244" lon="5.72376">
        <ele>1165.6</ele>
        <time>2026-05-13T17:37:32Z</time>
      </trkpt>
      <trkpt lat="46.03245" lon="5.72376">
        <ele>1165.8</ele>
        <time>2026-05-13T17:37:33Z</time>
      </trkpt>
      <trkpt lat="46.03247" lon="5.72376">
        <ele>1165.8</ele>
        <time>2026-05-13T17:37:34Z</time>
      </trkpt>
      <trkpt lat="46.03249" lon="5.72375">
        <ele>1165.8</ele>
        <time>2026-05-13T17:37:35Z</time>
      </trkpt>
      <trkpt lat="46.03251" lon="5.72375">
        <ele>1165.8</ele>
        <time>2026-05-13T17:37:36Z</time>
      </trkpt>
      <trkpt lat="46.03253" lon="5.72374">
        <ele>1165.8</ele>
        <time>2026-05-13T17:37:37Z</time>
      </trkpt>
      <trkpt lat="46.03254" lon="5.72373">
        <ele>1166.2</ele>
        <time>2026-05-13T17:37:38Z</time>
      </trkpt>
      <trkpt lat="46.03255" lon="5.72373">
        <ele>1166.4</ele>
        <time>2026-05-13T17:37:39Z</time>
      </trkpt>
      <trkpt lat="46.03257" lon="5.72372">
        <ele>1166.4</ele>
        <time>2026-05-13T17:37:40Z</time>
      </trkpt>
      <trkpt lat="46.03259" lon="5.72372">
        <ele>1166.4</ele>
        <time>2026-05-13T17:37:41Z</time>
      </trkpt>
      <trkpt lat="46.03261" lon="5.72371">
        <ele>1166.6</ele>
        <time>2026-05-13T17:37:42Z</time>
      </trkpt>
      <trkpt lat="46.03262" lon="5.72371">
        <ele>1166.6</ele>
        <time>2026-05-13T17:37:43Z</time>
      </trkpt>
      <trkpt lat="46.03263" lon="5.7237">
        <ele>1166.6</ele>
        <time>2026-05-13T17:37:44Z</time>
      </trkpt>
      <trkpt lat="46.03265" lon="5.7237">
        <ele>1167</ele>
        <time>2026-05-13T17:37:45Z</time>
      </trkpt>
      <trkpt lat="46.03266" lon="5.7237">
        <ele>1167</ele>
        <time>2026-05-13T17:37:46Z</time>
      </trkpt>
      <trkpt lat="46.03267" lon="5.72369">
        <ele>1167</ele>
        <time>2026-05-13T17:37:47Z</time>
      </trkpt>
      <trkpt lat="46.03269" lon="5.72369">
        <ele>1167.2</ele>
        <time>2026-05-13T17:37:48Z</time>
      </trkpt>
      <trkpt lat="46.03271" lon="5.72369">
        <ele>1167.2</ele>
        <time>2026-05-13T17:37:49Z</time>
      </trkpt>
      <trkpt lat="46.03273" lon="5.72369">
        <ele>1167.2</ele>
        <time>2026-05-13T17:37:50Z</time>
      </trkpt>
      <trkpt lat="46.03274" lon="5.72369">
        <ele>1167.2</ele>
        <time>2026-05-13T17:37:51Z</time>
      </trkpt>
      <trkpt lat="46.03276" lon="5.72368">
        <ele>1167.2</ele>
        <time>2026-05-13T17:37:52Z</time>
      </trkpt>
      <trkpt lat="46.03278" lon="5.72368">
        <ele>1167.6</ele>
        <time>2026-05-13T17:37:53Z</time>
      </trkpt>
      <trkpt lat="46.03279" lon="5.72369">
        <ele>1167.6</ele>
        <time>2026-05-13T17:37:54Z</time>
      </trkpt>
      <trkpt lat="46.0328" lon="5.72369">
        <ele>1167.8</ele>
        <time>2026-05-13T17:37:55Z</time>
      </trkpt>
      <trkpt lat="46.03282" lon="5.72369">
        <ele>1167.8</ele>
        <time>2026-05-13T17:37:56Z</time>
      </trkpt>
      <trkpt lat="46.03284" lon="5.72369">
        <ele>1168.2</ele>
        <time>2026-05-13T17:37:57Z</time>
      </trkpt>
      <trkpt lat="46.03286" lon="5.72368">
        <ele>1168.2</ele>
        <time>2026-05-13T17:37:58Z</time>
      </trkpt>
      <trkpt lat="46.03288" lon="5.72368">
        <ele>1168.4</ele>
        <time>2026-05-13T17:37:59Z</time>
      </trkpt>
      <trkpt lat="46.0329" lon="5.72368">
        <ele>1168.4</ele>
        <time>2026-05-13T17:38:00Z</time>
      </trkpt>
      <trkpt lat="46.03292" lon="5.72369">
        <ele>1168.4</ele>
        <time>2026-05-13T17:38:01Z</time>
      </trkpt>
      <trkpt lat="46.03293" lon="5.72369">
        <ele>1168.4</ele>
        <time>2026-05-13T17:38:02Z</time>
      </trkpt>
      <trkpt lat="46.03295" lon="5.72369">
        <ele>1168.8</ele>
        <time>2026-05-13T17:38:03Z</time>
      </trkpt>
      <trkpt lat="46.03297" lon="5.72368">
        <ele>1168.8</ele>
        <time>2026-05-13T17:38:04Z</time>
      </trkpt>
      <trkpt lat="46.03298" lon="5.72368">
        <ele>1169</ele>
        <time>2026-05-13T17:38:05Z</time>
      </trkpt>
      <trkpt lat="46.033" lon="5.72369">
        <ele>1169</ele>
        <time>2026-05-13T17:38:06Z</time>
      </trkpt>
      <trkpt lat="46.03302" lon="5.72369">
        <ele>1169.2</ele>
        <time>2026-05-13T17:38:07Z</time>
      </trkpt>
      <trkpt lat="46.03304" lon="5.72369">
        <ele>1169.2</ele>
        <time>2026-05-13T17:38:08Z</time>
      </trkpt>
      <trkpt lat="46.03306" lon="5.72369">
        <ele>1169.2</ele>
        <time>2026-05-13T17:38:09Z</time>
      </trkpt>
      <trkpt lat="46.03307" lon="5.72369">
        <ele>1169.2</ele>
        <time>2026-05-13T17:38:10Z</time>
      </trkpt>
      <trkpt lat="46.0331" lon="5.72369">
        <ele>1169.4</ele>
        <time>2026-05-13T17:38:11Z</time>
      </trkpt>
      <trkpt lat="46.03312" lon="5.72369">
        <ele>1169.4</ele>
        <time>2026-05-13T17:38:12Z</time>
      </trkpt>
      <trkpt lat="46.03314" lon="5.72368">
        <ele>1169.4</ele>
        <time>2026-05-13T17:38:13Z</time>
      </trkpt>
      <trkpt lat="46.03316" lon="5.72368">
        <ele>1169.8</ele>
        <time>2026-05-13T17:38:14Z</time>
      </trkpt>
      <trkpt lat="46.03318" lon="5.72369">
        <ele>1169.8</ele>
        <time>2026-05-13T17:38:15Z</time>
      </trkpt>
      <trkpt lat="46.03319" lon="5.72369">
        <ele>1169.8</ele>
        <time>2026-05-13T17:38:16Z</time>
      </trkpt>
      <trkpt lat="46.03321" lon="5.72369">
        <ele>1169.8</ele>
        <time>2026-05-13T17:38:17Z</time>
      </trkpt>
      <trkpt lat="46.03323" lon="5.7237">
        <ele>1170.2</ele>
        <time>2026-05-13T17:38:18Z</time>
      </trkpt>
      <trkpt lat="46.03325" lon="5.7237">
        <ele>1170.2</ele>
        <time>2026-05-13T17:38:19Z</time>
      </trkpt>
      <trkpt lat="46.03326" lon="5.7237">
        <ele>1170.4</ele>
        <time>2026-05-13T17:38:20Z</time>
      </trkpt>
      <trkpt lat="46.03328" lon="5.72371">
        <ele>1170.4</ele>
        <time>2026-05-13T17:38:21Z</time>
      </trkpt>
      <trkpt lat="46.0333" lon="5.72371">
        <ele>1170.6</ele>
        <time>2026-05-13T17:38:22Z</time>
      </trkpt>
      <trkpt lat="46.03331" lon="5.72372">
        <ele>1170.6</ele>
        <time>2026-05-13T17:38:23Z</time>
      </trkpt>
      <trkpt lat="46.03333" lon="5.72372">
        <ele>1170.6</ele>
        <time>2026-05-13T17:38:24Z</time>
      </trkpt>
      <trkpt lat="46.03334" lon="5.72373">
        <ele>1170.6</ele>
        <time>2026-05-13T17:38:25Z</time>
      </trkpt>
      <trkpt lat="46.03336" lon="5.72374">
        <ele>1171</ele>
        <time>2026-05-13T17:38:26Z</time>
      </trkpt>
      <trkpt lat="46.03338" lon="5.72375">
        <ele>1171.2</ele>
        <time>2026-05-13T17:38:27Z</time>
      </trkpt>
      <trkpt lat="46.03339" lon="5.72376">
        <ele>1171.2</ele>
        <time>2026-05-13T17:38:28Z</time>
      </trkpt>
      <trkpt lat="46.03341" lon="5.72376">
        <ele>1171.4</ele>
        <time>2026-05-13T17:38:29Z</time>
      </trkpt>
      <trkpt lat="46.03342" lon="5.72377">
        <ele>1171.4</ele>
        <time>2026-05-13T17:38:30Z</time>
      </trkpt>
      <trkpt lat="46.03345" lon="5.72378">
        <ele>1171.8</ele>
        <time>2026-05-13T17:38:31Z</time>
      </trkpt>
      <trkpt lat="46.03347" lon="5.72379">
        <ele>1171.8</ele>
        <time>2026-05-13T17:38:32Z</time>
      </trkpt>
      <trkpt lat="46.03348" lon="5.72379">
        <ele>1171.8</ele>
        <time>2026-05-13T17:38:33Z</time>
      </trkpt>
      <trkpt lat="46.03349" lon="5.7238">
        <ele>1172</ele>
        <time>2026-05-13T17:38:34Z</time>
      </trkpt>
      <trkpt lat="46.03351" lon="5.7238">
        <ele>1172</ele>
        <time>2026-05-13T17:38:35Z</time>
      </trkpt>
      <trkpt lat="46.03352" lon="5.7238">
        <ele>1172</ele>
        <time>2026-05-13T17:38:36Z</time>
      </trkpt>
      <trkpt lat="46.03354" lon="5.7238">
        <ele>1172</ele>
        <time>2026-05-13T17:38:37Z</time>
      </trkpt>
      <trkpt lat="46.03355" lon="5.7238">
        <ele>1172.2</ele>
        <time>2026-05-13T17:38:38Z</time>
      </trkpt>
      <trkpt lat="46.03357" lon="5.7238">
        <ele>1172.2</ele>
        <time>2026-05-13T17:38:39Z</time>
      </trkpt>
      <trkpt lat="46.03357" lon="5.7238">
        <ele>1172.6</ele>
        <time>2026-05-13T17:38:40Z</time>
      </trkpt>
      <trkpt lat="46.03358" lon="5.7238">
        <ele>1172.6</ele>
        <time>2026-05-13T17:38:41Z</time>
      </trkpt>
      <trkpt lat="46.0336" lon="5.7238">
        <ele>1173</ele>
        <time>2026-05-13T17:38:42Z</time>
      </trkpt>
      <trkpt lat="46.03361" lon="5.72381">
        <ele>1173</ele>
        <time>2026-05-13T17:38:43Z</time>
      </trkpt>
      <trkpt lat="46.03362" lon="5.72381">
        <ele>1173</ele>
        <time>2026-05-13T17:38:44Z</time>
      </trkpt>
      <trkpt lat="46.03362" lon="5.72381">
        <ele>1173.2</ele>
        <time>2026-05-13T17:38:45Z</time>
      </trkpt>
      <trkpt lat="46.03363" lon="5.72382">
        <ele>1173.2</ele>
        <time>2026-05-13T17:38:46Z</time>
      </trkpt>
      <trkpt lat="46.03365" lon="5.72382">
        <ele>1173.2</ele>
        <time>2026-05-13T17:38:47Z</time>
      </trkpt>
      <trkpt lat="46.03366" lon="5.72382">
        <ele>1173.2</ele>
        <time>2026-05-13T17:38:48Z</time>
      </trkpt>
      <trkpt lat="46.03368" lon="5.72382">
        <ele>1173.2</ele>
        <time>2026-05-13T17:38:49Z</time>
      </trkpt>
      <trkpt lat="46.03369" lon="5.72382">
        <ele>1173.4</ele>
        <time>2026-05-13T17:38:50Z</time>
      </trkpt>
      <trkpt lat="46.03371" lon="5.72382">
        <ele>1173.4</ele>
        <time>2026-05-13T17:38:51Z</time>
      </trkpt>
      <trkpt lat="46.03372" lon="5.72382">
        <ele>1173.6</ele>
        <time>2026-05-13T17:38:52Z</time>
      </trkpt>
      <trkpt lat="46.03373" lon="5.72382">
        <ele>1173.6</ele>
        <time>2026-05-13T17:38:53Z</time>
      </trkpt>
      <trkpt lat="46.03375" lon="5.72382">
        <ele>1173.8</ele>
        <time>2026-05-13T17:38:54Z</time>
      </trkpt>
      <trkpt lat="46.03376" lon="5.72382">
        <ele>1173.8</ele>
        <time>2026-05-13T17:38:55Z</time>
      </trkpt>
      <trkpt lat="46.03378" lon="5.72382">
        <ele>1174.2</ele>
        <time>2026-05-13T17:38:56Z</time>
      </trkpt>
      <trkpt lat="46.03379" lon="5.72381">
        <ele>1174.2</ele>
        <time>2026-05-13T17:38:57Z</time>
      </trkpt>
      <trkpt lat="46.03381" lon="5.72381">
        <ele>1174.4</ele>
        <time>2026-05-13T17:38:58Z</time>
      </trkpt>
      <trkpt lat="46.03382" lon="5.7238">
        <ele>1174.4</ele>
        <time>2026-05-13T17:38:59Z</time>
      </trkpt>
      <trkpt lat="46.03384" lon="5.72379">
        <ele>1174.4</ele>
        <time>2026-05-13T17:39:00Z</time>
      </trkpt>
      <trkpt lat="46.03385" lon="5.72378">
        <ele>1174.6</ele>
        <time>2026-05-13T17:39:01Z</time>
      </trkpt>
      <trkpt lat="46.03386" lon="5.72378">
        <ele>1174.6</ele>
        <time>2026-05-13T17:39:02Z</time>
      </trkpt>
      <trkpt lat="46.03388" lon="5.72377">
        <ele>1175</ele>
        <time>2026-05-13T17:39:03Z</time>
      </trkpt>
      <trkpt lat="46.03388" lon="5.72376">
        <ele>1175</ele>
        <time>2026-05-13T17:39:04Z</time>
      </trkpt>
      <trkpt lat="46.03389" lon="5.72375">
        <ele>1175</ele>
        <time>2026-05-13T17:39:05Z</time>
      </trkpt>
      <trkpt lat="46.0339" lon="5.72374">
        <ele>1175</ele>
        <time>2026-05-13T17:39:06Z</time>
      </trkpt>
      <trkpt lat="46.03392" lon="5.72372">
        <ele>1175</ele>
        <time>2026-05-13T17:39:07Z</time>
      </trkpt>
      <trkpt lat="46.03392" lon="5.72371">
        <ele>1175.2</ele>
        <time>2026-05-13T17:39:08Z</time>
      </trkpt>
      <trkpt lat="46.03393" lon="5.7237">
        <ele>1175.4</ele>
        <time>2026-05-13T17:39:09Z</time>
      </trkpt>
      <trkpt lat="46.03394" lon="5.72368">
        <ele>1175.4</ele>
        <time>2026-05-13T17:39:10Z</time>
      </trkpt>
      <trkpt lat="46.03394" lon="5.72367">
        <ele>1175.6</ele>
        <time>2026-05-13T17:39:11Z</time>
      </trkpt>
      <trkpt lat="46.03395" lon="5.72365">
        <ele>1175.6</ele>
        <time>2026-05-13T17:39:12Z</time>
      </trkpt>
      <trkpt lat="46.03395" lon="5.72363">
        <ele>1175.6</ele>
        <time>2026-05-13T17:39:13Z</time>
      </trkpt>
      <trkpt lat="46.03396" lon="5.72362">
        <ele>1175.6</ele>
        <time>2026-05-13T17:39:14Z</time>
      </trkpt>
      <trkpt lat="46.03396" lon="5.7236">
        <ele>1176</ele>
        <time>2026-05-13T17:39:15Z</time>
      </trkpt>
      <trkpt lat="46.03396" lon="5.72358">
        <ele>1176.2</ele>
        <time>2026-05-13T17:39:16Z</time>
      </trkpt>
      <trkpt lat="46.03395" lon="5.72356">
        <ele>1176.2</ele>
        <time>2026-05-13T17:39:17Z</time>
      </trkpt>
      <trkpt lat="46.03395" lon="5.72354">
        <ele>1176.2</ele>
        <time>2026-05-13T17:39:18Z</time>
      </trkpt>
      <trkpt lat="46.03395" lon="5.72352">
        <ele>1176.4</ele>
        <time>2026-05-13T17:39:19Z</time>
      </trkpt>
      <trkpt lat="46.03395" lon="5.7235">
        <ele>1176.4</ele>
        <time>2026-05-13T17:39:20Z</time>
      </trkpt>
      <trkpt lat="46.03395" lon="5.72348">
        <ele>1176.6</ele>
        <time>2026-05-13T17:39:21Z</time>
      </trkpt>
      <trkpt lat="46.03395" lon="5.72346">
        <ele>1176.8</ele>
        <time>2026-05-13T17:39:22Z</time>
      </trkpt>
      <trkpt lat="46.03395" lon="5.72344">
        <ele>1176.8</ele>
        <time>2026-05-13T17:39:23Z</time>
      </trkpt>
      <trkpt lat="46.03394" lon="5.72342">
        <ele>1177.2</ele>
        <time>2026-05-13T17:39:24Z</time>
      </trkpt>
      <trkpt lat="46.03394" lon="5.72341">
        <ele>1177.2</ele>
        <time>2026-05-13T17:39:25Z</time>
      </trkpt>
      <trkpt lat="46.03394" lon="5.72339">
        <ele>1177.2</ele>
        <time>2026-05-13T17:39:26Z</time>
      </trkpt>
      <trkpt lat="46.03393" lon="5.72337">
        <ele>1177.4</ele>
        <time>2026-05-13T17:39:27Z</time>
      </trkpt>
      <trkpt lat="46.03392" lon="5.72335">
        <ele>1177.6</ele>
        <time>2026-05-13T17:39:28Z</time>
      </trkpt>
      <trkpt lat="46.03391" lon="5.72333">
        <ele>1177.6</ele>
        <time>2026-05-13T17:39:29Z</time>
      </trkpt>
      <trkpt lat="46.03391" lon="5.72331">
        <ele>1177.8</ele>
        <time>2026-05-13T17:39:30Z</time>
      </trkpt>
      <trkpt lat="46.0339" lon="5.7233">
        <ele>1177.8</ele>
        <time>2026-05-13T17:39:31Z</time>
      </trkpt>
      <trkpt lat="46.03389" lon="5.72328">
        <ele>1177.8</ele>
        <time>2026-05-13T17:39:32Z</time>
      </trkpt>
      <trkpt lat="46.03389" lon="5.72327">
        <ele>1178</ele>
        <time>2026-05-13T17:39:33Z</time>
      </trkpt>
      <trkpt lat="46.03388" lon="5.72325">
        <ele>1178</ele>
        <time>2026-05-13T17:39:34Z</time>
      </trkpt>
      <trkpt lat="46.03388" lon="5.72324">
        <ele>1178.4</ele>
        <time>2026-05-13T17:39:35Z</time>
      </trkpt>
      <trkpt lat="46.03387" lon="5.72322">
        <ele>1178.4</ele>
        <time>2026-05-13T17:39:36Z</time>
      </trkpt>
      <trkpt lat="46.03387" lon="5.72321">
        <ele>1178.4</ele>
        <time>2026-05-13T17:39:37Z</time>
      </trkpt>
      <trkpt lat="46.03386" lon="5.7232">
        <ele>1178.6</ele>
        <time>2026-05-13T17:39:38Z</time>
      </trkpt>
      <trkpt lat="46.03386" lon="5.72319">
        <ele>1178.6</ele>
        <time>2026-05-13T17:39:39Z</time>
      </trkpt>
      <trkpt lat="46.03385" lon="5.72317">
        <ele>1178.6</ele>
        <time>2026-05-13T17:39:40Z</time>
      </trkpt>
      <trkpt lat="46.03384" lon="5.72315">
        <ele>1179</ele>
        <time>2026-05-13T17:39:41Z</time>
      </trkpt>
      <trkpt lat="46.03383" lon="5.72314">
        <ele>1179</ele>
        <time>2026-05-13T17:39:42Z</time>
      </trkpt>
      <trkpt lat="46.03382" lon="5.72312">
        <ele>1179.4</ele>
        <time>2026-05-13T17:39:43Z</time>
      </trkpt>
      <trkpt lat="46.03382" lon="5.72312">
        <ele>1179.4</ele>
        <time>2026-05-13T17:39:44Z</time>
      </trkpt>
      <trkpt lat="46.03382" lon="5.72312">
        <ele>1179.6</ele>
        <time>2026-05-13T17:39:45Z</time>
      </trkpt>
      <trkpt lat="46.0338" lon="5.72303">
        <ele>1180</ele>
        <time>2026-05-13T17:39:48Z</time>
      </trkpt>
      <trkpt lat="46.0338" lon="5.72301">
        <ele>1180</ele>
        <time>2026-05-13T17:39:49Z</time>
      </trkpt>
      <trkpt lat="46.0338" lon="5.72298">
        <ele>1180.2</ele>
        <time>2026-05-13T17:39:50Z</time>
      </trkpt>
      <trkpt lat="46.0338" lon="5.72296">
        <ele>1180.2</ele>
        <time>2026-05-13T17:39:51Z</time>
      </trkpt>
      <trkpt lat="46.0338" lon="5.72294">
        <ele>1180.6</ele>
        <time>2026-05-13T17:39:52Z</time>
      </trkpt>
      <trkpt lat="46.03379" lon="5.72292">
        <ele>1180.6</ele>
        <time>2026-05-13T17:39:53Z</time>
      </trkpt>
      <trkpt lat="46.03379" lon="5.7229">
        <ele>1180.8</ele>
        <time>2026-05-13T17:39:54Z</time>
      </trkpt>
      <trkpt lat="46.03379" lon="5.72288">
        <ele>1180.8</ele>
        <time>2026-05-13T17:39:55Z</time>
      </trkpt>
      <trkpt lat="46.03378" lon="5.72286">
        <ele>1181</ele>
        <time>2026-05-13T17:39:56Z</time>
      </trkpt>
      <trkpt lat="46.03378" lon="5.72284">
        <ele>1181</ele>
        <time>2026-05-13T17:39:57Z</time>
      </trkpt>
      <trkpt lat="46.03378" lon="5.72282">
        <ele>1181.2</ele>
        <time>2026-05-13T17:39:58Z</time>
      </trkpt>
      <trkpt lat="46.03378" lon="5.7228">
        <ele>1181.2</ele>
        <time>2026-05-13T17:39:59Z</time>
      </trkpt>
      <trkpt lat="46.03378" lon="5.72279">
        <ele>1181.4</ele>
        <time>2026-05-13T17:40:00Z</time>
      </trkpt>
      <trkpt lat="46.03377" lon="5.72276">
        <ele>1181.4</ele>
        <time>2026-05-13T17:40:01Z</time>
      </trkpt>
      <trkpt lat="46.03377" lon="5.72274">
        <ele>1181.4</ele>
        <time>2026-05-13T17:40:02Z</time>
      </trkpt>
      <trkpt lat="46.03376" lon="5.72273">
        <ele>1181.4</ele>
        <time>2026-05-13T17:40:03Z</time>
      </trkpt>
      <trkpt lat="46.03376" lon="5.72271">
        <ele>1181.4</ele>
        <time>2026-05-13T17:40:04Z</time>
      </trkpt>
      <trkpt lat="46.03376" lon="5.72269">
        <ele>1181.4</ele>
        <time>2026-05-13T17:40:05Z</time>
      </trkpt>
      <trkpt lat="46.03375" lon="5.72267">
        <ele>1181.6</ele>
        <time>2026-05-13T17:40:06Z</time>
      </trkpt>
      <trkpt lat="46.03375" lon="5.72265">
        <ele>1181.8</ele>
        <time>2026-05-13T17:40:07Z</time>
      </trkpt>
      <trkpt lat="46.03374" lon="5.72263">
        <ele>1181.8</ele>
        <time>2026-05-13T17:40:08Z</time>
      </trkpt>
      <trkpt lat="46.03374" lon="5.7226">
        <ele>1181.8</ele>
        <time>2026-05-13T17:40:09Z</time>
      </trkpt>
      <trkpt lat="46.03373" lon="5.72258">
        <ele>1181.8</ele>
        <time>2026-05-13T17:40:10Z</time>
      </trkpt>
      <trkpt lat="46.03372" lon="5.72256">
        <ele>1182.2</ele>
        <time>2026-05-13T17:40:11Z</time>
      </trkpt>
      <trkpt lat="46.03372" lon="5.72254">
        <ele>1182.2</ele>
        <time>2026-05-13T17:40:12Z</time>
      </trkpt>
      <trkpt lat="46.03371" lon="5.72251">
        <ele>1182.4</ele>
        <time>2026-05-13T17:40:13Z</time>
      </trkpt>
      <trkpt lat="46.0337" lon="5.72249">
        <ele>1182.8</ele>
        <time>2026-05-13T17:40:14Z</time>
      </trkpt>
      <trkpt lat="46.0337" lon="5.72246">
        <ele>1182.8</ele>
        <time>2026-05-13T17:40:15Z</time>
      </trkpt>
      <trkpt lat="46.03369" lon="5.72244">
        <ele>1182.8</ele>
        <time>2026-05-13T17:40:16Z</time>
      </trkpt>
      <trkpt lat="46.03368" lon="5.72242">
        <ele>1182.8</ele>
        <time>2026-05-13T17:40:17Z</time>
      </trkpt>
      <trkpt lat="46.03368" lon="5.7224">
        <ele>1182.8</ele>
        <time>2026-05-13T17:40:18Z</time>
      </trkpt>
      <trkpt lat="46.03367" lon="5.72237">
        <ele>1182.8</ele>
        <time>2026-05-13T17:40:19Z</time>
      </trkpt>
      <trkpt lat="46.03366" lon="5.72234">
        <ele>1182.8</ele>
        <time>2026-05-13T17:40:20Z</time>
      </trkpt>
      <trkpt lat="46.03365" lon="5.72232">
        <ele>1182.8</ele>
        <time>2026-05-13T17:40:21Z</time>
      </trkpt>
      <trkpt lat="46.03364" lon="5.72229">
        <ele>1182.8</ele>
        <time>2026-05-13T17:40:22Z</time>
      </trkpt>
      <trkpt lat="46.03363" lon="5.72226">
        <ele>1182.8</ele>
        <time>2026-05-13T17:40:23Z</time>
      </trkpt>
      <trkpt lat="46.03362" lon="5.72224">
        <ele>1182.8</ele>
        <time>2026-05-13T17:40:24Z</time>
      </trkpt>
      <trkpt lat="46.03361" lon="5.72223">
        <ele>1182.8</ele>
        <time>2026-05-13T17:40:25Z</time>
      </trkpt>
      <trkpt lat="46.0336" lon="5.72221">
        <ele>1182.8</ele>
        <time>2026-05-13T17:40:26Z</time>
      </trkpt>
      <trkpt lat="46.03359" lon="5.72219">
        <ele>1182.8</ele>
        <time>2026-05-13T17:40:27Z</time>
      </trkpt>
      <trkpt lat="46.03358" lon="5.72217">
        <ele>1183.2</ele>
        <time>2026-05-13T17:40:28Z</time>
      </trkpt>
      <trkpt lat="46.03355" lon="5.72214">
        <ele>1183.2</ele>
        <time>2026-05-13T17:40:29Z</time>
      </trkpt>
      <trkpt lat="46.03353" lon="5.72212">
        <ele>1183.4</ele>
        <time>2026-05-13T17:40:30Z</time>
      </trkpt>
      <trkpt lat="46.03351" lon="5.72211">
        <ele>1183.4</ele>
        <time>2026-05-13T17:40:31Z</time>
      </trkpt>
      <trkpt lat="46.0335" lon="5.72209">
        <ele>1183.4</ele>
        <time>2026-05-13T17:40:32Z</time>
      </trkpt>
      <trkpt lat="46.03348" lon="5.72208">
        <ele>1183.6</ele>
        <time>2026-05-13T17:40:33Z</time>
      </trkpt>
      <trkpt lat="46.03346" lon="5.72206">
        <ele>1183.6</ele>
        <time>2026-05-13T17:40:34Z</time>
      </trkpt>
      <trkpt lat="46.03344" lon="5.72204">
        <ele>1184</ele>
        <time>2026-05-13T17:40:35Z</time>
      </trkpt>
      <trkpt lat="46.03344" lon="5.72204">
        <ele>1184</ele>
        <time>2026-05-13T17:40:36Z</time>
      </trkpt>
      <trkpt lat="46.03344" lon="5.72204">
        <ele>1184.2</ele>
        <time>2026-05-13T17:40:37Z</time>
      </trkpt>
      <trkpt lat="46.03341" lon="5.72201">
        <ele>1184</ele>
        <time>2026-05-13T17:40:38Z</time>
      </trkpt>
      <trkpt lat="46.03339" lon="5.722">
        <ele>1184</ele>
        <time>2026-05-13T17:40:39Z</time>
      </trkpt>
      <trkpt lat="46.03337" lon="5.72199">
        <ele>1184.2</ele>
        <time>2026-05-13T17:40:40Z</time>
      </trkpt>
      <trkpt lat="46.03335" lon="5.72198">
        <ele>1184.2</ele>
        <time>2026-05-13T17:40:41Z</time>
      </trkpt>
      <trkpt lat="46.03333" lon="5.72197">
        <ele>1184.2</ele>
        <time>2026-05-13T17:40:42Z</time>
      </trkpt>
      <trkpt lat="46.03331" lon="5.72196">
        <ele>1184.2</ele>
        <time>2026-05-13T17:40:43Z</time>
      </trkpt>
      <trkpt lat="46.0333" lon="5.72195">
        <ele>1184.6</ele>
        <time>2026-05-13T17:40:44Z</time>
      </trkpt>
      <trkpt lat="46.03328" lon="5.72194">
        <ele>1184.8</ele>
        <time>2026-05-13T17:40:45Z</time>
      </trkpt>
      <trkpt lat="46.03327" lon="5.72193">
        <ele>1184.8</ele>
        <time>2026-05-13T17:40:46Z</time>
      </trkpt>
      <trkpt lat="46.03325" lon="5.72192">
        <ele>1185.2</ele>
        <time>2026-05-13T17:40:47Z</time>
      </trkpt>
      <trkpt lat="46.03324" lon="5.7219">
        <ele>1185.2</ele>
        <time>2026-05-13T17:40:48Z</time>
      </trkpt>
      <trkpt lat="46.03322" lon="5.72188">
        <ele>1185.4</ele>
        <time>2026-05-13T17:40:49Z</time>
      </trkpt>
      <trkpt lat="46.03321" lon="5.72186">
        <ele>1185.6</ele>
        <time>2026-05-13T17:40:50Z</time>
      </trkpt>
      <trkpt lat="46.03319" lon="5.72185">
        <ele>1185.6</ele>
        <time>2026-05-13T17:40:51Z</time>
      </trkpt>
      <trkpt lat="46.03318" lon="5.72184">
        <ele>1186</ele>
        <time>2026-05-13T17:40:52Z</time>
      </trkpt>
      <trkpt lat="46.03317" lon="5.72182">
        <ele>1186</ele>
        <time>2026-05-13T17:40:53Z</time>
      </trkpt>
      <trkpt lat="46.03314" lon="5.72178">
        <ele>1186</ele>
        <time>2026-05-13T17:40:54Z</time>
      </trkpt>
      <trkpt lat="46.03313" lon="5.72176">
        <ele>1186</ele>
        <time>2026-05-13T17:40:55Z</time>
      </trkpt>
      <trkpt lat="46.03312" lon="5.72174">
        <ele>1186</ele>
        <time>2026-05-13T17:40:56Z</time>
      </trkpt>
      <trkpt lat="46.0331" lon="5.72171">
        <ele>1186</ele>
        <time>2026-05-13T17:40:57Z</time>
      </trkpt>
      <trkpt lat="46.03309" lon="5.7217">
        <ele>1185.8</ele>
        <time>2026-05-13T17:40:58Z</time>
      </trkpt>
      <trkpt lat="46.03308" lon="5.72168">
        <ele>1185.8</ele>
        <time>2026-05-13T17:40:59Z</time>
      </trkpt>
      <trkpt lat="46.03307" lon="5.72167">
        <ele>1185.8</ele>
        <time>2026-05-13T17:41:00Z</time>
      </trkpt>
      <trkpt lat="46.03306" lon="5.72165">
        <ele>1185.8</ele>
        <time>2026-05-13T17:41:01Z</time>
      </trkpt>
      <trkpt lat="46.03305" lon="5.72162">
        <ele>1185.8</ele>
        <time>2026-05-13T17:41:02Z</time>
      </trkpt>
      <trkpt lat="46.03304" lon="5.7216">
        <ele>1185.8</ele>
        <time>2026-05-13T17:41:03Z</time>
      </trkpt>
      <trkpt lat="46.03302" lon="5.72157">
        <ele>1185.8</ele>
        <time>2026-05-13T17:41:04Z</time>
      </trkpt>
      <trkpt lat="46.033" lon="5.72154">
        <ele>1185.8</ele>
        <time>2026-05-13T17:41:05Z</time>
      </trkpt>
      <trkpt lat="46.03298" lon="5.72151">
        <ele>1185.8</ele>
        <time>2026-05-13T17:41:06Z</time>
      </trkpt>
      <trkpt lat="46.03296" lon="5.72148">
        <ele>1185.8</ele>
        <time>2026-05-13T17:41:07Z</time>
      </trkpt>
      <trkpt lat="46.03293" lon="5.72144">
        <ele>1185.8</ele>
        <time>2026-05-13T17:41:08Z</time>
      </trkpt>
      <trkpt lat="46.03291" lon="5.72141">
        <ele>1185.8</ele>
        <time>2026-05-13T17:41:09Z</time>
      </trkpt>
      <trkpt lat="46.03287" lon="5.72137">
        <ele>1185</ele>
        <time>2026-05-13T17:41:10Z</time>
      </trkpt>
      <trkpt lat="46.03283" lon="5.72134">
        <ele>1184.2</ele>
        <time>2026-05-13T17:41:11Z</time>
      </trkpt>
      <trkpt lat="46.0328" lon="5.7213">
        <ele>1184.2</ele>
        <time>2026-05-13T17:41:12Z</time>
      </trkpt>
      <trkpt lat="46.03276" lon="5.72127">
        <ele>1183.8</ele>
        <time>2026-05-13T17:41:13Z</time>
      </trkpt>
      <trkpt lat="46.03272" lon="5.72122">
        <ele>1183</ele>
        <time>2026-05-13T17:41:14Z</time>
      </trkpt>
      <trkpt lat="46.03268" lon="5.72117">
        <ele>1182.8</ele>
        <time>2026-05-13T17:41:15Z</time>
      </trkpt>
      <trkpt lat="46.03264" lon="5.72112">
        <ele>1182.8</ele>
        <time>2026-05-13T17:41:16Z</time>
      </trkpt>
      <trkpt lat="46.03261" lon="5.72107">
        <ele>1182.4</ele>
        <time>2026-05-13T17:41:17Z</time>
      </trkpt>
      <trkpt lat="46.03258" lon="5.72102">
        <ele>1182</ele>
        <time>2026-05-13T17:41:18Z</time>
      </trkpt>
      <trkpt lat="46.03256" lon="5.72095">
        <ele>1182</ele>
        <time>2026-05-13T17:41:19Z</time>
      </trkpt>
      <trkpt lat="46.03254" lon="5.72088">
        <ele>1182</ele>
        <time>2026-05-13T17:41:20Z</time>
      </trkpt>
      <trkpt lat="46.03252" lon="5.7208">
        <ele>1181.6</ele>
        <time>2026-05-13T17:41:21Z</time>
      </trkpt>
      <trkpt lat="46.0325" lon="5.72073">
        <ele>1181.2</ele>
        <time>2026-05-13T17:41:22Z</time>
      </trkpt>
      <trkpt lat="46.03252" lon="5.72065">
        <ele>1181</ele>
        <time>2026-05-13T17:41:23Z</time>
      </trkpt>
      <trkpt lat="46.03253" lon="5.72057">
        <ele>1181</ele>
        <time>2026-05-13T17:41:24Z</time>
      </trkpt>
      <trkpt lat="46.03255" lon="5.72051">
        <ele>1180.4</ele>
        <time>2026-05-13T17:41:25Z</time>
      </trkpt>
      <trkpt lat="46.03255" lon="5.72045">
        <ele>1180</ele>
        <time>2026-05-13T17:41:26Z</time>
      </trkpt>
      <trkpt lat="46.03258" lon="5.72039">
        <ele>1179.8</ele>
        <time>2026-05-13T17:41:27Z</time>
      </trkpt>
      <trkpt lat="46.0326" lon="5.72035">
        <ele>1179.4</ele>
        <time>2026-05-13T17:41:28Z</time>
      </trkpt>
      <trkpt lat="46.03261" lon="5.7203">
        <ele>1179</ele>
        <time>2026-05-13T17:41:29Z</time>
      </trkpt>
      <trkpt lat="46.03263" lon="5.72027">
        <ele>1179</ele>
        <time>2026-05-13T17:41:30Z</time>
      </trkpt>
      <trkpt lat="46.03265" lon="5.72022">
        <ele>1178.4</ele>
        <time>2026-05-13T17:41:31Z</time>
      </trkpt>
      <trkpt lat="46.03267" lon="5.72017">
        <ele>1178.4</ele>
        <time>2026-05-13T17:41:32Z</time>
      </trkpt>
      <trkpt lat="46.03271" lon="5.72014">
        <ele>1177.8</ele>
        <time>2026-05-13T17:41:33Z</time>
      </trkpt>
      <trkpt lat="46.03274" lon="5.7201">
        <ele>1177.6</ele>
        <time>2026-05-13T17:41:34Z</time>
      </trkpt>
      <trkpt lat="46.03278" lon="5.72003">
        <ele>1177.6</ele>
        <time>2026-05-13T17:41:35Z</time>
      </trkpt>
      <trkpt lat="46.03281" lon="5.71998">
        <ele>1176.8</ele>
        <time>2026-05-13T17:41:36Z</time>
      </trkpt>
      <trkpt lat="46.03285" lon="5.71992">
        <ele>1176.6</ele>
        <time>2026-05-13T17:41:37Z</time>
      </trkpt>
      <trkpt lat="46.03289" lon="5.71987">
        <ele>1176.6</ele>
        <time>2026-05-13T17:41:38Z</time>
      </trkpt>
      <trkpt lat="46.03293" lon="5.71983">
        <ele>1175.4</ele>
        <time>2026-05-13T17:41:39Z</time>
      </trkpt>
      <trkpt lat="46.03297" lon="5.71979">
        <ele>1175.6</ele>
        <time>2026-05-13T17:41:40Z</time>
      </trkpt>
      <trkpt lat="46.03302" lon="5.71974">
        <ele>1175</ele>
        <time>2026-05-13T17:41:41Z</time>
      </trkpt>
      <trkpt lat="46.03307" lon="5.71971">
        <ele>1175</ele>
        <time>2026-05-13T17:41:42Z</time>
      </trkpt>
      <trkpt lat="46.03312" lon="5.71969">
        <ele>1173.8</ele>
        <time>2026-05-13T17:41:43Z</time>
      </trkpt>
      <trkpt lat="46.03317" lon="5.71966">
        <ele>1172.6</ele>
        <time>2026-05-13T17:41:44Z</time>
      </trkpt>
      <trkpt lat="46.03322" lon="5.71964">
        <ele>1172.2</ele>
        <time>2026-05-13T17:41:45Z</time>
      </trkpt>
      <trkpt lat="46.03326" lon="5.71965">
        <ele>1172.6</ele>
        <time>2026-05-13T17:41:46Z</time>
      </trkpt>
      <trkpt lat="46.0333" lon="5.71965">
        <ele>1172.6</ele>
        <time>2026-05-13T17:41:47Z</time>
      </trkpt>
      <trkpt lat="46.03334" lon="5.71964">
        <ele>1172.6</ele>
        <time>2026-05-13T17:41:48Z</time>
      </trkpt>
      <trkpt lat="46.03337" lon="5.71966">
        <ele>1173</ele>
        <time>2026-05-13T17:41:49Z</time>
      </trkpt>
      <trkpt lat="46.03341" lon="5.71968">
        <ele>1173</ele>
        <time>2026-05-13T17:41:50Z</time>
      </trkpt>
      <trkpt lat="46.03344" lon="5.71969">
        <ele>1173</ele>
        <time>2026-05-13T17:41:51Z</time>
      </trkpt>
      <trkpt lat="46.03347" lon="5.71969">
        <ele>1173</ele>
        <time>2026-05-13T17:41:52Z</time>
      </trkpt>
      <trkpt lat="46.03349" lon="5.7197">
        <ele>1173.6</ele>
        <time>2026-05-13T17:41:53Z</time>
      </trkpt>
      <trkpt lat="46.03353" lon="5.71972">
        <ele>1173.6</ele>
        <time>2026-05-13T17:41:54Z</time>
      </trkpt>
      <trkpt lat="46.03359" lon="5.71972">
        <ele>1173.2</ele>
        <time>2026-05-13T17:41:55Z</time>
      </trkpt>
      <trkpt lat="46.03363" lon="5.71972">
        <ele>1173.2</ele>
        <time>2026-05-13T17:41:56Z</time>
      </trkpt>
      <trkpt lat="46.03366" lon="5.71972">
        <ele>1173.6</ele>
        <time>2026-05-13T17:41:57Z</time>
      </trkpt>
      <trkpt lat="46.0337" lon="5.71972">
        <ele>1174</ele>
        <time>2026-05-13T17:41:58Z</time>
      </trkpt>
      <trkpt lat="46.03374" lon="5.71972">
        <ele>1174</ele>
        <time>2026-05-13T17:41:59Z</time>
      </trkpt>
      <trkpt lat="46.03378" lon="5.71972">
        <ele>1173.6</ele>
        <time>2026-05-13T17:42:00Z</time>
      </trkpt>
      <trkpt lat="46.03381" lon="5.71971">
        <ele>1173.6</ele>
        <time>2026-05-13T17:42:01Z</time>
      </trkpt>
      <trkpt lat="46.03385" lon="5.71971">
        <ele>1173.6</ele>
        <time>2026-05-13T17:42:02Z</time>
      </trkpt>
      <trkpt lat="46.03389" lon="5.7197">
        <ele>1174</ele>
        <time>2026-05-13T17:42:03Z</time>
      </trkpt>
      <trkpt lat="46.03393" lon="5.71969">
        <ele>1174</ele>
        <time>2026-05-13T17:42:04Z</time>
      </trkpt>
      <trkpt lat="46.03399" lon="5.71969">
        <ele>1173.6</ele>
        <time>2026-05-13T17:42:05Z</time>
      </trkpt>
      <trkpt lat="46.03403" lon="5.71968">
        <ele>1173.6</ele>
        <time>2026-05-13T17:42:06Z</time>
      </trkpt>
      <trkpt lat="46.03405" lon="5.71969">
        <ele>1173.6</ele>
        <time>2026-05-13T17:42:07Z</time>
      </trkpt>
      <trkpt lat="46.03408" lon="5.71969">
        <ele>1173.6</ele>
        <time>2026-05-13T17:42:08Z</time>
      </trkpt>
      <trkpt lat="46.03411" lon="5.7197">
        <ele>1173.6</ele>
        <time>2026-05-13T17:42:09Z</time>
      </trkpt>
      <trkpt lat="46.03412" lon="5.71971">
        <ele>1174.2</ele>
        <time>2026-05-13T17:42:10Z</time>
      </trkpt>
      <trkpt lat="46.03415" lon="5.71971">
        <ele>1174.8</ele>
        <time>2026-05-13T17:42:11Z</time>
      </trkpt>
      <trkpt lat="46.03418" lon="5.71973">
        <ele>1175</ele>
        <time>2026-05-13T17:42:12Z</time>
      </trkpt>
      <trkpt lat="46.0342" lon="5.71974">
        <ele>1175</ele>
        <time>2026-05-13T17:42:13Z</time>
      </trkpt>
      <trkpt lat="46.03422" lon="5.71975">
        <ele>1175.6</ele>
        <time>2026-05-13T17:42:14Z</time>
      </trkpt>
      <trkpt lat="46.03424" lon="5.71976">
        <ele>1175.6</ele>
        <time>2026-05-13T17:42:15Z</time>
      </trkpt>
      <trkpt lat="46.03424" lon="5.71976">
        <ele>1175.8</ele>
        <time>2026-05-13T17:42:16Z</time>
      </trkpt>
      <trkpt lat="46.03426" lon="5.71978">
        <ele>1175.8</ele>
        <time>2026-05-13T17:42:17Z</time>
      </trkpt>
      <trkpt lat="46.03428" lon="5.7198">
        <ele>1175.8</ele>
        <time>2026-05-13T17:42:18Z</time>
      </trkpt>
      <trkpt lat="46.03431" lon="5.71981">
        <ele>1175.8</ele>
        <time>2026-05-13T17:42:19Z</time>
      </trkpt>
      <trkpt lat="46.03433" lon="5.71982">
        <ele>1176.2</ele>
        <time>2026-05-13T17:42:20Z</time>
      </trkpt>
      <trkpt lat="46.03436" lon="5.71983">
        <ele>1176.2</ele>
        <time>2026-05-13T17:42:21Z</time>
      </trkpt>
      <trkpt lat="46.03438" lon="5.71984">
        <ele>1176.2</ele>
        <time>2026-05-13T17:42:22Z</time>
      </trkpt>
      <trkpt lat="46.0344" lon="5.71985">
        <ele>1176.2</ele>
        <time>2026-05-13T17:42:23Z</time>
      </trkpt>
      <trkpt lat="46.03442" lon="5.71985">
        <ele>1176.6</ele>
        <time>2026-05-13T17:42:24Z</time>
      </trkpt>
      <trkpt lat="46.03445" lon="5.71986">
        <ele>1177</ele>
        <time>2026-05-13T17:42:25Z</time>
      </trkpt>
      <trkpt lat="46.03448" lon="5.71987">
        <ele>1177</ele>
        <time>2026-05-13T17:42:26Z</time>
      </trkpt>
      <trkpt lat="46.0345" lon="5.71988">
        <ele>1177</ele>
        <time>2026-05-13T17:42:27Z</time>
      </trkpt>
      <trkpt lat="46.03451" lon="5.71989">
        <ele>1177</ele>
        <time>2026-05-13T17:42:28Z</time>
      </trkpt>
      <trkpt lat="46.03453" lon="5.7199">
        <ele>1177</ele>
        <time>2026-05-13T17:42:29Z</time>
      </trkpt>
      <trkpt lat="46.03454" lon="5.7199">
        <ele>1177.2</ele>
        <time>2026-05-13T17:42:30Z</time>
      </trkpt>
      <trkpt lat="46.03456" lon="5.71991">
        <ele>1177.2</ele>
        <time>2026-05-13T17:42:31Z</time>
      </trkpt>
      <trkpt lat="46.03458" lon="5.71992">
        <ele>1177.2</ele>
        <time>2026-05-13T17:42:32Z</time>
      </trkpt>
      <trkpt lat="46.03459" lon="5.71992">
        <ele>1177.2</ele>
        <time>2026-05-13T17:42:33Z</time>
      </trkpt>
      <trkpt lat="46.03461" lon="5.71991">
        <ele>1177.4</ele>
        <time>2026-05-13T17:42:34Z</time>
      </trkpt>
      <trkpt lat="46.03462" lon="5.71991">
        <ele>1177.8</ele>
        <time>2026-05-13T17:42:35Z</time>
      </trkpt>
      <trkpt lat="46.03464" lon="5.7199">
        <ele>1177.8</ele>
        <time>2026-05-13T17:42:36Z</time>
      </trkpt>
      <trkpt lat="46.03466" lon="5.71989">
        <ele>1177.4</ele>
        <time>2026-05-13T17:42:37Z</time>
      </trkpt>
      <trkpt lat="46.0347" lon="5.71988">
        <ele>1177.6</ele>
        <time>2026-05-13T17:42:38Z</time>
      </trkpt>
      <trkpt lat="46.03473" lon="5.71987">
        <ele>1178</ele>
        <time>2026-05-13T17:42:39Z</time>
      </trkpt>
      <trkpt lat="46.03477" lon="5.71985">
        <ele>1178</ele>
        <time>2026-05-13T17:42:40Z</time>
      </trkpt>
      <trkpt lat="46.03481" lon="5.71981">
        <ele>1177.6</ele>
        <time>2026-05-13T17:42:41Z</time>
      </trkpt>
      <trkpt lat="46.03484" lon="5.71977">
        <ele>1177.6</ele>
        <time>2026-05-13T17:42:42Z</time>
      </trkpt>
      <trkpt lat="46.03487" lon="5.71966">
        <ele>1177.2</ele>
        <time>2026-05-13T17:42:43Z</time>
      </trkpt>
      <trkpt lat="46.03489" lon="5.7196">
        <ele>1176.8</ele>
        <time>2026-05-13T17:42:44Z</time>
      </trkpt>
      <trkpt lat="46.03492" lon="5.71956">
        <ele>1176.2</ele>
        <time>2026-05-13T17:42:45Z</time>
      </trkpt>
      <trkpt lat="46.03495" lon="5.71949">
        <ele>1176.2</ele>
        <time>2026-05-13T17:42:46Z</time>
      </trkpt>
      <trkpt lat="46.03498" lon="5.71942">
        <ele>1176</ele>
        <time>2026-05-13T17:42:47Z</time>
      </trkpt>
      <trkpt lat="46.03503" lon="5.71937">
        <ele>1175.4</ele>
        <time>2026-05-13T17:42:48Z</time>
      </trkpt>
      <trkpt lat="46.03507" lon="5.71931">
        <ele>1174.6</ele>
        <time>2026-05-13T17:42:49Z</time>
      </trkpt>
      <trkpt lat="46.0351" lon="5.71925">
        <ele>1174</ele>
        <time>2026-05-13T17:42:50Z</time>
      </trkpt>
      <trkpt lat="46.03515" lon="5.71918">
        <ele>1174</ele>
        <time>2026-05-13T17:42:51Z</time>
      </trkpt>
      <trkpt lat="46.03521" lon="5.71911">
        <ele>1173.2</ele>
        <time>2026-05-13T17:42:52Z</time>
      </trkpt>
      <trkpt lat="46.03527" lon="5.71904">
        <ele>1172.4</ele>
        <time>2026-05-13T17:42:53Z</time>
      </trkpt>
      <trkpt lat="46.03532" lon="5.71896">
        <ele>1172.2</ele>
        <time>2026-05-13T17:42:54Z</time>
      </trkpt>
      <trkpt lat="46.03537" lon="5.71889">
        <ele>1171.2</ele>
        <time>2026-05-13T17:42:55Z</time>
      </trkpt>
      <trkpt lat="46.03542" lon="5.71883">
        <ele>1170.8</ele>
        <time>2026-05-13T17:42:56Z</time>
      </trkpt>
      <trkpt lat="46.03548" lon="5.71876">
        <ele>1170.8</ele>
        <time>2026-05-13T17:42:57Z</time>
      </trkpt>
      <trkpt lat="46.03552" lon="5.71869">
        <ele>1170.8</ele>
        <time>2026-05-13T17:42:58Z</time>
      </trkpt>
      <trkpt lat="46.03558" lon="5.71862">
        <ele>1169.4</ele>
        <time>2026-05-13T17:42:59Z</time>
      </trkpt>
      <trkpt lat="46.03564" lon="5.71855">
        <ele>1167</ele>
        <time>2026-05-13T17:43:00Z</time>
      </trkpt>
      <trkpt lat="46.03568" lon="5.71846">
        <ele>1165.8</ele>
        <time>2026-05-13T17:43:01Z</time>
      </trkpt>
      <trkpt lat="46.03575" lon="5.71837">
        <ele>1165.2</ele>
        <time>2026-05-13T17:43:02Z</time>
      </trkpt>
      <trkpt lat="46.0358" lon="5.71828">
        <ele>1165.2</ele>
        <time>2026-05-13T17:43:03Z</time>
      </trkpt>
      <trkpt lat="46.03585" lon="5.71818">
        <ele>1164.6</ele>
        <time>2026-05-13T17:43:04Z</time>
      </trkpt>
      <trkpt lat="46.0359" lon="5.71808">
        <ele>1164.6</ele>
        <time>2026-05-13T17:43:05Z</time>
      </trkpt>
      <trkpt lat="46.03596" lon="5.71799">
        <ele>1163.6</ele>
        <time>2026-05-13T17:43:06Z</time>
      </trkpt>
      <trkpt lat="46.03601" lon="5.71789">
        <ele>1163</ele>
        <time>2026-05-13T17:43:07Z</time>
      </trkpt>
      <trkpt lat="46.03606" lon="5.71779">
        <ele>1162.6</ele>
        <time>2026-05-13T17:43:08Z</time>
      </trkpt>
      <trkpt lat="46.03611" lon="5.71769">
        <ele>1162.2</ele>
        <time>2026-05-13T17:43:09Z</time>
      </trkpt>
      <trkpt lat="46.03615" lon="5.71759">
        <ele>1162.6</ele>
        <time>2026-05-13T17:43:10Z</time>
      </trkpt>
      <trkpt lat="46.03618" lon="5.71749">
        <ele>1161.8</ele>
        <time>2026-05-13T17:43:11Z</time>
      </trkpt>
      <trkpt lat="46.03621" lon="5.7174">
        <ele>1161.8</ele>
        <time>2026-05-13T17:43:12Z</time>
      </trkpt>
      <trkpt lat="46.03622" lon="5.71732">
        <ele>1161.8</ele>
        <time>2026-05-13T17:43:13Z</time>
      </trkpt>
      <trkpt lat="46.03624" lon="5.71726">
        <ele>1164</ele>
        <time>2026-05-13T17:43:14Z</time>
      </trkpt>
      <trkpt lat="46.03626" lon="5.71718">
        <ele>1163.4</ele>
        <time>2026-05-13T17:43:15Z</time>
      </trkpt>
      <trkpt lat="46.03628" lon="5.7171">
        <ele>1163</ele>
        <time>2026-05-13T17:43:16Z</time>
      </trkpt>
      <trkpt lat="46.03629" lon="5.71702">
        <ele>1162.2</ele>
        <time>2026-05-13T17:43:17Z</time>
      </trkpt>
      <trkpt lat="46.03633" lon="5.71696">
        <ele>1162.4</ele>
        <time>2026-05-13T17:43:18Z</time>
      </trkpt>
      <trkpt lat="46.03635" lon="5.71688">
        <ele>1161.6</ele>
        <time>2026-05-13T17:43:19Z</time>
      </trkpt>
      <trkpt lat="46.03638" lon="5.71681">
        <ele>1160.8</ele>
        <time>2026-05-13T17:43:20Z</time>
      </trkpt>
      <trkpt lat="46.03641" lon="5.71673">
        <ele>1159.8</ele>
        <time>2026-05-13T17:43:21Z</time>
      </trkpt>
      <trkpt lat="46.03644" lon="5.71666">
        <ele>1160</ele>
        <time>2026-05-13T17:43:22Z</time>
      </trkpt>
      <trkpt lat="46.03649" lon="5.71659">
        <ele>1159.4</ele>
        <time>2026-05-13T17:43:23Z</time>
      </trkpt>
      <trkpt lat="46.03653" lon="5.71653">
        <ele>1158.8</ele>
        <time>2026-05-13T17:43:24Z</time>
      </trkpt>
      <trkpt lat="46.03656" lon="5.71648">
        <ele>1158.8</ele>
        <time>2026-05-13T17:43:25Z</time>
      </trkpt>
      <trkpt lat="46.03661" lon="5.71639">
        <ele>1158.4</ele>
        <time>2026-05-13T17:43:26Z</time>
      </trkpt>
      <trkpt lat="46.03665" lon="5.71635">
        <ele>1157.4</ele>
        <time>2026-05-13T17:43:27Z</time>
      </trkpt>
      <trkpt lat="46.03672" lon="5.71629">
        <ele>1156.6</ele>
        <time>2026-05-13T17:43:28Z</time>
      </trkpt>
      <trkpt lat="46.03677" lon="5.71624">
        <ele>1156.8</ele>
        <time>2026-05-13T17:43:29Z</time>
      </trkpt>
      <trkpt lat="46.03682" lon="5.71619">
        <ele>1156</ele>
        <time>2026-05-13T17:43:30Z</time>
      </trkpt>
      <trkpt lat="46.03687" lon="5.71612">
        <ele>1155.4</ele>
        <time>2026-05-13T17:43:31Z</time>
      </trkpt>
      <trkpt lat="46.03692" lon="5.71608">
        <ele>1155.4</ele>
        <time>2026-05-13T17:43:32Z</time>
      </trkpt>
      <trkpt lat="46.03698" lon="5.71602">
        <ele>1154.4</ele>
        <time>2026-05-13T17:43:33Z</time>
      </trkpt>
      <trkpt lat="46.03704" lon="5.71596">
        <ele>1154</ele>
        <time>2026-05-13T17:43:34Z</time>
      </trkpt>
      <trkpt lat="46.03709" lon="5.71591">
        <ele>1153.4</ele>
        <time>2026-05-13T17:43:35Z</time>
      </trkpt>
      <trkpt lat="46.03715" lon="5.71585">
        <ele>1153</ele>
        <time>2026-05-13T17:43:36Z</time>
      </trkpt>
      <trkpt lat="46.03718" lon="5.71576">
        <ele>1152.4</ele>
        <time>2026-05-13T17:43:37Z</time>
      </trkpt>
      <trkpt lat="46.0372" lon="5.71567">
        <ele>1151.8</ele>
        <time>2026-05-13T17:43:38Z</time>
      </trkpt>
      <trkpt lat="46.03722" lon="5.71558">
        <ele>1151.6</ele>
        <time>2026-05-13T17:43:39Z</time>
      </trkpt>
      <trkpt lat="46.03723" lon="5.7155">
        <ele>1150.8</ele>
        <time>2026-05-13T17:43:40Z</time>
      </trkpt>
      <trkpt lat="46.03724" lon="5.71541">
        <ele>1150.8</ele>
        <time>2026-05-13T17:43:41Z</time>
      </trkpt>
      <trkpt lat="46.03725" lon="5.71533">
        <ele>1150.8</ele>
        <time>2026-05-13T17:43:42Z</time>
      </trkpt>
      <trkpt lat="46.03726" lon="5.71524">
        <ele>1150.4</ele>
        <time>2026-05-13T17:43:43Z</time>
      </trkpt>
      <trkpt lat="46.03726" lon="5.71515">
        <ele>1149.8</ele>
        <time>2026-05-13T17:43:44Z</time>
      </trkpt>
      <trkpt lat="46.03726" lon="5.71505">
        <ele>1149.6</ele>
        <time>2026-05-13T17:43:45Z</time>
      </trkpt>
      <trkpt lat="46.03728" lon="5.71496">
        <ele>1149.2</ele>
        <time>2026-05-13T17:43:46Z</time>
      </trkpt>
      <trkpt lat="46.0373" lon="5.71488">
        <ele>1149.2</ele>
        <time>2026-05-13T17:43:47Z</time>
      </trkpt>
      <trkpt lat="46.03732" lon="5.71479">
        <ele>1148.8</ele>
        <time>2026-05-13T17:43:48Z</time>
      </trkpt>
      <trkpt lat="46.03735" lon="5.71471">
        <ele>1148.8</ele>
        <time>2026-05-13T17:43:49Z</time>
      </trkpt>
      <trkpt lat="46.03736" lon="5.71462">
        <ele>1148.2</ele>
        <time>2026-05-13T17:43:50Z</time>
      </trkpt>
      <trkpt lat="46.03739" lon="5.71453">
        <ele>1148.6</ele>
        <time>2026-05-13T17:43:51Z</time>
      </trkpt>
      <trkpt lat="46.03737" lon="5.71439">
        <ele>1148.6</ele>
        <time>2026-05-13T17:43:52Z</time>
      </trkpt>
      <trkpt lat="46.03734" lon="5.71432">
        <ele>1149.4</ele>
        <time>2026-05-13T17:43:53Z</time>
      </trkpt>
      <trkpt lat="46.0373" lon="5.71426">
        <ele>1149.6</ele>
        <time>2026-05-13T17:43:54Z</time>
      </trkpt>
      <trkpt lat="46.03728" lon="5.7142">
        <ele>1149.6</ele>
        <time>2026-05-13T17:43:55Z</time>
      </trkpt>
      <trkpt lat="46.03726" lon="5.71413">
        <ele>1149.6</ele>
        <time>2026-05-13T17:43:56Z</time>
      </trkpt>
      <trkpt lat="46.03722" lon="5.71408">
        <ele>1149.6</ele>
        <time>2026-05-13T17:43:57Z</time>
      </trkpt>
      <trkpt lat="46.03718" lon="5.71401">
        <ele>1149.4</ele>
        <time>2026-05-13T17:43:58Z</time>
      </trkpt>
      <trkpt lat="46.03715" lon="5.71397">
        <ele>1149.4</ele>
        <time>2026-05-13T17:43:59Z</time>
      </trkpt>
      <trkpt lat="46.03712" lon="5.71392">
        <ele>1149.4</ele>
        <time>2026-05-13T17:44:00Z</time>
      </trkpt>
      <trkpt lat="46.0371" lon="5.71389">
        <ele>1149.4</ele>
        <time>2026-05-13T17:44:01Z</time>
      </trkpt>
      <trkpt lat="46.03706" lon="5.71384">
        <ele>1149.4</ele>
        <time>2026-05-13T17:44:02Z</time>
      </trkpt>
      <trkpt lat="46.03705" lon="5.7138">
        <ele>1150</ele>
        <time>2026-05-13T17:44:03Z</time>
      </trkpt>
      <trkpt lat="46.03702" lon="5.71373">
        <ele>1147.8</ele>
        <time>2026-05-13T17:44:04Z</time>
      </trkpt>
      <trkpt lat="46.03699" lon="5.71367">
        <ele>1148.4</ele>
        <time>2026-05-13T17:44:05Z</time>
      </trkpt>
      <trkpt lat="46.03697" lon="5.71359">
        <ele>1148.2</ele>
        <time>2026-05-13T17:44:06Z</time>
      </trkpt>
      <trkpt lat="46.03696" lon="5.71352">
        <ele>1148.6</ele>
        <time>2026-05-13T17:44:07Z</time>
      </trkpt>
      <trkpt lat="46.03698" lon="5.71342">
        <ele>1147.8</ele>
        <time>2026-05-13T17:44:08Z</time>
      </trkpt>
      <trkpt lat="46.03696" lon="5.71334">
        <ele>1147.8</ele>
        <time>2026-05-13T17:44:09Z</time>
      </trkpt>
      <trkpt lat="46.03698" lon="5.71326">
        <ele>1147.4</ele>
        <time>2026-05-13T17:44:10Z</time>
      </trkpt>
      <trkpt lat="46.037" lon="5.71318">
        <ele>1146.8</ele>
        <time>2026-05-13T17:44:11Z</time>
      </trkpt>
      <trkpt lat="46.03703" lon="5.71314">
        <ele>1146.6</ele>
        <time>2026-05-13T17:44:12Z</time>
      </trkpt>
      <trkpt lat="46.03706" lon="5.71311">
        <ele>1146.6</ele>
        <time>2026-05-13T17:44:13Z</time>
      </trkpt>
      <trkpt lat="46.03707" lon="5.7131">
        <ele>1146.6</ele>
        <time>2026-05-13T17:44:14Z</time>
      </trkpt>
      <trkpt lat="46.0371" lon="5.71308">
        <ele>1146</ele>
        <time>2026-05-13T17:44:15Z</time>
      </trkpt>
      <trkpt lat="46.03714" lon="5.71307">
        <ele>1145.6</ele>
        <time>2026-05-13T17:44:16Z</time>
      </trkpt>
      <trkpt lat="46.03716" lon="5.71305">
        <ele>1145.4</ele>
        <time>2026-05-13T17:44:17Z</time>
      </trkpt>
      <trkpt lat="46.03721" lon="5.71303">
        <ele>1144.6</ele>
        <time>2026-05-13T17:44:18Z</time>
      </trkpt>
      <trkpt lat="46.03724" lon="5.713">
        <ele>1144.6</ele>
        <time>2026-05-13T17:44:19Z</time>
      </trkpt>
      <trkpt lat="46.03728" lon="5.71296">
        <ele>1143.6</ele>
        <time>2026-05-13T17:44:20Z</time>
      </trkpt>
      <trkpt lat="46.03732" lon="5.71291">
        <ele>1143.6</ele>
        <time>2026-05-13T17:44:21Z</time>
      </trkpt>
      <trkpt lat="46.03736" lon="5.71285">
        <ele>1142.4</ele>
        <time>2026-05-13T17:44:22Z</time>
      </trkpt>
      <trkpt lat="46.03739" lon="5.71277">
        <ele>1141.2</ele>
        <time>2026-05-13T17:44:23Z</time>
      </trkpt>
      <trkpt lat="46.03741" lon="5.71267">
        <ele>1140.4</ele>
        <time>2026-05-13T17:44:24Z</time>
      </trkpt>
      <trkpt lat="46.03741" lon="5.71261">
        <ele>1141.4</ele>
        <time>2026-05-13T17:44:25Z</time>
      </trkpt>
      <trkpt lat="46.03743" lon="5.71254">
        <ele>1140.6</ele>
        <time>2026-05-13T17:44:26Z</time>
      </trkpt>
      <trkpt lat="46.03745" lon="5.71247">
        <ele>1139.4</ele>
        <time>2026-05-13T17:44:27Z</time>
      </trkpt>
      <trkpt lat="46.03746" lon="5.7124">
        <ele>1137.8</ele>
        <time>2026-05-13T17:44:28Z</time>
      </trkpt>
      <trkpt lat="46.03748" lon="5.71234">
        <ele>1138.4</ele>
        <time>2026-05-13T17:44:29Z</time>
      </trkpt>
      <trkpt lat="46.0375" lon="5.71229">
        <ele>1137.4</ele>
        <time>2026-05-13T17:44:30Z</time>
      </trkpt>
      <trkpt lat="46.03753" lon="5.71223">
        <ele>1135.2</ele>
        <time>2026-05-13T17:44:31Z</time>
      </trkpt>
      <trkpt lat="46.03754" lon="5.71218">
        <ele>1137.2</ele>
        <time>2026-05-13T17:44:32Z</time>
      </trkpt>
      <trkpt lat="46.03756" lon="5.71212">
        <ele>1136.2</ele>
        <time>2026-05-13T17:44:33Z</time>
      </trkpt>
      <trkpt lat="46.03758" lon="5.71204">
        <ele>1134.2</ele>
        <time>2026-05-13T17:44:34Z</time>
      </trkpt>
      <trkpt lat="46.03756" lon="5.71196">
        <ele>1134.2</ele>
        <time>2026-05-13T17:44:35Z</time>
      </trkpt>
      <trkpt lat="46.03754" lon="5.7119">
        <ele>1132.6</ele>
        <time>2026-05-13T17:44:36Z</time>
      </trkpt>
      <trkpt lat="46.03752" lon="5.7118">
        <ele>1132.2</ele>
        <time>2026-05-13T17:44:37Z</time>
      </trkpt>
      <trkpt lat="46.03752" lon="5.71169">
        <ele>1132</ele>
        <time>2026-05-13T17:44:38Z</time>
      </trkpt>
      <trkpt lat="46.03752" lon="5.71159">
        <ele>1131.6</ele>
        <time>2026-05-13T17:44:39Z</time>
      </trkpt>
      <trkpt lat="46.03754" lon="5.71148">
        <ele>1131.2</ele>
        <time>2026-05-13T17:44:40Z</time>
      </trkpt>
      <trkpt lat="46.03754" lon="5.71138">
        <ele>1131.2</ele>
        <time>2026-05-13T17:44:41Z</time>
      </trkpt>
      <trkpt lat="46.03755" lon="5.71128">
        <ele>1130.4</ele>
        <time>2026-05-13T17:44:42Z</time>
      </trkpt>
      <trkpt lat="46.03754" lon="5.7112">
        <ele>1129.6</ele>
        <time>2026-05-13T17:44:43Z</time>
      </trkpt>
      <trkpt lat="46.03755" lon="5.71112">
        <ele>1128.4</ele>
        <time>2026-05-13T17:44:44Z</time>
      </trkpt>
      <trkpt lat="46.03755" lon="5.71105">
        <ele>1128</ele>
        <time>2026-05-13T17:44:45Z</time>
      </trkpt>
      <trkpt lat="46.03754" lon="5.71097">
        <ele>1128</ele>
        <time>2026-05-13T17:44:46Z</time>
      </trkpt>
      <trkpt lat="46.03753" lon="5.71088">
        <ele>1128</ele>
        <time>2026-05-13T17:44:47Z</time>
      </trkpt>
      <trkpt lat="46.03751" lon="5.7108">
        <ele>1127</ele>
        <time>2026-05-13T17:44:48Z</time>
      </trkpt>
      <trkpt lat="46.03749" lon="5.71074">
        <ele>1127.8</ele>
        <time>2026-05-13T17:44:49Z</time>
      </trkpt>
      <trkpt lat="46.03746" lon="5.71069">
        <ele>1127.8</ele>
        <time>2026-05-13T17:44:50Z</time>
      </trkpt>
      <trkpt lat="46.03745" lon="5.71062">
        <ele>1127.8</ele>
        <time>2026-05-13T17:44:51Z</time>
      </trkpt>
      <trkpt lat="46.03744" lon="5.71055">
        <ele>1126</ele>
        <time>2026-05-13T17:44:52Z</time>
      </trkpt>
      <trkpt lat="46.03742" lon="5.7105">
        <ele>1125.4</ele>
        <time>2026-05-13T17:44:53Z</time>
      </trkpt>
      <trkpt lat="46.03742" lon="5.71044">
        <ele>1125.4</ele>
        <time>2026-05-13T17:44:54Z</time>
      </trkpt>
      <trkpt lat="46.03741" lon="5.71039">
        <ele>1125.4</ele>
        <time>2026-05-13T17:44:55Z</time>
      </trkpt>
      <trkpt lat="46.0374" lon="5.71032">
        <ele>1124.8</ele>
        <time>2026-05-13T17:44:56Z</time>
      </trkpt>
      <trkpt lat="46.03741" lon="5.71026">
        <ele>1124.8</ele>
        <time>2026-05-13T17:44:57Z</time>
      </trkpt>
      <trkpt lat="46.03741" lon="5.7102">
        <ele>1124.2</ele>
        <time>2026-05-13T17:44:58Z</time>
      </trkpt>
      <trkpt lat="46.03742" lon="5.71013">
        <ele>1123.4</ele>
        <time>2026-05-13T17:44:59Z</time>
      </trkpt>
      <trkpt lat="46.03742" lon="5.71007">
        <ele>1122.6</ele>
        <time>2026-05-13T17:45:00Z</time>
      </trkpt>
      <trkpt lat="46.03741" lon="5.71002">
        <ele>1121</ele>
        <time>2026-05-13T17:45:01Z</time>
      </trkpt>
      <trkpt lat="46.03741" lon="5.70996">
        <ele>1119.6</ele>
        <time>2026-05-13T17:45:02Z</time>
      </trkpt>
      <trkpt lat="46.03742" lon="5.70992">
        <ele>1119.6</ele>
        <time>2026-05-13T17:45:03Z</time>
      </trkpt>
      <trkpt lat="46.03743" lon="5.70989">
        <ele>1119.2</ele>
        <time>2026-05-13T17:45:04Z</time>
      </trkpt>
      <trkpt lat="46.03745" lon="5.70985">
        <ele>1118.8</ele>
        <time>2026-05-13T17:45:05Z</time>
      </trkpt>
      <trkpt lat="46.03749" lon="5.70983">
        <ele>1117.6</ele>
        <time>2026-05-13T17:45:06Z</time>
      </trkpt>
      <trkpt lat="46.03752" lon="5.70979">
        <ele>1117.6</ele>
        <time>2026-05-13T17:45:07Z</time>
      </trkpt>
      <trkpt lat="46.03756" lon="5.70977">
        <ele>1117.6</ele>
        <time>2026-05-13T17:45:08Z</time>
      </trkpt>
      <trkpt lat="46.03761" lon="5.70973">
        <ele>1117.6</ele>
        <time>2026-05-13T17:45:09Z</time>
      </trkpt>
      <trkpt lat="46.03766" lon="5.7097">
        <ele>1116.8</ele>
        <time>2026-05-13T17:45:10Z</time>
      </trkpt>
      <trkpt lat="46.03771" lon="5.70966">
        <ele>1116.2</ele>
        <time>2026-05-13T17:45:11Z</time>
      </trkpt>
      <trkpt lat="46.03776" lon="5.70962">
        <ele>1114.6</ele>
        <time>2026-05-13T17:45:12Z</time>
      </trkpt>
      <trkpt lat="46.0378" lon="5.70959">
        <ele>1114.6</ele>
        <time>2026-05-13T17:45:13Z</time>
      </trkpt>
      <trkpt lat="46.03785" lon="5.70959">
        <ele>1113.8</ele>
        <time>2026-05-13T17:45:14Z</time>
      </trkpt>
      <trkpt lat="46.03789" lon="5.70959">
        <ele>1113.8</ele>
        <time>2026-05-13T17:45:15Z</time>
      </trkpt>
      <trkpt lat="46.03792" lon="5.7096">
        <ele>1113.8</ele>
        <time>2026-05-13T17:45:16Z</time>
      </trkpt>
      <trkpt lat="46.03795" lon="5.70959">
        <ele>1113.4</ele>
        <time>2026-05-13T17:45:17Z</time>
      </trkpt>
      <trkpt lat="46.03801" lon="5.70959">
        <ele>1112.8</ele>
        <time>2026-05-13T17:45:18Z</time>
      </trkpt>
      <trkpt lat="46.03806" lon="5.7096">
        <ele>1112.2</ele>
        <time>2026-05-13T17:45:19Z</time>
      </trkpt>
      <trkpt lat="46.03811" lon="5.70959">
        <ele>1112.2</ele>
        <time>2026-05-13T17:45:20Z</time>
      </trkpt>
      <trkpt lat="46.03815" lon="5.70958">
        <ele>1112.2</ele>
        <time>2026-05-13T17:45:21Z</time>
      </trkpt>
      <trkpt lat="46.03819" lon="5.70955">
        <ele>1111</ele>
        <time>2026-05-13T17:45:22Z</time>
      </trkpt>
      <trkpt lat="46.03822" lon="5.70951">
        <ele>1110</ele>
        <time>2026-05-13T17:45:23Z</time>
      </trkpt>
      <trkpt lat="46.03827" lon="5.70948">
        <ele>1110</ele>
        <time>2026-05-13T17:45:24Z</time>
      </trkpt>
      <trkpt lat="46.03832" lon="5.70944">
        <ele>1108.8</ele>
        <time>2026-05-13T17:45:25Z</time>
      </trkpt>
      <trkpt lat="46.03834" lon="5.7094">
        <ele>1107.4</ele>
        <time>2026-05-13T17:45:26Z</time>
      </trkpt>
      <trkpt lat="46.03837" lon="5.70934">
        <ele>1105.4</ele>
        <time>2026-05-13T17:45:27Z</time>
      </trkpt>
      <trkpt lat="46.03838" lon="5.7093">
        <ele>1106.8</ele>
        <time>2026-05-13T17:45:28Z</time>
      </trkpt>
      <trkpt lat="46.03841" lon="5.70927">
        <ele>1106.2</ele>
        <time>2026-05-13T17:45:29Z</time>
      </trkpt>
      <trkpt lat="46.03844" lon="5.70923">
        <ele>1105.8</ele>
        <time>2026-05-13T17:45:30Z</time>
      </trkpt>
      <trkpt lat="46.03844" lon="5.70923">
        <ele>1105</ele>
        <time>2026-05-13T17:45:31Z</time>
      </trkpt>
      <trkpt lat="46.03847" lon="5.70918">
        <ele>1104.2</ele>
        <time>2026-05-13T17:45:32Z</time>
      </trkpt>
      <trkpt lat="46.03849" lon="5.70912">
        <ele>1104.2</ele>
        <time>2026-05-13T17:45:33Z</time>
      </trkpt>
      <trkpt lat="46.03849" lon="5.70905">
        <ele>1103</ele>
        <time>2026-05-13T17:45:34Z</time>
      </trkpt>
      <trkpt lat="46.03849" lon="5.70898">
        <ele>1102.4</ele>
        <time>2026-05-13T17:45:35Z</time>
      </trkpt>
      <trkpt lat="46.0385" lon="5.70893">
        <ele>1101.6</ele>
        <time>2026-05-13T17:45:36Z</time>
      </trkpt>
      <trkpt lat="46.03849" lon="5.70886">
        <ele>1101.6</ele>
        <time>2026-05-13T17:45:37Z</time>
      </trkpt>
      <trkpt lat="46.03849" lon="5.70881">
        <ele>1101</ele>
        <time>2026-05-13T17:45:38Z</time>
      </trkpt>
      <trkpt lat="46.03848" lon="5.70875">
        <ele>1100.6</ele>
        <time>2026-05-13T17:45:39Z</time>
      </trkpt>
      <trkpt lat="46.03848" lon="5.7087">
        <ele>1099.8</ele>
        <time>2026-05-13T17:45:40Z</time>
      </trkpt>
      <trkpt lat="46.03846" lon="5.70864">
        <ele>1098</ele>
        <time>2026-05-13T17:45:41Z</time>
      </trkpt>
      <trkpt lat="46.03845" lon="5.70857">
        <ele>1097.2</ele>
        <time>2026-05-13T17:45:42Z</time>
      </trkpt>
      <trkpt lat="46.03843" lon="5.70851">
        <ele>1096.4</ele>
        <time>2026-05-13T17:45:43Z</time>
      </trkpt>
      <trkpt lat="46.03842" lon="5.70845">
        <ele>1095.6</ele>
        <time>2026-05-13T17:45:44Z</time>
      </trkpt>
      <trkpt lat="46.03841" lon="5.70838">
        <ele>1094.4</ele>
        <time>2026-05-13T17:45:45Z</time>
      </trkpt>
      <trkpt lat="46.0384" lon="5.70831">
        <ele>1094.4</ele>
        <time>2026-05-13T17:45:46Z</time>
      </trkpt>
      <trkpt lat="46.03839" lon="5.70824">
        <ele>1093.4</ele>
        <time>2026-05-13T17:45:47Z</time>
      </trkpt>
      <trkpt lat="46.03838" lon="5.70818">
        <ele>1093.2</ele>
        <time>2026-05-13T17:45:48Z</time>
      </trkpt>
      <trkpt lat="46.03837" lon="5.70812">
        <ele>1093.2</ele>
        <time>2026-05-13T17:45:49Z</time>
      </trkpt>
      <trkpt lat="46.03838" lon="5.70808">
        <ele>1093.2</ele>
        <time>2026-05-13T17:45:50Z</time>
      </trkpt>
      <trkpt lat="46.0384" lon="5.70804">
        <ele>1093.4</ele>
        <time>2026-05-13T17:45:51Z</time>
      </trkpt>
      <trkpt lat="46.03842" lon="5.70801">
        <ele>1092.8</ele>
        <time>2026-05-13T17:45:52Z</time>
      </trkpt>
      <trkpt lat="46.03845" lon="5.70799">
        <ele>1092.6</ele>
        <time>2026-05-13T17:45:53Z</time>
      </trkpt>
      <trkpt lat="46.03849" lon="5.70797">
        <ele>1091.6</ele>
        <time>2026-05-13T17:45:54Z</time>
      </trkpt>
      <trkpt lat="46.03853" lon="5.70796">
        <ele>1091.2</ele>
        <time>2026-05-13T17:45:55Z</time>
      </trkpt>
      <trkpt lat="46.03858" lon="5.70794">
        <ele>1089.2</ele>
        <time>2026-05-13T17:45:56Z</time>
      </trkpt>
      <trkpt lat="46.03863" lon="5.70792">
        <ele>1088.4</ele>
        <time>2026-05-13T17:45:57Z</time>
      </trkpt>
      <trkpt lat="46.03869" lon="5.70789">
        <ele>1088.2</ele>
        <time>2026-05-13T17:45:58Z</time>
      </trkpt>
      <trkpt lat="46.03874" lon="5.70787">
        <ele>1088.6</ele>
        <time>2026-05-13T17:45:59Z</time>
      </trkpt>
      <trkpt lat="46.0388" lon="5.70786">
        <ele>1087.8</ele>
        <time>2026-05-13T17:46:00Z</time>
      </trkpt>
      <trkpt lat="46.03886" lon="5.70785">
        <ele>1088</ele>
        <time>2026-05-13T17:46:01Z</time>
      </trkpt>
      <trkpt lat="46.03892" lon="5.70785">
        <ele>1088</ele>
        <time>2026-05-13T17:46:02Z</time>
      </trkpt>
      <trkpt lat="46.03898" lon="5.70788">
        <ele>1088</ele>
        <time>2026-05-13T17:46:03Z</time>
      </trkpt>
      <trkpt lat="46.03904" lon="5.70792">
        <ele>1087.8</ele>
        <time>2026-05-13T17:46:04Z</time>
      </trkpt>
      <trkpt lat="46.03909" lon="5.70797">
        <ele>1087.4</ele>
        <time>2026-05-13T17:46:05Z</time>
      </trkpt>
      <trkpt lat="46.03913" lon="5.70802">
        <ele>1087.8</ele>
        <time>2026-05-13T17:46:06Z</time>
      </trkpt>
      <trkpt lat="46.03915" lon="5.70807">
        <ele>1088.4</ele>
        <time>2026-05-13T17:46:07Z</time>
      </trkpt>
      <trkpt lat="46.03918" lon="5.70811">
        <ele>1088.8</ele>
        <time>2026-05-13T17:46:08Z</time>
      </trkpt>
      <trkpt lat="46.0392" lon="5.70815">
        <ele>1088.6</ele>
        <time>2026-05-13T17:46:09Z</time>
      </trkpt>
      <trkpt lat="46.03922" lon="5.7082">
        <ele>1088.6</ele>
        <time>2026-05-13T17:46:10Z</time>
      </trkpt>
      <trkpt lat="46.03923" lon="5.70824">
        <ele>1088.8</ele>
        <time>2026-05-13T17:46:11Z</time>
      </trkpt>
      <trkpt lat="46.03925" lon="5.70829">
        <ele>1088.8</ele>
        <time>2026-05-13T17:46:12Z</time>
      </trkpt>
      <trkpt lat="46.03927" lon="5.70833">
        <ele>1088.8</ele>
        <time>2026-05-13T17:46:13Z</time>
      </trkpt>
      <trkpt lat="46.03928" lon="5.70838">
        <ele>1088.8</ele>
        <time>2026-05-13T17:46:14Z</time>
      </trkpt>
      <trkpt lat="46.0393" lon="5.70842">
        <ele>1088.8</ele>
        <time>2026-05-13T17:46:15Z</time>
      </trkpt>
      <trkpt lat="46.03932" lon="5.70846">
        <ele>1089.2</ele>
        <time>2026-05-13T17:46:16Z</time>
      </trkpt>
      <trkpt lat="46.03934" lon="5.70851">
        <ele>1089.2</ele>
        <time>2026-05-13T17:46:17Z</time>
      </trkpt>
      <trkpt lat="46.03935" lon="5.70856">
        <ele>1089</ele>
        <time>2026-05-13T17:46:18Z</time>
      </trkpt>
      <trkpt lat="46.03938" lon="5.70861">
        <ele>1089</ele>
        <time>2026-05-13T17:46:19Z</time>
      </trkpt>
      <trkpt lat="46.03941" lon="5.70865">
        <ele>1089.2</ele>
        <time>2026-05-13T17:46:20Z</time>
      </trkpt>
      <trkpt lat="46.03945" lon="5.70868">
        <ele>1088.8</ele>
        <time>2026-05-13T17:46:21Z</time>
      </trkpt>
      <trkpt lat="46.0395" lon="5.70869">
        <ele>1088.2</ele>
        <time>2026-05-13T17:46:22Z</time>
      </trkpt>
      <trkpt lat="46.03954" lon="5.70869">
        <ele>1087.4</ele>
        <time>2026-05-13T17:46:23Z</time>
      </trkpt>
      <trkpt lat="46.03958" lon="5.70867">
        <ele>1087.2</ele>
        <time>2026-05-13T17:46:24Z</time>
      </trkpt>
      <trkpt lat="46.03961" lon="5.70865">
        <ele>1087.2</ele>
        <time>2026-05-13T17:46:25Z</time>
      </trkpt>
      <trkpt lat="46.03964" lon="5.70861">
        <ele>1087.2</ele>
        <time>2026-05-13T17:46:26Z</time>
      </trkpt>
      <trkpt lat="46.03967" lon="5.70856">
        <ele>1086.8</ele>
        <time>2026-05-13T17:46:27Z</time>
      </trkpt>
      <trkpt lat="46.03968" lon="5.7085">
        <ele>1086.8</ele>
        <time>2026-05-13T17:46:28Z</time>
      </trkpt>
      <trkpt lat="46.0397" lon="5.70844">
        <ele>1086.2</ele>
        <time>2026-05-13T17:46:29Z</time>
      </trkpt>
      <trkpt lat="46.03972" lon="5.70838">
        <ele>1085.8</ele>
        <time>2026-05-13T17:46:30Z</time>
      </trkpt>
      <trkpt lat="46.03973" lon="5.70833">
        <ele>1085.8</ele>
        <time>2026-05-13T17:46:31Z</time>
      </trkpt>
      <trkpt lat="46.03975" lon="5.70828">
        <ele>1084.8</ele>
        <time>2026-05-13T17:46:32Z</time>
      </trkpt>
      <trkpt lat="46.03977" lon="5.7082">
        <ele>1084.6</ele>
        <time>2026-05-13T17:46:33Z</time>
      </trkpt>
      <trkpt lat="46.0398" lon="5.70815">
        <ele>1084.2</ele>
        <time>2026-05-13T17:46:34Z</time>
      </trkpt>
      <trkpt lat="46.03983" lon="5.7081">
        <ele>1083.8</ele>
        <time>2026-05-13T17:46:35Z</time>
      </trkpt>
      <trkpt lat="46.03987" lon="5.70803">
        <ele>1083.6</ele>
        <time>2026-05-13T17:46:36Z</time>
      </trkpt>
      <trkpt lat="46.03991" lon="5.70798">
        <ele>1083.6</ele>
        <time>2026-05-13T17:46:37Z</time>
      </trkpt>
      <trkpt lat="46.03995" lon="5.70792">
        <ele>1083.2</ele>
        <time>2026-05-13T17:46:38Z</time>
      </trkpt>
      <trkpt lat="46.03999" lon="5.70787">
        <ele>1082.4</ele>
        <time>2026-05-13T17:46:39Z</time>
      </trkpt>
      <trkpt lat="46.04003" lon="5.70782">
        <ele>1082.8</ele>
        <time>2026-05-13T17:46:40Z</time>
      </trkpt>
      <trkpt lat="46.04004" lon="5.70778">
        <ele>1082.8</ele>
        <time>2026-05-13T17:46:41Z</time>
      </trkpt>
      <trkpt lat="46.04007" lon="5.70772">
        <ele>1081.8</ele>
        <time>2026-05-13T17:46:42Z</time>
      </trkpt>
      <trkpt lat="46.04008" lon="5.70767">
        <ele>1082</ele>
        <time>2026-05-13T17:46:43Z</time>
      </trkpt>
      <trkpt lat="46.04012" lon="5.70761">
        <ele>1081.6</ele>
        <time>2026-05-13T17:46:44Z</time>
      </trkpt>
      <trkpt lat="46.04013" lon="5.70753">
        <ele>1081.2</ele>
        <time>2026-05-13T17:46:45Z</time>
      </trkpt>
      <trkpt lat="46.04015" lon="5.70744">
        <ele>1080.6</ele>
        <time>2026-05-13T17:46:46Z</time>
      </trkpt>
      <trkpt lat="46.04015" lon="5.70737">
        <ele>1080</ele>
        <time>2026-05-13T17:46:47Z</time>
      </trkpt>
      <trkpt lat="46.04015" lon="5.70727">
        <ele>1080.6</ele>
        <time>2026-05-13T17:46:48Z</time>
      </trkpt>
      <trkpt lat="46.04014" lon="5.70718">
        <ele>1079.6</ele>
        <time>2026-05-13T17:46:49Z</time>
      </trkpt>
      <trkpt lat="46.04014" lon="5.70709">
        <ele>1079</ele>
        <time>2026-05-13T17:46:50Z</time>
      </trkpt>
      <trkpt lat="46.04011" lon="5.70701">
        <ele>1078.6</ele>
        <time>2026-05-13T17:46:51Z</time>
      </trkpt>
      <trkpt lat="46.04009" lon="5.70691">
        <ele>1078.6</ele>
        <time>2026-05-13T17:46:52Z</time>
      </trkpt>
      <trkpt lat="46.04004" lon="5.70687">
        <ele>1077.8</ele>
        <time>2026-05-13T17:46:53Z</time>
      </trkpt>
      <trkpt lat="46.04" lon="5.70681">
        <ele>1077.2</ele>
        <time>2026-05-13T17:46:54Z</time>
      </trkpt>
      <trkpt lat="46.03999" lon="5.70673">
        <ele>1076.6</ele>
        <time>2026-05-13T17:46:55Z</time>
      </trkpt>
      <trkpt lat="46.03995" lon="5.70668">
        <ele>1076.4</ele>
        <time>2026-05-13T17:46:56Z</time>
      </trkpt>
      <trkpt lat="46.03992" lon="5.70663">
        <ele>1075.6</ele>
        <time>2026-05-13T17:46:57Z</time>
      </trkpt>
      <trkpt lat="46.03989" lon="5.70656">
        <ele>1075.2</ele>
        <time>2026-05-13T17:46:58Z</time>
      </trkpt>
      <trkpt lat="46.03985" lon="5.7065">
        <ele>1075.2</ele>
        <time>2026-05-13T17:46:59Z</time>
      </trkpt>
      <trkpt lat="46.03981" lon="5.70642">
        <ele>1075.2</ele>
        <time>2026-05-13T17:47:00Z</time>
      </trkpt>
      <trkpt lat="46.03977" lon="5.70635">
        <ele>1074.6</ele>
        <time>2026-05-13T17:47:01Z</time>
      </trkpt>
      <trkpt lat="46.03974" lon="5.70628">
        <ele>1074</ele>
        <time>2026-05-13T17:47:02Z</time>
      </trkpt>
      <trkpt lat="46.03971" lon="5.70621">
        <ele>1073.2</ele>
        <time>2026-05-13T17:47:03Z</time>
      </trkpt>
      <trkpt lat="46.03966" lon="5.70611">
        <ele>1073</ele>
        <time>2026-05-13T17:47:04Z</time>
      </trkpt>
      <trkpt lat="46.03962" lon="5.70604">
        <ele>1072.6</ele>
        <time>2026-05-13T17:47:05Z</time>
      </trkpt>
      <trkpt lat="46.03956" lon="5.70594">
        <ele>1072.2</ele>
        <time>2026-05-13T17:47:06Z</time>
      </trkpt>
      <trkpt lat="46.03954" lon="5.70586">
        <ele>1072</ele>
        <time>2026-05-13T17:47:07Z</time>
      </trkpt>
      <trkpt lat="46.03951" lon="5.70578">
        <ele>1071.6</ele>
        <time>2026-05-13T17:47:08Z</time>
      </trkpt>
      <trkpt lat="46.03953" lon="5.70569">
        <ele>1071.6</ele>
        <time>2026-05-13T17:47:09Z</time>
      </trkpt>
      <trkpt lat="46.03953" lon="5.7056">
        <ele>1071</ele>
        <time>2026-05-13T17:47:10Z</time>
      </trkpt>
      <trkpt lat="46.03954" lon="5.7055">
        <ele>1070.2</ele>
        <time>2026-05-13T17:47:11Z</time>
      </trkpt>
      <trkpt lat="46.03956" lon="5.70538">
        <ele>1069.2</ele>
        <time>2026-05-13T17:47:12Z</time>
      </trkpt>
      <trkpt lat="46.03958" lon="5.70525">
        <ele>1068.4</ele>
        <time>2026-05-13T17:47:13Z</time>
      </trkpt>
      <trkpt lat="46.0396" lon="5.70512">
        <ele>1067.4</ele>
        <time>2026-05-13T17:47:14Z</time>
      </trkpt>
      <trkpt lat="46.03966" lon="5.70487">
        <ele>1067</ele>
        <time>2026-05-13T17:47:15Z</time>
      </trkpt>
      <trkpt lat="46.03968" lon="5.70476">
        <ele>1066.4</ele>
        <time>2026-05-13T17:47:16Z</time>
      </trkpt>
      <trkpt lat="46.0397" lon="5.70465">
        <ele>1066.4</ele>
        <time>2026-05-13T17:47:17Z</time>
      </trkpt>
      <trkpt lat="46.03972" lon="5.70454">
        <ele>1066</ele>
        <time>2026-05-13T17:47:18Z</time>
      </trkpt>
      <trkpt lat="46.03973" lon="5.70442">
        <ele>1065.4</ele>
        <time>2026-05-13T17:47:19Z</time>
      </trkpt>
      <trkpt lat="46.03974" lon="5.70431">
        <ele>1065</ele>
        <time>2026-05-13T17:47:20Z</time>
      </trkpt>
      <trkpt lat="46.03975" lon="5.70419">
        <ele>1064.6</ele>
        <time>2026-05-13T17:47:21Z</time>
      </trkpt>
      <trkpt lat="46.03975" lon="5.70408">
        <ele>1064.2</ele>
        <time>2026-05-13T17:47:22Z</time>
      </trkpt>
      <trkpt lat="46.03975" lon="5.70396">
        <ele>1063.8</ele>
        <time>2026-05-13T17:47:23Z</time>
      </trkpt>
      <trkpt lat="46.03974" lon="5.70383">
        <ele>1063.2</ele>
        <time>2026-05-13T17:47:24Z</time>
      </trkpt>
      <trkpt lat="46.03973" lon="5.70371">
        <ele>1062</ele>
        <time>2026-05-13T17:47:25Z</time>
      </trkpt>
      <trkpt lat="46.03972" lon="5.70359">
        <ele>1061.6</ele>
        <time>2026-05-13T17:47:26Z</time>
      </trkpt>
      <trkpt lat="46.03969" lon="5.70348">
        <ele>1061</ele>
        <time>2026-05-13T17:47:27Z</time>
      </trkpt>
      <trkpt lat="46.03966" lon="5.70337">
        <ele>1060.8</ele>
        <time>2026-05-13T17:47:28Z</time>
      </trkpt>
      <trkpt lat="46.03961" lon="5.70327">
        <ele>1060.4</ele>
        <time>2026-05-13T17:47:29Z</time>
      </trkpt>
      <trkpt lat="46.03957" lon="5.70317">
        <ele>1060</ele>
        <time>2026-05-13T17:47:30Z</time>
      </trkpt>
      <trkpt lat="46.03951" lon="5.70308">
        <ele>1059.4</ele>
        <time>2026-05-13T17:47:31Z</time>
      </trkpt>
      <trkpt lat="46.03947" lon="5.70298">
        <ele>1059</ele>
        <time>2026-05-13T17:47:32Z</time>
      </trkpt>
      <trkpt lat="46.03942" lon="5.70287">
        <ele>1058.6</ele>
        <time>2026-05-13T17:47:33Z</time>
      </trkpt>
      <trkpt lat="46.03938" lon="5.70276">
        <ele>1057.8</ele>
        <time>2026-05-13T17:47:34Z</time>
      </trkpt>
      <trkpt lat="46.03933" lon="5.70265">
        <ele>1057.2</ele>
        <time>2026-05-13T17:47:35Z</time>
      </trkpt>
      <trkpt lat="46.03929" lon="5.70253">
        <ele>1056.8</ele>
        <time>2026-05-13T17:47:36Z</time>
      </trkpt>
      <trkpt lat="46.03925" lon="5.70243">
        <ele>1056.2</ele>
        <time>2026-05-13T17:47:37Z</time>
      </trkpt>
      <trkpt lat="46.03921" lon="5.70232">
        <ele>1055.6</ele>
        <time>2026-05-13T17:47:38Z</time>
      </trkpt>
      <trkpt lat="46.03918" lon="5.70221">
        <ele>1055.6</ele>
        <time>2026-05-13T17:47:39Z</time>
      </trkpt>
      <trkpt lat="46.03915" lon="5.70211">
        <ele>1055.6</ele>
        <time>2026-05-13T17:47:40Z</time>
      </trkpt>
      <trkpt lat="46.03913" lon="5.70203">
        <ele>1055.6</ele>
        <time>2026-05-13T17:47:41Z</time>
      </trkpt>
      <trkpt lat="46.03912" lon="5.70196">
        <ele>1056</ele>
        <time>2026-05-13T17:47:42Z</time>
      </trkpt>
      <trkpt lat="46.03912" lon="5.70191">
        <ele>1056.4</ele>
        <time>2026-05-13T17:47:43Z</time>
      </trkpt>
      <trkpt lat="46.03911" lon="5.70187">
        <ele>1056.6</ele>
        <time>2026-05-13T17:47:44Z</time>
      </trkpt>
      <trkpt lat="46.03911" lon="5.70184">
        <ele>1057</ele>
        <time>2026-05-13T17:47:45Z</time>
      </trkpt>
      <trkpt lat="46.03911" lon="5.70183">
        <ele>1057.2</ele>
        <time>2026-05-13T17:47:46Z</time>
      </trkpt>
      <trkpt lat="46.03911" lon="5.70183">
        <ele>1057.6</ele>
        <time>2026-05-13T17:47:47Z</time>
      </trkpt>
      <trkpt lat="46.03911" lon="5.70183">
        <ele>1057.8</ele>
        <time>2026-05-13T17:47:48Z</time>
      </trkpt>
      <trkpt lat="46.03911" lon="5.70183">
        <ele>1057.8</ele>
        <time>2026-05-13T17:47:49Z</time>
      </trkpt>
      <trkpt lat="46.03911" lon="5.70179">
        <ele>1057.8</ele>
        <time>2026-05-13T17:48:46Z</time>
      </trkpt>
      <trkpt lat="46.0391" lon="5.70178">
        <ele>1057.8</ele>
        <time>2026-05-13T17:48:47Z</time>
      </trkpt>
      <trkpt lat="46.0391" lon="5.70177">
        <ele>1057.8</ele>
        <time>2026-05-13T17:48:48Z</time>
      </trkpt>
      <trkpt lat="46.0391" lon="5.70177">
        <ele>1057.8</ele>
        <time>2026-05-13T17:48:49Z</time>
      </trkpt>
      <trkpt lat="46.0391" lon="5.70177">
        <ele>1057.8</ele>
        <time>2026-05-13T17:48:50Z</time>
      </trkpt>
      <trkpt lat="46.03912" lon="5.70175">
        <ele>1058</ele>
        <time>2026-05-13T17:49:00Z</time>
      </trkpt>
      <trkpt lat="46.03912" lon="5.70174">
        <ele>1058</ele>
        <time>2026-05-13T17:49:01Z</time>
      </trkpt>
      <trkpt lat="46.03914" lon="5.70173">
        <ele>1058</ele>
        <time>2026-05-13T17:49:02Z</time>
      </trkpt>
      <trkpt lat="46.03915" lon="5.70171">
        <ele>1058</ele>
        <time>2026-05-13T17:49:03Z</time>
      </trkpt>
      <trkpt lat="46.03916" lon="5.7017">
        <ele>1058</ele>
        <time>2026-05-13T17:49:04Z</time>
      </trkpt>
      <trkpt lat="46.03916" lon="5.70169">
        <ele>1058</ele>
        <time>2026-05-13T17:49:05Z</time>
      </trkpt>
      <trkpt lat="46.03917" lon="5.70168">
        <ele>1058</ele>
        <time>2026-05-13T17:49:06Z</time>
      </trkpt>
      <trkpt lat="46.03918" lon="5.70167">
        <ele>1058</ele>
        <time>2026-05-13T17:49:07Z</time>
      </trkpt>
      <trkpt lat="46.03918" lon="5.70167">
        <ele>1058</ele>
        <time>2026-05-13T17:49:08Z</time>
      </trkpt>
      <trkpt lat="46.03918" lon="5.70167">
        <ele>1058</ele>
        <time>2026-05-13T17:49:09Z</time>
      </trkpt>
      <trkpt lat="46.03918" lon="5.70167">
        <ele>1058</ele>
        <time>2026-05-13T17:49:10Z</time>
      </trkpt>
      <trkpt lat="46.03918" lon="5.70167">
        <ele>1058</ele>
        <time>2026-05-13T17:49:11Z</time>
      </trkpt>
      <trkpt lat="46.03919" lon="5.70162">
        <ele>1058.4</ele>
        <time>2026-05-13T17:54:37Z</time>
      </trkpt>
      <trkpt lat="46.03918" lon="5.70163">
        <ele>1058.4</ele>
        <time>2026-05-13T17:54:38Z</time>
      </trkpt>
      <trkpt lat="46.03918" lon="5.70163">
        <ele>1058.4</ele>
        <time>2026-05-13T17:54:39Z</time>
      </trkpt>
      <trkpt lat="46.03917" lon="5.70164">
        <ele>1058.2</ele>
        <time>2026-05-13T17:54:40Z</time>
      </trkpt>
      <trkpt lat="46.03914" lon="5.70164">
        <ele>1058</ele>
        <time>2026-05-13T17:57:32Z</time>
      </trkpt>
      <trkpt lat="46.03912" lon="5.70164">
        <ele>1058</ele>
        <time>2026-05-13T17:57:33Z</time>
      </trkpt>
      <trkpt lat="46.03909" lon="5.70164">
        <ele>1057.6</ele>
        <time>2026-05-13T17:57:34Z</time>
      </trkpt>
      <trkpt lat="46.03908" lon="5.70164">
        <ele>1057.6</ele>
        <time>2026-05-13T17:57:35Z</time>
      </trkpt>
      <trkpt lat="46.03907" lon="5.70165">
        <ele>1057.6</ele>
        <time>2026-05-13T17:57:36Z</time>
      </trkpt>
      <trkpt lat="46.03906" lon="5.70165">
        <ele>1057.6</ele>
        <time>2026-05-13T17:57:37Z</time>
      </trkpt>
      <trkpt lat="46.03905" lon="5.70165">
        <ele>1057.6</ele>
        <time>2026-05-13T17:57:38Z</time>
      </trkpt>
      <trkpt lat="46.03904" lon="5.70166">
        <ele>1057.4</ele>
        <time>2026-05-13T17:57:39Z</time>
      </trkpt>
      <trkpt lat="46.03903" lon="5.70167">
        <ele>1057.6</ele>
        <time>2026-05-13T17:57:40Z</time>
      </trkpt>
      <trkpt lat="46.03902" lon="5.70169">
        <ele>1057.6</ele>
        <time>2026-05-13T17:57:41Z</time>
      </trkpt>
      <trkpt lat="46.03902" lon="5.70171">
        <ele>1057.6</ele>
        <time>2026-05-13T17:57:42Z</time>
      </trkpt>
      <trkpt lat="46.03903" lon="5.70174">
        <ele>1057.8</ele>
        <time>2026-05-13T17:57:43Z</time>
      </trkpt>
      <trkpt lat="46.03904" lon="5.70176">
        <ele>1057.8</ele>
        <time>2026-05-13T17:57:44Z</time>
      </trkpt>
      <trkpt lat="46.03905" lon="5.70178">
        <ele>1057.8</ele>
        <time>2026-05-13T17:57:45Z</time>
      </trkpt>
      <trkpt lat="46.03907" lon="5.7018">
        <ele>1058.2</ele>
        <time>2026-05-13T17:57:46Z</time>
      </trkpt>
      <trkpt lat="46.03909" lon="5.70181">
        <ele>1058.2</ele>
        <time>2026-05-13T17:57:47Z</time>
      </trkpt>
      <trkpt lat="46.03912" lon="5.70181">
        <ele>1058.2</ele>
        <time>2026-05-13T17:57:48Z</time>
      </trkpt>
      <trkpt lat="46.03915" lon="5.70179">
        <ele>1058.2</ele>
        <time>2026-05-13T17:57:49Z</time>
      </trkpt>
      <trkpt lat="46.03917" lon="5.70175">
        <ele>1058.2</ele>
        <time>2026-05-13T17:57:50Z</time>
      </trkpt>
      <trkpt lat="46.03918" lon="5.70171">
        <ele>1058.2</ele>
        <time>2026-05-13T17:57:51Z</time>
      </trkpt>
      <trkpt lat="46.03917" lon="5.70169">
        <ele>1058.2</ele>
        <time>2026-05-13T17:57:52Z</time>
      </trkpt>
      <trkpt lat="46.03917" lon="5.70167">
        <ele>1058.2</ele>
        <time>2026-05-13T17:57:53Z</time>
      </trkpt>
      <trkpt lat="46.03916" lon="5.70166">
        <ele>1058.2</ele>
        <time>2026-05-13T17:57:54Z</time>
      </trkpt>
      <trkpt lat="46.03915" lon="5.70165">
        <ele>1058.2</ele>
        <time>2026-05-13T17:57:55Z</time>
      </trkpt>
      <trkpt lat="46.03915" lon="5.70163">
        <ele>1058.2</ele>
        <time>2026-05-13T17:57:56Z</time>
      </trkpt>
      <trkpt lat="46.03914" lon="5.70162">
        <ele>1058.2</ele>
        <time>2026-05-13T17:57:57Z</time>
      </trkpt>
      <trkpt lat="46.03914" lon="5.70161">
        <ele>1058.2</ele>
        <time>2026-05-13T17:57:58Z</time>
      </trkpt>
      <trkpt lat="46.03914" lon="5.70159">
        <ele>1058.2</ele>
        <time>2026-05-13T17:57:59Z</time>
      </trkpt>
      <trkpt lat="46.03914" lon="5.70158">
        <ele>1058.2</ele>
        <time>2026-05-13T17:58:00Z</time>
      </trkpt>
      <trkpt lat="46.03914" lon="5.70157">
        <ele>1058.2</ele>
        <time>2026-05-13T17:58:01Z</time>
      </trkpt>
      <trkpt lat="46.03913" lon="5.70156">
        <ele>1058.2</ele>
        <time>2026-05-13T17:58:02Z</time>
      </trkpt>
      <trkpt lat="46.03913" lon="5.70155">
        <ele>1058.2</ele>
        <time>2026-05-13T17:58:03Z</time>
      </trkpt>
      <trkpt lat="46.03912" lon="5.70153">
        <ele>1058.2</ele>
        <time>2026-05-13T17:58:04Z</time>
      </trkpt>
      <trkpt lat="46.03911" lon="5.70152">
        <ele>1058.2</ele>
        <time>2026-05-13T17:58:05Z</time>
      </trkpt>
      <trkpt lat="46.0391" lon="5.70152">
        <ele>1057.8</ele>
        <time>2026-05-13T17:58:06Z</time>
      </trkpt>
      <trkpt lat="46.03908" lon="5.70151">
        <ele>1057.8</ele>
        <time>2026-05-13T17:58:07Z</time>
      </trkpt>
      <trkpt lat="46.03907" lon="5.70151">
        <ele>1057.8</ele>
        <time>2026-05-13T17:58:08Z</time>
      </trkpt>
      <trkpt lat="46.03905" lon="5.70151">
        <ele>1057.6</ele>
        <time>2026-05-13T17:58:09Z</time>
      </trkpt>
      <trkpt lat="46.03904" lon="5.70151">
        <ele>1057.6</ele>
        <time>2026-05-13T17:58:10Z</time>
      </trkpt>
      <trkpt lat="46.03903" lon="5.7015">
        <ele>1057.6</ele>
        <time>2026-05-13T17:58:11Z</time>
      </trkpt>
      <trkpt lat="46.03902" lon="5.70149">
        <ele>1057.6</ele>
        <time>2026-05-13T17:58:12Z</time>
      </trkpt>
      <trkpt lat="46.03901" lon="5.70147">
        <ele>1057.6</ele>
        <time>2026-05-13T17:58:13Z</time>
      </trkpt>
      <trkpt lat="46.039" lon="5.70144">
        <ele>1057.6</ele>
        <time>2026-05-13T17:58:14Z</time>
      </trkpt>
      <trkpt lat="46.03898" lon="5.70141">
        <ele>1057.6</ele>
        <time>2026-05-13T17:58:15Z</time>
      </trkpt>
      <trkpt lat="46.03897" lon="5.70138">
        <ele>1057.6</ele>
        <time>2026-05-13T17:58:16Z</time>
      </trkpt>
      <trkpt lat="46.03895" lon="5.70135">
        <ele>1057.6</ele>
        <time>2026-05-13T17:58:17Z</time>
      </trkpt>
      <trkpt lat="46.03894" lon="5.70131">
        <ele>1057.6</ele>
        <time>2026-05-13T17:58:18Z</time>
      </trkpt>
      <trkpt lat="46.03893" lon="5.70127">
        <ele>1057.6</ele>
        <time>2026-05-13T17:58:19Z</time>
      </trkpt>
      <trkpt lat="46.03892" lon="5.70123">
        <ele>1057.6</ele>
        <time>2026-05-13T17:58:20Z</time>
      </trkpt>
      <trkpt lat="46.0389" lon="5.70119">
        <ele>1057.8</ele>
        <time>2026-05-13T17:58:21Z</time>
      </trkpt>
      <trkpt lat="46.03889" lon="5.70114">
        <ele>1057.8</ele>
        <time>2026-05-13T17:58:22Z</time>
      </trkpt>
      <trkpt lat="46.03888" lon="5.7011">
        <ele>1057.8</ele>
        <time>2026-05-13T17:58:23Z</time>
      </trkpt>
      <trkpt lat="46.03887" lon="5.70105">
        <ele>1057.8</ele>
        <time>2026-05-13T17:58:24Z</time>
      </trkpt>
      <trkpt lat="46.03885" lon="5.701">
        <ele>1057.8</ele>
        <time>2026-05-13T17:58:25Z</time>
      </trkpt>
      <trkpt lat="46.03884" lon="5.70095">
        <ele>1057.8</ele>
        <time>2026-05-13T17:58:26Z</time>
      </trkpt>
      <trkpt lat="46.03883" lon="5.7009">
        <ele>1057.6</ele>
        <time>2026-05-13T17:58:27Z</time>
      </trkpt>
      <trkpt lat="46.03881" lon="5.70085">
        <ele>1057.6</ele>
        <time>2026-05-13T17:58:28Z</time>
      </trkpt>
      <trkpt lat="46.0388" lon="5.70079">
        <ele>1057.2</ele>
        <time>2026-05-13T17:58:29Z</time>
      </trkpt>
      <trkpt lat="46.03879" lon="5.70074">
        <ele>1057.2</ele>
        <time>2026-05-13T17:58:30Z</time>
      </trkpt>
      <trkpt lat="46.03877" lon="5.70068">
        <ele>1057</ele>
        <time>2026-05-13T17:58:31Z</time>
      </trkpt>
      <trkpt lat="46.03876" lon="5.70063">
        <ele>1057</ele>
        <time>2026-05-13T17:58:32Z</time>
      </trkpt>
      <trkpt lat="46.03874" lon="5.70057">
        <ele>1056.6</ele>
        <time>2026-05-13T17:58:33Z</time>
      </trkpt>
      <trkpt lat="46.03872" lon="5.70051">
        <ele>1056.2</ele>
        <time>2026-05-13T17:58:34Z</time>
      </trkpt>
      <trkpt lat="46.03869" lon="5.70046">
        <ele>1056</ele>
        <time>2026-05-13T17:58:35Z</time>
      </trkpt>
      <trkpt lat="46.03867" lon="5.7004">
        <ele>1056</ele>
        <time>2026-05-13T17:58:36Z</time>
      </trkpt>
      <trkpt lat="46.03864" lon="5.70033">
        <ele>1055.2</ele>
        <time>2026-05-13T17:58:37Z</time>
      </trkpt>
      <trkpt lat="46.03861" lon="5.70027">
        <ele>1054.8</ele>
        <time>2026-05-13T17:58:38Z</time>
      </trkpt>
      <trkpt lat="46.03858" lon="5.7002">
        <ele>1054.4</ele>
        <time>2026-05-13T17:58:39Z</time>
      </trkpt>
      <trkpt lat="46.03855" lon="5.70013">
        <ele>1054</ele>
        <time>2026-05-13T17:58:40Z</time>
      </trkpt>
      <trkpt lat="46.03852" lon="5.70007">
        <ele>1053.4</ele>
        <time>2026-05-13T17:58:41Z</time>
      </trkpt>
      <trkpt lat="46.03849" lon="5.7">
        <ele>1053.4</ele>
        <time>2026-05-13T17:58:42Z</time>
      </trkpt>
      <trkpt lat="46.03846" lon="5.69993">
        <ele>1053</ele>
        <time>2026-05-13T17:58:43Z</time>
      </trkpt>
      <trkpt lat="46.03843" lon="5.69986">
        <ele>1053</ele>
        <time>2026-05-13T17:58:44Z</time>
      </trkpt>
      <trkpt lat="46.03839" lon="5.69979">
        <ele>1052.6</ele>
        <time>2026-05-13T17:58:45Z</time>
      </trkpt>
      <trkpt lat="46.03835" lon="5.69972">
        <ele>1052.2</ele>
        <time>2026-05-13T17:58:46Z</time>
      </trkpt>
      <trkpt lat="46.03832" lon="5.69964">
        <ele>1052.2</ele>
        <time>2026-05-13T17:58:47Z</time>
      </trkpt>
      <trkpt lat="46.03828" lon="5.69957">
        <ele>1052.2</ele>
        <time>2026-05-13T17:58:48Z</time>
      </trkpt>
      <trkpt lat="46.03824" lon="5.6995">
        <ele>1051.4</ele>
        <time>2026-05-13T17:58:49Z</time>
      </trkpt>
      <trkpt lat="46.03822" lon="5.69943">
        <ele>1051.4</ele>
        <time>2026-05-13T17:58:50Z</time>
      </trkpt>
      <trkpt lat="46.03821" lon="5.69938">
        <ele>1051.4</ele>
        <time>2026-05-13T17:58:51Z</time>
      </trkpt>
      <trkpt lat="46.0382" lon="5.69933">
        <ele>1051.4</ele>
        <time>2026-05-13T17:58:52Z</time>
      </trkpt>
      <trkpt lat="46.03819" lon="5.6993">
        <ele>1051.4</ele>
        <time>2026-05-13T17:58:53Z</time>
      </trkpt>
      <trkpt lat="46.03817" lon="5.69928">
        <ele>1051.8</ele>
        <time>2026-05-13T17:58:54Z</time>
      </trkpt>
      <trkpt lat="46.03816" lon="5.69926">
        <ele>1051.8</ele>
        <time>2026-05-13T17:58:55Z</time>
      </trkpt>
      <trkpt lat="46.03814" lon="5.69924">
        <ele>1052</ele>
        <time>2026-05-13T17:58:56Z</time>
      </trkpt>
      <trkpt lat="46.03813" lon="5.69921">
        <ele>1052</ele>
        <time>2026-05-13T17:58:57Z</time>
      </trkpt>
      <trkpt lat="46.03811" lon="5.69918">
        <ele>1052</ele>
        <time>2026-05-13T17:58:58Z</time>
      </trkpt>
      <trkpt lat="46.0381" lon="5.69914">
        <ele>1051.6</ele>
        <time>2026-05-13T17:58:59Z</time>
      </trkpt>
      <trkpt lat="46.03809" lon="5.69911">
        <ele>1051.6</ele>
        <time>2026-05-13T17:59:00Z</time>
      </trkpt>
      <trkpt lat="46.03807" lon="5.69907">
        <ele>1051.4</ele>
        <time>2026-05-13T17:59:01Z</time>
      </trkpt>
      <trkpt lat="46.03806" lon="5.69905">
        <ele>1051.2</ele>
        <time>2026-05-13T17:59:02Z</time>
      </trkpt>
      <trkpt lat="46.03805" lon="5.69903">
        <ele>1051.2</ele>
        <time>2026-05-13T17:59:03Z</time>
      </trkpt>
      <trkpt lat="46.03804" lon="5.69901">
        <ele>1051</ele>
        <time>2026-05-13T17:59:04Z</time>
      </trkpt>
      <trkpt lat="46.03803" lon="5.699">
        <ele>1051</ele>
        <time>2026-05-13T17:59:05Z</time>
      </trkpt>
      <trkpt lat="46.03802" lon="5.69899">
        <ele>1051</ele>
        <time>2026-05-13T17:59:06Z</time>
      </trkpt>
      <trkpt lat="46.03801" lon="5.69897">
        <ele>1051</ele>
        <time>2026-05-13T17:59:07Z</time>
      </trkpt>
      <trkpt lat="46.038" lon="5.69896">
        <ele>1051</ele>
        <time>2026-05-13T17:59:08Z</time>
      </trkpt>
      <trkpt lat="46.03798" lon="5.69894">
        <ele>1051</ele>
        <time>2026-05-13T17:59:09Z</time>
      </trkpt>
      <trkpt lat="46.03797" lon="5.69891">
        <ele>1051</ele>
        <time>2026-05-13T17:59:10Z</time>
      </trkpt>
      <trkpt lat="46.03795" lon="5.69888">
        <ele>1050.6</ele>
        <time>2026-05-13T17:59:11Z</time>
      </trkpt>
      <trkpt lat="46.03794" lon="5.69885">
        <ele>1050.6</ele>
        <time>2026-05-13T17:59:12Z</time>
      </trkpt>
      <trkpt lat="46.03792" lon="5.69882">
        <ele>1050.4</ele>
        <time>2026-05-13T17:59:13Z</time>
      </trkpt>
      <trkpt lat="46.0379" lon="5.69878">
        <ele>1050.4</ele>
        <time>2026-05-13T17:59:14Z</time>
      </trkpt>
      <trkpt lat="46.03788" lon="5.69874">
        <ele>1050.2</ele>
        <time>2026-05-13T17:59:15Z</time>
      </trkpt>
      <trkpt lat="46.03786" lon="5.6987">
        <ele>1050</ele>
        <time>2026-05-13T17:59:16Z</time>
      </trkpt>
      <trkpt lat="46.03783" lon="5.69865">
        <ele>1049.6</ele>
        <time>2026-05-13T17:59:17Z</time>
      </trkpt>
      <trkpt lat="46.03781" lon="5.6986">
        <ele>1049.4</ele>
        <time>2026-05-13T17:59:18Z</time>
      </trkpt>
      <trkpt lat="46.03779" lon="5.69854">
        <ele>1049</ele>
        <time>2026-05-13T17:59:19Z</time>
      </trkpt>
      <trkpt lat="46.03778" lon="5.69847">
        <ele>1048.8</ele>
        <time>2026-05-13T17:59:20Z</time>
      </trkpt>
      <trkpt lat="46.03776" lon="5.69839">
        <ele>1048.4</ele>
        <time>2026-05-13T17:59:21Z</time>
      </trkpt>
      <trkpt lat="46.03776" lon="5.69831">
        <ele>1047.8</ele>
        <time>2026-05-13T17:59:22Z</time>
      </trkpt>
      <trkpt lat="46.03776" lon="5.69822">
        <ele>1047.6</ele>
        <time>2026-05-13T17:59:23Z</time>
      </trkpt>
      <trkpt lat="46.03777" lon="5.69812">
        <ele>1047</ele>
        <time>2026-05-13T17:59:24Z</time>
      </trkpt>
      <trkpt lat="46.03779" lon="5.69801">
        <ele>1046.4</ele>
        <time>2026-05-13T17:59:25Z</time>
      </trkpt>
      <trkpt lat="46.03783" lon="5.6979">
        <ele>1045.8</ele>
        <time>2026-05-13T17:59:26Z</time>
      </trkpt>
      <trkpt lat="46.03786" lon="5.69779">
        <ele>1045</ele>
        <time>2026-05-13T17:59:27Z</time>
      </trkpt>
      <trkpt lat="46.0379" lon="5.69768">
        <ele>1044.4</ele>
        <time>2026-05-13T17:59:28Z</time>
      </trkpt>
      <trkpt lat="46.03793" lon="5.69757">
        <ele>1043.8</ele>
        <time>2026-05-13T17:59:29Z</time>
      </trkpt>
      <trkpt lat="46.03796" lon="5.69745">
        <ele>1043</ele>
        <time>2026-05-13T17:59:30Z</time>
      </trkpt>
      <trkpt lat="46.03799" lon="5.69732">
        <ele>1042.4</ele>
        <time>2026-05-13T17:59:31Z</time>
      </trkpt>
      <trkpt lat="46.03802" lon="5.69719">
        <ele>1042.2</ele>
        <time>2026-05-13T17:59:32Z</time>
      </trkpt>
      <trkpt lat="46.03805" lon="5.69706">
        <ele>1041.6</ele>
        <time>2026-05-13T17:59:33Z</time>
      </trkpt>
      <trkpt lat="46.03807" lon="5.69692">
        <ele>1040.8</ele>
        <time>2026-05-13T17:59:34Z</time>
      </trkpt>
      <trkpt lat="46.03811" lon="5.69677">
        <ele>1039.8</ele>
        <time>2026-05-13T17:59:35Z</time>
      </trkpt>
      <trkpt lat="46.03815" lon="5.69663">
        <ele>1039</ele>
        <time>2026-05-13T17:59:36Z</time>
      </trkpt>
      <trkpt lat="46.03821" lon="5.6965">
        <ele>1037.8</ele>
        <time>2026-05-13T17:59:37Z</time>
      </trkpt>
      <trkpt lat="46.03828" lon="5.69638">
        <ele>1037</ele>
        <time>2026-05-13T17:59:38Z</time>
      </trkpt>
      <trkpt lat="46.03835" lon="5.69627">
        <ele>1036.2</ele>
        <time>2026-05-13T17:59:39Z</time>
      </trkpt>
      <trkpt lat="46.03843" lon="5.69615">
        <ele>1035.2</ele>
        <time>2026-05-13T17:59:40Z</time>
      </trkpt>
      <trkpt lat="46.03851" lon="5.69604">
        <ele>1034</ele>
        <time>2026-05-13T17:59:41Z</time>
      </trkpt>
      <trkpt lat="46.03859" lon="5.69593">
        <ele>1033.2</ele>
        <time>2026-05-13T17:59:42Z</time>
      </trkpt>
      <trkpt lat="46.03868" lon="5.69581">
        <ele>1032.6</ele>
        <time>2026-05-13T17:59:43Z</time>
      </trkpt>
      <trkpt lat="46.03876" lon="5.6957">
        <ele>1032</ele>
        <time>2026-05-13T17:59:44Z</time>
      </trkpt>
      <trkpt lat="46.03884" lon="5.69559">
        <ele>1031</ele>
        <time>2026-05-13T17:59:45Z</time>
      </trkpt>
      <trkpt lat="46.03892" lon="5.69546">
        <ele>1030.2</ele>
        <time>2026-05-13T17:59:46Z</time>
      </trkpt>
      <trkpt lat="46.03898" lon="5.69532">
        <ele>1030</ele>
        <time>2026-05-13T17:59:47Z</time>
      </trkpt>
      <trkpt lat="46.03903" lon="5.69517">
        <ele>1029</ele>
        <time>2026-05-13T17:59:48Z</time>
      </trkpt>
      <trkpt lat="46.03907" lon="5.69502">
        <ele>1028</ele>
        <time>2026-05-13T17:59:49Z</time>
      </trkpt>
      <trkpt lat="46.03911" lon="5.69486">
        <ele>1027.2</ele>
        <time>2026-05-13T17:59:50Z</time>
      </trkpt>
      <trkpt lat="46.03914" lon="5.6947">
        <ele>1026.8</ele>
        <time>2026-05-13T17:59:51Z</time>
      </trkpt>
      <trkpt lat="46.03917" lon="5.69455">
        <ele>1026.2</ele>
        <time>2026-05-13T17:59:52Z</time>
      </trkpt>
      <trkpt lat="46.03917" lon="5.69438">
        <ele>1025.6</ele>
        <time>2026-05-13T17:59:53Z</time>
      </trkpt>
      <trkpt lat="46.03919" lon="5.69422">
        <ele>1025</ele>
        <time>2026-05-13T17:59:54Z</time>
      </trkpt>
      <trkpt lat="46.03921" lon="5.69407">
        <ele>1024.8</ele>
        <time>2026-05-13T17:59:55Z</time>
      </trkpt>
      <trkpt lat="46.03923" lon="5.69392">
        <ele>1024.4</ele>
        <time>2026-05-13T17:59:56Z</time>
      </trkpt>
      <trkpt lat="46.03925" lon="5.69377">
        <ele>1024.4</ele>
        <time>2026-05-13T17:59:57Z</time>
      </trkpt>
      <trkpt lat="46.03928" lon="5.69361">
        <ele>1023.6</ele>
        <time>2026-05-13T17:59:58Z</time>
      </trkpt>
      <trkpt lat="46.0393" lon="5.69346">
        <ele>1023</ele>
        <time>2026-05-13T17:59:59Z</time>
      </trkpt>
      <trkpt lat="46.03932" lon="5.69332">
        <ele>1022.6</ele>
        <time>2026-05-13T18:00:00Z</time>
      </trkpt>
      <trkpt lat="46.03934" lon="5.69317">
        <ele>1022</ele>
        <time>2026-05-13T18:00:01Z</time>
      </trkpt>
      <trkpt lat="46.03936" lon="5.69303">
        <ele>1021.8</ele>
        <time>2026-05-13T18:00:02Z</time>
      </trkpt>
      <trkpt lat="46.03936" lon="5.69303">
        <ele>1021.6</ele>
        <time>2026-05-13T18:00:03Z</time>
      </trkpt>
      <trkpt lat="46.03937" lon="5.69288">
        <ele>1021.2</ele>
        <time>2026-05-13T18:00:04Z</time>
      </trkpt>
      <trkpt lat="46.03939" lon="5.69274">
        <ele>1020.8</ele>
        <time>2026-05-13T18:00:05Z</time>
      </trkpt>
      <trkpt lat="46.0394" lon="5.6926">
        <ele>1020.6</ele>
        <time>2026-05-13T18:00:06Z</time>
      </trkpt>
      <trkpt lat="46.03941" lon="5.69246">
        <ele>1020</ele>
        <time>2026-05-13T18:00:07Z</time>
      </trkpt>
      <trkpt lat="46.03941" lon="5.69232">
        <ele>1019.2</ele>
        <time>2026-05-13T18:00:08Z</time>
      </trkpt>
      <trkpt lat="46.03941" lon="5.6922">
        <ele>1019</ele>
        <time>2026-05-13T18:00:09Z</time>
      </trkpt>
      <trkpt lat="46.0394" lon="5.69206">
        <ele>1019</ele>
        <time>2026-05-13T18:00:10Z</time>
      </trkpt>
      <trkpt lat="46.0394" lon="5.69193">
        <ele>1019</ele>
        <time>2026-05-13T18:00:11Z</time>
      </trkpt>
      <trkpt lat="46.0394" lon="5.6918">
        <ele>1019</ele>
        <time>2026-05-13T18:00:12Z</time>
      </trkpt>
      <trkpt lat="46.03941" lon="5.69168">
        <ele>1018.6</ele>
        <time>2026-05-13T18:00:13Z</time>
      </trkpt>
      <trkpt lat="46.03942" lon="5.69155">
        <ele>1018.2</ele>
        <time>2026-05-13T18:00:14Z</time>
      </trkpt>
      <trkpt lat="46.03945" lon="5.69142">
        <ele>1017.8</ele>
        <time>2026-05-13T18:00:15Z</time>
      </trkpt>
      <trkpt lat="46.03947" lon="5.69129">
        <ele>1017.8</ele>
        <time>2026-05-13T18:00:16Z</time>
      </trkpt>
      <trkpt lat="46.03951" lon="5.69117">
        <ele>1017.8</ele>
        <time>2026-05-13T18:00:17Z</time>
      </trkpt>
      <trkpt lat="46.03957" lon="5.69106">
        <ele>1017.8</ele>
        <time>2026-05-13T18:00:18Z</time>
      </trkpt>
      <trkpt lat="46.03962" lon="5.69095">
        <ele>1017.4</ele>
        <time>2026-05-13T18:00:19Z</time>
      </trkpt>
      <trkpt lat="46.03968" lon="5.69085">
        <ele>1017.4</ele>
        <time>2026-05-13T18:00:20Z</time>
      </trkpt>
      <trkpt lat="46.03974" lon="5.69076">
        <ele>1016.8</ele>
        <time>2026-05-13T18:00:21Z</time>
      </trkpt>
      <trkpt lat="46.03981" lon="5.69067">
        <ele>1016.4</ele>
        <time>2026-05-13T18:00:22Z</time>
      </trkpt>
      <trkpt lat="46.03989" lon="5.6906">
        <ele>1016.4</ele>
        <time>2026-05-13T18:00:23Z</time>
      </trkpt>
      <trkpt lat="46.03997" lon="5.69053">
        <ele>1016.2</ele>
        <time>2026-05-13T18:00:24Z</time>
      </trkpt>
      <trkpt lat="46.04004" lon="5.69046">
        <ele>1016.2</ele>
        <time>2026-05-13T18:00:25Z</time>
      </trkpt>
      <trkpt lat="46.04013" lon="5.6904">
        <ele>1015.4</ele>
        <time>2026-05-13T18:00:26Z</time>
      </trkpt>
      <trkpt lat="46.04022" lon="5.69034">
        <ele>1015.2</ele>
        <time>2026-05-13T18:00:27Z</time>
      </trkpt>
      <trkpt lat="46.0403" lon="5.69028">
        <ele>1015.2</ele>
        <time>2026-05-13T18:00:28Z</time>
      </trkpt>
      <trkpt lat="46.04039" lon="5.6902">
        <ele>1014.8</ele>
        <time>2026-05-13T18:00:29Z</time>
      </trkpt>
      <trkpt lat="46.04047" lon="5.69012">
        <ele>1014.4</ele>
        <time>2026-05-13T18:00:30Z</time>
      </trkpt>
      <trkpt lat="46.04054" lon="5.69003">
        <ele>1014.4</ele>
        <time>2026-05-13T18:00:31Z</time>
      </trkpt>
      <trkpt lat="46.04061" lon="5.68993">
        <ele>1013.6</ele>
        <time>2026-05-13T18:00:32Z</time>
      </trkpt>
      <trkpt lat="46.04067" lon="5.68982">
        <ele>1013.4</ele>
        <time>2026-05-13T18:00:33Z</time>
      </trkpt>
      <trkpt lat="46.04073" lon="5.6897">
        <ele>1013</ele>
        <time>2026-05-13T18:00:34Z</time>
      </trkpt>
      <trkpt lat="46.04078" lon="5.68959">
        <ele>1012.6</ele>
        <time>2026-05-13T18:00:35Z</time>
      </trkpt>
      <trkpt lat="46.04082" lon="5.68947">
        <ele>1012.2</ele>
        <time>2026-05-13T18:00:36Z</time>
      </trkpt>
      <trkpt lat="46.04086" lon="5.68935">
        <ele>1012.2</ele>
        <time>2026-05-13T18:00:37Z</time>
      </trkpt>
      <trkpt lat="46.0409" lon="5.68923">
        <ele>1012.2</ele>
        <time>2026-05-13T18:00:38Z</time>
      </trkpt>
      <trkpt lat="46.04095" lon="5.68911">
        <ele>1012</ele>
        <time>2026-05-13T18:00:39Z</time>
      </trkpt>
      <trkpt lat="46.04099" lon="5.68899">
        <ele>1011.4</ele>
        <time>2026-05-13T18:00:40Z</time>
      </trkpt>
      <trkpt lat="46.04103" lon="5.68887">
        <ele>1011.2</ele>
        <time>2026-05-13T18:00:41Z</time>
      </trkpt>
      <trkpt lat="46.04106" lon="5.68875">
        <ele>1010.8</ele>
        <time>2026-05-13T18:00:42Z</time>
      </trkpt>
      <trkpt lat="46.04109" lon="5.68862">
        <ele>1010.8</ele>
        <time>2026-05-13T18:00:43Z</time>
      </trkpt>
      <trkpt lat="46.04111" lon="5.68849">
        <ele>1010.4</ele>
        <time>2026-05-13T18:00:44Z</time>
      </trkpt>
      <trkpt lat="46.04112" lon="5.68836">
        <ele>1010.2</ele>
        <time>2026-05-13T18:00:45Z</time>
      </trkpt>
      <trkpt lat="46.04112" lon="5.68823">
        <ele>1010.2</ele>
        <time>2026-05-13T18:00:46Z</time>
      </trkpt>
      <trkpt lat="46.04109" lon="5.68811">
        <ele>1010</ele>
        <time>2026-05-13T18:00:47Z</time>
      </trkpt>
      <trkpt lat="46.04107" lon="5.68799">
        <ele>1010</ele>
        <time>2026-05-13T18:00:48Z</time>
      </trkpt>
      <trkpt lat="46.04103" lon="5.68787">
        <ele>1010</ele>
        <time>2026-05-13T18:00:49Z</time>
      </trkpt>
      <trkpt lat="46.04099" lon="5.68776">
        <ele>1009.6</ele>
        <time>2026-05-13T18:00:50Z</time>
      </trkpt>
      <trkpt lat="46.04094" lon="5.68764">
        <ele>1009.4</ele>
        <time>2026-05-13T18:00:51Z</time>
      </trkpt>
      <trkpt lat="46.04091" lon="5.68753">
        <ele>1009.4</ele>
        <time>2026-05-13T18:00:52Z</time>
      </trkpt>
      <trkpt lat="46.04086" lon="5.68741">
        <ele>1009</ele>
        <time>2026-05-13T18:00:53Z</time>
      </trkpt>
      <trkpt lat="46.04081" lon="5.68732">
        <ele>1008.8</ele>
        <time>2026-05-13T18:00:54Z</time>
      </trkpt>
      <trkpt lat="46.04076" lon="5.68722">
        <ele>1008.6</ele>
        <time>2026-05-13T18:00:55Z</time>
      </trkpt>
      <trkpt lat="46.04071" lon="5.68713">
        <ele>1008.6</ele>
        <time>2026-05-13T18:00:56Z</time>
      </trkpt>
      <trkpt lat="46.04066" lon="5.68703">
        <ele>1008.2</ele>
        <time>2026-05-13T18:00:57Z</time>
      </trkpt>
      <trkpt lat="46.04062" lon="5.68692">
        <ele>1008.2</ele>
        <time>2026-05-13T18:00:58Z</time>
      </trkpt>
      <trkpt lat="46.04057" lon="5.68683">
        <ele>1007.6</ele>
        <time>2026-05-13T18:00:59Z</time>
      </trkpt>
      <trkpt lat="46.04051" lon="5.68672">
        <ele>1007.6</ele>
        <time>2026-05-13T18:01:00Z</time>
      </trkpt>
      <trkpt lat="46.04045" lon="5.68663">
        <ele>1007.2</ele>
        <time>2026-05-13T18:01:01Z</time>
      </trkpt>
      <trkpt lat="46.04037" lon="5.68655">
        <ele>1007.2</ele>
        <time>2026-05-13T18:01:02Z</time>
      </trkpt>
      <trkpt lat="46.04029" lon="5.6865">
        <ele>1007.2</ele>
        <time>2026-05-13T18:01:03Z</time>
      </trkpt>
      <trkpt lat="46.04021" lon="5.68642">
        <ele>1007</ele>
        <time>2026-05-13T18:01:04Z</time>
      </trkpt>
      <trkpt lat="46.04012" lon="5.68639">
        <ele>1007</ele>
        <time>2026-05-13T18:01:05Z</time>
      </trkpt>
      <trkpt lat="46.04004" lon="5.68635">
        <ele>1007</ele>
        <time>2026-05-13T18:01:06Z</time>
      </trkpt>
      <trkpt lat="46.03996" lon="5.6863">
        <ele>1007</ele>
        <time>2026-05-13T18:01:07Z</time>
      </trkpt>
      <trkpt lat="46.03986" lon="5.68628">
        <ele>1006.8</ele>
        <time>2026-05-13T18:01:08Z</time>
      </trkpt>
      <trkpt lat="46.03979" lon="5.68624">
        <ele>1006.6</ele>
        <time>2026-05-13T18:01:09Z</time>
      </trkpt>
      <trkpt lat="46.03971" lon="5.68622">
        <ele>1006.2</ele>
        <time>2026-05-13T18:01:10Z</time>
      </trkpt>
      <trkpt lat="46.03961" lon="5.6862">
        <ele>1006.2</ele>
        <time>2026-05-13T18:01:11Z</time>
      </trkpt>
      <trkpt lat="46.03954" lon="5.68617">
        <ele>1005.6</ele>
        <time>2026-05-13T18:01:12Z</time>
      </trkpt>
      <trkpt lat="46.03947" lon="5.68612">
        <ele>1005.6</ele>
        <time>2026-05-13T18:01:13Z</time>
      </trkpt>
      <trkpt lat="46.03939" lon="5.68608">
        <ele>1005.2</ele>
        <time>2026-05-13T18:01:14Z</time>
      </trkpt>
      <trkpt lat="46.03934" lon="5.68603">
        <ele>1005.2</ele>
        <time>2026-05-13T18:01:15Z</time>
      </trkpt>
      <trkpt lat="46.03926" lon="5.68598">
        <ele>1005.2</ele>
        <time>2026-05-13T18:01:16Z</time>
      </trkpt>
      <trkpt lat="46.03919" lon="5.68593">
        <ele>1005.2</ele>
        <time>2026-05-13T18:01:17Z</time>
      </trkpt>
      <trkpt lat="46.03911" lon="5.68588">
        <ele>1005.2</ele>
        <time>2026-05-13T18:01:18Z</time>
      </trkpt>
      <trkpt lat="46.03904" lon="5.68583">
        <ele>1004.6</ele>
        <time>2026-05-13T18:01:19Z</time>
      </trkpt>
      <trkpt lat="46.03896" lon="5.68579">
        <ele>1004.6</ele>
        <time>2026-05-13T18:01:20Z</time>
      </trkpt>
      <trkpt lat="46.03888" lon="5.68575">
        <ele>1004.4</ele>
        <time>2026-05-13T18:01:21Z</time>
      </trkpt>
      <trkpt lat="46.0388" lon="5.68571">
        <ele>1004</ele>
        <time>2026-05-13T18:01:22Z</time>
      </trkpt>
      <trkpt lat="46.03873" lon="5.68565">
        <ele>1004</ele>
        <time>2026-05-13T18:01:23Z</time>
      </trkpt>
      <trkpt lat="46.03866" lon="5.6856">
        <ele>1003.6</ele>
        <time>2026-05-13T18:01:24Z</time>
      </trkpt>
      <trkpt lat="46.03859" lon="5.68554">
        <ele>1003.4</ele>
        <time>2026-05-13T18:01:25Z</time>
      </trkpt>
      <trkpt lat="46.03852" lon="5.68549">
        <ele>1003.2</ele>
        <time>2026-05-13T18:01:26Z</time>
      </trkpt>
      <trkpt lat="46.03847" lon="5.6854">
        <ele>1002.8</ele>
        <time>2026-05-13T18:01:27Z</time>
      </trkpt>
      <trkpt lat="46.03842" lon="5.68533">
        <ele>1002.4</ele>
        <time>2026-05-13T18:01:28Z</time>
      </trkpt>
      <trkpt lat="46.03838" lon="5.68521">
        <ele>1002</ele>
        <time>2026-05-13T18:01:29Z</time>
      </trkpt>
      <trkpt lat="46.03834" lon="5.68512">
        <ele>1002</ele>
        <time>2026-05-13T18:01:30Z</time>
      </trkpt>
      <trkpt lat="46.03832" lon="5.68499">
        <ele>1002</ele>
        <time>2026-05-13T18:01:31Z</time>
      </trkpt>
      <trkpt lat="46.03832" lon="5.68487">
        <ele>1001.8</ele>
        <time>2026-05-13T18:01:32Z</time>
      </trkpt>
      <trkpt lat="46.03833" lon="5.68475">
        <ele>1001.8</ele>
        <time>2026-05-13T18:01:33Z</time>
      </trkpt>
      <trkpt lat="46.03835" lon="5.68463">
        <ele>1001.2</ele>
        <time>2026-05-13T18:01:34Z</time>
      </trkpt>
      <trkpt lat="46.03837" lon="5.68452">
        <ele>1000.8</ele>
        <time>2026-05-13T18:01:35Z</time>
      </trkpt>
      <trkpt lat="46.0384" lon="5.6844">
        <ele>1000.2</ele>
        <time>2026-05-13T18:01:36Z</time>
      </trkpt>
      <trkpt lat="46.03844" lon="5.68428">
        <ele>1000</ele>
        <time>2026-05-13T18:01:37Z</time>
      </trkpt>
      <trkpt lat="46.03846" lon="5.68415">
        <ele>999.4</ele>
        <time>2026-05-13T18:01:38Z</time>
      </trkpt>
      <trkpt lat="46.03847" lon="5.68404">
        <ele>998.8</ele>
        <time>2026-05-13T18:01:39Z</time>
      </trkpt>
      <trkpt lat="46.03847" lon="5.68391">
        <ele>998.4</ele>
        <time>2026-05-13T18:01:40Z</time>
      </trkpt>
      <trkpt lat="46.03846" lon="5.68379">
        <ele>998.4</ele>
        <time>2026-05-13T18:01:41Z</time>
      </trkpt>
      <trkpt lat="46.03842" lon="5.68369">
        <ele>998.2</ele>
        <time>2026-05-13T18:01:42Z</time>
      </trkpt>
      <trkpt lat="46.03838" lon="5.6836">
        <ele>998.2</ele>
        <time>2026-05-13T18:01:43Z</time>
      </trkpt>
      <trkpt lat="46.03838" lon="5.6836">
        <ele>998.2</ele>
        <time>2026-05-13T18:01:44Z</time>
      </trkpt>
      <trkpt lat="46.03818" lon="5.68324">
        <ele>996.8</ele>
        <time>2026-05-13T18:01:47Z</time>
      </trkpt>
      <trkpt lat="46.03802" lon="5.6831">
        <ele>996.4</ele>
        <time>2026-05-13T18:01:48Z</time>
      </trkpt>
      <trkpt lat="46.03795" lon="5.68303">
        <ele>996</ele>
        <time>2026-05-13T18:01:49Z</time>
      </trkpt>
      <trkpt lat="46.03787" lon="5.68296">
        <ele>996</ele>
        <time>2026-05-13T18:01:50Z</time>
      </trkpt>
      <trkpt lat="46.0378" lon="5.6829">
        <ele>996.2</ele>
        <time>2026-05-13T18:01:51Z</time>
      </trkpt>
      <trkpt lat="46.03774" lon="5.68281">
        <ele>996.2</ele>
        <time>2026-05-13T18:01:52Z</time>
      </trkpt>
      <trkpt lat="46.03771" lon="5.6827">
        <ele>995.8</ele>
        <time>2026-05-13T18:01:53Z</time>
      </trkpt>
      <trkpt lat="46.03768" lon="5.68259">
        <ele>995.6</ele>
        <time>2026-05-13T18:01:54Z</time>
      </trkpt>
      <trkpt lat="46.03766" lon="5.68246">
        <ele>995.6</ele>
        <time>2026-05-13T18:01:55Z</time>
      </trkpt>
      <trkpt lat="46.03768" lon="5.68235">
        <ele>995.2</ele>
        <time>2026-05-13T18:01:56Z</time>
      </trkpt>
      <trkpt lat="46.0377" lon="5.68224">
        <ele>994.8</ele>
        <time>2026-05-13T18:01:57Z</time>
      </trkpt>
      <trkpt lat="46.03775" lon="5.68214">
        <ele>994.4</ele>
        <time>2026-05-13T18:01:58Z</time>
      </trkpt>
      <trkpt lat="46.03779" lon="5.68204">
        <ele>994</ele>
        <time>2026-05-13T18:01:59Z</time>
      </trkpt>
      <trkpt lat="46.03785" lon="5.68194">
        <ele>993.2</ele>
        <time>2026-05-13T18:02:00Z</time>
      </trkpt>
      <trkpt lat="46.03791" lon="5.68184">
        <ele>992.4</ele>
        <time>2026-05-13T18:02:01Z</time>
      </trkpt>
      <trkpt lat="46.03798" lon="5.68174">
        <ele>991.4</ele>
        <time>2026-05-13T18:02:02Z</time>
      </trkpt>
      <trkpt lat="46.03803" lon="5.68164">
        <ele>991.2</ele>
        <time>2026-05-13T18:02:03Z</time>
      </trkpt>
      <trkpt lat="46.0381" lon="5.68154">
        <ele>990.8</ele>
        <time>2026-05-13T18:02:04Z</time>
      </trkpt>
      <trkpt lat="46.03817" lon="5.68145">
        <ele>990.4</ele>
        <time>2026-05-13T18:02:05Z</time>
      </trkpt>
      <trkpt lat="46.03825" lon="5.68137">
        <ele>989.8</ele>
        <time>2026-05-13T18:02:06Z</time>
      </trkpt>
      <trkpt lat="46.03833" lon="5.68129">
        <ele>989.2</ele>
        <time>2026-05-13T18:02:07Z</time>
      </trkpt>
      <trkpt lat="46.03842" lon="5.68123">
        <ele>989.2</ele>
        <time>2026-05-13T18:02:08Z</time>
      </trkpt>
      <trkpt lat="46.03851" lon="5.68115">
        <ele>988.4</ele>
        <time>2026-05-13T18:02:09Z</time>
      </trkpt>
      <trkpt lat="46.0386" lon="5.68107">
        <ele>987.6</ele>
        <time>2026-05-13T18:02:10Z</time>
      </trkpt>
      <trkpt lat="46.03869" lon="5.68097">
        <ele>987</ele>
        <time>2026-05-13T18:02:11Z</time>
      </trkpt>
      <trkpt lat="46.03877" lon="5.68086">
        <ele>986.4</ele>
        <time>2026-05-13T18:02:12Z</time>
      </trkpt>
      <trkpt lat="46.03886" lon="5.68076">
        <ele>985.6</ele>
        <time>2026-05-13T18:02:13Z</time>
      </trkpt>
      <trkpt lat="46.03894" lon="5.68066">
        <ele>985</ele>
        <time>2026-05-13T18:02:14Z</time>
      </trkpt>
      <trkpt lat="46.03903" lon="5.68057">
        <ele>983.8</ele>
        <time>2026-05-13T18:02:15Z</time>
      </trkpt>
      <trkpt lat="46.03912" lon="5.68047">
        <ele>983.2</ele>
        <time>2026-05-13T18:02:16Z</time>
      </trkpt>
      <trkpt lat="46.03921" lon="5.68038">
        <ele>982.4</ele>
        <time>2026-05-13T18:02:17Z</time>
      </trkpt>
      <trkpt lat="46.0393" lon="5.68029">
        <ele>981.6</ele>
        <time>2026-05-13T18:02:18Z</time>
      </trkpt>
      <trkpt lat="46.0394" lon="5.6802">
        <ele>981</ele>
        <time>2026-05-13T18:02:19Z</time>
      </trkpt>
      <trkpt lat="46.03949" lon="5.6801">
        <ele>980.2</ele>
        <time>2026-05-13T18:02:20Z</time>
      </trkpt>
      <trkpt lat="46.03957" lon="5.67999">
        <ele>978.8</ele>
        <time>2026-05-13T18:02:21Z</time>
      </trkpt>
      <trkpt lat="46.03965" lon="5.67987">
        <ele>977.8</ele>
        <time>2026-05-13T18:02:22Z</time>
      </trkpt>
      <trkpt lat="46.03972" lon="5.67972">
        <ele>977.4</ele>
        <time>2026-05-13T18:02:23Z</time>
      </trkpt>
      <trkpt lat="46.03972" lon="5.67972">
        <ele>976.8</ele>
        <time>2026-05-13T18:02:24Z</time>
      </trkpt>
      <trkpt lat="46.03984" lon="5.67944">
        <ele>976</ele>
        <time>2026-05-13T18:02:25Z</time>
      </trkpt>
      <trkpt lat="46.03989" lon="5.67929">
        <ele>975</ele>
        <time>2026-05-13T18:02:26Z</time>
      </trkpt>
      <trkpt lat="46.03992" lon="5.67912">
        <ele>974.4</ele>
        <time>2026-05-13T18:02:27Z</time>
      </trkpt>
      <trkpt lat="46.03996" lon="5.67895">
        <ele>974</ele>
        <time>2026-05-13T18:02:28Z</time>
      </trkpt>
      <trkpt lat="46.03999" lon="5.67879">
        <ele>973.2</ele>
        <time>2026-05-13T18:02:29Z</time>
      </trkpt>
      <trkpt lat="46.04005" lon="5.67862">
        <ele>972</ele>
        <time>2026-05-13T18:02:30Z</time>
      </trkpt>
      <trkpt lat="46.04011" lon="5.67848">
        <ele>971.4</ele>
        <time>2026-05-13T18:02:31Z</time>
      </trkpt>
      <trkpt lat="46.04019" lon="5.67834">
        <ele>971.4</ele>
        <time>2026-05-13T18:02:32Z</time>
      </trkpt>
      <trkpt lat="46.04019" lon="5.67834">
        <ele>970.6</ele>
        <time>2026-05-13T18:02:33Z</time>
      </trkpt>
      <trkpt lat="46.04029" lon="5.67822">
        <ele>969.6</ele>
        <time>2026-05-13T18:02:34Z</time>
      </trkpt>
      <trkpt lat="46.04038" lon="5.67811">
        <ele>968.8</ele>
        <time>2026-05-13T18:02:35Z</time>
      </trkpt>
      <trkpt lat="46.04048" lon="5.67799">
        <ele>968.4</ele>
        <time>2026-05-13T18:02:36Z</time>
      </trkpt>
      <trkpt lat="46.04059" lon="5.67788">
        <ele>967.4</ele>
        <time>2026-05-13T18:02:37Z</time>
      </trkpt>
      <trkpt lat="46.04069" lon="5.67777">
        <ele>966.6</ele>
        <time>2026-05-13T18:02:38Z</time>
      </trkpt>
      <trkpt lat="46.04078" lon="5.67765">
        <ele>965</ele>
        <time>2026-05-13T18:02:39Z</time>
      </trkpt>
      <trkpt lat="46.04089" lon="5.67754">
        <ele>963.6</ele>
        <time>2026-05-13T18:02:40Z</time>
      </trkpt>
      <trkpt lat="46.04099" lon="5.67743">
        <ele>962.4</ele>
        <time>2026-05-13T18:02:41Z</time>
      </trkpt>
      <trkpt lat="46.0411" lon="5.67732">
        <ele>961.4</ele>
        <time>2026-05-13T18:02:42Z</time>
      </trkpt>
      <trkpt lat="46.0412" lon="5.6772">
        <ele>961</ele>
        <time>2026-05-13T18:02:43Z</time>
      </trkpt>
      <trkpt lat="46.0413" lon="5.67709">
        <ele>960.4</ele>
        <time>2026-05-13T18:02:44Z</time>
      </trkpt>
      <trkpt lat="46.04139" lon="5.67696">
        <ele>959.8</ele>
        <time>2026-05-13T18:02:45Z</time>
      </trkpt>
      <trkpt lat="46.04149" lon="5.67684">
        <ele>959.2</ele>
        <time>2026-05-13T18:02:46Z</time>
      </trkpt>
      <trkpt lat="46.0416" lon="5.67673">
        <ele>958.4</ele>
        <time>2026-05-13T18:02:47Z</time>
      </trkpt>
      <trkpt lat="46.0417" lon="5.67663">
        <ele>957.8</ele>
        <time>2026-05-13T18:02:48Z</time>
      </trkpt>
      <trkpt lat="46.0418" lon="5.67655">
        <ele>957.2</ele>
        <time>2026-05-13T18:02:49Z</time>
      </trkpt>
      <trkpt lat="46.04189" lon="5.67648">
        <ele>956.2</ele>
        <time>2026-05-13T18:02:50Z</time>
      </trkpt>
      <trkpt lat="46.042" lon="5.67643">
        <ele>955.6</ele>
        <time>2026-05-13T18:02:51Z</time>
      </trkpt>
      <trkpt lat="46.04211" lon="5.67641">
        <ele>954.8</ele>
        <time>2026-05-13T18:02:52Z</time>
      </trkpt>
      <trkpt lat="46.04223" lon="5.67639">
        <ele>954</ele>
        <time>2026-05-13T18:02:53Z</time>
      </trkpt>
      <trkpt lat="46.04234" lon="5.67636">
        <ele>953.2</ele>
        <time>2026-05-13T18:02:54Z</time>
      </trkpt>
      <trkpt lat="46.04245" lon="5.67631">
        <ele>952.4</ele>
        <time>2026-05-13T18:02:55Z</time>
      </trkpt>
      <trkpt lat="46.04256" lon="5.67628">
        <ele>951.4</ele>
        <time>2026-05-13T18:02:56Z</time>
      </trkpt>
      <trkpt lat="46.04267" lon="5.67623">
        <ele>950.2</ele>
        <time>2026-05-13T18:02:57Z</time>
      </trkpt>
      <trkpt lat="46.04279" lon="5.67618">
        <ele>949.4</ele>
        <time>2026-05-13T18:02:58Z</time>
      </trkpt>
      <trkpt lat="46.04291" lon="5.67614">
        <ele>948.4</ele>
        <time>2026-05-13T18:02:59Z</time>
      </trkpt>
      <trkpt lat="46.04302" lon="5.6761">
        <ele>947.6</ele>
        <time>2026-05-13T18:03:00Z</time>
      </trkpt>
      <trkpt lat="46.04314" lon="5.67606">
        <ele>946.6</ele>
        <time>2026-05-13T18:03:01Z</time>
      </trkpt>
      <trkpt lat="46.04325" lon="5.676">
        <ele>945.8</ele>
        <time>2026-05-13T18:03:02Z</time>
      </trkpt>
      <trkpt lat="46.04337" lon="5.67594">
        <ele>945.4</ele>
        <time>2026-05-13T18:03:03Z</time>
      </trkpt>
      <trkpt lat="46.04349" lon="5.67591">
        <ele>944.6</ele>
        <time>2026-05-13T18:03:04Z</time>
      </trkpt>
      <trkpt lat="46.04362" lon="5.67587">
        <ele>943.4</ele>
        <time>2026-05-13T18:03:05Z</time>
      </trkpt>
      <trkpt lat="46.04374" lon="5.67586">
        <ele>942.6</ele>
        <time>2026-05-13T18:03:06Z</time>
      </trkpt>
      <trkpt lat="46.04387" lon="5.67585">
        <ele>941.6</ele>
        <time>2026-05-13T18:03:07Z</time>
      </trkpt>
      <trkpt lat="46.044" lon="5.67585">
        <ele>940.8</ele>
        <time>2026-05-13T18:03:08Z</time>
      </trkpt>
      <trkpt lat="46.04412" lon="5.67585">
        <ele>939.8</ele>
        <time>2026-05-13T18:03:09Z</time>
      </trkpt>
      <trkpt lat="46.04425" lon="5.67584">
        <ele>939</ele>
        <time>2026-05-13T18:03:10Z</time>
      </trkpt>
      <trkpt lat="46.04438" lon="5.67581">
        <ele>938.2</ele>
        <time>2026-05-13T18:03:11Z</time>
      </trkpt>
      <trkpt lat="46.0445" lon="5.67575">
        <ele>937.2</ele>
        <time>2026-05-13T18:03:12Z</time>
      </trkpt>
      <trkpt lat="46.04462" lon="5.67569">
        <ele>935.6</ele>
        <time>2026-05-13T18:03:13Z</time>
      </trkpt>
      <trkpt lat="46.04474" lon="5.67561">
        <ele>935</ele>
        <time>2026-05-13T18:03:14Z</time>
      </trkpt>
      <trkpt lat="46.04485" lon="5.67555">
        <ele>933.8</ele>
        <time>2026-05-13T18:03:15Z</time>
      </trkpt>
      <trkpt lat="46.04498" lon="5.67548">
        <ele>933</ele>
        <time>2026-05-13T18:03:16Z</time>
      </trkpt>
      <trkpt lat="46.0451" lon="5.67541">
        <ele>932</ele>
        <time>2026-05-13T18:03:17Z</time>
      </trkpt>
      <trkpt lat="46.04522" lon="5.67534">
        <ele>931</ele>
        <time>2026-05-13T18:03:18Z</time>
      </trkpt>
      <trkpt lat="46.04534" lon="5.67526">
        <ele>930.2</ele>
        <time>2026-05-13T18:03:19Z</time>
      </trkpt>
      <trkpt lat="46.04547" lon="5.67522">
        <ele>930</ele>
        <time>2026-05-13T18:03:20Z</time>
      </trkpt>
      <trkpt lat="46.0456" lon="5.6752">
        <ele>928.8</ele>
        <time>2026-05-13T18:03:21Z</time>
      </trkpt>
      <trkpt lat="46.04573" lon="5.67518">
        <ele>928.4</ele>
        <time>2026-05-13T18:03:22Z</time>
      </trkpt>
      <trkpt lat="46.04586" lon="5.6752">
        <ele>927.6</ele>
        <time>2026-05-13T18:03:23Z</time>
      </trkpt>
      <trkpt lat="46.04598" lon="5.67523">
        <ele>926.8</ele>
        <time>2026-05-13T18:03:24Z</time>
      </trkpt>
      <trkpt lat="46.04609" lon="5.67528">
        <ele>926</ele>
        <time>2026-05-13T18:03:25Z</time>
      </trkpt>
      <trkpt lat="46.0462" lon="5.67532">
        <ele>925.4</ele>
        <time>2026-05-13T18:03:26Z</time>
      </trkpt>
      <trkpt lat="46.04631" lon="5.67537">
        <ele>924.8</ele>
        <time>2026-05-13T18:03:27Z</time>
      </trkpt>
      <trkpt lat="46.04641" lon="5.67541">
        <ele>924.6</ele>
        <time>2026-05-13T18:03:28Z</time>
      </trkpt>
      <trkpt lat="46.04655" lon="5.67544">
        <ele>924</ele>
        <time>2026-05-13T18:03:29Z</time>
      </trkpt>
      <trkpt lat="46.04661" lon="5.6755">
        <ele>923.4</ele>
        <time>2026-05-13T18:03:30Z</time>
      </trkpt>
      <trkpt lat="46.04671" lon="5.67552">
        <ele>923</ele>
        <time>2026-05-13T18:03:31Z</time>
      </trkpt>
      <trkpt lat="46.04681" lon="5.67551">
        <ele>922.4</ele>
        <time>2026-05-13T18:03:32Z</time>
      </trkpt>
      <trkpt lat="46.04694" lon="5.6755">
        <ele>921.6</ele>
        <time>2026-05-13T18:03:33Z</time>
      </trkpt>
      <trkpt lat="46.04703" lon="5.67549">
        <ele>921</ele>
        <time>2026-05-13T18:03:34Z</time>
      </trkpt>
      <trkpt lat="46.0471" lon="5.6754">
        <ele>921</ele>
        <time>2026-05-13T18:03:35Z</time>
      </trkpt>
      <trkpt lat="46.04715" lon="5.6753">
        <ele>921</ele>
        <time>2026-05-13T18:03:36Z</time>
      </trkpt>
      <trkpt lat="46.0472" lon="5.67521">
        <ele>920.4</ele>
        <time>2026-05-13T18:03:37Z</time>
      </trkpt>
      <trkpt lat="46.04723" lon="5.6751">
        <ele>920.2</ele>
        <time>2026-05-13T18:03:38Z</time>
      </trkpt>
      <trkpt lat="46.04727" lon="5.67498">
        <ele>919.6</ele>
        <time>2026-05-13T18:03:39Z</time>
      </trkpt>
      <trkpt lat="46.04731" lon="5.67485">
        <ele>919.2</ele>
        <time>2026-05-13T18:03:40Z</time>
      </trkpt>
      <trkpt lat="46.04734" lon="5.67474">
        <ele>918.8</ele>
        <time>2026-05-13T18:03:41Z</time>
      </trkpt>
      <trkpt lat="46.04738" lon="5.67464">
        <ele>918.6</ele>
        <time>2026-05-13T18:03:42Z</time>
      </trkpt>
      <trkpt lat="46.04742" lon="5.67454">
        <ele>918.2</ele>
        <time>2026-05-13T18:03:43Z</time>
      </trkpt>
      <trkpt lat="46.04747" lon="5.67445">
        <ele>918.2</ele>
        <time>2026-05-13T18:03:44Z</time>
      </trkpt>
      <trkpt lat="46.04753" lon="5.67438">
        <ele>918.2</ele>
        <time>2026-05-13T18:03:45Z</time>
      </trkpt>
      <trkpt lat="46.04759" lon="5.67432">
        <ele>918.6</ele>
        <time>2026-05-13T18:03:46Z</time>
      </trkpt>
      <trkpt lat="46.04764" lon="5.67427">
        <ele>919</ele>
        <time>2026-05-13T18:03:47Z</time>
      </trkpt>
      <trkpt lat="46.0477" lon="5.67422">
        <ele>919</ele>
        <time>2026-05-13T18:03:48Z</time>
      </trkpt>
      <trkpt lat="46.04775" lon="5.67417">
        <ele>919.6</ele>
        <time>2026-05-13T18:03:49Z</time>
      </trkpt>
      <trkpt lat="46.04781" lon="5.67413">
        <ele>919.6</ele>
        <time>2026-05-13T18:03:50Z</time>
      </trkpt>
      <trkpt lat="46.04786" lon="5.67408">
        <ele>920</ele>
        <time>2026-05-13T18:03:51Z</time>
      </trkpt>
      <trkpt lat="46.04791" lon="5.67404">
        <ele>920</ele>
        <time>2026-05-13T18:03:52Z</time>
      </trkpt>
      <trkpt lat="46.04795" lon="5.674">
        <ele>920.2</ele>
        <time>2026-05-13T18:03:53Z</time>
      </trkpt>
      <trkpt lat="46.04799" lon="5.67397">
        <ele>920.6</ele>
        <time>2026-05-13T18:03:54Z</time>
      </trkpt>
      <trkpt lat="46.04803" lon="5.67393">
        <ele>921</ele>
        <time>2026-05-13T18:03:55Z</time>
      </trkpt>
      <trkpt lat="46.04806" lon="5.6739">
        <ele>921.2</ele>
        <time>2026-05-13T18:03:56Z</time>
      </trkpt>
      <trkpt lat="46.0481" lon="5.67388">
        <ele>921.2</ele>
        <time>2026-05-13T18:03:57Z</time>
      </trkpt>
      <trkpt lat="46.04813" lon="5.67385">
        <ele>921.6</ele>
        <time>2026-05-13T18:03:58Z</time>
      </trkpt>
      <trkpt lat="46.04816" lon="5.67382">
        <ele>922</ele>
        <time>2026-05-13T18:03:59Z</time>
      </trkpt>
      <trkpt lat="46.04819" lon="5.67379">
        <ele>922.2</ele>
        <time>2026-05-13T18:04:00Z</time>
      </trkpt>
      <trkpt lat="46.04823" lon="5.67376">
        <ele>922.6</ele>
        <time>2026-05-13T18:04:01Z</time>
      </trkpt>
      <trkpt lat="46.04826" lon="5.67374">
        <ele>922.8</ele>
        <time>2026-05-13T18:04:02Z</time>
      </trkpt>
      <trkpt lat="46.04829" lon="5.67371">
        <ele>922.8</ele>
        <time>2026-05-13T18:04:03Z</time>
      </trkpt>
      <trkpt lat="46.04832" lon="5.67368">
        <ele>923.2</ele>
        <time>2026-05-13T18:04:04Z</time>
      </trkpt>
      <trkpt lat="46.04835" lon="5.67366">
        <ele>923.2</ele>
        <time>2026-05-13T18:04:05Z</time>
      </trkpt>
      <trkpt lat="46.04838" lon="5.67363">
        <ele>923.2</ele>
        <time>2026-05-13T18:04:06Z</time>
      </trkpt>
      <trkpt lat="46.04841" lon="5.6736">
        <ele>923.4</ele>
        <time>2026-05-13T18:04:07Z</time>
      </trkpt>
      <trkpt lat="46.04844" lon="5.67358">
        <ele>923.6</ele>
        <time>2026-05-13T18:04:08Z</time>
      </trkpt>
      <trkpt lat="46.04848" lon="5.67355">
        <ele>923.6</ele>
        <time>2026-05-13T18:04:09Z</time>
      </trkpt>
      <trkpt lat="46.04851" lon="5.67352">
        <ele>924</ele>
        <time>2026-05-13T18:04:10Z</time>
      </trkpt>
      <trkpt lat="46.04854" lon="5.6735">
        <ele>924.2</ele>
        <time>2026-05-13T18:04:11Z</time>
      </trkpt>
      <trkpt lat="46.04858" lon="5.67347">
        <ele>924.4</ele>
        <time>2026-05-13T18:04:12Z</time>
      </trkpt>
      <trkpt lat="46.0486" lon="5.67344">
        <ele>924.8</ele>
        <time>2026-05-13T18:04:13Z</time>
      </trkpt>
      <trkpt lat="46.04863" lon="5.67342">
        <ele>924.8</ele>
        <time>2026-05-13T18:04:14Z</time>
      </trkpt>
      <trkpt lat="46.04868" lon="5.67335">
        <ele>925.2</ele>
        <time>2026-05-13T18:04:15Z</time>
      </trkpt>
      <trkpt lat="46.04871" lon="5.67332">
        <ele>925.6</ele>
        <time>2026-05-13T18:04:16Z</time>
      </trkpt>
      <trkpt lat="46.04874" lon="5.67328">
        <ele>925.6</ele>
        <time>2026-05-13T18:04:17Z</time>
      </trkpt>
      <trkpt lat="46.04876" lon="5.67325">
        <ele>925.6</ele>
        <time>2026-05-13T18:04:18Z</time>
      </trkpt>
      <trkpt lat="46.04879" lon="5.67321">
        <ele>925.8</ele>
        <time>2026-05-13T18:04:19Z</time>
      </trkpt>
      <trkpt lat="46.04881" lon="5.67318">
        <ele>925.8</ele>
        <time>2026-05-13T18:04:20Z</time>
      </trkpt>
      <trkpt lat="46.04884" lon="5.67314">
        <ele>925.8</ele>
        <time>2026-05-13T18:04:21Z</time>
      </trkpt>
      <trkpt lat="46.04886" lon="5.6731">
        <ele>926.4</ele>
        <time>2026-05-13T18:04:22Z</time>
      </trkpt>
      <trkpt lat="46.04889" lon="5.67306">
        <ele>926.4</ele>
        <time>2026-05-13T18:04:23Z</time>
      </trkpt>
      <trkpt lat="46.04891" lon="5.67302">
        <ele>926.4</ele>
        <time>2026-05-13T18:04:24Z</time>
      </trkpt>
      <trkpt lat="46.04893" lon="5.67298">
        <ele>926.4</ele>
        <time>2026-05-13T18:04:25Z</time>
      </trkpt>
      <trkpt lat="46.04896" lon="5.67294">
        <ele>926.4</ele>
        <time>2026-05-13T18:04:26Z</time>
      </trkpt>
      <trkpt lat="46.04898" lon="5.6729">
        <ele>926.6</ele>
        <time>2026-05-13T18:04:27Z</time>
      </trkpt>
      <trkpt lat="46.04901" lon="5.67285">
        <ele>926.6</ele>
        <time>2026-05-13T18:04:28Z</time>
      </trkpt>
      <trkpt lat="46.04903" lon="5.67281">
        <ele>926.8</ele>
        <time>2026-05-13T18:04:29Z</time>
      </trkpt>
      <trkpt lat="46.04904" lon="5.67276">
        <ele>926.8</ele>
        <time>2026-05-13T18:04:30Z</time>
      </trkpt>
      <trkpt lat="46.04906" lon="5.67271">
        <ele>927.2</ele>
        <time>2026-05-13T18:04:31Z</time>
      </trkpt>
      <trkpt lat="46.04908" lon="5.67267">
        <ele>927.2</ele>
        <time>2026-05-13T18:04:32Z</time>
      </trkpt>
      <trkpt lat="46.04909" lon="5.67262">
        <ele>927.4</ele>
        <time>2026-05-13T18:04:33Z</time>
      </trkpt>
      <trkpt lat="46.04911" lon="5.67258">
        <ele>927.4</ele>
        <time>2026-05-13T18:04:34Z</time>
      </trkpt>
      <trkpt lat="46.04912" lon="5.67253">
        <ele>927.4</ele>
        <time>2026-05-13T18:04:35Z</time>
      </trkpt>
      <trkpt lat="46.04914" lon="5.67248">
        <ele>927.4</ele>
        <time>2026-05-13T18:04:36Z</time>
      </trkpt>
      <trkpt lat="46.04915" lon="5.67243">
        <ele>927.4</ele>
        <time>2026-05-13T18:04:37Z</time>
      </trkpt>
      <trkpt lat="46.04916" lon="5.67239">
        <ele>927</ele>
        <time>2026-05-13T18:04:38Z</time>
      </trkpt>
      <trkpt lat="46.04917" lon="5.67235">
        <ele>927.4</ele>
        <time>2026-05-13T18:04:39Z</time>
      </trkpt>
      <trkpt lat="46.04919" lon="5.6723">
        <ele>927.6</ele>
        <time>2026-05-13T18:04:40Z</time>
      </trkpt>
      <trkpt lat="46.0492" lon="5.67225">
        <ele>927.8</ele>
        <time>2026-05-13T18:04:41Z</time>
      </trkpt>
      <trkpt lat="46.04922" lon="5.67219">
        <ele>927.8</ele>
        <time>2026-05-13T18:04:42Z</time>
      </trkpt>
      <trkpt lat="46.04923" lon="5.67214">
        <ele>927.8</ele>
        <time>2026-05-13T18:04:43Z</time>
      </trkpt>
      <trkpt lat="46.04924" lon="5.67209">
        <ele>927.8</ele>
        <time>2026-05-13T18:04:44Z</time>
      </trkpt>
      <trkpt lat="46.04925" lon="5.67203">
        <ele>928.2</ele>
        <time>2026-05-13T18:04:45Z</time>
      </trkpt>
      <trkpt lat="46.04926" lon="5.67198">
        <ele>928.2</ele>
        <time>2026-05-13T18:04:46Z</time>
      </trkpt>
      <trkpt lat="46.04927" lon="5.67192">
        <ele>928.2</ele>
        <time>2026-05-13T18:04:47Z</time>
      </trkpt>
      <trkpt lat="46.04928" lon="5.67187">
        <ele>928.2</ele>
        <time>2026-05-13T18:04:48Z</time>
      </trkpt>
      <trkpt lat="46.04929" lon="5.67181">
        <ele>928.4</ele>
        <time>2026-05-13T18:04:49Z</time>
      </trkpt>
      <trkpt lat="46.04931" lon="5.67176">
        <ele>928.6</ele>
        <time>2026-05-13T18:04:50Z</time>
      </trkpt>
      <trkpt lat="46.04932" lon="5.67171">
        <ele>928.6</ele>
        <time>2026-05-13T18:04:51Z</time>
      </trkpt>
      <trkpt lat="46.04934" lon="5.67167">
        <ele>929</ele>
        <time>2026-05-13T18:04:52Z</time>
      </trkpt>
      <trkpt lat="46.04935" lon="5.67163">
        <ele>929.4</ele>
        <time>2026-05-13T18:04:53Z</time>
      </trkpt>
      <trkpt lat="46.04937" lon="5.67159">
        <ele>929.6</ele>
        <time>2026-05-13T18:04:54Z</time>
      </trkpt>
      <trkpt lat="46.04939" lon="5.67156">
        <ele>929.8</ele>
        <time>2026-05-13T18:04:55Z</time>
      </trkpt>
      <trkpt lat="46.0494" lon="5.67152">
        <ele>930</ele>
        <time>2026-05-13T18:04:56Z</time>
      </trkpt>
      <trkpt lat="46.04942" lon="5.67149">
        <ele>930.4</ele>
        <time>2026-05-13T18:04:57Z</time>
      </trkpt>
      <trkpt lat="46.04944" lon="5.67146">
        <ele>930.6</ele>
        <time>2026-05-13T18:04:58Z</time>
      </trkpt>
      <trkpt lat="46.04946" lon="5.67144">
        <ele>930.6</ele>
        <time>2026-05-13T18:04:59Z</time>
      </trkpt>
      <trkpt lat="46.04948" lon="5.67141">
        <ele>930.8</ele>
        <time>2026-05-13T18:05:00Z</time>
      </trkpt>
      <trkpt lat="46.04949" lon="5.67139">
        <ele>931.2</ele>
        <time>2026-05-13T18:05:01Z</time>
      </trkpt>
      <trkpt lat="46.04951" lon="5.67137">
        <ele>931.2</ele>
        <time>2026-05-13T18:05:02Z</time>
      </trkpt>
      <trkpt lat="46.04953" lon="5.67135">
        <ele>931.4</ele>
        <time>2026-05-13T18:05:03Z</time>
      </trkpt>
      <trkpt lat="46.04954" lon="5.67133">
        <ele>931.4</ele>
        <time>2026-05-13T18:05:04Z</time>
      </trkpt>
      <trkpt lat="46.04956" lon="5.67131">
        <ele>931.8</ele>
        <time>2026-05-13T18:05:05Z</time>
      </trkpt>
      <trkpt lat="46.04957" lon="5.67129">
        <ele>931.8</ele>
        <time>2026-05-13T18:05:06Z</time>
      </trkpt>
      <trkpt lat="46.04959" lon="5.67128">
        <ele>932</ele>
        <time>2026-05-13T18:05:07Z</time>
      </trkpt>
      <trkpt lat="46.04961" lon="5.67126">
        <ele>932</ele>
        <time>2026-05-13T18:05:08Z</time>
      </trkpt>
      <trkpt lat="46.04963" lon="5.67125">
        <ele>932.4</ele>
        <time>2026-05-13T18:05:09Z</time>
      </trkpt>
      <trkpt lat="46.04965" lon="5.67124">
        <ele>932.6</ele>
        <time>2026-05-13T18:05:10Z</time>
      </trkpt>
      <trkpt lat="46.04967" lon="5.67123">
        <ele>932.8</ele>
        <time>2026-05-13T18:05:11Z</time>
      </trkpt>
      <trkpt lat="46.04969" lon="5.67122">
        <ele>933</ele>
        <time>2026-05-13T18:05:12Z</time>
      </trkpt>
      <trkpt lat="46.0497" lon="5.6712">
        <ele>933.2</ele>
        <time>2026-05-13T18:05:13Z</time>
      </trkpt>
      <trkpt lat="46.04972" lon="5.67119">
        <ele>933.2</ele>
        <time>2026-05-13T18:05:14Z</time>
      </trkpt>
      <trkpt lat="46.04974" lon="5.67119">
        <ele>933.2</ele>
        <time>2026-05-13T18:05:15Z</time>
      </trkpt>
      <trkpt lat="46.04976" lon="5.67118">
        <ele>933.6</ele>
        <time>2026-05-13T18:05:16Z</time>
      </trkpt>
      <trkpt lat="46.04978" lon="5.67118">
        <ele>933.6</ele>
        <time>2026-05-13T18:05:17Z</time>
      </trkpt>
      <trkpt lat="46.0498" lon="5.67117">
        <ele>934</ele>
        <time>2026-05-13T18:05:18Z</time>
      </trkpt>
      <trkpt lat="46.04981" lon="5.67116">
        <ele>934.2</ele>
        <time>2026-05-13T18:05:19Z</time>
      </trkpt>
      <trkpt lat="46.04983" lon="5.67116">
        <ele>934.2</ele>
        <time>2026-05-13T18:05:20Z</time>
      </trkpt>
      <trkpt lat="46.04984" lon="5.67115">
        <ele>934.6</ele>
        <time>2026-05-13T18:05:21Z</time>
      </trkpt>
      <trkpt lat="46.04986" lon="5.67115">
        <ele>934.8</ele>
        <time>2026-05-13T18:05:22Z</time>
      </trkpt>
      <trkpt lat="46.04988" lon="5.67113">
        <ele>935</ele>
        <time>2026-05-13T18:05:23Z</time>
      </trkpt>
      <trkpt lat="46.04989" lon="5.67112">
        <ele>935</ele>
        <time>2026-05-13T18:05:24Z</time>
      </trkpt>
      <trkpt lat="46.04991" lon="5.67111">
        <ele>935.4</ele>
        <time>2026-05-13T18:05:25Z</time>
      </trkpt>
      <trkpt lat="46.04993" lon="5.67111">
        <ele>935.4</ele>
        <time>2026-05-13T18:05:26Z</time>
      </trkpt>
      <trkpt lat="46.04995" lon="5.67111">
        <ele>935.8</ele>
        <time>2026-05-13T18:05:27Z</time>
      </trkpt>
      <trkpt lat="46.04996" lon="5.67111">
        <ele>935.8</ele>
        <time>2026-05-13T18:05:28Z</time>
      </trkpt>
      <trkpt lat="46.04998" lon="5.67111">
        <ele>935.8</ele>
        <time>2026-05-13T18:05:29Z</time>
      </trkpt>
      <trkpt lat="46.04999" lon="5.67111">
        <ele>935.8</ele>
        <time>2026-05-13T18:05:30Z</time>
      </trkpt>
      <trkpt lat="46.05001" lon="5.67111">
        <ele>935.8</ele>
        <time>2026-05-13T18:05:31Z</time>
      </trkpt>
      <trkpt lat="46.05003" lon="5.67111">
        <ele>936.2</ele>
        <time>2026-05-13T18:05:32Z</time>
      </trkpt>
      <trkpt lat="46.05004" lon="5.67111">
        <ele>936.2</ele>
        <time>2026-05-13T18:05:33Z</time>
      </trkpt>
      <trkpt lat="46.05006" lon="5.67111">
        <ele>936.4</ele>
        <time>2026-05-13T18:05:34Z</time>
      </trkpt>
      <trkpt lat="46.05007" lon="5.67111">
        <ele>936.4</ele>
        <time>2026-05-13T18:05:35Z</time>
      </trkpt>
      <trkpt lat="46.05009" lon="5.67111">
        <ele>936.8</ele>
        <time>2026-05-13T18:05:36Z</time>
      </trkpt>
      <trkpt lat="46.05011" lon="5.67111">
        <ele>936.8</ele>
        <time>2026-05-13T18:05:37Z</time>
      </trkpt>
      <trkpt lat="46.05012" lon="5.67112">
        <ele>937</ele>
        <time>2026-05-13T18:05:38Z</time>
      </trkpt>
      <trkpt lat="46.05014" lon="5.67112">
        <ele>937</ele>
        <time>2026-05-13T18:05:39Z</time>
      </trkpt>
      <trkpt lat="46.05015" lon="5.67111">
        <ele>937.2</ele>
        <time>2026-05-13T18:05:40Z</time>
      </trkpt>
      <trkpt lat="46.05017" lon="5.67111">
        <ele>937.2</ele>
        <time>2026-05-13T18:05:41Z</time>
      </trkpt>
      <trkpt lat="46.05019" lon="5.67111">
        <ele>937.2</ele>
        <time>2026-05-13T18:05:42Z</time>
      </trkpt>
      <trkpt lat="46.0502" lon="5.67111">
        <ele>937.2</ele>
        <time>2026-05-13T18:05:43Z</time>
      </trkpt>
      <trkpt lat="46.05022" lon="5.6711">
        <ele>937.6</ele>
        <time>2026-05-13T18:05:44Z</time>
      </trkpt>
      <trkpt lat="46.05024" lon="5.6711">
        <ele>937.6</ele>
        <time>2026-05-13T18:05:45Z</time>
      </trkpt>
      <trkpt lat="46.05026" lon="5.67109">
        <ele>938</ele>
        <time>2026-05-13T18:05:46Z</time>
      </trkpt>
      <trkpt lat="46.05027" lon="5.67109">
        <ele>938</ele>
        <time>2026-05-13T18:05:47Z</time>
      </trkpt>
      <trkpt lat="46.05029" lon="5.67109">
        <ele>938.2</ele>
        <time>2026-05-13T18:05:48Z</time>
      </trkpt>
      <trkpt lat="46.0503" lon="5.67109">
        <ele>938.2</ele>
        <time>2026-05-13T18:05:49Z</time>
      </trkpt>
      <trkpt lat="46.05032" lon="5.67108">
        <ele>938.2</ele>
        <time>2026-05-13T18:05:50Z</time>
      </trkpt>
      <trkpt lat="46.05034" lon="5.67108">
        <ele>938.6</ele>
        <time>2026-05-13T18:05:51Z</time>
      </trkpt>
      <trkpt lat="46.05036" lon="5.67108">
        <ele>938.6</ele>
        <time>2026-05-13T18:05:52Z</time>
      </trkpt>
      <trkpt lat="46.05037" lon="5.67108">
        <ele>938.8</ele>
        <time>2026-05-13T18:05:53Z</time>
      </trkpt>
      <trkpt lat="46.05039" lon="5.67108">
        <ele>938.8</ele>
        <time>2026-05-13T18:05:54Z</time>
      </trkpt>
      <trkpt lat="46.05041" lon="5.67108">
        <ele>939.2</ele>
        <time>2026-05-13T18:05:55Z</time>
      </trkpt>
      <trkpt lat="46.05042" lon="5.67108">
        <ele>939.2</ele>
        <time>2026-05-13T18:05:56Z</time>
      </trkpt>
      <trkpt lat="46.05042" lon="5.67108">
        <ele>939.2</ele>
        <time>2026-05-13T18:05:57Z</time>
      </trkpt>
      <trkpt lat="46.05044" lon="5.67108">
        <ele>939.2</ele>
        <time>2026-05-13T18:05:58Z</time>
      </trkpt>
      <trkpt lat="46.05046" lon="5.67107">
        <ele>939.6</ele>
        <time>2026-05-13T18:05:59Z</time>
      </trkpt>
      <trkpt lat="46.05048" lon="5.67107">
        <ele>939.6</ele>
        <time>2026-05-13T18:06:00Z</time>
      </trkpt>
      <trkpt lat="46.0505" lon="5.67106">
        <ele>939.6</ele>
        <time>2026-05-13T18:06:01Z</time>
      </trkpt>
      <trkpt lat="46.05052" lon="5.67106">
        <ele>939.8</ele>
        <time>2026-05-13T18:06:02Z</time>
      </trkpt>
      <trkpt lat="46.05053" lon="5.67106">
        <ele>939.8</ele>
        <time>2026-05-13T18:06:03Z</time>
      </trkpt>
      <trkpt lat="46.05055" lon="5.67106">
        <ele>940.2</ele>
        <time>2026-05-13T18:06:04Z</time>
      </trkpt>
      <trkpt lat="46.05056" lon="5.67106">
        <ele>940.2</ele>
        <time>2026-05-13T18:06:05Z</time>
      </trkpt>
      <trkpt lat="46.05058" lon="5.67106">
        <ele>940.6</ele>
        <time>2026-05-13T18:06:06Z</time>
      </trkpt>
      <trkpt lat="46.0506" lon="5.67106">
        <ele>940.6</ele>
        <time>2026-05-13T18:06:07Z</time>
      </trkpt>
      <trkpt lat="46.05062" lon="5.67107">
        <ele>940.6</ele>
        <time>2026-05-13T18:06:08Z</time>
      </trkpt>
      <trkpt lat="46.05063" lon="5.67107">
        <ele>941</ele>
        <time>2026-05-13T18:06:09Z</time>
      </trkpt>
      <trkpt lat="46.05065" lon="5.67106">
        <ele>941</ele>
        <time>2026-05-13T18:06:10Z</time>
      </trkpt>
      <trkpt lat="46.05067" lon="5.67105">
        <ele>941.4</ele>
        <time>2026-05-13T18:06:11Z</time>
      </trkpt>
      <trkpt lat="46.05068" lon="5.67105">
        <ele>941.6</ele>
        <time>2026-05-13T18:06:12Z</time>
      </trkpt>
      <trkpt lat="46.05069" lon="5.67105">
        <ele>941.6</ele>
        <time>2026-05-13T18:06:13Z</time>
      </trkpt>
      <trkpt lat="46.05071" lon="5.67105">
        <ele>941.6</ele>
        <time>2026-05-13T18:06:14Z</time>
      </trkpt>
      <trkpt lat="46.05073" lon="5.67105">
        <ele>941.6</ele>
        <time>2026-05-13T18:06:15Z</time>
      </trkpt>
      <trkpt lat="46.05074" lon="5.67105">
        <ele>942</ele>
        <time>2026-05-13T18:06:16Z</time>
      </trkpt>
      <trkpt lat="46.05076" lon="5.67104">
        <ele>942</ele>
        <time>2026-05-13T18:06:17Z</time>
      </trkpt>
      <trkpt lat="46.05077" lon="5.67104">
        <ele>942</ele>
        <time>2026-05-13T18:06:18Z</time>
      </trkpt>
      <trkpt lat="46.05079" lon="5.67104">
        <ele>942.2</ele>
        <time>2026-05-13T18:06:19Z</time>
      </trkpt>
      <trkpt lat="46.05081" lon="5.67104">
        <ele>942.2</ele>
        <time>2026-05-13T18:06:20Z</time>
      </trkpt>
      <trkpt lat="46.05082" lon="5.67103">
        <ele>942.6</ele>
        <time>2026-05-13T18:06:21Z</time>
      </trkpt>
      <trkpt lat="46.05084" lon="5.67103">
        <ele>942.8</ele>
        <time>2026-05-13T18:06:22Z</time>
      </trkpt>
      <trkpt lat="46.05085" lon="5.67102">
        <ele>943</ele>
        <time>2026-05-13T18:06:23Z</time>
      </trkpt>
      <trkpt lat="46.05087" lon="5.67102">
        <ele>943</ele>
        <time>2026-05-13T18:06:24Z</time>
      </trkpt>
      <trkpt lat="46.05089" lon="5.67101">
        <ele>943.4</ele>
        <time>2026-05-13T18:06:25Z</time>
      </trkpt>
      <trkpt lat="46.05091" lon="5.671">
        <ele>943.4</ele>
        <time>2026-05-13T18:06:26Z</time>
      </trkpt>
      <trkpt lat="46.05092" lon="5.671">
        <ele>943.6</ele>
        <time>2026-05-13T18:06:27Z</time>
      </trkpt>
      <trkpt lat="46.05093" lon="5.671">
        <ele>943.8</ele>
        <time>2026-05-13T18:06:28Z</time>
      </trkpt>
      <trkpt lat="46.05095" lon="5.67099">
        <ele>943.8</ele>
        <time>2026-05-13T18:06:29Z</time>
      </trkpt>
      <trkpt lat="46.05096" lon="5.67099">
        <ele>944.2</ele>
        <time>2026-05-13T18:06:30Z</time>
      </trkpt>
      <trkpt lat="46.05098" lon="5.67098">
        <ele>944.2</ele>
        <time>2026-05-13T18:06:31Z</time>
      </trkpt>
      <trkpt lat="46.05099" lon="5.67098">
        <ele>944.4</ele>
        <time>2026-05-13T18:06:32Z</time>
      </trkpt>
      <trkpt lat="46.05101" lon="5.67098">
        <ele>944.4</ele>
        <time>2026-05-13T18:06:33Z</time>
      </trkpt>
      <trkpt lat="46.05102" lon="5.67097">
        <ele>944.8</ele>
        <time>2026-05-13T18:06:34Z</time>
      </trkpt>
      <trkpt lat="46.05104" lon="5.67097">
        <ele>944.8</ele>
        <time>2026-05-13T18:06:35Z</time>
      </trkpt>
      <trkpt lat="46.05105" lon="5.67097">
        <ele>945</ele>
        <time>2026-05-13T18:06:36Z</time>
      </trkpt>
      <trkpt lat="46.05108" lon="5.67096">
        <ele>945</ele>
        <time>2026-05-13T18:06:37Z</time>
      </trkpt>
      <trkpt lat="46.0511" lon="5.67096">
        <ele>945.2</ele>
        <time>2026-05-13T18:06:38Z</time>
      </trkpt>
      <trkpt lat="46.05111" lon="5.67095">
        <ele>945.2</ele>
        <time>2026-05-13T18:06:39Z</time>
      </trkpt>
      <trkpt lat="46.05113" lon="5.67094">
        <ele>945.4</ele>
        <time>2026-05-13T18:06:40Z</time>
      </trkpt>
      <trkpt lat="46.05114" lon="5.67094">
        <ele>945.4</ele>
        <time>2026-05-13T18:06:41Z</time>
      </trkpt>
      <trkpt lat="46.05116" lon="5.67093">
        <ele>945.4</ele>
        <time>2026-05-13T18:06:42Z</time>
      </trkpt>
      <trkpt lat="46.05117" lon="5.67092">
        <ele>945.6</ele>
        <time>2026-05-13T18:06:43Z</time>
      </trkpt>
      <trkpt lat="46.05119" lon="5.67091">
        <ele>945.6</ele>
        <time>2026-05-13T18:06:44Z</time>
      </trkpt>
      <trkpt lat="46.0512" lon="5.6709">
        <ele>946</ele>
        <time>2026-05-13T18:06:45Z</time>
      </trkpt>
      <trkpt lat="46.05122" lon="5.67089">
        <ele>946</ele>
        <time>2026-05-13T18:06:46Z</time>
      </trkpt>
      <trkpt lat="46.05123" lon="5.67088">
        <ele>946.2</ele>
        <time>2026-05-13T18:06:47Z</time>
      </trkpt>
      <trkpt lat="46.05124" lon="5.67086">
        <ele>946.4</ele>
        <time>2026-05-13T18:06:48Z</time>
      </trkpt>
      <trkpt lat="46.05126" lon="5.67084">
        <ele>946.4</ele>
        <time>2026-05-13T18:06:49Z</time>
      </trkpt>
      <trkpt lat="46.05127" lon="5.67083">
        <ele>946.8</ele>
        <time>2026-05-13T18:06:50Z</time>
      </trkpt>
      <trkpt lat="46.05129" lon="5.67081">
        <ele>946.8</ele>
        <time>2026-05-13T18:06:51Z</time>
      </trkpt>
      <trkpt lat="46.0513" lon="5.6708">
        <ele>947</ele>
        <time>2026-05-13T18:06:52Z</time>
      </trkpt>
      <trkpt lat="46.05131" lon="5.67078">
        <ele>947</ele>
        <time>2026-05-13T18:06:53Z</time>
      </trkpt>
      <trkpt lat="46.05132" lon="5.67076">
        <ele>947.4</ele>
        <time>2026-05-13T18:06:54Z</time>
      </trkpt>
      <trkpt lat="46.05133" lon="5.67074">
        <ele>947.4</ele>
        <time>2026-05-13T18:06:55Z</time>
      </trkpt>
      <trkpt lat="46.05134" lon="5.67072">
        <ele>947.6</ele>
        <time>2026-05-13T18:06:56Z</time>
      </trkpt>
      <trkpt lat="46.05136" lon="5.67071">
        <ele>947.6</ele>
        <time>2026-05-13T18:06:57Z</time>
      </trkpt>
      <trkpt lat="46.05137" lon="5.67069">
        <ele>947.8</ele>
        <time>2026-05-13T18:06:58Z</time>
      </trkpt>
      <trkpt lat="46.05139" lon="5.67067">
        <ele>947.8</ele>
        <time>2026-05-13T18:06:59Z</time>
      </trkpt>
      <trkpt lat="46.0514" lon="5.67065">
        <ele>947.8</ele>
        <time>2026-05-13T18:07:00Z</time>
      </trkpt>
      <trkpt lat="46.05141" lon="5.67063">
        <ele>947.8</ele>
        <time>2026-05-13T18:07:01Z</time>
      </trkpt>
      <trkpt lat="46.05142" lon="5.67061">
        <ele>947.8</ele>
        <time>2026-05-13T18:07:02Z</time>
      </trkpt>
      <trkpt lat="46.05143" lon="5.67058">
        <ele>948.2</ele>
        <time>2026-05-13T18:07:03Z</time>
      </trkpt>
      <trkpt lat="46.05144" lon="5.67055">
        <ele>948.2</ele>
        <time>2026-05-13T18:07:04Z</time>
      </trkpt>
      <trkpt lat="46.05145" lon="5.67053">
        <ele>948.2</ele>
        <time>2026-05-13T18:07:05Z</time>
      </trkpt>
      <trkpt lat="46.05146" lon="5.67051">
        <ele>948.2</ele>
        <time>2026-05-13T18:07:06Z</time>
      </trkpt>
      <trkpt lat="46.05147" lon="5.67048">
        <ele>948.2</ele>
        <time>2026-05-13T18:07:07Z</time>
      </trkpt>
      <trkpt lat="46.05149" lon="5.67046">
        <ele>948.4</ele>
        <time>2026-05-13T18:07:08Z</time>
      </trkpt>
      <trkpt lat="46.05151" lon="5.67043">
        <ele>948.4</ele>
        <time>2026-05-13T18:07:09Z</time>
      </trkpt>
      <trkpt lat="46.05152" lon="5.67041">
        <ele>948.4</ele>
        <time>2026-05-13T18:07:10Z</time>
      </trkpt>
      <trkpt lat="46.05153" lon="5.67038">
        <ele>948.4</ele>
        <time>2026-05-13T18:07:11Z</time>
      </trkpt>
      <trkpt lat="46.05154" lon="5.67035">
        <ele>948.4</ele>
        <time>2026-05-13T18:07:12Z</time>
      </trkpt>
      <trkpt lat="46.05154" lon="5.67032">
        <ele>948.4</ele>
        <time>2026-05-13T18:07:13Z</time>
      </trkpt>
      <trkpt lat="46.05155" lon="5.67029">
        <ele>948.4</ele>
        <time>2026-05-13T18:07:14Z</time>
      </trkpt>
      <trkpt lat="46.05156" lon="5.67025">
        <ele>948.4</ele>
        <time>2026-05-13T18:07:15Z</time>
      </trkpt>
      <trkpt lat="46.05158" lon="5.67022">
        <ele>948.4</ele>
        <time>2026-05-13T18:07:16Z</time>
      </trkpt>
      <trkpt lat="46.05159" lon="5.67019">
        <ele>948.4</ele>
        <time>2026-05-13T18:07:17Z</time>
      </trkpt>
      <trkpt lat="46.05161" lon="5.67015">
        <ele>948.4</ele>
        <time>2026-05-13T18:07:18Z</time>
      </trkpt>
      <trkpt lat="46.05163" lon="5.67011">
        <ele>948.4</ele>
        <time>2026-05-13T18:07:19Z</time>
      </trkpt>
      <trkpt lat="46.05164" lon="5.67008">
        <ele>948.2</ele>
        <time>2026-05-13T18:07:20Z</time>
      </trkpt>
      <trkpt lat="46.05166" lon="5.67004">
        <ele>948.2</ele>
        <time>2026-05-13T18:07:21Z</time>
      </trkpt>
      <trkpt lat="46.05167" lon="5.67">
        <ele>948.2</ele>
        <time>2026-05-13T18:07:22Z</time>
      </trkpt>
      <trkpt lat="46.05169" lon="5.66996">
        <ele>948.2</ele>
        <time>2026-05-13T18:07:23Z</time>
      </trkpt>
      <trkpt lat="46.05171" lon="5.66993">
        <ele>948.2</ele>
        <time>2026-05-13T18:07:24Z</time>
      </trkpt>
      <trkpt lat="46.05174" lon="5.66989">
        <ele>947.8</ele>
        <time>2026-05-13T18:07:25Z</time>
      </trkpt>
      <trkpt lat="46.05177" lon="5.66984">
        <ele>947.4</ele>
        <time>2026-05-13T18:07:26Z</time>
      </trkpt>
      <trkpt lat="46.05181" lon="5.66979">
        <ele>947.2</ele>
        <time>2026-05-13T18:07:27Z</time>
      </trkpt>
      <trkpt lat="46.05185" lon="5.66975">
        <ele>947</ele>
        <time>2026-05-13T18:07:28Z</time>
      </trkpt>
      <trkpt lat="46.0519" lon="5.66971">
        <ele>947</ele>
        <time>2026-05-13T18:07:29Z</time>
      </trkpt>
      <trkpt lat="46.05194" lon="5.66967">
        <ele>947</ele>
        <time>2026-05-13T18:07:30Z</time>
      </trkpt>
      <trkpt lat="46.05199" lon="5.66963">
        <ele>946.6</ele>
        <time>2026-05-13T18:07:31Z</time>
      </trkpt>
      <trkpt lat="46.05204" lon="5.6696">
        <ele>946.2</ele>
        <time>2026-05-13T18:07:32Z</time>
      </trkpt>
      <trkpt lat="46.0521" lon="5.66955">
        <ele>946.2</ele>
        <time>2026-05-13T18:07:33Z</time>
      </trkpt>
      <trkpt lat="46.05215" lon="5.66952">
        <ele>945.8</ele>
        <time>2026-05-13T18:07:34Z</time>
      </trkpt>
      <trkpt lat="46.0522" lon="5.66949">
        <ele>945.6</ele>
        <time>2026-05-13T18:07:35Z</time>
      </trkpt>
      <trkpt lat="46.05232" lon="5.66942">
        <ele>945.6</ele>
        <time>2026-05-13T18:07:36Z</time>
      </trkpt>
      <trkpt lat="46.05237" lon="5.6694">
        <ele>945.2</ele>
        <time>2026-05-13T18:07:37Z</time>
      </trkpt>
      <trkpt lat="46.05242" lon="5.66936">
        <ele>945.2</ele>
        <time>2026-05-13T18:07:38Z</time>
      </trkpt>
      <trkpt lat="46.05247" lon="5.66932">
        <ele>945</ele>
        <time>2026-05-13T18:07:39Z</time>
      </trkpt>
      <trkpt lat="46.05251" lon="5.66928">
        <ele>945</ele>
        <time>2026-05-13T18:07:40Z</time>
      </trkpt>
      <trkpt lat="46.05254" lon="5.66922">
        <ele>945</ele>
        <time>2026-05-13T18:07:41Z</time>
      </trkpt>
      <trkpt lat="46.05257" lon="5.66918">
        <ele>945</ele>
        <time>2026-05-13T18:07:42Z</time>
      </trkpt>
      <trkpt lat="46.05257" lon="5.66913">
        <ele>945</ele>
        <time>2026-05-13T18:07:43Z</time>
      </trkpt>
      <trkpt lat="46.05258" lon="5.66909">
        <ele>945</ele>
        <time>2026-05-13T18:07:44Z</time>
      </trkpt>
      <trkpt lat="46.05258" lon="5.66907">
        <ele>945</ele>
        <time>2026-05-13T18:07:45Z</time>
      </trkpt>
      <trkpt lat="46.05258" lon="5.66907">
        <ele>945</ele>
        <time>2026-05-13T18:07:46Z</time>
      </trkpt>
      <trkpt lat="46.05258" lon="5.66908">
        <ele>945</ele>
        <time>2026-05-13T18:07:47Z</time>
      </trkpt>
      <trkpt lat="46.05258" lon="5.66908">
        <ele>945</ele>
        <time>2026-05-13T18:07:48Z</time>
      </trkpt>
      <trkpt lat="46.05258" lon="5.66907">
        <ele>945.2</ele>
        <time>2026-05-13T18:09:20Z</time>
      </trkpt>
      <trkpt lat="46.05258" lon="5.66907">
        <ele>945.2</ele>
        <time>2026-05-13T18:09:21Z</time>
      </trkpt>
      <trkpt lat="46.05258" lon="5.66903">
        <ele>944.8</ele>
        <time>2026-05-13T18:09:27Z</time>
      </trkpt>
      <trkpt lat="46.05259" lon="5.669">
        <ele>944.8</ele>
        <time>2026-05-13T18:09:28Z</time>
      </trkpt>
      <trkpt lat="46.05259" lon="5.66898">
        <ele>944.6</ele>
        <time>2026-05-13T18:09:29Z</time>
      </trkpt>
      <trkpt lat="46.05259" lon="5.66896">
        <ele>944.6</ele>
        <time>2026-05-13T18:09:30Z</time>
      </trkpt>
      <trkpt lat="46.05259" lon="5.66896">
        <ele>944.4</ele>
        <time>2026-05-13T18:09:31Z</time>
      </trkpt>
      <trkpt lat="46.05259" lon="5.66892">
        <ele>944.2</ele>
        <time>2026-05-13T18:09:32Z</time>
      </trkpt>
      <trkpt lat="46.0526" lon="5.66887">
        <ele>944.2</ele>
        <time>2026-05-13T18:09:33Z</time>
      </trkpt>
      <trkpt lat="46.05261" lon="5.66883">
        <ele>943.8</ele>
        <time>2026-05-13T18:09:34Z</time>
      </trkpt>
      <trkpt lat="46.05262" lon="5.66878">
        <ele>943.8</ele>
        <time>2026-05-13T18:09:35Z</time>
      </trkpt>
      <trkpt lat="46.05264" lon="5.66873">
        <ele>943.4</ele>
        <time>2026-05-13T18:09:36Z</time>
      </trkpt>
      <trkpt lat="46.05267" lon="5.66866">
        <ele>943.2</ele>
        <time>2026-05-13T18:09:37Z</time>
      </trkpt>
      <trkpt lat="46.05268" lon="5.6686">
        <ele>943.2</ele>
        <time>2026-05-13T18:09:38Z</time>
      </trkpt>
      <trkpt lat="46.0527" lon="5.66854">
        <ele>942.6</ele>
        <time>2026-05-13T18:09:39Z</time>
      </trkpt>
      <trkpt lat="46.05272" lon="5.66847">
        <ele>942.4</ele>
        <time>2026-05-13T18:09:40Z</time>
      </trkpt>
      <trkpt lat="46.05274" lon="5.66839">
        <ele>942</ele>
        <time>2026-05-13T18:09:41Z</time>
      </trkpt>
      <trkpt lat="46.05275" lon="5.66831">
        <ele>941.6</ele>
        <time>2026-05-13T18:09:42Z</time>
      </trkpt>
      <trkpt lat="46.05277" lon="5.66823">
        <ele>941.2</ele>
        <time>2026-05-13T18:09:43Z</time>
      </trkpt>
      <trkpt lat="46.05279" lon="5.66815">
        <ele>941</ele>
        <time>2026-05-13T18:09:44Z</time>
      </trkpt>
      <trkpt lat="46.05281" lon="5.66805">
        <ele>941</ele>
        <time>2026-05-13T18:09:45Z</time>
      </trkpt>
      <trkpt lat="46.05283" lon="5.66795">
        <ele>940.6</ele>
        <time>2026-05-13T18:09:46Z</time>
      </trkpt>
      <trkpt lat="46.05286" lon="5.66785">
        <ele>940.4</ele>
        <time>2026-05-13T18:09:47Z</time>
      </trkpt>
      <trkpt lat="46.05288" lon="5.66774">
        <ele>939.8</ele>
        <time>2026-05-13T18:09:48Z</time>
      </trkpt>
      <trkpt lat="46.05291" lon="5.66763">
        <ele>939.2</ele>
        <time>2026-05-13T18:09:49Z</time>
      </trkpt>
      <trkpt lat="46.05294" lon="5.66752">
        <ele>938.6</ele>
        <time>2026-05-13T18:09:50Z</time>
      </trkpt>
      <trkpt lat="46.05297" lon="5.66741">
        <ele>938</ele>
        <time>2026-05-13T18:09:51Z</time>
      </trkpt>
      <trkpt lat="46.053" lon="5.66728">
        <ele>937.4</ele>
        <time>2026-05-13T18:09:52Z</time>
      </trkpt>
      <trkpt lat="46.05304" lon="5.66716">
        <ele>936.6</ele>
        <time>2026-05-13T18:09:53Z</time>
      </trkpt>
      <trkpt lat="46.05309" lon="5.66704">
        <ele>936</ele>
        <time>2026-05-13T18:09:54Z</time>
      </trkpt>
      <trkpt lat="46.05314" lon="5.66693">
        <ele>935.2</ele>
        <time>2026-05-13T18:09:55Z</time>
      </trkpt>
      <trkpt lat="46.05319" lon="5.66682">
        <ele>934.4</ele>
        <time>2026-05-13T18:09:56Z</time>
      </trkpt>
      <trkpt lat="46.05324" lon="5.66671">
        <ele>934</ele>
        <time>2026-05-13T18:09:57Z</time>
      </trkpt>
      <trkpt lat="46.0533" lon="5.66661">
        <ele>934</ele>
        <time>2026-05-13T18:09:58Z</time>
      </trkpt>
      <trkpt lat="46.05336" lon="5.66651">
        <ele>934</ele>
        <time>2026-05-13T18:09:59Z</time>
      </trkpt>
      <trkpt lat="46.05342" lon="5.66641">
        <ele>934</ele>
        <time>2026-05-13T18:10:00Z</time>
      </trkpt>
      <trkpt lat="46.05349" lon="5.66633">
        <ele>933.4</ele>
        <time>2026-05-13T18:10:01Z</time>
      </trkpt>
      <trkpt lat="46.05355" lon="5.66624">
        <ele>932.8</ele>
        <time>2026-05-13T18:10:02Z</time>
      </trkpt>
      <trkpt lat="46.05364" lon="5.66616">
        <ele>932.2</ele>
        <time>2026-05-13T18:10:03Z</time>
      </trkpt>
      <trkpt lat="46.05372" lon="5.66607">
        <ele>931.8</ele>
        <time>2026-05-13T18:10:04Z</time>
      </trkpt>
      <trkpt lat="46.05381" lon="5.666">
        <ele>931.2</ele>
        <time>2026-05-13T18:10:05Z</time>
      </trkpt>
      <trkpt lat="46.05389" lon="5.66593">
        <ele>930.4</ele>
        <time>2026-05-13T18:10:06Z</time>
      </trkpt>
      <trkpt lat="46.05398" lon="5.66584">
        <ele>930</ele>
        <time>2026-05-13T18:10:07Z</time>
      </trkpt>
      <trkpt lat="46.05407" lon="5.66574">
        <ele>929.2</ele>
        <time>2026-05-13T18:10:08Z</time>
      </trkpt>
      <trkpt lat="46.05414" lon="5.66565">
        <ele>928.6</ele>
        <time>2026-05-13T18:10:09Z</time>
      </trkpt>
      <trkpt lat="46.05422" lon="5.66554">
        <ele>928</ele>
        <time>2026-05-13T18:10:10Z</time>
      </trkpt>
      <trkpt lat="46.0543" lon="5.66544">
        <ele>927.4</ele>
        <time>2026-05-13T18:10:11Z</time>
      </trkpt>
      <trkpt lat="46.05437" lon="5.66534">
        <ele>926.8</ele>
        <time>2026-05-13T18:10:12Z</time>
      </trkpt>
      <trkpt lat="46.05444" lon="5.66522">
        <ele>926.4</ele>
        <time>2026-05-13T18:10:13Z</time>
      </trkpt>
      <trkpt lat="46.0545" lon="5.6651">
        <ele>925.8</ele>
        <time>2026-05-13T18:10:14Z</time>
      </trkpt>
      <trkpt lat="46.05455" lon="5.66496">
        <ele>925.4</ele>
        <time>2026-05-13T18:10:15Z</time>
      </trkpt>
      <trkpt lat="46.05459" lon="5.66482">
        <ele>924.6</ele>
        <time>2026-05-13T18:10:16Z</time>
      </trkpt>
      <trkpt lat="46.05461" lon="5.66467">
        <ele>924</ele>
        <time>2026-05-13T18:10:17Z</time>
      </trkpt>
      <trkpt lat="46.05463" lon="5.66451">
        <ele>924</ele>
        <time>2026-05-13T18:10:18Z</time>
      </trkpt>
      <trkpt lat="46.05464" lon="5.66437">
        <ele>923.8</ele>
        <time>2026-05-13T18:10:19Z</time>
      </trkpt>
      <trkpt lat="46.05464" lon="5.66424">
        <ele>923.8</ele>
        <time>2026-05-13T18:10:20Z</time>
      </trkpt>
      <trkpt lat="46.05464" lon="5.6641">
        <ele>923.8</ele>
        <time>2026-05-13T18:10:21Z</time>
      </trkpt>
      <trkpt lat="46.05463" lon="5.66397">
        <ele>923.8</ele>
        <time>2026-05-13T18:10:22Z</time>
      </trkpt>
      <trkpt lat="46.05463" lon="5.66385">
        <ele>923.8</ele>
        <time>2026-05-13T18:10:23Z</time>
      </trkpt>
      <trkpt lat="46.05462" lon="5.66373">
        <ele>923.8</ele>
        <time>2026-05-13T18:10:24Z</time>
      </trkpt>
      <trkpt lat="46.05462" lon="5.66363">
        <ele>924</ele>
        <time>2026-05-13T18:10:25Z</time>
      </trkpt>
      <trkpt lat="46.05462" lon="5.66352">
        <ele>924</ele>
        <time>2026-05-13T18:10:26Z</time>
      </trkpt>
      <trkpt lat="46.05461" lon="5.66343">
        <ele>924.6</ele>
        <time>2026-05-13T18:10:27Z</time>
      </trkpt>
      <trkpt lat="46.05461" lon="5.66334">
        <ele>925.2</ele>
        <time>2026-05-13T18:10:28Z</time>
      </trkpt>
      <trkpt lat="46.0546" lon="5.66324">
        <ele>925.8</ele>
        <time>2026-05-13T18:10:29Z</time>
      </trkpt>
      <trkpt lat="46.05459" lon="5.66316">
        <ele>926.2</ele>
        <time>2026-05-13T18:10:30Z</time>
      </trkpt>
      <trkpt lat="46.05459" lon="5.66307">
        <ele>926.6</ele>
        <time>2026-05-13T18:10:31Z</time>
      </trkpt>
      <trkpt lat="46.05459" lon="5.66299">
        <ele>927</ele>
        <time>2026-05-13T18:10:32Z</time>
      </trkpt>
      <trkpt lat="46.05459" lon="5.66291">
        <ele>927.2</ele>
        <time>2026-05-13T18:10:33Z</time>
      </trkpt>
      <trkpt lat="46.05459" lon="5.66284">
        <ele>927.6</ele>
        <time>2026-05-13T18:10:34Z</time>
      </trkpt>
      <trkpt lat="46.05459" lon="5.66277">
        <ele>928.2</ele>
        <time>2026-05-13T18:10:35Z</time>
      </trkpt>
      <trkpt lat="46.05459" lon="5.66269">
        <ele>928.6</ele>
        <time>2026-05-13T18:10:36Z</time>
      </trkpt>
      <trkpt lat="46.0546" lon="5.66262">
        <ele>928.6</ele>
        <time>2026-05-13T18:10:37Z</time>
      </trkpt>
      <trkpt lat="46.0546" lon="5.66256">
        <ele>929.2</ele>
        <time>2026-05-13T18:10:38Z</time>
      </trkpt>
      <trkpt lat="46.0546" lon="5.6625">
        <ele>929.6</ele>
        <time>2026-05-13T18:10:39Z</time>
      </trkpt>
      <trkpt lat="46.0546" lon="5.66244">
        <ele>930</ele>
        <time>2026-05-13T18:10:40Z</time>
      </trkpt>
      <trkpt lat="46.05461" lon="5.66238">
        <ele>930.2</ele>
        <time>2026-05-13T18:10:41Z</time>
      </trkpt>
      <trkpt lat="46.05461" lon="5.66233">
        <ele>930.4</ele>
        <time>2026-05-13T18:10:42Z</time>
      </trkpt>
      <trkpt lat="46.05462" lon="5.66228">
        <ele>930.8</ele>
        <time>2026-05-13T18:10:43Z</time>
      </trkpt>
      <trkpt lat="46.05462" lon="5.66222">
        <ele>931.2</ele>
        <time>2026-05-13T18:10:44Z</time>
      </trkpt>
      <trkpt lat="46.05463" lon="5.66217">
        <ele>931.2</ele>
        <time>2026-05-13T18:10:45Z</time>
      </trkpt>
      <trkpt lat="46.05463" lon="5.66213">
        <ele>931.6</ele>
        <time>2026-05-13T18:10:46Z</time>
      </trkpt>
      <trkpt lat="46.05464" lon="5.66208">
        <ele>931.6</ele>
        <time>2026-05-13T18:10:47Z</time>
      </trkpt>
      <trkpt lat="46.05464" lon="5.66204">
        <ele>932.2</ele>
        <time>2026-05-13T18:10:48Z</time>
      </trkpt>
      <trkpt lat="46.05464" lon="5.662">
        <ele>932.2</ele>
        <time>2026-05-13T18:10:49Z</time>
      </trkpt>
      <trkpt lat="46.05464" lon="5.66195">
        <ele>932.4</ele>
        <time>2026-05-13T18:10:50Z</time>
      </trkpt>
      <trkpt lat="46.05465" lon="5.66191">
        <ele>932.4</ele>
        <time>2026-05-13T18:10:51Z</time>
      </trkpt>
      <trkpt lat="46.05465" lon="5.66187">
        <ele>932.8</ele>
        <time>2026-05-13T18:10:52Z</time>
      </trkpt>
      <trkpt lat="46.05466" lon="5.66183">
        <ele>933</ele>
        <time>2026-05-13T18:10:53Z</time>
      </trkpt>
      <trkpt lat="46.05466" lon="5.66179">
        <ele>933</ele>
        <time>2026-05-13T18:10:54Z</time>
      </trkpt>
      <trkpt lat="46.05467" lon="5.66175">
        <ele>933.4</ele>
        <time>2026-05-13T18:10:55Z</time>
      </trkpt>
      <trkpt lat="46.05467" lon="5.66171">
        <ele>933.4</ele>
        <time>2026-05-13T18:10:56Z</time>
      </trkpt>
      <trkpt lat="46.05467" lon="5.66168">
        <ele>933.6</ele>
        <time>2026-05-13T18:10:57Z</time>
      </trkpt>
      <trkpt lat="46.05468" lon="5.66164">
        <ele>933.6</ele>
        <time>2026-05-13T18:10:58Z</time>
      </trkpt>
      <trkpt lat="46.05468" lon="5.66161">
        <ele>933.8</ele>
        <time>2026-05-13T18:10:59Z</time>
      </trkpt>
      <trkpt lat="46.05469" lon="5.66157">
        <ele>934</ele>
        <time>2026-05-13T18:11:00Z</time>
      </trkpt>
      <trkpt lat="46.05469" lon="5.66154">
        <ele>934</ele>
        <time>2026-05-13T18:11:01Z</time>
      </trkpt>
      <trkpt lat="46.0547" lon="5.66151">
        <ele>934.4</ele>
        <time>2026-05-13T18:11:02Z</time>
      </trkpt>
      <trkpt lat="46.05471" lon="5.66148">
        <ele>934.4</ele>
        <time>2026-05-13T18:11:03Z</time>
      </trkpt>
      <trkpt lat="46.05473" lon="5.66145">
        <ele>934.8</ele>
        <time>2026-05-13T18:11:04Z</time>
      </trkpt>
      <trkpt lat="46.05474" lon="5.66142">
        <ele>935</ele>
        <time>2026-05-13T18:11:05Z</time>
      </trkpt>
      <trkpt lat="46.05476" lon="5.6614">
        <ele>935.2</ele>
        <time>2026-05-13T18:11:06Z</time>
      </trkpt>
      <trkpt lat="46.05478" lon="5.66138">
        <ele>935.2</ele>
        <time>2026-05-13T18:11:07Z</time>
      </trkpt>
      <trkpt lat="46.0548" lon="5.66137">
        <ele>935.6</ele>
        <time>2026-05-13T18:11:08Z</time>
      </trkpt>
      <trkpt lat="46.05482" lon="5.66135">
        <ele>935.8</ele>
        <time>2026-05-13T18:11:09Z</time>
      </trkpt>
      <trkpt lat="46.05484" lon="5.66134">
        <ele>936</ele>
        <time>2026-05-13T18:11:10Z</time>
      </trkpt>
      <trkpt lat="46.05486" lon="5.66132">
        <ele>936.2</ele>
        <time>2026-05-13T18:11:11Z</time>
      </trkpt>
      <trkpt lat="46.05489" lon="5.66131">
        <ele>936.2</ele>
        <time>2026-05-13T18:11:12Z</time>
      </trkpt>
      <trkpt lat="46.05491" lon="5.6613">
        <ele>936.6</ele>
        <time>2026-05-13T18:11:13Z</time>
      </trkpt>
      <trkpt lat="46.05493" lon="5.66129">
        <ele>936.6</ele>
        <time>2026-05-13T18:11:14Z</time>
      </trkpt>
      <trkpt lat="46.05495" lon="5.66128">
        <ele>936.8</ele>
        <time>2026-05-13T18:11:15Z</time>
      </trkpt>
      <trkpt lat="46.05498" lon="5.66127">
        <ele>936.8</ele>
        <time>2026-05-13T18:11:16Z</time>
      </trkpt>
      <trkpt lat="46.05502" lon="5.66125">
        <ele>937.2</ele>
        <time>2026-05-13T18:11:17Z</time>
      </trkpt>
      <trkpt lat="46.05505" lon="5.66123">
        <ele>937.2</ele>
        <time>2026-05-13T18:11:18Z</time>
      </trkpt>
      <trkpt lat="46.05508" lon="5.66122">
        <ele>937.2</ele>
        <time>2026-05-13T18:11:19Z</time>
      </trkpt>
      <trkpt lat="46.0551" lon="5.66121">
        <ele>937.6</ele>
        <time>2026-05-13T18:11:20Z</time>
      </trkpt>
      <trkpt lat="46.05513" lon="5.6612">
        <ele>937.6</ele>
        <time>2026-05-13T18:11:21Z</time>
      </trkpt>
      <trkpt lat="46.05515" lon="5.66119">
        <ele>937.8</ele>
        <time>2026-05-13T18:11:22Z</time>
      </trkpt>
      <trkpt lat="46.05517" lon="5.66118">
        <ele>938.2</ele>
        <time>2026-05-13T18:11:23Z</time>
      </trkpt>
      <trkpt lat="46.05519" lon="5.66117">
        <ele>938.4</ele>
        <time>2026-05-13T18:11:24Z</time>
      </trkpt>
      <trkpt lat="46.05521" lon="5.66116">
        <ele>938.4</ele>
        <time>2026-05-13T18:11:25Z</time>
      </trkpt>
      <trkpt lat="46.05523" lon="5.66115">
        <ele>938.8</ele>
        <time>2026-05-13T18:11:26Z</time>
      </trkpt>
      <trkpt lat="46.05525" lon="5.66114">
        <ele>939</ele>
        <time>2026-05-13T18:11:27Z</time>
      </trkpt>
      <trkpt lat="46.05527" lon="5.66113">
        <ele>939</ele>
        <time>2026-05-13T18:11:28Z</time>
      </trkpt>
      <trkpt lat="46.05529" lon="5.66112">
        <ele>939</ele>
        <time>2026-05-13T18:11:29Z</time>
      </trkpt>
      <trkpt lat="46.05531" lon="5.66111">
        <ele>939.4</ele>
        <time>2026-05-13T18:11:30Z</time>
      </trkpt>
      <trkpt lat="46.05534" lon="5.6611">
        <ele>939.6</ele>
        <time>2026-05-13T18:11:31Z</time>
      </trkpt>
      <trkpt lat="46.05536" lon="5.66109">
        <ele>939.6</ele>
        <time>2026-05-13T18:11:32Z</time>
      </trkpt>
      <trkpt lat="46.05538" lon="5.66107">
        <ele>939.6</ele>
        <time>2026-05-13T18:11:33Z</time>
      </trkpt>
      <trkpt lat="46.0554" lon="5.66106">
        <ele>940</ele>
        <time>2026-05-13T18:11:34Z</time>
      </trkpt>
      <trkpt lat="46.05542" lon="5.66105">
        <ele>940</ele>
        <time>2026-05-13T18:11:35Z</time>
      </trkpt>
      <trkpt lat="46.05544" lon="5.66103">
        <ele>940</ele>
        <time>2026-05-13T18:11:36Z</time>
      </trkpt>
      <trkpt lat="46.05546" lon="5.66102">
        <ele>940.2</ele>
        <time>2026-05-13T18:11:37Z</time>
      </trkpt>
      <trkpt lat="46.05548" lon="5.66101">
        <ele>940.2</ele>
        <time>2026-05-13T18:11:38Z</time>
      </trkpt>
      <trkpt lat="46.0555" lon="5.661">
        <ele>940.2</ele>
        <time>2026-05-13T18:11:39Z</time>
      </trkpt>
      <trkpt lat="46.05552" lon="5.66098">
        <ele>940.4</ele>
        <time>2026-05-13T18:11:40Z</time>
      </trkpt>
      <trkpt lat="46.05555" lon="5.66097">
        <ele>940.4</ele>
        <time>2026-05-13T18:11:41Z</time>
      </trkpt>
      <trkpt lat="46.05557" lon="5.66095">
        <ele>940.6</ele>
        <time>2026-05-13T18:11:42Z</time>
      </trkpt>
      <trkpt lat="46.05559" lon="5.66093">
        <ele>940.6</ele>
        <time>2026-05-13T18:11:43Z</time>
      </trkpt>
      <trkpt lat="46.05561" lon="5.66092">
        <ele>941</ele>
        <time>2026-05-13T18:11:44Z</time>
      </trkpt>
      <trkpt lat="46.05563" lon="5.6609">
        <ele>941</ele>
        <time>2026-05-13T18:11:45Z</time>
      </trkpt>
      <trkpt lat="46.05565" lon="5.66088">
        <ele>941.2</ele>
        <time>2026-05-13T18:11:46Z</time>
      </trkpt>
      <trkpt lat="46.05567" lon="5.66086">
        <ele>941.2</ele>
        <time>2026-05-13T18:11:47Z</time>
      </trkpt>
      <trkpt lat="46.05569" lon="5.66084">
        <ele>941.2</ele>
        <time>2026-05-13T18:11:48Z</time>
      </trkpt>
      <trkpt lat="46.05571" lon="5.66082">
        <ele>941.6</ele>
        <time>2026-05-13T18:11:49Z</time>
      </trkpt>
      <trkpt lat="46.05573" lon="5.66079">
        <ele>941.6</ele>
        <time>2026-05-13T18:11:50Z</time>
      </trkpt>
      <trkpt lat="46.05575" lon="5.66077">
        <ele>941.8</ele>
        <time>2026-05-13T18:11:51Z</time>
      </trkpt>
      <trkpt lat="46.05577" lon="5.66075">
        <ele>941.8</ele>
        <time>2026-05-13T18:11:52Z</time>
      </trkpt>
      <trkpt lat="46.05579" lon="5.66073">
        <ele>942</ele>
        <time>2026-05-13T18:11:53Z</time>
      </trkpt>
      <trkpt lat="46.05581" lon="5.6607">
        <ele>942</ele>
        <time>2026-05-13T18:11:54Z</time>
      </trkpt>
      <trkpt lat="46.05582" lon="5.66068">
        <ele>942</ele>
        <time>2026-05-13T18:11:55Z</time>
      </trkpt>
      <trkpt lat="46.05584" lon="5.66066">
        <ele>942</ele>
        <time>2026-05-13T18:11:56Z</time>
      </trkpt>
      <trkpt lat="46.05586" lon="5.66063">
        <ele>942</ele>
        <time>2026-05-13T18:11:57Z</time>
      </trkpt>
      <trkpt lat="46.05587" lon="5.66061">
        <ele>942</ele>
        <time>2026-05-13T18:11:58Z</time>
      </trkpt>
      <trkpt lat="46.05589" lon="5.66058">
        <ele>942.4</ele>
        <time>2026-05-13T18:11:59Z</time>
      </trkpt>
      <trkpt lat="46.05591" lon="5.66056">
        <ele>942.6</ele>
        <time>2026-05-13T18:12:00Z</time>
      </trkpt>
      <trkpt lat="46.05593" lon="5.66054">
        <ele>942.6</ele>
        <time>2026-05-13T18:12:01Z</time>
      </trkpt>
      <trkpt lat="46.05595" lon="5.66052">
        <ele>942.8</ele>
        <time>2026-05-13T18:12:02Z</time>
      </trkpt>
      <trkpt lat="46.05596" lon="5.66049">
        <ele>943</ele>
        <time>2026-05-13T18:12:03Z</time>
      </trkpt>
      <trkpt lat="46.05598" lon="5.66046">
        <ele>943.2</ele>
        <time>2026-05-13T18:12:04Z</time>
      </trkpt>
      <trkpt lat="46.056" lon="5.66043">
        <ele>943.2</ele>
        <time>2026-05-13T18:12:05Z</time>
      </trkpt>
      <trkpt lat="46.05601" lon="5.66041">
        <ele>943.4</ele>
        <time>2026-05-13T18:12:06Z</time>
      </trkpt>
      <trkpt lat="46.05603" lon="5.66038">
        <ele>943.6</ele>
        <time>2026-05-13T18:12:07Z</time>
      </trkpt>
      <trkpt lat="46.05605" lon="5.66036">
        <ele>943.6</ele>
        <time>2026-05-13T18:12:08Z</time>
      </trkpt>
      <trkpt lat="46.05606" lon="5.66033">
        <ele>944</ele>
        <time>2026-05-13T18:12:09Z</time>
      </trkpt>
      <trkpt lat="46.05608" lon="5.66031">
        <ele>944</ele>
        <time>2026-05-13T18:12:10Z</time>
      </trkpt>
      <trkpt lat="46.05609" lon="5.66028">
        <ele>944.2</ele>
        <time>2026-05-13T18:12:11Z</time>
      </trkpt>
      <trkpt lat="46.05611" lon="5.66026">
        <ele>944.2</ele>
        <time>2026-05-13T18:12:12Z</time>
      </trkpt>
      <trkpt lat="46.05612" lon="5.66024">
        <ele>944.6</ele>
        <time>2026-05-13T18:12:13Z</time>
      </trkpt>
      <trkpt lat="46.05614" lon="5.66022">
        <ele>944.6</ele>
        <time>2026-05-13T18:12:14Z</time>
      </trkpt>
      <trkpt lat="46.05615" lon="5.6602">
        <ele>944.8</ele>
        <time>2026-05-13T18:12:15Z</time>
      </trkpt>
      <trkpt lat="46.05617" lon="5.66017">
        <ele>944.8</ele>
        <time>2026-05-13T18:12:16Z</time>
      </trkpt>
      <trkpt lat="46.05618" lon="5.66015">
        <ele>944.8</ele>
        <time>2026-05-13T18:12:17Z</time>
      </trkpt>
      <trkpt lat="46.05619" lon="5.66012">
        <ele>944.8</ele>
        <time>2026-05-13T18:12:18Z</time>
      </trkpt>
      <trkpt lat="46.0562" lon="5.6601">
        <ele>944.8</ele>
        <time>2026-05-13T18:12:19Z</time>
      </trkpt>
      <trkpt lat="46.05622" lon="5.66007">
        <ele>945.2</ele>
        <time>2026-05-13T18:12:20Z</time>
      </trkpt>
      <trkpt lat="46.05623" lon="5.66004">
        <ele>945.2</ele>
        <time>2026-05-13T18:12:21Z</time>
      </trkpt>
      <trkpt lat="46.05625" lon="5.66002">
        <ele>945.6</ele>
        <time>2026-05-13T18:12:22Z</time>
      </trkpt>
      <trkpt lat="46.05626" lon="5.66">
        <ele>945.6</ele>
        <time>2026-05-13T18:12:23Z</time>
      </trkpt>
      <trkpt lat="46.05627" lon="5.65997">
        <ele>945.8</ele>
        <time>2026-05-13T18:12:24Z</time>
      </trkpt>
      <trkpt lat="46.05628" lon="5.65995">
        <ele>945.8</ele>
        <time>2026-05-13T18:12:25Z</time>
      </trkpt>
      <trkpt lat="46.05629" lon="5.65992">
        <ele>945.8</ele>
        <time>2026-05-13T18:12:26Z</time>
      </trkpt>
      <trkpt lat="46.0563" lon="5.65989">
        <ele>946</ele>
        <time>2026-05-13T18:12:27Z</time>
      </trkpt>
      <trkpt lat="46.0563" lon="5.65989">
        <ele>946</ele>
        <time>2026-05-13T18:12:28Z</time>
      </trkpt>
      <trkpt lat="46.0563" lon="5.65989">
        <ele>946</ele>
        <time>2026-05-13T18:12:29Z</time>
      </trkpt>
      <trkpt lat="46.05634" lon="5.65978">
        <ele>946.4</ele>
        <time>2026-05-13T18:12:32Z</time>
      </trkpt>
      <trkpt lat="46.05636" lon="5.65973">
        <ele>946.4</ele>
        <time>2026-05-13T18:12:33Z</time>
      </trkpt>
      <trkpt lat="46.05637" lon="5.6597">
        <ele>946.4</ele>
        <time>2026-05-13T18:12:34Z</time>
      </trkpt>
      <trkpt lat="46.05639" lon="5.65967">
        <ele>946.8</ele>
        <time>2026-05-13T18:12:35Z</time>
      </trkpt>
      <trkpt lat="46.0564" lon="5.65965">
        <ele>946.8</ele>
        <time>2026-05-13T18:12:36Z</time>
      </trkpt>
      <trkpt lat="46.05642" lon="5.65962">
        <ele>947</ele>
        <time>2026-05-13T18:12:37Z</time>
      </trkpt>
      <trkpt lat="46.05644" lon="5.65959">
        <ele>947</ele>
        <time>2026-05-13T18:12:38Z</time>
      </trkpt>
      <trkpt lat="46.05645" lon="5.65956">
        <ele>947</ele>
        <time>2026-05-13T18:12:39Z</time>
      </trkpt>
      <trkpt lat="46.05647" lon="5.65953">
        <ele>947</ele>
        <time>2026-05-13T18:12:40Z</time>
      </trkpt>
      <trkpt lat="46.05648" lon="5.6595">
        <ele>947</ele>
        <time>2026-05-13T18:12:41Z</time>
      </trkpt>
      <trkpt lat="46.0565" lon="5.65947">
        <ele>946.4</ele>
        <time>2026-05-13T18:12:42Z</time>
      </trkpt>
      <trkpt lat="46.05651" lon="5.65944">
        <ele>946.8</ele>
        <time>2026-05-13T18:12:43Z</time>
      </trkpt>
      <trkpt lat="46.05653" lon="5.65941">
        <ele>947</ele>
        <time>2026-05-13T18:12:44Z</time>
      </trkpt>
      <trkpt lat="46.05654" lon="5.65938">
        <ele>947.2</ele>
        <time>2026-05-13T18:12:45Z</time>
      </trkpt>
      <trkpt lat="46.05656" lon="5.65935">
        <ele>947.6</ele>
        <time>2026-05-13T18:12:46Z</time>
      </trkpt>
      <trkpt lat="46.05658" lon="5.65932">
        <ele>947.6</ele>
        <time>2026-05-13T18:12:47Z</time>
      </trkpt>
      <trkpt lat="46.05659" lon="5.65929">
        <ele>947.8</ele>
        <time>2026-05-13T18:12:48Z</time>
      </trkpt>
      <trkpt lat="46.05661" lon="5.65926">
        <ele>947.8</ele>
        <time>2026-05-13T18:12:49Z</time>
      </trkpt>
      <trkpt lat="46.05662" lon="5.65922">
        <ele>948</ele>
        <time>2026-05-13T18:12:50Z</time>
      </trkpt>
      <trkpt lat="46.05664" lon="5.65919">
        <ele>948</ele>
        <time>2026-05-13T18:12:51Z</time>
      </trkpt>
      <trkpt lat="46.05665" lon="5.65916">
        <ele>948.4</ele>
        <time>2026-05-13T18:12:52Z</time>
      </trkpt>
      <trkpt lat="46.05667" lon="5.65913">
        <ele>948.4</ele>
        <time>2026-05-13T18:12:53Z</time>
      </trkpt>
      <trkpt lat="46.05668" lon="5.6591">
        <ele>948.4</ele>
        <time>2026-05-13T18:12:54Z</time>
      </trkpt>
      <trkpt lat="46.0567" lon="5.65906">
        <ele>948.4</ele>
        <time>2026-05-13T18:12:55Z</time>
      </trkpt>
      <trkpt lat="46.05671" lon="5.65903">
        <ele>948.6</ele>
        <time>2026-05-13T18:12:56Z</time>
      </trkpt>
      <trkpt lat="46.05673" lon="5.65899">
        <ele>948.6</ele>
        <time>2026-05-13T18:12:57Z</time>
      </trkpt>
      <trkpt lat="46.05674" lon="5.65895">
        <ele>948.6</ele>
        <time>2026-05-13T18:12:58Z</time>
      </trkpt>
      <trkpt lat="46.05676" lon="5.65892">
        <ele>948.6</ele>
        <time>2026-05-13T18:12:59Z</time>
      </trkpt>
      <trkpt lat="46.05678" lon="5.65888">
        <ele>948.6</ele>
        <time>2026-05-13T18:13:00Z</time>
      </trkpt>
      <trkpt lat="46.05678" lon="5.65888">
        <ele>948.8</ele>
        <time>2026-05-13T18:13:01Z</time>
      </trkpt>
      <trkpt lat="46.05678" lon="5.65888">
        <ele>948.8</ele>
        <time>2026-05-13T18:13:02Z</time>
      </trkpt>
      <trkpt lat="46.05684" lon="5.65875">
        <ele>948.8</ele>
        <time>2026-05-13T18:13:03Z</time>
      </trkpt>
      <trkpt lat="46.05686" lon="5.65871">
        <ele>949</ele>
        <time>2026-05-13T18:13:04Z</time>
      </trkpt>
      <trkpt lat="46.05688" lon="5.65867">
        <ele>949.2</ele>
        <time>2026-05-13T18:13:05Z</time>
      </trkpt>
      <trkpt lat="46.05691" lon="5.65863">
        <ele>949.2</ele>
        <time>2026-05-13T18:13:06Z</time>
      </trkpt>
      <trkpt lat="46.05693" lon="5.65859">
        <ele>949.2</ele>
        <time>2026-05-13T18:13:07Z</time>
      </trkpt>
      <trkpt lat="46.05695" lon="5.65855">
        <ele>949.6</ele>
        <time>2026-05-13T18:13:08Z</time>
      </trkpt>
      <trkpt lat="46.05697" lon="5.65851">
        <ele>949.6</ele>
        <time>2026-05-13T18:13:09Z</time>
      </trkpt>
      <trkpt lat="46.05699" lon="5.65846">
        <ele>949.8</ele>
        <time>2026-05-13T18:13:10Z</time>
      </trkpt>
      <trkpt lat="46.05701" lon="5.65842">
        <ele>949.8</ele>
        <time>2026-05-13T18:13:11Z</time>
      </trkpt>
      <trkpt lat="46.05702" lon="5.65837">
        <ele>950</ele>
        <time>2026-05-13T18:13:12Z</time>
      </trkpt>
      <trkpt lat="46.05704" lon="5.65833">
        <ele>950</ele>
        <time>2026-05-13T18:13:13Z</time>
      </trkpt>
      <trkpt lat="46.05707" lon="5.65828">
        <ele>950.4</ele>
        <time>2026-05-13T18:13:14Z</time>
      </trkpt>
      <trkpt lat="46.05709" lon="5.65824">
        <ele>950.4</ele>
        <time>2026-05-13T18:13:15Z</time>
      </trkpt>
      <trkpt lat="46.0571" lon="5.6582">
        <ele>950.6</ele>
        <time>2026-05-13T18:13:16Z</time>
      </trkpt>
      <trkpt lat="46.05712" lon="5.65816">
        <ele>950.6</ele>
        <time>2026-05-13T18:13:17Z</time>
      </trkpt>
      <trkpt lat="46.05714" lon="5.65811">
        <ele>951</ele>
        <time>2026-05-13T18:13:18Z</time>
      </trkpt>
      <trkpt lat="46.05716" lon="5.65807">
        <ele>951</ele>
        <time>2026-05-13T18:13:19Z</time>
      </trkpt>
      <trkpt lat="46.05718" lon="5.65803">
        <ele>951.2</ele>
        <time>2026-05-13T18:13:20Z</time>
      </trkpt>
      <trkpt lat="46.05721" lon="5.65799">
        <ele>951.2</ele>
        <time>2026-05-13T18:13:21Z</time>
      </trkpt>
      <trkpt lat="46.05723" lon="5.65795">
        <ele>951.6</ele>
        <time>2026-05-13T18:13:22Z</time>
      </trkpt>
      <trkpt lat="46.05725" lon="5.65791">
        <ele>951.6</ele>
        <time>2026-05-13T18:13:23Z</time>
      </trkpt>
      <trkpt lat="46.05726" lon="5.65787">
        <ele>952</ele>
        <time>2026-05-13T18:13:24Z</time>
      </trkpt>
      <trkpt lat="46.05728" lon="5.65782">
        <ele>952</ele>
        <time>2026-05-13T18:13:25Z</time>
      </trkpt>
      <trkpt lat="46.0573" lon="5.65778">
        <ele>952.4</ele>
        <time>2026-05-13T18:13:26Z</time>
      </trkpt>
      <trkpt lat="46.05732" lon="5.65774">
        <ele>952.4</ele>
        <time>2026-05-13T18:13:27Z</time>
      </trkpt>
      <trkpt lat="46.05734" lon="5.6577">
        <ele>952.6</ele>
        <time>2026-05-13T18:13:28Z</time>
      </trkpt>
      <trkpt lat="46.05736" lon="5.65766">
        <ele>953</ele>
        <time>2026-05-13T18:13:29Z</time>
      </trkpt>
      <trkpt lat="46.05738" lon="5.65762">
        <ele>953</ele>
        <time>2026-05-13T18:13:30Z</time>
      </trkpt>
      <trkpt lat="46.05739" lon="5.65758">
        <ele>953.2</ele>
        <time>2026-05-13T18:13:31Z</time>
      </trkpt>
      <trkpt lat="46.05741" lon="5.65753">
        <ele>953.2</ele>
        <time>2026-05-13T18:13:32Z</time>
      </trkpt>
      <trkpt lat="46.05743" lon="5.65749">
        <ele>953.4</ele>
        <time>2026-05-13T18:13:33Z</time>
      </trkpt>
      <trkpt lat="46.05745" lon="5.65746">
        <ele>953.4</ele>
        <time>2026-05-13T18:13:34Z</time>
      </trkpt>
      <trkpt lat="46.05746" lon="5.65742">
        <ele>953.6</ele>
        <time>2026-05-13T18:13:35Z</time>
      </trkpt>
      <trkpt lat="46.05748" lon="5.65739">
        <ele>953.6</ele>
        <time>2026-05-13T18:13:36Z</time>
      </trkpt>
      <trkpt lat="46.05751" lon="5.65735">
        <ele>953.8</ele>
        <time>2026-05-13T18:13:37Z</time>
      </trkpt>
      <trkpt lat="46.05753" lon="5.65731">
        <ele>953.8</ele>
        <time>2026-05-13T18:13:38Z</time>
      </trkpt>
      <trkpt lat="46.05755" lon="5.65727">
        <ele>953.8</ele>
        <time>2026-05-13T18:13:39Z</time>
      </trkpt>
      <trkpt lat="46.05757" lon="5.65724">
        <ele>954</ele>
        <time>2026-05-13T18:13:40Z</time>
      </trkpt>
      <trkpt lat="46.05759" lon="5.6572">
        <ele>954</ele>
        <time>2026-05-13T18:13:41Z</time>
      </trkpt>
      <trkpt lat="46.05761" lon="5.65716">
        <ele>954.4</ele>
        <time>2026-05-13T18:13:42Z</time>
      </trkpt>
      <trkpt lat="46.05762" lon="5.65712">
        <ele>954.4</ele>
        <time>2026-05-13T18:13:43Z</time>
      </trkpt>
      <trkpt lat="46.05764" lon="5.65708">
        <ele>954.6</ele>
        <time>2026-05-13T18:13:44Z</time>
      </trkpt>
      <trkpt lat="46.05766" lon="5.65704">
        <ele>954.6</ele>
        <time>2026-05-13T18:13:45Z</time>
      </trkpt>
      <trkpt lat="46.05768" lon="5.65701">
        <ele>954.8</ele>
        <time>2026-05-13T18:13:46Z</time>
      </trkpt>
      <trkpt lat="46.0577" lon="5.65698">
        <ele>954.8</ele>
        <time>2026-05-13T18:13:47Z</time>
      </trkpt>
      <trkpt lat="46.05771" lon="5.65695">
        <ele>955</ele>
        <time>2026-05-13T18:13:48Z</time>
      </trkpt>
      <trkpt lat="46.05773" lon="5.65692">
        <ele>955.2</ele>
        <time>2026-05-13T18:13:49Z</time>
      </trkpt>
      <trkpt lat="46.05775" lon="5.65689">
        <ele>955.2</ele>
        <time>2026-05-13T18:13:50Z</time>
      </trkpt>
      <trkpt lat="46.05777" lon="5.65685">
        <ele>955.2</ele>
        <time>2026-05-13T18:13:51Z</time>
      </trkpt>
      <trkpt lat="46.05778" lon="5.65682">
        <ele>955.2</ele>
        <time>2026-05-13T18:13:52Z</time>
      </trkpt>
      <trkpt lat="46.0578" lon="5.65678">
        <ele>955.2</ele>
        <time>2026-05-13T18:13:53Z</time>
      </trkpt>
      <trkpt lat="46.05782" lon="5.65675">
        <ele>955.2</ele>
        <time>2026-05-13T18:13:54Z</time>
      </trkpt>
      <trkpt lat="46.05784" lon="5.65671">
        <ele>955.2</ele>
        <time>2026-05-13T18:13:55Z</time>
      </trkpt>
      <trkpt lat="46.05785" lon="5.65667">
        <ele>955.6</ele>
        <time>2026-05-13T18:13:56Z</time>
      </trkpt>
      <trkpt lat="46.05787" lon="5.65664">
        <ele>955.6</ele>
        <time>2026-05-13T18:13:57Z</time>
      </trkpt>
      <trkpt lat="46.05787" lon="5.65664">
        <ele>955.6</ele>
        <time>2026-05-13T18:13:58Z</time>
      </trkpt>
      <trkpt lat="46.05789" lon="5.6566">
        <ele>955.6</ele>
        <time>2026-05-13T18:13:59Z</time>
      </trkpt>
      <trkpt lat="46.05791" lon="5.65656">
        <ele>955.6</ele>
        <time>2026-05-13T18:14:00Z</time>
      </trkpt>
      <trkpt lat="46.05793" lon="5.65652">
        <ele>955.6</ele>
        <time>2026-05-13T18:14:01Z</time>
      </trkpt>
      <trkpt lat="46.05795" lon="5.65648">
        <ele>955.6</ele>
        <time>2026-05-13T18:14:02Z</time>
      </trkpt>
      <trkpt lat="46.05797" lon="5.65644">
        <ele>955.6</ele>
        <time>2026-05-13T18:14:03Z</time>
      </trkpt>
      <trkpt lat="46.05799" lon="5.6564">
        <ele>955.6</ele>
        <time>2026-05-13T18:14:04Z</time>
      </trkpt>
      <trkpt lat="46.05802" lon="5.65635">
        <ele>955.6</ele>
        <time>2026-05-13T18:14:05Z</time>
      </trkpt>
      <trkpt lat="46.05804" lon="5.6563">
        <ele>955.6</ele>
        <time>2026-05-13T18:14:06Z</time>
      </trkpt>
      <trkpt lat="46.05806" lon="5.65625">
        <ele>955.6</ele>
        <time>2026-05-13T18:14:07Z</time>
      </trkpt>
      <trkpt lat="46.05809" lon="5.6562">
        <ele>955.6</ele>
        <time>2026-05-13T18:14:08Z</time>
      </trkpt>
      <trkpt lat="46.05812" lon="5.65615">
        <ele>955.2</ele>
        <time>2026-05-13T18:14:09Z</time>
      </trkpt>
      <trkpt lat="46.05815" lon="5.65609">
        <ele>955.2</ele>
        <time>2026-05-13T18:14:10Z</time>
      </trkpt>
      <trkpt lat="46.05818" lon="5.65603">
        <ele>955</ele>
        <time>2026-05-13T18:14:11Z</time>
      </trkpt>
      <trkpt lat="46.05821" lon="5.65597">
        <ele>955</ele>
        <time>2026-05-13T18:14:12Z</time>
      </trkpt>
      <trkpt lat="46.05824" lon="5.6559">
        <ele>955</ele>
        <time>2026-05-13T18:14:13Z</time>
      </trkpt>
      <trkpt lat="46.05827" lon="5.65582">
        <ele>954.6</ele>
        <time>2026-05-13T18:14:14Z</time>
      </trkpt>
      <trkpt lat="46.0583" lon="5.65575">
        <ele>954.4</ele>
        <time>2026-05-13T18:14:15Z</time>
      </trkpt>
      <trkpt lat="46.05836" lon="5.65568">
        <ele>954.4</ele>
        <time>2026-05-13T18:14:16Z</time>
      </trkpt>
      <trkpt lat="46.05839" lon="5.6556">
        <ele>954.2</ele>
        <time>2026-05-13T18:14:17Z</time>
      </trkpt>
      <trkpt lat="46.05843" lon="5.65552">
        <ele>953.6</ele>
        <time>2026-05-13T18:14:18Z</time>
      </trkpt>
      <trkpt lat="46.05849" lon="5.65545">
        <ele>953.2</ele>
        <time>2026-05-13T18:14:19Z</time>
      </trkpt>
      <trkpt lat="46.05852" lon="5.65537">
        <ele>953.2</ele>
        <time>2026-05-13T18:14:20Z</time>
      </trkpt>
      <trkpt lat="46.05856" lon="5.65528">
        <ele>952.8</ele>
        <time>2026-05-13T18:14:21Z</time>
      </trkpt>
      <trkpt lat="46.05859" lon="5.65517">
        <ele>952.4</ele>
        <time>2026-05-13T18:14:22Z</time>
      </trkpt>
      <trkpt lat="46.05864" lon="5.65508">
        <ele>952.2</ele>
        <time>2026-05-13T18:14:23Z</time>
      </trkpt>
      <trkpt lat="46.05868" lon="5.65498">
        <ele>951.8</ele>
        <time>2026-05-13T18:14:24Z</time>
      </trkpt>
      <trkpt lat="46.05873" lon="5.65487">
        <ele>951.2</ele>
        <time>2026-05-13T18:14:25Z</time>
      </trkpt>
      <trkpt lat="46.05877" lon="5.65475">
        <ele>950.8</ele>
        <time>2026-05-13T18:14:26Z</time>
      </trkpt>
      <trkpt lat="46.05881" lon="5.65465">
        <ele>950.4</ele>
        <time>2026-05-13T18:14:27Z</time>
      </trkpt>
      <trkpt lat="46.05886" lon="5.65454">
        <ele>950</ele>
        <time>2026-05-13T18:14:28Z</time>
      </trkpt>
      <trkpt lat="46.05891" lon="5.65443">
        <ele>949.8</ele>
        <time>2026-05-13T18:14:29Z</time>
      </trkpt>
      <trkpt lat="46.05896" lon="5.65433">
        <ele>949.2</ele>
        <time>2026-05-13T18:14:30Z</time>
      </trkpt>
      <trkpt lat="46.05901" lon="5.65422">
        <ele>949</ele>
        <time>2026-05-13T18:14:31Z</time>
      </trkpt>
      <trkpt lat="46.05907" lon="5.65411">
        <ele>949</ele>
        <time>2026-05-13T18:14:32Z</time>
      </trkpt>
      <trkpt lat="46.05913" lon="5.65401">
        <ele>949</ele>
        <time>2026-05-13T18:14:33Z</time>
      </trkpt>
      <trkpt lat="46.05918" lon="5.6539">
        <ele>948.6</ele>
        <time>2026-05-13T18:14:34Z</time>
      </trkpt>
      <trkpt lat="46.05923" lon="5.65379">
        <ele>948.4</ele>
        <time>2026-05-13T18:14:35Z</time>
      </trkpt>
      <trkpt lat="46.05928" lon="5.65367">
        <ele>947.8</ele>
        <time>2026-05-13T18:14:36Z</time>
      </trkpt>
      <trkpt lat="46.05932" lon="5.65357">
        <ele>947.4</ele>
        <time>2026-05-13T18:14:37Z</time>
      </trkpt>
      <trkpt lat="46.05937" lon="5.65344">
        <ele>947</ele>
        <time>2026-05-13T18:14:38Z</time>
      </trkpt>
      <trkpt lat="46.05945" lon="5.65338">
        <ele>946.8</ele>
        <time>2026-05-13T18:14:39Z</time>
      </trkpt>
      <trkpt lat="46.0595" lon="5.65327">
        <ele>946.8</ele>
        <time>2026-05-13T18:14:40Z</time>
      </trkpt>
      <trkpt lat="46.05954" lon="5.65316">
        <ele>946.8</ele>
        <time>2026-05-13T18:14:41Z</time>
      </trkpt>
      <trkpt lat="46.05961" lon="5.65305">
        <ele>946.8</ele>
        <time>2026-05-13T18:14:42Z</time>
      </trkpt>
      <trkpt lat="46.05966" lon="5.65294">
        <ele>946.4</ele>
        <time>2026-05-13T18:14:43Z</time>
      </trkpt>
      <trkpt lat="46.05971" lon="5.65284">
        <ele>946.4</ele>
        <time>2026-05-13T18:14:44Z</time>
      </trkpt>
      <trkpt lat="46.05975" lon="5.65273">
        <ele>945.8</ele>
        <time>2026-05-13T18:14:45Z</time>
      </trkpt>
      <trkpt lat="46.05981" lon="5.65263">
        <ele>945.8</ele>
        <time>2026-05-13T18:14:46Z</time>
      </trkpt>
      <trkpt lat="46.05985" lon="5.6525">
        <ele>945.4</ele>
        <time>2026-05-13T18:14:47Z</time>
      </trkpt>
      <trkpt lat="46.05989" lon="5.65237">
        <ele>944.8</ele>
        <time>2026-05-13T18:14:48Z</time>
      </trkpt>
      <trkpt lat="46.05995" lon="5.65225">
        <ele>944</ele>
        <time>2026-05-13T18:14:49Z</time>
      </trkpt>
      <trkpt lat="46.06001" lon="5.65214">
        <ele>943.6</ele>
        <time>2026-05-13T18:14:50Z</time>
      </trkpt>
      <trkpt lat="46.06007" lon="5.65202">
        <ele>943.2</ele>
        <time>2026-05-13T18:14:51Z</time>
      </trkpt>
      <trkpt lat="46.06011" lon="5.6519">
        <ele>942.8</ele>
        <time>2026-05-13T18:14:52Z</time>
      </trkpt>
      <trkpt lat="46.06016" lon="5.65179">
        <ele>942.6</ele>
        <time>2026-05-13T18:14:53Z</time>
      </trkpt>
      <trkpt lat="46.06022" lon="5.65168">
        <ele>942.6</ele>
        <time>2026-05-13T18:14:54Z</time>
      </trkpt>
      <trkpt lat="46.06028" lon="5.65158">
        <ele>942.2</ele>
        <time>2026-05-13T18:14:55Z</time>
      </trkpt>
      <trkpt lat="46.06033" lon="5.65146">
        <ele>942</ele>
        <time>2026-05-13T18:14:56Z</time>
      </trkpt>
      <trkpt lat="46.06038" lon="5.65137">
        <ele>941.8</ele>
        <time>2026-05-13T18:14:57Z</time>
      </trkpt>
      <trkpt lat="46.06044" lon="5.65125">
        <ele>941.8</ele>
        <time>2026-05-13T18:14:58Z</time>
      </trkpt>
      <trkpt lat="46.06048" lon="5.65112">
        <ele>941.6</ele>
        <time>2026-05-13T18:14:59Z</time>
      </trkpt>
      <trkpt lat="46.06052" lon="5.65099">
        <ele>941.4</ele>
        <time>2026-05-13T18:15:00Z</time>
      </trkpt>
      <trkpt lat="46.06057" lon="5.65087">
        <ele>941.4</ele>
        <time>2026-05-13T18:15:01Z</time>
      </trkpt>
      <trkpt lat="46.06061" lon="5.65076">
        <ele>940.8</ele>
        <time>2026-05-13T18:15:02Z</time>
      </trkpt>
      <trkpt lat="46.06066" lon="5.65064">
        <ele>940.4</ele>
        <time>2026-05-13T18:15:03Z</time>
      </trkpt>
      <trkpt lat="46.06069" lon="5.65052">
        <ele>940.2</ele>
        <time>2026-05-13T18:15:04Z</time>
      </trkpt>
      <trkpt lat="46.06072" lon="5.6504">
        <ele>940</ele>
        <time>2026-05-13T18:15:05Z</time>
      </trkpt>
      <trkpt lat="46.06075" lon="5.65028">
        <ele>940</ele>
        <time>2026-05-13T18:15:06Z</time>
      </trkpt>
      <trkpt lat="46.06076" lon="5.65015">
        <ele>939.6</ele>
        <time>2026-05-13T18:15:07Z</time>
      </trkpt>
      <trkpt lat="46.06077" lon="5.65002">
        <ele>938.8</ele>
        <time>2026-05-13T18:15:08Z</time>
      </trkpt>
      <trkpt lat="46.06077" lon="5.64989">
        <ele>938</ele>
        <time>2026-05-13T18:15:09Z</time>
      </trkpt>
      <trkpt lat="46.06076" lon="5.64976">
        <ele>937.2</ele>
        <time>2026-05-13T18:15:10Z</time>
      </trkpt>
      <trkpt lat="46.06074" lon="5.64963">
        <ele>936.8</ele>
        <time>2026-05-13T18:15:11Z</time>
      </trkpt>
      <trkpt lat="46.06071" lon="5.6495">
        <ele>936.6</ele>
        <time>2026-05-13T18:15:12Z</time>
      </trkpt>
      <trkpt lat="46.06068" lon="5.64937">
        <ele>936.2</ele>
        <time>2026-05-13T18:15:13Z</time>
      </trkpt>
      <trkpt lat="46.06065" lon="5.64924">
        <ele>935.8</ele>
        <time>2026-05-13T18:15:14Z</time>
      </trkpt>
      <trkpt lat="46.06061" lon="5.64912">
        <ele>935.4</ele>
        <time>2026-05-13T18:15:15Z</time>
      </trkpt>
      <trkpt lat="46.06057" lon="5.649">
        <ele>934.8</ele>
        <time>2026-05-13T18:15:16Z</time>
      </trkpt>
      <trkpt lat="46.06054" lon="5.64887">
        <ele>934.8</ele>
        <time>2026-05-13T18:15:17Z</time>
      </trkpt>
      <trkpt lat="46.06052" lon="5.64873">
        <ele>934.8</ele>
        <time>2026-05-13T18:15:18Z</time>
      </trkpt>
      <trkpt lat="46.0605" lon="5.6486">
        <ele>934.8</ele>
        <time>2026-05-13T18:15:19Z</time>
      </trkpt>
      <trkpt lat="46.06049" lon="5.64847">
        <ele>934.6</ele>
        <time>2026-05-13T18:15:20Z</time>
      </trkpt>
      <trkpt lat="46.06049" lon="5.64833">
        <ele>934.6</ele>
        <time>2026-05-13T18:15:21Z</time>
      </trkpt>
      <trkpt lat="46.06051" lon="5.6482">
        <ele>934.4</ele>
        <time>2026-05-13T18:15:22Z</time>
      </trkpt>
      <trkpt lat="46.06052" lon="5.64808">
        <ele>934.4</ele>
        <time>2026-05-13T18:15:23Z</time>
      </trkpt>
      <trkpt lat="46.06055" lon="5.64798">
        <ele>934</ele>
        <time>2026-05-13T18:15:24Z</time>
      </trkpt>
      <trkpt lat="46.06058" lon="5.64787">
        <ele>933.8</ele>
        <time>2026-05-13T18:15:25Z</time>
      </trkpt>
      <trkpt lat="46.06061" lon="5.64777">
        <ele>933.2</ele>
        <time>2026-05-13T18:15:26Z</time>
      </trkpt>
      <trkpt lat="46.06064" lon="5.64766">
        <ele>932.8</ele>
        <time>2026-05-13T18:15:27Z</time>
      </trkpt>
      <trkpt lat="46.06067" lon="5.64756">
        <ele>932.2</ele>
        <time>2026-05-13T18:15:28Z</time>
      </trkpt>
      <trkpt lat="46.06071" lon="5.64746">
        <ele>931.6</ele>
        <time>2026-05-13T18:15:29Z</time>
      </trkpt>
      <trkpt lat="46.06075" lon="5.64737">
        <ele>931.2</ele>
        <time>2026-05-13T18:15:30Z</time>
      </trkpt>
      <trkpt lat="46.06076" lon="5.64728">
        <ele>931</ele>
        <time>2026-05-13T18:15:31Z</time>
      </trkpt>
      <trkpt lat="46.06075" lon="5.64719">
        <ele>930.8</ele>
        <time>2026-05-13T18:15:32Z</time>
      </trkpt>
      <trkpt lat="46.06072" lon="5.6471">
        <ele>930.2</ele>
        <time>2026-05-13T18:15:33Z</time>
      </trkpt>
      <trkpt lat="46.06068" lon="5.64703">
        <ele>929.8</ele>
        <time>2026-05-13T18:15:34Z</time>
      </trkpt>
      <trkpt lat="46.06063" lon="5.64695">
        <ele>929.6</ele>
        <time>2026-05-13T18:15:35Z</time>
      </trkpt>
      <trkpt lat="46.06059" lon="5.64687">
        <ele>929.6</ele>
        <time>2026-05-13T18:15:36Z</time>
      </trkpt>
      <trkpt lat="46.06056" lon="5.64678">
        <ele>929.6</ele>
        <time>2026-05-13T18:15:37Z</time>
      </trkpt>
      <trkpt lat="46.06053" lon="5.64668">
        <ele>929.6</ele>
        <time>2026-05-13T18:15:38Z</time>
      </trkpt>
      <trkpt lat="46.06049" lon="5.6466">
        <ele>929.6</ele>
        <time>2026-05-13T18:15:39Z</time>
      </trkpt>
      <trkpt lat="46.06045" lon="5.64651">
        <ele>929.2</ele>
        <time>2026-05-13T18:15:40Z</time>
      </trkpt>
      <trkpt lat="46.0604" lon="5.64644">
        <ele>929</ele>
        <time>2026-05-13T18:15:41Z</time>
      </trkpt>
      <trkpt lat="46.06034" lon="5.64637">
        <ele>928.6</ele>
        <time>2026-05-13T18:15:42Z</time>
      </trkpt>
      <trkpt lat="46.06028" lon="5.64631">
        <ele>928.4</ele>
        <time>2026-05-13T18:15:43Z</time>
      </trkpt>
      <trkpt lat="46.06022" lon="5.64625">
        <ele>927.8</ele>
        <time>2026-05-13T18:15:44Z</time>
      </trkpt>
      <trkpt lat="46.06011" lon="5.64611">
        <ele>927.8</ele>
        <time>2026-05-13T18:15:45Z</time>
      </trkpt>
      <trkpt lat="46.06009" lon="5.64604">
        <ele>927.4</ele>
        <time>2026-05-13T18:15:46Z</time>
      </trkpt>
      <trkpt lat="46.06006" lon="5.64595">
        <ele>927.2</ele>
        <time>2026-05-13T18:15:47Z</time>
      </trkpt>
      <trkpt lat="46.06006" lon="5.64584">
        <ele>927.6</ele>
        <time>2026-05-13T18:15:48Z</time>
      </trkpt>
      <trkpt lat="46.06007" lon="5.64575">
        <ele>927</ele>
        <time>2026-05-13T18:15:49Z</time>
      </trkpt>
      <trkpt lat="46.06008" lon="5.64564">
        <ele>927</ele>
        <time>2026-05-13T18:15:50Z</time>
      </trkpt>
      <trkpt lat="46.06009" lon="5.64554">
        <ele>927</ele>
        <time>2026-05-13T18:15:51Z</time>
      </trkpt>
      <trkpt lat="46.06011" lon="5.64544">
        <ele>927</ele>
        <time>2026-05-13T18:15:52Z</time>
      </trkpt>
      <trkpt lat="46.06012" lon="5.64535">
        <ele>927</ele>
        <time>2026-05-13T18:15:53Z</time>
      </trkpt>
      <trkpt lat="46.06013" lon="5.64526">
        <ele>927</ele>
        <time>2026-05-13T18:15:54Z</time>
      </trkpt>
      <trkpt lat="46.06015" lon="5.64516">
        <ele>926.8</ele>
        <time>2026-05-13T18:15:55Z</time>
      </trkpt>
      <trkpt lat="46.06017" lon="5.64508">
        <ele>926.8</ele>
        <time>2026-05-13T18:15:56Z</time>
      </trkpt>
      <trkpt lat="46.06017" lon="5.645">
        <ele>926.8</ele>
        <time>2026-05-13T18:15:57Z</time>
      </trkpt>
      <trkpt lat="46.06017" lon="5.64492">
        <ele>926.8</ele>
        <time>2026-05-13T18:15:58Z</time>
      </trkpt>
      <trkpt lat="46.06016" lon="5.64484">
        <ele>926.8</ele>
        <time>2026-05-13T18:15:59Z</time>
      </trkpt>
      <trkpt lat="46.06016" lon="5.64476">
        <ele>927</ele>
        <time>2026-05-13T18:16:00Z</time>
      </trkpt>
      <trkpt lat="46.06016" lon="5.64468">
        <ele>927</ele>
        <time>2026-05-13T18:16:01Z</time>
      </trkpt>
      <trkpt lat="46.06016" lon="5.6446">
        <ele>926.8</ele>
        <time>2026-05-13T18:16:02Z</time>
      </trkpt>
      <trkpt lat="46.06014" lon="5.64453">
        <ele>926.8</ele>
        <time>2026-05-13T18:16:03Z</time>
      </trkpt>
      <trkpt lat="46.06013" lon="5.64444">
        <ele>927.2</ele>
        <time>2026-05-13T18:16:04Z</time>
      </trkpt>
      <trkpt lat="46.06012" lon="5.64437">
        <ele>927.2</ele>
        <time>2026-05-13T18:16:05Z</time>
      </trkpt>
      <trkpt lat="46.0601" lon="5.6443">
        <ele>927.2</ele>
        <time>2026-05-13T18:16:06Z</time>
      </trkpt>
      <trkpt lat="46.06009" lon="5.64423">
        <ele>927.2</ele>
        <time>2026-05-13T18:16:07Z</time>
      </trkpt>
      <trkpt lat="46.06006" lon="5.64416">
        <ele>927.6</ele>
        <time>2026-05-13T18:16:08Z</time>
      </trkpt>
      <trkpt lat="46.06004" lon="5.64409">
        <ele>927.6</ele>
        <time>2026-05-13T18:16:09Z</time>
      </trkpt>
      <trkpt lat="46.06002" lon="5.64402">
        <ele>927.6</ele>
        <time>2026-05-13T18:16:10Z</time>
      </trkpt>
      <trkpt lat="46.06" lon="5.64396">
        <ele>927.6</ele>
        <time>2026-05-13T18:16:11Z</time>
      </trkpt>
      <trkpt lat="46.05997" lon="5.64391">
        <ele>927.6</ele>
        <time>2026-05-13T18:16:12Z</time>
      </trkpt>
      <trkpt lat="46.05994" lon="5.64384">
        <ele>927.6</ele>
        <time>2026-05-13T18:16:13Z</time>
      </trkpt>
      <trkpt lat="46.05993" lon="5.64377">
        <ele>927.6</ele>
        <time>2026-05-13T18:16:14Z</time>
      </trkpt>
      <trkpt lat="46.05991" lon="5.64371">
        <ele>927.6</ele>
        <time>2026-05-13T18:16:15Z</time>
      </trkpt>
      <trkpt lat="46.05989" lon="5.64364">
        <ele>927.6</ele>
        <time>2026-05-13T18:16:16Z</time>
      </trkpt>
      <trkpt lat="46.05987" lon="5.64357">
        <ele>927.8</ele>
        <time>2026-05-13T18:16:17Z</time>
      </trkpt>
      <trkpt lat="46.05986" lon="5.64351">
        <ele>927.8</ele>
        <time>2026-05-13T18:16:18Z</time>
      </trkpt>
      <trkpt lat="46.05984" lon="5.64345">
        <ele>927.8</ele>
        <time>2026-05-13T18:16:19Z</time>
      </trkpt>
      <trkpt lat="46.05982" lon="5.64338">
        <ele>927.8</ele>
        <time>2026-05-13T18:16:20Z</time>
      </trkpt>
      <trkpt lat="46.0598" lon="5.64332">
        <ele>928</ele>
        <time>2026-05-13T18:16:21Z</time>
      </trkpt>
      <trkpt lat="46.05979" lon="5.64326">
        <ele>928</ele>
        <time>2026-05-13T18:16:22Z</time>
      </trkpt>
      <trkpt lat="46.05977" lon="5.64321">
        <ele>928.4</ele>
        <time>2026-05-13T18:16:23Z</time>
      </trkpt>
      <trkpt lat="46.05975" lon="5.64315">
        <ele>929</ele>
        <time>2026-05-13T18:16:24Z</time>
      </trkpt>
      <trkpt lat="46.05974" lon="5.6431">
        <ele>929.2</ele>
        <time>2026-05-13T18:16:25Z</time>
      </trkpt>
      <trkpt lat="46.05973" lon="5.64305">
        <ele>929.2</ele>
        <time>2026-05-13T18:16:26Z</time>
      </trkpt>
      <trkpt lat="46.05971" lon="5.643">
        <ele>929.2</ele>
        <time>2026-05-13T18:16:27Z</time>
      </trkpt>
      <trkpt lat="46.05969" lon="5.64294">
        <ele>929.4</ele>
        <time>2026-05-13T18:16:28Z</time>
      </trkpt>
      <trkpt lat="46.05968" lon="5.64289">
        <ele>929.4</ele>
        <time>2026-05-13T18:16:29Z</time>
      </trkpt>
      <trkpt lat="46.05967" lon="5.64284">
        <ele>929.8</ele>
        <time>2026-05-13T18:16:30Z</time>
      </trkpt>
      <trkpt lat="46.05965" lon="5.64278">
        <ele>929.8</ele>
        <time>2026-05-13T18:16:31Z</time>
      </trkpt>
      <trkpt lat="46.05964" lon="5.64273">
        <ele>930</ele>
        <time>2026-05-13T18:16:32Z</time>
      </trkpt>
      <trkpt lat="46.05962" lon="5.64267">
        <ele>930.2</ele>
        <time>2026-05-13T18:16:33Z</time>
      </trkpt>
      <trkpt lat="46.05961" lon="5.64262">
        <ele>930.2</ele>
        <time>2026-05-13T18:16:34Z</time>
      </trkpt>
      <trkpt lat="46.05959" lon="5.64256">
        <ele>930.6</ele>
        <time>2026-05-13T18:16:35Z</time>
      </trkpt>
      <trkpt lat="46.05958" lon="5.64251">
        <ele>930.6</ele>
        <time>2026-05-13T18:16:36Z</time>
      </trkpt>
      <trkpt lat="46.05956" lon="5.64246">
        <ele>931</ele>
        <time>2026-05-13T18:16:37Z</time>
      </trkpt>
      <trkpt lat="46.05955" lon="5.64241">
        <ele>931</ele>
        <time>2026-05-13T18:16:38Z</time>
      </trkpt>
      <trkpt lat="46.05953" lon="5.64235">
        <ele>931.4</ele>
        <time>2026-05-13T18:16:39Z</time>
      </trkpt>
      <trkpt lat="46.05952" lon="5.6423">
        <ele>931.4</ele>
        <time>2026-05-13T18:16:40Z</time>
      </trkpt>
      <trkpt lat="46.0595" lon="5.64224">
        <ele>931.4</ele>
        <time>2026-05-13T18:16:41Z</time>
      </trkpt>
      <trkpt lat="46.05949" lon="5.64219">
        <ele>931.6</ele>
        <time>2026-05-13T18:16:42Z</time>
      </trkpt>
      <trkpt lat="46.05947" lon="5.64214">
        <ele>931.6</ele>
        <time>2026-05-13T18:16:43Z</time>
      </trkpt>
      <trkpt lat="46.05946" lon="5.64209">
        <ele>931.8</ele>
        <time>2026-05-13T18:16:44Z</time>
      </trkpt>
      <trkpt lat="46.05944" lon="5.64204">
        <ele>931.8</ele>
        <time>2026-05-13T18:16:45Z</time>
      </trkpt>
      <trkpt lat="46.05943" lon="5.64199">
        <ele>932</ele>
        <time>2026-05-13T18:16:46Z</time>
      </trkpt>
      <trkpt lat="46.05941" lon="5.64194">
        <ele>932</ele>
        <time>2026-05-13T18:16:47Z</time>
      </trkpt>
      <trkpt lat="46.0594" lon="5.64189">
        <ele>932.4</ele>
        <time>2026-05-13T18:16:48Z</time>
      </trkpt>
      <trkpt lat="46.05938" lon="5.64185">
        <ele>932.4</ele>
        <time>2026-05-13T18:16:49Z</time>
      </trkpt>
      <trkpt lat="46.05936" lon="5.6418">
        <ele>932.4</ele>
        <time>2026-05-13T18:16:50Z</time>
      </trkpt>
      <trkpt lat="46.05935" lon="5.64175">
        <ele>932.4</ele>
        <time>2026-05-13T18:16:51Z</time>
      </trkpt>
      <trkpt lat="46.05933" lon="5.6417">
        <ele>932.4</ele>
        <time>2026-05-13T18:16:52Z</time>
      </trkpt>
      <trkpt lat="46.05931" lon="5.64164">
        <ele>932.4</ele>
        <time>2026-05-13T18:16:53Z</time>
      </trkpt>
      <trkpt lat="46.05929" lon="5.64159">
        <ele>932.4</ele>
        <time>2026-05-13T18:16:54Z</time>
      </trkpt>
      <trkpt lat="46.05927" lon="5.64154">
        <ele>932.4</ele>
        <time>2026-05-13T18:16:55Z</time>
      </trkpt>
      <trkpt lat="46.05925" lon="5.64148">
        <ele>932.4</ele>
        <time>2026-05-13T18:16:56Z</time>
      </trkpt>
      <trkpt lat="46.05923" lon="5.64143">
        <ele>932.4</ele>
        <time>2026-05-13T18:16:57Z</time>
      </trkpt>
      <trkpt lat="46.05921" lon="5.64138">
        <ele>932.4</ele>
        <time>2026-05-13T18:16:58Z</time>
      </trkpt>
      <trkpt lat="46.05919" lon="5.64134">
        <ele>932.4</ele>
        <time>2026-05-13T18:16:59Z</time>
      </trkpt>
      <trkpt lat="46.05917" lon="5.64129">
        <ele>932.6</ele>
        <time>2026-05-13T18:17:00Z</time>
      </trkpt>
      <trkpt lat="46.05915" lon="5.64124">
        <ele>932.6</ele>
        <time>2026-05-13T18:17:01Z</time>
      </trkpt>
      <trkpt lat="46.05913" lon="5.64119">
        <ele>932.8</ele>
        <time>2026-05-13T18:17:02Z</time>
      </trkpt>
      <trkpt lat="46.05911" lon="5.64114">
        <ele>932.8</ele>
        <time>2026-05-13T18:17:03Z</time>
      </trkpt>
      <trkpt lat="46.05909" lon="5.6411">
        <ele>933.2</ele>
        <time>2026-05-13T18:17:04Z</time>
      </trkpt>
      <trkpt lat="46.05908" lon="5.64105">
        <ele>933.2</ele>
        <time>2026-05-13T18:17:05Z</time>
      </trkpt>
      <trkpt lat="46.05906" lon="5.64101">
        <ele>933.2</ele>
        <time>2026-05-13T18:17:06Z</time>
      </trkpt>
      <trkpt lat="46.05904" lon="5.64096">
        <ele>933.4</ele>
        <time>2026-05-13T18:17:07Z</time>
      </trkpt>
      <trkpt lat="46.05902" lon="5.64092">
        <ele>933.6</ele>
        <time>2026-05-13T18:17:08Z</time>
      </trkpt>
      <trkpt lat="46.05901" lon="5.64088">
        <ele>934</ele>
        <time>2026-05-13T18:17:09Z</time>
      </trkpt>
      <trkpt lat="46.05899" lon="5.64084">
        <ele>934</ele>
        <time>2026-05-13T18:17:10Z</time>
      </trkpt>
      <trkpt lat="46.05897" lon="5.6408">
        <ele>934.4</ele>
        <time>2026-05-13T18:17:11Z</time>
      </trkpt>
      <trkpt lat="46.05896" lon="5.64077">
        <ele>934.4</ele>
        <time>2026-05-13T18:17:12Z</time>
      </trkpt>
      <trkpt lat="46.05894" lon="5.64074">
        <ele>934.8</ele>
        <time>2026-05-13T18:17:13Z</time>
      </trkpt>
      <trkpt lat="46.05893" lon="5.6407">
        <ele>935</ele>
        <time>2026-05-13T18:17:14Z</time>
      </trkpt>
      <trkpt lat="46.05892" lon="5.64067">
        <ele>935.2</ele>
        <time>2026-05-13T18:17:15Z</time>
      </trkpt>
      <trkpt lat="46.05891" lon="5.64064">
        <ele>935.4</ele>
        <time>2026-05-13T18:17:16Z</time>
      </trkpt>
      <trkpt lat="46.0589" lon="5.64061">
        <ele>935.8</ele>
        <time>2026-05-13T18:17:17Z</time>
      </trkpt>
      <trkpt lat="46.05889" lon="5.64058">
        <ele>935.8</ele>
        <time>2026-05-13T18:17:18Z</time>
      </trkpt>
      <trkpt lat="46.05887" lon="5.64055">
        <ele>936</ele>
        <time>2026-05-13T18:17:19Z</time>
      </trkpt>
      <trkpt lat="46.05887" lon="5.64055">
        <ele>936</ele>
        <time>2026-05-13T18:17:20Z</time>
      </trkpt>
      <trkpt lat="46.05886" lon="5.64052">
        <ele>936.2</ele>
        <time>2026-05-13T18:17:21Z</time>
      </trkpt>
      <trkpt lat="46.05885" lon="5.64049">
        <ele>936.2</ele>
        <time>2026-05-13T18:17:22Z</time>
      </trkpt>
      <trkpt lat="46.05883" lon="5.64045">
        <ele>936.6</ele>
        <time>2026-05-13T18:17:23Z</time>
      </trkpt>
      <trkpt lat="46.05882" lon="5.64042">
        <ele>936.6</ele>
        <time>2026-05-13T18:17:24Z</time>
      </trkpt>
      <trkpt lat="46.0588" lon="5.64039">
        <ele>936.6</ele>
        <time>2026-05-13T18:17:25Z</time>
      </trkpt>
      <trkpt lat="46.05879" lon="5.64035">
        <ele>936.8</ele>
        <time>2026-05-13T18:17:26Z</time>
      </trkpt>
      <trkpt lat="46.05878" lon="5.64032">
        <ele>936.8</ele>
        <time>2026-05-13T18:17:27Z</time>
      </trkpt>
      <trkpt lat="46.05877" lon="5.64029">
        <ele>936.8</ele>
        <time>2026-05-13T18:17:28Z</time>
      </trkpt>
      <trkpt lat="46.05875" lon="5.64025">
        <ele>937</ele>
        <time>2026-05-13T18:17:29Z</time>
      </trkpt>
      <trkpt lat="46.05874" lon="5.64021">
        <ele>937</ele>
        <time>2026-05-13T18:17:30Z</time>
      </trkpt>
      <trkpt lat="46.05873" lon="5.64018">
        <ele>937.4</ele>
        <time>2026-05-13T18:17:31Z</time>
      </trkpt>
      <trkpt lat="46.05872" lon="5.64014">
        <ele>937.4</ele>
        <time>2026-05-13T18:17:32Z</time>
      </trkpt>
      <trkpt lat="46.05871" lon="5.6401">
        <ele>937.4</ele>
        <time>2026-05-13T18:17:33Z</time>
      </trkpt>
      <trkpt lat="46.0587" lon="5.64007">
        <ele>937.6</ele>
        <time>2026-05-13T18:17:34Z</time>
      </trkpt>
      <trkpt lat="46.05869" lon="5.64003">
        <ele>937.6</ele>
        <time>2026-05-13T18:17:35Z</time>
      </trkpt>
      <trkpt lat="46.05868" lon="5.63999">
        <ele>937.6</ele>
        <time>2026-05-13T18:17:36Z</time>
      </trkpt>
      <trkpt lat="46.05867" lon="5.63996">
        <ele>937.6</ele>
        <time>2026-05-13T18:17:37Z</time>
      </trkpt>
      <trkpt lat="46.05866" lon="5.63992">
        <ele>938</ele>
        <time>2026-05-13T18:17:38Z</time>
      </trkpt>
      <trkpt lat="46.05864" lon="5.63989">
        <ele>938</ele>
        <time>2026-05-13T18:17:39Z</time>
      </trkpt>
      <trkpt lat="46.05863" lon="5.63985">
        <ele>938.4</ele>
        <time>2026-05-13T18:17:40Z</time>
      </trkpt>
      <trkpt lat="46.05863" lon="5.63981">
        <ele>938.4</ele>
        <time>2026-05-13T18:17:41Z</time>
      </trkpt>
      <trkpt lat="46.05862" lon="5.63978">
        <ele>938.6</ele>
        <time>2026-05-13T18:17:42Z</time>
      </trkpt>
      <trkpt lat="46.05861" lon="5.63975">
        <ele>938.6</ele>
        <time>2026-05-13T18:17:43Z</time>
      </trkpt>
      <trkpt lat="46.0586" lon="5.63971">
        <ele>938.6</ele>
        <time>2026-05-13T18:17:44Z</time>
      </trkpt>
      <trkpt lat="46.05859" lon="5.63968">
        <ele>938.6</ele>
        <time>2026-05-13T18:17:45Z</time>
      </trkpt>
      <trkpt lat="46.05858" lon="5.63965">
        <ele>938.8</ele>
        <time>2026-05-13T18:17:46Z</time>
      </trkpt>
      <trkpt lat="46.05856" lon="5.63961">
        <ele>938.8</ele>
        <time>2026-05-13T18:17:47Z</time>
      </trkpt>
      <trkpt lat="46.05855" lon="5.63958">
        <ele>939.2</ele>
        <time>2026-05-13T18:17:48Z</time>
      </trkpt>
      <trkpt lat="46.05854" lon="5.63955">
        <ele>939.2</ele>
        <time>2026-05-13T18:17:49Z</time>
      </trkpt>
      <trkpt lat="46.05853" lon="5.63952">
        <ele>939.2</ele>
        <time>2026-05-13T18:17:50Z</time>
      </trkpt>
      <trkpt lat="46.05852" lon="5.6395">
        <ele>939.6</ele>
        <time>2026-05-13T18:17:51Z</time>
      </trkpt>
      <trkpt lat="46.0585" lon="5.63947">
        <ele>939.6</ele>
        <time>2026-05-13T18:17:52Z</time>
      </trkpt>
      <trkpt lat="46.05849" lon="5.63944">
        <ele>940</ele>
        <time>2026-05-13T18:17:53Z</time>
      </trkpt>
      <trkpt lat="46.05847" lon="5.63942">
        <ele>940</ele>
        <time>2026-05-13T18:17:54Z</time>
      </trkpt>
      <trkpt lat="46.05846" lon="5.63939">
        <ele>940</ele>
        <time>2026-05-13T18:17:55Z</time>
      </trkpt>
      <trkpt lat="46.05844" lon="5.63937">
        <ele>940.2</ele>
        <time>2026-05-13T18:17:56Z</time>
      </trkpt>
      <trkpt lat="46.05843" lon="5.63935">
        <ele>940.6</ele>
        <time>2026-05-13T18:17:57Z</time>
      </trkpt>
      <trkpt lat="46.05841" lon="5.63933">
        <ele>940.6</ele>
        <time>2026-05-13T18:17:58Z</time>
      </trkpt>
      <trkpt lat="46.05839" lon="5.63931">
        <ele>940.8</ele>
        <time>2026-05-13T18:17:59Z</time>
      </trkpt>
      <trkpt lat="46.05838" lon="5.63929">
        <ele>940.8</ele>
        <time>2026-05-13T18:18:00Z</time>
      </trkpt>
      <trkpt lat="46.05836" lon="5.63927">
        <ele>941.2</ele>
        <time>2026-05-13T18:18:01Z</time>
      </trkpt>
      <trkpt lat="46.05834" lon="5.63926">
        <ele>941.2</ele>
        <time>2026-05-13T18:18:02Z</time>
      </trkpt>
      <trkpt lat="46.05832" lon="5.63925">
        <ele>941.6</ele>
        <time>2026-05-13T18:18:03Z</time>
      </trkpt>
      <trkpt lat="46.0583" lon="5.63924">
        <ele>941.6</ele>
        <time>2026-05-13T18:18:04Z</time>
      </trkpt>
      <trkpt lat="46.05828" lon="5.63923">
        <ele>941.6</ele>
        <time>2026-05-13T18:18:05Z</time>
      </trkpt>
      <trkpt lat="46.05826" lon="5.63922">
        <ele>941.6</ele>
        <time>2026-05-13T18:18:06Z</time>
      </trkpt>
      <trkpt lat="46.05824" lon="5.63921">
        <ele>941.8</ele>
        <time>2026-05-13T18:18:07Z</time>
      </trkpt>
      <trkpt lat="46.05822" lon="5.6392">
        <ele>942</ele>
        <time>2026-05-13T18:18:08Z</time>
      </trkpt>
      <trkpt lat="46.0582" lon="5.63919">
        <ele>942</ele>
        <time>2026-05-13T18:18:09Z</time>
      </trkpt>
      <trkpt lat="46.05818" lon="5.63918">
        <ele>942</ele>
        <time>2026-05-13T18:18:10Z</time>
      </trkpt>
      <trkpt lat="46.05816" lon="5.63917">
        <ele>942.2</ele>
        <time>2026-05-13T18:18:11Z</time>
      </trkpt>
      <trkpt lat="46.05813" lon="5.63917">
        <ele>942.2</ele>
        <time>2026-05-13T18:18:12Z</time>
      </trkpt>
      <trkpt lat="46.05811" lon="5.63916">
        <ele>942.4</ele>
        <time>2026-05-13T18:18:13Z</time>
      </trkpt>
      <trkpt lat="46.05809" lon="5.63916">
        <ele>942.4</ele>
        <time>2026-05-13T18:18:14Z</time>
      </trkpt>
      <trkpt lat="46.05807" lon="5.63916">
        <ele>942.4</ele>
        <time>2026-05-13T18:18:15Z</time>
      </trkpt>
      <trkpt lat="46.05804" lon="5.63915">
        <ele>942.8</ele>
        <time>2026-05-13T18:18:16Z</time>
      </trkpt>
      <trkpt lat="46.05802" lon="5.63915">
        <ele>942.8</ele>
        <time>2026-05-13T18:18:17Z</time>
      </trkpt>
      <trkpt lat="46.058" lon="5.63914">
        <ele>943</ele>
        <time>2026-05-13T18:18:18Z</time>
      </trkpt>
      <trkpt lat="46.05797" lon="5.63914">
        <ele>943</ele>
        <time>2026-05-13T18:18:19Z</time>
      </trkpt>
      <trkpt lat="46.05795" lon="5.63913">
        <ele>943</ele>
        <time>2026-05-13T18:18:20Z</time>
      </trkpt>
      <trkpt lat="46.05792" lon="5.63913">
        <ele>942.8</ele>
        <time>2026-05-13T18:18:21Z</time>
      </trkpt>
      <trkpt lat="46.05789" lon="5.63912">
        <ele>942.8</ele>
        <time>2026-05-13T18:18:22Z</time>
      </trkpt>
      <trkpt lat="46.05786" lon="5.63912">
        <ele>942.8</ele>
        <time>2026-05-13T18:18:23Z</time>
      </trkpt>
      <trkpt lat="46.05783" lon="5.63912">
        <ele>942.8</ele>
        <time>2026-05-13T18:18:24Z</time>
      </trkpt>
      <trkpt lat="46.05781" lon="5.63911">
        <ele>943</ele>
        <time>2026-05-13T18:18:25Z</time>
      </trkpt>
      <trkpt lat="46.05778" lon="5.6391">
        <ele>943</ele>
        <time>2026-05-13T18:18:26Z</time>
      </trkpt>
      <trkpt lat="46.05775" lon="5.63909">
        <ele>943</ele>
        <time>2026-05-13T18:18:27Z</time>
      </trkpt>
      <trkpt lat="46.05772" lon="5.63909">
        <ele>943</ele>
        <time>2026-05-13T18:18:28Z</time>
      </trkpt>
      <trkpt lat="46.05769" lon="5.63908">
        <ele>942.8</ele>
        <time>2026-05-13T18:18:29Z</time>
      </trkpt>
      <trkpt lat="46.05766" lon="5.63906">
        <ele>942.8</ele>
        <time>2026-05-13T18:18:30Z</time>
      </trkpt>
      <trkpt lat="46.05763" lon="5.63905">
        <ele>942.8</ele>
        <time>2026-05-13T18:18:31Z</time>
      </trkpt>
      <trkpt lat="46.05759" lon="5.63902">
        <ele>942.4</ele>
        <time>2026-05-13T18:18:32Z</time>
      </trkpt>
      <trkpt lat="46.05755" lon="5.639">
        <ele>942.2</ele>
        <time>2026-05-13T18:18:33Z</time>
      </trkpt>
      <trkpt lat="46.05752" lon="5.63897">
        <ele>942.2</ele>
        <time>2026-05-13T18:18:34Z</time>
      </trkpt>
      <trkpt lat="46.05748" lon="5.63892">
        <ele>942.2</ele>
        <time>2026-05-13T18:18:35Z</time>
      </trkpt>
      <trkpt lat="46.05744" lon="5.63888">
        <ele>941.6</ele>
        <time>2026-05-13T18:18:36Z</time>
      </trkpt>
      <trkpt lat="46.0574" lon="5.63883">
        <ele>941.2</ele>
        <time>2026-05-13T18:18:37Z</time>
      </trkpt>
      <trkpt lat="46.05735" lon="5.63879">
        <ele>941</ele>
        <time>2026-05-13T18:18:38Z</time>
      </trkpt>
      <trkpt lat="46.05729" lon="5.63873">
        <ele>940.4</ele>
        <time>2026-05-13T18:18:39Z</time>
      </trkpt>
      <trkpt lat="46.05725" lon="5.63867">
        <ele>939.8</ele>
        <time>2026-05-13T18:18:40Z</time>
      </trkpt>
      <trkpt lat="46.0572" lon="5.63861">
        <ele>939.4</ele>
        <time>2026-05-13T18:18:41Z</time>
      </trkpt>
      <trkpt lat="46.05716" lon="5.63855">
        <ele>939.2</ele>
        <time>2026-05-13T18:18:42Z</time>
      </trkpt>
      <trkpt lat="46.05712" lon="5.63849">
        <ele>939.2</ele>
        <time>2026-05-13T18:18:43Z</time>
      </trkpt>
      <trkpt lat="46.05708" lon="5.63843">
        <ele>939.2</ele>
        <time>2026-05-13T18:18:44Z</time>
      </trkpt>
      <trkpt lat="46.05704" lon="5.63838">
        <ele>939.2</ele>
        <time>2026-05-13T18:18:45Z</time>
      </trkpt>
      <trkpt lat="46.05701" lon="5.63833">
        <ele>939.2</ele>
        <time>2026-05-13T18:18:46Z</time>
      </trkpt>
      <trkpt lat="46.05698" lon="5.63828">
        <ele>939.2</ele>
        <time>2026-05-13T18:18:47Z</time>
      </trkpt>
      <trkpt lat="46.05695" lon="5.63824">
        <ele>939.2</ele>
        <time>2026-05-13T18:18:48Z</time>
      </trkpt>
      <trkpt lat="46.05692" lon="5.63818">
        <ele>939.4</ele>
        <time>2026-05-13T18:18:49Z</time>
      </trkpt>
      <trkpt lat="46.0569" lon="5.63813">
        <ele>939.4</ele>
        <time>2026-05-13T18:18:50Z</time>
      </trkpt>
      <trkpt lat="46.05689" lon="5.63806">
        <ele>939.4</ele>
        <time>2026-05-13T18:18:51Z</time>
      </trkpt>
      <trkpt lat="46.05688" lon="5.638">
        <ele>939.8</ele>
        <time>2026-05-13T18:18:52Z</time>
      </trkpt>
      <trkpt lat="46.05688" lon="5.63794">
        <ele>940</ele>
        <time>2026-05-13T18:18:53Z</time>
      </trkpt>
      <trkpt lat="46.05688" lon="5.63789">
        <ele>940</ele>
        <time>2026-05-13T18:18:54Z</time>
      </trkpt>
      <trkpt lat="46.05688" lon="5.63777">
        <ele>940.4</ele>
        <time>2026-05-13T18:18:55Z</time>
      </trkpt>
      <trkpt lat="46.05688" lon="5.63771">
        <ele>940.6</ele>
        <time>2026-05-13T18:18:56Z</time>
      </trkpt>
      <trkpt lat="46.05688" lon="5.63766">
        <ele>941</ele>
        <time>2026-05-13T18:18:57Z</time>
      </trkpt>
      <trkpt lat="46.05688" lon="5.6376">
        <ele>941</ele>
        <time>2026-05-13T18:18:58Z</time>
      </trkpt>
      <trkpt lat="46.05688" lon="5.63755">
        <ele>941</ele>
        <time>2026-05-13T18:18:59Z</time>
      </trkpt>
      <trkpt lat="46.05688" lon="5.6375">
        <ele>941</ele>
        <time>2026-05-13T18:19:00Z</time>
      </trkpt>
      <trkpt lat="46.05688" lon="5.63746">
        <ele>941.4</ele>
        <time>2026-05-13T18:19:01Z</time>
      </trkpt>
      <trkpt lat="46.05688" lon="5.63741">
        <ele>941.4</ele>
        <time>2026-05-13T18:19:02Z</time>
      </trkpt>
      <trkpt lat="46.05688" lon="5.63737">
        <ele>941.6</ele>
        <time>2026-05-13T18:19:03Z</time>
      </trkpt>
      <trkpt lat="46.05688" lon="5.63733">
        <ele>941.6</ele>
        <time>2026-05-13T18:19:04Z</time>
      </trkpt>
      <trkpt lat="46.05688" lon="5.63728">
        <ele>941.8</ele>
        <time>2026-05-13T18:19:05Z</time>
      </trkpt>
      <trkpt lat="46.05688" lon="5.63723">
        <ele>941.8</ele>
        <time>2026-05-13T18:19:06Z</time>
      </trkpt>
      <trkpt lat="46.05688" lon="5.63718">
        <ele>942.2</ele>
        <time>2026-05-13T18:19:07Z</time>
      </trkpt>
      <trkpt lat="46.05688" lon="5.63713">
        <ele>942.2</ele>
        <time>2026-05-13T18:19:08Z</time>
      </trkpt>
      <trkpt lat="46.05688" lon="5.63709">
        <ele>942.6</ele>
        <time>2026-05-13T18:19:09Z</time>
      </trkpt>
      <trkpt lat="46.05688" lon="5.63704">
        <ele>942.8</ele>
        <time>2026-05-13T18:19:10Z</time>
      </trkpt>
      <trkpt lat="46.05688" lon="5.637">
        <ele>942.8</ele>
        <time>2026-05-13T18:19:11Z</time>
      </trkpt>
      <trkpt lat="46.05688" lon="5.63696">
        <ele>943.2</ele>
        <time>2026-05-13T18:19:12Z</time>
      </trkpt>
      <trkpt lat="46.05688" lon="5.63691">
        <ele>943.2</ele>
        <time>2026-05-13T18:19:13Z</time>
      </trkpt>
      <trkpt lat="46.05688" lon="5.63687">
        <ele>943.2</ele>
        <time>2026-05-13T18:19:14Z</time>
      </trkpt>
      <trkpt lat="46.05688" lon="5.63682">
        <ele>943.6</ele>
        <time>2026-05-13T18:19:15Z</time>
      </trkpt>
      <trkpt lat="46.05688" lon="5.63677">
        <ele>943.4</ele>
        <time>2026-05-13T18:19:16Z</time>
      </trkpt>
      <trkpt lat="46.05687" lon="5.63673">
        <ele>943.4</ele>
        <time>2026-05-13T18:19:17Z</time>
      </trkpt>
      <trkpt lat="46.05687" lon="5.63668">
        <ele>943.6</ele>
        <time>2026-05-13T18:19:18Z</time>
      </trkpt>
      <trkpt lat="46.05687" lon="5.63663">
        <ele>943.4</ele>
        <time>2026-05-13T18:19:19Z</time>
      </trkpt>
      <trkpt lat="46.05687" lon="5.63658">
        <ele>943</ele>
        <time>2026-05-13T18:19:20Z</time>
      </trkpt>
      <trkpt lat="46.05687" lon="5.63653">
        <ele>943</ele>
        <time>2026-05-13T18:19:21Z</time>
      </trkpt>
      <trkpt lat="46.05687" lon="5.63649">
        <ele>943</ele>
        <time>2026-05-13T18:19:22Z</time>
      </trkpt>
      <trkpt lat="46.05687" lon="5.63645">
        <ele>943</ele>
        <time>2026-05-13T18:19:23Z</time>
      </trkpt>
      <trkpt lat="46.05687" lon="5.6364">
        <ele>942.2</ele>
        <time>2026-05-13T18:19:24Z</time>
      </trkpt>
      <trkpt lat="46.05687" lon="5.63635">
        <ele>942.4</ele>
        <time>2026-05-13T18:19:25Z</time>
      </trkpt>
      <trkpt lat="46.05687" lon="5.6363">
        <ele>943.2</ele>
        <time>2026-05-13T18:19:26Z</time>
      </trkpt>
      <trkpt lat="46.05687" lon="5.63626">
        <ele>943.2</ele>
        <time>2026-05-13T18:19:27Z</time>
      </trkpt>
      <trkpt lat="46.05687" lon="5.63621">
        <ele>942.8</ele>
        <time>2026-05-13T18:19:28Z</time>
      </trkpt>
      <trkpt lat="46.05687" lon="5.63617">
        <ele>943.2</ele>
        <time>2026-05-13T18:19:29Z</time>
      </trkpt>
      <trkpt lat="46.05687" lon="5.63613">
        <ele>943.2</ele>
        <time>2026-05-13T18:19:30Z</time>
      </trkpt>
      <trkpt lat="46.05687" lon="5.63608">
        <ele>941.8</ele>
        <time>2026-05-13T18:19:31Z</time>
      </trkpt>
      <trkpt lat="46.05687" lon="5.63603">
        <ele>941.8</ele>
        <time>2026-05-13T18:19:32Z</time>
      </trkpt>
      <trkpt lat="46.05687" lon="5.63598">
        <ele>941.8</ele>
        <time>2026-05-13T18:19:33Z</time>
      </trkpt>
      <trkpt lat="46.05687" lon="5.63594">
        <ele>941.4</ele>
        <time>2026-05-13T18:19:34Z</time>
      </trkpt>
      <trkpt lat="46.05687" lon="5.63591">
        <ele>940.8</ele>
        <time>2026-05-13T18:19:35Z</time>
      </trkpt>
      <trkpt lat="46.05688" lon="5.63586">
        <ele>942</ele>
        <time>2026-05-13T18:19:36Z</time>
      </trkpt>
      <trkpt lat="46.05688" lon="5.63582">
        <ele>942</ele>
        <time>2026-05-13T18:19:37Z</time>
      </trkpt>
      <trkpt lat="46.05688" lon="5.63578">
        <ele>942.4</ele>
        <time>2026-05-13T18:19:38Z</time>
      </trkpt>
      <trkpt lat="46.05688" lon="5.63574">
        <ele>942.6</ele>
        <time>2026-05-13T18:19:39Z</time>
      </trkpt>
      <trkpt lat="46.05688" lon="5.63569">
        <ele>941.2</ele>
        <time>2026-05-13T18:19:40Z</time>
      </trkpt>
      <trkpt lat="46.05688" lon="5.63565">
        <ele>941.8</ele>
        <time>2026-05-13T18:19:41Z</time>
      </trkpt>
      <trkpt lat="46.05688" lon="5.63561">
        <ele>941.8</ele>
        <time>2026-05-13T18:19:42Z</time>
      </trkpt>
      <trkpt lat="46.05688" lon="5.63556">
        <ele>941.4</ele>
        <time>2026-05-13T18:19:43Z</time>
      </trkpt>
      <trkpt lat="46.05688" lon="5.63551">
        <ele>941.2</ele>
        <time>2026-05-13T18:19:44Z</time>
      </trkpt>
      <trkpt lat="46.05688" lon="5.63546">
        <ele>941.4</ele>
        <time>2026-05-13T18:19:45Z</time>
      </trkpt>
      <trkpt lat="46.05688" lon="5.63541">
        <ele>940.6</ele>
        <time>2026-05-13T18:19:46Z</time>
      </trkpt>
      <trkpt lat="46.05688" lon="5.63536">
        <ele>941.2</ele>
        <time>2026-05-13T18:19:47Z</time>
      </trkpt>
      <trkpt lat="46.05688" lon="5.63531">
        <ele>941.6</ele>
        <time>2026-05-13T18:19:48Z</time>
      </trkpt>
      <trkpt lat="46.05688" lon="5.63527">
        <ele>941.6</ele>
        <time>2026-05-13T18:19:49Z</time>
      </trkpt>
      <trkpt lat="46.05688" lon="5.63522">
        <ele>941</ele>
        <time>2026-05-13T18:19:50Z</time>
      </trkpt>
      <trkpt lat="46.05688" lon="5.63518">
        <ele>941</ele>
        <time>2026-05-13T18:19:51Z</time>
      </trkpt>
      <trkpt lat="46.05688" lon="5.63513">
        <ele>941</ele>
        <time>2026-05-13T18:19:52Z</time>
      </trkpt>
      <trkpt lat="46.05688" lon="5.6351">
        <ele>940.8</ele>
        <time>2026-05-13T18:19:53Z</time>
      </trkpt>
      <trkpt lat="46.05688" lon="5.63506">
        <ele>941.2</ele>
        <time>2026-05-13T18:19:54Z</time>
      </trkpt>
      <trkpt lat="46.05688" lon="5.63501">
        <ele>940.8</ele>
        <time>2026-05-13T18:19:55Z</time>
      </trkpt>
      <trkpt lat="46.05688" lon="5.63495">
        <ele>940.8</ele>
        <time>2026-05-13T18:19:56Z</time>
      </trkpt>
      <trkpt lat="46.05688" lon="5.63489">
        <ele>940.8</ele>
        <time>2026-05-13T18:19:57Z</time>
      </trkpt>
      <trkpt lat="46.05688" lon="5.63485">
        <ele>940.8</ele>
        <time>2026-05-13T18:19:58Z</time>
      </trkpt>
      <trkpt lat="46.05688" lon="5.63481">
        <ele>940.8</ele>
        <time>2026-05-13T18:19:59Z</time>
      </trkpt>
      <trkpt lat="46.05688" lon="5.63477">
        <ele>940.8</ele>
        <time>2026-05-13T18:20:00Z</time>
      </trkpt>
      <trkpt lat="46.05688" lon="5.63473">
        <ele>940.4</ele>
        <time>2026-05-13T18:20:01Z</time>
      </trkpt>
      <trkpt lat="46.05688" lon="5.63467">
        <ele>940.4</ele>
        <time>2026-05-13T18:20:02Z</time>
      </trkpt>
      <trkpt lat="46.05688" lon="5.63461">
        <ele>940.2</ele>
        <time>2026-05-13T18:20:03Z</time>
      </trkpt>
      <trkpt lat="46.05688" lon="5.63454">
        <ele>940</ele>
        <time>2026-05-13T18:20:04Z</time>
      </trkpt>
      <trkpt lat="46.05688" lon="5.63447">
        <ele>939.4</ele>
        <time>2026-05-13T18:20:05Z</time>
      </trkpt>
      <trkpt lat="46.05689" lon="5.6344">
        <ele>939</ele>
        <time>2026-05-13T18:20:06Z</time>
      </trkpt>
      <trkpt lat="46.05689" lon="5.63432">
        <ele>938.6</ele>
        <time>2026-05-13T18:20:07Z</time>
      </trkpt>
      <trkpt lat="46.05689" lon="5.63424">
        <ele>938.2</ele>
        <time>2026-05-13T18:20:08Z</time>
      </trkpt>
      <trkpt lat="46.05689" lon="5.63416">
        <ele>938.2</ele>
        <time>2026-05-13T18:20:09Z</time>
      </trkpt>
      <trkpt lat="46.05689" lon="5.63408">
        <ele>937.6</ele>
        <time>2026-05-13T18:20:10Z</time>
      </trkpt>
      <trkpt lat="46.05689" lon="5.634">
        <ele>937.4</ele>
        <time>2026-05-13T18:20:11Z</time>
      </trkpt>
      <trkpt lat="46.05689" lon="5.63392">
        <ele>937.4</ele>
        <time>2026-05-13T18:20:12Z</time>
      </trkpt>
      <trkpt lat="46.05689" lon="5.63384">
        <ele>937</ele>
        <time>2026-05-13T18:20:13Z</time>
      </trkpt>
      <trkpt lat="46.05689" lon="5.63375">
        <ele>936.4</ele>
        <time>2026-05-13T18:20:14Z</time>
      </trkpt>
      <trkpt lat="46.05689" lon="5.63367">
        <ele>936.2</ele>
        <time>2026-05-13T18:20:15Z</time>
      </trkpt>
      <trkpt lat="46.05688" lon="5.63359">
        <ele>936.2</ele>
        <time>2026-05-13T18:20:16Z</time>
      </trkpt>
      <trkpt lat="46.05689" lon="5.6335">
        <ele>935.8</ele>
        <time>2026-05-13T18:20:17Z</time>
      </trkpt>
      <trkpt lat="46.05689" lon="5.63342">
        <ele>935.8</ele>
        <time>2026-05-13T18:20:18Z</time>
      </trkpt>
      <trkpt lat="46.05689" lon="5.63334">
        <ele>935.8</ele>
        <time>2026-05-13T18:20:19Z</time>
      </trkpt>
      <trkpt lat="46.0569" lon="5.63326">
        <ele>935.8</ele>
        <time>2026-05-13T18:20:20Z</time>
      </trkpt>
      <trkpt lat="46.0569" lon="5.63319">
        <ele>935.8</ele>
        <time>2026-05-13T18:20:21Z</time>
      </trkpt>
      <trkpt lat="46.0569" lon="5.63313">
        <ele>935.8</ele>
        <time>2026-05-13T18:20:22Z</time>
      </trkpt>
      <trkpt lat="46.0569" lon="5.63306">
        <ele>935.8</ele>
        <time>2026-05-13T18:20:23Z</time>
      </trkpt>
      <trkpt lat="46.05691" lon="5.633">
        <ele>935.8</ele>
        <time>2026-05-13T18:20:24Z</time>
      </trkpt>
      <trkpt lat="46.05692" lon="5.63294">
        <ele>935.8</ele>
        <time>2026-05-13T18:20:25Z</time>
      </trkpt>
      <trkpt lat="46.05692" lon="5.63294">
        <ele>935.8</ele>
        <time>2026-05-13T18:20:26Z</time>
      </trkpt>
      <trkpt lat="46.05692" lon="5.63287">
        <ele>935.8</ele>
        <time>2026-05-13T18:20:27Z</time>
      </trkpt>
      <trkpt lat="46.05692" lon="5.63281">
        <ele>935.4</ele>
        <time>2026-05-13T18:20:28Z</time>
      </trkpt>
      <trkpt lat="46.05691" lon="5.63277">
        <ele>935.4</ele>
        <time>2026-05-13T18:20:29Z</time>
      </trkpt>
      <trkpt lat="46.05691" lon="5.63273">
        <ele>935.2</ele>
        <time>2026-05-13T18:20:30Z</time>
      </trkpt>
      <trkpt lat="46.05691" lon="5.63269">
        <ele>935.2</ele>
        <time>2026-05-13T18:20:31Z</time>
      </trkpt>
      <trkpt lat="46.05691" lon="5.63266">
        <ele>935.2</ele>
        <time>2026-05-13T18:20:32Z</time>
      </trkpt>
      <trkpt lat="46.05691" lon="5.63263">
        <ele>935.2</ele>
        <time>2026-05-13T18:20:33Z</time>
      </trkpt>
      <trkpt lat="46.05691" lon="5.6326">
        <ele>935</ele>
        <time>2026-05-13T18:20:34Z</time>
      </trkpt>
      <trkpt lat="46.05691" lon="5.63255">
        <ele>934.6</ele>
        <time>2026-05-13T18:20:35Z</time>
      </trkpt>
      <trkpt lat="46.0569" lon="5.63251">
        <ele>934.6</ele>
        <time>2026-05-13T18:20:36Z</time>
      </trkpt>
      <trkpt lat="46.0569" lon="5.63248">
        <ele>934.6</ele>
        <time>2026-05-13T18:20:37Z</time>
      </trkpt>
      <trkpt lat="46.0569" lon="5.63243">
        <ele>934</ele>
        <time>2026-05-13T18:20:38Z</time>
      </trkpt>
      <trkpt lat="46.05689" lon="5.63239">
        <ele>934</ele>
        <time>2026-05-13T18:20:39Z</time>
      </trkpt>
      <trkpt lat="46.05688" lon="5.63234">
        <ele>934</ele>
        <time>2026-05-13T18:20:40Z</time>
      </trkpt>
      <trkpt lat="46.05687" lon="5.6323">
        <ele>934</ele>
        <time>2026-05-13T18:20:41Z</time>
      </trkpt>
      <trkpt lat="46.05686" lon="5.63225">
        <ele>933.8</ele>
        <time>2026-05-13T18:20:42Z</time>
      </trkpt>
      <trkpt lat="46.05685" lon="5.63221">
        <ele>933.8</ele>
        <time>2026-05-13T18:20:43Z</time>
      </trkpt>
      <trkpt lat="46.05685" lon="5.63216">
        <ele>933.8</ele>
        <time>2026-05-13T18:20:44Z</time>
      </trkpt>
      <trkpt lat="46.05685" lon="5.6321">
        <ele>933.4</ele>
        <time>2026-05-13T18:20:45Z</time>
      </trkpt>
      <trkpt lat="46.05684" lon="5.63204">
        <ele>933.2</ele>
        <time>2026-05-13T18:20:46Z</time>
      </trkpt>
      <trkpt lat="46.05683" lon="5.63199">
        <ele>933.2</ele>
        <time>2026-05-13T18:20:47Z</time>
      </trkpt>
      <trkpt lat="46.05682" lon="5.63193">
        <ele>932.8</ele>
        <time>2026-05-13T18:20:48Z</time>
      </trkpt>
      <trkpt lat="46.05682" lon="5.63188">
        <ele>932.8</ele>
        <time>2026-05-13T18:20:49Z</time>
      </trkpt>
      <trkpt lat="46.05681" lon="5.63184">
        <ele>932.8</ele>
        <time>2026-05-13T18:20:50Z</time>
      </trkpt>
      <trkpt lat="46.0568" lon="5.63179">
        <ele>932.6</ele>
        <time>2026-05-13T18:20:51Z</time>
      </trkpt>
      <trkpt lat="46.0568" lon="5.63175">
        <ele>932.6</ele>
        <time>2026-05-13T18:20:52Z</time>
      </trkpt>
      <trkpt lat="46.05679" lon="5.6317">
        <ele>932.4</ele>
        <time>2026-05-13T18:20:53Z</time>
      </trkpt>
      <trkpt lat="46.05679" lon="5.63165">
        <ele>932.4</ele>
        <time>2026-05-13T18:20:54Z</time>
      </trkpt>
      <trkpt lat="46.05678" lon="5.6316">
        <ele>932</ele>
        <time>2026-05-13T18:20:55Z</time>
      </trkpt>
      <trkpt lat="46.05678" lon="5.63154">
        <ele>932</ele>
        <time>2026-05-13T18:20:56Z</time>
      </trkpt>
      <trkpt lat="46.05677" lon="5.63149">
        <ele>932</ele>
        <time>2026-05-13T18:20:57Z</time>
      </trkpt>
      <trkpt lat="46.05677" lon="5.63144">
        <ele>932</ele>
        <time>2026-05-13T18:20:58Z</time>
      </trkpt>
      <trkpt lat="46.05677" lon="5.63139">
        <ele>931.8</ele>
        <time>2026-05-13T18:20:59Z</time>
      </trkpt>
      <trkpt lat="46.05676" lon="5.63134">
        <ele>931.8</ele>
        <time>2026-05-13T18:21:00Z</time>
      </trkpt>
      <trkpt lat="46.05676" lon="5.63129">
        <ele>931.8</ele>
        <time>2026-05-13T18:21:01Z</time>
      </trkpt>
      <trkpt lat="46.05676" lon="5.63124">
        <ele>931.8</ele>
        <time>2026-05-13T18:21:02Z</time>
      </trkpt>
      <trkpt lat="46.05677" lon="5.6312">
        <ele>931.8</ele>
        <time>2026-05-13T18:21:03Z</time>
      </trkpt>
      <trkpt lat="46.05677" lon="5.63115">
        <ele>931.8</ele>
        <time>2026-05-13T18:21:04Z</time>
      </trkpt>
      <trkpt lat="46.05678" lon="5.63111">
        <ele>931.4</ele>
        <time>2026-05-13T18:21:05Z</time>
      </trkpt>
      <trkpt lat="46.05678" lon="5.63106">
        <ele>931.4</ele>
        <time>2026-05-13T18:21:06Z</time>
      </trkpt>
      <trkpt lat="46.05678" lon="5.63101">
        <ele>931.4</ele>
        <time>2026-05-13T18:21:07Z</time>
      </trkpt>
      <trkpt lat="46.05679" lon="5.63096">
        <ele>931.4</ele>
        <time>2026-05-13T18:21:08Z</time>
      </trkpt>
      <trkpt lat="46.05679" lon="5.63091">
        <ele>931.4</ele>
        <time>2026-05-13T18:21:09Z</time>
      </trkpt>
      <trkpt lat="46.05679" lon="5.63087">
        <ele>931.6</ele>
        <time>2026-05-13T18:21:10Z</time>
      </trkpt>
      <trkpt lat="46.05678" lon="5.63082">
        <ele>931.6</ele>
        <time>2026-05-13T18:21:11Z</time>
      </trkpt>
      <trkpt lat="46.05678" lon="5.63078">
        <ele>931.6</ele>
        <time>2026-05-13T18:21:12Z</time>
      </trkpt>
      <trkpt lat="46.05678" lon="5.63074">
        <ele>931.6</ele>
        <time>2026-05-13T18:21:13Z</time>
      </trkpt>
      <trkpt lat="46.05678" lon="5.6307">
        <ele>932</ele>
        <time>2026-05-13T18:21:14Z</time>
      </trkpt>
      <trkpt lat="46.05678" lon="5.63066">
        <ele>932</ele>
        <time>2026-05-13T18:21:15Z</time>
      </trkpt>
      <trkpt lat="46.05678" lon="5.63062">
        <ele>932</ele>
        <time>2026-05-13T18:21:16Z</time>
      </trkpt>
      <trkpt lat="46.05678" lon="5.63058">
        <ele>932</ele>
        <time>2026-05-13T18:21:17Z</time>
      </trkpt>
      <trkpt lat="46.05678" lon="5.63054">
        <ele>932.4</ele>
        <time>2026-05-13T18:21:18Z</time>
      </trkpt>
      <trkpt lat="46.05679" lon="5.6305">
        <ele>932.4</ele>
        <time>2026-05-13T18:21:19Z</time>
      </trkpt>
      <trkpt lat="46.0568" lon="5.63045">
        <ele>932</ele>
        <time>2026-05-13T18:21:20Z</time>
      </trkpt>
      <trkpt lat="46.05681" lon="5.6304">
        <ele>931.6</ele>
        <time>2026-05-13T18:21:21Z</time>
      </trkpt>
      <trkpt lat="46.05683" lon="5.63035">
        <ele>931.6</ele>
        <time>2026-05-13T18:21:22Z</time>
      </trkpt>
      <trkpt lat="46.05685" lon="5.63029">
        <ele>931.6</ele>
        <time>2026-05-13T18:21:23Z</time>
      </trkpt>
      <trkpt lat="46.05686" lon="5.63024">
        <ele>931.6</ele>
        <time>2026-05-13T18:21:24Z</time>
      </trkpt>
      <trkpt lat="46.05687" lon="5.63019">
        <ele>932</ele>
        <time>2026-05-13T18:21:25Z</time>
      </trkpt>
      <trkpt lat="46.05689" lon="5.63014">
        <ele>932</ele>
        <time>2026-05-13T18:21:26Z</time>
      </trkpt>
      <trkpt lat="46.0569" lon="5.63011">
        <ele>931.8</ele>
        <time>2026-05-13T18:21:27Z</time>
      </trkpt>
      <trkpt lat="46.05691" lon="5.63007">
        <ele>931.8</ele>
        <time>2026-05-13T18:21:28Z</time>
      </trkpt>
      <trkpt lat="46.05693" lon="5.63002">
        <ele>931.2</ele>
        <time>2026-05-13T18:21:29Z</time>
      </trkpt>
      <trkpt lat="46.05694" lon="5.62997">
        <ele>931.2</ele>
        <time>2026-05-13T18:21:30Z</time>
      </trkpt>
      <trkpt lat="46.05696" lon="5.62992">
        <ele>931.2</ele>
        <time>2026-05-13T18:21:31Z</time>
      </trkpt>
      <trkpt lat="46.05698" lon="5.62988">
        <ele>931.2</ele>
        <time>2026-05-13T18:21:32Z</time>
      </trkpt>
      <trkpt lat="46.05699" lon="5.62985">
        <ele>931</ele>
        <time>2026-05-13T18:21:33Z</time>
      </trkpt>
      <trkpt lat="46.057" lon="5.62981">
        <ele>930.6</ele>
        <time>2026-05-13T18:21:34Z</time>
      </trkpt>
      <trkpt lat="46.05702" lon="5.62976">
        <ele>930.8</ele>
        <time>2026-05-13T18:21:35Z</time>
      </trkpt>
      <trkpt lat="46.05704" lon="5.62972">
        <ele>930.8</ele>
        <time>2026-05-13T18:21:36Z</time>
      </trkpt>
      <trkpt lat="46.05706" lon="5.62967">
        <ele>930.8</ele>
        <time>2026-05-13T18:21:37Z</time>
      </trkpt>
      <trkpt lat="46.05709" lon="5.62964">
        <ele>930.8</ele>
        <time>2026-05-13T18:21:38Z</time>
      </trkpt>
      <trkpt lat="46.05711" lon="5.6296">
        <ele>930.8</ele>
        <time>2026-05-13T18:21:39Z</time>
      </trkpt>
      <trkpt lat="46.05714" lon="5.62956">
        <ele>930.6</ele>
        <time>2026-05-13T18:21:40Z</time>
      </trkpt>
      <trkpt lat="46.05717" lon="5.62951">
        <ele>930.6</ele>
        <time>2026-05-13T18:21:41Z</time>
      </trkpt>
      <trkpt lat="46.05719" lon="5.62947">
        <ele>930.6</ele>
        <time>2026-05-13T18:21:42Z</time>
      </trkpt>
      <trkpt lat="46.05721" lon="5.62944">
        <ele>930.4</ele>
        <time>2026-05-13T18:21:43Z</time>
      </trkpt>
      <trkpt lat="46.05723" lon="5.62939">
        <ele>930.4</ele>
        <time>2026-05-13T18:21:44Z</time>
      </trkpt>
      <trkpt lat="46.05725" lon="5.62934">
        <ele>930.4</ele>
        <time>2026-05-13T18:21:45Z</time>
      </trkpt>
      <trkpt lat="46.05727" lon="5.6293">
        <ele>930.4</ele>
        <time>2026-05-13T18:21:46Z</time>
      </trkpt>
      <trkpt lat="46.05728" lon="5.62927">
        <ele>930.6</ele>
        <time>2026-05-13T18:21:47Z</time>
      </trkpt>
      <trkpt lat="46.0573" lon="5.62923">
        <ele>930.6</ele>
        <time>2026-05-13T18:21:48Z</time>
      </trkpt>
      <trkpt lat="46.05731" lon="5.62917">
        <ele>930.6</ele>
        <time>2026-05-13T18:21:49Z</time>
      </trkpt>
      <trkpt lat="46.05733" lon="5.62912">
        <ele>930.6</ele>
        <time>2026-05-13T18:21:50Z</time>
      </trkpt>
      <trkpt lat="46.05735" lon="5.62906">
        <ele>930.6</ele>
        <time>2026-05-13T18:21:51Z</time>
      </trkpt>
      <trkpt lat="46.05737" lon="5.629">
        <ele>930.4</ele>
        <time>2026-05-13T18:21:52Z</time>
      </trkpt>
      <trkpt lat="46.05739" lon="5.62895">
        <ele>930.4</ele>
        <time>2026-05-13T18:21:53Z</time>
      </trkpt>
      <trkpt lat="46.05741" lon="5.6289">
        <ele>929.8</ele>
        <time>2026-05-13T18:21:54Z</time>
      </trkpt>
      <trkpt lat="46.05745" lon="5.62882">
        <ele>929.8</ele>
        <time>2026-05-13T18:21:55Z</time>
      </trkpt>
      <trkpt lat="46.05748" lon="5.62877">
        <ele>929.8</ele>
        <time>2026-05-13T18:21:56Z</time>
      </trkpt>
      <trkpt lat="46.05751" lon="5.62871">
        <ele>929.4</ele>
        <time>2026-05-13T18:21:57Z</time>
      </trkpt>
      <trkpt lat="46.05753" lon="5.62865">
        <ele>929.2</ele>
        <time>2026-05-13T18:21:58Z</time>
      </trkpt>
      <trkpt lat="46.05757" lon="5.62859">
        <ele>928.8</ele>
        <time>2026-05-13T18:21:59Z</time>
      </trkpt>
      <trkpt lat="46.05761" lon="5.62851">
        <ele>928.8</ele>
        <time>2026-05-13T18:22:00Z</time>
      </trkpt>
      <trkpt lat="46.05763" lon="5.62845">
        <ele>928.4</ele>
        <time>2026-05-13T18:22:01Z</time>
      </trkpt>
      <trkpt lat="46.05763" lon="5.62837">
        <ele>928.2</ele>
        <time>2026-05-13T18:22:02Z</time>
      </trkpt>
      <trkpt lat="46.05766" lon="5.6283">
        <ele>928.2</ele>
        <time>2026-05-13T18:22:03Z</time>
      </trkpt>
      <trkpt lat="46.05769" lon="5.6282">
        <ele>927.8</ele>
        <time>2026-05-13T18:22:04Z</time>
      </trkpt>
      <trkpt lat="46.0577" lon="5.62815">
        <ele>927.8</ele>
        <time>2026-05-13T18:22:05Z</time>
      </trkpt>
      <trkpt lat="46.05772" lon="5.62809">
        <ele>927.6</ele>
        <time>2026-05-13T18:22:06Z</time>
      </trkpt>
      <trkpt lat="46.05773" lon="5.62802">
        <ele>927.6</ele>
        <time>2026-05-13T18:22:07Z</time>
      </trkpt>
      <trkpt lat="46.05774" lon="5.62797">
        <ele>927.6</ele>
        <time>2026-05-13T18:22:08Z</time>
      </trkpt>
      <trkpt lat="46.05776" lon="5.6279">
        <ele>927.4</ele>
        <time>2026-05-13T18:22:09Z</time>
      </trkpt>
      <trkpt lat="46.05777" lon="5.62784">
        <ele>927.2</ele>
        <time>2026-05-13T18:22:10Z</time>
      </trkpt>
      <trkpt lat="46.05778" lon="5.62777">
        <ele>927</ele>
        <time>2026-05-13T18:22:11Z</time>
      </trkpt>
      <trkpt lat="46.05779" lon="5.62771">
        <ele>927</ele>
        <time>2026-05-13T18:22:12Z</time>
      </trkpt>
      <trkpt lat="46.05782" lon="5.62766">
        <ele>926.6</ele>
        <time>2026-05-13T18:22:13Z</time>
      </trkpt>
      <trkpt lat="46.05784" lon="5.6276">
        <ele>926.8</ele>
        <time>2026-05-13T18:22:14Z</time>
      </trkpt>
      <trkpt lat="46.05787" lon="5.62755">
        <ele>926.8</ele>
        <time>2026-05-13T18:22:15Z</time>
      </trkpt>
      <trkpt lat="46.05786" lon="5.62752">
        <ele>926.8</ele>
        <time>2026-05-13T18:22:16Z</time>
      </trkpt>
      <trkpt lat="46.05789" lon="5.62746">
        <ele>927.2</ele>
        <time>2026-05-13T18:22:17Z</time>
      </trkpt>
      <trkpt lat="46.05791" lon="5.62741">
        <ele>926.8</ele>
        <time>2026-05-13T18:22:18Z</time>
      </trkpt>
      <trkpt lat="46.05793" lon="5.62737">
        <ele>926.8</ele>
        <time>2026-05-13T18:22:19Z</time>
      </trkpt>
      <trkpt lat="46.05795" lon="5.62733">
        <ele>926.8</ele>
        <time>2026-05-13T18:22:20Z</time>
      </trkpt>
      <trkpt lat="46.05798" lon="5.62726">
        <ele>927</ele>
        <time>2026-05-13T18:22:21Z</time>
      </trkpt>
      <trkpt lat="46.058" lon="5.62723">
        <ele>927</ele>
        <time>2026-05-13T18:22:22Z</time>
      </trkpt>
      <trkpt lat="46.05801" lon="5.62719">
        <ele>927.2</ele>
        <time>2026-05-13T18:22:23Z</time>
      </trkpt>
      <trkpt lat="46.05803" lon="5.62715">
        <ele>927.2</ele>
        <time>2026-05-13T18:22:24Z</time>
      </trkpt>
      <trkpt lat="46.05805" lon="5.62712">
        <ele>927.6</ele>
        <time>2026-05-13T18:22:25Z</time>
      </trkpt>
      <trkpt lat="46.05806" lon="5.62708">
        <ele>927.6</ele>
        <time>2026-05-13T18:22:26Z</time>
      </trkpt>
      <trkpt lat="46.05807" lon="5.62704">
        <ele>927.6</ele>
        <time>2026-05-13T18:22:27Z</time>
      </trkpt>
      <trkpt lat="46.05808" lon="5.627">
        <ele>927.6</ele>
        <time>2026-05-13T18:22:28Z</time>
      </trkpt>
      <trkpt lat="46.05809" lon="5.62696">
        <ele>928</ele>
        <time>2026-05-13T18:22:29Z</time>
      </trkpt>
      <trkpt lat="46.0581" lon="5.62693">
        <ele>927.6</ele>
        <time>2026-05-13T18:22:30Z</time>
      </trkpt>
      <trkpt lat="46.05811" lon="5.6269">
        <ele>927.8</ele>
        <time>2026-05-13T18:22:31Z</time>
      </trkpt>
      <trkpt lat="46.05812" lon="5.62687">
        <ele>927.8</ele>
        <time>2026-05-13T18:22:32Z</time>
      </trkpt>
      <trkpt lat="46.05812" lon="5.62684">
        <ele>928.4</ele>
        <time>2026-05-13T18:22:33Z</time>
      </trkpt>
      <trkpt lat="46.05812" lon="5.62682">
        <ele>928.4</ele>
        <time>2026-05-13T18:22:34Z</time>
      </trkpt>
      <trkpt lat="46.05812" lon="5.62679">
        <ele>929</ele>
        <time>2026-05-13T18:22:35Z</time>
      </trkpt>
      <trkpt lat="46.05812" lon="5.62677">
        <ele>929</ele>
        <time>2026-05-13T18:22:36Z</time>
      </trkpt>
      <trkpt lat="46.05812" lon="5.62674">
        <ele>929</ele>
        <time>2026-05-13T18:22:37Z</time>
      </trkpt>
      <trkpt lat="46.05812" lon="5.62672">
        <ele>929.4</ele>
        <time>2026-05-13T18:22:38Z</time>
      </trkpt>
      <trkpt lat="46.05811" lon="5.6267">
        <ele>929.6</ele>
        <time>2026-05-13T18:22:39Z</time>
      </trkpt>
      <trkpt lat="46.05811" lon="5.62668">
        <ele>929.6</ele>
        <time>2026-05-13T18:22:40Z</time>
      </trkpt>
      <trkpt lat="46.0581" lon="5.62665">
        <ele>929.8</ele>
        <time>2026-05-13T18:22:41Z</time>
      </trkpt>
      <trkpt lat="46.05809" lon="5.62662">
        <ele>930.2</ele>
        <time>2026-05-13T18:22:42Z</time>
      </trkpt>
      <trkpt lat="46.05809" lon="5.62659">
        <ele>930.2</ele>
        <time>2026-05-13T18:22:43Z</time>
      </trkpt>
      <trkpt lat="46.05809" lon="5.62656">
        <ele>930.6</ele>
        <time>2026-05-13T18:22:44Z</time>
      </trkpt>
      <trkpt lat="46.05809" lon="5.62653">
        <ele>930.8</ele>
        <time>2026-05-13T18:22:45Z</time>
      </trkpt>
      <trkpt lat="46.05808" lon="5.6265">
        <ele>930.8</ele>
        <time>2026-05-13T18:22:46Z</time>
      </trkpt>
      <trkpt lat="46.05807" lon="5.62648">
        <ele>930.8</ele>
        <time>2026-05-13T18:22:47Z</time>
      </trkpt>
      <trkpt lat="46.05807" lon="5.62646">
        <ele>931</ele>
        <time>2026-05-13T18:22:48Z</time>
      </trkpt>
      <trkpt lat="46.05807" lon="5.62644">
        <ele>931.2</ele>
        <time>2026-05-13T18:22:49Z</time>
      </trkpt>
      <trkpt lat="46.05807" lon="5.6264">
        <ele>931.2</ele>
        <time>2026-05-13T18:22:50Z</time>
      </trkpt>
      <trkpt lat="46.05807" lon="5.62636">
        <ele>931.6</ele>
        <time>2026-05-13T18:22:51Z</time>
      </trkpt>
      <trkpt lat="46.05806" lon="5.62634">
        <ele>931.6</ele>
        <time>2026-05-13T18:22:52Z</time>
      </trkpt>
      <trkpt lat="46.05806" lon="5.62631">
        <ele>931.2</ele>
        <time>2026-05-13T18:22:53Z</time>
      </trkpt>
      <trkpt lat="46.05805" lon="5.62627">
        <ele>931.2</ele>
        <time>2026-05-13T18:22:54Z</time>
      </trkpt>
      <trkpt lat="46.05804" lon="5.62624">
        <ele>931.2</ele>
        <time>2026-05-13T18:22:55Z</time>
      </trkpt>
      <trkpt lat="46.05804" lon="5.62621">
        <ele>930.2</ele>
        <time>2026-05-13T18:22:56Z</time>
      </trkpt>
      <trkpt lat="46.05804" lon="5.62621">
        <ele>930.2</ele>
        <time>2026-05-13T18:22:57Z</time>
      </trkpt>
      <trkpt lat="46.05804" lon="5.62621">
        <ele>930.2</ele>
        <time>2026-05-13T18:22:58Z</time>
      </trkpt>
      <trkpt lat="46.058" lon="5.62606">
        <ele>930.2</ele>
        <time>2026-05-13T18:23:00Z</time>
      </trkpt>
      <trkpt lat="46.05799" lon="5.62603">
        <ele>930.2</ele>
        <time>2026-05-13T18:23:01Z</time>
      </trkpt>
      <trkpt lat="46.05799" lon="5.626">
        <ele>930</ele>
        <time>2026-05-13T18:23:02Z</time>
      </trkpt>
      <trkpt lat="46.05798" lon="5.62596">
        <ele>929.6</ele>
        <time>2026-05-13T18:23:03Z</time>
      </trkpt>
      <trkpt lat="46.05796" lon="5.62591">
        <ele>929.4</ele>
        <time>2026-05-13T18:23:04Z</time>
      </trkpt>
      <trkpt lat="46.05793" lon="5.62586">
        <ele>929.2</ele>
        <time>2026-05-13T18:23:05Z</time>
      </trkpt>
      <trkpt lat="46.05791" lon="5.62581">
        <ele>928.8</ele>
        <time>2026-05-13T18:23:06Z</time>
      </trkpt>
      <trkpt lat="46.05789" lon="5.62577">
        <ele>928.4</ele>
        <time>2026-05-13T18:23:07Z</time>
      </trkpt>
      <trkpt lat="46.05787" lon="5.62572">
        <ele>928.4</ele>
        <time>2026-05-13T18:23:08Z</time>
      </trkpt>
      <trkpt lat="46.05784" lon="5.62568">
        <ele>928.4</ele>
        <time>2026-05-13T18:23:09Z</time>
      </trkpt>
      <trkpt lat="46.05782" lon="5.62564">
        <ele>928.4</ele>
        <time>2026-05-13T18:23:10Z</time>
      </trkpt>
      <trkpt lat="46.0578" lon="5.62562">
        <ele>928.6</ele>
        <time>2026-05-13T18:23:11Z</time>
      </trkpt>
      <trkpt lat="46.05778" lon="5.62559">
        <ele>928.6</ele>
        <time>2026-05-13T18:23:12Z</time>
      </trkpt>
      <trkpt lat="46.05777" lon="5.62555">
        <ele>928.6</ele>
        <time>2026-05-13T18:23:13Z</time>
      </trkpt>
      <trkpt lat="46.05775" lon="5.62551">
        <ele>928.6</ele>
        <time>2026-05-13T18:23:14Z</time>
      </trkpt>
      <trkpt lat="46.05774" lon="5.62548">
        <ele>928.6</ele>
        <time>2026-05-13T18:23:15Z</time>
      </trkpt>
      <trkpt lat="46.05773" lon="5.62545">
        <ele>928.6</ele>
        <time>2026-05-13T18:23:16Z</time>
      </trkpt>
      <trkpt lat="46.05772" lon="5.62541">
        <ele>928.2</ele>
        <time>2026-05-13T18:23:17Z</time>
      </trkpt>
      <trkpt lat="46.0577" lon="5.62539">
        <ele>928.2</ele>
        <time>2026-05-13T18:23:18Z</time>
      </trkpt>
      <trkpt lat="46.05767" lon="5.62537">
        <ele>928.6</ele>
        <time>2026-05-13T18:23:19Z</time>
      </trkpt>
      <trkpt lat="46.05764" lon="5.62535">
        <ele>928.6</ele>
        <time>2026-05-13T18:23:20Z</time>
      </trkpt>
      <trkpt lat="46.05762" lon="5.62533">
        <ele>928.6</ele>
        <time>2026-05-13T18:23:21Z</time>
      </trkpt>
      <trkpt lat="46.05759" lon="5.62531">
        <ele>928.6</ele>
        <time>2026-05-13T18:23:22Z</time>
      </trkpt>
      <trkpt lat="46.05757" lon="5.62528">
        <ele>928.8</ele>
        <time>2026-05-13T18:23:23Z</time>
      </trkpt>
      <trkpt lat="46.05755" lon="5.62526">
        <ele>928.8</ele>
        <time>2026-05-13T18:23:24Z</time>
      </trkpt>
      <trkpt lat="46.05753" lon="5.62523">
        <ele>928.8</ele>
        <time>2026-05-13T18:23:25Z</time>
      </trkpt>
      <trkpt lat="46.0575" lon="5.6252">
        <ele>929.2</ele>
        <time>2026-05-13T18:23:26Z</time>
      </trkpt>
      <trkpt lat="46.05749" lon="5.62517">
        <ele>929.2</ele>
        <time>2026-05-13T18:23:27Z</time>
      </trkpt>
      <trkpt lat="46.05747" lon="5.62514">
        <ele>929.2</ele>
        <time>2026-05-13T18:23:28Z</time>
      </trkpt>
      <trkpt lat="46.05745" lon="5.62511">
        <ele>929.6</ele>
        <time>2026-05-13T18:23:29Z</time>
      </trkpt>
      <trkpt lat="46.05743" lon="5.62509">
        <ele>929.6</ele>
        <time>2026-05-13T18:23:30Z</time>
      </trkpt>
      <trkpt lat="46.05742" lon="5.62507">
        <ele>930</ele>
        <time>2026-05-13T18:23:31Z</time>
      </trkpt>
      <trkpt lat="46.0574" lon="5.62504">
        <ele>930</ele>
        <time>2026-05-13T18:23:32Z</time>
      </trkpt>
      <trkpt lat="46.05738" lon="5.62502">
        <ele>930</ele>
        <time>2026-05-13T18:23:33Z</time>
      </trkpt>
      <trkpt lat="46.05736" lon="5.62499">
        <ele>930.4</ele>
        <time>2026-05-13T18:23:34Z</time>
      </trkpt>
      <trkpt lat="46.05735" lon="5.62497">
        <ele>930.6</ele>
        <time>2026-05-13T18:23:35Z</time>
      </trkpt>
      <trkpt lat="46.05733" lon="5.62494">
        <ele>931</ele>
        <time>2026-05-13T18:23:36Z</time>
      </trkpt>
      <trkpt lat="46.05732" lon="5.62491">
        <ele>931</ele>
        <time>2026-05-13T18:23:37Z</time>
      </trkpt>
      <trkpt lat="46.0573" lon="5.62488">
        <ele>931.2</ele>
        <time>2026-05-13T18:23:38Z</time>
      </trkpt>
      <trkpt lat="46.05729" lon="5.62485">
        <ele>931.2</ele>
        <time>2026-05-13T18:23:39Z</time>
      </trkpt>
      <trkpt lat="46.05729" lon="5.62485">
        <ele>931.2</ele>
        <time>2026-05-13T18:23:40Z</time>
      </trkpt>
      <trkpt lat="46.05729" lon="5.62485">
        <ele>931.2</ele>
        <time>2026-05-13T18:23:41Z</time>
      </trkpt>
      <trkpt lat="46.05726" lon="5.6248">
        <ele>931.4</ele>
        <time>2026-05-13T18:23:42Z</time>
      </trkpt>
      <trkpt lat="46.05725" lon="5.62477">
        <ele>931.4</ele>
        <time>2026-05-13T18:23:43Z</time>
      </trkpt>
      <trkpt lat="46.05724" lon="5.62475">
        <ele>931.4</ele>
        <time>2026-05-13T18:23:44Z</time>
      </trkpt>
      <trkpt lat="46.05722" lon="5.62472">
        <ele>931.8</ele>
        <time>2026-05-13T18:23:45Z</time>
      </trkpt>
      <trkpt lat="46.05721" lon="5.6247">
        <ele>931.8</ele>
        <time>2026-05-13T18:23:46Z</time>
      </trkpt>
      <trkpt lat="46.05719" lon="5.62467">
        <ele>931.8</ele>
        <time>2026-05-13T18:23:47Z</time>
      </trkpt>
      <trkpt lat="46.05717" lon="5.62466">
        <ele>932.2</ele>
        <time>2026-05-13T18:23:48Z</time>
      </trkpt>
      <trkpt lat="46.05715" lon="5.62464">
        <ele>932.4</ele>
        <time>2026-05-13T18:23:49Z</time>
      </trkpt>
      <trkpt lat="46.05713" lon="5.62462">
        <ele>932.4</ele>
        <time>2026-05-13T18:23:50Z</time>
      </trkpt>
      <trkpt lat="46.05711" lon="5.6246">
        <ele>932.4</ele>
        <time>2026-05-13T18:23:51Z</time>
      </trkpt>
      <trkpt lat="46.05709" lon="5.62457">
        <ele>932.4</ele>
        <time>2026-05-13T18:23:52Z</time>
      </trkpt>
      <trkpt lat="46.05707" lon="5.62455">
        <ele>932.8</ele>
        <time>2026-05-13T18:23:53Z</time>
      </trkpt>
      <trkpt lat="46.05705" lon="5.62453">
        <ele>932.8</ele>
        <time>2026-05-13T18:23:54Z</time>
      </trkpt>
      <trkpt lat="46.05703" lon="5.62451">
        <ele>932.8</ele>
        <time>2026-05-13T18:23:55Z</time>
      </trkpt>
      <trkpt lat="46.05701" lon="5.62448">
        <ele>932.4</ele>
        <time>2026-05-13T18:23:56Z</time>
      </trkpt>
      <trkpt lat="46.05699" lon="5.62444">
        <ele>932.4</ele>
        <time>2026-05-13T18:23:57Z</time>
      </trkpt>
      <trkpt lat="46.05698" lon="5.62441">
        <ele>932.4</ele>
        <time>2026-05-13T18:23:58Z</time>
      </trkpt>
      <trkpt lat="46.05696" lon="5.62439">
        <ele>932.4</ele>
        <time>2026-05-13T18:23:59Z</time>
      </trkpt>
      <trkpt lat="46.05694" lon="5.62436">
        <ele>932.4</ele>
        <time>2026-05-13T18:24:00Z</time>
      </trkpt>
      <trkpt lat="46.05692" lon="5.62433">
        <ele>932.4</ele>
        <time>2026-05-13T18:24:01Z</time>
      </trkpt>
      <trkpt lat="46.05691" lon="5.6243">
        <ele>932.4</ele>
        <time>2026-05-13T18:24:02Z</time>
      </trkpt>
      <trkpt lat="46.05689" lon="5.62426">
        <ele>932.4</ele>
        <time>2026-05-13T18:24:03Z</time>
      </trkpt>
      <trkpt lat="46.05688" lon="5.62423">
        <ele>932.6</ele>
        <time>2026-05-13T18:24:04Z</time>
      </trkpt>
      <trkpt lat="46.05686" lon="5.6242">
        <ele>932.2</ele>
        <time>2026-05-13T18:24:05Z</time>
      </trkpt>
      <trkpt lat="46.05685" lon="5.62416">
        <ele>932.2</ele>
        <time>2026-05-13T18:24:06Z</time>
      </trkpt>
      <trkpt lat="46.05683" lon="5.62412">
        <ele>931.6</ele>
        <time>2026-05-13T18:24:07Z</time>
      </trkpt>
      <trkpt lat="46.05681" lon="5.62408">
        <ele>931.6</ele>
        <time>2026-05-13T18:24:08Z</time>
      </trkpt>
      <trkpt lat="46.05679" lon="5.62403">
        <ele>931.4</ele>
        <time>2026-05-13T18:24:09Z</time>
      </trkpt>
      <trkpt lat="46.05678" lon="5.62399">
        <ele>931.4</ele>
        <time>2026-05-13T18:24:10Z</time>
      </trkpt>
      <trkpt lat="46.05676" lon="5.62394">
        <ele>931.4</ele>
        <time>2026-05-13T18:24:11Z</time>
      </trkpt>
      <trkpt lat="46.05675" lon="5.62389">
        <ele>931.2</ele>
        <time>2026-05-13T18:24:12Z</time>
      </trkpt>
      <trkpt lat="46.05673" lon="5.62383">
        <ele>931</ele>
        <time>2026-05-13T18:24:13Z</time>
      </trkpt>
      <trkpt lat="46.05671" lon="5.62379">
        <ele>931</ele>
        <time>2026-05-13T18:24:14Z</time>
      </trkpt>
      <trkpt lat="46.0567" lon="5.62375">
        <ele>931</ele>
        <time>2026-05-13T18:24:15Z</time>
      </trkpt>
      <trkpt lat="46.05666" lon="5.62366">
        <ele>931</ele>
        <time>2026-05-13T18:24:16Z</time>
      </trkpt>
      <trkpt lat="46.05664" lon="5.62361">
        <ele>930.6</ele>
        <time>2026-05-13T18:24:17Z</time>
      </trkpt>
      <trkpt lat="46.05663" lon="5.62357">
        <ele>930.4</ele>
        <time>2026-05-13T18:24:18Z</time>
      </trkpt>
      <trkpt lat="46.05661" lon="5.62353">
        <ele>930.4</ele>
        <time>2026-05-13T18:24:19Z</time>
      </trkpt>
      <trkpt lat="46.0566" lon="5.62348">
        <ele>930.4</ele>
        <time>2026-05-13T18:24:20Z</time>
      </trkpt>
      <trkpt lat="46.05658" lon="5.62342">
        <ele>930.4</ele>
        <time>2026-05-13T18:24:21Z</time>
      </trkpt>
      <trkpt lat="46.05656" lon="5.62337">
        <ele>930.4</ele>
        <time>2026-05-13T18:24:22Z</time>
      </trkpt>
      <trkpt lat="46.05654" lon="5.62332">
        <ele>930</ele>
        <time>2026-05-13T18:24:23Z</time>
      </trkpt>
      <trkpt lat="46.05652" lon="5.62327">
        <ele>930</ele>
        <time>2026-05-13T18:24:24Z</time>
      </trkpt>
      <trkpt lat="46.0565" lon="5.62322">
        <ele>929.6</ele>
        <time>2026-05-13T18:24:25Z</time>
      </trkpt>
      <trkpt lat="46.05646" lon="5.62317">
        <ele>929.6</ele>
        <time>2026-05-13T18:24:26Z</time>
      </trkpt>
      <trkpt lat="46.05643" lon="5.62312">
        <ele>929.6</ele>
        <time>2026-05-13T18:24:27Z</time>
      </trkpt>
      <trkpt lat="46.05641" lon="5.62306">
        <ele>929.2</ele>
        <time>2026-05-13T18:24:28Z</time>
      </trkpt>
      <trkpt lat="46.05639" lon="5.62299">
        <ele>929.2</ele>
        <time>2026-05-13T18:24:29Z</time>
      </trkpt>
      <trkpt lat="46.05636" lon="5.62292">
        <ele>929.2</ele>
        <time>2026-05-13T18:24:30Z</time>
      </trkpt>
      <trkpt lat="46.05633" lon="5.62285">
        <ele>928.2</ele>
        <time>2026-05-13T18:24:31Z</time>
      </trkpt>
      <trkpt lat="46.0563" lon="5.62278">
        <ele>928.2</ele>
        <time>2026-05-13T18:24:32Z</time>
      </trkpt>
      <trkpt lat="46.05626" lon="5.62273">
        <ele>928</ele>
        <time>2026-05-13T18:24:33Z</time>
      </trkpt>
      <trkpt lat="46.05623" lon="5.62266">
        <ele>928</ele>
        <time>2026-05-13T18:24:34Z</time>
      </trkpt>
      <trkpt lat="46.0562" lon="5.6226">
        <ele>927.4</ele>
        <time>2026-05-13T18:24:35Z</time>
      </trkpt>
      <trkpt lat="46.05617" lon="5.62253">
        <ele>927.4</ele>
        <time>2026-05-13T18:24:36Z</time>
      </trkpt>
      <trkpt lat="46.05613" lon="5.62246">
        <ele>926.8</ele>
        <time>2026-05-13T18:24:37Z</time>
      </trkpt>
      <trkpt lat="46.0561" lon="5.62238">
        <ele>926.8</ele>
        <time>2026-05-13T18:24:38Z</time>
      </trkpt>
      <trkpt lat="46.05607" lon="5.62232">
        <ele>926.6</ele>
        <time>2026-05-13T18:24:39Z</time>
      </trkpt>
      <trkpt lat="46.05603" lon="5.62225">
        <ele>926</ele>
        <time>2026-05-13T18:24:40Z</time>
      </trkpt>
      <trkpt lat="46.056" lon="5.62218">
        <ele>926.2</ele>
        <time>2026-05-13T18:24:41Z</time>
      </trkpt>
      <trkpt lat="46.05597" lon="5.62211">
        <ele>925.8</ele>
        <time>2026-05-13T18:24:42Z</time>
      </trkpt>
      <trkpt lat="46.05595" lon="5.62203">
        <ele>925.8</ele>
        <time>2026-05-13T18:24:43Z</time>
      </trkpt>
      <trkpt lat="46.05594" lon="5.62195">
        <ele>925.8</ele>
        <time>2026-05-13T18:24:44Z</time>
      </trkpt>
      <trkpt lat="46.05592" lon="5.62187">
        <ele>925.8</ele>
        <time>2026-05-13T18:24:45Z</time>
      </trkpt>
      <trkpt lat="46.0559" lon="5.6218">
        <ele>925.4</ele>
        <time>2026-05-13T18:24:46Z</time>
      </trkpt>
      <trkpt lat="46.05589" lon="5.62172">
        <ele>925</ele>
        <time>2026-05-13T18:24:47Z</time>
      </trkpt>
      <trkpt lat="46.05588" lon="5.62165">
        <ele>924.2</ele>
        <time>2026-05-13T18:24:48Z</time>
      </trkpt>
      <trkpt lat="46.05587" lon="5.62157">
        <ele>924.2</ele>
        <time>2026-05-13T18:24:49Z</time>
      </trkpt>
      <trkpt lat="46.05587" lon="5.6215">
        <ele>924.2</ele>
        <time>2026-05-13T18:24:50Z</time>
      </trkpt>
      <trkpt lat="46.05587" lon="5.62145">
        <ele>924.8</ele>
        <time>2026-05-13T18:24:51Z</time>
      </trkpt>
      <trkpt lat="46.05587" lon="5.62139">
        <ele>924.4</ele>
        <time>2026-05-13T18:24:52Z</time>
      </trkpt>
      <trkpt lat="46.05586" lon="5.62134">
        <ele>925.2</ele>
        <time>2026-05-13T18:24:53Z</time>
      </trkpt>
      <trkpt lat="46.05586" lon="5.62128">
        <ele>925.2</ele>
        <time>2026-05-13T18:24:54Z</time>
      </trkpt>
      <trkpt lat="46.05586" lon="5.62123">
        <ele>925.2</ele>
        <time>2026-05-13T18:24:55Z</time>
      </trkpt>
      <trkpt lat="46.05587" lon="5.62117">
        <ele>924.8</ele>
        <time>2026-05-13T18:24:56Z</time>
      </trkpt>
      <trkpt lat="46.05586" lon="5.62112">
        <ele>924.8</ele>
        <time>2026-05-13T18:24:57Z</time>
      </trkpt>
      <trkpt lat="46.05586" lon="5.62107">
        <ele>924.8</ele>
        <time>2026-05-13T18:24:58Z</time>
      </trkpt>
      <trkpt lat="46.05586" lon="5.62101">
        <ele>924.8</ele>
        <time>2026-05-13T18:24:59Z</time>
      </trkpt>
      <trkpt lat="46.05586" lon="5.62096">
        <ele>924.4</ele>
        <time>2026-05-13T18:25:00Z</time>
      </trkpt>
      <trkpt lat="46.05586" lon="5.6209">
        <ele>924.4</ele>
        <time>2026-05-13T18:25:01Z</time>
      </trkpt>
      <trkpt lat="46.05586" lon="5.62086">
        <ele>924.4</ele>
        <time>2026-05-13T18:25:02Z</time>
      </trkpt>
      <trkpt lat="46.05586" lon="5.62081">
        <ele>924.4</ele>
        <time>2026-05-13T18:25:03Z</time>
      </trkpt>
      <trkpt lat="46.05586" lon="5.62077">
        <ele>924.4</ele>
        <time>2026-05-13T18:25:04Z</time>
      </trkpt>
      <trkpt lat="46.05585" lon="5.62072">
        <ele>924.4</ele>
        <time>2026-05-13T18:25:05Z</time>
      </trkpt>
      <trkpt lat="46.05585" lon="5.62068">
        <ele>924.4</ele>
        <time>2026-05-13T18:25:06Z</time>
      </trkpt>
      <trkpt lat="46.05584" lon="5.62063">
        <ele>924.4</ele>
        <time>2026-05-13T18:25:07Z</time>
      </trkpt>
      <trkpt lat="46.05584" lon="5.62058">
        <ele>924.4</ele>
        <time>2026-05-13T18:25:08Z</time>
      </trkpt>
      <trkpt lat="46.05584" lon="5.62052">
        <ele>924.8</ele>
        <time>2026-05-13T18:25:09Z</time>
      </trkpt>
      <trkpt lat="46.05584" lon="5.62047">
        <ele>924.4</ele>
        <time>2026-05-13T18:25:10Z</time>
      </trkpt>
      <trkpt lat="46.05584" lon="5.62042">
        <ele>924.4</ele>
        <time>2026-05-13T18:25:11Z</time>
      </trkpt>
      <trkpt lat="46.05584" lon="5.62037">
        <ele>924.6</ele>
        <time>2026-05-13T18:25:12Z</time>
      </trkpt>
      <trkpt lat="46.05584" lon="5.62031">
        <ele>924.6</ele>
        <time>2026-05-13T18:25:13Z</time>
      </trkpt>
      <trkpt lat="46.05584" lon="5.62026">
        <ele>924.4</ele>
        <time>2026-05-13T18:25:14Z</time>
      </trkpt>
      <trkpt lat="46.05583" lon="5.62021">
        <ele>924.4</ele>
        <time>2026-05-13T18:25:15Z</time>
      </trkpt>
      <trkpt lat="46.05583" lon="5.62016">
        <ele>924.4</ele>
        <time>2026-05-13T18:25:16Z</time>
      </trkpt>
      <trkpt lat="46.05583" lon="5.62011">
        <ele>924.4</ele>
        <time>2026-05-13T18:25:17Z</time>
      </trkpt>
      <trkpt lat="46.05584" lon="5.62005">
        <ele>924.6</ele>
        <time>2026-05-13T18:25:18Z</time>
      </trkpt>
      <trkpt lat="46.05586" lon="5.62001">
        <ele>924.6</ele>
        <time>2026-05-13T18:25:19Z</time>
      </trkpt>
      <trkpt lat="46.05588" lon="5.61997">
        <ele>924.6</ele>
        <time>2026-05-13T18:25:20Z</time>
      </trkpt>
      <trkpt lat="46.0559" lon="5.61994">
        <ele>924.6</ele>
        <time>2026-05-13T18:25:21Z</time>
      </trkpt>
      <trkpt lat="46.05593" lon="5.61992">
        <ele>925</ele>
        <time>2026-05-13T18:25:22Z</time>
      </trkpt>
      <trkpt lat="46.05597" lon="5.6199">
        <ele>925</ele>
        <time>2026-05-13T18:25:23Z</time>
      </trkpt>
      <trkpt lat="46.056" lon="5.61988">
        <ele>924.6</ele>
        <time>2026-05-13T18:25:24Z</time>
      </trkpt>
      <trkpt lat="46.05604" lon="5.61985">
        <ele>924.6</ele>
        <time>2026-05-13T18:25:25Z</time>
      </trkpt>
      <trkpt lat="46.05607" lon="5.61983">
        <ele>924.6</ele>
        <time>2026-05-13T18:25:26Z</time>
      </trkpt>
      <trkpt lat="46.0561" lon="5.61981">
        <ele>924.6</ele>
        <time>2026-05-13T18:25:27Z</time>
      </trkpt>
      <trkpt lat="46.05613" lon="5.61978">
        <ele>924.6</ele>
        <time>2026-05-13T18:25:28Z</time>
      </trkpt>
      <trkpt lat="46.05616" lon="5.61975">
        <ele>924.6</ele>
        <time>2026-05-13T18:25:29Z</time>
      </trkpt>
      <trkpt lat="46.0562" lon="5.61972">
        <ele>924.4</ele>
        <time>2026-05-13T18:25:30Z</time>
      </trkpt>
      <trkpt lat="46.05623" lon="5.61966">
        <ele>924.4</ele>
        <time>2026-05-13T18:25:31Z</time>
      </trkpt>
      <trkpt lat="46.05627" lon="5.61961">
        <ele>923.8</ele>
        <time>2026-05-13T18:25:32Z</time>
      </trkpt>
      <trkpt lat="46.05631" lon="5.61954">
        <ele>923.4</ele>
        <time>2026-05-13T18:25:33Z</time>
      </trkpt>
      <trkpt lat="46.05635" lon="5.61946">
        <ele>923</ele>
        <time>2026-05-13T18:25:34Z</time>
      </trkpt>
      <trkpt lat="46.05639" lon="5.61938">
        <ele>922.2</ele>
        <time>2026-05-13T18:25:35Z</time>
      </trkpt>
      <trkpt lat="46.05644" lon="5.61929">
        <ele>921.8</ele>
        <time>2026-05-13T18:25:36Z</time>
      </trkpt>
      <trkpt lat="46.05648" lon="5.6192">
        <ele>921.4</ele>
        <time>2026-05-13T18:25:37Z</time>
      </trkpt>
      <trkpt lat="46.05654" lon="5.61913">
        <ele>920.8</ele>
        <time>2026-05-13T18:25:38Z</time>
      </trkpt>
      <trkpt lat="46.0566" lon="5.61907">
        <ele>920.4</ele>
        <time>2026-05-13T18:25:39Z</time>
      </trkpt>
      <trkpt lat="46.05665" lon="5.61901">
        <ele>920.4</ele>
        <time>2026-05-13T18:25:40Z</time>
      </trkpt>
      <trkpt lat="46.05672" lon="5.61895">
        <ele>920</ele>
        <time>2026-05-13T18:25:41Z</time>
      </trkpt>
      <trkpt lat="46.05679" lon="5.61895">
        <ele>920</ele>
        <time>2026-05-13T18:25:42Z</time>
      </trkpt>
      <trkpt lat="46.05685" lon="5.61896">
        <ele>920</ele>
        <time>2026-05-13T18:25:43Z</time>
      </trkpt>
      <trkpt lat="46.05692" lon="5.61898">
        <ele>919.8</ele>
        <time>2026-05-13T18:25:44Z</time>
      </trkpt>
      <trkpt lat="46.05692" lon="5.61898">
        <ele>919.6</ele>
        <time>2026-05-13T18:25:45Z</time>
      </trkpt>
      <trkpt lat="46.05698" lon="5.61901">
        <ele>919.4</ele>
        <time>2026-05-13T18:25:46Z</time>
      </trkpt>
      <trkpt lat="46.05704" lon="5.61902">
        <ele>919.4</ele>
        <time>2026-05-13T18:25:47Z</time>
      </trkpt>
      <trkpt lat="46.0571" lon="5.61901">
        <ele>919.4</ele>
        <time>2026-05-13T18:25:48Z</time>
      </trkpt>
      <trkpt lat="46.05717" lon="5.61898">
        <ele>919.4</ele>
        <time>2026-05-13T18:25:49Z</time>
      </trkpt>
      <trkpt lat="46.05722" lon="5.61894">
        <ele>919.6</ele>
        <time>2026-05-13T18:25:50Z</time>
      </trkpt>
      <trkpt lat="46.05727" lon="5.61888">
        <ele>919.6</ele>
        <time>2026-05-13T18:25:51Z</time>
      </trkpt>
      <trkpt lat="46.05731" lon="5.61882">
        <ele>919.6</ele>
        <time>2026-05-13T18:25:52Z</time>
      </trkpt>
      <trkpt lat="46.05734" lon="5.61874">
        <ele>919.4</ele>
        <time>2026-05-13T18:25:53Z</time>
      </trkpt>
      <trkpt lat="46.05737" lon="5.61867">
        <ele>919.4</ele>
        <time>2026-05-13T18:25:54Z</time>
      </trkpt>
      <trkpt lat="46.0574" lon="5.6186">
        <ele>919.4</ele>
        <time>2026-05-13T18:25:55Z</time>
      </trkpt>
      <trkpt lat="46.05743" lon="5.61853">
        <ele>919.6</ele>
        <time>2026-05-13T18:25:56Z</time>
      </trkpt>
      <trkpt lat="46.05746" lon="5.61847">
        <ele>919.4</ele>
        <time>2026-05-13T18:25:57Z</time>
      </trkpt>
      <trkpt lat="46.0575" lon="5.61842">
        <ele>919.6</ele>
        <time>2026-05-13T18:25:58Z</time>
      </trkpt>
      <trkpt lat="46.05752" lon="5.61835">
        <ele>919.6</ele>
        <time>2026-05-13T18:25:59Z</time>
      </trkpt>
      <trkpt lat="46.05755" lon="5.61829">
        <ele>919.6</ele>
        <time>2026-05-13T18:26:00Z</time>
      </trkpt>
      <trkpt lat="46.05757" lon="5.61823">
        <ele>920</ele>
        <time>2026-05-13T18:26:01Z</time>
      </trkpt>
      <trkpt lat="46.05759" lon="5.61816">
        <ele>920.4</ele>
        <time>2026-05-13T18:26:02Z</time>
      </trkpt>
      <trkpt lat="46.0576" lon="5.6181">
        <ele>920.4</ele>
        <time>2026-05-13T18:26:03Z</time>
      </trkpt>
      <trkpt lat="46.05762" lon="5.61804">
        <ele>920.8</ele>
        <time>2026-05-13T18:26:04Z</time>
      </trkpt>
      <trkpt lat="46.05764" lon="5.61798">
        <ele>920.4</ele>
        <time>2026-05-13T18:26:05Z</time>
      </trkpt>
      <trkpt lat="46.05766" lon="5.61791">
        <ele>920.4</ele>
        <time>2026-05-13T18:26:06Z</time>
      </trkpt>
      <trkpt lat="46.05768" lon="5.61784">
        <ele>920</ele>
        <time>2026-05-13T18:26:07Z</time>
      </trkpt>
      <trkpt lat="46.05772" lon="5.61777">
        <ele>919.8</ele>
        <time>2026-05-13T18:26:08Z</time>
      </trkpt>
      <trkpt lat="46.05775" lon="5.61773">
        <ele>919.6</ele>
        <time>2026-05-13T18:26:09Z</time>
      </trkpt>
      <trkpt lat="46.05781" lon="5.61768">
        <ele>919.6</ele>
        <time>2026-05-13T18:26:10Z</time>
      </trkpt>
      <trkpt lat="46.05785" lon="5.61763">
        <ele>919.2</ele>
        <time>2026-05-13T18:26:11Z</time>
      </trkpt>
      <trkpt lat="46.0579" lon="5.6176">
        <ele>918.8</ele>
        <time>2026-05-13T18:26:12Z</time>
      </trkpt>
      <trkpt lat="46.05795" lon="5.61758">
        <ele>918.4</ele>
        <time>2026-05-13T18:26:13Z</time>
      </trkpt>
      <trkpt lat="46.05798" lon="5.61757">
        <ele>918.2</ele>
        <time>2026-05-13T18:26:14Z</time>
      </trkpt>
      <trkpt lat="46.05802" lon="5.61756">
        <ele>917.8</ele>
        <time>2026-05-13T18:26:15Z</time>
      </trkpt>
      <trkpt lat="46.05806" lon="5.61755">
        <ele>917.6</ele>
        <time>2026-05-13T18:26:16Z</time>
      </trkpt>
      <trkpt lat="46.05811" lon="5.61754">
        <ele>917.6</ele>
        <time>2026-05-13T18:26:17Z</time>
      </trkpt>
      <trkpt lat="46.05816" lon="5.61752">
        <ele>917.2</ele>
        <time>2026-05-13T18:26:18Z</time>
      </trkpt>
      <trkpt lat="46.05822" lon="5.61751">
        <ele>916.4</ele>
        <time>2026-05-13T18:26:19Z</time>
      </trkpt>
      <trkpt lat="46.05828" lon="5.6175">
        <ele>915.6</ele>
        <time>2026-05-13T18:26:20Z</time>
      </trkpt>
      <trkpt lat="46.05836" lon="5.61749">
        <ele>914.8</ele>
        <time>2026-05-13T18:26:21Z</time>
      </trkpt>
      <trkpt lat="46.05843" lon="5.61747">
        <ele>913.8</ele>
        <time>2026-05-13T18:26:22Z</time>
      </trkpt>
      <trkpt lat="46.0585" lon="5.61746">
        <ele>912.8</ele>
        <time>2026-05-13T18:26:23Z</time>
      </trkpt>
      <trkpt lat="46.05858" lon="5.61745">
        <ele>912.4</ele>
        <time>2026-05-13T18:26:24Z</time>
      </trkpt>
      <trkpt lat="46.05866" lon="5.61746">
        <ele>911.6</ele>
        <time>2026-05-13T18:26:25Z</time>
      </trkpt>
      <trkpt lat="46.05875" lon="5.61744">
        <ele>911.2</ele>
        <time>2026-05-13T18:26:26Z</time>
      </trkpt>
      <trkpt lat="46.05883" lon="5.61743">
        <ele>910.8</ele>
        <time>2026-05-13T18:26:27Z</time>
      </trkpt>
      <trkpt lat="46.05892" lon="5.61743">
        <ele>910</ele>
        <time>2026-05-13T18:26:28Z</time>
      </trkpt>
      <trkpt lat="46.059" lon="5.61743">
        <ele>909.4</ele>
        <time>2026-05-13T18:26:29Z</time>
      </trkpt>
      <trkpt lat="46.05908" lon="5.61741">
        <ele>909.4</ele>
        <time>2026-05-13T18:26:30Z</time>
      </trkpt>
      <trkpt lat="46.05915" lon="5.61741">
        <ele>909.2</ele>
        <time>2026-05-13T18:26:31Z</time>
      </trkpt>
      <trkpt lat="46.0592" lon="5.61741">
        <ele>909.2</ele>
        <time>2026-05-13T18:26:32Z</time>
      </trkpt>
      <trkpt lat="46.05925" lon="5.61738">
        <ele>909.2</ele>
        <time>2026-05-13T18:26:33Z</time>
      </trkpt>
      <trkpt lat="46.05928" lon="5.61731">
        <ele>909.2</ele>
        <time>2026-05-13T18:26:34Z</time>
      </trkpt>
      <trkpt lat="46.05931" lon="5.61722">
        <ele>909.2</ele>
        <time>2026-05-13T18:26:35Z</time>
      </trkpt>
      <trkpt lat="46.05932" lon="5.61712">
        <ele>908.6</ele>
        <time>2026-05-13T18:26:36Z</time>
      </trkpt>
      <trkpt lat="46.05932" lon="5.61702">
        <ele>908</ele>
        <time>2026-05-13T18:26:37Z</time>
      </trkpt>
      <trkpt lat="46.05931" lon="5.61692">
        <ele>907</ele>
        <time>2026-05-13T18:26:38Z</time>
      </trkpt>
      <trkpt lat="46.05929" lon="5.61683">
        <ele>907</ele>
        <time>2026-05-13T18:26:39Z</time>
      </trkpt>
      <trkpt lat="46.05926" lon="5.61674">
        <ele>906.6</ele>
        <time>2026-05-13T18:26:40Z</time>
      </trkpt>
      <trkpt lat="46.05922" lon="5.61667">
        <ele>905.8</ele>
        <time>2026-05-13T18:26:41Z</time>
      </trkpt>
      <trkpt lat="46.05919" lon="5.6166">
        <ele>905.4</ele>
        <time>2026-05-13T18:26:42Z</time>
      </trkpt>
      <trkpt lat="46.05913" lon="5.61652">
        <ele>904.4</ele>
        <time>2026-05-13T18:26:43Z</time>
      </trkpt>
      <trkpt lat="46.05907" lon="5.61644">
        <ele>903.6</ele>
        <time>2026-05-13T18:26:44Z</time>
      </trkpt>
      <trkpt lat="46.059" lon="5.61638">
        <ele>902.8</ele>
        <time>2026-05-13T18:26:45Z</time>
      </trkpt>
      <trkpt lat="46.05893" lon="5.61633">
        <ele>901.6</ele>
        <time>2026-05-13T18:26:46Z</time>
      </trkpt>
      <trkpt lat="46.05887" lon="5.61628">
        <ele>900.8</ele>
        <time>2026-05-13T18:26:47Z</time>
      </trkpt>
      <trkpt lat="46.0588" lon="5.61624">
        <ele>900</ele>
        <time>2026-05-13T18:26:48Z</time>
      </trkpt>
      <trkpt lat="46.05873" lon="5.6162">
        <ele>899.8</ele>
        <time>2026-05-13T18:26:49Z</time>
      </trkpt>
      <trkpt lat="46.05867" lon="5.61616">
        <ele>899.2</ele>
        <time>2026-05-13T18:26:50Z</time>
      </trkpt>
      <trkpt lat="46.05862" lon="5.61613">
        <ele>899.2</ele>
        <time>2026-05-13T18:26:51Z</time>
      </trkpt>
      <trkpt lat="46.05859" lon="5.61609">
        <ele>898.6</ele>
        <time>2026-05-13T18:26:52Z</time>
      </trkpt>
      <trkpt lat="46.05854" lon="5.61605">
        <ele>898</ele>
        <time>2026-05-13T18:26:53Z</time>
      </trkpt>
      <trkpt lat="46.05851" lon="5.61599">
        <ele>897.4</ele>
        <time>2026-05-13T18:26:54Z</time>
      </trkpt>
      <trkpt lat="46.05849" lon="5.61592">
        <ele>897</ele>
        <time>2026-05-13T18:26:55Z</time>
      </trkpt>
      <trkpt lat="46.05847" lon="5.61585">
        <ele>897</ele>
        <time>2026-05-13T18:26:56Z</time>
      </trkpt>
      <trkpt lat="46.0585" lon="5.61579">
        <ele>896.4</ele>
        <time>2026-05-13T18:26:57Z</time>
      </trkpt>
      <trkpt lat="46.05851" lon="5.61573">
        <ele>895.8</ele>
        <time>2026-05-13T18:26:58Z</time>
      </trkpt>
      <trkpt lat="46.05853" lon="5.61567">
        <ele>895.4</ele>
        <time>2026-05-13T18:26:59Z</time>
      </trkpt>
      <trkpt lat="46.05858" lon="5.61562">
        <ele>895</ele>
        <time>2026-05-13T18:27:00Z</time>
      </trkpt>
      <trkpt lat="46.05863" lon="5.61558">
        <ele>894.2</ele>
        <time>2026-05-13T18:27:01Z</time>
      </trkpt>
      <trkpt lat="46.0587" lon="5.61555">
        <ele>893.2</ele>
        <time>2026-05-13T18:27:02Z</time>
      </trkpt>
      <trkpt lat="46.05877" lon="5.61552">
        <ele>892.4</ele>
        <time>2026-05-13T18:27:03Z</time>
      </trkpt>
      <trkpt lat="46.05883" lon="5.6155">
        <ele>891.4</ele>
        <time>2026-05-13T18:27:04Z</time>
      </trkpt>
      <trkpt lat="46.0589" lon="5.61545">
        <ele>890.4</ele>
        <time>2026-05-13T18:27:05Z</time>
      </trkpt>
      <trkpt lat="46.05897" lon="5.61538">
        <ele>889.4</ele>
        <time>2026-05-13T18:27:06Z</time>
      </trkpt>
      <trkpt lat="46.05903" lon="5.6153">
        <ele>889</ele>
        <time>2026-05-13T18:27:07Z</time>
      </trkpt>
      <trkpt lat="46.05909" lon="5.61523">
        <ele>888.8</ele>
        <time>2026-05-13T18:27:08Z</time>
      </trkpt>
      <trkpt lat="46.05914" lon="5.61516">
        <ele>888.2</ele>
        <time>2026-05-13T18:27:09Z</time>
      </trkpt>
      <trkpt lat="46.05918" lon="5.61507">
        <ele>887.6</ele>
        <time>2026-05-13T18:27:10Z</time>
      </trkpt>
      <trkpt lat="46.05923" lon="5.61498">
        <ele>886.6</ele>
        <time>2026-05-13T18:27:11Z</time>
      </trkpt>
      <trkpt lat="46.05927" lon="5.61489">
        <ele>886</ele>
        <time>2026-05-13T18:27:12Z</time>
      </trkpt>
      <trkpt lat="46.05931" lon="5.61478">
        <ele>885.4</ele>
        <time>2026-05-13T18:27:13Z</time>
      </trkpt>
      <trkpt lat="46.05934" lon="5.61468">
        <ele>884.6</ele>
        <time>2026-05-13T18:27:14Z</time>
      </trkpt>
      <trkpt lat="46.05936" lon="5.61457">
        <ele>883.8</ele>
        <time>2026-05-13T18:27:15Z</time>
      </trkpt>
      <trkpt lat="46.05938" lon="5.61445">
        <ele>883</ele>
        <time>2026-05-13T18:27:16Z</time>
      </trkpt>
      <trkpt lat="46.05938" lon="5.61433">
        <ele>882.2</ele>
        <time>2026-05-13T18:27:17Z</time>
      </trkpt>
      <trkpt lat="46.05938" lon="5.6142">
        <ele>881.4</ele>
        <time>2026-05-13T18:27:18Z</time>
      </trkpt>
      <trkpt lat="46.05937" lon="5.61406">
        <ele>879.8</ele>
        <time>2026-05-13T18:27:19Z</time>
      </trkpt>
      <trkpt lat="46.05935" lon="5.61392">
        <ele>878.8</ele>
        <time>2026-05-13T18:27:20Z</time>
      </trkpt>
      <trkpt lat="46.05933" lon="5.61378">
        <ele>878</ele>
        <time>2026-05-13T18:27:21Z</time>
      </trkpt>
      <trkpt lat="46.05931" lon="5.61364">
        <ele>876.6</ele>
        <time>2026-05-13T18:27:22Z</time>
      </trkpt>
      <trkpt lat="46.05928" lon="5.61349">
        <ele>875.6</ele>
        <time>2026-05-13T18:27:23Z</time>
      </trkpt>
      <trkpt lat="46.05924" lon="5.61335">
        <ele>873.4</ele>
        <time>2026-05-13T18:27:24Z</time>
      </trkpt>
      <trkpt lat="46.05916" lon="5.61307">
        <ele>872.6</ele>
        <time>2026-05-13T18:27:25Z</time>
      </trkpt>
      <trkpt lat="46.05912" lon="5.61294">
        <ele>872.6</ele>
        <time>2026-05-13T18:27:26Z</time>
      </trkpt>
      <trkpt lat="46.05909" lon="5.61281">
        <ele>872.2</ele>
        <time>2026-05-13T18:27:27Z</time>
      </trkpt>
      <trkpt lat="46.05906" lon="5.61268">
        <ele>871.6</ele>
        <time>2026-05-13T18:27:28Z</time>
      </trkpt>
      <trkpt lat="46.05904" lon="5.61255">
        <ele>871.8</ele>
        <time>2026-05-13T18:27:29Z</time>
      </trkpt>
      <trkpt lat="46.05903" lon="5.61244">
        <ele>871.6</ele>
        <time>2026-05-13T18:27:30Z</time>
      </trkpt>
      <trkpt lat="46.059" lon="5.61234">
        <ele>872.6</ele>
        <time>2026-05-13T18:27:31Z</time>
      </trkpt>
      <trkpt lat="46.05899" lon="5.61223">
        <ele>872.4</ele>
        <time>2026-05-13T18:27:32Z</time>
      </trkpt>
      <trkpt lat="46.05894" lon="5.61213">
        <ele>872.4</ele>
        <time>2026-05-13T18:27:33Z</time>
      </trkpt>
      <trkpt lat="46.0589" lon="5.61205">
        <ele>871.8</ele>
        <time>2026-05-13T18:27:34Z</time>
      </trkpt>
      <trkpt lat="46.05885" lon="5.61198">
        <ele>871.8</ele>
        <time>2026-05-13T18:27:35Z</time>
      </trkpt>
      <trkpt lat="46.0588" lon="5.61189">
        <ele>871.8</ele>
        <time>2026-05-13T18:27:36Z</time>
      </trkpt>
      <trkpt lat="46.05875" lon="5.6118">
        <ele>871.8</ele>
        <time>2026-05-13T18:27:37Z</time>
      </trkpt>
      <trkpt lat="46.0587" lon="5.61169">
        <ele>871</ele>
        <time>2026-05-13T18:27:38Z</time>
      </trkpt>
      <trkpt lat="46.05867" lon="5.61157">
        <ele>870</ele>
        <time>2026-05-13T18:27:39Z</time>
      </trkpt>
      <trkpt lat="46.05863" lon="5.61145">
        <ele>869.4</ele>
        <time>2026-05-13T18:27:40Z</time>
      </trkpt>
      <trkpt lat="46.05861" lon="5.61132">
        <ele>868.6</ele>
        <time>2026-05-13T18:27:41Z</time>
      </trkpt>
      <trkpt lat="46.05857" lon="5.61119">
        <ele>868.2</ele>
        <time>2026-05-13T18:27:42Z</time>
      </trkpt>
      <trkpt lat="46.05853" lon="5.61106">
        <ele>867.8</ele>
        <time>2026-05-13T18:27:43Z</time>
      </trkpt>
      <trkpt lat="46.0585" lon="5.61093">
        <ele>867.4</ele>
        <time>2026-05-13T18:27:44Z</time>
      </trkpt>
      <trkpt lat="46.05846" lon="5.61081">
        <ele>866.6</ele>
        <time>2026-05-13T18:27:45Z</time>
      </trkpt>
      <trkpt lat="46.05844" lon="5.61068">
        <ele>865.8</ele>
        <time>2026-05-13T18:27:46Z</time>
      </trkpt>
      <trkpt lat="46.05843" lon="5.61055">
        <ele>865.8</ele>
        <time>2026-05-13T18:27:47Z</time>
      </trkpt>
      <trkpt lat="46.05843" lon="5.61043">
        <ele>865.8</ele>
        <time>2026-05-13T18:27:48Z</time>
      </trkpt>
      <trkpt lat="46.05844" lon="5.61032">
        <ele>865.8</ele>
        <time>2026-05-13T18:27:49Z</time>
      </trkpt>
      <trkpt lat="46.05846" lon="5.61021">
        <ele>865.6</ele>
        <time>2026-05-13T18:27:50Z</time>
      </trkpt>
      <trkpt lat="46.05848" lon="5.61011">
        <ele>866.6</ele>
        <time>2026-05-13T18:27:51Z</time>
      </trkpt>
      <trkpt lat="46.05849" lon="5.61002">
        <ele>866.8</ele>
        <time>2026-05-13T18:27:52Z</time>
      </trkpt>
      <trkpt lat="46.05851" lon="5.60993">
        <ele>866.8</ele>
        <time>2026-05-13T18:27:53Z</time>
      </trkpt>
      <trkpt lat="46.05853" lon="5.60984">
        <ele>867.2</ele>
        <time>2026-05-13T18:27:54Z</time>
      </trkpt>
      <trkpt lat="46.05855" lon="5.60977">
        <ele>867.2</ele>
        <time>2026-05-13T18:27:55Z</time>
      </trkpt>
      <trkpt lat="46.05856" lon="5.6097">
        <ele>868</ele>
        <time>2026-05-13T18:27:56Z</time>
      </trkpt>
      <trkpt lat="46.05858" lon="5.60963">
        <ele>868.2</ele>
        <time>2026-05-13T18:27:57Z</time>
      </trkpt>
      <trkpt lat="46.05859" lon="5.60957">
        <ele>869</ele>
        <time>2026-05-13T18:27:58Z</time>
      </trkpt>
      <trkpt lat="46.0586" lon="5.60951">
        <ele>869.4</ele>
        <time>2026-05-13T18:27:59Z</time>
      </trkpt>
      <trkpt lat="46.05862" lon="5.60946">
        <ele>869.4</ele>
        <time>2026-05-13T18:28:00Z</time>
      </trkpt>
      <trkpt lat="46.05863" lon="5.60941">
        <ele>869.4</ele>
        <time>2026-05-13T18:28:01Z</time>
      </trkpt>
      <trkpt lat="46.05865" lon="5.60937">
        <ele>869.4</ele>
        <time>2026-05-13T18:28:02Z</time>
      </trkpt>
      <trkpt lat="46.05866" lon="5.60932">
        <ele>869.4</ele>
        <time>2026-05-13T18:28:03Z</time>
      </trkpt>
      <trkpt lat="46.05868" lon="5.60928">
        <ele>869.8</ele>
        <time>2026-05-13T18:28:04Z</time>
      </trkpt>
      <trkpt lat="46.0587" lon="5.60925">
        <ele>869.8</ele>
        <time>2026-05-13T18:28:05Z</time>
      </trkpt>
      <trkpt lat="46.05871" lon="5.60922">
        <ele>869.8</ele>
        <time>2026-05-13T18:28:06Z</time>
      </trkpt>
      <trkpt lat="46.05873" lon="5.6092">
        <ele>869.8</ele>
        <time>2026-05-13T18:28:07Z</time>
      </trkpt>
      <trkpt lat="46.05874" lon="5.60919">
        <ele>870</ele>
        <time>2026-05-13T18:28:08Z</time>
      </trkpt>
      <trkpt lat="46.05875" lon="5.60917">
        <ele>870</ele>
        <time>2026-05-13T18:28:09Z</time>
      </trkpt>
      <trkpt lat="46.05876" lon="5.60914">
        <ele>870</ele>
        <time>2026-05-13T18:28:10Z</time>
      </trkpt>
      <trkpt lat="46.05878" lon="5.60912">
        <ele>870</ele>
        <time>2026-05-13T18:28:11Z</time>
      </trkpt>
      <trkpt lat="46.05879" lon="5.60911">
        <ele>870.4</ele>
        <time>2026-05-13T18:28:12Z</time>
      </trkpt>
      <trkpt lat="46.05881" lon="5.60909">
        <ele>870.4</ele>
        <time>2026-05-13T18:28:13Z</time>
      </trkpt>
      <trkpt lat="46.05883" lon="5.60907">
        <ele>870.4</ele>
        <time>2026-05-13T18:28:14Z</time>
      </trkpt>
      <trkpt lat="46.05885" lon="5.60905">
        <ele>870.6</ele>
        <time>2026-05-13T18:28:15Z</time>
      </trkpt>
      <trkpt lat="46.05886" lon="5.60904">
        <ele>870.6</ele>
        <time>2026-05-13T18:28:16Z</time>
      </trkpt>
      <trkpt lat="46.05888" lon="5.60902">
        <ele>870.8</ele>
        <time>2026-05-13T18:28:17Z</time>
      </trkpt>
      <trkpt lat="46.0589" lon="5.609">
        <ele>870.8</ele>
        <time>2026-05-13T18:28:18Z</time>
      </trkpt>
      <trkpt lat="46.05892" lon="5.60899">
        <ele>870.8</ele>
        <time>2026-05-13T18:28:19Z</time>
      </trkpt>
      <trkpt lat="46.05893" lon="5.60897">
        <ele>870.8</ele>
        <time>2026-05-13T18:28:20Z</time>
      </trkpt>
      <trkpt lat="46.05895" lon="5.60894">
        <ele>871.2</ele>
        <time>2026-05-13T18:28:21Z</time>
      </trkpt>
      <trkpt lat="46.05896" lon="5.60892">
        <ele>871.2</ele>
        <time>2026-05-13T18:28:22Z</time>
      </trkpt>
      <trkpt lat="46.05898" lon="5.60891">
        <ele>871.2</ele>
        <time>2026-05-13T18:28:23Z</time>
      </trkpt>
      <trkpt lat="46.05901" lon="5.60889">
        <ele>871.6</ele>
        <time>2026-05-13T18:28:24Z</time>
      </trkpt>
      <trkpt lat="46.05903" lon="5.60888">
        <ele>871.6</ele>
        <time>2026-05-13T18:28:25Z</time>
      </trkpt>
      <trkpt lat="46.05905" lon="5.60886">
        <ele>871.6</ele>
        <time>2026-05-13T18:28:26Z</time>
      </trkpt>
      <trkpt lat="46.05907" lon="5.60884">
        <ele>871.8</ele>
        <time>2026-05-13T18:28:27Z</time>
      </trkpt>
      <trkpt lat="46.05908" lon="5.60883">
        <ele>872.2</ele>
        <time>2026-05-13T18:28:28Z</time>
      </trkpt>
      <trkpt lat="46.0591" lon="5.60881">
        <ele>872.4</ele>
        <time>2026-05-13T18:28:29Z</time>
      </trkpt>
      <trkpt lat="46.05912" lon="5.60879">
        <ele>872.4</ele>
        <time>2026-05-13T18:28:30Z</time>
      </trkpt>
      <trkpt lat="46.05913" lon="5.60877">
        <ele>872.6</ele>
        <time>2026-05-13T18:28:31Z</time>
      </trkpt>
      <trkpt lat="46.05915" lon="5.60875">
        <ele>872.6</ele>
        <time>2026-05-13T18:28:32Z</time>
      </trkpt>
      <trkpt lat="46.05917" lon="5.60872">
        <ele>873</ele>
        <time>2026-05-13T18:28:33Z</time>
      </trkpt>
      <trkpt lat="46.05918" lon="5.6087">
        <ele>873</ele>
        <time>2026-05-13T18:28:34Z</time>
      </trkpt>
      <trkpt lat="46.0592" lon="5.60867">
        <ele>873.4</ele>
        <time>2026-05-13T18:28:35Z</time>
      </trkpt>
      <trkpt lat="46.05922" lon="5.60865">
        <ele>873.4</ele>
        <time>2026-05-13T18:28:36Z</time>
      </trkpt>
      <trkpt lat="46.05924" lon="5.60862">
        <ele>873.4</ele>
        <time>2026-05-13T18:28:37Z</time>
      </trkpt>
      <trkpt lat="46.05925" lon="5.6086">
        <ele>873.8</ele>
        <time>2026-05-13T18:28:38Z</time>
      </trkpt>
      <trkpt lat="46.05927" lon="5.60857">
        <ele>873.8</ele>
        <time>2026-05-13T18:28:39Z</time>
      </trkpt>
      <trkpt lat="46.05928" lon="5.60855">
        <ele>874</ele>
        <time>2026-05-13T18:28:40Z</time>
      </trkpt>
      <trkpt lat="46.0593" lon="5.60853">
        <ele>874</ele>
        <time>2026-05-13T18:28:41Z</time>
      </trkpt>
      <trkpt lat="46.05931" lon="5.60851">
        <ele>874.2</ele>
        <time>2026-05-13T18:28:42Z</time>
      </trkpt>
      <trkpt lat="46.05932" lon="5.60848">
        <ele>874.2</ele>
        <time>2026-05-13T18:28:43Z</time>
      </trkpt>
      <trkpt lat="46.05933" lon="5.60845">
        <ele>874.4</ele>
        <time>2026-05-13T18:28:44Z</time>
      </trkpt>
      <trkpt lat="46.05934" lon="5.60842">
        <ele>874.4</ele>
        <time>2026-05-13T18:28:45Z</time>
      </trkpt>
      <trkpt lat="46.05935" lon="5.6084">
        <ele>874.4</ele>
        <time>2026-05-13T18:28:46Z</time>
      </trkpt>
      <trkpt lat="46.05936" lon="5.60837">
        <ele>874.6</ele>
        <time>2026-05-13T18:28:47Z</time>
      </trkpt>
      <trkpt lat="46.05937" lon="5.60835">
        <ele>874.6</ele>
        <time>2026-05-13T18:28:48Z</time>
      </trkpt>
      <trkpt lat="46.05938" lon="5.60833">
        <ele>875</ele>
        <time>2026-05-13T18:28:49Z</time>
      </trkpt>
      <trkpt lat="46.05939" lon="5.6083">
        <ele>875</ele>
        <time>2026-05-13T18:28:50Z</time>
      </trkpt>
      <trkpt lat="46.0594" lon="5.60827">
        <ele>875.2</ele>
        <time>2026-05-13T18:28:51Z</time>
      </trkpt>
      <trkpt lat="46.05941" lon="5.60824">
        <ele>875.2</ele>
        <time>2026-05-13T18:28:52Z</time>
      </trkpt>
      <trkpt lat="46.05942" lon="5.60821">
        <ele>875.2</ele>
        <time>2026-05-13T18:28:53Z</time>
      </trkpt>
      <trkpt lat="46.05943" lon="5.60818">
        <ele>875.2</ele>
        <time>2026-05-13T18:28:54Z</time>
      </trkpt>
      <trkpt lat="46.05944" lon="5.60815">
        <ele>875.2</ele>
        <time>2026-05-13T18:28:55Z</time>
      </trkpt>
      <trkpt lat="46.05945" lon="5.60813">
        <ele>875.6</ele>
        <time>2026-05-13T18:28:56Z</time>
      </trkpt>
      <trkpt lat="46.05947" lon="5.6081">
        <ele>875.6</ele>
        <time>2026-05-13T18:28:57Z</time>
      </trkpt>
      <trkpt lat="46.05949" lon="5.60807">
        <ele>875.6</ele>
        <time>2026-05-13T18:28:58Z</time>
      </trkpt>
      <trkpt lat="46.05954" lon="5.60805">
        <ele>875.6</ele>
        <time>2026-05-13T18:28:59Z</time>
      </trkpt>
      <trkpt lat="46.05957" lon="5.60802">
        <ele>875.2</ele>
        <time>2026-05-13T18:29:00Z</time>
      </trkpt>
      <trkpt lat="46.05961" lon="5.608">
        <ele>875</ele>
        <time>2026-05-13T18:29:01Z</time>
      </trkpt>
      <trkpt lat="46.05965" lon="5.60798">
        <ele>874.6</ele>
        <time>2026-05-13T18:29:02Z</time>
      </trkpt>
      <trkpt lat="46.05969" lon="5.60796">
        <ele>874.4</ele>
        <time>2026-05-13T18:29:03Z</time>
      </trkpt>
      <trkpt lat="46.05973" lon="5.60795">
        <ele>874.2</ele>
        <time>2026-05-13T18:29:04Z</time>
      </trkpt>
      <trkpt lat="46.05976" lon="5.60794">
        <ele>873.8</ele>
        <time>2026-05-13T18:29:05Z</time>
      </trkpt>
      <trkpt lat="46.05979" lon="5.60793">
        <ele>873.8</ele>
        <time>2026-05-13T18:29:06Z</time>
      </trkpt>
      <trkpt lat="46.05983" lon="5.60791">
        <ele>873.8</ele>
        <time>2026-05-13T18:29:07Z</time>
      </trkpt>
      <trkpt lat="46.05986" lon="5.60789">
        <ele>873.8</ele>
        <time>2026-05-13T18:29:08Z</time>
      </trkpt>
      <trkpt lat="46.05989" lon="5.60787">
        <ele>873.6</ele>
        <time>2026-05-13T18:29:09Z</time>
      </trkpt>
      <trkpt lat="46.05993" lon="5.60786">
        <ele>873.4</ele>
        <time>2026-05-13T18:29:10Z</time>
      </trkpt>
      <trkpt lat="46.05998" lon="5.60785">
        <ele>873.2</ele>
        <time>2026-05-13T18:29:11Z</time>
      </trkpt>
      <trkpt lat="46.05998" lon="5.60785">
        <ele>872.6</ele>
        <time>2026-05-13T18:29:12Z</time>
      </trkpt>
      <trkpt lat="46.06002" lon="5.60785">
        <ele>872.6</ele>
        <time>2026-05-13T18:29:13Z</time>
      </trkpt>
      <trkpt lat="46.06007" lon="5.60784">
        <ele>872.6</ele>
        <time>2026-05-13T18:29:14Z</time>
      </trkpt>
      <trkpt lat="46.06011" lon="5.60784">
        <ele>872.6</ele>
        <time>2026-05-13T18:29:15Z</time>
      </trkpt>
      <trkpt lat="46.06014" lon="5.60784">
        <ele>872.4</ele>
        <time>2026-05-13T18:29:16Z</time>
      </trkpt>
      <trkpt lat="46.06018" lon="5.60784">
        <ele>872.4</ele>
        <time>2026-05-13T18:29:17Z</time>
      </trkpt>
      <trkpt lat="46.06021" lon="5.60783">
        <ele>872.2</ele>
        <time>2026-05-13T18:29:18Z</time>
      </trkpt>
      <trkpt lat="46.06024" lon="5.60781">
        <ele>872.2</ele>
        <time>2026-05-13T18:29:19Z</time>
      </trkpt>
      <trkpt lat="46.06028" lon="5.60778">
        <ele>871.8</ele>
        <time>2026-05-13T18:29:20Z</time>
      </trkpt>
      <trkpt lat="46.06031" lon="5.60774">
        <ele>871.4</ele>
        <time>2026-05-13T18:29:21Z</time>
      </trkpt>
      <trkpt lat="46.06034" lon="5.60768">
        <ele>871.4</ele>
        <time>2026-05-13T18:29:22Z</time>
      </trkpt>
      <trkpt lat="46.06035" lon="5.60761">
        <ele>870.8</ele>
        <time>2026-05-13T18:29:23Z</time>
      </trkpt>
      <trkpt lat="46.06036" lon="5.60753">
        <ele>870.4</ele>
        <time>2026-05-13T18:29:24Z</time>
      </trkpt>
      <trkpt lat="46.06036" lon="5.60745">
        <ele>870.4</ele>
        <time>2026-05-13T18:29:25Z</time>
      </trkpt>
      <trkpt lat="46.06036" lon="5.60737">
        <ele>870.4</ele>
        <time>2026-05-13T18:29:26Z</time>
      </trkpt>
      <trkpt lat="46.06034" lon="5.6073">
        <ele>870.4</ele>
        <time>2026-05-13T18:29:27Z</time>
      </trkpt>
      <trkpt lat="46.06032" lon="5.60725">
        <ele>870.4</ele>
        <time>2026-05-13T18:29:28Z</time>
      </trkpt>
      <trkpt lat="46.06031" lon="5.60718">
        <ele>870.4</ele>
        <time>2026-05-13T18:29:29Z</time>
      </trkpt>
      <trkpt lat="46.06029" lon="5.60712">
        <ele>870.4</ele>
        <time>2026-05-13T18:29:30Z</time>
      </trkpt>
      <trkpt lat="46.06028" lon="5.60705">
        <ele>870.4</ele>
        <time>2026-05-13T18:29:31Z</time>
      </trkpt>
      <trkpt lat="46.06028" lon="5.60699">
        <ele>870</ele>
        <time>2026-05-13T18:29:32Z</time>
      </trkpt>
      <trkpt lat="46.06027" lon="5.60693">
        <ele>870</ele>
        <time>2026-05-13T18:29:33Z</time>
      </trkpt>
      <trkpt lat="46.06026" lon="5.60687">
        <ele>870.4</ele>
        <time>2026-05-13T18:29:34Z</time>
      </trkpt>
      <trkpt lat="46.06026" lon="5.60683">
        <ele>870.4</ele>
        <time>2026-05-13T18:29:35Z</time>
      </trkpt>
      <trkpt lat="46.06025" lon="5.60678">
        <ele>870.4</ele>
        <time>2026-05-13T18:29:36Z</time>
      </trkpt>
      <trkpt lat="46.06025" lon="5.60674">
        <ele>870.4</ele>
        <time>2026-05-13T18:29:37Z</time>
      </trkpt>
      <trkpt lat="46.06025" lon="5.6067">
        <ele>870.4</ele>
        <time>2026-05-13T18:29:38Z</time>
      </trkpt>
      <trkpt lat="46.06025" lon="5.60667">
        <ele>871.2</ele>
        <time>2026-05-13T18:29:39Z</time>
      </trkpt>
      <trkpt lat="46.06024" lon="5.60664">
        <ele>871.4</ele>
        <time>2026-05-13T18:29:40Z</time>
      </trkpt>
      <trkpt lat="46.06024" lon="5.6066">
        <ele>871.4</ele>
        <time>2026-05-13T18:29:41Z</time>
      </trkpt>
      <trkpt lat="46.06024" lon="5.60657">
        <ele>871.4</ele>
        <time>2026-05-13T18:29:42Z</time>
      </trkpt>
      <trkpt lat="46.06024" lon="5.60654">
        <ele>871.6</ele>
        <time>2026-05-13T18:29:43Z</time>
      </trkpt>
      <trkpt lat="46.06024" lon="5.6065">
        <ele>871.6</ele>
        <time>2026-05-13T18:29:44Z</time>
      </trkpt>
      <trkpt lat="46.06024" lon="5.60646">
        <ele>871.6</ele>
        <time>2026-05-13T18:29:45Z</time>
      </trkpt>
      <trkpt lat="46.06024" lon="5.60643">
        <ele>871.8</ele>
        <time>2026-05-13T18:29:46Z</time>
      </trkpt>
      <trkpt lat="46.06024" lon="5.6064">
        <ele>871.8</ele>
        <time>2026-05-13T18:29:47Z</time>
      </trkpt>
      <trkpt lat="46.06024" lon="5.60636">
        <ele>872.2</ele>
        <time>2026-05-13T18:29:48Z</time>
      </trkpt>
      <trkpt lat="46.06025" lon="5.60633">
        <ele>872.2</ele>
        <time>2026-05-13T18:29:49Z</time>
      </trkpt>
      <trkpt lat="46.06025" lon="5.6063">
        <ele>872.2</ele>
        <time>2026-05-13T18:29:50Z</time>
      </trkpt>
      <trkpt lat="46.06025" lon="5.60627">
        <ele>872.2</ele>
        <time>2026-05-13T18:29:51Z</time>
      </trkpt>
      <trkpt lat="46.06026" lon="5.60624">
        <ele>872.2</ele>
        <time>2026-05-13T18:29:52Z</time>
      </trkpt>
      <trkpt lat="46.06027" lon="5.60622">
        <ele>872.4</ele>
        <time>2026-05-13T18:29:53Z</time>
      </trkpt>
      <trkpt lat="46.06027" lon="5.60621">
        <ele>872.4</ele>
        <time>2026-05-13T18:29:54Z</time>
      </trkpt>
      <trkpt lat="46.06028" lon="5.60619">
        <ele>872.4</ele>
        <time>2026-05-13T18:29:55Z</time>
      </trkpt>
      <trkpt lat="46.06029" lon="5.60615">
        <ele>872.4</ele>
        <time>2026-05-13T18:29:56Z</time>
      </trkpt>
      <trkpt lat="46.06029" lon="5.60612">
        <ele>872.4</ele>
        <time>2026-05-13T18:29:57Z</time>
      </trkpt>
      <trkpt lat="46.06027" lon="5.60609">
        <ele>872</ele>
        <time>2026-05-13T18:29:58Z</time>
      </trkpt>
      <trkpt lat="46.06025" lon="5.60606">
        <ele>872</ele>
        <time>2026-05-13T18:29:59Z</time>
      </trkpt>
      <trkpt lat="46.06022" lon="5.60604">
        <ele>872</ele>
        <time>2026-05-13T18:30:00Z</time>
      </trkpt>
      <trkpt lat="46.06019" lon="5.60602">
        <ele>872</ele>
        <time>2026-05-13T18:30:01Z</time>
      </trkpt>
      <trkpt lat="46.06016" lon="5.60601">
        <ele>872</ele>
        <time>2026-05-13T18:30:02Z</time>
      </trkpt>
      <trkpt lat="46.06012" lon="5.60599">
        <ele>872</ele>
        <time>2026-05-13T18:30:03Z</time>
      </trkpt>
      <trkpt lat="46.0601" lon="5.60597">
        <ele>872</ele>
        <time>2026-05-13T18:30:04Z</time>
      </trkpt>
      <trkpt lat="46.06007" lon="5.60594">
        <ele>872</ele>
        <time>2026-05-13T18:30:05Z</time>
      </trkpt>
      <trkpt lat="46.06004" lon="5.60591">
        <ele>872</ele>
        <time>2026-05-13T18:30:06Z</time>
      </trkpt>
      <trkpt lat="46.06002" lon="5.60589">
        <ele>871.8</ele>
        <time>2026-05-13T18:30:07Z</time>
      </trkpt>
      <trkpt lat="46.05999" lon="5.60587">
        <ele>871.8</ele>
        <time>2026-05-13T18:30:08Z</time>
      </trkpt>
      <trkpt lat="46.05996" lon="5.60584">
        <ele>871.8</ele>
        <time>2026-05-13T18:30:09Z</time>
      </trkpt>
      <trkpt lat="46.05994" lon="5.60581">
        <ele>871.8</ele>
        <time>2026-05-13T18:30:10Z</time>
      </trkpt>
      <trkpt lat="46.05991" lon="5.60578">
        <ele>871.8</ele>
        <time>2026-05-13T18:30:11Z</time>
      </trkpt>
      <trkpt lat="46.05988" lon="5.60575">
        <ele>871.8</ele>
        <time>2026-05-13T18:30:12Z</time>
      </trkpt>
      <trkpt lat="46.05986" lon="5.60572">
        <ele>871.8</ele>
        <time>2026-05-13T18:30:13Z</time>
      </trkpt>
      <trkpt lat="46.05983" lon="5.6057">
        <ele>871.6</ele>
        <time>2026-05-13T18:30:14Z</time>
      </trkpt>
      <trkpt lat="46.0598" lon="5.60567">
        <ele>871.6</ele>
        <time>2026-05-13T18:30:15Z</time>
      </trkpt>
      <trkpt lat="46.05977" lon="5.60565">
        <ele>871.4</ele>
        <time>2026-05-13T18:30:16Z</time>
      </trkpt>
      <trkpt lat="46.05974" lon="5.60563">
        <ele>871.4</ele>
        <time>2026-05-13T18:30:17Z</time>
      </trkpt>
      <trkpt lat="46.05971" lon="5.60561">
        <ele>871.4</ele>
        <time>2026-05-13T18:30:18Z</time>
      </trkpt>
      <trkpt lat="46.05968" lon="5.60559">
        <ele>871.4</ele>
        <time>2026-05-13T18:30:19Z</time>
      </trkpt>
      <trkpt lat="46.05965" lon="5.60557">
        <ele>871.4</ele>
        <time>2026-05-13T18:30:20Z</time>
      </trkpt>
      <trkpt lat="46.05962" lon="5.60555">
        <ele>871.4</ele>
        <time>2026-05-13T18:30:21Z</time>
      </trkpt>
      <trkpt lat="46.05958" lon="5.60553">
        <ele>871.4</ele>
        <time>2026-05-13T18:30:22Z</time>
      </trkpt>
      <trkpt lat="46.05955" lon="5.6055">
        <ele>871.4</ele>
        <time>2026-05-13T18:30:23Z</time>
      </trkpt>
      <trkpt lat="46.05952" lon="5.60548">
        <ele>871.4</ele>
        <time>2026-05-13T18:30:24Z</time>
      </trkpt>
      <trkpt lat="46.05949" lon="5.60546">
        <ele>871</ele>
        <time>2026-05-13T18:30:25Z</time>
      </trkpt>
      <trkpt lat="46.05945" lon="5.60544">
        <ele>871</ele>
        <time>2026-05-13T18:30:26Z</time>
      </trkpt>
      <trkpt lat="46.05942" lon="5.60541">
        <ele>870.8</ele>
        <time>2026-05-13T18:30:27Z</time>
      </trkpt>
      <trkpt lat="46.05938" lon="5.60537">
        <ele>870.8</ele>
        <time>2026-05-13T18:30:28Z</time>
      </trkpt>
      <trkpt lat="46.05935" lon="5.60534">
        <ele>870.2</ele>
        <time>2026-05-13T18:30:29Z</time>
      </trkpt>
      <trkpt lat="46.05931" lon="5.60532">
        <ele>870.2</ele>
        <time>2026-05-13T18:30:30Z</time>
      </trkpt>
      <trkpt lat="46.05927" lon="5.60529">
        <ele>870</ele>
        <time>2026-05-13T18:30:31Z</time>
      </trkpt>
      <trkpt lat="46.05923" lon="5.60527">
        <ele>870</ele>
        <time>2026-05-13T18:30:32Z</time>
      </trkpt>
      <trkpt lat="46.05919" lon="5.60523">
        <ele>869.6</ele>
        <time>2026-05-13T18:30:33Z</time>
      </trkpt>
      <trkpt lat="46.05914" lon="5.60521">
        <ele>869.6</ele>
        <time>2026-05-13T18:30:34Z</time>
      </trkpt>
      <trkpt lat="46.0591" lon="5.60518">
        <ele>869.6</ele>
        <time>2026-05-13T18:30:35Z</time>
      </trkpt>
      <trkpt lat="46.05905" lon="5.60516">
        <ele>869.4</ele>
        <time>2026-05-13T18:30:36Z</time>
      </trkpt>
      <trkpt lat="46.059" lon="5.60513">
        <ele>869</ele>
        <time>2026-05-13T18:30:37Z</time>
      </trkpt>
      <trkpt lat="46.05896" lon="5.60512">
        <ele>869</ele>
        <time>2026-05-13T18:30:38Z</time>
      </trkpt>
      <trkpt lat="46.05891" lon="5.60508">
        <ele>868.8</ele>
        <time>2026-05-13T18:30:39Z</time>
      </trkpt>
      <trkpt lat="46.05887" lon="5.60503">
        <ele>868.8</ele>
        <time>2026-05-13T18:30:40Z</time>
      </trkpt>
      <trkpt lat="46.05882" lon="5.60501">
        <ele>868.6</ele>
        <time>2026-05-13T18:30:41Z</time>
      </trkpt>
      <trkpt lat="46.05877" lon="5.60496">
        <ele>868.2</ele>
        <time>2026-05-13T18:30:42Z</time>
      </trkpt>
      <trkpt lat="46.05872" lon="5.60494">
        <ele>868</ele>
        <time>2026-05-13T18:30:43Z</time>
      </trkpt>
      <trkpt lat="46.05867" lon="5.6049">
        <ele>867.6</ele>
        <time>2026-05-13T18:30:44Z</time>
      </trkpt>
      <trkpt lat="46.05862" lon="5.60486">
        <ele>867.2</ele>
        <time>2026-05-13T18:30:45Z</time>
      </trkpt>
      <trkpt lat="46.05856" lon="5.60483">
        <ele>867.2</ele>
        <time>2026-05-13T18:30:46Z</time>
      </trkpt>
      <trkpt lat="46.05851" lon="5.60481">
        <ele>867</ele>
        <time>2026-05-13T18:30:47Z</time>
      </trkpt>
      <trkpt lat="46.05846" lon="5.60477">
        <ele>867</ele>
        <time>2026-05-13T18:30:48Z</time>
      </trkpt>
      <trkpt lat="46.0584" lon="5.60474">
        <ele>866.8</ele>
        <time>2026-05-13T18:30:49Z</time>
      </trkpt>
      <trkpt lat="46.05834" lon="5.60471">
        <ele>866.8</ele>
        <time>2026-05-13T18:30:50Z</time>
      </trkpt>
      <trkpt lat="46.05828" lon="5.60468">
        <ele>866.8</ele>
        <time>2026-05-13T18:30:51Z</time>
      </trkpt>
      <trkpt lat="46.05823" lon="5.60465">
        <ele>866.8</ele>
        <time>2026-05-13T18:30:52Z</time>
      </trkpt>
      <trkpt lat="46.05818" lon="5.60461">
        <ele>866.4</ele>
        <time>2026-05-13T18:30:53Z</time>
      </trkpt>
      <trkpt lat="46.05812" lon="5.60459">
        <ele>866.2</ele>
        <time>2026-05-13T18:30:54Z</time>
      </trkpt>
      <trkpt lat="46.05806" lon="5.60455">
        <ele>866.2</ele>
        <time>2026-05-13T18:30:55Z</time>
      </trkpt>
      <trkpt lat="46.05801" lon="5.60452">
        <ele>866.2</ele>
        <time>2026-05-13T18:30:56Z</time>
      </trkpt>
      <trkpt lat="46.05796" lon="5.60449">
        <ele>866</ele>
        <time>2026-05-13T18:30:57Z</time>
      </trkpt>
      <trkpt lat="46.05791" lon="5.60446">
        <ele>866</ele>
        <time>2026-05-13T18:30:58Z</time>
      </trkpt>
      <trkpt lat="46.05785" lon="5.60442">
        <ele>865.8</ele>
        <time>2026-05-13T18:30:59Z</time>
      </trkpt>
      <trkpt lat="46.05779" lon="5.60439">
        <ele>865.8</ele>
        <time>2026-05-13T18:31:00Z</time>
      </trkpt>
      <trkpt lat="46.05774" lon="5.60437">
        <ele>865.8</ele>
        <time>2026-05-13T18:31:01Z</time>
      </trkpt>
      <trkpt lat="46.05768" lon="5.60435">
        <ele>865.2</ele>
        <time>2026-05-13T18:31:02Z</time>
      </trkpt>
      <trkpt lat="46.05762" lon="5.60433">
        <ele>865.2</ele>
        <time>2026-05-13T18:31:03Z</time>
      </trkpt>
      <trkpt lat="46.05752" lon="5.60429">
        <ele>865.2</ele>
        <time>2026-05-13T18:31:04Z</time>
      </trkpt>
      <trkpt lat="46.05748" lon="5.60428">
        <ele>865.4</ele>
        <time>2026-05-13T18:31:05Z</time>
      </trkpt>
      <trkpt lat="46.05743" lon="5.60425">
        <ele>865.4</ele>
        <time>2026-05-13T18:31:06Z</time>
      </trkpt>
      <trkpt lat="46.05739" lon="5.60421">
        <ele>865.4</ele>
        <time>2026-05-13T18:31:07Z</time>
      </trkpt>
      <trkpt lat="46.05735" lon="5.60418">
        <ele>865.4</ele>
        <time>2026-05-13T18:31:08Z</time>
      </trkpt>
      <trkpt lat="46.0573" lon="5.60417">
        <ele>865.4</ele>
        <time>2026-05-13T18:31:09Z</time>
      </trkpt>
      <trkpt lat="46.05726" lon="5.60414">
        <ele>865</ele>
        <time>2026-05-13T18:31:10Z</time>
      </trkpt>
      <trkpt lat="46.05721" lon="5.60411">
        <ele>865</ele>
        <time>2026-05-13T18:31:11Z</time>
      </trkpt>
      <trkpt lat="46.05717" lon="5.60409">
        <ele>865</ele>
        <time>2026-05-13T18:31:12Z</time>
      </trkpt>
      <trkpt lat="46.05711" lon="5.60407">
        <ele>865.2</ele>
        <time>2026-05-13T18:31:13Z</time>
      </trkpt>
      <trkpt lat="46.05706" lon="5.60404">
        <ele>865.4</ele>
        <time>2026-05-13T18:31:14Z</time>
      </trkpt>
      <trkpt lat="46.05701" lon="5.60402">
        <ele>865.4</ele>
        <time>2026-05-13T18:31:15Z</time>
      </trkpt>
      <trkpt lat="46.05696" lon="5.60399">
        <ele>865.4</ele>
        <time>2026-05-13T18:31:16Z</time>
      </trkpt>
      <trkpt lat="46.05691" lon="5.60396">
        <ele>865.4</ele>
        <time>2026-05-13T18:31:17Z</time>
      </trkpt>
      <trkpt lat="46.05686" lon="5.60393">
        <ele>865.4</ele>
        <time>2026-05-13T18:31:18Z</time>
      </trkpt>
      <trkpt lat="46.05681" lon="5.60391">
        <ele>865.4</ele>
        <time>2026-05-13T18:31:19Z</time>
      </trkpt>
      <trkpt lat="46.05676" lon="5.60388">
        <ele>865.2</ele>
        <time>2026-05-13T18:31:20Z</time>
      </trkpt>
      <trkpt lat="46.05671" lon="5.60385">
        <ele>865.2</ele>
        <time>2026-05-13T18:31:21Z</time>
      </trkpt>
      <trkpt lat="46.05666" lon="5.60383">
        <ele>865.2</ele>
        <time>2026-05-13T18:31:22Z</time>
      </trkpt>
      <trkpt lat="46.05662" lon="5.6038">
        <ele>865.2</ele>
        <time>2026-05-13T18:31:23Z</time>
      </trkpt>
      <trkpt lat="46.05658" lon="5.60379">
        <ele>865.4</ele>
        <time>2026-05-13T18:31:24Z</time>
      </trkpt>
      <trkpt lat="46.05654" lon="5.60377">
        <ele>865.4</ele>
        <time>2026-05-13T18:31:25Z</time>
      </trkpt>
      <trkpt lat="46.0565" lon="5.60374">
        <ele>865.6</ele>
        <time>2026-05-13T18:31:26Z</time>
      </trkpt>
      <trkpt lat="46.05645" lon="5.60371">
        <ele>865.4</ele>
        <time>2026-05-13T18:31:27Z</time>
      </trkpt>
      <trkpt lat="46.0564" lon="5.60369">
        <ele>865.4</ele>
        <time>2026-05-13T18:31:28Z</time>
      </trkpt>
      <trkpt lat="46.05637" lon="5.60367">
        <ele>865.6</ele>
        <time>2026-05-13T18:31:29Z</time>
      </trkpt>
      <trkpt lat="46.05632" lon="5.60365">
        <ele>865.6</ele>
        <time>2026-05-13T18:31:30Z</time>
      </trkpt>
      <trkpt lat="46.05629" lon="5.60363">
        <ele>865.8</ele>
        <time>2026-05-13T18:31:31Z</time>
      </trkpt>
      <trkpt lat="46.05625" lon="5.6036">
        <ele>865.8</ele>
        <time>2026-05-13T18:31:32Z</time>
      </trkpt>
      <trkpt lat="46.05621" lon="5.60358">
        <ele>865.8</ele>
        <time>2026-05-13T18:31:33Z</time>
      </trkpt>
      <trkpt lat="46.05617" lon="5.60356">
        <ele>865.8</ele>
        <time>2026-05-13T18:31:34Z</time>
      </trkpt>
      <trkpt lat="46.05612" lon="5.60354">
        <ele>865.8</ele>
        <time>2026-05-13T18:31:35Z</time>
      </trkpt>
      <trkpt lat="46.05609" lon="5.60352">
        <ele>865.8</ele>
        <time>2026-05-13T18:31:36Z</time>
      </trkpt>
      <trkpt lat="46.05605" lon="5.6035">
        <ele>865.8</ele>
        <time>2026-05-13T18:31:37Z</time>
      </trkpt>
      <trkpt lat="46.05601" lon="5.60348">
        <ele>865.8</ele>
        <time>2026-05-13T18:31:38Z</time>
      </trkpt>
      <trkpt lat="46.05598" lon="5.60346">
        <ele>865.8</ele>
        <time>2026-05-13T18:31:39Z</time>
      </trkpt>
      <trkpt lat="46.05595" lon="5.60344">
        <ele>865.8</ele>
        <time>2026-05-13T18:31:40Z</time>
      </trkpt>
      <trkpt lat="46.05591" lon="5.60342">
        <ele>865.8</ele>
        <time>2026-05-13T18:31:41Z</time>
      </trkpt>
      <trkpt lat="46.05587" lon="5.6034">
        <ele>866.2</ele>
        <time>2026-05-13T18:31:42Z</time>
      </trkpt>
      <trkpt lat="46.05584" lon="5.60338">
        <ele>866.2</ele>
        <time>2026-05-13T18:31:43Z</time>
      </trkpt>
      <trkpt lat="46.0558" lon="5.60336">
        <ele>866.2</ele>
        <time>2026-05-13T18:31:44Z</time>
      </trkpt>
      <trkpt lat="46.05576" lon="5.60334">
        <ele>866.2</ele>
        <time>2026-05-13T18:31:45Z</time>
      </trkpt>
      <trkpt lat="46.05572" lon="5.60332">
        <ele>866.2</ele>
        <time>2026-05-13T18:31:46Z</time>
      </trkpt>
      <trkpt lat="46.05569" lon="5.6033">
        <ele>866.2</ele>
        <time>2026-05-13T18:31:47Z</time>
      </trkpt>
      <trkpt lat="46.05565" lon="5.60328">
        <ele>866.2</ele>
        <time>2026-05-13T18:31:48Z</time>
      </trkpt>
      <trkpt lat="46.05561" lon="5.60326">
        <ele>866.4</ele>
        <time>2026-05-13T18:31:49Z</time>
      </trkpt>
      <trkpt lat="46.05558" lon="5.60323">
        <ele>866.4</ele>
        <time>2026-05-13T18:31:50Z</time>
      </trkpt>
      <trkpt lat="46.05554" lon="5.60321">
        <ele>866</ele>
        <time>2026-05-13T18:31:51Z</time>
      </trkpt>
      <trkpt lat="46.0555" lon="5.60319">
        <ele>866</ele>
        <time>2026-05-13T18:31:52Z</time>
      </trkpt>
      <trkpt lat="46.05546" lon="5.60317">
        <ele>866</ele>
        <time>2026-05-13T18:31:53Z</time>
      </trkpt>
      <trkpt lat="46.05542" lon="5.60315">
        <ele>866</ele>
        <time>2026-05-13T18:31:54Z</time>
      </trkpt>
      <trkpt lat="46.05538" lon="5.60313">
        <ele>865.8</ele>
        <time>2026-05-13T18:31:55Z</time>
      </trkpt>
      <trkpt lat="46.05533" lon="5.60311">
        <ele>865.8</ele>
        <time>2026-05-13T18:31:56Z</time>
      </trkpt>
      <trkpt lat="46.05529" lon="5.60309">
        <ele>866</ele>
        <time>2026-05-13T18:31:57Z</time>
      </trkpt>
      <trkpt lat="46.05524" lon="5.60306">
        <ele>866</ele>
        <time>2026-05-13T18:31:58Z</time>
      </trkpt>
      <trkpt lat="46.0552" lon="5.60303">
        <ele>865.8</ele>
        <time>2026-05-13T18:31:59Z</time>
      </trkpt>
      <trkpt lat="46.05516" lon="5.60301">
        <ele>865.6</ele>
        <time>2026-05-13T18:32:00Z</time>
      </trkpt>
      <trkpt lat="46.05511" lon="5.60299">
        <ele>865.6</ele>
        <time>2026-05-13T18:32:01Z</time>
      </trkpt>
      <trkpt lat="46.05507" lon="5.60296">
        <ele>865.2</ele>
        <time>2026-05-13T18:32:02Z</time>
      </trkpt>
      <trkpt lat="46.05502" lon="5.60294">
        <ele>865.2</ele>
        <time>2026-05-13T18:32:03Z</time>
      </trkpt>
      <trkpt lat="46.05498" lon="5.60291">
        <ele>864.8</ele>
        <time>2026-05-13T18:32:04Z</time>
      </trkpt>
      <trkpt lat="46.05493" lon="5.60289">
        <ele>864.8</ele>
        <time>2026-05-13T18:32:05Z</time>
      </trkpt>
      <trkpt lat="46.05488" lon="5.60286">
        <ele>864.6</ele>
        <time>2026-05-13T18:32:06Z</time>
      </trkpt>
      <trkpt lat="46.05483" lon="5.60285">
        <ele>864.6</ele>
        <time>2026-05-13T18:32:07Z</time>
      </trkpt>
      <trkpt lat="46.05478" lon="5.60283">
        <ele>864.4</ele>
        <time>2026-05-13T18:32:08Z</time>
      </trkpt>
      <trkpt lat="46.05473" lon="5.6028">
        <ele>864.4</ele>
        <time>2026-05-13T18:32:09Z</time>
      </trkpt>
      <trkpt lat="46.05468" lon="5.60276">
        <ele>864.4</ele>
        <time>2026-05-13T18:32:10Z</time>
      </trkpt>
      <trkpt lat="46.05462" lon="5.60275">
        <ele>864.2</ele>
        <time>2026-05-13T18:32:11Z</time>
      </trkpt>
      <trkpt lat="46.05458" lon="5.60271">
        <ele>864.2</ele>
        <time>2026-05-13T18:32:12Z</time>
      </trkpt>
      <trkpt lat="46.05453" lon="5.60269">
        <ele>864.2</ele>
        <time>2026-05-13T18:32:13Z</time>
      </trkpt>
      <trkpt lat="46.05448" lon="5.60266">
        <ele>864.2</ele>
        <time>2026-05-13T18:32:14Z</time>
      </trkpt>
      <trkpt lat="46.05443" lon="5.60265">
        <ele>863.8</ele>
        <time>2026-05-13T18:32:15Z</time>
      </trkpt>
      <trkpt lat="46.05438" lon="5.60262">
        <ele>863.8</ele>
        <time>2026-05-13T18:32:16Z</time>
      </trkpt>
      <trkpt lat="46.05432" lon="5.6026">
        <ele>863.6</ele>
        <time>2026-05-13T18:32:17Z</time>
      </trkpt>
      <trkpt lat="46.05427" lon="5.60258">
        <ele>863.4</ele>
        <time>2026-05-13T18:32:18Z</time>
      </trkpt>
      <trkpt lat="46.05421" lon="5.60256">
        <ele>863.4</ele>
        <time>2026-05-13T18:32:19Z</time>
      </trkpt>
      <trkpt lat="46.05415" lon="5.60254">
        <ele>863.4</ele>
        <time>2026-05-13T18:32:20Z</time>
      </trkpt>
      <trkpt lat="46.05409" lon="5.60253">
        <ele>863.4</ele>
        <time>2026-05-13T18:32:21Z</time>
      </trkpt>
      <trkpt lat="46.05403" lon="5.60251">
        <ele>863.4</ele>
        <time>2026-05-13T18:32:22Z</time>
      </trkpt>
      <trkpt lat="46.05397" lon="5.6025">
        <ele>863.4</ele>
        <time>2026-05-13T18:32:23Z</time>
      </trkpt>
      <trkpt lat="46.05391" lon="5.6025">
        <ele>863</ele>
        <time>2026-05-13T18:32:24Z</time>
      </trkpt>
      <trkpt lat="46.05386" lon="5.6025">
        <ele>862.6</ele>
        <time>2026-05-13T18:32:25Z</time>
      </trkpt>
      <trkpt lat="46.0538" lon="5.6025">
        <ele>863</ele>
        <time>2026-05-13T18:32:26Z</time>
      </trkpt>
      <trkpt lat="46.05375" lon="5.6025">
        <ele>863</ele>
        <time>2026-05-13T18:32:27Z</time>
      </trkpt>
      <trkpt lat="46.0537" lon="5.6025">
        <ele>863</ele>
        <time>2026-05-13T18:32:28Z</time>
      </trkpt>
      <trkpt lat="46.05364" lon="5.60251">
        <ele>863.4</ele>
        <time>2026-05-13T18:32:29Z</time>
      </trkpt>
      <trkpt lat="46.05359" lon="5.60251">
        <ele>863.4</ele>
        <time>2026-05-13T18:32:30Z</time>
      </trkpt>
      <trkpt lat="46.05353" lon="5.60252">
        <ele>863.4</ele>
        <time>2026-05-13T18:32:31Z</time>
      </trkpt>
      <trkpt lat="46.05348" lon="5.60253">
        <ele>863.4</ele>
        <time>2026-05-13T18:32:32Z</time>
      </trkpt>
      <trkpt lat="46.05342" lon="5.60254">
        <ele>863.4</ele>
        <time>2026-05-13T18:32:33Z</time>
      </trkpt>
      <trkpt lat="46.05336" lon="5.60256">
        <ele>863.4</ele>
        <time>2026-05-13T18:32:34Z</time>
      </trkpt>
      <trkpt lat="46.05331" lon="5.60256">
        <ele>863.4</ele>
        <time>2026-05-13T18:32:35Z</time>
      </trkpt>
      <trkpt lat="46.05327" lon="5.60255">
        <ele>863.4</ele>
        <time>2026-05-13T18:32:36Z</time>
      </trkpt>
      <trkpt lat="46.05321" lon="5.60253">
        <ele>863.4</ele>
        <time>2026-05-13T18:32:37Z</time>
      </trkpt>
      <trkpt lat="46.05316" lon="5.60252">
        <ele>863.4</ele>
        <time>2026-05-13T18:32:38Z</time>
      </trkpt>
      <trkpt lat="46.0531" lon="5.60252">
        <ele>863.4</ele>
        <time>2026-05-13T18:32:39Z</time>
      </trkpt>
      <trkpt lat="46.05304" lon="5.60252">
        <ele>863.4</ele>
        <time>2026-05-13T18:32:40Z</time>
      </trkpt>
      <trkpt lat="46.05299" lon="5.60253">
        <ele>863.4</ele>
        <time>2026-05-13T18:32:41Z</time>
      </trkpt>
      <trkpt lat="46.05294" lon="5.60253">
        <ele>863.4</ele>
        <time>2026-05-13T18:32:42Z</time>
      </trkpt>
      <trkpt lat="46.05289" lon="5.60254">
        <ele>863.4</ele>
        <time>2026-05-13T18:32:43Z</time>
      </trkpt>
      <trkpt lat="46.05284" lon="5.60254">
        <ele>863.4</ele>
        <time>2026-05-13T18:32:44Z</time>
      </trkpt>
      <trkpt lat="46.05279" lon="5.60255">
        <ele>863.6</ele>
        <time>2026-05-13T18:32:45Z</time>
      </trkpt>
      <trkpt lat="46.05274" lon="5.60255">
        <ele>863.6</ele>
        <time>2026-05-13T18:32:46Z</time>
      </trkpt>
      <trkpt lat="46.05269" lon="5.60255">
        <ele>863.8</ele>
        <time>2026-05-13T18:32:47Z</time>
      </trkpt>
      <trkpt lat="46.05264" lon="5.60255">
        <ele>863.8</ele>
        <time>2026-05-13T18:32:48Z</time>
      </trkpt>
      <trkpt lat="46.0526" lon="5.60255">
        <ele>863.8</ele>
        <time>2026-05-13T18:32:49Z</time>
      </trkpt>
      <trkpt lat="46.05255" lon="5.60256">
        <ele>863.8</ele>
        <time>2026-05-13T18:32:50Z</time>
      </trkpt>
      <trkpt lat="46.0525" lon="5.60256">
        <ele>863.8</ele>
        <time>2026-05-13T18:32:51Z</time>
      </trkpt>
      <trkpt lat="46.0525" lon="5.60256">
        <ele>864</ele>
        <time>2026-05-13T18:32:52Z</time>
      </trkpt>
      <trkpt lat="46.05245" lon="5.60256">
        <ele>864.4</ele>
        <time>2026-05-13T18:32:53Z</time>
      </trkpt>
      <trkpt lat="46.0524" lon="5.60257">
        <ele>864.6</ele>
        <time>2026-05-13T18:32:54Z</time>
      </trkpt>
      <trkpt lat="46.05236" lon="5.60257">
        <ele>864.6</ele>
        <time>2026-05-13T18:32:55Z</time>
      </trkpt>
      <trkpt lat="46.05232" lon="5.60257">
        <ele>864.6</ele>
        <time>2026-05-13T18:32:56Z</time>
      </trkpt>
      <trkpt lat="46.05227" lon="5.60257">
        <ele>864.8</ele>
        <time>2026-05-13T18:32:57Z</time>
      </trkpt>
      <trkpt lat="46.05223" lon="5.60257">
        <ele>864.8</ele>
        <time>2026-05-13T18:32:58Z</time>
      </trkpt>
      <trkpt lat="46.05219" lon="5.60258">
        <ele>864.8</ele>
        <time>2026-05-13T18:32:59Z</time>
      </trkpt>
      <trkpt lat="46.05214" lon="5.60258">
        <ele>865</ele>
        <time>2026-05-13T18:33:00Z</time>
      </trkpt>
      <trkpt lat="46.05209" lon="5.60258">
        <ele>865.4</ele>
        <time>2026-05-13T18:33:01Z</time>
      </trkpt>
      <trkpt lat="46.05204" lon="5.60257">
        <ele>865.4</ele>
        <time>2026-05-13T18:33:02Z</time>
      </trkpt>
      <trkpt lat="46.05199" lon="5.60258">
        <ele>865.4</ele>
        <time>2026-05-13T18:33:03Z</time>
      </trkpt>
      <trkpt lat="46.05194" lon="5.60259">
        <ele>865.4</ele>
        <time>2026-05-13T18:33:04Z</time>
      </trkpt>
      <trkpt lat="46.05194" lon="5.60259">
        <ele>865.4</ele>
        <time>2026-05-13T18:33:05Z</time>
      </trkpt>
      <trkpt lat="46.05194" lon="5.60259">
        <ele>865.4</ele>
        <time>2026-05-13T18:33:06Z</time>
      </trkpt>
      <trkpt lat="46.05174" lon="5.6026">
        <ele>865.4</ele>
        <time>2026-05-13T18:33:08Z</time>
      </trkpt>
      <trkpt lat="46.05168" lon="5.60261">
        <ele>865</ele>
        <time>2026-05-13T18:33:09Z</time>
      </trkpt>
      <trkpt lat="46.05162" lon="5.60261">
        <ele>865</ele>
        <time>2026-05-13T18:33:10Z</time>
      </trkpt>
      <trkpt lat="46.05156" lon="5.60261">
        <ele>864.6</ele>
        <time>2026-05-13T18:33:11Z</time>
      </trkpt>
      <trkpt lat="46.0515" lon="5.60261">
        <ele>864.6</ele>
        <time>2026-05-13T18:33:12Z</time>
      </trkpt>
      <trkpt lat="46.05144" lon="5.60261">
        <ele>864.4</ele>
        <time>2026-05-13T18:33:13Z</time>
      </trkpt>
      <trkpt lat="46.05138" lon="5.60262">
        <ele>864.4</ele>
        <time>2026-05-13T18:33:14Z</time>
      </trkpt>
      <trkpt lat="46.05132" lon="5.60263">
        <ele>864.2</ele>
        <time>2026-05-13T18:33:15Z</time>
      </trkpt>
      <trkpt lat="46.05125" lon="5.60264">
        <ele>864</ele>
        <time>2026-05-13T18:33:16Z</time>
      </trkpt>
      <trkpt lat="46.05119" lon="5.60264">
        <ele>863.6</ele>
        <time>2026-05-13T18:33:17Z</time>
      </trkpt>
      <trkpt lat="46.05112" lon="5.60265">
        <ele>863.4</ele>
        <time>2026-05-13T18:33:18Z</time>
      </trkpt>
      <trkpt lat="46.05105" lon="5.60267">
        <ele>863.2</ele>
        <time>2026-05-13T18:33:19Z</time>
      </trkpt>
      <trkpt lat="46.05099" lon="5.60268">
        <ele>863.2</ele>
        <time>2026-05-13T18:33:20Z</time>
      </trkpt>
      <trkpt lat="46.05092" lon="5.60269">
        <ele>862.8</ele>
        <time>2026-05-13T18:33:21Z</time>
      </trkpt>
      <trkpt lat="46.05084" lon="5.60269">
        <ele>862.4</ele>
        <time>2026-05-13T18:33:22Z</time>
      </trkpt>
      <trkpt lat="46.05077" lon="5.60271">
        <ele>862.4</ele>
        <time>2026-05-13T18:33:23Z</time>
      </trkpt>
      <trkpt lat="46.0507" lon="5.60272">
        <ele>862.4</ele>
        <time>2026-05-13T18:33:24Z</time>
      </trkpt>
      <trkpt lat="46.05063" lon="5.60274">
        <ele>862</ele>
        <time>2026-05-13T18:33:25Z</time>
      </trkpt>
      <trkpt lat="46.05055" lon="5.60275">
        <ele>862</ele>
        <time>2026-05-13T18:33:26Z</time>
      </trkpt>
      <trkpt lat="46.05048" lon="5.60277">
        <ele>861.6</ele>
        <time>2026-05-13T18:33:27Z</time>
      </trkpt>
      <trkpt lat="46.0504" lon="5.60278">
        <ele>861.2</ele>
        <time>2026-05-13T18:33:28Z</time>
      </trkpt>
      <trkpt lat="46.05032" lon="5.60281">
        <ele>861.2</ele>
        <time>2026-05-13T18:33:29Z</time>
      </trkpt>
      <trkpt lat="46.05016" lon="5.60284">
        <ele>860.6</ele>
        <time>2026-05-13T18:33:30Z</time>
      </trkpt>
      <trkpt lat="46.05009" lon="5.60286">
        <ele>860.6</ele>
        <time>2026-05-13T18:33:31Z</time>
      </trkpt>
      <trkpt lat="46.05001" lon="5.60288">
        <ele>860.2</ele>
        <time>2026-05-13T18:33:32Z</time>
      </trkpt>
      <trkpt lat="46.04993" lon="5.6029">
        <ele>860</ele>
        <time>2026-05-13T18:33:33Z</time>
      </trkpt>
      <trkpt lat="46.04985" lon="5.60292">
        <ele>860</ele>
        <time>2026-05-13T18:33:34Z</time>
      </trkpt>
      <trkpt lat="46.04977" lon="5.60294">
        <ele>859.6</ele>
        <time>2026-05-13T18:33:35Z</time>
      </trkpt>
      <trkpt lat="46.0497" lon="5.60295">
        <ele>859.6</ele>
        <time>2026-05-13T18:33:36Z</time>
      </trkpt>
      <trkpt lat="46.04962" lon="5.60297">
        <ele>859.6</ele>
        <time>2026-05-13T18:33:37Z</time>
      </trkpt>
      <trkpt lat="46.04954" lon="5.60299">
        <ele>859.4</ele>
        <time>2026-05-13T18:33:38Z</time>
      </trkpt>
      <trkpt lat="46.04947" lon="5.60302">
        <ele>859.4</ele>
        <time>2026-05-13T18:33:39Z</time>
      </trkpt>
      <trkpt lat="46.04939" lon="5.60303">
        <ele>859.4</ele>
        <time>2026-05-13T18:33:40Z</time>
      </trkpt>
      <trkpt lat="46.04932" lon="5.60305">
        <ele>859.2</ele>
        <time>2026-05-13T18:33:41Z</time>
      </trkpt>
      <trkpt lat="46.04925" lon="5.60307">
        <ele>859.2</ele>
        <time>2026-05-13T18:33:42Z</time>
      </trkpt>
      <trkpt lat="46.04918" lon="5.60309">
        <ele>859.2</ele>
        <time>2026-05-13T18:33:43Z</time>
      </trkpt>
      <trkpt lat="46.0491" lon="5.6031">
        <ele>859.2</ele>
        <time>2026-05-13T18:33:44Z</time>
      </trkpt>
      <trkpt lat="46.04903" lon="5.60312">
        <ele>859.2</ele>
        <time>2026-05-13T18:33:45Z</time>
      </trkpt>
      <trkpt lat="46.04896" lon="5.60314">
        <ele>859.2</ele>
        <time>2026-05-13T18:33:46Z</time>
      </trkpt>
      <trkpt lat="46.04889" lon="5.60316">
        <ele>859.2</ele>
        <time>2026-05-13T18:33:47Z</time>
      </trkpt>
      <trkpt lat="46.04882" lon="5.60318">
        <ele>859.2</ele>
        <time>2026-05-13T18:33:48Z</time>
      </trkpt>
      <trkpt lat="46.04875" lon="5.6032">
        <ele>859.2</ele>
        <time>2026-05-13T18:33:49Z</time>
      </trkpt>
      <trkpt lat="46.04869" lon="5.60322">
        <ele>859.2</ele>
        <time>2026-05-13T18:33:50Z</time>
      </trkpt>
      <trkpt lat="46.04862" lon="5.60323">
        <ele>859.2</ele>
        <time>2026-05-13T18:33:51Z</time>
      </trkpt>
      <trkpt lat="46.04855" lon="5.60325">
        <ele>859.2</ele>
        <time>2026-05-13T18:33:52Z</time>
      </trkpt>
      <trkpt lat="46.04848" lon="5.60327">
        <ele>859</ele>
        <time>2026-05-13T18:33:53Z</time>
      </trkpt>
      <trkpt lat="46.04841" lon="5.60329">
        <ele>859</ele>
        <time>2026-05-13T18:33:54Z</time>
      </trkpt>
      <trkpt lat="46.04835" lon="5.6033">
        <ele>859</ele>
        <time>2026-05-13T18:33:55Z</time>
      </trkpt>
      <trkpt lat="46.04828" lon="5.60331">
        <ele>859</ele>
        <time>2026-05-13T18:33:56Z</time>
      </trkpt>
      <trkpt lat="46.04821" lon="5.60332">
        <ele>859</ele>
        <time>2026-05-13T18:33:57Z</time>
      </trkpt>
      <trkpt lat="46.04814" lon="5.60333">
        <ele>859</ele>
        <time>2026-05-13T18:33:58Z</time>
      </trkpt>
      <trkpt lat="46.04807" lon="5.60334">
        <ele>859</ele>
        <time>2026-05-13T18:33:59Z</time>
      </trkpt>
      <trkpt lat="46.048" lon="5.60335">
        <ele>858.8</ele>
        <time>2026-05-13T18:34:00Z</time>
      </trkpt>
      <trkpt lat="46.04793" lon="5.60336">
        <ele>858.8</ele>
        <time>2026-05-13T18:34:01Z</time>
      </trkpt>
      <trkpt lat="46.04785" lon="5.60336">
        <ele>858.8</ele>
        <time>2026-05-13T18:34:02Z</time>
      </trkpt>
      <trkpt lat="46.04778" lon="5.60336">
        <ele>858.8</ele>
        <time>2026-05-13T18:34:03Z</time>
      </trkpt>
      <trkpt lat="46.04771" lon="5.60334">
        <ele>858.4</ele>
        <time>2026-05-13T18:34:04Z</time>
      </trkpt>
      <trkpt lat="46.04763" lon="5.60333">
        <ele>858.2</ele>
        <time>2026-05-13T18:34:05Z</time>
      </trkpt>
      <trkpt lat="46.04756" lon="5.60331">
        <ele>858.2</ele>
        <time>2026-05-13T18:34:06Z</time>
      </trkpt>
      <trkpt lat="46.04748" lon="5.60328">
        <ele>857.6</ele>
        <time>2026-05-13T18:34:07Z</time>
      </trkpt>
      <trkpt lat="46.0474" lon="5.60326">
        <ele>857.4</ele>
        <time>2026-05-13T18:34:08Z</time>
      </trkpt>
      <trkpt lat="46.04732" lon="5.60324">
        <ele>857</ele>
        <time>2026-05-13T18:34:09Z</time>
      </trkpt>
      <trkpt lat="46.04724" lon="5.60321">
        <ele>856.4</ele>
        <time>2026-05-13T18:34:10Z</time>
      </trkpt>
      <trkpt lat="46.04716" lon="5.60319">
        <ele>856.2</ele>
        <time>2026-05-13T18:34:11Z</time>
      </trkpt>
      <trkpt lat="46.04709" lon="5.60316">
        <ele>855.8</ele>
        <time>2026-05-13T18:34:12Z</time>
      </trkpt>
      <trkpt lat="46.04701" lon="5.60314">
        <ele>855.8</ele>
        <time>2026-05-13T18:34:13Z</time>
      </trkpt>
      <trkpt lat="46.04693" lon="5.60311">
        <ele>855.8</ele>
        <time>2026-05-13T18:34:14Z</time>
      </trkpt>
      <trkpt lat="46.04685" lon="5.60309">
        <ele>855.6</ele>
        <time>2026-05-13T18:34:15Z</time>
      </trkpt>
      <trkpt lat="46.04678" lon="5.60306">
        <ele>855.2</ele>
        <time>2026-05-13T18:34:16Z</time>
      </trkpt>
      <trkpt lat="46.0467" lon="5.60304">
        <ele>855.2</ele>
        <time>2026-05-13T18:34:17Z</time>
      </trkpt>
      <trkpt lat="46.04663" lon="5.60301">
        <ele>855.2</ele>
        <time>2026-05-13T18:34:18Z</time>
      </trkpt>
      <trkpt lat="46.04656" lon="5.60299">
        <ele>855.2</ele>
        <time>2026-05-13T18:34:19Z</time>
      </trkpt>
      <trkpt lat="46.04648" lon="5.60297">
        <ele>855.2</ele>
        <time>2026-05-13T18:34:20Z</time>
      </trkpt>
      <trkpt lat="46.04641" lon="5.60295">
        <ele>855.2</ele>
        <time>2026-05-13T18:34:21Z</time>
      </trkpt>
      <trkpt lat="46.04634" lon="5.60292">
        <ele>855.2</ele>
        <time>2026-05-13T18:34:22Z</time>
      </trkpt>
      <trkpt lat="46.04626" lon="5.6029">
        <ele>855.2</ele>
        <time>2026-05-13T18:34:23Z</time>
      </trkpt>
      <trkpt lat="46.04619" lon="5.60288">
        <ele>855.2</ele>
        <time>2026-05-13T18:34:24Z</time>
      </trkpt>
      <trkpt lat="46.04612" lon="5.60286">
        <ele>855.2</ele>
        <time>2026-05-13T18:34:25Z</time>
      </trkpt>
      <trkpt lat="46.04605" lon="5.60284">
        <ele>855.2</ele>
        <time>2026-05-13T18:34:26Z</time>
      </trkpt>
      <trkpt lat="46.04598" lon="5.60282">
        <ele>855.2</ele>
        <time>2026-05-13T18:34:27Z</time>
      </trkpt>
      <trkpt lat="46.04591" lon="5.6028">
        <ele>855.2</ele>
        <time>2026-05-13T18:34:28Z</time>
      </trkpt>
      <trkpt lat="46.04585" lon="5.60277">
        <ele>855.2</ele>
        <time>2026-05-13T18:34:29Z</time>
      </trkpt>
      <trkpt lat="46.04578" lon="5.60275">
        <ele>855.2</ele>
        <time>2026-05-13T18:34:30Z</time>
      </trkpt>
      <trkpt lat="46.04571" lon="5.60273">
        <ele>855.2</ele>
        <time>2026-05-13T18:34:31Z</time>
      </trkpt>
      <trkpt lat="46.04564" lon="5.60271">
        <ele>855.2</ele>
        <time>2026-05-13T18:34:32Z</time>
      </trkpt>
      <trkpt lat="46.04558" lon="5.60269">
        <ele>855.6</ele>
        <time>2026-05-13T18:34:33Z</time>
      </trkpt>
      <trkpt lat="46.04551" lon="5.60267">
        <ele>855.6</ele>
        <time>2026-05-13T18:34:34Z</time>
      </trkpt>
      <trkpt lat="46.04545" lon="5.60265">
        <ele>855.4</ele>
        <time>2026-05-13T18:34:35Z</time>
      </trkpt>
      <trkpt lat="46.04539" lon="5.60263">
        <ele>855.4</ele>
        <time>2026-05-13T18:34:36Z</time>
      </trkpt>
      <trkpt lat="46.04532" lon="5.60261">
        <ele>855.6</ele>
        <time>2026-05-13T18:34:37Z</time>
      </trkpt>
      <trkpt lat="46.04525" lon="5.60259">
        <ele>855.6</ele>
        <time>2026-05-13T18:34:38Z</time>
      </trkpt>
      <trkpt lat="46.04519" lon="5.60258">
        <ele>855.6</ele>
        <time>2026-05-13T18:34:39Z</time>
      </trkpt>
      <trkpt lat="46.04513" lon="5.60256">
        <ele>855.6</ele>
        <time>2026-05-13T18:34:40Z</time>
      </trkpt>
      <trkpt lat="46.04507" lon="5.60253">
        <ele>855.6</ele>
        <time>2026-05-13T18:34:41Z</time>
      </trkpt>
      <trkpt lat="46.045" lon="5.60251">
        <ele>855.8</ele>
        <time>2026-05-13T18:34:42Z</time>
      </trkpt>
      <trkpt lat="46.04494" lon="5.60249">
        <ele>855.8</ele>
        <time>2026-05-13T18:34:43Z</time>
      </trkpt>
      <trkpt lat="46.04487" lon="5.60247">
        <ele>855.8</ele>
        <time>2026-05-13T18:34:44Z</time>
      </trkpt>
      <trkpt lat="46.04481" lon="5.60246">
        <ele>855.8</ele>
        <time>2026-05-13T18:34:45Z</time>
      </trkpt>
      <trkpt lat="46.04475" lon="5.60243">
        <ele>856.4</ele>
        <time>2026-05-13T18:34:46Z</time>
      </trkpt>
      <trkpt lat="46.04469" lon="5.60242">
        <ele>856.4</ele>
        <time>2026-05-13T18:34:47Z</time>
      </trkpt>
      <trkpt lat="46.04463" lon="5.6024">
        <ele>856.6</ele>
        <time>2026-05-13T18:34:48Z</time>
      </trkpt>
      <trkpt lat="46.04457" lon="5.60238">
        <ele>856.6</ele>
        <time>2026-05-13T18:34:49Z</time>
      </trkpt>
      <trkpt lat="46.04452" lon="5.60236">
        <ele>856.6</ele>
        <time>2026-05-13T18:34:50Z</time>
      </trkpt>
      <trkpt lat="46.04446" lon="5.60234">
        <ele>856.8</ele>
        <time>2026-05-13T18:34:51Z</time>
      </trkpt>
      <trkpt lat="46.0444" lon="5.60233">
        <ele>857</ele>
        <time>2026-05-13T18:34:52Z</time>
      </trkpt>
      <trkpt lat="46.04434" lon="5.60231">
        <ele>857</ele>
        <time>2026-05-13T18:34:53Z</time>
      </trkpt>
      <trkpt lat="46.04429" lon="5.60229">
        <ele>857</ele>
        <time>2026-05-13T18:34:54Z</time>
      </trkpt>
      <trkpt lat="46.04423" lon="5.60227">
        <ele>857.4</ele>
        <time>2026-05-13T18:34:55Z</time>
      </trkpt>
      <trkpt lat="46.04418" lon="5.60225">
        <ele>857.4</ele>
        <time>2026-05-13T18:34:56Z</time>
      </trkpt>
      <trkpt lat="46.04413" lon="5.60224">
        <ele>857.4</ele>
        <time>2026-05-13T18:34:57Z</time>
      </trkpt>
      <trkpt lat="46.04407" lon="5.60222">
        <ele>857.4</ele>
        <time>2026-05-13T18:34:58Z</time>
      </trkpt>
      <trkpt lat="46.04402" lon="5.6022">
        <ele>857.6</ele>
        <time>2026-05-13T18:34:59Z</time>
      </trkpt>
      <trkpt lat="46.04397" lon="5.60218">
        <ele>857.6</ele>
        <time>2026-05-13T18:35:00Z</time>
      </trkpt>
      <trkpt lat="46.04397" lon="5.60218">
        <ele>857.8</ele>
        <time>2026-05-13T18:35:01Z</time>
      </trkpt>
      <trkpt lat="46.04391" lon="5.60216">
        <ele>858.2</ele>
        <time>2026-05-13T18:35:02Z</time>
      </trkpt>
      <trkpt lat="46.04386" lon="5.60214">
        <ele>858.6</ele>
        <time>2026-05-13T18:35:03Z</time>
      </trkpt>
      <trkpt lat="46.04381" lon="5.60213">
        <ele>858.6</ele>
        <time>2026-05-13T18:35:04Z</time>
      </trkpt>
      <trkpt lat="46.04376" lon="5.60212">
        <ele>858.6</ele>
        <time>2026-05-13T18:35:05Z</time>
      </trkpt>
      <trkpt lat="46.04371" lon="5.6021">
        <ele>858.6</ele>
        <time>2026-05-13T18:35:06Z</time>
      </trkpt>
      <trkpt lat="46.04366" lon="5.60208">
        <ele>858.8</ele>
        <time>2026-05-13T18:35:07Z</time>
      </trkpt>
      <trkpt lat="46.04361" lon="5.60205">
        <ele>858.8</ele>
        <time>2026-05-13T18:35:08Z</time>
      </trkpt>
      <trkpt lat="46.04357" lon="5.60203">
        <ele>858.8</ele>
        <time>2026-05-13T18:35:09Z</time>
      </trkpt>
      <trkpt lat="46.04352" lon="5.60201">
        <ele>858.8</ele>
        <time>2026-05-13T18:35:10Z</time>
      </trkpt>
      <trkpt lat="46.04347" lon="5.60199">
        <ele>858.8</ele>
        <time>2026-05-13T18:35:11Z</time>
      </trkpt>
      <trkpt lat="46.04342" lon="5.60197">
        <ele>858.8</ele>
        <time>2026-05-13T18:35:12Z</time>
      </trkpt>
      <trkpt lat="46.04337" lon="5.60194">
        <ele>858.6</ele>
        <time>2026-05-13T18:35:13Z</time>
      </trkpt>
      <trkpt lat="46.04331" lon="5.60192">
        <ele>858.6</ele>
        <time>2026-05-13T18:35:14Z</time>
      </trkpt>
      <trkpt lat="46.04326" lon="5.6019">
        <ele>858.6</ele>
        <time>2026-05-13T18:35:15Z</time>
      </trkpt>
      <trkpt lat="46.04321" lon="5.60188">
        <ele>858.6</ele>
        <time>2026-05-13T18:35:16Z</time>
      </trkpt>
      <trkpt lat="46.04315" lon="5.60186">
        <ele>858.2</ele>
        <time>2026-05-13T18:35:17Z</time>
      </trkpt>
      <trkpt lat="46.0431" lon="5.60183">
        <ele>858.2</ele>
        <time>2026-05-13T18:35:18Z</time>
      </trkpt>
      <trkpt lat="46.04304" lon="5.6018">
        <ele>858.2</ele>
        <time>2026-05-13T18:35:19Z</time>
      </trkpt>
      <trkpt lat="46.04299" lon="5.60178">
        <ele>858.2</ele>
        <time>2026-05-13T18:35:20Z</time>
      </trkpt>
      <trkpt lat="46.04293" lon="5.60175">
        <ele>858</ele>
        <time>2026-05-13T18:35:21Z</time>
      </trkpt>
      <trkpt lat="46.04287" lon="5.60172">
        <ele>858</ele>
        <time>2026-05-13T18:35:22Z</time>
      </trkpt>
      <trkpt lat="46.04281" lon="5.6017">
        <ele>857.6</ele>
        <time>2026-05-13T18:35:23Z</time>
      </trkpt>
      <trkpt lat="46.04274" lon="5.60167">
        <ele>857.4</ele>
        <time>2026-05-13T18:35:24Z</time>
      </trkpt>
      <trkpt lat="46.04268" lon="5.60164">
        <ele>857</ele>
        <time>2026-05-13T18:35:25Z</time>
      </trkpt>
      <trkpt lat="46.04261" lon="5.60161">
        <ele>857</ele>
        <time>2026-05-13T18:35:26Z</time>
      </trkpt>
      <trkpt lat="46.04255" lon="5.60159">
        <ele>857</ele>
        <time>2026-05-13T18:35:27Z</time>
      </trkpt>
      <trkpt lat="46.04248" lon="5.60156">
        <ele>856.4</ele>
        <time>2026-05-13T18:35:28Z</time>
      </trkpt>
      <trkpt lat="46.04241" lon="5.60153">
        <ele>856.2</ele>
        <time>2026-05-13T18:35:29Z</time>
      </trkpt>
      <trkpt lat="46.04234" lon="5.6015">
        <ele>856</ele>
        <time>2026-05-13T18:35:30Z</time>
      </trkpt>
      <trkpt lat="46.04227" lon="5.60147">
        <ele>856</ele>
        <time>2026-05-13T18:35:31Z</time>
      </trkpt>
      <trkpt lat="46.0422" lon="5.60144">
        <ele>855.6</ele>
        <time>2026-05-13T18:35:32Z</time>
      </trkpt>
      <trkpt lat="46.04213" lon="5.60141">
        <ele>855.6</ele>
        <time>2026-05-13T18:35:33Z</time>
      </trkpt>
      <trkpt lat="46.04206" lon="5.60138">
        <ele>855.4</ele>
        <time>2026-05-13T18:35:34Z</time>
      </trkpt>
      <trkpt lat="46.04198" lon="5.60135">
        <ele>855.4</ele>
        <time>2026-05-13T18:35:35Z</time>
      </trkpt>
      <trkpt lat="46.04191" lon="5.60131">
        <ele>855.4</ele>
        <time>2026-05-13T18:35:36Z</time>
      </trkpt>
      <trkpt lat="46.04184" lon="5.60128">
        <ele>855.2</ele>
        <time>2026-05-13T18:35:37Z</time>
      </trkpt>
      <trkpt lat="46.04177" lon="5.60125">
        <ele>855</ele>
        <time>2026-05-13T18:35:38Z</time>
      </trkpt>
      <trkpt lat="46.0417" lon="5.60122">
        <ele>855</ele>
        <time>2026-05-13T18:35:39Z</time>
      </trkpt>
      <trkpt lat="46.04163" lon="5.60119">
        <ele>855</ele>
        <time>2026-05-13T18:35:40Z</time>
      </trkpt>
      <trkpt lat="46.04155" lon="5.60117">
        <ele>854.8</ele>
        <time>2026-05-13T18:35:41Z</time>
      </trkpt>
      <trkpt lat="46.04149" lon="5.60113">
        <ele>854.8</ele>
        <time>2026-05-13T18:35:42Z</time>
      </trkpt>
      <trkpt lat="46.04142" lon="5.6011">
        <ele>854.8</ele>
        <time>2026-05-13T18:35:43Z</time>
      </trkpt>
      <trkpt lat="46.04135" lon="5.60107">
        <ele>854.8</ele>
        <time>2026-05-13T18:35:44Z</time>
      </trkpt>
      <trkpt lat="46.04128" lon="5.60104">
        <ele>854.8</ele>
        <time>2026-05-13T18:35:45Z</time>
      </trkpt>
      <trkpt lat="46.04122" lon="5.60101">
        <ele>855</ele>
        <time>2026-05-13T18:35:46Z</time>
      </trkpt>
      <trkpt lat="46.04115" lon="5.60098">
        <ele>855</ele>
        <time>2026-05-13T18:35:47Z</time>
      </trkpt>
      <trkpt lat="46.04108" lon="5.60096">
        <ele>855</ele>
        <time>2026-05-13T18:35:48Z</time>
      </trkpt>
      <trkpt lat="46.04102" lon="5.60093">
        <ele>855</ele>
        <time>2026-05-13T18:35:49Z</time>
      </trkpt>
      <trkpt lat="46.04096" lon="5.6009">
        <ele>855</ele>
        <time>2026-05-13T18:35:50Z</time>
      </trkpt>
      <trkpt lat="46.0409" lon="5.60087">
        <ele>855.2</ele>
        <time>2026-05-13T18:35:51Z</time>
      </trkpt>
      <trkpt lat="46.04085" lon="5.60085">
        <ele>855.2</ele>
        <time>2026-05-13T18:35:52Z</time>
      </trkpt>
      <trkpt lat="46.04079" lon="5.60082">
        <ele>855.2</ele>
        <time>2026-05-13T18:35:53Z</time>
      </trkpt>
      <trkpt lat="46.04073" lon="5.6008">
        <ele>855.6</ele>
        <time>2026-05-13T18:35:54Z</time>
      </trkpt>
      <trkpt lat="46.04067" lon="5.60078">
        <ele>855.8</ele>
        <time>2026-05-13T18:35:55Z</time>
      </trkpt>
      <trkpt lat="46.04062" lon="5.60075">
        <ele>855.8</ele>
        <time>2026-05-13T18:35:56Z</time>
      </trkpt>
      <trkpt lat="46.04056" lon="5.60073">
        <ele>856.2</ele>
        <time>2026-05-13T18:35:57Z</time>
      </trkpt>
      <trkpt lat="46.0405" lon="5.60071">
        <ele>856.2</ele>
        <time>2026-05-13T18:35:58Z</time>
      </trkpt>
      <trkpt lat="46.04045" lon="5.60068">
        <ele>856.4</ele>
        <time>2026-05-13T18:35:59Z</time>
      </trkpt>
      <trkpt lat="46.04039" lon="5.60066">
        <ele>856.4</ele>
        <time>2026-05-13T18:36:00Z</time>
      </trkpt>
      <trkpt lat="46.04034" lon="5.60064">
        <ele>856.4</ele>
        <time>2026-05-13T18:36:01Z</time>
      </trkpt>
      <trkpt lat="46.04029" lon="5.60062">
        <ele>856.4</ele>
        <time>2026-05-13T18:36:02Z</time>
      </trkpt>
      <trkpt lat="46.04023" lon="5.60059">
        <ele>856.4</ele>
        <time>2026-05-13T18:36:03Z</time>
      </trkpt>
      <trkpt lat="46.04018" lon="5.60057">
        <ele>856.6</ele>
        <time>2026-05-13T18:36:04Z</time>
      </trkpt>
      <trkpt lat="46.04013" lon="5.60055">
        <ele>856.6</ele>
        <time>2026-05-13T18:36:05Z</time>
      </trkpt>
      <trkpt lat="46.04008" lon="5.60052">
        <ele>857</ele>
        <time>2026-05-13T18:36:06Z</time>
      </trkpt>
      <trkpt lat="46.04003" lon="5.6005">
        <ele>857.2</ele>
        <time>2026-05-13T18:36:07Z</time>
      </trkpt>
      <trkpt lat="46.03998" lon="5.60049">
        <ele>857.2</ele>
        <time>2026-05-13T18:36:08Z</time>
      </trkpt>
      <trkpt lat="46.03993" lon="5.60047">
        <ele>857.6</ele>
        <time>2026-05-13T18:36:09Z</time>
      </trkpt>
      <trkpt lat="46.03988" lon="5.60044">
        <ele>857.6</ele>
        <time>2026-05-13T18:36:10Z</time>
      </trkpt>
      <trkpt lat="46.03984" lon="5.60043">
        <ele>857.8</ele>
        <time>2026-05-13T18:36:11Z</time>
      </trkpt>
      <trkpt lat="46.03979" lon="5.60041">
        <ele>857.8</ele>
        <time>2026-05-13T18:36:12Z</time>
      </trkpt>
      <trkpt lat="46.03974" lon="5.60039">
        <ele>858.2</ele>
        <time>2026-05-13T18:36:13Z</time>
      </trkpt>
      <trkpt lat="46.03969" lon="5.60037">
        <ele>858.2</ele>
        <time>2026-05-13T18:36:14Z</time>
      </trkpt>
      <trkpt lat="46.03965" lon="5.60035">
        <ele>858.2</ele>
        <time>2026-05-13T18:36:15Z</time>
      </trkpt>
      <trkpt lat="46.0396" lon="5.60034">
        <ele>858.2</ele>
        <time>2026-05-13T18:36:16Z</time>
      </trkpt>
      <trkpt lat="46.03956" lon="5.60033">
        <ele>858.4</ele>
        <time>2026-05-13T18:36:17Z</time>
      </trkpt>
      <trkpt lat="46.03952" lon="5.60031">
        <ele>858.4</ele>
        <time>2026-05-13T18:36:18Z</time>
      </trkpt>
      <trkpt lat="46.03947" lon="5.60029">
        <ele>858.8</ele>
        <time>2026-05-13T18:36:19Z</time>
      </trkpt>
      <trkpt lat="46.03943" lon="5.60027">
        <ele>858.8</ele>
        <time>2026-05-13T18:36:20Z</time>
      </trkpt>
      <trkpt lat="46.03938" lon="5.60025">
        <ele>859</ele>
        <time>2026-05-13T18:36:21Z</time>
      </trkpt>
      <trkpt lat="46.03934" lon="5.60023">
        <ele>859</ele>
        <time>2026-05-13T18:36:22Z</time>
      </trkpt>
      <trkpt lat="46.0393" lon="5.60021">
        <ele>859</ele>
        <time>2026-05-13T18:36:23Z</time>
      </trkpt>
      <trkpt lat="46.03925" lon="5.60018">
        <ele>859</ele>
        <time>2026-05-13T18:36:24Z</time>
      </trkpt>
      <trkpt lat="46.03921" lon="5.60016">
        <ele>859</ele>
        <time>2026-05-13T18:36:25Z</time>
      </trkpt>
      <trkpt lat="46.03917" lon="5.60014">
        <ele>859.4</ele>
        <time>2026-05-13T18:36:26Z</time>
      </trkpt>
      <trkpt lat="46.03912" lon="5.60013">
        <ele>859.6</ele>
        <time>2026-05-13T18:36:27Z</time>
      </trkpt>
      <trkpt lat="46.03908" lon="5.60011">
        <ele>859.8</ele>
        <time>2026-05-13T18:36:28Z</time>
      </trkpt>
      <trkpt lat="46.03904" lon="5.6001">
        <ele>859.8</ele>
        <time>2026-05-13T18:36:29Z</time>
      </trkpt>
      <trkpt lat="46.039" lon="5.60008">
        <ele>859.8</ele>
        <time>2026-05-13T18:36:30Z</time>
      </trkpt>
      <trkpt lat="46.03896" lon="5.60006">
        <ele>859.8</ele>
        <time>2026-05-13T18:36:31Z</time>
      </trkpt>
      <trkpt lat="46.03891" lon="5.60005">
        <ele>859.8</ele>
        <time>2026-05-13T18:36:32Z</time>
      </trkpt>
      <trkpt lat="46.03887" lon="5.60003">
        <ele>860.2</ele>
        <time>2026-05-13T18:36:33Z</time>
      </trkpt>
      <trkpt lat="46.03883" lon="5.60001">
        <ele>860.2</ele>
        <time>2026-05-13T18:36:34Z</time>
      </trkpt>
      <trkpt lat="46.03879" lon="5.59999">
        <ele>860.2</ele>
        <time>2026-05-13T18:36:35Z</time>
      </trkpt>
      <trkpt lat="46.03875" lon="5.59998">
        <ele>860.2</ele>
        <time>2026-05-13T18:36:36Z</time>
      </trkpt>
      <trkpt lat="46.0387" lon="5.59996">
        <ele>860.2</ele>
        <time>2026-05-13T18:36:37Z</time>
      </trkpt>
      <trkpt lat="46.03862" lon="5.59993">
        <ele>860.2</ele>
        <time>2026-05-13T18:36:38Z</time>
      </trkpt>
      <trkpt lat="46.03858" lon="5.59991">
        <ele>860.6</ele>
        <time>2026-05-13T18:36:39Z</time>
      </trkpt>
      <trkpt lat="46.03854" lon="5.59989">
        <ele>860.6</ele>
        <time>2026-05-13T18:36:40Z</time>
      </trkpt>
      <trkpt lat="46.0385" lon="5.59987">
        <ele>860.6</ele>
        <time>2026-05-13T18:36:41Z</time>
      </trkpt>
      <trkpt lat="46.03846" lon="5.59985">
        <ele>860.8</ele>
        <time>2026-05-13T18:36:42Z</time>
      </trkpt>
      <trkpt lat="46.03841" lon="5.59984">
        <ele>860.8</ele>
        <time>2026-05-13T18:36:43Z</time>
      </trkpt>
      <trkpt lat="46.03837" lon="5.59982">
        <ele>860.8</ele>
        <time>2026-05-13T18:36:44Z</time>
      </trkpt>
      <trkpt lat="46.03833" lon="5.5998">
        <ele>860.8</ele>
        <time>2026-05-13T18:36:45Z</time>
      </trkpt>
      <trkpt lat="46.03829" lon="5.59978">
        <ele>861</ele>
        <time>2026-05-13T18:36:46Z</time>
      </trkpt>
      <trkpt lat="46.03825" lon="5.59977">
        <ele>861</ele>
        <time>2026-05-13T18:36:47Z</time>
      </trkpt>
      <trkpt lat="46.03821" lon="5.59975">
        <ele>861</ele>
        <time>2026-05-13T18:36:48Z</time>
      </trkpt>
      <trkpt lat="46.03817" lon="5.59973">
        <ele>861.2</ele>
        <time>2026-05-13T18:36:49Z</time>
      </trkpt>
      <trkpt lat="46.03813" lon="5.59971">
        <ele>861.2</ele>
        <time>2026-05-13T18:36:50Z</time>
      </trkpt>
      <trkpt lat="46.03809" lon="5.5997">
        <ele>861.2</ele>
        <time>2026-05-13T18:36:51Z</time>
      </trkpt>
      <trkpt lat="46.03805" lon="5.59968">
        <ele>861.2</ele>
        <time>2026-05-13T18:36:52Z</time>
      </trkpt>
      <trkpt lat="46.03801" lon="5.59967">
        <ele>861.4</ele>
        <time>2026-05-13T18:36:53Z</time>
      </trkpt>
      <trkpt lat="46.03797" lon="5.59965">
        <ele>861.4</ele>
        <time>2026-05-13T18:36:54Z</time>
      </trkpt>
      <trkpt lat="46.03794" lon="5.59963">
        <ele>861.4</ele>
        <time>2026-05-13T18:36:55Z</time>
      </trkpt>
      <trkpt lat="46.03789" lon="5.59961">
        <ele>861.4</ele>
        <time>2026-05-13T18:36:56Z</time>
      </trkpt>
      <trkpt lat="46.03785" lon="5.59959">
        <ele>861.4</ele>
        <time>2026-05-13T18:36:57Z</time>
      </trkpt>
      <trkpt lat="46.03781" lon="5.59957">
        <ele>861.4</ele>
        <time>2026-05-13T18:36:58Z</time>
      </trkpt>
      <trkpt lat="46.03777" lon="5.59955">
        <ele>861.4</ele>
        <time>2026-05-13T18:36:59Z</time>
      </trkpt>
      <trkpt lat="46.03773" lon="5.59953">
        <ele>861.4</ele>
        <time>2026-05-13T18:37:00Z</time>
      </trkpt>
      <trkpt lat="46.03773" lon="5.59953">
        <ele>861.8</ele>
        <time>2026-05-13T18:37:01Z</time>
      </trkpt>
      <trkpt lat="46.03773" lon="5.59953">
        <ele>861.8</ele>
        <time>2026-05-13T18:37:02Z</time>
      </trkpt>
      <trkpt lat="46.03773" lon="5.59953">
        <ele>861.8</ele>
        <time>2026-05-13T18:37:03Z</time>
      </trkpt>
      <trkpt lat="46.03759" lon="5.59947">
        <ele>861.8</ele>
        <time>2026-05-13T18:37:04Z</time>
      </trkpt>
      <trkpt lat="46.03754" lon="5.59945">
        <ele>861.8</ele>
        <time>2026-05-13T18:37:05Z</time>
      </trkpt>
      <trkpt lat="46.03749" lon="5.59943">
        <ele>861.8</ele>
        <time>2026-05-13T18:37:06Z</time>
      </trkpt>
      <trkpt lat="46.03744" lon="5.59941">
        <ele>861.8</ele>
        <time>2026-05-13T18:37:07Z</time>
      </trkpt>
      <trkpt lat="46.03739" lon="5.59939">
        <ele>861.8</ele>
        <time>2026-05-13T18:37:08Z</time>
      </trkpt>
      <trkpt lat="46.03734" lon="5.59936">
        <ele>861.4</ele>
        <time>2026-05-13T18:37:09Z</time>
      </trkpt>
      <trkpt lat="46.03729" lon="5.59934">
        <ele>861.4</ele>
        <time>2026-05-13T18:37:10Z</time>
      </trkpt>
      <trkpt lat="46.03724" lon="5.59932">
        <ele>861.4</ele>
        <time>2026-05-13T18:37:11Z</time>
      </trkpt>
      <trkpt lat="46.03718" lon="5.59931">
        <ele>861.4</ele>
        <time>2026-05-13T18:37:12Z</time>
      </trkpt>
      <trkpt lat="46.03713" lon="5.59928">
        <ele>861.4</ele>
        <time>2026-05-13T18:37:13Z</time>
      </trkpt>
      <trkpt lat="46.03708" lon="5.59926">
        <ele>861.4</ele>
        <time>2026-05-13T18:37:14Z</time>
      </trkpt>
      <trkpt lat="46.03703" lon="5.59923">
        <ele>861.4</ele>
        <time>2026-05-13T18:37:15Z</time>
      </trkpt>
      <trkpt lat="46.03698" lon="5.59921">
        <ele>861.4</ele>
        <time>2026-05-13T18:37:16Z</time>
      </trkpt>
      <trkpt lat="46.03692" lon="5.59918">
        <ele>861.2</ele>
        <time>2026-05-13T18:37:17Z</time>
      </trkpt>
      <trkpt lat="46.03686" lon="5.59916">
        <ele>861.2</ele>
        <time>2026-05-13T18:37:18Z</time>
      </trkpt>
      <trkpt lat="46.0368" lon="5.59914">
        <ele>861.2</ele>
        <time>2026-05-13T18:37:19Z</time>
      </trkpt>
      <trkpt lat="46.03674" lon="5.59911">
        <ele>860.8</ele>
        <time>2026-05-13T18:37:20Z</time>
      </trkpt>
      <trkpt lat="46.03668" lon="5.59909">
        <ele>860.8</ele>
        <time>2026-05-13T18:37:21Z</time>
      </trkpt>
      <trkpt lat="46.03662" lon="5.59906">
        <ele>860.8</ele>
        <time>2026-05-13T18:37:22Z</time>
      </trkpt>
      <trkpt lat="46.03657" lon="5.59903">
        <ele>860.8</ele>
        <time>2026-05-13T18:37:23Z</time>
      </trkpt>
      <trkpt lat="46.0365" lon="5.59901">
        <ele>860.8</ele>
        <time>2026-05-13T18:37:24Z</time>
      </trkpt>
      <trkpt lat="46.03645" lon="5.59899">
        <ele>860.6</ele>
        <time>2026-05-13T18:37:25Z</time>
      </trkpt>
      <trkpt lat="46.03638" lon="5.59896">
        <ele>860.6</ele>
        <time>2026-05-13T18:37:26Z</time>
      </trkpt>
      <trkpt lat="46.03633" lon="5.59893">
        <ele>860.2</ele>
        <time>2026-05-13T18:37:27Z</time>
      </trkpt>
      <trkpt lat="46.03627" lon="5.5989">
        <ele>860.2</ele>
        <time>2026-05-13T18:37:28Z</time>
      </trkpt>
      <trkpt lat="46.03621" lon="5.59888">
        <ele>860.4</ele>
        <time>2026-05-13T18:37:29Z</time>
      </trkpt>
      <trkpt lat="46.03616" lon="5.59886">
        <ele>860.4</ele>
        <time>2026-05-13T18:37:30Z</time>
      </trkpt>
      <trkpt lat="46.0361" lon="5.59883">
        <ele>860.4</ele>
        <time>2026-05-13T18:37:31Z</time>
      </trkpt>
      <trkpt lat="46.03605" lon="5.5988">
        <ele>860.4</ele>
        <time>2026-05-13T18:37:32Z</time>
      </trkpt>
      <trkpt lat="46.036" lon="5.59879">
        <ele>860.8</ele>
        <time>2026-05-13T18:37:33Z</time>
      </trkpt>
      <trkpt lat="46.03594" lon="5.59877">
        <ele>860.8</ele>
        <time>2026-05-13T18:37:34Z</time>
      </trkpt>
      <trkpt lat="46.03589" lon="5.59874">
        <ele>860.8</ele>
        <time>2026-05-13T18:37:35Z</time>
      </trkpt>
      <trkpt lat="46.03584" lon="5.59872">
        <ele>860.8</ele>
        <time>2026-05-13T18:37:36Z</time>
      </trkpt>
      <trkpt lat="46.03579" lon="5.5987">
        <ele>861</ele>
        <time>2026-05-13T18:37:37Z</time>
      </trkpt>
      <trkpt lat="46.03574" lon="5.59868">
        <ele>861</ele>
        <time>2026-05-13T18:37:38Z</time>
      </trkpt>
      <trkpt lat="46.03568" lon="5.59866">
        <ele>861</ele>
        <time>2026-05-13T18:37:39Z</time>
      </trkpt>
      <trkpt lat="46.03564" lon="5.59863">
        <ele>861</ele>
        <time>2026-05-13T18:37:40Z</time>
      </trkpt>
      <trkpt lat="46.03559" lon="5.59861">
        <ele>860.8</ele>
        <time>2026-05-13T18:37:41Z</time>
      </trkpt>
      <trkpt lat="46.03553" lon="5.59859">
        <ele>860.8</ele>
        <time>2026-05-13T18:37:42Z</time>
      </trkpt>
      <trkpt lat="46.03548" lon="5.59857">
        <ele>860.8</ele>
        <time>2026-05-13T18:37:43Z</time>
      </trkpt>
      <trkpt lat="46.03543" lon="5.59854">
        <ele>861</ele>
        <time>2026-05-13T18:37:44Z</time>
      </trkpt>
      <trkpt lat="46.03538" lon="5.59853">
        <ele>861.2</ele>
        <time>2026-05-13T18:37:45Z</time>
      </trkpt>
      <trkpt lat="46.03533" lon="5.5985">
        <ele>861.2</ele>
        <time>2026-05-13T18:37:46Z</time>
      </trkpt>
      <trkpt lat="46.03529" lon="5.59848">
        <ele>861.2</ele>
        <time>2026-05-13T18:37:47Z</time>
      </trkpt>
      <trkpt lat="46.03524" lon="5.59846">
        <ele>861.2</ele>
        <time>2026-05-13T18:37:48Z</time>
      </trkpt>
      <trkpt lat="46.03518" lon="5.59844">
        <ele>861.2</ele>
        <time>2026-05-13T18:37:49Z</time>
      </trkpt>
      <trkpt lat="46.03514" lon="5.59841">
        <ele>861</ele>
        <time>2026-05-13T18:37:50Z</time>
      </trkpt>
      <trkpt lat="46.03508" lon="5.59839">
        <ele>861</ele>
        <time>2026-05-13T18:37:51Z</time>
      </trkpt>
      <trkpt lat="46.03503" lon="5.59837">
        <ele>861</ele>
        <time>2026-05-13T18:37:52Z</time>
      </trkpt>
      <trkpt lat="46.03498" lon="5.59836">
        <ele>861</ele>
        <time>2026-05-13T18:37:53Z</time>
      </trkpt>
      <trkpt lat="46.03492" lon="5.59834">
        <ele>861</ele>
        <time>2026-05-13T18:37:54Z</time>
      </trkpt>
      <trkpt lat="46.03487" lon="5.59832">
        <ele>860.6</ele>
        <time>2026-05-13T18:37:55Z</time>
      </trkpt>
      <trkpt lat="46.03482" lon="5.59829">
        <ele>860.8</ele>
        <time>2026-05-13T18:37:56Z</time>
      </trkpt>
      <trkpt lat="46.03476" lon="5.59826">
        <ele>860.8</ele>
        <time>2026-05-13T18:37:57Z</time>
      </trkpt>
      <trkpt lat="46.03471" lon="5.59824">
        <ele>860.8</ele>
        <time>2026-05-13T18:37:58Z</time>
      </trkpt>
      <trkpt lat="46.03466" lon="5.59822">
        <ele>861.2</ele>
        <time>2026-05-13T18:37:59Z</time>
      </trkpt>
      <trkpt lat="46.0346" lon="5.5982">
        <ele>861.2</ele>
        <time>2026-05-13T18:38:00Z</time>
      </trkpt>
      <trkpt lat="46.03448" lon="5.59817">
        <ele>861.2</ele>
        <time>2026-05-13T18:38:01Z</time>
      </trkpt>
      <trkpt lat="46.03442" lon="5.59816">
        <ele>861.2</ele>
        <time>2026-05-13T18:38:02Z</time>
      </trkpt>
      <trkpt lat="46.03436" lon="5.59815">
        <ele>860.6</ele>
        <time>2026-05-13T18:38:03Z</time>
      </trkpt>
      <trkpt lat="46.03429" lon="5.59813">
        <ele>860.6</ele>
        <time>2026-05-13T18:38:04Z</time>
      </trkpt>
      <trkpt lat="46.03423" lon="5.59812">
        <ele>860.4</ele>
        <time>2026-05-13T18:38:05Z</time>
      </trkpt>
      <trkpt lat="46.03416" lon="5.59811">
        <ele>860.4</ele>
        <time>2026-05-13T18:38:06Z</time>
      </trkpt>
      <trkpt lat="46.03409" lon="5.5981">
        <ele>860</ele>
        <time>2026-05-13T18:38:07Z</time>
      </trkpt>
      <trkpt lat="46.03402" lon="5.59808">
        <ele>860</ele>
        <time>2026-05-13T18:38:08Z</time>
      </trkpt>
      <trkpt lat="46.03395" lon="5.59807">
        <ele>860</ele>
        <time>2026-05-13T18:38:09Z</time>
      </trkpt>
      <trkpt lat="46.03388" lon="5.59805">
        <ele>859.6</ele>
        <time>2026-05-13T18:38:10Z</time>
      </trkpt>
      <trkpt lat="46.03381" lon="5.59804">
        <ele>859.4</ele>
        <time>2026-05-13T18:38:11Z</time>
      </trkpt>
      <trkpt lat="46.03373" lon="5.59803">
        <ele>859.4</ele>
        <time>2026-05-13T18:38:12Z</time>
      </trkpt>
      <trkpt lat="46.03366" lon="5.59801">
        <ele>859</ele>
        <time>2026-05-13T18:38:13Z</time>
      </trkpt>
      <trkpt lat="46.03358" lon="5.598">
        <ele>859</ele>
        <time>2026-05-13T18:38:14Z</time>
      </trkpt>
      <trkpt lat="46.03351" lon="5.59798">
        <ele>859</ele>
        <time>2026-05-13T18:38:15Z</time>
      </trkpt>
      <trkpt lat="46.03343" lon="5.59797">
        <ele>858.4</ele>
        <time>2026-05-13T18:38:16Z</time>
      </trkpt>
      <trkpt lat="46.03335" lon="5.59795">
        <ele>858</ele>
        <time>2026-05-13T18:38:17Z</time>
      </trkpt>
      <trkpt lat="46.03328" lon="5.59793">
        <ele>858</ele>
        <time>2026-05-13T18:38:18Z</time>
      </trkpt>
      <trkpt lat="46.0332" lon="5.59792">
        <ele>857.6</ele>
        <time>2026-05-13T18:38:19Z</time>
      </trkpt>
      <trkpt lat="46.03312" lon="5.59791">
        <ele>857.6</ele>
        <time>2026-05-13T18:38:20Z</time>
      </trkpt>
      <trkpt lat="46.03304" lon="5.59789">
        <ele>857.6</ele>
        <time>2026-05-13T18:38:21Z</time>
      </trkpt>
      <trkpt lat="46.03296" lon="5.59787">
        <ele>857.6</ele>
        <time>2026-05-13T18:38:22Z</time>
      </trkpt>
      <trkpt lat="46.03288" lon="5.59786">
        <ele>857.4</ele>
        <time>2026-05-13T18:38:23Z</time>
      </trkpt>
      <trkpt lat="46.03281" lon="5.59785">
        <ele>857.4</ele>
        <time>2026-05-13T18:38:24Z</time>
      </trkpt>
      <trkpt lat="46.03273" lon="5.59783">
        <ele>857.4</ele>
        <time>2026-05-13T18:38:25Z</time>
      </trkpt>
      <trkpt lat="46.03266" lon="5.59782">
        <ele>857.4</ele>
        <time>2026-05-13T18:38:26Z</time>
      </trkpt>
      <trkpt lat="46.03258" lon="5.5978">
        <ele>857.4</ele>
        <time>2026-05-13T18:38:27Z</time>
      </trkpt>
      <trkpt lat="46.03251" lon="5.59779">
        <ele>857</ele>
        <time>2026-05-13T18:38:28Z</time>
      </trkpt>
      <trkpt lat="46.03243" lon="5.59777">
        <ele>857</ele>
        <time>2026-05-13T18:38:29Z</time>
      </trkpt>
      <trkpt lat="46.03236" lon="5.59776">
        <ele>857</ele>
        <time>2026-05-13T18:38:30Z</time>
      </trkpt>
      <trkpt lat="46.03229" lon="5.59775">
        <ele>857</ele>
        <time>2026-05-13T18:38:31Z</time>
      </trkpt>
      <trkpt lat="46.03222" lon="5.59773">
        <ele>857</ele>
        <time>2026-05-13T18:38:32Z</time>
      </trkpt>
      <trkpt lat="46.03215" lon="5.59772">
        <ele>857</ele>
        <time>2026-05-13T18:38:33Z</time>
      </trkpt>
      <trkpt lat="46.03208" lon="5.5977">
        <ele>857.2</ele>
        <time>2026-05-13T18:38:34Z</time>
      </trkpt>
      <trkpt lat="46.03201" lon="5.59769">
        <ele>857.2</ele>
        <time>2026-05-13T18:38:35Z</time>
      </trkpt>
      <trkpt lat="46.03194" lon="5.59768">
        <ele>857.2</ele>
        <time>2026-05-13T18:38:36Z</time>
      </trkpt>
      <trkpt lat="46.03188" lon="5.59766">
        <ele>857.2</ele>
        <time>2026-05-13T18:38:37Z</time>
      </trkpt>
      <trkpt lat="46.03181" lon="5.59765">
        <ele>857.2</ele>
        <time>2026-05-13T18:38:38Z</time>
      </trkpt>
      <trkpt lat="46.03174" lon="5.59764">
        <ele>857.2</ele>
        <time>2026-05-13T18:38:39Z</time>
      </trkpt>
      <trkpt lat="46.03167" lon="5.59762">
        <ele>857.2</ele>
        <time>2026-05-13T18:38:40Z</time>
      </trkpt>
      <trkpt lat="46.03159" lon="5.59761">
        <ele>857.2</ele>
        <time>2026-05-13T18:38:41Z</time>
      </trkpt>
      <trkpt lat="46.03152" lon="5.59759">
        <ele>857.2</ele>
        <time>2026-05-13T18:38:42Z</time>
      </trkpt>
      <trkpt lat="46.03145" lon="5.59758">
        <ele>857</ele>
        <time>2026-05-13T18:38:43Z</time>
      </trkpt>
      <trkpt lat="46.03138" lon="5.59756">
        <ele>856.8</ele>
        <time>2026-05-13T18:38:44Z</time>
      </trkpt>
      <trkpt lat="46.03132" lon="5.59755">
        <ele>856.8</ele>
        <time>2026-05-13T18:38:45Z</time>
      </trkpt>
      <trkpt lat="46.03125" lon="5.59753">
        <ele>856.8</ele>
        <time>2026-05-13T18:38:46Z</time>
      </trkpt>
      <trkpt lat="46.03117" lon="5.59752">
        <ele>856.8</ele>
        <time>2026-05-13T18:38:47Z</time>
      </trkpt>
      <trkpt lat="46.0311" lon="5.5975">
        <ele>856.8</ele>
        <time>2026-05-13T18:38:48Z</time>
      </trkpt>
      <trkpt lat="46.03103" lon="5.59749">
        <ele>856.8</ele>
        <time>2026-05-13T18:38:49Z</time>
      </trkpt>
      <trkpt lat="46.03095" lon="5.59748">
        <ele>856.4</ele>
        <time>2026-05-13T18:38:50Z</time>
      </trkpt>
      <trkpt lat="46.03088" lon="5.59746">
        <ele>856.4</ele>
        <time>2026-05-13T18:38:51Z</time>
      </trkpt>
      <trkpt lat="46.03082" lon="5.59744">
        <ele>856.4</ele>
        <time>2026-05-13T18:38:52Z</time>
      </trkpt>
      <trkpt lat="46.03074" lon="5.59744">
        <ele>856.2</ele>
        <time>2026-05-13T18:38:53Z</time>
      </trkpt>
      <trkpt lat="46.03067" lon="5.59742">
        <ele>856.2</ele>
        <time>2026-05-13T18:38:54Z</time>
      </trkpt>
      <trkpt lat="46.0306" lon="5.5974">
        <ele>856.2</ele>
        <time>2026-05-13T18:38:55Z</time>
      </trkpt>
      <trkpt lat="46.03052" lon="5.59739">
        <ele>856.2</ele>
        <time>2026-05-13T18:38:56Z</time>
      </trkpt>
      <trkpt lat="46.03046" lon="5.59738">
        <ele>856.2</ele>
        <time>2026-05-13T18:38:57Z</time>
      </trkpt>
      <trkpt lat="46.03039" lon="5.59737">
        <ele>856.2</ele>
        <time>2026-05-13T18:38:58Z</time>
      </trkpt>
      <trkpt lat="46.03031" lon="5.59736">
        <ele>856.2</ele>
        <time>2026-05-13T18:38:59Z</time>
      </trkpt>
      <trkpt lat="46.03025" lon="5.59735">
        <ele>856.4</ele>
        <time>2026-05-13T18:39:00Z</time>
      </trkpt>
      <trkpt lat="46.03018" lon="5.59734">
        <ele>856.4</ele>
        <time>2026-05-13T18:39:01Z</time>
      </trkpt>
      <trkpt lat="46.0301" lon="5.59732">
        <ele>856.4</ele>
        <time>2026-05-13T18:39:02Z</time>
      </trkpt>
      <trkpt lat="46.03003" lon="5.59732">
        <ele>856.4</ele>
        <time>2026-05-13T18:39:03Z</time>
      </trkpt>
      <trkpt lat="46.02996" lon="5.59731">
        <ele>856.4</ele>
        <time>2026-05-13T18:39:04Z</time>
      </trkpt>
      <trkpt lat="46.02989" lon="5.5973">
        <ele>856.4</ele>
        <time>2026-05-13T18:39:05Z</time>
      </trkpt>
      <trkpt lat="46.02982" lon="5.59729">
        <ele>856.2</ele>
        <time>2026-05-13T18:39:06Z</time>
      </trkpt>
      <trkpt lat="46.02975" lon="5.59728">
        <ele>856.2</ele>
        <time>2026-05-13T18:39:07Z</time>
      </trkpt>
      <trkpt lat="46.02968" lon="5.59727">
        <ele>856.4</ele>
        <time>2026-05-13T18:39:08Z</time>
      </trkpt>
      <trkpt lat="46.0296" lon="5.59726">
        <ele>856.2</ele>
        <time>2026-05-13T18:39:09Z</time>
      </trkpt>
      <trkpt lat="46.02953" lon="5.59725">
        <ele>856.2</ele>
        <time>2026-05-13T18:39:10Z</time>
      </trkpt>
      <trkpt lat="46.02945" lon="5.59724">
        <ele>856.2</ele>
        <time>2026-05-13T18:39:11Z</time>
      </trkpt>
      <trkpt lat="46.02938" lon="5.59723">
        <ele>856.2</ele>
        <time>2026-05-13T18:39:12Z</time>
      </trkpt>
      <trkpt lat="46.0293" lon="5.59722">
        <ele>855.8</ele>
        <time>2026-05-13T18:39:13Z</time>
      </trkpt>
      <trkpt lat="46.02923" lon="5.59722">
        <ele>855.4</ele>
        <time>2026-05-13T18:39:14Z</time>
      </trkpt>
      <trkpt lat="46.02915" lon="5.59721">
        <ele>855.4</ele>
        <time>2026-05-13T18:39:15Z</time>
      </trkpt>
      <trkpt lat="46.02907" lon="5.5972">
        <ele>855.4</ele>
        <time>2026-05-13T18:39:16Z</time>
      </trkpt>
      <trkpt lat="46.029" lon="5.59719">
        <ele>855</ele>
        <time>2026-05-13T18:39:17Z</time>
      </trkpt>
      <trkpt lat="46.02892" lon="5.59718">
        <ele>854.8</ele>
        <time>2026-05-13T18:39:18Z</time>
      </trkpt>
      <trkpt lat="46.02884" lon="5.59717">
        <ele>854.8</ele>
        <time>2026-05-13T18:39:19Z</time>
      </trkpt>
      <trkpt lat="46.02877" lon="5.59717">
        <ele>854.4</ele>
        <time>2026-05-13T18:39:20Z</time>
      </trkpt>
      <trkpt lat="46.02869" lon="5.59715">
        <ele>854.4</ele>
        <time>2026-05-13T18:39:21Z</time>
      </trkpt>
      <trkpt lat="46.02861" lon="5.59714">
        <ele>854.4</ele>
        <time>2026-05-13T18:39:22Z</time>
      </trkpt>
      <trkpt lat="46.02854" lon="5.59714">
        <ele>854.4</ele>
        <time>2026-05-13T18:39:23Z</time>
      </trkpt>
      <trkpt lat="46.02846" lon="5.59713">
        <ele>854.4</ele>
        <time>2026-05-13T18:39:24Z</time>
      </trkpt>
      <trkpt lat="46.02838" lon="5.59712">
        <ele>854.4</ele>
        <time>2026-05-13T18:39:25Z</time>
      </trkpt>
      <trkpt lat="46.0283" lon="5.59712">
        <ele>854.2</ele>
        <time>2026-05-13T18:39:26Z</time>
      </trkpt>
      <trkpt lat="46.02823" lon="5.5971">
        <ele>854.2</ele>
        <time>2026-05-13T18:39:27Z</time>
      </trkpt>
      <trkpt lat="46.02815" lon="5.59709">
        <ele>854.2</ele>
        <time>2026-05-13T18:39:28Z</time>
      </trkpt>
      <trkpt lat="46.02807" lon="5.59709">
        <ele>854</ele>
        <time>2026-05-13T18:39:29Z</time>
      </trkpt>
      <trkpt lat="46.02799" lon="5.59708">
        <ele>854</ele>
        <time>2026-05-13T18:39:30Z</time>
      </trkpt>
      <trkpt lat="46.02792" lon="5.59708">
        <ele>854</ele>
        <time>2026-05-13T18:39:31Z</time>
      </trkpt>
      <trkpt lat="46.02783" lon="5.59707">
        <ele>853.6</ele>
        <time>2026-05-13T18:39:32Z</time>
      </trkpt>
      <trkpt lat="46.02775" lon="5.59706">
        <ele>853.4</ele>
        <time>2026-05-13T18:39:33Z</time>
      </trkpt>
      <trkpt lat="46.02767" lon="5.59704">
        <ele>853</ele>
        <time>2026-05-13T18:39:34Z</time>
      </trkpt>
      <trkpt lat="46.02758" lon="5.59704">
        <ele>852.4</ele>
        <time>2026-05-13T18:39:35Z</time>
      </trkpt>
      <trkpt lat="46.02758" lon="5.59704">
        <ele>852.2</ele>
        <time>2026-05-13T18:39:36Z</time>
      </trkpt>
      <trkpt lat="46.02749" lon="5.59703">
        <ele>852.2</ele>
        <time>2026-05-13T18:39:37Z</time>
      </trkpt>
      <trkpt lat="46.02741" lon="5.59702">
        <ele>851.8</ele>
        <time>2026-05-13T18:39:38Z</time>
      </trkpt>
      <trkpt lat="46.02732" lon="5.597">
        <ele>851.4</ele>
        <time>2026-05-13T18:39:39Z</time>
      </trkpt>
      <trkpt lat="46.02724" lon="5.59699">
        <ele>851.4</ele>
        <time>2026-05-13T18:39:40Z</time>
      </trkpt>
      <trkpt lat="46.02715" lon="5.59699">
        <ele>850.8</ele>
        <time>2026-05-13T18:39:41Z</time>
      </trkpt>
      <trkpt lat="46.02707" lon="5.59697">
        <ele>850.8</ele>
        <time>2026-05-13T18:39:42Z</time>
      </trkpt>
      <trkpt lat="46.02698" lon="5.59697">
        <ele>850.8</ele>
        <time>2026-05-13T18:39:43Z</time>
      </trkpt>
      <trkpt lat="46.0269" lon="5.59696">
        <ele>850.8</ele>
        <time>2026-05-13T18:39:44Z</time>
      </trkpt>
      <trkpt lat="46.02681" lon="5.59695">
        <ele>850.8</ele>
        <time>2026-05-13T18:39:45Z</time>
      </trkpt>
      <trkpt lat="46.02673" lon="5.59694">
        <ele>850.8</ele>
        <time>2026-05-13T18:39:46Z</time>
      </trkpt>
      <trkpt lat="46.02664" lon="5.59693">
        <ele>850.8</ele>
        <time>2026-05-13T18:39:47Z</time>
      </trkpt>
      <trkpt lat="46.02656" lon="5.59692">
        <ele>850.8</ele>
        <time>2026-05-13T18:39:48Z</time>
      </trkpt>
      <trkpt lat="46.02648" lon="5.59691">
        <ele>850.8</ele>
        <time>2026-05-13T18:39:49Z</time>
      </trkpt>
      <trkpt lat="46.0264" lon="5.5969">
        <ele>850.8</ele>
        <time>2026-05-13T18:39:50Z</time>
      </trkpt>
      <trkpt lat="46.02632" lon="5.59689">
        <ele>850.8</ele>
        <time>2026-05-13T18:39:51Z</time>
      </trkpt>
      <trkpt lat="46.02624" lon="5.59688">
        <ele>850.8</ele>
        <time>2026-05-13T18:39:52Z</time>
      </trkpt>
      <trkpt lat="46.02616" lon="5.59687">
        <ele>850.4</ele>
        <time>2026-05-13T18:39:53Z</time>
      </trkpt>
      <trkpt lat="46.02608" lon="5.59686">
        <ele>850.4</ele>
        <time>2026-05-13T18:39:54Z</time>
      </trkpt>
      <trkpt lat="46.02601" lon="5.59685">
        <ele>850.4</ele>
        <time>2026-05-13T18:39:55Z</time>
      </trkpt>
      <trkpt lat="46.02593" lon="5.59684">
        <ele>850.8</ele>
        <time>2026-05-13T18:39:56Z</time>
      </trkpt>
      <trkpt lat="46.02585" lon="5.59684">
        <ele>850.8</ele>
        <time>2026-05-13T18:39:57Z</time>
      </trkpt>
      <trkpt lat="46.02578" lon="5.59682">
        <ele>851</ele>
        <time>2026-05-13T18:39:58Z</time>
      </trkpt>
      <trkpt lat="46.0257" lon="5.59681">
        <ele>851</ele>
        <time>2026-05-13T18:39:59Z</time>
      </trkpt>
      <trkpt lat="46.02563" lon="5.59681">
        <ele>851</ele>
        <time>2026-05-13T18:40:00Z</time>
      </trkpt>
      <trkpt lat="46.02556" lon="5.5968">
        <ele>851</ele>
        <time>2026-05-13T18:40:01Z</time>
      </trkpt>
      <trkpt lat="46.02548" lon="5.5968">
        <ele>851</ele>
        <time>2026-05-13T18:40:02Z</time>
      </trkpt>
      <trkpt lat="46.02541" lon="5.59679">
        <ele>851</ele>
        <time>2026-05-13T18:40:03Z</time>
      </trkpt>
      <trkpt lat="46.02533" lon="5.59678">
        <ele>851.4</ele>
        <time>2026-05-13T18:40:04Z</time>
      </trkpt>
      <trkpt lat="46.02526" lon="5.59677">
        <ele>851.4</ele>
        <time>2026-05-13T18:40:05Z</time>
      </trkpt>
      <trkpt lat="46.02519" lon="5.59677">
        <ele>851</ele>
        <time>2026-05-13T18:40:06Z</time>
      </trkpt>
      <trkpt lat="46.02512" lon="5.59675">
        <ele>851.2</ele>
        <time>2026-05-13T18:40:07Z</time>
      </trkpt>
      <trkpt lat="46.02505" lon="5.59675">
        <ele>851.2</ele>
        <time>2026-05-13T18:40:08Z</time>
      </trkpt>
      <trkpt lat="46.02498" lon="5.59674">
        <ele>851.2</ele>
        <time>2026-05-13T18:40:09Z</time>
      </trkpt>
      <trkpt lat="46.0249" lon="5.59673">
        <ele>851.2</ele>
        <time>2026-05-13T18:40:10Z</time>
      </trkpt>
      <trkpt lat="46.02483" lon="5.59672">
        <ele>851</ele>
        <time>2026-05-13T18:40:11Z</time>
      </trkpt>
      <trkpt lat="46.02476" lon="5.59671">
        <ele>851</ele>
        <time>2026-05-13T18:40:12Z</time>
      </trkpt>
      <trkpt lat="46.02469" lon="5.59671">
        <ele>850.8</ele>
        <time>2026-05-13T18:40:13Z</time>
      </trkpt>
      <trkpt lat="46.02462" lon="5.5967">
        <ele>850.8</ele>
        <time>2026-05-13T18:40:14Z</time>
      </trkpt>
      <trkpt lat="46.02455" lon="5.59669">
        <ele>850.6</ele>
        <time>2026-05-13T18:40:15Z</time>
      </trkpt>
      <trkpt lat="46.02448" lon="5.59668">
        <ele>850.2</ele>
        <time>2026-05-13T18:40:16Z</time>
      </trkpt>
      <trkpt lat="46.02441" lon="5.59667">
        <ele>850.2</ele>
        <time>2026-05-13T18:40:17Z</time>
      </trkpt>
      <trkpt lat="46.02434" lon="5.59667">
        <ele>850.2</ele>
        <time>2026-05-13T18:40:18Z</time>
      </trkpt>
      <trkpt lat="46.02427" lon="5.59666">
        <ele>850.6</ele>
        <time>2026-05-13T18:40:19Z</time>
      </trkpt>
      <trkpt lat="46.02419" lon="5.59665">
        <ele>850.6</ele>
        <time>2026-05-13T18:40:20Z</time>
      </trkpt>
      <trkpt lat="46.02412" lon="5.59664">
        <ele>850.4</ele>
        <time>2026-05-13T18:40:21Z</time>
      </trkpt>
      <trkpt lat="46.02405" lon="5.59664">
        <ele>850.4</ele>
        <time>2026-05-13T18:40:22Z</time>
      </trkpt>
      <trkpt lat="46.02398" lon="5.59663">
        <ele>850.6</ele>
        <time>2026-05-13T18:40:23Z</time>
      </trkpt>
      <trkpt lat="46.02391" lon="5.59662">
        <ele>850.6</ele>
        <time>2026-05-13T18:40:24Z</time>
      </trkpt>
      <trkpt lat="46.02385" lon="5.59662">
        <ele>850.6</ele>
        <time>2026-05-13T18:40:25Z</time>
      </trkpt>
      <trkpt lat="46.02378" lon="5.59661">
        <ele>850.6</ele>
        <time>2026-05-13T18:40:26Z</time>
      </trkpt>
      <trkpt lat="46.02371" lon="5.5966">
        <ele>850.4</ele>
        <time>2026-05-13T18:40:27Z</time>
      </trkpt>
      <trkpt lat="46.02365" lon="5.5966">
        <ele>850.4</ele>
        <time>2026-05-13T18:40:28Z</time>
      </trkpt>
      <trkpt lat="46.02358" lon="5.59659">
        <ele>850.4</ele>
        <time>2026-05-13T18:40:29Z</time>
      </trkpt>
      <trkpt lat="46.02352" lon="5.59658">
        <ele>850.4</ele>
        <time>2026-05-13T18:40:30Z</time>
      </trkpt>
      <trkpt lat="46.02345" lon="5.59657">
        <ele>850.4</ele>
        <time>2026-05-13T18:40:31Z</time>
      </trkpt>
      <trkpt lat="46.02339" lon="5.59657">
        <ele>850.4</ele>
        <time>2026-05-13T18:40:32Z</time>
      </trkpt>
      <trkpt lat="46.02333" lon="5.59656">
        <ele>850.6</ele>
        <time>2026-05-13T18:40:33Z</time>
      </trkpt>
      <trkpt lat="46.02326" lon="5.59655">
        <ele>850.6</ele>
        <time>2026-05-13T18:40:34Z</time>
      </trkpt>
      <trkpt lat="46.0232" lon="5.59654">
        <ele>850.6</ele>
        <time>2026-05-13T18:40:35Z</time>
      </trkpt>
      <trkpt lat="46.02313" lon="5.59653">
        <ele>850.6</ele>
        <time>2026-05-13T18:40:36Z</time>
      </trkpt>
      <trkpt lat="46.02307" lon="5.59652">
        <ele>850.4</ele>
        <time>2026-05-13T18:40:37Z</time>
      </trkpt>
      <trkpt lat="46.02301" lon="5.59652">
        <ele>850.4</ele>
        <time>2026-05-13T18:40:38Z</time>
      </trkpt>
      <trkpt lat="46.02295" lon="5.59651">
        <ele>850.4</ele>
        <time>2026-05-13T18:40:39Z</time>
      </trkpt>
      <trkpt lat="46.02289" lon="5.5965">
        <ele>850.4</ele>
        <time>2026-05-13T18:40:40Z</time>
      </trkpt>
      <trkpt lat="46.02282" lon="5.5965">
        <ele>850.4</ele>
        <time>2026-05-13T18:40:41Z</time>
      </trkpt>
      <trkpt lat="46.02277" lon="5.59649">
        <ele>850.4</ele>
        <time>2026-05-13T18:40:42Z</time>
      </trkpt>
      <trkpt lat="46.0227" lon="5.59648">
        <ele>850.4</ele>
        <time>2026-05-13T18:40:43Z</time>
      </trkpt>
      <trkpt lat="46.02264" lon="5.59648">
        <ele>850.4</ele>
        <time>2026-05-13T18:40:44Z</time>
      </trkpt>
      <trkpt lat="46.02258" lon="5.59647">
        <ele>850.8</ele>
        <time>2026-05-13T18:40:45Z</time>
      </trkpt>
      <trkpt lat="46.02252" lon="5.59646">
        <ele>850.8</ele>
        <time>2026-05-13T18:40:46Z</time>
      </trkpt>
      <trkpt lat="46.02246" lon="5.59646">
        <ele>850.6</ele>
        <time>2026-05-13T18:40:47Z</time>
      </trkpt>
      <trkpt lat="46.0224" lon="5.59645">
        <ele>850.6</ele>
        <time>2026-05-13T18:40:48Z</time>
      </trkpt>
      <trkpt lat="46.02234" lon="5.59644">
        <ele>850.6</ele>
        <time>2026-05-13T18:40:49Z</time>
      </trkpt>
      <trkpt lat="46.02228" lon="5.59645">
        <ele>850.6</ele>
        <time>2026-05-13T18:40:50Z</time>
      </trkpt>
      <trkpt lat="46.02223" lon="5.59644">
        <ele>850.6</ele>
        <time>2026-05-13T18:40:51Z</time>
      </trkpt>
      <trkpt lat="46.02217" lon="5.59643">
        <ele>850.6</ele>
        <time>2026-05-13T18:40:52Z</time>
      </trkpt>
      <trkpt lat="46.02212" lon="5.59641">
        <ele>850.2</ele>
        <time>2026-05-13T18:40:53Z</time>
      </trkpt>
      <trkpt lat="46.02207" lon="5.59638">
        <ele>850.2</ele>
        <time>2026-05-13T18:40:54Z</time>
      </trkpt>
      <trkpt lat="46.02203" lon="5.59634">
        <ele>850.2</ele>
        <time>2026-05-13T18:40:55Z</time>
      </trkpt>
      <trkpt lat="46.02201" lon="5.59627">
        <ele>850.2</ele>
        <time>2026-05-13T18:40:56Z</time>
      </trkpt>
      <trkpt lat="46.022" lon="5.5962">
        <ele>850.2</ele>
        <time>2026-05-13T18:40:57Z</time>
      </trkpt>
      <trkpt lat="46.02202" lon="5.59612">
        <ele>850</ele>
        <time>2026-05-13T18:40:58Z</time>
      </trkpt>
      <trkpt lat="46.02204" lon="5.59605">
        <ele>849.4</ele>
        <time>2026-05-13T18:40:59Z</time>
      </trkpt>
      <trkpt lat="46.02207" lon="5.59599">
        <ele>849</ele>
        <time>2026-05-13T18:41:00Z</time>
      </trkpt>
      <trkpt lat="46.02211" lon="5.59592">
        <ele>848.8</ele>
        <time>2026-05-13T18:41:01Z</time>
      </trkpt>
      <trkpt lat="46.02214" lon="5.59584">
        <ele>848.2</ele>
        <time>2026-05-13T18:41:02Z</time>
      </trkpt>
      <trkpt lat="46.02216" lon="5.59575">
        <ele>847.6</ele>
        <time>2026-05-13T18:41:03Z</time>
      </trkpt>
      <trkpt lat="46.02218" lon="5.59566">
        <ele>847.2</ele>
        <time>2026-05-13T18:41:04Z</time>
      </trkpt>
      <trkpt lat="46.0222" lon="5.59556">
        <ele>846.8</ele>
        <time>2026-05-13T18:41:05Z</time>
      </trkpt>
      <trkpt lat="46.02221" lon="5.59546">
        <ele>846.6</ele>
        <time>2026-05-13T18:41:06Z</time>
      </trkpt>
      <trkpt lat="46.02222" lon="5.59537">
        <ele>846.6</ele>
        <time>2026-05-13T18:41:07Z</time>
      </trkpt>
      <trkpt lat="46.02222" lon="5.59527">
        <ele>846.4</ele>
        <time>2026-05-13T18:41:08Z</time>
      </trkpt>
      <trkpt lat="46.02223" lon="5.59517">
        <ele>846.4</ele>
        <time>2026-05-13T18:41:09Z</time>
      </trkpt>
      <trkpt lat="46.02223" lon="5.59508">
        <ele>846.4</ele>
        <time>2026-05-13T18:41:10Z</time>
      </trkpt>
      <trkpt lat="46.02223" lon="5.59499">
        <ele>846.4</ele>
        <time>2026-05-13T18:41:11Z</time>
      </trkpt>
      <trkpt lat="46.02223" lon="5.5949">
        <ele>846</ele>
        <time>2026-05-13T18:41:12Z</time>
      </trkpt>
      <trkpt lat="46.02223" lon="5.5948">
        <ele>846</ele>
        <time>2026-05-13T18:41:13Z</time>
      </trkpt>
      <trkpt lat="46.02224" lon="5.59472">
        <ele>846</ele>
        <time>2026-05-13T18:41:14Z</time>
      </trkpt>
      <trkpt lat="46.02224" lon="5.59463">
        <ele>845.8</ele>
        <time>2026-05-13T18:41:15Z</time>
      </trkpt>
      <trkpt lat="46.02224" lon="5.59445">
        <ele>845.8</ele>
        <time>2026-05-13T18:41:16Z</time>
      </trkpt>
      <trkpt lat="46.02223" lon="5.59435">
        <ele>845.4</ele>
        <time>2026-05-13T18:41:17Z</time>
      </trkpt>
      <trkpt lat="46.02223" lon="5.59425">
        <ele>845.4</ele>
        <time>2026-05-13T18:41:18Z</time>
      </trkpt>
      <trkpt lat="46.02222" lon="5.59416">
        <ele>845.2</ele>
        <time>2026-05-13T18:41:19Z</time>
      </trkpt>
      <trkpt lat="46.02221" lon="5.59406">
        <ele>845.2</ele>
        <time>2026-05-13T18:41:20Z</time>
      </trkpt>
      <trkpt lat="46.0222" lon="5.59396">
        <ele>844.8</ele>
        <time>2026-05-13T18:41:21Z</time>
      </trkpt>
      <trkpt lat="46.02219" lon="5.59387">
        <ele>844.8</ele>
        <time>2026-05-13T18:41:22Z</time>
      </trkpt>
      <trkpt lat="46.02219" lon="5.59377">
        <ele>844.6</ele>
        <time>2026-05-13T18:41:23Z</time>
      </trkpt>
      <trkpt lat="46.02218" lon="5.59367">
        <ele>844.6</ele>
        <time>2026-05-13T18:41:24Z</time>
      </trkpt>
      <trkpt lat="46.02218" lon="5.59357">
        <ele>844.4</ele>
        <time>2026-05-13T18:41:25Z</time>
      </trkpt>
      <trkpt lat="46.02217" lon="5.59349">
        <ele>844.4</ele>
        <time>2026-05-13T18:41:26Z</time>
      </trkpt>
      <trkpt lat="46.02217" lon="5.5934">
        <ele>844.4</ele>
        <time>2026-05-13T18:41:27Z</time>
      </trkpt>
      <trkpt lat="46.02218" lon="5.59332">
        <ele>844.4</ele>
        <time>2026-05-13T18:41:28Z</time>
      </trkpt>
      <trkpt lat="46.02219" lon="5.59324">
        <ele>844.4</ele>
        <time>2026-05-13T18:41:29Z</time>
      </trkpt>
      <trkpt lat="46.02221" lon="5.59318">
        <ele>844.4</ele>
        <time>2026-05-13T18:41:30Z</time>
      </trkpt>
      <trkpt lat="46.02225" lon="5.59312">
        <ele>844.6</ele>
        <time>2026-05-13T18:41:31Z</time>
      </trkpt>
      <trkpt lat="46.02229" lon="5.59309">
        <ele>844.6</ele>
        <time>2026-05-13T18:41:32Z</time>
      </trkpt>
      <trkpt lat="46.02233" lon="5.59307">
        <ele>845</ele>
        <time>2026-05-13T18:41:33Z</time>
      </trkpt>
      <trkpt lat="46.02238" lon="5.59305">
        <ele>845</ele>
        <time>2026-05-13T18:41:34Z</time>
      </trkpt>
      <trkpt lat="46.02244" lon="5.59305">
        <ele>845.2</ele>
        <time>2026-05-13T18:41:35Z</time>
      </trkpt>
      <trkpt lat="46.02249" lon="5.59307">
        <ele>845.2</ele>
        <time>2026-05-13T18:41:36Z</time>
      </trkpt>
      <trkpt lat="46.02254" lon="5.59306">
        <ele>845.2</ele>
        <time>2026-05-13T18:41:37Z</time>
      </trkpt>
      <trkpt lat="46.0226" lon="5.59306">
        <ele>845</ele>
        <time>2026-05-13T18:41:38Z</time>
      </trkpt>
      <trkpt lat="46.02265" lon="5.59305">
        <ele>845</ele>
        <time>2026-05-13T18:41:39Z</time>
      </trkpt>
      <trkpt lat="46.02271" lon="5.59304">
        <ele>844.8</ele>
        <time>2026-05-13T18:41:40Z</time>
      </trkpt>
      <trkpt lat="46.02276" lon="5.59302">
        <ele>844.8</ele>
        <time>2026-05-13T18:41:41Z</time>
      </trkpt>
      <trkpt lat="46.02281" lon="5.59299">
        <ele>844.8</ele>
        <time>2026-05-13T18:41:42Z</time>
      </trkpt>
      <trkpt lat="46.02286" lon="5.59297">
        <ele>844.4</ele>
        <time>2026-05-13T18:41:43Z</time>
      </trkpt>
      <trkpt lat="46.02291" lon="5.59294">
        <ele>844.4</ele>
        <time>2026-05-13T18:41:44Z</time>
      </trkpt>
      <trkpt lat="46.02296" lon="5.5929">
        <ele>844.2</ele>
        <time>2026-05-13T18:41:45Z</time>
      </trkpt>
      <trkpt lat="46.023" lon="5.59285">
        <ele>844.2</ele>
        <time>2026-05-13T18:41:46Z</time>
      </trkpt>
      <trkpt lat="46.02304" lon="5.5928">
        <ele>844.2</ele>
        <time>2026-05-13T18:41:47Z</time>
      </trkpt>
      <trkpt lat="46.02306" lon="5.59274">
        <ele>844.2</ele>
        <time>2026-05-13T18:41:48Z</time>
      </trkpt>
      <trkpt lat="46.02308" lon="5.59268">
        <ele>844.2</ele>
        <time>2026-05-13T18:41:49Z</time>
      </trkpt>
      <trkpt lat="46.02309" lon="5.59261">
        <ele>844.2</ele>
        <time>2026-05-13T18:41:50Z</time>
      </trkpt>
      <trkpt lat="46.0231" lon="5.59254">
        <ele>844.2</ele>
        <time>2026-05-13T18:41:51Z</time>
      </trkpt>
      <trkpt lat="46.0231" lon="5.59247">
        <ele>844.2</ele>
        <time>2026-05-13T18:41:52Z</time>
      </trkpt>
      <trkpt lat="46.0231" lon="5.59241">
        <ele>844.4</ele>
        <time>2026-05-13T18:41:53Z</time>
      </trkpt>
      <trkpt lat="46.02309" lon="5.59234">
        <ele>844.4</ele>
        <time>2026-05-13T18:41:54Z</time>
      </trkpt>
      <trkpt lat="46.02308" lon="5.59228">
        <ele>844.4</ele>
        <time>2026-05-13T18:41:55Z</time>
      </trkpt>
    </trkseg>
  </trk>
</gpx>